<?xml version="1.0" encoding="UTF-8" standalone="no" ?>
<gpx xmlns="http://www.topografix.com/GPX/1/1" xmlns:xsi="http://www.w3.org/2001/XMLSchema-instance" xsi:schemaLocation="http://www.topografix.com/GPX/1/1 http://www.topografix.com/GPX/1/1/gpx.xsd" version="1.1" creator="VisuGPX - https://www.visugpx.com">
  <metadata>
    <name>Chalon-sur-Saône Cyclisme sur route</name>
    <desc><![CDATA[

]]></desc>
  </metadata>
  <trk>
    <name><![CDATA[Chalon-sur-Saône Cyclisme sur route]]></name>
    <extensions>
      <line xmlns="http://www.topografix.com/GPX/gpx_style/0/2">
        <color>00FFFF</color>
        <width>4</width>
      </line>
    </extensions>
    <trkseg>
      <trkpt lat="46.77906" lon="4.85248">
        <ele>180.60000610352</ele>
        <time>2024-05-20T06:26:42.000Z</time>
      </trkpt>
      <trkpt lat="46.77905" lon="4.85249">
        <ele>180.39999389648</ele>
        <time>2024-05-20T06:26:43.000Z</time>
      </trkpt>
      <trkpt lat="46.77905" lon="4.85251">
        <ele>180.39999389648</ele>
        <time>2024-05-20T06:26:44.000Z</time>
      </trkpt>
      <trkpt lat="46.77903" lon="4.85253">
        <ele>180.39999389648</ele>
        <time>2024-05-20T06:26:45.000Z</time>
      </trkpt>
      <trkpt lat="46.77901" lon="4.85255">
        <ele>180.39999389648</ele>
        <time>2024-05-20T06:26:46.000Z</time>
      </trkpt>
      <trkpt lat="46.779" lon="4.85257">
        <ele>180.39999389648</ele>
        <time>2024-05-20T06:26:47.000Z</time>
      </trkpt>
      <trkpt lat="46.77898" lon="4.85259">
        <ele>180.39999389648</ele>
        <time>2024-05-20T06:26:48.000Z</time>
      </trkpt>
      <trkpt lat="46.77896" lon="4.8526">
        <ele>180.60000610352</ele>
        <time>2024-05-20T06:26:49.000Z</time>
      </trkpt>
      <trkpt lat="46.77895" lon="4.85261">
        <ele>180.39999389648</ele>
        <time>2024-05-20T06:26:50.000Z</time>
      </trkpt>
      <trkpt lat="46.77893" lon="4.85262">
        <ele>180.60000610352</ele>
        <time>2024-05-20T06:26:51.000Z</time>
      </trkpt>
      <trkpt lat="46.77893" lon="4.85262">
        <ele>180.60000610352</ele>
        <time>2024-05-20T06:26:52.000Z</time>
      </trkpt>
      <trkpt lat="46.77891" lon="4.85262">
        <ele>180.80000305176</ele>
        <time>2024-05-20T06:26:53.000Z</time>
      </trkpt>
      <trkpt lat="46.7789" lon="4.85261">
        <ele>180.80000305176</ele>
        <time>2024-05-20T06:26:54.000Z</time>
      </trkpt>
      <trkpt lat="46.77889" lon="4.8526">
        <ele>180.80000305176</ele>
        <time>2024-05-20T06:26:55.000Z</time>
      </trkpt>
      <trkpt lat="46.77888" lon="4.85258">
        <ele>180.80000305176</ele>
        <time>2024-05-20T06:26:56.000Z</time>
      </trkpt>
      <trkpt lat="46.77887" lon="4.85256">
        <ele>180.80000305176</ele>
        <time>2024-05-20T06:26:57.000Z</time>
      </trkpt>
      <trkpt lat="46.77886" lon="4.85254">
        <ele>180.60000610352</ele>
        <time>2024-05-20T06:26:58.000Z</time>
      </trkpt>
      <trkpt lat="46.77885" lon="4.85252">
        <ele>180.60000610352</ele>
        <time>2024-05-20T06:26:59.000Z</time>
      </trkpt>
      <trkpt lat="46.77884" lon="4.8525">
        <ele>180.60000610352</ele>
        <time>2024-05-20T06:27:00.000Z</time>
      </trkpt>
      <trkpt lat="46.77883" lon="4.85248">
        <ele>180.80000305176</ele>
        <time>2024-05-20T06:27:01.000Z</time>
      </trkpt>
      <trkpt lat="46.77882" lon="4.85245">
        <ele>180.80000305176</ele>
        <time>2024-05-20T06:27:04.000Z</time>
      </trkpt>
      <trkpt lat="46.77881" lon="4.85243">
        <ele>180.80000305176</ele>
        <time>2024-05-20T06:27:05.000Z</time>
      </trkpt>
      <trkpt lat="46.7788" lon="4.8524">
        <ele>180.80000305176</ele>
        <time>2024-05-20T06:27:06.000Z</time>
      </trkpt>
      <trkpt lat="46.77878" lon="4.85237">
        <ele>180.80000305176</ele>
        <time>2024-05-20T06:27:07.000Z</time>
      </trkpt>
      <trkpt lat="46.77877" lon="4.85235">
        <ele>180.80000305176</ele>
        <time>2024-05-20T06:27:08.000Z</time>
      </trkpt>
      <trkpt lat="46.77876" lon="4.85231">
        <ele>180.80000305176</ele>
        <time>2024-05-20T06:27:09.000Z</time>
      </trkpt>
      <trkpt lat="46.77875" lon="4.85228">
        <ele>180.80000305176</ele>
        <time>2024-05-20T06:27:10.000Z</time>
      </trkpt>
      <trkpt lat="46.77874" lon="4.85224">
        <ele>181</ele>
        <time>2024-05-20T06:27:11.000Z</time>
      </trkpt>
      <trkpt lat="46.77872" lon="4.85221">
        <ele>181</ele>
        <time>2024-05-20T06:27:12.000Z</time>
      </trkpt>
      <trkpt lat="46.77871" lon="4.85217">
        <ele>181</ele>
        <time>2024-05-20T06:27:13.000Z</time>
      </trkpt>
      <trkpt lat="46.77869" lon="4.85214">
        <ele>181</ele>
        <time>2024-05-20T06:27:14.000Z</time>
      </trkpt>
      <trkpt lat="46.77868" lon="4.8521">
        <ele>181.19999694824</ele>
        <time>2024-05-20T06:27:15.000Z</time>
      </trkpt>
      <trkpt lat="46.77866" lon="4.85207">
        <ele>181.19999694824</ele>
        <time>2024-05-20T06:27:16.000Z</time>
      </trkpt>
      <trkpt lat="46.77865" lon="4.85203">
        <ele>181.39999389648</ele>
        <time>2024-05-20T06:27:17.000Z</time>
      </trkpt>
      <trkpt lat="46.77864" lon="4.852">
        <ele>181.39999389648</ele>
        <time>2024-05-20T06:27:18.000Z</time>
      </trkpt>
      <trkpt lat="46.77863" lon="4.85196">
        <ele>181.60000610352</ele>
        <time>2024-05-20T06:27:19.000Z</time>
      </trkpt>
      <trkpt lat="46.77861" lon="4.85193">
        <ele>181.80000305176</ele>
        <time>2024-05-20T06:27:20.000Z</time>
      </trkpt>
      <trkpt lat="46.7786" lon="4.85189">
        <ele>181.80000305176</ele>
        <time>2024-05-20T06:27:21.000Z</time>
      </trkpt>
      <trkpt lat="46.77858" lon="4.85184">
        <ele>182</ele>
        <time>2024-05-20T06:27:22.000Z</time>
      </trkpt>
      <trkpt lat="46.77856" lon="4.8518">
        <ele>182.19999694824</ele>
        <time>2024-05-20T06:27:23.000Z</time>
      </trkpt>
      <trkpt lat="46.77854" lon="4.85175">
        <ele>182.19999694824</ele>
        <time>2024-05-20T06:27:24.000Z</time>
      </trkpt>
      <trkpt lat="46.77853" lon="4.85171">
        <ele>182.39999389648</ele>
        <time>2024-05-20T06:27:25.000Z</time>
      </trkpt>
      <trkpt lat="46.77851" lon="4.85166">
        <ele>182.39999389648</ele>
        <time>2024-05-20T06:27:26.000Z</time>
      </trkpt>
      <trkpt lat="46.77849" lon="4.85162">
        <ele>182.60000610352</ele>
        <time>2024-05-20T06:27:27.000Z</time>
      </trkpt>
      <trkpt lat="46.77847" lon="4.85158">
        <ele>182.60000610352</ele>
        <time>2024-05-20T06:27:28.000Z</time>
      </trkpt>
      <trkpt lat="46.77846" lon="4.85154">
        <ele>182.60000610352</ele>
        <time>2024-05-20T06:27:29.000Z</time>
      </trkpt>
      <trkpt lat="46.77844" lon="4.8515">
        <ele>182.60000610352</ele>
        <time>2024-05-20T06:27:30.000Z</time>
      </trkpt>
      <trkpt lat="46.77844" lon="4.85145">
        <ele>182.60000610352</ele>
        <time>2024-05-20T06:27:31.000Z</time>
      </trkpt>
      <trkpt lat="46.77844" lon="4.8514">
        <ele>182.80000305176</ele>
        <time>2024-05-20T06:27:32.000Z</time>
      </trkpt>
      <trkpt lat="46.77845" lon="4.85135">
        <ele>182.80000305176</ele>
        <time>2024-05-20T06:27:33.000Z</time>
      </trkpt>
      <trkpt lat="46.77845" lon="4.85131">
        <ele>182.80000305176</ele>
        <time>2024-05-20T06:27:34.000Z</time>
      </trkpt>
      <trkpt lat="46.77845" lon="4.85125">
        <ele>182.80000305176</ele>
        <time>2024-05-20T06:27:35.000Z</time>
      </trkpt>
      <trkpt lat="46.77845" lon="4.8512">
        <ele>182.80000305176</ele>
        <time>2024-05-20T06:27:36.000Z</time>
      </trkpt>
      <trkpt lat="46.77845" lon="4.85115">
        <ele>182.80000305176</ele>
        <time>2024-05-20T06:27:37.000Z</time>
      </trkpt>
      <trkpt lat="46.77845" lon="4.8511">
        <ele>182.60000610352</ele>
        <time>2024-05-20T06:27:38.000Z</time>
      </trkpt>
      <trkpt lat="46.77845" lon="4.85105">
        <ele>182.60000610352</ele>
        <time>2024-05-20T06:27:39.000Z</time>
      </trkpt>
      <trkpt lat="46.77845" lon="4.851">
        <ele>182.60000610352</ele>
        <time>2024-05-20T06:27:40.000Z</time>
      </trkpt>
      <trkpt lat="46.77845" lon="4.85096">
        <ele>182.60000610352</ele>
        <time>2024-05-20T06:27:41.000Z</time>
      </trkpt>
      <trkpt lat="46.77845" lon="4.85092">
        <ele>182.39999389648</ele>
        <time>2024-05-20T06:27:42.000Z</time>
      </trkpt>
      <trkpt lat="46.77845" lon="4.85088">
        <ele>182.39999389648</ele>
        <time>2024-05-20T06:27:43.000Z</time>
      </trkpt>
      <trkpt lat="46.77845" lon="4.85084">
        <ele>182.39999389648</ele>
        <time>2024-05-20T06:27:44.000Z</time>
      </trkpt>
      <trkpt lat="46.77847" lon="4.8508">
        <ele>182.39999389648</ele>
        <time>2024-05-20T06:27:45.000Z</time>
      </trkpt>
      <trkpt lat="46.77848" lon="4.85076">
        <ele>182.39999389648</ele>
        <time>2024-05-20T06:27:46.000Z</time>
      </trkpt>
      <trkpt lat="46.77851" lon="4.85072">
        <ele>182.39999389648</ele>
        <time>2024-05-20T06:27:47.000Z</time>
      </trkpt>
      <trkpt lat="46.77854" lon="4.85068">
        <ele>182.19999694824</ele>
        <time>2024-05-20T06:27:48.000Z</time>
      </trkpt>
      <trkpt lat="46.77856" lon="4.85063">
        <ele>182.19999694824</ele>
        <time>2024-05-20T06:27:49.000Z</time>
      </trkpt>
      <trkpt lat="46.77859" lon="4.85059">
        <ele>181.80000305176</ele>
        <time>2024-05-20T06:27:50.000Z</time>
      </trkpt>
      <trkpt lat="46.77861" lon="4.85055">
        <ele>181.60000610352</ele>
        <time>2024-05-20T06:27:51.000Z</time>
      </trkpt>
      <trkpt lat="46.77864" lon="4.85051">
        <ele>181.60000610352</ele>
        <time>2024-05-20T06:27:52.000Z</time>
      </trkpt>
      <trkpt lat="46.77868" lon="4.85047">
        <ele>181.39999389648</ele>
        <time>2024-05-20T06:27:53.000Z</time>
      </trkpt>
      <trkpt lat="46.77871" lon="4.85043">
        <ele>181.39999389648</ele>
        <time>2024-05-20T06:27:54.000Z</time>
      </trkpt>
      <trkpt lat="46.77875" lon="4.8504">
        <ele>181.39999389648</ele>
        <time>2024-05-20T06:27:55.000Z</time>
      </trkpt>
      <trkpt lat="46.77878" lon="4.85037">
        <ele>181.39999389648</ele>
        <time>2024-05-20T06:27:56.000Z</time>
      </trkpt>
      <trkpt lat="46.77882" lon="4.85034">
        <ele>181.39999389648</ele>
        <time>2024-05-20T06:27:57.000Z</time>
      </trkpt>
      <trkpt lat="46.77885" lon="4.85032">
        <ele>181.39999389648</ele>
        <time>2024-05-20T06:27:58.000Z</time>
      </trkpt>
      <trkpt lat="46.77889" lon="4.85029">
        <ele>181.39999389648</ele>
        <time>2024-05-20T06:27:59.000Z</time>
      </trkpt>
      <trkpt lat="46.77892" lon="4.85026">
        <ele>181.39999389648</ele>
        <time>2024-05-20T06:28:00.000Z</time>
      </trkpt>
      <trkpt lat="46.77894" lon="4.85024">
        <ele>181.39999389648</ele>
        <time>2024-05-20T06:28:01.000Z</time>
      </trkpt>
      <trkpt lat="46.77897" lon="4.85022">
        <ele>181.39999389648</ele>
        <time>2024-05-20T06:28:02.000Z</time>
      </trkpt>
      <trkpt lat="46.77899" lon="4.8502">
        <ele>181.60000610352</ele>
        <time>2024-05-20T06:28:03.000Z</time>
      </trkpt>
      <trkpt lat="46.779" lon="4.85018">
        <ele>181.60000610352</ele>
        <time>2024-05-20T06:28:04.000Z</time>
      </trkpt>
      <trkpt lat="46.77902" lon="4.85017">
        <ele>181.60000610352</ele>
        <time>2024-05-20T06:28:05.000Z</time>
      </trkpt>
      <trkpt lat="46.77903" lon="4.85016">
        <ele>181.80000305176</ele>
        <time>2024-05-20T06:28:06.000Z</time>
      </trkpt>
      <trkpt lat="46.77904" lon="4.85015">
        <ele>181.80000305176</ele>
        <time>2024-05-20T06:28:07.000Z</time>
      </trkpt>
      <trkpt lat="46.77904" lon="4.85015">
        <ele>181.80000305176</ele>
        <time>2024-05-20T06:28:08.000Z</time>
      </trkpt>
      <trkpt lat="46.77904" lon="4.85015">
        <ele>182</ele>
        <time>2024-05-20T06:28:09.000Z</time>
      </trkpt>
      <trkpt lat="46.77906" lon="4.85014">
        <ele>182</ele>
        <time>2024-05-20T06:28:28.000Z</time>
      </trkpt>
      <trkpt lat="46.77908" lon="4.85012">
        <ele>182</ele>
        <time>2024-05-20T06:28:29.000Z</time>
      </trkpt>
      <trkpt lat="46.77909" lon="4.85008">
        <ele>182</ele>
        <time>2024-05-20T06:28:30.000Z</time>
      </trkpt>
      <trkpt lat="46.7791" lon="4.85004">
        <ele>182</ele>
        <time>2024-05-20T06:28:31.000Z</time>
      </trkpt>
      <trkpt lat="46.77911" lon="4.85">
        <ele>182</ele>
        <time>2024-05-20T06:28:32.000Z</time>
      </trkpt>
      <trkpt lat="46.77911" lon="4.84995">
        <ele>181.80000305176</ele>
        <time>2024-05-20T06:28:33.000Z</time>
      </trkpt>
      <trkpt lat="46.7791" lon="4.8499">
        <ele>181.60000610352</ele>
        <time>2024-05-20T06:28:34.000Z</time>
      </trkpt>
      <trkpt lat="46.77909" lon="4.84985">
        <ele>181.60000610352</ele>
        <time>2024-05-20T06:28:35.000Z</time>
      </trkpt>
      <trkpt lat="46.77908" lon="4.8498">
        <ele>181.39999389648</ele>
        <time>2024-05-20T06:28:36.000Z</time>
      </trkpt>
      <trkpt lat="46.77906" lon="4.84974">
        <ele>181.39999389648</ele>
        <time>2024-05-20T06:28:37.000Z</time>
      </trkpt>
      <trkpt lat="46.77905" lon="4.84969">
        <ele>181.19999694824</ele>
        <time>2024-05-20T06:28:38.000Z</time>
      </trkpt>
      <trkpt lat="46.77903" lon="4.84964">
        <ele>181.19999694824</ele>
        <time>2024-05-20T06:28:39.000Z</time>
      </trkpt>
      <trkpt lat="46.77901" lon="4.84959">
        <ele>181.19999694824</ele>
        <time>2024-05-20T06:28:40.000Z</time>
      </trkpt>
      <trkpt lat="46.779" lon="4.84954">
        <ele>181.19999694824</ele>
        <time>2024-05-20T06:28:41.000Z</time>
      </trkpt>
      <trkpt lat="46.77898" lon="4.84948">
        <ele>181.19999694824</ele>
        <time>2024-05-20T06:28:42.000Z</time>
      </trkpt>
      <trkpt lat="46.77896" lon="4.84942">
        <ele>181.19999694824</ele>
        <time>2024-05-20T06:28:43.000Z</time>
      </trkpt>
      <trkpt lat="46.77894" lon="4.84936">
        <ele>181.39999389648</ele>
        <time>2024-05-20T06:28:44.000Z</time>
      </trkpt>
      <trkpt lat="46.77892" lon="4.84931">
        <ele>181.39999389648</ele>
        <time>2024-05-20T06:28:45.000Z</time>
      </trkpt>
      <trkpt lat="46.77891" lon="4.84925">
        <ele>181.39999389648</ele>
        <time>2024-05-20T06:28:46.000Z</time>
      </trkpt>
      <trkpt lat="46.77888" lon="4.8492">
        <ele>181.39999389648</ele>
        <time>2024-05-20T06:28:47.000Z</time>
      </trkpt>
      <trkpt lat="46.77886" lon="4.84914">
        <ele>181.60000610352</ele>
        <time>2024-05-20T06:28:48.000Z</time>
      </trkpt>
      <trkpt lat="46.77884" lon="4.84908">
        <ele>181.60000610352</ele>
        <time>2024-05-20T06:28:49.000Z</time>
      </trkpt>
      <trkpt lat="46.77883" lon="4.84903">
        <ele>181.60000610352</ele>
        <time>2024-05-20T06:28:50.000Z</time>
      </trkpt>
      <trkpt lat="46.77881" lon="4.84896">
        <ele>181.60000610352</ele>
        <time>2024-05-20T06:28:51.000Z</time>
      </trkpt>
      <trkpt lat="46.77878" lon="4.84889">
        <ele>181.39999389648</ele>
        <time>2024-05-20T06:28:52.000Z</time>
      </trkpt>
      <trkpt lat="46.77875" lon="4.84883">
        <ele>181.39999389648</ele>
        <time>2024-05-20T06:28:53.000Z</time>
      </trkpt>
      <trkpt lat="46.77873" lon="4.84876">
        <ele>181.19999694824</ele>
        <time>2024-05-20T06:28:54.000Z</time>
      </trkpt>
      <trkpt lat="46.77872" lon="4.8487">
        <ele>181.19999694824</ele>
        <time>2024-05-20T06:28:55.000Z</time>
      </trkpt>
      <trkpt lat="46.7787" lon="4.84864">
        <ele>181.19999694824</ele>
        <time>2024-05-20T06:28:56.000Z</time>
      </trkpt>
      <trkpt lat="46.77868" lon="4.84857">
        <ele>181.19999694824</ele>
        <time>2024-05-20T06:28:57.000Z</time>
      </trkpt>
      <trkpt lat="46.77866" lon="4.8485">
        <ele>181.19999694824</ele>
        <time>2024-05-20T06:28:58.000Z</time>
      </trkpt>
      <trkpt lat="46.77864" lon="4.84844">
        <ele>181.19999694824</ele>
        <time>2024-05-20T06:28:59.000Z</time>
      </trkpt>
      <trkpt lat="46.77862" lon="4.84837">
        <ele>181</ele>
        <time>2024-05-20T06:29:00.000Z</time>
      </trkpt>
      <trkpt lat="46.77859" lon="4.8483">
        <ele>181</ele>
        <time>2024-05-20T06:29:01.000Z</time>
      </trkpt>
      <trkpt lat="46.77857" lon="4.84823">
        <ele>181</ele>
        <time>2024-05-20T06:29:02.000Z</time>
      </trkpt>
      <trkpt lat="46.77855" lon="4.84816">
        <ele>181</ele>
        <time>2024-05-20T06:29:03.000Z</time>
      </trkpt>
      <trkpt lat="46.77853" lon="4.84809">
        <ele>181</ele>
        <time>2024-05-20T06:29:04.000Z</time>
      </trkpt>
      <trkpt lat="46.77851" lon="4.84802">
        <ele>181</ele>
        <time>2024-05-20T06:29:05.000Z</time>
      </trkpt>
      <trkpt lat="46.77849" lon="4.84795">
        <ele>181</ele>
        <time>2024-05-20T06:29:06.000Z</time>
      </trkpt>
      <trkpt lat="46.77847" lon="4.84789">
        <ele>180.80000305176</ele>
        <time>2024-05-20T06:29:07.000Z</time>
      </trkpt>
      <trkpt lat="46.77845" lon="4.84783">
        <ele>180.80000305176</ele>
        <time>2024-05-20T06:29:08.000Z</time>
      </trkpt>
      <trkpt lat="46.77843" lon="4.84777">
        <ele>180.80000305176</ele>
        <time>2024-05-20T06:29:09.000Z</time>
      </trkpt>
      <trkpt lat="46.77841" lon="4.8477">
        <ele>180.80000305176</ele>
        <time>2024-05-20T06:29:10.000Z</time>
      </trkpt>
      <trkpt lat="46.77839" lon="4.84764">
        <ele>180.80000305176</ele>
        <time>2024-05-20T06:29:11.000Z</time>
      </trkpt>
      <trkpt lat="46.77837" lon="4.84757">
        <ele>180.60000610352</ele>
        <time>2024-05-20T06:29:12.000Z</time>
      </trkpt>
      <trkpt lat="46.77835" lon="4.8475">
        <ele>180.60000610352</ele>
        <time>2024-05-20T06:29:13.000Z</time>
      </trkpt>
      <trkpt lat="46.77833" lon="4.84744">
        <ele>180.60000610352</ele>
        <time>2024-05-20T06:29:14.000Z</time>
      </trkpt>
      <trkpt lat="46.77831" lon="4.84737">
        <ele>180.60000610352</ele>
        <time>2024-05-20T06:29:15.000Z</time>
      </trkpt>
      <trkpt lat="46.77829" lon="4.8473">
        <ele>180.60000610352</ele>
        <time>2024-05-20T06:29:16.000Z</time>
      </trkpt>
      <trkpt lat="46.77826" lon="4.84723">
        <ele>180.60000610352</ele>
        <time>2024-05-20T06:29:17.000Z</time>
      </trkpt>
      <trkpt lat="46.77824" lon="4.84716">
        <ele>180.60000610352</ele>
        <time>2024-05-20T06:29:18.000Z</time>
      </trkpt>
      <trkpt lat="46.77822" lon="4.84709">
        <ele>180.60000610352</ele>
        <time>2024-05-20T06:29:19.000Z</time>
      </trkpt>
      <trkpt lat="46.7782" lon="4.84702">
        <ele>180.39999389648</ele>
        <time>2024-05-20T06:29:20.000Z</time>
      </trkpt>
      <trkpt lat="46.77818" lon="4.84695">
        <ele>180.39999389648</ele>
        <time>2024-05-20T06:29:21.000Z</time>
      </trkpt>
      <trkpt lat="46.77816" lon="4.84688">
        <ele>180.19999694824</ele>
        <time>2024-05-20T06:29:22.000Z</time>
      </trkpt>
      <trkpt lat="46.77814" lon="4.84681">
        <ele>180.19999694824</ele>
        <time>2024-05-20T06:29:23.000Z</time>
      </trkpt>
      <trkpt lat="46.77811" lon="4.84674">
        <ele>180</ele>
        <time>2024-05-20T06:29:24.000Z</time>
      </trkpt>
      <trkpt lat="46.77809" lon="4.84667">
        <ele>180</ele>
        <time>2024-05-20T06:29:25.000Z</time>
      </trkpt>
      <trkpt lat="46.77807" lon="4.8466">
        <ele>180</ele>
        <time>2024-05-20T06:29:26.000Z</time>
      </trkpt>
      <trkpt lat="46.77805" lon="4.84653">
        <ele>179.80000305176</ele>
        <time>2024-05-20T06:29:27.000Z</time>
      </trkpt>
      <trkpt lat="46.77803" lon="4.84646">
        <ele>179.80000305176</ele>
        <time>2024-05-20T06:29:28.000Z</time>
      </trkpt>
      <trkpt lat="46.77801" lon="4.84639">
        <ele>179.80000305176</ele>
        <time>2024-05-20T06:29:29.000Z</time>
      </trkpt>
      <trkpt lat="46.77798" lon="4.84632">
        <ele>179.80000305176</ele>
        <time>2024-05-20T06:29:30.000Z</time>
      </trkpt>
      <trkpt lat="46.77796" lon="4.84624">
        <ele>179.80000305176</ele>
        <time>2024-05-20T06:29:31.000Z</time>
      </trkpt>
      <trkpt lat="46.77794" lon="4.84617">
        <ele>179.80000305176</ele>
        <time>2024-05-20T06:29:32.000Z</time>
      </trkpt>
      <trkpt lat="46.77792" lon="4.8461">
        <ele>179.80000305176</ele>
        <time>2024-05-20T06:29:33.000Z</time>
      </trkpt>
      <trkpt lat="46.7779" lon="4.84604">
        <ele>179.80000305176</ele>
        <time>2024-05-20T06:29:34.000Z</time>
      </trkpt>
      <trkpt lat="46.77788" lon="4.84597">
        <ele>179.80000305176</ele>
        <time>2024-05-20T06:29:35.000Z</time>
      </trkpt>
      <trkpt lat="46.77786" lon="4.84591">
        <ele>180</ele>
        <time>2024-05-20T06:29:36.000Z</time>
      </trkpt>
      <trkpt lat="46.77785" lon="4.84587">
        <ele>180.19999694824</ele>
        <time>2024-05-20T06:29:37.000Z</time>
      </trkpt>
      <trkpt lat="46.77784" lon="4.84585">
        <ele>180.60000610352</ele>
        <time>2024-05-20T06:29:38.000Z</time>
      </trkpt>
      <trkpt lat="46.77784" lon="4.84585">
        <ele>180.80000305176</ele>
        <time>2024-05-20T06:29:39.000Z</time>
      </trkpt>
      <trkpt lat="46.77784" lon="4.84585">
        <ele>181.19999694824</ele>
        <time>2024-05-20T06:29:40.000Z</time>
      </trkpt>
      <trkpt lat="46.7778" lon="4.84585">
        <ele>181.60000610352</ele>
        <time>2024-05-20T06:29:54.000Z</time>
      </trkpt>
      <trkpt lat="46.77779" lon="4.84586">
        <ele>181.60000610352</ele>
        <time>2024-05-20T06:29:55.000Z</time>
      </trkpt>
      <trkpt lat="46.77777" lon="4.84587">
        <ele>181.60000610352</ele>
        <time>2024-05-20T06:29:56.000Z</time>
      </trkpt>
      <trkpt lat="46.77776" lon="4.84588">
        <ele>181.60000610352</ele>
        <time>2024-05-20T06:29:57.000Z</time>
      </trkpt>
      <trkpt lat="46.77774" lon="4.84588">
        <ele>181.60000610352</ele>
        <time>2024-05-20T06:29:58.000Z</time>
      </trkpt>
      <trkpt lat="46.77773" lon="4.84587">
        <ele>181.60000610352</ele>
        <time>2024-05-20T06:29:59.000Z</time>
      </trkpt>
      <trkpt lat="46.77772" lon="4.84584">
        <ele>181.60000610352</ele>
        <time>2024-05-20T06:30:00.000Z</time>
      </trkpt>
      <trkpt lat="46.77771" lon="4.8458">
        <ele>181.60000610352</ele>
        <time>2024-05-20T06:30:01.000Z</time>
      </trkpt>
      <trkpt lat="46.7777" lon="4.84576">
        <ele>181.60000610352</ele>
        <time>2024-05-20T06:30:02.000Z</time>
      </trkpt>
      <trkpt lat="46.7777" lon="4.84572">
        <ele>181.60000610352</ele>
        <time>2024-05-20T06:30:03.000Z</time>
      </trkpt>
      <trkpt lat="46.77768" lon="4.84567">
        <ele>181.60000610352</ele>
        <time>2024-05-20T06:30:04.000Z</time>
      </trkpt>
      <trkpt lat="46.77766" lon="4.84563">
        <ele>181.60000610352</ele>
        <time>2024-05-20T06:30:05.000Z</time>
      </trkpt>
      <trkpt lat="46.77765" lon="4.8456">
        <ele>181.80000305176</ele>
        <time>2024-05-20T06:30:06.000Z</time>
      </trkpt>
      <trkpt lat="46.77763" lon="4.84557">
        <ele>181.80000305176</ele>
        <time>2024-05-20T06:30:07.000Z</time>
      </trkpt>
      <trkpt lat="46.77761" lon="4.84555">
        <ele>182</ele>
        <time>2024-05-20T06:30:08.000Z</time>
      </trkpt>
      <trkpt lat="46.77759" lon="4.84552">
        <ele>182.19999694824</ele>
        <time>2024-05-20T06:30:09.000Z</time>
      </trkpt>
      <trkpt lat="46.77757" lon="4.84549">
        <ele>182.19999694824</ele>
        <time>2024-05-20T06:30:10.000Z</time>
      </trkpt>
      <trkpt lat="46.77756" lon="4.84546">
        <ele>182.19999694824</ele>
        <time>2024-05-20T06:30:11.000Z</time>
      </trkpt>
      <trkpt lat="46.77755" lon="4.84543">
        <ele>182.19999694824</ele>
        <time>2024-05-20T06:30:12.000Z</time>
      </trkpt>
      <trkpt lat="46.77756" lon="4.8454">
        <ele>182.19999694824</ele>
        <time>2024-05-20T06:30:13.000Z</time>
      </trkpt>
      <trkpt lat="46.77757" lon="4.84537">
        <ele>182.19999694824</ele>
        <time>2024-05-20T06:30:14.000Z</time>
      </trkpt>
      <trkpt lat="46.77756" lon="4.84533">
        <ele>182.39999389648</ele>
        <time>2024-05-20T06:30:15.000Z</time>
      </trkpt>
      <trkpt lat="46.77755" lon="4.8453">
        <ele>182.39999389648</ele>
        <time>2024-05-20T06:30:16.000Z</time>
      </trkpt>
      <trkpt lat="46.77753" lon="4.84526">
        <ele>182.80000305176</ele>
        <time>2024-05-20T06:30:17.000Z</time>
      </trkpt>
      <trkpt lat="46.7775" lon="4.84523">
        <ele>183</ele>
        <time>2024-05-20T06:30:18.000Z</time>
      </trkpt>
      <trkpt lat="46.77748" lon="4.8452">
        <ele>183</ele>
        <time>2024-05-20T06:30:19.000Z</time>
      </trkpt>
      <trkpt lat="46.77746" lon="4.84517">
        <ele>183.19999694824</ele>
        <time>2024-05-20T06:30:20.000Z</time>
      </trkpt>
      <trkpt lat="46.77743" lon="4.84515">
        <ele>183.19999694824</ele>
        <time>2024-05-20T06:30:21.000Z</time>
      </trkpt>
      <trkpt lat="46.7774" lon="4.84513">
        <ele>183.39999389648</ele>
        <time>2024-05-20T06:30:22.000Z</time>
      </trkpt>
      <trkpt lat="46.77737" lon="4.84511">
        <ele>183.60000610352</ele>
        <time>2024-05-20T06:30:23.000Z</time>
      </trkpt>
      <trkpt lat="46.77735" lon="4.84509">
        <ele>183.80000305176</ele>
        <time>2024-05-20T06:30:24.000Z</time>
      </trkpt>
      <trkpt lat="46.77732" lon="4.84507">
        <ele>184</ele>
        <time>2024-05-20T06:30:25.000Z</time>
      </trkpt>
      <trkpt lat="46.77729" lon="4.84505">
        <ele>184.19999694824</ele>
        <time>2024-05-20T06:30:26.000Z</time>
      </trkpt>
      <trkpt lat="46.77726" lon="4.84502">
        <ele>184.19999694824</ele>
        <time>2024-05-20T06:30:27.000Z</time>
      </trkpt>
      <trkpt lat="46.77723" lon="4.845">
        <ele>184.39999389648</ele>
        <time>2024-05-20T06:30:28.000Z</time>
      </trkpt>
      <trkpt lat="46.77721" lon="4.84498">
        <ele>184.39999389648</ele>
        <time>2024-05-20T06:30:29.000Z</time>
      </trkpt>
      <trkpt lat="46.77718" lon="4.84497">
        <ele>184.60000610352</ele>
        <time>2024-05-20T06:30:30.000Z</time>
      </trkpt>
      <trkpt lat="46.77715" lon="4.84496">
        <ele>184.60000610352</ele>
        <time>2024-05-20T06:30:31.000Z</time>
      </trkpt>
      <trkpt lat="46.77712" lon="4.84494">
        <ele>184.80000305176</ele>
        <time>2024-05-20T06:30:32.000Z</time>
      </trkpt>
      <trkpt lat="46.77709" lon="4.84493">
        <ele>185</ele>
        <time>2024-05-20T06:30:33.000Z</time>
      </trkpt>
      <trkpt lat="46.77706" lon="4.84492">
        <ele>185.19999694824</ele>
        <time>2024-05-20T06:30:34.000Z</time>
      </trkpt>
      <trkpt lat="46.77703" lon="4.84492">
        <ele>185.19999694824</ele>
        <time>2024-05-20T06:30:35.000Z</time>
      </trkpt>
      <trkpt lat="46.77701" lon="4.84491">
        <ele>185.39999389648</ele>
        <time>2024-05-20T06:30:36.000Z</time>
      </trkpt>
      <trkpt lat="46.77698" lon="4.84491">
        <ele>185.39999389648</ele>
        <time>2024-05-20T06:30:37.000Z</time>
      </trkpt>
      <trkpt lat="46.77695" lon="4.8449">
        <ele>185.39999389648</ele>
        <time>2024-05-20T06:30:38.000Z</time>
      </trkpt>
      <trkpt lat="46.77693" lon="4.84489">
        <ele>185.39999389648</ele>
        <time>2024-05-20T06:30:39.000Z</time>
      </trkpt>
      <trkpt lat="46.7769" lon="4.84487">
        <ele>185.60000610352</ele>
        <time>2024-05-20T06:30:40.000Z</time>
      </trkpt>
      <trkpt lat="46.77686" lon="4.84486">
        <ele>185.80000305176</ele>
        <time>2024-05-20T06:30:41.000Z</time>
      </trkpt>
      <trkpt lat="46.77683" lon="4.84484">
        <ele>186</ele>
        <time>2024-05-20T06:30:42.000Z</time>
      </trkpt>
      <trkpt lat="46.7768" lon="4.84483">
        <ele>186</ele>
        <time>2024-05-20T06:30:43.000Z</time>
      </trkpt>
      <trkpt lat="46.77678" lon="4.84482">
        <ele>186.19999694824</ele>
        <time>2024-05-20T06:30:44.000Z</time>
      </trkpt>
      <trkpt lat="46.77675" lon="4.84481">
        <ele>186.19999694824</ele>
        <time>2024-05-20T06:30:45.000Z</time>
      </trkpt>
      <trkpt lat="46.77672" lon="4.8448">
        <ele>186.60000610352</ele>
        <time>2024-05-20T06:30:46.000Z</time>
      </trkpt>
      <trkpt lat="46.77669" lon="4.84479">
        <ele>186.80000305176</ele>
        <time>2024-05-20T06:30:47.000Z</time>
      </trkpt>
      <trkpt lat="46.77666" lon="4.84478">
        <ele>187</ele>
        <time>2024-05-20T06:30:48.000Z</time>
      </trkpt>
      <trkpt lat="46.77663" lon="4.84477">
        <ele>187</ele>
        <time>2024-05-20T06:30:49.000Z</time>
      </trkpt>
      <trkpt lat="46.7766" lon="4.84476">
        <ele>187.19999694824</ele>
        <time>2024-05-20T06:30:50.000Z</time>
      </trkpt>
      <trkpt lat="46.77657" lon="4.84474">
        <ele>187.19999694824</ele>
        <time>2024-05-20T06:30:51.000Z</time>
      </trkpt>
      <trkpt lat="46.77654" lon="4.84473">
        <ele>187.39999389648</ele>
        <time>2024-05-20T06:30:52.000Z</time>
      </trkpt>
      <trkpt lat="46.77651" lon="4.84471">
        <ele>187.60000610352</ele>
        <time>2024-05-20T06:30:53.000Z</time>
      </trkpt>
      <trkpt lat="46.77648" lon="4.84469">
        <ele>187.60000610352</ele>
        <time>2024-05-20T06:30:54.000Z</time>
      </trkpt>
      <trkpt lat="46.77645" lon="4.84467">
        <ele>187.60000610352</ele>
        <time>2024-05-20T06:30:55.000Z</time>
      </trkpt>
      <trkpt lat="46.77642" lon="4.84464">
        <ele>187.80000305176</ele>
        <time>2024-05-20T06:30:56.000Z</time>
      </trkpt>
      <trkpt lat="46.77639" lon="4.84462">
        <ele>188</ele>
        <time>2024-05-20T06:30:57.000Z</time>
      </trkpt>
      <trkpt lat="46.77636" lon="4.8446">
        <ele>188</ele>
        <time>2024-05-20T06:30:58.000Z</time>
      </trkpt>
      <trkpt lat="46.77634" lon="4.84457">
        <ele>188.19999694824</ele>
        <time>2024-05-20T06:30:59.000Z</time>
      </trkpt>
      <trkpt lat="46.77631" lon="4.84455">
        <ele>188.39999389648</ele>
        <time>2024-05-20T06:31:00.000Z</time>
      </trkpt>
      <trkpt lat="46.77629" lon="4.84452">
        <ele>188.60000610352</ele>
        <time>2024-05-20T06:31:01.000Z</time>
      </trkpt>
      <trkpt lat="46.77627" lon="4.84449">
        <ele>188.80000305176</ele>
        <time>2024-05-20T06:31:02.000Z</time>
      </trkpt>
      <trkpt lat="46.77625" lon="4.84446">
        <ele>189</ele>
        <time>2024-05-20T06:31:03.000Z</time>
      </trkpt>
      <trkpt lat="46.77623" lon="4.84443">
        <ele>189.19999694824</ele>
        <time>2024-05-20T06:31:04.000Z</time>
      </trkpt>
      <trkpt lat="46.77621" lon="4.84439">
        <ele>189.19999694824</ele>
        <time>2024-05-20T06:31:05.000Z</time>
      </trkpt>
      <trkpt lat="46.7762" lon="4.84435">
        <ele>189.39999389648</ele>
        <time>2024-05-20T06:31:06.000Z</time>
      </trkpt>
      <trkpt lat="46.77619" lon="4.84432">
        <ele>189.60000610352</ele>
        <time>2024-05-20T06:31:07.000Z</time>
      </trkpt>
      <trkpt lat="46.77618" lon="4.84428">
        <ele>189.60000610352</ele>
        <time>2024-05-20T06:31:08.000Z</time>
      </trkpt>
      <trkpt lat="46.77617" lon="4.84424">
        <ele>189.80000305176</ele>
        <time>2024-05-20T06:31:09.000Z</time>
      </trkpt>
      <trkpt lat="46.77615" lon="4.84421">
        <ele>190.19999694824</ele>
        <time>2024-05-20T06:31:10.000Z</time>
      </trkpt>
      <trkpt lat="46.77614" lon="4.84417">
        <ele>190.19999694824</ele>
        <time>2024-05-20T06:31:11.000Z</time>
      </trkpt>
      <trkpt lat="46.77613" lon="4.84412">
        <ele>190.19999694824</ele>
        <time>2024-05-20T06:31:12.000Z</time>
      </trkpt>
      <trkpt lat="46.77612" lon="4.84407">
        <ele>190.19999694824</ele>
        <time>2024-05-20T06:31:13.000Z</time>
      </trkpt>
      <trkpt lat="46.7761" lon="4.84403">
        <ele>190.19999694824</ele>
        <time>2024-05-20T06:31:14.000Z</time>
      </trkpt>
      <trkpt lat="46.77609" lon="4.84397">
        <ele>190</ele>
        <time>2024-05-20T06:31:15.000Z</time>
      </trkpt>
      <trkpt lat="46.77607" lon="4.84392">
        <ele>190</ele>
        <time>2024-05-20T06:31:16.000Z</time>
      </trkpt>
      <trkpt lat="46.77605" lon="4.84387">
        <ele>190</ele>
        <time>2024-05-20T06:31:17.000Z</time>
      </trkpt>
      <trkpt lat="46.77604" lon="4.84383">
        <ele>190</ele>
        <time>2024-05-20T06:31:18.000Z</time>
      </trkpt>
      <trkpt lat="46.77602" lon="4.84377">
        <ele>189.80000305176</ele>
        <time>2024-05-20T06:31:19.000Z</time>
      </trkpt>
      <trkpt lat="46.776" lon="4.84372">
        <ele>189.80000305176</ele>
        <time>2024-05-20T06:31:20.000Z</time>
      </trkpt>
      <trkpt lat="46.77599" lon="4.84366">
        <ele>189.80000305176</ele>
        <time>2024-05-20T06:31:21.000Z</time>
      </trkpt>
      <trkpt lat="46.77597" lon="4.84361">
        <ele>189.80000305176</ele>
        <time>2024-05-20T06:31:22.000Z</time>
      </trkpt>
      <trkpt lat="46.77595" lon="4.84356">
        <ele>189.80000305176</ele>
        <time>2024-05-20T06:31:23.000Z</time>
      </trkpt>
      <trkpt lat="46.77593" lon="4.84351">
        <ele>189.60000610352</ele>
        <time>2024-05-20T06:31:24.000Z</time>
      </trkpt>
      <trkpt lat="46.7759" lon="4.84346">
        <ele>189.39999389648</ele>
        <time>2024-05-20T06:31:25.000Z</time>
      </trkpt>
      <trkpt lat="46.77588" lon="4.84342">
        <ele>189.19999694824</ele>
        <time>2024-05-20T06:31:26.000Z</time>
      </trkpt>
      <trkpt lat="46.77584" lon="4.84337">
        <ele>188.80000305176</ele>
        <time>2024-05-20T06:31:27.000Z</time>
      </trkpt>
      <trkpt lat="46.77582" lon="4.84333">
        <ele>188.60000610352</ele>
        <time>2024-05-20T06:31:28.000Z</time>
      </trkpt>
      <trkpt lat="46.77579" lon="4.84328">
        <ele>188.60000610352</ele>
        <time>2024-05-20T06:31:29.000Z</time>
      </trkpt>
      <trkpt lat="46.77576" lon="4.84324">
        <ele>188.60000610352</ele>
        <time>2024-05-20T06:31:30.000Z</time>
      </trkpt>
      <trkpt lat="46.77573" lon="4.8432">
        <ele>188.39999389648</ele>
        <time>2024-05-20T06:31:31.000Z</time>
      </trkpt>
      <trkpt lat="46.7757" lon="4.84315">
        <ele>188.19999694824</ele>
        <time>2024-05-20T06:31:32.000Z</time>
      </trkpt>
      <trkpt lat="46.77567" lon="4.84311">
        <ele>188.19999694824</ele>
        <time>2024-05-20T06:31:33.000Z</time>
      </trkpt>
      <trkpt lat="46.77564" lon="4.84307">
        <ele>188</ele>
        <time>2024-05-20T06:31:34.000Z</time>
      </trkpt>
      <trkpt lat="46.7756" lon="4.84304">
        <ele>188</ele>
        <time>2024-05-20T06:31:35.000Z</time>
      </trkpt>
      <trkpt lat="46.77557" lon="4.84302">
        <ele>187.80000305176</ele>
        <time>2024-05-20T06:31:36.000Z</time>
      </trkpt>
      <trkpt lat="46.77555" lon="4.843">
        <ele>187.60000610352</ele>
        <time>2024-05-20T06:31:37.000Z</time>
      </trkpt>
      <trkpt lat="46.77554" lon="4.84299">
        <ele>187.60000610352</ele>
        <time>2024-05-20T06:31:38.000Z</time>
      </trkpt>
      <trkpt lat="46.77552" lon="4.84298">
        <ele>187.39999389648</ele>
        <time>2024-05-20T06:31:39.000Z</time>
      </trkpt>
      <trkpt lat="46.77551" lon="4.84298">
        <ele>187.39999389648</ele>
        <time>2024-05-20T06:31:40.000Z</time>
      </trkpt>
      <trkpt lat="46.77549" lon="4.84297">
        <ele>187.39999389648</ele>
        <time>2024-05-20T06:31:41.000Z</time>
      </trkpt>
      <trkpt lat="46.77547" lon="4.84295">
        <ele>187.39999389648</ele>
        <time>2024-05-20T06:31:42.000Z</time>
      </trkpt>
      <trkpt lat="46.77544" lon="4.84293">
        <ele>187.19999694824</ele>
        <time>2024-05-20T06:31:43.000Z</time>
      </trkpt>
      <trkpt lat="46.77541" lon="4.84292">
        <ele>187.19999694824</ele>
        <time>2024-05-20T06:31:44.000Z</time>
      </trkpt>
      <trkpt lat="46.77537" lon="4.8429">
        <ele>187</ele>
        <time>2024-05-20T06:31:45.000Z</time>
      </trkpt>
      <trkpt lat="46.77533" lon="4.84289">
        <ele>186.80000305176</ele>
        <time>2024-05-20T06:31:46.000Z</time>
      </trkpt>
      <trkpt lat="46.7753" lon="4.84287">
        <ele>186.60000610352</ele>
        <time>2024-05-20T06:31:47.000Z</time>
      </trkpt>
      <trkpt lat="46.77526" lon="4.84285">
        <ele>186.39999389648</ele>
        <time>2024-05-20T06:31:48.000Z</time>
      </trkpt>
      <trkpt lat="46.77523" lon="4.84283">
        <ele>186.19999694824</ele>
        <time>2024-05-20T06:31:49.000Z</time>
      </trkpt>
      <trkpt lat="46.77519" lon="4.84281">
        <ele>186.19999694824</ele>
        <time>2024-05-20T06:31:50.000Z</time>
      </trkpt>
      <trkpt lat="46.77514" lon="4.84279">
        <ele>186.19999694824</ele>
        <time>2024-05-20T06:31:51.000Z</time>
      </trkpt>
      <trkpt lat="46.77511" lon="4.84278">
        <ele>186</ele>
        <time>2024-05-20T06:31:52.000Z</time>
      </trkpt>
      <trkpt lat="46.77506" lon="4.84277">
        <ele>185.80000305176</ele>
        <time>2024-05-20T06:31:53.000Z</time>
      </trkpt>
      <trkpt lat="46.77502" lon="4.84276">
        <ele>185.80000305176</ele>
        <time>2024-05-20T06:31:54.000Z</time>
      </trkpt>
      <trkpt lat="46.77498" lon="4.84275">
        <ele>185.80000305176</ele>
        <time>2024-05-20T06:31:55.000Z</time>
      </trkpt>
      <trkpt lat="46.77494" lon="4.84274">
        <ele>185.80000305176</ele>
        <time>2024-05-20T06:31:56.000Z</time>
      </trkpt>
      <trkpt lat="46.7749" lon="4.84272">
        <ele>185.60000610352</ele>
        <time>2024-05-20T06:31:57.000Z</time>
      </trkpt>
      <trkpt lat="46.77485" lon="4.84271">
        <ele>185.60000610352</ele>
        <time>2024-05-20T06:31:58.000Z</time>
      </trkpt>
      <trkpt lat="46.7748" lon="4.8427">
        <ele>185.39999389648</ele>
        <time>2024-05-20T06:31:59.000Z</time>
      </trkpt>
      <trkpt lat="46.77476" lon="4.84268">
        <ele>185.19999694824</ele>
        <time>2024-05-20T06:32:00.000Z</time>
      </trkpt>
      <trkpt lat="46.77471" lon="4.84266">
        <ele>185</ele>
        <time>2024-05-20T06:32:01.000Z</time>
      </trkpt>
      <trkpt lat="46.77468" lon="4.84264">
        <ele>185</ele>
        <time>2024-05-20T06:32:02.000Z</time>
      </trkpt>
      <trkpt lat="46.77464" lon="4.84262">
        <ele>185</ele>
        <time>2024-05-20T06:32:03.000Z</time>
      </trkpt>
      <trkpt lat="46.7746" lon="4.8426">
        <ele>184.80000305176</ele>
        <time>2024-05-20T06:32:04.000Z</time>
      </trkpt>
      <trkpt lat="46.77457" lon="4.84257">
        <ele>184.80000305176</ele>
        <time>2024-05-20T06:32:05.000Z</time>
      </trkpt>
      <trkpt lat="46.77453" lon="4.84255">
        <ele>184.60000610352</ele>
        <time>2024-05-20T06:32:06.000Z</time>
      </trkpt>
      <trkpt lat="46.77448" lon="4.84252">
        <ele>184.39999389648</ele>
        <time>2024-05-20T06:32:07.000Z</time>
      </trkpt>
      <trkpt lat="46.77444" lon="4.84249">
        <ele>184.39999389648</ele>
        <time>2024-05-20T06:32:08.000Z</time>
      </trkpt>
      <trkpt lat="46.77441" lon="4.84246">
        <ele>184.19999694824</ele>
        <time>2024-05-20T06:32:09.000Z</time>
      </trkpt>
      <trkpt lat="46.77437" lon="4.84242">
        <ele>184.19999694824</ele>
        <time>2024-05-20T06:32:10.000Z</time>
      </trkpt>
      <trkpt lat="46.77435" lon="4.8424">
        <ele>184</ele>
        <time>2024-05-20T06:32:11.000Z</time>
      </trkpt>
      <trkpt lat="46.77433" lon="4.84235">
        <ele>183.80000305176</ele>
        <time>2024-05-20T06:32:12.000Z</time>
      </trkpt>
      <trkpt lat="46.77432" lon="4.84231">
        <ele>183.80000305176</ele>
        <time>2024-05-20T06:32:13.000Z</time>
      </trkpt>
      <trkpt lat="46.77431" lon="4.84227">
        <ele>183.60000610352</ele>
        <time>2024-05-20T06:32:14.000Z</time>
      </trkpt>
      <trkpt lat="46.7743" lon="4.84224">
        <ele>183.60000610352</ele>
        <time>2024-05-20T06:32:15.000Z</time>
      </trkpt>
      <trkpt lat="46.77429" lon="4.84219">
        <ele>183.39999389648</ele>
        <time>2024-05-20T06:32:16.000Z</time>
      </trkpt>
      <trkpt lat="46.77428" lon="4.84214">
        <ele>183.39999389648</ele>
        <time>2024-05-20T06:32:17.000Z</time>
      </trkpt>
      <trkpt lat="46.77427" lon="4.8421">
        <ele>183.19999694824</ele>
        <time>2024-05-20T06:32:18.000Z</time>
      </trkpt>
      <trkpt lat="46.77425" lon="4.84206">
        <ele>183.19999694824</ele>
        <time>2024-05-20T06:32:19.000Z</time>
      </trkpt>
      <trkpt lat="46.77423" lon="4.84203">
        <ele>183.19999694824</ele>
        <time>2024-05-20T06:32:20.000Z</time>
      </trkpt>
      <trkpt lat="46.77421" lon="4.842">
        <ele>183</ele>
        <time>2024-05-20T06:32:21.000Z</time>
      </trkpt>
      <trkpt lat="46.77418" lon="4.84195">
        <ele>182.80000305176</ele>
        <time>2024-05-20T06:32:22.000Z</time>
      </trkpt>
      <trkpt lat="46.77415" lon="4.84191">
        <ele>182.80000305176</ele>
        <time>2024-05-20T06:32:23.000Z</time>
      </trkpt>
      <trkpt lat="46.77413" lon="4.84187">
        <ele>182.80000305176</ele>
        <time>2024-05-20T06:32:24.000Z</time>
      </trkpt>
      <trkpt lat="46.77411" lon="4.84183">
        <ele>182.60000610352</ele>
        <time>2024-05-20T06:32:25.000Z</time>
      </trkpt>
      <trkpt lat="46.77408" lon="4.84177">
        <ele>182.39999389648</ele>
        <time>2024-05-20T06:32:26.000Z</time>
      </trkpt>
      <trkpt lat="46.77406" lon="4.84172">
        <ele>182.19999694824</ele>
        <time>2024-05-20T06:32:27.000Z</time>
      </trkpt>
      <trkpt lat="46.77404" lon="4.84169">
        <ele>182.19999694824</ele>
        <time>2024-05-20T06:32:28.000Z</time>
      </trkpt>
      <trkpt lat="46.77401" lon="4.84163">
        <ele>182</ele>
        <time>2024-05-20T06:32:29.000Z</time>
      </trkpt>
      <trkpt lat="46.77398" lon="4.84158">
        <ele>182</ele>
        <time>2024-05-20T06:32:30.000Z</time>
      </trkpt>
      <trkpt lat="46.77395" lon="4.84152">
        <ele>181.80000305176</ele>
        <time>2024-05-20T06:32:31.000Z</time>
      </trkpt>
      <trkpt lat="46.77393" lon="4.84147">
        <ele>181.80000305176</ele>
        <time>2024-05-20T06:32:32.000Z</time>
      </trkpt>
      <trkpt lat="46.7739" lon="4.84142">
        <ele>181.60000610352</ele>
        <time>2024-05-20T06:32:33.000Z</time>
      </trkpt>
      <trkpt lat="46.77386" lon="4.84136">
        <ele>181.39999389648</ele>
        <time>2024-05-20T06:32:34.000Z</time>
      </trkpt>
      <trkpt lat="46.77384" lon="4.84131">
        <ele>181.19999694824</ele>
        <time>2024-05-20T06:32:35.000Z</time>
      </trkpt>
      <trkpt lat="46.77382" lon="4.84125">
        <ele>181.19999694824</ele>
        <time>2024-05-20T06:32:36.000Z</time>
      </trkpt>
      <trkpt lat="46.7738" lon="4.84119">
        <ele>181.19999694824</ele>
        <time>2024-05-20T06:32:37.000Z</time>
      </trkpt>
      <trkpt lat="46.77378" lon="4.84113">
        <ele>181</ele>
        <time>2024-05-20T06:32:38.000Z</time>
      </trkpt>
      <trkpt lat="46.77376" lon="4.84107">
        <ele>181</ele>
        <time>2024-05-20T06:32:39.000Z</time>
      </trkpt>
      <trkpt lat="46.77374" lon="4.84099">
        <ele>180.60000610352</ele>
        <time>2024-05-20T06:32:40.000Z</time>
      </trkpt>
      <trkpt lat="46.77373" lon="4.84092">
        <ele>180.60000610352</ele>
        <time>2024-05-20T06:32:41.000Z</time>
      </trkpt>
      <trkpt lat="46.77372" lon="4.84084">
        <ele>180.19999694824</ele>
        <time>2024-05-20T06:32:42.000Z</time>
      </trkpt>
      <trkpt lat="46.77372" lon="4.84076">
        <ele>180</ele>
        <time>2024-05-20T06:32:43.000Z</time>
      </trkpt>
      <trkpt lat="46.77371" lon="4.84068">
        <ele>179.80000305176</ele>
        <time>2024-05-20T06:32:44.000Z</time>
      </trkpt>
      <trkpt lat="46.77371" lon="4.8406">
        <ele>179.60000610352</ele>
        <time>2024-05-20T06:32:45.000Z</time>
      </trkpt>
      <trkpt lat="46.77371" lon="4.84052">
        <ele>179.19999694824</ele>
        <time>2024-05-20T06:32:46.000Z</time>
      </trkpt>
      <trkpt lat="46.77371" lon="4.84043">
        <ele>179</ele>
        <time>2024-05-20T06:32:47.000Z</time>
      </trkpt>
      <trkpt lat="46.77371" lon="4.84034">
        <ele>178.60000610352</ele>
        <time>2024-05-20T06:32:48.000Z</time>
      </trkpt>
      <trkpt lat="46.77372" lon="4.84026">
        <ele>178.60000610352</ele>
        <time>2024-05-20T06:32:49.000Z</time>
      </trkpt>
      <trkpt lat="46.77373" lon="4.8402">
        <ele>178.39999389648</ele>
        <time>2024-05-20T06:32:50.000Z</time>
      </trkpt>
      <trkpt lat="46.77374" lon="4.84014">
        <ele>178.39999389648</ele>
        <time>2024-05-20T06:32:51.000Z</time>
      </trkpt>
      <trkpt lat="46.77374" lon="4.84009">
        <ele>178.39999389648</ele>
        <time>2024-05-20T06:32:52.000Z</time>
      </trkpt>
      <trkpt lat="46.77373" lon="4.84004">
        <ele>178.39999389648</ele>
        <time>2024-05-20T06:32:53.000Z</time>
      </trkpt>
      <trkpt lat="46.77372" lon="4.84001">
        <ele>178.19999694824</ele>
        <time>2024-05-20T06:32:54.000Z</time>
      </trkpt>
      <trkpt lat="46.77369" lon="4.83999">
        <ele>178.19999694824</ele>
        <time>2024-05-20T06:32:55.000Z</time>
      </trkpt>
      <trkpt lat="46.77365" lon="4.83998">
        <ele>178.19999694824</ele>
        <time>2024-05-20T06:32:56.000Z</time>
      </trkpt>
      <trkpt lat="46.77362" lon="4.83997">
        <ele>178.19999694824</ele>
        <time>2024-05-20T06:32:57.000Z</time>
      </trkpt>
      <trkpt lat="46.7736" lon="4.83997">
        <ele>178.19999694824</ele>
        <time>2024-05-20T06:32:58.000Z</time>
      </trkpt>
      <trkpt lat="46.77356" lon="4.83995">
        <ele>178.19999694824</ele>
        <time>2024-05-20T06:32:59.000Z</time>
      </trkpt>
      <trkpt lat="46.77351" lon="4.83993">
        <ele>178.19999694824</ele>
        <time>2024-05-20T06:33:00.000Z</time>
      </trkpt>
      <trkpt lat="46.77347" lon="4.83991">
        <ele>178.19999694824</ele>
        <time>2024-05-20T06:33:01.000Z</time>
      </trkpt>
      <trkpt lat="46.77343" lon="4.83991">
        <ele>178.19999694824</ele>
        <time>2024-05-20T06:33:02.000Z</time>
      </trkpt>
      <trkpt lat="46.77339" lon="4.83992">
        <ele>178</ele>
        <time>2024-05-20T06:33:03.000Z</time>
      </trkpt>
      <trkpt lat="46.77336" lon="4.83996">
        <ele>178</ele>
        <time>2024-05-20T06:33:04.000Z</time>
      </trkpt>
      <trkpt lat="46.77334" lon="4.84001">
        <ele>178</ele>
        <time>2024-05-20T06:33:05.000Z</time>
      </trkpt>
      <trkpt lat="46.77333" lon="4.84007">
        <ele>177.80000305176</ele>
        <time>2024-05-20T06:33:06.000Z</time>
      </trkpt>
      <trkpt lat="46.77331" lon="4.84013">
        <ele>177.80000305176</ele>
        <time>2024-05-20T06:33:07.000Z</time>
      </trkpt>
      <trkpt lat="46.7733" lon="4.84019">
        <ele>177.60000610352</ele>
        <time>2024-05-20T06:33:08.000Z</time>
      </trkpt>
      <trkpt lat="46.77329" lon="4.84025">
        <ele>177.60000610352</ele>
        <time>2024-05-20T06:33:09.000Z</time>
      </trkpt>
      <trkpt lat="46.77328" lon="4.84031">
        <ele>177.39999389648</ele>
        <time>2024-05-20T06:33:10.000Z</time>
      </trkpt>
      <trkpt lat="46.77327" lon="4.84037">
        <ele>177.39999389648</ele>
        <time>2024-05-20T06:33:11.000Z</time>
      </trkpt>
      <trkpt lat="46.77325" lon="4.84043">
        <ele>177.39999389648</ele>
        <time>2024-05-20T06:33:12.000Z</time>
      </trkpt>
      <trkpt lat="46.77324" lon="4.8405">
        <ele>177.39999389648</ele>
        <time>2024-05-20T06:33:13.000Z</time>
      </trkpt>
      <trkpt lat="46.77322" lon="4.84055">
        <ele>177.39999389648</ele>
        <time>2024-05-20T06:33:14.000Z</time>
      </trkpt>
      <trkpt lat="46.7732" lon="4.84061">
        <ele>177.80000305176</ele>
        <time>2024-05-20T06:33:15.000Z</time>
      </trkpt>
      <trkpt lat="46.77316" lon="4.84065">
        <ele>177.80000305176</ele>
        <time>2024-05-20T06:33:16.000Z</time>
      </trkpt>
      <trkpt lat="46.77312" lon="4.84067">
        <ele>177.80000305176</ele>
        <time>2024-05-20T06:33:17.000Z</time>
      </trkpt>
      <trkpt lat="46.77307" lon="4.84066">
        <ele>177.80000305176</ele>
        <time>2024-05-20T06:33:18.000Z</time>
      </trkpt>
      <trkpt lat="46.77303" lon="4.84064">
        <ele>177.80000305176</ele>
        <time>2024-05-20T06:33:19.000Z</time>
      </trkpt>
      <trkpt lat="46.77299" lon="4.84061">
        <ele>177.80000305176</ele>
        <time>2024-05-20T06:33:20.000Z</time>
      </trkpt>
      <trkpt lat="46.77295" lon="4.84059">
        <ele>177.80000305176</ele>
        <time>2024-05-20T06:33:21.000Z</time>
      </trkpt>
      <trkpt lat="46.77291" lon="4.84056">
        <ele>177.80000305176</ele>
        <time>2024-05-20T06:33:22.000Z</time>
      </trkpt>
      <trkpt lat="46.77287" lon="4.84053">
        <ele>177.80000305176</ele>
        <time>2024-05-20T06:33:23.000Z</time>
      </trkpt>
      <trkpt lat="46.77283" lon="4.84051">
        <ele>178</ele>
        <time>2024-05-20T06:33:24.000Z</time>
      </trkpt>
      <trkpt lat="46.77279" lon="4.84048">
        <ele>178</ele>
        <time>2024-05-20T06:33:25.000Z</time>
      </trkpt>
      <trkpt lat="46.77275" lon="4.84045">
        <ele>178</ele>
        <time>2024-05-20T06:33:26.000Z</time>
      </trkpt>
      <trkpt lat="46.7727" lon="4.84042">
        <ele>178</ele>
        <time>2024-05-20T06:33:27.000Z</time>
      </trkpt>
      <trkpt lat="46.77266" lon="4.8404">
        <ele>178</ele>
        <time>2024-05-20T06:33:28.000Z</time>
      </trkpt>
      <trkpt lat="46.77262" lon="4.84037">
        <ele>178</ele>
        <time>2024-05-20T06:33:29.000Z</time>
      </trkpt>
      <trkpt lat="46.77258" lon="4.84034">
        <ele>178</ele>
        <time>2024-05-20T06:33:30.000Z</time>
      </trkpt>
      <trkpt lat="46.77253" lon="4.84031">
        <ele>178</ele>
        <time>2024-05-20T06:33:31.000Z</time>
      </trkpt>
      <trkpt lat="46.77249" lon="4.84029">
        <ele>178</ele>
        <time>2024-05-20T06:33:32.000Z</time>
      </trkpt>
      <trkpt lat="46.77244" lon="4.84026">
        <ele>178</ele>
        <time>2024-05-20T06:33:33.000Z</time>
      </trkpt>
      <trkpt lat="46.7724" lon="4.84023">
        <ele>178.19999694824</ele>
        <time>2024-05-20T06:33:34.000Z</time>
      </trkpt>
      <trkpt lat="46.77236" lon="4.8402">
        <ele>178.19999694824</ele>
        <time>2024-05-20T06:33:35.000Z</time>
      </trkpt>
      <trkpt lat="46.77231" lon="4.84017">
        <ele>178.19999694824</ele>
        <time>2024-05-20T06:33:36.000Z</time>
      </trkpt>
      <trkpt lat="46.77227" lon="4.84014">
        <ele>178.19999694824</ele>
        <time>2024-05-20T06:33:37.000Z</time>
      </trkpt>
      <trkpt lat="46.77222" lon="4.84011">
        <ele>178.19999694824</ele>
        <time>2024-05-20T06:33:38.000Z</time>
      </trkpt>
      <trkpt lat="46.77218" lon="4.84008">
        <ele>178.19999694824</ele>
        <time>2024-05-20T06:33:39.000Z</time>
      </trkpt>
      <trkpt lat="46.77213" lon="4.84005">
        <ele>178.19999694824</ele>
        <time>2024-05-20T06:33:40.000Z</time>
      </trkpt>
      <trkpt lat="46.77209" lon="4.84002">
        <ele>178.19999694824</ele>
        <time>2024-05-20T06:33:41.000Z</time>
      </trkpt>
      <trkpt lat="46.77204" lon="4.83999">
        <ele>178.19999694824</ele>
        <time>2024-05-20T06:33:42.000Z</time>
      </trkpt>
      <trkpt lat="46.77201" lon="4.83996">
        <ele>178.19999694824</ele>
        <time>2024-05-20T06:33:43.000Z</time>
      </trkpt>
      <trkpt lat="46.77195" lon="4.83993">
        <ele>178.19999694824</ele>
        <time>2024-05-20T06:33:44.000Z</time>
      </trkpt>
      <trkpt lat="46.7719" lon="4.83989">
        <ele>178.19999694824</ele>
        <time>2024-05-20T06:33:45.000Z</time>
      </trkpt>
      <trkpt lat="46.77185" lon="4.83986">
        <ele>178.19999694824</ele>
        <time>2024-05-20T06:33:46.000Z</time>
      </trkpt>
      <trkpt lat="46.7718" lon="4.83983">
        <ele>178.19999694824</ele>
        <time>2024-05-20T06:33:47.000Z</time>
      </trkpt>
      <trkpt lat="46.77176" lon="4.8398">
        <ele>178.19999694824</ele>
        <time>2024-05-20T06:33:48.000Z</time>
      </trkpt>
      <trkpt lat="46.77171" lon="4.83977">
        <ele>178</ele>
        <time>2024-05-20T06:33:49.000Z</time>
      </trkpt>
      <trkpt lat="46.77165" lon="4.83974">
        <ele>178</ele>
        <time>2024-05-20T06:33:50.000Z</time>
      </trkpt>
      <trkpt lat="46.7716" lon="4.83971">
        <ele>178</ele>
        <time>2024-05-20T06:33:51.000Z</time>
      </trkpt>
      <trkpt lat="46.77155" lon="4.83968">
        <ele>178</ele>
        <time>2024-05-20T06:33:52.000Z</time>
      </trkpt>
      <trkpt lat="46.7715" lon="4.83965">
        <ele>178</ele>
        <time>2024-05-20T06:33:53.000Z</time>
      </trkpt>
      <trkpt lat="46.77145" lon="4.83962">
        <ele>178</ele>
        <time>2024-05-20T06:33:54.000Z</time>
      </trkpt>
      <trkpt lat="46.7714" lon="4.8396">
        <ele>178</ele>
        <time>2024-05-20T06:33:55.000Z</time>
      </trkpt>
      <trkpt lat="46.77134" lon="4.83958">
        <ele>178</ele>
        <time>2024-05-20T06:33:56.000Z</time>
      </trkpt>
      <trkpt lat="46.77129" lon="4.83955">
        <ele>178</ele>
        <time>2024-05-20T06:33:57.000Z</time>
      </trkpt>
      <trkpt lat="46.77124" lon="4.83953">
        <ele>178</ele>
        <time>2024-05-20T06:33:58.000Z</time>
      </trkpt>
      <trkpt lat="46.77118" lon="4.83951">
        <ele>178</ele>
        <time>2024-05-20T06:33:59.000Z</time>
      </trkpt>
      <trkpt lat="46.77113" lon="4.83949">
        <ele>178</ele>
        <time>2024-05-20T06:34:00.000Z</time>
      </trkpt>
      <trkpt lat="46.77107" lon="4.83947">
        <ele>178</ele>
        <time>2024-05-20T06:34:01.000Z</time>
      </trkpt>
      <trkpt lat="46.77102" lon="4.83945">
        <ele>178</ele>
        <time>2024-05-20T06:34:02.000Z</time>
      </trkpt>
      <trkpt lat="46.77096" lon="4.83944">
        <ele>178</ele>
        <time>2024-05-20T06:34:03.000Z</time>
      </trkpt>
      <trkpt lat="46.77091" lon="4.83943">
        <ele>178</ele>
        <time>2024-05-20T06:34:04.000Z</time>
      </trkpt>
      <trkpt lat="46.77085" lon="4.83941">
        <ele>178</ele>
        <time>2024-05-20T06:34:05.000Z</time>
      </trkpt>
      <trkpt lat="46.7708" lon="4.8394">
        <ele>178</ele>
        <time>2024-05-20T06:34:06.000Z</time>
      </trkpt>
      <trkpt lat="46.77075" lon="4.83939">
        <ele>178</ele>
        <time>2024-05-20T06:34:07.000Z</time>
      </trkpt>
      <trkpt lat="46.77068" lon="4.83937">
        <ele>178</ele>
        <time>2024-05-20T06:34:08.000Z</time>
      </trkpt>
      <trkpt lat="46.77063" lon="4.83936">
        <ele>178</ele>
        <time>2024-05-20T06:34:09.000Z</time>
      </trkpt>
      <trkpt lat="46.77057" lon="4.83935">
        <ele>178</ele>
        <time>2024-05-20T06:34:10.000Z</time>
      </trkpt>
      <trkpt lat="46.77052" lon="4.83934">
        <ele>178</ele>
        <time>2024-05-20T06:34:11.000Z</time>
      </trkpt>
      <trkpt lat="46.77047" lon="4.83933">
        <ele>178</ele>
        <time>2024-05-20T06:34:12.000Z</time>
      </trkpt>
      <trkpt lat="46.77041" lon="4.83932">
        <ele>178</ele>
        <time>2024-05-20T06:34:13.000Z</time>
      </trkpt>
      <trkpt lat="46.77034" lon="4.83931">
        <ele>178</ele>
        <time>2024-05-20T06:34:14.000Z</time>
      </trkpt>
      <trkpt lat="46.7703" lon="4.8393">
        <ele>178</ele>
        <time>2024-05-20T06:34:15.000Z</time>
      </trkpt>
      <trkpt lat="46.77025" lon="4.83929">
        <ele>178</ele>
        <time>2024-05-20T06:34:16.000Z</time>
      </trkpt>
      <trkpt lat="46.77019" lon="4.83928">
        <ele>178</ele>
        <time>2024-05-20T06:34:17.000Z</time>
      </trkpt>
      <trkpt lat="46.77012" lon="4.83927">
        <ele>178.19999694824</ele>
        <time>2024-05-20T06:34:18.000Z</time>
      </trkpt>
      <trkpt lat="46.77007" lon="4.83926">
        <ele>178.19999694824</ele>
        <time>2024-05-20T06:34:19.000Z</time>
      </trkpt>
      <trkpt lat="46.77001" lon="4.83925">
        <ele>178.19999694824</ele>
        <time>2024-05-20T06:34:20.000Z</time>
      </trkpt>
      <trkpt lat="46.76995" lon="4.83925">
        <ele>178.19999694824</ele>
        <time>2024-05-20T06:34:21.000Z</time>
      </trkpt>
      <trkpt lat="46.7699" lon="4.83924">
        <ele>178</ele>
        <time>2024-05-20T06:34:22.000Z</time>
      </trkpt>
      <trkpt lat="46.76985" lon="4.83923">
        <ele>178</ele>
        <time>2024-05-20T06:34:23.000Z</time>
      </trkpt>
      <trkpt lat="46.76979" lon="4.83922">
        <ele>178</ele>
        <time>2024-05-20T06:34:24.000Z</time>
      </trkpt>
      <trkpt lat="46.76974" lon="4.83921">
        <ele>178</ele>
        <time>2024-05-20T06:34:25.000Z</time>
      </trkpt>
      <trkpt lat="46.76968" lon="4.8392">
        <ele>178</ele>
        <time>2024-05-20T06:34:26.000Z</time>
      </trkpt>
      <trkpt lat="46.76961" lon="4.83919">
        <ele>178</ele>
        <time>2024-05-20T06:34:27.000Z</time>
      </trkpt>
      <trkpt lat="46.76955" lon="4.83918">
        <ele>177.80000305176</ele>
        <time>2024-05-20T06:34:28.000Z</time>
      </trkpt>
      <trkpt lat="46.76951" lon="4.83917">
        <ele>177.80000305176</ele>
        <time>2024-05-20T06:34:29.000Z</time>
      </trkpt>
      <trkpt lat="46.76944" lon="4.83915">
        <ele>177.80000305176</ele>
        <time>2024-05-20T06:34:30.000Z</time>
      </trkpt>
      <trkpt lat="46.76938" lon="4.83914">
        <ele>177.80000305176</ele>
        <time>2024-05-20T06:34:31.000Z</time>
      </trkpt>
      <trkpt lat="46.76933" lon="4.83913">
        <ele>177.80000305176</ele>
        <time>2024-05-20T06:34:32.000Z</time>
      </trkpt>
      <trkpt lat="46.76927" lon="4.83911">
        <ele>177.80000305176</ele>
        <time>2024-05-20T06:34:33.000Z</time>
      </trkpt>
      <trkpt lat="46.76922" lon="4.83909">
        <ele>177.80000305176</ele>
        <time>2024-05-20T06:34:34.000Z</time>
      </trkpt>
      <trkpt lat="46.76916" lon="4.83908">
        <ele>177.80000305176</ele>
        <time>2024-05-20T06:34:35.000Z</time>
      </trkpt>
      <trkpt lat="46.76911" lon="4.83907">
        <ele>177.80000305176</ele>
        <time>2024-05-20T06:34:36.000Z</time>
      </trkpt>
      <trkpt lat="46.76905" lon="4.83905">
        <ele>177.80000305176</ele>
        <time>2024-05-20T06:34:37.000Z</time>
      </trkpt>
      <trkpt lat="46.769" lon="4.83904">
        <ele>177.80000305176</ele>
        <time>2024-05-20T06:34:38.000Z</time>
      </trkpt>
      <trkpt lat="46.76894" lon="4.83902">
        <ele>177.80000305176</ele>
        <time>2024-05-20T06:34:39.000Z</time>
      </trkpt>
      <trkpt lat="46.76889" lon="4.83901">
        <ele>177.60000610352</ele>
        <time>2024-05-20T06:34:40.000Z</time>
      </trkpt>
      <trkpt lat="46.76883" lon="4.839">
        <ele>177.60000610352</ele>
        <time>2024-05-20T06:34:41.000Z</time>
      </trkpt>
      <trkpt lat="46.76877" lon="4.83898">
        <ele>177.60000610352</ele>
        <time>2024-05-20T06:34:42.000Z</time>
      </trkpt>
      <trkpt lat="46.76871" lon="4.83897">
        <ele>177.60000610352</ele>
        <time>2024-05-20T06:34:43.000Z</time>
      </trkpt>
      <trkpt lat="46.76865" lon="4.83896">
        <ele>177.60000610352</ele>
        <time>2024-05-20T06:34:44.000Z</time>
      </trkpt>
      <trkpt lat="46.7686" lon="4.83894">
        <ele>177.60000610352</ele>
        <time>2024-05-20T06:34:45.000Z</time>
      </trkpt>
      <trkpt lat="46.76854" lon="4.83892">
        <ele>177.39999389648</ele>
        <time>2024-05-20T06:34:46.000Z</time>
      </trkpt>
      <trkpt lat="46.76848" lon="4.83891">
        <ele>177.39999389648</ele>
        <time>2024-05-20T06:34:47.000Z</time>
      </trkpt>
      <trkpt lat="46.76842" lon="4.8389">
        <ele>177.39999389648</ele>
        <time>2024-05-20T06:34:48.000Z</time>
      </trkpt>
      <trkpt lat="46.76838" lon="4.8389">
        <ele>177.19999694824</ele>
        <time>2024-05-20T06:34:49.000Z</time>
      </trkpt>
      <trkpt lat="46.76831" lon="4.8389">
        <ele>177.19999694824</ele>
        <time>2024-05-20T06:34:50.000Z</time>
      </trkpt>
      <trkpt lat="46.76825" lon="4.8389">
        <ele>177.19999694824</ele>
        <time>2024-05-20T06:34:51.000Z</time>
      </trkpt>
      <trkpt lat="46.7682" lon="4.8389">
        <ele>177.19999694824</ele>
        <time>2024-05-20T06:34:52.000Z</time>
      </trkpt>
      <trkpt lat="46.76815" lon="4.83891">
        <ele>177.39999389648</ele>
        <time>2024-05-20T06:34:53.000Z</time>
      </trkpt>
      <trkpt lat="46.76808" lon="4.83892">
        <ele>177.39999389648</ele>
        <time>2024-05-20T06:34:54.000Z</time>
      </trkpt>
      <trkpt lat="46.76804" lon="4.83893">
        <ele>177.39999389648</ele>
        <time>2024-05-20T06:34:55.000Z</time>
      </trkpt>
      <trkpt lat="46.76798" lon="4.83894">
        <ele>177.39999389648</ele>
        <time>2024-05-20T06:34:56.000Z</time>
      </trkpt>
      <trkpt lat="46.76793" lon="4.83895">
        <ele>177.60000610352</ele>
        <time>2024-05-20T06:34:57.000Z</time>
      </trkpt>
      <trkpt lat="46.76787" lon="4.83896">
        <ele>177.60000610352</ele>
        <time>2024-05-20T06:34:58.000Z</time>
      </trkpt>
      <trkpt lat="46.76782" lon="4.83897">
        <ele>177.60000610352</ele>
        <time>2024-05-20T06:34:59.000Z</time>
      </trkpt>
      <trkpt lat="46.76777" lon="4.83897">
        <ele>177.60000610352</ele>
        <time>2024-05-20T06:35:00.000Z</time>
      </trkpt>
      <trkpt lat="46.76771" lon="4.83898">
        <ele>177.60000610352</ele>
        <time>2024-05-20T06:35:01.000Z</time>
      </trkpt>
      <trkpt lat="46.76765" lon="4.83898">
        <ele>177.60000610352</ele>
        <time>2024-05-20T06:35:02.000Z</time>
      </trkpt>
      <trkpt lat="46.76759" lon="4.83897">
        <ele>177.39999389648</ele>
        <time>2024-05-20T06:35:03.000Z</time>
      </trkpt>
      <trkpt lat="46.76753" lon="4.83896">
        <ele>177.39999389648</ele>
        <time>2024-05-20T06:35:04.000Z</time>
      </trkpt>
      <trkpt lat="46.76747" lon="4.83894">
        <ele>177.19999694824</ele>
        <time>2024-05-20T06:35:05.000Z</time>
      </trkpt>
      <trkpt lat="46.76741" lon="4.83893">
        <ele>177</ele>
        <time>2024-05-20T06:35:06.000Z</time>
      </trkpt>
      <trkpt lat="46.76735" lon="4.83893">
        <ele>176.80000305176</ele>
        <time>2024-05-20T06:35:07.000Z</time>
      </trkpt>
      <trkpt lat="46.76729" lon="4.83892">
        <ele>176.60000610352</ele>
        <time>2024-05-20T06:35:08.000Z</time>
      </trkpt>
      <trkpt lat="46.76723" lon="4.83892">
        <ele>176.60000610352</ele>
        <time>2024-05-20T06:35:09.000Z</time>
      </trkpt>
      <trkpt lat="46.76717" lon="4.83892">
        <ele>176.39999389648</ele>
        <time>2024-05-20T06:35:10.000Z</time>
      </trkpt>
      <trkpt lat="46.76711" lon="4.83894">
        <ele>176.39999389648</ele>
        <time>2024-05-20T06:35:11.000Z</time>
      </trkpt>
      <trkpt lat="46.76706" lon="4.83897">
        <ele>176.39999389648</ele>
        <time>2024-05-20T06:35:12.000Z</time>
      </trkpt>
      <trkpt lat="46.767" lon="4.83901">
        <ele>176.39999389648</ele>
        <time>2024-05-20T06:35:13.000Z</time>
      </trkpt>
      <trkpt lat="46.76695" lon="4.83906">
        <ele>176.39999389648</ele>
        <time>2024-05-20T06:35:14.000Z</time>
      </trkpt>
      <trkpt lat="46.76692" lon="4.8391">
        <ele>176.39999389648</ele>
        <time>2024-05-20T06:35:15.000Z</time>
      </trkpt>
      <trkpt lat="46.76687" lon="4.83917">
        <ele>176.39999389648</ele>
        <time>2024-05-20T06:35:16.000Z</time>
      </trkpt>
      <trkpt lat="46.76682" lon="4.83923">
        <ele>176.39999389648</ele>
        <time>2024-05-20T06:35:17.000Z</time>
      </trkpt>
      <trkpt lat="46.76679" lon="4.83926">
        <ele>176.60000610352</ele>
        <time>2024-05-20T06:35:18.000Z</time>
      </trkpt>
      <trkpt lat="46.76676" lon="4.83932">
        <ele>176.60000610352</ele>
        <time>2024-05-20T06:35:19.000Z</time>
      </trkpt>
      <trkpt lat="46.76672" lon="4.83937">
        <ele>176.60000610352</ele>
        <time>2024-05-20T06:35:20.000Z</time>
      </trkpt>
      <trkpt lat="46.76669" lon="4.83942">
        <ele>176.60000610352</ele>
        <time>2024-05-20T06:35:21.000Z</time>
      </trkpt>
      <trkpt lat="46.76666" lon="4.83947">
        <ele>176.80000305176</ele>
        <time>2024-05-20T06:35:22.000Z</time>
      </trkpt>
      <trkpt lat="46.76664" lon="4.83953">
        <ele>176.80000305176</ele>
        <time>2024-05-20T06:35:23.000Z</time>
      </trkpt>
      <trkpt lat="46.76661" lon="4.83959">
        <ele>176.80000305176</ele>
        <time>2024-05-20T06:35:24.000Z</time>
      </trkpt>
      <trkpt lat="46.76659" lon="4.83968">
        <ele>176.80000305176</ele>
        <time>2024-05-20T06:35:25.000Z</time>
      </trkpt>
      <trkpt lat="46.76654" lon="4.83976">
        <ele>176.80000305176</ele>
        <time>2024-05-20T06:35:26.000Z</time>
      </trkpt>
      <trkpt lat="46.76651" lon="4.83983">
        <ele>176.80000305176</ele>
        <time>2024-05-20T06:35:27.000Z</time>
      </trkpt>
      <trkpt lat="46.76648" lon="4.83989">
        <ele>176.60000610352</ele>
        <time>2024-05-20T06:35:28.000Z</time>
      </trkpt>
      <trkpt lat="46.76646" lon="4.83993">
        <ele>176.60000610352</ele>
        <time>2024-05-20T06:35:29.000Z</time>
      </trkpt>
      <trkpt lat="46.76642" lon="4.83999">
        <ele>176.60000610352</ele>
        <time>2024-05-20T06:35:30.000Z</time>
      </trkpt>
      <trkpt lat="46.76639" lon="4.84003">
        <ele>176.60000610352</ele>
        <time>2024-05-20T06:35:31.000Z</time>
      </trkpt>
      <trkpt lat="46.76635" lon="4.84006">
        <ele>176.60000610352</ele>
        <time>2024-05-20T06:35:32.000Z</time>
      </trkpt>
      <trkpt lat="46.76632" lon="4.8401">
        <ele>176.80000305176</ele>
        <time>2024-05-20T06:35:33.000Z</time>
      </trkpt>
      <trkpt lat="46.76628" lon="4.84013">
        <ele>177</ele>
        <time>2024-05-20T06:35:34.000Z</time>
      </trkpt>
      <trkpt lat="46.76624" lon="4.84016">
        <ele>177</ele>
        <time>2024-05-20T06:35:35.000Z</time>
      </trkpt>
      <trkpt lat="46.76621" lon="4.84018">
        <ele>177.19999694824</ele>
        <time>2024-05-20T06:35:36.000Z</time>
      </trkpt>
      <trkpt lat="46.76617" lon="4.84021">
        <ele>177.19999694824</ele>
        <time>2024-05-20T06:35:37.000Z</time>
      </trkpt>
      <trkpt lat="46.76612" lon="4.84023">
        <ele>177.19999694824</ele>
        <time>2024-05-20T06:35:38.000Z</time>
      </trkpt>
      <trkpt lat="46.76608" lon="4.84025">
        <ele>177.19999694824</ele>
        <time>2024-05-20T06:35:39.000Z</time>
      </trkpt>
      <trkpt lat="46.76603" lon="4.84028">
        <ele>177.19999694824</ele>
        <time>2024-05-20T06:35:40.000Z</time>
      </trkpt>
      <trkpt lat="46.76598" lon="4.84031">
        <ele>177.19999694824</ele>
        <time>2024-05-20T06:35:41.000Z</time>
      </trkpt>
      <trkpt lat="46.76594" lon="4.84034">
        <ele>177.19999694824</ele>
        <time>2024-05-20T06:35:42.000Z</time>
      </trkpt>
      <trkpt lat="46.76589" lon="4.84037">
        <ele>177</ele>
        <time>2024-05-20T06:35:43.000Z</time>
      </trkpt>
      <trkpt lat="46.76584" lon="4.8404">
        <ele>177</ele>
        <time>2024-05-20T06:35:44.000Z</time>
      </trkpt>
      <trkpt lat="46.76579" lon="4.84042">
        <ele>177</ele>
        <time>2024-05-20T06:35:45.000Z</time>
      </trkpt>
      <trkpt lat="46.76573" lon="4.84046">
        <ele>177</ele>
        <time>2024-05-20T06:35:46.000Z</time>
      </trkpt>
      <trkpt lat="46.76569" lon="4.84048">
        <ele>177</ele>
        <time>2024-05-20T06:35:47.000Z</time>
      </trkpt>
      <trkpt lat="46.76564" lon="4.84052">
        <ele>176.80000305176</ele>
        <time>2024-05-20T06:35:48.000Z</time>
      </trkpt>
      <trkpt lat="46.76559" lon="4.84056">
        <ele>177</ele>
        <time>2024-05-20T06:35:49.000Z</time>
      </trkpt>
      <trkpt lat="46.76555" lon="4.8406">
        <ele>177</ele>
        <time>2024-05-20T06:35:50.000Z</time>
      </trkpt>
      <trkpt lat="46.7655" lon="4.84063">
        <ele>176.80000305176</ele>
        <time>2024-05-20T06:35:51.000Z</time>
      </trkpt>
      <trkpt lat="46.76545" lon="4.84067">
        <ele>176.80000305176</ele>
        <time>2024-05-20T06:35:52.000Z</time>
      </trkpt>
      <trkpt lat="46.7654" lon="4.8407">
        <ele>176.80000305176</ele>
        <time>2024-05-20T06:35:53.000Z</time>
      </trkpt>
      <trkpt lat="46.76535" lon="4.84074">
        <ele>176.80000305176</ele>
        <time>2024-05-20T06:35:54.000Z</time>
      </trkpt>
      <trkpt lat="46.76532" lon="4.84077">
        <ele>176.80000305176</ele>
        <time>2024-05-20T06:35:55.000Z</time>
      </trkpt>
      <trkpt lat="46.76526" lon="4.84083">
        <ele>176.60000610352</ele>
        <time>2024-05-20T06:35:56.000Z</time>
      </trkpt>
      <trkpt lat="46.76523" lon="4.84087">
        <ele>176.60000610352</ele>
        <time>2024-05-20T06:35:57.000Z</time>
      </trkpt>
      <trkpt lat="46.76519" lon="4.84092">
        <ele>176.60000610352</ele>
        <time>2024-05-20T06:35:58.000Z</time>
      </trkpt>
      <trkpt lat="46.76514" lon="4.84097">
        <ele>176.60000610352</ele>
        <time>2024-05-20T06:35:59.000Z</time>
      </trkpt>
      <trkpt lat="46.7651" lon="4.84102">
        <ele>176.60000610352</ele>
        <time>2024-05-20T06:36:00.000Z</time>
      </trkpt>
      <trkpt lat="46.76506" lon="4.84107">
        <ele>176.80000305176</ele>
        <time>2024-05-20T06:36:01.000Z</time>
      </trkpt>
      <trkpt lat="46.76502" lon="4.84113">
        <ele>176.80000305176</ele>
        <time>2024-05-20T06:36:02.000Z</time>
      </trkpt>
      <trkpt lat="46.76497" lon="4.84119">
        <ele>176.80000305176</ele>
        <time>2024-05-20T06:36:03.000Z</time>
      </trkpt>
      <trkpt lat="46.76493" lon="4.84124">
        <ele>176.80000305176</ele>
        <time>2024-05-20T06:36:04.000Z</time>
      </trkpt>
      <trkpt lat="46.7649" lon="4.84129">
        <ele>176.80000305176</ele>
        <time>2024-05-20T06:36:05.000Z</time>
      </trkpt>
      <trkpt lat="46.76486" lon="4.84135">
        <ele>176.80000305176</ele>
        <time>2024-05-20T06:36:06.000Z</time>
      </trkpt>
      <trkpt lat="46.76483" lon="4.84141">
        <ele>177</ele>
        <time>2024-05-20T06:36:07.000Z</time>
      </trkpt>
      <trkpt lat="46.76479" lon="4.84146">
        <ele>177.19999694824</ele>
        <time>2024-05-20T06:36:08.000Z</time>
      </trkpt>
      <trkpt lat="46.76477" lon="4.8415">
        <ele>177.39999389648</ele>
        <time>2024-05-20T06:36:09.000Z</time>
      </trkpt>
      <trkpt lat="46.76474" lon="4.84155">
        <ele>177.60000610352</ele>
        <time>2024-05-20T06:36:10.000Z</time>
      </trkpt>
      <trkpt lat="46.76472" lon="4.84159">
        <ele>178</ele>
        <time>2024-05-20T06:36:11.000Z</time>
      </trkpt>
      <trkpt lat="46.7647" lon="4.84161">
        <ele>178.19999694824</ele>
        <time>2024-05-20T06:36:12.000Z</time>
      </trkpt>
      <trkpt lat="46.76468" lon="4.84162">
        <ele>178.60000610352</ele>
        <time>2024-05-20T06:36:13.000Z</time>
      </trkpt>
      <trkpt lat="46.76465" lon="4.84161">
        <ele>178.80000305176</ele>
        <time>2024-05-20T06:36:14.000Z</time>
      </trkpt>
      <trkpt lat="46.76463" lon="4.84158">
        <ele>179</ele>
        <time>2024-05-20T06:36:15.000Z</time>
      </trkpt>
      <trkpt lat="46.76461" lon="4.84155">
        <ele>179.19999694824</ele>
        <time>2024-05-20T06:36:16.000Z</time>
      </trkpt>
      <trkpt lat="46.76459" lon="4.84152">
        <ele>179.19999694824</ele>
        <time>2024-05-20T06:36:17.000Z</time>
      </trkpt>
      <trkpt lat="46.76457" lon="4.84149">
        <ele>179.39999389648</ele>
        <time>2024-05-20T06:36:18.000Z</time>
      </trkpt>
      <trkpt lat="46.76455" lon="4.84146">
        <ele>179.39999389648</ele>
        <time>2024-05-20T06:36:19.000Z</time>
      </trkpt>
      <trkpt lat="46.76453" lon="4.84143">
        <ele>179.60000610352</ele>
        <time>2024-05-20T06:36:20.000Z</time>
      </trkpt>
      <trkpt lat="46.76452" lon="4.8414">
        <ele>179.60000610352</ele>
        <time>2024-05-20T06:36:21.000Z</time>
      </trkpt>
      <trkpt lat="46.7645" lon="4.84136">
        <ele>179.80000305176</ele>
        <time>2024-05-20T06:36:22.000Z</time>
      </trkpt>
      <trkpt lat="46.76447" lon="4.84133">
        <ele>179.80000305176</ele>
        <time>2024-05-20T06:36:23.000Z</time>
      </trkpt>
      <trkpt lat="46.76445" lon="4.84129">
        <ele>180</ele>
        <time>2024-05-20T06:36:24.000Z</time>
      </trkpt>
      <trkpt lat="46.76443" lon="4.84125">
        <ele>180</ele>
        <time>2024-05-20T06:36:25.000Z</time>
      </trkpt>
      <trkpt lat="46.76441" lon="4.84122">
        <ele>180.19999694824</ele>
        <time>2024-05-20T06:36:26.000Z</time>
      </trkpt>
      <trkpt lat="46.76438" lon="4.84118">
        <ele>180.39999389648</ele>
        <time>2024-05-20T06:36:27.000Z</time>
      </trkpt>
      <trkpt lat="46.76436" lon="4.84115">
        <ele>180.60000610352</ele>
        <time>2024-05-20T06:36:28.000Z</time>
      </trkpt>
      <trkpt lat="46.76434" lon="4.84111">
        <ele>180.60000610352</ele>
        <time>2024-05-20T06:36:29.000Z</time>
      </trkpt>
      <trkpt lat="46.76431" lon="4.84107">
        <ele>180.80000305176</ele>
        <time>2024-05-20T06:36:30.000Z</time>
      </trkpt>
      <trkpt lat="46.76429" lon="4.84103">
        <ele>180.80000305176</ele>
        <time>2024-05-20T06:36:31.000Z</time>
      </trkpt>
      <trkpt lat="46.76427" lon="4.841">
        <ele>181</ele>
        <time>2024-05-20T06:36:32.000Z</time>
      </trkpt>
      <trkpt lat="46.76424" lon="4.84096">
        <ele>181.19999694824</ele>
        <time>2024-05-20T06:36:33.000Z</time>
      </trkpt>
      <trkpt lat="46.76422" lon="4.84092">
        <ele>181.39999389648</ele>
        <time>2024-05-20T06:36:34.000Z</time>
      </trkpt>
      <trkpt lat="46.7642" lon="4.84089">
        <ele>181.60000610352</ele>
        <time>2024-05-20T06:36:35.000Z</time>
      </trkpt>
      <trkpt lat="46.76417" lon="4.84085">
        <ele>181.80000305176</ele>
        <time>2024-05-20T06:36:36.000Z</time>
      </trkpt>
      <trkpt lat="46.76414" lon="4.84082">
        <ele>181.80000305176</ele>
        <time>2024-05-20T06:36:37.000Z</time>
      </trkpt>
      <trkpt lat="46.76412" lon="4.84078">
        <ele>182</ele>
        <time>2024-05-20T06:36:38.000Z</time>
      </trkpt>
      <trkpt lat="46.7641" lon="4.84074">
        <ele>182.19999694824</ele>
        <time>2024-05-20T06:36:39.000Z</time>
      </trkpt>
      <trkpt lat="46.76407" lon="4.84071">
        <ele>182.39999389648</ele>
        <time>2024-05-20T06:36:40.000Z</time>
      </trkpt>
      <trkpt lat="46.76405" lon="4.84067">
        <ele>182.60000610352</ele>
        <time>2024-05-20T06:36:41.000Z</time>
      </trkpt>
      <trkpt lat="46.76403" lon="4.84063">
        <ele>182.80000305176</ele>
        <time>2024-05-20T06:36:42.000Z</time>
      </trkpt>
      <trkpt lat="46.764" lon="4.8406">
        <ele>183</ele>
        <time>2024-05-20T06:36:43.000Z</time>
      </trkpt>
      <trkpt lat="46.76398" lon="4.84056">
        <ele>183</ele>
        <time>2024-05-20T06:36:44.000Z</time>
      </trkpt>
      <trkpt lat="46.76396" lon="4.84052">
        <ele>183.19999694824</ele>
        <time>2024-05-20T06:36:45.000Z</time>
      </trkpt>
      <trkpt lat="46.76393" lon="4.84049">
        <ele>183.39999389648</ele>
        <time>2024-05-20T06:36:46.000Z</time>
      </trkpt>
      <trkpt lat="46.76391" lon="4.84045">
        <ele>183.60000610352</ele>
        <time>2024-05-20T06:36:47.000Z</time>
      </trkpt>
      <trkpt lat="46.76389" lon="4.84042">
        <ele>183.60000610352</ele>
        <time>2024-05-20T06:36:48.000Z</time>
      </trkpt>
      <trkpt lat="46.76386" lon="4.84038">
        <ele>183.80000305176</ele>
        <time>2024-05-20T06:36:49.000Z</time>
      </trkpt>
      <trkpt lat="46.76384" lon="4.84035">
        <ele>183.80000305176</ele>
        <time>2024-05-20T06:36:50.000Z</time>
      </trkpt>
      <trkpt lat="46.76382" lon="4.84031">
        <ele>184</ele>
        <time>2024-05-20T06:36:51.000Z</time>
      </trkpt>
      <trkpt lat="46.76379" lon="4.84028">
        <ele>184.19999694824</ele>
        <time>2024-05-20T06:36:52.000Z</time>
      </trkpt>
      <trkpt lat="46.76377" lon="4.84025">
        <ele>184.39999389648</ele>
        <time>2024-05-20T06:36:53.000Z</time>
      </trkpt>
      <trkpt lat="46.76375" lon="4.8402">
        <ele>184.60000610352</ele>
        <time>2024-05-20T06:36:54.000Z</time>
      </trkpt>
      <trkpt lat="46.76372" lon="4.84016">
        <ele>184.60000610352</ele>
        <time>2024-05-20T06:36:55.000Z</time>
      </trkpt>
      <trkpt lat="46.7637" lon="4.84013">
        <ele>184.80000305176</ele>
        <time>2024-05-20T06:36:56.000Z</time>
      </trkpt>
      <trkpt lat="46.76368" lon="4.84009">
        <ele>184.80000305176</ele>
        <time>2024-05-20T06:36:57.000Z</time>
      </trkpt>
      <trkpt lat="46.76366" lon="4.84006">
        <ele>185</ele>
        <time>2024-05-20T06:36:58.000Z</time>
      </trkpt>
      <trkpt lat="46.76363" lon="4.84002">
        <ele>185.19999694824</ele>
        <time>2024-05-20T06:36:59.000Z</time>
      </trkpt>
      <trkpt lat="46.76361" lon="4.83999">
        <ele>185.60000610352</ele>
        <time>2024-05-20T06:37:00.000Z</time>
      </trkpt>
      <trkpt lat="46.76359" lon="4.83996">
        <ele>186</ele>
        <time>2024-05-20T06:37:01.000Z</time>
      </trkpt>
      <trkpt lat="46.76357" lon="4.83993">
        <ele>186</ele>
        <time>2024-05-20T06:37:02.000Z</time>
      </trkpt>
      <trkpt lat="46.76355" lon="4.8399">
        <ele>186.19999694824</ele>
        <time>2024-05-20T06:37:03.000Z</time>
      </trkpt>
      <trkpt lat="46.76354" lon="4.83987">
        <ele>186.19999694824</ele>
        <time>2024-05-20T06:37:04.000Z</time>
      </trkpt>
      <trkpt lat="46.76352" lon="4.83984">
        <ele>186.19999694824</ele>
        <time>2024-05-20T06:37:05.000Z</time>
      </trkpt>
      <trkpt lat="46.7635" lon="4.8398">
        <ele>186.39999389648</ele>
        <time>2024-05-20T06:37:06.000Z</time>
      </trkpt>
      <trkpt lat="46.76348" lon="4.83976">
        <ele>186.39999389648</ele>
        <time>2024-05-20T06:37:07.000Z</time>
      </trkpt>
      <trkpt lat="46.76345" lon="4.83972">
        <ele>186.60000610352</ele>
        <time>2024-05-20T06:37:08.000Z</time>
      </trkpt>
      <trkpt lat="46.76344" lon="4.83969">
        <ele>186.80000305176</ele>
        <time>2024-05-20T06:37:09.000Z</time>
      </trkpt>
      <trkpt lat="46.76342" lon="4.83965">
        <ele>186.80000305176</ele>
        <time>2024-05-20T06:37:10.000Z</time>
      </trkpt>
      <trkpt lat="46.7634" lon="4.83961">
        <ele>187</ele>
        <time>2024-05-20T06:37:11.000Z</time>
      </trkpt>
      <trkpt lat="46.76338" lon="4.83956">
        <ele>187.19999694824</ele>
        <time>2024-05-20T06:37:12.000Z</time>
      </trkpt>
      <trkpt lat="46.76336" lon="4.83952">
        <ele>187.19999694824</ele>
        <time>2024-05-20T06:37:13.000Z</time>
      </trkpt>
      <trkpt lat="46.76334" lon="4.83948">
        <ele>187.19999694824</ele>
        <time>2024-05-20T06:37:14.000Z</time>
      </trkpt>
      <trkpt lat="46.76332" lon="4.83944">
        <ele>187.19999694824</ele>
        <time>2024-05-20T06:37:15.000Z</time>
      </trkpt>
      <trkpt lat="46.7633" lon="4.83939">
        <ele>187.39999389648</ele>
        <time>2024-05-20T06:37:16.000Z</time>
      </trkpt>
      <trkpt lat="46.76329" lon="4.83935">
        <ele>187.60000610352</ele>
        <time>2024-05-20T06:37:17.000Z</time>
      </trkpt>
      <trkpt lat="46.76327" lon="4.83931">
        <ele>187.60000610352</ele>
        <time>2024-05-20T06:37:18.000Z</time>
      </trkpt>
      <trkpt lat="46.76325" lon="4.83926">
        <ele>187.80000305176</ele>
        <time>2024-05-20T06:37:19.000Z</time>
      </trkpt>
      <trkpt lat="46.76324" lon="4.83922">
        <ele>188</ele>
        <time>2024-05-20T06:37:20.000Z</time>
      </trkpt>
      <trkpt lat="46.76322" lon="4.83917">
        <ele>188</ele>
        <time>2024-05-20T06:37:21.000Z</time>
      </trkpt>
      <trkpt lat="46.7632" lon="4.83912">
        <ele>188</ele>
        <time>2024-05-20T06:37:22.000Z</time>
      </trkpt>
      <trkpt lat="46.76318" lon="4.83907">
        <ele>188</ele>
        <time>2024-05-20T06:37:23.000Z</time>
      </trkpt>
      <trkpt lat="46.76317" lon="4.83902">
        <ele>188</ele>
        <time>2024-05-20T06:37:24.000Z</time>
      </trkpt>
      <trkpt lat="46.76315" lon="4.83899">
        <ele>188.39999389648</ele>
        <time>2024-05-20T06:37:25.000Z</time>
      </trkpt>
      <trkpt lat="46.76313" lon="4.83893">
        <ele>188.39999389648</ele>
        <time>2024-05-20T06:37:26.000Z</time>
      </trkpt>
      <trkpt lat="46.76312" lon="4.83888">
        <ele>188.80000305176</ele>
        <time>2024-05-20T06:37:27.000Z</time>
      </trkpt>
      <trkpt lat="46.7631" lon="4.83883">
        <ele>188.80000305176</ele>
        <time>2024-05-20T06:37:28.000Z</time>
      </trkpt>
      <trkpt lat="46.76308" lon="4.83879">
        <ele>188.80000305176</ele>
        <time>2024-05-20T06:37:29.000Z</time>
      </trkpt>
      <trkpt lat="46.76306" lon="4.83873">
        <ele>189</ele>
        <time>2024-05-20T06:37:30.000Z</time>
      </trkpt>
      <trkpt lat="46.76305" lon="4.83868">
        <ele>189</ele>
        <time>2024-05-20T06:37:31.000Z</time>
      </trkpt>
      <trkpt lat="46.76303" lon="4.83863">
        <ele>189.19999694824</ele>
        <time>2024-05-20T06:37:32.000Z</time>
      </trkpt>
      <trkpt lat="46.76301" lon="4.83858">
        <ele>189.39999389648</ele>
        <time>2024-05-20T06:37:33.000Z</time>
      </trkpt>
      <trkpt lat="46.76299" lon="4.83852">
        <ele>189.39999389648</ele>
        <time>2024-05-20T06:37:34.000Z</time>
      </trkpt>
      <trkpt lat="46.76297" lon="4.83847">
        <ele>189.60000610352</ele>
        <time>2024-05-20T06:37:35.000Z</time>
      </trkpt>
      <trkpt lat="46.76295" lon="4.83841">
        <ele>189.60000610352</ele>
        <time>2024-05-20T06:37:36.000Z</time>
      </trkpt>
      <trkpt lat="46.76293" lon="4.83837">
        <ele>189.60000610352</ele>
        <time>2024-05-20T06:37:37.000Z</time>
      </trkpt>
      <trkpt lat="46.76291" lon="4.8383">
        <ele>189.60000610352</ele>
        <time>2024-05-20T06:37:38.000Z</time>
      </trkpt>
      <trkpt lat="46.76289" lon="4.83825">
        <ele>189.60000610352</ele>
        <time>2024-05-20T06:37:39.000Z</time>
      </trkpt>
      <trkpt lat="46.76287" lon="4.83819">
        <ele>189.39999389648</ele>
        <time>2024-05-20T06:37:40.000Z</time>
      </trkpt>
      <trkpt lat="46.76284" lon="4.83812">
        <ele>189.39999389648</ele>
        <time>2024-05-20T06:37:41.000Z</time>
      </trkpt>
      <trkpt lat="46.76282" lon="4.83806">
        <ele>189.39999389648</ele>
        <time>2024-05-20T06:37:42.000Z</time>
      </trkpt>
      <trkpt lat="46.7628" lon="4.838">
        <ele>189.39999389648</ele>
        <time>2024-05-20T06:37:43.000Z</time>
      </trkpt>
      <trkpt lat="46.76277" lon="4.83794">
        <ele>189.39999389648</ele>
        <time>2024-05-20T06:37:44.000Z</time>
      </trkpt>
      <trkpt lat="46.76275" lon="4.83789">
        <ele>189.39999389648</ele>
        <time>2024-05-20T06:37:45.000Z</time>
      </trkpt>
      <trkpt lat="46.76273" lon="4.83783">
        <ele>189.60000610352</ele>
        <time>2024-05-20T06:37:46.000Z</time>
      </trkpt>
      <trkpt lat="46.7627" lon="4.83776">
        <ele>189.60000610352</ele>
        <time>2024-05-20T06:37:47.000Z</time>
      </trkpt>
      <trkpt lat="46.76267" lon="4.83768">
        <ele>189.60000610352</ele>
        <time>2024-05-20T06:37:48.000Z</time>
      </trkpt>
      <trkpt lat="46.76265" lon="4.83762">
        <ele>189.60000610352</ele>
        <time>2024-05-20T06:37:49.000Z</time>
      </trkpt>
      <trkpt lat="46.76263" lon="4.83756">
        <ele>189.60000610352</ele>
        <time>2024-05-20T06:37:50.000Z</time>
      </trkpt>
      <trkpt lat="46.7626" lon="4.8375">
        <ele>189.60000610352</ele>
        <time>2024-05-20T06:37:51.000Z</time>
      </trkpt>
      <trkpt lat="46.76257" lon="4.83743">
        <ele>189.60000610352</ele>
        <time>2024-05-20T06:37:52.000Z</time>
      </trkpt>
      <trkpt lat="46.76255" lon="4.83737">
        <ele>189.39999389648</ele>
        <time>2024-05-20T06:37:53.000Z</time>
      </trkpt>
      <trkpt lat="46.76251" lon="4.8373">
        <ele>189.39999389648</ele>
        <time>2024-05-20T06:37:54.000Z</time>
      </trkpt>
      <trkpt lat="46.76249" lon="4.83724">
        <ele>189.39999389648</ele>
        <time>2024-05-20T06:37:55.000Z</time>
      </trkpt>
      <trkpt lat="46.76245" lon="4.83718">
        <ele>189.39999389648</ele>
        <time>2024-05-20T06:37:56.000Z</time>
      </trkpt>
      <trkpt lat="46.76242" lon="4.83712">
        <ele>189.39999389648</ele>
        <time>2024-05-20T06:37:57.000Z</time>
      </trkpt>
      <trkpt lat="46.76238" lon="4.83706">
        <ele>189.39999389648</ele>
        <time>2024-05-20T06:37:58.000Z</time>
      </trkpt>
      <trkpt lat="46.76234" lon="4.83701">
        <ele>189.39999389648</ele>
        <time>2024-05-20T06:37:59.000Z</time>
      </trkpt>
      <trkpt lat="46.76231" lon="4.83697">
        <ele>189.39999389648</ele>
        <time>2024-05-20T06:38:00.000Z</time>
      </trkpt>
      <trkpt lat="46.76226" lon="4.83692">
        <ele>189.39999389648</ele>
        <time>2024-05-20T06:38:01.000Z</time>
      </trkpt>
      <trkpt lat="46.7622" lon="4.83687">
        <ele>189.39999389648</ele>
        <time>2024-05-20T06:38:02.000Z</time>
      </trkpt>
      <trkpt lat="46.76215" lon="4.83683">
        <ele>189.39999389648</ele>
        <time>2024-05-20T06:38:03.000Z</time>
      </trkpt>
      <trkpt lat="46.7621" lon="4.83679">
        <ele>189.39999389648</ele>
        <time>2024-05-20T06:38:04.000Z</time>
      </trkpt>
      <trkpt lat="46.76205" lon="4.83675">
        <ele>189.39999389648</ele>
        <time>2024-05-20T06:38:05.000Z</time>
      </trkpt>
      <trkpt lat="46.762" lon="4.83671">
        <ele>189.39999389648</ele>
        <time>2024-05-20T06:38:06.000Z</time>
      </trkpt>
      <trkpt lat="46.76195" lon="4.83667">
        <ele>189.39999389648</ele>
        <time>2024-05-20T06:38:07.000Z</time>
      </trkpt>
      <trkpt lat="46.7619" lon="4.83662">
        <ele>189.39999389648</ele>
        <time>2024-05-20T06:38:08.000Z</time>
      </trkpt>
      <trkpt lat="46.76185" lon="4.83656">
        <ele>189.39999389648</ele>
        <time>2024-05-20T06:38:09.000Z</time>
      </trkpt>
      <trkpt lat="46.76182" lon="4.8365">
        <ele>189.39999389648</ele>
        <time>2024-05-20T06:38:10.000Z</time>
      </trkpt>
      <trkpt lat="46.76178" lon="4.83642">
        <ele>189.39999389648</ele>
        <time>2024-05-20T06:38:11.000Z</time>
      </trkpt>
      <trkpt lat="46.76176" lon="4.83634">
        <ele>189.39999389648</ele>
        <time>2024-05-20T06:38:12.000Z</time>
      </trkpt>
      <trkpt lat="46.76174" lon="4.83625">
        <ele>189.39999389648</ele>
        <time>2024-05-20T06:38:13.000Z</time>
      </trkpt>
      <trkpt lat="46.76172" lon="4.83617">
        <ele>189.39999389648</ele>
        <time>2024-05-20T06:38:14.000Z</time>
      </trkpt>
      <trkpt lat="46.7617" lon="4.83608">
        <ele>189.39999389648</ele>
        <time>2024-05-20T06:38:15.000Z</time>
      </trkpt>
      <trkpt lat="46.76168" lon="4.836">
        <ele>189.19999694824</ele>
        <time>2024-05-20T06:38:16.000Z</time>
      </trkpt>
      <trkpt lat="46.76166" lon="4.83591">
        <ele>189.19999694824</ele>
        <time>2024-05-20T06:38:17.000Z</time>
      </trkpt>
      <trkpt lat="46.76164" lon="4.83582">
        <ele>189.19999694824</ele>
        <time>2024-05-20T06:38:18.000Z</time>
      </trkpt>
      <trkpt lat="46.76163" lon="4.83573">
        <ele>189.19999694824</ele>
        <time>2024-05-20T06:38:19.000Z</time>
      </trkpt>
      <trkpt lat="46.76161" lon="4.83564">
        <ele>189</ele>
        <time>2024-05-20T06:38:20.000Z</time>
      </trkpt>
      <trkpt lat="46.76159" lon="4.83554">
        <ele>188.80000305176</ele>
        <time>2024-05-20T06:38:21.000Z</time>
      </trkpt>
      <trkpt lat="46.76156" lon="4.83545">
        <ele>188.39999389648</ele>
        <time>2024-05-20T06:38:22.000Z</time>
      </trkpt>
      <trkpt lat="46.76154" lon="4.83535">
        <ele>188</ele>
        <time>2024-05-20T06:38:23.000Z</time>
      </trkpt>
      <trkpt lat="46.76151" lon="4.83524">
        <ele>187.39999389648</ele>
        <time>2024-05-20T06:38:24.000Z</time>
      </trkpt>
      <trkpt lat="46.76148" lon="4.83515">
        <ele>187</ele>
        <time>2024-05-20T06:38:25.000Z</time>
      </trkpt>
      <trkpt lat="46.76144" lon="4.83505">
        <ele>186.80000305176</ele>
        <time>2024-05-20T06:38:26.000Z</time>
      </trkpt>
      <trkpt lat="46.76139" lon="4.83495">
        <ele>186.39999389648</ele>
        <time>2024-05-20T06:38:27.000Z</time>
      </trkpt>
      <trkpt lat="46.76135" lon="4.83486">
        <ele>185.80000305176</ele>
        <time>2024-05-20T06:38:28.000Z</time>
      </trkpt>
      <trkpt lat="46.76131" lon="4.83476">
        <ele>185.19999694824</ele>
        <time>2024-05-20T06:38:29.000Z</time>
      </trkpt>
      <trkpt lat="46.76127" lon="4.83466">
        <ele>184.80000305176</ele>
        <time>2024-05-20T06:38:30.000Z</time>
      </trkpt>
      <trkpt lat="46.76123" lon="4.83456">
        <ele>184.60000610352</ele>
        <time>2024-05-20T06:38:31.000Z</time>
      </trkpt>
      <trkpt lat="46.7612" lon="4.83446">
        <ele>184.39999389648</ele>
        <time>2024-05-20T06:38:32.000Z</time>
      </trkpt>
      <trkpt lat="46.76116" lon="4.83436">
        <ele>184.19999694824</ele>
        <time>2024-05-20T06:38:33.000Z</time>
      </trkpt>
      <trkpt lat="46.76112" lon="4.83427">
        <ele>184.19999694824</ele>
        <time>2024-05-20T06:38:34.000Z</time>
      </trkpt>
      <trkpt lat="46.76109" lon="4.83418">
        <ele>184.19999694824</ele>
        <time>2024-05-20T06:38:35.000Z</time>
      </trkpt>
      <trkpt lat="46.76106" lon="4.83412">
        <ele>184.19999694824</ele>
        <time>2024-05-20T06:38:36.000Z</time>
      </trkpt>
      <trkpt lat="46.76102" lon="4.83402">
        <ele>184.19999694824</ele>
        <time>2024-05-20T06:38:37.000Z</time>
      </trkpt>
      <trkpt lat="46.76099" lon="4.83394">
        <ele>184.19999694824</ele>
        <time>2024-05-20T06:38:38.000Z</time>
      </trkpt>
      <trkpt lat="46.76095" lon="4.83387">
        <ele>184.39999389648</ele>
        <time>2024-05-20T06:38:39.000Z</time>
      </trkpt>
      <trkpt lat="46.76092" lon="4.8338">
        <ele>184.60000610352</ele>
        <time>2024-05-20T06:38:40.000Z</time>
      </trkpt>
      <trkpt lat="46.76089" lon="4.83373">
        <ele>185</ele>
        <time>2024-05-20T06:38:41.000Z</time>
      </trkpt>
      <trkpt lat="46.76085" lon="4.83365">
        <ele>185.19999694824</ele>
        <time>2024-05-20T06:38:42.000Z</time>
      </trkpt>
      <trkpt lat="46.76082" lon="4.83358">
        <ele>185.39999389648</ele>
        <time>2024-05-20T06:38:43.000Z</time>
      </trkpt>
      <trkpt lat="46.76079" lon="4.83351">
        <ele>185.60000610352</ele>
        <time>2024-05-20T06:38:44.000Z</time>
      </trkpt>
      <trkpt lat="46.76076" lon="4.83344">
        <ele>185.60000610352</ele>
        <time>2024-05-20T06:38:45.000Z</time>
      </trkpt>
      <trkpt lat="46.76073" lon="4.83337">
        <ele>185.80000305176</ele>
        <time>2024-05-20T06:38:46.000Z</time>
      </trkpt>
      <trkpt lat="46.7607" lon="4.83329">
        <ele>185.80000305176</ele>
        <time>2024-05-20T06:38:47.000Z</time>
      </trkpt>
      <trkpt lat="46.76067" lon="4.83322">
        <ele>186</ele>
        <time>2024-05-20T06:38:48.000Z</time>
      </trkpt>
      <trkpt lat="46.76064" lon="4.83315">
        <ele>186.19999694824</ele>
        <time>2024-05-20T06:38:49.000Z</time>
      </trkpt>
      <trkpt lat="46.76061" lon="4.83307">
        <ele>186.19999694824</ele>
        <time>2024-05-20T06:38:50.000Z</time>
      </trkpt>
      <trkpt lat="46.76058" lon="4.833">
        <ele>186.19999694824</ele>
        <time>2024-05-20T06:38:51.000Z</time>
      </trkpt>
      <trkpt lat="46.76056" lon="4.83293">
        <ele>186.39999389648</ele>
        <time>2024-05-20T06:38:52.000Z</time>
      </trkpt>
      <trkpt lat="46.76053" lon="4.83286">
        <ele>186.39999389648</ele>
        <time>2024-05-20T06:38:53.000Z</time>
      </trkpt>
      <trkpt lat="46.76049" lon="4.83278">
        <ele>186.60000610352</ele>
        <time>2024-05-20T06:38:54.000Z</time>
      </trkpt>
      <trkpt lat="46.76046" lon="4.83271">
        <ele>186.60000610352</ele>
        <time>2024-05-20T06:38:55.000Z</time>
      </trkpt>
      <trkpt lat="46.76043" lon="4.83264">
        <ele>186.80000305176</ele>
        <time>2024-05-20T06:38:56.000Z</time>
      </trkpt>
      <trkpt lat="46.7604" lon="4.83257">
        <ele>186.80000305176</ele>
        <time>2024-05-20T06:38:57.000Z</time>
      </trkpt>
      <trkpt lat="46.76038" lon="4.8325">
        <ele>187</ele>
        <time>2024-05-20T06:38:58.000Z</time>
      </trkpt>
      <trkpt lat="46.76035" lon="4.83243">
        <ele>187.19999694824</ele>
        <time>2024-05-20T06:38:59.000Z</time>
      </trkpt>
      <trkpt lat="46.76032" lon="4.83236">
        <ele>187.19999694824</ele>
        <time>2024-05-20T06:39:00.000Z</time>
      </trkpt>
      <trkpt lat="46.7603" lon="4.83229">
        <ele>187.39999389648</ele>
        <time>2024-05-20T06:39:01.000Z</time>
      </trkpt>
      <trkpt lat="46.76027" lon="4.83222">
        <ele>187.39999389648</ele>
        <time>2024-05-20T06:39:02.000Z</time>
      </trkpt>
      <trkpt lat="46.76023" lon="4.83215">
        <ele>187.39999389648</ele>
        <time>2024-05-20T06:39:03.000Z</time>
      </trkpt>
      <trkpt lat="46.76022" lon="4.83209">
        <ele>187.39999389648</ele>
        <time>2024-05-20T06:39:04.000Z</time>
      </trkpt>
      <trkpt lat="46.76019" lon="4.83202">
        <ele>187.60000610352</ele>
        <time>2024-05-20T06:39:05.000Z</time>
      </trkpt>
      <trkpt lat="46.76016" lon="4.83194">
        <ele>187.60000610352</ele>
        <time>2024-05-20T06:39:06.000Z</time>
      </trkpt>
      <trkpt lat="46.76013" lon="4.83187">
        <ele>187.80000305176</ele>
        <time>2024-05-20T06:39:07.000Z</time>
      </trkpt>
      <trkpt lat="46.7601" lon="4.8318">
        <ele>187.80000305176</ele>
        <time>2024-05-20T06:39:08.000Z</time>
      </trkpt>
      <trkpt lat="46.76008" lon="4.83174">
        <ele>187.80000305176</ele>
        <time>2024-05-20T06:39:09.000Z</time>
      </trkpt>
      <trkpt lat="46.76005" lon="4.83166">
        <ele>187.80000305176</ele>
        <time>2024-05-20T06:39:10.000Z</time>
      </trkpt>
      <trkpt lat="46.76002" lon="4.83159">
        <ele>188</ele>
        <time>2024-05-20T06:39:11.000Z</time>
      </trkpt>
      <trkpt lat="46.76" lon="4.83152">
        <ele>188</ele>
        <time>2024-05-20T06:39:12.000Z</time>
      </trkpt>
      <trkpt lat="46.75997" lon="4.83145">
        <ele>188</ele>
        <time>2024-05-20T06:39:13.000Z</time>
      </trkpt>
      <trkpt lat="46.75994" lon="4.83138">
        <ele>188</ele>
        <time>2024-05-20T06:39:14.000Z</time>
      </trkpt>
      <trkpt lat="46.75991" lon="4.83131">
        <ele>188.19999694824</ele>
        <time>2024-05-20T06:39:15.000Z</time>
      </trkpt>
      <trkpt lat="46.75988" lon="4.83124">
        <ele>188.19999694824</ele>
        <time>2024-05-20T06:39:16.000Z</time>
      </trkpt>
      <trkpt lat="46.75984" lon="4.83117">
        <ele>188.19999694824</ele>
        <time>2024-05-20T06:39:17.000Z</time>
      </trkpt>
      <trkpt lat="46.75981" lon="4.83111">
        <ele>188.19999694824</ele>
        <time>2024-05-20T06:39:18.000Z</time>
      </trkpt>
      <trkpt lat="46.75979" lon="4.83104">
        <ele>188.39999389648</ele>
        <time>2024-05-20T06:39:19.000Z</time>
      </trkpt>
      <trkpt lat="46.75976" lon="4.83096">
        <ele>188.60000610352</ele>
        <time>2024-05-20T06:39:20.000Z</time>
      </trkpt>
      <trkpt lat="46.75974" lon="4.83089">
        <ele>188.60000610352</ele>
        <time>2024-05-20T06:39:21.000Z</time>
      </trkpt>
      <trkpt lat="46.75971" lon="4.83082">
        <ele>188.60000610352</ele>
        <time>2024-05-20T06:39:22.000Z</time>
      </trkpt>
      <trkpt lat="46.75968" lon="4.83075">
        <ele>188.60000610352</ele>
        <time>2024-05-20T06:39:23.000Z</time>
      </trkpt>
      <trkpt lat="46.75965" lon="4.83069">
        <ele>188.80000305176</ele>
        <time>2024-05-20T06:39:24.000Z</time>
      </trkpt>
      <trkpt lat="46.75962" lon="4.83061">
        <ele>188.80000305176</ele>
        <time>2024-05-20T06:39:25.000Z</time>
      </trkpt>
      <trkpt lat="46.7596" lon="4.83054">
        <ele>188.80000305176</ele>
        <time>2024-05-20T06:39:26.000Z</time>
      </trkpt>
      <trkpt lat="46.75957" lon="4.83047">
        <ele>188.80000305176</ele>
        <time>2024-05-20T06:39:27.000Z</time>
      </trkpt>
      <trkpt lat="46.75954" lon="4.8304">
        <ele>188.80000305176</ele>
        <time>2024-05-20T06:39:28.000Z</time>
      </trkpt>
      <trkpt lat="46.75951" lon="4.83033">
        <ele>188.80000305176</ele>
        <time>2024-05-20T06:39:29.000Z</time>
      </trkpt>
      <trkpt lat="46.75948" lon="4.83026">
        <ele>188.80000305176</ele>
        <time>2024-05-20T06:39:30.000Z</time>
      </trkpt>
      <trkpt lat="46.75945" lon="4.8302">
        <ele>188.80000305176</ele>
        <time>2024-05-20T06:39:31.000Z</time>
      </trkpt>
      <trkpt lat="46.75942" lon="4.83013">
        <ele>188.80000305176</ele>
        <time>2024-05-20T06:39:32.000Z</time>
      </trkpt>
      <trkpt lat="46.7594" lon="4.83006">
        <ele>188.80000305176</ele>
        <time>2024-05-20T06:39:33.000Z</time>
      </trkpt>
      <trkpt lat="46.75937" lon="4.82999">
        <ele>188.80000305176</ele>
        <time>2024-05-20T06:39:34.000Z</time>
      </trkpt>
      <trkpt lat="46.75934" lon="4.82992">
        <ele>188.80000305176</ele>
        <time>2024-05-20T06:39:35.000Z</time>
      </trkpt>
      <trkpt lat="46.75931" lon="4.82985">
        <ele>189</ele>
        <time>2024-05-20T06:39:36.000Z</time>
      </trkpt>
      <trkpt lat="46.75928" lon="4.82978">
        <ele>189</ele>
        <time>2024-05-20T06:39:37.000Z</time>
      </trkpt>
      <trkpt lat="46.75925" lon="4.82971">
        <ele>189</ele>
        <time>2024-05-20T06:39:38.000Z</time>
      </trkpt>
      <trkpt lat="46.75922" lon="4.82964">
        <ele>189</ele>
        <time>2024-05-20T06:39:39.000Z</time>
      </trkpt>
      <trkpt lat="46.75919" lon="4.82957">
        <ele>189</ele>
        <time>2024-05-20T06:39:40.000Z</time>
      </trkpt>
      <trkpt lat="46.75916" lon="4.8295">
        <ele>189</ele>
        <time>2024-05-20T06:39:41.000Z</time>
      </trkpt>
      <trkpt lat="46.75914" lon="4.82943">
        <ele>189</ele>
        <time>2024-05-20T06:39:42.000Z</time>
      </trkpt>
      <trkpt lat="46.75911" lon="4.82935">
        <ele>189</ele>
        <time>2024-05-20T06:39:43.000Z</time>
      </trkpt>
      <trkpt lat="46.75908" lon="4.82928">
        <ele>189</ele>
        <time>2024-05-20T06:39:44.000Z</time>
      </trkpt>
      <trkpt lat="46.75905" lon="4.82921">
        <ele>189</ele>
        <time>2024-05-20T06:39:45.000Z</time>
      </trkpt>
      <trkpt lat="46.75902" lon="4.82913">
        <ele>189</ele>
        <time>2024-05-20T06:39:46.000Z</time>
      </trkpt>
      <trkpt lat="46.75899" lon="4.82906">
        <ele>189</ele>
        <time>2024-05-20T06:39:47.000Z</time>
      </trkpt>
      <trkpt lat="46.75896" lon="4.82899">
        <ele>189</ele>
        <time>2024-05-20T06:39:48.000Z</time>
      </trkpt>
      <trkpt lat="46.75893" lon="4.82892">
        <ele>189</ele>
        <time>2024-05-20T06:39:49.000Z</time>
      </trkpt>
      <trkpt lat="46.7589" lon="4.82884">
        <ele>189</ele>
        <time>2024-05-20T06:39:50.000Z</time>
      </trkpt>
      <trkpt lat="46.75887" lon="4.82877">
        <ele>189.19999694824</ele>
        <time>2024-05-20T06:39:51.000Z</time>
      </trkpt>
      <trkpt lat="46.75884" lon="4.8287">
        <ele>189.19999694824</ele>
        <time>2024-05-20T06:39:52.000Z</time>
      </trkpt>
      <trkpt lat="46.75881" lon="4.82863">
        <ele>189.19999694824</ele>
        <time>2024-05-20T06:39:53.000Z</time>
      </trkpt>
      <trkpt lat="46.75878" lon="4.82856">
        <ele>189.19999694824</ele>
        <time>2024-05-20T06:39:54.000Z</time>
      </trkpt>
      <trkpt lat="46.75875" lon="4.82849">
        <ele>189.19999694824</ele>
        <time>2024-05-20T06:39:55.000Z</time>
      </trkpt>
      <trkpt lat="46.75872" lon="4.82842">
        <ele>189.19999694824</ele>
        <time>2024-05-20T06:39:56.000Z</time>
      </trkpt>
      <trkpt lat="46.75869" lon="4.82835">
        <ele>189.19999694824</ele>
        <time>2024-05-20T06:39:57.000Z</time>
      </trkpt>
      <trkpt lat="46.75866" lon="4.82828">
        <ele>189</ele>
        <time>2024-05-20T06:39:58.000Z</time>
      </trkpt>
      <trkpt lat="46.75863" lon="4.8282">
        <ele>189</ele>
        <time>2024-05-20T06:39:59.000Z</time>
      </trkpt>
      <trkpt lat="46.7586" lon="4.82813">
        <ele>189</ele>
        <time>2024-05-20T06:40:00.000Z</time>
      </trkpt>
      <trkpt lat="46.75857" lon="4.82806">
        <ele>189</ele>
        <time>2024-05-20T06:40:01.000Z</time>
      </trkpt>
      <trkpt lat="46.75854" lon="4.82799">
        <ele>189</ele>
        <time>2024-05-20T06:40:02.000Z</time>
      </trkpt>
      <trkpt lat="46.75851" lon="4.82792">
        <ele>189</ele>
        <time>2024-05-20T06:40:03.000Z</time>
      </trkpt>
      <trkpt lat="46.75848" lon="4.82784">
        <ele>189</ele>
        <time>2024-05-20T06:40:04.000Z</time>
      </trkpt>
      <trkpt lat="46.75846" lon="4.82777">
        <ele>189</ele>
        <time>2024-05-20T06:40:05.000Z</time>
      </trkpt>
      <trkpt lat="46.75842" lon="4.8277">
        <ele>188.80000305176</ele>
        <time>2024-05-20T06:40:06.000Z</time>
      </trkpt>
      <trkpt lat="46.75839" lon="4.82762">
        <ele>188.60000610352</ele>
        <time>2024-05-20T06:40:07.000Z</time>
      </trkpt>
      <trkpt lat="46.75836" lon="4.82754">
        <ele>188.60000610352</ele>
        <time>2024-05-20T06:40:08.000Z</time>
      </trkpt>
      <trkpt lat="46.75833" lon="4.82747">
        <ele>188.39999389648</ele>
        <time>2024-05-20T06:40:09.000Z</time>
      </trkpt>
      <trkpt lat="46.7583" lon="4.82739">
        <ele>188.39999389648</ele>
        <time>2024-05-20T06:40:10.000Z</time>
      </trkpt>
      <trkpt lat="46.75827" lon="4.82731">
        <ele>188.39999389648</ele>
        <time>2024-05-20T06:40:11.000Z</time>
      </trkpt>
      <trkpt lat="46.75824" lon="4.82724">
        <ele>188.19999694824</ele>
        <time>2024-05-20T06:40:12.000Z</time>
      </trkpt>
      <trkpt lat="46.75821" lon="4.82716">
        <ele>188</ele>
        <time>2024-05-20T06:40:13.000Z</time>
      </trkpt>
      <trkpt lat="46.75817" lon="4.82709">
        <ele>187.19999694824</ele>
        <time>2024-05-20T06:40:14.000Z</time>
      </trkpt>
      <trkpt lat="46.75814" lon="4.82702">
        <ele>187</ele>
        <time>2024-05-20T06:40:15.000Z</time>
      </trkpt>
      <trkpt lat="46.75811" lon="4.82695">
        <ele>187</ele>
        <time>2024-05-20T06:40:16.000Z</time>
      </trkpt>
      <trkpt lat="46.75807" lon="4.82688">
        <ele>186.80000305176</ele>
        <time>2024-05-20T06:40:17.000Z</time>
      </trkpt>
      <trkpt lat="46.75805" lon="4.82682">
        <ele>186.80000305176</ele>
        <time>2024-05-20T06:40:18.000Z</time>
      </trkpt>
      <trkpt lat="46.75803" lon="4.82675">
        <ele>186.80000305176</ele>
        <time>2024-05-20T06:40:19.000Z</time>
      </trkpt>
      <trkpt lat="46.75801" lon="4.82669">
        <ele>186.60000610352</ele>
        <time>2024-05-20T06:40:20.000Z</time>
      </trkpt>
      <trkpt lat="46.75799" lon="4.82663">
        <ele>186.60000610352</ele>
        <time>2024-05-20T06:40:21.000Z</time>
      </trkpt>
      <trkpt lat="46.75796" lon="4.82656">
        <ele>186.60000610352</ele>
        <time>2024-05-20T06:40:22.000Z</time>
      </trkpt>
      <trkpt lat="46.75793" lon="4.82649">
        <ele>186.39999389648</ele>
        <time>2024-05-20T06:40:23.000Z</time>
      </trkpt>
      <trkpt lat="46.7579" lon="4.82642">
        <ele>186</ele>
        <time>2024-05-20T06:40:24.000Z</time>
      </trkpt>
      <trkpt lat="46.75786" lon="4.82635">
        <ele>185.80000305176</ele>
        <time>2024-05-20T06:40:25.000Z</time>
      </trkpt>
      <trkpt lat="46.75782" lon="4.82627">
        <ele>185.60000610352</ele>
        <time>2024-05-20T06:40:26.000Z</time>
      </trkpt>
      <trkpt lat="46.75779" lon="4.8262">
        <ele>185.39999389648</ele>
        <time>2024-05-20T06:40:27.000Z</time>
      </trkpt>
      <trkpt lat="46.75774" lon="4.82613">
        <ele>184.80000305176</ele>
        <time>2024-05-20T06:40:28.000Z</time>
      </trkpt>
      <trkpt lat="46.7577" lon="4.82605">
        <ele>184.60000610352</ele>
        <time>2024-05-20T06:40:29.000Z</time>
      </trkpt>
      <trkpt lat="46.75765" lon="4.82598">
        <ele>184.19999694824</ele>
        <time>2024-05-20T06:40:30.000Z</time>
      </trkpt>
      <trkpt lat="46.7576" lon="4.82591">
        <ele>184</ele>
        <time>2024-05-20T06:40:31.000Z</time>
      </trkpt>
      <trkpt lat="46.75755" lon="4.82583">
        <ele>183.60000610352</ele>
        <time>2024-05-20T06:40:32.000Z</time>
      </trkpt>
      <trkpt lat="46.7575" lon="4.82575">
        <ele>183.39999389648</ele>
        <time>2024-05-20T06:40:33.000Z</time>
      </trkpt>
      <trkpt lat="46.75745" lon="4.82567">
        <ele>183</ele>
        <time>2024-05-20T06:40:34.000Z</time>
      </trkpt>
      <trkpt lat="46.75741" lon="4.82559">
        <ele>182.80000305176</ele>
        <time>2024-05-20T06:40:35.000Z</time>
      </trkpt>
      <trkpt lat="46.75737" lon="4.82551">
        <ele>182.39999389648</ele>
        <time>2024-05-20T06:40:36.000Z</time>
      </trkpt>
      <trkpt lat="46.75733" lon="4.82544">
        <ele>182.19999694824</ele>
        <time>2024-05-20T06:40:37.000Z</time>
      </trkpt>
      <trkpt lat="46.75729" lon="4.82535">
        <ele>181.80000305176</ele>
        <time>2024-05-20T06:40:38.000Z</time>
      </trkpt>
      <trkpt lat="46.75726" lon="4.82527">
        <ele>181.60000610352</ele>
        <time>2024-05-20T06:40:39.000Z</time>
      </trkpt>
      <trkpt lat="46.75723" lon="4.82517">
        <ele>181.19999694824</ele>
        <time>2024-05-20T06:40:40.000Z</time>
      </trkpt>
      <trkpt lat="46.7572" lon="4.82508">
        <ele>180.80000305176</ele>
        <time>2024-05-20T06:40:41.000Z</time>
      </trkpt>
      <trkpt lat="46.75718" lon="4.82498">
        <ele>180.60000610352</ele>
        <time>2024-05-20T06:40:42.000Z</time>
      </trkpt>
      <trkpt lat="46.75717" lon="4.82487">
        <ele>180.19999694824</ele>
        <time>2024-05-20T06:40:43.000Z</time>
      </trkpt>
      <trkpt lat="46.75715" lon="4.82477">
        <ele>179.80000305176</ele>
        <time>2024-05-20T06:40:44.000Z</time>
      </trkpt>
      <trkpt lat="46.75714" lon="4.82467">
        <ele>179.60000610352</ele>
        <time>2024-05-20T06:40:45.000Z</time>
      </trkpt>
      <trkpt lat="46.75713" lon="4.82459">
        <ele>179.39999389648</ele>
        <time>2024-05-20T06:40:46.000Z</time>
      </trkpt>
      <trkpt lat="46.7571" lon="4.82448">
        <ele>179.19999694824</ele>
        <time>2024-05-20T06:40:47.000Z</time>
      </trkpt>
      <trkpt lat="46.75707" lon="4.82438">
        <ele>179.19999694824</ele>
        <time>2024-05-20T06:40:48.000Z</time>
      </trkpt>
      <trkpt lat="46.75704" lon="4.82429">
        <ele>179</ele>
        <time>2024-05-20T06:40:49.000Z</time>
      </trkpt>
      <trkpt lat="46.75703" lon="4.82419">
        <ele>178.60000610352</ele>
        <time>2024-05-20T06:40:50.000Z</time>
      </trkpt>
      <trkpt lat="46.75702" lon="4.82409">
        <ele>178.60000610352</ele>
        <time>2024-05-20T06:40:51.000Z</time>
      </trkpt>
      <trkpt lat="46.75702" lon="4.82399">
        <ele>178.60000610352</ele>
        <time>2024-05-20T06:40:52.000Z</time>
      </trkpt>
      <trkpt lat="46.75702" lon="4.8239">
        <ele>178.60000610352</ele>
        <time>2024-05-20T06:40:53.000Z</time>
      </trkpt>
      <trkpt lat="46.75702" lon="4.82381">
        <ele>178.60000610352</ele>
        <time>2024-05-20T06:40:54.000Z</time>
      </trkpt>
      <trkpt lat="46.75703" lon="4.82372">
        <ele>178.60000610352</ele>
        <time>2024-05-20T06:40:55.000Z</time>
      </trkpt>
      <trkpt lat="46.75703" lon="4.82363">
        <ele>178.60000610352</ele>
        <time>2024-05-20T06:40:56.000Z</time>
      </trkpt>
      <trkpt lat="46.75703" lon="4.82355">
        <ele>178.80000305176</ele>
        <time>2024-05-20T06:40:57.000Z</time>
      </trkpt>
      <trkpt lat="46.75703" lon="4.82347">
        <ele>179</ele>
        <time>2024-05-20T06:40:58.000Z</time>
      </trkpt>
      <trkpt lat="46.75703" lon="4.82338">
        <ele>179</ele>
        <time>2024-05-20T06:40:59.000Z</time>
      </trkpt>
      <trkpt lat="46.75704" lon="4.8233">
        <ele>179</ele>
        <time>2024-05-20T06:41:00.000Z</time>
      </trkpt>
      <trkpt lat="46.75703" lon="4.82323">
        <ele>179</ele>
        <time>2024-05-20T06:41:01.000Z</time>
      </trkpt>
      <trkpt lat="46.75703" lon="4.82315">
        <ele>179.19999694824</ele>
        <time>2024-05-20T06:41:02.000Z</time>
      </trkpt>
      <trkpt lat="46.75702" lon="4.82308">
        <ele>179.39999389648</ele>
        <time>2024-05-20T06:41:03.000Z</time>
      </trkpt>
      <trkpt lat="46.757" lon="4.823">
        <ele>179.39999389648</ele>
        <time>2024-05-20T06:41:04.000Z</time>
      </trkpt>
      <trkpt lat="46.75698" lon="4.82293">
        <ele>179.39999389648</ele>
        <time>2024-05-20T06:41:05.000Z</time>
      </trkpt>
      <trkpt lat="46.75696" lon="4.82286">
        <ele>179.60000610352</ele>
        <time>2024-05-20T06:41:06.000Z</time>
      </trkpt>
      <trkpt lat="46.75693" lon="4.8228">
        <ele>179.60000610352</ele>
        <time>2024-05-20T06:41:07.000Z</time>
      </trkpt>
      <trkpt lat="46.75689" lon="4.82274">
        <ele>179.60000610352</ele>
        <time>2024-05-20T06:41:08.000Z</time>
      </trkpt>
      <trkpt lat="46.75685" lon="4.82269">
        <ele>179.60000610352</ele>
        <time>2024-05-20T06:41:09.000Z</time>
      </trkpt>
      <trkpt lat="46.7568" lon="4.82264">
        <ele>179.60000610352</ele>
        <time>2024-05-20T06:41:10.000Z</time>
      </trkpt>
      <trkpt lat="46.75675" lon="4.8226">
        <ele>179.80000305176</ele>
        <time>2024-05-20T06:41:11.000Z</time>
      </trkpt>
      <trkpt lat="46.7567" lon="4.82257">
        <ele>179.80000305176</ele>
        <time>2024-05-20T06:41:12.000Z</time>
      </trkpt>
      <trkpt lat="46.75665" lon="4.82254">
        <ele>179.80000305176</ele>
        <time>2024-05-20T06:41:13.000Z</time>
      </trkpt>
      <trkpt lat="46.75659" lon="4.82253">
        <ele>179.80000305176</ele>
        <time>2024-05-20T06:41:14.000Z</time>
      </trkpt>
      <trkpt lat="46.75654" lon="4.82253">
        <ele>179.80000305176</ele>
        <time>2024-05-20T06:41:15.000Z</time>
      </trkpt>
      <trkpt lat="46.75649" lon="4.82252">
        <ele>179.80000305176</ele>
        <time>2024-05-20T06:41:16.000Z</time>
      </trkpt>
      <trkpt lat="46.75643" lon="4.82252">
        <ele>179.60000610352</ele>
        <time>2024-05-20T06:41:17.000Z</time>
      </trkpt>
      <trkpt lat="46.75638" lon="4.8225">
        <ele>179.60000610352</ele>
        <time>2024-05-20T06:41:18.000Z</time>
      </trkpt>
      <trkpt lat="46.75634" lon="4.82247">
        <ele>179.39999389648</ele>
        <time>2024-05-20T06:41:19.000Z</time>
      </trkpt>
      <trkpt lat="46.75631" lon="4.82243">
        <ele>179.39999389648</ele>
        <time>2024-05-20T06:41:20.000Z</time>
      </trkpt>
      <trkpt lat="46.75628" lon="4.82239">
        <ele>179.39999389648</ele>
        <time>2024-05-20T06:41:21.000Z</time>
      </trkpt>
      <trkpt lat="46.75626" lon="4.82236">
        <ele>179.19999694824</ele>
        <time>2024-05-20T06:41:22.000Z</time>
      </trkpt>
      <trkpt lat="46.75622" lon="4.82234">
        <ele>179.19999694824</ele>
        <time>2024-05-20T06:41:23.000Z</time>
      </trkpt>
      <trkpt lat="46.75619" lon="4.82233">
        <ele>179.19999694824</ele>
        <time>2024-05-20T06:41:24.000Z</time>
      </trkpt>
      <trkpt lat="46.75615" lon="4.82233">
        <ele>179.19999694824</ele>
        <time>2024-05-20T06:41:25.000Z</time>
      </trkpt>
      <trkpt lat="46.75612" lon="4.82233">
        <ele>179.19999694824</ele>
        <time>2024-05-20T06:41:26.000Z</time>
      </trkpt>
      <trkpt lat="46.75609" lon="4.82235">
        <ele>179.19999694824</ele>
        <time>2024-05-20T06:41:27.000Z</time>
      </trkpt>
      <trkpt lat="46.75606" lon="4.82238">
        <ele>179.19999694824</ele>
        <time>2024-05-20T06:41:28.000Z</time>
      </trkpt>
      <trkpt lat="46.75603" lon="4.82241">
        <ele>179.19999694824</ele>
        <time>2024-05-20T06:41:29.000Z</time>
      </trkpt>
      <trkpt lat="46.75599" lon="4.82244">
        <ele>179.19999694824</ele>
        <time>2024-05-20T06:41:30.000Z</time>
      </trkpt>
      <trkpt lat="46.75596" lon="4.82247">
        <ele>179.19999694824</ele>
        <time>2024-05-20T06:41:31.000Z</time>
      </trkpt>
      <trkpt lat="46.75591" lon="4.82249">
        <ele>179.19999694824</ele>
        <time>2024-05-20T06:41:32.000Z</time>
      </trkpt>
      <trkpt lat="46.75586" lon="4.82249">
        <ele>179.19999694824</ele>
        <time>2024-05-20T06:41:33.000Z</time>
      </trkpt>
      <trkpt lat="46.75581" lon="4.82249">
        <ele>179</ele>
        <time>2024-05-20T06:41:34.000Z</time>
      </trkpt>
      <trkpt lat="46.75576" lon="4.82248">
        <ele>178.80000305176</ele>
        <time>2024-05-20T06:41:35.000Z</time>
      </trkpt>
      <trkpt lat="46.75571" lon="4.82248">
        <ele>178.60000610352</ele>
        <time>2024-05-20T06:41:36.000Z</time>
      </trkpt>
      <trkpt lat="46.75565" lon="4.82248">
        <ele>178.60000610352</ele>
        <time>2024-05-20T06:41:37.000Z</time>
      </trkpt>
      <trkpt lat="46.7556" lon="4.82247">
        <ele>178.60000610352</ele>
        <time>2024-05-20T06:41:38.000Z</time>
      </trkpt>
      <trkpt lat="46.75555" lon="4.82247">
        <ele>178.60000610352</ele>
        <time>2024-05-20T06:41:39.000Z</time>
      </trkpt>
      <trkpt lat="46.75551" lon="4.82246">
        <ele>178.60000610352</ele>
        <time>2024-05-20T06:41:40.000Z</time>
      </trkpt>
      <trkpt lat="46.75546" lon="4.82246">
        <ele>178.60000610352</ele>
        <time>2024-05-20T06:41:41.000Z</time>
      </trkpt>
      <trkpt lat="46.75541" lon="4.82245">
        <ele>178.60000610352</ele>
        <time>2024-05-20T06:41:42.000Z</time>
      </trkpt>
      <trkpt lat="46.75536" lon="4.82245">
        <ele>178.80000305176</ele>
        <time>2024-05-20T06:41:43.000Z</time>
      </trkpt>
      <trkpt lat="46.75532" lon="4.82244">
        <ele>179.19999694824</ele>
        <time>2024-05-20T06:41:44.000Z</time>
      </trkpt>
      <trkpt lat="46.7553" lon="4.82244">
        <ele>179.39999389648</ele>
        <time>2024-05-20T06:41:45.000Z</time>
      </trkpt>
      <trkpt lat="46.75527" lon="4.82243">
        <ele>179.60000610352</ele>
        <time>2024-05-20T06:41:46.000Z</time>
      </trkpt>
      <trkpt lat="46.75522" lon="4.82242">
        <ele>179.80000305176</ele>
        <time>2024-05-20T06:41:47.000Z</time>
      </trkpt>
      <trkpt lat="46.75517" lon="4.82241">
        <ele>179.80000305176</ele>
        <time>2024-05-20T06:41:48.000Z</time>
      </trkpt>
      <trkpt lat="46.75512" lon="4.8224">
        <ele>179.80000305176</ele>
        <time>2024-05-20T06:41:49.000Z</time>
      </trkpt>
      <trkpt lat="46.75507" lon="4.82239">
        <ele>179.80000305176</ele>
        <time>2024-05-20T06:41:50.000Z</time>
      </trkpt>
      <trkpt lat="46.75503" lon="4.82238">
        <ele>180</ele>
        <time>2024-05-20T06:41:51.000Z</time>
      </trkpt>
      <trkpt lat="46.75498" lon="4.82237">
        <ele>180.19999694824</ele>
        <time>2024-05-20T06:41:52.000Z</time>
      </trkpt>
      <trkpt lat="46.75494" lon="4.82237">
        <ele>180.19999694824</ele>
        <time>2024-05-20T06:41:53.000Z</time>
      </trkpt>
      <trkpt lat="46.7549" lon="4.82236">
        <ele>180.19999694824</ele>
        <time>2024-05-20T06:41:54.000Z</time>
      </trkpt>
      <trkpt lat="46.75485" lon="4.82235">
        <ele>180.19999694824</ele>
        <time>2024-05-20T06:41:55.000Z</time>
      </trkpt>
      <trkpt lat="46.7548" lon="4.82234">
        <ele>180.19999694824</ele>
        <time>2024-05-20T06:41:56.000Z</time>
      </trkpt>
      <trkpt lat="46.75475" lon="4.82232">
        <ele>180.19999694824</ele>
        <time>2024-05-20T06:41:57.000Z</time>
      </trkpt>
      <trkpt lat="46.75471" lon="4.8223">
        <ele>180</ele>
        <time>2024-05-20T06:41:58.000Z</time>
      </trkpt>
      <trkpt lat="46.75466" lon="4.82227">
        <ele>180</ele>
        <time>2024-05-20T06:41:59.000Z</time>
      </trkpt>
      <trkpt lat="46.75461" lon="4.82225">
        <ele>179.80000305176</ele>
        <time>2024-05-20T06:42:00.000Z</time>
      </trkpt>
      <trkpt lat="46.75456" lon="4.82221">
        <ele>179.80000305176</ele>
        <time>2024-05-20T06:42:01.000Z</time>
      </trkpt>
      <trkpt lat="46.75452" lon="4.82217">
        <ele>179.80000305176</ele>
        <time>2024-05-20T06:42:02.000Z</time>
      </trkpt>
      <trkpt lat="46.75447" lon="4.82213">
        <ele>179.80000305176</ele>
        <time>2024-05-20T06:42:03.000Z</time>
      </trkpt>
      <trkpt lat="46.75443" lon="4.82208">
        <ele>179.60000610352</ele>
        <time>2024-05-20T06:42:04.000Z</time>
      </trkpt>
      <trkpt lat="46.75439" lon="4.82204">
        <ele>179.60000610352</ele>
        <time>2024-05-20T06:42:05.000Z</time>
      </trkpt>
      <trkpt lat="46.75434" lon="4.82199">
        <ele>179.39999389648</ele>
        <time>2024-05-20T06:42:06.000Z</time>
      </trkpt>
      <trkpt lat="46.7543" lon="4.82195">
        <ele>179.39999389648</ele>
        <time>2024-05-20T06:42:07.000Z</time>
      </trkpt>
      <trkpt lat="46.75425" lon="4.82191">
        <ele>179.39999389648</ele>
        <time>2024-05-20T06:42:08.000Z</time>
      </trkpt>
      <trkpt lat="46.75421" lon="4.82188">
        <ele>179.39999389648</ele>
        <time>2024-05-20T06:42:09.000Z</time>
      </trkpt>
      <trkpt lat="46.75417" lon="4.82184">
        <ele>179.39999389648</ele>
        <time>2024-05-20T06:42:10.000Z</time>
      </trkpt>
      <trkpt lat="46.75412" lon="4.8218">
        <ele>179.39999389648</ele>
        <time>2024-05-20T06:42:11.000Z</time>
      </trkpt>
      <trkpt lat="46.75408" lon="4.82177">
        <ele>179.39999389648</ele>
        <time>2024-05-20T06:42:12.000Z</time>
      </trkpt>
      <trkpt lat="46.75404" lon="4.82173">
        <ele>179.60000610352</ele>
        <time>2024-05-20T06:42:13.000Z</time>
      </trkpt>
      <trkpt lat="46.75399" lon="4.8217">
        <ele>179.80000305176</ele>
        <time>2024-05-20T06:42:14.000Z</time>
      </trkpt>
      <trkpt lat="46.75395" lon="4.82167">
        <ele>179.80000305176</ele>
        <time>2024-05-20T06:42:15.000Z</time>
      </trkpt>
      <trkpt lat="46.7539" lon="4.82164">
        <ele>179.80000305176</ele>
        <time>2024-05-20T06:42:16.000Z</time>
      </trkpt>
      <trkpt lat="46.75386" lon="4.82162">
        <ele>180</ele>
        <time>2024-05-20T06:42:17.000Z</time>
      </trkpt>
      <trkpt lat="46.75382" lon="4.82159">
        <ele>180</ele>
        <time>2024-05-20T06:42:18.000Z</time>
      </trkpt>
      <trkpt lat="46.75378" lon="4.82157">
        <ele>180.19999694824</ele>
        <time>2024-05-20T06:42:19.000Z</time>
      </trkpt>
      <trkpt lat="46.75373" lon="4.82154">
        <ele>180.39999389648</ele>
        <time>2024-05-20T06:42:20.000Z</time>
      </trkpt>
      <trkpt lat="46.75369" lon="4.82152">
        <ele>180.39999389648</ele>
        <time>2024-05-20T06:42:21.000Z</time>
      </trkpt>
      <trkpt lat="46.75365" lon="4.8215">
        <ele>180.60000610352</ele>
        <time>2024-05-20T06:42:22.000Z</time>
      </trkpt>
      <trkpt lat="46.75361" lon="4.82148">
        <ele>180.80000305176</ele>
        <time>2024-05-20T06:42:23.000Z</time>
      </trkpt>
      <trkpt lat="46.75357" lon="4.82146">
        <ele>181</ele>
        <time>2024-05-20T06:42:24.000Z</time>
      </trkpt>
      <trkpt lat="46.75353" lon="4.82144">
        <ele>181.19999694824</ele>
        <time>2024-05-20T06:42:25.000Z</time>
      </trkpt>
      <trkpt lat="46.75349" lon="4.82141">
        <ele>181.39999389648</ele>
        <time>2024-05-20T06:42:26.000Z</time>
      </trkpt>
      <trkpt lat="46.75345" lon="4.82139">
        <ele>181.60000610352</ele>
        <time>2024-05-20T06:42:27.000Z</time>
      </trkpt>
      <trkpt lat="46.75341" lon="4.82137">
        <ele>181.80000305176</ele>
        <time>2024-05-20T06:42:28.000Z</time>
      </trkpt>
      <trkpt lat="46.75336" lon="4.82135">
        <ele>182</ele>
        <time>2024-05-20T06:42:29.000Z</time>
      </trkpt>
      <trkpt lat="46.75332" lon="4.82133">
        <ele>182.19999694824</ele>
        <time>2024-05-20T06:42:30.000Z</time>
      </trkpt>
      <trkpt lat="46.75328" lon="4.82131">
        <ele>182.39999389648</ele>
        <time>2024-05-20T06:42:31.000Z</time>
      </trkpt>
      <trkpt lat="46.75324" lon="4.82129">
        <ele>182.60000610352</ele>
        <time>2024-05-20T06:42:32.000Z</time>
      </trkpt>
      <trkpt lat="46.7532" lon="4.82127">
        <ele>182.80000305176</ele>
        <time>2024-05-20T06:42:33.000Z</time>
      </trkpt>
      <trkpt lat="46.75316" lon="4.82125">
        <ele>183</ele>
        <time>2024-05-20T06:42:34.000Z</time>
      </trkpt>
      <trkpt lat="46.75313" lon="4.82124">
        <ele>183</ele>
        <time>2024-05-20T06:42:35.000Z</time>
      </trkpt>
      <trkpt lat="46.75309" lon="4.82121">
        <ele>183.19999694824</ele>
        <time>2024-05-20T06:42:36.000Z</time>
      </trkpt>
      <trkpt lat="46.75305" lon="4.82119">
        <ele>183.39999389648</ele>
        <time>2024-05-20T06:42:37.000Z</time>
      </trkpt>
      <trkpt lat="46.75301" lon="4.82117">
        <ele>183.80000305176</ele>
        <time>2024-05-20T06:42:38.000Z</time>
      </trkpt>
      <trkpt lat="46.75298" lon="4.82116">
        <ele>184</ele>
        <time>2024-05-20T06:42:39.000Z</time>
      </trkpt>
      <trkpt lat="46.75294" lon="4.82114">
        <ele>184.19999694824</ele>
        <time>2024-05-20T06:42:40.000Z</time>
      </trkpt>
      <trkpt lat="46.7529" lon="4.82112">
        <ele>184.39999389648</ele>
        <time>2024-05-20T06:42:41.000Z</time>
      </trkpt>
      <trkpt lat="46.75287" lon="4.8211">
        <ele>184.60000610352</ele>
        <time>2024-05-20T06:42:42.000Z</time>
      </trkpt>
      <trkpt lat="46.75283" lon="4.82108">
        <ele>184.80000305176</ele>
        <time>2024-05-20T06:42:43.000Z</time>
      </trkpt>
      <trkpt lat="46.75279" lon="4.82106">
        <ele>185</ele>
        <time>2024-05-20T06:42:44.000Z</time>
      </trkpt>
      <trkpt lat="46.75276" lon="4.82104">
        <ele>185</ele>
        <time>2024-05-20T06:42:45.000Z</time>
      </trkpt>
      <trkpt lat="46.75272" lon="4.82102">
        <ele>185.19999694824</ele>
        <time>2024-05-20T06:42:46.000Z</time>
      </trkpt>
      <trkpt lat="46.75269" lon="4.821">
        <ele>185.60000610352</ele>
        <time>2024-05-20T06:42:47.000Z</time>
      </trkpt>
      <trkpt lat="46.75266" lon="4.82098">
        <ele>185.80000305176</ele>
        <time>2024-05-20T06:42:48.000Z</time>
      </trkpt>
      <trkpt lat="46.75262" lon="4.82096">
        <ele>186</ele>
        <time>2024-05-20T06:42:49.000Z</time>
      </trkpt>
      <trkpt lat="46.75259" lon="4.82094">
        <ele>186.19999694824</ele>
        <time>2024-05-20T06:42:50.000Z</time>
      </trkpt>
      <trkpt lat="46.75255" lon="4.82092">
        <ele>186.19999694824</ele>
        <time>2024-05-20T06:42:51.000Z</time>
      </trkpt>
      <trkpt lat="46.75251" lon="4.8209">
        <ele>186.39999389648</ele>
        <time>2024-05-20T06:42:52.000Z</time>
      </trkpt>
      <trkpt lat="46.75248" lon="4.82087">
        <ele>186.60000610352</ele>
        <time>2024-05-20T06:42:53.000Z</time>
      </trkpt>
      <trkpt lat="46.75245" lon="4.82085">
        <ele>186.60000610352</ele>
        <time>2024-05-20T06:42:54.000Z</time>
      </trkpt>
      <trkpt lat="46.75241" lon="4.82082">
        <ele>187</ele>
        <time>2024-05-20T06:42:55.000Z</time>
      </trkpt>
      <trkpt lat="46.75238" lon="4.8208">
        <ele>187</ele>
        <time>2024-05-20T06:42:56.000Z</time>
      </trkpt>
      <trkpt lat="46.75234" lon="4.82077">
        <ele>187.19999694824</ele>
        <time>2024-05-20T06:42:57.000Z</time>
      </trkpt>
      <trkpt lat="46.75231" lon="4.82075">
        <ele>187.39999389648</ele>
        <time>2024-05-20T06:42:58.000Z</time>
      </trkpt>
      <trkpt lat="46.75228" lon="4.82072">
        <ele>187.60000610352</ele>
        <time>2024-05-20T06:42:59.000Z</time>
      </trkpt>
      <trkpt lat="46.75224" lon="4.82069">
        <ele>187.60000610352</ele>
        <time>2024-05-20T06:43:00.000Z</time>
      </trkpt>
      <trkpt lat="46.75221" lon="4.82066">
        <ele>187.80000305176</ele>
        <time>2024-05-20T06:43:01.000Z</time>
      </trkpt>
      <trkpt lat="46.75218" lon="4.82063">
        <ele>188</ele>
        <time>2024-05-20T06:43:02.000Z</time>
      </trkpt>
      <trkpt lat="46.75214" lon="4.8206">
        <ele>188</ele>
        <time>2024-05-20T06:43:03.000Z</time>
      </trkpt>
      <trkpt lat="46.75211" lon="4.82057">
        <ele>188.19999694824</ele>
        <time>2024-05-20T06:43:04.000Z</time>
      </trkpt>
      <trkpt lat="46.75207" lon="4.82054">
        <ele>188.19999694824</ele>
        <time>2024-05-20T06:43:05.000Z</time>
      </trkpt>
      <trkpt lat="46.75204" lon="4.8205">
        <ele>188.39999389648</ele>
        <time>2024-05-20T06:43:06.000Z</time>
      </trkpt>
      <trkpt lat="46.752" lon="4.82047">
        <ele>188.60000610352</ele>
        <time>2024-05-20T06:43:07.000Z</time>
      </trkpt>
      <trkpt lat="46.75197" lon="4.82043">
        <ele>188.80000305176</ele>
        <time>2024-05-20T06:43:08.000Z</time>
      </trkpt>
      <trkpt lat="46.75193" lon="4.8204">
        <ele>188.80000305176</ele>
        <time>2024-05-20T06:43:09.000Z</time>
      </trkpt>
      <trkpt lat="46.7519" lon="4.82036">
        <ele>188.80000305176</ele>
        <time>2024-05-20T06:43:10.000Z</time>
      </trkpt>
      <trkpt lat="46.75187" lon="4.82033">
        <ele>189</ele>
        <time>2024-05-20T06:43:11.000Z</time>
      </trkpt>
      <trkpt lat="46.75183" lon="4.82029">
        <ele>189</ele>
        <time>2024-05-20T06:43:12.000Z</time>
      </trkpt>
      <trkpt lat="46.7518" lon="4.82025">
        <ele>189.19999694824</ele>
        <time>2024-05-20T06:43:13.000Z</time>
      </trkpt>
      <trkpt lat="46.75177" lon="4.82022">
        <ele>189.19999694824</ele>
        <time>2024-05-20T06:43:14.000Z</time>
      </trkpt>
      <trkpt lat="46.75173" lon="4.82018">
        <ele>189.39999389648</ele>
        <time>2024-05-20T06:43:15.000Z</time>
      </trkpt>
      <trkpt lat="46.7517" lon="4.82014">
        <ele>189.39999389648</ele>
        <time>2024-05-20T06:43:16.000Z</time>
      </trkpt>
      <trkpt lat="46.75167" lon="4.8201">
        <ele>189.60000610352</ele>
        <time>2024-05-20T06:43:17.000Z</time>
      </trkpt>
      <trkpt lat="46.75164" lon="4.82006">
        <ele>189.60000610352</ele>
        <time>2024-05-20T06:43:18.000Z</time>
      </trkpt>
      <trkpt lat="46.75161" lon="4.82002">
        <ele>189.80000305176</ele>
        <time>2024-05-20T06:43:19.000Z</time>
      </trkpt>
      <trkpt lat="46.75158" lon="4.81998">
        <ele>190</ele>
        <time>2024-05-20T06:43:20.000Z</time>
      </trkpt>
      <trkpt lat="46.75155" lon="4.81994">
        <ele>190</ele>
        <time>2024-05-20T06:43:21.000Z</time>
      </trkpt>
      <trkpt lat="46.75152" lon="4.8199">
        <ele>190.19999694824</ele>
        <time>2024-05-20T06:43:22.000Z</time>
      </trkpt>
      <trkpt lat="46.75149" lon="4.81985">
        <ele>190.39999389648</ele>
        <time>2024-05-20T06:43:23.000Z</time>
      </trkpt>
      <trkpt lat="46.75146" lon="4.81982">
        <ele>190.39999389648</ele>
        <time>2024-05-20T06:43:24.000Z</time>
      </trkpt>
      <trkpt lat="46.75143" lon="4.81978">
        <ele>190.60000610352</ele>
        <time>2024-05-20T06:43:25.000Z</time>
      </trkpt>
      <trkpt lat="46.7514" lon="4.81974">
        <ele>190.80000305176</ele>
        <time>2024-05-20T06:43:26.000Z</time>
      </trkpt>
      <trkpt lat="46.75137" lon="4.81969">
        <ele>191</ele>
        <time>2024-05-20T06:43:27.000Z</time>
      </trkpt>
      <trkpt lat="46.75134" lon="4.81965">
        <ele>191</ele>
        <time>2024-05-20T06:43:28.000Z</time>
      </trkpt>
      <trkpt lat="46.75131" lon="4.81961">
        <ele>191.19999694824</ele>
        <time>2024-05-20T06:43:29.000Z</time>
      </trkpt>
      <trkpt lat="46.75128" lon="4.81957">
        <ele>191.19999694824</ele>
        <time>2024-05-20T06:43:30.000Z</time>
      </trkpt>
      <trkpt lat="46.75125" lon="4.81953">
        <ele>191.19999694824</ele>
        <time>2024-05-20T06:43:31.000Z</time>
      </trkpt>
      <trkpt lat="46.75122" lon="4.81948">
        <ele>191.39999389648</ele>
        <time>2024-05-20T06:43:32.000Z</time>
      </trkpt>
      <trkpt lat="46.75119" lon="4.81944">
        <ele>191.39999389648</ele>
        <time>2024-05-20T06:43:33.000Z</time>
      </trkpt>
      <trkpt lat="46.75116" lon="4.8194">
        <ele>191.39999389648</ele>
        <time>2024-05-20T06:43:34.000Z</time>
      </trkpt>
      <trkpt lat="46.75113" lon="4.81935">
        <ele>191.39999389648</ele>
        <time>2024-05-20T06:43:35.000Z</time>
      </trkpt>
      <trkpt lat="46.75109" lon="4.81931">
        <ele>191.39999389648</ele>
        <time>2024-05-20T06:43:36.000Z</time>
      </trkpt>
      <trkpt lat="46.75106" lon="4.81926">
        <ele>191.39999389648</ele>
        <time>2024-05-20T06:43:37.000Z</time>
      </trkpt>
      <trkpt lat="46.75102" lon="4.81922">
        <ele>191.60000610352</ele>
        <time>2024-05-20T06:43:38.000Z</time>
      </trkpt>
      <trkpt lat="46.75099" lon="4.81917">
        <ele>191.60000610352</ele>
        <time>2024-05-20T06:43:39.000Z</time>
      </trkpt>
      <trkpt lat="46.75096" lon="4.81913">
        <ele>191.60000610352</ele>
        <time>2024-05-20T06:43:40.000Z</time>
      </trkpt>
      <trkpt lat="46.75092" lon="4.81908">
        <ele>191.60000610352</ele>
        <time>2024-05-20T06:43:41.000Z</time>
      </trkpt>
      <trkpt lat="46.75088" lon="4.81904">
        <ele>191.60000610352</ele>
        <time>2024-05-20T06:43:42.000Z</time>
      </trkpt>
      <trkpt lat="46.75085" lon="4.81899">
        <ele>191.60000610352</ele>
        <time>2024-05-20T06:43:43.000Z</time>
      </trkpt>
      <trkpt lat="46.75081" lon="4.81895">
        <ele>191.60000610352</ele>
        <time>2024-05-20T06:43:44.000Z</time>
      </trkpt>
      <trkpt lat="46.75077" lon="4.81891">
        <ele>191.60000610352</ele>
        <time>2024-05-20T06:43:45.000Z</time>
      </trkpt>
      <trkpt lat="46.75073" lon="4.81887">
        <ele>191.80000305176</ele>
        <time>2024-05-20T06:43:46.000Z</time>
      </trkpt>
      <trkpt lat="46.75069" lon="4.81883">
        <ele>191.80000305176</ele>
        <time>2024-05-20T06:43:47.000Z</time>
      </trkpt>
      <trkpt lat="46.75064" lon="4.8188">
        <ele>191.80000305176</ele>
        <time>2024-05-20T06:43:48.000Z</time>
      </trkpt>
      <trkpt lat="46.7506" lon="4.81877">
        <ele>191.80000305176</ele>
        <time>2024-05-20T06:43:49.000Z</time>
      </trkpt>
      <trkpt lat="46.75056" lon="4.81874">
        <ele>192</ele>
        <time>2024-05-20T06:43:50.000Z</time>
      </trkpt>
      <trkpt lat="46.75051" lon="4.81871">
        <ele>192</ele>
        <time>2024-05-20T06:43:51.000Z</time>
      </trkpt>
      <trkpt lat="46.75046" lon="4.81868">
        <ele>192</ele>
        <time>2024-05-20T06:43:52.000Z</time>
      </trkpt>
      <trkpt lat="46.75042" lon="4.81865">
        <ele>192</ele>
        <time>2024-05-20T06:43:53.000Z</time>
      </trkpt>
      <trkpt lat="46.75037" lon="4.81863">
        <ele>192</ele>
        <time>2024-05-20T06:43:54.000Z</time>
      </trkpt>
      <trkpt lat="46.75032" lon="4.8186">
        <ele>192</ele>
        <time>2024-05-20T06:43:55.000Z</time>
      </trkpt>
      <trkpt lat="46.75027" lon="4.81858">
        <ele>192</ele>
        <time>2024-05-20T06:43:56.000Z</time>
      </trkpt>
      <trkpt lat="46.75021" lon="4.81856">
        <ele>191.80000305176</ele>
        <time>2024-05-20T06:43:57.000Z</time>
      </trkpt>
      <trkpt lat="46.75016" lon="4.81854">
        <ele>191.80000305176</ele>
        <time>2024-05-20T06:43:58.000Z</time>
      </trkpt>
      <trkpt lat="46.75011" lon="4.81852">
        <ele>191.80000305176</ele>
        <time>2024-05-20T06:43:59.000Z</time>
      </trkpt>
      <trkpt lat="46.75005" lon="4.8185">
        <ele>191.80000305176</ele>
        <time>2024-05-20T06:44:00.000Z</time>
      </trkpt>
      <trkpt lat="46.75" lon="4.81848">
        <ele>191.60000610352</ele>
        <time>2024-05-20T06:44:01.000Z</time>
      </trkpt>
      <trkpt lat="46.74994" lon="4.81846">
        <ele>191.60000610352</ele>
        <time>2024-05-20T06:44:02.000Z</time>
      </trkpt>
      <trkpt lat="46.74988" lon="4.81844">
        <ele>191.60000610352</ele>
        <time>2024-05-20T06:44:03.000Z</time>
      </trkpt>
      <trkpt lat="46.74983" lon="4.81842">
        <ele>191.39999389648</ele>
        <time>2024-05-20T06:44:04.000Z</time>
      </trkpt>
      <trkpt lat="46.74977" lon="4.8184">
        <ele>191.39999389648</ele>
        <time>2024-05-20T06:44:05.000Z</time>
      </trkpt>
      <trkpt lat="46.74971" lon="4.81838">
        <ele>191.39999389648</ele>
        <time>2024-05-20T06:44:06.000Z</time>
      </trkpt>
      <trkpt lat="46.74965" lon="4.81835">
        <ele>191.19999694824</ele>
        <time>2024-05-20T06:44:07.000Z</time>
      </trkpt>
      <trkpt lat="46.74959" lon="4.81833">
        <ele>191.19999694824</ele>
        <time>2024-05-20T06:44:08.000Z</time>
      </trkpt>
      <trkpt lat="46.74953" lon="4.81831">
        <ele>191.19999694824</ele>
        <time>2024-05-20T06:44:09.000Z</time>
      </trkpt>
      <trkpt lat="46.74947" lon="4.81829">
        <ele>191.19999694824</ele>
        <time>2024-05-20T06:44:10.000Z</time>
      </trkpt>
      <trkpt lat="46.74941" lon="4.81827">
        <ele>191.19999694824</ele>
        <time>2024-05-20T06:44:11.000Z</time>
      </trkpt>
      <trkpt lat="46.74935" lon="4.81825">
        <ele>191</ele>
        <time>2024-05-20T06:44:12.000Z</time>
      </trkpt>
      <trkpt lat="46.74928" lon="4.81821">
        <ele>191</ele>
        <time>2024-05-20T06:44:13.000Z</time>
      </trkpt>
      <trkpt lat="46.74922" lon="4.81818">
        <ele>190.80000305176</ele>
        <time>2024-05-20T06:44:14.000Z</time>
      </trkpt>
      <trkpt lat="46.74915" lon="4.81814">
        <ele>190.39999389648</ele>
        <time>2024-05-20T06:44:15.000Z</time>
      </trkpt>
      <trkpt lat="46.74908" lon="4.81809">
        <ele>190</ele>
        <time>2024-05-20T06:44:16.000Z</time>
      </trkpt>
      <trkpt lat="46.74901" lon="4.81805">
        <ele>189.60000610352</ele>
        <time>2024-05-20T06:44:17.000Z</time>
      </trkpt>
      <trkpt lat="46.74895" lon="4.818">
        <ele>189.39999389648</ele>
        <time>2024-05-20T06:44:18.000Z</time>
      </trkpt>
      <trkpt lat="46.74887" lon="4.81796">
        <ele>189</ele>
        <time>2024-05-20T06:44:19.000Z</time>
      </trkpt>
      <trkpt lat="46.7488" lon="4.81791">
        <ele>188.80000305176</ele>
        <time>2024-05-20T06:44:20.000Z</time>
      </trkpt>
      <trkpt lat="46.74872" lon="4.81786">
        <ele>188.60000610352</ele>
        <time>2024-05-20T06:44:21.000Z</time>
      </trkpt>
      <trkpt lat="46.74865" lon="4.8178">
        <ele>188.19999694824</ele>
        <time>2024-05-20T06:44:22.000Z</time>
      </trkpt>
      <trkpt lat="46.74857" lon="4.81775">
        <ele>188</ele>
        <time>2024-05-20T06:44:23.000Z</time>
      </trkpt>
      <trkpt lat="46.74849" lon="4.8177">
        <ele>187.60000610352</ele>
        <time>2024-05-20T06:44:24.000Z</time>
      </trkpt>
      <trkpt lat="46.74841" lon="4.81764">
        <ele>187.39999389648</ele>
        <time>2024-05-20T06:44:25.000Z</time>
      </trkpt>
      <trkpt lat="46.74833" lon="4.81759">
        <ele>187</ele>
        <time>2024-05-20T06:44:26.000Z</time>
      </trkpt>
      <trkpt lat="46.74825" lon="4.81753">
        <ele>186.60000610352</ele>
        <time>2024-05-20T06:44:27.000Z</time>
      </trkpt>
      <trkpt lat="46.74816" lon="4.81748">
        <ele>186.39999389648</ele>
        <time>2024-05-20T06:44:28.000Z</time>
      </trkpt>
      <trkpt lat="46.74808" lon="4.81743">
        <ele>186.19999694824</ele>
        <time>2024-05-20T06:44:29.000Z</time>
      </trkpt>
      <trkpt lat="46.74799" lon="4.81738">
        <ele>185.80000305176</ele>
        <time>2024-05-20T06:44:30.000Z</time>
      </trkpt>
      <trkpt lat="46.7479" lon="4.81732">
        <ele>185.60000610352</ele>
        <time>2024-05-20T06:44:31.000Z</time>
      </trkpt>
      <trkpt lat="46.74781" lon="4.81726">
        <ele>185</ele>
        <time>2024-05-20T06:44:32.000Z</time>
      </trkpt>
      <trkpt lat="46.74772" lon="4.81721">
        <ele>184.39999389648</ele>
        <time>2024-05-20T06:44:33.000Z</time>
      </trkpt>
      <trkpt lat="46.74763" lon="4.81716">
        <ele>184</ele>
        <time>2024-05-20T06:44:34.000Z</time>
      </trkpt>
      <trkpt lat="46.74754" lon="4.8171">
        <ele>183.60000610352</ele>
        <time>2024-05-20T06:44:35.000Z</time>
      </trkpt>
      <trkpt lat="46.74745" lon="4.81705">
        <ele>183.19999694824</ele>
        <time>2024-05-20T06:44:36.000Z</time>
      </trkpt>
      <trkpt lat="46.74736" lon="4.817">
        <ele>182.80000305176</ele>
        <time>2024-05-20T06:44:37.000Z</time>
      </trkpt>
      <trkpt lat="46.74727" lon="4.81695">
        <ele>182.60000610352</ele>
        <time>2024-05-20T06:44:38.000Z</time>
      </trkpt>
      <trkpt lat="46.74719" lon="4.8169">
        <ele>182.19999694824</ele>
        <time>2024-05-20T06:44:39.000Z</time>
      </trkpt>
      <trkpt lat="46.7471" lon="4.81685">
        <ele>182</ele>
        <time>2024-05-20T06:44:40.000Z</time>
      </trkpt>
      <trkpt lat="46.74702" lon="4.8168">
        <ele>181.80000305176</ele>
        <time>2024-05-20T06:44:41.000Z</time>
      </trkpt>
      <trkpt lat="46.74693" lon="4.81675">
        <ele>181.60000610352</ele>
        <time>2024-05-20T06:44:42.000Z</time>
      </trkpt>
      <trkpt lat="46.74685" lon="4.8167">
        <ele>181.39999389648</ele>
        <time>2024-05-20T06:44:43.000Z</time>
      </trkpt>
      <trkpt lat="46.74677" lon="4.81665">
        <ele>181.19999694824</ele>
        <time>2024-05-20T06:44:44.000Z</time>
      </trkpt>
      <trkpt lat="46.74669" lon="4.8166">
        <ele>180.80000305176</ele>
        <time>2024-05-20T06:44:45.000Z</time>
      </trkpt>
      <trkpt lat="46.74661" lon="4.81655">
        <ele>180.60000610352</ele>
        <time>2024-05-20T06:44:46.000Z</time>
      </trkpt>
      <trkpt lat="46.74653" lon="4.8165">
        <ele>180.60000610352</ele>
        <time>2024-05-20T06:44:47.000Z</time>
      </trkpt>
      <trkpt lat="46.74645" lon="4.81645">
        <ele>180.19999694824</ele>
        <time>2024-05-20T06:44:48.000Z</time>
      </trkpt>
      <trkpt lat="46.74637" lon="4.8164">
        <ele>180.19999694824</ele>
        <time>2024-05-20T06:44:49.000Z</time>
      </trkpt>
      <trkpt lat="46.74629" lon="4.81635">
        <ele>180</ele>
        <time>2024-05-20T06:44:50.000Z</time>
      </trkpt>
      <trkpt lat="46.74622" lon="4.81629">
        <ele>179.80000305176</ele>
        <time>2024-05-20T06:44:51.000Z</time>
      </trkpt>
      <trkpt lat="46.74616" lon="4.81623">
        <ele>179.60000610352</ele>
        <time>2024-05-20T06:44:52.000Z</time>
      </trkpt>
      <trkpt lat="46.74609" lon="4.81617">
        <ele>179.60000610352</ele>
        <time>2024-05-20T06:44:53.000Z</time>
      </trkpt>
      <trkpt lat="46.74602" lon="4.81611">
        <ele>179.60000610352</ele>
        <time>2024-05-20T06:44:54.000Z</time>
      </trkpt>
      <trkpt lat="46.74595" lon="4.81604">
        <ele>179.60000610352</ele>
        <time>2024-05-20T06:44:55.000Z</time>
      </trkpt>
      <trkpt lat="46.74589" lon="4.81598">
        <ele>179.60000610352</ele>
        <time>2024-05-20T06:44:56.000Z</time>
      </trkpt>
      <trkpt lat="46.74582" lon="4.81592">
        <ele>179.60000610352</ele>
        <time>2024-05-20T06:44:57.000Z</time>
      </trkpt>
      <trkpt lat="46.74575" lon="4.81585">
        <ele>179.60000610352</ele>
        <time>2024-05-20T06:44:58.000Z</time>
      </trkpt>
      <trkpt lat="46.74569" lon="4.81579">
        <ele>179.60000610352</ele>
        <time>2024-05-20T06:44:59.000Z</time>
      </trkpt>
      <trkpt lat="46.74562" lon="4.81572">
        <ele>179.60000610352</ele>
        <time>2024-05-20T06:45:00.000Z</time>
      </trkpt>
      <trkpt lat="46.74556" lon="4.81566">
        <ele>179.60000610352</ele>
        <time>2024-05-20T06:45:01.000Z</time>
      </trkpt>
      <trkpt lat="46.74549" lon="4.8156">
        <ele>179.60000610352</ele>
        <time>2024-05-20T06:45:02.000Z</time>
      </trkpt>
      <trkpt lat="46.74543" lon="4.81554">
        <ele>179.60000610352</ele>
        <time>2024-05-20T06:45:03.000Z</time>
      </trkpt>
      <trkpt lat="46.74536" lon="4.81548">
        <ele>179.60000610352</ele>
        <time>2024-05-20T06:45:04.000Z</time>
      </trkpt>
      <trkpt lat="46.7453" lon="4.81542">
        <ele>179.80000305176</ele>
        <time>2024-05-20T06:45:05.000Z</time>
      </trkpt>
      <trkpt lat="46.74524" lon="4.81537">
        <ele>179.80000305176</ele>
        <time>2024-05-20T06:45:06.000Z</time>
      </trkpt>
      <trkpt lat="46.74519" lon="4.81531">
        <ele>180</ele>
        <time>2024-05-20T06:45:07.000Z</time>
      </trkpt>
      <trkpt lat="46.74513" lon="4.81526">
        <ele>180</ele>
        <time>2024-05-20T06:45:08.000Z</time>
      </trkpt>
      <trkpt lat="46.74507" lon="4.81521">
        <ele>180.19999694824</ele>
        <time>2024-05-20T06:45:09.000Z</time>
      </trkpt>
      <trkpt lat="46.74501" lon="4.81515">
        <ele>180.19999694824</ele>
        <time>2024-05-20T06:45:10.000Z</time>
      </trkpt>
      <trkpt lat="46.74496" lon="4.8151">
        <ele>180.19999694824</ele>
        <time>2024-05-20T06:45:11.000Z</time>
      </trkpt>
      <trkpt lat="46.7449" lon="4.81504">
        <ele>180.39999389648</ele>
        <time>2024-05-20T06:45:12.000Z</time>
      </trkpt>
      <trkpt lat="46.74484" lon="4.81499">
        <ele>180.39999389648</ele>
        <time>2024-05-20T06:45:13.000Z</time>
      </trkpt>
      <trkpt lat="46.74479" lon="4.81494">
        <ele>180.39999389648</ele>
        <time>2024-05-20T06:45:14.000Z</time>
      </trkpt>
      <trkpt lat="46.74474" lon="4.81489">
        <ele>180.39999389648</ele>
        <time>2024-05-20T06:45:15.000Z</time>
      </trkpt>
      <trkpt lat="46.74469" lon="4.81484">
        <ele>180.60000610352</ele>
        <time>2024-05-20T06:45:16.000Z</time>
      </trkpt>
      <trkpt lat="46.74463" lon="4.81479">
        <ele>181</ele>
        <time>2024-05-20T06:45:17.000Z</time>
      </trkpt>
      <trkpt lat="46.74458" lon="4.81473">
        <ele>181</ele>
        <time>2024-05-20T06:45:18.000Z</time>
      </trkpt>
      <trkpt lat="46.74453" lon="4.81468">
        <ele>181</ele>
        <time>2024-05-20T06:45:19.000Z</time>
      </trkpt>
      <trkpt lat="46.74448" lon="4.81463">
        <ele>181.19999694824</ele>
        <time>2024-05-20T06:45:20.000Z</time>
      </trkpt>
      <trkpt lat="46.74443" lon="4.81458">
        <ele>181.19999694824</ele>
        <time>2024-05-20T06:45:21.000Z</time>
      </trkpt>
      <trkpt lat="46.74438" lon="4.81453">
        <ele>181.39999389648</ele>
        <time>2024-05-20T06:45:22.000Z</time>
      </trkpt>
      <trkpt lat="46.74433" lon="4.81449">
        <ele>181.39999389648</ele>
        <time>2024-05-20T06:45:23.000Z</time>
      </trkpt>
      <trkpt lat="46.74428" lon="4.81444">
        <ele>181.60000610352</ele>
        <time>2024-05-20T06:45:24.000Z</time>
      </trkpt>
      <trkpt lat="46.74423" lon="4.8144">
        <ele>181.80000305176</ele>
        <time>2024-05-20T06:45:25.000Z</time>
      </trkpt>
      <trkpt lat="46.74418" lon="4.81435">
        <ele>181.80000305176</ele>
        <time>2024-05-20T06:45:26.000Z</time>
      </trkpt>
      <trkpt lat="46.74413" lon="4.81431">
        <ele>181.80000305176</ele>
        <time>2024-05-20T06:45:27.000Z</time>
      </trkpt>
      <trkpt lat="46.74408" lon="4.81426">
        <ele>181.80000305176</ele>
        <time>2024-05-20T06:45:28.000Z</time>
      </trkpt>
      <trkpt lat="46.74403" lon="4.81422">
        <ele>182</ele>
        <time>2024-05-20T06:45:29.000Z</time>
      </trkpt>
      <trkpt lat="46.74398" lon="4.81418">
        <ele>182</ele>
        <time>2024-05-20T06:45:30.000Z</time>
      </trkpt>
      <trkpt lat="46.74393" lon="4.81414">
        <ele>182</ele>
        <time>2024-05-20T06:45:31.000Z</time>
      </trkpt>
      <trkpt lat="46.74388" lon="4.8141">
        <ele>182.19999694824</ele>
        <time>2024-05-20T06:45:32.000Z</time>
      </trkpt>
      <trkpt lat="46.74383" lon="4.81405">
        <ele>182.19999694824</ele>
        <time>2024-05-20T06:45:33.000Z</time>
      </trkpt>
      <trkpt lat="46.74377" lon="4.81401">
        <ele>182.19999694824</ele>
        <time>2024-05-20T06:45:34.000Z</time>
      </trkpt>
      <trkpt lat="46.74372" lon="4.81397">
        <ele>182.19999694824</ele>
        <time>2024-05-20T06:45:35.000Z</time>
      </trkpt>
      <trkpt lat="46.74367" lon="4.81393">
        <ele>182.19999694824</ele>
        <time>2024-05-20T06:45:36.000Z</time>
      </trkpt>
      <trkpt lat="46.74362" lon="4.81389">
        <ele>182.19999694824</ele>
        <time>2024-05-20T06:45:37.000Z</time>
      </trkpt>
      <trkpt lat="46.74357" lon="4.81385">
        <ele>182.19999694824</ele>
        <time>2024-05-20T06:45:38.000Z</time>
      </trkpt>
      <trkpt lat="46.74352" lon="4.81381">
        <ele>182.39999389648</ele>
        <time>2024-05-20T06:45:39.000Z</time>
      </trkpt>
      <trkpt lat="46.74346" lon="4.81378">
        <ele>182.39999389648</ele>
        <time>2024-05-20T06:45:40.000Z</time>
      </trkpt>
      <trkpt lat="46.74341" lon="4.81374">
        <ele>182.60000610352</ele>
        <time>2024-05-20T06:45:41.000Z</time>
      </trkpt>
      <trkpt lat="46.74336" lon="4.8137">
        <ele>182.60000610352</ele>
        <time>2024-05-20T06:45:42.000Z</time>
      </trkpt>
      <trkpt lat="46.74331" lon="4.81366">
        <ele>182.80000305176</ele>
        <time>2024-05-20T06:45:43.000Z</time>
      </trkpt>
      <trkpt lat="46.74325" lon="4.81362">
        <ele>182.80000305176</ele>
        <time>2024-05-20T06:45:44.000Z</time>
      </trkpt>
      <trkpt lat="46.7432" lon="4.81359">
        <ele>182.80000305176</ele>
        <time>2024-05-20T06:45:45.000Z</time>
      </trkpt>
      <trkpt lat="46.74315" lon="4.81355">
        <ele>182.80000305176</ele>
        <time>2024-05-20T06:45:46.000Z</time>
      </trkpt>
      <trkpt lat="46.74309" lon="4.81351">
        <ele>182.80000305176</ele>
        <time>2024-05-20T06:45:47.000Z</time>
      </trkpt>
      <trkpt lat="46.74304" lon="4.81347">
        <ele>182.80000305176</ele>
        <time>2024-05-20T06:45:48.000Z</time>
      </trkpt>
      <trkpt lat="46.74299" lon="4.81343">
        <ele>182.80000305176</ele>
        <time>2024-05-20T06:45:49.000Z</time>
      </trkpt>
      <trkpt lat="46.74294" lon="4.81339">
        <ele>182.80000305176</ele>
        <time>2024-05-20T06:45:50.000Z</time>
      </trkpt>
      <trkpt lat="46.74288" lon="4.81336">
        <ele>183</ele>
        <time>2024-05-20T06:45:51.000Z</time>
      </trkpt>
      <trkpt lat="46.74283" lon="4.81332">
        <ele>183</ele>
        <time>2024-05-20T06:45:52.000Z</time>
      </trkpt>
      <trkpt lat="46.74278" lon="4.81328">
        <ele>183</ele>
        <time>2024-05-20T06:45:53.000Z</time>
      </trkpt>
      <trkpt lat="46.74272" lon="4.81324">
        <ele>183</ele>
        <time>2024-05-20T06:45:54.000Z</time>
      </trkpt>
      <trkpt lat="46.74267" lon="4.81321">
        <ele>183</ele>
        <time>2024-05-20T06:45:55.000Z</time>
      </trkpt>
      <trkpt lat="46.74261" lon="4.81317">
        <ele>183</ele>
        <time>2024-05-20T06:45:56.000Z</time>
      </trkpt>
      <trkpt lat="46.74256" lon="4.81314">
        <ele>183</ele>
        <time>2024-05-20T06:45:57.000Z</time>
      </trkpt>
      <trkpt lat="46.7425" lon="4.8131">
        <ele>183</ele>
        <time>2024-05-20T06:45:58.000Z</time>
      </trkpt>
      <trkpt lat="46.74245" lon="4.81306">
        <ele>183.19999694824</ele>
        <time>2024-05-20T06:45:59.000Z</time>
      </trkpt>
      <trkpt lat="46.7424" lon="4.81302">
        <ele>183.19999694824</ele>
        <time>2024-05-20T06:46:00.000Z</time>
      </trkpt>
      <trkpt lat="46.74234" lon="4.81299">
        <ele>183.19999694824</ele>
        <time>2024-05-20T06:46:01.000Z</time>
      </trkpt>
      <trkpt lat="46.74229" lon="4.81295">
        <ele>183.19999694824</ele>
        <time>2024-05-20T06:46:02.000Z</time>
      </trkpt>
      <trkpt lat="46.74224" lon="4.81291">
        <ele>183.19999694824</ele>
        <time>2024-05-20T06:46:03.000Z</time>
      </trkpt>
      <trkpt lat="46.74219" lon="4.81288">
        <ele>183.39999389648</ele>
        <time>2024-05-20T06:46:04.000Z</time>
      </trkpt>
      <trkpt lat="46.74213" lon="4.81284">
        <ele>183.39999389648</ele>
        <time>2024-05-20T06:46:05.000Z</time>
      </trkpt>
      <trkpt lat="46.74208" lon="4.81281">
        <ele>183.60000610352</ele>
        <time>2024-05-20T06:46:06.000Z</time>
      </trkpt>
      <trkpt lat="46.74203" lon="4.81278">
        <ele>183.80000305176</ele>
        <time>2024-05-20T06:46:07.000Z</time>
      </trkpt>
      <trkpt lat="46.74198" lon="4.81274">
        <ele>183.80000305176</ele>
        <time>2024-05-20T06:46:08.000Z</time>
      </trkpt>
      <trkpt lat="46.74193" lon="4.8127">
        <ele>183.80000305176</ele>
        <time>2024-05-20T06:46:09.000Z</time>
      </trkpt>
      <trkpt lat="46.74188" lon="4.81267">
        <ele>184</ele>
        <time>2024-05-20T06:46:10.000Z</time>
      </trkpt>
      <trkpt lat="46.74183" lon="4.81264">
        <ele>184</ele>
        <time>2024-05-20T06:46:11.000Z</time>
      </trkpt>
      <trkpt lat="46.74177" lon="4.8126">
        <ele>184</ele>
        <time>2024-05-20T06:46:12.000Z</time>
      </trkpt>
      <trkpt lat="46.74172" lon="4.81257">
        <ele>184.19999694824</ele>
        <time>2024-05-20T06:46:13.000Z</time>
      </trkpt>
      <trkpt lat="46.74167" lon="4.81254">
        <ele>184.19999694824</ele>
        <time>2024-05-20T06:46:14.000Z</time>
      </trkpt>
      <trkpt lat="46.74162" lon="4.81251">
        <ele>184.39999389648</ele>
        <time>2024-05-20T06:46:15.000Z</time>
      </trkpt>
      <trkpt lat="46.74157" lon="4.81247">
        <ele>184.39999389648</ele>
        <time>2024-05-20T06:46:16.000Z</time>
      </trkpt>
      <trkpt lat="46.74152" lon="4.81244">
        <ele>184.39999389648</ele>
        <time>2024-05-20T06:46:17.000Z</time>
      </trkpt>
      <trkpt lat="46.74147" lon="4.81241">
        <ele>184.60000610352</ele>
        <time>2024-05-20T06:46:18.000Z</time>
      </trkpt>
      <trkpt lat="46.74142" lon="4.81237">
        <ele>184.60000610352</ele>
        <time>2024-05-20T06:46:19.000Z</time>
      </trkpt>
      <trkpt lat="46.74137" lon="4.81234">
        <ele>184.80000305176</ele>
        <time>2024-05-20T06:46:20.000Z</time>
      </trkpt>
      <trkpt lat="46.74132" lon="4.81231">
        <ele>184.80000305176</ele>
        <time>2024-05-20T06:46:21.000Z</time>
      </trkpt>
      <trkpt lat="46.74127" lon="4.81228">
        <ele>185</ele>
        <time>2024-05-20T06:46:22.000Z</time>
      </trkpt>
      <trkpt lat="46.74122" lon="4.81224">
        <ele>185.19999694824</ele>
        <time>2024-05-20T06:46:23.000Z</time>
      </trkpt>
      <trkpt lat="46.74117" lon="4.81221">
        <ele>185.19999694824</ele>
        <time>2024-05-20T06:46:24.000Z</time>
      </trkpt>
      <trkpt lat="46.74113" lon="4.81217">
        <ele>185.19999694824</ele>
        <time>2024-05-20T06:46:25.000Z</time>
      </trkpt>
      <trkpt lat="46.74108" lon="4.81214">
        <ele>185.39999389648</ele>
        <time>2024-05-20T06:46:26.000Z</time>
      </trkpt>
      <trkpt lat="46.74103" lon="4.8121">
        <ele>185.39999389648</ele>
        <time>2024-05-20T06:46:27.000Z</time>
      </trkpt>
      <trkpt lat="46.74099" lon="4.81205">
        <ele>185.39999389648</ele>
        <time>2024-05-20T06:46:28.000Z</time>
      </trkpt>
      <trkpt lat="46.74095" lon="4.81201">
        <ele>185.60000610352</ele>
        <time>2024-05-20T06:46:29.000Z</time>
      </trkpt>
      <trkpt lat="46.7409" lon="4.81196">
        <ele>185.60000610352</ele>
        <time>2024-05-20T06:46:30.000Z</time>
      </trkpt>
      <trkpt lat="46.74086" lon="4.81191">
        <ele>185.80000305176</ele>
        <time>2024-05-20T06:46:31.000Z</time>
      </trkpt>
      <trkpt lat="46.74082" lon="4.81185">
        <ele>185.80000305176</ele>
        <time>2024-05-20T06:46:32.000Z</time>
      </trkpt>
      <trkpt lat="46.74078" lon="4.8118">
        <ele>186</ele>
        <time>2024-05-20T06:46:33.000Z</time>
      </trkpt>
      <trkpt lat="46.74074" lon="4.81174">
        <ele>186</ele>
        <time>2024-05-20T06:46:34.000Z</time>
      </trkpt>
      <trkpt lat="46.7407" lon="4.81168">
        <ele>186.19999694824</ele>
        <time>2024-05-20T06:46:35.000Z</time>
      </trkpt>
      <trkpt lat="46.74067" lon="4.81162">
        <ele>186.19999694824</ele>
        <time>2024-05-20T06:46:36.000Z</time>
      </trkpt>
      <trkpt lat="46.74063" lon="4.81156">
        <ele>186.39999389648</ele>
        <time>2024-05-20T06:46:37.000Z</time>
      </trkpt>
      <trkpt lat="46.7406" lon="4.8115">
        <ele>186.39999389648</ele>
        <time>2024-05-20T06:46:38.000Z</time>
      </trkpt>
      <trkpt lat="46.74056" lon="4.81144">
        <ele>186.39999389648</ele>
        <time>2024-05-20T06:46:39.000Z</time>
      </trkpt>
      <trkpt lat="46.74053" lon="4.81138">
        <ele>186.39999389648</ele>
        <time>2024-05-20T06:46:40.000Z</time>
      </trkpt>
      <trkpt lat="46.74049" lon="4.81132">
        <ele>186.39999389648</ele>
        <time>2024-05-20T06:46:41.000Z</time>
      </trkpt>
      <trkpt lat="46.74046" lon="4.81125">
        <ele>186.39999389648</ele>
        <time>2024-05-20T06:46:42.000Z</time>
      </trkpt>
      <trkpt lat="46.74042" lon="4.81119">
        <ele>186.60000610352</ele>
        <time>2024-05-20T06:46:43.000Z</time>
      </trkpt>
      <trkpt lat="46.74039" lon="4.81113">
        <ele>186.60000610352</ele>
        <time>2024-05-20T06:46:44.000Z</time>
      </trkpt>
      <trkpt lat="46.74035" lon="4.81106">
        <ele>186.80000305176</ele>
        <time>2024-05-20T06:46:45.000Z</time>
      </trkpt>
      <trkpt lat="46.74032" lon="4.811">
        <ele>186.80000305176</ele>
        <time>2024-05-20T06:46:46.000Z</time>
      </trkpt>
      <trkpt lat="46.74028" lon="4.81094">
        <ele>186.80000305176</ele>
        <time>2024-05-20T06:46:47.000Z</time>
      </trkpt>
      <trkpt lat="46.74024" lon="4.81088">
        <ele>186.80000305176</ele>
        <time>2024-05-20T06:46:48.000Z</time>
      </trkpt>
      <trkpt lat="46.74021" lon="4.81082">
        <ele>186.80000305176</ele>
        <time>2024-05-20T06:46:49.000Z</time>
      </trkpt>
      <trkpt lat="46.74018" lon="4.81076">
        <ele>187</ele>
        <time>2024-05-20T06:46:50.000Z</time>
      </trkpt>
      <trkpt lat="46.74015" lon="4.81069">
        <ele>187</ele>
        <time>2024-05-20T06:46:51.000Z</time>
      </trkpt>
      <trkpt lat="46.74011" lon="4.81063">
        <ele>187.19999694824</ele>
        <time>2024-05-20T06:46:52.000Z</time>
      </trkpt>
      <trkpt lat="46.74008" lon="4.81057">
        <ele>187.19999694824</ele>
        <time>2024-05-20T06:46:53.000Z</time>
      </trkpt>
      <trkpt lat="46.74005" lon="4.81051">
        <ele>187.19999694824</ele>
        <time>2024-05-20T06:46:54.000Z</time>
      </trkpt>
      <trkpt lat="46.74001" lon="4.81044">
        <ele>187.19999694824</ele>
        <time>2024-05-20T06:46:55.000Z</time>
      </trkpt>
      <trkpt lat="46.73998" lon="4.81038">
        <ele>187.39999389648</ele>
        <time>2024-05-20T06:46:56.000Z</time>
      </trkpt>
      <trkpt lat="46.73995" lon="4.81031">
        <ele>187.39999389648</ele>
        <time>2024-05-20T06:46:57.000Z</time>
      </trkpt>
      <trkpt lat="46.73992" lon="4.81025">
        <ele>187.39999389648</ele>
        <time>2024-05-20T06:46:58.000Z</time>
      </trkpt>
      <trkpt lat="46.73989" lon="4.81019">
        <ele>187.39999389648</ele>
        <time>2024-05-20T06:46:59.000Z</time>
      </trkpt>
      <trkpt lat="46.73987" lon="4.81013">
        <ele>187.60000610352</ele>
        <time>2024-05-20T06:47:00.000Z</time>
      </trkpt>
      <trkpt lat="46.73984" lon="4.81007">
        <ele>187.60000610352</ele>
        <time>2024-05-20T06:47:01.000Z</time>
      </trkpt>
      <trkpt lat="46.73981" lon="4.81001">
        <ele>187.60000610352</ele>
        <time>2024-05-20T06:47:02.000Z</time>
      </trkpt>
      <trkpt lat="46.73977" lon="4.80996">
        <ele>187.60000610352</ele>
        <time>2024-05-20T06:47:03.000Z</time>
      </trkpt>
      <trkpt lat="46.73973" lon="4.80992">
        <ele>187.60000610352</ele>
        <time>2024-05-20T06:47:04.000Z</time>
      </trkpt>
      <trkpt lat="46.73968" lon="4.80991">
        <ele>187.80000305176</ele>
        <time>2024-05-20T06:47:05.000Z</time>
      </trkpt>
      <trkpt lat="46.73963" lon="4.80991">
        <ele>187.80000305176</ele>
        <time>2024-05-20T06:47:06.000Z</time>
      </trkpt>
      <trkpt lat="46.73957" lon="4.80992">
        <ele>187.80000305176</ele>
        <time>2024-05-20T06:47:07.000Z</time>
      </trkpt>
      <trkpt lat="46.73951" lon="4.80992">
        <ele>187.80000305176</ele>
        <time>2024-05-20T06:47:08.000Z</time>
      </trkpt>
      <trkpt lat="46.73945" lon="4.8099">
        <ele>187.60000610352</ele>
        <time>2024-05-20T06:47:09.000Z</time>
      </trkpt>
      <trkpt lat="46.73939" lon="4.80986">
        <ele>187.19999694824</ele>
        <time>2024-05-20T06:47:10.000Z</time>
      </trkpt>
      <trkpt lat="46.73933" lon="4.80981">
        <ele>186.80000305176</ele>
        <time>2024-05-20T06:47:11.000Z</time>
      </trkpt>
      <trkpt lat="46.73927" lon="4.80976">
        <ele>186.39999389648</ele>
        <time>2024-05-20T06:47:12.000Z</time>
      </trkpt>
      <trkpt lat="46.73921" lon="4.80969">
        <ele>186</ele>
        <time>2024-05-20T06:47:13.000Z</time>
      </trkpt>
      <trkpt lat="46.73914" lon="4.80963">
        <ele>185.39999389648</ele>
        <time>2024-05-20T06:47:14.000Z</time>
      </trkpt>
      <trkpt lat="46.73908" lon="4.80957">
        <ele>185.19999694824</ele>
        <time>2024-05-20T06:47:15.000Z</time>
      </trkpt>
      <trkpt lat="46.73902" lon="4.80951">
        <ele>184.80000305176</ele>
        <time>2024-05-20T06:47:16.000Z</time>
      </trkpt>
      <trkpt lat="46.73895" lon="4.80944">
        <ele>184.39999389648</ele>
        <time>2024-05-20T06:47:17.000Z</time>
      </trkpt>
      <trkpt lat="46.73889" lon="4.80938">
        <ele>184.19999694824</ele>
        <time>2024-05-20T06:47:18.000Z</time>
      </trkpt>
      <trkpt lat="46.73883" lon="4.80931">
        <ele>183.80000305176</ele>
        <time>2024-05-20T06:47:19.000Z</time>
      </trkpt>
      <trkpt lat="46.73876" lon="4.80925">
        <ele>183.60000610352</ele>
        <time>2024-05-20T06:47:20.000Z</time>
      </trkpt>
      <trkpt lat="46.73869" lon="4.80918">
        <ele>183.39999389648</ele>
        <time>2024-05-20T06:47:21.000Z</time>
      </trkpt>
      <trkpt lat="46.73863" lon="4.80912">
        <ele>183.19999694824</ele>
        <time>2024-05-20T06:47:22.000Z</time>
      </trkpt>
      <trkpt lat="46.73856" lon="4.80905">
        <ele>183</ele>
        <time>2024-05-20T06:47:23.000Z</time>
      </trkpt>
      <trkpt lat="46.7385" lon="4.80899">
        <ele>182.80000305176</ele>
        <time>2024-05-20T06:47:24.000Z</time>
      </trkpt>
      <trkpt lat="46.73843" lon="4.80892">
        <ele>182.80000305176</ele>
        <time>2024-05-20T06:47:25.000Z</time>
      </trkpt>
      <trkpt lat="46.73836" lon="4.80886">
        <ele>182.80000305176</ele>
        <time>2024-05-20T06:47:26.000Z</time>
      </trkpt>
      <trkpt lat="46.7383" lon="4.8088">
        <ele>182.60000610352</ele>
        <time>2024-05-20T06:47:27.000Z</time>
      </trkpt>
      <trkpt lat="46.73823" lon="4.80874">
        <ele>182.39999389648</ele>
        <time>2024-05-20T06:47:28.000Z</time>
      </trkpt>
      <trkpt lat="46.73816" lon="4.80867">
        <ele>182.39999389648</ele>
        <time>2024-05-20T06:47:29.000Z</time>
      </trkpt>
      <trkpt lat="46.7381" lon="4.8086">
        <ele>182.39999389648</ele>
        <time>2024-05-20T06:47:30.000Z</time>
      </trkpt>
      <trkpt lat="46.73803" lon="4.80853">
        <ele>182.19999694824</ele>
        <time>2024-05-20T06:47:31.000Z</time>
      </trkpt>
      <trkpt lat="46.73797" lon="4.80846">
        <ele>182</ele>
        <time>2024-05-20T06:47:32.000Z</time>
      </trkpt>
      <trkpt lat="46.7379" lon="4.8084">
        <ele>182</ele>
        <time>2024-05-20T06:47:33.000Z</time>
      </trkpt>
      <trkpt lat="46.73783" lon="4.80833">
        <ele>181.80000305176</ele>
        <time>2024-05-20T06:47:34.000Z</time>
      </trkpt>
      <trkpt lat="46.73777" lon="4.80827">
        <ele>181.80000305176</ele>
        <time>2024-05-20T06:47:35.000Z</time>
      </trkpt>
      <trkpt lat="46.7377" lon="4.8082">
        <ele>181.80000305176</ele>
        <time>2024-05-20T06:47:36.000Z</time>
      </trkpt>
      <trkpt lat="46.73763" lon="4.80813">
        <ele>181.60000610352</ele>
        <time>2024-05-20T06:47:37.000Z</time>
      </trkpt>
      <trkpt lat="46.73757" lon="4.80807">
        <ele>181.60000610352</ele>
        <time>2024-05-20T06:47:38.000Z</time>
      </trkpt>
      <trkpt lat="46.7375" lon="4.808">
        <ele>181.60000610352</ele>
        <time>2024-05-20T06:47:39.000Z</time>
      </trkpt>
      <trkpt lat="46.73744" lon="4.80795">
        <ele>181.60000610352</ele>
        <time>2024-05-20T06:47:40.000Z</time>
      </trkpt>
      <trkpt lat="46.73737" lon="4.80788">
        <ele>181.60000610352</ele>
        <time>2024-05-20T06:47:41.000Z</time>
      </trkpt>
      <trkpt lat="46.73731" lon="4.80782">
        <ele>181.60000610352</ele>
        <time>2024-05-20T06:47:42.000Z</time>
      </trkpt>
      <trkpt lat="46.73725" lon="4.80776">
        <ele>181.60000610352</ele>
        <time>2024-05-20T06:47:43.000Z</time>
      </trkpt>
      <trkpt lat="46.73719" lon="4.8077">
        <ele>181.80000305176</ele>
        <time>2024-05-20T06:47:44.000Z</time>
      </trkpt>
      <trkpt lat="46.73712" lon="4.80764">
        <ele>181.80000305176</ele>
        <time>2024-05-20T06:47:45.000Z</time>
      </trkpt>
      <trkpt lat="46.73706" lon="4.80757">
        <ele>181.80000305176</ele>
        <time>2024-05-20T06:47:46.000Z</time>
      </trkpt>
      <trkpt lat="46.737" lon="4.80751">
        <ele>181.80000305176</ele>
        <time>2024-05-20T06:47:47.000Z</time>
      </trkpt>
      <trkpt lat="46.73693" lon="4.80745">
        <ele>181.80000305176</ele>
        <time>2024-05-20T06:47:48.000Z</time>
      </trkpt>
      <trkpt lat="46.73688" lon="4.80739">
        <ele>181.80000305176</ele>
        <time>2024-05-20T06:47:49.000Z</time>
      </trkpt>
      <trkpt lat="46.73681" lon="4.80733">
        <ele>182</ele>
        <time>2024-05-20T06:47:50.000Z</time>
      </trkpt>
      <trkpt lat="46.73675" lon="4.80727">
        <ele>182</ele>
        <time>2024-05-20T06:47:51.000Z</time>
      </trkpt>
      <trkpt lat="46.73669" lon="4.80722">
        <ele>182</ele>
        <time>2024-05-20T06:47:52.000Z</time>
      </trkpt>
      <trkpt lat="46.73663" lon="4.80717">
        <ele>182</ele>
        <time>2024-05-20T06:47:53.000Z</time>
      </trkpt>
      <trkpt lat="46.73656" lon="4.80712">
        <ele>182.19999694824</ele>
        <time>2024-05-20T06:47:54.000Z</time>
      </trkpt>
      <trkpt lat="46.7365" lon="4.80707">
        <ele>182.19999694824</ele>
        <time>2024-05-20T06:47:55.000Z</time>
      </trkpt>
      <trkpt lat="46.73643" lon="4.80702">
        <ele>182.19999694824</ele>
        <time>2024-05-20T06:47:56.000Z</time>
      </trkpt>
      <trkpt lat="46.73637" lon="4.80699">
        <ele>182.19999694824</ele>
        <time>2024-05-20T06:47:57.000Z</time>
      </trkpt>
      <trkpt lat="46.73631" lon="4.80695">
        <ele>182.19999694824</ele>
        <time>2024-05-20T06:47:58.000Z</time>
      </trkpt>
      <trkpt lat="46.73624" lon="4.80691">
        <ele>182.39999389648</ele>
        <time>2024-05-20T06:47:59.000Z</time>
      </trkpt>
      <trkpt lat="46.73618" lon="4.80688">
        <ele>182.39999389648</ele>
        <time>2024-05-20T06:48:00.000Z</time>
      </trkpt>
      <trkpt lat="46.73611" lon="4.80684">
        <ele>182.39999389648</ele>
        <time>2024-05-20T06:48:01.000Z</time>
      </trkpt>
      <trkpt lat="46.73605" lon="4.8068">
        <ele>182.39999389648</ele>
        <time>2024-05-20T06:48:02.000Z</time>
      </trkpt>
      <trkpt lat="46.73598" lon="4.80676">
        <ele>182.39999389648</ele>
        <time>2024-05-20T06:48:03.000Z</time>
      </trkpt>
      <trkpt lat="46.73592" lon="4.80673">
        <ele>182.39999389648</ele>
        <time>2024-05-20T06:48:04.000Z</time>
      </trkpt>
      <trkpt lat="46.73586" lon="4.80669">
        <ele>182.39999389648</ele>
        <time>2024-05-20T06:48:05.000Z</time>
      </trkpt>
      <trkpt lat="46.73579" lon="4.80664">
        <ele>182.60000610352</ele>
        <time>2024-05-20T06:48:06.000Z</time>
      </trkpt>
      <trkpt lat="46.73573" lon="4.80659">
        <ele>182.60000610352</ele>
        <time>2024-05-20T06:48:07.000Z</time>
      </trkpt>
      <trkpt lat="46.73567" lon="4.80654">
        <ele>182.60000610352</ele>
        <time>2024-05-20T06:48:08.000Z</time>
      </trkpt>
      <trkpt lat="46.73562" lon="4.80649">
        <ele>182.60000610352</ele>
        <time>2024-05-20T06:48:09.000Z</time>
      </trkpt>
      <trkpt lat="46.73557" lon="4.80642">
        <ele>182.60000610352</ele>
        <time>2024-05-20T06:48:10.000Z</time>
      </trkpt>
      <trkpt lat="46.73552" lon="4.80636">
        <ele>182.60000610352</ele>
        <time>2024-05-20T06:48:11.000Z</time>
      </trkpt>
      <trkpt lat="46.73547" lon="4.80628">
        <ele>182.39999389648</ele>
        <time>2024-05-20T06:48:12.000Z</time>
      </trkpt>
      <trkpt lat="46.73544" lon="4.8062">
        <ele>182.39999389648</ele>
        <time>2024-05-20T06:48:13.000Z</time>
      </trkpt>
      <trkpt lat="46.7354" lon="4.80611">
        <ele>182.39999389648</ele>
        <time>2024-05-20T06:48:14.000Z</time>
      </trkpt>
      <trkpt lat="46.73537" lon="4.80603">
        <ele>182.60000610352</ele>
        <time>2024-05-20T06:48:15.000Z</time>
      </trkpt>
      <trkpt lat="46.73535" lon="4.80594">
        <ele>182.60000610352</ele>
        <time>2024-05-20T06:48:16.000Z</time>
      </trkpt>
      <trkpt lat="46.73532" lon="4.80585">
        <ele>182.60000610352</ele>
        <time>2024-05-20T06:48:17.000Z</time>
      </trkpt>
      <trkpt lat="46.7353" lon="4.80577">
        <ele>182.80000305176</ele>
        <time>2024-05-20T06:48:18.000Z</time>
      </trkpt>
      <trkpt lat="46.73527" lon="4.80568">
        <ele>182.80000305176</ele>
        <time>2024-05-20T06:48:19.000Z</time>
      </trkpt>
      <trkpt lat="46.73525" lon="4.80559">
        <ele>182.80000305176</ele>
        <time>2024-05-20T06:48:20.000Z</time>
      </trkpt>
      <trkpt lat="46.73523" lon="4.8055">
        <ele>182.80000305176</ele>
        <time>2024-05-20T06:48:21.000Z</time>
      </trkpt>
      <trkpt lat="46.7352" lon="4.80542">
        <ele>182.80000305176</ele>
        <time>2024-05-20T06:48:22.000Z</time>
      </trkpt>
      <trkpt lat="46.73518" lon="4.80533">
        <ele>182.80000305176</ele>
        <time>2024-05-20T06:48:23.000Z</time>
      </trkpt>
      <trkpt lat="46.73515" lon="4.80524">
        <ele>182.80000305176</ele>
        <time>2024-05-20T06:48:24.000Z</time>
      </trkpt>
      <trkpt lat="46.73513" lon="4.80516">
        <ele>182.80000305176</ele>
        <time>2024-05-20T06:48:25.000Z</time>
      </trkpt>
      <trkpt lat="46.7351" lon="4.80507">
        <ele>182.80000305176</ele>
        <time>2024-05-20T06:48:26.000Z</time>
      </trkpt>
      <trkpt lat="46.73508" lon="4.80498">
        <ele>182.80000305176</ele>
        <time>2024-05-20T06:48:27.000Z</time>
      </trkpt>
      <trkpt lat="46.73506" lon="4.8049">
        <ele>182.80000305176</ele>
        <time>2024-05-20T06:48:28.000Z</time>
      </trkpt>
      <trkpt lat="46.73504" lon="4.80482">
        <ele>182.80000305176</ele>
        <time>2024-05-20T06:48:29.000Z</time>
      </trkpt>
      <trkpt lat="46.73501" lon="4.80473">
        <ele>182.80000305176</ele>
        <time>2024-05-20T06:48:30.000Z</time>
      </trkpt>
      <trkpt lat="46.73499" lon="4.80465">
        <ele>182.80000305176</ele>
        <time>2024-05-20T06:48:31.000Z</time>
      </trkpt>
      <trkpt lat="46.73496" lon="4.80456">
        <ele>182.80000305176</ele>
        <time>2024-05-20T06:48:32.000Z</time>
      </trkpt>
      <trkpt lat="46.73493" lon="4.80448">
        <ele>182.80000305176</ele>
        <time>2024-05-20T06:48:33.000Z</time>
      </trkpt>
      <trkpt lat="46.73491" lon="4.80439">
        <ele>182.80000305176</ele>
        <time>2024-05-20T06:48:34.000Z</time>
      </trkpt>
      <trkpt lat="46.73489" lon="4.80431">
        <ele>182.80000305176</ele>
        <time>2024-05-20T06:48:35.000Z</time>
      </trkpt>
      <trkpt lat="46.73486" lon="4.80422">
        <ele>182.80000305176</ele>
        <time>2024-05-20T06:48:36.000Z</time>
      </trkpt>
      <trkpt lat="46.73483" lon="4.80414">
        <ele>182.80000305176</ele>
        <time>2024-05-20T06:48:37.000Z</time>
      </trkpt>
      <trkpt lat="46.7348" lon="4.80406">
        <ele>183</ele>
        <time>2024-05-20T06:48:38.000Z</time>
      </trkpt>
      <trkpt lat="46.73477" lon="4.80398">
        <ele>183</ele>
        <time>2024-05-20T06:48:39.000Z</time>
      </trkpt>
      <trkpt lat="46.73474" lon="4.8039">
        <ele>183</ele>
        <time>2024-05-20T06:48:40.000Z</time>
      </trkpt>
      <trkpt lat="46.7347" lon="4.80383">
        <ele>183</ele>
        <time>2024-05-20T06:48:41.000Z</time>
      </trkpt>
      <trkpt lat="46.73466" lon="4.80376">
        <ele>183</ele>
        <time>2024-05-20T06:48:42.000Z</time>
      </trkpt>
      <trkpt lat="46.73461" lon="4.80369">
        <ele>183</ele>
        <time>2024-05-20T06:48:43.000Z</time>
      </trkpt>
      <trkpt lat="46.73457" lon="4.80363">
        <ele>183</ele>
        <time>2024-05-20T06:48:44.000Z</time>
      </trkpt>
      <trkpt lat="46.73452" lon="4.80358">
        <ele>183</ele>
        <time>2024-05-20T06:48:45.000Z</time>
      </trkpt>
      <trkpt lat="46.73446" lon="4.80352">
        <ele>183</ele>
        <time>2024-05-20T06:48:46.000Z</time>
      </trkpt>
      <trkpt lat="46.73441" lon="4.80347">
        <ele>183</ele>
        <time>2024-05-20T06:48:47.000Z</time>
      </trkpt>
      <trkpt lat="46.73436" lon="4.80343">
        <ele>183</ele>
        <time>2024-05-20T06:48:48.000Z</time>
      </trkpt>
      <trkpt lat="46.7343" lon="4.80339">
        <ele>183</ele>
        <time>2024-05-20T06:48:49.000Z</time>
      </trkpt>
      <trkpt lat="46.73424" lon="4.80335">
        <ele>183.19999694824</ele>
        <time>2024-05-20T06:48:50.000Z</time>
      </trkpt>
      <trkpt lat="46.73419" lon="4.8033">
        <ele>183.19999694824</ele>
        <time>2024-05-20T06:48:51.000Z</time>
      </trkpt>
      <trkpt lat="46.73413" lon="4.80327">
        <ele>183.39999389648</ele>
        <time>2024-05-20T06:48:52.000Z</time>
      </trkpt>
      <trkpt lat="46.73407" lon="4.80323">
        <ele>183.39999389648</ele>
        <time>2024-05-20T06:48:53.000Z</time>
      </trkpt>
      <trkpt lat="46.73402" lon="4.80319">
        <ele>183.60000610352</ele>
        <time>2024-05-20T06:48:54.000Z</time>
      </trkpt>
      <trkpt lat="46.73396" lon="4.80314">
        <ele>183.60000610352</ele>
        <time>2024-05-20T06:48:55.000Z</time>
      </trkpt>
      <trkpt lat="46.7339" lon="4.8031">
        <ele>183.60000610352</ele>
        <time>2024-05-20T06:48:56.000Z</time>
      </trkpt>
      <trkpt lat="46.73383" lon="4.80307">
        <ele>183.60000610352</ele>
        <time>2024-05-20T06:48:57.000Z</time>
      </trkpt>
      <trkpt lat="46.73377" lon="4.80303">
        <ele>183.39999389648</ele>
        <time>2024-05-20T06:48:58.000Z</time>
      </trkpt>
      <trkpt lat="46.73371" lon="4.80299">
        <ele>183.19999694824</ele>
        <time>2024-05-20T06:48:59.000Z</time>
      </trkpt>
      <trkpt lat="46.73366" lon="4.80295">
        <ele>183.19999694824</ele>
        <time>2024-05-20T06:49:00.000Z</time>
      </trkpt>
      <trkpt lat="46.73359" lon="4.80292">
        <ele>183.19999694824</ele>
        <time>2024-05-20T06:49:01.000Z</time>
      </trkpt>
      <trkpt lat="46.73353" lon="4.80288">
        <ele>183.19999694824</ele>
        <time>2024-05-20T06:49:02.000Z</time>
      </trkpt>
      <trkpt lat="46.73347" lon="4.80284">
        <ele>183.19999694824</ele>
        <time>2024-05-20T06:49:03.000Z</time>
      </trkpt>
      <trkpt lat="46.73341" lon="4.8028">
        <ele>183</ele>
        <time>2024-05-20T06:49:04.000Z</time>
      </trkpt>
      <trkpt lat="46.73336" lon="4.80276">
        <ele>183</ele>
        <time>2024-05-20T06:49:05.000Z</time>
      </trkpt>
      <trkpt lat="46.7333" lon="4.80273">
        <ele>183</ele>
        <time>2024-05-20T06:49:06.000Z</time>
      </trkpt>
      <trkpt lat="46.73324" lon="4.80268">
        <ele>183</ele>
        <time>2024-05-20T06:49:07.000Z</time>
      </trkpt>
      <trkpt lat="46.73319" lon="4.80264">
        <ele>183</ele>
        <time>2024-05-20T06:49:08.000Z</time>
      </trkpt>
      <trkpt lat="46.73314" lon="4.80259">
        <ele>183</ele>
        <time>2024-05-20T06:49:09.000Z</time>
      </trkpt>
      <trkpt lat="46.73309" lon="4.80254">
        <ele>183.19999694824</ele>
        <time>2024-05-20T06:49:10.000Z</time>
      </trkpt>
      <trkpt lat="46.73304" lon="4.80248">
        <ele>183.19999694824</ele>
        <time>2024-05-20T06:49:11.000Z</time>
      </trkpt>
      <trkpt lat="46.73299" lon="4.80241">
        <ele>183.39999389648</ele>
        <time>2024-05-20T06:49:12.000Z</time>
      </trkpt>
      <trkpt lat="46.73295" lon="4.80235">
        <ele>183.39999389648</ele>
        <time>2024-05-20T06:49:13.000Z</time>
      </trkpt>
      <trkpt lat="46.73291" lon="4.80228">
        <ele>183.60000610352</ele>
        <time>2024-05-20T06:49:14.000Z</time>
      </trkpt>
      <trkpt lat="46.73287" lon="4.80221">
        <ele>183.60000610352</ele>
        <time>2024-05-20T06:49:15.000Z</time>
      </trkpt>
      <trkpt lat="46.73282" lon="4.80214">
        <ele>183.60000610352</ele>
        <time>2024-05-20T06:49:16.000Z</time>
      </trkpt>
      <trkpt lat="46.73278" lon="4.80208">
        <ele>183.60000610352</ele>
        <time>2024-05-20T06:49:17.000Z</time>
      </trkpt>
      <trkpt lat="46.73273" lon="4.802">
        <ele>183.60000610352</ele>
        <time>2024-05-20T06:49:18.000Z</time>
      </trkpt>
      <trkpt lat="46.73268" lon="4.80193">
        <ele>183.39999389648</ele>
        <time>2024-05-20T06:49:19.000Z</time>
      </trkpt>
      <trkpt lat="46.73264" lon="4.80186">
        <ele>183.39999389648</ele>
        <time>2024-05-20T06:49:20.000Z</time>
      </trkpt>
      <trkpt lat="46.73259" lon="4.80179">
        <ele>183.19999694824</ele>
        <time>2024-05-20T06:49:21.000Z</time>
      </trkpt>
      <trkpt lat="46.73255" lon="4.80171">
        <ele>183.19999694824</ele>
        <time>2024-05-20T06:49:22.000Z</time>
      </trkpt>
      <trkpt lat="46.7325" lon="4.80164">
        <ele>183.19999694824</ele>
        <time>2024-05-20T06:49:23.000Z</time>
      </trkpt>
      <trkpt lat="46.73246" lon="4.80157">
        <ele>183.19999694824</ele>
        <time>2024-05-20T06:49:24.000Z</time>
      </trkpt>
      <trkpt lat="46.73241" lon="4.8015">
        <ele>183.19999694824</ele>
        <time>2024-05-20T06:49:25.000Z</time>
      </trkpt>
      <trkpt lat="46.73237" lon="4.80143">
        <ele>183.19999694824</ele>
        <time>2024-05-20T06:49:26.000Z</time>
      </trkpt>
      <trkpt lat="46.73232" lon="4.80136">
        <ele>183.39999389648</ele>
        <time>2024-05-20T06:49:27.000Z</time>
      </trkpt>
      <trkpt lat="46.73228" lon="4.80129">
        <ele>183.39999389648</ele>
        <time>2024-05-20T06:49:28.000Z</time>
      </trkpt>
      <trkpt lat="46.73223" lon="4.80122">
        <ele>183.39999389648</ele>
        <time>2024-05-20T06:49:29.000Z</time>
      </trkpt>
      <trkpt lat="46.73219" lon="4.80114">
        <ele>183.39999389648</ele>
        <time>2024-05-20T06:49:30.000Z</time>
      </trkpt>
      <trkpt lat="46.73214" lon="4.80107">
        <ele>183.39999389648</ele>
        <time>2024-05-20T06:49:31.000Z</time>
      </trkpt>
      <trkpt lat="46.73209" lon="4.801">
        <ele>183.39999389648</ele>
        <time>2024-05-20T06:49:32.000Z</time>
      </trkpt>
      <trkpt lat="46.73204" lon="4.80094">
        <ele>183.39999389648</ele>
        <time>2024-05-20T06:49:33.000Z</time>
      </trkpt>
      <trkpt lat="46.732" lon="4.80087">
        <ele>183.39999389648</ele>
        <time>2024-05-20T06:49:34.000Z</time>
      </trkpt>
      <trkpt lat="46.73195" lon="4.8008">
        <ele>183.39999389648</ele>
        <time>2024-05-20T06:49:35.000Z</time>
      </trkpt>
      <trkpt lat="46.73191" lon="4.80073">
        <ele>183.39999389648</ele>
        <time>2024-05-20T06:49:36.000Z</time>
      </trkpt>
      <trkpt lat="46.73186" lon="4.80066">
        <ele>183.39999389648</ele>
        <time>2024-05-20T06:49:37.000Z</time>
      </trkpt>
      <trkpt lat="46.73182" lon="4.80058">
        <ele>183.60000610352</ele>
        <time>2024-05-20T06:49:38.000Z</time>
      </trkpt>
      <trkpt lat="46.73178" lon="4.80051">
        <ele>183.60000610352</ele>
        <time>2024-05-20T06:49:39.000Z</time>
      </trkpt>
      <trkpt lat="46.73174" lon="4.80044">
        <ele>183.60000610352</ele>
        <time>2024-05-20T06:49:40.000Z</time>
      </trkpt>
      <trkpt lat="46.7317" lon="4.80036">
        <ele>183.60000610352</ele>
        <time>2024-05-20T06:49:41.000Z</time>
      </trkpt>
      <trkpt lat="46.73166" lon="4.8003">
        <ele>183.60000610352</ele>
        <time>2024-05-20T06:49:42.000Z</time>
      </trkpt>
      <trkpt lat="46.73161" lon="4.80023">
        <ele>183.60000610352</ele>
        <time>2024-05-20T06:49:43.000Z</time>
      </trkpt>
      <trkpt lat="46.73157" lon="4.80016">
        <ele>183.60000610352</ele>
        <time>2024-05-20T06:49:44.000Z</time>
      </trkpt>
      <trkpt lat="46.73153" lon="4.80009">
        <ele>183.60000610352</ele>
        <time>2024-05-20T06:49:45.000Z</time>
      </trkpt>
      <trkpt lat="46.73149" lon="4.80002">
        <ele>183.80000305176</ele>
        <time>2024-05-20T06:49:46.000Z</time>
      </trkpt>
      <trkpt lat="46.73145" lon="4.79995">
        <ele>183.80000305176</ele>
        <time>2024-05-20T06:49:47.000Z</time>
      </trkpt>
      <trkpt lat="46.73141" lon="4.79989">
        <ele>183.80000305176</ele>
        <time>2024-05-20T06:49:48.000Z</time>
      </trkpt>
      <trkpt lat="46.73136" lon="4.79983">
        <ele>184</ele>
        <time>2024-05-20T06:49:49.000Z</time>
      </trkpt>
      <trkpt lat="46.73131" lon="4.79978">
        <ele>184</ele>
        <time>2024-05-20T06:49:50.000Z</time>
      </trkpt>
      <trkpt lat="46.73126" lon="4.79972">
        <ele>184</ele>
        <time>2024-05-20T06:49:51.000Z</time>
      </trkpt>
      <trkpt lat="46.73121" lon="4.79966">
        <ele>184</ele>
        <time>2024-05-20T06:49:52.000Z</time>
      </trkpt>
      <trkpt lat="46.73116" lon="4.79961">
        <ele>184</ele>
        <time>2024-05-20T06:49:53.000Z</time>
      </trkpt>
      <trkpt lat="46.73111" lon="4.79955">
        <ele>184</ele>
        <time>2024-05-20T06:49:54.000Z</time>
      </trkpt>
      <trkpt lat="46.73106" lon="4.7995">
        <ele>183.80000305176</ele>
        <time>2024-05-20T06:49:55.000Z</time>
      </trkpt>
      <trkpt lat="46.73101" lon="4.79943">
        <ele>183.80000305176</ele>
        <time>2024-05-20T06:49:56.000Z</time>
      </trkpt>
      <trkpt lat="46.73097" lon="4.79937">
        <ele>183.80000305176</ele>
        <time>2024-05-20T06:49:57.000Z</time>
      </trkpt>
      <trkpt lat="46.73092" lon="4.79929">
        <ele>183.80000305176</ele>
        <time>2024-05-20T06:49:58.000Z</time>
      </trkpt>
      <trkpt lat="46.73089" lon="4.79921">
        <ele>183.80000305176</ele>
        <time>2024-05-20T06:49:59.000Z</time>
      </trkpt>
      <trkpt lat="46.73086" lon="4.79913">
        <ele>183.80000305176</ele>
        <time>2024-05-20T06:50:00.000Z</time>
      </trkpt>
      <trkpt lat="46.73083" lon="4.79905">
        <ele>184</ele>
        <time>2024-05-20T06:50:01.000Z</time>
      </trkpt>
      <trkpt lat="46.7308" lon="4.79897">
        <ele>184</ele>
        <time>2024-05-20T06:50:02.000Z</time>
      </trkpt>
      <trkpt lat="46.73076" lon="4.79889">
        <ele>184</ele>
        <time>2024-05-20T06:50:03.000Z</time>
      </trkpt>
      <trkpt lat="46.73073" lon="4.79881">
        <ele>184</ele>
        <time>2024-05-20T06:50:04.000Z</time>
      </trkpt>
      <trkpt lat="46.7307" lon="4.79873">
        <ele>184</ele>
        <time>2024-05-20T06:50:05.000Z</time>
      </trkpt>
      <trkpt lat="46.73067" lon="4.79865">
        <ele>184</ele>
        <time>2024-05-20T06:50:06.000Z</time>
      </trkpt>
      <trkpt lat="46.73064" lon="4.79857">
        <ele>184</ele>
        <time>2024-05-20T06:50:07.000Z</time>
      </trkpt>
      <trkpt lat="46.7306" lon="4.79849">
        <ele>184</ele>
        <time>2024-05-20T06:50:08.000Z</time>
      </trkpt>
      <trkpt lat="46.73057" lon="4.79841">
        <ele>184</ele>
        <time>2024-05-20T06:50:09.000Z</time>
      </trkpt>
      <trkpt lat="46.73053" lon="4.79832">
        <ele>184</ele>
        <time>2024-05-20T06:50:10.000Z</time>
      </trkpt>
      <trkpt lat="46.7305" lon="4.79824">
        <ele>184</ele>
        <time>2024-05-20T06:50:11.000Z</time>
      </trkpt>
      <trkpt lat="46.73046" lon="4.79817">
        <ele>184</ele>
        <time>2024-05-20T06:50:12.000Z</time>
      </trkpt>
      <trkpt lat="46.73042" lon="4.7981">
        <ele>184</ele>
        <time>2024-05-20T06:50:13.000Z</time>
      </trkpt>
      <trkpt lat="46.73038" lon="4.79804">
        <ele>184</ele>
        <time>2024-05-20T06:50:14.000Z</time>
      </trkpt>
      <trkpt lat="46.73033" lon="4.79798">
        <ele>184</ele>
        <time>2024-05-20T06:50:15.000Z</time>
      </trkpt>
      <trkpt lat="46.73027" lon="4.79793">
        <ele>184</ele>
        <time>2024-05-20T06:50:16.000Z</time>
      </trkpt>
      <trkpt lat="46.73022" lon="4.79789">
        <ele>184</ele>
        <time>2024-05-20T06:50:17.000Z</time>
      </trkpt>
      <trkpt lat="46.73016" lon="4.79784">
        <ele>184</ele>
        <time>2024-05-20T06:50:18.000Z</time>
      </trkpt>
      <trkpt lat="46.7301" lon="4.79781">
        <ele>184</ele>
        <time>2024-05-20T06:50:19.000Z</time>
      </trkpt>
      <trkpt lat="46.73004" lon="4.79777">
        <ele>184</ele>
        <time>2024-05-20T06:50:20.000Z</time>
      </trkpt>
      <trkpt lat="46.72998" lon="4.79773">
        <ele>184</ele>
        <time>2024-05-20T06:50:21.000Z</time>
      </trkpt>
      <trkpt lat="46.72992" lon="4.79769">
        <ele>184</ele>
        <time>2024-05-20T06:50:22.000Z</time>
      </trkpt>
      <trkpt lat="46.72986" lon="4.79765">
        <ele>184</ele>
        <time>2024-05-20T06:50:23.000Z</time>
      </trkpt>
      <trkpt lat="46.7298" lon="4.79762">
        <ele>184.19999694824</ele>
        <time>2024-05-20T06:50:24.000Z</time>
      </trkpt>
      <trkpt lat="46.72974" lon="4.79758">
        <ele>184.19999694824</ele>
        <time>2024-05-20T06:50:25.000Z</time>
      </trkpt>
      <trkpt lat="46.72968" lon="4.79755">
        <ele>184.19999694824</ele>
        <time>2024-05-20T06:50:26.000Z</time>
      </trkpt>
      <trkpt lat="46.72962" lon="4.79751">
        <ele>184.39999389648</ele>
        <time>2024-05-20T06:50:27.000Z</time>
      </trkpt>
      <trkpt lat="46.72956" lon="4.79748">
        <ele>184.39999389648</ele>
        <time>2024-05-20T06:50:28.000Z</time>
      </trkpt>
      <trkpt lat="46.7295" lon="4.79744">
        <ele>184.39999389648</ele>
        <time>2024-05-20T06:50:29.000Z</time>
      </trkpt>
      <trkpt lat="46.72944" lon="4.79741">
        <ele>184.39999389648</ele>
        <time>2024-05-20T06:50:30.000Z</time>
      </trkpt>
      <trkpt lat="46.72938" lon="4.79737">
        <ele>184.39999389648</ele>
        <time>2024-05-20T06:50:31.000Z</time>
      </trkpt>
      <trkpt lat="46.72933" lon="4.79734">
        <ele>184.39999389648</ele>
        <time>2024-05-20T06:50:32.000Z</time>
      </trkpt>
      <trkpt lat="46.72927" lon="4.7973">
        <ele>184.39999389648</ele>
        <time>2024-05-20T06:50:33.000Z</time>
      </trkpt>
      <trkpt lat="46.72921" lon="4.79727">
        <ele>184.39999389648</ele>
        <time>2024-05-20T06:50:34.000Z</time>
      </trkpt>
      <trkpt lat="46.72916" lon="4.79724">
        <ele>184.39999389648</ele>
        <time>2024-05-20T06:50:35.000Z</time>
      </trkpt>
      <trkpt lat="46.7291" lon="4.7972">
        <ele>184.60000610352</ele>
        <time>2024-05-20T06:50:36.000Z</time>
      </trkpt>
      <trkpt lat="46.72905" lon="4.79717">
        <ele>184.80000305176</ele>
        <time>2024-05-20T06:50:37.000Z</time>
      </trkpt>
      <trkpt lat="46.729" lon="4.79714">
        <ele>185.19999694824</ele>
        <time>2024-05-20T06:50:38.000Z</time>
      </trkpt>
      <trkpt lat="46.72894" lon="4.79711">
        <ele>185.19999694824</ele>
        <time>2024-05-20T06:50:39.000Z</time>
      </trkpt>
      <trkpt lat="46.72889" lon="4.79707">
        <ele>185.19999694824</ele>
        <time>2024-05-20T06:50:40.000Z</time>
      </trkpt>
      <trkpt lat="46.72884" lon="4.79704">
        <ele>185.19999694824</ele>
        <time>2024-05-20T06:50:41.000Z</time>
      </trkpt>
      <trkpt lat="46.72879" lon="4.79701">
        <ele>185.39999389648</ele>
        <time>2024-05-20T06:50:42.000Z</time>
      </trkpt>
      <trkpt lat="46.72874" lon="4.79698">
        <ele>185.39999389648</ele>
        <time>2024-05-20T06:50:43.000Z</time>
      </trkpt>
      <trkpt lat="46.72869" lon="4.79695">
        <ele>185.60000610352</ele>
        <time>2024-05-20T06:50:44.000Z</time>
      </trkpt>
      <trkpt lat="46.72864" lon="4.79691">
        <ele>185.60000610352</ele>
        <time>2024-05-20T06:50:45.000Z</time>
      </trkpt>
      <trkpt lat="46.72859" lon="4.79688">
        <ele>185.80000305176</ele>
        <time>2024-05-20T06:50:46.000Z</time>
      </trkpt>
      <trkpt lat="46.72854" lon="4.79685">
        <ele>185.80000305176</ele>
        <time>2024-05-20T06:50:47.000Z</time>
      </trkpt>
      <trkpt lat="46.72849" lon="4.79682">
        <ele>186</ele>
        <time>2024-05-20T06:50:48.000Z</time>
      </trkpt>
      <trkpt lat="46.72845" lon="4.79678">
        <ele>186.19999694824</ele>
        <time>2024-05-20T06:50:49.000Z</time>
      </trkpt>
      <trkpt lat="46.7284" lon="4.79675">
        <ele>186.19999694824</ele>
        <time>2024-05-20T06:50:50.000Z</time>
      </trkpt>
      <trkpt lat="46.72835" lon="4.7967">
        <ele>186.19999694824</ele>
        <time>2024-05-20T06:50:51.000Z</time>
      </trkpt>
      <trkpt lat="46.72831" lon="4.79666">
        <ele>186.39999389648</ele>
        <time>2024-05-20T06:50:52.000Z</time>
      </trkpt>
      <trkpt lat="46.72826" lon="4.79662">
        <ele>186.39999389648</ele>
        <time>2024-05-20T06:50:53.000Z</time>
      </trkpt>
      <trkpt lat="46.72822" lon="4.79658">
        <ele>186.60000610352</ele>
        <time>2024-05-20T06:50:54.000Z</time>
      </trkpt>
      <trkpt lat="46.72818" lon="4.79654">
        <ele>186.80000305176</ele>
        <time>2024-05-20T06:50:55.000Z</time>
      </trkpt>
      <trkpt lat="46.72814" lon="4.7965">
        <ele>187</ele>
        <time>2024-05-20T06:50:56.000Z</time>
      </trkpt>
      <trkpt lat="46.72811" lon="4.79645">
        <ele>187.19999694824</ele>
        <time>2024-05-20T06:50:57.000Z</time>
      </trkpt>
      <trkpt lat="46.72807" lon="4.7964">
        <ele>187.39999389648</ele>
        <time>2024-05-20T06:50:58.000Z</time>
      </trkpt>
      <trkpt lat="46.72802" lon="4.79636">
        <ele>187.39999389648</ele>
        <time>2024-05-20T06:50:59.000Z</time>
      </trkpt>
      <trkpt lat="46.72798" lon="4.79631">
        <ele>187.60000610352</ele>
        <time>2024-05-20T06:51:00.000Z</time>
      </trkpt>
      <trkpt lat="46.72794" lon="4.79626">
        <ele>187.60000610352</ele>
        <time>2024-05-20T06:51:01.000Z</time>
      </trkpt>
      <trkpt lat="46.7279" lon="4.79622">
        <ele>187.60000610352</ele>
        <time>2024-05-20T06:51:02.000Z</time>
      </trkpt>
      <trkpt lat="46.72786" lon="4.79617">
        <ele>187.80000305176</ele>
        <time>2024-05-20T06:51:03.000Z</time>
      </trkpt>
      <trkpt lat="46.72782" lon="4.79613">
        <ele>188</ele>
        <time>2024-05-20T06:51:04.000Z</time>
      </trkpt>
      <trkpt lat="46.72778" lon="4.79608">
        <ele>188</ele>
        <time>2024-05-20T06:51:05.000Z</time>
      </trkpt>
      <trkpt lat="46.72774" lon="4.79603">
        <ele>188.19999694824</ele>
        <time>2024-05-20T06:51:06.000Z</time>
      </trkpt>
      <trkpt lat="46.7277" lon="4.79598">
        <ele>188.39999389648</ele>
        <time>2024-05-20T06:51:07.000Z</time>
      </trkpt>
      <trkpt lat="46.72766" lon="4.79594">
        <ele>188.39999389648</ele>
        <time>2024-05-20T06:51:08.000Z</time>
      </trkpt>
      <trkpt lat="46.72762" lon="4.79589">
        <ele>188.60000610352</ele>
        <time>2024-05-20T06:51:09.000Z</time>
      </trkpt>
      <trkpt lat="46.72758" lon="4.79585">
        <ele>188.60000610352</ele>
        <time>2024-05-20T06:51:10.000Z</time>
      </trkpt>
      <trkpt lat="46.72754" lon="4.79581">
        <ele>188.80000305176</ele>
        <time>2024-05-20T06:51:11.000Z</time>
      </trkpt>
      <trkpt lat="46.7275" lon="4.79576">
        <ele>188.80000305176</ele>
        <time>2024-05-20T06:51:12.000Z</time>
      </trkpt>
      <trkpt lat="46.72746" lon="4.79572">
        <ele>189</ele>
        <time>2024-05-20T06:51:13.000Z</time>
      </trkpt>
      <trkpt lat="46.72742" lon="4.79567">
        <ele>189.19999694824</ele>
        <time>2024-05-20T06:51:14.000Z</time>
      </trkpt>
      <trkpt lat="46.72738" lon="4.79562">
        <ele>189.19999694824</ele>
        <time>2024-05-20T06:51:15.000Z</time>
      </trkpt>
      <trkpt lat="46.72734" lon="4.79557">
        <ele>189.39999389648</ele>
        <time>2024-05-20T06:51:16.000Z</time>
      </trkpt>
      <trkpt lat="46.7273" lon="4.79553">
        <ele>189.39999389648</ele>
        <time>2024-05-20T06:51:17.000Z</time>
      </trkpt>
      <trkpt lat="46.72726" lon="4.79548">
        <ele>189.39999389648</ele>
        <time>2024-05-20T06:51:18.000Z</time>
      </trkpt>
      <trkpt lat="46.72721" lon="4.79544">
        <ele>189.60000610352</ele>
        <time>2024-05-20T06:51:19.000Z</time>
      </trkpt>
      <trkpt lat="46.72717" lon="4.7954">
        <ele>189.60000610352</ele>
        <time>2024-05-20T06:51:20.000Z</time>
      </trkpt>
      <trkpt lat="46.72714" lon="4.79536">
        <ele>189.80000305176</ele>
        <time>2024-05-20T06:51:21.000Z</time>
      </trkpt>
      <trkpt lat="46.72709" lon="4.79531">
        <ele>189.80000305176</ele>
        <time>2024-05-20T06:51:22.000Z</time>
      </trkpt>
      <trkpt lat="46.72706" lon="4.79527">
        <ele>189.80000305176</ele>
        <time>2024-05-20T06:51:23.000Z</time>
      </trkpt>
      <trkpt lat="46.72701" lon="4.79523">
        <ele>190</ele>
        <time>2024-05-20T06:51:24.000Z</time>
      </trkpt>
      <trkpt lat="46.72698" lon="4.79518">
        <ele>190.19999694824</ele>
        <time>2024-05-20T06:51:25.000Z</time>
      </trkpt>
      <trkpt lat="46.72694" lon="4.79514">
        <ele>190.19999694824</ele>
        <time>2024-05-20T06:51:26.000Z</time>
      </trkpt>
      <trkpt lat="46.7269" lon="4.79509">
        <ele>190.39999389648</ele>
        <time>2024-05-20T06:51:27.000Z</time>
      </trkpt>
      <trkpt lat="46.72686" lon="4.79504">
        <ele>190.39999389648</ele>
        <time>2024-05-20T06:51:28.000Z</time>
      </trkpt>
      <trkpt lat="46.72682" lon="4.79499">
        <ele>190.39999389648</ele>
        <time>2024-05-20T06:51:29.000Z</time>
      </trkpt>
      <trkpt lat="46.72677" lon="4.79495">
        <ele>190.39999389648</ele>
        <time>2024-05-20T06:51:30.000Z</time>
      </trkpt>
      <trkpt lat="46.72673" lon="4.7949">
        <ele>190.60000610352</ele>
        <time>2024-05-20T06:51:31.000Z</time>
      </trkpt>
      <trkpt lat="46.72669" lon="4.79485">
        <ele>190.60000610352</ele>
        <time>2024-05-20T06:51:32.000Z</time>
      </trkpt>
      <trkpt lat="46.72665" lon="4.79481">
        <ele>190.60000610352</ele>
        <time>2024-05-20T06:51:33.000Z</time>
      </trkpt>
      <trkpt lat="46.72661" lon="4.79476">
        <ele>190.80000305176</ele>
        <time>2024-05-20T06:51:34.000Z</time>
      </trkpt>
      <trkpt lat="46.72657" lon="4.79471">
        <ele>190.80000305176</ele>
        <time>2024-05-20T06:51:35.000Z</time>
      </trkpt>
      <trkpt lat="46.72653" lon="4.79467">
        <ele>190.80000305176</ele>
        <time>2024-05-20T06:51:36.000Z</time>
      </trkpt>
      <trkpt lat="46.72648" lon="4.79462">
        <ele>191</ele>
        <time>2024-05-20T06:51:37.000Z</time>
      </trkpt>
      <trkpt lat="46.72644" lon="4.79457">
        <ele>191</ele>
        <time>2024-05-20T06:51:38.000Z</time>
      </trkpt>
      <trkpt lat="46.7264" lon="4.79452">
        <ele>191.19999694824</ele>
        <time>2024-05-20T06:51:39.000Z</time>
      </trkpt>
      <trkpt lat="46.72636" lon="4.79448">
        <ele>191.19999694824</ele>
        <time>2024-05-20T06:51:40.000Z</time>
      </trkpt>
      <trkpt lat="46.72632" lon="4.79443">
        <ele>191.19999694824</ele>
        <time>2024-05-20T06:51:41.000Z</time>
      </trkpt>
      <trkpt lat="46.72627" lon="4.79438">
        <ele>191.39999389648</ele>
        <time>2024-05-20T06:51:42.000Z</time>
      </trkpt>
      <trkpt lat="46.72623" lon="4.79434">
        <ele>191.39999389648</ele>
        <time>2024-05-20T06:51:43.000Z</time>
      </trkpt>
      <trkpt lat="46.72619" lon="4.79429">
        <ele>191.39999389648</ele>
        <time>2024-05-20T06:51:44.000Z</time>
      </trkpt>
      <trkpt lat="46.72615" lon="4.79424">
        <ele>191.39999389648</ele>
        <time>2024-05-20T06:51:45.000Z</time>
      </trkpt>
      <trkpt lat="46.7261" lon="4.79419">
        <ele>191.60000610352</ele>
        <time>2024-05-20T06:51:46.000Z</time>
      </trkpt>
      <trkpt lat="46.72606" lon="4.79414">
        <ele>191.60000610352</ele>
        <time>2024-05-20T06:51:47.000Z</time>
      </trkpt>
      <trkpt lat="46.72601" lon="4.79409">
        <ele>191.80000305176</ele>
        <time>2024-05-20T06:51:48.000Z</time>
      </trkpt>
      <trkpt lat="46.72597" lon="4.79404">
        <ele>191.80000305176</ele>
        <time>2024-05-20T06:51:49.000Z</time>
      </trkpt>
      <trkpt lat="46.72592" lon="4.79399">
        <ele>191.80000305176</ele>
        <time>2024-05-20T06:51:50.000Z</time>
      </trkpt>
      <trkpt lat="46.72588" lon="4.79394">
        <ele>191.80000305176</ele>
        <time>2024-05-20T06:51:51.000Z</time>
      </trkpt>
      <trkpt lat="46.72583" lon="4.79389">
        <ele>192</ele>
        <time>2024-05-20T06:51:52.000Z</time>
      </trkpt>
      <trkpt lat="46.72579" lon="4.79384">
        <ele>192</ele>
        <time>2024-05-20T06:51:53.000Z</time>
      </trkpt>
      <trkpt lat="46.72575" lon="4.79379">
        <ele>192</ele>
        <time>2024-05-20T06:51:54.000Z</time>
      </trkpt>
      <trkpt lat="46.7257" lon="4.79374">
        <ele>192</ele>
        <time>2024-05-20T06:51:55.000Z</time>
      </trkpt>
      <trkpt lat="46.72566" lon="4.79369">
        <ele>191.80000305176</ele>
        <time>2024-05-20T06:51:56.000Z</time>
      </trkpt>
      <trkpt lat="46.72561" lon="4.79364">
        <ele>191.80000305176</ele>
        <time>2024-05-20T06:51:57.000Z</time>
      </trkpt>
      <trkpt lat="46.72557" lon="4.79358">
        <ele>191.80000305176</ele>
        <time>2024-05-20T06:51:58.000Z</time>
      </trkpt>
      <trkpt lat="46.72552" lon="4.79353">
        <ele>191.80000305176</ele>
        <time>2024-05-20T06:51:59.000Z</time>
      </trkpt>
      <trkpt lat="46.72548" lon="4.79347">
        <ele>191.80000305176</ele>
        <time>2024-05-20T06:52:00.000Z</time>
      </trkpt>
      <trkpt lat="46.72543" lon="4.79342">
        <ele>191.60000610352</ele>
        <time>2024-05-20T06:52:01.000Z</time>
      </trkpt>
      <trkpt lat="46.72538" lon="4.79337">
        <ele>191.60000610352</ele>
        <time>2024-05-20T06:52:02.000Z</time>
      </trkpt>
      <trkpt lat="46.72533" lon="4.79331">
        <ele>191.60000610352</ele>
        <time>2024-05-20T06:52:03.000Z</time>
      </trkpt>
      <trkpt lat="46.72529" lon="4.79325">
        <ele>191.39999389648</ele>
        <time>2024-05-20T06:52:04.000Z</time>
      </trkpt>
      <trkpt lat="46.72523" lon="4.7932">
        <ele>191.39999389648</ele>
        <time>2024-05-20T06:52:05.000Z</time>
      </trkpt>
      <trkpt lat="46.72518" lon="4.79314">
        <ele>191.39999389648</ele>
        <time>2024-05-20T06:52:06.000Z</time>
      </trkpt>
      <trkpt lat="46.72513" lon="4.79308">
        <ele>191.39999389648</ele>
        <time>2024-05-20T06:52:07.000Z</time>
      </trkpt>
      <trkpt lat="46.72508" lon="4.79303">
        <ele>191.39999389648</ele>
        <time>2024-05-20T06:52:08.000Z</time>
      </trkpt>
      <trkpt lat="46.72503" lon="4.79297">
        <ele>191.19999694824</ele>
        <time>2024-05-20T06:52:09.000Z</time>
      </trkpt>
      <trkpt lat="46.72498" lon="4.79291">
        <ele>191.19999694824</ele>
        <time>2024-05-20T06:52:10.000Z</time>
      </trkpt>
      <trkpt lat="46.72492" lon="4.79285">
        <ele>191</ele>
        <time>2024-05-20T06:52:11.000Z</time>
      </trkpt>
      <trkpt lat="46.72487" lon="4.79278">
        <ele>191</ele>
        <time>2024-05-20T06:52:12.000Z</time>
      </trkpt>
      <trkpt lat="46.72481" lon="4.79272">
        <ele>190.80000305176</ele>
        <time>2024-05-20T06:52:13.000Z</time>
      </trkpt>
      <trkpt lat="46.72476" lon="4.79266">
        <ele>190.60000610352</ele>
        <time>2024-05-20T06:52:14.000Z</time>
      </trkpt>
      <trkpt lat="46.7247" lon="4.7926">
        <ele>190.39999389648</ele>
        <time>2024-05-20T06:52:15.000Z</time>
      </trkpt>
      <trkpt lat="46.72465" lon="4.79254">
        <ele>190.39999389648</ele>
        <time>2024-05-20T06:52:16.000Z</time>
      </trkpt>
      <trkpt lat="46.7246" lon="4.79247">
        <ele>190.19999694824</ele>
        <time>2024-05-20T06:52:17.000Z</time>
      </trkpt>
      <trkpt lat="46.72454" lon="4.79241">
        <ele>190.19999694824</ele>
        <time>2024-05-20T06:52:18.000Z</time>
      </trkpt>
      <trkpt lat="46.72449" lon="4.79235">
        <ele>190.19999694824</ele>
        <time>2024-05-20T06:52:19.000Z</time>
      </trkpt>
      <trkpt lat="46.72444" lon="4.79229">
        <ele>190</ele>
        <time>2024-05-20T06:52:20.000Z</time>
      </trkpt>
      <trkpt lat="46.72438" lon="4.79223">
        <ele>190</ele>
        <time>2024-05-20T06:52:21.000Z</time>
      </trkpt>
      <trkpt lat="46.72433" lon="4.79217">
        <ele>190</ele>
        <time>2024-05-20T06:52:22.000Z</time>
      </trkpt>
      <trkpt lat="46.72427" lon="4.7921">
        <ele>189.80000305176</ele>
        <time>2024-05-20T06:52:23.000Z</time>
      </trkpt>
      <trkpt lat="46.72422" lon="4.79204">
        <ele>189.80000305176</ele>
        <time>2024-05-20T06:52:24.000Z</time>
      </trkpt>
      <trkpt lat="46.72416" lon="4.79198">
        <ele>189.80000305176</ele>
        <time>2024-05-20T06:52:25.000Z</time>
      </trkpt>
      <trkpt lat="46.7241" lon="4.79191">
        <ele>189.80000305176</ele>
        <time>2024-05-20T06:52:26.000Z</time>
      </trkpt>
      <trkpt lat="46.72405" lon="4.79185">
        <ele>189.60000610352</ele>
        <time>2024-05-20T06:52:27.000Z</time>
      </trkpt>
      <trkpt lat="46.72399" lon="4.79179">
        <ele>189.60000610352</ele>
        <time>2024-05-20T06:52:28.000Z</time>
      </trkpt>
      <trkpt lat="46.72393" lon="4.79172">
        <ele>189.60000610352</ele>
        <time>2024-05-20T06:52:29.000Z</time>
      </trkpt>
      <trkpt lat="46.72388" lon="4.79165">
        <ele>189.39999389648</ele>
        <time>2024-05-20T06:52:30.000Z</time>
      </trkpt>
      <trkpt lat="46.72382" lon="4.79159">
        <ele>189.39999389648</ele>
        <time>2024-05-20T06:52:31.000Z</time>
      </trkpt>
      <trkpt lat="46.72376" lon="4.79153">
        <ele>189.19999694824</ele>
        <time>2024-05-20T06:52:32.000Z</time>
      </trkpt>
      <trkpt lat="46.7237" lon="4.79146">
        <ele>189.19999694824</ele>
        <time>2024-05-20T06:52:33.000Z</time>
      </trkpt>
      <trkpt lat="46.72364" lon="4.7914">
        <ele>189.19999694824</ele>
        <time>2024-05-20T06:52:34.000Z</time>
      </trkpt>
      <trkpt lat="46.72359" lon="4.79134">
        <ele>189</ele>
        <time>2024-05-20T06:52:35.000Z</time>
      </trkpt>
      <trkpt lat="46.72353" lon="4.79127">
        <ele>188.80000305176</ele>
        <time>2024-05-20T06:52:36.000Z</time>
      </trkpt>
      <trkpt lat="46.72347" lon="4.79121">
        <ele>188.80000305176</ele>
        <time>2024-05-20T06:52:37.000Z</time>
      </trkpt>
      <trkpt lat="46.72342" lon="4.79114">
        <ele>188.80000305176</ele>
        <time>2024-05-20T06:52:38.000Z</time>
      </trkpt>
      <trkpt lat="46.72336" lon="4.79108">
        <ele>188.60000610352</ele>
        <time>2024-05-20T06:52:39.000Z</time>
      </trkpt>
      <trkpt lat="46.7233" lon="4.79101">
        <ele>188.60000610352</ele>
        <time>2024-05-20T06:52:40.000Z</time>
      </trkpt>
      <trkpt lat="46.72325" lon="4.79095">
        <ele>188.39999389648</ele>
        <time>2024-05-20T06:52:41.000Z</time>
      </trkpt>
      <trkpt lat="46.72319" lon="4.79089">
        <ele>188.39999389648</ele>
        <time>2024-05-20T06:52:42.000Z</time>
      </trkpt>
      <trkpt lat="46.72313" lon="4.79082">
        <ele>188.39999389648</ele>
        <time>2024-05-20T06:52:43.000Z</time>
      </trkpt>
      <trkpt lat="46.72307" lon="4.79076">
        <ele>188.19999694824</ele>
        <time>2024-05-20T06:52:44.000Z</time>
      </trkpt>
      <trkpt lat="46.72302" lon="4.79069">
        <ele>188.19999694824</ele>
        <time>2024-05-20T06:52:45.000Z</time>
      </trkpt>
      <trkpt lat="46.72296" lon="4.79062">
        <ele>188</ele>
        <time>2024-05-20T06:52:46.000Z</time>
      </trkpt>
      <trkpt lat="46.7229" lon="4.79056">
        <ele>188</ele>
        <time>2024-05-20T06:52:47.000Z</time>
      </trkpt>
      <trkpt lat="46.72284" lon="4.79049">
        <ele>187.80000305176</ele>
        <time>2024-05-20T06:52:48.000Z</time>
      </trkpt>
      <trkpt lat="46.72278" lon="4.79042">
        <ele>187.60000610352</ele>
        <time>2024-05-20T06:52:49.000Z</time>
      </trkpt>
      <trkpt lat="46.72272" lon="4.79035">
        <ele>187.60000610352</ele>
        <time>2024-05-20T06:52:50.000Z</time>
      </trkpt>
      <trkpt lat="46.72267" lon="4.79029">
        <ele>187.60000610352</ele>
        <time>2024-05-20T06:52:51.000Z</time>
      </trkpt>
      <trkpt lat="46.72261" lon="4.79022">
        <ele>187.39999389648</ele>
        <time>2024-05-20T06:52:52.000Z</time>
      </trkpt>
      <trkpt lat="46.72255" lon="4.79016">
        <ele>187.39999389648</ele>
        <time>2024-05-20T06:52:53.000Z</time>
      </trkpt>
      <trkpt lat="46.72249" lon="4.79009">
        <ele>187.19999694824</ele>
        <time>2024-05-20T06:52:54.000Z</time>
      </trkpt>
      <trkpt lat="46.72244" lon="4.79003">
        <ele>187.19999694824</ele>
        <time>2024-05-20T06:52:55.000Z</time>
      </trkpt>
      <trkpt lat="46.72238" lon="4.78997">
        <ele>187</ele>
        <time>2024-05-20T06:52:56.000Z</time>
      </trkpt>
      <trkpt lat="46.72232" lon="4.78991">
        <ele>187</ele>
        <time>2024-05-20T06:52:57.000Z</time>
      </trkpt>
      <trkpt lat="46.72226" lon="4.78986">
        <ele>187</ele>
        <time>2024-05-20T06:52:58.000Z</time>
      </trkpt>
      <trkpt lat="46.72219" lon="4.7898">
        <ele>187</ele>
        <time>2024-05-20T06:52:59.000Z</time>
      </trkpt>
      <trkpt lat="46.72213" lon="4.78976">
        <ele>187</ele>
        <time>2024-05-20T06:53:00.000Z</time>
      </trkpt>
      <trkpt lat="46.72207" lon="4.78971">
        <ele>187</ele>
        <time>2024-05-20T06:53:01.000Z</time>
      </trkpt>
      <trkpt lat="46.72201" lon="4.78966">
        <ele>187</ele>
        <time>2024-05-20T06:53:02.000Z</time>
      </trkpt>
      <trkpt lat="46.72195" lon="4.78962">
        <ele>186.80000305176</ele>
        <time>2024-05-20T06:53:03.000Z</time>
      </trkpt>
      <trkpt lat="46.72188" lon="4.78957">
        <ele>186.80000305176</ele>
        <time>2024-05-20T06:53:04.000Z</time>
      </trkpt>
      <trkpt lat="46.72182" lon="4.78952">
        <ele>186.80000305176</ele>
        <time>2024-05-20T06:53:05.000Z</time>
      </trkpt>
      <trkpt lat="46.72176" lon="4.78948">
        <ele>186.80000305176</ele>
        <time>2024-05-20T06:53:06.000Z</time>
      </trkpt>
      <trkpt lat="46.7217" lon="4.78944">
        <ele>186.80000305176</ele>
        <time>2024-05-20T06:53:07.000Z</time>
      </trkpt>
      <trkpt lat="46.72163" lon="4.78939">
        <ele>186.80000305176</ele>
        <time>2024-05-20T06:53:08.000Z</time>
      </trkpt>
      <trkpt lat="46.72157" lon="4.78935">
        <ele>186.80000305176</ele>
        <time>2024-05-20T06:53:09.000Z</time>
      </trkpt>
      <trkpt lat="46.72151" lon="4.78931">
        <ele>186.80000305176</ele>
        <time>2024-05-20T06:53:10.000Z</time>
      </trkpt>
      <trkpt lat="46.72145" lon="4.78926">
        <ele>186.80000305176</ele>
        <time>2024-05-20T06:53:11.000Z</time>
      </trkpt>
      <trkpt lat="46.72138" lon="4.78922">
        <ele>187</ele>
        <time>2024-05-20T06:53:12.000Z</time>
      </trkpt>
      <trkpt lat="46.72132" lon="4.78917">
        <ele>186.80000305176</ele>
        <time>2024-05-20T06:53:13.000Z</time>
      </trkpt>
      <trkpt lat="46.72126" lon="4.78913">
        <ele>186.60000610352</ele>
        <time>2024-05-20T06:53:14.000Z</time>
      </trkpt>
      <trkpt lat="46.7212" lon="4.78908">
        <ele>186.60000610352</ele>
        <time>2024-05-20T06:53:15.000Z</time>
      </trkpt>
      <trkpt lat="46.72113" lon="4.78904">
        <ele>186.60000610352</ele>
        <time>2024-05-20T06:53:16.000Z</time>
      </trkpt>
      <trkpt lat="46.72107" lon="4.78899">
        <ele>186.60000610352</ele>
        <time>2024-05-20T06:53:17.000Z</time>
      </trkpt>
      <trkpt lat="46.72101" lon="4.78895">
        <ele>186.60000610352</ele>
        <time>2024-05-20T06:53:18.000Z</time>
      </trkpt>
      <trkpt lat="46.72095" lon="4.78891">
        <ele>186.60000610352</ele>
        <time>2024-05-20T06:53:19.000Z</time>
      </trkpt>
      <trkpt lat="46.72089" lon="4.78886">
        <ele>186.60000610352</ele>
        <time>2024-05-20T06:53:20.000Z</time>
      </trkpt>
      <trkpt lat="46.72083" lon="4.78882">
        <ele>186.60000610352</ele>
        <time>2024-05-20T06:53:21.000Z</time>
      </trkpt>
      <trkpt lat="46.72077" lon="4.78878">
        <ele>186.60000610352</ele>
        <time>2024-05-20T06:53:22.000Z</time>
      </trkpt>
      <trkpt lat="46.72071" lon="4.78874">
        <ele>186.39999389648</ele>
        <time>2024-05-20T06:53:23.000Z</time>
      </trkpt>
      <trkpt lat="46.72065" lon="4.7887">
        <ele>186.39999389648</ele>
        <time>2024-05-20T06:53:24.000Z</time>
      </trkpt>
      <trkpt lat="46.72059" lon="4.78866">
        <ele>186.39999389648</ele>
        <time>2024-05-20T06:53:25.000Z</time>
      </trkpt>
      <trkpt lat="46.72053" lon="4.78861">
        <ele>186.39999389648</ele>
        <time>2024-05-20T06:53:26.000Z</time>
      </trkpt>
      <trkpt lat="46.72047" lon="4.78857">
        <ele>186.39999389648</ele>
        <time>2024-05-20T06:53:27.000Z</time>
      </trkpt>
      <trkpt lat="46.72041" lon="4.78852">
        <ele>186.19999694824</ele>
        <time>2024-05-20T06:53:28.000Z</time>
      </trkpt>
      <trkpt lat="46.72035" lon="4.78848">
        <ele>186.19999694824</ele>
        <time>2024-05-20T06:53:29.000Z</time>
      </trkpt>
      <trkpt lat="46.72029" lon="4.78843">
        <ele>186.19999694824</ele>
        <time>2024-05-20T06:53:30.000Z</time>
      </trkpt>
      <trkpt lat="46.72023" lon="4.7884">
        <ele>186.19999694824</ele>
        <time>2024-05-20T06:53:31.000Z</time>
      </trkpt>
      <trkpt lat="46.72017" lon="4.78835">
        <ele>186.19999694824</ele>
        <time>2024-05-20T06:53:32.000Z</time>
      </trkpt>
      <trkpt lat="46.72011" lon="4.78831">
        <ele>186.19999694824</ele>
        <time>2024-05-20T06:53:33.000Z</time>
      </trkpt>
      <trkpt lat="46.72005" lon="4.78827">
        <ele>186.19999694824</ele>
        <time>2024-05-20T06:53:34.000Z</time>
      </trkpt>
      <trkpt lat="46.71999" lon="4.78822">
        <ele>186.19999694824</ele>
        <time>2024-05-20T06:53:35.000Z</time>
      </trkpt>
      <trkpt lat="46.71993" lon="4.78818">
        <ele>186.19999694824</ele>
        <time>2024-05-20T06:53:36.000Z</time>
      </trkpt>
      <trkpt lat="46.71987" lon="4.78814">
        <ele>186.19999694824</ele>
        <time>2024-05-20T06:53:37.000Z</time>
      </trkpt>
      <trkpt lat="46.71981" lon="4.7881">
        <ele>186.19999694824</ele>
        <time>2024-05-20T06:53:38.000Z</time>
      </trkpt>
      <trkpt lat="46.71975" lon="4.78806">
        <ele>186.19999694824</ele>
        <time>2024-05-20T06:53:39.000Z</time>
      </trkpt>
      <trkpt lat="46.7197" lon="4.78802">
        <ele>186.19999694824</ele>
        <time>2024-05-20T06:53:40.000Z</time>
      </trkpt>
      <trkpt lat="46.71964" lon="4.78797">
        <ele>186.19999694824</ele>
        <time>2024-05-20T06:53:41.000Z</time>
      </trkpt>
      <trkpt lat="46.71958" lon="4.78793">
        <ele>186.19999694824</ele>
        <time>2024-05-20T06:53:42.000Z</time>
      </trkpt>
      <trkpt lat="46.71952" lon="4.78788">
        <ele>186.19999694824</ele>
        <time>2024-05-20T06:53:43.000Z</time>
      </trkpt>
      <trkpt lat="46.71947" lon="4.78783">
        <ele>186.19999694824</ele>
        <time>2024-05-20T06:53:44.000Z</time>
      </trkpt>
      <trkpt lat="46.71942" lon="4.78778">
        <ele>186.19999694824</ele>
        <time>2024-05-20T06:53:45.000Z</time>
      </trkpt>
      <trkpt lat="46.71936" lon="4.78773">
        <ele>186.19999694824</ele>
        <time>2024-05-20T06:53:46.000Z</time>
      </trkpt>
      <trkpt lat="46.71931" lon="4.78767">
        <ele>186</ele>
        <time>2024-05-20T06:53:47.000Z</time>
      </trkpt>
      <trkpt lat="46.71926" lon="4.78761">
        <ele>186</ele>
        <time>2024-05-20T06:53:48.000Z</time>
      </trkpt>
      <trkpt lat="46.71921" lon="4.78754">
        <ele>186</ele>
        <time>2024-05-20T06:53:49.000Z</time>
      </trkpt>
      <trkpt lat="46.71917" lon="4.78748">
        <ele>186</ele>
        <time>2024-05-20T06:53:50.000Z</time>
      </trkpt>
      <trkpt lat="46.71912" lon="4.78741">
        <ele>186</ele>
        <time>2024-05-20T06:53:51.000Z</time>
      </trkpt>
      <trkpt lat="46.71908" lon="4.78734">
        <ele>186</ele>
        <time>2024-05-20T06:53:52.000Z</time>
      </trkpt>
      <trkpt lat="46.71903" lon="4.78727">
        <ele>186</ele>
        <time>2024-05-20T06:53:53.000Z</time>
      </trkpt>
      <trkpt lat="46.71899" lon="4.7872">
        <ele>186</ele>
        <time>2024-05-20T06:53:54.000Z</time>
      </trkpt>
      <trkpt lat="46.71895" lon="4.78713">
        <ele>186</ele>
        <time>2024-05-20T06:53:55.000Z</time>
      </trkpt>
      <trkpt lat="46.71891" lon="4.78706">
        <ele>186</ele>
        <time>2024-05-20T06:53:56.000Z</time>
      </trkpt>
      <trkpt lat="46.71887" lon="4.78699">
        <ele>186.19999694824</ele>
        <time>2024-05-20T06:53:57.000Z</time>
      </trkpt>
      <trkpt lat="46.71883" lon="4.78692">
        <ele>186.19999694824</ele>
        <time>2024-05-20T06:53:58.000Z</time>
      </trkpt>
      <trkpt lat="46.71879" lon="4.78685">
        <ele>186.19999694824</ele>
        <time>2024-05-20T06:53:59.000Z</time>
      </trkpt>
      <trkpt lat="46.71875" lon="4.78677">
        <ele>186.19999694824</ele>
        <time>2024-05-20T06:54:00.000Z</time>
      </trkpt>
      <trkpt lat="46.71871" lon="4.7867">
        <ele>186.19999694824</ele>
        <time>2024-05-20T06:54:01.000Z</time>
      </trkpt>
      <trkpt lat="46.71867" lon="4.78663">
        <ele>186.19999694824</ele>
        <time>2024-05-20T06:54:02.000Z</time>
      </trkpt>
      <trkpt lat="46.71863" lon="4.78656">
        <ele>186.19999694824</ele>
        <time>2024-05-20T06:54:03.000Z</time>
      </trkpt>
      <trkpt lat="46.71859" lon="4.78648">
        <ele>186.19999694824</ele>
        <time>2024-05-20T06:54:04.000Z</time>
      </trkpt>
      <trkpt lat="46.71855" lon="4.78641">
        <ele>186.19999694824</ele>
        <time>2024-05-20T06:54:05.000Z</time>
      </trkpt>
      <trkpt lat="46.71851" lon="4.78634">
        <ele>186.19999694824</ele>
        <time>2024-05-20T06:54:06.000Z</time>
      </trkpt>
      <trkpt lat="46.71846" lon="4.78627">
        <ele>186.19999694824</ele>
        <time>2024-05-20T06:54:07.000Z</time>
      </trkpt>
      <trkpt lat="46.71842" lon="4.7862">
        <ele>186.19999694824</ele>
        <time>2024-05-20T06:54:08.000Z</time>
      </trkpt>
      <trkpt lat="46.71838" lon="4.78613">
        <ele>186.19999694824</ele>
        <time>2024-05-20T06:54:09.000Z</time>
      </trkpt>
      <trkpt lat="46.71834" lon="4.78606">
        <ele>186.19999694824</ele>
        <time>2024-05-20T06:54:10.000Z</time>
      </trkpt>
      <trkpt lat="46.7183" lon="4.78598">
        <ele>186.19999694824</ele>
        <time>2024-05-20T06:54:11.000Z</time>
      </trkpt>
      <trkpt lat="46.71826" lon="4.78591">
        <ele>186.19999694824</ele>
        <time>2024-05-20T06:54:12.000Z</time>
      </trkpt>
      <trkpt lat="46.71821" lon="4.78584">
        <ele>186.19999694824</ele>
        <time>2024-05-20T06:54:13.000Z</time>
      </trkpt>
      <trkpt lat="46.71817" lon="4.78577">
        <ele>186.19999694824</ele>
        <time>2024-05-20T06:54:14.000Z</time>
      </trkpt>
      <trkpt lat="46.71813" lon="4.7857">
        <ele>186.19999694824</ele>
        <time>2024-05-20T06:54:15.000Z</time>
      </trkpt>
      <trkpt lat="46.71809" lon="4.78562">
        <ele>186.19999694824</ele>
        <time>2024-05-20T06:54:16.000Z</time>
      </trkpt>
      <trkpt lat="46.71805" lon="4.78555">
        <ele>186.19999694824</ele>
        <time>2024-05-20T06:54:17.000Z</time>
      </trkpt>
      <trkpt lat="46.71801" lon="4.78548">
        <ele>186.19999694824</ele>
        <time>2024-05-20T06:54:18.000Z</time>
      </trkpt>
      <trkpt lat="46.71797" lon="4.78541">
        <ele>186</ele>
        <time>2024-05-20T06:54:19.000Z</time>
      </trkpt>
      <trkpt lat="46.71793" lon="4.78534">
        <ele>186</ele>
        <time>2024-05-20T06:54:20.000Z</time>
      </trkpt>
      <trkpt lat="46.71789" lon="4.78527">
        <ele>186</ele>
        <time>2024-05-20T06:54:21.000Z</time>
      </trkpt>
      <trkpt lat="46.71785" lon="4.7852">
        <ele>186</ele>
        <time>2024-05-20T06:54:22.000Z</time>
      </trkpt>
      <trkpt lat="46.71781" lon="4.78513">
        <ele>186</ele>
        <time>2024-05-20T06:54:23.000Z</time>
      </trkpt>
      <trkpt lat="46.71777" lon="4.78505">
        <ele>186.19999694824</ele>
        <time>2024-05-20T06:54:24.000Z</time>
      </trkpt>
      <trkpt lat="46.71773" lon="4.78498">
        <ele>186.19999694824</ele>
        <time>2024-05-20T06:54:25.000Z</time>
      </trkpt>
      <trkpt lat="46.71768" lon="4.78491">
        <ele>186.19999694824</ele>
        <time>2024-05-20T06:54:26.000Z</time>
      </trkpt>
      <trkpt lat="46.71764" lon="4.78484">
        <ele>186.19999694824</ele>
        <time>2024-05-20T06:54:27.000Z</time>
      </trkpt>
      <trkpt lat="46.7176" lon="4.78477">
        <ele>186.19999694824</ele>
        <time>2024-05-20T06:54:28.000Z</time>
      </trkpt>
      <trkpt lat="46.71756" lon="4.7847">
        <ele>186.39999389648</ele>
        <time>2024-05-20T06:54:29.000Z</time>
      </trkpt>
      <trkpt lat="46.71752" lon="4.78463">
        <ele>186.39999389648</ele>
        <time>2024-05-20T06:54:30.000Z</time>
      </trkpt>
      <trkpt lat="46.71748" lon="4.78456">
        <ele>186.39999389648</ele>
        <time>2024-05-20T06:54:31.000Z</time>
      </trkpt>
      <trkpt lat="46.71744" lon="4.78449">
        <ele>186.39999389648</ele>
        <time>2024-05-20T06:54:32.000Z</time>
      </trkpt>
      <trkpt lat="46.7174" lon="4.78442">
        <ele>186.39999389648</ele>
        <time>2024-05-20T06:54:33.000Z</time>
      </trkpt>
      <trkpt lat="46.71736" lon="4.78435">
        <ele>186.39999389648</ele>
        <time>2024-05-20T06:54:34.000Z</time>
      </trkpt>
      <trkpt lat="46.71732" lon="4.78428">
        <ele>186.39999389648</ele>
        <time>2024-05-20T06:54:35.000Z</time>
      </trkpt>
      <trkpt lat="46.71728" lon="4.78421">
        <ele>186.39999389648</ele>
        <time>2024-05-20T06:54:36.000Z</time>
      </trkpt>
      <trkpt lat="46.71724" lon="4.78414">
        <ele>186.39999389648</ele>
        <time>2024-05-20T06:54:37.000Z</time>
      </trkpt>
      <trkpt lat="46.71719" lon="4.78407">
        <ele>186.39999389648</ele>
        <time>2024-05-20T06:54:38.000Z</time>
      </trkpt>
      <trkpt lat="46.71715" lon="4.78401">
        <ele>186.39999389648</ele>
        <time>2024-05-20T06:54:39.000Z</time>
      </trkpt>
      <trkpt lat="46.71712" lon="4.78394">
        <ele>186.39999389648</ele>
        <time>2024-05-20T06:54:40.000Z</time>
      </trkpt>
      <trkpt lat="46.71708" lon="4.78387">
        <ele>186.39999389648</ele>
        <time>2024-05-20T06:54:41.000Z</time>
      </trkpt>
      <trkpt lat="46.71704" lon="4.7838">
        <ele>186.39999389648</ele>
        <time>2024-05-20T06:54:42.000Z</time>
      </trkpt>
      <trkpt lat="46.717" lon="4.78373">
        <ele>186.39999389648</ele>
        <time>2024-05-20T06:54:43.000Z</time>
      </trkpt>
      <trkpt lat="46.71696" lon="4.78366">
        <ele>186.39999389648</ele>
        <time>2024-05-20T06:54:44.000Z</time>
      </trkpt>
      <trkpt lat="46.71692" lon="4.78359">
        <ele>186.60000610352</ele>
        <time>2024-05-20T06:54:45.000Z</time>
      </trkpt>
      <trkpt lat="46.71688" lon="4.78352">
        <ele>186.60000610352</ele>
        <time>2024-05-20T06:54:46.000Z</time>
      </trkpt>
      <trkpt lat="46.71684" lon="4.78344">
        <ele>186.60000610352</ele>
        <time>2024-05-20T06:54:47.000Z</time>
      </trkpt>
      <trkpt lat="46.7168" lon="4.78337">
        <ele>186.60000610352</ele>
        <time>2024-05-20T06:54:48.000Z</time>
      </trkpt>
      <trkpt lat="46.71676" lon="4.7833">
        <ele>186.60000610352</ele>
        <time>2024-05-20T06:54:49.000Z</time>
      </trkpt>
      <trkpt lat="46.71672" lon="4.78324">
        <ele>186.60000610352</ele>
        <time>2024-05-20T06:54:50.000Z</time>
      </trkpt>
      <trkpt lat="46.71668" lon="4.78317">
        <ele>186.60000610352</ele>
        <time>2024-05-20T06:54:51.000Z</time>
      </trkpt>
      <trkpt lat="46.71664" lon="4.7831">
        <ele>186.80000305176</ele>
        <time>2024-05-20T06:54:52.000Z</time>
      </trkpt>
      <trkpt lat="46.7166" lon="4.78304">
        <ele>186.80000305176</ele>
        <time>2024-05-20T06:54:53.000Z</time>
      </trkpt>
      <trkpt lat="46.71656" lon="4.78297">
        <ele>186.80000305176</ele>
        <time>2024-05-20T06:54:54.000Z</time>
      </trkpt>
      <trkpt lat="46.71652" lon="4.7829">
        <ele>187</ele>
        <time>2024-05-20T06:54:55.000Z</time>
      </trkpt>
      <trkpt lat="46.71648" lon="4.78283">
        <ele>187</ele>
        <time>2024-05-20T06:54:56.000Z</time>
      </trkpt>
      <trkpt lat="46.71644" lon="4.78277">
        <ele>187</ele>
        <time>2024-05-20T06:54:57.000Z</time>
      </trkpt>
      <trkpt lat="46.7164" lon="4.7827">
        <ele>187</ele>
        <time>2024-05-20T06:54:58.000Z</time>
      </trkpt>
      <trkpt lat="46.71636" lon="4.78262">
        <ele>187</ele>
        <time>2024-05-20T06:54:59.000Z</time>
      </trkpt>
      <trkpt lat="46.71632" lon="4.78255">
        <ele>187</ele>
        <time>2024-05-20T06:55:00.000Z</time>
      </trkpt>
      <trkpt lat="46.71628" lon="4.78248">
        <ele>187</ele>
        <time>2024-05-20T06:55:01.000Z</time>
      </trkpt>
      <trkpt lat="46.71624" lon="4.78242">
        <ele>187</ele>
        <time>2024-05-20T06:55:02.000Z</time>
      </trkpt>
      <trkpt lat="46.7162" lon="4.78235">
        <ele>187</ele>
        <time>2024-05-20T06:55:03.000Z</time>
      </trkpt>
      <trkpt lat="46.71616" lon="4.78228">
        <ele>187</ele>
        <time>2024-05-20T06:55:04.000Z</time>
      </trkpt>
      <trkpt lat="46.71612" lon="4.78221">
        <ele>187</ele>
        <time>2024-05-20T06:55:05.000Z</time>
      </trkpt>
      <trkpt lat="46.71608" lon="4.78214">
        <ele>187</ele>
        <time>2024-05-20T06:55:06.000Z</time>
      </trkpt>
      <trkpt lat="46.71604" lon="4.78207">
        <ele>187</ele>
        <time>2024-05-20T06:55:07.000Z</time>
      </trkpt>
      <trkpt lat="46.716" lon="4.782">
        <ele>187</ele>
        <time>2024-05-20T06:55:08.000Z</time>
      </trkpt>
      <trkpt lat="46.71596" lon="4.78193">
        <ele>187</ele>
        <time>2024-05-20T06:55:09.000Z</time>
      </trkpt>
      <trkpt lat="46.71592" lon="4.78186">
        <ele>187</ele>
        <time>2024-05-20T06:55:10.000Z</time>
      </trkpt>
      <trkpt lat="46.71588" lon="4.78179">
        <ele>187</ele>
        <time>2024-05-20T06:55:11.000Z</time>
      </trkpt>
      <trkpt lat="46.71584" lon="4.78172">
        <ele>187</ele>
        <time>2024-05-20T06:55:12.000Z</time>
      </trkpt>
      <trkpt lat="46.7158" lon="4.78165">
        <ele>187</ele>
        <time>2024-05-20T06:55:13.000Z</time>
      </trkpt>
      <trkpt lat="46.71576" lon="4.78159">
        <ele>187</ele>
        <time>2024-05-20T06:55:14.000Z</time>
      </trkpt>
      <trkpt lat="46.71572" lon="4.78152">
        <ele>187</ele>
        <time>2024-05-20T06:55:15.000Z</time>
      </trkpt>
      <trkpt lat="46.71568" lon="4.78145">
        <ele>187</ele>
        <time>2024-05-20T06:55:16.000Z</time>
      </trkpt>
      <trkpt lat="46.71563" lon="4.78137">
        <ele>187</ele>
        <time>2024-05-20T06:55:17.000Z</time>
      </trkpt>
      <trkpt lat="46.71559" lon="4.7813">
        <ele>187</ele>
        <time>2024-05-20T06:55:18.000Z</time>
      </trkpt>
      <trkpt lat="46.71555" lon="4.78123">
        <ele>187</ele>
        <time>2024-05-20T06:55:19.000Z</time>
      </trkpt>
      <trkpt lat="46.71551" lon="4.78117">
        <ele>186.80000305176</ele>
        <time>2024-05-20T06:55:20.000Z</time>
      </trkpt>
      <trkpt lat="46.71547" lon="4.7811">
        <ele>186.80000305176</ele>
        <time>2024-05-20T06:55:21.000Z</time>
      </trkpt>
      <trkpt lat="46.71543" lon="4.78103">
        <ele>186.80000305176</ele>
        <time>2024-05-20T06:55:22.000Z</time>
      </trkpt>
      <trkpt lat="46.7154" lon="4.78096">
        <ele>186.80000305176</ele>
        <time>2024-05-20T06:55:23.000Z</time>
      </trkpt>
      <trkpt lat="46.71536" lon="4.78089">
        <ele>186.80000305176</ele>
        <time>2024-05-20T06:55:24.000Z</time>
      </trkpt>
      <trkpt lat="46.71532" lon="4.78082">
        <ele>186.80000305176</ele>
        <time>2024-05-20T06:55:25.000Z</time>
      </trkpt>
      <trkpt lat="46.71528" lon="4.78075">
        <ele>186.80000305176</ele>
        <time>2024-05-20T06:55:26.000Z</time>
      </trkpt>
      <trkpt lat="46.71524" lon="4.78068">
        <ele>187</ele>
        <time>2024-05-20T06:55:27.000Z</time>
      </trkpt>
      <trkpt lat="46.7152" lon="4.78061">
        <ele>187</ele>
        <time>2024-05-20T06:55:28.000Z</time>
      </trkpt>
      <trkpt lat="46.71516" lon="4.78054">
        <ele>187</ele>
        <time>2024-05-20T06:55:29.000Z</time>
      </trkpt>
      <trkpt lat="46.71512" lon="4.78047">
        <ele>187</ele>
        <time>2024-05-20T06:55:30.000Z</time>
      </trkpt>
      <trkpt lat="46.71508" lon="4.78041">
        <ele>187</ele>
        <time>2024-05-20T06:55:31.000Z</time>
      </trkpt>
      <trkpt lat="46.71504" lon="4.78034">
        <ele>187</ele>
        <time>2024-05-20T06:55:32.000Z</time>
      </trkpt>
      <trkpt lat="46.71501" lon="4.78027">
        <ele>187.19999694824</ele>
        <time>2024-05-20T06:55:33.000Z</time>
      </trkpt>
      <trkpt lat="46.71497" lon="4.7802">
        <ele>187.39999389648</ele>
        <time>2024-05-20T06:55:34.000Z</time>
      </trkpt>
      <trkpt lat="46.71492" lon="4.78013">
        <ele>187.39999389648</ele>
        <time>2024-05-20T06:55:35.000Z</time>
      </trkpt>
      <trkpt lat="46.71488" lon="4.78006">
        <ele>187.60000610352</ele>
        <time>2024-05-20T06:55:36.000Z</time>
      </trkpt>
      <trkpt lat="46.71484" lon="4.78">
        <ele>187.60000610352</ele>
        <time>2024-05-20T06:55:37.000Z</time>
      </trkpt>
      <trkpt lat="46.7148" lon="4.77993">
        <ele>187.60000610352</ele>
        <time>2024-05-20T06:55:38.000Z</time>
      </trkpt>
      <trkpt lat="46.71476" lon="4.77986">
        <ele>187.60000610352</ele>
        <time>2024-05-20T06:55:39.000Z</time>
      </trkpt>
      <trkpt lat="46.71472" lon="4.77979">
        <ele>187.60000610352</ele>
        <time>2024-05-20T06:55:40.000Z</time>
      </trkpt>
      <trkpt lat="46.71469" lon="4.77972">
        <ele>187.60000610352</ele>
        <time>2024-05-20T06:55:41.000Z</time>
      </trkpt>
      <trkpt lat="46.71464" lon="4.77965">
        <ele>187.60000610352</ele>
        <time>2024-05-20T06:55:42.000Z</time>
      </trkpt>
      <trkpt lat="46.7146" lon="4.77958">
        <ele>187.60000610352</ele>
        <time>2024-05-20T06:55:43.000Z</time>
      </trkpt>
      <trkpt lat="46.71456" lon="4.77951">
        <ele>187.60000610352</ele>
        <time>2024-05-20T06:55:44.000Z</time>
      </trkpt>
      <trkpt lat="46.71452" lon="4.77945">
        <ele>187.60000610352</ele>
        <time>2024-05-20T06:55:45.000Z</time>
      </trkpt>
      <trkpt lat="46.71449" lon="4.77938">
        <ele>187.60000610352</ele>
        <time>2024-05-20T06:55:46.000Z</time>
      </trkpt>
      <trkpt lat="46.71445" lon="4.77932">
        <ele>187.60000610352</ele>
        <time>2024-05-20T06:55:47.000Z</time>
      </trkpt>
      <trkpt lat="46.71441" lon="4.77925">
        <ele>187.60000610352</ele>
        <time>2024-05-20T06:55:48.000Z</time>
      </trkpt>
      <trkpt lat="46.71437" lon="4.77919">
        <ele>187.60000610352</ele>
        <time>2024-05-20T06:55:49.000Z</time>
      </trkpt>
      <trkpt lat="46.71434" lon="4.77913">
        <ele>187.80000305176</ele>
        <time>2024-05-20T06:55:50.000Z</time>
      </trkpt>
      <trkpt lat="46.7143" lon="4.77907">
        <ele>188</ele>
        <time>2024-05-20T06:55:51.000Z</time>
      </trkpt>
      <trkpt lat="46.71427" lon="4.77901">
        <ele>188</ele>
        <time>2024-05-20T06:55:52.000Z</time>
      </trkpt>
      <trkpt lat="46.71424" lon="4.77896">
        <ele>188.19999694824</ele>
        <time>2024-05-20T06:55:53.000Z</time>
      </trkpt>
      <trkpt lat="46.7142" lon="4.7789">
        <ele>188.39999389648</ele>
        <time>2024-05-20T06:55:54.000Z</time>
      </trkpt>
      <trkpt lat="46.71417" lon="4.77885">
        <ele>188.60000610352</ele>
        <time>2024-05-20T06:55:55.000Z</time>
      </trkpt>
      <trkpt lat="46.71414" lon="4.7788">
        <ele>188.60000610352</ele>
        <time>2024-05-20T06:55:56.000Z</time>
      </trkpt>
      <trkpt lat="46.71411" lon="4.77876">
        <ele>189</ele>
        <time>2024-05-20T06:55:57.000Z</time>
      </trkpt>
      <trkpt lat="46.71407" lon="4.77871">
        <ele>189.19999694824</ele>
        <time>2024-05-20T06:55:58.000Z</time>
      </trkpt>
      <trkpt lat="46.71404" lon="4.77866">
        <ele>189.39999389648</ele>
        <time>2024-05-20T06:55:59.000Z</time>
      </trkpt>
      <trkpt lat="46.71401" lon="4.77862">
        <ele>189.60000610352</ele>
        <time>2024-05-20T06:56:00.000Z</time>
      </trkpt>
      <trkpt lat="46.71397" lon="4.77858">
        <ele>189.80000305176</ele>
        <time>2024-05-20T06:56:01.000Z</time>
      </trkpt>
      <trkpt lat="46.71393" lon="4.77855">
        <ele>190</ele>
        <time>2024-05-20T06:56:02.000Z</time>
      </trkpt>
      <trkpt lat="46.7139" lon="4.77851">
        <ele>190</ele>
        <time>2024-05-20T06:56:03.000Z</time>
      </trkpt>
      <trkpt lat="46.71386" lon="4.77848">
        <ele>190.19999694824</ele>
        <time>2024-05-20T06:56:04.000Z</time>
      </trkpt>
      <trkpt lat="46.71383" lon="4.77844">
        <ele>190.39999389648</ele>
        <time>2024-05-20T06:56:05.000Z</time>
      </trkpt>
      <trkpt lat="46.71379" lon="4.77841">
        <ele>190.60000610352</ele>
        <time>2024-05-20T06:56:06.000Z</time>
      </trkpt>
      <trkpt lat="46.71375" lon="4.77838">
        <ele>190.60000610352</ele>
        <time>2024-05-20T06:56:07.000Z</time>
      </trkpt>
      <trkpt lat="46.71371" lon="4.77835">
        <ele>190.80000305176</ele>
        <time>2024-05-20T06:56:08.000Z</time>
      </trkpt>
      <trkpt lat="46.71367" lon="4.77832">
        <ele>191</ele>
        <time>2024-05-20T06:56:09.000Z</time>
      </trkpt>
      <trkpt lat="46.71364" lon="4.77829">
        <ele>191.19999694824</ele>
        <time>2024-05-20T06:56:10.000Z</time>
      </trkpt>
      <trkpt lat="46.7136" lon="4.77826">
        <ele>191.19999694824</ele>
        <time>2024-05-20T06:56:11.000Z</time>
      </trkpt>
      <trkpt lat="46.71356" lon="4.77823">
        <ele>191.60000610352</ele>
        <time>2024-05-20T06:56:12.000Z</time>
      </trkpt>
      <trkpt lat="46.71352" lon="4.7782">
        <ele>191.60000610352</ele>
        <time>2024-05-20T06:56:13.000Z</time>
      </trkpt>
      <trkpt lat="46.71348" lon="4.77818">
        <ele>192</ele>
        <time>2024-05-20T06:56:14.000Z</time>
      </trkpt>
      <trkpt lat="46.71344" lon="4.77815">
        <ele>192.19999694824</ele>
        <time>2024-05-20T06:56:15.000Z</time>
      </trkpt>
      <trkpt lat="46.71341" lon="4.77813">
        <ele>192.19999694824</ele>
        <time>2024-05-20T06:56:16.000Z</time>
      </trkpt>
      <trkpt lat="46.71336" lon="4.7781">
        <ele>192.60000610352</ele>
        <time>2024-05-20T06:56:17.000Z</time>
      </trkpt>
      <trkpt lat="46.71332" lon="4.77806">
        <ele>192.60000610352</ele>
        <time>2024-05-20T06:56:18.000Z</time>
      </trkpt>
      <trkpt lat="46.71328" lon="4.77803">
        <ele>192.80000305176</ele>
        <time>2024-05-20T06:56:19.000Z</time>
      </trkpt>
      <trkpt lat="46.71324" lon="4.778">
        <ele>193</ele>
        <time>2024-05-20T06:56:20.000Z</time>
      </trkpt>
      <trkpt lat="46.7132" lon="4.77798">
        <ele>193</ele>
        <time>2024-05-20T06:56:21.000Z</time>
      </trkpt>
      <trkpt lat="46.71316" lon="4.77796">
        <ele>193.19999694824</ele>
        <time>2024-05-20T06:56:22.000Z</time>
      </trkpt>
      <trkpt lat="46.71312" lon="4.77793">
        <ele>193.19999694824</ele>
        <time>2024-05-20T06:56:23.000Z</time>
      </trkpt>
      <trkpt lat="46.71308" lon="4.7779">
        <ele>193.19999694824</ele>
        <time>2024-05-20T06:56:24.000Z</time>
      </trkpt>
      <trkpt lat="46.71304" lon="4.77787">
        <ele>193.39999389648</ele>
        <time>2024-05-20T06:56:25.000Z</time>
      </trkpt>
      <trkpt lat="46.713" lon="4.77784">
        <ele>193.39999389648</ele>
        <time>2024-05-20T06:56:26.000Z</time>
      </trkpt>
      <trkpt lat="46.71296" lon="4.77782">
        <ele>193.60000610352</ele>
        <time>2024-05-20T06:56:27.000Z</time>
      </trkpt>
      <trkpt lat="46.71292" lon="4.77779">
        <ele>193.80000305176</ele>
        <time>2024-05-20T06:56:28.000Z</time>
      </trkpt>
      <trkpt lat="46.71288" lon="4.77776">
        <ele>194</ele>
        <time>2024-05-20T06:56:29.000Z</time>
      </trkpt>
      <trkpt lat="46.71284" lon="4.77774">
        <ele>194.19999694824</ele>
        <time>2024-05-20T06:56:30.000Z</time>
      </trkpt>
      <trkpt lat="46.7128" lon="4.77771">
        <ele>194.19999694824</ele>
        <time>2024-05-20T06:56:31.000Z</time>
      </trkpt>
      <trkpt lat="46.71277" lon="4.77768">
        <ele>194.39999389648</ele>
        <time>2024-05-20T06:56:32.000Z</time>
      </trkpt>
      <trkpt lat="46.71273" lon="4.77765">
        <ele>194.60000610352</ele>
        <time>2024-05-20T06:56:33.000Z</time>
      </trkpt>
      <trkpt lat="46.71269" lon="4.77763">
        <ele>194.60000610352</ele>
        <time>2024-05-20T06:56:34.000Z</time>
      </trkpt>
      <trkpt lat="46.71265" lon="4.7776">
        <ele>194.80000305176</ele>
        <time>2024-05-20T06:56:35.000Z</time>
      </trkpt>
      <trkpt lat="46.71261" lon="4.77757">
        <ele>195</ele>
        <time>2024-05-20T06:56:36.000Z</time>
      </trkpt>
      <trkpt lat="46.71257" lon="4.77754">
        <ele>195.19999694824</ele>
        <time>2024-05-20T06:56:37.000Z</time>
      </trkpt>
      <trkpt lat="46.71253" lon="4.77751">
        <ele>195.39999389648</ele>
        <time>2024-05-20T06:56:38.000Z</time>
      </trkpt>
      <trkpt lat="46.71249" lon="4.77748">
        <ele>195.39999389648</ele>
        <time>2024-05-20T06:56:39.000Z</time>
      </trkpt>
      <trkpt lat="46.71245" lon="4.77745">
        <ele>195.60000610352</ele>
        <time>2024-05-20T06:56:40.000Z</time>
      </trkpt>
      <trkpt lat="46.71241" lon="4.77742">
        <ele>195.80000305176</ele>
        <time>2024-05-20T06:56:41.000Z</time>
      </trkpt>
      <trkpt lat="46.71238" lon="4.7774">
        <ele>196</ele>
        <time>2024-05-20T06:56:42.000Z</time>
      </trkpt>
      <trkpt lat="46.71234" lon="4.77737">
        <ele>196</ele>
        <time>2024-05-20T06:56:43.000Z</time>
      </trkpt>
      <trkpt lat="46.7123" lon="4.77734">
        <ele>196.19999694824</ele>
        <time>2024-05-20T06:56:44.000Z</time>
      </trkpt>
      <trkpt lat="46.71226" lon="4.77732">
        <ele>196.39999389648</ele>
        <time>2024-05-20T06:56:45.000Z</time>
      </trkpt>
      <trkpt lat="46.71222" lon="4.77729">
        <ele>196.39999389648</ele>
        <time>2024-05-20T06:56:46.000Z</time>
      </trkpt>
      <trkpt lat="46.71218" lon="4.77726">
        <ele>196.60000610352</ele>
        <time>2024-05-20T06:56:47.000Z</time>
      </trkpt>
      <trkpt lat="46.71215" lon="4.77723">
        <ele>196.80000305176</ele>
        <time>2024-05-20T06:56:48.000Z</time>
      </trkpt>
      <trkpt lat="46.71211" lon="4.77721">
        <ele>197</ele>
        <time>2024-05-20T06:56:49.000Z</time>
      </trkpt>
      <trkpt lat="46.71207" lon="4.77718">
        <ele>197</ele>
        <time>2024-05-20T06:56:50.000Z</time>
      </trkpt>
      <trkpt lat="46.71203" lon="4.77715">
        <ele>197.19999694824</ele>
        <time>2024-05-20T06:56:51.000Z</time>
      </trkpt>
      <trkpt lat="46.71199" lon="4.77712">
        <ele>197.19999694824</ele>
        <time>2024-05-20T06:56:52.000Z</time>
      </trkpt>
      <trkpt lat="46.71195" lon="4.7771">
        <ele>197.39999389648</ele>
        <time>2024-05-20T06:56:53.000Z</time>
      </trkpt>
      <trkpt lat="46.71191" lon="4.77707">
        <ele>197.39999389648</ele>
        <time>2024-05-20T06:56:54.000Z</time>
      </trkpt>
      <trkpt lat="46.71187" lon="4.77704">
        <ele>197.60000610352</ele>
        <time>2024-05-20T06:56:55.000Z</time>
      </trkpt>
      <trkpt lat="46.71183" lon="4.77701">
        <ele>197.60000610352</ele>
        <time>2024-05-20T06:56:56.000Z</time>
      </trkpt>
      <trkpt lat="46.71179" lon="4.77698">
        <ele>197.80000305176</ele>
        <time>2024-05-20T06:56:57.000Z</time>
      </trkpt>
      <trkpt lat="46.71175" lon="4.77695">
        <ele>197.80000305176</ele>
        <time>2024-05-20T06:56:58.000Z</time>
      </trkpt>
      <trkpt lat="46.71171" lon="4.77692">
        <ele>198</ele>
        <time>2024-05-20T06:56:59.000Z</time>
      </trkpt>
      <trkpt lat="46.71166" lon="4.77689">
        <ele>198.19999694824</ele>
        <time>2024-05-20T06:57:00.000Z</time>
      </trkpt>
      <trkpt lat="46.71162" lon="4.77686">
        <ele>198.39999389648</ele>
        <time>2024-05-20T06:57:01.000Z</time>
      </trkpt>
      <trkpt lat="46.71158" lon="4.77683">
        <ele>198.39999389648</ele>
        <time>2024-05-20T06:57:02.000Z</time>
      </trkpt>
      <trkpt lat="46.71154" lon="4.7768">
        <ele>198.39999389648</ele>
        <time>2024-05-20T06:57:03.000Z</time>
      </trkpt>
      <trkpt lat="46.7115" lon="4.77678">
        <ele>198.60000610352</ele>
        <time>2024-05-20T06:57:04.000Z</time>
      </trkpt>
      <trkpt lat="46.71146" lon="4.77675">
        <ele>198.80000305176</ele>
        <time>2024-05-20T06:57:05.000Z</time>
      </trkpt>
      <trkpt lat="46.71142" lon="4.77672">
        <ele>198.80000305176</ele>
        <time>2024-05-20T06:57:06.000Z</time>
      </trkpt>
      <trkpt lat="46.71138" lon="4.77669">
        <ele>199</ele>
        <time>2024-05-20T06:57:07.000Z</time>
      </trkpt>
      <trkpt lat="46.71134" lon="4.77666">
        <ele>199</ele>
        <time>2024-05-20T06:57:08.000Z</time>
      </trkpt>
      <trkpt lat="46.7113" lon="4.77663">
        <ele>199.19999694824</ele>
        <time>2024-05-20T06:57:09.000Z</time>
      </trkpt>
      <trkpt lat="46.71125" lon="4.7766">
        <ele>199.19999694824</ele>
        <time>2024-05-20T06:57:10.000Z</time>
      </trkpt>
      <trkpt lat="46.71121" lon="4.77656">
        <ele>199.19999694824</ele>
        <time>2024-05-20T06:57:11.000Z</time>
      </trkpt>
      <trkpt lat="46.71117" lon="4.77653">
        <ele>199.39999389648</ele>
        <time>2024-05-20T06:57:12.000Z</time>
      </trkpt>
      <trkpt lat="46.71113" lon="4.7765">
        <ele>199.39999389648</ele>
        <time>2024-05-20T06:57:13.000Z</time>
      </trkpt>
      <trkpt lat="46.71108" lon="4.77647">
        <ele>199.60000610352</ele>
        <time>2024-05-20T06:57:14.000Z</time>
      </trkpt>
      <trkpt lat="46.71104" lon="4.77644">
        <ele>199.60000610352</ele>
        <time>2024-05-20T06:57:15.000Z</time>
      </trkpt>
      <trkpt lat="46.711" lon="4.77641">
        <ele>199.80000305176</ele>
        <time>2024-05-20T06:57:16.000Z</time>
      </trkpt>
      <trkpt lat="46.71096" lon="4.77638">
        <ele>199.80000305176</ele>
        <time>2024-05-20T06:57:17.000Z</time>
      </trkpt>
      <trkpt lat="46.71091" lon="4.77635">
        <ele>200</ele>
        <time>2024-05-20T06:57:18.000Z</time>
      </trkpt>
      <trkpt lat="46.71087" lon="4.77632">
        <ele>200</ele>
        <time>2024-05-20T06:57:19.000Z</time>
      </trkpt>
      <trkpt lat="46.71083" lon="4.77629">
        <ele>200.19999694824</ele>
        <time>2024-05-20T06:57:20.000Z</time>
      </trkpt>
      <trkpt lat="46.71078" lon="4.77625">
        <ele>200.19999694824</ele>
        <time>2024-05-20T06:57:21.000Z</time>
      </trkpt>
      <trkpt lat="46.71074" lon="4.77622">
        <ele>200.19999694824</ele>
        <time>2024-05-20T06:57:22.000Z</time>
      </trkpt>
      <trkpt lat="46.7107" lon="4.77619">
        <ele>200.19999694824</ele>
        <time>2024-05-20T06:57:23.000Z</time>
      </trkpt>
      <trkpt lat="46.71065" lon="4.77616">
        <ele>200.19999694824</ele>
        <time>2024-05-20T06:57:24.000Z</time>
      </trkpt>
      <trkpt lat="46.71061" lon="4.77613">
        <ele>200.19999694824</ele>
        <time>2024-05-20T06:57:25.000Z</time>
      </trkpt>
      <trkpt lat="46.71056" lon="4.7761">
        <ele>200.39999389648</ele>
        <time>2024-05-20T06:57:26.000Z</time>
      </trkpt>
      <trkpt lat="46.71052" lon="4.77606">
        <ele>200.39999389648</ele>
        <time>2024-05-20T06:57:27.000Z</time>
      </trkpt>
      <trkpt lat="46.71048" lon="4.77603">
        <ele>200.39999389648</ele>
        <time>2024-05-20T06:57:28.000Z</time>
      </trkpt>
      <trkpt lat="46.71044" lon="4.776">
        <ele>200.60000610352</ele>
        <time>2024-05-20T06:57:29.000Z</time>
      </trkpt>
      <trkpt lat="46.71039" lon="4.77597">
        <ele>200.80000305176</ele>
        <time>2024-05-20T06:57:30.000Z</time>
      </trkpt>
      <trkpt lat="46.71035" lon="4.77594">
        <ele>200.80000305176</ele>
        <time>2024-05-20T06:57:31.000Z</time>
      </trkpt>
      <trkpt lat="46.7103" lon="4.77591">
        <ele>201</ele>
        <time>2024-05-20T06:57:32.000Z</time>
      </trkpt>
      <trkpt lat="46.71026" lon="4.77588">
        <ele>201</ele>
        <time>2024-05-20T06:57:33.000Z</time>
      </trkpt>
      <trkpt lat="46.71022" lon="4.77585">
        <ele>201.19999694824</ele>
        <time>2024-05-20T06:57:34.000Z</time>
      </trkpt>
      <trkpt lat="46.71017" lon="4.77582">
        <ele>201.19999694824</ele>
        <time>2024-05-20T06:57:35.000Z</time>
      </trkpt>
      <trkpt lat="46.71013" lon="4.77579">
        <ele>201.19999694824</ele>
        <time>2024-05-20T06:57:36.000Z</time>
      </trkpt>
      <trkpt lat="46.71009" lon="4.77576">
        <ele>201.19999694824</ele>
        <time>2024-05-20T06:57:37.000Z</time>
      </trkpt>
      <trkpt lat="46.71005" lon="4.77572">
        <ele>201.39999389648</ele>
        <time>2024-05-20T06:57:38.000Z</time>
      </trkpt>
      <trkpt lat="46.71" lon="4.77569">
        <ele>201.39999389648</ele>
        <time>2024-05-20T06:57:39.000Z</time>
      </trkpt>
      <trkpt lat="46.70996" lon="4.77566">
        <ele>201.39999389648</ele>
        <time>2024-05-20T06:57:40.000Z</time>
      </trkpt>
      <trkpt lat="46.70992" lon="4.77563">
        <ele>201.60000610352</ele>
        <time>2024-05-20T06:57:41.000Z</time>
      </trkpt>
      <trkpt lat="46.70987" lon="4.7756">
        <ele>201.60000610352</ele>
        <time>2024-05-20T06:57:42.000Z</time>
      </trkpt>
      <trkpt lat="46.70983" lon="4.77556">
        <ele>201.60000610352</ele>
        <time>2024-05-20T06:57:43.000Z</time>
      </trkpt>
      <trkpt lat="46.70979" lon="4.77552">
        <ele>201.80000305176</ele>
        <time>2024-05-20T06:57:44.000Z</time>
      </trkpt>
      <trkpt lat="46.70974" lon="4.77549">
        <ele>201.80000305176</ele>
        <time>2024-05-20T06:57:45.000Z</time>
      </trkpt>
      <trkpt lat="46.7097" lon="4.77546">
        <ele>201.80000305176</ele>
        <time>2024-05-20T06:57:46.000Z</time>
      </trkpt>
      <trkpt lat="46.70965" lon="4.77543">
        <ele>201.80000305176</ele>
        <time>2024-05-20T06:57:47.000Z</time>
      </trkpt>
      <trkpt lat="46.7096" lon="4.77539">
        <ele>202</ele>
        <time>2024-05-20T06:57:48.000Z</time>
      </trkpt>
      <trkpt lat="46.70956" lon="4.77536">
        <ele>202</ele>
        <time>2024-05-20T06:57:49.000Z</time>
      </trkpt>
      <trkpt lat="46.70951" lon="4.77533">
        <ele>202</ele>
        <time>2024-05-20T06:57:50.000Z</time>
      </trkpt>
      <trkpt lat="46.70947" lon="4.7753">
        <ele>202</ele>
        <time>2024-05-20T06:57:51.000Z</time>
      </trkpt>
      <trkpt lat="46.70942" lon="4.77527">
        <ele>202</ele>
        <time>2024-05-20T06:57:52.000Z</time>
      </trkpt>
      <trkpt lat="46.70938" lon="4.77524">
        <ele>202</ele>
        <time>2024-05-20T06:57:53.000Z</time>
      </trkpt>
      <trkpt lat="46.70933" lon="4.77521">
        <ele>202</ele>
        <time>2024-05-20T06:57:54.000Z</time>
      </trkpt>
      <trkpt lat="46.70928" lon="4.77517">
        <ele>202.19999694824</ele>
        <time>2024-05-20T06:57:55.000Z</time>
      </trkpt>
      <trkpt lat="46.70924" lon="4.77514">
        <ele>202.19999694824</ele>
        <time>2024-05-20T06:57:56.000Z</time>
      </trkpt>
      <trkpt lat="46.70919" lon="4.77511">
        <ele>202.19999694824</ele>
        <time>2024-05-20T06:57:57.000Z</time>
      </trkpt>
      <trkpt lat="46.70915" lon="4.77508">
        <ele>202.19999694824</ele>
        <time>2024-05-20T06:57:58.000Z</time>
      </trkpt>
      <trkpt lat="46.7091" lon="4.77504">
        <ele>202.39999389648</ele>
        <time>2024-05-20T06:57:59.000Z</time>
      </trkpt>
      <trkpt lat="46.70905" lon="4.77501">
        <ele>202.39999389648</ele>
        <time>2024-05-20T06:58:00.000Z</time>
      </trkpt>
      <trkpt lat="46.70901" lon="4.77498">
        <ele>202.60000610352</ele>
        <time>2024-05-20T06:58:01.000Z</time>
      </trkpt>
      <trkpt lat="46.70896" lon="4.77494">
        <ele>202.60000610352</ele>
        <time>2024-05-20T06:58:02.000Z</time>
      </trkpt>
      <trkpt lat="46.70891" lon="4.7749">
        <ele>202.60000610352</ele>
        <time>2024-05-20T06:58:03.000Z</time>
      </trkpt>
      <trkpt lat="46.70887" lon="4.77487">
        <ele>202.60000610352</ele>
        <time>2024-05-20T06:58:04.000Z</time>
      </trkpt>
      <trkpt lat="46.70882" lon="4.77483">
        <ele>202.60000610352</ele>
        <time>2024-05-20T06:58:05.000Z</time>
      </trkpt>
      <trkpt lat="46.70877" lon="4.77479">
        <ele>202.60000610352</ele>
        <time>2024-05-20T06:58:06.000Z</time>
      </trkpt>
      <trkpt lat="46.70873" lon="4.77475">
        <ele>202.60000610352</ele>
        <time>2024-05-20T06:58:07.000Z</time>
      </trkpt>
      <trkpt lat="46.70869" lon="4.7747">
        <ele>202.80000305176</ele>
        <time>2024-05-20T06:58:08.000Z</time>
      </trkpt>
      <trkpt lat="46.70864" lon="4.77465">
        <ele>202.80000305176</ele>
        <time>2024-05-20T06:58:09.000Z</time>
      </trkpt>
      <trkpt lat="46.7086" lon="4.77461">
        <ele>202.80000305176</ele>
        <time>2024-05-20T06:58:10.000Z</time>
      </trkpt>
      <trkpt lat="46.70856" lon="4.77456">
        <ele>202.80000305176</ele>
        <time>2024-05-20T06:58:11.000Z</time>
      </trkpt>
      <trkpt lat="46.70852" lon="4.77451">
        <ele>203</ele>
        <time>2024-05-20T06:58:12.000Z</time>
      </trkpt>
      <trkpt lat="46.70847" lon="4.77445">
        <ele>203</ele>
        <time>2024-05-20T06:58:13.000Z</time>
      </trkpt>
      <trkpt lat="46.70843" lon="4.77439">
        <ele>203</ele>
        <time>2024-05-20T06:58:14.000Z</time>
      </trkpt>
      <trkpt lat="46.70839" lon="4.77434">
        <ele>203</ele>
        <time>2024-05-20T06:58:15.000Z</time>
      </trkpt>
      <trkpt lat="46.70835" lon="4.77428">
        <ele>203</ele>
        <time>2024-05-20T06:58:16.000Z</time>
      </trkpt>
      <trkpt lat="46.70831" lon="4.77422">
        <ele>203</ele>
        <time>2024-05-20T06:58:17.000Z</time>
      </trkpt>
      <trkpt lat="46.70827" lon="4.77417">
        <ele>203</ele>
        <time>2024-05-20T06:58:18.000Z</time>
      </trkpt>
      <trkpt lat="46.70823" lon="4.77411">
        <ele>203</ele>
        <time>2024-05-20T06:58:19.000Z</time>
      </trkpt>
      <trkpt lat="46.70819" lon="4.77405">
        <ele>203</ele>
        <time>2024-05-20T06:58:20.000Z</time>
      </trkpt>
      <trkpt lat="46.70815" lon="4.774">
        <ele>203</ele>
        <time>2024-05-20T06:58:21.000Z</time>
      </trkpt>
      <trkpt lat="46.7081" lon="4.77396">
        <ele>203</ele>
        <time>2024-05-20T06:58:22.000Z</time>
      </trkpt>
      <trkpt lat="46.70805" lon="4.77392">
        <ele>203</ele>
        <time>2024-05-20T06:58:23.000Z</time>
      </trkpt>
      <trkpt lat="46.708" lon="4.77388">
        <ele>203</ele>
        <time>2024-05-20T06:58:24.000Z</time>
      </trkpt>
      <trkpt lat="46.70795" lon="4.77384">
        <ele>203</ele>
        <time>2024-05-20T06:58:25.000Z</time>
      </trkpt>
      <trkpt lat="46.7079" lon="4.7738">
        <ele>203</ele>
        <time>2024-05-20T06:58:26.000Z</time>
      </trkpt>
      <trkpt lat="46.70785" lon="4.77376">
        <ele>203</ele>
        <time>2024-05-20T06:58:27.000Z</time>
      </trkpt>
      <trkpt lat="46.7078" lon="4.77372">
        <ele>203</ele>
        <time>2024-05-20T06:58:28.000Z</time>
      </trkpt>
      <trkpt lat="46.70775" lon="4.77369">
        <ele>203</ele>
        <time>2024-05-20T06:58:29.000Z</time>
      </trkpt>
      <trkpt lat="46.7077" lon="4.77365">
        <ele>203.19999694824</ele>
        <time>2024-05-20T06:58:30.000Z</time>
      </trkpt>
      <trkpt lat="46.70765" lon="4.77362">
        <ele>203.60000610352</ele>
        <time>2024-05-20T06:58:31.000Z</time>
      </trkpt>
      <trkpt lat="46.70761" lon="4.77358">
        <ele>203.60000610352</ele>
        <time>2024-05-20T06:58:32.000Z</time>
      </trkpt>
      <trkpt lat="46.70756" lon="4.77355">
        <ele>203.60000610352</ele>
        <time>2024-05-20T06:58:33.000Z</time>
      </trkpt>
      <trkpt lat="46.70751" lon="4.77351">
        <ele>203.60000610352</ele>
        <time>2024-05-20T06:58:34.000Z</time>
      </trkpt>
      <trkpt lat="46.70746" lon="4.77347">
        <ele>203.60000610352</ele>
        <time>2024-05-20T06:58:35.000Z</time>
      </trkpt>
      <trkpt lat="46.70741" lon="4.77343">
        <ele>203.60000610352</ele>
        <time>2024-05-20T06:58:36.000Z</time>
      </trkpt>
      <trkpt lat="46.70736" lon="4.77339">
        <ele>203.60000610352</ele>
        <time>2024-05-20T06:58:37.000Z</time>
      </trkpt>
      <trkpt lat="46.70732" lon="4.77336">
        <ele>203.80000305176</ele>
        <time>2024-05-20T06:58:38.000Z</time>
      </trkpt>
      <trkpt lat="46.70727" lon="4.77332">
        <ele>203.80000305176</ele>
        <time>2024-05-20T06:58:39.000Z</time>
      </trkpt>
      <trkpt lat="46.70722" lon="4.77329">
        <ele>203.80000305176</ele>
        <time>2024-05-20T06:58:40.000Z</time>
      </trkpt>
      <trkpt lat="46.70717" lon="4.77325">
        <ele>204</ele>
        <time>2024-05-20T06:58:41.000Z</time>
      </trkpt>
      <trkpt lat="46.70712" lon="4.77322">
        <ele>204</ele>
        <time>2024-05-20T06:58:42.000Z</time>
      </trkpt>
      <trkpt lat="46.70707" lon="4.77318">
        <ele>204</ele>
        <time>2024-05-20T06:58:43.000Z</time>
      </trkpt>
      <trkpt lat="46.70703" lon="4.77315">
        <ele>204.19999694824</ele>
        <time>2024-05-20T06:58:44.000Z</time>
      </trkpt>
      <trkpt lat="46.70698" lon="4.77311">
        <ele>204.19999694824</ele>
        <time>2024-05-20T06:58:45.000Z</time>
      </trkpt>
      <trkpt lat="46.70693" lon="4.77307">
        <ele>204.19999694824</ele>
        <time>2024-05-20T06:58:46.000Z</time>
      </trkpt>
      <trkpt lat="46.70688" lon="4.77304">
        <ele>204.39999389648</ele>
        <time>2024-05-20T06:58:47.000Z</time>
      </trkpt>
      <trkpt lat="46.70684" lon="4.773">
        <ele>204.39999389648</ele>
        <time>2024-05-20T06:58:48.000Z</time>
      </trkpt>
      <trkpt lat="46.70679" lon="4.77297">
        <ele>204.39999389648</ele>
        <time>2024-05-20T06:58:49.000Z</time>
      </trkpt>
      <trkpt lat="46.70674" lon="4.77293">
        <ele>204.60000610352</ele>
        <time>2024-05-20T06:58:50.000Z</time>
      </trkpt>
      <trkpt lat="46.70669" lon="4.7729">
        <ele>204.80000305176</ele>
        <time>2024-05-20T06:58:51.000Z</time>
      </trkpt>
      <trkpt lat="46.70664" lon="4.77286">
        <ele>204.80000305176</ele>
        <time>2024-05-20T06:58:52.000Z</time>
      </trkpt>
      <trkpt lat="46.7066" lon="4.77283">
        <ele>204.80000305176</ele>
        <time>2024-05-20T06:58:53.000Z</time>
      </trkpt>
      <trkpt lat="46.70655" lon="4.77279">
        <ele>204.80000305176</ele>
        <time>2024-05-20T06:58:54.000Z</time>
      </trkpt>
      <trkpt lat="46.7065" lon="4.77276">
        <ele>204.80000305176</ele>
        <time>2024-05-20T06:58:55.000Z</time>
      </trkpt>
      <trkpt lat="46.70646" lon="4.77273">
        <ele>205</ele>
        <time>2024-05-20T06:58:56.000Z</time>
      </trkpt>
      <trkpt lat="46.70641" lon="4.77269">
        <ele>205.19999694824</ele>
        <time>2024-05-20T06:58:57.000Z</time>
      </trkpt>
      <trkpt lat="46.70636" lon="4.77265">
        <ele>205.39999389648</ele>
        <time>2024-05-20T06:58:58.000Z</time>
      </trkpt>
      <trkpt lat="46.70631" lon="4.77262">
        <ele>205.39999389648</ele>
        <time>2024-05-20T06:58:59.000Z</time>
      </trkpt>
      <trkpt lat="46.70627" lon="4.77258">
        <ele>205.60000610352</ele>
        <time>2024-05-20T06:59:00.000Z</time>
      </trkpt>
      <trkpt lat="46.70622" lon="4.77255">
        <ele>205.60000610352</ele>
        <time>2024-05-20T06:59:01.000Z</time>
      </trkpt>
      <trkpt lat="46.70617" lon="4.77251">
        <ele>205.60000610352</ele>
        <time>2024-05-20T06:59:02.000Z</time>
      </trkpt>
      <trkpt lat="46.70612" lon="4.77248">
        <ele>205.80000305176</ele>
        <time>2024-05-20T06:59:03.000Z</time>
      </trkpt>
      <trkpt lat="46.70607" lon="4.77244">
        <ele>205.80000305176</ele>
        <time>2024-05-20T06:59:04.000Z</time>
      </trkpt>
      <trkpt lat="46.70603" lon="4.7724">
        <ele>205.80000305176</ele>
        <time>2024-05-20T06:59:05.000Z</time>
      </trkpt>
      <trkpt lat="46.70598" lon="4.77237">
        <ele>205.80000305176</ele>
        <time>2024-05-20T06:59:06.000Z</time>
      </trkpt>
      <trkpt lat="46.70593" lon="4.77233">
        <ele>205.80000305176</ele>
        <time>2024-05-20T06:59:07.000Z</time>
      </trkpt>
      <trkpt lat="46.70588" lon="4.7723">
        <ele>205.80000305176</ele>
        <time>2024-05-20T06:59:08.000Z</time>
      </trkpt>
      <trkpt lat="46.70583" lon="4.77226">
        <ele>205.80000305176</ele>
        <time>2024-05-20T06:59:09.000Z</time>
      </trkpt>
      <trkpt lat="46.70578" lon="4.77223">
        <ele>206</ele>
        <time>2024-05-20T06:59:10.000Z</time>
      </trkpt>
      <trkpt lat="46.70574" lon="4.77219">
        <ele>206.19999694824</ele>
        <time>2024-05-20T06:59:11.000Z</time>
      </trkpt>
      <trkpt lat="46.70569" lon="4.77216">
        <ele>206.19999694824</ele>
        <time>2024-05-20T06:59:12.000Z</time>
      </trkpt>
      <trkpt lat="46.70564" lon="4.77212">
        <ele>206.39999389648</ele>
        <time>2024-05-20T06:59:13.000Z</time>
      </trkpt>
      <trkpt lat="46.70559" lon="4.77208">
        <ele>206.39999389648</ele>
        <time>2024-05-20T06:59:14.000Z</time>
      </trkpt>
      <trkpt lat="46.70554" lon="4.77204">
        <ele>206.39999389648</ele>
        <time>2024-05-20T06:59:15.000Z</time>
      </trkpt>
      <trkpt lat="46.7055" lon="4.77201">
        <ele>206.60000610352</ele>
        <time>2024-05-20T06:59:16.000Z</time>
      </trkpt>
      <trkpt lat="46.70545" lon="4.77197">
        <ele>206.60000610352</ele>
        <time>2024-05-20T06:59:17.000Z</time>
      </trkpt>
      <trkpt lat="46.7054" lon="4.77194">
        <ele>206.60000610352</ele>
        <time>2024-05-20T06:59:18.000Z</time>
      </trkpt>
      <trkpt lat="46.70535" lon="4.7719">
        <ele>206.80000305176</ele>
        <time>2024-05-20T06:59:19.000Z</time>
      </trkpt>
      <trkpt lat="46.7053" lon="4.77186">
        <ele>206.80000305176</ele>
        <time>2024-05-20T06:59:20.000Z</time>
      </trkpt>
      <trkpt lat="46.70525" lon="4.77183">
        <ele>206.80000305176</ele>
        <time>2024-05-20T06:59:21.000Z</time>
      </trkpt>
      <trkpt lat="46.7052" lon="4.77179">
        <ele>206.80000305176</ele>
        <time>2024-05-20T06:59:22.000Z</time>
      </trkpt>
      <trkpt lat="46.70515" lon="4.77175">
        <ele>206.80000305176</ele>
        <time>2024-05-20T06:59:23.000Z</time>
      </trkpt>
      <trkpt lat="46.70511" lon="4.7717">
        <ele>206.80000305176</ele>
        <time>2024-05-20T06:59:24.000Z</time>
      </trkpt>
      <trkpt lat="46.70506" lon="4.77166">
        <ele>206.80000305176</ele>
        <time>2024-05-20T06:59:25.000Z</time>
      </trkpt>
      <trkpt lat="46.705" lon="4.77161">
        <ele>206.80000305176</ele>
        <time>2024-05-20T06:59:26.000Z</time>
      </trkpt>
      <trkpt lat="46.70495" lon="4.77156">
        <ele>206.80000305176</ele>
        <time>2024-05-20T06:59:27.000Z</time>
      </trkpt>
      <trkpt lat="46.7049" lon="4.77151">
        <ele>206.80000305176</ele>
        <time>2024-05-20T06:59:28.000Z</time>
      </trkpt>
      <trkpt lat="46.70485" lon="4.77146">
        <ele>206.80000305176</ele>
        <time>2024-05-20T06:59:29.000Z</time>
      </trkpt>
      <trkpt lat="46.70481" lon="4.77141">
        <ele>206.60000610352</ele>
        <time>2024-05-20T06:59:30.000Z</time>
      </trkpt>
      <trkpt lat="46.70475" lon="4.77136">
        <ele>206.60000610352</ele>
        <time>2024-05-20T06:59:31.000Z</time>
      </trkpt>
      <trkpt lat="46.7047" lon="4.77131">
        <ele>206.60000610352</ele>
        <time>2024-05-20T06:59:32.000Z</time>
      </trkpt>
      <trkpt lat="46.70465" lon="4.77125">
        <ele>206.60000610352</ele>
        <time>2024-05-20T06:59:33.000Z</time>
      </trkpt>
      <trkpt lat="46.7046" lon="4.7712">
        <ele>206.60000610352</ele>
        <time>2024-05-20T06:59:34.000Z</time>
      </trkpt>
      <trkpt lat="46.70455" lon="4.77115">
        <ele>206.39999389648</ele>
        <time>2024-05-20T06:59:35.000Z</time>
      </trkpt>
      <trkpt lat="46.7045" lon="4.77109">
        <ele>206.39999389648</ele>
        <time>2024-05-20T06:59:36.000Z</time>
      </trkpt>
      <trkpt lat="46.70445" lon="4.77104">
        <ele>206.39999389648</ele>
        <time>2024-05-20T06:59:37.000Z</time>
      </trkpt>
      <trkpt lat="46.7044" lon="4.77098">
        <ele>206.39999389648</ele>
        <time>2024-05-20T06:59:38.000Z</time>
      </trkpt>
      <trkpt lat="46.70435" lon="4.77093">
        <ele>206.39999389648</ele>
        <time>2024-05-20T06:59:39.000Z</time>
      </trkpt>
      <trkpt lat="46.7043" lon="4.77087">
        <ele>206.39999389648</ele>
        <time>2024-05-20T06:59:40.000Z</time>
      </trkpt>
      <trkpt lat="46.70425" lon="4.77082">
        <ele>206.39999389648</ele>
        <time>2024-05-20T06:59:41.000Z</time>
      </trkpt>
      <trkpt lat="46.70419" lon="4.77077">
        <ele>206.39999389648</ele>
        <time>2024-05-20T06:59:42.000Z</time>
      </trkpt>
      <trkpt lat="46.70414" lon="4.77072">
        <ele>206.39999389648</ele>
        <time>2024-05-20T06:59:43.000Z</time>
      </trkpt>
      <trkpt lat="46.70409" lon="4.77067">
        <ele>206.39999389648</ele>
        <time>2024-05-20T06:59:44.000Z</time>
      </trkpt>
      <trkpt lat="46.70404" lon="4.77062">
        <ele>206.39999389648</ele>
        <time>2024-05-20T06:59:45.000Z</time>
      </trkpt>
      <trkpt lat="46.70398" lon="4.77058">
        <ele>206.19999694824</ele>
        <time>2024-05-20T06:59:46.000Z</time>
      </trkpt>
      <trkpt lat="46.70393" lon="4.77054">
        <ele>206.19999694824</ele>
        <time>2024-05-20T06:59:47.000Z</time>
      </trkpt>
      <trkpt lat="46.70387" lon="4.7705">
        <ele>206.19999694824</ele>
        <time>2024-05-20T06:59:48.000Z</time>
      </trkpt>
      <trkpt lat="46.70381" lon="4.77047">
        <ele>206.19999694824</ele>
        <time>2024-05-20T06:59:49.000Z</time>
      </trkpt>
      <trkpt lat="46.70375" lon="4.77044">
        <ele>206.39999389648</ele>
        <time>2024-05-20T06:59:50.000Z</time>
      </trkpt>
      <trkpt lat="46.70369" lon="4.77041">
        <ele>206.39999389648</ele>
        <time>2024-05-20T06:59:51.000Z</time>
      </trkpt>
      <trkpt lat="46.70363" lon="4.77038">
        <ele>206.39999389648</ele>
        <time>2024-05-20T06:59:52.000Z</time>
      </trkpt>
      <trkpt lat="46.70357" lon="4.77035">
        <ele>206.39999389648</ele>
        <time>2024-05-20T06:59:53.000Z</time>
      </trkpt>
      <trkpt lat="46.70351" lon="4.77033">
        <ele>206.39999389648</ele>
        <time>2024-05-20T06:59:54.000Z</time>
      </trkpt>
      <trkpt lat="46.70344" lon="4.7703">
        <ele>206.39999389648</ele>
        <time>2024-05-20T06:59:55.000Z</time>
      </trkpt>
      <trkpt lat="46.70338" lon="4.77027">
        <ele>206.39999389648</ele>
        <time>2024-05-20T06:59:56.000Z</time>
      </trkpt>
      <trkpt lat="46.70332" lon="4.77024">
        <ele>206.39999389648</ele>
        <time>2024-05-20T06:59:57.000Z</time>
      </trkpt>
      <trkpt lat="46.70326" lon="4.77021">
        <ele>206.39999389648</ele>
        <time>2024-05-20T06:59:58.000Z</time>
      </trkpt>
      <trkpt lat="46.7032" lon="4.77018">
        <ele>206.39999389648</ele>
        <time>2024-05-20T06:59:59.000Z</time>
      </trkpt>
      <trkpt lat="46.70314" lon="4.77016">
        <ele>206.39999389648</ele>
        <time>2024-05-20T07:00:00.000Z</time>
      </trkpt>
      <trkpt lat="46.70308" lon="4.77013">
        <ele>206.39999389648</ele>
        <time>2024-05-20T07:00:01.000Z</time>
      </trkpt>
      <trkpt lat="46.70301" lon="4.77011">
        <ele>206.39999389648</ele>
        <time>2024-05-20T07:00:02.000Z</time>
      </trkpt>
      <trkpt lat="46.70295" lon="4.77008">
        <ele>206.19999694824</ele>
        <time>2024-05-20T07:00:03.000Z</time>
      </trkpt>
      <trkpt lat="46.70289" lon="4.77005">
        <ele>206.19999694824</ele>
        <time>2024-05-20T07:00:04.000Z</time>
      </trkpt>
      <trkpt lat="46.70283" lon="4.77002">
        <ele>206.19999694824</ele>
        <time>2024-05-20T07:00:05.000Z</time>
      </trkpt>
      <trkpt lat="46.70277" lon="4.77">
        <ele>206.19999694824</ele>
        <time>2024-05-20T07:00:06.000Z</time>
      </trkpt>
      <trkpt lat="46.70271" lon="4.76997">
        <ele>206.19999694824</ele>
        <time>2024-05-20T07:00:07.000Z</time>
      </trkpt>
      <trkpt lat="46.70265" lon="4.76994">
        <ele>206.19999694824</ele>
        <time>2024-05-20T07:00:08.000Z</time>
      </trkpt>
      <trkpt lat="46.70259" lon="4.76992">
        <ele>206.19999694824</ele>
        <time>2024-05-20T07:00:09.000Z</time>
      </trkpt>
      <trkpt lat="46.70253" lon="4.76989">
        <ele>206.19999694824</ele>
        <time>2024-05-20T07:00:10.000Z</time>
      </trkpt>
      <trkpt lat="46.70246" lon="4.76986">
        <ele>206.19999694824</ele>
        <time>2024-05-20T07:00:11.000Z</time>
      </trkpt>
      <trkpt lat="46.7024" lon="4.76983">
        <ele>206.19999694824</ele>
        <time>2024-05-20T07:00:12.000Z</time>
      </trkpt>
      <trkpt lat="46.70234" lon="4.7698">
        <ele>206.19999694824</ele>
        <time>2024-05-20T07:00:13.000Z</time>
      </trkpt>
      <trkpt lat="46.70228" lon="4.76978">
        <ele>206.39999389648</ele>
        <time>2024-05-20T07:00:14.000Z</time>
      </trkpt>
      <trkpt lat="46.70222" lon="4.76975">
        <ele>206.39999389648</ele>
        <time>2024-05-20T07:00:15.000Z</time>
      </trkpt>
      <trkpt lat="46.70216" lon="4.76972">
        <ele>206.39999389648</ele>
        <time>2024-05-20T07:00:16.000Z</time>
      </trkpt>
      <trkpt lat="46.7021" lon="4.76969">
        <ele>206.39999389648</ele>
        <time>2024-05-20T07:00:17.000Z</time>
      </trkpt>
      <trkpt lat="46.70204" lon="4.76966">
        <ele>206.60000610352</ele>
        <time>2024-05-20T07:00:18.000Z</time>
      </trkpt>
      <trkpt lat="46.70198" lon="4.76963">
        <ele>206.60000610352</ele>
        <time>2024-05-20T07:00:19.000Z</time>
      </trkpt>
      <trkpt lat="46.70192" lon="4.76961">
        <ele>206.60000610352</ele>
        <time>2024-05-20T07:00:20.000Z</time>
      </trkpt>
      <trkpt lat="46.70186" lon="4.76958">
        <ele>206.80000305176</ele>
        <time>2024-05-20T07:00:21.000Z</time>
      </trkpt>
      <trkpt lat="46.7018" lon="4.76955">
        <ele>206.80000305176</ele>
        <time>2024-05-20T07:00:22.000Z</time>
      </trkpt>
      <trkpt lat="46.70175" lon="4.76953">
        <ele>206.80000305176</ele>
        <time>2024-05-20T07:00:23.000Z</time>
      </trkpt>
      <trkpt lat="46.70169" lon="4.7695">
        <ele>207</ele>
        <time>2024-05-20T07:00:24.000Z</time>
      </trkpt>
      <trkpt lat="46.70163" lon="4.76948">
        <ele>207</ele>
        <time>2024-05-20T07:00:25.000Z</time>
      </trkpt>
      <trkpt lat="46.70157" lon="4.76945">
        <ele>207</ele>
        <time>2024-05-20T07:00:26.000Z</time>
      </trkpt>
      <trkpt lat="46.70151" lon="4.76942">
        <ele>207</ele>
        <time>2024-05-20T07:00:27.000Z</time>
      </trkpt>
      <trkpt lat="46.70145" lon="4.7694">
        <ele>207.19999694824</ele>
        <time>2024-05-20T07:00:28.000Z</time>
      </trkpt>
      <trkpt lat="46.70139" lon="4.76937">
        <ele>207.19999694824</ele>
        <time>2024-05-20T07:00:29.000Z</time>
      </trkpt>
      <trkpt lat="46.70133" lon="4.76934">
        <ele>207.19999694824</ele>
        <time>2024-05-20T07:00:30.000Z</time>
      </trkpt>
      <trkpt lat="46.70127" lon="4.76931">
        <ele>207.19999694824</ele>
        <time>2024-05-20T07:00:31.000Z</time>
      </trkpt>
      <trkpt lat="46.70122" lon="4.76929">
        <ele>207.19999694824</ele>
        <time>2024-05-20T07:00:32.000Z</time>
      </trkpt>
      <trkpt lat="46.70116" lon="4.76926">
        <ele>207.19999694824</ele>
        <time>2024-05-20T07:00:33.000Z</time>
      </trkpt>
      <trkpt lat="46.7011" lon="4.76924">
        <ele>207.19999694824</ele>
        <time>2024-05-20T07:00:34.000Z</time>
      </trkpt>
      <trkpt lat="46.70104" lon="4.76921">
        <ele>207.39999389648</ele>
        <time>2024-05-20T07:00:35.000Z</time>
      </trkpt>
      <trkpt lat="46.70098" lon="4.76918">
        <ele>207.39999389648</ele>
        <time>2024-05-20T07:00:36.000Z</time>
      </trkpt>
      <trkpt lat="46.70093" lon="4.76916">
        <ele>207.39999389648</ele>
        <time>2024-05-20T07:00:37.000Z</time>
      </trkpt>
      <trkpt lat="46.70087" lon="4.76913">
        <ele>207.39999389648</ele>
        <time>2024-05-20T07:00:38.000Z</time>
      </trkpt>
      <trkpt lat="46.70082" lon="4.76911">
        <ele>207.39999389648</ele>
        <time>2024-05-20T07:00:39.000Z</time>
      </trkpt>
      <trkpt lat="46.70076" lon="4.76908">
        <ele>207.39999389648</ele>
        <time>2024-05-20T07:00:40.000Z</time>
      </trkpt>
      <trkpt lat="46.7007" lon="4.76904">
        <ele>207.39999389648</ele>
        <time>2024-05-20T07:00:41.000Z</time>
      </trkpt>
      <trkpt lat="46.70064" lon="4.76901">
        <ele>207.39999389648</ele>
        <time>2024-05-20T07:00:42.000Z</time>
      </trkpt>
      <trkpt lat="46.70059" lon="4.76897">
        <ele>207.39999389648</ele>
        <time>2024-05-20T07:00:43.000Z</time>
      </trkpt>
      <trkpt lat="46.70054" lon="4.76893">
        <ele>207.39999389648</ele>
        <time>2024-05-20T07:00:44.000Z</time>
      </trkpt>
      <trkpt lat="46.70049" lon="4.76889">
        <ele>207.39999389648</ele>
        <time>2024-05-20T07:00:45.000Z</time>
      </trkpt>
      <trkpt lat="46.70044" lon="4.76884">
        <ele>207.39999389648</ele>
        <time>2024-05-20T07:00:46.000Z</time>
      </trkpt>
      <trkpt lat="46.70039" lon="4.76879">
        <ele>207.39999389648</ele>
        <time>2024-05-20T07:00:47.000Z</time>
      </trkpt>
      <trkpt lat="46.70034" lon="4.76873">
        <ele>207.60000610352</ele>
        <time>2024-05-20T07:00:48.000Z</time>
      </trkpt>
      <trkpt lat="46.70029" lon="4.76867">
        <ele>207.60000610352</ele>
        <time>2024-05-20T07:00:49.000Z</time>
      </trkpt>
      <trkpt lat="46.70025" lon="4.7686">
        <ele>207.80000305176</ele>
        <time>2024-05-20T07:00:50.000Z</time>
      </trkpt>
      <trkpt lat="46.7002" lon="4.76854">
        <ele>207.80000305176</ele>
        <time>2024-05-20T07:00:51.000Z</time>
      </trkpt>
      <trkpt lat="46.70016" lon="4.76848">
        <ele>207.80000305176</ele>
        <time>2024-05-20T07:00:52.000Z</time>
      </trkpt>
      <trkpt lat="46.70012" lon="4.76841">
        <ele>208</ele>
        <time>2024-05-20T07:00:53.000Z</time>
      </trkpt>
      <trkpt lat="46.70008" lon="4.76835">
        <ele>208</ele>
        <time>2024-05-20T07:00:54.000Z</time>
      </trkpt>
      <trkpt lat="46.70004" lon="4.76828">
        <ele>208</ele>
        <time>2024-05-20T07:00:55.000Z</time>
      </trkpt>
      <trkpt lat="46.7" lon="4.76822">
        <ele>208.19999694824</ele>
        <time>2024-05-20T07:00:56.000Z</time>
      </trkpt>
      <trkpt lat="46.69995" lon="4.76816">
        <ele>208.19999694824</ele>
        <time>2024-05-20T07:00:57.000Z</time>
      </trkpt>
      <trkpt lat="46.69991" lon="4.76809">
        <ele>208.19999694824</ele>
        <time>2024-05-20T07:00:58.000Z</time>
      </trkpt>
      <trkpt lat="46.69987" lon="4.76803">
        <ele>208.19999694824</ele>
        <time>2024-05-20T07:00:59.000Z</time>
      </trkpt>
      <trkpt lat="46.69983" lon="4.76797">
        <ele>208.39999389648</ele>
        <time>2024-05-20T07:01:00.000Z</time>
      </trkpt>
      <trkpt lat="46.69979" lon="4.76791">
        <ele>208.60000610352</ele>
        <time>2024-05-20T07:01:01.000Z</time>
      </trkpt>
      <trkpt lat="46.69974" lon="4.76785">
        <ele>208.60000610352</ele>
        <time>2024-05-20T07:01:02.000Z</time>
      </trkpt>
      <trkpt lat="46.6997" lon="4.76778">
        <ele>208.80000305176</ele>
        <time>2024-05-20T07:01:03.000Z</time>
      </trkpt>
      <trkpt lat="46.69966" lon="4.76772">
        <ele>208.80000305176</ele>
        <time>2024-05-20T07:01:04.000Z</time>
      </trkpt>
      <trkpt lat="46.69962" lon="4.76766">
        <ele>209</ele>
        <time>2024-05-20T07:01:05.000Z</time>
      </trkpt>
      <trkpt lat="46.69958" lon="4.7676">
        <ele>209</ele>
        <time>2024-05-20T07:01:06.000Z</time>
      </trkpt>
      <trkpt lat="46.69954" lon="4.76754">
        <ele>209.19999694824</ele>
        <time>2024-05-20T07:01:07.000Z</time>
      </trkpt>
      <trkpt lat="46.6995" lon="4.76748">
        <ele>209.19999694824</ele>
        <time>2024-05-20T07:01:08.000Z</time>
      </trkpt>
      <trkpt lat="46.69946" lon="4.76742">
        <ele>209.19999694824</ele>
        <time>2024-05-20T07:01:09.000Z</time>
      </trkpt>
      <trkpt lat="46.69942" lon="4.76735">
        <ele>209.39999389648</ele>
        <time>2024-05-20T07:01:10.000Z</time>
      </trkpt>
      <trkpt lat="46.69938" lon="4.76729">
        <ele>209.60000610352</ele>
        <time>2024-05-20T07:01:11.000Z</time>
      </trkpt>
      <trkpt lat="46.69934" lon="4.76723">
        <ele>209.60000610352</ele>
        <time>2024-05-20T07:01:12.000Z</time>
      </trkpt>
      <trkpt lat="46.6993" lon="4.76717">
        <ele>209.80000305176</ele>
        <time>2024-05-20T07:01:13.000Z</time>
      </trkpt>
      <trkpt lat="46.69926" lon="4.76712">
        <ele>210</ele>
        <time>2024-05-20T07:01:14.000Z</time>
      </trkpt>
      <trkpt lat="46.69922" lon="4.76706">
        <ele>210</ele>
        <time>2024-05-20T07:01:15.000Z</time>
      </trkpt>
      <trkpt lat="46.69918" lon="4.767">
        <ele>210.19999694824</ele>
        <time>2024-05-20T07:01:16.000Z</time>
      </trkpt>
      <trkpt lat="46.69915" lon="4.76694">
        <ele>210.19999694824</ele>
        <time>2024-05-20T07:01:17.000Z</time>
      </trkpt>
      <trkpt lat="46.69911" lon="4.76689">
        <ele>210.39999389648</ele>
        <time>2024-05-20T07:01:18.000Z</time>
      </trkpt>
      <trkpt lat="46.69907" lon="4.76683">
        <ele>210.60000610352</ele>
        <time>2024-05-20T07:01:19.000Z</time>
      </trkpt>
      <trkpt lat="46.69903" lon="4.76678">
        <ele>210.80000305176</ele>
        <time>2024-05-20T07:01:20.000Z</time>
      </trkpt>
      <trkpt lat="46.69899" lon="4.76673">
        <ele>211</ele>
        <time>2024-05-20T07:01:21.000Z</time>
      </trkpt>
      <trkpt lat="46.69895" lon="4.76667">
        <ele>211</ele>
        <time>2024-05-20T07:01:22.000Z</time>
      </trkpt>
      <trkpt lat="46.69892" lon="4.76662">
        <ele>211</ele>
        <time>2024-05-20T07:01:23.000Z</time>
      </trkpt>
      <trkpt lat="46.69888" lon="4.76656">
        <ele>211.19999694824</ele>
        <time>2024-05-20T07:01:24.000Z</time>
      </trkpt>
      <trkpt lat="46.69884" lon="4.7665">
        <ele>211.39999389648</ele>
        <time>2024-05-20T07:01:25.000Z</time>
      </trkpt>
      <trkpt lat="46.69881" lon="4.76645">
        <ele>211.39999389648</ele>
        <time>2024-05-20T07:01:26.000Z</time>
      </trkpt>
      <trkpt lat="46.69877" lon="4.76639">
        <ele>211.60000610352</ele>
        <time>2024-05-20T07:01:27.000Z</time>
      </trkpt>
      <trkpt lat="46.69873" lon="4.76634">
        <ele>211.60000610352</ele>
        <time>2024-05-20T07:01:28.000Z</time>
      </trkpt>
      <trkpt lat="46.6987" lon="4.76628">
        <ele>211.80000305176</ele>
        <time>2024-05-20T07:01:29.000Z</time>
      </trkpt>
      <trkpt lat="46.69866" lon="4.76622">
        <ele>211.80000305176</ele>
        <time>2024-05-20T07:01:30.000Z</time>
      </trkpt>
      <trkpt lat="46.69862" lon="4.76617">
        <ele>211.80000305176</ele>
        <time>2024-05-20T07:01:31.000Z</time>
      </trkpt>
      <trkpt lat="46.69858" lon="4.76612">
        <ele>211.80000305176</ele>
        <time>2024-05-20T07:01:32.000Z</time>
      </trkpt>
      <trkpt lat="46.69853" lon="4.76606">
        <ele>211.80000305176</ele>
        <time>2024-05-20T07:01:33.000Z</time>
      </trkpt>
      <trkpt lat="46.69849" lon="4.766">
        <ele>212</ele>
        <time>2024-05-20T07:01:34.000Z</time>
      </trkpt>
      <trkpt lat="46.69845" lon="4.76595">
        <ele>212</ele>
        <time>2024-05-20T07:01:35.000Z</time>
      </trkpt>
      <trkpt lat="46.69841" lon="4.76589">
        <ele>212.19999694824</ele>
        <time>2024-05-20T07:01:36.000Z</time>
      </trkpt>
      <trkpt lat="46.69837" lon="4.76583">
        <ele>212.39999389648</ele>
        <time>2024-05-20T07:01:37.000Z</time>
      </trkpt>
      <trkpt lat="46.69834" lon="4.76578">
        <ele>212.39999389648</ele>
        <time>2024-05-20T07:01:38.000Z</time>
      </trkpt>
      <trkpt lat="46.6983" lon="4.76572">
        <ele>212.60000610352</ele>
        <time>2024-05-20T07:01:39.000Z</time>
      </trkpt>
      <trkpt lat="46.69826" lon="4.76566">
        <ele>212.60000610352</ele>
        <time>2024-05-20T07:01:40.000Z</time>
      </trkpt>
      <trkpt lat="46.69822" lon="4.7656">
        <ele>212.60000610352</ele>
        <time>2024-05-20T07:01:41.000Z</time>
      </trkpt>
      <trkpt lat="46.69818" lon="4.76554">
        <ele>212.80000305176</ele>
        <time>2024-05-20T07:01:42.000Z</time>
      </trkpt>
      <trkpt lat="46.69814" lon="4.76549">
        <ele>212.80000305176</ele>
        <time>2024-05-20T07:01:43.000Z</time>
      </trkpt>
      <trkpt lat="46.69811" lon="4.76543">
        <ele>212.80000305176</ele>
        <time>2024-05-20T07:01:44.000Z</time>
      </trkpt>
      <trkpt lat="46.69807" lon="4.76537">
        <ele>213</ele>
        <time>2024-05-20T07:01:45.000Z</time>
      </trkpt>
      <trkpt lat="46.69803" lon="4.76531">
        <ele>213</ele>
        <time>2024-05-20T07:01:46.000Z</time>
      </trkpt>
      <trkpt lat="46.698" lon="4.76526">
        <ele>213</ele>
        <time>2024-05-20T07:01:47.000Z</time>
      </trkpt>
      <trkpt lat="46.69796" lon="4.7652">
        <ele>213.19999694824</ele>
        <time>2024-05-20T07:01:48.000Z</time>
      </trkpt>
      <trkpt lat="46.69792" lon="4.76515">
        <ele>213.19999694824</ele>
        <time>2024-05-20T07:01:49.000Z</time>
      </trkpt>
      <trkpt lat="46.69788" lon="4.76509">
        <ele>213.19999694824</ele>
        <time>2024-05-20T07:01:50.000Z</time>
      </trkpt>
      <trkpt lat="46.69784" lon="4.76503">
        <ele>213.19999694824</ele>
        <time>2024-05-20T07:01:51.000Z</time>
      </trkpt>
      <trkpt lat="46.6978" lon="4.76497">
        <ele>213.39999389648</ele>
        <time>2024-05-20T07:01:52.000Z</time>
      </trkpt>
      <trkpt lat="46.69776" lon="4.76491">
        <ele>213.39999389648</ele>
        <time>2024-05-20T07:01:53.000Z</time>
      </trkpt>
      <trkpt lat="46.69772" lon="4.76485">
        <ele>213.39999389648</ele>
        <time>2024-05-20T07:01:54.000Z</time>
      </trkpt>
      <trkpt lat="46.69768" lon="4.7648">
        <ele>213.39999389648</ele>
        <time>2024-05-20T07:01:55.000Z</time>
      </trkpt>
      <trkpt lat="46.69764" lon="4.76474">
        <ele>213.39999389648</ele>
        <time>2024-05-20T07:01:56.000Z</time>
      </trkpt>
      <trkpt lat="46.6976" lon="4.76468">
        <ele>213.60000610352</ele>
        <time>2024-05-20T07:01:57.000Z</time>
      </trkpt>
      <trkpt lat="46.69755" lon="4.76462">
        <ele>213.60000610352</ele>
        <time>2024-05-20T07:01:58.000Z</time>
      </trkpt>
      <trkpt lat="46.69752" lon="4.76456">
        <ele>213.60000610352</ele>
        <time>2024-05-20T07:01:59.000Z</time>
      </trkpt>
      <trkpt lat="46.69748" lon="4.76451">
        <ele>213.60000610352</ele>
        <time>2024-05-20T07:02:00.000Z</time>
      </trkpt>
      <trkpt lat="46.69744" lon="4.76445">
        <ele>213.80000305176</ele>
        <time>2024-05-20T07:02:01.000Z</time>
      </trkpt>
      <trkpt lat="46.6974" lon="4.76439">
        <ele>213.80000305176</ele>
        <time>2024-05-20T07:02:02.000Z</time>
      </trkpt>
      <trkpt lat="46.69736" lon="4.76433">
        <ele>213.80000305176</ele>
        <time>2024-05-20T07:02:03.000Z</time>
      </trkpt>
      <trkpt lat="46.69732" lon="4.76427">
        <ele>214</ele>
        <time>2024-05-20T07:02:04.000Z</time>
      </trkpt>
      <trkpt lat="46.69729" lon="4.76422">
        <ele>214</ele>
        <time>2024-05-20T07:02:05.000Z</time>
      </trkpt>
      <trkpt lat="46.69725" lon="4.76416">
        <ele>214</ele>
        <time>2024-05-20T07:02:06.000Z</time>
      </trkpt>
      <trkpt lat="46.69721" lon="4.7641">
        <ele>214.19999694824</ele>
        <time>2024-05-20T07:02:07.000Z</time>
      </trkpt>
      <trkpt lat="46.69717" lon="4.76404">
        <ele>214.19999694824</ele>
        <time>2024-05-20T07:02:08.000Z</time>
      </trkpt>
      <trkpt lat="46.69714" lon="4.76398">
        <ele>214.39999389648</ele>
        <time>2024-05-20T07:02:09.000Z</time>
      </trkpt>
      <trkpt lat="46.6971" lon="4.76392">
        <ele>214.39999389648</ele>
        <time>2024-05-20T07:02:10.000Z</time>
      </trkpt>
      <trkpt lat="46.69707" lon="4.76386">
        <ele>214.39999389648</ele>
        <time>2024-05-20T07:02:11.000Z</time>
      </trkpt>
      <trkpt lat="46.69704" lon="4.7638">
        <ele>214.60000610352</ele>
        <time>2024-05-20T07:02:12.000Z</time>
      </trkpt>
      <trkpt lat="46.69701" lon="4.76373">
        <ele>214.60000610352</ele>
        <time>2024-05-20T07:02:13.000Z</time>
      </trkpt>
      <trkpt lat="46.69698" lon="4.76367">
        <ele>214.60000610352</ele>
        <time>2024-05-20T07:02:14.000Z</time>
      </trkpt>
      <trkpt lat="46.69694" lon="4.7636">
        <ele>214.60000610352</ele>
        <time>2024-05-20T07:02:15.000Z</time>
      </trkpt>
      <trkpt lat="46.69691" lon="4.76353">
        <ele>214.60000610352</ele>
        <time>2024-05-20T07:02:16.000Z</time>
      </trkpt>
      <trkpt lat="46.69688" lon="4.76346">
        <ele>214.80000305176</ele>
        <time>2024-05-20T07:02:17.000Z</time>
      </trkpt>
      <trkpt lat="46.69685" lon="4.7634">
        <ele>215</ele>
        <time>2024-05-20T07:02:18.000Z</time>
      </trkpt>
      <trkpt lat="46.69682" lon="4.76333">
        <ele>215</ele>
        <time>2024-05-20T07:02:19.000Z</time>
      </trkpt>
      <trkpt lat="46.69679" lon="4.76326">
        <ele>215</ele>
        <time>2024-05-20T07:02:20.000Z</time>
      </trkpt>
      <trkpt lat="46.69676" lon="4.7632">
        <ele>215</ele>
        <time>2024-05-20T07:02:21.000Z</time>
      </trkpt>
      <trkpt lat="46.69673" lon="4.76313">
        <ele>215</ele>
        <time>2024-05-20T07:02:22.000Z</time>
      </trkpt>
      <trkpt lat="46.6967" lon="4.76306">
        <ele>215.19999694824</ele>
        <time>2024-05-20T07:02:23.000Z</time>
      </trkpt>
      <trkpt lat="46.69667" lon="4.76299">
        <ele>215.19999694824</ele>
        <time>2024-05-20T07:02:24.000Z</time>
      </trkpt>
      <trkpt lat="46.69664" lon="4.76292">
        <ele>215.39999389648</ele>
        <time>2024-05-20T07:02:25.000Z</time>
      </trkpt>
      <trkpt lat="46.69662" lon="4.76286">
        <ele>215.39999389648</ele>
        <time>2024-05-20T07:02:26.000Z</time>
      </trkpt>
      <trkpt lat="46.69659" lon="4.76279">
        <ele>215.39999389648</ele>
        <time>2024-05-20T07:02:27.000Z</time>
      </trkpt>
      <trkpt lat="46.69656" lon="4.76272">
        <ele>215.60000610352</ele>
        <time>2024-05-20T07:02:28.000Z</time>
      </trkpt>
      <trkpt lat="46.69654" lon="4.76265">
        <ele>215.60000610352</ele>
        <time>2024-05-20T07:02:29.000Z</time>
      </trkpt>
      <trkpt lat="46.69651" lon="4.76258">
        <ele>215.60000610352</ele>
        <time>2024-05-20T07:02:30.000Z</time>
      </trkpt>
      <trkpt lat="46.69648" lon="4.76252">
        <ele>215.60000610352</ele>
        <time>2024-05-20T07:02:31.000Z</time>
      </trkpt>
      <trkpt lat="46.69645" lon="4.76245">
        <ele>215.60000610352</ele>
        <time>2024-05-20T07:02:32.000Z</time>
      </trkpt>
      <trkpt lat="46.69643" lon="4.76239">
        <ele>215.60000610352</ele>
        <time>2024-05-20T07:02:33.000Z</time>
      </trkpt>
      <trkpt lat="46.69641" lon="4.76233">
        <ele>216</ele>
        <time>2024-05-20T07:02:34.000Z</time>
      </trkpt>
      <trkpt lat="46.69638" lon="4.76227">
        <ele>216</ele>
        <time>2024-05-20T07:02:35.000Z</time>
      </trkpt>
      <trkpt lat="46.69636" lon="4.76221">
        <ele>216.19999694824</ele>
        <time>2024-05-20T07:02:36.000Z</time>
      </trkpt>
      <trkpt lat="46.69633" lon="4.76215">
        <ele>216.19999694824</ele>
        <time>2024-05-20T07:02:37.000Z</time>
      </trkpt>
      <trkpt lat="46.69631" lon="4.76209">
        <ele>216.19999694824</ele>
        <time>2024-05-20T07:02:38.000Z</time>
      </trkpt>
      <trkpt lat="46.69628" lon="4.76203">
        <ele>216.19999694824</ele>
        <time>2024-05-20T07:02:39.000Z</time>
      </trkpt>
      <trkpt lat="46.69625" lon="4.76197">
        <ele>216.19999694824</ele>
        <time>2024-05-20T07:02:40.000Z</time>
      </trkpt>
      <trkpt lat="46.69623" lon="4.76191">
        <ele>216.39999389648</ele>
        <time>2024-05-20T07:02:41.000Z</time>
      </trkpt>
      <trkpt lat="46.6962" lon="4.76185">
        <ele>216.39999389648</ele>
        <time>2024-05-20T07:02:42.000Z</time>
      </trkpt>
      <trkpt lat="46.69617" lon="4.76179">
        <ele>216.60000610352</ele>
        <time>2024-05-20T07:02:43.000Z</time>
      </trkpt>
      <trkpt lat="46.69614" lon="4.76173">
        <ele>216.60000610352</ele>
        <time>2024-05-20T07:02:44.000Z</time>
      </trkpt>
      <trkpt lat="46.69612" lon="4.76167">
        <ele>216.60000610352</ele>
        <time>2024-05-20T07:02:45.000Z</time>
      </trkpt>
      <trkpt lat="46.69609" lon="4.76161">
        <ele>216.60000610352</ele>
        <time>2024-05-20T07:02:46.000Z</time>
      </trkpt>
      <trkpt lat="46.69606" lon="4.76155">
        <ele>216.60000610352</ele>
        <time>2024-05-20T07:02:47.000Z</time>
      </trkpt>
      <trkpt lat="46.69604" lon="4.7615">
        <ele>216.80000305176</ele>
        <time>2024-05-20T07:02:48.000Z</time>
      </trkpt>
      <trkpt lat="46.69601" lon="4.76145">
        <ele>216.80000305176</ele>
        <time>2024-05-20T07:02:49.000Z</time>
      </trkpt>
      <trkpt lat="46.69598" lon="4.7614">
        <ele>217</ele>
        <time>2024-05-20T07:02:50.000Z</time>
      </trkpt>
      <trkpt lat="46.69596" lon="4.76137">
        <ele>217</ele>
        <time>2024-05-20T07:02:51.000Z</time>
      </trkpt>
      <trkpt lat="46.69593" lon="4.76134">
        <ele>217</ele>
        <time>2024-05-20T07:02:52.000Z</time>
      </trkpt>
      <trkpt lat="46.69589" lon="4.76132">
        <ele>217</ele>
        <time>2024-05-20T07:02:53.000Z</time>
      </trkpt>
      <trkpt lat="46.69585" lon="4.76131">
        <ele>217</ele>
        <time>2024-05-20T07:02:54.000Z</time>
      </trkpt>
      <trkpt lat="46.69582" lon="4.76129">
        <ele>217.19999694824</ele>
        <time>2024-05-20T07:02:55.000Z</time>
      </trkpt>
      <trkpt lat="46.69578" lon="4.76127">
        <ele>217.19999694824</ele>
        <time>2024-05-20T07:02:56.000Z</time>
      </trkpt>
      <trkpt lat="46.69574" lon="4.76125">
        <ele>217.19999694824</ele>
        <time>2024-05-20T07:02:57.000Z</time>
      </trkpt>
      <trkpt lat="46.69571" lon="4.76124">
        <ele>217.19999694824</ele>
        <time>2024-05-20T07:02:58.000Z</time>
      </trkpt>
      <trkpt lat="46.69568" lon="4.76121">
        <ele>217.39999389648</ele>
        <time>2024-05-20T07:02:59.000Z</time>
      </trkpt>
      <trkpt lat="46.69567" lon="4.76116">
        <ele>217.39999389648</ele>
        <time>2024-05-20T07:03:00.000Z</time>
      </trkpt>
      <trkpt lat="46.69567" lon="4.76111">
        <ele>217.39999389648</ele>
        <time>2024-05-20T07:03:01.000Z</time>
      </trkpt>
      <trkpt lat="46.69569" lon="4.76106">
        <ele>217.39999389648</ele>
        <time>2024-05-20T07:03:02.000Z</time>
      </trkpt>
      <trkpt lat="46.69571" lon="4.761">
        <ele>217.39999389648</ele>
        <time>2024-05-20T07:03:03.000Z</time>
      </trkpt>
      <trkpt lat="46.69573" lon="4.76095">
        <ele>217.39999389648</ele>
        <time>2024-05-20T07:03:04.000Z</time>
      </trkpt>
      <trkpt lat="46.69574" lon="4.76089">
        <ele>217.39999389648</ele>
        <time>2024-05-20T07:03:05.000Z</time>
      </trkpt>
      <trkpt lat="46.69576" lon="4.76083">
        <ele>217.39999389648</ele>
        <time>2024-05-20T07:03:06.000Z</time>
      </trkpt>
      <trkpt lat="46.69577" lon="4.76077">
        <ele>217.39999389648</ele>
        <time>2024-05-20T07:03:07.000Z</time>
      </trkpt>
      <trkpt lat="46.69577" lon="4.76071">
        <ele>217.39999389648</ele>
        <time>2024-05-20T07:03:08.000Z</time>
      </trkpt>
      <trkpt lat="46.69578" lon="4.76064">
        <ele>217.39999389648</ele>
        <time>2024-05-20T07:03:09.000Z</time>
      </trkpt>
      <trkpt lat="46.69578" lon="4.76058">
        <ele>217.39999389648</ele>
        <time>2024-05-20T07:03:10.000Z</time>
      </trkpt>
      <trkpt lat="46.69578" lon="4.76051">
        <ele>217.39999389648</ele>
        <time>2024-05-20T07:03:11.000Z</time>
      </trkpt>
      <trkpt lat="46.69577" lon="4.76044">
        <ele>217.39999389648</ele>
        <time>2024-05-20T07:03:12.000Z</time>
      </trkpt>
      <trkpt lat="46.69577" lon="4.76038">
        <ele>217.39999389648</ele>
        <time>2024-05-20T07:03:13.000Z</time>
      </trkpt>
      <trkpt lat="46.69576" lon="4.76031">
        <ele>217.39999389648</ele>
        <time>2024-05-20T07:03:14.000Z</time>
      </trkpt>
      <trkpt lat="46.69575" lon="4.76023">
        <ele>217.39999389648</ele>
        <time>2024-05-20T07:03:15.000Z</time>
      </trkpt>
      <trkpt lat="46.69575" lon="4.76016">
        <ele>217.60000610352</ele>
        <time>2024-05-20T07:03:16.000Z</time>
      </trkpt>
      <trkpt lat="46.69574" lon="4.76008">
        <ele>217.60000610352</ele>
        <time>2024-05-20T07:03:17.000Z</time>
      </trkpt>
      <trkpt lat="46.69573" lon="4.76001">
        <ele>217.60000610352</ele>
        <time>2024-05-20T07:03:18.000Z</time>
      </trkpt>
      <trkpt lat="46.69572" lon="4.75994">
        <ele>217.60000610352</ele>
        <time>2024-05-20T07:03:19.000Z</time>
      </trkpt>
      <trkpt lat="46.6957" lon="4.75986">
        <ele>217.60000610352</ele>
        <time>2024-05-20T07:03:20.000Z</time>
      </trkpt>
      <trkpt lat="46.69569" lon="4.75979">
        <ele>217.60000610352</ele>
        <time>2024-05-20T07:03:21.000Z</time>
      </trkpt>
      <trkpt lat="46.69568" lon="4.75971">
        <ele>217.60000610352</ele>
        <time>2024-05-20T07:03:22.000Z</time>
      </trkpt>
      <trkpt lat="46.69567" lon="4.75964">
        <ele>217.60000610352</ele>
        <time>2024-05-20T07:03:23.000Z</time>
      </trkpt>
      <trkpt lat="46.69565" lon="4.75956">
        <ele>217.60000610352</ele>
        <time>2024-05-20T07:03:24.000Z</time>
      </trkpt>
      <trkpt lat="46.69564" lon="4.75948">
        <ele>217.60000610352</ele>
        <time>2024-05-20T07:03:25.000Z</time>
      </trkpt>
      <trkpt lat="46.69564" lon="4.75941">
        <ele>217.60000610352</ele>
        <time>2024-05-20T07:03:26.000Z</time>
      </trkpt>
      <trkpt lat="46.69563" lon="4.75933">
        <ele>217.60000610352</ele>
        <time>2024-05-20T07:03:27.000Z</time>
      </trkpt>
      <trkpt lat="46.69562" lon="4.75925">
        <ele>217.60000610352</ele>
        <time>2024-05-20T07:03:28.000Z</time>
      </trkpt>
      <trkpt lat="46.69561" lon="4.75917">
        <ele>217.60000610352</ele>
        <time>2024-05-20T07:03:29.000Z</time>
      </trkpt>
      <trkpt lat="46.6956" lon="4.7591">
        <ele>217.60000610352</ele>
        <time>2024-05-20T07:03:30.000Z</time>
      </trkpt>
      <trkpt lat="46.69558" lon="4.75902">
        <ele>217.60000610352</ele>
        <time>2024-05-20T07:03:31.000Z</time>
      </trkpt>
      <trkpt lat="46.69557" lon="4.75894">
        <ele>217.60000610352</ele>
        <time>2024-05-20T07:03:32.000Z</time>
      </trkpt>
      <trkpt lat="46.69556" lon="4.75886">
        <ele>217.60000610352</ele>
        <time>2024-05-20T07:03:33.000Z</time>
      </trkpt>
      <trkpt lat="46.69555" lon="4.75879">
        <ele>217.60000610352</ele>
        <time>2024-05-20T07:03:34.000Z</time>
      </trkpt>
      <trkpt lat="46.69554" lon="4.75871">
        <ele>217.80000305176</ele>
        <time>2024-05-20T07:03:35.000Z</time>
      </trkpt>
      <trkpt lat="46.69553" lon="4.75864">
        <ele>217.80000305176</ele>
        <time>2024-05-20T07:03:36.000Z</time>
      </trkpt>
      <trkpt lat="46.69552" lon="4.75857">
        <ele>217.80000305176</ele>
        <time>2024-05-20T07:03:37.000Z</time>
      </trkpt>
      <trkpt lat="46.69551" lon="4.75849">
        <ele>217.80000305176</ele>
        <time>2024-05-20T07:03:38.000Z</time>
      </trkpt>
      <trkpt lat="46.6955" lon="4.75842">
        <ele>218</ele>
        <time>2024-05-20T07:03:39.000Z</time>
      </trkpt>
      <trkpt lat="46.69549" lon="4.75834">
        <ele>218</ele>
        <time>2024-05-20T07:03:40.000Z</time>
      </trkpt>
      <trkpt lat="46.69548" lon="4.75827">
        <ele>218</ele>
        <time>2024-05-20T07:03:41.000Z</time>
      </trkpt>
      <trkpt lat="46.69547" lon="4.7582">
        <ele>218</ele>
        <time>2024-05-20T07:03:42.000Z</time>
      </trkpt>
      <trkpt lat="46.69545" lon="4.75813">
        <ele>218.19999694824</ele>
        <time>2024-05-20T07:03:43.000Z</time>
      </trkpt>
      <trkpt lat="46.69544" lon="4.75805">
        <ele>218.19999694824</ele>
        <time>2024-05-20T07:03:44.000Z</time>
      </trkpt>
      <trkpt lat="46.69543" lon="4.75798">
        <ele>218.19999694824</ele>
        <time>2024-05-20T07:03:45.000Z</time>
      </trkpt>
      <trkpt lat="46.69542" lon="4.75791">
        <ele>218.39999389648</ele>
        <time>2024-05-20T07:03:46.000Z</time>
      </trkpt>
      <trkpt lat="46.69542" lon="4.75783">
        <ele>218.39999389648</ele>
        <time>2024-05-20T07:03:47.000Z</time>
      </trkpt>
      <trkpt lat="46.69541" lon="4.75776">
        <ele>218.39999389648</ele>
        <time>2024-05-20T07:03:48.000Z</time>
      </trkpt>
      <trkpt lat="46.6954" lon="4.75768">
        <ele>218.60000610352</ele>
        <time>2024-05-20T07:03:49.000Z</time>
      </trkpt>
      <trkpt lat="46.69539" lon="4.75761">
        <ele>218.60000610352</ele>
        <time>2024-05-20T07:03:50.000Z</time>
      </trkpt>
      <trkpt lat="46.69538" lon="4.75753">
        <ele>218.60000610352</ele>
        <time>2024-05-20T07:03:51.000Z</time>
      </trkpt>
      <trkpt lat="46.69537" lon="4.75746">
        <ele>218.60000610352</ele>
        <time>2024-05-20T07:03:52.000Z</time>
      </trkpt>
      <trkpt lat="46.69536" lon="4.7574">
        <ele>218.80000305176</ele>
        <time>2024-05-20T07:03:53.000Z</time>
      </trkpt>
      <trkpt lat="46.69536" lon="4.75733">
        <ele>218.80000305176</ele>
        <time>2024-05-20T07:03:54.000Z</time>
      </trkpt>
      <trkpt lat="46.69535" lon="4.75726">
        <ele>218.80000305176</ele>
        <time>2024-05-20T07:03:55.000Z</time>
      </trkpt>
      <trkpt lat="46.69533" lon="4.75719">
        <ele>219.19999694824</ele>
        <time>2024-05-20T07:03:56.000Z</time>
      </trkpt>
      <trkpt lat="46.69532" lon="4.75712">
        <ele>219.19999694824</ele>
        <time>2024-05-20T07:03:57.000Z</time>
      </trkpt>
      <trkpt lat="46.6953" lon="4.75705">
        <ele>219.19999694824</ele>
        <time>2024-05-20T07:03:58.000Z</time>
      </trkpt>
      <trkpt lat="46.69529" lon="4.75698">
        <ele>219.39999389648</ele>
        <time>2024-05-20T07:03:59.000Z</time>
      </trkpt>
      <trkpt lat="46.69528" lon="4.75692">
        <ele>219.39999389648</ele>
        <time>2024-05-20T07:04:00.000Z</time>
      </trkpt>
      <trkpt lat="46.69527" lon="4.75685">
        <ele>219.60000610352</ele>
        <time>2024-05-20T07:04:01.000Z</time>
      </trkpt>
      <trkpt lat="46.69526" lon="4.75678">
        <ele>219.60000610352</ele>
        <time>2024-05-20T07:04:02.000Z</time>
      </trkpt>
      <trkpt lat="46.69525" lon="4.75671">
        <ele>219.80000305176</ele>
        <time>2024-05-20T07:04:03.000Z</time>
      </trkpt>
      <trkpt lat="46.69524" lon="4.75665">
        <ele>219.80000305176</ele>
        <time>2024-05-20T07:04:04.000Z</time>
      </trkpt>
      <trkpt lat="46.69523" lon="4.75658">
        <ele>220.19999694824</ele>
        <time>2024-05-20T07:04:05.000Z</time>
      </trkpt>
      <trkpt lat="46.69522" lon="4.75652">
        <ele>220.19999694824</ele>
        <time>2024-05-20T07:04:06.000Z</time>
      </trkpt>
      <trkpt lat="46.69522" lon="4.75645">
        <ele>220.19999694824</ele>
        <time>2024-05-20T07:04:07.000Z</time>
      </trkpt>
      <trkpt lat="46.69521" lon="4.75639">
        <ele>220.39999389648</ele>
        <time>2024-05-20T07:04:08.000Z</time>
      </trkpt>
      <trkpt lat="46.6952" lon="4.75632">
        <ele>220.60000610352</ele>
        <time>2024-05-20T07:04:09.000Z</time>
      </trkpt>
      <trkpt lat="46.6952" lon="4.75625">
        <ele>220.60000610352</ele>
        <time>2024-05-20T07:04:10.000Z</time>
      </trkpt>
      <trkpt lat="46.69519" lon="4.75619">
        <ele>220.60000610352</ele>
        <time>2024-05-20T07:04:11.000Z</time>
      </trkpt>
      <trkpt lat="46.69518" lon="4.75612">
        <ele>220.80000305176</ele>
        <time>2024-05-20T07:04:12.000Z</time>
      </trkpt>
      <trkpt lat="46.69517" lon="4.75605">
        <ele>220.80000305176</ele>
        <time>2024-05-20T07:04:13.000Z</time>
      </trkpt>
      <trkpt lat="46.69517" lon="4.75599">
        <ele>221</ele>
        <time>2024-05-20T07:04:14.000Z</time>
      </trkpt>
      <trkpt lat="46.69516" lon="4.75592">
        <ele>221</ele>
        <time>2024-05-20T07:04:15.000Z</time>
      </trkpt>
      <trkpt lat="46.69514" lon="4.75585">
        <ele>221.19999694824</ele>
        <time>2024-05-20T07:04:16.000Z</time>
      </trkpt>
      <trkpt lat="46.69513" lon="4.75579">
        <ele>221.39999389648</ele>
        <time>2024-05-20T07:04:17.000Z</time>
      </trkpt>
      <trkpt lat="46.69513" lon="4.75572">
        <ele>221.39999389648</ele>
        <time>2024-05-20T07:04:18.000Z</time>
      </trkpt>
      <trkpt lat="46.69512" lon="4.75566">
        <ele>221.60000610352</ele>
        <time>2024-05-20T07:04:19.000Z</time>
      </trkpt>
      <trkpt lat="46.69511" lon="4.7556">
        <ele>222</ele>
        <time>2024-05-20T07:04:20.000Z</time>
      </trkpt>
      <trkpt lat="46.6951" lon="4.75554">
        <ele>222</ele>
        <time>2024-05-20T07:04:21.000Z</time>
      </trkpt>
      <trkpt lat="46.69509" lon="4.75548">
        <ele>222</ele>
        <time>2024-05-20T07:04:22.000Z</time>
      </trkpt>
      <trkpt lat="46.69508" lon="4.75542">
        <ele>222.19999694824</ele>
        <time>2024-05-20T07:04:23.000Z</time>
      </trkpt>
      <trkpt lat="46.69507" lon="4.75536">
        <ele>222.39999389648</ele>
        <time>2024-05-20T07:04:24.000Z</time>
      </trkpt>
      <trkpt lat="46.69506" lon="4.7553">
        <ele>222.39999389648</ele>
        <time>2024-05-20T07:04:25.000Z</time>
      </trkpt>
      <trkpt lat="46.69505" lon="4.75524">
        <ele>222.39999389648</ele>
        <time>2024-05-20T07:04:26.000Z</time>
      </trkpt>
      <trkpt lat="46.69504" lon="4.75518">
        <ele>222.60000610352</ele>
        <time>2024-05-20T07:04:27.000Z</time>
      </trkpt>
      <trkpt lat="46.69503" lon="4.75512">
        <ele>222.60000610352</ele>
        <time>2024-05-20T07:04:28.000Z</time>
      </trkpt>
      <trkpt lat="46.69502" lon="4.75506">
        <ele>222.60000610352</ele>
        <time>2024-05-20T07:04:29.000Z</time>
      </trkpt>
      <trkpt lat="46.69501" lon="4.755">
        <ele>222.60000610352</ele>
        <time>2024-05-20T07:04:30.000Z</time>
      </trkpt>
      <trkpt lat="46.69501" lon="4.75494">
        <ele>222.60000610352</ele>
        <time>2024-05-20T07:04:31.000Z</time>
      </trkpt>
      <trkpt lat="46.695" lon="4.75488">
        <ele>222.60000610352</ele>
        <time>2024-05-20T07:04:32.000Z</time>
      </trkpt>
      <trkpt lat="46.69499" lon="4.75481">
        <ele>222.60000610352</ele>
        <time>2024-05-20T07:04:33.000Z</time>
      </trkpt>
      <trkpt lat="46.69499" lon="4.75475">
        <ele>222.60000610352</ele>
        <time>2024-05-20T07:04:34.000Z</time>
      </trkpt>
      <trkpt lat="46.69499" lon="4.75468">
        <ele>222.60000610352</ele>
        <time>2024-05-20T07:04:35.000Z</time>
      </trkpt>
      <trkpt lat="46.69499" lon="4.7546">
        <ele>222.60000610352</ele>
        <time>2024-05-20T07:04:36.000Z</time>
      </trkpt>
      <trkpt lat="46.695" lon="4.75452">
        <ele>222.39999389648</ele>
        <time>2024-05-20T07:04:37.000Z</time>
      </trkpt>
      <trkpt lat="46.695" lon="4.75444">
        <ele>222</ele>
        <time>2024-05-20T07:04:38.000Z</time>
      </trkpt>
      <trkpt lat="46.69501" lon="4.75436">
        <ele>221.60000610352</ele>
        <time>2024-05-20T07:04:39.000Z</time>
      </trkpt>
      <trkpt lat="46.69503" lon="4.75428">
        <ele>221.39999389648</ele>
        <time>2024-05-20T07:04:40.000Z</time>
      </trkpt>
      <trkpt lat="46.69504" lon="4.7542">
        <ele>221.19999694824</ele>
        <time>2024-05-20T07:04:41.000Z</time>
      </trkpt>
      <trkpt lat="46.69505" lon="4.75411">
        <ele>220.80000305176</ele>
        <time>2024-05-20T07:04:42.000Z</time>
      </trkpt>
      <trkpt lat="46.69506" lon="4.75402">
        <ele>220.60000610352</ele>
        <time>2024-05-20T07:04:43.000Z</time>
      </trkpt>
      <trkpt lat="46.69508" lon="4.75394">
        <ele>220.39999389648</ele>
        <time>2024-05-20T07:04:44.000Z</time>
      </trkpt>
      <trkpt lat="46.69509" lon="4.75384">
        <ele>220.19999694824</ele>
        <time>2024-05-20T07:04:45.000Z</time>
      </trkpt>
      <trkpt lat="46.6951" lon="4.75375">
        <ele>219.80000305176</ele>
        <time>2024-05-20T07:04:46.000Z</time>
      </trkpt>
      <trkpt lat="46.69511" lon="4.75366">
        <ele>219.19999694824</ele>
        <time>2024-05-20T07:04:47.000Z</time>
      </trkpt>
      <trkpt lat="46.69512" lon="4.75356">
        <ele>219.19999694824</ele>
        <time>2024-05-20T07:04:48.000Z</time>
      </trkpt>
      <trkpt lat="46.69512" lon="4.75347">
        <ele>218.80000305176</ele>
        <time>2024-05-20T07:04:49.000Z</time>
      </trkpt>
      <trkpt lat="46.69512" lon="4.75337">
        <ele>218.60000610352</ele>
        <time>2024-05-20T07:04:50.000Z</time>
      </trkpt>
      <trkpt lat="46.69511" lon="4.75328">
        <ele>218.39999389648</ele>
        <time>2024-05-20T07:04:51.000Z</time>
      </trkpt>
      <trkpt lat="46.6951" lon="4.75318">
        <ele>218</ele>
        <time>2024-05-20T07:04:52.000Z</time>
      </trkpt>
      <trkpt lat="46.69508" lon="4.75308">
        <ele>217.80000305176</ele>
        <time>2024-05-20T07:04:53.000Z</time>
      </trkpt>
      <trkpt lat="46.69507" lon="4.75298">
        <ele>217.60000610352</ele>
        <time>2024-05-20T07:04:54.000Z</time>
      </trkpt>
      <trkpt lat="46.69504" lon="4.75288">
        <ele>217.60000610352</ele>
        <time>2024-05-20T07:04:55.000Z</time>
      </trkpt>
      <trkpt lat="46.69501" lon="4.75278">
        <ele>217</ele>
        <time>2024-05-20T07:04:56.000Z</time>
      </trkpt>
      <trkpt lat="46.69497" lon="4.75269">
        <ele>216.39999389648</ele>
        <time>2024-05-20T07:04:57.000Z</time>
      </trkpt>
      <trkpt lat="46.69492" lon="4.7526">
        <ele>216.19999694824</ele>
        <time>2024-05-20T07:04:58.000Z</time>
      </trkpt>
      <trkpt lat="46.69487" lon="4.75252">
        <ele>216</ele>
        <time>2024-05-20T07:04:59.000Z</time>
      </trkpt>
      <trkpt lat="46.69482" lon="4.75244">
        <ele>215.80000305176</ele>
        <time>2024-05-20T07:05:00.000Z</time>
      </trkpt>
      <trkpt lat="46.69477" lon="4.75235">
        <ele>215.60000610352</ele>
        <time>2024-05-20T07:05:01.000Z</time>
      </trkpt>
      <trkpt lat="46.69472" lon="4.75227">
        <ele>215.19999694824</ele>
        <time>2024-05-20T07:05:02.000Z</time>
      </trkpt>
      <trkpt lat="46.69468" lon="4.75219">
        <ele>215.19999694824</ele>
        <time>2024-05-20T07:05:03.000Z</time>
      </trkpt>
      <trkpt lat="46.69463" lon="4.75211">
        <ele>215</ele>
        <time>2024-05-20T07:05:04.000Z</time>
      </trkpt>
      <trkpt lat="46.69459" lon="4.75202">
        <ele>214.60000610352</ele>
        <time>2024-05-20T07:05:05.000Z</time>
      </trkpt>
      <trkpt lat="46.69454" lon="4.75194">
        <ele>214.60000610352</ele>
        <time>2024-05-20T07:05:06.000Z</time>
      </trkpt>
      <trkpt lat="46.6945" lon="4.75186">
        <ele>214.39999389648</ele>
        <time>2024-05-20T07:05:07.000Z</time>
      </trkpt>
      <trkpt lat="46.69446" lon="4.75179">
        <ele>214.39999389648</ele>
        <time>2024-05-20T07:05:08.000Z</time>
      </trkpt>
      <trkpt lat="46.69441" lon="4.75172">
        <ele>214.39999389648</ele>
        <time>2024-05-20T07:05:09.000Z</time>
      </trkpt>
      <trkpt lat="46.69437" lon="4.75164">
        <ele>214.39999389648</ele>
        <time>2024-05-20T07:05:10.000Z</time>
      </trkpt>
      <trkpt lat="46.69432" lon="4.75157">
        <ele>214.60000610352</ele>
        <time>2024-05-20T07:05:11.000Z</time>
      </trkpt>
      <trkpt lat="46.69428" lon="4.7515">
        <ele>214.60000610352</ele>
        <time>2024-05-20T07:05:12.000Z</time>
      </trkpt>
      <trkpt lat="46.69423" lon="4.75143">
        <ele>214.60000610352</ele>
        <time>2024-05-20T07:05:13.000Z</time>
      </trkpt>
      <trkpt lat="46.69419" lon="4.75136">
        <ele>214.60000610352</ele>
        <time>2024-05-20T07:05:14.000Z</time>
      </trkpt>
      <trkpt lat="46.69415" lon="4.75129">
        <ele>214.60000610352</ele>
        <time>2024-05-20T07:05:15.000Z</time>
      </trkpt>
      <trkpt lat="46.69412" lon="4.75122">
        <ele>214.60000610352</ele>
        <time>2024-05-20T07:05:16.000Z</time>
      </trkpt>
      <trkpt lat="46.69408" lon="4.75114">
        <ele>214.80000305176</ele>
        <time>2024-05-20T07:05:17.000Z</time>
      </trkpt>
      <trkpt lat="46.69405" lon="4.75106">
        <ele>214.80000305176</ele>
        <time>2024-05-20T07:05:18.000Z</time>
      </trkpt>
      <trkpt lat="46.69403" lon="4.75098">
        <ele>215</ele>
        <time>2024-05-20T07:05:19.000Z</time>
      </trkpt>
      <trkpt lat="46.69401" lon="4.75089">
        <ele>215</ele>
        <time>2024-05-20T07:05:20.000Z</time>
      </trkpt>
      <trkpt lat="46.694" lon="4.7508">
        <ele>215</ele>
        <time>2024-05-20T07:05:21.000Z</time>
      </trkpt>
      <trkpt lat="46.69398" lon="4.75071">
        <ele>215.19999694824</ele>
        <time>2024-05-20T07:05:22.000Z</time>
      </trkpt>
      <trkpt lat="46.69398" lon="4.75063">
        <ele>215.19999694824</ele>
        <time>2024-05-20T07:05:23.000Z</time>
      </trkpt>
      <trkpt lat="46.69398" lon="4.75054">
        <ele>215.39999389648</ele>
        <time>2024-05-20T07:05:24.000Z</time>
      </trkpt>
      <trkpt lat="46.69398" lon="4.75046">
        <ele>215.39999389648</ele>
        <time>2024-05-20T07:05:25.000Z</time>
      </trkpt>
      <trkpt lat="46.69398" lon="4.75038">
        <ele>215.60000610352</ele>
        <time>2024-05-20T07:05:26.000Z</time>
      </trkpt>
      <trkpt lat="46.69399" lon="4.7503">
        <ele>215.80000305176</ele>
        <time>2024-05-20T07:05:27.000Z</time>
      </trkpt>
      <trkpt lat="46.694" lon="4.75023">
        <ele>216.19999694824</ele>
        <time>2024-05-20T07:05:28.000Z</time>
      </trkpt>
      <trkpt lat="46.69401" lon="4.75015">
        <ele>216.19999694824</ele>
        <time>2024-05-20T07:05:29.000Z</time>
      </trkpt>
      <trkpt lat="46.69402" lon="4.75007">
        <ele>216.39999389648</ele>
        <time>2024-05-20T07:05:30.000Z</time>
      </trkpt>
      <trkpt lat="46.69403" lon="4.75">
        <ele>216.60000610352</ele>
        <time>2024-05-20T07:05:31.000Z</time>
      </trkpt>
      <trkpt lat="46.69404" lon="4.74993">
        <ele>217</ele>
        <time>2024-05-20T07:05:32.000Z</time>
      </trkpt>
      <trkpt lat="46.69405" lon="4.74985">
        <ele>217</ele>
        <time>2024-05-20T07:05:33.000Z</time>
      </trkpt>
      <trkpt lat="46.69406" lon="4.74978">
        <ele>217.19999694824</ele>
        <time>2024-05-20T07:05:34.000Z</time>
      </trkpt>
      <trkpt lat="46.69407" lon="4.74971">
        <ele>217.39999389648</ele>
        <time>2024-05-20T07:05:35.000Z</time>
      </trkpt>
      <trkpt lat="46.69408" lon="4.74965">
        <ele>217.39999389648</ele>
        <time>2024-05-20T07:05:36.000Z</time>
      </trkpt>
      <trkpt lat="46.69409" lon="4.74958">
        <ele>217.60000610352</ele>
        <time>2024-05-20T07:05:37.000Z</time>
      </trkpt>
      <trkpt lat="46.6941" lon="4.74952">
        <ele>217.80000305176</ele>
        <time>2024-05-20T07:05:38.000Z</time>
      </trkpt>
      <trkpt lat="46.6941" lon="4.74945">
        <ele>218</ele>
        <time>2024-05-20T07:05:39.000Z</time>
      </trkpt>
      <trkpt lat="46.69411" lon="4.74937">
        <ele>218</ele>
        <time>2024-05-20T07:05:40.000Z</time>
      </trkpt>
      <trkpt lat="46.69412" lon="4.7493">
        <ele>218</ele>
        <time>2024-05-20T07:05:41.000Z</time>
      </trkpt>
      <trkpt lat="46.69413" lon="4.74922">
        <ele>218</ele>
        <time>2024-05-20T07:05:42.000Z</time>
      </trkpt>
      <trkpt lat="46.69414" lon="4.74915">
        <ele>217.80000305176</ele>
        <time>2024-05-20T07:05:43.000Z</time>
      </trkpt>
      <trkpt lat="46.69415" lon="4.74907">
        <ele>217.80000305176</ele>
        <time>2024-05-20T07:05:44.000Z</time>
      </trkpt>
      <trkpt lat="46.69416" lon="4.74899">
        <ele>217.39999389648</ele>
        <time>2024-05-20T07:05:45.000Z</time>
      </trkpt>
      <trkpt lat="46.69418" lon="4.7489">
        <ele>217.19999694824</ele>
        <time>2024-05-20T07:05:46.000Z</time>
      </trkpt>
      <trkpt lat="46.69419" lon="4.74883">
        <ele>216.80000305176</ele>
        <time>2024-05-20T07:05:47.000Z</time>
      </trkpt>
      <trkpt lat="46.69419" lon="4.74876">
        <ele>216.60000610352</ele>
        <time>2024-05-20T07:05:48.000Z</time>
      </trkpt>
      <trkpt lat="46.69417" lon="4.7487">
        <ele>216.39999389648</ele>
        <time>2024-05-20T07:05:49.000Z</time>
      </trkpt>
      <trkpt lat="46.69414" lon="4.74866">
        <ele>216.39999389648</ele>
        <time>2024-05-20T07:05:50.000Z</time>
      </trkpt>
      <trkpt lat="46.6941" lon="4.74866">
        <ele>216.39999389648</ele>
        <time>2024-05-20T07:05:51.000Z</time>
      </trkpt>
      <trkpt lat="46.69406" lon="4.74867">
        <ele>216.39999389648</ele>
        <time>2024-05-20T07:05:52.000Z</time>
      </trkpt>
      <trkpt lat="46.69402" lon="4.74869">
        <ele>216.39999389648</ele>
        <time>2024-05-20T07:05:53.000Z</time>
      </trkpt>
      <trkpt lat="46.69397" lon="4.7487">
        <ele>216.39999389648</ele>
        <time>2024-05-20T07:05:54.000Z</time>
      </trkpt>
      <trkpt lat="46.69394" lon="4.74869">
        <ele>216.60000610352</ele>
        <time>2024-05-20T07:05:55.000Z</time>
      </trkpt>
      <trkpt lat="46.6939" lon="4.74869">
        <ele>216.60000610352</ele>
        <time>2024-05-20T07:05:56.000Z</time>
      </trkpt>
      <trkpt lat="46.69385" lon="4.74867">
        <ele>217</ele>
        <time>2024-05-20T07:05:57.000Z</time>
      </trkpt>
      <trkpt lat="46.69381" lon="4.74865">
        <ele>217.60000610352</ele>
        <time>2024-05-20T07:05:58.000Z</time>
      </trkpt>
      <trkpt lat="46.69377" lon="4.74863">
        <ele>217.60000610352</ele>
        <time>2024-05-20T07:05:59.000Z</time>
      </trkpt>
      <trkpt lat="46.69373" lon="4.74861">
        <ele>217.80000305176</ele>
        <time>2024-05-20T07:06:00.000Z</time>
      </trkpt>
      <trkpt lat="46.69369" lon="4.74858">
        <ele>218</ele>
        <time>2024-05-20T07:06:01.000Z</time>
      </trkpt>
      <trkpt lat="46.69366" lon="4.74855">
        <ele>218.19999694824</ele>
        <time>2024-05-20T07:06:02.000Z</time>
      </trkpt>
      <trkpt lat="46.69362" lon="4.74852">
        <ele>218.39999389648</ele>
        <time>2024-05-20T07:06:03.000Z</time>
      </trkpt>
      <trkpt lat="46.69359" lon="4.74848">
        <ele>218.80000305176</ele>
        <time>2024-05-20T07:06:04.000Z</time>
      </trkpt>
      <trkpt lat="46.69356" lon="4.74844">
        <ele>219</ele>
        <time>2024-05-20T07:06:05.000Z</time>
      </trkpt>
      <trkpt lat="46.69354" lon="4.7484">
        <ele>219.39999389648</ele>
        <time>2024-05-20T07:06:06.000Z</time>
      </trkpt>
      <trkpt lat="46.6935" lon="4.74836">
        <ele>219.60000610352</ele>
        <time>2024-05-20T07:06:07.000Z</time>
      </trkpt>
      <trkpt lat="46.69347" lon="4.74832">
        <ele>219.80000305176</ele>
        <time>2024-05-20T07:06:08.000Z</time>
      </trkpt>
      <trkpt lat="46.69344" lon="4.74828">
        <ele>219.80000305176</ele>
        <time>2024-05-20T07:06:09.000Z</time>
      </trkpt>
      <trkpt lat="46.69342" lon="4.74823">
        <ele>220</ele>
        <time>2024-05-20T07:06:10.000Z</time>
      </trkpt>
      <trkpt lat="46.69339" lon="4.74818">
        <ele>220</ele>
        <time>2024-05-20T07:06:11.000Z</time>
      </trkpt>
      <trkpt lat="46.69336" lon="4.74813">
        <ele>220</ele>
        <time>2024-05-20T07:06:12.000Z</time>
      </trkpt>
      <trkpt lat="46.69333" lon="4.74807">
        <ele>220</ele>
        <time>2024-05-20T07:06:13.000Z</time>
      </trkpt>
      <trkpt lat="46.69331" lon="4.74801">
        <ele>220</ele>
        <time>2024-05-20T07:06:14.000Z</time>
      </trkpt>
      <trkpt lat="46.69329" lon="4.74795">
        <ele>220</ele>
        <time>2024-05-20T07:06:15.000Z</time>
      </trkpt>
      <trkpt lat="46.69326" lon="4.74788">
        <ele>220</ele>
        <time>2024-05-20T07:06:16.000Z</time>
      </trkpt>
      <trkpt lat="46.69324" lon="4.74781">
        <ele>220</ele>
        <time>2024-05-20T07:06:17.000Z</time>
      </trkpt>
      <trkpt lat="46.69321" lon="4.74774">
        <ele>219.80000305176</ele>
        <time>2024-05-20T07:06:18.000Z</time>
      </trkpt>
      <trkpt lat="46.69318" lon="4.74768">
        <ele>219.80000305176</ele>
        <time>2024-05-20T07:06:19.000Z</time>
      </trkpt>
      <trkpt lat="46.69314" lon="4.74761">
        <ele>219.80000305176</ele>
        <time>2024-05-20T07:06:20.000Z</time>
      </trkpt>
      <trkpt lat="46.69311" lon="4.74754">
        <ele>219.80000305176</ele>
        <time>2024-05-20T07:06:21.000Z</time>
      </trkpt>
      <trkpt lat="46.69306" lon="4.74747">
        <ele>219.39999389648</ele>
        <time>2024-05-20T07:06:22.000Z</time>
      </trkpt>
      <trkpt lat="46.69302" lon="4.7474">
        <ele>219.39999389648</ele>
        <time>2024-05-20T07:06:23.000Z</time>
      </trkpt>
      <trkpt lat="46.69297" lon="4.74733">
        <ele>219.19999694824</ele>
        <time>2024-05-20T07:06:24.000Z</time>
      </trkpt>
      <trkpt lat="46.69293" lon="4.74726">
        <ele>219</ele>
        <time>2024-05-20T07:06:25.000Z</time>
      </trkpt>
      <trkpt lat="46.69288" lon="4.74718">
        <ele>219</ele>
        <time>2024-05-20T07:06:26.000Z</time>
      </trkpt>
      <trkpt lat="46.69283" lon="4.74711">
        <ele>218</ele>
        <time>2024-05-20T07:06:27.000Z</time>
      </trkpt>
      <trkpt lat="46.69279" lon="4.74703">
        <ele>217.60000610352</ele>
        <time>2024-05-20T07:06:28.000Z</time>
      </trkpt>
      <trkpt lat="46.69274" lon="4.74695">
        <ele>217.60000610352</ele>
        <time>2024-05-20T07:06:29.000Z</time>
      </trkpt>
      <trkpt lat="46.69269" lon="4.74688">
        <ele>217.39999389648</ele>
        <time>2024-05-20T07:06:30.000Z</time>
      </trkpt>
      <trkpt lat="46.69264" lon="4.74681">
        <ele>217.19999694824</ele>
        <time>2024-05-20T07:06:31.000Z</time>
      </trkpt>
      <trkpt lat="46.6926" lon="4.74675">
        <ele>217</ele>
        <time>2024-05-20T07:06:32.000Z</time>
      </trkpt>
      <trkpt lat="46.69256" lon="4.74668">
        <ele>217</ele>
        <time>2024-05-20T07:06:33.000Z</time>
      </trkpt>
      <trkpt lat="46.69251" lon="4.74661">
        <ele>217</ele>
        <time>2024-05-20T07:06:34.000Z</time>
      </trkpt>
      <trkpt lat="46.69247" lon="4.74655">
        <ele>217</ele>
        <time>2024-05-20T07:06:35.000Z</time>
      </trkpt>
      <trkpt lat="46.69243" lon="4.74649">
        <ele>217.19999694824</ele>
        <time>2024-05-20T07:06:36.000Z</time>
      </trkpt>
      <trkpt lat="46.69238" lon="4.74644">
        <ele>217.39999389648</ele>
        <time>2024-05-20T07:06:37.000Z</time>
      </trkpt>
      <trkpt lat="46.69234" lon="4.7464">
        <ele>217.39999389648</ele>
        <time>2024-05-20T07:06:38.000Z</time>
      </trkpt>
      <trkpt lat="46.6923" lon="4.74635">
        <ele>218</ele>
        <time>2024-05-20T07:06:39.000Z</time>
      </trkpt>
      <trkpt lat="46.69226" lon="4.7463">
        <ele>218.19999694824</ele>
        <time>2024-05-20T07:06:40.000Z</time>
      </trkpt>
      <trkpt lat="46.69222" lon="4.74626">
        <ele>218.60000610352</ele>
        <time>2024-05-20T07:06:41.000Z</time>
      </trkpt>
      <trkpt lat="46.69218" lon="4.74621">
        <ele>218.60000610352</ele>
        <time>2024-05-20T07:06:42.000Z</time>
      </trkpt>
      <trkpt lat="46.69215" lon="4.74617">
        <ele>219.19999694824</ele>
        <time>2024-05-20T07:06:43.000Z</time>
      </trkpt>
      <trkpt lat="46.69211" lon="4.74612">
        <ele>219.19999694824</ele>
        <time>2024-05-20T07:06:44.000Z</time>
      </trkpt>
      <trkpt lat="46.69208" lon="4.74607">
        <ele>219.19999694824</ele>
        <time>2024-05-20T07:06:45.000Z</time>
      </trkpt>
      <trkpt lat="46.69204" lon="4.74603">
        <ele>219.39999389648</ele>
        <time>2024-05-20T07:06:46.000Z</time>
      </trkpt>
      <trkpt lat="46.69201" lon="4.74598">
        <ele>219.60000610352</ele>
        <time>2024-05-20T07:06:47.000Z</time>
      </trkpt>
      <trkpt lat="46.69197" lon="4.74593">
        <ele>219.60000610352</ele>
        <time>2024-05-20T07:06:48.000Z</time>
      </trkpt>
      <trkpt lat="46.69194" lon="4.74588">
        <ele>219.60000610352</ele>
        <time>2024-05-20T07:06:49.000Z</time>
      </trkpt>
      <trkpt lat="46.69191" lon="4.74582">
        <ele>219.80000305176</ele>
        <time>2024-05-20T07:06:50.000Z</time>
      </trkpt>
      <trkpt lat="46.69187" lon="4.74577">
        <ele>219.80000305176</ele>
        <time>2024-05-20T07:06:51.000Z</time>
      </trkpt>
      <trkpt lat="46.69184" lon="4.74571">
        <ele>219.80000305176</ele>
        <time>2024-05-20T07:06:52.000Z</time>
      </trkpt>
      <trkpt lat="46.69181" lon="4.74564">
        <ele>219.80000305176</ele>
        <time>2024-05-20T07:06:53.000Z</time>
      </trkpt>
      <trkpt lat="46.69179" lon="4.74558">
        <ele>219.60000610352</ele>
        <time>2024-05-20T07:06:54.000Z</time>
      </trkpt>
      <trkpt lat="46.69176" lon="4.74551">
        <ele>219.60000610352</ele>
        <time>2024-05-20T07:06:55.000Z</time>
      </trkpt>
      <trkpt lat="46.69174" lon="4.74543">
        <ele>219.60000610352</ele>
        <time>2024-05-20T07:06:56.000Z</time>
      </trkpt>
      <trkpt lat="46.69173" lon="4.74536">
        <ele>219.39999389648</ele>
        <time>2024-05-20T07:06:57.000Z</time>
      </trkpt>
      <trkpt lat="46.69171" lon="4.74528">
        <ele>219.39999389648</ele>
        <time>2024-05-20T07:06:58.000Z</time>
      </trkpt>
      <trkpt lat="46.69169" lon="4.7452">
        <ele>219.39999389648</ele>
        <time>2024-05-20T07:06:59.000Z</time>
      </trkpt>
      <trkpt lat="46.69168" lon="4.74512">
        <ele>219.19999694824</ele>
        <time>2024-05-20T07:07:00.000Z</time>
      </trkpt>
      <trkpt lat="46.69166" lon="4.74504">
        <ele>219.19999694824</ele>
        <time>2024-05-20T07:07:01.000Z</time>
      </trkpt>
      <trkpt lat="46.69165" lon="4.74496">
        <ele>219</ele>
        <time>2024-05-20T07:07:02.000Z</time>
      </trkpt>
      <trkpt lat="46.69163" lon="4.74487">
        <ele>219</ele>
        <time>2024-05-20T07:07:03.000Z</time>
      </trkpt>
      <trkpt lat="46.69161" lon="4.74479">
        <ele>218.80000305176</ele>
        <time>2024-05-20T07:07:04.000Z</time>
      </trkpt>
      <trkpt lat="46.69159" lon="4.7447">
        <ele>218.39999389648</ele>
        <time>2024-05-20T07:07:05.000Z</time>
      </trkpt>
      <trkpt lat="46.69158" lon="4.74461">
        <ele>218.39999389648</ele>
        <time>2024-05-20T07:07:06.000Z</time>
      </trkpt>
      <trkpt lat="46.69155" lon="4.74453">
        <ele>218.39999389648</ele>
        <time>2024-05-20T07:07:07.000Z</time>
      </trkpt>
      <trkpt lat="46.69153" lon="4.74444">
        <ele>218.19999694824</ele>
        <time>2024-05-20T07:07:08.000Z</time>
      </trkpt>
      <trkpt lat="46.6915" lon="4.74436">
        <ele>218</ele>
        <time>2024-05-20T07:07:09.000Z</time>
      </trkpt>
      <trkpt lat="46.69148" lon="4.74427">
        <ele>217.60000610352</ele>
        <time>2024-05-20T07:07:10.000Z</time>
      </trkpt>
      <trkpt lat="46.69146" lon="4.74417">
        <ele>217.60000610352</ele>
        <time>2024-05-20T07:07:11.000Z</time>
      </trkpt>
      <trkpt lat="46.69144" lon="4.74408">
        <ele>217.39999389648</ele>
        <time>2024-05-20T07:07:12.000Z</time>
      </trkpt>
      <trkpt lat="46.69142" lon="4.74399">
        <ele>217.39999389648</ele>
        <time>2024-05-20T07:07:13.000Z</time>
      </trkpt>
      <trkpt lat="46.6914" lon="4.7439">
        <ele>217.19999694824</ele>
        <time>2024-05-20T07:07:14.000Z</time>
      </trkpt>
      <trkpt lat="46.69138" lon="4.7438">
        <ele>216.80000305176</ele>
        <time>2024-05-20T07:07:15.000Z</time>
      </trkpt>
      <trkpt lat="46.69136" lon="4.74371">
        <ele>216.39999389648</ele>
        <time>2024-05-20T07:07:16.000Z</time>
      </trkpt>
      <trkpt lat="46.69133" lon="4.74361">
        <ele>216</ele>
        <time>2024-05-20T07:07:17.000Z</time>
      </trkpt>
      <trkpt lat="46.69131" lon="4.74351">
        <ele>215.80000305176</ele>
        <time>2024-05-20T07:07:18.000Z</time>
      </trkpt>
      <trkpt lat="46.6913" lon="4.74341">
        <ele>215.39999389648</ele>
        <time>2024-05-20T07:07:19.000Z</time>
      </trkpt>
      <trkpt lat="46.69128" lon="4.74331">
        <ele>215.39999389648</ele>
        <time>2024-05-20T07:07:20.000Z</time>
      </trkpt>
      <trkpt lat="46.69127" lon="4.74322">
        <ele>215.19999694824</ele>
        <time>2024-05-20T07:07:21.000Z</time>
      </trkpt>
      <trkpt lat="46.69125" lon="4.74312">
        <ele>215.19999694824</ele>
        <time>2024-05-20T07:07:22.000Z</time>
      </trkpt>
      <trkpt lat="46.69123" lon="4.74301">
        <ele>215</ele>
        <time>2024-05-20T07:07:23.000Z</time>
      </trkpt>
      <trkpt lat="46.69121" lon="4.74292">
        <ele>215</ele>
        <time>2024-05-20T07:07:24.000Z</time>
      </trkpt>
      <trkpt lat="46.69119" lon="4.74282">
        <ele>215</ele>
        <time>2024-05-20T07:07:25.000Z</time>
      </trkpt>
      <trkpt lat="46.69117" lon="4.74272">
        <ele>214.80000305176</ele>
        <time>2024-05-20T07:07:26.000Z</time>
      </trkpt>
      <trkpt lat="46.69115" lon="4.74262">
        <ele>214.60000610352</ele>
        <time>2024-05-20T07:07:27.000Z</time>
      </trkpt>
      <trkpt lat="46.69112" lon="4.74252">
        <ele>214.60000610352</ele>
        <time>2024-05-20T07:07:28.000Z</time>
      </trkpt>
      <trkpt lat="46.69109" lon="4.74241">
        <ele>214.60000610352</ele>
        <time>2024-05-20T07:07:29.000Z</time>
      </trkpt>
      <trkpt lat="46.69106" lon="4.74232">
        <ele>214.39999389648</ele>
        <time>2024-05-20T07:07:30.000Z</time>
      </trkpt>
      <trkpt lat="46.69104" lon="4.74223">
        <ele>214.19999694824</ele>
        <time>2024-05-20T07:07:31.000Z</time>
      </trkpt>
      <trkpt lat="46.691" lon="4.74214">
        <ele>214.19999694824</ele>
        <time>2024-05-20T07:07:32.000Z</time>
      </trkpt>
      <trkpt lat="46.69096" lon="4.74204">
        <ele>214</ele>
        <time>2024-05-20T07:07:33.000Z</time>
      </trkpt>
      <trkpt lat="46.69093" lon="4.74195">
        <ele>214</ele>
        <time>2024-05-20T07:07:34.000Z</time>
      </trkpt>
      <trkpt lat="46.69091" lon="4.74187">
        <ele>213.80000305176</ele>
        <time>2024-05-20T07:07:35.000Z</time>
      </trkpt>
      <trkpt lat="46.69087" lon="4.74179">
        <ele>213.80000305176</ele>
        <time>2024-05-20T07:07:36.000Z</time>
      </trkpt>
      <trkpt lat="46.69083" lon="4.7417">
        <ele>213.80000305176</ele>
        <time>2024-05-20T07:07:37.000Z</time>
      </trkpt>
      <trkpt lat="46.6908" lon="4.74161">
        <ele>213.80000305176</ele>
        <time>2024-05-20T07:07:38.000Z</time>
      </trkpt>
      <trkpt lat="46.69077" lon="4.74152">
        <ele>213.80000305176</ele>
        <time>2024-05-20T07:07:39.000Z</time>
      </trkpt>
      <trkpt lat="46.69075" lon="4.74145">
        <ele>213.80000305176</ele>
        <time>2024-05-20T07:07:40.000Z</time>
      </trkpt>
      <trkpt lat="46.69073" lon="4.74137">
        <ele>213.80000305176</ele>
        <time>2024-05-20T07:07:41.000Z</time>
      </trkpt>
      <trkpt lat="46.6907" lon="4.74129">
        <ele>213.80000305176</ele>
        <time>2024-05-20T07:07:42.000Z</time>
      </trkpt>
      <trkpt lat="46.69067" lon="4.7412">
        <ele>213.60000610352</ele>
        <time>2024-05-20T07:07:43.000Z</time>
      </trkpt>
      <trkpt lat="46.69064" lon="4.74112">
        <ele>213.60000610352</ele>
        <time>2024-05-20T07:07:44.000Z</time>
      </trkpt>
      <trkpt lat="46.69061" lon="4.74103">
        <ele>213.39999389648</ele>
        <time>2024-05-20T07:07:45.000Z</time>
      </trkpt>
      <trkpt lat="46.69058" lon="4.74094">
        <ele>213.39999389648</ele>
        <time>2024-05-20T07:07:46.000Z</time>
      </trkpt>
      <trkpt lat="46.69055" lon="4.74085">
        <ele>213.39999389648</ele>
        <time>2024-05-20T07:07:47.000Z</time>
      </trkpt>
      <trkpt lat="46.69052" lon="4.74077">
        <ele>213.19999694824</ele>
        <time>2024-05-20T07:07:48.000Z</time>
      </trkpt>
      <trkpt lat="46.69049" lon="4.74069">
        <ele>213.19999694824</ele>
        <time>2024-05-20T07:07:49.000Z</time>
      </trkpt>
      <trkpt lat="46.69046" lon="4.74061">
        <ele>213.19999694824</ele>
        <time>2024-05-20T07:07:50.000Z</time>
      </trkpt>
      <trkpt lat="46.69044" lon="4.74052">
        <ele>213.19999694824</ele>
        <time>2024-05-20T07:07:51.000Z</time>
      </trkpt>
      <trkpt lat="46.69041" lon="4.74044">
        <ele>213</ele>
        <time>2024-05-20T07:07:52.000Z</time>
      </trkpt>
      <trkpt lat="46.69037" lon="4.74036">
        <ele>213</ele>
        <time>2024-05-20T07:07:53.000Z</time>
      </trkpt>
      <trkpt lat="46.69034" lon="4.74027">
        <ele>213</ele>
        <time>2024-05-20T07:07:54.000Z</time>
      </trkpt>
      <trkpt lat="46.6903" lon="4.74019">
        <ele>212.80000305176</ele>
        <time>2024-05-20T07:07:55.000Z</time>
      </trkpt>
      <trkpt lat="46.69026" lon="4.7401">
        <ele>212.80000305176</ele>
        <time>2024-05-20T07:07:56.000Z</time>
      </trkpt>
      <trkpt lat="46.69023" lon="4.74002">
        <ele>212.80000305176</ele>
        <time>2024-05-20T07:07:57.000Z</time>
      </trkpt>
      <trkpt lat="46.69019" lon="4.73994">
        <ele>212.60000610352</ele>
        <time>2024-05-20T07:07:58.000Z</time>
      </trkpt>
      <trkpt lat="46.69016" lon="4.73986">
        <ele>212.60000610352</ele>
        <time>2024-05-20T07:07:59.000Z</time>
      </trkpt>
      <trkpt lat="46.69013" lon="4.73977">
        <ele>212.60000610352</ele>
        <time>2024-05-20T07:08:00.000Z</time>
      </trkpt>
      <trkpt lat="46.6901" lon="4.73969">
        <ele>212.60000610352</ele>
        <time>2024-05-20T07:08:01.000Z</time>
      </trkpt>
      <trkpt lat="46.69006" lon="4.7396">
        <ele>212.60000610352</ele>
        <time>2024-05-20T07:08:02.000Z</time>
      </trkpt>
      <trkpt lat="46.69003" lon="4.73951">
        <ele>212.39999389648</ele>
        <time>2024-05-20T07:08:03.000Z</time>
      </trkpt>
      <trkpt lat="46.68999" lon="4.73942">
        <ele>212.39999389648</ele>
        <time>2024-05-20T07:08:04.000Z</time>
      </trkpt>
      <trkpt lat="46.68996" lon="4.73933">
        <ele>212.19999694824</ele>
        <time>2024-05-20T07:08:05.000Z</time>
      </trkpt>
      <trkpt lat="46.68992" lon="4.73925">
        <ele>212</ele>
        <time>2024-05-20T07:08:06.000Z</time>
      </trkpt>
      <trkpt lat="46.68989" lon="4.73916">
        <ele>212</ele>
        <time>2024-05-20T07:08:07.000Z</time>
      </trkpt>
      <trkpt lat="46.68985" lon="4.73908">
        <ele>211.80000305176</ele>
        <time>2024-05-20T07:08:08.000Z</time>
      </trkpt>
      <trkpt lat="46.68982" lon="4.73899">
        <ele>211.80000305176</ele>
        <time>2024-05-20T07:08:09.000Z</time>
      </trkpt>
      <trkpt lat="46.68978" lon="4.73891">
        <ele>211.39999389648</ele>
        <time>2024-05-20T07:08:10.000Z</time>
      </trkpt>
      <trkpt lat="46.68975" lon="4.73882">
        <ele>211.19999694824</ele>
        <time>2024-05-20T07:08:11.000Z</time>
      </trkpt>
      <trkpt lat="46.68971" lon="4.73874">
        <ele>211.19999694824</ele>
        <time>2024-05-20T07:08:12.000Z</time>
      </trkpt>
      <trkpt lat="46.68968" lon="4.73866">
        <ele>211</ele>
        <time>2024-05-20T07:08:13.000Z</time>
      </trkpt>
      <trkpt lat="46.68965" lon="4.73859">
        <ele>210.80000305176</ele>
        <time>2024-05-20T07:08:14.000Z</time>
      </trkpt>
      <trkpt lat="46.68962" lon="4.73851">
        <ele>210.60000610352</ele>
        <time>2024-05-20T07:08:15.000Z</time>
      </trkpt>
      <trkpt lat="46.68959" lon="4.73843">
        <ele>210.39999389648</ele>
        <time>2024-05-20T07:08:16.000Z</time>
      </trkpt>
      <trkpt lat="46.68956" lon="4.73835">
        <ele>210.39999389648</ele>
        <time>2024-05-20T07:08:17.000Z</time>
      </trkpt>
      <trkpt lat="46.68953" lon="4.73828">
        <ele>210.39999389648</ele>
        <time>2024-05-20T07:08:18.000Z</time>
      </trkpt>
      <trkpt lat="46.6895" lon="4.7382">
        <ele>210.39999389648</ele>
        <time>2024-05-20T07:08:19.000Z</time>
      </trkpt>
      <trkpt lat="46.68947" lon="4.73813">
        <ele>210.39999389648</ele>
        <time>2024-05-20T07:08:20.000Z</time>
      </trkpt>
      <trkpt lat="46.68944" lon="4.73805">
        <ele>210.39999389648</ele>
        <time>2024-05-20T07:08:21.000Z</time>
      </trkpt>
      <trkpt lat="46.68941" lon="4.73797">
        <ele>210.19999694824</ele>
        <time>2024-05-20T07:08:22.000Z</time>
      </trkpt>
      <trkpt lat="46.68938" lon="4.73789">
        <ele>210.19999694824</ele>
        <time>2024-05-20T07:08:23.000Z</time>
      </trkpt>
      <trkpt lat="46.68935" lon="4.73781">
        <ele>210</ele>
        <time>2024-05-20T07:08:24.000Z</time>
      </trkpt>
      <trkpt lat="46.68932" lon="4.73773">
        <ele>209.80000305176</ele>
        <time>2024-05-20T07:08:25.000Z</time>
      </trkpt>
      <trkpt lat="46.68929" lon="4.73765">
        <ele>209.60000610352</ele>
        <time>2024-05-20T07:08:26.000Z</time>
      </trkpt>
      <trkpt lat="46.68925" lon="4.73758">
        <ele>209.39999389648</ele>
        <time>2024-05-20T07:08:27.000Z</time>
      </trkpt>
      <trkpt lat="46.68921" lon="4.73752">
        <ele>209.19999694824</ele>
        <time>2024-05-20T07:08:28.000Z</time>
      </trkpt>
      <trkpt lat="46.68915" lon="4.73747">
        <ele>208.80000305176</ele>
        <time>2024-05-20T07:08:29.000Z</time>
      </trkpt>
      <trkpt lat="46.6891" lon="4.73745">
        <ele>208.60000610352</ele>
        <time>2024-05-20T07:08:30.000Z</time>
      </trkpt>
      <trkpt lat="46.68903" lon="4.73745">
        <ele>208.39999389648</ele>
        <time>2024-05-20T07:08:31.000Z</time>
      </trkpt>
      <trkpt lat="46.68897" lon="4.73745">
        <ele>208.39999389648</ele>
        <time>2024-05-20T07:08:32.000Z</time>
      </trkpt>
      <trkpt lat="46.6889" lon="4.73746">
        <ele>208.39999389648</ele>
        <time>2024-05-20T07:08:33.000Z</time>
      </trkpt>
      <trkpt lat="46.68883" lon="4.73746">
        <ele>208.39999389648</ele>
        <time>2024-05-20T07:08:34.000Z</time>
      </trkpt>
      <trkpt lat="46.68876" lon="4.73747">
        <ele>208.19999694824</ele>
        <time>2024-05-20T07:08:35.000Z</time>
      </trkpt>
      <trkpt lat="46.68869" lon="4.73748">
        <ele>208</ele>
        <time>2024-05-20T07:08:36.000Z</time>
      </trkpt>
      <trkpt lat="46.68861" lon="4.73748">
        <ele>207.80000305176</ele>
        <time>2024-05-20T07:08:37.000Z</time>
      </trkpt>
      <trkpt lat="46.68854" lon="4.73747">
        <ele>207.39999389648</ele>
        <time>2024-05-20T07:08:38.000Z</time>
      </trkpt>
      <trkpt lat="46.68847" lon="4.73746">
        <ele>207</ele>
        <time>2024-05-20T07:08:39.000Z</time>
      </trkpt>
      <trkpt lat="46.6884" lon="4.73743">
        <ele>206.60000610352</ele>
        <time>2024-05-20T07:08:40.000Z</time>
      </trkpt>
      <trkpt lat="46.68834" lon="4.73739">
        <ele>206.60000610352</ele>
        <time>2024-05-20T07:08:41.000Z</time>
      </trkpt>
      <trkpt lat="46.68828" lon="4.73735">
        <ele>206.39999389648</ele>
        <time>2024-05-20T07:08:42.000Z</time>
      </trkpt>
      <trkpt lat="46.68822" lon="4.7373">
        <ele>206.19999694824</ele>
        <time>2024-05-20T07:08:43.000Z</time>
      </trkpt>
      <trkpt lat="46.68816" lon="4.73726">
        <ele>206.19999694824</ele>
        <time>2024-05-20T07:08:44.000Z</time>
      </trkpt>
      <trkpt lat="46.68811" lon="4.73721">
        <ele>206.19999694824</ele>
        <time>2024-05-20T07:08:45.000Z</time>
      </trkpt>
      <trkpt lat="46.68805" lon="4.73717">
        <ele>206.39999389648</ele>
        <time>2024-05-20T07:08:46.000Z</time>
      </trkpt>
      <trkpt lat="46.688" lon="4.73713">
        <ele>206.39999389648</ele>
        <time>2024-05-20T07:08:47.000Z</time>
      </trkpt>
      <trkpt lat="46.68795" lon="4.73708">
        <ele>206.80000305176</ele>
        <time>2024-05-20T07:08:48.000Z</time>
      </trkpt>
      <trkpt lat="46.6879" lon="4.73704">
        <ele>206.80000305176</ele>
        <time>2024-05-20T07:08:49.000Z</time>
      </trkpt>
      <trkpt lat="46.68785" lon="4.737">
        <ele>206.80000305176</ele>
        <time>2024-05-20T07:08:50.000Z</time>
      </trkpt>
      <trkpt lat="46.6878" lon="4.73695">
        <ele>207</ele>
        <time>2024-05-20T07:08:51.000Z</time>
      </trkpt>
      <trkpt lat="46.68775" lon="4.73689">
        <ele>207</ele>
        <time>2024-05-20T07:08:52.000Z</time>
      </trkpt>
      <trkpt lat="46.6877" lon="4.73684">
        <ele>207</ele>
        <time>2024-05-20T07:08:53.000Z</time>
      </trkpt>
      <trkpt lat="46.68765" lon="4.73677">
        <ele>207</ele>
        <time>2024-05-20T07:08:54.000Z</time>
      </trkpt>
      <trkpt lat="46.6876" lon="4.73671">
        <ele>207</ele>
        <time>2024-05-20T07:08:55.000Z</time>
      </trkpt>
      <trkpt lat="46.68755" lon="4.73664">
        <ele>206.80000305176</ele>
        <time>2024-05-20T07:08:56.000Z</time>
      </trkpt>
      <trkpt lat="46.6875" lon="4.73657">
        <ele>206.80000305176</ele>
        <time>2024-05-20T07:08:57.000Z</time>
      </trkpt>
      <trkpt lat="46.68745" lon="4.73649">
        <ele>206.39999389648</ele>
        <time>2024-05-20T07:08:58.000Z</time>
      </trkpt>
      <trkpt lat="46.6874" lon="4.73642">
        <ele>205.80000305176</ele>
        <time>2024-05-20T07:08:59.000Z</time>
      </trkpt>
      <trkpt lat="46.68735" lon="4.73635">
        <ele>205.19999694824</ele>
        <time>2024-05-20T07:09:00.000Z</time>
      </trkpt>
      <trkpt lat="46.6873" lon="4.73628">
        <ele>205</ele>
        <time>2024-05-20T07:09:01.000Z</time>
      </trkpt>
      <trkpt lat="46.68725" lon="4.73622">
        <ele>204.80000305176</ele>
        <time>2024-05-20T07:09:02.000Z</time>
      </trkpt>
      <trkpt lat="46.6872" lon="4.73614">
        <ele>204.60000610352</ele>
        <time>2024-05-20T07:09:03.000Z</time>
      </trkpt>
      <trkpt lat="46.68715" lon="4.73607">
        <ele>204.39999389648</ele>
        <time>2024-05-20T07:09:04.000Z</time>
      </trkpt>
      <trkpt lat="46.6871" lon="4.73601">
        <ele>204.19999694824</ele>
        <time>2024-05-20T07:09:05.000Z</time>
      </trkpt>
      <trkpt lat="46.68705" lon="4.73593">
        <ele>204</ele>
        <time>2024-05-20T07:09:06.000Z</time>
      </trkpt>
      <trkpt lat="46.68699" lon="4.73586">
        <ele>203.80000305176</ele>
        <time>2024-05-20T07:09:07.000Z</time>
      </trkpt>
      <trkpt lat="46.68694" lon="4.7358">
        <ele>203.39999389648</ele>
        <time>2024-05-20T07:09:08.000Z</time>
      </trkpt>
      <trkpt lat="46.68688" lon="4.73574">
        <ele>203.19999694824</ele>
        <time>2024-05-20T07:09:09.000Z</time>
      </trkpt>
      <trkpt lat="46.68683" lon="4.73568">
        <ele>203</ele>
        <time>2024-05-20T07:09:10.000Z</time>
      </trkpt>
      <trkpt lat="46.68677" lon="4.73563">
        <ele>203</ele>
        <time>2024-05-20T07:09:11.000Z</time>
      </trkpt>
      <trkpt lat="46.68671" lon="4.73558">
        <ele>202.80000305176</ele>
        <time>2024-05-20T07:09:12.000Z</time>
      </trkpt>
      <trkpt lat="46.68665" lon="4.73553">
        <ele>202.60000610352</ele>
        <time>2024-05-20T07:09:13.000Z</time>
      </trkpt>
      <trkpt lat="46.68659" lon="4.73549">
        <ele>202.60000610352</ele>
        <time>2024-05-20T07:09:14.000Z</time>
      </trkpt>
      <trkpt lat="46.68653" lon="4.73545">
        <ele>202.39999389648</ele>
        <time>2024-05-20T07:09:15.000Z</time>
      </trkpt>
      <trkpt lat="46.68647" lon="4.73541">
        <ele>202.39999389648</ele>
        <time>2024-05-20T07:09:16.000Z</time>
      </trkpt>
      <trkpt lat="46.68641" lon="4.73538">
        <ele>202.39999389648</ele>
        <time>2024-05-20T07:09:17.000Z</time>
      </trkpt>
      <trkpt lat="46.68636" lon="4.73534">
        <ele>202.39999389648</ele>
        <time>2024-05-20T07:09:18.000Z</time>
      </trkpt>
      <trkpt lat="46.68631" lon="4.7353">
        <ele>202.39999389648</ele>
        <time>2024-05-20T07:09:19.000Z</time>
      </trkpt>
      <trkpt lat="46.68626" lon="4.73527">
        <ele>202.60000610352</ele>
        <time>2024-05-20T07:09:20.000Z</time>
      </trkpt>
      <trkpt lat="46.68621" lon="4.73525">
        <ele>202.60000610352</ele>
        <time>2024-05-20T07:09:21.000Z</time>
      </trkpt>
      <trkpt lat="46.68616" lon="4.73522">
        <ele>203.19999694824</ele>
        <time>2024-05-20T07:09:22.000Z</time>
      </trkpt>
      <trkpt lat="46.68611" lon="4.73519">
        <ele>203.19999694824</ele>
        <time>2024-05-20T07:09:23.000Z</time>
      </trkpt>
      <trkpt lat="46.68607" lon="4.73517">
        <ele>203.60000610352</ele>
        <time>2024-05-20T07:09:24.000Z</time>
      </trkpt>
      <trkpt lat="46.68602" lon="4.73514">
        <ele>203.60000610352</ele>
        <time>2024-05-20T07:09:25.000Z</time>
      </trkpt>
      <trkpt lat="46.68598" lon="4.73512">
        <ele>203.80000305176</ele>
        <time>2024-05-20T07:09:26.000Z</time>
      </trkpt>
      <trkpt lat="46.68593" lon="4.73509">
        <ele>203.80000305176</ele>
        <time>2024-05-20T07:09:27.000Z</time>
      </trkpt>
      <trkpt lat="46.68589" lon="4.73507">
        <ele>204.39999389648</ele>
        <time>2024-05-20T07:09:28.000Z</time>
      </trkpt>
      <trkpt lat="46.68584" lon="4.73504">
        <ele>204.60000610352</ele>
        <time>2024-05-20T07:09:29.000Z</time>
      </trkpt>
      <trkpt lat="46.6858" lon="4.73502">
        <ele>204.60000610352</ele>
        <time>2024-05-20T07:09:30.000Z</time>
      </trkpt>
      <trkpt lat="46.68576" lon="4.73499">
        <ele>204.80000305176</ele>
        <time>2024-05-20T07:09:31.000Z</time>
      </trkpt>
      <trkpt lat="46.68572" lon="4.73496">
        <ele>205</ele>
        <time>2024-05-20T07:09:32.000Z</time>
      </trkpt>
      <trkpt lat="46.68567" lon="4.73494">
        <ele>205.19999694824</ele>
        <time>2024-05-20T07:09:33.000Z</time>
      </trkpt>
      <trkpt lat="46.68563" lon="4.73491">
        <ele>205.39999389648</ele>
        <time>2024-05-20T07:09:34.000Z</time>
      </trkpt>
      <trkpt lat="46.68559" lon="4.73488">
        <ele>205.60000610352</ele>
        <time>2024-05-20T07:09:35.000Z</time>
      </trkpt>
      <trkpt lat="46.68555" lon="4.73485">
        <ele>206</ele>
        <time>2024-05-20T07:09:36.000Z</time>
      </trkpt>
      <trkpt lat="46.68552" lon="4.73482">
        <ele>206</ele>
        <time>2024-05-20T07:09:37.000Z</time>
      </trkpt>
      <trkpt lat="46.68549" lon="4.73479">
        <ele>206.19999694824</ele>
        <time>2024-05-20T07:09:38.000Z</time>
      </trkpt>
      <trkpt lat="46.68545" lon="4.73476">
        <ele>206.19999694824</ele>
        <time>2024-05-20T07:09:39.000Z</time>
      </trkpt>
      <trkpt lat="46.68542" lon="4.73473">
        <ele>206.39999389648</ele>
        <time>2024-05-20T07:09:40.000Z</time>
      </trkpt>
      <trkpt lat="46.68538" lon="4.7347">
        <ele>206.39999389648</ele>
        <time>2024-05-20T07:09:41.000Z</time>
      </trkpt>
      <trkpt lat="46.68535" lon="4.73467">
        <ele>206.60000610352</ele>
        <time>2024-05-20T07:09:42.000Z</time>
      </trkpt>
      <trkpt lat="46.68531" lon="4.73464">
        <ele>206.80000305176</ele>
        <time>2024-05-20T07:09:43.000Z</time>
      </trkpt>
      <trkpt lat="46.68527" lon="4.73462">
        <ele>207.19999694824</ele>
        <time>2024-05-20T07:09:44.000Z</time>
      </trkpt>
      <trkpt lat="46.68524" lon="4.73459">
        <ele>207.19999694824</ele>
        <time>2024-05-20T07:09:45.000Z</time>
      </trkpt>
      <trkpt lat="46.6852" lon="4.73456">
        <ele>207.60000610352</ele>
        <time>2024-05-20T07:09:46.000Z</time>
      </trkpt>
      <trkpt lat="46.68517" lon="4.73453">
        <ele>207.60000610352</ele>
        <time>2024-05-20T07:09:47.000Z</time>
      </trkpt>
      <trkpt lat="46.68513" lon="4.73451">
        <ele>207.60000610352</ele>
        <time>2024-05-20T07:09:48.000Z</time>
      </trkpt>
      <trkpt lat="46.68509" lon="4.73448">
        <ele>207.80000305176</ele>
        <time>2024-05-20T07:09:49.000Z</time>
      </trkpt>
      <trkpt lat="46.68505" lon="4.73445">
        <ele>208</ele>
        <time>2024-05-20T07:09:50.000Z</time>
      </trkpt>
      <trkpt lat="46.68502" lon="4.73442">
        <ele>208</ele>
        <time>2024-05-20T07:09:51.000Z</time>
      </trkpt>
      <trkpt lat="46.68498" lon="4.73439">
        <ele>208</ele>
        <time>2024-05-20T07:09:52.000Z</time>
      </trkpt>
      <trkpt lat="46.68494" lon="4.73437">
        <ele>208</ele>
        <time>2024-05-20T07:09:53.000Z</time>
      </trkpt>
      <trkpt lat="46.68489" lon="4.73434">
        <ele>208</ele>
        <time>2024-05-20T07:09:54.000Z</time>
      </trkpt>
      <trkpt lat="46.68485" lon="4.73431">
        <ele>208</ele>
        <time>2024-05-20T07:09:55.000Z</time>
      </trkpt>
      <trkpt lat="46.68481" lon="4.73428">
        <ele>208</ele>
        <time>2024-05-20T07:09:56.000Z</time>
      </trkpt>
      <trkpt lat="46.68477" lon="4.73425">
        <ele>208</ele>
        <time>2024-05-20T07:09:57.000Z</time>
      </trkpt>
      <trkpt lat="46.68472" lon="4.73422">
        <ele>208.19999694824</ele>
        <time>2024-05-20T07:09:58.000Z</time>
      </trkpt>
      <trkpt lat="46.68468" lon="4.73419">
        <ele>208.19999694824</ele>
        <time>2024-05-20T07:09:59.000Z</time>
      </trkpt>
      <trkpt lat="46.68464" lon="4.73416">
        <ele>208.19999694824</ele>
        <time>2024-05-20T07:10:00.000Z</time>
      </trkpt>
      <trkpt lat="46.68459" lon="4.73413">
        <ele>208.19999694824</ele>
        <time>2024-05-20T07:10:01.000Z</time>
      </trkpt>
      <trkpt lat="46.68455" lon="4.7341">
        <ele>208.19999694824</ele>
        <time>2024-05-20T07:10:02.000Z</time>
      </trkpt>
      <trkpt lat="46.6845" lon="4.73407">
        <ele>208.19999694824</ele>
        <time>2024-05-20T07:10:03.000Z</time>
      </trkpt>
      <trkpt lat="46.68445" lon="4.73403">
        <ele>208</ele>
        <time>2024-05-20T07:10:04.000Z</time>
      </trkpt>
      <trkpt lat="46.6844" lon="4.734">
        <ele>208</ele>
        <time>2024-05-20T07:10:05.000Z</time>
      </trkpt>
      <trkpt lat="46.68435" lon="4.73397">
        <ele>208</ele>
        <time>2024-05-20T07:10:06.000Z</time>
      </trkpt>
      <trkpt lat="46.6843" lon="4.73394">
        <ele>208</ele>
        <time>2024-05-20T07:10:07.000Z</time>
      </trkpt>
      <trkpt lat="46.68425" lon="4.73391">
        <ele>208</ele>
        <time>2024-05-20T07:10:08.000Z</time>
      </trkpt>
      <trkpt lat="46.6842" lon="4.73389">
        <ele>207.80000305176</ele>
        <time>2024-05-20T07:10:09.000Z</time>
      </trkpt>
      <trkpt lat="46.68414" lon="4.73387">
        <ele>207.80000305176</ele>
        <time>2024-05-20T07:10:10.000Z</time>
      </trkpt>
      <trkpt lat="46.68409" lon="4.73385">
        <ele>207.60000610352</ele>
        <time>2024-05-20T07:10:11.000Z</time>
      </trkpt>
      <trkpt lat="46.68404" lon="4.73384">
        <ele>207.60000610352</ele>
        <time>2024-05-20T07:10:12.000Z</time>
      </trkpt>
      <trkpt lat="46.68399" lon="4.73382">
        <ele>207.60000610352</ele>
        <time>2024-05-20T07:10:13.000Z</time>
      </trkpt>
      <trkpt lat="46.68393" lon="4.73381">
        <ele>207.60000610352</ele>
        <time>2024-05-20T07:10:14.000Z</time>
      </trkpt>
      <trkpt lat="46.68388" lon="4.73379">
        <ele>207.60000610352</ele>
        <time>2024-05-20T07:10:15.000Z</time>
      </trkpt>
      <trkpt lat="46.68383" lon="4.73377">
        <ele>207.60000610352</ele>
        <time>2024-05-20T07:10:16.000Z</time>
      </trkpt>
      <trkpt lat="46.68378" lon="4.73375">
        <ele>207.80000305176</ele>
        <time>2024-05-20T07:10:17.000Z</time>
      </trkpt>
      <trkpt lat="46.68373" lon="4.73373">
        <ele>207.80000305176</ele>
        <time>2024-05-20T07:10:18.000Z</time>
      </trkpt>
      <trkpt lat="46.68368" lon="4.7337">
        <ele>208</ele>
        <time>2024-05-20T07:10:19.000Z</time>
      </trkpt>
      <trkpt lat="46.68363" lon="4.73367">
        <ele>208</ele>
        <time>2024-05-20T07:10:20.000Z</time>
      </trkpt>
      <trkpt lat="46.68358" lon="4.73364">
        <ele>208</ele>
        <time>2024-05-20T07:10:21.000Z</time>
      </trkpt>
      <trkpt lat="46.68353" lon="4.73362">
        <ele>208</ele>
        <time>2024-05-20T07:10:22.000Z</time>
      </trkpt>
      <trkpt lat="46.68348" lon="4.73359">
        <ele>208</ele>
        <time>2024-05-20T07:10:23.000Z</time>
      </trkpt>
      <trkpt lat="46.68344" lon="4.73356">
        <ele>207.80000305176</ele>
        <time>2024-05-20T07:10:24.000Z</time>
      </trkpt>
      <trkpt lat="46.68339" lon="4.73353">
        <ele>207.80000305176</ele>
        <time>2024-05-20T07:10:25.000Z</time>
      </trkpt>
      <trkpt lat="46.68335" lon="4.7335">
        <ele>207.80000305176</ele>
        <time>2024-05-20T07:10:26.000Z</time>
      </trkpt>
      <trkpt lat="46.68331" lon="4.73348">
        <ele>207.80000305176</ele>
        <time>2024-05-20T07:10:27.000Z</time>
      </trkpt>
      <trkpt lat="46.68327" lon="4.73345">
        <ele>207.60000610352</ele>
        <time>2024-05-20T07:10:28.000Z</time>
      </trkpt>
      <trkpt lat="46.68324" lon="4.73341">
        <ele>207.60000610352</ele>
        <time>2024-05-20T07:10:29.000Z</time>
      </trkpt>
      <trkpt lat="46.68322" lon="4.73337">
        <ele>207.60000610352</ele>
        <time>2024-05-20T07:10:30.000Z</time>
      </trkpt>
      <trkpt lat="46.68323" lon="4.73331">
        <ele>207.60000610352</ele>
        <time>2024-05-20T07:10:31.000Z</time>
      </trkpt>
      <trkpt lat="46.68325" lon="4.73327">
        <ele>207.60000610352</ele>
        <time>2024-05-20T07:10:32.000Z</time>
      </trkpt>
      <trkpt lat="46.68328" lon="4.73322">
        <ele>207.39999389648</ele>
        <time>2024-05-20T07:10:33.000Z</time>
      </trkpt>
      <trkpt lat="46.68332" lon="4.73318">
        <ele>207.39999389648</ele>
        <time>2024-05-20T07:10:34.000Z</time>
      </trkpt>
      <trkpt lat="46.68335" lon="4.73313">
        <ele>207.39999389648</ele>
        <time>2024-05-20T07:10:35.000Z</time>
      </trkpt>
      <trkpt lat="46.68339" lon="4.73308">
        <ele>207</ele>
        <time>2024-05-20T07:10:36.000Z</time>
      </trkpt>
      <trkpt lat="46.68343" lon="4.73303">
        <ele>206.80000305176</ele>
        <time>2024-05-20T07:10:37.000Z</time>
      </trkpt>
      <trkpt lat="46.68347" lon="4.73298">
        <ele>206.60000610352</ele>
        <time>2024-05-20T07:10:38.000Z</time>
      </trkpt>
      <trkpt lat="46.68351" lon="4.73292">
        <ele>206.60000610352</ele>
        <time>2024-05-20T07:10:39.000Z</time>
      </trkpt>
      <trkpt lat="46.68355" lon="4.73287">
        <ele>206.60000610352</ele>
        <time>2024-05-20T07:10:40.000Z</time>
      </trkpt>
      <trkpt lat="46.68359" lon="4.7328">
        <ele>206.39999389648</ele>
        <time>2024-05-20T07:10:41.000Z</time>
      </trkpt>
      <trkpt lat="46.68364" lon="4.73274">
        <ele>206.19999694824</ele>
        <time>2024-05-20T07:10:42.000Z</time>
      </trkpt>
      <trkpt lat="46.68369" lon="4.73268">
        <ele>206</ele>
        <time>2024-05-20T07:10:43.000Z</time>
      </trkpt>
      <trkpt lat="46.68373" lon="4.73261">
        <ele>205.80000305176</ele>
        <time>2024-05-20T07:10:44.000Z</time>
      </trkpt>
      <trkpt lat="46.68378" lon="4.73255">
        <ele>205.60000610352</ele>
        <time>2024-05-20T07:10:45.000Z</time>
      </trkpt>
      <trkpt lat="46.68383" lon="4.73248">
        <ele>205.19999694824</ele>
        <time>2024-05-20T07:10:46.000Z</time>
      </trkpt>
      <trkpt lat="46.68389" lon="4.73242">
        <ele>205</ele>
        <time>2024-05-20T07:10:47.000Z</time>
      </trkpt>
      <trkpt lat="46.68394" lon="4.73236">
        <ele>204.60000610352</ele>
        <time>2024-05-20T07:10:48.000Z</time>
      </trkpt>
      <trkpt lat="46.684" lon="4.7323">
        <ele>204.60000610352</ele>
        <time>2024-05-20T07:10:49.000Z</time>
      </trkpt>
      <trkpt lat="46.68406" lon="4.73224">
        <ele>204.19999694824</ele>
        <time>2024-05-20T07:10:50.000Z</time>
      </trkpt>
      <trkpt lat="46.68411" lon="4.73218">
        <ele>204</ele>
        <time>2024-05-20T07:10:51.000Z</time>
      </trkpt>
      <trkpt lat="46.68417" lon="4.73213">
        <ele>203.60000610352</ele>
        <time>2024-05-20T07:10:52.000Z</time>
      </trkpt>
      <trkpt lat="46.68423" lon="4.73207">
        <ele>203.60000610352</ele>
        <time>2024-05-20T07:10:53.000Z</time>
      </trkpt>
      <trkpt lat="46.6843" lon="4.73202">
        <ele>203.60000610352</ele>
        <time>2024-05-20T07:10:54.000Z</time>
      </trkpt>
      <trkpt lat="46.68436" lon="4.73197">
        <ele>203.60000610352</ele>
        <time>2024-05-20T07:10:55.000Z</time>
      </trkpt>
      <trkpt lat="46.68442" lon="4.73191">
        <ele>203.60000610352</ele>
        <time>2024-05-20T07:10:56.000Z</time>
      </trkpt>
      <trkpt lat="46.68448" lon="4.73185">
        <ele>203.60000610352</ele>
        <time>2024-05-20T07:10:57.000Z</time>
      </trkpt>
      <trkpt lat="46.68454" lon="4.7318">
        <ele>203.19999694824</ele>
        <time>2024-05-20T07:10:58.000Z</time>
      </trkpt>
      <trkpt lat="46.6846" lon="4.73174">
        <ele>203.19999694824</ele>
        <time>2024-05-20T07:10:59.000Z</time>
      </trkpt>
      <trkpt lat="46.68465" lon="4.73167">
        <ele>203.19999694824</ele>
        <time>2024-05-20T07:11:00.000Z</time>
      </trkpt>
      <trkpt lat="46.68471" lon="4.7316">
        <ele>203.19999694824</ele>
        <time>2024-05-20T07:11:01.000Z</time>
      </trkpt>
      <trkpt lat="46.68475" lon="4.73153">
        <ele>203.19999694824</ele>
        <time>2024-05-20T07:11:02.000Z</time>
      </trkpt>
      <trkpt lat="46.6848" lon="4.73146">
        <ele>203.19999694824</ele>
        <time>2024-05-20T07:11:03.000Z</time>
      </trkpt>
      <trkpt lat="46.68484" lon="4.73139">
        <ele>203.19999694824</ele>
        <time>2024-05-20T07:11:04.000Z</time>
      </trkpt>
      <trkpt lat="46.68489" lon="4.73132">
        <ele>203</ele>
        <time>2024-05-20T07:11:05.000Z</time>
      </trkpt>
      <trkpt lat="46.68493" lon="4.73125">
        <ele>202.80000305176</ele>
        <time>2024-05-20T07:11:06.000Z</time>
      </trkpt>
      <trkpt lat="46.68497" lon="4.73118">
        <ele>202.80000305176</ele>
        <time>2024-05-20T07:11:07.000Z</time>
      </trkpt>
      <trkpt lat="46.68501" lon="4.73112">
        <ele>202.80000305176</ele>
        <time>2024-05-20T07:11:08.000Z</time>
      </trkpt>
      <trkpt lat="46.68505" lon="4.73106">
        <ele>202.80000305176</ele>
        <time>2024-05-20T07:11:09.000Z</time>
      </trkpt>
      <trkpt lat="46.68508" lon="4.731">
        <ele>203</ele>
        <time>2024-05-20T07:11:10.000Z</time>
      </trkpt>
      <trkpt lat="46.68511" lon="4.73094">
        <ele>203</ele>
        <time>2024-05-20T07:11:11.000Z</time>
      </trkpt>
      <trkpt lat="46.68512" lon="4.73087">
        <ele>203</ele>
        <time>2024-05-20T07:11:12.000Z</time>
      </trkpt>
      <trkpt lat="46.68513" lon="4.7308">
        <ele>203.19999694824</ele>
        <time>2024-05-20T07:11:13.000Z</time>
      </trkpt>
      <trkpt lat="46.68514" lon="4.73073">
        <ele>203.60000610352</ele>
        <time>2024-05-20T07:11:14.000Z</time>
      </trkpt>
      <trkpt lat="46.68514" lon="4.73067">
        <ele>203.80000305176</ele>
        <time>2024-05-20T07:11:15.000Z</time>
      </trkpt>
      <trkpt lat="46.68515" lon="4.7306">
        <ele>204</ele>
        <time>2024-05-20T07:11:16.000Z</time>
      </trkpt>
      <trkpt lat="46.68515" lon="4.73054">
        <ele>204</ele>
        <time>2024-05-20T07:11:17.000Z</time>
      </trkpt>
      <trkpt lat="46.68515" lon="4.73047">
        <ele>204.19999694824</ele>
        <time>2024-05-20T07:11:18.000Z</time>
      </trkpt>
      <trkpt lat="46.68515" lon="4.73041">
        <ele>204.39999389648</ele>
        <time>2024-05-20T07:11:19.000Z</time>
      </trkpt>
      <trkpt lat="46.68516" lon="4.73034">
        <ele>204.80000305176</ele>
        <time>2024-05-20T07:11:20.000Z</time>
      </trkpt>
      <trkpt lat="46.68516" lon="4.73028">
        <ele>204.80000305176</ele>
        <time>2024-05-20T07:11:21.000Z</time>
      </trkpt>
      <trkpt lat="46.68516" lon="4.73021">
        <ele>205</ele>
        <time>2024-05-20T07:11:22.000Z</time>
      </trkpt>
      <trkpt lat="46.68516" lon="4.73015">
        <ele>205.19999694824</ele>
        <time>2024-05-20T07:11:23.000Z</time>
      </trkpt>
      <trkpt lat="46.68517" lon="4.73008">
        <ele>205.39999389648</ele>
        <time>2024-05-20T07:11:24.000Z</time>
      </trkpt>
      <trkpt lat="46.68517" lon="4.73002">
        <ele>205.60000610352</ele>
        <time>2024-05-20T07:11:25.000Z</time>
      </trkpt>
      <trkpt lat="46.68517" lon="4.72996">
        <ele>205.60000610352</ele>
        <time>2024-05-20T07:11:26.000Z</time>
      </trkpt>
      <trkpt lat="46.68517" lon="4.72989">
        <ele>205.80000305176</ele>
        <time>2024-05-20T07:11:27.000Z</time>
      </trkpt>
      <trkpt lat="46.68517" lon="4.72983">
        <ele>206.19999694824</ele>
        <time>2024-05-20T07:11:28.000Z</time>
      </trkpt>
      <trkpt lat="46.68517" lon="4.72977">
        <ele>206.39999389648</ele>
        <time>2024-05-20T07:11:29.000Z</time>
      </trkpt>
      <trkpt lat="46.68517" lon="4.72971">
        <ele>206.39999389648</ele>
        <time>2024-05-20T07:11:30.000Z</time>
      </trkpt>
      <trkpt lat="46.68517" lon="4.72965">
        <ele>206.60000610352</ele>
        <time>2024-05-20T07:11:31.000Z</time>
      </trkpt>
      <trkpt lat="46.68517" lon="4.72959">
        <ele>206.80000305176</ele>
        <time>2024-05-20T07:11:32.000Z</time>
      </trkpt>
      <trkpt lat="46.68517" lon="4.72953">
        <ele>207</ele>
        <time>2024-05-20T07:11:33.000Z</time>
      </trkpt>
      <trkpt lat="46.68517" lon="4.72947">
        <ele>207.19999694824</ele>
        <time>2024-05-20T07:11:34.000Z</time>
      </trkpt>
      <trkpt lat="46.68517" lon="4.72942">
        <ele>207.39999389648</ele>
        <time>2024-05-20T07:11:35.000Z</time>
      </trkpt>
      <trkpt lat="46.68517" lon="4.72936">
        <ele>207.60000610352</ele>
        <time>2024-05-20T07:11:36.000Z</time>
      </trkpt>
      <trkpt lat="46.68517" lon="4.72931">
        <ele>207.80000305176</ele>
        <time>2024-05-20T07:11:37.000Z</time>
      </trkpt>
      <trkpt lat="46.68517" lon="4.72925">
        <ele>207.80000305176</ele>
        <time>2024-05-20T07:11:38.000Z</time>
      </trkpt>
      <trkpt lat="46.68517" lon="4.72919">
        <ele>208.19999694824</ele>
        <time>2024-05-20T07:11:39.000Z</time>
      </trkpt>
      <trkpt lat="46.68517" lon="4.72913">
        <ele>208.39999389648</ele>
        <time>2024-05-20T07:11:40.000Z</time>
      </trkpt>
      <trkpt lat="46.68518" lon="4.72907">
        <ele>208.39999389648</ele>
        <time>2024-05-20T07:11:41.000Z</time>
      </trkpt>
      <trkpt lat="46.68518" lon="4.72901">
        <ele>208.39999389648</ele>
        <time>2024-05-20T07:11:42.000Z</time>
      </trkpt>
      <trkpt lat="46.68518" lon="4.72895">
        <ele>208.60000610352</ele>
        <time>2024-05-20T07:11:43.000Z</time>
      </trkpt>
      <trkpt lat="46.68518" lon="4.7289">
        <ele>208.80000305176</ele>
        <time>2024-05-20T07:11:44.000Z</time>
      </trkpt>
      <trkpt lat="46.68518" lon="4.72884">
        <ele>209</ele>
        <time>2024-05-20T07:11:45.000Z</time>
      </trkpt>
      <trkpt lat="46.68518" lon="4.72879">
        <ele>209.19999694824</ele>
        <time>2024-05-20T07:11:46.000Z</time>
      </trkpt>
      <trkpt lat="46.68518" lon="4.72873">
        <ele>209.39999389648</ele>
        <time>2024-05-20T07:11:47.000Z</time>
      </trkpt>
      <trkpt lat="46.68518" lon="4.72867">
        <ele>209.39999389648</ele>
        <time>2024-05-20T07:11:48.000Z</time>
      </trkpt>
      <trkpt lat="46.68518" lon="4.72862">
        <ele>209.60000610352</ele>
        <time>2024-05-20T07:11:49.000Z</time>
      </trkpt>
      <trkpt lat="46.68518" lon="4.72856">
        <ele>209.80000305176</ele>
        <time>2024-05-20T07:11:50.000Z</time>
      </trkpt>
      <trkpt lat="46.68518" lon="4.7285">
        <ele>209.80000305176</ele>
        <time>2024-05-20T07:11:51.000Z</time>
      </trkpt>
      <trkpt lat="46.68518" lon="4.72842">
        <ele>210</ele>
        <time>2024-05-20T07:11:52.000Z</time>
      </trkpt>
      <trkpt lat="46.68518" lon="4.72836">
        <ele>210</ele>
        <time>2024-05-20T07:11:53.000Z</time>
      </trkpt>
      <trkpt lat="46.68519" lon="4.72829">
        <ele>210</ele>
        <time>2024-05-20T07:11:54.000Z</time>
      </trkpt>
      <trkpt lat="46.68519" lon="4.72823">
        <ele>210.19999694824</ele>
        <time>2024-05-20T07:11:55.000Z</time>
      </trkpt>
      <trkpt lat="46.68519" lon="4.72816">
        <ele>210.39999389648</ele>
        <time>2024-05-20T07:11:56.000Z</time>
      </trkpt>
      <trkpt lat="46.68519" lon="4.7281">
        <ele>210.39999389648</ele>
        <time>2024-05-20T07:11:57.000Z</time>
      </trkpt>
      <trkpt lat="46.68519" lon="4.72804">
        <ele>210.39999389648</ele>
        <time>2024-05-20T07:11:58.000Z</time>
      </trkpt>
      <trkpt lat="46.6852" lon="4.72798">
        <ele>210.39999389648</ele>
        <time>2024-05-20T07:11:59.000Z</time>
      </trkpt>
      <trkpt lat="46.68519" lon="4.72792">
        <ele>210.60000610352</ele>
        <time>2024-05-20T07:12:00.000Z</time>
      </trkpt>
      <trkpt lat="46.68519" lon="4.72785">
        <ele>210.80000305176</ele>
        <time>2024-05-20T07:12:01.000Z</time>
      </trkpt>
      <trkpt lat="46.68519" lon="4.72778">
        <ele>210.80000305176</ele>
        <time>2024-05-20T07:12:02.000Z</time>
      </trkpt>
      <trkpt lat="46.68519" lon="4.72772">
        <ele>210.80000305176</ele>
        <time>2024-05-20T07:12:03.000Z</time>
      </trkpt>
      <trkpt lat="46.68519" lon="4.72766">
        <ele>210.80000305176</ele>
        <time>2024-05-20T07:12:04.000Z</time>
      </trkpt>
      <trkpt lat="46.68519" lon="4.72759">
        <ele>210.80000305176</ele>
        <time>2024-05-20T07:12:05.000Z</time>
      </trkpt>
      <trkpt lat="46.68519" lon="4.72753">
        <ele>211</ele>
        <time>2024-05-20T07:12:06.000Z</time>
      </trkpt>
      <trkpt lat="46.68518" lon="4.72746">
        <ele>211</ele>
        <time>2024-05-20T07:12:07.000Z</time>
      </trkpt>
      <trkpt lat="46.68518" lon="4.7274">
        <ele>211.19999694824</ele>
        <time>2024-05-20T07:12:08.000Z</time>
      </trkpt>
      <trkpt lat="46.68519" lon="4.72734">
        <ele>211.39999389648</ele>
        <time>2024-05-20T07:12:09.000Z</time>
      </trkpt>
      <trkpt lat="46.68519" lon="4.72727">
        <ele>211.39999389648</ele>
        <time>2024-05-20T07:12:10.000Z</time>
      </trkpt>
      <trkpt lat="46.68519" lon="4.72721">
        <ele>211.39999389648</ele>
        <time>2024-05-20T07:12:11.000Z</time>
      </trkpt>
      <trkpt lat="46.6852" lon="4.72715">
        <ele>211.39999389648</ele>
        <time>2024-05-20T07:12:12.000Z</time>
      </trkpt>
      <trkpt lat="46.6852" lon="4.72709">
        <ele>211.60000610352</ele>
        <time>2024-05-20T07:12:13.000Z</time>
      </trkpt>
      <trkpt lat="46.6852" lon="4.72702">
        <ele>211.60000610352</ele>
        <time>2024-05-20T07:12:14.000Z</time>
      </trkpt>
      <trkpt lat="46.6852" lon="4.72696">
        <ele>211.80000305176</ele>
        <time>2024-05-20T07:12:15.000Z</time>
      </trkpt>
      <trkpt lat="46.68521" lon="4.72689">
        <ele>211.80000305176</ele>
        <time>2024-05-20T07:12:16.000Z</time>
      </trkpt>
      <trkpt lat="46.68521" lon="4.72683">
        <ele>212.19999694824</ele>
        <time>2024-05-20T07:12:17.000Z</time>
      </trkpt>
      <trkpt lat="46.68521" lon="4.72676">
        <ele>212.19999694824</ele>
        <time>2024-05-20T07:12:18.000Z</time>
      </trkpt>
      <trkpt lat="46.68521" lon="4.72669">
        <ele>212.39999389648</ele>
        <time>2024-05-20T07:12:19.000Z</time>
      </trkpt>
      <trkpt lat="46.68521" lon="4.72662">
        <ele>212.39999389648</ele>
        <time>2024-05-20T07:12:20.000Z</time>
      </trkpt>
      <trkpt lat="46.68522" lon="4.72656">
        <ele>212.60000610352</ele>
        <time>2024-05-20T07:12:21.000Z</time>
      </trkpt>
      <trkpt lat="46.68522" lon="4.72649">
        <ele>212.60000610352</ele>
        <time>2024-05-20T07:12:22.000Z</time>
      </trkpt>
      <trkpt lat="46.68522" lon="4.72643">
        <ele>212.60000610352</ele>
        <time>2024-05-20T07:12:23.000Z</time>
      </trkpt>
      <trkpt lat="46.68521" lon="4.72636">
        <ele>212.80000305176</ele>
        <time>2024-05-20T07:12:24.000Z</time>
      </trkpt>
      <trkpt lat="46.68521" lon="4.7263">
        <ele>212.80000305176</ele>
        <time>2024-05-20T07:12:25.000Z</time>
      </trkpt>
      <trkpt lat="46.68522" lon="4.72624">
        <ele>212.80000305176</ele>
        <time>2024-05-20T07:12:26.000Z</time>
      </trkpt>
      <trkpt lat="46.68522" lon="4.72618">
        <ele>213</ele>
        <time>2024-05-20T07:12:27.000Z</time>
      </trkpt>
      <trkpt lat="46.68522" lon="4.72611">
        <ele>213.19999694824</ele>
        <time>2024-05-20T07:12:28.000Z</time>
      </trkpt>
      <trkpt lat="46.68522" lon="4.72604">
        <ele>213.19999694824</ele>
        <time>2024-05-20T07:12:29.000Z</time>
      </trkpt>
      <trkpt lat="46.68523" lon="4.72597">
        <ele>213.19999694824</ele>
        <time>2024-05-20T07:12:30.000Z</time>
      </trkpt>
      <trkpt lat="46.68523" lon="4.7259">
        <ele>213.39999389648</ele>
        <time>2024-05-20T07:12:31.000Z</time>
      </trkpt>
      <trkpt lat="46.68523" lon="4.72584">
        <ele>213.39999389648</ele>
        <time>2024-05-20T07:12:32.000Z</time>
      </trkpt>
      <trkpt lat="46.68523" lon="4.72577">
        <ele>213.39999389648</ele>
        <time>2024-05-20T07:12:33.000Z</time>
      </trkpt>
      <trkpt lat="46.68523" lon="4.7257">
        <ele>213.60000610352</ele>
        <time>2024-05-20T07:12:34.000Z</time>
      </trkpt>
      <trkpt lat="46.68523" lon="4.72563">
        <ele>213.60000610352</ele>
        <time>2024-05-20T07:12:35.000Z</time>
      </trkpt>
      <trkpt lat="46.68523" lon="4.72557">
        <ele>213.60000610352</ele>
        <time>2024-05-20T07:12:36.000Z</time>
      </trkpt>
      <trkpt lat="46.68524" lon="4.7255">
        <ele>213.60000610352</ele>
        <time>2024-05-20T07:12:37.000Z</time>
      </trkpt>
      <trkpt lat="46.68524" lon="4.72543">
        <ele>213.80000305176</ele>
        <time>2024-05-20T07:12:38.000Z</time>
      </trkpt>
      <trkpt lat="46.68524" lon="4.72537">
        <ele>214</ele>
        <time>2024-05-20T07:12:39.000Z</time>
      </trkpt>
      <trkpt lat="46.68524" lon="4.7253">
        <ele>214</ele>
        <time>2024-05-20T07:12:40.000Z</time>
      </trkpt>
      <trkpt lat="46.68524" lon="4.72524">
        <ele>214.19999694824</ele>
        <time>2024-05-20T07:12:41.000Z</time>
      </trkpt>
      <trkpt lat="46.68525" lon="4.72517">
        <ele>214.19999694824</ele>
        <time>2024-05-20T07:12:42.000Z</time>
      </trkpt>
      <trkpt lat="46.68525" lon="4.72511">
        <ele>214.39999389648</ele>
        <time>2024-05-20T07:12:43.000Z</time>
      </trkpt>
      <trkpt lat="46.68525" lon="4.72505">
        <ele>214.39999389648</ele>
        <time>2024-05-20T07:12:44.000Z</time>
      </trkpt>
      <trkpt lat="46.68525" lon="4.72498">
        <ele>214.39999389648</ele>
        <time>2024-05-20T07:12:45.000Z</time>
      </trkpt>
      <trkpt lat="46.68525" lon="4.72492">
        <ele>214.39999389648</ele>
        <time>2024-05-20T07:12:46.000Z</time>
      </trkpt>
      <trkpt lat="46.68525" lon="4.72486">
        <ele>214.60000610352</ele>
        <time>2024-05-20T07:12:47.000Z</time>
      </trkpt>
      <trkpt lat="46.68525" lon="4.72479">
        <ele>214.80000305176</ele>
        <time>2024-05-20T07:12:48.000Z</time>
      </trkpt>
      <trkpt lat="46.68525" lon="4.72472">
        <ele>214.80000305176</ele>
        <time>2024-05-20T07:12:49.000Z</time>
      </trkpt>
      <trkpt lat="46.68525" lon="4.72465">
        <ele>215</ele>
        <time>2024-05-20T07:12:50.000Z</time>
      </trkpt>
      <trkpt lat="46.68525" lon="4.72459">
        <ele>215</ele>
        <time>2024-05-20T07:12:51.000Z</time>
      </trkpt>
      <trkpt lat="46.68525" lon="4.72452">
        <ele>215</ele>
        <time>2024-05-20T07:12:52.000Z</time>
      </trkpt>
      <trkpt lat="46.68525" lon="4.72445">
        <ele>215</ele>
        <time>2024-05-20T07:12:53.000Z</time>
      </trkpt>
      <trkpt lat="46.68525" lon="4.72437">
        <ele>215</ele>
        <time>2024-05-20T07:12:54.000Z</time>
      </trkpt>
      <trkpt lat="46.68526" lon="4.7243">
        <ele>215</ele>
        <time>2024-05-20T07:12:55.000Z</time>
      </trkpt>
      <trkpt lat="46.68526" lon="4.72423">
        <ele>215</ele>
        <time>2024-05-20T07:12:56.000Z</time>
      </trkpt>
      <trkpt lat="46.68526" lon="4.72416">
        <ele>215.19999694824</ele>
        <time>2024-05-20T07:12:57.000Z</time>
      </trkpt>
      <trkpt lat="46.68526" lon="4.72409">
        <ele>215.19999694824</ele>
        <time>2024-05-20T07:12:58.000Z</time>
      </trkpt>
      <trkpt lat="46.68526" lon="4.72402">
        <ele>215.19999694824</ele>
        <time>2024-05-20T07:12:59.000Z</time>
      </trkpt>
      <trkpt lat="46.68527" lon="4.72395">
        <ele>215.19999694824</ele>
        <time>2024-05-20T07:13:00.000Z</time>
      </trkpt>
      <trkpt lat="46.68527" lon="4.72388">
        <ele>215.19999694824</ele>
        <time>2024-05-20T07:13:01.000Z</time>
      </trkpt>
      <trkpt lat="46.68528" lon="4.72381">
        <ele>215.19999694824</ele>
        <time>2024-05-20T07:13:02.000Z</time>
      </trkpt>
      <trkpt lat="46.68528" lon="4.72373">
        <ele>215.19999694824</ele>
        <time>2024-05-20T07:13:03.000Z</time>
      </trkpt>
      <trkpt lat="46.68528" lon="4.72366">
        <ele>215.19999694824</ele>
        <time>2024-05-20T07:13:04.000Z</time>
      </trkpt>
      <trkpt lat="46.68528" lon="4.72358">
        <ele>215.19999694824</ele>
        <time>2024-05-20T07:13:05.000Z</time>
      </trkpt>
      <trkpt lat="46.68529" lon="4.72351">
        <ele>215.19999694824</ele>
        <time>2024-05-20T07:13:06.000Z</time>
      </trkpt>
      <trkpt lat="46.68529" lon="4.72343">
        <ele>215.19999694824</ele>
        <time>2024-05-20T07:13:07.000Z</time>
      </trkpt>
      <trkpt lat="46.68529" lon="4.72336">
        <ele>215.19999694824</ele>
        <time>2024-05-20T07:13:08.000Z</time>
      </trkpt>
      <trkpt lat="46.68529" lon="4.72328">
        <ele>215.19999694824</ele>
        <time>2024-05-20T07:13:09.000Z</time>
      </trkpt>
      <trkpt lat="46.68529" lon="4.7232">
        <ele>215.19999694824</ele>
        <time>2024-05-20T07:13:10.000Z</time>
      </trkpt>
      <trkpt lat="46.68529" lon="4.72313">
        <ele>215.19999694824</ele>
        <time>2024-05-20T07:13:11.000Z</time>
      </trkpt>
      <trkpt lat="46.68529" lon="4.72305">
        <ele>215.19999694824</ele>
        <time>2024-05-20T07:13:12.000Z</time>
      </trkpt>
      <trkpt lat="46.6853" lon="4.72298">
        <ele>215.19999694824</ele>
        <time>2024-05-20T07:13:13.000Z</time>
      </trkpt>
      <trkpt lat="46.6853" lon="4.72291">
        <ele>215.39999389648</ele>
        <time>2024-05-20T07:13:14.000Z</time>
      </trkpt>
      <trkpt lat="46.6853" lon="4.72284">
        <ele>215.39999389648</ele>
        <time>2024-05-20T07:13:15.000Z</time>
      </trkpt>
      <trkpt lat="46.6853" lon="4.72276">
        <ele>215.39999389648</ele>
        <time>2024-05-20T07:13:16.000Z</time>
      </trkpt>
      <trkpt lat="46.6853" lon="4.72269">
        <ele>215.60000610352</ele>
        <time>2024-05-20T07:13:17.000Z</time>
      </trkpt>
      <trkpt lat="46.6853" lon="4.72261">
        <ele>215.60000610352</ele>
        <time>2024-05-20T07:13:18.000Z</time>
      </trkpt>
      <trkpt lat="46.6853" lon="4.72254">
        <ele>215.60000610352</ele>
        <time>2024-05-20T07:13:19.000Z</time>
      </trkpt>
      <trkpt lat="46.6853" lon="4.72246">
        <ele>215.60000610352</ele>
        <time>2024-05-20T07:13:20.000Z</time>
      </trkpt>
      <trkpt lat="46.68531" lon="4.72239">
        <ele>215.80000305176</ele>
        <time>2024-05-20T07:13:21.000Z</time>
      </trkpt>
      <trkpt lat="46.68532" lon="4.72232">
        <ele>215.80000305176</ele>
        <time>2024-05-20T07:13:22.000Z</time>
      </trkpt>
      <trkpt lat="46.68532" lon="4.72224">
        <ele>216</ele>
        <time>2024-05-20T07:13:23.000Z</time>
      </trkpt>
      <trkpt lat="46.68533" lon="4.72217">
        <ele>216</ele>
        <time>2024-05-20T07:13:24.000Z</time>
      </trkpt>
      <trkpt lat="46.68533" lon="4.72209">
        <ele>216</ele>
        <time>2024-05-20T07:13:25.000Z</time>
      </trkpt>
      <trkpt lat="46.68533" lon="4.72202">
        <ele>216.19999694824</ele>
        <time>2024-05-20T07:13:26.000Z</time>
      </trkpt>
      <trkpt lat="46.68533" lon="4.72194">
        <ele>216.19999694824</ele>
        <time>2024-05-20T07:13:27.000Z</time>
      </trkpt>
      <trkpt lat="46.68533" lon="4.72187">
        <ele>216.19999694824</ele>
        <time>2024-05-20T07:13:28.000Z</time>
      </trkpt>
      <trkpt lat="46.68533" lon="4.72179">
        <ele>216.39999389648</ele>
        <time>2024-05-20T07:13:29.000Z</time>
      </trkpt>
      <trkpt lat="46.68534" lon="4.72172">
        <ele>216.39999389648</ele>
        <time>2024-05-20T07:13:30.000Z</time>
      </trkpt>
      <trkpt lat="46.68534" lon="4.72164">
        <ele>216.39999389648</ele>
        <time>2024-05-20T07:13:31.000Z</time>
      </trkpt>
      <trkpt lat="46.68534" lon="4.72157">
        <ele>216.39999389648</ele>
        <time>2024-05-20T07:13:32.000Z</time>
      </trkpt>
      <trkpt lat="46.68534" lon="4.72149">
        <ele>216.39999389648</ele>
        <time>2024-05-20T07:13:33.000Z</time>
      </trkpt>
      <trkpt lat="46.68534" lon="4.72142">
        <ele>216.39999389648</ele>
        <time>2024-05-20T07:13:34.000Z</time>
      </trkpt>
      <trkpt lat="46.68535" lon="4.72134">
        <ele>216.60000610352</ele>
        <time>2024-05-20T07:13:35.000Z</time>
      </trkpt>
      <trkpt lat="46.68535" lon="4.72127">
        <ele>216.60000610352</ele>
        <time>2024-05-20T07:13:36.000Z</time>
      </trkpt>
      <trkpt lat="46.68536" lon="4.7212">
        <ele>216.60000610352</ele>
        <time>2024-05-20T07:13:37.000Z</time>
      </trkpt>
      <trkpt lat="46.68536" lon="4.72112">
        <ele>216.80000305176</ele>
        <time>2024-05-20T07:13:38.000Z</time>
      </trkpt>
      <trkpt lat="46.68536" lon="4.72105">
        <ele>216.80000305176</ele>
        <time>2024-05-20T07:13:39.000Z</time>
      </trkpt>
      <trkpt lat="46.68536" lon="4.72098">
        <ele>216.80000305176</ele>
        <time>2024-05-20T07:13:40.000Z</time>
      </trkpt>
      <trkpt lat="46.68535" lon="4.72091">
        <ele>217</ele>
        <time>2024-05-20T07:13:41.000Z</time>
      </trkpt>
      <trkpt lat="46.68535" lon="4.72084">
        <ele>217.19999694824</ele>
        <time>2024-05-20T07:13:42.000Z</time>
      </trkpt>
      <trkpt lat="46.68534" lon="4.72077">
        <ele>217.19999694824</ele>
        <time>2024-05-20T07:13:43.000Z</time>
      </trkpt>
      <trkpt lat="46.68535" lon="4.7207">
        <ele>217.19999694824</ele>
        <time>2024-05-20T07:13:44.000Z</time>
      </trkpt>
      <trkpt lat="46.68535" lon="4.72063">
        <ele>217.39999389648</ele>
        <time>2024-05-20T07:13:45.000Z</time>
      </trkpt>
      <trkpt lat="46.68535" lon="4.72056">
        <ele>217.39999389648</ele>
        <time>2024-05-20T07:13:46.000Z</time>
      </trkpt>
      <trkpt lat="46.68535" lon="4.72049">
        <ele>217.60000610352</ele>
        <time>2024-05-20T07:13:47.000Z</time>
      </trkpt>
      <trkpt lat="46.68535" lon="4.72043">
        <ele>217.60000610352</ele>
        <time>2024-05-20T07:13:48.000Z</time>
      </trkpt>
      <trkpt lat="46.68535" lon="4.72036">
        <ele>217.60000610352</ele>
        <time>2024-05-20T07:13:49.000Z</time>
      </trkpt>
      <trkpt lat="46.68535" lon="4.72029">
        <ele>217.80000305176</ele>
        <time>2024-05-20T07:13:50.000Z</time>
      </trkpt>
      <trkpt lat="46.68536" lon="4.72022">
        <ele>217.80000305176</ele>
        <time>2024-05-20T07:13:51.000Z</time>
      </trkpt>
      <trkpt lat="46.68536" lon="4.72015">
        <ele>217.80000305176</ele>
        <time>2024-05-20T07:13:52.000Z</time>
      </trkpt>
      <trkpt lat="46.68536" lon="4.72008">
        <ele>218</ele>
        <time>2024-05-20T07:13:53.000Z</time>
      </trkpt>
      <trkpt lat="46.68536" lon="4.72002">
        <ele>218.19999694824</ele>
        <time>2024-05-20T07:13:54.000Z</time>
      </trkpt>
      <trkpt lat="46.68536" lon="4.71995">
        <ele>218.19999694824</ele>
        <time>2024-05-20T07:13:55.000Z</time>
      </trkpt>
      <trkpt lat="46.68536" lon="4.71988">
        <ele>218.39999389648</ele>
        <time>2024-05-20T07:13:56.000Z</time>
      </trkpt>
      <trkpt lat="46.68537" lon="4.71981">
        <ele>218.39999389648</ele>
        <time>2024-05-20T07:13:57.000Z</time>
      </trkpt>
      <trkpt lat="46.68537" lon="4.71974">
        <ele>218.39999389648</ele>
        <time>2024-05-20T07:13:58.000Z</time>
      </trkpt>
      <trkpt lat="46.68537" lon="4.71967">
        <ele>218.39999389648</ele>
        <time>2024-05-20T07:13:59.000Z</time>
      </trkpt>
      <trkpt lat="46.68537" lon="4.7196">
        <ele>218.39999389648</ele>
        <time>2024-05-20T07:14:00.000Z</time>
      </trkpt>
      <trkpt lat="46.68537" lon="4.71953">
        <ele>218.60000610352</ele>
        <time>2024-05-20T07:14:01.000Z</time>
      </trkpt>
      <trkpt lat="46.68538" lon="4.71946">
        <ele>218.60000610352</ele>
        <time>2024-05-20T07:14:02.000Z</time>
      </trkpt>
      <trkpt lat="46.68538" lon="4.71939">
        <ele>218.60000610352</ele>
        <time>2024-05-20T07:14:03.000Z</time>
      </trkpt>
      <trkpt lat="46.68538" lon="4.71931">
        <ele>218.60000610352</ele>
        <time>2024-05-20T07:14:04.000Z</time>
      </trkpt>
      <trkpt lat="46.68538" lon="4.71924">
        <ele>218.80000305176</ele>
        <time>2024-05-20T07:14:05.000Z</time>
      </trkpt>
      <trkpt lat="46.68539" lon="4.71916">
        <ele>218.80000305176</ele>
        <time>2024-05-20T07:14:06.000Z</time>
      </trkpt>
      <trkpt lat="46.68539" lon="4.71909">
        <ele>218.80000305176</ele>
        <time>2024-05-20T07:14:07.000Z</time>
      </trkpt>
      <trkpt lat="46.68539" lon="4.71901">
        <ele>218.80000305176</ele>
        <time>2024-05-20T07:14:08.000Z</time>
      </trkpt>
      <trkpt lat="46.68539" lon="4.71894">
        <ele>218.80000305176</ele>
        <time>2024-05-20T07:14:09.000Z</time>
      </trkpt>
      <trkpt lat="46.68539" lon="4.71887">
        <ele>218.60000610352</ele>
        <time>2024-05-20T07:14:10.000Z</time>
      </trkpt>
      <trkpt lat="46.6854" lon="4.7188">
        <ele>218.60000610352</ele>
        <time>2024-05-20T07:14:11.000Z</time>
      </trkpt>
      <trkpt lat="46.6854" lon="4.71873">
        <ele>218.60000610352</ele>
        <time>2024-05-20T07:14:12.000Z</time>
      </trkpt>
      <trkpt lat="46.68541" lon="4.71866">
        <ele>218.60000610352</ele>
        <time>2024-05-20T07:14:13.000Z</time>
      </trkpt>
      <trkpt lat="46.6854" lon="4.71858">
        <ele>218.60000610352</ele>
        <time>2024-05-20T07:14:14.000Z</time>
      </trkpt>
      <trkpt lat="46.6854" lon="4.71851">
        <ele>218.80000305176</ele>
        <time>2024-05-20T07:14:15.000Z</time>
      </trkpt>
      <trkpt lat="46.6854" lon="4.71844">
        <ele>218.80000305176</ele>
        <time>2024-05-20T07:14:16.000Z</time>
      </trkpt>
      <trkpt lat="46.68541" lon="4.71837">
        <ele>218.80000305176</ele>
        <time>2024-05-20T07:14:17.000Z</time>
      </trkpt>
      <trkpt lat="46.68541" lon="4.7183">
        <ele>218.80000305176</ele>
        <time>2024-05-20T07:14:18.000Z</time>
      </trkpt>
      <trkpt lat="46.68541" lon="4.71824">
        <ele>218.80000305176</ele>
        <time>2024-05-20T07:14:19.000Z</time>
      </trkpt>
      <trkpt lat="46.68541" lon="4.71817">
        <ele>218.80000305176</ele>
        <time>2024-05-20T07:14:20.000Z</time>
      </trkpt>
      <trkpt lat="46.68541" lon="4.71809">
        <ele>219</ele>
        <time>2024-05-20T07:14:21.000Z</time>
      </trkpt>
      <trkpt lat="46.68541" lon="4.71803">
        <ele>219</ele>
        <time>2024-05-20T07:14:22.000Z</time>
      </trkpt>
      <trkpt lat="46.68541" lon="4.71796">
        <ele>219</ele>
        <time>2024-05-20T07:14:23.000Z</time>
      </trkpt>
      <trkpt lat="46.68541" lon="4.71789">
        <ele>219</ele>
        <time>2024-05-20T07:14:24.000Z</time>
      </trkpt>
      <trkpt lat="46.68541" lon="4.71783">
        <ele>219.19999694824</ele>
        <time>2024-05-20T07:14:25.000Z</time>
      </trkpt>
      <trkpt lat="46.68541" lon="4.71776">
        <ele>219.19999694824</ele>
        <time>2024-05-20T07:14:26.000Z</time>
      </trkpt>
      <trkpt lat="46.68541" lon="4.71769">
        <ele>219.39999389648</ele>
        <time>2024-05-20T07:14:27.000Z</time>
      </trkpt>
      <trkpt lat="46.68541" lon="4.71761">
        <ele>219.60000610352</ele>
        <time>2024-05-20T07:14:28.000Z</time>
      </trkpt>
      <trkpt lat="46.68542" lon="4.71754">
        <ele>219.60000610352</ele>
        <time>2024-05-20T07:14:29.000Z</time>
      </trkpt>
      <trkpt lat="46.68542" lon="4.71747">
        <ele>219.60000610352</ele>
        <time>2024-05-20T07:14:30.000Z</time>
      </trkpt>
      <trkpt lat="46.68543" lon="4.7174">
        <ele>219.80000305176</ele>
        <time>2024-05-20T07:14:31.000Z</time>
      </trkpt>
      <trkpt lat="46.68543" lon="4.71733">
        <ele>219.80000305176</ele>
        <time>2024-05-20T07:14:32.000Z</time>
      </trkpt>
      <trkpt lat="46.68543" lon="4.71725">
        <ele>219.80000305176</ele>
        <time>2024-05-20T07:14:33.000Z</time>
      </trkpt>
      <trkpt lat="46.68543" lon="4.71719">
        <ele>219.80000305176</ele>
        <time>2024-05-20T07:14:34.000Z</time>
      </trkpt>
      <trkpt lat="46.68544" lon="4.71711">
        <ele>220</ele>
        <time>2024-05-20T07:14:35.000Z</time>
      </trkpt>
      <trkpt lat="46.68544" lon="4.71705">
        <ele>220</ele>
        <time>2024-05-20T07:14:36.000Z</time>
      </trkpt>
      <trkpt lat="46.68545" lon="4.71698">
        <ele>220.19999694824</ele>
        <time>2024-05-20T07:14:37.000Z</time>
      </trkpt>
      <trkpt lat="46.68545" lon="4.71691">
        <ele>220.19999694824</ele>
        <time>2024-05-20T07:14:38.000Z</time>
      </trkpt>
      <trkpt lat="46.68545" lon="4.71684">
        <ele>220.19999694824</ele>
        <time>2024-05-20T07:14:39.000Z</time>
      </trkpt>
      <trkpt lat="46.68546" lon="4.71677">
        <ele>220.19999694824</ele>
        <time>2024-05-20T07:14:40.000Z</time>
      </trkpt>
      <trkpt lat="46.68546" lon="4.7167">
        <ele>220.19999694824</ele>
        <time>2024-05-20T07:14:41.000Z</time>
      </trkpt>
      <trkpt lat="46.68546" lon="4.71662">
        <ele>220.19999694824</ele>
        <time>2024-05-20T07:14:42.000Z</time>
      </trkpt>
      <trkpt lat="46.68547" lon="4.71655">
        <ele>220.19999694824</ele>
        <time>2024-05-20T07:14:43.000Z</time>
      </trkpt>
      <trkpt lat="46.68547" lon="4.71648">
        <ele>220.19999694824</ele>
        <time>2024-05-20T07:14:44.000Z</time>
      </trkpt>
      <trkpt lat="46.68547" lon="4.71641">
        <ele>220.39999389648</ele>
        <time>2024-05-20T07:14:45.000Z</time>
      </trkpt>
      <trkpt lat="46.68547" lon="4.71634">
        <ele>220.39999389648</ele>
        <time>2024-05-20T07:14:46.000Z</time>
      </trkpt>
      <trkpt lat="46.68547" lon="4.71626">
        <ele>220.60000610352</ele>
        <time>2024-05-20T07:14:47.000Z</time>
      </trkpt>
      <trkpt lat="46.68547" lon="4.71619">
        <ele>220.60000610352</ele>
        <time>2024-05-20T07:14:48.000Z</time>
      </trkpt>
      <trkpt lat="46.68548" lon="4.71612">
        <ele>220.60000610352</ele>
        <time>2024-05-20T07:14:49.000Z</time>
      </trkpt>
      <trkpt lat="46.68548" lon="4.71604">
        <ele>220.80000305176</ele>
        <time>2024-05-20T07:14:50.000Z</time>
      </trkpt>
      <trkpt lat="46.68548" lon="4.71597">
        <ele>220.80000305176</ele>
        <time>2024-05-20T07:14:51.000Z</time>
      </trkpt>
      <trkpt lat="46.68549" lon="4.71589">
        <ele>220.80000305176</ele>
        <time>2024-05-20T07:14:52.000Z</time>
      </trkpt>
      <trkpt lat="46.68549" lon="4.71582">
        <ele>221</ele>
        <time>2024-05-20T07:14:53.000Z</time>
      </trkpt>
      <trkpt lat="46.68549" lon="4.71574">
        <ele>221</ele>
        <time>2024-05-20T07:14:54.000Z</time>
      </trkpt>
      <trkpt lat="46.68549" lon="4.71566">
        <ele>221</ele>
        <time>2024-05-20T07:14:55.000Z</time>
      </trkpt>
      <trkpt lat="46.68549" lon="4.71559">
        <ele>220.80000305176</ele>
        <time>2024-05-20T07:14:56.000Z</time>
      </trkpt>
      <trkpt lat="46.68549" lon="4.71551">
        <ele>220.80000305176</ele>
        <time>2024-05-20T07:14:57.000Z</time>
      </trkpt>
      <trkpt lat="46.68549" lon="4.71543">
        <ele>220.80000305176</ele>
        <time>2024-05-20T07:14:58.000Z</time>
      </trkpt>
      <trkpt lat="46.6855" lon="4.71536">
        <ele>220.80000305176</ele>
        <time>2024-05-20T07:14:59.000Z</time>
      </trkpt>
      <trkpt lat="46.6855" lon="4.71528">
        <ele>220.80000305176</ele>
        <time>2024-05-20T07:15:00.000Z</time>
      </trkpt>
      <trkpt lat="46.6855" lon="4.7152">
        <ele>220.80000305176</ele>
        <time>2024-05-20T07:15:01.000Z</time>
      </trkpt>
      <trkpt lat="46.6855" lon="4.71512">
        <ele>220.80000305176</ele>
        <time>2024-05-20T07:15:02.000Z</time>
      </trkpt>
      <trkpt lat="46.68551" lon="4.71505">
        <ele>220.80000305176</ele>
        <time>2024-05-20T07:15:03.000Z</time>
      </trkpt>
      <trkpt lat="46.68551" lon="4.71497">
        <ele>220.80000305176</ele>
        <time>2024-05-20T07:15:04.000Z</time>
      </trkpt>
      <trkpt lat="46.68551" lon="4.7149">
        <ele>220.80000305176</ele>
        <time>2024-05-20T07:15:05.000Z</time>
      </trkpt>
      <trkpt lat="46.68551" lon="4.71483">
        <ele>220.80000305176</ele>
        <time>2024-05-20T07:15:06.000Z</time>
      </trkpt>
      <trkpt lat="46.68551" lon="4.71476">
        <ele>220.80000305176</ele>
        <time>2024-05-20T07:15:07.000Z</time>
      </trkpt>
      <trkpt lat="46.68551" lon="4.71468">
        <ele>221</ele>
        <time>2024-05-20T07:15:08.000Z</time>
      </trkpt>
      <trkpt lat="46.68551" lon="4.71461">
        <ele>221</ele>
        <time>2024-05-20T07:15:09.000Z</time>
      </trkpt>
      <trkpt lat="46.68552" lon="4.71453">
        <ele>221</ele>
        <time>2024-05-20T07:15:10.000Z</time>
      </trkpt>
      <trkpt lat="46.68552" lon="4.71446">
        <ele>221</ele>
        <time>2024-05-20T07:15:11.000Z</time>
      </trkpt>
      <trkpt lat="46.68552" lon="4.71438">
        <ele>221</ele>
        <time>2024-05-20T07:15:12.000Z</time>
      </trkpt>
      <trkpt lat="46.68552" lon="4.7143">
        <ele>221.19999694824</ele>
        <time>2024-05-20T07:15:13.000Z</time>
      </trkpt>
      <trkpt lat="46.68553" lon="4.71422">
        <ele>221.19999694824</ele>
        <time>2024-05-20T07:15:14.000Z</time>
      </trkpt>
      <trkpt lat="46.68553" lon="4.71414">
        <ele>221.19999694824</ele>
        <time>2024-05-20T07:15:15.000Z</time>
      </trkpt>
      <trkpt lat="46.68553" lon="4.71406">
        <ele>221.19999694824</ele>
        <time>2024-05-20T07:15:16.000Z</time>
      </trkpt>
      <trkpt lat="46.68553" lon="4.71398">
        <ele>221.19999694824</ele>
        <time>2024-05-20T07:15:17.000Z</time>
      </trkpt>
      <trkpt lat="46.68554" lon="4.7139">
        <ele>221.19999694824</ele>
        <time>2024-05-20T07:15:18.000Z</time>
      </trkpt>
      <trkpt lat="46.68554" lon="4.71382">
        <ele>221.19999694824</ele>
        <time>2024-05-20T07:15:19.000Z</time>
      </trkpt>
      <trkpt lat="46.68554" lon="4.71374">
        <ele>221.19999694824</ele>
        <time>2024-05-20T07:15:20.000Z</time>
      </trkpt>
      <trkpt lat="46.68555" lon="4.71366">
        <ele>221.19999694824</ele>
        <time>2024-05-20T07:15:21.000Z</time>
      </trkpt>
      <trkpt lat="46.68555" lon="4.71357">
        <ele>221</ele>
        <time>2024-05-20T07:15:22.000Z</time>
      </trkpt>
      <trkpt lat="46.68555" lon="4.71349">
        <ele>221</ele>
        <time>2024-05-20T07:15:23.000Z</time>
      </trkpt>
      <trkpt lat="46.68555" lon="4.7134">
        <ele>221</ele>
        <time>2024-05-20T07:15:24.000Z</time>
      </trkpt>
      <trkpt lat="46.68555" lon="4.71331">
        <ele>221</ele>
        <time>2024-05-20T07:15:25.000Z</time>
      </trkpt>
      <trkpt lat="46.68556" lon="4.71322">
        <ele>220.80000305176</ele>
        <time>2024-05-20T07:15:26.000Z</time>
      </trkpt>
      <trkpt lat="46.68556" lon="4.71313">
        <ele>220.39999389648</ele>
        <time>2024-05-20T07:15:27.000Z</time>
      </trkpt>
      <trkpt lat="46.68556" lon="4.71304">
        <ele>220.39999389648</ele>
        <time>2024-05-20T07:15:28.000Z</time>
      </trkpt>
      <trkpt lat="46.68556" lon="4.71295">
        <ele>220.19999694824</ele>
        <time>2024-05-20T07:15:29.000Z</time>
      </trkpt>
      <trkpt lat="46.68557" lon="4.71287">
        <ele>220.19999694824</ele>
        <time>2024-05-20T07:15:30.000Z</time>
      </trkpt>
      <trkpt lat="46.68557" lon="4.71279">
        <ele>220.19999694824</ele>
        <time>2024-05-20T07:15:31.000Z</time>
      </trkpt>
      <trkpt lat="46.68558" lon="4.7127">
        <ele>220.19999694824</ele>
        <time>2024-05-20T07:15:32.000Z</time>
      </trkpt>
      <trkpt lat="46.68558" lon="4.71262">
        <ele>220.19999694824</ele>
        <time>2024-05-20T07:15:33.000Z</time>
      </trkpt>
      <trkpt lat="46.68558" lon="4.71253">
        <ele>220.39999389648</ele>
        <time>2024-05-20T07:15:34.000Z</time>
      </trkpt>
      <trkpt lat="46.68558" lon="4.71244">
        <ele>220.39999389648</ele>
        <time>2024-05-20T07:15:35.000Z</time>
      </trkpt>
      <trkpt lat="46.68559" lon="4.71236">
        <ele>220.39999389648</ele>
        <time>2024-05-20T07:15:36.000Z</time>
      </trkpt>
      <trkpt lat="46.68559" lon="4.71227">
        <ele>220.39999389648</ele>
        <time>2024-05-20T07:15:37.000Z</time>
      </trkpt>
      <trkpt lat="46.68559" lon="4.71218">
        <ele>220.39999389648</ele>
        <time>2024-05-20T07:15:38.000Z</time>
      </trkpt>
      <trkpt lat="46.68559" lon="4.7121">
        <ele>220.60000610352</ele>
        <time>2024-05-20T07:15:39.000Z</time>
      </trkpt>
      <trkpt lat="46.6856" lon="4.71201">
        <ele>220.39999389648</ele>
        <time>2024-05-20T07:15:40.000Z</time>
      </trkpt>
      <trkpt lat="46.6856" lon="4.71193">
        <ele>220.39999389648</ele>
        <time>2024-05-20T07:15:41.000Z</time>
      </trkpt>
      <trkpt lat="46.6856" lon="4.71184">
        <ele>220.39999389648</ele>
        <time>2024-05-20T07:15:42.000Z</time>
      </trkpt>
      <trkpt lat="46.6856" lon="4.71175">
        <ele>220.39999389648</ele>
        <time>2024-05-20T07:15:43.000Z</time>
      </trkpt>
      <trkpt lat="46.6856" lon="4.71165">
        <ele>220.39999389648</ele>
        <time>2024-05-20T07:15:44.000Z</time>
      </trkpt>
      <trkpt lat="46.6856" lon="4.71156">
        <ele>220.39999389648</ele>
        <time>2024-05-20T07:15:45.000Z</time>
      </trkpt>
      <trkpt lat="46.68561" lon="4.71148">
        <ele>220.39999389648</ele>
        <time>2024-05-20T07:15:46.000Z</time>
      </trkpt>
      <trkpt lat="46.68561" lon="4.71139">
        <ele>220.39999389648</ele>
        <time>2024-05-20T07:15:47.000Z</time>
      </trkpt>
      <trkpt lat="46.68561" lon="4.7113">
        <ele>220.39999389648</ele>
        <time>2024-05-20T07:15:48.000Z</time>
      </trkpt>
      <trkpt lat="46.68561" lon="4.71121">
        <ele>220.39999389648</ele>
        <time>2024-05-20T07:15:49.000Z</time>
      </trkpt>
      <trkpt lat="46.68561" lon="4.71112">
        <ele>220.39999389648</ele>
        <time>2024-05-20T07:15:50.000Z</time>
      </trkpt>
      <trkpt lat="46.68562" lon="4.71103">
        <ele>220.39999389648</ele>
        <time>2024-05-20T07:15:51.000Z</time>
      </trkpt>
      <trkpt lat="46.68562" lon="4.71095">
        <ele>220.39999389648</ele>
        <time>2024-05-20T07:15:52.000Z</time>
      </trkpt>
      <trkpt lat="46.68562" lon="4.71086">
        <ele>220.39999389648</ele>
        <time>2024-05-20T07:15:53.000Z</time>
      </trkpt>
      <trkpt lat="46.68563" lon="4.71077">
        <ele>220.39999389648</ele>
        <time>2024-05-20T07:15:54.000Z</time>
      </trkpt>
      <trkpt lat="46.68563" lon="4.71068">
        <ele>220.60000610352</ele>
        <time>2024-05-20T07:15:55.000Z</time>
      </trkpt>
      <trkpt lat="46.68563" lon="4.71059">
        <ele>220.60000610352</ele>
        <time>2024-05-20T07:15:56.000Z</time>
      </trkpt>
      <trkpt lat="46.68563" lon="4.71051">
        <ele>220.80000305176</ele>
        <time>2024-05-20T07:15:57.000Z</time>
      </trkpt>
      <trkpt lat="46.68563" lon="4.71042">
        <ele>220.80000305176</ele>
        <time>2024-05-20T07:15:58.000Z</time>
      </trkpt>
      <trkpt lat="46.68564" lon="4.71034">
        <ele>220.80000305176</ele>
        <time>2024-05-20T07:15:59.000Z</time>
      </trkpt>
      <trkpt lat="46.68564" lon="4.71026">
        <ele>220.80000305176</ele>
        <time>2024-05-20T07:16:00.000Z</time>
      </trkpt>
      <trkpt lat="46.68565" lon="4.71018">
        <ele>220.80000305176</ele>
        <time>2024-05-20T07:16:01.000Z</time>
      </trkpt>
      <trkpt lat="46.68565" lon="4.7101">
        <ele>220.80000305176</ele>
        <time>2024-05-20T07:16:02.000Z</time>
      </trkpt>
      <trkpt lat="46.68566" lon="4.71002">
        <ele>220.80000305176</ele>
        <time>2024-05-20T07:16:03.000Z</time>
      </trkpt>
      <trkpt lat="46.68566" lon="4.70994">
        <ele>220.80000305176</ele>
        <time>2024-05-20T07:16:04.000Z</time>
      </trkpt>
      <trkpt lat="46.68566" lon="4.70985">
        <ele>220.80000305176</ele>
        <time>2024-05-20T07:16:05.000Z</time>
      </trkpt>
      <trkpt lat="46.68566" lon="4.70977">
        <ele>221</ele>
        <time>2024-05-20T07:16:06.000Z</time>
      </trkpt>
      <trkpt lat="46.68566" lon="4.70968">
        <ele>221</ele>
        <time>2024-05-20T07:16:07.000Z</time>
      </trkpt>
      <trkpt lat="46.68566" lon="4.7096">
        <ele>221</ele>
        <time>2024-05-20T07:16:08.000Z</time>
      </trkpt>
      <trkpt lat="46.68567" lon="4.70952">
        <ele>221</ele>
        <time>2024-05-20T07:16:09.000Z</time>
      </trkpt>
      <trkpt lat="46.68567" lon="4.70944">
        <ele>221</ele>
        <time>2024-05-20T07:16:10.000Z</time>
      </trkpt>
      <trkpt lat="46.68567" lon="4.70936">
        <ele>221.19999694824</ele>
        <time>2024-05-20T07:16:11.000Z</time>
      </trkpt>
      <trkpt lat="46.68567" lon="4.70928">
        <ele>221.19999694824</ele>
        <time>2024-05-20T07:16:12.000Z</time>
      </trkpt>
      <trkpt lat="46.68567" lon="4.70921">
        <ele>221.39999389648</ele>
        <time>2024-05-20T07:16:13.000Z</time>
      </trkpt>
      <trkpt lat="46.68567" lon="4.70913">
        <ele>221.39999389648</ele>
        <time>2024-05-20T07:16:14.000Z</time>
      </trkpt>
      <trkpt lat="46.68567" lon="4.70905">
        <ele>221.39999389648</ele>
        <time>2024-05-20T07:16:15.000Z</time>
      </trkpt>
      <trkpt lat="46.68567" lon="4.70897">
        <ele>221.39999389648</ele>
        <time>2024-05-20T07:16:16.000Z</time>
      </trkpt>
      <trkpt lat="46.68567" lon="4.7089">
        <ele>221.60000610352</ele>
        <time>2024-05-20T07:16:17.000Z</time>
      </trkpt>
      <trkpt lat="46.68568" lon="4.70882">
        <ele>221.60000610352</ele>
        <time>2024-05-20T07:16:18.000Z</time>
      </trkpt>
      <trkpt lat="46.68568" lon="4.70875">
        <ele>221.80000305176</ele>
        <time>2024-05-20T07:16:19.000Z</time>
      </trkpt>
      <trkpt lat="46.68568" lon="4.70868">
        <ele>222</ele>
        <time>2024-05-20T07:16:20.000Z</time>
      </trkpt>
      <trkpt lat="46.68568" lon="4.7086">
        <ele>222</ele>
        <time>2024-05-20T07:16:21.000Z</time>
      </trkpt>
      <trkpt lat="46.68569" lon="4.70853">
        <ele>222</ele>
        <time>2024-05-20T07:16:22.000Z</time>
      </trkpt>
      <trkpt lat="46.68569" lon="4.70846">
        <ele>222.19999694824</ele>
        <time>2024-05-20T07:16:23.000Z</time>
      </trkpt>
      <trkpt lat="46.68569" lon="4.70839">
        <ele>222.39999389648</ele>
        <time>2024-05-20T07:16:24.000Z</time>
      </trkpt>
      <trkpt lat="46.68569" lon="4.70832">
        <ele>222.39999389648</ele>
        <time>2024-05-20T07:16:25.000Z</time>
      </trkpt>
      <trkpt lat="46.68569" lon="4.70825">
        <ele>222.60000610352</ele>
        <time>2024-05-20T07:16:26.000Z</time>
      </trkpt>
      <trkpt lat="46.68569" lon="4.70818">
        <ele>222.60000610352</ele>
        <time>2024-05-20T07:16:27.000Z</time>
      </trkpt>
      <trkpt lat="46.68569" lon="4.70811">
        <ele>222.60000610352</ele>
        <time>2024-05-20T07:16:28.000Z</time>
      </trkpt>
      <trkpt lat="46.68569" lon="4.70803">
        <ele>222.60000610352</ele>
        <time>2024-05-20T07:16:29.000Z</time>
      </trkpt>
      <trkpt lat="46.68568" lon="4.70796">
        <ele>222.80000305176</ele>
        <time>2024-05-20T07:16:30.000Z</time>
      </trkpt>
      <trkpt lat="46.68568" lon="4.70789">
        <ele>223</ele>
        <time>2024-05-20T07:16:31.000Z</time>
      </trkpt>
      <trkpt lat="46.68569" lon="4.70782">
        <ele>223</ele>
        <time>2024-05-20T07:16:32.000Z</time>
      </trkpt>
      <trkpt lat="46.68569" lon="4.70775">
        <ele>223.19999694824</ele>
        <time>2024-05-20T07:16:33.000Z</time>
      </trkpt>
      <trkpt lat="46.68569" lon="4.70768">
        <ele>223.19999694824</ele>
        <time>2024-05-20T07:16:34.000Z</time>
      </trkpt>
      <trkpt lat="46.68569" lon="4.70762">
        <ele>223.39999389648</ele>
        <time>2024-05-20T07:16:35.000Z</time>
      </trkpt>
      <trkpt lat="46.6857" lon="4.70755">
        <ele>223.39999389648</ele>
        <time>2024-05-20T07:16:36.000Z</time>
      </trkpt>
      <trkpt lat="46.6857" lon="4.70748">
        <ele>223.39999389648</ele>
        <time>2024-05-20T07:16:37.000Z</time>
      </trkpt>
      <trkpt lat="46.6857" lon="4.70741">
        <ele>223.60000610352</ele>
        <time>2024-05-20T07:16:38.000Z</time>
      </trkpt>
      <trkpt lat="46.6857" lon="4.70734">
        <ele>223.60000610352</ele>
        <time>2024-05-20T07:16:39.000Z</time>
      </trkpt>
      <trkpt lat="46.6857" lon="4.70727">
        <ele>223.80000305176</ele>
        <time>2024-05-20T07:16:40.000Z</time>
      </trkpt>
      <trkpt lat="46.68571" lon="4.7072">
        <ele>223.80000305176</ele>
        <time>2024-05-20T07:16:41.000Z</time>
      </trkpt>
      <trkpt lat="46.68571" lon="4.70712">
        <ele>224</ele>
        <time>2024-05-20T07:16:42.000Z</time>
      </trkpt>
      <trkpt lat="46.68571" lon="4.70705">
        <ele>224.19999694824</ele>
        <time>2024-05-20T07:16:43.000Z</time>
      </trkpt>
      <trkpt lat="46.68571" lon="4.70698">
        <ele>224.19999694824</ele>
        <time>2024-05-20T07:16:44.000Z</time>
      </trkpt>
      <trkpt lat="46.68572" lon="4.70691">
        <ele>224.19999694824</ele>
        <time>2024-05-20T07:16:45.000Z</time>
      </trkpt>
      <trkpt lat="46.68572" lon="4.70684">
        <ele>224.19999694824</ele>
        <time>2024-05-20T07:16:46.000Z</time>
      </trkpt>
      <trkpt lat="46.68572" lon="4.70678">
        <ele>224.39999389648</ele>
        <time>2024-05-20T07:16:47.000Z</time>
      </trkpt>
      <trkpt lat="46.68572" lon="4.70671">
        <ele>224.80000305176</ele>
        <time>2024-05-20T07:16:48.000Z</time>
      </trkpt>
      <trkpt lat="46.68572" lon="4.70664">
        <ele>224.80000305176</ele>
        <time>2024-05-20T07:16:49.000Z</time>
      </trkpt>
      <trkpt lat="46.68573" lon="4.70657">
        <ele>224.80000305176</ele>
        <time>2024-05-20T07:16:50.000Z</time>
      </trkpt>
      <trkpt lat="46.68573" lon="4.70651">
        <ele>225</ele>
        <time>2024-05-20T07:16:51.000Z</time>
      </trkpt>
      <trkpt lat="46.68573" lon="4.70644">
        <ele>225.19999694824</ele>
        <time>2024-05-20T07:16:52.000Z</time>
      </trkpt>
      <trkpt lat="46.68573" lon="4.70637">
        <ele>225.39999389648</ele>
        <time>2024-05-20T07:16:53.000Z</time>
      </trkpt>
      <trkpt lat="46.68572" lon="4.70631">
        <ele>225.39999389648</ele>
        <time>2024-05-20T07:16:54.000Z</time>
      </trkpt>
      <trkpt lat="46.68572" lon="4.70624">
        <ele>225.80000305176</ele>
        <time>2024-05-20T07:16:55.000Z</time>
      </trkpt>
      <trkpt lat="46.68573" lon="4.70617">
        <ele>226</ele>
        <time>2024-05-20T07:16:56.000Z</time>
      </trkpt>
      <trkpt lat="46.68573" lon="4.7061">
        <ele>226</ele>
        <time>2024-05-20T07:16:57.000Z</time>
      </trkpt>
      <trkpt lat="46.68573" lon="4.70603">
        <ele>226.19999694824</ele>
        <time>2024-05-20T07:16:58.000Z</time>
      </trkpt>
      <trkpt lat="46.68572" lon="4.70596">
        <ele>226.39999389648</ele>
        <time>2024-05-20T07:16:59.000Z</time>
      </trkpt>
      <trkpt lat="46.68572" lon="4.70589">
        <ele>226.39999389648</ele>
        <time>2024-05-20T07:17:00.000Z</time>
      </trkpt>
      <trkpt lat="46.68572" lon="4.70583">
        <ele>226.39999389648</ele>
        <time>2024-05-20T07:17:01.000Z</time>
      </trkpt>
      <trkpt lat="46.68572" lon="4.70576">
        <ele>226.60000610352</ele>
        <time>2024-05-20T07:17:02.000Z</time>
      </trkpt>
      <trkpt lat="46.68573" lon="4.7057">
        <ele>226.80000305176</ele>
        <time>2024-05-20T07:17:03.000Z</time>
      </trkpt>
      <trkpt lat="46.68573" lon="4.70563">
        <ele>227</ele>
        <time>2024-05-20T07:17:04.000Z</time>
      </trkpt>
      <trkpt lat="46.68573" lon="4.70556">
        <ele>227.19999694824</ele>
        <time>2024-05-20T07:17:05.000Z</time>
      </trkpt>
      <trkpt lat="46.68574" lon="4.70549">
        <ele>227.39999389648</ele>
        <time>2024-05-20T07:17:06.000Z</time>
      </trkpt>
      <trkpt lat="46.68574" lon="4.70542">
        <ele>227.39999389648</ele>
        <time>2024-05-20T07:17:07.000Z</time>
      </trkpt>
      <trkpt lat="46.68574" lon="4.70535">
        <ele>227.60000610352</ele>
        <time>2024-05-20T07:17:08.000Z</time>
      </trkpt>
      <trkpt lat="46.68574" lon="4.70528">
        <ele>227.60000610352</ele>
        <time>2024-05-20T07:17:09.000Z</time>
      </trkpt>
      <trkpt lat="46.68574" lon="4.7052">
        <ele>227.60000610352</ele>
        <time>2024-05-20T07:17:10.000Z</time>
      </trkpt>
      <trkpt lat="46.68575" lon="4.70513">
        <ele>227.60000610352</ele>
        <time>2024-05-20T07:17:11.000Z</time>
      </trkpt>
      <trkpt lat="46.68575" lon="4.70506">
        <ele>227.60000610352</ele>
        <time>2024-05-20T07:17:12.000Z</time>
      </trkpt>
      <trkpt lat="46.68576" lon="4.70499">
        <ele>227.80000305176</ele>
        <time>2024-05-20T07:17:13.000Z</time>
      </trkpt>
      <trkpt lat="46.68576" lon="4.70492">
        <ele>228</ele>
        <time>2024-05-20T07:17:14.000Z</time>
      </trkpt>
      <trkpt lat="46.68577" lon="4.70486">
        <ele>228</ele>
        <time>2024-05-20T07:17:15.000Z</time>
      </trkpt>
      <trkpt lat="46.68577" lon="4.70479">
        <ele>228</ele>
        <time>2024-05-20T07:17:16.000Z</time>
      </trkpt>
      <trkpt lat="46.68577" lon="4.70473">
        <ele>228.19999694824</ele>
        <time>2024-05-20T07:17:17.000Z</time>
      </trkpt>
      <trkpt lat="46.68577" lon="4.70466">
        <ele>228.19999694824</ele>
        <time>2024-05-20T07:17:18.000Z</time>
      </trkpt>
      <trkpt lat="46.68577" lon="4.7046">
        <ele>228.39999389648</ele>
        <time>2024-05-20T07:17:19.000Z</time>
      </trkpt>
      <trkpt lat="46.68577" lon="4.70453">
        <ele>228.39999389648</ele>
        <time>2024-05-20T07:17:20.000Z</time>
      </trkpt>
      <trkpt lat="46.68578" lon="4.70446">
        <ele>228.80000305176</ele>
        <time>2024-05-20T07:17:21.000Z</time>
      </trkpt>
      <trkpt lat="46.68578" lon="4.70439">
        <ele>228.80000305176</ele>
        <time>2024-05-20T07:17:22.000Z</time>
      </trkpt>
      <trkpt lat="46.68578" lon="4.70433">
        <ele>229</ele>
        <time>2024-05-20T07:17:23.000Z</time>
      </trkpt>
      <trkpt lat="46.68579" lon="4.70426">
        <ele>229</ele>
        <time>2024-05-20T07:17:24.000Z</time>
      </trkpt>
      <trkpt lat="46.68579" lon="4.7042">
        <ele>229</ele>
        <time>2024-05-20T07:17:25.000Z</time>
      </trkpt>
      <trkpt lat="46.6858" lon="4.70413">
        <ele>229.19999694824</ele>
        <time>2024-05-20T07:17:26.000Z</time>
      </trkpt>
      <trkpt lat="46.68581" lon="4.70407">
        <ele>229.19999694824</ele>
        <time>2024-05-20T07:17:27.000Z</time>
      </trkpt>
      <trkpt lat="46.68583" lon="4.70401">
        <ele>229.39999389648</ele>
        <time>2024-05-20T07:17:28.000Z</time>
      </trkpt>
      <trkpt lat="46.68584" lon="4.70396">
        <ele>229.39999389648</ele>
        <time>2024-05-20T07:17:29.000Z</time>
      </trkpt>
      <trkpt lat="46.68586" lon="4.7039">
        <ele>229.60000610352</ele>
        <time>2024-05-20T07:17:30.000Z</time>
      </trkpt>
      <trkpt lat="46.68588" lon="4.70385">
        <ele>229.80000305176</ele>
        <time>2024-05-20T07:17:31.000Z</time>
      </trkpt>
      <trkpt lat="46.68591" lon="4.70381">
        <ele>230</ele>
        <time>2024-05-20T07:17:32.000Z</time>
      </trkpt>
      <trkpt lat="46.68593" lon="4.70377">
        <ele>230</ele>
        <time>2024-05-20T07:17:33.000Z</time>
      </trkpt>
      <trkpt lat="46.68595" lon="4.70372">
        <ele>230.39999389648</ele>
        <time>2024-05-20T07:17:34.000Z</time>
      </trkpt>
      <trkpt lat="46.68596" lon="4.70368">
        <ele>230.60000610352</ele>
        <time>2024-05-20T07:17:35.000Z</time>
      </trkpt>
      <trkpt lat="46.68597" lon="4.70364">
        <ele>230.80000305176</ele>
        <time>2024-05-20T07:17:36.000Z</time>
      </trkpt>
      <trkpt lat="46.68597" lon="4.7036">
        <ele>230.80000305176</ele>
        <time>2024-05-20T07:17:37.000Z</time>
      </trkpt>
      <trkpt lat="46.68595" lon="4.70358">
        <ele>231</ele>
        <time>2024-05-20T07:17:38.000Z</time>
      </trkpt>
      <trkpt lat="46.68593" lon="4.70356">
        <ele>231.19999694824</ele>
        <time>2024-05-20T07:17:39.000Z</time>
      </trkpt>
      <trkpt lat="46.68589" lon="4.70355">
        <ele>231.19999694824</ele>
        <time>2024-05-20T07:17:40.000Z</time>
      </trkpt>
      <trkpt lat="46.68585" lon="4.70354">
        <ele>231.19999694824</ele>
        <time>2024-05-20T07:17:41.000Z</time>
      </trkpt>
      <trkpt lat="46.68581" lon="4.70353">
        <ele>231.19999694824</ele>
        <time>2024-05-20T07:17:42.000Z</time>
      </trkpt>
      <trkpt lat="46.68576" lon="4.70352">
        <ele>231</ele>
        <time>2024-05-20T07:17:43.000Z</time>
      </trkpt>
      <trkpt lat="46.68571" lon="4.70351">
        <ele>230.80000305176</ele>
        <time>2024-05-20T07:17:44.000Z</time>
      </trkpt>
      <trkpt lat="46.68566" lon="4.7035">
        <ele>230.39999389648</ele>
        <time>2024-05-20T07:17:45.000Z</time>
      </trkpt>
      <trkpt lat="46.68561" lon="4.70348">
        <ele>230.39999389648</ele>
        <time>2024-05-20T07:17:46.000Z</time>
      </trkpt>
      <trkpt lat="46.68556" lon="4.70347">
        <ele>230.19999694824</ele>
        <time>2024-05-20T07:17:47.000Z</time>
      </trkpt>
      <trkpt lat="46.68551" lon="4.70346">
        <ele>230.19999694824</ele>
        <time>2024-05-20T07:17:48.000Z</time>
      </trkpt>
      <trkpt lat="46.68546" lon="4.70345">
        <ele>230</ele>
        <time>2024-05-20T07:17:49.000Z</time>
      </trkpt>
      <trkpt lat="46.68541" lon="4.70344">
        <ele>229.80000305176</ele>
        <time>2024-05-20T07:17:50.000Z</time>
      </trkpt>
      <trkpt lat="46.68535" lon="4.70342">
        <ele>229.80000305176</ele>
        <time>2024-05-20T07:17:51.000Z</time>
      </trkpt>
      <trkpt lat="46.6853" lon="4.70341">
        <ele>229.60000610352</ele>
        <time>2024-05-20T07:17:52.000Z</time>
      </trkpt>
      <trkpt lat="46.68524" lon="4.70339">
        <ele>229.60000610352</ele>
        <time>2024-05-20T07:17:53.000Z</time>
      </trkpt>
      <trkpt lat="46.68518" lon="4.70338">
        <ele>229.60000610352</ele>
        <time>2024-05-20T07:17:54.000Z</time>
      </trkpt>
      <trkpt lat="46.68512" lon="4.70336">
        <ele>229.60000610352</ele>
        <time>2024-05-20T07:17:55.000Z</time>
      </trkpt>
      <trkpt lat="46.68506" lon="4.70335">
        <ele>229.60000610352</ele>
        <time>2024-05-20T07:17:56.000Z</time>
      </trkpt>
      <trkpt lat="46.68499" lon="4.70333">
        <ele>229.19999694824</ele>
        <time>2024-05-20T07:17:57.000Z</time>
      </trkpt>
      <trkpt lat="46.68493" lon="4.70332">
        <ele>229</ele>
        <time>2024-05-20T07:17:58.000Z</time>
      </trkpt>
      <trkpt lat="46.68487" lon="4.70331">
        <ele>228.80000305176</ele>
        <time>2024-05-20T07:17:59.000Z</time>
      </trkpt>
      <trkpt lat="46.6848" lon="4.70329">
        <ele>228.60000610352</ele>
        <time>2024-05-20T07:18:00.000Z</time>
      </trkpt>
      <trkpt lat="46.68474" lon="4.70328">
        <ele>228.39999389648</ele>
        <time>2024-05-20T07:18:01.000Z</time>
      </trkpt>
      <trkpt lat="46.68468" lon="4.70326">
        <ele>228.39999389648</ele>
        <time>2024-05-20T07:18:02.000Z</time>
      </trkpt>
      <trkpt lat="46.68461" lon="4.70324">
        <ele>228.39999389648</ele>
        <time>2024-05-20T07:18:03.000Z</time>
      </trkpt>
      <trkpt lat="46.68454" lon="4.70323">
        <ele>228.39999389648</ele>
        <time>2024-05-20T07:18:04.000Z</time>
      </trkpt>
      <trkpt lat="46.68448" lon="4.70321">
        <ele>228.19999694824</ele>
        <time>2024-05-20T07:18:05.000Z</time>
      </trkpt>
      <trkpt lat="46.68441" lon="4.7032">
        <ele>228.19999694824</ele>
        <time>2024-05-20T07:18:06.000Z</time>
      </trkpt>
      <trkpt lat="46.68434" lon="4.70318">
        <ele>228.19999694824</ele>
        <time>2024-05-20T07:18:07.000Z</time>
      </trkpt>
      <trkpt lat="46.68427" lon="4.70317">
        <ele>227.80000305176</ele>
        <time>2024-05-20T07:18:08.000Z</time>
      </trkpt>
      <trkpt lat="46.6842" lon="4.70315">
        <ele>227.60000610352</ele>
        <time>2024-05-20T07:18:09.000Z</time>
      </trkpt>
      <trkpt lat="46.68413" lon="4.70313">
        <ele>227.60000610352</ele>
        <time>2024-05-20T07:18:10.000Z</time>
      </trkpt>
      <trkpt lat="46.68406" lon="4.70311">
        <ele>227.39999389648</ele>
        <time>2024-05-20T07:18:11.000Z</time>
      </trkpt>
      <trkpt lat="46.68399" lon="4.7031">
        <ele>227.19999694824</ele>
        <time>2024-05-20T07:18:12.000Z</time>
      </trkpt>
      <trkpt lat="46.68392" lon="4.70308">
        <ele>227</ele>
        <time>2024-05-20T07:18:13.000Z</time>
      </trkpt>
      <trkpt lat="46.68385" lon="4.70306">
        <ele>226.80000305176</ele>
        <time>2024-05-20T07:18:14.000Z</time>
      </trkpt>
      <trkpt lat="46.68378" lon="4.70305">
        <ele>226.60000610352</ele>
        <time>2024-05-20T07:18:15.000Z</time>
      </trkpt>
      <trkpt lat="46.68371" lon="4.70303">
        <ele>226.60000610352</ele>
        <time>2024-05-20T07:18:16.000Z</time>
      </trkpt>
      <trkpt lat="46.68364" lon="4.70301">
        <ele>226.19999694824</ele>
        <time>2024-05-20T07:18:17.000Z</time>
      </trkpt>
      <trkpt lat="46.68357" lon="4.703">
        <ele>226.19999694824</ele>
        <time>2024-05-20T07:18:18.000Z</time>
      </trkpt>
      <trkpt lat="46.6835" lon="4.70298">
        <ele>226.19999694824</ele>
        <time>2024-05-20T07:18:19.000Z</time>
      </trkpt>
      <trkpt lat="46.68344" lon="4.70297">
        <ele>226</ele>
        <time>2024-05-20T07:18:20.000Z</time>
      </trkpt>
      <trkpt lat="46.68337" lon="4.70295">
        <ele>226</ele>
        <time>2024-05-20T07:18:21.000Z</time>
      </trkpt>
      <trkpt lat="46.6833" lon="4.70293">
        <ele>225.80000305176</ele>
        <time>2024-05-20T07:18:22.000Z</time>
      </trkpt>
      <trkpt lat="46.68323" lon="4.70291">
        <ele>225.80000305176</ele>
        <time>2024-05-20T07:18:23.000Z</time>
      </trkpt>
      <trkpt lat="46.68316" lon="4.7029">
        <ele>225.80000305176</ele>
        <time>2024-05-20T07:18:24.000Z</time>
      </trkpt>
      <trkpt lat="46.6831" lon="4.70289">
        <ele>225.80000305176</ele>
        <time>2024-05-20T07:18:25.000Z</time>
      </trkpt>
      <trkpt lat="46.68303" lon="4.70287">
        <ele>226</ele>
        <time>2024-05-20T07:18:26.000Z</time>
      </trkpt>
      <trkpt lat="46.68297" lon="4.70285">
        <ele>226</ele>
        <time>2024-05-20T07:18:27.000Z</time>
      </trkpt>
      <trkpt lat="46.6829" lon="4.70283">
        <ele>226</ele>
        <time>2024-05-20T07:18:28.000Z</time>
      </trkpt>
      <trkpt lat="46.68283" lon="4.70282">
        <ele>226</ele>
        <time>2024-05-20T07:18:29.000Z</time>
      </trkpt>
      <trkpt lat="46.68277" lon="4.7028">
        <ele>226</ele>
        <time>2024-05-20T07:18:30.000Z</time>
      </trkpt>
      <trkpt lat="46.6827" lon="4.70278">
        <ele>225.80000305176</ele>
        <time>2024-05-20T07:18:31.000Z</time>
      </trkpt>
      <trkpt lat="46.68264" lon="4.70277">
        <ele>225.80000305176</ele>
        <time>2024-05-20T07:18:32.000Z</time>
      </trkpt>
      <trkpt lat="46.68257" lon="4.70276">
        <ele>225.80000305176</ele>
        <time>2024-05-20T07:18:33.000Z</time>
      </trkpt>
      <trkpt lat="46.68251" lon="4.70274">
        <ele>225.80000305176</ele>
        <time>2024-05-20T07:18:34.000Z</time>
      </trkpt>
      <trkpt lat="46.68245" lon="4.70273">
        <ele>225.80000305176</ele>
        <time>2024-05-20T07:18:35.000Z</time>
      </trkpt>
      <trkpt lat="46.6824" lon="4.70271">
        <ele>225.80000305176</ele>
        <time>2024-05-20T07:18:36.000Z</time>
      </trkpt>
      <trkpt lat="46.68234" lon="4.7027">
        <ele>225.80000305176</ele>
        <time>2024-05-20T07:18:37.000Z</time>
      </trkpt>
      <trkpt lat="46.68228" lon="4.70268">
        <ele>225.80000305176</ele>
        <time>2024-05-20T07:18:38.000Z</time>
      </trkpt>
      <trkpt lat="46.68222" lon="4.70267">
        <ele>225.80000305176</ele>
        <time>2024-05-20T07:18:39.000Z</time>
      </trkpt>
      <trkpt lat="46.68216" lon="4.70265">
        <ele>225.80000305176</ele>
        <time>2024-05-20T07:18:40.000Z</time>
      </trkpt>
      <trkpt lat="46.6821" lon="4.70264">
        <ele>225.80000305176</ele>
        <time>2024-05-20T07:18:41.000Z</time>
      </trkpt>
      <trkpt lat="46.68203" lon="4.70262">
        <ele>225.80000305176</ele>
        <time>2024-05-20T07:18:42.000Z</time>
      </trkpt>
      <trkpt lat="46.68197" lon="4.7026">
        <ele>225.80000305176</ele>
        <time>2024-05-20T07:18:43.000Z</time>
      </trkpt>
      <trkpt lat="46.68191" lon="4.70259">
        <ele>225.80000305176</ele>
        <time>2024-05-20T07:18:44.000Z</time>
      </trkpt>
      <trkpt lat="46.68184" lon="4.70257">
        <ele>225.80000305176</ele>
        <time>2024-05-20T07:18:45.000Z</time>
      </trkpt>
      <trkpt lat="46.68178" lon="4.70255">
        <ele>225.80000305176</ele>
        <time>2024-05-20T07:18:46.000Z</time>
      </trkpt>
      <trkpt lat="46.68171" lon="4.70254">
        <ele>225.80000305176</ele>
        <time>2024-05-20T07:18:47.000Z</time>
      </trkpt>
      <trkpt lat="46.68165" lon="4.70252">
        <ele>225.80000305176</ele>
        <time>2024-05-20T07:18:48.000Z</time>
      </trkpt>
      <trkpt lat="46.68158" lon="4.7025">
        <ele>225.60000610352</ele>
        <time>2024-05-20T07:18:49.000Z</time>
      </trkpt>
      <trkpt lat="46.68152" lon="4.70249">
        <ele>225.60000610352</ele>
        <time>2024-05-20T07:18:50.000Z</time>
      </trkpt>
      <trkpt lat="46.68145" lon="4.70247">
        <ele>225.60000610352</ele>
        <time>2024-05-20T07:18:51.000Z</time>
      </trkpt>
      <trkpt lat="46.68138" lon="4.70245">
        <ele>225.60000610352</ele>
        <time>2024-05-20T07:18:52.000Z</time>
      </trkpt>
      <trkpt lat="46.68132" lon="4.70244">
        <ele>225.60000610352</ele>
        <time>2024-05-20T07:18:53.000Z</time>
      </trkpt>
      <trkpt lat="46.68125" lon="4.70242">
        <ele>225.60000610352</ele>
        <time>2024-05-20T07:18:54.000Z</time>
      </trkpt>
      <trkpt lat="46.68118" lon="4.70241">
        <ele>225.60000610352</ele>
        <time>2024-05-20T07:18:55.000Z</time>
      </trkpt>
      <trkpt lat="46.68112" lon="4.70239">
        <ele>225.39999389648</ele>
        <time>2024-05-20T07:18:56.000Z</time>
      </trkpt>
      <trkpt lat="46.68105" lon="4.70238">
        <ele>225.39999389648</ele>
        <time>2024-05-20T07:18:57.000Z</time>
      </trkpt>
      <trkpt lat="46.68099" lon="4.70237">
        <ele>225.39999389648</ele>
        <time>2024-05-20T07:18:58.000Z</time>
      </trkpt>
      <trkpt lat="46.68092" lon="4.70235">
        <ele>225.39999389648</ele>
        <time>2024-05-20T07:18:59.000Z</time>
      </trkpt>
      <trkpt lat="46.68085" lon="4.70233">
        <ele>225.39999389648</ele>
        <time>2024-05-20T07:19:00.000Z</time>
      </trkpt>
      <trkpt lat="46.68079" lon="4.70232">
        <ele>225.39999389648</ele>
        <time>2024-05-20T07:19:01.000Z</time>
      </trkpt>
      <trkpt lat="46.68072" lon="4.7023">
        <ele>225.39999389648</ele>
        <time>2024-05-20T07:19:02.000Z</time>
      </trkpt>
      <trkpt lat="46.68066" lon="4.70228">
        <ele>225.39999389648</ele>
        <time>2024-05-20T07:19:03.000Z</time>
      </trkpt>
      <trkpt lat="46.68059" lon="4.70226">
        <ele>225.39999389648</ele>
        <time>2024-05-20T07:19:04.000Z</time>
      </trkpt>
      <trkpt lat="46.68052" lon="4.70225">
        <ele>225.39999389648</ele>
        <time>2024-05-20T07:19:05.000Z</time>
      </trkpt>
      <trkpt lat="46.68046" lon="4.70223">
        <ele>225.19999694824</ele>
        <time>2024-05-20T07:19:06.000Z</time>
      </trkpt>
      <trkpt lat="46.68039" lon="4.70221">
        <ele>225.19999694824</ele>
        <time>2024-05-20T07:19:07.000Z</time>
      </trkpt>
      <trkpt lat="46.68032" lon="4.7022">
        <ele>225.19999694824</ele>
        <time>2024-05-20T07:19:08.000Z</time>
      </trkpt>
      <trkpt lat="46.68026" lon="4.70219">
        <ele>225.19999694824</ele>
        <time>2024-05-20T07:19:09.000Z</time>
      </trkpt>
      <trkpt lat="46.6802" lon="4.70217">
        <ele>225.19999694824</ele>
        <time>2024-05-20T07:19:10.000Z</time>
      </trkpt>
      <trkpt lat="46.68013" lon="4.70215">
        <ele>225.19999694824</ele>
        <time>2024-05-20T07:19:11.000Z</time>
      </trkpt>
      <trkpt lat="46.68007" lon="4.70213">
        <ele>225.39999389648</ele>
        <time>2024-05-20T07:19:12.000Z</time>
      </trkpt>
      <trkpt lat="46.68" lon="4.70212">
        <ele>225.39999389648</ele>
        <time>2024-05-20T07:19:13.000Z</time>
      </trkpt>
      <trkpt lat="46.67994" lon="4.7021">
        <ele>225.39999389648</ele>
        <time>2024-05-20T07:19:14.000Z</time>
      </trkpt>
      <trkpt lat="46.67988" lon="4.70209">
        <ele>225.39999389648</ele>
        <time>2024-05-20T07:19:15.000Z</time>
      </trkpt>
      <trkpt lat="46.67982" lon="4.70208">
        <ele>225.60000610352</ele>
        <time>2024-05-20T07:19:16.000Z</time>
      </trkpt>
      <trkpt lat="46.67976" lon="4.70206">
        <ele>225.60000610352</ele>
        <time>2024-05-20T07:19:17.000Z</time>
      </trkpt>
      <trkpt lat="46.67971" lon="4.70204">
        <ele>225.80000305176</ele>
        <time>2024-05-20T07:19:18.000Z</time>
      </trkpt>
      <trkpt lat="46.67965" lon="4.70203">
        <ele>226</ele>
        <time>2024-05-20T07:19:19.000Z</time>
      </trkpt>
      <trkpt lat="46.67959" lon="4.70202">
        <ele>226.19999694824</ele>
        <time>2024-05-20T07:19:20.000Z</time>
      </trkpt>
      <trkpt lat="46.67953" lon="4.702">
        <ele>226.19999694824</ele>
        <time>2024-05-20T07:19:21.000Z</time>
      </trkpt>
      <trkpt lat="46.67947" lon="4.70198">
        <ele>226.19999694824</ele>
        <time>2024-05-20T07:19:22.000Z</time>
      </trkpt>
      <trkpt lat="46.67942" lon="4.70197">
        <ele>226.39999389648</ele>
        <time>2024-05-20T07:19:23.000Z</time>
      </trkpt>
      <trkpt lat="46.67937" lon="4.70195">
        <ele>226.39999389648</ele>
        <time>2024-05-20T07:19:24.000Z</time>
      </trkpt>
      <trkpt lat="46.67931" lon="4.70194">
        <ele>226.39999389648</ele>
        <time>2024-05-20T07:19:25.000Z</time>
      </trkpt>
      <trkpt lat="46.67925" lon="4.70192">
        <ele>226.60000610352</ele>
        <time>2024-05-20T07:19:26.000Z</time>
      </trkpt>
      <trkpt lat="46.6792" lon="4.70191">
        <ele>226.60000610352</ele>
        <time>2024-05-20T07:19:27.000Z</time>
      </trkpt>
      <trkpt lat="46.67915" lon="4.70189">
        <ele>226.80000305176</ele>
        <time>2024-05-20T07:19:28.000Z</time>
      </trkpt>
      <trkpt lat="46.6791" lon="4.70187">
        <ele>226.80000305176</ele>
        <time>2024-05-20T07:19:29.000Z</time>
      </trkpt>
      <trkpt lat="46.67904" lon="4.70186">
        <ele>227</ele>
        <time>2024-05-20T07:19:30.000Z</time>
      </trkpt>
      <trkpt lat="46.67899" lon="4.70185">
        <ele>227</ele>
        <time>2024-05-20T07:19:31.000Z</time>
      </trkpt>
      <trkpt lat="46.67893" lon="4.70184">
        <ele>227.19999694824</ele>
        <time>2024-05-20T07:19:32.000Z</time>
      </trkpt>
      <trkpt lat="46.67888" lon="4.70182">
        <ele>227.39999389648</ele>
        <time>2024-05-20T07:19:33.000Z</time>
      </trkpt>
      <trkpt lat="46.67882" lon="4.70181">
        <ele>227.39999389648</ele>
        <time>2024-05-20T07:19:34.000Z</time>
      </trkpt>
      <trkpt lat="46.67877" lon="4.7018">
        <ele>227.60000610352</ele>
        <time>2024-05-20T07:19:35.000Z</time>
      </trkpt>
      <trkpt lat="46.67872" lon="4.70179">
        <ele>227.60000610352</ele>
        <time>2024-05-20T07:19:36.000Z</time>
      </trkpt>
      <trkpt lat="46.67866" lon="4.70177">
        <ele>227.60000610352</ele>
        <time>2024-05-20T07:19:37.000Z</time>
      </trkpt>
      <trkpt lat="46.67861" lon="4.70176">
        <ele>227.60000610352</ele>
        <time>2024-05-20T07:19:38.000Z</time>
      </trkpt>
      <trkpt lat="46.67856" lon="4.70175">
        <ele>227.80000305176</ele>
        <time>2024-05-20T07:19:39.000Z</time>
      </trkpt>
      <trkpt lat="46.67851" lon="4.70173">
        <ele>227.80000305176</ele>
        <time>2024-05-20T07:19:40.000Z</time>
      </trkpt>
      <trkpt lat="46.67845" lon="4.70172">
        <ele>228</ele>
        <time>2024-05-20T07:19:41.000Z</time>
      </trkpt>
      <trkpt lat="46.6784" lon="4.70171">
        <ele>228</ele>
        <time>2024-05-20T07:19:42.000Z</time>
      </trkpt>
      <trkpt lat="46.67836" lon="4.70169">
        <ele>228.19999694824</ele>
        <time>2024-05-20T07:19:43.000Z</time>
      </trkpt>
      <trkpt lat="46.67831" lon="4.70168">
        <ele>228.39999389648</ele>
        <time>2024-05-20T07:19:44.000Z</time>
      </trkpt>
      <trkpt lat="46.67826" lon="4.70167">
        <ele>228.60000610352</ele>
        <time>2024-05-20T07:19:45.000Z</time>
      </trkpt>
      <trkpt lat="46.67821" lon="4.70165">
        <ele>228.60000610352</ele>
        <time>2024-05-20T07:19:46.000Z</time>
      </trkpt>
      <trkpt lat="46.67816" lon="4.70164">
        <ele>228.80000305176</ele>
        <time>2024-05-20T07:19:47.000Z</time>
      </trkpt>
      <trkpt lat="46.67811" lon="4.70163">
        <ele>229</ele>
        <time>2024-05-20T07:19:48.000Z</time>
      </trkpt>
      <trkpt lat="46.67806" lon="4.70161">
        <ele>229.19999694824</ele>
        <time>2024-05-20T07:19:49.000Z</time>
      </trkpt>
      <trkpt lat="46.67801" lon="4.7016">
        <ele>229.19999694824</ele>
        <time>2024-05-20T07:19:50.000Z</time>
      </trkpt>
      <trkpt lat="46.67796" lon="4.70159">
        <ele>229.39999389648</ele>
        <time>2024-05-20T07:19:51.000Z</time>
      </trkpt>
      <trkpt lat="46.67791" lon="4.70157">
        <ele>229.39999389648</ele>
        <time>2024-05-20T07:19:52.000Z</time>
      </trkpt>
      <trkpt lat="46.67787" lon="4.70156">
        <ele>229.39999389648</ele>
        <time>2024-05-20T07:19:53.000Z</time>
      </trkpt>
      <trkpt lat="46.67782" lon="4.70154">
        <ele>229.60000610352</ele>
        <time>2024-05-20T07:19:54.000Z</time>
      </trkpt>
      <trkpt lat="46.67777" lon="4.70152">
        <ele>229.80000305176</ele>
        <time>2024-05-20T07:19:55.000Z</time>
      </trkpt>
      <trkpt lat="46.67773" lon="4.70151">
        <ele>230</ele>
        <time>2024-05-20T07:19:56.000Z</time>
      </trkpt>
      <trkpt lat="46.67768" lon="4.70149">
        <ele>230</ele>
        <time>2024-05-20T07:19:57.000Z</time>
      </trkpt>
      <trkpt lat="46.67763" lon="4.70148">
        <ele>230.19999694824</ele>
        <time>2024-05-20T07:19:58.000Z</time>
      </trkpt>
      <trkpt lat="46.67758" lon="4.70146">
        <ele>230.19999694824</ele>
        <time>2024-05-20T07:19:59.000Z</time>
      </trkpt>
      <trkpt lat="46.67753" lon="4.70145">
        <ele>230.39999389648</ele>
        <time>2024-05-20T07:20:00.000Z</time>
      </trkpt>
      <trkpt lat="46.67748" lon="4.70143">
        <ele>230.39999389648</ele>
        <time>2024-05-20T07:20:01.000Z</time>
      </trkpt>
      <trkpt lat="46.67743" lon="4.70142">
        <ele>230.39999389648</ele>
        <time>2024-05-20T07:20:02.000Z</time>
      </trkpt>
      <trkpt lat="46.67738" lon="4.7014">
        <ele>230.60000610352</ele>
        <time>2024-05-20T07:20:03.000Z</time>
      </trkpt>
      <trkpt lat="46.67733" lon="4.70139">
        <ele>230.80000305176</ele>
        <time>2024-05-20T07:20:04.000Z</time>
      </trkpt>
      <trkpt lat="46.67727" lon="4.70138">
        <ele>230.80000305176</ele>
        <time>2024-05-20T07:20:05.000Z</time>
      </trkpt>
      <trkpt lat="46.67723" lon="4.70136">
        <ele>230.80000305176</ele>
        <time>2024-05-20T07:20:06.000Z</time>
      </trkpt>
      <trkpt lat="46.67718" lon="4.70135">
        <ele>231</ele>
        <time>2024-05-20T07:20:07.000Z</time>
      </trkpt>
      <trkpt lat="46.67713" lon="4.70134">
        <ele>231</ele>
        <time>2024-05-20T07:20:08.000Z</time>
      </trkpt>
      <trkpt lat="46.67708" lon="4.70132">
        <ele>231.19999694824</ele>
        <time>2024-05-20T07:20:09.000Z</time>
      </trkpt>
      <trkpt lat="46.67703" lon="4.70131">
        <ele>231.19999694824</ele>
        <time>2024-05-20T07:20:10.000Z</time>
      </trkpt>
      <trkpt lat="46.67698" lon="4.70129">
        <ele>231.19999694824</ele>
        <time>2024-05-20T07:20:11.000Z</time>
      </trkpt>
      <trkpt lat="46.67693" lon="4.70129">
        <ele>231.19999694824</ele>
        <time>2024-05-20T07:20:12.000Z</time>
      </trkpt>
      <trkpt lat="46.67688" lon="4.70128">
        <ele>231.39999389648</ele>
        <time>2024-05-20T07:20:13.000Z</time>
      </trkpt>
      <trkpt lat="46.67682" lon="4.70127">
        <ele>231.39999389648</ele>
        <time>2024-05-20T07:20:14.000Z</time>
      </trkpt>
      <trkpt lat="46.67677" lon="4.70126">
        <ele>231.39999389648</ele>
        <time>2024-05-20T07:20:15.000Z</time>
      </trkpt>
      <trkpt lat="46.67671" lon="4.70124">
        <ele>231.60000610352</ele>
        <time>2024-05-20T07:20:16.000Z</time>
      </trkpt>
      <trkpt lat="46.67666" lon="4.70123">
        <ele>231.60000610352</ele>
        <time>2024-05-20T07:20:17.000Z</time>
      </trkpt>
      <trkpt lat="46.6766" lon="4.70123">
        <ele>231.80000305176</ele>
        <time>2024-05-20T07:20:18.000Z</time>
      </trkpt>
      <trkpt lat="46.67655" lon="4.70122">
        <ele>231.80000305176</ele>
        <time>2024-05-20T07:20:19.000Z</time>
      </trkpt>
      <trkpt lat="46.67649" lon="4.70121">
        <ele>232</ele>
        <time>2024-05-20T07:20:20.000Z</time>
      </trkpt>
      <trkpt lat="46.67644" lon="4.7012">
        <ele>232</ele>
        <time>2024-05-20T07:20:21.000Z</time>
      </trkpt>
      <trkpt lat="46.67639" lon="4.70119">
        <ele>232</ele>
        <time>2024-05-20T07:20:22.000Z</time>
      </trkpt>
      <trkpt lat="46.67634" lon="4.70118">
        <ele>232</ele>
        <time>2024-05-20T07:20:23.000Z</time>
      </trkpt>
      <trkpt lat="46.67629" lon="4.70117">
        <ele>232.19999694824</ele>
        <time>2024-05-20T07:20:24.000Z</time>
      </trkpt>
      <trkpt lat="46.67624" lon="4.70116">
        <ele>232.19999694824</ele>
        <time>2024-05-20T07:20:25.000Z</time>
      </trkpt>
      <trkpt lat="46.67619" lon="4.70115">
        <ele>232.39999389648</ele>
        <time>2024-05-20T07:20:26.000Z</time>
      </trkpt>
      <trkpt lat="46.67614" lon="4.70114">
        <ele>232.39999389648</ele>
        <time>2024-05-20T07:20:27.000Z</time>
      </trkpt>
      <trkpt lat="46.67609" lon="4.70113">
        <ele>232.39999389648</ele>
        <time>2024-05-20T07:20:28.000Z</time>
      </trkpt>
      <trkpt lat="46.67604" lon="4.70113">
        <ele>232.39999389648</ele>
        <time>2024-05-20T07:20:29.000Z</time>
      </trkpt>
      <trkpt lat="46.67599" lon="4.70112">
        <ele>232.39999389648</ele>
        <time>2024-05-20T07:20:30.000Z</time>
      </trkpt>
      <trkpt lat="46.67594" lon="4.70111">
        <ele>232.39999389648</ele>
        <time>2024-05-20T07:20:31.000Z</time>
      </trkpt>
      <trkpt lat="46.67589" lon="4.7011">
        <ele>232.39999389648</ele>
        <time>2024-05-20T07:20:32.000Z</time>
      </trkpt>
      <trkpt lat="46.67583" lon="4.70109">
        <ele>232.39999389648</ele>
        <time>2024-05-20T07:20:33.000Z</time>
      </trkpt>
      <trkpt lat="46.67578" lon="4.70108">
        <ele>232.19999694824</ele>
        <time>2024-05-20T07:20:34.000Z</time>
      </trkpt>
      <trkpt lat="46.67573" lon="4.70108">
        <ele>232.39999389648</ele>
        <time>2024-05-20T07:20:35.000Z</time>
      </trkpt>
      <trkpt lat="46.67568" lon="4.70107">
        <ele>232.60000610352</ele>
        <time>2024-05-20T07:20:36.000Z</time>
      </trkpt>
      <trkpt lat="46.67563" lon="4.70107">
        <ele>232.80000305176</ele>
        <time>2024-05-20T07:20:37.000Z</time>
      </trkpt>
      <trkpt lat="46.67558" lon="4.70107">
        <ele>232.80000305176</ele>
        <time>2024-05-20T07:20:38.000Z</time>
      </trkpt>
      <trkpt lat="46.67553" lon="4.70106">
        <ele>232.80000305176</ele>
        <time>2024-05-20T07:20:39.000Z</time>
      </trkpt>
      <trkpt lat="46.67548" lon="4.70106">
        <ele>233</ele>
        <time>2024-05-20T07:20:40.000Z</time>
      </trkpt>
      <trkpt lat="46.67543" lon="4.70105">
        <ele>233</ele>
        <time>2024-05-20T07:20:41.000Z</time>
      </trkpt>
      <trkpt lat="46.67538" lon="4.70105">
        <ele>233.19999694824</ele>
        <time>2024-05-20T07:20:42.000Z</time>
      </trkpt>
      <trkpt lat="46.67533" lon="4.70105">
        <ele>233.19999694824</ele>
        <time>2024-05-20T07:20:43.000Z</time>
      </trkpt>
      <trkpt lat="46.67528" lon="4.70104">
        <ele>233.19999694824</ele>
        <time>2024-05-20T07:20:44.000Z</time>
      </trkpt>
      <trkpt lat="46.67523" lon="4.70104">
        <ele>233.19999694824</ele>
        <time>2024-05-20T07:20:45.000Z</time>
      </trkpt>
      <trkpt lat="46.67518" lon="4.70104">
        <ele>233.19999694824</ele>
        <time>2024-05-20T07:20:46.000Z</time>
      </trkpt>
      <trkpt lat="46.67513" lon="4.70104">
        <ele>233.19999694824</ele>
        <time>2024-05-20T07:20:47.000Z</time>
      </trkpt>
      <trkpt lat="46.67508" lon="4.70104">
        <ele>233.39999389648</ele>
        <time>2024-05-20T07:20:48.000Z</time>
      </trkpt>
      <trkpt lat="46.67503" lon="4.70104">
        <ele>233.60000610352</ele>
        <time>2024-05-20T07:20:49.000Z</time>
      </trkpt>
      <trkpt lat="46.67498" lon="4.70104">
        <ele>233.60000610352</ele>
        <time>2024-05-20T07:20:50.000Z</time>
      </trkpt>
      <trkpt lat="46.67493" lon="4.70105">
        <ele>233.60000610352</ele>
        <time>2024-05-20T07:20:51.000Z</time>
      </trkpt>
      <trkpt lat="46.67488" lon="4.70105">
        <ele>234</ele>
        <time>2024-05-20T07:20:52.000Z</time>
      </trkpt>
      <trkpt lat="46.67483" lon="4.70105">
        <ele>234</ele>
        <time>2024-05-20T07:20:53.000Z</time>
      </trkpt>
      <trkpt lat="46.67478" lon="4.70105">
        <ele>234</ele>
        <time>2024-05-20T07:20:54.000Z</time>
      </trkpt>
      <trkpt lat="46.67473" lon="4.70106">
        <ele>234</ele>
        <time>2024-05-20T07:20:55.000Z</time>
      </trkpt>
      <trkpt lat="46.67467" lon="4.70106">
        <ele>234.19999694824</ele>
        <time>2024-05-20T07:20:56.000Z</time>
      </trkpt>
      <trkpt lat="46.67462" lon="4.70107">
        <ele>234.39999389648</ele>
        <time>2024-05-20T07:20:57.000Z</time>
      </trkpt>
      <trkpt lat="46.67457" lon="4.70107">
        <ele>234.39999389648</ele>
        <time>2024-05-20T07:20:58.000Z</time>
      </trkpt>
      <trkpt lat="46.67452" lon="4.70107">
        <ele>234.39999389648</ele>
        <time>2024-05-20T07:20:59.000Z</time>
      </trkpt>
      <trkpt lat="46.67446" lon="4.70108">
        <ele>234.39999389648</ele>
        <time>2024-05-20T07:21:00.000Z</time>
      </trkpt>
      <trkpt lat="46.67441" lon="4.70108">
        <ele>234.60000610352</ele>
        <time>2024-05-20T07:21:01.000Z</time>
      </trkpt>
      <trkpt lat="46.67436" lon="4.70108">
        <ele>234.80000305176</ele>
        <time>2024-05-20T07:21:02.000Z</time>
      </trkpt>
      <trkpt lat="46.67431" lon="4.70109">
        <ele>235</ele>
        <time>2024-05-20T07:21:03.000Z</time>
      </trkpt>
      <trkpt lat="46.67426" lon="4.70109">
        <ele>235.19999694824</ele>
        <time>2024-05-20T07:21:04.000Z</time>
      </trkpt>
      <trkpt lat="46.67421" lon="4.7011">
        <ele>235.19999694824</ele>
        <time>2024-05-20T07:21:05.000Z</time>
      </trkpt>
      <trkpt lat="46.67416" lon="4.7011">
        <ele>235.39999389648</ele>
        <time>2024-05-20T07:21:06.000Z</time>
      </trkpt>
      <trkpt lat="46.67411" lon="4.70111">
        <ele>235.60000610352</ele>
        <time>2024-05-20T07:21:07.000Z</time>
      </trkpt>
      <trkpt lat="46.67405" lon="4.70111">
        <ele>235.80000305176</ele>
        <time>2024-05-20T07:21:08.000Z</time>
      </trkpt>
      <trkpt lat="46.674" lon="4.70112">
        <ele>236</ele>
        <time>2024-05-20T07:21:09.000Z</time>
      </trkpt>
      <trkpt lat="46.67395" lon="4.70112">
        <ele>236</ele>
        <time>2024-05-20T07:21:10.000Z</time>
      </trkpt>
      <trkpt lat="46.67389" lon="4.70113">
        <ele>236.19999694824</ele>
        <time>2024-05-20T07:21:11.000Z</time>
      </trkpt>
      <trkpt lat="46.67384" lon="4.70113">
        <ele>236.19999694824</ele>
        <time>2024-05-20T07:21:12.000Z</time>
      </trkpt>
      <trkpt lat="46.67378" lon="4.70113">
        <ele>236.39999389648</ele>
        <time>2024-05-20T07:21:13.000Z</time>
      </trkpt>
      <trkpt lat="46.67373" lon="4.70114">
        <ele>236.39999389648</ele>
        <time>2024-05-20T07:21:14.000Z</time>
      </trkpt>
      <trkpt lat="46.67367" lon="4.70115">
        <ele>236.39999389648</ele>
        <time>2024-05-20T07:21:15.000Z</time>
      </trkpt>
      <trkpt lat="46.67362" lon="4.70116">
        <ele>236.39999389648</ele>
        <time>2024-05-20T07:21:16.000Z</time>
      </trkpt>
      <trkpt lat="46.67356" lon="4.70116">
        <ele>236.60000610352</ele>
        <time>2024-05-20T07:21:17.000Z</time>
      </trkpt>
      <trkpt lat="46.6735" lon="4.70117">
        <ele>236.60000610352</ele>
        <time>2024-05-20T07:21:18.000Z</time>
      </trkpt>
      <trkpt lat="46.67345" lon="4.70118">
        <ele>236.60000610352</ele>
        <time>2024-05-20T07:21:19.000Z</time>
      </trkpt>
      <trkpt lat="46.67339" lon="4.70119">
        <ele>236.80000305176</ele>
        <time>2024-05-20T07:21:20.000Z</time>
      </trkpt>
      <trkpt lat="46.67334" lon="4.70119">
        <ele>236.80000305176</ele>
        <time>2024-05-20T07:21:21.000Z</time>
      </trkpt>
      <trkpt lat="46.67328" lon="4.7012">
        <ele>236.80000305176</ele>
        <time>2024-05-20T07:21:22.000Z</time>
      </trkpt>
      <trkpt lat="46.67322" lon="4.7012">
        <ele>236.80000305176</ele>
        <time>2024-05-20T07:21:23.000Z</time>
      </trkpt>
      <trkpt lat="46.67317" lon="4.7012">
        <ele>237</ele>
        <time>2024-05-20T07:21:24.000Z</time>
      </trkpt>
      <trkpt lat="46.67311" lon="4.70121">
        <ele>237</ele>
        <time>2024-05-20T07:21:25.000Z</time>
      </trkpt>
      <trkpt lat="46.67305" lon="4.70122">
        <ele>237</ele>
        <time>2024-05-20T07:21:26.000Z</time>
      </trkpt>
      <trkpt lat="46.673" lon="4.70123">
        <ele>237</ele>
        <time>2024-05-20T07:21:27.000Z</time>
      </trkpt>
      <trkpt lat="46.67294" lon="4.70123">
        <ele>237</ele>
        <time>2024-05-20T07:21:28.000Z</time>
      </trkpt>
      <trkpt lat="46.67288" lon="4.70122">
        <ele>237.19999694824</ele>
        <time>2024-05-20T07:21:29.000Z</time>
      </trkpt>
      <trkpt lat="46.67283" lon="4.70122">
        <ele>237.19999694824</ele>
        <time>2024-05-20T07:21:30.000Z</time>
      </trkpt>
      <trkpt lat="46.67277" lon="4.70122">
        <ele>237.19999694824</ele>
        <time>2024-05-20T07:21:31.000Z</time>
      </trkpt>
      <trkpt lat="46.67272" lon="4.70122">
        <ele>237.19999694824</ele>
        <time>2024-05-20T07:21:32.000Z</time>
      </trkpt>
      <trkpt lat="46.67266" lon="4.70122">
        <ele>237.19999694824</ele>
        <time>2024-05-20T07:21:33.000Z</time>
      </trkpt>
      <trkpt lat="46.67261" lon="4.70122">
        <ele>237.19999694824</ele>
        <time>2024-05-20T07:21:34.000Z</time>
      </trkpt>
      <trkpt lat="46.67255" lon="4.70123">
        <ele>237.39999389648</ele>
        <time>2024-05-20T07:21:35.000Z</time>
      </trkpt>
      <trkpt lat="46.67249" lon="4.70123">
        <ele>237.39999389648</ele>
        <time>2024-05-20T07:21:36.000Z</time>
      </trkpt>
      <trkpt lat="46.67243" lon="4.70124">
        <ele>237.39999389648</ele>
        <time>2024-05-20T07:21:37.000Z</time>
      </trkpt>
      <trkpt lat="46.67237" lon="4.70124">
        <ele>237.39999389648</ele>
        <time>2024-05-20T07:21:38.000Z</time>
      </trkpt>
      <trkpt lat="46.67231" lon="4.70124">
        <ele>237.60000610352</ele>
        <time>2024-05-20T07:21:39.000Z</time>
      </trkpt>
      <trkpt lat="46.67225" lon="4.70125">
        <ele>237.60000610352</ele>
        <time>2024-05-20T07:21:40.000Z</time>
      </trkpt>
      <trkpt lat="46.67219" lon="4.70125">
        <ele>237.60000610352</ele>
        <time>2024-05-20T07:21:41.000Z</time>
      </trkpt>
      <trkpt lat="46.67213" lon="4.70126">
        <ele>237.60000610352</ele>
        <time>2024-05-20T07:21:42.000Z</time>
      </trkpt>
      <trkpt lat="46.67207" lon="4.70127">
        <ele>237.60000610352</ele>
        <time>2024-05-20T07:21:43.000Z</time>
      </trkpt>
      <trkpt lat="46.67201" lon="4.70127">
        <ele>237.60000610352</ele>
        <time>2024-05-20T07:21:44.000Z</time>
      </trkpt>
      <trkpt lat="46.67194" lon="4.70128">
        <ele>237.60000610352</ele>
        <time>2024-05-20T07:21:45.000Z</time>
      </trkpt>
      <trkpt lat="46.67187" lon="4.70128">
        <ele>237.60000610352</ele>
        <time>2024-05-20T07:21:46.000Z</time>
      </trkpt>
      <trkpt lat="46.67181" lon="4.70128">
        <ele>237.60000610352</ele>
        <time>2024-05-20T07:21:47.000Z</time>
      </trkpt>
      <trkpt lat="46.67176" lon="4.70129">
        <ele>237.60000610352</ele>
        <time>2024-05-20T07:21:48.000Z</time>
      </trkpt>
      <trkpt lat="46.6717" lon="4.70129">
        <ele>237.60000610352</ele>
        <time>2024-05-20T07:21:49.000Z</time>
      </trkpt>
      <trkpt lat="46.67164" lon="4.70129">
        <ele>237.60000610352</ele>
        <time>2024-05-20T07:21:50.000Z</time>
      </trkpt>
      <trkpt lat="46.67157" lon="4.70128">
        <ele>237.80000305176</ele>
        <time>2024-05-20T07:21:51.000Z</time>
      </trkpt>
      <trkpt lat="46.67151" lon="4.70127">
        <ele>237.80000305176</ele>
        <time>2024-05-20T07:21:52.000Z</time>
      </trkpt>
      <trkpt lat="46.67146" lon="4.70127">
        <ele>237.80000305176</ele>
        <time>2024-05-20T07:21:53.000Z</time>
      </trkpt>
      <trkpt lat="46.67139" lon="4.70126">
        <ele>238</ele>
        <time>2024-05-20T07:21:54.000Z</time>
      </trkpt>
      <trkpt lat="46.67133" lon="4.70126">
        <ele>238</ele>
        <time>2024-05-20T07:21:55.000Z</time>
      </trkpt>
      <trkpt lat="46.67127" lon="4.70125">
        <ele>238</ele>
        <time>2024-05-20T07:21:56.000Z</time>
      </trkpt>
      <trkpt lat="46.67121" lon="4.70124">
        <ele>238.19999694824</ele>
        <time>2024-05-20T07:21:57.000Z</time>
      </trkpt>
      <trkpt lat="46.67115" lon="4.70124">
        <ele>238.19999694824</ele>
        <time>2024-05-20T07:21:58.000Z</time>
      </trkpt>
      <trkpt lat="46.67108" lon="4.70123">
        <ele>238.19999694824</ele>
        <time>2024-05-20T07:21:59.000Z</time>
      </trkpt>
      <trkpt lat="46.67102" lon="4.70122">
        <ele>238.19999694824</ele>
        <time>2024-05-20T07:22:00.000Z</time>
      </trkpt>
      <trkpt lat="46.67096" lon="4.7012">
        <ele>238.39999389648</ele>
        <time>2024-05-20T07:22:01.000Z</time>
      </trkpt>
      <trkpt lat="46.6709" lon="4.70119">
        <ele>238.39999389648</ele>
        <time>2024-05-20T07:22:02.000Z</time>
      </trkpt>
      <trkpt lat="46.67084" lon="4.70117">
        <ele>238.39999389648</ele>
        <time>2024-05-20T07:22:03.000Z</time>
      </trkpt>
      <trkpt lat="46.67078" lon="4.70116">
        <ele>238.60000610352</ele>
        <time>2024-05-20T07:22:04.000Z</time>
      </trkpt>
      <trkpt lat="46.67072" lon="4.70114">
        <ele>238.60000610352</ele>
        <time>2024-05-20T07:22:05.000Z</time>
      </trkpt>
      <trkpt lat="46.67066" lon="4.70112">
        <ele>238.60000610352</ele>
        <time>2024-05-20T07:22:06.000Z</time>
      </trkpt>
      <trkpt lat="46.6706" lon="4.70109">
        <ele>238.60000610352</ele>
        <time>2024-05-20T07:22:07.000Z</time>
      </trkpt>
      <trkpt lat="46.67054" lon="4.70107">
        <ele>238.60000610352</ele>
        <time>2024-05-20T07:22:08.000Z</time>
      </trkpt>
      <trkpt lat="46.67048" lon="4.70104">
        <ele>238.60000610352</ele>
        <time>2024-05-20T07:22:09.000Z</time>
      </trkpt>
      <trkpt lat="46.67042" lon="4.70101">
        <ele>238.60000610352</ele>
        <time>2024-05-20T07:22:10.000Z</time>
      </trkpt>
      <trkpt lat="46.67035" lon="4.70099">
        <ele>238.60000610352</ele>
        <time>2024-05-20T07:22:11.000Z</time>
      </trkpt>
      <trkpt lat="46.67029" lon="4.70096">
        <ele>238.60000610352</ele>
        <time>2024-05-20T07:22:12.000Z</time>
      </trkpt>
      <trkpt lat="46.67023" lon="4.70093">
        <ele>238.60000610352</ele>
        <time>2024-05-20T07:22:13.000Z</time>
      </trkpt>
      <trkpt lat="46.67017" lon="4.70089">
        <ele>238.60000610352</ele>
        <time>2024-05-20T07:22:14.000Z</time>
      </trkpt>
      <trkpt lat="46.67011" lon="4.70086">
        <ele>238.80000305176</ele>
        <time>2024-05-20T07:22:15.000Z</time>
      </trkpt>
      <trkpt lat="46.67005" lon="4.70083">
        <ele>238.60000610352</ele>
        <time>2024-05-20T07:22:16.000Z</time>
      </trkpt>
      <trkpt lat="46.66999" lon="4.70079">
        <ele>238.60000610352</ele>
        <time>2024-05-20T07:22:17.000Z</time>
      </trkpt>
      <trkpt lat="46.66993" lon="4.70076">
        <ele>238.60000610352</ele>
        <time>2024-05-20T07:22:18.000Z</time>
      </trkpt>
      <trkpt lat="46.66987" lon="4.70072">
        <ele>238.60000610352</ele>
        <time>2024-05-20T07:22:19.000Z</time>
      </trkpt>
      <trkpt lat="46.66981" lon="4.70068">
        <ele>238.39999389648</ele>
        <time>2024-05-20T07:22:20.000Z</time>
      </trkpt>
      <trkpt lat="46.66975" lon="4.70063">
        <ele>238.39999389648</ele>
        <time>2024-05-20T07:22:21.000Z</time>
      </trkpt>
      <trkpt lat="46.66969" lon="4.70059">
        <ele>238.39999389648</ele>
        <time>2024-05-20T07:22:22.000Z</time>
      </trkpt>
      <trkpt lat="46.66963" lon="4.70055">
        <ele>238.19999694824</ele>
        <time>2024-05-20T07:22:23.000Z</time>
      </trkpt>
      <trkpt lat="46.66957" lon="4.7005">
        <ele>238.19999694824</ele>
        <time>2024-05-20T07:22:24.000Z</time>
      </trkpt>
      <trkpt lat="46.66951" lon="4.70045">
        <ele>238</ele>
        <time>2024-05-20T07:22:25.000Z</time>
      </trkpt>
      <trkpt lat="46.66945" lon="4.70041">
        <ele>237.80000305176</ele>
        <time>2024-05-20T07:22:26.000Z</time>
      </trkpt>
      <trkpt lat="46.66939" lon="4.70037">
        <ele>237.60000610352</ele>
        <time>2024-05-20T07:22:27.000Z</time>
      </trkpt>
      <trkpt lat="46.66933" lon="4.70032">
        <ele>237.60000610352</ele>
        <time>2024-05-20T07:22:28.000Z</time>
      </trkpt>
      <trkpt lat="46.66927" lon="4.70027">
        <ele>237.39999389648</ele>
        <time>2024-05-20T07:22:29.000Z</time>
      </trkpt>
      <trkpt lat="46.6692" lon="4.70022">
        <ele>237.39999389648</ele>
        <time>2024-05-20T07:22:30.000Z</time>
      </trkpt>
      <trkpt lat="46.66914" lon="4.70018">
        <ele>237.19999694824</ele>
        <time>2024-05-20T07:22:31.000Z</time>
      </trkpt>
      <trkpt lat="46.66907" lon="4.70013">
        <ele>237</ele>
        <time>2024-05-20T07:22:32.000Z</time>
      </trkpt>
      <trkpt lat="46.66901" lon="4.70009">
        <ele>236.80000305176</ele>
        <time>2024-05-20T07:22:33.000Z</time>
      </trkpt>
      <trkpt lat="46.66894" lon="4.70004">
        <ele>236.80000305176</ele>
        <time>2024-05-20T07:22:34.000Z</time>
      </trkpt>
      <trkpt lat="46.66888" lon="4.69999">
        <ele>236.60000610352</ele>
        <time>2024-05-20T07:22:35.000Z</time>
      </trkpt>
      <trkpt lat="46.66882" lon="4.69994">
        <ele>236.39999389648</ele>
        <time>2024-05-20T07:22:36.000Z</time>
      </trkpt>
      <trkpt lat="46.66876" lon="4.6999">
        <ele>236.19999694824</ele>
        <time>2024-05-20T07:22:37.000Z</time>
      </trkpt>
      <trkpt lat="46.6687" lon="4.69985">
        <ele>235.80000305176</ele>
        <time>2024-05-20T07:22:38.000Z</time>
      </trkpt>
      <trkpt lat="46.66864" lon="4.69981">
        <ele>235.80000305176</ele>
        <time>2024-05-20T07:22:39.000Z</time>
      </trkpt>
      <trkpt lat="46.66858" lon="4.69977">
        <ele>235.60000610352</ele>
        <time>2024-05-20T07:22:40.000Z</time>
      </trkpt>
      <trkpt lat="46.66852" lon="4.69973">
        <ele>235.60000610352</ele>
        <time>2024-05-20T07:22:41.000Z</time>
      </trkpt>
      <trkpt lat="46.66847" lon="4.6997">
        <ele>235.60000610352</ele>
        <time>2024-05-20T07:22:42.000Z</time>
      </trkpt>
      <trkpt lat="46.66842" lon="4.69967">
        <ele>235.80000305176</ele>
        <time>2024-05-20T07:22:43.000Z</time>
      </trkpt>
      <trkpt lat="46.66838" lon="4.69964">
        <ele>235.80000305176</ele>
        <time>2024-05-20T07:22:44.000Z</time>
      </trkpt>
      <trkpt lat="46.66834" lon="4.69961">
        <ele>235.80000305176</ele>
        <time>2024-05-20T07:22:45.000Z</time>
      </trkpt>
      <trkpt lat="46.66831" lon="4.69958">
        <ele>235.80000305176</ele>
        <time>2024-05-20T07:22:46.000Z</time>
      </trkpt>
      <trkpt lat="46.66829" lon="4.69956">
        <ele>235.80000305176</ele>
        <time>2024-05-20T07:22:47.000Z</time>
      </trkpt>
      <trkpt lat="46.66826" lon="4.69954">
        <ele>236</ele>
        <time>2024-05-20T07:22:48.000Z</time>
      </trkpt>
      <trkpt lat="46.66823" lon="4.69953">
        <ele>236</ele>
        <time>2024-05-20T07:22:49.000Z</time>
      </trkpt>
      <trkpt lat="46.6682" lon="4.69951">
        <ele>236</ele>
        <time>2024-05-20T07:22:50.000Z</time>
      </trkpt>
      <trkpt lat="46.66816" lon="4.69948">
        <ele>236</ele>
        <time>2024-05-20T07:22:51.000Z</time>
      </trkpt>
      <trkpt lat="46.66813" lon="4.69945">
        <ele>235.80000305176</ele>
        <time>2024-05-20T07:22:52.000Z</time>
      </trkpt>
      <trkpt lat="46.66809" lon="4.69941">
        <ele>235.80000305176</ele>
        <time>2024-05-20T07:22:53.000Z</time>
      </trkpt>
      <trkpt lat="46.66805" lon="4.69938">
        <ele>235.80000305176</ele>
        <time>2024-05-20T07:22:54.000Z</time>
      </trkpt>
      <trkpt lat="46.668" lon="4.69934">
        <ele>235.60000610352</ele>
        <time>2024-05-20T07:22:55.000Z</time>
      </trkpt>
      <trkpt lat="46.66795" lon="4.6993">
        <ele>235.39999389648</ele>
        <time>2024-05-20T07:22:56.000Z</time>
      </trkpt>
      <trkpt lat="46.6679" lon="4.69926">
        <ele>235.19999694824</ele>
        <time>2024-05-20T07:22:57.000Z</time>
      </trkpt>
      <trkpt lat="46.66784" lon="4.69922">
        <ele>235.19999694824</ele>
        <time>2024-05-20T07:22:58.000Z</time>
      </trkpt>
      <trkpt lat="46.66779" lon="4.69918">
        <ele>235</ele>
        <time>2024-05-20T07:22:59.000Z</time>
      </trkpt>
      <trkpt lat="46.66773" lon="4.69914">
        <ele>235</ele>
        <time>2024-05-20T07:23:00.000Z</time>
      </trkpt>
      <trkpt lat="46.66767" lon="4.6991">
        <ele>234.80000305176</ele>
        <time>2024-05-20T07:23:01.000Z</time>
      </trkpt>
      <trkpt lat="46.66762" lon="4.69905">
        <ele>234.60000610352</ele>
        <time>2024-05-20T07:23:02.000Z</time>
      </trkpt>
      <trkpt lat="46.66756" lon="4.699">
        <ele>234.39999389648</ele>
        <time>2024-05-20T07:23:03.000Z</time>
      </trkpt>
      <trkpt lat="46.6675" lon="4.69896">
        <ele>234.39999389648</ele>
        <time>2024-05-20T07:23:04.000Z</time>
      </trkpt>
      <trkpt lat="46.66744" lon="4.69892">
        <ele>234</ele>
        <time>2024-05-20T07:23:05.000Z</time>
      </trkpt>
      <trkpt lat="46.66738" lon="4.69888">
        <ele>234</ele>
        <time>2024-05-20T07:23:06.000Z</time>
      </trkpt>
      <trkpt lat="46.66732" lon="4.69883">
        <ele>233.60000610352</ele>
        <time>2024-05-20T07:23:07.000Z</time>
      </trkpt>
      <trkpt lat="46.66726" lon="4.69878">
        <ele>233.60000610352</ele>
        <time>2024-05-20T07:23:08.000Z</time>
      </trkpt>
      <trkpt lat="46.6672" lon="4.69874">
        <ele>233.60000610352</ele>
        <time>2024-05-20T07:23:09.000Z</time>
      </trkpt>
      <trkpt lat="46.66714" lon="4.69869">
        <ele>233.60000610352</ele>
        <time>2024-05-20T07:23:10.000Z</time>
      </trkpt>
      <trkpt lat="46.66707" lon="4.69864">
        <ele>233.19999694824</ele>
        <time>2024-05-20T07:23:11.000Z</time>
      </trkpt>
      <trkpt lat="46.66701" lon="4.69859">
        <ele>233</ele>
        <time>2024-05-20T07:23:12.000Z</time>
      </trkpt>
      <trkpt lat="46.66695" lon="4.69854">
        <ele>232.80000305176</ele>
        <time>2024-05-20T07:23:13.000Z</time>
      </trkpt>
      <trkpt lat="46.66688" lon="4.69849">
        <ele>232.60000610352</ele>
        <time>2024-05-20T07:23:14.000Z</time>
      </trkpt>
      <trkpt lat="46.66683" lon="4.69845">
        <ele>232.39999389648</ele>
        <time>2024-05-20T07:23:15.000Z</time>
      </trkpt>
      <trkpt lat="46.66676" lon="4.6984">
        <ele>232.19999694824</ele>
        <time>2024-05-20T07:23:16.000Z</time>
      </trkpt>
      <trkpt lat="46.6667" lon="4.69835">
        <ele>232.19999694824</ele>
        <time>2024-05-20T07:23:17.000Z</time>
      </trkpt>
      <trkpt lat="46.66663" lon="4.6983">
        <ele>232</ele>
        <time>2024-05-20T07:23:18.000Z</time>
      </trkpt>
      <trkpt lat="46.66656" lon="4.69825">
        <ele>232</ele>
        <time>2024-05-20T07:23:19.000Z</time>
      </trkpt>
      <trkpt lat="46.66649" lon="4.6982">
        <ele>231.80000305176</ele>
        <time>2024-05-20T07:23:20.000Z</time>
      </trkpt>
      <trkpt lat="46.66643" lon="4.69815">
        <ele>231.60000610352</ele>
        <time>2024-05-20T07:23:21.000Z</time>
      </trkpt>
      <trkpt lat="46.66636" lon="4.6981">
        <ele>231.39999389648</ele>
        <time>2024-05-20T07:23:22.000Z</time>
      </trkpt>
      <trkpt lat="46.66629" lon="4.69805">
        <ele>231.39999389648</ele>
        <time>2024-05-20T07:23:23.000Z</time>
      </trkpt>
      <trkpt lat="46.66622" lon="4.698">
        <ele>231.39999389648</ele>
        <time>2024-05-20T07:23:24.000Z</time>
      </trkpt>
      <trkpt lat="46.66616" lon="4.69795">
        <ele>231</ele>
        <time>2024-05-20T07:23:25.000Z</time>
      </trkpt>
      <trkpt lat="46.66609" lon="4.6979">
        <ele>231</ele>
        <time>2024-05-20T07:23:26.000Z</time>
      </trkpt>
      <trkpt lat="46.66602" lon="4.69785">
        <ele>231</ele>
        <time>2024-05-20T07:23:27.000Z</time>
      </trkpt>
      <trkpt lat="46.66595" lon="4.6978">
        <ele>230.80000305176</ele>
        <time>2024-05-20T07:23:28.000Z</time>
      </trkpt>
      <trkpt lat="46.66589" lon="4.69774">
        <ele>230.80000305176</ele>
        <time>2024-05-20T07:23:29.000Z</time>
      </trkpt>
      <trkpt lat="46.66582" lon="4.69769">
        <ele>230.80000305176</ele>
        <time>2024-05-20T07:23:30.000Z</time>
      </trkpt>
      <trkpt lat="46.66575" lon="4.69764">
        <ele>230.60000610352</ele>
        <time>2024-05-20T07:23:31.000Z</time>
      </trkpt>
      <trkpt lat="46.66569" lon="4.69759">
        <ele>230.60000610352</ele>
        <time>2024-05-20T07:23:32.000Z</time>
      </trkpt>
      <trkpt lat="46.66562" lon="4.69754">
        <ele>230.39999389648</ele>
        <time>2024-05-20T07:23:33.000Z</time>
      </trkpt>
      <trkpt lat="46.66555" lon="4.69749">
        <ele>230.39999389648</ele>
        <time>2024-05-20T07:23:34.000Z</time>
      </trkpt>
      <trkpt lat="46.66549" lon="4.69744">
        <ele>230.19999694824</ele>
        <time>2024-05-20T07:23:35.000Z</time>
      </trkpt>
      <trkpt lat="46.66542" lon="4.6974">
        <ele>230.19999694824</ele>
        <time>2024-05-20T07:23:36.000Z</time>
      </trkpt>
      <trkpt lat="46.66536" lon="4.69735">
        <ele>230.19999694824</ele>
        <time>2024-05-20T07:23:37.000Z</time>
      </trkpt>
      <trkpt lat="46.66529" lon="4.6973">
        <ele>230.19999694824</ele>
        <time>2024-05-20T07:23:38.000Z</time>
      </trkpt>
      <trkpt lat="46.66523" lon="4.69725">
        <ele>230.19999694824</ele>
        <time>2024-05-20T07:23:39.000Z</time>
      </trkpt>
      <trkpt lat="46.66517" lon="4.6972">
        <ele>230.19999694824</ele>
        <time>2024-05-20T07:23:40.000Z</time>
      </trkpt>
      <trkpt lat="46.66511" lon="4.69715">
        <ele>230.39999389648</ele>
        <time>2024-05-20T07:23:41.000Z</time>
      </trkpt>
      <trkpt lat="46.66504" lon="4.69711">
        <ele>230.39999389648</ele>
        <time>2024-05-20T07:23:42.000Z</time>
      </trkpt>
      <trkpt lat="46.66498" lon="4.69706">
        <ele>230.39999389648</ele>
        <time>2024-05-20T07:23:43.000Z</time>
      </trkpt>
      <trkpt lat="46.66492" lon="4.69702">
        <ele>230.60000610352</ele>
        <time>2024-05-20T07:23:44.000Z</time>
      </trkpt>
      <trkpt lat="46.66487" lon="4.69697">
        <ele>230.60000610352</ele>
        <time>2024-05-20T07:23:45.000Z</time>
      </trkpt>
      <trkpt lat="46.66481" lon="4.69693">
        <ele>230.80000305176</ele>
        <time>2024-05-20T07:23:46.000Z</time>
      </trkpt>
      <trkpt lat="46.66475" lon="4.69688">
        <ele>231.19999694824</ele>
        <time>2024-05-20T07:23:47.000Z</time>
      </trkpt>
      <trkpt lat="46.66469" lon="4.69684">
        <ele>231.39999389648</ele>
        <time>2024-05-20T07:23:48.000Z</time>
      </trkpt>
      <trkpt lat="46.66463" lon="4.6968">
        <ele>231.60000610352</ele>
        <time>2024-05-20T07:23:49.000Z</time>
      </trkpt>
      <trkpt lat="46.66457" lon="4.69676">
        <ele>231.60000610352</ele>
        <time>2024-05-20T07:23:50.000Z</time>
      </trkpt>
      <trkpt lat="46.66451" lon="4.69671">
        <ele>231.60000610352</ele>
        <time>2024-05-20T07:23:51.000Z</time>
      </trkpt>
      <trkpt lat="46.66445" lon="4.69666">
        <ele>231.60000610352</ele>
        <time>2024-05-20T07:23:52.000Z</time>
      </trkpt>
      <trkpt lat="46.66439" lon="4.69661">
        <ele>231.60000610352</ele>
        <time>2024-05-20T07:23:53.000Z</time>
      </trkpt>
      <trkpt lat="46.66433" lon="4.69657">
        <ele>231.60000610352</ele>
        <time>2024-05-20T07:23:54.000Z</time>
      </trkpt>
      <trkpt lat="46.66427" lon="4.69652">
        <ele>231.60000610352</ele>
        <time>2024-05-20T07:23:55.000Z</time>
      </trkpt>
      <trkpt lat="46.66421" lon="4.69648">
        <ele>231.60000610352</ele>
        <time>2024-05-20T07:23:56.000Z</time>
      </trkpt>
      <trkpt lat="46.66416" lon="4.69644">
        <ele>231.60000610352</ele>
        <time>2024-05-20T07:23:57.000Z</time>
      </trkpt>
      <trkpt lat="46.6641" lon="4.6964">
        <ele>231.60000610352</ele>
        <time>2024-05-20T07:23:58.000Z</time>
      </trkpt>
      <trkpt lat="46.66404" lon="4.69635">
        <ele>231.60000610352</ele>
        <time>2024-05-20T07:23:59.000Z</time>
      </trkpt>
      <trkpt lat="46.66398" lon="4.6963">
        <ele>231.60000610352</ele>
        <time>2024-05-20T07:24:00.000Z</time>
      </trkpt>
      <trkpt lat="46.66392" lon="4.69625">
        <ele>231.60000610352</ele>
        <time>2024-05-20T07:24:01.000Z</time>
      </trkpt>
      <trkpt lat="46.66386" lon="4.69621">
        <ele>231.60000610352</ele>
        <time>2024-05-20T07:24:02.000Z</time>
      </trkpt>
      <trkpt lat="46.6638" lon="4.69617">
        <ele>231.80000305176</ele>
        <time>2024-05-20T07:24:03.000Z</time>
      </trkpt>
      <trkpt lat="46.66374" lon="4.69613">
        <ele>231.80000305176</ele>
        <time>2024-05-20T07:24:04.000Z</time>
      </trkpt>
      <trkpt lat="46.66368" lon="4.69609">
        <ele>231.80000305176</ele>
        <time>2024-05-20T07:24:05.000Z</time>
      </trkpt>
      <trkpt lat="46.66363" lon="4.69604">
        <ele>231.80000305176</ele>
        <time>2024-05-20T07:24:06.000Z</time>
      </trkpt>
      <trkpt lat="46.66357" lon="4.696">
        <ele>231.80000305176</ele>
        <time>2024-05-20T07:24:07.000Z</time>
      </trkpt>
      <trkpt lat="46.66351" lon="4.69595">
        <ele>231.80000305176</ele>
        <time>2024-05-20T07:24:08.000Z</time>
      </trkpt>
      <trkpt lat="46.66346" lon="4.69591">
        <ele>231.80000305176</ele>
        <time>2024-05-20T07:24:09.000Z</time>
      </trkpt>
      <trkpt lat="46.6634" lon="4.69586">
        <ele>231.80000305176</ele>
        <time>2024-05-20T07:24:10.000Z</time>
      </trkpt>
      <trkpt lat="46.66334" lon="4.69582">
        <ele>231.80000305176</ele>
        <time>2024-05-20T07:24:11.000Z</time>
      </trkpt>
      <trkpt lat="46.66329" lon="4.69578">
        <ele>231.80000305176</ele>
        <time>2024-05-20T07:24:12.000Z</time>
      </trkpt>
      <trkpt lat="46.66323" lon="4.69573">
        <ele>231.80000305176</ele>
        <time>2024-05-20T07:24:13.000Z</time>
      </trkpt>
      <trkpt lat="46.66318" lon="4.69569">
        <ele>231.80000305176</ele>
        <time>2024-05-20T07:24:14.000Z</time>
      </trkpt>
      <trkpt lat="46.66312" lon="4.69565">
        <ele>232</ele>
        <time>2024-05-20T07:24:15.000Z</time>
      </trkpt>
      <trkpt lat="46.66306" lon="4.69561">
        <ele>232</ele>
        <time>2024-05-20T07:24:16.000Z</time>
      </trkpt>
      <trkpt lat="46.663" lon="4.69556">
        <ele>232</ele>
        <time>2024-05-20T07:24:17.000Z</time>
      </trkpt>
      <trkpt lat="46.66294" lon="4.69552">
        <ele>232</ele>
        <time>2024-05-20T07:24:18.000Z</time>
      </trkpt>
      <trkpt lat="46.66288" lon="4.69548">
        <ele>232</ele>
        <time>2024-05-20T07:24:19.000Z</time>
      </trkpt>
      <trkpt lat="46.66283" lon="4.69543">
        <ele>232</ele>
        <time>2024-05-20T07:24:20.000Z</time>
      </trkpt>
      <trkpt lat="46.66277" lon="4.69539">
        <ele>231.80000305176</ele>
        <time>2024-05-20T07:24:21.000Z</time>
      </trkpt>
      <trkpt lat="46.66271" lon="4.69535">
        <ele>231.80000305176</ele>
        <time>2024-05-20T07:24:22.000Z</time>
      </trkpt>
      <trkpt lat="46.66265" lon="4.6953">
        <ele>231.80000305176</ele>
        <time>2024-05-20T07:24:23.000Z</time>
      </trkpt>
      <trkpt lat="46.66259" lon="4.69526">
        <ele>231.80000305176</ele>
        <time>2024-05-20T07:24:24.000Z</time>
      </trkpt>
      <trkpt lat="46.66253" lon="4.69522">
        <ele>231.80000305176</ele>
        <time>2024-05-20T07:24:25.000Z</time>
      </trkpt>
      <trkpt lat="46.66247" lon="4.69518">
        <ele>231.60000610352</ele>
        <time>2024-05-20T07:24:26.000Z</time>
      </trkpt>
      <trkpt lat="46.6624" lon="4.69513">
        <ele>231.60000610352</ele>
        <time>2024-05-20T07:24:27.000Z</time>
      </trkpt>
      <trkpt lat="46.66233" lon="4.69509">
        <ele>231.60000610352</ele>
        <time>2024-05-20T07:24:28.000Z</time>
      </trkpt>
      <trkpt lat="46.66227" lon="4.69505">
        <ele>231.60000610352</ele>
        <time>2024-05-20T07:24:29.000Z</time>
      </trkpt>
      <trkpt lat="46.66221" lon="4.69501">
        <ele>231.60000610352</ele>
        <time>2024-05-20T07:24:30.000Z</time>
      </trkpt>
      <trkpt lat="46.66214" lon="4.69497">
        <ele>231.39999389648</ele>
        <time>2024-05-20T07:24:31.000Z</time>
      </trkpt>
      <trkpt lat="46.66208" lon="4.69493">
        <ele>231.39999389648</ele>
        <time>2024-05-20T07:24:32.000Z</time>
      </trkpt>
      <trkpt lat="46.66202" lon="4.69489">
        <ele>231.19999694824</ele>
        <time>2024-05-20T07:24:33.000Z</time>
      </trkpt>
      <trkpt lat="46.66195" lon="4.69485">
        <ele>231.19999694824</ele>
        <time>2024-05-20T07:24:34.000Z</time>
      </trkpt>
      <trkpt lat="46.66189" lon="4.69482">
        <ele>231</ele>
        <time>2024-05-20T07:24:35.000Z</time>
      </trkpt>
      <trkpt lat="46.66183" lon="4.69478">
        <ele>231</ele>
        <time>2024-05-20T07:24:36.000Z</time>
      </trkpt>
      <trkpt lat="46.66177" lon="4.69474">
        <ele>231</ele>
        <time>2024-05-20T07:24:37.000Z</time>
      </trkpt>
      <trkpt lat="46.66171" lon="4.6947">
        <ele>231</ele>
        <time>2024-05-20T07:24:38.000Z</time>
      </trkpt>
      <trkpt lat="46.66165" lon="4.69467">
        <ele>231</ele>
        <time>2024-05-20T07:24:39.000Z</time>
      </trkpt>
      <trkpt lat="46.66159" lon="4.69463">
        <ele>231</ele>
        <time>2024-05-20T07:24:40.000Z</time>
      </trkpt>
      <trkpt lat="46.66153" lon="4.69459">
        <ele>231</ele>
        <time>2024-05-20T07:24:41.000Z</time>
      </trkpt>
      <trkpt lat="46.66147" lon="4.69455">
        <ele>231</ele>
        <time>2024-05-20T07:24:42.000Z</time>
      </trkpt>
      <trkpt lat="46.66141" lon="4.69452">
        <ele>231</ele>
        <time>2024-05-20T07:24:43.000Z</time>
      </trkpt>
      <trkpt lat="46.66135" lon="4.69448">
        <ele>231</ele>
        <time>2024-05-20T07:24:44.000Z</time>
      </trkpt>
      <trkpt lat="46.66129" lon="4.69445">
        <ele>231</ele>
        <time>2024-05-20T07:24:45.000Z</time>
      </trkpt>
      <trkpt lat="46.66123" lon="4.69442">
        <ele>230.80000305176</ele>
        <time>2024-05-20T07:24:46.000Z</time>
      </trkpt>
      <trkpt lat="46.66117" lon="4.69438">
        <ele>230.80000305176</ele>
        <time>2024-05-20T07:24:47.000Z</time>
      </trkpt>
      <trkpt lat="46.66111" lon="4.69435">
        <ele>230.80000305176</ele>
        <time>2024-05-20T07:24:48.000Z</time>
      </trkpt>
      <trkpt lat="46.66106" lon="4.69432">
        <ele>230.80000305176</ele>
        <time>2024-05-20T07:24:49.000Z</time>
      </trkpt>
      <trkpt lat="46.661" lon="4.69428">
        <ele>230.80000305176</ele>
        <time>2024-05-20T07:24:50.000Z</time>
      </trkpt>
      <trkpt lat="46.66095" lon="4.69425">
        <ele>230.80000305176</ele>
        <time>2024-05-20T07:24:51.000Z</time>
      </trkpt>
      <trkpt lat="46.66089" lon="4.69422">
        <ele>230.80000305176</ele>
        <time>2024-05-20T07:24:52.000Z</time>
      </trkpt>
      <trkpt lat="46.66083" lon="4.69418">
        <ele>230.80000305176</ele>
        <time>2024-05-20T07:24:53.000Z</time>
      </trkpt>
      <trkpt lat="46.66078" lon="4.69415">
        <ele>230.80000305176</ele>
        <time>2024-05-20T07:24:54.000Z</time>
      </trkpt>
      <trkpt lat="46.66072" lon="4.69411">
        <ele>230.80000305176</ele>
        <time>2024-05-20T07:24:55.000Z</time>
      </trkpt>
      <trkpt lat="46.66066" lon="4.69408">
        <ele>231</ele>
        <time>2024-05-20T07:24:56.000Z</time>
      </trkpt>
      <trkpt lat="46.6606" lon="4.69404">
        <ele>231</ele>
        <time>2024-05-20T07:24:57.000Z</time>
      </trkpt>
      <trkpt lat="46.66055" lon="4.69401">
        <ele>231.19999694824</ele>
        <time>2024-05-20T07:24:58.000Z</time>
      </trkpt>
      <trkpt lat="46.66049" lon="4.69397">
        <ele>231.19999694824</ele>
        <time>2024-05-20T07:24:59.000Z</time>
      </trkpt>
      <trkpt lat="46.66043" lon="4.69394">
        <ele>231.19999694824</ele>
        <time>2024-05-20T07:25:00.000Z</time>
      </trkpt>
      <trkpt lat="46.66037" lon="4.6939">
        <ele>231.19999694824</ele>
        <time>2024-05-20T07:25:01.000Z</time>
      </trkpt>
      <trkpt lat="46.66031" lon="4.69387">
        <ele>231.39999389648</ele>
        <time>2024-05-20T07:25:02.000Z</time>
      </trkpt>
      <trkpt lat="46.66026" lon="4.69383">
        <ele>231.39999389648</ele>
        <time>2024-05-20T07:25:03.000Z</time>
      </trkpt>
      <trkpt lat="46.6602" lon="4.6938">
        <ele>231.39999389648</ele>
        <time>2024-05-20T07:25:04.000Z</time>
      </trkpt>
      <trkpt lat="46.66014" lon="4.69376">
        <ele>231.39999389648</ele>
        <time>2024-05-20T07:25:05.000Z</time>
      </trkpt>
      <trkpt lat="46.66008" lon="4.69372">
        <ele>231.39999389648</ele>
        <time>2024-05-20T07:25:06.000Z</time>
      </trkpt>
      <trkpt lat="46.66002" lon="4.69369">
        <ele>231.39999389648</ele>
        <time>2024-05-20T07:25:07.000Z</time>
      </trkpt>
      <trkpt lat="46.65996" lon="4.69365">
        <ele>231.39999389648</ele>
        <time>2024-05-20T07:25:08.000Z</time>
      </trkpt>
      <trkpt lat="46.6599" lon="4.69362">
        <ele>231.39999389648</ele>
        <time>2024-05-20T07:25:09.000Z</time>
      </trkpt>
      <trkpt lat="46.65984" lon="4.69358">
        <ele>231.39999389648</ele>
        <time>2024-05-20T07:25:10.000Z</time>
      </trkpt>
      <trkpt lat="46.65978" lon="4.69355">
        <ele>231.39999389648</ele>
        <time>2024-05-20T07:25:11.000Z</time>
      </trkpt>
      <trkpt lat="46.65972" lon="4.69351">
        <ele>231.19999694824</ele>
        <time>2024-05-20T07:25:12.000Z</time>
      </trkpt>
      <trkpt lat="46.65966" lon="4.69347">
        <ele>231.19999694824</ele>
        <time>2024-05-20T07:25:13.000Z</time>
      </trkpt>
      <trkpt lat="46.6596" lon="4.69343">
        <ele>231.19999694824</ele>
        <time>2024-05-20T07:25:14.000Z</time>
      </trkpt>
      <trkpt lat="46.65954" lon="4.6934">
        <ele>231.19999694824</ele>
        <time>2024-05-20T07:25:15.000Z</time>
      </trkpt>
      <trkpt lat="46.65948" lon="4.69336">
        <ele>231.39999389648</ele>
        <time>2024-05-20T07:25:16.000Z</time>
      </trkpt>
      <trkpt lat="46.65942" lon="4.69332">
        <ele>231.39999389648</ele>
        <time>2024-05-20T07:25:17.000Z</time>
      </trkpt>
      <trkpt lat="46.65936" lon="4.69329">
        <ele>231.39999389648</ele>
        <time>2024-05-20T07:25:18.000Z</time>
      </trkpt>
      <trkpt lat="46.6593" lon="4.69325">
        <ele>231.39999389648</ele>
        <time>2024-05-20T07:25:19.000Z</time>
      </trkpt>
      <trkpt lat="46.65924" lon="4.69321">
        <ele>231.39999389648</ele>
        <time>2024-05-20T07:25:20.000Z</time>
      </trkpt>
      <trkpt lat="46.65918" lon="4.69317">
        <ele>231.39999389648</ele>
        <time>2024-05-20T07:25:21.000Z</time>
      </trkpt>
      <trkpt lat="46.65911" lon="4.69314">
        <ele>231.39999389648</ele>
        <time>2024-05-20T07:25:22.000Z</time>
      </trkpt>
      <trkpt lat="46.65905" lon="4.6931">
        <ele>231.39999389648</ele>
        <time>2024-05-20T07:25:23.000Z</time>
      </trkpt>
      <trkpt lat="46.65899" lon="4.69306">
        <ele>231.60000610352</ele>
        <time>2024-05-20T07:25:24.000Z</time>
      </trkpt>
      <trkpt lat="46.65893" lon="4.69303">
        <ele>231.60000610352</ele>
        <time>2024-05-20T07:25:25.000Z</time>
      </trkpt>
      <trkpt lat="46.65887" lon="4.69299">
        <ele>231.60000610352</ele>
        <time>2024-05-20T07:25:26.000Z</time>
      </trkpt>
      <trkpt lat="46.65881" lon="4.69295">
        <ele>231.60000610352</ele>
        <time>2024-05-20T07:25:27.000Z</time>
      </trkpt>
      <trkpt lat="46.65875" lon="4.69291">
        <ele>231.60000610352</ele>
        <time>2024-05-20T07:25:28.000Z</time>
      </trkpt>
      <trkpt lat="46.65869" lon="4.69288">
        <ele>231.60000610352</ele>
        <time>2024-05-20T07:25:29.000Z</time>
      </trkpt>
      <trkpt lat="46.65863" lon="4.69284">
        <ele>231.60000610352</ele>
        <time>2024-05-20T07:25:30.000Z</time>
      </trkpt>
      <trkpt lat="46.65856" lon="4.6928">
        <ele>231.60000610352</ele>
        <time>2024-05-20T07:25:31.000Z</time>
      </trkpt>
      <trkpt lat="46.6585" lon="4.69277">
        <ele>231.60000610352</ele>
        <time>2024-05-20T07:25:32.000Z</time>
      </trkpt>
      <trkpt lat="46.65844" lon="4.69273">
        <ele>231.60000610352</ele>
        <time>2024-05-20T07:25:33.000Z</time>
      </trkpt>
      <trkpt lat="46.65838" lon="4.69269">
        <ele>231.60000610352</ele>
        <time>2024-05-20T07:25:34.000Z</time>
      </trkpt>
      <trkpt lat="46.65832" lon="4.69265">
        <ele>231.60000610352</ele>
        <time>2024-05-20T07:25:35.000Z</time>
      </trkpt>
      <trkpt lat="46.65826" lon="4.69262">
        <ele>231.60000610352</ele>
        <time>2024-05-20T07:25:36.000Z</time>
      </trkpt>
      <trkpt lat="46.6582" lon="4.69258">
        <ele>231.60000610352</ele>
        <time>2024-05-20T07:25:37.000Z</time>
      </trkpt>
      <trkpt lat="46.65814" lon="4.69255">
        <ele>231.60000610352</ele>
        <time>2024-05-20T07:25:38.000Z</time>
      </trkpt>
      <trkpt lat="46.65808" lon="4.69252">
        <ele>231.60000610352</ele>
        <time>2024-05-20T07:25:39.000Z</time>
      </trkpt>
      <trkpt lat="46.65802" lon="4.69249">
        <ele>231.60000610352</ele>
        <time>2024-05-20T07:25:40.000Z</time>
      </trkpt>
      <trkpt lat="46.65795" lon="4.69245">
        <ele>231.60000610352</ele>
        <time>2024-05-20T07:25:41.000Z</time>
      </trkpt>
      <trkpt lat="46.65789" lon="4.69242">
        <ele>231.60000610352</ele>
        <time>2024-05-20T07:25:42.000Z</time>
      </trkpt>
      <trkpt lat="46.65783" lon="4.69239">
        <ele>231.60000610352</ele>
        <time>2024-05-20T07:25:43.000Z</time>
      </trkpt>
      <trkpt lat="46.65777" lon="4.69237">
        <ele>231.60000610352</ele>
        <time>2024-05-20T07:25:44.000Z</time>
      </trkpt>
      <trkpt lat="46.6577" lon="4.69234">
        <ele>231.60000610352</ele>
        <time>2024-05-20T07:25:45.000Z</time>
      </trkpt>
      <trkpt lat="46.65764" lon="4.69231">
        <ele>231.60000610352</ele>
        <time>2024-05-20T07:25:46.000Z</time>
      </trkpt>
      <trkpt lat="46.65758" lon="4.69228">
        <ele>231.60000610352</ele>
        <time>2024-05-20T07:25:47.000Z</time>
      </trkpt>
      <trkpt lat="46.65752" lon="4.69225">
        <ele>231.60000610352</ele>
        <time>2024-05-20T07:25:48.000Z</time>
      </trkpt>
      <trkpt lat="46.65746" lon="4.69223">
        <ele>231.60000610352</ele>
        <time>2024-05-20T07:25:49.000Z</time>
      </trkpt>
      <trkpt lat="46.6574" lon="4.6922">
        <ele>231.60000610352</ele>
        <time>2024-05-20T07:25:50.000Z</time>
      </trkpt>
      <trkpt lat="46.65733" lon="4.69218">
        <ele>231.60000610352</ele>
        <time>2024-05-20T07:25:51.000Z</time>
      </trkpt>
      <trkpt lat="46.65727" lon="4.69216">
        <ele>231.60000610352</ele>
        <time>2024-05-20T07:25:52.000Z</time>
      </trkpt>
      <trkpt lat="46.65721" lon="4.69213">
        <ele>231.60000610352</ele>
        <time>2024-05-20T07:25:53.000Z</time>
      </trkpt>
      <trkpt lat="46.65716" lon="4.69211">
        <ele>231.60000610352</ele>
        <time>2024-05-20T07:25:54.000Z</time>
      </trkpt>
      <trkpt lat="46.6571" lon="4.69208">
        <ele>231.39999389648</ele>
        <time>2024-05-20T07:25:55.000Z</time>
      </trkpt>
      <trkpt lat="46.65704" lon="4.69206">
        <ele>231.39999389648</ele>
        <time>2024-05-20T07:25:56.000Z</time>
      </trkpt>
      <trkpt lat="46.65698" lon="4.69204">
        <ele>231.39999389648</ele>
        <time>2024-05-20T07:25:57.000Z</time>
      </trkpt>
      <trkpt lat="46.65692" lon="4.69203">
        <ele>231.39999389648</ele>
        <time>2024-05-20T07:25:58.000Z</time>
      </trkpt>
      <trkpt lat="46.65687" lon="4.69201">
        <ele>231.39999389648</ele>
        <time>2024-05-20T07:25:59.000Z</time>
      </trkpt>
      <trkpt lat="46.65683" lon="4.69199">
        <ele>231.39999389648</ele>
        <time>2024-05-20T07:26:00.000Z</time>
      </trkpt>
      <trkpt lat="46.65679" lon="4.69197">
        <ele>231.39999389648</ele>
        <time>2024-05-20T07:26:01.000Z</time>
      </trkpt>
      <trkpt lat="46.65675" lon="4.69195">
        <ele>231.39999389648</ele>
        <time>2024-05-20T07:26:02.000Z</time>
      </trkpt>
      <trkpt lat="46.65672" lon="4.69194">
        <ele>231.39999389648</ele>
        <time>2024-05-20T07:26:03.000Z</time>
      </trkpt>
      <trkpt lat="46.6567" lon="4.69193">
        <ele>231.60000610352</ele>
        <time>2024-05-20T07:26:04.000Z</time>
      </trkpt>
      <trkpt lat="46.65666" lon="4.69192">
        <ele>231.60000610352</ele>
        <time>2024-05-20T07:26:05.000Z</time>
      </trkpt>
      <trkpt lat="46.65663" lon="4.6919">
        <ele>231.60000610352</ele>
        <time>2024-05-20T07:26:06.000Z</time>
      </trkpt>
      <trkpt lat="46.6566" lon="4.69187">
        <ele>231.39999389648</ele>
        <time>2024-05-20T07:26:07.000Z</time>
      </trkpt>
      <trkpt lat="46.65656" lon="4.69185">
        <ele>231.39999389648</ele>
        <time>2024-05-20T07:26:08.000Z</time>
      </trkpt>
      <trkpt lat="46.65651" lon="4.69182">
        <ele>231.39999389648</ele>
        <time>2024-05-20T07:26:09.000Z</time>
      </trkpt>
      <trkpt lat="46.65646" lon="4.69179">
        <ele>231.39999389648</ele>
        <time>2024-05-20T07:26:10.000Z</time>
      </trkpt>
      <trkpt lat="46.65641" lon="4.69177">
        <ele>231.19999694824</ele>
        <time>2024-05-20T07:26:11.000Z</time>
      </trkpt>
      <trkpt lat="46.65635" lon="4.69174">
        <ele>231</ele>
        <time>2024-05-20T07:26:12.000Z</time>
      </trkpt>
      <trkpt lat="46.6563" lon="4.69171">
        <ele>231</ele>
        <time>2024-05-20T07:26:13.000Z</time>
      </trkpt>
      <trkpt lat="46.65624" lon="4.69168">
        <ele>231</ele>
        <time>2024-05-20T07:26:14.000Z</time>
      </trkpt>
      <trkpt lat="46.65619" lon="4.69165">
        <ele>231</ele>
        <time>2024-05-20T07:26:15.000Z</time>
      </trkpt>
      <trkpt lat="46.65613" lon="4.69162">
        <ele>231</ele>
        <time>2024-05-20T07:26:16.000Z</time>
      </trkpt>
      <trkpt lat="46.65607" lon="4.6916">
        <ele>231</ele>
        <time>2024-05-20T07:26:17.000Z</time>
      </trkpt>
      <trkpt lat="46.656" lon="4.69157">
        <ele>231</ele>
        <time>2024-05-20T07:26:18.000Z</time>
      </trkpt>
      <trkpt lat="46.65594" lon="4.69155">
        <ele>231</ele>
        <time>2024-05-20T07:26:19.000Z</time>
      </trkpt>
      <trkpt lat="46.65587" lon="4.69152">
        <ele>231</ele>
        <time>2024-05-20T07:26:20.000Z</time>
      </trkpt>
      <trkpt lat="46.65581" lon="4.6915">
        <ele>230.80000305176</ele>
        <time>2024-05-20T07:26:21.000Z</time>
      </trkpt>
      <trkpt lat="46.65574" lon="4.69148">
        <ele>230.80000305176</ele>
        <time>2024-05-20T07:26:22.000Z</time>
      </trkpt>
      <trkpt lat="46.65568" lon="4.69146">
        <ele>230.80000305176</ele>
        <time>2024-05-20T07:26:23.000Z</time>
      </trkpt>
      <trkpt lat="46.65561" lon="4.69144">
        <ele>230.80000305176</ele>
        <time>2024-05-20T07:26:24.000Z</time>
      </trkpt>
      <trkpt lat="46.65554" lon="4.69142">
        <ele>230.80000305176</ele>
        <time>2024-05-20T07:26:25.000Z</time>
      </trkpt>
      <trkpt lat="46.65548" lon="4.69139">
        <ele>230.80000305176</ele>
        <time>2024-05-20T07:26:26.000Z</time>
      </trkpt>
      <trkpt lat="46.65542" lon="4.69137">
        <ele>230.80000305176</ele>
        <time>2024-05-20T07:26:27.000Z</time>
      </trkpt>
      <trkpt lat="46.65535" lon="4.69135">
        <ele>230.80000305176</ele>
        <time>2024-05-20T07:26:28.000Z</time>
      </trkpt>
      <trkpt lat="46.65529" lon="4.69132">
        <ele>230.80000305176</ele>
        <time>2024-05-20T07:26:29.000Z</time>
      </trkpt>
      <trkpt lat="46.65522" lon="4.6913">
        <ele>230.80000305176</ele>
        <time>2024-05-20T07:26:30.000Z</time>
      </trkpt>
      <trkpt lat="46.65516" lon="4.69128">
        <ele>230.60000610352</ele>
        <time>2024-05-20T07:26:31.000Z</time>
      </trkpt>
      <trkpt lat="46.65509" lon="4.69125">
        <ele>230.60000610352</ele>
        <time>2024-05-20T07:26:32.000Z</time>
      </trkpt>
      <trkpt lat="46.65503" lon="4.69123">
        <ele>230.60000610352</ele>
        <time>2024-05-20T07:26:33.000Z</time>
      </trkpt>
      <trkpt lat="46.65497" lon="4.6912">
        <ele>230.60000610352</ele>
        <time>2024-05-20T07:26:34.000Z</time>
      </trkpt>
      <trkpt lat="46.65491" lon="4.69118">
        <ele>230.60000610352</ele>
        <time>2024-05-20T07:26:35.000Z</time>
      </trkpt>
      <trkpt lat="46.65484" lon="4.69116">
        <ele>230.60000610352</ele>
        <time>2024-05-20T07:26:36.000Z</time>
      </trkpt>
      <trkpt lat="46.65478" lon="4.69114">
        <ele>230.80000305176</ele>
        <time>2024-05-20T07:26:37.000Z</time>
      </trkpt>
      <trkpt lat="46.65472" lon="4.69111">
        <ele>230.80000305176</ele>
        <time>2024-05-20T07:26:38.000Z</time>
      </trkpt>
      <trkpt lat="46.65466" lon="4.69109">
        <ele>230.80000305176</ele>
        <time>2024-05-20T07:26:39.000Z</time>
      </trkpt>
      <trkpt lat="46.6546" lon="4.69107">
        <ele>230.80000305176</ele>
        <time>2024-05-20T07:26:40.000Z</time>
      </trkpt>
      <trkpt lat="46.65454" lon="4.69104">
        <ele>230.80000305176</ele>
        <time>2024-05-20T07:26:41.000Z</time>
      </trkpt>
      <trkpt lat="46.65447" lon="4.69101">
        <ele>231</ele>
        <time>2024-05-20T07:26:42.000Z</time>
      </trkpt>
      <trkpt lat="46.65441" lon="4.69098">
        <ele>231</ele>
        <time>2024-05-20T07:26:43.000Z</time>
      </trkpt>
      <trkpt lat="46.65435" lon="4.69095">
        <ele>231</ele>
        <time>2024-05-20T07:26:44.000Z</time>
      </trkpt>
      <trkpt lat="46.65429" lon="4.69093">
        <ele>231.19999694824</ele>
        <time>2024-05-20T07:26:45.000Z</time>
      </trkpt>
      <trkpt lat="46.65423" lon="4.6909">
        <ele>231.19999694824</ele>
        <time>2024-05-20T07:26:46.000Z</time>
      </trkpt>
      <trkpt lat="46.65417" lon="4.69088">
        <ele>231.19999694824</ele>
        <time>2024-05-20T07:26:47.000Z</time>
      </trkpt>
      <trkpt lat="46.6541" lon="4.69085">
        <ele>231.19999694824</ele>
        <time>2024-05-20T07:26:48.000Z</time>
      </trkpt>
      <trkpt lat="46.65404" lon="4.69083">
        <ele>231.39999389648</ele>
        <time>2024-05-20T07:26:49.000Z</time>
      </trkpt>
      <trkpt lat="46.65398" lon="4.69081">
        <ele>231.39999389648</ele>
        <time>2024-05-20T07:26:50.000Z</time>
      </trkpt>
      <trkpt lat="46.65392" lon="4.69079">
        <ele>231.39999389648</ele>
        <time>2024-05-20T07:26:51.000Z</time>
      </trkpt>
      <trkpt lat="46.65386" lon="4.69077">
        <ele>231.60000610352</ele>
        <time>2024-05-20T07:26:52.000Z</time>
      </trkpt>
      <trkpt lat="46.6538" lon="4.69074">
        <ele>231.60000610352</ele>
        <time>2024-05-20T07:26:53.000Z</time>
      </trkpt>
      <trkpt lat="46.65374" lon="4.69072">
        <ele>231.60000610352</ele>
        <time>2024-05-20T07:26:54.000Z</time>
      </trkpt>
      <trkpt lat="46.65368" lon="4.6907">
        <ele>231.60000610352</ele>
        <time>2024-05-20T07:26:55.000Z</time>
      </trkpt>
      <trkpt lat="46.65361" lon="4.69068">
        <ele>231.60000610352</ele>
        <time>2024-05-20T07:26:56.000Z</time>
      </trkpt>
      <trkpt lat="46.65355" lon="4.69065">
        <ele>231.80000305176</ele>
        <time>2024-05-20T07:26:57.000Z</time>
      </trkpt>
      <trkpt lat="46.65349" lon="4.69062">
        <ele>231.80000305176</ele>
        <time>2024-05-20T07:26:58.000Z</time>
      </trkpt>
      <trkpt lat="46.65343" lon="4.6906">
        <ele>232</ele>
        <time>2024-05-20T07:26:59.000Z</time>
      </trkpt>
      <trkpt lat="46.65337" lon="4.69057">
        <ele>232</ele>
        <time>2024-05-20T07:27:00.000Z</time>
      </trkpt>
      <trkpt lat="46.65331" lon="4.69055">
        <ele>232</ele>
        <time>2024-05-20T07:27:01.000Z</time>
      </trkpt>
      <trkpt lat="46.65325" lon="4.69053">
        <ele>232.19999694824</ele>
        <time>2024-05-20T07:27:02.000Z</time>
      </trkpt>
      <trkpt lat="46.65319" lon="4.69051">
        <ele>232.19999694824</ele>
        <time>2024-05-20T07:27:03.000Z</time>
      </trkpt>
      <trkpt lat="46.65312" lon="4.69048">
        <ele>232.19999694824</ele>
        <time>2024-05-20T07:27:04.000Z</time>
      </trkpt>
      <trkpt lat="46.65306" lon="4.69046">
        <ele>232.19999694824</ele>
        <time>2024-05-20T07:27:05.000Z</time>
      </trkpt>
      <trkpt lat="46.653" lon="4.69043">
        <ele>232.19999694824</ele>
        <time>2024-05-20T07:27:06.000Z</time>
      </trkpt>
      <trkpt lat="46.65294" lon="4.69041">
        <ele>232.39999389648</ele>
        <time>2024-05-20T07:27:07.000Z</time>
      </trkpt>
      <trkpt lat="46.65289" lon="4.69039">
        <ele>232.39999389648</ele>
        <time>2024-05-20T07:27:08.000Z</time>
      </trkpt>
      <trkpt lat="46.65283" lon="4.69037">
        <ele>232.60000610352</ele>
        <time>2024-05-20T07:27:09.000Z</time>
      </trkpt>
      <trkpt lat="46.65277" lon="4.69035">
        <ele>232.60000610352</ele>
        <time>2024-05-20T07:27:10.000Z</time>
      </trkpt>
      <trkpt lat="46.65271" lon="4.69033">
        <ele>232.60000610352</ele>
        <time>2024-05-20T07:27:11.000Z</time>
      </trkpt>
      <trkpt lat="46.65265" lon="4.69031">
        <ele>232.60000610352</ele>
        <time>2024-05-20T07:27:12.000Z</time>
      </trkpt>
      <trkpt lat="46.65259" lon="4.69029">
        <ele>232.80000305176</ele>
        <time>2024-05-20T07:27:13.000Z</time>
      </trkpt>
      <trkpt lat="46.65253" lon="4.69027">
        <ele>233</ele>
        <time>2024-05-20T07:27:14.000Z</time>
      </trkpt>
      <trkpt lat="46.65248" lon="4.69024">
        <ele>233</ele>
        <time>2024-05-20T07:27:15.000Z</time>
      </trkpt>
      <trkpt lat="46.65242" lon="4.69022">
        <ele>233</ele>
        <time>2024-05-20T07:27:16.000Z</time>
      </trkpt>
      <trkpt lat="46.65236" lon="4.6902">
        <ele>233.19999694824</ele>
        <time>2024-05-20T07:27:17.000Z</time>
      </trkpt>
      <trkpt lat="46.6523" lon="4.69018">
        <ele>233.19999694824</ele>
        <time>2024-05-20T07:27:18.000Z</time>
      </trkpt>
      <trkpt lat="46.65225" lon="4.69015">
        <ele>233.39999389648</ele>
        <time>2024-05-20T07:27:19.000Z</time>
      </trkpt>
      <trkpt lat="46.65219" lon="4.69013">
        <ele>233.39999389648</ele>
        <time>2024-05-20T07:27:20.000Z</time>
      </trkpt>
      <trkpt lat="46.65213" lon="4.69011">
        <ele>233.39999389648</ele>
        <time>2024-05-20T07:27:21.000Z</time>
      </trkpt>
      <trkpt lat="46.65207" lon="4.69009">
        <ele>233.60000610352</ele>
        <time>2024-05-20T07:27:22.000Z</time>
      </trkpt>
      <trkpt lat="46.65201" lon="4.69007">
        <ele>233.60000610352</ele>
        <time>2024-05-20T07:27:23.000Z</time>
      </trkpt>
      <trkpt lat="46.65195" lon="4.69005">
        <ele>233.60000610352</ele>
        <time>2024-05-20T07:27:24.000Z</time>
      </trkpt>
      <trkpt lat="46.6519" lon="4.69002">
        <ele>233.60000610352</ele>
        <time>2024-05-20T07:27:25.000Z</time>
      </trkpt>
      <trkpt lat="46.65184" lon="4.69">
        <ele>233.80000305176</ele>
        <time>2024-05-20T07:27:26.000Z</time>
      </trkpt>
      <trkpt lat="46.65178" lon="4.68998">
        <ele>233.80000305176</ele>
        <time>2024-05-20T07:27:27.000Z</time>
      </trkpt>
      <trkpt lat="46.65172" lon="4.68996">
        <ele>234</ele>
        <time>2024-05-20T07:27:28.000Z</time>
      </trkpt>
      <trkpt lat="46.65167" lon="4.68994">
        <ele>234</ele>
        <time>2024-05-20T07:27:29.000Z</time>
      </trkpt>
      <trkpt lat="46.65161" lon="4.68992">
        <ele>234.19999694824</ele>
        <time>2024-05-20T07:27:30.000Z</time>
      </trkpt>
      <trkpt lat="46.65155" lon="4.6899">
        <ele>234.19999694824</ele>
        <time>2024-05-20T07:27:31.000Z</time>
      </trkpt>
      <trkpt lat="46.6515" lon="4.68988">
        <ele>234.39999389648</ele>
        <time>2024-05-20T07:27:32.000Z</time>
      </trkpt>
      <trkpt lat="46.65144" lon="4.68986">
        <ele>234.39999389648</ele>
        <time>2024-05-20T07:27:33.000Z</time>
      </trkpt>
      <trkpt lat="46.65139" lon="4.68983">
        <ele>234.39999389648</ele>
        <time>2024-05-20T07:27:34.000Z</time>
      </trkpt>
      <trkpt lat="46.65133" lon="4.68981">
        <ele>234.60000610352</ele>
        <time>2024-05-20T07:27:35.000Z</time>
      </trkpt>
      <trkpt lat="46.65127" lon="4.68979">
        <ele>234.60000610352</ele>
        <time>2024-05-20T07:27:36.000Z</time>
      </trkpt>
      <trkpt lat="46.65122" lon="4.68977">
        <ele>234.60000610352</ele>
        <time>2024-05-20T07:27:37.000Z</time>
      </trkpt>
      <trkpt lat="46.65116" lon="4.68975">
        <ele>234.60000610352</ele>
        <time>2024-05-20T07:27:38.000Z</time>
      </trkpt>
      <trkpt lat="46.65111" lon="4.68974">
        <ele>234.60000610352</ele>
        <time>2024-05-20T07:27:39.000Z</time>
      </trkpt>
      <trkpt lat="46.65106" lon="4.68973">
        <ele>234.60000610352</ele>
        <time>2024-05-20T07:27:40.000Z</time>
      </trkpt>
      <trkpt lat="46.65101" lon="4.68971">
        <ele>234.80000305176</ele>
        <time>2024-05-20T07:27:41.000Z</time>
      </trkpt>
      <trkpt lat="46.65096" lon="4.68969">
        <ele>234.80000305176</ele>
        <time>2024-05-20T07:27:42.000Z</time>
      </trkpt>
      <trkpt lat="46.65092" lon="4.68966">
        <ele>235</ele>
        <time>2024-05-20T07:27:43.000Z</time>
      </trkpt>
      <trkpt lat="46.65088" lon="4.68965">
        <ele>235</ele>
        <time>2024-05-20T07:27:44.000Z</time>
      </trkpt>
      <trkpt lat="46.65083" lon="4.68964">
        <ele>235</ele>
        <time>2024-05-20T07:27:45.000Z</time>
      </trkpt>
      <trkpt lat="46.65079" lon="4.68963">
        <ele>235</ele>
        <time>2024-05-20T07:27:46.000Z</time>
      </trkpt>
      <trkpt lat="46.65074" lon="4.6896">
        <ele>235.19999694824</ele>
        <time>2024-05-20T07:27:47.000Z</time>
      </trkpt>
      <trkpt lat="46.65069" lon="4.68958">
        <ele>235.19999694824</ele>
        <time>2024-05-20T07:27:48.000Z</time>
      </trkpt>
      <trkpt lat="46.65064" lon="4.68956">
        <ele>236</ele>
        <time>2024-05-20T07:27:49.000Z</time>
      </trkpt>
      <trkpt lat="46.65058" lon="4.68954">
        <ele>236</ele>
        <time>2024-05-20T07:27:50.000Z</time>
      </trkpt>
      <trkpt lat="46.65053" lon="4.68952">
        <ele>236</ele>
        <time>2024-05-20T07:27:51.000Z</time>
      </trkpt>
      <trkpt lat="46.65047" lon="4.68949">
        <ele>236</ele>
        <time>2024-05-20T07:27:52.000Z</time>
      </trkpt>
      <trkpt lat="46.65042" lon="4.68947">
        <ele>236</ele>
        <time>2024-05-20T07:27:53.000Z</time>
      </trkpt>
      <trkpt lat="46.65036" lon="4.68944">
        <ele>236</ele>
        <time>2024-05-20T07:27:54.000Z</time>
      </trkpt>
      <trkpt lat="46.6503" lon="4.68942">
        <ele>236</ele>
        <time>2024-05-20T07:27:55.000Z</time>
      </trkpt>
      <trkpt lat="46.65024" lon="4.6894">
        <ele>236</ele>
        <time>2024-05-20T07:27:56.000Z</time>
      </trkpt>
      <trkpt lat="46.65018" lon="4.68938">
        <ele>236</ele>
        <time>2024-05-20T07:27:57.000Z</time>
      </trkpt>
      <trkpt lat="46.65013" lon="4.68935">
        <ele>236.19999694824</ele>
        <time>2024-05-20T07:27:58.000Z</time>
      </trkpt>
      <trkpt lat="46.65007" lon="4.68933">
        <ele>236.19999694824</ele>
        <time>2024-05-20T07:27:59.000Z</time>
      </trkpt>
      <trkpt lat="46.65001" lon="4.68931">
        <ele>236.39999389648</ele>
        <time>2024-05-20T07:28:00.000Z</time>
      </trkpt>
      <trkpt lat="46.64995" lon="4.68929">
        <ele>236.39999389648</ele>
        <time>2024-05-20T07:28:01.000Z</time>
      </trkpt>
      <trkpt lat="46.64989" lon="4.68927">
        <ele>236.39999389648</ele>
        <time>2024-05-20T07:28:02.000Z</time>
      </trkpt>
      <trkpt lat="46.64983" lon="4.68925">
        <ele>236.39999389648</ele>
        <time>2024-05-20T07:28:03.000Z</time>
      </trkpt>
      <trkpt lat="46.64977" lon="4.68922">
        <ele>236.60000610352</ele>
        <time>2024-05-20T07:28:04.000Z</time>
      </trkpt>
      <trkpt lat="46.64972" lon="4.6892">
        <ele>236.60000610352</ele>
        <time>2024-05-20T07:28:05.000Z</time>
      </trkpt>
      <trkpt lat="46.64966" lon="4.68918">
        <ele>236.80000305176</ele>
        <time>2024-05-20T07:28:06.000Z</time>
      </trkpt>
      <trkpt lat="46.6496" lon="4.68916">
        <ele>236.80000305176</ele>
        <time>2024-05-20T07:28:07.000Z</time>
      </trkpt>
      <trkpt lat="46.64954" lon="4.68913">
        <ele>237</ele>
        <time>2024-05-20T07:28:08.000Z</time>
      </trkpt>
      <trkpt lat="46.64948" lon="4.68911">
        <ele>237</ele>
        <time>2024-05-20T07:28:09.000Z</time>
      </trkpt>
      <trkpt lat="46.64942" lon="4.68909">
        <ele>237.19999694824</ele>
        <time>2024-05-20T07:28:10.000Z</time>
      </trkpt>
      <trkpt lat="46.64936" lon="4.68907">
        <ele>237.19999694824</ele>
        <time>2024-05-20T07:28:11.000Z</time>
      </trkpt>
      <trkpt lat="46.6493" lon="4.68905">
        <ele>237.19999694824</ele>
        <time>2024-05-20T07:28:12.000Z</time>
      </trkpt>
      <trkpt lat="46.64924" lon="4.68902">
        <ele>237.39999389648</ele>
        <time>2024-05-20T07:28:13.000Z</time>
      </trkpt>
      <trkpt lat="46.64919" lon="4.689">
        <ele>237.39999389648</ele>
        <time>2024-05-20T07:28:14.000Z</time>
      </trkpt>
      <trkpt lat="46.64913" lon="4.68898">
        <ele>237.60000610352</ele>
        <time>2024-05-20T07:28:15.000Z</time>
      </trkpt>
      <trkpt lat="46.64907" lon="4.68895">
        <ele>237.60000610352</ele>
        <time>2024-05-20T07:28:16.000Z</time>
      </trkpt>
      <trkpt lat="46.64901" lon="4.68893">
        <ele>237.60000610352</ele>
        <time>2024-05-20T07:28:17.000Z</time>
      </trkpt>
      <trkpt lat="46.64895" lon="4.68892">
        <ele>237.80000305176</ele>
        <time>2024-05-20T07:28:18.000Z</time>
      </trkpt>
      <trkpt lat="46.64889" lon="4.6889">
        <ele>237.80000305176</ele>
        <time>2024-05-20T07:28:19.000Z</time>
      </trkpt>
      <trkpt lat="46.64884" lon="4.68888">
        <ele>238</ele>
        <time>2024-05-20T07:28:20.000Z</time>
      </trkpt>
      <trkpt lat="46.64878" lon="4.68886">
        <ele>238</ele>
        <time>2024-05-20T07:28:21.000Z</time>
      </trkpt>
      <trkpt lat="46.64872" lon="4.68884">
        <ele>238</ele>
        <time>2024-05-20T07:28:22.000Z</time>
      </trkpt>
      <trkpt lat="46.64866" lon="4.68882">
        <ele>238.19999694824</ele>
        <time>2024-05-20T07:28:23.000Z</time>
      </trkpt>
      <trkpt lat="46.6486" lon="4.6888">
        <ele>238.19999694824</ele>
        <time>2024-05-20T07:28:24.000Z</time>
      </trkpt>
      <trkpt lat="46.64854" lon="4.68878">
        <ele>238.39999389648</ele>
        <time>2024-05-20T07:28:25.000Z</time>
      </trkpt>
      <trkpt lat="46.64848" lon="4.68876">
        <ele>238.39999389648</ele>
        <time>2024-05-20T07:28:26.000Z</time>
      </trkpt>
      <trkpt lat="46.64842" lon="4.68874">
        <ele>238.39999389648</ele>
        <time>2024-05-20T07:28:27.000Z</time>
      </trkpt>
      <trkpt lat="46.64836" lon="4.68872">
        <ele>238.39999389648</ele>
        <time>2024-05-20T07:28:28.000Z</time>
      </trkpt>
      <trkpt lat="46.6483" lon="4.68871">
        <ele>238.39999389648</ele>
        <time>2024-05-20T07:28:29.000Z</time>
      </trkpt>
      <trkpt lat="46.64824" lon="4.68869">
        <ele>238.60000610352</ele>
        <time>2024-05-20T07:28:30.000Z</time>
      </trkpt>
      <trkpt lat="46.64818" lon="4.68868">
        <ele>238.60000610352</ele>
        <time>2024-05-20T07:28:31.000Z</time>
      </trkpt>
      <trkpt lat="46.64812" lon="4.68866">
        <ele>238.60000610352</ele>
        <time>2024-05-20T07:28:32.000Z</time>
      </trkpt>
      <trkpt lat="46.64806" lon="4.68865">
        <ele>238.60000610352</ele>
        <time>2024-05-20T07:28:33.000Z</time>
      </trkpt>
      <trkpt lat="46.648" lon="4.68864">
        <ele>238.60000610352</ele>
        <time>2024-05-20T07:28:34.000Z</time>
      </trkpt>
      <trkpt lat="46.64794" lon="4.68862">
        <ele>238.60000610352</ele>
        <time>2024-05-20T07:28:35.000Z</time>
      </trkpt>
      <trkpt lat="46.64788" lon="4.68861">
        <ele>238.60000610352</ele>
        <time>2024-05-20T07:28:36.000Z</time>
      </trkpt>
      <trkpt lat="46.64782" lon="4.68859">
        <ele>238.60000610352</ele>
        <time>2024-05-20T07:28:37.000Z</time>
      </trkpt>
      <trkpt lat="46.64777" lon="4.68858">
        <ele>238.60000610352</ele>
        <time>2024-05-20T07:28:38.000Z</time>
      </trkpt>
      <trkpt lat="46.6477" lon="4.68857">
        <ele>238.60000610352</ele>
        <time>2024-05-20T07:28:39.000Z</time>
      </trkpt>
      <trkpt lat="46.64764" lon="4.68857">
        <ele>238.60000610352</ele>
        <time>2024-05-20T07:28:40.000Z</time>
      </trkpt>
      <trkpt lat="46.64759" lon="4.68856">
        <ele>238.60000610352</ele>
        <time>2024-05-20T07:28:41.000Z</time>
      </trkpt>
      <trkpt lat="46.64753" lon="4.68855">
        <ele>238.60000610352</ele>
        <time>2024-05-20T07:28:42.000Z</time>
      </trkpt>
      <trkpt lat="46.64747" lon="4.68855">
        <ele>238.60000610352</ele>
        <time>2024-05-20T07:28:43.000Z</time>
      </trkpt>
      <trkpt lat="46.64742" lon="4.68854">
        <ele>238.60000610352</ele>
        <time>2024-05-20T07:28:44.000Z</time>
      </trkpt>
      <trkpt lat="46.64737" lon="4.68853">
        <ele>238.60000610352</ele>
        <time>2024-05-20T07:28:45.000Z</time>
      </trkpt>
      <trkpt lat="46.64733" lon="4.68852">
        <ele>238.60000610352</ele>
        <time>2024-05-20T07:28:46.000Z</time>
      </trkpt>
      <trkpt lat="46.6473" lon="4.68851">
        <ele>238.60000610352</ele>
        <time>2024-05-20T07:28:47.000Z</time>
      </trkpt>
      <trkpt lat="46.64727" lon="4.68852">
        <ele>238.39999389648</ele>
        <time>2024-05-20T07:28:48.000Z</time>
      </trkpt>
      <trkpt lat="46.64723" lon="4.68852">
        <ele>238.60000610352</ele>
        <time>2024-05-20T07:28:49.000Z</time>
      </trkpt>
      <trkpt lat="46.6472" lon="4.68851">
        <ele>238.60000610352</ele>
        <time>2024-05-20T07:28:50.000Z</time>
      </trkpt>
      <trkpt lat="46.64716" lon="4.6885">
        <ele>238.60000610352</ele>
        <time>2024-05-20T07:28:51.000Z</time>
      </trkpt>
      <trkpt lat="46.64711" lon="4.68849">
        <ele>238.60000610352</ele>
        <time>2024-05-20T07:28:52.000Z</time>
      </trkpt>
      <trkpt lat="46.64706" lon="4.68849">
        <ele>238.60000610352</ele>
        <time>2024-05-20T07:28:53.000Z</time>
      </trkpt>
      <trkpt lat="46.64701" lon="4.68848">
        <ele>238.60000610352</ele>
        <time>2024-05-20T07:28:54.000Z</time>
      </trkpt>
      <trkpt lat="46.64696" lon="4.68848">
        <ele>238.60000610352</ele>
        <time>2024-05-20T07:28:55.000Z</time>
      </trkpt>
      <trkpt lat="46.6469" lon="4.68847">
        <ele>238.39999389648</ele>
        <time>2024-05-20T07:28:56.000Z</time>
      </trkpt>
      <trkpt lat="46.64685" lon="4.68846">
        <ele>238.19999694824</ele>
        <time>2024-05-20T07:28:57.000Z</time>
      </trkpt>
      <trkpt lat="46.64679" lon="4.68846">
        <ele>238.19999694824</ele>
        <time>2024-05-20T07:28:58.000Z</time>
      </trkpt>
      <trkpt lat="46.64673" lon="4.68845">
        <ele>238.19999694824</ele>
        <time>2024-05-20T07:28:59.000Z</time>
      </trkpt>
      <trkpt lat="46.64667" lon="4.68845">
        <ele>238.19999694824</ele>
        <time>2024-05-20T07:29:00.000Z</time>
      </trkpt>
      <trkpt lat="46.64661" lon="4.68845">
        <ele>238.19999694824</ele>
        <time>2024-05-20T07:29:01.000Z</time>
      </trkpt>
      <trkpt lat="46.64655" lon="4.68844">
        <ele>238.19999694824</ele>
        <time>2024-05-20T07:29:02.000Z</time>
      </trkpt>
      <trkpt lat="46.64649" lon="4.68843">
        <ele>238.19999694824</ele>
        <time>2024-05-20T07:29:03.000Z</time>
      </trkpt>
      <trkpt lat="46.64642" lon="4.68843">
        <ele>238.19999694824</ele>
        <time>2024-05-20T07:29:04.000Z</time>
      </trkpt>
      <trkpt lat="46.64636" lon="4.68842">
        <ele>238.19999694824</ele>
        <time>2024-05-20T07:29:05.000Z</time>
      </trkpt>
      <trkpt lat="46.6463" lon="4.68842">
        <ele>238.19999694824</ele>
        <time>2024-05-20T07:29:06.000Z</time>
      </trkpt>
      <trkpt lat="46.64624" lon="4.68841">
        <ele>238.19999694824</ele>
        <time>2024-05-20T07:29:07.000Z</time>
      </trkpt>
      <trkpt lat="46.64617" lon="4.6884">
        <ele>238.19999694824</ele>
        <time>2024-05-20T07:29:08.000Z</time>
      </trkpt>
      <trkpt lat="46.64611" lon="4.6884">
        <ele>238.19999694824</ele>
        <time>2024-05-20T07:29:09.000Z</time>
      </trkpt>
      <trkpt lat="46.64604" lon="4.68839">
        <ele>238.19999694824</ele>
        <time>2024-05-20T07:29:10.000Z</time>
      </trkpt>
      <trkpt lat="46.64598" lon="4.68838">
        <ele>237.80000305176</ele>
        <time>2024-05-20T07:29:11.000Z</time>
      </trkpt>
      <trkpt lat="46.64591" lon="4.68838">
        <ele>237.60000610352</ele>
        <time>2024-05-20T07:29:12.000Z</time>
      </trkpt>
      <trkpt lat="46.64585" lon="4.68838">
        <ele>237.60000610352</ele>
        <time>2024-05-20T07:29:13.000Z</time>
      </trkpt>
      <trkpt lat="46.64578" lon="4.68837">
        <ele>237.39999389648</ele>
        <time>2024-05-20T07:29:14.000Z</time>
      </trkpt>
      <trkpt lat="46.64571" lon="4.68836">
        <ele>237.39999389648</ele>
        <time>2024-05-20T07:29:15.000Z</time>
      </trkpt>
      <trkpt lat="46.64564" lon="4.68836">
        <ele>237.39999389648</ele>
        <time>2024-05-20T07:29:16.000Z</time>
      </trkpt>
      <trkpt lat="46.64558" lon="4.68835">
        <ele>237.39999389648</ele>
        <time>2024-05-20T07:29:17.000Z</time>
      </trkpt>
      <trkpt lat="46.64551" lon="4.68834">
        <ele>237.39999389648</ele>
        <time>2024-05-20T07:29:18.000Z</time>
      </trkpt>
      <trkpt lat="46.64545" lon="4.68833">
        <ele>237.39999389648</ele>
        <time>2024-05-20T07:29:19.000Z</time>
      </trkpt>
      <trkpt lat="46.64538" lon="4.68833">
        <ele>237.39999389648</ele>
        <time>2024-05-20T07:29:20.000Z</time>
      </trkpt>
      <trkpt lat="46.64531" lon="4.68832">
        <ele>237.60000610352</ele>
        <time>2024-05-20T07:29:21.000Z</time>
      </trkpt>
      <trkpt lat="46.64524" lon="4.68831">
        <ele>237.60000610352</ele>
        <time>2024-05-20T07:29:22.000Z</time>
      </trkpt>
      <trkpt lat="46.64518" lon="4.6883">
        <ele>237.39999389648</ele>
        <time>2024-05-20T07:29:23.000Z</time>
      </trkpt>
      <trkpt lat="46.64511" lon="4.68829">
        <ele>237.39999389648</ele>
        <time>2024-05-20T07:29:24.000Z</time>
      </trkpt>
      <trkpt lat="46.64504" lon="4.68829">
        <ele>237.39999389648</ele>
        <time>2024-05-20T07:29:25.000Z</time>
      </trkpt>
      <trkpt lat="46.64497" lon="4.68828">
        <ele>237.39999389648</ele>
        <time>2024-05-20T07:29:26.000Z</time>
      </trkpt>
      <trkpt lat="46.6449" lon="4.68827">
        <ele>237.39999389648</ele>
        <time>2024-05-20T07:29:27.000Z</time>
      </trkpt>
      <trkpt lat="46.64483" lon="4.68826">
        <ele>237.19999694824</ele>
        <time>2024-05-20T07:29:28.000Z</time>
      </trkpt>
      <trkpt lat="46.64477" lon="4.68826">
        <ele>237.19999694824</ele>
        <time>2024-05-20T07:29:29.000Z</time>
      </trkpt>
      <trkpt lat="46.6447" lon="4.68825">
        <ele>237</ele>
        <time>2024-05-20T07:29:30.000Z</time>
      </trkpt>
      <trkpt lat="46.64463" lon="4.68825">
        <ele>237</ele>
        <time>2024-05-20T07:29:31.000Z</time>
      </trkpt>
      <trkpt lat="46.64456" lon="4.68824">
        <ele>236.80000305176</ele>
        <time>2024-05-20T07:29:32.000Z</time>
      </trkpt>
      <trkpt lat="46.6445" lon="4.68823">
        <ele>236.80000305176</ele>
        <time>2024-05-20T07:29:33.000Z</time>
      </trkpt>
      <trkpt lat="46.64443" lon="4.68822">
        <ele>236.80000305176</ele>
        <time>2024-05-20T07:29:34.000Z</time>
      </trkpt>
      <trkpt lat="46.64436" lon="4.68822">
        <ele>236.80000305176</ele>
        <time>2024-05-20T07:29:35.000Z</time>
      </trkpt>
      <trkpt lat="46.6443" lon="4.68821">
        <ele>236.80000305176</ele>
        <time>2024-05-20T07:29:36.000Z</time>
      </trkpt>
      <trkpt lat="46.64423" lon="4.68821">
        <ele>236.80000305176</ele>
        <time>2024-05-20T07:29:37.000Z</time>
      </trkpt>
      <trkpt lat="46.64416" lon="4.6882">
        <ele>236.60000610352</ele>
        <time>2024-05-20T07:29:38.000Z</time>
      </trkpt>
      <trkpt lat="46.64409" lon="4.6882">
        <ele>236.60000610352</ele>
        <time>2024-05-20T07:29:39.000Z</time>
      </trkpt>
      <trkpt lat="46.64402" lon="4.68819">
        <ele>236.60000610352</ele>
        <time>2024-05-20T07:29:40.000Z</time>
      </trkpt>
      <trkpt lat="46.64395" lon="4.68818">
        <ele>236.39999389648</ele>
        <time>2024-05-20T07:29:41.000Z</time>
      </trkpt>
      <trkpt lat="46.64388" lon="4.68817">
        <ele>236.39999389648</ele>
        <time>2024-05-20T07:29:42.000Z</time>
      </trkpt>
      <trkpt lat="46.64381" lon="4.68816">
        <ele>236.39999389648</ele>
        <time>2024-05-20T07:29:43.000Z</time>
      </trkpt>
      <trkpt lat="46.64373" lon="4.68815">
        <ele>236.19999694824</ele>
        <time>2024-05-20T07:29:44.000Z</time>
      </trkpt>
      <trkpt lat="46.64367" lon="4.68815">
        <ele>236</ele>
        <time>2024-05-20T07:29:45.000Z</time>
      </trkpt>
      <trkpt lat="46.6436" lon="4.68814">
        <ele>236</ele>
        <time>2024-05-20T07:29:46.000Z</time>
      </trkpt>
      <trkpt lat="46.64353" lon="4.68813">
        <ele>236</ele>
        <time>2024-05-20T07:29:47.000Z</time>
      </trkpt>
      <trkpt lat="46.64346" lon="4.68813">
        <ele>235.80000305176</ele>
        <time>2024-05-20T07:29:48.000Z</time>
      </trkpt>
      <trkpt lat="46.64339" lon="4.68812">
        <ele>235.80000305176</ele>
        <time>2024-05-20T07:29:49.000Z</time>
      </trkpt>
      <trkpt lat="46.64332" lon="4.68811">
        <ele>235.80000305176</ele>
        <time>2024-05-20T07:29:50.000Z</time>
      </trkpt>
      <trkpt lat="46.64325" lon="4.68811">
        <ele>235.80000305176</ele>
        <time>2024-05-20T07:29:51.000Z</time>
      </trkpt>
      <trkpt lat="46.64318" lon="4.6881">
        <ele>235.80000305176</ele>
        <time>2024-05-20T07:29:52.000Z</time>
      </trkpt>
      <trkpt lat="46.6431" lon="4.68809">
        <ele>235.60000610352</ele>
        <time>2024-05-20T07:29:53.000Z</time>
      </trkpt>
      <trkpt lat="46.64303" lon="4.68808">
        <ele>235.60000610352</ele>
        <time>2024-05-20T07:29:54.000Z</time>
      </trkpt>
      <trkpt lat="46.64296" lon="4.68808">
        <ele>235.60000610352</ele>
        <time>2024-05-20T07:29:55.000Z</time>
      </trkpt>
      <trkpt lat="46.64289" lon="4.68807">
        <ele>235.39999389648</ele>
        <time>2024-05-20T07:29:56.000Z</time>
      </trkpt>
      <trkpt lat="46.64281" lon="4.68806">
        <ele>235.39999389648</ele>
        <time>2024-05-20T07:29:57.000Z</time>
      </trkpt>
      <trkpt lat="46.64274" lon="4.68805">
        <ele>235.19999694824</ele>
        <time>2024-05-20T07:29:58.000Z</time>
      </trkpt>
      <trkpt lat="46.64267" lon="4.68804">
        <ele>235.19999694824</ele>
        <time>2024-05-20T07:29:59.000Z</time>
      </trkpt>
      <trkpt lat="46.6426" lon="4.68804">
        <ele>235</ele>
        <time>2024-05-20T07:30:00.000Z</time>
      </trkpt>
      <trkpt lat="46.64253" lon="4.68803">
        <ele>235</ele>
        <time>2024-05-20T07:30:01.000Z</time>
      </trkpt>
      <trkpt lat="46.64245" lon="4.68802">
        <ele>234.80000305176</ele>
        <time>2024-05-20T07:30:02.000Z</time>
      </trkpt>
      <trkpt lat="46.64238" lon="4.68801">
        <ele>234.80000305176</ele>
        <time>2024-05-20T07:30:03.000Z</time>
      </trkpt>
      <trkpt lat="46.64231" lon="4.688">
        <ele>234.80000305176</ele>
        <time>2024-05-20T07:30:04.000Z</time>
      </trkpt>
      <trkpt lat="46.64224" lon="4.68799">
        <ele>234.60000610352</ele>
        <time>2024-05-20T07:30:05.000Z</time>
      </trkpt>
      <trkpt lat="46.64217" lon="4.68799">
        <ele>234.39999389648</ele>
        <time>2024-05-20T07:30:06.000Z</time>
      </trkpt>
      <trkpt lat="46.6421" lon="4.68798">
        <ele>234.19999694824</ele>
        <time>2024-05-20T07:30:07.000Z</time>
      </trkpt>
      <trkpt lat="46.64203" lon="4.68798">
        <ele>234.19999694824</ele>
        <time>2024-05-20T07:30:08.000Z</time>
      </trkpt>
      <trkpt lat="46.64196" lon="4.68797">
        <ele>234.19999694824</ele>
        <time>2024-05-20T07:30:09.000Z</time>
      </trkpt>
      <trkpt lat="46.64189" lon="4.68796">
        <ele>234</ele>
        <time>2024-05-20T07:30:10.000Z</time>
      </trkpt>
      <trkpt lat="46.64182" lon="4.68796">
        <ele>234</ele>
        <time>2024-05-20T07:30:11.000Z</time>
      </trkpt>
      <trkpt lat="46.64175" lon="4.68795">
        <ele>233.80000305176</ele>
        <time>2024-05-20T07:30:12.000Z</time>
      </trkpt>
      <trkpt lat="46.64168" lon="4.68794">
        <ele>233.80000305176</ele>
        <time>2024-05-20T07:30:13.000Z</time>
      </trkpt>
      <trkpt lat="46.64161" lon="4.68794">
        <ele>233.80000305176</ele>
        <time>2024-05-20T07:30:14.000Z</time>
      </trkpt>
      <trkpt lat="46.64154" lon="4.68793">
        <ele>233.80000305176</ele>
        <time>2024-05-20T07:30:15.000Z</time>
      </trkpt>
      <trkpt lat="46.64147" lon="4.68792">
        <ele>233.60000610352</ele>
        <time>2024-05-20T07:30:16.000Z</time>
      </trkpt>
      <trkpt lat="46.64141" lon="4.68791">
        <ele>233.60000610352</ele>
        <time>2024-05-20T07:30:17.000Z</time>
      </trkpt>
      <trkpt lat="46.64134" lon="4.6879">
        <ele>233.60000610352</ele>
        <time>2024-05-20T07:30:18.000Z</time>
      </trkpt>
      <trkpt lat="46.64127" lon="4.68789">
        <ele>233.60000610352</ele>
        <time>2024-05-20T07:30:19.000Z</time>
      </trkpt>
      <trkpt lat="46.6412" lon="4.68789">
        <ele>233.39999389648</ele>
        <time>2024-05-20T07:30:20.000Z</time>
      </trkpt>
      <trkpt lat="46.64113" lon="4.68788">
        <ele>233.39999389648</ele>
        <time>2024-05-20T07:30:21.000Z</time>
      </trkpt>
      <trkpt lat="46.64106" lon="4.68788">
        <ele>233.39999389648</ele>
        <time>2024-05-20T07:30:22.000Z</time>
      </trkpt>
      <trkpt lat="46.64099" lon="4.68787">
        <ele>233.39999389648</ele>
        <time>2024-05-20T07:30:23.000Z</time>
      </trkpt>
      <trkpt lat="46.64093" lon="4.68786">
        <ele>233.19999694824</ele>
        <time>2024-05-20T07:30:24.000Z</time>
      </trkpt>
      <trkpt lat="46.64086" lon="4.68785">
        <ele>233.19999694824</ele>
        <time>2024-05-20T07:30:25.000Z</time>
      </trkpt>
      <trkpt lat="46.64079" lon="4.68785">
        <ele>233</ele>
        <time>2024-05-20T07:30:26.000Z</time>
      </trkpt>
      <trkpt lat="46.64072" lon="4.68784">
        <ele>233</ele>
        <time>2024-05-20T07:30:27.000Z</time>
      </trkpt>
      <trkpt lat="46.64066" lon="4.68783">
        <ele>233</ele>
        <time>2024-05-20T07:30:28.000Z</time>
      </trkpt>
      <trkpt lat="46.64059" lon="4.68783">
        <ele>233</ele>
        <time>2024-05-20T07:30:29.000Z</time>
      </trkpt>
      <trkpt lat="46.64053" lon="4.68782">
        <ele>233</ele>
        <time>2024-05-20T07:30:30.000Z</time>
      </trkpt>
      <trkpt lat="46.64046" lon="4.68782">
        <ele>233</ele>
        <time>2024-05-20T07:30:31.000Z</time>
      </trkpt>
      <trkpt lat="46.6404" lon="4.68782">
        <ele>233.19999694824</ele>
        <time>2024-05-20T07:30:32.000Z</time>
      </trkpt>
      <trkpt lat="46.64033" lon="4.68781">
        <ele>233.19999694824</ele>
        <time>2024-05-20T07:30:33.000Z</time>
      </trkpt>
      <trkpt lat="46.64026" lon="4.68781">
        <ele>233.19999694824</ele>
        <time>2024-05-20T07:30:34.000Z</time>
      </trkpt>
      <trkpt lat="46.6402" lon="4.6878">
        <ele>233.19999694824</ele>
        <time>2024-05-20T07:30:35.000Z</time>
      </trkpt>
      <trkpt lat="46.64013" lon="4.68779">
        <ele>233.19999694824</ele>
        <time>2024-05-20T07:30:36.000Z</time>
      </trkpt>
      <trkpt lat="46.64007" lon="4.68779">
        <ele>233.19999694824</ele>
        <time>2024-05-20T07:30:37.000Z</time>
      </trkpt>
      <trkpt lat="46.64" lon="4.68778">
        <ele>233.19999694824</ele>
        <time>2024-05-20T07:30:38.000Z</time>
      </trkpt>
      <trkpt lat="46.63993" lon="4.68778">
        <ele>233.19999694824</ele>
        <time>2024-05-20T07:30:39.000Z</time>
      </trkpt>
      <trkpt lat="46.63987" lon="4.68777">
        <ele>233.19999694824</ele>
        <time>2024-05-20T07:30:40.000Z</time>
      </trkpt>
      <trkpt lat="46.6398" lon="4.68776">
        <ele>233.19999694824</ele>
        <time>2024-05-20T07:30:41.000Z</time>
      </trkpt>
      <trkpt lat="46.63974" lon="4.68776">
        <ele>233.19999694824</ele>
        <time>2024-05-20T07:30:42.000Z</time>
      </trkpt>
      <trkpt lat="46.63967" lon="4.68775">
        <ele>233.39999389648</ele>
        <time>2024-05-20T07:30:43.000Z</time>
      </trkpt>
      <trkpt lat="46.63961" lon="4.68774">
        <ele>233.39999389648</ele>
        <time>2024-05-20T07:30:44.000Z</time>
      </trkpt>
      <trkpt lat="46.63954" lon="4.68773">
        <ele>233.19999694824</ele>
        <time>2024-05-20T07:30:45.000Z</time>
      </trkpt>
      <trkpt lat="46.63947" lon="4.68772">
        <ele>233.39999389648</ele>
        <time>2024-05-20T07:30:46.000Z</time>
      </trkpt>
      <trkpt lat="46.63941" lon="4.68772">
        <ele>233.39999389648</ele>
        <time>2024-05-20T07:30:47.000Z</time>
      </trkpt>
      <trkpt lat="46.63934" lon="4.68771">
        <ele>233.39999389648</ele>
        <time>2024-05-20T07:30:48.000Z</time>
      </trkpt>
      <trkpt lat="46.63928" lon="4.6877">
        <ele>233.39999389648</ele>
        <time>2024-05-20T07:30:49.000Z</time>
      </trkpt>
      <trkpt lat="46.63921" lon="4.6877">
        <ele>233.39999389648</ele>
        <time>2024-05-20T07:30:50.000Z</time>
      </trkpt>
      <trkpt lat="46.63915" lon="4.68769">
        <ele>233.60000610352</ele>
        <time>2024-05-20T07:30:51.000Z</time>
      </trkpt>
      <trkpt lat="46.63909" lon="4.68769">
        <ele>233.60000610352</ele>
        <time>2024-05-20T07:30:52.000Z</time>
      </trkpt>
      <trkpt lat="46.63903" lon="4.68768">
        <ele>233.60000610352</ele>
        <time>2024-05-20T07:30:53.000Z</time>
      </trkpt>
      <trkpt lat="46.63896" lon="4.68768">
        <ele>233.80000305176</ele>
        <time>2024-05-20T07:30:54.000Z</time>
      </trkpt>
      <trkpt lat="46.6389" lon="4.68767">
        <ele>234</ele>
        <time>2024-05-20T07:30:55.000Z</time>
      </trkpt>
      <trkpt lat="46.63884" lon="4.68766">
        <ele>234</ele>
        <time>2024-05-20T07:30:56.000Z</time>
      </trkpt>
      <trkpt lat="46.63878" lon="4.68766">
        <ele>234</ele>
        <time>2024-05-20T07:30:57.000Z</time>
      </trkpt>
      <trkpt lat="46.63871" lon="4.68765">
        <ele>234</ele>
        <time>2024-05-20T07:30:58.000Z</time>
      </trkpt>
      <trkpt lat="46.63865" lon="4.68764">
        <ele>234</ele>
        <time>2024-05-20T07:30:59.000Z</time>
      </trkpt>
      <trkpt lat="46.63859" lon="4.68764">
        <ele>234</ele>
        <time>2024-05-20T07:31:00.000Z</time>
      </trkpt>
      <trkpt lat="46.63853" lon="4.68763">
        <ele>234.19999694824</ele>
        <time>2024-05-20T07:31:01.000Z</time>
      </trkpt>
      <trkpt lat="46.63847" lon="4.68762">
        <ele>234.19999694824</ele>
        <time>2024-05-20T07:31:02.000Z</time>
      </trkpt>
      <trkpt lat="46.63841" lon="4.68761">
        <ele>234.39999389648</ele>
        <time>2024-05-20T07:31:03.000Z</time>
      </trkpt>
      <trkpt lat="46.63835" lon="4.68761">
        <ele>234.39999389648</ele>
        <time>2024-05-20T07:31:04.000Z</time>
      </trkpt>
      <trkpt lat="46.63829" lon="4.6876">
        <ele>234.60000610352</ele>
        <time>2024-05-20T07:31:05.000Z</time>
      </trkpt>
      <trkpt lat="46.63823" lon="4.6876">
        <ele>234.60000610352</ele>
        <time>2024-05-20T07:31:06.000Z</time>
      </trkpt>
      <trkpt lat="46.63817" lon="4.68759">
        <ele>234.60000610352</ele>
        <time>2024-05-20T07:31:07.000Z</time>
      </trkpt>
      <trkpt lat="46.63811" lon="4.68758">
        <ele>234.80000305176</ele>
        <time>2024-05-20T07:31:08.000Z</time>
      </trkpt>
      <trkpt lat="46.63805" lon="4.68758">
        <ele>234.80000305176</ele>
        <time>2024-05-20T07:31:09.000Z</time>
      </trkpt>
      <trkpt lat="46.63799" lon="4.68757">
        <ele>235</ele>
        <time>2024-05-20T07:31:10.000Z</time>
      </trkpt>
      <trkpt lat="46.63794" lon="4.68756">
        <ele>235.19999694824</ele>
        <time>2024-05-20T07:31:11.000Z</time>
      </trkpt>
      <trkpt lat="46.63788" lon="4.68756">
        <ele>235.19999694824</ele>
        <time>2024-05-20T07:31:12.000Z</time>
      </trkpt>
      <trkpt lat="46.63782" lon="4.68755">
        <ele>235.19999694824</ele>
        <time>2024-05-20T07:31:13.000Z</time>
      </trkpt>
      <trkpt lat="46.63777" lon="4.68755">
        <ele>235.19999694824</ele>
        <time>2024-05-20T07:31:14.000Z</time>
      </trkpt>
      <trkpt lat="46.63771" lon="4.68755">
        <ele>235.19999694824</ele>
        <time>2024-05-20T07:31:15.000Z</time>
      </trkpt>
      <trkpt lat="46.63766" lon="4.68754">
        <ele>235.19999694824</ele>
        <time>2024-05-20T07:31:16.000Z</time>
      </trkpt>
      <trkpt lat="46.63761" lon="4.68754">
        <ele>235.39999389648</ele>
        <time>2024-05-20T07:31:17.000Z</time>
      </trkpt>
      <trkpt lat="46.63755" lon="4.68753">
        <ele>235.39999389648</ele>
        <time>2024-05-20T07:31:18.000Z</time>
      </trkpt>
      <trkpt lat="46.6375" lon="4.68752">
        <ele>235.39999389648</ele>
        <time>2024-05-20T07:31:19.000Z</time>
      </trkpt>
      <trkpt lat="46.63744" lon="4.68752">
        <ele>235.80000305176</ele>
        <time>2024-05-20T07:31:20.000Z</time>
      </trkpt>
      <trkpt lat="46.63739" lon="4.68751">
        <ele>235.80000305176</ele>
        <time>2024-05-20T07:31:21.000Z</time>
      </trkpt>
      <trkpt lat="46.63734" lon="4.68751">
        <ele>235.80000305176</ele>
        <time>2024-05-20T07:31:22.000Z</time>
      </trkpt>
      <trkpt lat="46.63728" lon="4.6875">
        <ele>235.80000305176</ele>
        <time>2024-05-20T07:31:23.000Z</time>
      </trkpt>
      <trkpt lat="46.63723" lon="4.68749">
        <ele>236</ele>
        <time>2024-05-20T07:31:24.000Z</time>
      </trkpt>
      <trkpt lat="46.63718" lon="4.68749">
        <ele>236</ele>
        <time>2024-05-20T07:31:25.000Z</time>
      </trkpt>
      <trkpt lat="46.63712" lon="4.68748">
        <ele>236</ele>
        <time>2024-05-20T07:31:26.000Z</time>
      </trkpt>
      <trkpt lat="46.63707" lon="4.68748">
        <ele>236</ele>
        <time>2024-05-20T07:31:27.000Z</time>
      </trkpt>
      <trkpt lat="46.63702" lon="4.68748">
        <ele>236.19999694824</ele>
        <time>2024-05-20T07:31:28.000Z</time>
      </trkpt>
      <trkpt lat="46.63697" lon="4.68748">
        <ele>236.39999389648</ele>
        <time>2024-05-20T07:31:29.000Z</time>
      </trkpt>
      <trkpt lat="46.63692" lon="4.68747">
        <ele>236.60000610352</ele>
        <time>2024-05-20T07:31:30.000Z</time>
      </trkpt>
      <trkpt lat="46.63687" lon="4.68746">
        <ele>236.80000305176</ele>
        <time>2024-05-20T07:31:31.000Z</time>
      </trkpt>
      <trkpt lat="46.63682" lon="4.68746">
        <ele>236.80000305176</ele>
        <time>2024-05-20T07:31:32.000Z</time>
      </trkpt>
      <trkpt lat="46.63678" lon="4.68746">
        <ele>237</ele>
        <time>2024-05-20T07:31:33.000Z</time>
      </trkpt>
      <trkpt lat="46.63673" lon="4.68746">
        <ele>237</ele>
        <time>2024-05-20T07:31:34.000Z</time>
      </trkpt>
      <trkpt lat="46.6367" lon="4.68746">
        <ele>237</ele>
        <time>2024-05-20T07:31:35.000Z</time>
      </trkpt>
      <trkpt lat="46.63666" lon="4.68745">
        <ele>237</ele>
        <time>2024-05-20T07:31:36.000Z</time>
      </trkpt>
      <trkpt lat="46.63663" lon="4.68744">
        <ele>237.19999694824</ele>
        <time>2024-05-20T07:31:37.000Z</time>
      </trkpt>
      <trkpt lat="46.63661" lon="4.68744">
        <ele>237.39999389648</ele>
        <time>2024-05-20T07:31:38.000Z</time>
      </trkpt>
      <trkpt lat="46.63659" lon="4.68744">
        <ele>237.60000610352</ele>
        <time>2024-05-20T07:31:39.000Z</time>
      </trkpt>
      <trkpt lat="46.63656" lon="4.68744">
        <ele>237.60000610352</ele>
        <time>2024-05-20T07:31:40.000Z</time>
      </trkpt>
      <trkpt lat="46.63653" lon="4.68745">
        <ele>237.80000305176</ele>
        <time>2024-05-20T07:31:41.000Z</time>
      </trkpt>
      <trkpt lat="46.63649" lon="4.68744">
        <ele>237.80000305176</ele>
        <time>2024-05-20T07:31:42.000Z</time>
      </trkpt>
      <trkpt lat="46.63645" lon="4.68743">
        <ele>237.80000305176</ele>
        <time>2024-05-20T07:31:43.000Z</time>
      </trkpt>
      <trkpt lat="46.6364" lon="4.68743">
        <ele>237.80000305176</ele>
        <time>2024-05-20T07:31:44.000Z</time>
      </trkpt>
      <trkpt lat="46.63635" lon="4.68742">
        <ele>237.60000610352</ele>
        <time>2024-05-20T07:31:45.000Z</time>
      </trkpt>
      <trkpt lat="46.6363" lon="4.68741">
        <ele>237.60000610352</ele>
        <time>2024-05-20T07:31:46.000Z</time>
      </trkpt>
      <trkpt lat="46.63625" lon="4.68741">
        <ele>237.60000610352</ele>
        <time>2024-05-20T07:31:47.000Z</time>
      </trkpt>
      <trkpt lat="46.6362" lon="4.6874">
        <ele>237.60000610352</ele>
        <time>2024-05-20T07:31:48.000Z</time>
      </trkpt>
      <trkpt lat="46.63615" lon="4.68739">
        <ele>237.60000610352</ele>
        <time>2024-05-20T07:31:49.000Z</time>
      </trkpt>
      <trkpt lat="46.6361" lon="4.68739">
        <ele>237.60000610352</ele>
        <time>2024-05-20T07:31:50.000Z</time>
      </trkpt>
      <trkpt lat="46.63604" lon="4.68738">
        <ele>237.80000305176</ele>
        <time>2024-05-20T07:31:51.000Z</time>
      </trkpt>
      <trkpt lat="46.63599" lon="4.68737">
        <ele>238</ele>
        <time>2024-05-20T07:31:52.000Z</time>
      </trkpt>
      <trkpt lat="46.63593" lon="4.68737">
        <ele>238</ele>
        <time>2024-05-20T07:31:53.000Z</time>
      </trkpt>
      <trkpt lat="46.63587" lon="4.68736">
        <ele>238.19999694824</ele>
        <time>2024-05-20T07:31:54.000Z</time>
      </trkpt>
      <trkpt lat="46.63581" lon="4.68735">
        <ele>238.19999694824</ele>
        <time>2024-05-20T07:31:55.000Z</time>
      </trkpt>
      <trkpt lat="46.63576" lon="4.68734">
        <ele>238.39999389648</ele>
        <time>2024-05-20T07:31:56.000Z</time>
      </trkpt>
      <trkpt lat="46.6357" lon="4.68733">
        <ele>238.39999389648</ele>
        <time>2024-05-20T07:31:57.000Z</time>
      </trkpt>
      <trkpt lat="46.63564" lon="4.68732">
        <ele>238.39999389648</ele>
        <time>2024-05-20T07:31:58.000Z</time>
      </trkpt>
      <trkpt lat="46.63559" lon="4.68731">
        <ele>238.60000610352</ele>
        <time>2024-05-20T07:31:59.000Z</time>
      </trkpt>
      <trkpt lat="46.63553" lon="4.6873">
        <ele>238.60000610352</ele>
        <time>2024-05-20T07:32:00.000Z</time>
      </trkpt>
      <trkpt lat="46.63547" lon="4.68729">
        <ele>238.80000305176</ele>
        <time>2024-05-20T07:32:01.000Z</time>
      </trkpt>
      <trkpt lat="46.63542" lon="4.68728">
        <ele>238.80000305176</ele>
        <time>2024-05-20T07:32:02.000Z</time>
      </trkpt>
      <trkpt lat="46.63536" lon="4.68727">
        <ele>238.80000305176</ele>
        <time>2024-05-20T07:32:03.000Z</time>
      </trkpt>
      <trkpt lat="46.6353" lon="4.68726">
        <ele>239</ele>
        <time>2024-05-20T07:32:04.000Z</time>
      </trkpt>
      <trkpt lat="46.63524" lon="4.68725">
        <ele>239</ele>
        <time>2024-05-20T07:32:05.000Z</time>
      </trkpt>
      <trkpt lat="46.63518" lon="4.68723">
        <ele>239</ele>
        <time>2024-05-20T07:32:06.000Z</time>
      </trkpt>
      <trkpt lat="46.63512" lon="4.68722">
        <ele>239</ele>
        <time>2024-05-20T07:32:07.000Z</time>
      </trkpt>
      <trkpt lat="46.63507" lon="4.68721">
        <ele>239.19999694824</ele>
        <time>2024-05-20T07:32:08.000Z</time>
      </trkpt>
      <trkpt lat="46.63501" lon="4.68719">
        <ele>239.39999389648</ele>
        <time>2024-05-20T07:32:09.000Z</time>
      </trkpt>
      <trkpt lat="46.63495" lon="4.68718">
        <ele>239.39999389648</ele>
        <time>2024-05-20T07:32:10.000Z</time>
      </trkpt>
      <trkpt lat="46.6349" lon="4.68716">
        <ele>239.39999389648</ele>
        <time>2024-05-20T07:32:11.000Z</time>
      </trkpt>
      <trkpt lat="46.63485" lon="4.68715">
        <ele>239.39999389648</ele>
        <time>2024-05-20T07:32:12.000Z</time>
      </trkpt>
      <trkpt lat="46.63479" lon="4.68713">
        <ele>239.60000610352</ele>
        <time>2024-05-20T07:32:13.000Z</time>
      </trkpt>
      <trkpt lat="46.63474" lon="4.68712">
        <ele>239.60000610352</ele>
        <time>2024-05-20T07:32:14.000Z</time>
      </trkpt>
      <trkpt lat="46.63468" lon="4.68709">
        <ele>239.80000305176</ele>
        <time>2024-05-20T07:32:15.000Z</time>
      </trkpt>
      <trkpt lat="46.63463" lon="4.68707">
        <ele>239.80000305176</ele>
        <time>2024-05-20T07:32:16.000Z</time>
      </trkpt>
      <trkpt lat="46.63457" lon="4.68706">
        <ele>240</ele>
        <time>2024-05-20T07:32:17.000Z</time>
      </trkpt>
      <trkpt lat="46.63452" lon="4.68703">
        <ele>240</ele>
        <time>2024-05-20T07:32:18.000Z</time>
      </trkpt>
      <trkpt lat="46.63446" lon="4.68701">
        <ele>240</ele>
        <time>2024-05-20T07:32:19.000Z</time>
      </trkpt>
      <trkpt lat="46.63441" lon="4.68699">
        <ele>240</ele>
        <time>2024-05-20T07:32:20.000Z</time>
      </trkpt>
      <trkpt lat="46.63436" lon="4.68697">
        <ele>240</ele>
        <time>2024-05-20T07:32:21.000Z</time>
      </trkpt>
      <trkpt lat="46.63431" lon="4.68695">
        <ele>240.19999694824</ele>
        <time>2024-05-20T07:32:22.000Z</time>
      </trkpt>
      <trkpt lat="46.63425" lon="4.68692">
        <ele>240.19999694824</ele>
        <time>2024-05-20T07:32:23.000Z</time>
      </trkpt>
      <trkpt lat="46.6342" lon="4.6869">
        <ele>240.19999694824</ele>
        <time>2024-05-20T07:32:24.000Z</time>
      </trkpt>
      <trkpt lat="46.63415" lon="4.68687">
        <ele>240.19999694824</ele>
        <time>2024-05-20T07:32:25.000Z</time>
      </trkpt>
      <trkpt lat="46.63409" lon="4.68684">
        <ele>240.39999389648</ele>
        <time>2024-05-20T07:32:26.000Z</time>
      </trkpt>
      <trkpt lat="46.63404" lon="4.68682">
        <ele>240.39999389648</ele>
        <time>2024-05-20T07:32:27.000Z</time>
      </trkpt>
      <trkpt lat="46.63398" lon="4.68679">
        <ele>240.60000610352</ele>
        <time>2024-05-20T07:32:28.000Z</time>
      </trkpt>
      <trkpt lat="46.63393" lon="4.68677">
        <ele>240.60000610352</ele>
        <time>2024-05-20T07:32:29.000Z</time>
      </trkpt>
      <trkpt lat="46.63388" lon="4.68674">
        <ele>240.60000610352</ele>
        <time>2024-05-20T07:32:30.000Z</time>
      </trkpt>
      <trkpt lat="46.63382" lon="4.68672">
        <ele>240.80000305176</ele>
        <time>2024-05-20T07:32:31.000Z</time>
      </trkpt>
      <trkpt lat="46.63377" lon="4.68669">
        <ele>240.80000305176</ele>
        <time>2024-05-20T07:32:32.000Z</time>
      </trkpt>
      <trkpt lat="46.63372" lon="4.68666">
        <ele>241</ele>
        <time>2024-05-20T07:32:33.000Z</time>
      </trkpt>
      <trkpt lat="46.63366" lon="4.68664">
        <ele>241</ele>
        <time>2024-05-20T07:32:34.000Z</time>
      </trkpt>
      <trkpt lat="46.63361" lon="4.68661">
        <ele>241</ele>
        <time>2024-05-20T07:32:35.000Z</time>
      </trkpt>
      <trkpt lat="46.63356" lon="4.68659">
        <ele>241</ele>
        <time>2024-05-20T07:32:36.000Z</time>
      </trkpt>
      <trkpt lat="46.6335" lon="4.68656">
        <ele>241.19999694824</ele>
        <time>2024-05-20T07:32:37.000Z</time>
      </trkpt>
      <trkpt lat="46.63345" lon="4.68654">
        <ele>241.19999694824</ele>
        <time>2024-05-20T07:32:38.000Z</time>
      </trkpt>
      <trkpt lat="46.6334" lon="4.68651">
        <ele>241.39999389648</ele>
        <time>2024-05-20T07:32:39.000Z</time>
      </trkpt>
      <trkpt lat="46.63334" lon="4.68648">
        <ele>241.39999389648</ele>
        <time>2024-05-20T07:32:40.000Z</time>
      </trkpt>
      <trkpt lat="46.63329" lon="4.68646">
        <ele>241.60000610352</ele>
        <time>2024-05-20T07:32:41.000Z</time>
      </trkpt>
      <trkpt lat="46.63323" lon="4.68643">
        <ele>241.60000610352</ele>
        <time>2024-05-20T07:32:42.000Z</time>
      </trkpt>
      <trkpt lat="46.63318" lon="4.6864">
        <ele>241.60000610352</ele>
        <time>2024-05-20T07:32:43.000Z</time>
      </trkpt>
      <trkpt lat="46.63313" lon="4.68638">
        <ele>241.60000610352</ele>
        <time>2024-05-20T07:32:44.000Z</time>
      </trkpt>
      <trkpt lat="46.63308" lon="4.68635">
        <ele>241.80000305176</ele>
        <time>2024-05-20T07:32:45.000Z</time>
      </trkpt>
      <trkpt lat="46.63302" lon="4.68633">
        <ele>241.80000305176</ele>
        <time>2024-05-20T07:32:46.000Z</time>
      </trkpt>
      <trkpt lat="46.63297" lon="4.68631">
        <ele>241.80000305176</ele>
        <time>2024-05-20T07:32:47.000Z</time>
      </trkpt>
      <trkpt lat="46.63292" lon="4.68628">
        <ele>241.80000305176</ele>
        <time>2024-05-20T07:32:48.000Z</time>
      </trkpt>
      <trkpt lat="46.63287" lon="4.68625">
        <ele>241.80000305176</ele>
        <time>2024-05-20T07:32:49.000Z</time>
      </trkpt>
      <trkpt lat="46.63281" lon="4.68623">
        <ele>241.80000305176</ele>
        <time>2024-05-20T07:32:50.000Z</time>
      </trkpt>
      <trkpt lat="46.63276" lon="4.68621">
        <ele>241.80000305176</ele>
        <time>2024-05-20T07:32:51.000Z</time>
      </trkpt>
      <trkpt lat="46.63271" lon="4.68618">
        <ele>241.80000305176</ele>
        <time>2024-05-20T07:32:52.000Z</time>
      </trkpt>
      <trkpt lat="46.63267" lon="4.68616">
        <ele>241.80000305176</ele>
        <time>2024-05-20T07:32:53.000Z</time>
      </trkpt>
      <trkpt lat="46.63262" lon="4.68614">
        <ele>241.80000305176</ele>
        <time>2024-05-20T07:32:54.000Z</time>
      </trkpt>
      <trkpt lat="46.63258" lon="4.68612">
        <ele>242</ele>
        <time>2024-05-20T07:32:55.000Z</time>
      </trkpt>
      <trkpt lat="46.63254" lon="4.6861">
        <ele>242</ele>
        <time>2024-05-20T07:32:56.000Z</time>
      </trkpt>
      <trkpt lat="46.63251" lon="4.68607">
        <ele>242</ele>
        <time>2024-05-20T07:32:57.000Z</time>
      </trkpt>
      <trkpt lat="46.63248" lon="4.68606">
        <ele>242.19999694824</ele>
        <time>2024-05-20T07:32:58.000Z</time>
      </trkpt>
      <trkpt lat="46.63244" lon="4.68604">
        <ele>242.39999389648</ele>
        <time>2024-05-20T07:32:59.000Z</time>
      </trkpt>
      <trkpt lat="46.6324" lon="4.68603">
        <ele>242.39999389648</ele>
        <time>2024-05-20T07:33:00.000Z</time>
      </trkpt>
      <trkpt lat="46.63236" lon="4.68601">
        <ele>242.39999389648</ele>
        <time>2024-05-20T07:33:01.000Z</time>
      </trkpt>
      <trkpt lat="46.63231" lon="4.686">
        <ele>242.39999389648</ele>
        <time>2024-05-20T07:33:02.000Z</time>
      </trkpt>
      <trkpt lat="46.63227" lon="4.68597">
        <ele>242.60000610352</ele>
        <time>2024-05-20T07:33:03.000Z</time>
      </trkpt>
      <trkpt lat="46.63223" lon="4.68595">
        <ele>242.60000610352</ele>
        <time>2024-05-20T07:33:04.000Z</time>
      </trkpt>
      <trkpt lat="46.63218" lon="4.68593">
        <ele>242.60000610352</ele>
        <time>2024-05-20T07:33:05.000Z</time>
      </trkpt>
      <trkpt lat="46.63213" lon="4.6859">
        <ele>242.60000610352</ele>
        <time>2024-05-20T07:33:06.000Z</time>
      </trkpt>
      <trkpt lat="46.63209" lon="4.68588">
        <ele>242.60000610352</ele>
        <time>2024-05-20T07:33:07.000Z</time>
      </trkpt>
      <trkpt lat="46.63204" lon="4.68586">
        <ele>242.60000610352</ele>
        <time>2024-05-20T07:33:08.000Z</time>
      </trkpt>
      <trkpt lat="46.63199" lon="4.68583">
        <ele>242.80000305176</ele>
        <time>2024-05-20T07:33:09.000Z</time>
      </trkpt>
      <trkpt lat="46.63194" lon="4.6858">
        <ele>243</ele>
        <time>2024-05-20T07:33:10.000Z</time>
      </trkpt>
      <trkpt lat="46.63189" lon="4.68578">
        <ele>243</ele>
        <time>2024-05-20T07:33:11.000Z</time>
      </trkpt>
      <trkpt lat="46.63184" lon="4.68575">
        <ele>243</ele>
        <time>2024-05-20T07:33:12.000Z</time>
      </trkpt>
      <trkpt lat="46.63179" lon="4.68573">
        <ele>243</ele>
        <time>2024-05-20T07:33:13.000Z</time>
      </trkpt>
      <trkpt lat="46.63173" lon="4.6857">
        <ele>243</ele>
        <time>2024-05-20T07:33:14.000Z</time>
      </trkpt>
      <trkpt lat="46.63168" lon="4.68568">
        <ele>243</ele>
        <time>2024-05-20T07:33:15.000Z</time>
      </trkpt>
      <trkpt lat="46.63163" lon="4.68565">
        <ele>243.19999694824</ele>
        <time>2024-05-20T07:33:16.000Z</time>
      </trkpt>
      <trkpt lat="46.63157" lon="4.68562">
        <ele>243.19999694824</ele>
        <time>2024-05-20T07:33:17.000Z</time>
      </trkpt>
      <trkpt lat="46.63152" lon="4.6856">
        <ele>243.19999694824</ele>
        <time>2024-05-20T07:33:18.000Z</time>
      </trkpt>
      <trkpt lat="46.63147" lon="4.68558">
        <ele>243.39999389648</ele>
        <time>2024-05-20T07:33:19.000Z</time>
      </trkpt>
      <trkpt lat="46.63142" lon="4.68555">
        <ele>243.39999389648</ele>
        <time>2024-05-20T07:33:20.000Z</time>
      </trkpt>
      <trkpt lat="46.63137" lon="4.68552">
        <ele>243.39999389648</ele>
        <time>2024-05-20T07:33:21.000Z</time>
      </trkpt>
      <trkpt lat="46.63132" lon="4.6855">
        <ele>243.39999389648</ele>
        <time>2024-05-20T07:33:22.000Z</time>
      </trkpt>
      <trkpt lat="46.63127" lon="4.68547">
        <ele>243.39999389648</ele>
        <time>2024-05-20T07:33:23.000Z</time>
      </trkpt>
      <trkpt lat="46.63121" lon="4.68545">
        <ele>243.60000610352</ele>
        <time>2024-05-20T07:33:24.000Z</time>
      </trkpt>
      <trkpt lat="46.63116" lon="4.68542">
        <ele>243.80000305176</ele>
        <time>2024-05-20T07:33:25.000Z</time>
      </trkpt>
      <trkpt lat="46.63111" lon="4.6854">
        <ele>243.80000305176</ele>
        <time>2024-05-20T07:33:26.000Z</time>
      </trkpt>
      <trkpt lat="46.63106" lon="4.68537">
        <ele>243.80000305176</ele>
        <time>2024-05-20T07:33:27.000Z</time>
      </trkpt>
      <trkpt lat="46.63101" lon="4.68535">
        <ele>243.80000305176</ele>
        <time>2024-05-20T07:33:28.000Z</time>
      </trkpt>
      <trkpt lat="46.63096" lon="4.68532">
        <ele>243.80000305176</ele>
        <time>2024-05-20T07:33:29.000Z</time>
      </trkpt>
      <trkpt lat="46.6309" lon="4.6853">
        <ele>244</ele>
        <time>2024-05-20T07:33:30.000Z</time>
      </trkpt>
      <trkpt lat="46.63085" lon="4.68527">
        <ele>244</ele>
        <time>2024-05-20T07:33:31.000Z</time>
      </trkpt>
      <trkpt lat="46.6308" lon="4.68524">
        <ele>244</ele>
        <time>2024-05-20T07:33:32.000Z</time>
      </trkpt>
      <trkpt lat="46.63074" lon="4.68522">
        <ele>244</ele>
        <time>2024-05-20T07:33:33.000Z</time>
      </trkpt>
      <trkpt lat="46.63069" lon="4.68519">
        <ele>244</ele>
        <time>2024-05-20T07:33:34.000Z</time>
      </trkpt>
      <trkpt lat="46.63064" lon="4.68517">
        <ele>244</ele>
        <time>2024-05-20T07:33:35.000Z</time>
      </trkpt>
      <trkpt lat="46.63059" lon="4.68515">
        <ele>244.19999694824</ele>
        <time>2024-05-20T07:33:36.000Z</time>
      </trkpt>
      <trkpt lat="46.63054" lon="4.68512">
        <ele>244.19999694824</ele>
        <time>2024-05-20T07:33:37.000Z</time>
      </trkpt>
      <trkpt lat="46.63048" lon="4.6851">
        <ele>244.39999389648</ele>
        <time>2024-05-20T07:33:38.000Z</time>
      </trkpt>
      <trkpt lat="46.63043" lon="4.68507">
        <ele>244.60000610352</ele>
        <time>2024-05-20T07:33:39.000Z</time>
      </trkpt>
      <trkpt lat="46.63038" lon="4.68504">
        <ele>244.60000610352</ele>
        <time>2024-05-20T07:33:40.000Z</time>
      </trkpt>
      <trkpt lat="46.63033" lon="4.68502">
        <ele>244.60000610352</ele>
        <time>2024-05-20T07:33:41.000Z</time>
      </trkpt>
      <trkpt lat="46.63027" lon="4.68499">
        <ele>244.60000610352</ele>
        <time>2024-05-20T07:33:42.000Z</time>
      </trkpt>
      <trkpt lat="46.63022" lon="4.68497">
        <ele>244.60000610352</ele>
        <time>2024-05-20T07:33:43.000Z</time>
      </trkpt>
      <trkpt lat="46.63016" lon="4.68494">
        <ele>244.60000610352</ele>
        <time>2024-05-20T07:33:44.000Z</time>
      </trkpt>
      <trkpt lat="46.63011" lon="4.68492">
        <ele>244.60000610352</ele>
        <time>2024-05-20T07:33:45.000Z</time>
      </trkpt>
      <trkpt lat="46.63005" lon="4.68489">
        <ele>244.60000610352</ele>
        <time>2024-05-20T07:33:46.000Z</time>
      </trkpt>
      <trkpt lat="46.63" lon="4.68487">
        <ele>244.60000610352</ele>
        <time>2024-05-20T07:33:47.000Z</time>
      </trkpt>
      <trkpt lat="46.62994" lon="4.68484">
        <ele>244.80000305176</ele>
        <time>2024-05-20T07:33:48.000Z</time>
      </trkpt>
      <trkpt lat="46.62989" lon="4.68482">
        <ele>244.80000305176</ele>
        <time>2024-05-20T07:33:49.000Z</time>
      </trkpt>
      <trkpt lat="46.62983" lon="4.68479">
        <ele>244.80000305176</ele>
        <time>2024-05-20T07:33:50.000Z</time>
      </trkpt>
      <trkpt lat="46.62978" lon="4.68476">
        <ele>244.80000305176</ele>
        <time>2024-05-20T07:33:51.000Z</time>
      </trkpt>
      <trkpt lat="46.62973" lon="4.68474">
        <ele>244.80000305176</ele>
        <time>2024-05-20T07:33:52.000Z</time>
      </trkpt>
      <trkpt lat="46.62968" lon="4.68471">
        <ele>244.80000305176</ele>
        <time>2024-05-20T07:33:53.000Z</time>
      </trkpt>
      <trkpt lat="46.62962" lon="4.68469">
        <ele>244.80000305176</ele>
        <time>2024-05-20T07:33:54.000Z</time>
      </trkpt>
      <trkpt lat="46.62957" lon="4.68466">
        <ele>244.80000305176</ele>
        <time>2024-05-20T07:33:55.000Z</time>
      </trkpt>
      <trkpt lat="46.62953" lon="4.68464">
        <ele>244.60000610352</ele>
        <time>2024-05-20T07:33:56.000Z</time>
      </trkpt>
      <trkpt lat="46.62948" lon="4.68462">
        <ele>244.60000610352</ele>
        <time>2024-05-20T07:33:57.000Z</time>
      </trkpt>
      <trkpt lat="46.62944" lon="4.6846">
        <ele>244.60000610352</ele>
        <time>2024-05-20T07:33:58.000Z</time>
      </trkpt>
      <trkpt lat="46.62941" lon="4.68457">
        <ele>244.60000610352</ele>
        <time>2024-05-20T07:33:59.000Z</time>
      </trkpt>
      <trkpt lat="46.62937" lon="4.68456">
        <ele>244.80000305176</ele>
        <time>2024-05-20T07:34:00.000Z</time>
      </trkpt>
      <trkpt lat="46.62933" lon="4.68455">
        <ele>244.80000305176</ele>
        <time>2024-05-20T07:34:01.000Z</time>
      </trkpt>
      <trkpt lat="46.6293" lon="4.68453">
        <ele>244.80000305176</ele>
        <time>2024-05-20T07:34:02.000Z</time>
      </trkpt>
      <trkpt lat="46.62926" lon="4.68451">
        <ele>244.80000305176</ele>
        <time>2024-05-20T07:34:03.000Z</time>
      </trkpt>
      <trkpt lat="46.62921" lon="4.68448">
        <ele>244.80000305176</ele>
        <time>2024-05-20T07:34:04.000Z</time>
      </trkpt>
      <trkpt lat="46.62917" lon="4.68446">
        <ele>244.80000305176</ele>
        <time>2024-05-20T07:34:05.000Z</time>
      </trkpt>
      <trkpt lat="46.62912" lon="4.68444">
        <ele>244.80000305176</ele>
        <time>2024-05-20T07:34:06.000Z</time>
      </trkpt>
      <trkpt lat="46.62907" lon="4.68442">
        <ele>244.60000610352</ele>
        <time>2024-05-20T07:34:07.000Z</time>
      </trkpt>
      <trkpt lat="46.62902" lon="4.68439">
        <ele>244.39999389648</ele>
        <time>2024-05-20T07:34:08.000Z</time>
      </trkpt>
      <trkpt lat="46.62896" lon="4.68436">
        <ele>244.39999389648</ele>
        <time>2024-05-20T07:34:09.000Z</time>
      </trkpt>
      <trkpt lat="46.62891" lon="4.68434">
        <ele>244.19999694824</ele>
        <time>2024-05-20T07:34:10.000Z</time>
      </trkpt>
      <trkpt lat="46.62885" lon="4.68431">
        <ele>244.19999694824</ele>
        <time>2024-05-20T07:34:11.000Z</time>
      </trkpt>
      <trkpt lat="46.6288" lon="4.68428">
        <ele>244.19999694824</ele>
        <time>2024-05-20T07:34:12.000Z</time>
      </trkpt>
      <trkpt lat="46.62874" lon="4.68425">
        <ele>244.19999694824</ele>
        <time>2024-05-20T07:34:13.000Z</time>
      </trkpt>
      <trkpt lat="46.62869" lon="4.68422">
        <ele>244.19999694824</ele>
        <time>2024-05-20T07:34:14.000Z</time>
      </trkpt>
      <trkpt lat="46.62863" lon="4.68419">
        <ele>244.19999694824</ele>
        <time>2024-05-20T07:34:15.000Z</time>
      </trkpt>
      <trkpt lat="46.62857" lon="4.68416">
        <ele>244</ele>
        <time>2024-05-20T07:34:16.000Z</time>
      </trkpt>
      <trkpt lat="46.62851" lon="4.68413">
        <ele>244</ele>
        <time>2024-05-20T07:34:17.000Z</time>
      </trkpt>
      <trkpt lat="46.62846" lon="4.6841">
        <ele>244</ele>
        <time>2024-05-20T07:34:18.000Z</time>
      </trkpt>
      <trkpt lat="46.6284" lon="4.68407">
        <ele>244</ele>
        <time>2024-05-20T07:34:19.000Z</time>
      </trkpt>
      <trkpt lat="46.62834" lon="4.68404">
        <ele>244</ele>
        <time>2024-05-20T07:34:20.000Z</time>
      </trkpt>
      <trkpt lat="46.62828" lon="4.68401">
        <ele>244</ele>
        <time>2024-05-20T07:34:21.000Z</time>
      </trkpt>
      <trkpt lat="46.62822" lon="4.68398">
        <ele>244</ele>
        <time>2024-05-20T07:34:22.000Z</time>
      </trkpt>
      <trkpt lat="46.62815" lon="4.68395">
        <ele>244</ele>
        <time>2024-05-20T07:34:23.000Z</time>
      </trkpt>
      <trkpt lat="46.62809" lon="4.68392">
        <ele>244</ele>
        <time>2024-05-20T07:34:24.000Z</time>
      </trkpt>
      <trkpt lat="46.62803" lon="4.68389">
        <ele>244</ele>
        <time>2024-05-20T07:34:25.000Z</time>
      </trkpt>
      <trkpt lat="46.62797" lon="4.68386">
        <ele>244</ele>
        <time>2024-05-20T07:34:26.000Z</time>
      </trkpt>
      <trkpt lat="46.62791" lon="4.68382">
        <ele>243.80000305176</ele>
        <time>2024-05-20T07:34:27.000Z</time>
      </trkpt>
      <trkpt lat="46.62784" lon="4.68379">
        <ele>243.80000305176</ele>
        <time>2024-05-20T07:34:28.000Z</time>
      </trkpt>
      <trkpt lat="46.62778" lon="4.68376">
        <ele>243.80000305176</ele>
        <time>2024-05-20T07:34:29.000Z</time>
      </trkpt>
      <trkpt lat="46.62772" lon="4.68373">
        <ele>243.80000305176</ele>
        <time>2024-05-20T07:34:30.000Z</time>
      </trkpt>
      <trkpt lat="46.62765" lon="4.6837">
        <ele>243.60000610352</ele>
        <time>2024-05-20T07:34:31.000Z</time>
      </trkpt>
      <trkpt lat="46.62759" lon="4.68367">
        <ele>243.60000610352</ele>
        <time>2024-05-20T07:34:32.000Z</time>
      </trkpt>
      <trkpt lat="46.62752" lon="4.68364">
        <ele>243.60000610352</ele>
        <time>2024-05-20T07:34:33.000Z</time>
      </trkpt>
      <trkpt lat="46.62746" lon="4.68361">
        <ele>243.60000610352</ele>
        <time>2024-05-20T07:34:34.000Z</time>
      </trkpt>
      <trkpt lat="46.62739" lon="4.68358">
        <ele>243.39999389648</ele>
        <time>2024-05-20T07:34:35.000Z</time>
      </trkpt>
      <trkpt lat="46.62732" lon="4.68354">
        <ele>243.19999694824</ele>
        <time>2024-05-20T07:34:36.000Z</time>
      </trkpt>
      <trkpt lat="46.62725" lon="4.68351">
        <ele>243</ele>
        <time>2024-05-20T07:34:37.000Z</time>
      </trkpt>
      <trkpt lat="46.62719" lon="4.68348">
        <ele>243</ele>
        <time>2024-05-20T07:34:38.000Z</time>
      </trkpt>
      <trkpt lat="46.62712" lon="4.68344">
        <ele>243</ele>
        <time>2024-05-20T07:34:39.000Z</time>
      </trkpt>
      <trkpt lat="46.62705" lon="4.6834">
        <ele>242.80000305176</ele>
        <time>2024-05-20T07:34:40.000Z</time>
      </trkpt>
      <trkpt lat="46.62699" lon="4.68337">
        <ele>242.60000610352</ele>
        <time>2024-05-20T07:34:41.000Z</time>
      </trkpt>
      <trkpt lat="46.62692" lon="4.68334">
        <ele>242.39999389648</ele>
        <time>2024-05-20T07:34:42.000Z</time>
      </trkpt>
      <trkpt lat="46.62685" lon="4.68331">
        <ele>242.19999694824</ele>
        <time>2024-05-20T07:34:43.000Z</time>
      </trkpt>
      <trkpt lat="46.62678" lon="4.68327">
        <ele>242.19999694824</ele>
        <time>2024-05-20T07:34:44.000Z</time>
      </trkpt>
      <trkpt lat="46.62671" lon="4.68324">
        <ele>242</ele>
        <time>2024-05-20T07:34:45.000Z</time>
      </trkpt>
      <trkpt lat="46.62664" lon="4.6832">
        <ele>242</ele>
        <time>2024-05-20T07:34:46.000Z</time>
      </trkpt>
      <trkpt lat="46.62658" lon="4.68317">
        <ele>241.80000305176</ele>
        <time>2024-05-20T07:34:47.000Z</time>
      </trkpt>
      <trkpt lat="46.62651" lon="4.68313">
        <ele>241.60000610352</ele>
        <time>2024-05-20T07:34:48.000Z</time>
      </trkpt>
      <trkpt lat="46.62643" lon="4.6831">
        <ele>241.60000610352</ele>
        <time>2024-05-20T07:34:49.000Z</time>
      </trkpt>
      <trkpt lat="46.62636" lon="4.68307">
        <ele>241.39999389648</ele>
        <time>2024-05-20T07:34:50.000Z</time>
      </trkpt>
      <trkpt lat="46.62629" lon="4.68303">
        <ele>241.39999389648</ele>
        <time>2024-05-20T07:34:51.000Z</time>
      </trkpt>
      <trkpt lat="46.62622" lon="4.683">
        <ele>241.39999389648</ele>
        <time>2024-05-20T07:34:52.000Z</time>
      </trkpt>
      <trkpt lat="46.62615" lon="4.68296">
        <ele>241.19999694824</ele>
        <time>2024-05-20T07:34:53.000Z</time>
      </trkpt>
      <trkpt lat="46.62607" lon="4.68293">
        <ele>241</ele>
        <time>2024-05-20T07:34:54.000Z</time>
      </trkpt>
      <trkpt lat="46.626" lon="4.68289">
        <ele>240.80000305176</ele>
        <time>2024-05-20T07:34:55.000Z</time>
      </trkpt>
      <trkpt lat="46.62593" lon="4.68286">
        <ele>240.80000305176</ele>
        <time>2024-05-20T07:34:56.000Z</time>
      </trkpt>
      <trkpt lat="46.62585" lon="4.68283">
        <ele>240.80000305176</ele>
        <time>2024-05-20T07:34:57.000Z</time>
      </trkpt>
      <trkpt lat="46.62578" lon="4.68279">
        <ele>240.60000610352</ele>
        <time>2024-05-20T07:34:58.000Z</time>
      </trkpt>
      <trkpt lat="46.6257" lon="4.68276">
        <ele>240.39999389648</ele>
        <time>2024-05-20T07:34:59.000Z</time>
      </trkpt>
      <trkpt lat="46.62563" lon="4.68272">
        <ele>240.19999694824</ele>
        <time>2024-05-20T07:35:00.000Z</time>
      </trkpt>
      <trkpt lat="46.62555" lon="4.68269">
        <ele>240.19999694824</ele>
        <time>2024-05-20T07:35:01.000Z</time>
      </trkpt>
      <trkpt lat="46.62547" lon="4.68266">
        <ele>239.80000305176</ele>
        <time>2024-05-20T07:35:02.000Z</time>
      </trkpt>
      <trkpt lat="46.6254" lon="4.68263">
        <ele>239.60000610352</ele>
        <time>2024-05-20T07:35:03.000Z</time>
      </trkpt>
      <trkpt lat="46.62532" lon="4.6826">
        <ele>239.60000610352</ele>
        <time>2024-05-20T07:35:04.000Z</time>
      </trkpt>
      <trkpt lat="46.62525" lon="4.68257">
        <ele>239.60000610352</ele>
        <time>2024-05-20T07:35:05.000Z</time>
      </trkpt>
      <trkpt lat="46.62517" lon="4.68254">
        <ele>239.39999389648</ele>
        <time>2024-05-20T07:35:06.000Z</time>
      </trkpt>
      <trkpt lat="46.62509" lon="4.68252">
        <ele>239.19999694824</ele>
        <time>2024-05-20T07:35:07.000Z</time>
      </trkpt>
      <trkpt lat="46.62502" lon="4.68249">
        <ele>239.19999694824</ele>
        <time>2024-05-20T07:35:08.000Z</time>
      </trkpt>
      <trkpt lat="46.62494" lon="4.68246">
        <ele>239</ele>
        <time>2024-05-20T07:35:09.000Z</time>
      </trkpt>
      <trkpt lat="46.62486" lon="4.68243">
        <ele>238.80000305176</ele>
        <time>2024-05-20T07:35:10.000Z</time>
      </trkpt>
      <trkpt lat="46.62478" lon="4.6824">
        <ele>238.60000610352</ele>
        <time>2024-05-20T07:35:11.000Z</time>
      </trkpt>
      <trkpt lat="46.62471" lon="4.68238">
        <ele>238.60000610352</ele>
        <time>2024-05-20T07:35:12.000Z</time>
      </trkpt>
      <trkpt lat="46.62463" lon="4.68236">
        <ele>238.39999389648</ele>
        <time>2024-05-20T07:35:13.000Z</time>
      </trkpt>
      <trkpt lat="46.62455" lon="4.68233">
        <ele>238.39999389648</ele>
        <time>2024-05-20T07:35:14.000Z</time>
      </trkpt>
      <trkpt lat="46.62447" lon="4.68231">
        <ele>238.19999694824</ele>
        <time>2024-05-20T07:35:15.000Z</time>
      </trkpt>
      <trkpt lat="46.62439" lon="4.68229">
        <ele>238</ele>
        <time>2024-05-20T07:35:16.000Z</time>
      </trkpt>
      <trkpt lat="46.62432" lon="4.68227">
        <ele>237.80000305176</ele>
        <time>2024-05-20T07:35:17.000Z</time>
      </trkpt>
      <trkpt lat="46.62424" lon="4.68225">
        <ele>237.80000305176</ele>
        <time>2024-05-20T07:35:18.000Z</time>
      </trkpt>
      <trkpt lat="46.62415" lon="4.68223">
        <ele>237.80000305176</ele>
        <time>2024-05-20T07:35:19.000Z</time>
      </trkpt>
      <trkpt lat="46.62407" lon="4.68221">
        <ele>237.60000610352</ele>
        <time>2024-05-20T07:35:20.000Z</time>
      </trkpt>
      <trkpt lat="46.62399" lon="4.68219">
        <ele>237.60000610352</ele>
        <time>2024-05-20T07:35:21.000Z</time>
      </trkpt>
      <trkpt lat="46.62391" lon="4.68217">
        <ele>237.39999389648</ele>
        <time>2024-05-20T07:35:22.000Z</time>
      </trkpt>
      <trkpt lat="46.62383" lon="4.68215">
        <ele>237.19999694824</ele>
        <time>2024-05-20T07:35:23.000Z</time>
      </trkpt>
      <trkpt lat="46.62375" lon="4.68214">
        <ele>237</ele>
        <time>2024-05-20T07:35:24.000Z</time>
      </trkpt>
      <trkpt lat="46.62367" lon="4.68212">
        <ele>236.60000610352</ele>
        <time>2024-05-20T07:35:25.000Z</time>
      </trkpt>
      <trkpt lat="46.62358" lon="4.6821">
        <ele>236.39999389648</ele>
        <time>2024-05-20T07:35:26.000Z</time>
      </trkpt>
      <trkpt lat="46.6235" lon="4.68207">
        <ele>236.19999694824</ele>
        <time>2024-05-20T07:35:27.000Z</time>
      </trkpt>
      <trkpt lat="46.62341" lon="4.68205">
        <ele>236</ele>
        <time>2024-05-20T07:35:28.000Z</time>
      </trkpt>
      <trkpt lat="46.62333" lon="4.68202">
        <ele>236</ele>
        <time>2024-05-20T07:35:29.000Z</time>
      </trkpt>
      <trkpt lat="46.62325" lon="4.68201">
        <ele>236</ele>
        <time>2024-05-20T07:35:30.000Z</time>
      </trkpt>
      <trkpt lat="46.62316" lon="4.68199">
        <ele>235.80000305176</ele>
        <time>2024-05-20T07:35:31.000Z</time>
      </trkpt>
      <trkpt lat="46.62308" lon="4.68197">
        <ele>235.39999389648</ele>
        <time>2024-05-20T07:35:32.000Z</time>
      </trkpt>
      <trkpt lat="46.62299" lon="4.68194">
        <ele>235</ele>
        <time>2024-05-20T07:35:33.000Z</time>
      </trkpt>
      <trkpt lat="46.62291" lon="4.68192">
        <ele>235</ele>
        <time>2024-05-20T07:35:34.000Z</time>
      </trkpt>
      <trkpt lat="46.62282" lon="4.68189">
        <ele>234.80000305176</ele>
        <time>2024-05-20T07:35:35.000Z</time>
      </trkpt>
      <trkpt lat="46.62274" lon="4.68186">
        <ele>234.80000305176</ele>
        <time>2024-05-20T07:35:36.000Z</time>
      </trkpt>
      <trkpt lat="46.62265" lon="4.68184">
        <ele>234.80000305176</ele>
        <time>2024-05-20T07:35:37.000Z</time>
      </trkpt>
      <trkpt lat="46.62257" lon="4.68181">
        <ele>234.60000610352</ele>
        <time>2024-05-20T07:35:38.000Z</time>
      </trkpt>
      <trkpt lat="46.62248" lon="4.68179">
        <ele>234.19999694824</ele>
        <time>2024-05-20T07:35:39.000Z</time>
      </trkpt>
      <trkpt lat="46.6224" lon="4.68177">
        <ele>234.19999694824</ele>
        <time>2024-05-20T07:35:40.000Z</time>
      </trkpt>
      <trkpt lat="46.62231" lon="4.68174">
        <ele>234.19999694824</ele>
        <time>2024-05-20T07:35:41.000Z</time>
      </trkpt>
      <trkpt lat="46.62222" lon="4.68172">
        <ele>234</ele>
        <time>2024-05-20T07:35:42.000Z</time>
      </trkpt>
      <trkpt lat="46.62214" lon="4.6817">
        <ele>234</ele>
        <time>2024-05-20T07:35:43.000Z</time>
      </trkpt>
      <trkpt lat="46.62206" lon="4.68168">
        <ele>233.80000305176</ele>
        <time>2024-05-20T07:35:44.000Z</time>
      </trkpt>
      <trkpt lat="46.62197" lon="4.68166">
        <ele>233.60000610352</ele>
        <time>2024-05-20T07:35:45.000Z</time>
      </trkpt>
      <trkpt lat="46.62188" lon="4.68164">
        <ele>233.60000610352</ele>
        <time>2024-05-20T07:35:46.000Z</time>
      </trkpt>
      <trkpt lat="46.6218" lon="4.68162">
        <ele>233.39999389648</ele>
        <time>2024-05-20T07:35:47.000Z</time>
      </trkpt>
      <trkpt lat="46.62172" lon="4.6816">
        <ele>233.39999389648</ele>
        <time>2024-05-20T07:35:48.000Z</time>
      </trkpt>
      <trkpt lat="46.62163" lon="4.68157">
        <ele>233.19999694824</ele>
        <time>2024-05-20T07:35:49.000Z</time>
      </trkpt>
      <trkpt lat="46.62155" lon="4.68155">
        <ele>233</ele>
        <time>2024-05-20T07:35:50.000Z</time>
      </trkpt>
      <trkpt lat="46.62146" lon="4.68153">
        <ele>232.80000305176</ele>
        <time>2024-05-20T07:35:51.000Z</time>
      </trkpt>
      <trkpt lat="46.62138" lon="4.68151">
        <ele>232.80000305176</ele>
        <time>2024-05-20T07:35:52.000Z</time>
      </trkpt>
      <trkpt lat="46.62129" lon="4.68149">
        <ele>232.80000305176</ele>
        <time>2024-05-20T07:35:53.000Z</time>
      </trkpt>
      <trkpt lat="46.62121" lon="4.68147">
        <ele>232.60000610352</ele>
        <time>2024-05-20T07:35:54.000Z</time>
      </trkpt>
      <trkpt lat="46.62112" lon="4.68145">
        <ele>232.60000610352</ele>
        <time>2024-05-20T07:35:55.000Z</time>
      </trkpt>
      <trkpt lat="46.62104" lon="4.68143">
        <ele>232.19999694824</ele>
        <time>2024-05-20T07:35:56.000Z</time>
      </trkpt>
      <trkpt lat="46.62095" lon="4.68141">
        <ele>232.19999694824</ele>
        <time>2024-05-20T07:35:57.000Z</time>
      </trkpt>
      <trkpt lat="46.62087" lon="4.68138">
        <ele>231.80000305176</ele>
        <time>2024-05-20T07:35:58.000Z</time>
      </trkpt>
      <trkpt lat="46.62078" lon="4.68136">
        <ele>231.60000610352</ele>
        <time>2024-05-20T07:35:59.000Z</time>
      </trkpt>
      <trkpt lat="46.62069" lon="4.68134">
        <ele>231.60000610352</ele>
        <time>2024-05-20T07:36:00.000Z</time>
      </trkpt>
      <trkpt lat="46.62061" lon="4.68132">
        <ele>231.39999389648</ele>
        <time>2024-05-20T07:36:01.000Z</time>
      </trkpt>
      <trkpt lat="46.62052" lon="4.68129">
        <ele>231.39999389648</ele>
        <time>2024-05-20T07:36:02.000Z</time>
      </trkpt>
      <trkpt lat="46.62044" lon="4.68127">
        <ele>231.19999694824</ele>
        <time>2024-05-20T07:36:03.000Z</time>
      </trkpt>
      <trkpt lat="46.62035" lon="4.68125">
        <ele>231.19999694824</ele>
        <time>2024-05-20T07:36:04.000Z</time>
      </trkpt>
      <trkpt lat="46.62027" lon="4.68123">
        <ele>230.80000305176</ele>
        <time>2024-05-20T07:36:05.000Z</time>
      </trkpt>
      <trkpt lat="46.62019" lon="4.68121">
        <ele>230.60000610352</ele>
        <time>2024-05-20T07:36:06.000Z</time>
      </trkpt>
      <trkpt lat="46.6201" lon="4.68119">
        <ele>230.39999389648</ele>
        <time>2024-05-20T07:36:07.000Z</time>
      </trkpt>
      <trkpt lat="46.62001" lon="4.68117">
        <ele>230.39999389648</ele>
        <time>2024-05-20T07:36:08.000Z</time>
      </trkpt>
      <trkpt lat="46.61993" lon="4.68115">
        <ele>230.19999694824</ele>
        <time>2024-05-20T07:36:09.000Z</time>
      </trkpt>
      <trkpt lat="46.61985" lon="4.68113">
        <ele>230</ele>
        <time>2024-05-20T07:36:10.000Z</time>
      </trkpt>
      <trkpt lat="46.61976" lon="4.68111">
        <ele>230</ele>
        <time>2024-05-20T07:36:11.000Z</time>
      </trkpt>
      <trkpt lat="46.61968" lon="4.68109">
        <ele>229.80000305176</ele>
        <time>2024-05-20T07:36:12.000Z</time>
      </trkpt>
      <trkpt lat="46.61959" lon="4.68107">
        <ele>229.60000610352</ele>
        <time>2024-05-20T07:36:13.000Z</time>
      </trkpt>
      <trkpt lat="46.61951" lon="4.68104">
        <ele>229.39999389648</ele>
        <time>2024-05-20T07:36:14.000Z</time>
      </trkpt>
      <trkpt lat="46.61943" lon="4.68102">
        <ele>229.39999389648</ele>
        <time>2024-05-20T07:36:15.000Z</time>
      </trkpt>
      <trkpt lat="46.61935" lon="4.68099">
        <ele>229.19999694824</ele>
        <time>2024-05-20T07:36:16.000Z</time>
      </trkpt>
      <trkpt lat="46.61926" lon="4.68097">
        <ele>229</ele>
        <time>2024-05-20T07:36:17.000Z</time>
      </trkpt>
      <trkpt lat="46.61918" lon="4.68094">
        <ele>229</ele>
        <time>2024-05-20T07:36:18.000Z</time>
      </trkpt>
      <trkpt lat="46.6191" lon="4.68092">
        <ele>229</ele>
        <time>2024-05-20T07:36:19.000Z</time>
      </trkpt>
      <trkpt lat="46.61901" lon="4.6809">
        <ele>228.80000305176</ele>
        <time>2024-05-20T07:36:20.000Z</time>
      </trkpt>
      <trkpt lat="46.61893" lon="4.68087">
        <ele>228.80000305176</ele>
        <time>2024-05-20T07:36:21.000Z</time>
      </trkpt>
      <trkpt lat="46.61885" lon="4.68085">
        <ele>228.60000610352</ele>
        <time>2024-05-20T07:36:22.000Z</time>
      </trkpt>
      <trkpt lat="46.61877" lon="4.68083">
        <ele>228.60000610352</ele>
        <time>2024-05-20T07:36:23.000Z</time>
      </trkpt>
      <trkpt lat="46.6187" lon="4.68082">
        <ele>228.60000610352</ele>
        <time>2024-05-20T07:36:24.000Z</time>
      </trkpt>
      <trkpt lat="46.61862" lon="4.6808">
        <ele>228.39999389648</ele>
        <time>2024-05-20T07:36:25.000Z</time>
      </trkpt>
      <trkpt lat="46.61855" lon="4.68078">
        <ele>228.39999389648</ele>
        <time>2024-05-20T07:36:26.000Z</time>
      </trkpt>
      <trkpt lat="46.61847" lon="4.68076">
        <ele>228.60000610352</ele>
        <time>2024-05-20T07:36:27.000Z</time>
      </trkpt>
      <trkpt lat="46.6184" lon="4.68075">
        <ele>228.60000610352</ele>
        <time>2024-05-20T07:36:28.000Z</time>
      </trkpt>
      <trkpt lat="46.61832" lon="4.68073">
        <ele>228.60000610352</ele>
        <time>2024-05-20T07:36:29.000Z</time>
      </trkpt>
      <trkpt lat="46.61825" lon="4.68071">
        <ele>228.80000305176</ele>
        <time>2024-05-20T07:36:30.000Z</time>
      </trkpt>
      <trkpt lat="46.61818" lon="4.68069">
        <ele>228.80000305176</ele>
        <time>2024-05-20T07:36:31.000Z</time>
      </trkpt>
      <trkpt lat="46.61811" lon="4.68067">
        <ele>228.80000305176</ele>
        <time>2024-05-20T07:36:32.000Z</time>
      </trkpt>
      <trkpt lat="46.61804" lon="4.68065">
        <ele>229</ele>
        <time>2024-05-20T07:36:33.000Z</time>
      </trkpt>
      <trkpt lat="46.61797" lon="4.68063">
        <ele>229</ele>
        <time>2024-05-20T07:36:34.000Z</time>
      </trkpt>
      <trkpt lat="46.61789" lon="4.68062">
        <ele>229.19999694824</ele>
        <time>2024-05-20T07:36:35.000Z</time>
      </trkpt>
      <trkpt lat="46.61782" lon="4.6806">
        <ele>229.60000610352</ele>
        <time>2024-05-20T07:36:36.000Z</time>
      </trkpt>
      <trkpt lat="46.61775" lon="4.68058">
        <ele>229.60000610352</ele>
        <time>2024-05-20T07:36:37.000Z</time>
      </trkpt>
      <trkpt lat="46.61769" lon="4.68056">
        <ele>229.60000610352</ele>
        <time>2024-05-20T07:36:38.000Z</time>
      </trkpt>
      <trkpt lat="46.61762" lon="4.68055">
        <ele>229.80000305176</ele>
        <time>2024-05-20T07:36:39.000Z</time>
      </trkpt>
      <trkpt lat="46.61755" lon="4.68053">
        <ele>229.80000305176</ele>
        <time>2024-05-20T07:36:40.000Z</time>
      </trkpt>
      <trkpt lat="46.61749" lon="4.68051">
        <ele>230</ele>
        <time>2024-05-20T07:36:41.000Z</time>
      </trkpt>
      <trkpt lat="46.61742" lon="4.68049">
        <ele>230.19999694824</ele>
        <time>2024-05-20T07:36:42.000Z</time>
      </trkpt>
      <trkpt lat="46.61736" lon="4.68048">
        <ele>230.19999694824</ele>
        <time>2024-05-20T07:36:43.000Z</time>
      </trkpt>
      <trkpt lat="46.61729" lon="4.68046">
        <ele>230.39999389648</ele>
        <time>2024-05-20T07:36:44.000Z</time>
      </trkpt>
      <trkpt lat="46.61722" lon="4.68044">
        <ele>230.60000610352</ele>
        <time>2024-05-20T07:36:45.000Z</time>
      </trkpt>
      <trkpt lat="46.61716" lon="4.68042">
        <ele>230.80000305176</ele>
        <time>2024-05-20T07:36:46.000Z</time>
      </trkpt>
      <trkpt lat="46.61709" lon="4.6804">
        <ele>231</ele>
        <time>2024-05-20T07:36:47.000Z</time>
      </trkpt>
      <trkpt lat="46.61703" lon="4.68038">
        <ele>231</ele>
        <time>2024-05-20T07:36:48.000Z</time>
      </trkpt>
      <trkpt lat="46.61697" lon="4.68036">
        <ele>231.19999694824</ele>
        <time>2024-05-20T07:36:49.000Z</time>
      </trkpt>
      <trkpt lat="46.61691" lon="4.68034">
        <ele>231.19999694824</ele>
        <time>2024-05-20T07:36:50.000Z</time>
      </trkpt>
      <trkpt lat="46.61685" lon="4.68031">
        <ele>231.39999389648</ele>
        <time>2024-05-20T07:36:51.000Z</time>
      </trkpt>
      <trkpt lat="46.61679" lon="4.68029">
        <ele>231.39999389648</ele>
        <time>2024-05-20T07:36:52.000Z</time>
      </trkpt>
      <trkpt lat="46.61673" lon="4.68027">
        <ele>231.39999389648</ele>
        <time>2024-05-20T07:36:53.000Z</time>
      </trkpt>
      <trkpt lat="46.61666" lon="4.68024">
        <ele>231.60000610352</ele>
        <time>2024-05-20T07:36:54.000Z</time>
      </trkpt>
      <trkpt lat="46.61661" lon="4.68022">
        <ele>231.60000610352</ele>
        <time>2024-05-20T07:36:55.000Z</time>
      </trkpt>
      <trkpt lat="46.61655" lon="4.68019">
        <ele>231.80000305176</ele>
        <time>2024-05-20T07:36:56.000Z</time>
      </trkpt>
      <trkpt lat="46.61649" lon="4.68017">
        <ele>231.80000305176</ele>
        <time>2024-05-20T07:36:57.000Z</time>
      </trkpt>
      <trkpt lat="46.61643" lon="4.68014">
        <ele>232</ele>
        <time>2024-05-20T07:36:58.000Z</time>
      </trkpt>
      <trkpt lat="46.61637" lon="4.68011">
        <ele>232.19999694824</ele>
        <time>2024-05-20T07:36:59.000Z</time>
      </trkpt>
      <trkpt lat="46.61631" lon="4.68009">
        <ele>232.19999694824</ele>
        <time>2024-05-20T07:37:00.000Z</time>
      </trkpt>
      <trkpt lat="46.61626" lon="4.68006">
        <ele>232.39999389648</ele>
        <time>2024-05-20T07:37:01.000Z</time>
      </trkpt>
      <trkpt lat="46.6162" lon="4.68003">
        <ele>232.39999389648</ele>
        <time>2024-05-20T07:37:02.000Z</time>
      </trkpt>
      <trkpt lat="46.61614" lon="4.68001">
        <ele>232.60000610352</ele>
        <time>2024-05-20T07:37:03.000Z</time>
      </trkpt>
      <trkpt lat="46.61608" lon="4.67998">
        <ele>232.60000610352</ele>
        <time>2024-05-20T07:37:04.000Z</time>
      </trkpt>
      <trkpt lat="46.61603" lon="4.67995">
        <ele>232.60000610352</ele>
        <time>2024-05-20T07:37:05.000Z</time>
      </trkpt>
      <trkpt lat="46.61597" lon="4.67992">
        <ele>232.60000610352</ele>
        <time>2024-05-20T07:37:06.000Z</time>
      </trkpt>
      <trkpt lat="46.61592" lon="4.67989">
        <ele>232.60000610352</ele>
        <time>2024-05-20T07:37:07.000Z</time>
      </trkpt>
      <trkpt lat="46.61586" lon="4.67987">
        <ele>232.60000610352</ele>
        <time>2024-05-20T07:37:08.000Z</time>
      </trkpt>
      <trkpt lat="46.61581" lon="4.67984">
        <ele>232.80000305176</ele>
        <time>2024-05-20T07:37:09.000Z</time>
      </trkpt>
      <trkpt lat="46.61575" lon="4.67981">
        <ele>232.80000305176</ele>
        <time>2024-05-20T07:37:10.000Z</time>
      </trkpt>
      <trkpt lat="46.6157" lon="4.67978">
        <ele>233</ele>
        <time>2024-05-20T07:37:11.000Z</time>
      </trkpt>
      <trkpt lat="46.61564" lon="4.67975">
        <ele>233.19999694824</ele>
        <time>2024-05-20T07:37:12.000Z</time>
      </trkpt>
      <trkpt lat="46.61559" lon="4.67972">
        <ele>233.19999694824</ele>
        <time>2024-05-20T07:37:13.000Z</time>
      </trkpt>
      <trkpt lat="46.61554" lon="4.67969">
        <ele>233.39999389648</ele>
        <time>2024-05-20T07:37:14.000Z</time>
      </trkpt>
      <trkpt lat="46.61548" lon="4.67966">
        <ele>233.39999389648</ele>
        <time>2024-05-20T07:37:15.000Z</time>
      </trkpt>
      <trkpt lat="46.61543" lon="4.67962">
        <ele>233.39999389648</ele>
        <time>2024-05-20T07:37:16.000Z</time>
      </trkpt>
      <trkpt lat="46.61537" lon="4.67959">
        <ele>233.60000610352</ele>
        <time>2024-05-20T07:37:17.000Z</time>
      </trkpt>
      <trkpt lat="46.61531" lon="4.67956">
        <ele>233.60000610352</ele>
        <time>2024-05-20T07:37:18.000Z</time>
      </trkpt>
      <trkpt lat="46.61526" lon="4.67953">
        <ele>233.80000305176</ele>
        <time>2024-05-20T07:37:19.000Z</time>
      </trkpt>
      <trkpt lat="46.61521" lon="4.6795">
        <ele>233.80000305176</ele>
        <time>2024-05-20T07:37:20.000Z</time>
      </trkpt>
      <trkpt lat="46.61515" lon="4.67947">
        <ele>233.80000305176</ele>
        <time>2024-05-20T07:37:21.000Z</time>
      </trkpt>
      <trkpt lat="46.6151" lon="4.67943">
        <ele>234</ele>
        <time>2024-05-20T07:37:22.000Z</time>
      </trkpt>
      <trkpt lat="46.61505" lon="4.67941">
        <ele>234</ele>
        <time>2024-05-20T07:37:23.000Z</time>
      </trkpt>
      <trkpt lat="46.615" lon="4.67937">
        <ele>234</ele>
        <time>2024-05-20T07:37:24.000Z</time>
      </trkpt>
      <trkpt lat="46.61494" lon="4.67934">
        <ele>234</ele>
        <time>2024-05-20T07:37:25.000Z</time>
      </trkpt>
      <trkpt lat="46.61489" lon="4.6793">
        <ele>234.19999694824</ele>
        <time>2024-05-20T07:37:26.000Z</time>
      </trkpt>
      <trkpt lat="46.61484" lon="4.67927">
        <ele>234.39999389648</ele>
        <time>2024-05-20T07:37:27.000Z</time>
      </trkpt>
      <trkpt lat="46.61479" lon="4.67923">
        <ele>234.60000610352</ele>
        <time>2024-05-20T07:37:28.000Z</time>
      </trkpt>
      <trkpt lat="46.61474" lon="4.6792">
        <ele>234.60000610352</ele>
        <time>2024-05-20T07:37:29.000Z</time>
      </trkpt>
      <trkpt lat="46.61469" lon="4.67917">
        <ele>234.80000305176</ele>
        <time>2024-05-20T07:37:30.000Z</time>
      </trkpt>
      <trkpt lat="46.61464" lon="4.67913">
        <ele>234.80000305176</ele>
        <time>2024-05-20T07:37:31.000Z</time>
      </trkpt>
      <trkpt lat="46.61459" lon="4.6791">
        <ele>235</ele>
        <time>2024-05-20T07:37:32.000Z</time>
      </trkpt>
      <trkpt lat="46.61454" lon="4.67906">
        <ele>235</ele>
        <time>2024-05-20T07:37:33.000Z</time>
      </trkpt>
      <trkpt lat="46.61449" lon="4.67903">
        <ele>235</ele>
        <time>2024-05-20T07:37:34.000Z</time>
      </trkpt>
      <trkpt lat="46.61444" lon="4.67899">
        <ele>235.19999694824</ele>
        <time>2024-05-20T07:37:35.000Z</time>
      </trkpt>
      <trkpt lat="46.61439" lon="4.67896">
        <ele>235.39999389648</ele>
        <time>2024-05-20T07:37:36.000Z</time>
      </trkpt>
      <trkpt lat="46.61434" lon="4.67892">
        <ele>235.39999389648</ele>
        <time>2024-05-20T07:37:37.000Z</time>
      </trkpt>
      <trkpt lat="46.61429" lon="4.67888">
        <ele>235.39999389648</ele>
        <time>2024-05-20T07:37:38.000Z</time>
      </trkpt>
      <trkpt lat="46.61424" lon="4.67884">
        <ele>235.39999389648</ele>
        <time>2024-05-20T07:37:39.000Z</time>
      </trkpt>
      <trkpt lat="46.61419" lon="4.67881">
        <ele>235.60000610352</ele>
        <time>2024-05-20T07:37:40.000Z</time>
      </trkpt>
      <trkpt lat="46.61414" lon="4.67877">
        <ele>235.60000610352</ele>
        <time>2024-05-20T07:37:41.000Z</time>
      </trkpt>
      <trkpt lat="46.61409" lon="4.67873">
        <ele>235.80000305176</ele>
        <time>2024-05-20T07:37:42.000Z</time>
      </trkpt>
      <trkpt lat="46.61404" lon="4.67869">
        <ele>235.80000305176</ele>
        <time>2024-05-20T07:37:43.000Z</time>
      </trkpt>
      <trkpt lat="46.61399" lon="4.67866">
        <ele>236</ele>
        <time>2024-05-20T07:37:44.000Z</time>
      </trkpt>
      <trkpt lat="46.61395" lon="4.67862">
        <ele>236.19999694824</ele>
        <time>2024-05-20T07:37:45.000Z</time>
      </trkpt>
      <trkpt lat="46.6139" lon="4.67858">
        <ele>236.19999694824</ele>
        <time>2024-05-20T07:37:46.000Z</time>
      </trkpt>
      <trkpt lat="46.61385" lon="4.67854">
        <ele>236.19999694824</ele>
        <time>2024-05-20T07:37:47.000Z</time>
      </trkpt>
      <trkpt lat="46.6138" lon="4.6785">
        <ele>236.39999389648</ele>
        <time>2024-05-20T07:37:48.000Z</time>
      </trkpt>
      <trkpt lat="46.61376" lon="4.67846">
        <ele>236.39999389648</ele>
        <time>2024-05-20T07:37:49.000Z</time>
      </trkpt>
      <trkpt lat="46.61371" lon="4.67843">
        <ele>236.39999389648</ele>
        <time>2024-05-20T07:37:50.000Z</time>
      </trkpt>
      <trkpt lat="46.61367" lon="4.67839">
        <ele>236.39999389648</ele>
        <time>2024-05-20T07:37:51.000Z</time>
      </trkpt>
      <trkpt lat="46.61362" lon="4.67835">
        <ele>236.39999389648</ele>
        <time>2024-05-20T07:37:52.000Z</time>
      </trkpt>
      <trkpt lat="46.61358" lon="4.67831">
        <ele>236.60000610352</ele>
        <time>2024-05-20T07:37:53.000Z</time>
      </trkpt>
      <trkpt lat="46.61353" lon="4.67827">
        <ele>236.80000305176</ele>
        <time>2024-05-20T07:37:54.000Z</time>
      </trkpt>
      <trkpt lat="46.61349" lon="4.67823">
        <ele>236.80000305176</ele>
        <time>2024-05-20T07:37:55.000Z</time>
      </trkpt>
      <trkpt lat="46.61344" lon="4.67819">
        <ele>236.80000305176</ele>
        <time>2024-05-20T07:37:56.000Z</time>
      </trkpt>
      <trkpt lat="46.6134" lon="4.67815">
        <ele>237</ele>
        <time>2024-05-20T07:37:57.000Z</time>
      </trkpt>
      <trkpt lat="46.61335" lon="4.6781">
        <ele>237.19999694824</ele>
        <time>2024-05-20T07:37:58.000Z</time>
      </trkpt>
      <trkpt lat="46.61331" lon="4.67806">
        <ele>237.19999694824</ele>
        <time>2024-05-20T07:37:59.000Z</time>
      </trkpt>
      <trkpt lat="46.61326" lon="4.67802">
        <ele>237.19999694824</ele>
        <time>2024-05-20T07:38:00.000Z</time>
      </trkpt>
      <trkpt lat="46.61322" lon="4.67799">
        <ele>237.19999694824</ele>
        <time>2024-05-20T07:38:01.000Z</time>
      </trkpt>
      <trkpt lat="46.61317" lon="4.67794">
        <ele>237.39999389648</ele>
        <time>2024-05-20T07:38:02.000Z</time>
      </trkpt>
      <trkpt lat="46.61313" lon="4.6779">
        <ele>237.39999389648</ele>
        <time>2024-05-20T07:38:03.000Z</time>
      </trkpt>
      <trkpt lat="46.61308" lon="4.67786">
        <ele>237.60000610352</ele>
        <time>2024-05-20T07:38:04.000Z</time>
      </trkpt>
      <trkpt lat="46.61303" lon="4.67782">
        <ele>237.80000305176</ele>
        <time>2024-05-20T07:38:05.000Z</time>
      </trkpt>
      <trkpt lat="46.61299" lon="4.67778">
        <ele>238</ele>
        <time>2024-05-20T07:38:06.000Z</time>
      </trkpt>
      <trkpt lat="46.61294" lon="4.67773">
        <ele>238</ele>
        <time>2024-05-20T07:38:07.000Z</time>
      </trkpt>
      <trkpt lat="46.6129" lon="4.67769">
        <ele>238</ele>
        <time>2024-05-20T07:38:08.000Z</time>
      </trkpt>
      <trkpt lat="46.61285" lon="4.67765">
        <ele>238.19999694824</ele>
        <time>2024-05-20T07:38:09.000Z</time>
      </trkpt>
      <trkpt lat="46.61281" lon="4.67761">
        <ele>238.39999389648</ele>
        <time>2024-05-20T07:38:10.000Z</time>
      </trkpt>
      <trkpt lat="46.61276" lon="4.67757">
        <ele>238.39999389648</ele>
        <time>2024-05-20T07:38:11.000Z</time>
      </trkpt>
      <trkpt lat="46.61272" lon="4.67753">
        <ele>238.60000610352</ele>
        <time>2024-05-20T07:38:12.000Z</time>
      </trkpt>
      <trkpt lat="46.61268" lon="4.67749">
        <ele>238.80000305176</ele>
        <time>2024-05-20T07:38:13.000Z</time>
      </trkpt>
      <trkpt lat="46.61263" lon="4.67745">
        <ele>238.80000305176</ele>
        <time>2024-05-20T07:38:14.000Z</time>
      </trkpt>
      <trkpt lat="46.61258" lon="4.6774">
        <ele>238.80000305176</ele>
        <time>2024-05-20T07:38:15.000Z</time>
      </trkpt>
      <trkpt lat="46.61254" lon="4.67736">
        <ele>239</ele>
        <time>2024-05-20T07:38:16.000Z</time>
      </trkpt>
      <trkpt lat="46.6125" lon="4.67732">
        <ele>239</ele>
        <time>2024-05-20T07:38:17.000Z</time>
      </trkpt>
      <trkpt lat="46.61245" lon="4.67727">
        <ele>239</ele>
        <time>2024-05-20T07:38:18.000Z</time>
      </trkpt>
      <trkpt lat="46.61241" lon="4.67723">
        <ele>239.19999694824</ele>
        <time>2024-05-20T07:38:19.000Z</time>
      </trkpt>
      <trkpt lat="46.61236" lon="4.67718">
        <ele>239.19999694824</ele>
        <time>2024-05-20T07:38:20.000Z</time>
      </trkpt>
      <trkpt lat="46.61232" lon="4.67714">
        <ele>239.39999389648</ele>
        <time>2024-05-20T07:38:21.000Z</time>
      </trkpt>
      <trkpt lat="46.61228" lon="4.6771">
        <ele>239.39999389648</ele>
        <time>2024-05-20T07:38:22.000Z</time>
      </trkpt>
      <trkpt lat="46.61224" lon="4.67706">
        <ele>239.60000610352</ele>
        <time>2024-05-20T07:38:23.000Z</time>
      </trkpt>
      <trkpt lat="46.6122" lon="4.67701">
        <ele>239.60000610352</ele>
        <time>2024-05-20T07:38:24.000Z</time>
      </trkpt>
      <trkpt lat="46.61217" lon="4.67698">
        <ele>239.60000610352</ele>
        <time>2024-05-20T07:38:25.000Z</time>
      </trkpt>
      <trkpt lat="46.61214" lon="4.67693">
        <ele>239.60000610352</ele>
        <time>2024-05-20T07:38:26.000Z</time>
      </trkpt>
      <trkpt lat="46.61211" lon="4.67688">
        <ele>239.60000610352</ele>
        <time>2024-05-20T07:38:27.000Z</time>
      </trkpt>
      <trkpt lat="46.61208" lon="4.67683">
        <ele>239.60000610352</ele>
        <time>2024-05-20T07:38:28.000Z</time>
      </trkpt>
      <trkpt lat="46.61205" lon="4.67679">
        <ele>239.60000610352</ele>
        <time>2024-05-20T07:38:29.000Z</time>
      </trkpt>
      <trkpt lat="46.61202" lon="4.67675">
        <ele>239.39999389648</ele>
        <time>2024-05-20T07:38:30.000Z</time>
      </trkpt>
      <trkpt lat="46.612" lon="4.67674">
        <ele>239.39999389648</ele>
        <time>2024-05-20T07:38:31.000Z</time>
      </trkpt>
      <trkpt lat="46.61197" lon="4.67674">
        <ele>239</ele>
        <time>2024-05-20T07:38:32.000Z</time>
      </trkpt>
      <trkpt lat="46.61195" lon="4.67675">
        <ele>239</ele>
        <time>2024-05-20T07:38:33.000Z</time>
      </trkpt>
      <trkpt lat="46.61193" lon="4.67675">
        <ele>238.80000305176</ele>
        <time>2024-05-20T07:38:34.000Z</time>
      </trkpt>
      <trkpt lat="46.6119" lon="4.67677">
        <ele>238.60000610352</ele>
        <time>2024-05-20T07:38:35.000Z</time>
      </trkpt>
      <trkpt lat="46.61188" lon="4.67679">
        <ele>238.60000610352</ele>
        <time>2024-05-20T07:38:36.000Z</time>
      </trkpt>
      <trkpt lat="46.61185" lon="4.67679">
        <ele>238.60000610352</ele>
        <time>2024-05-20T07:38:37.000Z</time>
      </trkpt>
      <trkpt lat="46.61183" lon="4.67678">
        <ele>238.60000610352</ele>
        <time>2024-05-20T07:38:38.000Z</time>
      </trkpt>
      <trkpt lat="46.61182" lon="4.67675">
        <ele>238.60000610352</ele>
        <time>2024-05-20T07:38:39.000Z</time>
      </trkpt>
      <trkpt lat="46.61181" lon="4.67671">
        <ele>238.80000305176</ele>
        <time>2024-05-20T07:38:40.000Z</time>
      </trkpt>
      <trkpt lat="46.61179" lon="4.67667">
        <ele>239</ele>
        <time>2024-05-20T07:38:41.000Z</time>
      </trkpt>
      <trkpt lat="46.61177" lon="4.67663">
        <ele>239.19999694824</ele>
        <time>2024-05-20T07:38:42.000Z</time>
      </trkpt>
      <trkpt lat="46.61175" lon="4.67658">
        <ele>239.19999694824</ele>
        <time>2024-05-20T07:38:43.000Z</time>
      </trkpt>
      <trkpt lat="46.61173" lon="4.67653">
        <ele>239.39999389648</ele>
        <time>2024-05-20T07:38:44.000Z</time>
      </trkpt>
      <trkpt lat="46.61172" lon="4.67648">
        <ele>239.39999389648</ele>
        <time>2024-05-20T07:38:45.000Z</time>
      </trkpt>
      <trkpt lat="46.6117" lon="4.67643">
        <ele>239.60000610352</ele>
        <time>2024-05-20T07:38:46.000Z</time>
      </trkpt>
      <trkpt lat="46.61167" lon="4.67639">
        <ele>239.80000305176</ele>
        <time>2024-05-20T07:38:47.000Z</time>
      </trkpt>
      <trkpt lat="46.61164" lon="4.67635">
        <ele>240</ele>
        <time>2024-05-20T07:38:48.000Z</time>
      </trkpt>
      <trkpt lat="46.61161" lon="4.67631">
        <ele>240</ele>
        <time>2024-05-20T07:38:49.000Z</time>
      </trkpt>
      <trkpt lat="46.61158" lon="4.67627">
        <ele>240</ele>
        <time>2024-05-20T07:38:50.000Z</time>
      </trkpt>
      <trkpt lat="46.61154" lon="4.67622">
        <ele>240.19999694824</ele>
        <time>2024-05-20T07:38:51.000Z</time>
      </trkpt>
      <trkpt lat="46.61151" lon="4.67618">
        <ele>240.19999694824</ele>
        <time>2024-05-20T07:38:52.000Z</time>
      </trkpt>
      <trkpt lat="46.61148" lon="4.67613">
        <ele>240</ele>
        <time>2024-05-20T07:38:53.000Z</time>
      </trkpt>
      <trkpt lat="46.61144" lon="4.67608">
        <ele>240</ele>
        <time>2024-05-20T07:38:54.000Z</time>
      </trkpt>
      <trkpt lat="46.61141" lon="4.67603">
        <ele>240</ele>
        <time>2024-05-20T07:38:55.000Z</time>
      </trkpt>
      <trkpt lat="46.61137" lon="4.67598">
        <ele>240</ele>
        <time>2024-05-20T07:38:56.000Z</time>
      </trkpt>
      <trkpt lat="46.61134" lon="4.67593">
        <ele>240</ele>
        <time>2024-05-20T07:38:57.000Z</time>
      </trkpt>
      <trkpt lat="46.6113" lon="4.67588">
        <ele>240</ele>
        <time>2024-05-20T07:38:58.000Z</time>
      </trkpt>
      <trkpt lat="46.61126" lon="4.67582">
        <ele>240</ele>
        <time>2024-05-20T07:38:59.000Z</time>
      </trkpt>
      <trkpt lat="46.61123" lon="4.67577">
        <ele>240</ele>
        <time>2024-05-20T07:39:00.000Z</time>
      </trkpt>
      <trkpt lat="46.61119" lon="4.67572">
        <ele>240</ele>
        <time>2024-05-20T07:39:01.000Z</time>
      </trkpt>
      <trkpt lat="46.61115" lon="4.67566">
        <ele>240</ele>
        <time>2024-05-20T07:39:02.000Z</time>
      </trkpt>
      <trkpt lat="46.61111" lon="4.6756">
        <ele>240</ele>
        <time>2024-05-20T07:39:03.000Z</time>
      </trkpt>
      <trkpt lat="46.61108" lon="4.67555">
        <ele>240</ele>
        <time>2024-05-20T07:39:04.000Z</time>
      </trkpt>
      <trkpt lat="46.61104" lon="4.67549">
        <ele>240</ele>
        <time>2024-05-20T07:39:05.000Z</time>
      </trkpt>
      <trkpt lat="46.611" lon="4.67542">
        <ele>240</ele>
        <time>2024-05-20T07:39:06.000Z</time>
      </trkpt>
      <trkpt lat="46.61096" lon="4.67536">
        <ele>240</ele>
        <time>2024-05-20T07:39:07.000Z</time>
      </trkpt>
      <trkpt lat="46.61093" lon="4.6753">
        <ele>240</ele>
        <time>2024-05-20T07:39:08.000Z</time>
      </trkpt>
      <trkpt lat="46.61089" lon="4.67524">
        <ele>240.19999694824</ele>
        <time>2024-05-20T07:39:09.000Z</time>
      </trkpt>
      <trkpt lat="46.61085" lon="4.67518">
        <ele>240.19999694824</ele>
        <time>2024-05-20T07:39:10.000Z</time>
      </trkpt>
      <trkpt lat="46.61081" lon="4.67511">
        <ele>240.19999694824</ele>
        <time>2024-05-20T07:39:11.000Z</time>
      </trkpt>
      <trkpt lat="46.61077" lon="4.67505">
        <ele>240.19999694824</ele>
        <time>2024-05-20T07:39:12.000Z</time>
      </trkpt>
      <trkpt lat="46.61073" lon="4.67498">
        <ele>240</ele>
        <time>2024-05-20T07:39:13.000Z</time>
      </trkpt>
      <trkpt lat="46.61069" lon="4.67492">
        <ele>240</ele>
        <time>2024-05-20T07:39:14.000Z</time>
      </trkpt>
      <trkpt lat="46.61065" lon="4.67485">
        <ele>240</ele>
        <time>2024-05-20T07:39:15.000Z</time>
      </trkpt>
      <trkpt lat="46.61061" lon="4.67478">
        <ele>240</ele>
        <time>2024-05-20T07:39:16.000Z</time>
      </trkpt>
      <trkpt lat="46.61057" lon="4.67472">
        <ele>239.80000305176</ele>
        <time>2024-05-20T07:39:17.000Z</time>
      </trkpt>
      <trkpt lat="46.61052" lon="4.67465">
        <ele>239.80000305176</ele>
        <time>2024-05-20T07:39:18.000Z</time>
      </trkpt>
      <trkpt lat="46.61048" lon="4.67458">
        <ele>239.80000305176</ele>
        <time>2024-05-20T07:39:19.000Z</time>
      </trkpt>
      <trkpt lat="46.61044" lon="4.67452">
        <ele>239.80000305176</ele>
        <time>2024-05-20T07:39:20.000Z</time>
      </trkpt>
      <trkpt lat="46.6104" lon="4.67445">
        <ele>239.80000305176</ele>
        <time>2024-05-20T07:39:21.000Z</time>
      </trkpt>
      <trkpt lat="46.61036" lon="4.67438">
        <ele>239.80000305176</ele>
        <time>2024-05-20T07:39:22.000Z</time>
      </trkpt>
      <trkpt lat="46.61031" lon="4.67431">
        <ele>239.60000610352</ele>
        <time>2024-05-20T07:39:23.000Z</time>
      </trkpt>
      <trkpt lat="46.61027" lon="4.67424">
        <ele>239.39999389648</ele>
        <time>2024-05-20T07:39:24.000Z</time>
      </trkpt>
      <trkpt lat="46.61023" lon="4.67417">
        <ele>239.39999389648</ele>
        <time>2024-05-20T07:39:25.000Z</time>
      </trkpt>
      <trkpt lat="46.61019" lon="4.6741">
        <ele>239.19999694824</ele>
        <time>2024-05-20T07:39:26.000Z</time>
      </trkpt>
      <trkpt lat="46.61014" lon="4.67403">
        <ele>239</ele>
        <time>2024-05-20T07:39:27.000Z</time>
      </trkpt>
      <trkpt lat="46.6101" lon="4.67396">
        <ele>239</ele>
        <time>2024-05-20T07:39:28.000Z</time>
      </trkpt>
      <trkpt lat="46.61006" lon="4.67389">
        <ele>238.80000305176</ele>
        <time>2024-05-20T07:39:29.000Z</time>
      </trkpt>
      <trkpt lat="46.61001" lon="4.67382">
        <ele>238.80000305176</ele>
        <time>2024-05-20T07:39:30.000Z</time>
      </trkpt>
      <trkpt lat="46.60997" lon="4.67375">
        <ele>238.80000305176</ele>
        <time>2024-05-20T07:39:31.000Z</time>
      </trkpt>
      <trkpt lat="46.60993" lon="4.67368">
        <ele>238.60000610352</ele>
        <time>2024-05-20T07:39:32.000Z</time>
      </trkpt>
      <trkpt lat="46.60989" lon="4.67361">
        <ele>238.39999389648</ele>
        <time>2024-05-20T07:39:33.000Z</time>
      </trkpt>
      <trkpt lat="46.60985" lon="4.67354">
        <ele>238.19999694824</ele>
        <time>2024-05-20T07:39:34.000Z</time>
      </trkpt>
      <trkpt lat="46.6098" lon="4.67348">
        <ele>238</ele>
        <time>2024-05-20T07:39:35.000Z</time>
      </trkpt>
      <trkpt lat="46.60976" lon="4.67341">
        <ele>238</ele>
        <time>2024-05-20T07:39:36.000Z</time>
      </trkpt>
      <trkpt lat="46.60972" lon="4.67334">
        <ele>237.80000305176</ele>
        <time>2024-05-20T07:39:37.000Z</time>
      </trkpt>
      <trkpt lat="46.60968" lon="4.67328">
        <ele>237.80000305176</ele>
        <time>2024-05-20T07:39:38.000Z</time>
      </trkpt>
      <trkpt lat="46.60964" lon="4.67321">
        <ele>237.80000305176</ele>
        <time>2024-05-20T07:39:39.000Z</time>
      </trkpt>
      <trkpt lat="46.6096" lon="4.67315">
        <ele>237.80000305176</ele>
        <time>2024-05-20T07:39:40.000Z</time>
      </trkpt>
      <trkpt lat="46.60956" lon="4.67309">
        <ele>237.80000305176</ele>
        <time>2024-05-20T07:39:41.000Z</time>
      </trkpt>
      <trkpt lat="46.60952" lon="4.67302">
        <ele>237.80000305176</ele>
        <time>2024-05-20T07:39:42.000Z</time>
      </trkpt>
      <trkpt lat="46.60948" lon="4.67296">
        <ele>237.60000610352</ele>
        <time>2024-05-20T07:39:43.000Z</time>
      </trkpt>
      <trkpt lat="46.60944" lon="4.6729">
        <ele>237.60000610352</ele>
        <time>2024-05-20T07:39:44.000Z</time>
      </trkpt>
      <trkpt lat="46.6094" lon="4.67283">
        <ele>237.39999389648</ele>
        <time>2024-05-20T07:39:45.000Z</time>
      </trkpt>
      <trkpt lat="46.60936" lon="4.67277">
        <ele>237.39999389648</ele>
        <time>2024-05-20T07:39:46.000Z</time>
      </trkpt>
      <trkpt lat="46.60932" lon="4.6727">
        <ele>237.19999694824</ele>
        <time>2024-05-20T07:39:47.000Z</time>
      </trkpt>
      <trkpt lat="46.60929" lon="4.67263">
        <ele>237.19999694824</ele>
        <time>2024-05-20T07:39:48.000Z</time>
      </trkpt>
      <trkpt lat="46.60925" lon="4.67257">
        <ele>237.19999694824</ele>
        <time>2024-05-20T07:39:49.000Z</time>
      </trkpt>
      <trkpt lat="46.6092" lon="4.6725">
        <ele>237.19999694824</ele>
        <time>2024-05-20T07:39:50.000Z</time>
      </trkpt>
      <trkpt lat="46.60916" lon="4.67244">
        <ele>237</ele>
        <time>2024-05-20T07:39:51.000Z</time>
      </trkpt>
      <trkpt lat="46.60912" lon="4.67238">
        <ele>237</ele>
        <time>2024-05-20T07:39:52.000Z</time>
      </trkpt>
      <trkpt lat="46.60909" lon="4.67231">
        <ele>236.80000305176</ele>
        <time>2024-05-20T07:39:53.000Z</time>
      </trkpt>
      <trkpt lat="46.60905" lon="4.67225">
        <ele>236.80000305176</ele>
        <time>2024-05-20T07:39:54.000Z</time>
      </trkpt>
      <trkpt lat="46.60901" lon="4.67219">
        <ele>236.60000610352</ele>
        <time>2024-05-20T07:39:55.000Z</time>
      </trkpt>
      <trkpt lat="46.60897" lon="4.67213">
        <ele>236.39999389648</ele>
        <time>2024-05-20T07:39:56.000Z</time>
      </trkpt>
      <trkpt lat="46.60893" lon="4.67207">
        <ele>236.19999694824</ele>
        <time>2024-05-20T07:39:57.000Z</time>
      </trkpt>
      <trkpt lat="46.60889" lon="4.67201">
        <ele>236.19999694824</ele>
        <time>2024-05-20T07:39:58.000Z</time>
      </trkpt>
      <trkpt lat="46.60886" lon="4.67196">
        <ele>236.19999694824</ele>
        <time>2024-05-20T07:39:59.000Z</time>
      </trkpt>
      <trkpt lat="46.60882" lon="4.67191">
        <ele>236.19999694824</ele>
        <time>2024-05-20T07:40:00.000Z</time>
      </trkpt>
      <trkpt lat="46.60878" lon="4.67186">
        <ele>236</ele>
        <time>2024-05-20T07:40:01.000Z</time>
      </trkpt>
      <trkpt lat="46.60874" lon="4.67181">
        <ele>236</ele>
        <time>2024-05-20T07:40:02.000Z</time>
      </trkpt>
      <trkpt lat="46.6087" lon="4.67176">
        <ele>236</ele>
        <time>2024-05-20T07:40:03.000Z</time>
      </trkpt>
      <trkpt lat="46.60866" lon="4.6717">
        <ele>235.80000305176</ele>
        <time>2024-05-20T07:40:04.000Z</time>
      </trkpt>
      <trkpt lat="46.60862" lon="4.67165">
        <ele>235.80000305176</ele>
        <time>2024-05-20T07:40:05.000Z</time>
      </trkpt>
      <trkpt lat="46.60858" lon="4.6716">
        <ele>235.60000610352</ele>
        <time>2024-05-20T07:40:06.000Z</time>
      </trkpt>
      <trkpt lat="46.60854" lon="4.67154">
        <ele>235.39999389648</ele>
        <time>2024-05-20T07:40:07.000Z</time>
      </trkpt>
      <trkpt lat="46.6085" lon="4.67149">
        <ele>235.39999389648</ele>
        <time>2024-05-20T07:40:08.000Z</time>
      </trkpt>
      <trkpt lat="46.60846" lon="4.67144">
        <ele>235.39999389648</ele>
        <time>2024-05-20T07:40:09.000Z</time>
      </trkpt>
      <trkpt lat="46.60842" lon="4.67138">
        <ele>235.19999694824</ele>
        <time>2024-05-20T07:40:10.000Z</time>
      </trkpt>
      <trkpt lat="46.60837" lon="4.67132">
        <ele>235.19999694824</ele>
        <time>2024-05-20T07:40:11.000Z</time>
      </trkpt>
      <trkpt lat="46.60833" lon="4.67126">
        <ele>235</ele>
        <time>2024-05-20T07:40:12.000Z</time>
      </trkpt>
      <trkpt lat="46.60829" lon="4.67119">
        <ele>235</ele>
        <time>2024-05-20T07:40:13.000Z</time>
      </trkpt>
      <trkpt lat="46.60825" lon="4.67112">
        <ele>235</ele>
        <time>2024-05-20T07:40:14.000Z</time>
      </trkpt>
      <trkpt lat="46.6082" lon="4.67106">
        <ele>234.80000305176</ele>
        <time>2024-05-20T07:40:15.000Z</time>
      </trkpt>
      <trkpt lat="46.60816" lon="4.67099">
        <ele>234.80000305176</ele>
        <time>2024-05-20T07:40:16.000Z</time>
      </trkpt>
      <trkpt lat="46.60812" lon="4.67092">
        <ele>234.60000610352</ele>
        <time>2024-05-20T07:40:17.000Z</time>
      </trkpt>
      <trkpt lat="46.60807" lon="4.67085">
        <ele>234.60000610352</ele>
        <time>2024-05-20T07:40:18.000Z</time>
      </trkpt>
      <trkpt lat="46.60803" lon="4.67078">
        <ele>234.60000610352</ele>
        <time>2024-05-20T07:40:19.000Z</time>
      </trkpt>
      <trkpt lat="46.60799" lon="4.67071">
        <ele>234.39999389648</ele>
        <time>2024-05-20T07:40:20.000Z</time>
      </trkpt>
      <trkpt lat="46.60794" lon="4.67064">
        <ele>234.39999389648</ele>
        <time>2024-05-20T07:40:21.000Z</time>
      </trkpt>
      <trkpt lat="46.6079" lon="4.67056">
        <ele>234.39999389648</ele>
        <time>2024-05-20T07:40:22.000Z</time>
      </trkpt>
      <trkpt lat="46.60786" lon="4.6705">
        <ele>234.39999389648</ele>
        <time>2024-05-20T07:40:23.000Z</time>
      </trkpt>
      <trkpt lat="46.60781" lon="4.67043">
        <ele>234.39999389648</ele>
        <time>2024-05-20T07:40:24.000Z</time>
      </trkpt>
      <trkpt lat="46.60777" lon="4.67036">
        <ele>234.39999389648</ele>
        <time>2024-05-20T07:40:25.000Z</time>
      </trkpt>
      <trkpt lat="46.60773" lon="4.67029">
        <ele>234.39999389648</ele>
        <time>2024-05-20T07:40:26.000Z</time>
      </trkpt>
      <trkpt lat="46.60769" lon="4.67022">
        <ele>234.19999694824</ele>
        <time>2024-05-20T07:40:27.000Z</time>
      </trkpt>
      <trkpt lat="46.60764" lon="4.67015">
        <ele>234.39999389648</ele>
        <time>2024-05-20T07:40:28.000Z</time>
      </trkpt>
      <trkpt lat="46.6076" lon="4.67009">
        <ele>234.19999694824</ele>
        <time>2024-05-20T07:40:29.000Z</time>
      </trkpt>
      <trkpt lat="46.60756" lon="4.67002">
        <ele>234.19999694824</ele>
        <time>2024-05-20T07:40:30.000Z</time>
      </trkpt>
      <trkpt lat="46.60752" lon="4.66995">
        <ele>234.19999694824</ele>
        <time>2024-05-20T07:40:31.000Z</time>
      </trkpt>
      <trkpt lat="46.60748" lon="4.66988">
        <ele>234.39999389648</ele>
        <time>2024-05-20T07:40:32.000Z</time>
      </trkpt>
      <trkpt lat="46.60744" lon="4.66981">
        <ele>234.39999389648</ele>
        <time>2024-05-20T07:40:33.000Z</time>
      </trkpt>
      <trkpt lat="46.60739" lon="4.66975">
        <ele>234.39999389648</ele>
        <time>2024-05-20T07:40:34.000Z</time>
      </trkpt>
      <trkpt lat="46.60735" lon="4.66968">
        <ele>234.39999389648</ele>
        <time>2024-05-20T07:40:35.000Z</time>
      </trkpt>
      <trkpt lat="46.60731" lon="4.66962">
        <ele>234.39999389648</ele>
        <time>2024-05-20T07:40:36.000Z</time>
      </trkpt>
      <trkpt lat="46.60726" lon="4.66955">
        <ele>234.39999389648</ele>
        <time>2024-05-20T07:40:37.000Z</time>
      </trkpt>
      <trkpt lat="46.60723" lon="4.66948">
        <ele>234.39999389648</ele>
        <time>2024-05-20T07:40:38.000Z</time>
      </trkpt>
      <trkpt lat="46.60719" lon="4.66942">
        <ele>234.19999694824</ele>
        <time>2024-05-20T07:40:39.000Z</time>
      </trkpt>
      <trkpt lat="46.60714" lon="4.66935">
        <ele>234.19999694824</ele>
        <time>2024-05-20T07:40:40.000Z</time>
      </trkpt>
      <trkpt lat="46.6071" lon="4.66929">
        <ele>234.19999694824</ele>
        <time>2024-05-20T07:40:41.000Z</time>
      </trkpt>
      <trkpt lat="46.60706" lon="4.66923">
        <ele>234.19999694824</ele>
        <time>2024-05-20T07:40:42.000Z</time>
      </trkpt>
      <trkpt lat="46.60703" lon="4.66917">
        <ele>234.19999694824</ele>
        <time>2024-05-20T07:40:43.000Z</time>
      </trkpt>
      <trkpt lat="46.60699" lon="4.66911">
        <ele>234.19999694824</ele>
        <time>2024-05-20T07:40:44.000Z</time>
      </trkpt>
      <trkpt lat="46.60695" lon="4.66905">
        <ele>234.19999694824</ele>
        <time>2024-05-20T07:40:45.000Z</time>
      </trkpt>
      <trkpt lat="46.60692" lon="4.669">
        <ele>234.19999694824</ele>
        <time>2024-05-20T07:40:46.000Z</time>
      </trkpt>
      <trkpt lat="46.60688" lon="4.66894">
        <ele>234.19999694824</ele>
        <time>2024-05-20T07:40:47.000Z</time>
      </trkpt>
      <trkpt lat="46.60685" lon="4.66889">
        <ele>234.19999694824</ele>
        <time>2024-05-20T07:40:48.000Z</time>
      </trkpt>
      <trkpt lat="46.60681" lon="4.66884">
        <ele>234.39999389648</ele>
        <time>2024-05-20T07:40:49.000Z</time>
      </trkpt>
      <trkpt lat="46.60678" lon="4.6688">
        <ele>234.39999389648</ele>
        <time>2024-05-20T07:40:50.000Z</time>
      </trkpt>
      <trkpt lat="46.60674" lon="4.66875">
        <ele>234.39999389648</ele>
        <time>2024-05-20T07:40:51.000Z</time>
      </trkpt>
      <trkpt lat="46.60671" lon="4.6687">
        <ele>234.39999389648</ele>
        <time>2024-05-20T07:40:52.000Z</time>
      </trkpt>
      <trkpt lat="46.60667" lon="4.66866">
        <ele>234.60000610352</ele>
        <time>2024-05-20T07:40:53.000Z</time>
      </trkpt>
      <trkpt lat="46.60664" lon="4.66862">
        <ele>234.60000610352</ele>
        <time>2024-05-20T07:40:54.000Z</time>
      </trkpt>
      <trkpt lat="46.60661" lon="4.66859">
        <ele>234.60000610352</ele>
        <time>2024-05-20T07:40:55.000Z</time>
      </trkpt>
      <trkpt lat="46.60658" lon="4.66856">
        <ele>234.60000610352</ele>
        <time>2024-05-20T07:40:56.000Z</time>
      </trkpt>
      <trkpt lat="46.60655" lon="4.66853">
        <ele>234.60000610352</ele>
        <time>2024-05-20T07:40:57.000Z</time>
      </trkpt>
      <trkpt lat="46.60652" lon="4.66849">
        <ele>234.60000610352</ele>
        <time>2024-05-20T07:40:58.000Z</time>
      </trkpt>
      <trkpt lat="46.60649" lon="4.66846">
        <ele>234.60000610352</ele>
        <time>2024-05-20T07:40:59.000Z</time>
      </trkpt>
      <trkpt lat="46.60645" lon="4.66843">
        <ele>234.39999389648</ele>
        <time>2024-05-20T07:41:00.000Z</time>
      </trkpt>
      <trkpt lat="46.60642" lon="4.6684">
        <ele>234.39999389648</ele>
        <time>2024-05-20T07:41:01.000Z</time>
      </trkpt>
      <trkpt lat="46.60639" lon="4.66837">
        <ele>234.39999389648</ele>
        <time>2024-05-20T07:41:02.000Z</time>
      </trkpt>
      <trkpt lat="46.60636" lon="4.66834">
        <ele>234.39999389648</ele>
        <time>2024-05-20T07:41:03.000Z</time>
      </trkpt>
      <trkpt lat="46.60633" lon="4.6683">
        <ele>234.39999389648</ele>
        <time>2024-05-20T07:41:04.000Z</time>
      </trkpt>
      <trkpt lat="46.60629" lon="4.66827">
        <ele>234.39999389648</ele>
        <time>2024-05-20T07:41:05.000Z</time>
      </trkpt>
      <trkpt lat="46.60626" lon="4.66823">
        <ele>234.39999389648</ele>
        <time>2024-05-20T07:41:06.000Z</time>
      </trkpt>
      <trkpt lat="46.60622" lon="4.6682">
        <ele>234.39999389648</ele>
        <time>2024-05-20T07:41:07.000Z</time>
      </trkpt>
      <trkpt lat="46.60618" lon="4.66816">
        <ele>234.19999694824</ele>
        <time>2024-05-20T07:41:08.000Z</time>
      </trkpt>
      <trkpt lat="46.60614" lon="4.66813">
        <ele>234.19999694824</ele>
        <time>2024-05-20T07:41:09.000Z</time>
      </trkpt>
      <trkpt lat="46.60609" lon="4.6681">
        <ele>234.19999694824</ele>
        <time>2024-05-20T07:41:10.000Z</time>
      </trkpt>
      <trkpt lat="46.60605" lon="4.66807">
        <ele>234.19999694824</ele>
        <time>2024-05-20T07:41:11.000Z</time>
      </trkpt>
      <trkpt lat="46.60601" lon="4.66805">
        <ele>234.19999694824</ele>
        <time>2024-05-20T07:41:12.000Z</time>
      </trkpt>
      <trkpt lat="46.60596" lon="4.66802">
        <ele>234</ele>
        <time>2024-05-20T07:41:13.000Z</time>
      </trkpt>
      <trkpt lat="46.60592" lon="4.66799">
        <ele>234</ele>
        <time>2024-05-20T07:41:14.000Z</time>
      </trkpt>
      <trkpt lat="46.60587" lon="4.66796">
        <ele>234</ele>
        <time>2024-05-20T07:41:15.000Z</time>
      </trkpt>
      <trkpt lat="46.60583" lon="4.66793">
        <ele>234</ele>
        <time>2024-05-20T07:41:16.000Z</time>
      </trkpt>
      <trkpt lat="46.60578" lon="4.6679">
        <ele>234</ele>
        <time>2024-05-20T07:41:17.000Z</time>
      </trkpt>
      <trkpt lat="46.60574" lon="4.66787">
        <ele>233.80000305176</ele>
        <time>2024-05-20T07:41:18.000Z</time>
      </trkpt>
      <trkpt lat="46.60569" lon="4.66785">
        <ele>233.80000305176</ele>
        <time>2024-05-20T07:41:19.000Z</time>
      </trkpt>
      <trkpt lat="46.60564" lon="4.66782">
        <ele>233.80000305176</ele>
        <time>2024-05-20T07:41:20.000Z</time>
      </trkpt>
      <trkpt lat="46.6056" lon="4.66779">
        <ele>233.80000305176</ele>
        <time>2024-05-20T07:41:21.000Z</time>
      </trkpt>
      <trkpt lat="46.60555" lon="4.66777">
        <ele>233.80000305176</ele>
        <time>2024-05-20T07:41:22.000Z</time>
      </trkpt>
      <trkpt lat="46.6055" lon="4.66774">
        <ele>233.60000610352</ele>
        <time>2024-05-20T07:41:23.000Z</time>
      </trkpt>
      <trkpt lat="46.60545" lon="4.66771">
        <ele>233.60000610352</ele>
        <time>2024-05-20T07:41:24.000Z</time>
      </trkpt>
      <trkpt lat="46.6054" lon="4.66769">
        <ele>233.60000610352</ele>
        <time>2024-05-20T07:41:25.000Z</time>
      </trkpt>
      <trkpt lat="46.60535" lon="4.66766">
        <ele>233.60000610352</ele>
        <time>2024-05-20T07:41:26.000Z</time>
      </trkpt>
      <trkpt lat="46.60529" lon="4.66764">
        <ele>233.60000610352</ele>
        <time>2024-05-20T07:41:27.000Z</time>
      </trkpt>
      <trkpt lat="46.60524" lon="4.66762">
        <ele>233.60000610352</ele>
        <time>2024-05-20T07:41:28.000Z</time>
      </trkpt>
      <trkpt lat="46.60518" lon="4.6676">
        <ele>233.39999389648</ele>
        <time>2024-05-20T07:41:29.000Z</time>
      </trkpt>
      <trkpt lat="46.60512" lon="4.66758">
        <ele>233.39999389648</ele>
        <time>2024-05-20T07:41:30.000Z</time>
      </trkpt>
      <trkpt lat="46.60506" lon="4.66756">
        <ele>233.39999389648</ele>
        <time>2024-05-20T07:41:31.000Z</time>
      </trkpt>
      <trkpt lat="46.605" lon="4.66754">
        <ele>233.19999694824</ele>
        <time>2024-05-20T07:41:32.000Z</time>
      </trkpt>
      <trkpt lat="46.60494" lon="4.66753">
        <ele>233</ele>
        <time>2024-05-20T07:41:33.000Z</time>
      </trkpt>
      <trkpt lat="46.60488" lon="4.66751">
        <ele>232.80000305176</ele>
        <time>2024-05-20T07:41:34.000Z</time>
      </trkpt>
      <trkpt lat="46.60482" lon="4.6675">
        <ele>232.80000305176</ele>
        <time>2024-05-20T07:41:35.000Z</time>
      </trkpt>
      <trkpt lat="46.60476" lon="4.66749">
        <ele>232.39999389648</ele>
        <time>2024-05-20T07:41:36.000Z</time>
      </trkpt>
      <trkpt lat="46.6047" lon="4.66748">
        <ele>232.19999694824</ele>
        <time>2024-05-20T07:41:37.000Z</time>
      </trkpt>
      <trkpt lat="46.60464" lon="4.66747">
        <ele>232.19999694824</ele>
        <time>2024-05-20T07:41:38.000Z</time>
      </trkpt>
      <trkpt lat="46.60458" lon="4.66746">
        <ele>232.19999694824</ele>
        <time>2024-05-20T07:41:39.000Z</time>
      </trkpt>
      <trkpt lat="46.60452" lon="4.66746">
        <ele>232</ele>
        <time>2024-05-20T07:41:40.000Z</time>
      </trkpt>
      <trkpt lat="46.60446" lon="4.66747">
        <ele>232</ele>
        <time>2024-05-20T07:41:41.000Z</time>
      </trkpt>
      <trkpt lat="46.6044" lon="4.66747">
        <ele>231.80000305176</ele>
        <time>2024-05-20T07:41:42.000Z</time>
      </trkpt>
      <trkpt lat="46.60433" lon="4.66747">
        <ele>231.60000610352</ele>
        <time>2024-05-20T07:41:43.000Z</time>
      </trkpt>
      <trkpt lat="46.60427" lon="4.66748">
        <ele>231.60000610352</ele>
        <time>2024-05-20T07:41:44.000Z</time>
      </trkpt>
      <trkpt lat="46.60421" lon="4.66749">
        <ele>231.60000610352</ele>
        <time>2024-05-20T07:41:45.000Z</time>
      </trkpt>
      <trkpt lat="46.60415" lon="4.6675">
        <ele>231.60000610352</ele>
        <time>2024-05-20T07:41:46.000Z</time>
      </trkpt>
      <trkpt lat="46.6041" lon="4.6675">
        <ele>231.60000610352</ele>
        <time>2024-05-20T07:41:47.000Z</time>
      </trkpt>
      <trkpt lat="46.60404" lon="4.66751">
        <ele>231.39999389648</ele>
        <time>2024-05-20T07:41:48.000Z</time>
      </trkpt>
      <trkpt lat="46.60398" lon="4.66752">
        <ele>231.39999389648</ele>
        <time>2024-05-20T07:41:49.000Z</time>
      </trkpt>
      <trkpt lat="46.60392" lon="4.66754">
        <ele>231.39999389648</ele>
        <time>2024-05-20T07:41:50.000Z</time>
      </trkpt>
      <trkpt lat="46.60386" lon="4.66755">
        <ele>231.39999389648</ele>
        <time>2024-05-20T07:41:51.000Z</time>
      </trkpt>
      <trkpt lat="46.6038" lon="4.66757">
        <ele>231.39999389648</ele>
        <time>2024-05-20T07:41:52.000Z</time>
      </trkpt>
      <trkpt lat="46.60374" lon="4.66759">
        <ele>231.19999694824</ele>
        <time>2024-05-20T07:41:53.000Z</time>
      </trkpt>
      <trkpt lat="46.60368" lon="4.66761">
        <ele>231.19999694824</ele>
        <time>2024-05-20T07:41:54.000Z</time>
      </trkpt>
      <trkpt lat="46.60362" lon="4.66763">
        <ele>230.80000305176</ele>
        <time>2024-05-20T07:41:55.000Z</time>
      </trkpt>
      <trkpt lat="46.60356" lon="4.66765">
        <ele>230.80000305176</ele>
        <time>2024-05-20T07:41:56.000Z</time>
      </trkpt>
      <trkpt lat="46.6035" lon="4.66767">
        <ele>230.80000305176</ele>
        <time>2024-05-20T07:41:57.000Z</time>
      </trkpt>
      <trkpt lat="46.60344" lon="4.66769">
        <ele>230.19999694824</ele>
        <time>2024-05-20T07:41:58.000Z</time>
      </trkpt>
      <trkpt lat="46.60338" lon="4.66772">
        <ele>230.19999694824</ele>
        <time>2024-05-20T07:41:59.000Z</time>
      </trkpt>
      <trkpt lat="46.60332" lon="4.66775">
        <ele>230</ele>
        <time>2024-05-20T07:42:00.000Z</time>
      </trkpt>
      <trkpt lat="46.60326" lon="4.66778">
        <ele>230</ele>
        <time>2024-05-20T07:42:01.000Z</time>
      </trkpt>
      <trkpt lat="46.6032" lon="4.66781">
        <ele>229.80000305176</ele>
        <time>2024-05-20T07:42:02.000Z</time>
      </trkpt>
      <trkpt lat="46.60314" lon="4.66784">
        <ele>229.60000610352</ele>
        <time>2024-05-20T07:42:03.000Z</time>
      </trkpt>
      <trkpt lat="46.60308" lon="4.66787">
        <ele>229.60000610352</ele>
        <time>2024-05-20T07:42:04.000Z</time>
      </trkpt>
      <trkpt lat="46.60302" lon="4.66791">
        <ele>229.60000610352</ele>
        <time>2024-05-20T07:42:05.000Z</time>
      </trkpt>
      <trkpt lat="46.60297" lon="4.66795">
        <ele>229.39999389648</ele>
        <time>2024-05-20T07:42:06.000Z</time>
      </trkpt>
      <trkpt lat="46.60291" lon="4.66799">
        <ele>229.39999389648</ele>
        <time>2024-05-20T07:42:07.000Z</time>
      </trkpt>
      <trkpt lat="46.60285" lon="4.66803">
        <ele>229.39999389648</ele>
        <time>2024-05-20T07:42:08.000Z</time>
      </trkpt>
      <trkpt lat="46.60279" lon="4.66808">
        <ele>229.19999694824</ele>
        <time>2024-05-20T07:42:09.000Z</time>
      </trkpt>
      <trkpt lat="46.60273" lon="4.66813">
        <ele>229.19999694824</ele>
        <time>2024-05-20T07:42:10.000Z</time>
      </trkpt>
      <trkpt lat="46.60267" lon="4.66817">
        <ele>229.19999694824</ele>
        <time>2024-05-20T07:42:11.000Z</time>
      </trkpt>
      <trkpt lat="46.60262" lon="4.66822">
        <ele>229</ele>
        <time>2024-05-20T07:42:12.000Z</time>
      </trkpt>
      <trkpt lat="46.60256" lon="4.66827">
        <ele>229</ele>
        <time>2024-05-20T07:42:13.000Z</time>
      </trkpt>
      <trkpt lat="46.60251" lon="4.66832">
        <ele>228.80000305176</ele>
        <time>2024-05-20T07:42:14.000Z</time>
      </trkpt>
      <trkpt lat="46.60245" lon="4.66836">
        <ele>228.80000305176</ele>
        <time>2024-05-20T07:42:15.000Z</time>
      </trkpt>
      <trkpt lat="46.6024" lon="4.66841">
        <ele>228.60000610352</ele>
        <time>2024-05-20T07:42:16.000Z</time>
      </trkpt>
      <trkpt lat="46.60235" lon="4.66846">
        <ele>228.39999389648</ele>
        <time>2024-05-20T07:42:17.000Z</time>
      </trkpt>
      <trkpt lat="46.60229" lon="4.66852">
        <ele>228.39999389648</ele>
        <time>2024-05-20T07:42:18.000Z</time>
      </trkpt>
      <trkpt lat="46.60224" lon="4.66857">
        <ele>228</ele>
        <time>2024-05-20T07:42:19.000Z</time>
      </trkpt>
      <trkpt lat="46.60218" lon="4.66861">
        <ele>228</ele>
        <time>2024-05-20T07:42:20.000Z</time>
      </trkpt>
      <trkpt lat="46.60213" lon="4.66866">
        <ele>228</ele>
        <time>2024-05-20T07:42:21.000Z</time>
      </trkpt>
      <trkpt lat="46.60207" lon="4.66871">
        <ele>227.80000305176</ele>
        <time>2024-05-20T07:42:22.000Z</time>
      </trkpt>
      <trkpt lat="46.60202" lon="4.66877">
        <ele>227.60000610352</ele>
        <time>2024-05-20T07:42:23.000Z</time>
      </trkpt>
      <trkpt lat="46.60196" lon="4.66882">
        <ele>227.39999389648</ele>
        <time>2024-05-20T07:42:24.000Z</time>
      </trkpt>
      <trkpt lat="46.60191" lon="4.66887">
        <ele>227.39999389648</ele>
        <time>2024-05-20T07:42:25.000Z</time>
      </trkpt>
      <trkpt lat="46.60185" lon="4.66892">
        <ele>227.19999694824</ele>
        <time>2024-05-20T07:42:26.000Z</time>
      </trkpt>
      <trkpt lat="46.6018" lon="4.66897">
        <ele>227</ele>
        <time>2024-05-20T07:42:27.000Z</time>
      </trkpt>
      <trkpt lat="46.60174" lon="4.66901">
        <ele>226.80000305176</ele>
        <time>2024-05-20T07:42:28.000Z</time>
      </trkpt>
      <trkpt lat="46.60169" lon="4.66906">
        <ele>226.80000305176</ele>
        <time>2024-05-20T07:42:29.000Z</time>
      </trkpt>
      <trkpt lat="46.60164" lon="4.66911">
        <ele>226.60000610352</ele>
        <time>2024-05-20T07:42:30.000Z</time>
      </trkpt>
      <trkpt lat="46.60158" lon="4.66916">
        <ele>226.60000610352</ele>
        <time>2024-05-20T07:42:31.000Z</time>
      </trkpt>
      <trkpt lat="46.60153" lon="4.66921">
        <ele>226.60000610352</ele>
        <time>2024-05-20T07:42:32.000Z</time>
      </trkpt>
      <trkpt lat="46.60147" lon="4.66927">
        <ele>226.60000610352</ele>
        <time>2024-05-20T07:42:33.000Z</time>
      </trkpt>
      <trkpt lat="46.60142" lon="4.66932">
        <ele>226.39999389648</ele>
        <time>2024-05-20T07:42:34.000Z</time>
      </trkpt>
      <trkpt lat="46.60136" lon="4.66937">
        <ele>226.19999694824</ele>
        <time>2024-05-20T07:42:35.000Z</time>
      </trkpt>
      <trkpt lat="46.60131" lon="4.66942">
        <ele>226.19999694824</ele>
        <time>2024-05-20T07:42:36.000Z</time>
      </trkpt>
      <trkpt lat="46.60126" lon="4.66946">
        <ele>226</ele>
        <time>2024-05-20T07:42:37.000Z</time>
      </trkpt>
      <trkpt lat="46.6012" lon="4.66951">
        <ele>226</ele>
        <time>2024-05-20T07:42:38.000Z</time>
      </trkpt>
      <trkpt lat="46.60115" lon="4.66956">
        <ele>225.80000305176</ele>
        <time>2024-05-20T07:42:39.000Z</time>
      </trkpt>
      <trkpt lat="46.6011" lon="4.66961">
        <ele>225.80000305176</ele>
        <time>2024-05-20T07:42:40.000Z</time>
      </trkpt>
      <trkpt lat="46.60105" lon="4.66966">
        <ele>225.80000305176</ele>
        <time>2024-05-20T07:42:41.000Z</time>
      </trkpt>
      <trkpt lat="46.601" lon="4.6697">
        <ele>225.80000305176</ele>
        <time>2024-05-20T07:42:42.000Z</time>
      </trkpt>
      <trkpt lat="46.60096" lon="4.66975">
        <ele>225.60000610352</ele>
        <time>2024-05-20T07:42:43.000Z</time>
      </trkpt>
      <trkpt lat="46.60092" lon="4.66979">
        <ele>225.60000610352</ele>
        <time>2024-05-20T07:42:44.000Z</time>
      </trkpt>
      <trkpt lat="46.60088" lon="4.66981">
        <ele>225.60000610352</ele>
        <time>2024-05-20T07:42:45.000Z</time>
      </trkpt>
      <trkpt lat="46.60084" lon="4.66983">
        <ele>225.60000610352</ele>
        <time>2024-05-20T07:42:46.000Z</time>
      </trkpt>
      <trkpt lat="46.60082" lon="4.66985">
        <ele>225.60000610352</ele>
        <time>2024-05-20T07:42:47.000Z</time>
      </trkpt>
      <trkpt lat="46.6008" lon="4.66988">
        <ele>225.60000610352</ele>
        <time>2024-05-20T07:42:48.000Z</time>
      </trkpt>
      <trkpt lat="46.60078" lon="4.6699">
        <ele>225.60000610352</ele>
        <time>2024-05-20T07:42:49.000Z</time>
      </trkpt>
      <trkpt lat="46.60076" lon="4.66992">
        <ele>225.80000305176</ele>
        <time>2024-05-20T07:42:50.000Z</time>
      </trkpt>
      <trkpt lat="46.60074" lon="4.66995">
        <ele>225.80000305176</ele>
        <time>2024-05-20T07:42:51.000Z</time>
      </trkpt>
      <trkpt lat="46.60072" lon="4.66996">
        <ele>225.80000305176</ele>
        <time>2024-05-20T07:42:52.000Z</time>
      </trkpt>
      <trkpt lat="46.60069" lon="4.66998">
        <ele>225.80000305176</ele>
        <time>2024-05-20T07:42:53.000Z</time>
      </trkpt>
      <trkpt lat="46.60065" lon="4.67">
        <ele>225.80000305176</ele>
        <time>2024-05-20T07:42:54.000Z</time>
      </trkpt>
      <trkpt lat="46.60062" lon="4.67004">
        <ele>225.80000305176</ele>
        <time>2024-05-20T07:42:55.000Z</time>
      </trkpt>
      <trkpt lat="46.60059" lon="4.67007">
        <ele>225.60000610352</ele>
        <time>2024-05-20T07:42:56.000Z</time>
      </trkpt>
      <trkpt lat="46.60055" lon="4.67011">
        <ele>225.19999694824</ele>
        <time>2024-05-20T07:42:57.000Z</time>
      </trkpt>
      <trkpt lat="46.60051" lon="4.67014">
        <ele>225</ele>
        <time>2024-05-20T07:42:58.000Z</time>
      </trkpt>
      <trkpt lat="46.60047" lon="4.67017">
        <ele>224.80000305176</ele>
        <time>2024-05-20T07:42:59.000Z</time>
      </trkpt>
      <trkpt lat="46.60043" lon="4.67021">
        <ele>224.60000610352</ele>
        <time>2024-05-20T07:43:00.000Z</time>
      </trkpt>
      <trkpt lat="46.60039" lon="4.67026">
        <ele>224.60000610352</ele>
        <time>2024-05-20T07:43:01.000Z</time>
      </trkpt>
      <trkpt lat="46.60034" lon="4.67029">
        <ele>224.39999389648</ele>
        <time>2024-05-20T07:43:02.000Z</time>
      </trkpt>
      <trkpt lat="46.6003" lon="4.67033">
        <ele>224.39999389648</ele>
        <time>2024-05-20T07:43:03.000Z</time>
      </trkpt>
      <trkpt lat="46.60025" lon="4.67037">
        <ele>224.39999389648</ele>
        <time>2024-05-20T07:43:04.000Z</time>
      </trkpt>
      <trkpt lat="46.6002" lon="4.67041">
        <ele>224.39999389648</ele>
        <time>2024-05-20T07:43:05.000Z</time>
      </trkpt>
      <trkpt lat="46.60016" lon="4.67046">
        <ele>224.39999389648</ele>
        <time>2024-05-20T07:43:06.000Z</time>
      </trkpt>
      <trkpt lat="46.60011" lon="4.6705">
        <ele>224.19999694824</ele>
        <time>2024-05-20T07:43:07.000Z</time>
      </trkpt>
      <trkpt lat="46.60006" lon="4.67054">
        <ele>224</ele>
        <time>2024-05-20T07:43:08.000Z</time>
      </trkpt>
      <trkpt lat="46.60001" lon="4.67059">
        <ele>223.80000305176</ele>
        <time>2024-05-20T07:43:09.000Z</time>
      </trkpt>
      <trkpt lat="46.59996" lon="4.67063">
        <ele>223.80000305176</ele>
        <time>2024-05-20T07:43:10.000Z</time>
      </trkpt>
      <trkpt lat="46.59991" lon="4.67068">
        <ele>223.60000610352</ele>
        <time>2024-05-20T07:43:11.000Z</time>
      </trkpt>
      <trkpt lat="46.59986" lon="4.67072">
        <ele>223.19999694824</ele>
        <time>2024-05-20T07:43:12.000Z</time>
      </trkpt>
      <trkpt lat="46.59981" lon="4.67077">
        <ele>223.19999694824</ele>
        <time>2024-05-20T07:43:13.000Z</time>
      </trkpt>
      <trkpt lat="46.59976" lon="4.67081">
        <ele>223</ele>
        <time>2024-05-20T07:43:14.000Z</time>
      </trkpt>
      <trkpt lat="46.59971" lon="4.67086">
        <ele>222.80000305176</ele>
        <time>2024-05-20T07:43:15.000Z</time>
      </trkpt>
      <trkpt lat="46.59966" lon="4.67091">
        <ele>222.80000305176</ele>
        <time>2024-05-20T07:43:16.000Z</time>
      </trkpt>
      <trkpt lat="46.59961" lon="4.67095">
        <ele>222.80000305176</ele>
        <time>2024-05-20T07:43:17.000Z</time>
      </trkpt>
      <trkpt lat="46.59956" lon="4.671">
        <ele>222.80000305176</ele>
        <time>2024-05-20T07:43:18.000Z</time>
      </trkpt>
      <trkpt lat="46.59951" lon="4.67104">
        <ele>222.60000610352</ele>
        <time>2024-05-20T07:43:19.000Z</time>
      </trkpt>
      <trkpt lat="46.59946" lon="4.67109">
        <ele>222.60000610352</ele>
        <time>2024-05-20T07:43:20.000Z</time>
      </trkpt>
      <trkpt lat="46.59942" lon="4.67113">
        <ele>222.60000610352</ele>
        <time>2024-05-20T07:43:21.000Z</time>
      </trkpt>
      <trkpt lat="46.59938" lon="4.67116">
        <ele>222.60000610352</ele>
        <time>2024-05-20T07:43:22.000Z</time>
      </trkpt>
      <trkpt lat="46.59935" lon="4.67119">
        <ele>222.60000610352</ele>
        <time>2024-05-20T07:43:23.000Z</time>
      </trkpt>
      <trkpt lat="46.59933" lon="4.67121">
        <ele>222.60000610352</ele>
        <time>2024-05-20T07:43:24.000Z</time>
      </trkpt>
      <trkpt lat="46.59931" lon="4.67123">
        <ele>222.60000610352</ele>
        <time>2024-05-20T07:43:25.000Z</time>
      </trkpt>
      <trkpt lat="46.59929" lon="4.67125">
        <ele>222.80000305176</ele>
        <time>2024-05-20T07:43:26.000Z</time>
      </trkpt>
      <trkpt lat="46.59928" lon="4.67126">
        <ele>222.80000305176</ele>
        <time>2024-05-20T07:43:27.000Z</time>
      </trkpt>
      <trkpt lat="46.59928" lon="4.67127">
        <ele>223</ele>
        <time>2024-05-20T07:43:28.000Z</time>
      </trkpt>
      <trkpt lat="46.59928" lon="4.67127">
        <ele>223</ele>
        <time>2024-05-20T07:43:29.000Z</time>
      </trkpt>
      <trkpt lat="46.59928" lon="4.67127">
        <ele>223</ele>
        <time>2024-05-20T07:43:30.000Z</time>
      </trkpt>
      <trkpt lat="46.59924" lon="4.6713">
        <ele>223</ele>
        <time>2024-05-20T07:43:35.000Z</time>
      </trkpt>
      <trkpt lat="46.59923" lon="4.67131">
        <ele>223</ele>
        <time>2024-05-20T07:43:36.000Z</time>
      </trkpt>
      <trkpt lat="46.59921" lon="4.67133">
        <ele>223</ele>
        <time>2024-05-20T07:43:37.000Z</time>
      </trkpt>
      <trkpt lat="46.59919" lon="4.67134">
        <ele>223</ele>
        <time>2024-05-20T07:43:38.000Z</time>
      </trkpt>
      <trkpt lat="46.59916" lon="4.67135">
        <ele>222.80000305176</ele>
        <time>2024-05-20T07:43:39.000Z</time>
      </trkpt>
      <trkpt lat="46.59912" lon="4.67138">
        <ele>222.80000305176</ele>
        <time>2024-05-20T07:43:40.000Z</time>
      </trkpt>
      <trkpt lat="46.59908" lon="4.67141">
        <ele>222.60000610352</ele>
        <time>2024-05-20T07:43:41.000Z</time>
      </trkpt>
      <trkpt lat="46.59904" lon="4.67145">
        <ele>222.60000610352</ele>
        <time>2024-05-20T07:43:42.000Z</time>
      </trkpt>
      <trkpt lat="46.599" lon="4.67149">
        <ele>222.39999389648</ele>
        <time>2024-05-20T07:43:43.000Z</time>
      </trkpt>
      <trkpt lat="46.59895" lon="4.67154">
        <ele>222.19999694824</ele>
        <time>2024-05-20T07:43:44.000Z</time>
      </trkpt>
      <trkpt lat="46.5989" lon="4.67158">
        <ele>222</ele>
        <time>2024-05-20T07:43:45.000Z</time>
      </trkpt>
      <trkpt lat="46.59885" lon="4.67163">
        <ele>221.80000305176</ele>
        <time>2024-05-20T07:43:46.000Z</time>
      </trkpt>
      <trkpt lat="46.5988" lon="4.67167">
        <ele>221.39999389648</ele>
        <time>2024-05-20T07:43:47.000Z</time>
      </trkpt>
      <trkpt lat="46.59875" lon="4.67172">
        <ele>221.39999389648</ele>
        <time>2024-05-20T07:43:48.000Z</time>
      </trkpt>
      <trkpt lat="46.5987" lon="4.67177">
        <ele>221.19999694824</ele>
        <time>2024-05-20T07:43:49.000Z</time>
      </trkpt>
      <trkpt lat="46.59864" lon="4.67181">
        <ele>221.19999694824</ele>
        <time>2024-05-20T07:43:50.000Z</time>
      </trkpt>
      <trkpt lat="46.59859" lon="4.67187">
        <ele>221</ele>
        <time>2024-05-20T07:43:51.000Z</time>
      </trkpt>
      <trkpt lat="46.59853" lon="4.67192">
        <ele>220.80000305176</ele>
        <time>2024-05-20T07:43:52.000Z</time>
      </trkpt>
      <trkpt lat="46.59848" lon="4.67197">
        <ele>220.80000305176</ele>
        <time>2024-05-20T07:43:53.000Z</time>
      </trkpt>
      <trkpt lat="46.59843" lon="4.67203">
        <ele>220.60000610352</ele>
        <time>2024-05-20T07:43:54.000Z</time>
      </trkpt>
      <trkpt lat="46.59837" lon="4.67208">
        <ele>220.60000610352</ele>
        <time>2024-05-20T07:43:55.000Z</time>
      </trkpt>
      <trkpt lat="46.59831" lon="4.67213">
        <ele>220.60000610352</ele>
        <time>2024-05-20T07:43:56.000Z</time>
      </trkpt>
      <trkpt lat="46.59826" lon="4.67219">
        <ele>220.60000610352</ele>
        <time>2024-05-20T07:43:57.000Z</time>
      </trkpt>
      <trkpt lat="46.5982" lon="4.67224">
        <ele>220.60000610352</ele>
        <time>2024-05-20T07:43:58.000Z</time>
      </trkpt>
      <trkpt lat="46.59814" lon="4.67229">
        <ele>220.60000610352</ele>
        <time>2024-05-20T07:43:59.000Z</time>
      </trkpt>
      <trkpt lat="46.59808" lon="4.67234">
        <ele>220.60000610352</ele>
        <time>2024-05-20T07:44:00.000Z</time>
      </trkpt>
      <trkpt lat="46.59802" lon="4.6724">
        <ele>220.39999389648</ele>
        <time>2024-05-20T07:44:01.000Z</time>
      </trkpt>
      <trkpt lat="46.59796" lon="4.67245">
        <ele>220.19999694824</ele>
        <time>2024-05-20T07:44:02.000Z</time>
      </trkpt>
      <trkpt lat="46.5979" lon="4.6725">
        <ele>220</ele>
        <time>2024-05-20T07:44:03.000Z</time>
      </trkpt>
      <trkpt lat="46.59784" lon="4.67256">
        <ele>220</ele>
        <time>2024-05-20T07:44:04.000Z</time>
      </trkpt>
      <trkpt lat="46.59778" lon="4.67261">
        <ele>219.80000305176</ele>
        <time>2024-05-20T07:44:05.000Z</time>
      </trkpt>
      <trkpt lat="46.59773" lon="4.67267">
        <ele>219.60000610352</ele>
        <time>2024-05-20T07:44:06.000Z</time>
      </trkpt>
      <trkpt lat="46.59766" lon="4.67272">
        <ele>219.39999389648</ele>
        <time>2024-05-20T07:44:07.000Z</time>
      </trkpt>
      <trkpt lat="46.5976" lon="4.67278">
        <ele>219.39999389648</ele>
        <time>2024-05-20T07:44:08.000Z</time>
      </trkpt>
      <trkpt lat="46.59754" lon="4.67284">
        <ele>219.19999694824</ele>
        <time>2024-05-20T07:44:09.000Z</time>
      </trkpt>
      <trkpt lat="46.59749" lon="4.6729">
        <ele>219</ele>
        <time>2024-05-20T07:44:10.000Z</time>
      </trkpt>
      <trkpt lat="46.59743" lon="4.67295">
        <ele>218.60000610352</ele>
        <time>2024-05-20T07:44:11.000Z</time>
      </trkpt>
      <trkpt lat="46.59737" lon="4.67301">
        <ele>218.39999389648</ele>
        <time>2024-05-20T07:44:12.000Z</time>
      </trkpt>
      <trkpt lat="46.59731" lon="4.67306">
        <ele>218.19999694824</ele>
        <time>2024-05-20T07:44:13.000Z</time>
      </trkpt>
      <trkpt lat="46.59725" lon="4.67312">
        <ele>218</ele>
        <time>2024-05-20T07:44:14.000Z</time>
      </trkpt>
      <trkpt lat="46.59719" lon="4.67317">
        <ele>217.80000305176</ele>
        <time>2024-05-20T07:44:15.000Z</time>
      </trkpt>
      <trkpt lat="46.59713" lon="4.67323">
        <ele>217.80000305176</ele>
        <time>2024-05-20T07:44:16.000Z</time>
      </trkpt>
      <trkpt lat="46.59706" lon="4.67328">
        <ele>217.80000305176</ele>
        <time>2024-05-20T07:44:17.000Z</time>
      </trkpt>
      <trkpt lat="46.597" lon="4.67333">
        <ele>217.60000610352</ele>
        <time>2024-05-20T07:44:18.000Z</time>
      </trkpt>
      <trkpt lat="46.59694" lon="4.67339">
        <ele>217.39999389648</ele>
        <time>2024-05-20T07:44:19.000Z</time>
      </trkpt>
      <trkpt lat="46.59688" lon="4.67344">
        <ele>217.39999389648</ele>
        <time>2024-05-20T07:44:20.000Z</time>
      </trkpt>
      <trkpt lat="46.59682" lon="4.6735">
        <ele>217.39999389648</ele>
        <time>2024-05-20T07:44:21.000Z</time>
      </trkpt>
      <trkpt lat="46.59676" lon="4.67356">
        <ele>217.39999389648</ele>
        <time>2024-05-20T07:44:22.000Z</time>
      </trkpt>
      <trkpt lat="46.5967" lon="4.67362">
        <ele>217.39999389648</ele>
        <time>2024-05-20T07:44:23.000Z</time>
      </trkpt>
      <trkpt lat="46.59664" lon="4.67367">
        <ele>217.19999694824</ele>
        <time>2024-05-20T07:44:24.000Z</time>
      </trkpt>
      <trkpt lat="46.59658" lon="4.67373">
        <ele>217</ele>
        <time>2024-05-20T07:44:25.000Z</time>
      </trkpt>
      <trkpt lat="46.59652" lon="4.67378">
        <ele>217</ele>
        <time>2024-05-20T07:44:26.000Z</time>
      </trkpt>
      <trkpt lat="46.59646" lon="4.67383">
        <ele>216.80000305176</ele>
        <time>2024-05-20T07:44:27.000Z</time>
      </trkpt>
      <trkpt lat="46.5964" lon="4.67389">
        <ele>216.80000305176</ele>
        <time>2024-05-20T07:44:28.000Z</time>
      </trkpt>
      <trkpt lat="46.59634" lon="4.67394">
        <ele>216.80000305176</ele>
        <time>2024-05-20T07:44:29.000Z</time>
      </trkpt>
      <trkpt lat="46.59628" lon="4.674">
        <ele>216.60000610352</ele>
        <time>2024-05-20T07:44:30.000Z</time>
      </trkpt>
      <trkpt lat="46.59622" lon="4.67406">
        <ele>216.39999389648</ele>
        <time>2024-05-20T07:44:31.000Z</time>
      </trkpt>
      <trkpt lat="46.59615" lon="4.67411">
        <ele>216.19999694824</ele>
        <time>2024-05-20T07:44:32.000Z</time>
      </trkpt>
      <trkpt lat="46.59609" lon="4.67417">
        <ele>216.19999694824</ele>
        <time>2024-05-20T07:44:33.000Z</time>
      </trkpt>
      <trkpt lat="46.59602" lon="4.67422">
        <ele>216</ele>
        <time>2024-05-20T07:44:34.000Z</time>
      </trkpt>
      <trkpt lat="46.59596" lon="4.67428">
        <ele>216</ele>
        <time>2024-05-20T07:44:35.000Z</time>
      </trkpt>
      <trkpt lat="46.5959" lon="4.67434">
        <ele>216</ele>
        <time>2024-05-20T07:44:36.000Z</time>
      </trkpt>
      <trkpt lat="46.59584" lon="4.6744">
        <ele>215.80000305176</ele>
        <time>2024-05-20T07:44:37.000Z</time>
      </trkpt>
      <trkpt lat="46.59578" lon="4.67446">
        <ele>215.80000305176</ele>
        <time>2024-05-20T07:44:38.000Z</time>
      </trkpt>
      <trkpt lat="46.59572" lon="4.67452">
        <ele>215.60000610352</ele>
        <time>2024-05-20T07:44:39.000Z</time>
      </trkpt>
      <trkpt lat="46.59565" lon="4.67457">
        <ele>215.39999389648</ele>
        <time>2024-05-20T07:44:40.000Z</time>
      </trkpt>
      <trkpt lat="46.59558" lon="4.67463">
        <ele>215.39999389648</ele>
        <time>2024-05-20T07:44:41.000Z</time>
      </trkpt>
      <trkpt lat="46.59552" lon="4.67469">
        <ele>215.19999694824</ele>
        <time>2024-05-20T07:44:42.000Z</time>
      </trkpt>
      <trkpt lat="46.59545" lon="4.67475">
        <ele>215.19999694824</ele>
        <time>2024-05-20T07:44:43.000Z</time>
      </trkpt>
      <trkpt lat="46.59539" lon="4.6748">
        <ele>215</ele>
        <time>2024-05-20T07:44:44.000Z</time>
      </trkpt>
      <trkpt lat="46.59532" lon="4.67486">
        <ele>214.80000305176</ele>
        <time>2024-05-20T07:44:45.000Z</time>
      </trkpt>
      <trkpt lat="46.59526" lon="4.67491">
        <ele>214.60000610352</ele>
        <time>2024-05-20T07:44:46.000Z</time>
      </trkpt>
      <trkpt lat="46.5952" lon="4.67497">
        <ele>214.39999389648</ele>
        <time>2024-05-20T07:44:47.000Z</time>
      </trkpt>
      <trkpt lat="46.59514" lon="4.67502">
        <ele>214.19999694824</ele>
        <time>2024-05-20T07:44:48.000Z</time>
      </trkpt>
      <trkpt lat="46.59508" lon="4.67508">
        <ele>213.80000305176</ele>
        <time>2024-05-20T07:44:49.000Z</time>
      </trkpt>
      <trkpt lat="46.59502" lon="4.67513">
        <ele>213.60000610352</ele>
        <time>2024-05-20T07:44:50.000Z</time>
      </trkpt>
      <trkpt lat="46.59496" lon="4.67519">
        <ele>213.60000610352</ele>
        <time>2024-05-20T07:44:51.000Z</time>
      </trkpt>
      <trkpt lat="46.59491" lon="4.67524">
        <ele>213.60000610352</ele>
        <time>2024-05-20T07:44:52.000Z</time>
      </trkpt>
      <trkpt lat="46.59486" lon="4.67529">
        <ele>213.60000610352</ele>
        <time>2024-05-20T07:44:53.000Z</time>
      </trkpt>
      <trkpt lat="46.59482" lon="4.67532">
        <ele>213.60000610352</ele>
        <time>2024-05-20T07:44:54.000Z</time>
      </trkpt>
      <trkpt lat="46.59478" lon="4.67535">
        <ele>213.60000610352</ele>
        <time>2024-05-20T07:44:55.000Z</time>
      </trkpt>
      <trkpt lat="46.59474" lon="4.67537">
        <ele>213.60000610352</ele>
        <time>2024-05-20T07:44:56.000Z</time>
      </trkpt>
      <trkpt lat="46.59471" lon="4.6754">
        <ele>213.60000610352</ele>
        <time>2024-05-20T07:44:57.000Z</time>
      </trkpt>
      <trkpt lat="46.59468" lon="4.67543">
        <ele>213.80000305176</ele>
        <time>2024-05-20T07:44:58.000Z</time>
      </trkpt>
      <trkpt lat="46.59465" lon="4.67547">
        <ele>213.80000305176</ele>
        <time>2024-05-20T07:44:59.000Z</time>
      </trkpt>
      <trkpt lat="46.59462" lon="4.6755">
        <ele>213.80000305176</ele>
        <time>2024-05-20T07:45:00.000Z</time>
      </trkpt>
      <trkpt lat="46.59458" lon="4.67552">
        <ele>213.80000305176</ele>
        <time>2024-05-20T07:45:01.000Z</time>
      </trkpt>
      <trkpt lat="46.59454" lon="4.67556">
        <ele>213.60000610352</ele>
        <time>2024-05-20T07:45:02.000Z</time>
      </trkpt>
      <trkpt lat="46.59449" lon="4.6756">
        <ele>213.60000610352</ele>
        <time>2024-05-20T07:45:03.000Z</time>
      </trkpt>
      <trkpt lat="46.59445" lon="4.67564">
        <ele>213.19999694824</ele>
        <time>2024-05-20T07:45:04.000Z</time>
      </trkpt>
      <trkpt lat="46.5944" lon="4.67568">
        <ele>213.19999694824</ele>
        <time>2024-05-20T07:45:05.000Z</time>
      </trkpt>
      <trkpt lat="46.59436" lon="4.67573">
        <ele>213.19999694824</ele>
        <time>2024-05-20T07:45:06.000Z</time>
      </trkpt>
      <trkpt lat="46.59431" lon="4.67577">
        <ele>213</ele>
        <time>2024-05-20T07:45:07.000Z</time>
      </trkpt>
      <trkpt lat="46.59426" lon="4.67581">
        <ele>212.80000305176</ele>
        <time>2024-05-20T07:45:08.000Z</time>
      </trkpt>
      <trkpt lat="46.59421" lon="4.67586">
        <ele>212.80000305176</ele>
        <time>2024-05-20T07:45:09.000Z</time>
      </trkpt>
      <trkpt lat="46.59416" lon="4.6759">
        <ele>212.60000610352</ele>
        <time>2024-05-20T07:45:10.000Z</time>
      </trkpt>
      <trkpt lat="46.59411" lon="4.67595">
        <ele>212.60000610352</ele>
        <time>2024-05-20T07:45:11.000Z</time>
      </trkpt>
      <trkpt lat="46.59405" lon="4.676">
        <ele>212.39999389648</ele>
        <time>2024-05-20T07:45:12.000Z</time>
      </trkpt>
      <trkpt lat="46.594" lon="4.67605">
        <ele>212.39999389648</ele>
        <time>2024-05-20T07:45:13.000Z</time>
      </trkpt>
      <trkpt lat="46.59394" lon="4.6761">
        <ele>212.39999389648</ele>
        <time>2024-05-20T07:45:14.000Z</time>
      </trkpt>
      <trkpt lat="46.59388" lon="4.67615">
        <ele>212.19999694824</ele>
        <time>2024-05-20T07:45:15.000Z</time>
      </trkpt>
      <trkpt lat="46.59382" lon="4.6762">
        <ele>212</ele>
        <time>2024-05-20T07:45:16.000Z</time>
      </trkpt>
      <trkpt lat="46.59377" lon="4.67625">
        <ele>212</ele>
        <time>2024-05-20T07:45:17.000Z</time>
      </trkpt>
      <trkpt lat="46.5937" lon="4.6763">
        <ele>212</ele>
        <time>2024-05-20T07:45:18.000Z</time>
      </trkpt>
      <trkpt lat="46.59365" lon="4.67635">
        <ele>211.80000305176</ele>
        <time>2024-05-20T07:45:19.000Z</time>
      </trkpt>
      <trkpt lat="46.59358" lon="4.67641">
        <ele>211.60000610352</ele>
        <time>2024-05-20T07:45:20.000Z</time>
      </trkpt>
      <trkpt lat="46.59352" lon="4.67647">
        <ele>211.39999389648</ele>
        <time>2024-05-20T07:45:21.000Z</time>
      </trkpt>
      <trkpt lat="46.59346" lon="4.67652">
        <ele>211.39999389648</ele>
        <time>2024-05-20T07:45:22.000Z</time>
      </trkpt>
      <trkpt lat="46.59341" lon="4.67658">
        <ele>211</ele>
        <time>2024-05-20T07:45:23.000Z</time>
      </trkpt>
      <trkpt lat="46.59335" lon="4.67663">
        <ele>211</ele>
        <time>2024-05-20T07:45:24.000Z</time>
      </trkpt>
      <trkpt lat="46.59329" lon="4.67669">
        <ele>211</ele>
        <time>2024-05-20T07:45:25.000Z</time>
      </trkpt>
      <trkpt lat="46.59323" lon="4.67675">
        <ele>210.80000305176</ele>
        <time>2024-05-20T07:45:26.000Z</time>
      </trkpt>
      <trkpt lat="46.59317" lon="4.6768">
        <ele>210.80000305176</ele>
        <time>2024-05-20T07:45:27.000Z</time>
      </trkpt>
      <trkpt lat="46.5931" lon="4.67686">
        <ele>210.80000305176</ele>
        <time>2024-05-20T07:45:28.000Z</time>
      </trkpt>
      <trkpt lat="46.59304" lon="4.67692">
        <ele>210.60000610352</ele>
        <time>2024-05-20T07:45:29.000Z</time>
      </trkpt>
      <trkpt lat="46.59298" lon="4.67697">
        <ele>210.39999389648</ele>
        <time>2024-05-20T07:45:30.000Z</time>
      </trkpt>
      <trkpt lat="46.59292" lon="4.67702">
        <ele>210.39999389648</ele>
        <time>2024-05-20T07:45:31.000Z</time>
      </trkpt>
      <trkpt lat="46.59286" lon="4.67708">
        <ele>210.19999694824</ele>
        <time>2024-05-20T07:45:32.000Z</time>
      </trkpt>
      <trkpt lat="46.5928" lon="4.67714">
        <ele>210</ele>
        <time>2024-05-20T07:45:33.000Z</time>
      </trkpt>
      <trkpt lat="46.59274" lon="4.6772">
        <ele>210</ele>
        <time>2024-05-20T07:45:34.000Z</time>
      </trkpt>
      <trkpt lat="46.59267" lon="4.67726">
        <ele>209.60000610352</ele>
        <time>2024-05-20T07:45:35.000Z</time>
      </trkpt>
      <trkpt lat="46.59261" lon="4.67732">
        <ele>209.60000610352</ele>
        <time>2024-05-20T07:45:36.000Z</time>
      </trkpt>
      <trkpt lat="46.59255" lon="4.67738">
        <ele>209.60000610352</ele>
        <time>2024-05-20T07:45:37.000Z</time>
      </trkpt>
      <trkpt lat="46.59248" lon="4.67744">
        <ele>209.39999389648</ele>
        <time>2024-05-20T07:45:38.000Z</time>
      </trkpt>
      <trkpt lat="46.59242" lon="4.67749">
        <ele>209.19999694824</ele>
        <time>2024-05-20T07:45:39.000Z</time>
      </trkpt>
      <trkpt lat="46.59235" lon="4.67755">
        <ele>209</ele>
        <time>2024-05-20T07:45:40.000Z</time>
      </trkpt>
      <trkpt lat="46.59229" lon="4.6776">
        <ele>208.80000305176</ele>
        <time>2024-05-20T07:45:41.000Z</time>
      </trkpt>
      <trkpt lat="46.59222" lon="4.67765">
        <ele>208.80000305176</ele>
        <time>2024-05-20T07:45:42.000Z</time>
      </trkpt>
      <trkpt lat="46.59214" lon="4.6777">
        <ele>208.80000305176</ele>
        <time>2024-05-20T07:45:43.000Z</time>
      </trkpt>
      <trkpt lat="46.59207" lon="4.67774">
        <ele>208.60000610352</ele>
        <time>2024-05-20T07:45:44.000Z</time>
      </trkpt>
      <trkpt lat="46.592" lon="4.67779">
        <ele>208.39999389648</ele>
        <time>2024-05-20T07:45:45.000Z</time>
      </trkpt>
      <trkpt lat="46.59193" lon="4.67783">
        <ele>208.19999694824</ele>
        <time>2024-05-20T07:45:46.000Z</time>
      </trkpt>
      <trkpt lat="46.59185" lon="4.67788">
        <ele>208</ele>
        <time>2024-05-20T07:45:47.000Z</time>
      </trkpt>
      <trkpt lat="46.59178" lon="4.67792">
        <ele>208</ele>
        <time>2024-05-20T07:45:48.000Z</time>
      </trkpt>
      <trkpt lat="46.59171" lon="4.67796">
        <ele>207.80000305176</ele>
        <time>2024-05-20T07:45:49.000Z</time>
      </trkpt>
      <trkpt lat="46.59163" lon="4.678">
        <ele>207.60000610352</ele>
        <time>2024-05-20T07:45:50.000Z</time>
      </trkpt>
      <trkpt lat="46.59156" lon="4.67804">
        <ele>207.39999389648</ele>
        <time>2024-05-20T07:45:51.000Z</time>
      </trkpt>
      <trkpt lat="46.59148" lon="4.67808">
        <ele>207.39999389648</ele>
        <time>2024-05-20T07:45:52.000Z</time>
      </trkpt>
      <trkpt lat="46.59141" lon="4.67812">
        <ele>207.19999694824</ele>
        <time>2024-05-20T07:45:53.000Z</time>
      </trkpt>
      <trkpt lat="46.59134" lon="4.67815">
        <ele>207</ele>
        <time>2024-05-20T07:45:54.000Z</time>
      </trkpt>
      <trkpt lat="46.59126" lon="4.67818">
        <ele>206.80000305176</ele>
        <time>2024-05-20T07:45:55.000Z</time>
      </trkpt>
      <trkpt lat="46.59118" lon="4.67821">
        <ele>206.80000305176</ele>
        <time>2024-05-20T07:45:56.000Z</time>
      </trkpt>
      <trkpt lat="46.5911" lon="4.67824">
        <ele>206.60000610352</ele>
        <time>2024-05-20T07:45:57.000Z</time>
      </trkpt>
      <trkpt lat="46.59103" lon="4.67827">
        <ele>206.39999389648</ele>
        <time>2024-05-20T07:45:58.000Z</time>
      </trkpt>
      <trkpt lat="46.59095" lon="4.67829">
        <ele>206.39999389648</ele>
        <time>2024-05-20T07:45:59.000Z</time>
      </trkpt>
      <trkpt lat="46.59088" lon="4.67832">
        <ele>206.19999694824</ele>
        <time>2024-05-20T07:46:00.000Z</time>
      </trkpt>
      <trkpt lat="46.5908" lon="4.67834">
        <ele>206</ele>
        <time>2024-05-20T07:46:01.000Z</time>
      </trkpt>
      <trkpt lat="46.59072" lon="4.67836">
        <ele>205.80000305176</ele>
        <time>2024-05-20T07:46:02.000Z</time>
      </trkpt>
      <trkpt lat="46.59064" lon="4.67838">
        <ele>205.80000305176</ele>
        <time>2024-05-20T07:46:03.000Z</time>
      </trkpt>
      <trkpt lat="46.59057" lon="4.6784">
        <ele>205.60000610352</ele>
        <time>2024-05-20T07:46:04.000Z</time>
      </trkpt>
      <trkpt lat="46.59049" lon="4.67841">
        <ele>205.60000610352</ele>
        <time>2024-05-20T07:46:05.000Z</time>
      </trkpt>
      <trkpt lat="46.59041" lon="4.67843">
        <ele>205.39999389648</ele>
        <time>2024-05-20T07:46:06.000Z</time>
      </trkpt>
      <trkpt lat="46.59033" lon="4.67844">
        <ele>205.39999389648</ele>
        <time>2024-05-20T07:46:07.000Z</time>
      </trkpt>
      <trkpt lat="46.59025" lon="4.67845">
        <ele>205.19999694824</ele>
        <time>2024-05-20T07:46:08.000Z</time>
      </trkpt>
      <trkpt lat="46.59017" lon="4.67846">
        <ele>205</ele>
        <time>2024-05-20T07:46:09.000Z</time>
      </trkpt>
      <trkpt lat="46.59009" lon="4.67847">
        <ele>204.80000305176</ele>
        <time>2024-05-20T07:46:10.000Z</time>
      </trkpt>
      <trkpt lat="46.59001" lon="4.67848">
        <ele>204.60000610352</ele>
        <time>2024-05-20T07:46:11.000Z</time>
      </trkpt>
      <trkpt lat="46.58993" lon="4.67848">
        <ele>204.39999389648</ele>
        <time>2024-05-20T07:46:12.000Z</time>
      </trkpt>
      <trkpt lat="46.58985" lon="4.67848">
        <ele>204.19999694824</ele>
        <time>2024-05-20T07:46:13.000Z</time>
      </trkpt>
      <trkpt lat="46.58977" lon="4.67849">
        <ele>204</ele>
        <time>2024-05-20T07:46:14.000Z</time>
      </trkpt>
      <trkpt lat="46.58969" lon="4.67848">
        <ele>203.80000305176</ele>
        <time>2024-05-20T07:46:15.000Z</time>
      </trkpt>
      <trkpt lat="46.58961" lon="4.67848">
        <ele>203.80000305176</ele>
        <time>2024-05-20T07:46:16.000Z</time>
      </trkpt>
      <trkpt lat="46.58953" lon="4.67848">
        <ele>203.60000610352</ele>
        <time>2024-05-20T07:46:17.000Z</time>
      </trkpt>
      <trkpt lat="46.58946" lon="4.67847">
        <ele>203.60000610352</ele>
        <time>2024-05-20T07:46:18.000Z</time>
      </trkpt>
      <trkpt lat="46.58939" lon="4.67847">
        <ele>203.60000610352</ele>
        <time>2024-05-20T07:46:19.000Z</time>
      </trkpt>
      <trkpt lat="46.58932" lon="4.67846">
        <ele>203.39999389648</ele>
        <time>2024-05-20T07:46:20.000Z</time>
      </trkpt>
      <trkpt lat="46.58924" lon="4.67845">
        <ele>203.19999694824</ele>
        <time>2024-05-20T07:46:21.000Z</time>
      </trkpt>
      <trkpt lat="46.58917" lon="4.67844">
        <ele>203.19999694824</ele>
        <time>2024-05-20T07:46:22.000Z</time>
      </trkpt>
      <trkpt lat="46.5891" lon="4.67843">
        <ele>203.19999694824</ele>
        <time>2024-05-20T07:46:23.000Z</time>
      </trkpt>
      <trkpt lat="46.58904" lon="4.67843">
        <ele>203.19999694824</ele>
        <time>2024-05-20T07:46:24.000Z</time>
      </trkpt>
      <trkpt lat="46.58897" lon="4.67842">
        <ele>203.19999694824</ele>
        <time>2024-05-20T07:46:25.000Z</time>
      </trkpt>
      <trkpt lat="46.58891" lon="4.67841">
        <ele>203.19999694824</ele>
        <time>2024-05-20T07:46:26.000Z</time>
      </trkpt>
      <trkpt lat="46.58885" lon="4.6784">
        <ele>203.19999694824</ele>
        <time>2024-05-20T07:46:27.000Z</time>
      </trkpt>
      <trkpt lat="46.5888" lon="4.67838">
        <ele>203.19999694824</ele>
        <time>2024-05-20T07:46:28.000Z</time>
      </trkpt>
      <trkpt lat="46.58876" lon="4.67836">
        <ele>203.19999694824</ele>
        <time>2024-05-20T07:46:29.000Z</time>
      </trkpt>
      <trkpt lat="46.58872" lon="4.67834">
        <ele>203.39999389648</ele>
        <time>2024-05-20T07:46:30.000Z</time>
      </trkpt>
      <trkpt lat="46.58869" lon="4.67833">
        <ele>203.39999389648</ele>
        <time>2024-05-20T07:46:31.000Z</time>
      </trkpt>
      <trkpt lat="46.58865" lon="4.67832">
        <ele>203.39999389648</ele>
        <time>2024-05-20T07:46:32.000Z</time>
      </trkpt>
      <trkpt lat="46.58862" lon="4.67831">
        <ele>203.39999389648</ele>
        <time>2024-05-20T07:46:33.000Z</time>
      </trkpt>
      <trkpt lat="46.58859" lon="4.67831">
        <ele>203.39999389648</ele>
        <time>2024-05-20T07:46:34.000Z</time>
      </trkpt>
      <trkpt lat="46.58855" lon="4.67831">
        <ele>203.60000610352</ele>
        <time>2024-05-20T07:46:35.000Z</time>
      </trkpt>
      <trkpt lat="46.58851" lon="4.67829">
        <ele>203.60000610352</ele>
        <time>2024-05-20T07:46:36.000Z</time>
      </trkpt>
      <trkpt lat="46.58846" lon="4.67827">
        <ele>203.60000610352</ele>
        <time>2024-05-20T07:46:37.000Z</time>
      </trkpt>
      <trkpt lat="46.58842" lon="4.67824">
        <ele>203.60000610352</ele>
        <time>2024-05-20T07:46:38.000Z</time>
      </trkpt>
      <trkpt lat="46.58837" lon="4.67822">
        <ele>203.39999389648</ele>
        <time>2024-05-20T07:46:39.000Z</time>
      </trkpt>
      <trkpt lat="46.58832" lon="4.67821">
        <ele>203</ele>
        <time>2024-05-20T07:46:40.000Z</time>
      </trkpt>
      <trkpt lat="46.58827" lon="4.67818">
        <ele>202.80000305176</ele>
        <time>2024-05-20T07:46:41.000Z</time>
      </trkpt>
      <trkpt lat="46.58821" lon="4.67816">
        <ele>202.60000610352</ele>
        <time>2024-05-20T07:46:42.000Z</time>
      </trkpt>
      <trkpt lat="46.58817" lon="4.67814">
        <ele>202.60000610352</ele>
        <time>2024-05-20T07:46:43.000Z</time>
      </trkpt>
      <trkpt lat="46.58812" lon="4.67811">
        <ele>202.39999389648</ele>
        <time>2024-05-20T07:46:44.000Z</time>
      </trkpt>
      <trkpt lat="46.58806" lon="4.67808">
        <ele>202.19999694824</ele>
        <time>2024-05-20T07:46:45.000Z</time>
      </trkpt>
      <trkpt lat="46.58801" lon="4.67805">
        <ele>202</ele>
        <time>2024-05-20T07:46:46.000Z</time>
      </trkpt>
      <trkpt lat="46.58795" lon="4.67803">
        <ele>202</ele>
        <time>2024-05-20T07:46:47.000Z</time>
      </trkpt>
      <trkpt lat="46.5879" lon="4.67799">
        <ele>202</ele>
        <time>2024-05-20T07:46:48.000Z</time>
      </trkpt>
      <trkpt lat="46.58785" lon="4.67797">
        <ele>202</ele>
        <time>2024-05-20T07:46:49.000Z</time>
      </trkpt>
      <trkpt lat="46.5878" lon="4.67794">
        <ele>202</ele>
        <time>2024-05-20T07:46:50.000Z</time>
      </trkpt>
      <trkpt lat="46.58775" lon="4.67792">
        <ele>202</ele>
        <time>2024-05-20T07:46:51.000Z</time>
      </trkpt>
      <trkpt lat="46.5877" lon="4.67789">
        <ele>202</ele>
        <time>2024-05-20T07:46:52.000Z</time>
      </trkpt>
      <trkpt lat="46.58764" lon="4.67786">
        <ele>201.80000305176</ele>
        <time>2024-05-20T07:46:53.000Z</time>
      </trkpt>
      <trkpt lat="46.58758" lon="4.67783">
        <ele>201.80000305176</ele>
        <time>2024-05-20T07:46:54.000Z</time>
      </trkpt>
      <trkpt lat="46.58753" lon="4.67781">
        <ele>201.80000305176</ele>
        <time>2024-05-20T07:46:55.000Z</time>
      </trkpt>
      <trkpt lat="46.58746" lon="4.67778">
        <ele>201.80000305176</ele>
        <time>2024-05-20T07:46:56.000Z</time>
      </trkpt>
      <trkpt lat="46.5874" lon="4.67776">
        <ele>201.80000305176</ele>
        <time>2024-05-20T07:46:57.000Z</time>
      </trkpt>
      <trkpt lat="46.58734" lon="4.67772">
        <ele>201.80000305176</ele>
        <time>2024-05-20T07:46:58.000Z</time>
      </trkpt>
      <trkpt lat="46.58727" lon="4.67769">
        <ele>201.80000305176</ele>
        <time>2024-05-20T07:46:59.000Z</time>
      </trkpt>
      <trkpt lat="46.5872" lon="4.67766">
        <ele>201.80000305176</ele>
        <time>2024-05-20T07:47:00.000Z</time>
      </trkpt>
      <trkpt lat="46.58714" lon="4.67763">
        <ele>201.80000305176</ele>
        <time>2024-05-20T07:47:01.000Z</time>
      </trkpt>
      <trkpt lat="46.58708" lon="4.6776">
        <ele>201.80000305176</ele>
        <time>2024-05-20T07:47:02.000Z</time>
      </trkpt>
      <trkpt lat="46.58702" lon="4.67757">
        <ele>201.80000305176</ele>
        <time>2024-05-20T07:47:03.000Z</time>
      </trkpt>
      <trkpt lat="46.58695" lon="4.67754">
        <ele>201.80000305176</ele>
        <time>2024-05-20T07:47:04.000Z</time>
      </trkpt>
      <trkpt lat="46.58689" lon="4.67751">
        <ele>201.80000305176</ele>
        <time>2024-05-20T07:47:05.000Z</time>
      </trkpt>
      <trkpt lat="46.58683" lon="4.67747">
        <ele>201.80000305176</ele>
        <time>2024-05-20T07:47:06.000Z</time>
      </trkpt>
      <trkpt lat="46.58676" lon="4.67743">
        <ele>201.80000305176</ele>
        <time>2024-05-20T07:47:07.000Z</time>
      </trkpt>
      <trkpt lat="46.5867" lon="4.6774">
        <ele>201.80000305176</ele>
        <time>2024-05-20T07:47:08.000Z</time>
      </trkpt>
      <trkpt lat="46.58664" lon="4.67737">
        <ele>201.80000305176</ele>
        <time>2024-05-20T07:47:09.000Z</time>
      </trkpt>
      <trkpt lat="46.58658" lon="4.67734">
        <ele>201.80000305176</ele>
        <time>2024-05-20T07:47:10.000Z</time>
      </trkpt>
      <trkpt lat="46.58651" lon="4.6773">
        <ele>201.80000305176</ele>
        <time>2024-05-20T07:47:11.000Z</time>
      </trkpt>
      <trkpt lat="46.58645" lon="4.67728">
        <ele>201.80000305176</ele>
        <time>2024-05-20T07:47:12.000Z</time>
      </trkpt>
      <trkpt lat="46.5864" lon="4.67725">
        <ele>201.80000305176</ele>
        <time>2024-05-20T07:47:13.000Z</time>
      </trkpt>
      <trkpt lat="46.58633" lon="4.67722">
        <ele>201.80000305176</ele>
        <time>2024-05-20T07:47:14.000Z</time>
      </trkpt>
      <trkpt lat="46.58626" lon="4.67718">
        <ele>201.80000305176</ele>
        <time>2024-05-20T07:47:15.000Z</time>
      </trkpt>
      <trkpt lat="46.5862" lon="4.67715">
        <ele>201.80000305176</ele>
        <time>2024-05-20T07:47:16.000Z</time>
      </trkpt>
      <trkpt lat="46.58614" lon="4.67712">
        <ele>202</ele>
        <time>2024-05-20T07:47:17.000Z</time>
      </trkpt>
      <trkpt lat="46.58608" lon="4.6771">
        <ele>202</ele>
        <time>2024-05-20T07:47:18.000Z</time>
      </trkpt>
      <trkpt lat="46.58602" lon="4.67707">
        <ele>201.80000305176</ele>
        <time>2024-05-20T07:47:19.000Z</time>
      </trkpt>
      <trkpt lat="46.58596" lon="4.67704">
        <ele>202</ele>
        <time>2024-05-20T07:47:20.000Z</time>
      </trkpt>
      <trkpt lat="46.5859" lon="4.67701">
        <ele>201.80000305176</ele>
        <time>2024-05-20T07:47:21.000Z</time>
      </trkpt>
      <trkpt lat="46.58584" lon="4.67698">
        <ele>202</ele>
        <time>2024-05-20T07:47:22.000Z</time>
      </trkpt>
      <trkpt lat="46.58578" lon="4.67695">
        <ele>202</ele>
        <time>2024-05-20T07:47:23.000Z</time>
      </trkpt>
      <trkpt lat="46.58572" lon="4.67693">
        <ele>201.80000305176</ele>
        <time>2024-05-20T07:47:24.000Z</time>
      </trkpt>
      <trkpt lat="46.58566" lon="4.6769">
        <ele>201.80000305176</ele>
        <time>2024-05-20T07:47:25.000Z</time>
      </trkpt>
      <trkpt lat="46.5856" lon="4.67687">
        <ele>201.80000305176</ele>
        <time>2024-05-20T07:47:26.000Z</time>
      </trkpt>
      <trkpt lat="46.58554" lon="4.67684">
        <ele>201.80000305176</ele>
        <time>2024-05-20T07:47:27.000Z</time>
      </trkpt>
      <trkpt lat="46.58548" lon="4.67681">
        <ele>201.80000305176</ele>
        <time>2024-05-20T07:47:28.000Z</time>
      </trkpt>
      <trkpt lat="46.58542" lon="4.67678">
        <ele>201.80000305176</ele>
        <time>2024-05-20T07:47:29.000Z</time>
      </trkpt>
      <trkpt lat="46.58536" lon="4.67676">
        <ele>201.80000305176</ele>
        <time>2024-05-20T07:47:30.000Z</time>
      </trkpt>
      <trkpt lat="46.5853" lon="4.67673">
        <ele>201.80000305176</ele>
        <time>2024-05-20T07:47:31.000Z</time>
      </trkpt>
      <trkpt lat="46.58523" lon="4.6767">
        <ele>202</ele>
        <time>2024-05-20T07:47:32.000Z</time>
      </trkpt>
      <trkpt lat="46.58517" lon="4.67667">
        <ele>202</ele>
        <time>2024-05-20T07:47:33.000Z</time>
      </trkpt>
      <trkpt lat="46.58511" lon="4.67664">
        <ele>202</ele>
        <time>2024-05-20T07:47:34.000Z</time>
      </trkpt>
      <trkpt lat="46.58505" lon="4.67661">
        <ele>202</ele>
        <time>2024-05-20T07:47:35.000Z</time>
      </trkpt>
      <trkpt lat="46.58499" lon="4.67658">
        <ele>202</ele>
        <time>2024-05-20T07:47:36.000Z</time>
      </trkpt>
      <trkpt lat="46.58493" lon="4.67656">
        <ele>202</ele>
        <time>2024-05-20T07:47:37.000Z</time>
      </trkpt>
      <trkpt lat="46.58487" lon="4.67653">
        <ele>202</ele>
        <time>2024-05-20T07:47:38.000Z</time>
      </trkpt>
      <trkpt lat="46.5848" lon="4.6765">
        <ele>202</ele>
        <time>2024-05-20T07:47:39.000Z</time>
      </trkpt>
      <trkpt lat="46.58474" lon="4.67647">
        <ele>202</ele>
        <time>2024-05-20T07:47:40.000Z</time>
      </trkpt>
      <trkpt lat="46.58468" lon="4.67645">
        <ele>201.80000305176</ele>
        <time>2024-05-20T07:47:41.000Z</time>
      </trkpt>
      <trkpt lat="46.58462" lon="4.67641">
        <ele>201.80000305176</ele>
        <time>2024-05-20T07:47:42.000Z</time>
      </trkpt>
      <trkpt lat="46.58456" lon="4.67639">
        <ele>201.80000305176</ele>
        <time>2024-05-20T07:47:43.000Z</time>
      </trkpt>
      <trkpt lat="46.5845" lon="4.67636">
        <ele>201.80000305176</ele>
        <time>2024-05-20T07:47:44.000Z</time>
      </trkpt>
      <trkpt lat="46.58444" lon="4.67633">
        <ele>201.80000305176</ele>
        <time>2024-05-20T07:47:45.000Z</time>
      </trkpt>
      <trkpt lat="46.58438" lon="4.6763">
        <ele>201.80000305176</ele>
        <time>2024-05-20T07:47:46.000Z</time>
      </trkpt>
      <trkpt lat="46.58432" lon="4.67627">
        <ele>201.80000305176</ele>
        <time>2024-05-20T07:47:47.000Z</time>
      </trkpt>
      <trkpt lat="46.58426" lon="4.67624">
        <ele>201.80000305176</ele>
        <time>2024-05-20T07:47:48.000Z</time>
      </trkpt>
      <trkpt lat="46.5842" lon="4.67621">
        <ele>201.60000610352</ele>
        <time>2024-05-20T07:47:49.000Z</time>
      </trkpt>
      <trkpt lat="46.58414" lon="4.67618">
        <ele>201.60000610352</ele>
        <time>2024-05-20T07:47:50.000Z</time>
      </trkpt>
      <trkpt lat="46.58408" lon="4.67615">
        <ele>201.60000610352</ele>
        <time>2024-05-20T07:47:51.000Z</time>
      </trkpt>
      <trkpt lat="46.58402" lon="4.67612">
        <ele>201.60000610352</ele>
        <time>2024-05-20T07:47:52.000Z</time>
      </trkpt>
      <trkpt lat="46.58396" lon="4.67609">
        <ele>201.39999389648</ele>
        <time>2024-05-20T07:47:53.000Z</time>
      </trkpt>
      <trkpt lat="46.5839" lon="4.67606">
        <ele>201.60000610352</ele>
        <time>2024-05-20T07:47:54.000Z</time>
      </trkpt>
      <trkpt lat="46.58384" lon="4.67603">
        <ele>201.60000610352</ele>
        <time>2024-05-20T07:47:55.000Z</time>
      </trkpt>
      <trkpt lat="46.58378" lon="4.676">
        <ele>201.60000610352</ele>
        <time>2024-05-20T07:47:56.000Z</time>
      </trkpt>
      <trkpt lat="46.58372" lon="4.67598">
        <ele>201.60000610352</ele>
        <time>2024-05-20T07:47:57.000Z</time>
      </trkpt>
      <trkpt lat="46.58366" lon="4.67595">
        <ele>201.60000610352</ele>
        <time>2024-05-20T07:47:58.000Z</time>
      </trkpt>
      <trkpt lat="46.5836" lon="4.67592">
        <ele>201.60000610352</ele>
        <time>2024-05-20T07:47:59.000Z</time>
      </trkpt>
      <trkpt lat="46.58354" lon="4.6759">
        <ele>201.60000610352</ele>
        <time>2024-05-20T07:48:00.000Z</time>
      </trkpt>
      <trkpt lat="46.58348" lon="4.67587">
        <ele>201.60000610352</ele>
        <time>2024-05-20T07:48:01.000Z</time>
      </trkpt>
      <trkpt lat="46.58341" lon="4.67584">
        <ele>201.39999389648</ele>
        <time>2024-05-20T07:48:02.000Z</time>
      </trkpt>
      <trkpt lat="46.58335" lon="4.67581">
        <ele>201.39999389648</ele>
        <time>2024-05-20T07:48:03.000Z</time>
      </trkpt>
      <trkpt lat="46.58329" lon="4.67579">
        <ele>201.39999389648</ele>
        <time>2024-05-20T07:48:04.000Z</time>
      </trkpt>
      <trkpt lat="46.58323" lon="4.67577">
        <ele>201.39999389648</ele>
        <time>2024-05-20T07:48:05.000Z</time>
      </trkpt>
      <trkpt lat="46.58317" lon="4.67574">
        <ele>201.39999389648</ele>
        <time>2024-05-20T07:48:06.000Z</time>
      </trkpt>
      <trkpt lat="46.5831" lon="4.67572">
        <ele>201.39999389648</ele>
        <time>2024-05-20T07:48:07.000Z</time>
      </trkpt>
      <trkpt lat="46.58304" lon="4.6757">
        <ele>201.19999694824</ele>
        <time>2024-05-20T07:48:08.000Z</time>
      </trkpt>
      <trkpt lat="46.58298" lon="4.67568">
        <ele>201.19999694824</ele>
        <time>2024-05-20T07:48:09.000Z</time>
      </trkpt>
      <trkpt lat="46.58292" lon="4.67565">
        <ele>201.19999694824</ele>
        <time>2024-05-20T07:48:10.000Z</time>
      </trkpt>
      <trkpt lat="46.58285" lon="4.67563">
        <ele>201.19999694824</ele>
        <time>2024-05-20T07:48:11.000Z</time>
      </trkpt>
      <trkpt lat="46.58279" lon="4.67562">
        <ele>201.19999694824</ele>
        <time>2024-05-20T07:48:12.000Z</time>
      </trkpt>
      <trkpt lat="46.58273" lon="4.67561">
        <ele>201.19999694824</ele>
        <time>2024-05-20T07:48:13.000Z</time>
      </trkpt>
      <trkpt lat="46.58267" lon="4.6756">
        <ele>201.19999694824</ele>
        <time>2024-05-20T07:48:14.000Z</time>
      </trkpt>
      <trkpt lat="46.5826" lon="4.67559">
        <ele>201.19999694824</ele>
        <time>2024-05-20T07:48:15.000Z</time>
      </trkpt>
      <trkpt lat="46.58254" lon="4.67558">
        <ele>201.19999694824</ele>
        <time>2024-05-20T07:48:16.000Z</time>
      </trkpt>
      <trkpt lat="46.58248" lon="4.67557">
        <ele>201.19999694824</ele>
        <time>2024-05-20T07:48:17.000Z</time>
      </trkpt>
      <trkpt lat="46.58242" lon="4.67556">
        <ele>201.19999694824</ele>
        <time>2024-05-20T07:48:18.000Z</time>
      </trkpt>
      <trkpt lat="46.58235" lon="4.67555">
        <ele>201.19999694824</ele>
        <time>2024-05-20T07:48:19.000Z</time>
      </trkpt>
      <trkpt lat="46.58229" lon="4.67554">
        <ele>201.19999694824</ele>
        <time>2024-05-20T07:48:20.000Z</time>
      </trkpt>
      <trkpt lat="46.58223" lon="4.67554">
        <ele>201.19999694824</ele>
        <time>2024-05-20T07:48:21.000Z</time>
      </trkpt>
      <trkpt lat="46.58217" lon="4.67553">
        <ele>201.19999694824</ele>
        <time>2024-05-20T07:48:22.000Z</time>
      </trkpt>
      <trkpt lat="46.58211" lon="4.67553">
        <ele>201.39999389648</ele>
        <time>2024-05-20T07:48:23.000Z</time>
      </trkpt>
      <trkpt lat="46.58204" lon="4.67553">
        <ele>201.39999389648</ele>
        <time>2024-05-20T07:48:24.000Z</time>
      </trkpt>
      <trkpt lat="46.58198" lon="4.67553">
        <ele>201.39999389648</ele>
        <time>2024-05-20T07:48:25.000Z</time>
      </trkpt>
      <trkpt lat="46.58192" lon="4.67553">
        <ele>201.39999389648</ele>
        <time>2024-05-20T07:48:26.000Z</time>
      </trkpt>
      <trkpt lat="46.58186" lon="4.67552">
        <ele>201.19999694824</ele>
        <time>2024-05-20T07:48:27.000Z</time>
      </trkpt>
      <trkpt lat="46.5818" lon="4.67553">
        <ele>201.19999694824</ele>
        <time>2024-05-20T07:48:28.000Z</time>
      </trkpt>
      <trkpt lat="46.58174" lon="4.67553">
        <ele>201.19999694824</ele>
        <time>2024-05-20T07:48:29.000Z</time>
      </trkpt>
      <trkpt lat="46.58169" lon="4.67554">
        <ele>201.19999694824</ele>
        <time>2024-05-20T07:48:30.000Z</time>
      </trkpt>
      <trkpt lat="46.58164" lon="4.67555">
        <ele>201.19999694824</ele>
        <time>2024-05-20T07:48:31.000Z</time>
      </trkpt>
      <trkpt lat="46.5816" lon="4.67554">
        <ele>201.19999694824</ele>
        <time>2024-05-20T07:48:32.000Z</time>
      </trkpt>
      <trkpt lat="46.58156" lon="4.67553">
        <ele>201.19999694824</ele>
        <time>2024-05-20T07:48:33.000Z</time>
      </trkpt>
      <trkpt lat="46.58152" lon="4.67553">
        <ele>201.19999694824</ele>
        <time>2024-05-20T07:48:34.000Z</time>
      </trkpt>
      <trkpt lat="46.58149" lon="4.67554">
        <ele>201.60000610352</ele>
        <time>2024-05-20T07:48:35.000Z</time>
      </trkpt>
      <trkpt lat="46.58145" lon="4.67555">
        <ele>201.60000610352</ele>
        <time>2024-05-20T07:48:36.000Z</time>
      </trkpt>
      <trkpt lat="46.58142" lon="4.67556">
        <ele>201.60000610352</ele>
        <time>2024-05-20T07:48:37.000Z</time>
      </trkpt>
      <trkpt lat="46.58138" lon="4.67556">
        <ele>201.60000610352</ele>
        <time>2024-05-20T07:48:38.000Z</time>
      </trkpt>
      <trkpt lat="46.58134" lon="4.67556">
        <ele>201.60000610352</ele>
        <time>2024-05-20T07:48:39.000Z</time>
      </trkpt>
      <trkpt lat="46.5813" lon="4.67556">
        <ele>201.60000610352</ele>
        <time>2024-05-20T07:48:40.000Z</time>
      </trkpt>
      <trkpt lat="46.58125" lon="4.67558">
        <ele>201.60000610352</ele>
        <time>2024-05-20T07:48:41.000Z</time>
      </trkpt>
      <trkpt lat="46.5812" lon="4.67558">
        <ele>201.39999389648</ele>
        <time>2024-05-20T07:48:42.000Z</time>
      </trkpt>
      <trkpt lat="46.58115" lon="4.67559">
        <ele>201.19999694824</ele>
        <time>2024-05-20T07:48:43.000Z</time>
      </trkpt>
      <trkpt lat="46.58111" lon="4.6756">
        <ele>201</ele>
        <time>2024-05-20T07:48:44.000Z</time>
      </trkpt>
      <trkpt lat="46.58105" lon="4.67561">
        <ele>201</ele>
        <time>2024-05-20T07:48:45.000Z</time>
      </trkpt>
      <trkpt lat="46.581" lon="4.67562">
        <ele>200.80000305176</ele>
        <time>2024-05-20T07:48:46.000Z</time>
      </trkpt>
      <trkpt lat="46.58095" lon="4.67564">
        <ele>200.80000305176</ele>
        <time>2024-05-20T07:48:47.000Z</time>
      </trkpt>
      <trkpt lat="46.58089" lon="4.67565">
        <ele>200.80000305176</ele>
        <time>2024-05-20T07:48:48.000Z</time>
      </trkpt>
      <trkpt lat="46.58084" lon="4.67566">
        <ele>200.80000305176</ele>
        <time>2024-05-20T07:48:49.000Z</time>
      </trkpt>
      <trkpt lat="46.58078" lon="4.67567">
        <ele>200.80000305176</ele>
        <time>2024-05-20T07:48:50.000Z</time>
      </trkpt>
      <trkpt lat="46.58073" lon="4.67568">
        <ele>200.80000305176</ele>
        <time>2024-05-20T07:48:51.000Z</time>
      </trkpt>
      <trkpt lat="46.58067" lon="4.67569">
        <ele>200.80000305176</ele>
        <time>2024-05-20T07:48:52.000Z</time>
      </trkpt>
      <trkpt lat="46.58062" lon="4.6757">
        <ele>200.80000305176</ele>
        <time>2024-05-20T07:48:53.000Z</time>
      </trkpt>
      <trkpt lat="46.58056" lon="4.67571">
        <ele>200.80000305176</ele>
        <time>2024-05-20T07:48:54.000Z</time>
      </trkpt>
      <trkpt lat="46.5805" lon="4.67572">
        <ele>200.80000305176</ele>
        <time>2024-05-20T07:48:55.000Z</time>
      </trkpt>
      <trkpt lat="46.58045" lon="4.67574">
        <ele>201</ele>
        <time>2024-05-20T07:48:56.000Z</time>
      </trkpt>
      <trkpt lat="46.58039" lon="4.67574">
        <ele>201</ele>
        <time>2024-05-20T07:48:57.000Z</time>
      </trkpt>
      <trkpt lat="46.58033" lon="4.67575">
        <ele>201</ele>
        <time>2024-05-20T07:48:58.000Z</time>
      </trkpt>
      <trkpt lat="46.58027" lon="4.67576">
        <ele>201</ele>
        <time>2024-05-20T07:48:59.000Z</time>
      </trkpt>
      <trkpt lat="46.58021" lon="4.67577">
        <ele>201</ele>
        <time>2024-05-20T07:49:00.000Z</time>
      </trkpt>
      <trkpt lat="46.58015" lon="4.67577">
        <ele>201</ele>
        <time>2024-05-20T07:49:01.000Z</time>
      </trkpt>
      <trkpt lat="46.58009" lon="4.67578">
        <ele>201</ele>
        <time>2024-05-20T07:49:02.000Z</time>
      </trkpt>
      <trkpt lat="46.58002" lon="4.67579">
        <ele>201</ele>
        <time>2024-05-20T07:49:03.000Z</time>
      </trkpt>
      <trkpt lat="46.57996" lon="4.6758">
        <ele>201</ele>
        <time>2024-05-20T07:49:04.000Z</time>
      </trkpt>
      <trkpt lat="46.5799" lon="4.67581">
        <ele>201</ele>
        <time>2024-05-20T07:49:05.000Z</time>
      </trkpt>
      <trkpt lat="46.57984" lon="4.67582">
        <ele>201</ele>
        <time>2024-05-20T07:49:06.000Z</time>
      </trkpt>
      <trkpt lat="46.57978" lon="4.67583">
        <ele>200.80000305176</ele>
        <time>2024-05-20T07:49:07.000Z</time>
      </trkpt>
      <trkpt lat="46.57971" lon="4.67584">
        <ele>200.80000305176</ele>
        <time>2024-05-20T07:49:08.000Z</time>
      </trkpt>
      <trkpt lat="46.57965" lon="4.67585">
        <ele>200.80000305176</ele>
        <time>2024-05-20T07:49:09.000Z</time>
      </trkpt>
      <trkpt lat="46.57959" lon="4.67586">
        <ele>200.80000305176</ele>
        <time>2024-05-20T07:49:10.000Z</time>
      </trkpt>
      <trkpt lat="46.57953" lon="4.67587">
        <ele>200.80000305176</ele>
        <time>2024-05-20T07:49:11.000Z</time>
      </trkpt>
      <trkpt lat="46.57947" lon="4.67589">
        <ele>200.80000305176</ele>
        <time>2024-05-20T07:49:12.000Z</time>
      </trkpt>
      <trkpt lat="46.57941" lon="4.6759">
        <ele>200.80000305176</ele>
        <time>2024-05-20T07:49:13.000Z</time>
      </trkpt>
      <trkpt lat="46.57935" lon="4.67591">
        <ele>200.80000305176</ele>
        <time>2024-05-20T07:49:14.000Z</time>
      </trkpt>
      <trkpt lat="46.57928" lon="4.67591">
        <ele>200.80000305176</ele>
        <time>2024-05-20T07:49:15.000Z</time>
      </trkpt>
      <trkpt lat="46.57923" lon="4.67592">
        <ele>200.80000305176</ele>
        <time>2024-05-20T07:49:16.000Z</time>
      </trkpt>
      <trkpt lat="46.57917" lon="4.67594">
        <ele>200.80000305176</ele>
        <time>2024-05-20T07:49:17.000Z</time>
      </trkpt>
      <trkpt lat="46.57911" lon="4.67595">
        <ele>200.80000305176</ele>
        <time>2024-05-20T07:49:18.000Z</time>
      </trkpt>
      <trkpt lat="46.57905" lon="4.67597">
        <ele>200.80000305176</ele>
        <time>2024-05-20T07:49:19.000Z</time>
      </trkpt>
      <trkpt lat="46.57898" lon="4.67598">
        <ele>200.80000305176</ele>
        <time>2024-05-20T07:49:20.000Z</time>
      </trkpt>
      <trkpt lat="46.57892" lon="4.67598">
        <ele>200.80000305176</ele>
        <time>2024-05-20T07:49:21.000Z</time>
      </trkpt>
      <trkpt lat="46.57886" lon="4.67599">
        <ele>200.60000610352</ele>
        <time>2024-05-20T07:49:22.000Z</time>
      </trkpt>
      <trkpt lat="46.57879" lon="4.676">
        <ele>200.60000610352</ele>
        <time>2024-05-20T07:49:23.000Z</time>
      </trkpt>
      <trkpt lat="46.57873" lon="4.67601">
        <ele>200.60000610352</ele>
        <time>2024-05-20T07:49:24.000Z</time>
      </trkpt>
      <trkpt lat="46.57867" lon="4.67602">
        <ele>200.60000610352</ele>
        <time>2024-05-20T07:49:25.000Z</time>
      </trkpt>
      <trkpt lat="46.57861" lon="4.67603">
        <ele>200.60000610352</ele>
        <time>2024-05-20T07:49:26.000Z</time>
      </trkpt>
      <trkpt lat="46.57855" lon="4.67605">
        <ele>200.60000610352</ele>
        <time>2024-05-20T07:49:27.000Z</time>
      </trkpt>
      <trkpt lat="46.57849" lon="4.67606">
        <ele>200.60000610352</ele>
        <time>2024-05-20T07:49:28.000Z</time>
      </trkpt>
      <trkpt lat="46.57842" lon="4.67607">
        <ele>200.60000610352</ele>
        <time>2024-05-20T07:49:29.000Z</time>
      </trkpt>
      <trkpt lat="46.57836" lon="4.67608">
        <ele>200.60000610352</ele>
        <time>2024-05-20T07:49:30.000Z</time>
      </trkpt>
      <trkpt lat="46.5783" lon="4.67609">
        <ele>200.60000610352</ele>
        <time>2024-05-20T07:49:31.000Z</time>
      </trkpt>
      <trkpt lat="46.57824" lon="4.6761">
        <ele>200.60000610352</ele>
        <time>2024-05-20T07:49:32.000Z</time>
      </trkpt>
      <trkpt lat="46.57817" lon="4.6761">
        <ele>200.60000610352</ele>
        <time>2024-05-20T07:49:33.000Z</time>
      </trkpt>
      <trkpt lat="46.57811" lon="4.67611">
        <ele>200.60000610352</ele>
        <time>2024-05-20T07:49:34.000Z</time>
      </trkpt>
      <trkpt lat="46.57804" lon="4.67612">
        <ele>200.60000610352</ele>
        <time>2024-05-20T07:49:35.000Z</time>
      </trkpt>
      <trkpt lat="46.57798" lon="4.67613">
        <ele>200.60000610352</ele>
        <time>2024-05-20T07:49:36.000Z</time>
      </trkpt>
      <trkpt lat="46.57791" lon="4.67614">
        <ele>200.60000610352</ele>
        <time>2024-05-20T07:49:37.000Z</time>
      </trkpt>
      <trkpt lat="46.57785" lon="4.67616">
        <ele>200.60000610352</ele>
        <time>2024-05-20T07:49:38.000Z</time>
      </trkpt>
      <trkpt lat="46.57778" lon="4.67617">
        <ele>200.60000610352</ele>
        <time>2024-05-20T07:49:39.000Z</time>
      </trkpt>
      <trkpt lat="46.57772" lon="4.67617">
        <ele>200.60000610352</ele>
        <time>2024-05-20T07:49:40.000Z</time>
      </trkpt>
      <trkpt lat="46.57765" lon="4.67618">
        <ele>200.60000610352</ele>
        <time>2024-05-20T07:49:41.000Z</time>
      </trkpt>
      <trkpt lat="46.57759" lon="4.67618">
        <ele>200.60000610352</ele>
        <time>2024-05-20T07:49:42.000Z</time>
      </trkpt>
      <trkpt lat="46.57753" lon="4.67618">
        <ele>200.60000610352</ele>
        <time>2024-05-20T07:49:43.000Z</time>
      </trkpt>
      <trkpt lat="46.57747" lon="4.67619">
        <ele>200.60000610352</ele>
        <time>2024-05-20T07:49:44.000Z</time>
      </trkpt>
      <trkpt lat="46.5774" lon="4.67621">
        <ele>200.60000610352</ele>
        <time>2024-05-20T07:49:45.000Z</time>
      </trkpt>
      <trkpt lat="46.57734" lon="4.67621">
        <ele>200.60000610352</ele>
        <time>2024-05-20T07:49:46.000Z</time>
      </trkpt>
      <trkpt lat="46.57728" lon="4.67622">
        <ele>200.60000610352</ele>
        <time>2024-05-20T07:49:47.000Z</time>
      </trkpt>
      <trkpt lat="46.57722" lon="4.67623">
        <ele>200.60000610352</ele>
        <time>2024-05-20T07:49:48.000Z</time>
      </trkpt>
      <trkpt lat="46.57715" lon="4.67624">
        <ele>200.60000610352</ele>
        <time>2024-05-20T07:49:49.000Z</time>
      </trkpt>
      <trkpt lat="46.57709" lon="4.67625">
        <ele>200.60000610352</ele>
        <time>2024-05-20T07:49:50.000Z</time>
      </trkpt>
      <trkpt lat="46.57703" lon="4.67626">
        <ele>200.60000610352</ele>
        <time>2024-05-20T07:49:51.000Z</time>
      </trkpt>
      <trkpt lat="46.57697" lon="4.67627">
        <ele>200.60000610352</ele>
        <time>2024-05-20T07:49:52.000Z</time>
      </trkpt>
      <trkpt lat="46.5769" lon="4.67627">
        <ele>200.60000610352</ele>
        <time>2024-05-20T07:49:53.000Z</time>
      </trkpt>
      <trkpt lat="46.57684" lon="4.67628">
        <ele>200.60000610352</ele>
        <time>2024-05-20T07:49:54.000Z</time>
      </trkpt>
      <trkpt lat="46.57678" lon="4.67629">
        <ele>200.60000610352</ele>
        <time>2024-05-20T07:49:55.000Z</time>
      </trkpt>
      <trkpt lat="46.57672" lon="4.67629">
        <ele>200.60000610352</ele>
        <time>2024-05-20T07:49:56.000Z</time>
      </trkpt>
      <trkpt lat="46.57665" lon="4.67631">
        <ele>200.60000610352</ele>
        <time>2024-05-20T07:49:57.000Z</time>
      </trkpt>
      <trkpt lat="46.57659" lon="4.67632">
        <ele>200.60000610352</ele>
        <time>2024-05-20T07:49:58.000Z</time>
      </trkpt>
      <trkpt lat="46.57653" lon="4.67633">
        <ele>200.80000305176</ele>
        <time>2024-05-20T07:49:59.000Z</time>
      </trkpt>
      <trkpt lat="46.57647" lon="4.67633">
        <ele>200.80000305176</ele>
        <time>2024-05-20T07:50:00.000Z</time>
      </trkpt>
      <trkpt lat="46.57641" lon="4.67635">
        <ele>200.80000305176</ele>
        <time>2024-05-20T07:50:01.000Z</time>
      </trkpt>
      <trkpt lat="46.57635" lon="4.67636">
        <ele>200.80000305176</ele>
        <time>2024-05-20T07:50:02.000Z</time>
      </trkpt>
      <trkpt lat="46.57629" lon="4.67637">
        <ele>200.80000305176</ele>
        <time>2024-05-20T07:50:03.000Z</time>
      </trkpt>
      <trkpt lat="46.57622" lon="4.67637">
        <ele>200.80000305176</ele>
        <time>2024-05-20T07:50:04.000Z</time>
      </trkpt>
      <trkpt lat="46.57616" lon="4.67638">
        <ele>200.80000305176</ele>
        <time>2024-05-20T07:50:05.000Z</time>
      </trkpt>
      <trkpt lat="46.5761" lon="4.67639">
        <ele>200.80000305176</ele>
        <time>2024-05-20T07:50:06.000Z</time>
      </trkpt>
      <trkpt lat="46.57604" lon="4.6764">
        <ele>200.80000305176</ele>
        <time>2024-05-20T07:50:07.000Z</time>
      </trkpt>
      <trkpt lat="46.57598" lon="4.67641">
        <ele>200.80000305176</ele>
        <time>2024-05-20T07:50:08.000Z</time>
      </trkpt>
      <trkpt lat="46.57592" lon="4.67642">
        <ele>200.80000305176</ele>
        <time>2024-05-20T07:50:09.000Z</time>
      </trkpt>
      <trkpt lat="46.57585" lon="4.67643">
        <ele>200.80000305176</ele>
        <time>2024-05-20T07:50:10.000Z</time>
      </trkpt>
      <trkpt lat="46.5758" lon="4.67644">
        <ele>200.80000305176</ele>
        <time>2024-05-20T07:50:11.000Z</time>
      </trkpt>
      <trkpt lat="46.57574" lon="4.67645">
        <ele>200.80000305176</ele>
        <time>2024-05-20T07:50:12.000Z</time>
      </trkpt>
      <trkpt lat="46.57568" lon="4.67646">
        <ele>200.80000305176</ele>
        <time>2024-05-20T07:50:13.000Z</time>
      </trkpt>
      <trkpt lat="46.57562" lon="4.67647">
        <ele>201</ele>
        <time>2024-05-20T07:50:14.000Z</time>
      </trkpt>
      <trkpt lat="46.57556" lon="4.67648">
        <ele>201</ele>
        <time>2024-05-20T07:50:15.000Z</time>
      </trkpt>
      <trkpt lat="46.5755" lon="4.67648">
        <ele>201</ele>
        <time>2024-05-20T07:50:16.000Z</time>
      </trkpt>
      <trkpt lat="46.57544" lon="4.67649">
        <ele>201</ele>
        <time>2024-05-20T07:50:17.000Z</time>
      </trkpt>
      <trkpt lat="46.57538" lon="4.6765">
        <ele>201.19999694824</ele>
        <time>2024-05-20T07:50:18.000Z</time>
      </trkpt>
      <trkpt lat="46.57531" lon="4.67651">
        <ele>201.19999694824</ele>
        <time>2024-05-20T07:50:19.000Z</time>
      </trkpt>
      <trkpt lat="46.57525" lon="4.67652">
        <ele>201.19999694824</ele>
        <time>2024-05-20T07:50:20.000Z</time>
      </trkpt>
      <trkpt lat="46.57519" lon="4.67653">
        <ele>201.19999694824</ele>
        <time>2024-05-20T07:50:21.000Z</time>
      </trkpt>
      <trkpt lat="46.57513" lon="4.67655">
        <ele>201.19999694824</ele>
        <time>2024-05-20T07:50:22.000Z</time>
      </trkpt>
      <trkpt lat="46.57507" lon="4.67656">
        <ele>201.19999694824</ele>
        <time>2024-05-20T07:50:23.000Z</time>
      </trkpt>
      <trkpt lat="46.57502" lon="4.67657">
        <ele>201.19999694824</ele>
        <time>2024-05-20T07:50:24.000Z</time>
      </trkpt>
      <trkpt lat="46.57497" lon="4.67657">
        <ele>201.19999694824</ele>
        <time>2024-05-20T07:50:25.000Z</time>
      </trkpt>
      <trkpt lat="46.57493" lon="4.67656">
        <ele>201.19999694824</ele>
        <time>2024-05-20T07:50:26.000Z</time>
      </trkpt>
      <trkpt lat="46.57489" lon="4.67657">
        <ele>201.19999694824</ele>
        <time>2024-05-20T07:50:27.000Z</time>
      </trkpt>
      <trkpt lat="46.57485" lon="4.67658">
        <ele>201.39999389648</ele>
        <time>2024-05-20T07:50:28.000Z</time>
      </trkpt>
      <trkpt lat="46.57481" lon="4.67659">
        <ele>201.60000610352</ele>
        <time>2024-05-20T07:50:29.000Z</time>
      </trkpt>
      <trkpt lat="46.57476" lon="4.67659">
        <ele>201.60000610352</ele>
        <time>2024-05-20T07:50:30.000Z</time>
      </trkpt>
      <trkpt lat="46.57471" lon="4.67661">
        <ele>201.60000610352</ele>
        <time>2024-05-20T07:50:31.000Z</time>
      </trkpt>
      <trkpt lat="46.57466" lon="4.67662">
        <ele>201.60000610352</ele>
        <time>2024-05-20T07:50:32.000Z</time>
      </trkpt>
      <trkpt lat="46.57461" lon="4.67663">
        <ele>201.60000610352</ele>
        <time>2024-05-20T07:50:33.000Z</time>
      </trkpt>
      <trkpt lat="46.57456" lon="4.67664">
        <ele>201.60000610352</ele>
        <time>2024-05-20T07:50:34.000Z</time>
      </trkpt>
      <trkpt lat="46.5745" lon="4.67665">
        <ele>201.60000610352</ele>
        <time>2024-05-20T07:50:35.000Z</time>
      </trkpt>
      <trkpt lat="46.57445" lon="4.67666">
        <ele>201.60000610352</ele>
        <time>2024-05-20T07:50:36.000Z</time>
      </trkpt>
      <trkpt lat="46.5744" lon="4.67666">
        <ele>201.60000610352</ele>
        <time>2024-05-20T07:50:37.000Z</time>
      </trkpt>
      <trkpt lat="46.57435" lon="4.67666">
        <ele>201.60000610352</ele>
        <time>2024-05-20T07:50:38.000Z</time>
      </trkpt>
      <trkpt lat="46.57429" lon="4.67667">
        <ele>201.60000610352</ele>
        <time>2024-05-20T07:50:39.000Z</time>
      </trkpt>
      <trkpt lat="46.57424" lon="4.67667">
        <ele>201.60000610352</ele>
        <time>2024-05-20T07:50:40.000Z</time>
      </trkpt>
      <trkpt lat="46.57419" lon="4.67668">
        <ele>201.60000610352</ele>
        <time>2024-05-20T07:50:41.000Z</time>
      </trkpt>
      <trkpt lat="46.57414" lon="4.67669">
        <ele>201.60000610352</ele>
        <time>2024-05-20T07:50:42.000Z</time>
      </trkpt>
      <trkpt lat="46.5741" lon="4.6767">
        <ele>201.60000610352</ele>
        <time>2024-05-20T07:50:43.000Z</time>
      </trkpt>
      <trkpt lat="46.57405" lon="4.67671">
        <ele>201.60000610352</ele>
        <time>2024-05-20T07:50:44.000Z</time>
      </trkpt>
      <trkpt lat="46.574" lon="4.67671">
        <ele>201.60000610352</ele>
        <time>2024-05-20T07:50:45.000Z</time>
      </trkpt>
      <trkpt lat="46.57395" lon="4.67672">
        <ele>201.60000610352</ele>
        <time>2024-05-20T07:50:46.000Z</time>
      </trkpt>
      <trkpt lat="46.57391" lon="4.67672">
        <ele>201.60000610352</ele>
        <time>2024-05-20T07:50:47.000Z</time>
      </trkpt>
      <trkpt lat="46.57386" lon="4.67673">
        <ele>201.60000610352</ele>
        <time>2024-05-20T07:50:48.000Z</time>
      </trkpt>
      <trkpt lat="46.57381" lon="4.67674">
        <ele>201.60000610352</ele>
        <time>2024-05-20T07:50:49.000Z</time>
      </trkpt>
      <trkpt lat="46.57377" lon="4.67676">
        <ele>201.60000610352</ele>
        <time>2024-05-20T07:50:50.000Z</time>
      </trkpt>
      <trkpt lat="46.57373" lon="4.67677">
        <ele>201.80000305176</ele>
        <time>2024-05-20T07:50:51.000Z</time>
      </trkpt>
      <trkpt lat="46.57369" lon="4.67677">
        <ele>201.80000305176</ele>
        <time>2024-05-20T07:50:52.000Z</time>
      </trkpt>
      <trkpt lat="46.57365" lon="4.67677">
        <ele>201.80000305176</ele>
        <time>2024-05-20T07:50:53.000Z</time>
      </trkpt>
      <trkpt lat="46.57361" lon="4.67677">
        <ele>201.80000305176</ele>
        <time>2024-05-20T07:50:54.000Z</time>
      </trkpt>
      <trkpt lat="46.57356" lon="4.67678">
        <ele>201.80000305176</ele>
        <time>2024-05-20T07:50:55.000Z</time>
      </trkpt>
      <trkpt lat="46.57351" lon="4.67679">
        <ele>201.80000305176</ele>
        <time>2024-05-20T07:50:56.000Z</time>
      </trkpt>
      <trkpt lat="46.57346" lon="4.67679">
        <ele>201.60000610352</ele>
        <time>2024-05-20T07:50:57.000Z</time>
      </trkpt>
      <trkpt lat="46.57341" lon="4.6768">
        <ele>201.60000610352</ele>
        <time>2024-05-20T07:50:58.000Z</time>
      </trkpt>
      <trkpt lat="46.57335" lon="4.67681">
        <ele>201.19999694824</ele>
        <time>2024-05-20T07:50:59.000Z</time>
      </trkpt>
      <trkpt lat="46.5733" lon="4.67682">
        <ele>201.19999694824</ele>
        <time>2024-05-20T07:51:00.000Z</time>
      </trkpt>
      <trkpt lat="46.57324" lon="4.67682">
        <ele>201.19999694824</ele>
        <time>2024-05-20T07:51:01.000Z</time>
      </trkpt>
      <trkpt lat="46.57319" lon="4.67683">
        <ele>201.19999694824</ele>
        <time>2024-05-20T07:51:02.000Z</time>
      </trkpt>
      <trkpt lat="46.57314" lon="4.67684">
        <ele>201.19999694824</ele>
        <time>2024-05-20T07:51:03.000Z</time>
      </trkpt>
      <trkpt lat="46.57308" lon="4.67685">
        <ele>201.19999694824</ele>
        <time>2024-05-20T07:51:04.000Z</time>
      </trkpt>
      <trkpt lat="46.57303" lon="4.67686">
        <ele>201.19999694824</ele>
        <time>2024-05-20T07:51:05.000Z</time>
      </trkpt>
      <trkpt lat="46.57297" lon="4.67687">
        <ele>201</ele>
        <time>2024-05-20T07:51:06.000Z</time>
      </trkpt>
      <trkpt lat="46.57292" lon="4.67687">
        <ele>201</ele>
        <time>2024-05-20T07:51:07.000Z</time>
      </trkpt>
      <trkpt lat="46.57286" lon="4.67688">
        <ele>201</ele>
        <time>2024-05-20T07:51:08.000Z</time>
      </trkpt>
      <trkpt lat="46.5728" lon="4.67689">
        <ele>201</ele>
        <time>2024-05-20T07:51:09.000Z</time>
      </trkpt>
      <trkpt lat="46.57275" lon="4.6769">
        <ele>201</ele>
        <time>2024-05-20T07:51:10.000Z</time>
      </trkpt>
      <trkpt lat="46.57269" lon="4.67691">
        <ele>201</ele>
        <time>2024-05-20T07:51:11.000Z</time>
      </trkpt>
      <trkpt lat="46.57263" lon="4.67692">
        <ele>201</ele>
        <time>2024-05-20T07:51:12.000Z</time>
      </trkpt>
      <trkpt lat="46.57258" lon="4.67693">
        <ele>201</ele>
        <time>2024-05-20T07:51:13.000Z</time>
      </trkpt>
      <trkpt lat="46.57252" lon="4.67694">
        <ele>201.19999694824</ele>
        <time>2024-05-20T07:51:14.000Z</time>
      </trkpt>
      <trkpt lat="46.57246" lon="4.67695">
        <ele>201.19999694824</ele>
        <time>2024-05-20T07:51:15.000Z</time>
      </trkpt>
      <trkpt lat="46.5724" lon="4.67696">
        <ele>201.19999694824</ele>
        <time>2024-05-20T07:51:16.000Z</time>
      </trkpt>
      <trkpt lat="46.57234" lon="4.67697">
        <ele>201.19999694824</ele>
        <time>2024-05-20T07:51:17.000Z</time>
      </trkpt>
      <trkpt lat="46.57228" lon="4.67698">
        <ele>201.19999694824</ele>
        <time>2024-05-20T07:51:18.000Z</time>
      </trkpt>
      <trkpt lat="46.57222" lon="4.67698">
        <ele>201.19999694824</ele>
        <time>2024-05-20T07:51:19.000Z</time>
      </trkpt>
      <trkpt lat="46.57216" lon="4.67699">
        <ele>201.19999694824</ele>
        <time>2024-05-20T07:51:20.000Z</time>
      </trkpt>
      <trkpt lat="46.5721" lon="4.677">
        <ele>201.39999389648</ele>
        <time>2024-05-20T07:51:21.000Z</time>
      </trkpt>
      <trkpt lat="46.57204" lon="4.67701">
        <ele>201.39999389648</ele>
        <time>2024-05-20T07:51:22.000Z</time>
      </trkpt>
      <trkpt lat="46.57198" lon="4.67702">
        <ele>201.39999389648</ele>
        <time>2024-05-20T07:51:23.000Z</time>
      </trkpt>
      <trkpt lat="46.57192" lon="4.67703">
        <ele>201.60000610352</ele>
        <time>2024-05-20T07:51:24.000Z</time>
      </trkpt>
      <trkpt lat="46.57186" lon="4.67704">
        <ele>201.60000610352</ele>
        <time>2024-05-20T07:51:25.000Z</time>
      </trkpt>
      <trkpt lat="46.5718" lon="4.67705">
        <ele>201.60000610352</ele>
        <time>2024-05-20T07:51:26.000Z</time>
      </trkpt>
      <trkpt lat="46.57174" lon="4.67706">
        <ele>201.60000610352</ele>
        <time>2024-05-20T07:51:27.000Z</time>
      </trkpt>
      <trkpt lat="46.57168" lon="4.67707">
        <ele>201.60000610352</ele>
        <time>2024-05-20T07:51:28.000Z</time>
      </trkpt>
      <trkpt lat="46.57162" lon="4.67708">
        <ele>201.60000610352</ele>
        <time>2024-05-20T07:51:29.000Z</time>
      </trkpt>
      <trkpt lat="46.57156" lon="4.67709">
        <ele>201.60000610352</ele>
        <time>2024-05-20T07:51:30.000Z</time>
      </trkpt>
      <trkpt lat="46.5715" lon="4.6771">
        <ele>201.60000610352</ele>
        <time>2024-05-20T07:51:31.000Z</time>
      </trkpt>
      <trkpt lat="46.57144" lon="4.67711">
        <ele>201.60000610352</ele>
        <time>2024-05-20T07:51:32.000Z</time>
      </trkpt>
      <trkpt lat="46.57138" lon="4.67712">
        <ele>201.60000610352</ele>
        <time>2024-05-20T07:51:33.000Z</time>
      </trkpt>
      <trkpt lat="46.57133" lon="4.67713">
        <ele>201.60000610352</ele>
        <time>2024-05-20T07:51:34.000Z</time>
      </trkpt>
      <trkpt lat="46.57127" lon="4.67714">
        <ele>201.60000610352</ele>
        <time>2024-05-20T07:51:35.000Z</time>
      </trkpt>
      <trkpt lat="46.57121" lon="4.67715">
        <ele>201.80000305176</ele>
        <time>2024-05-20T07:51:36.000Z</time>
      </trkpt>
      <trkpt lat="46.57115" lon="4.67716">
        <ele>202</ele>
        <time>2024-05-20T07:51:37.000Z</time>
      </trkpt>
      <trkpt lat="46.57109" lon="4.67717">
        <ele>202</ele>
        <time>2024-05-20T07:51:38.000Z</time>
      </trkpt>
      <trkpt lat="46.57104" lon="4.67718">
        <ele>202</ele>
        <time>2024-05-20T07:51:39.000Z</time>
      </trkpt>
      <trkpt lat="46.57098" lon="4.67718">
        <ele>202</ele>
        <time>2024-05-20T07:51:40.000Z</time>
      </trkpt>
      <trkpt lat="46.57092" lon="4.67719">
        <ele>202</ele>
        <time>2024-05-20T07:51:41.000Z</time>
      </trkpt>
      <trkpt lat="46.57086" lon="4.6772">
        <ele>202</ele>
        <time>2024-05-20T07:51:42.000Z</time>
      </trkpt>
      <trkpt lat="46.5708" lon="4.67721">
        <ele>202</ele>
        <time>2024-05-20T07:51:43.000Z</time>
      </trkpt>
      <trkpt lat="46.57074" lon="4.67721">
        <ele>202.19999694824</ele>
        <time>2024-05-20T07:51:44.000Z</time>
      </trkpt>
      <trkpt lat="46.57068" lon="4.67722">
        <ele>202.19999694824</ele>
        <time>2024-05-20T07:51:45.000Z</time>
      </trkpt>
      <trkpt lat="46.57062" lon="4.67723">
        <ele>202.19999694824</ele>
        <time>2024-05-20T07:51:46.000Z</time>
      </trkpt>
      <trkpt lat="46.57056" lon="4.67724">
        <ele>202.19999694824</ele>
        <time>2024-05-20T07:51:47.000Z</time>
      </trkpt>
      <trkpt lat="46.5705" lon="4.67725">
        <ele>202.19999694824</ele>
        <time>2024-05-20T07:51:48.000Z</time>
      </trkpt>
      <trkpt lat="46.57044" lon="4.67727">
        <ele>202.39999389648</ele>
        <time>2024-05-20T07:51:49.000Z</time>
      </trkpt>
      <trkpt lat="46.57039" lon="4.67728">
        <ele>202.39999389648</ele>
        <time>2024-05-20T07:51:50.000Z</time>
      </trkpt>
      <trkpt lat="46.57033" lon="4.67729">
        <ele>202.39999389648</ele>
        <time>2024-05-20T07:51:51.000Z</time>
      </trkpt>
      <trkpt lat="46.57027" lon="4.67729">
        <ele>202.39999389648</ele>
        <time>2024-05-20T07:51:52.000Z</time>
      </trkpt>
      <trkpt lat="46.57021" lon="4.6773">
        <ele>202.39999389648</ele>
        <time>2024-05-20T07:51:53.000Z</time>
      </trkpt>
      <trkpt lat="46.57016" lon="4.67731">
        <ele>202.60000610352</ele>
        <time>2024-05-20T07:51:54.000Z</time>
      </trkpt>
      <trkpt lat="46.5701" lon="4.67732">
        <ele>202.60000610352</ele>
        <time>2024-05-20T07:51:55.000Z</time>
      </trkpt>
      <trkpt lat="46.57004" lon="4.67733">
        <ele>202.60000610352</ele>
        <time>2024-05-20T07:51:56.000Z</time>
      </trkpt>
      <trkpt lat="46.56998" lon="4.67734">
        <ele>202.60000610352</ele>
        <time>2024-05-20T07:51:57.000Z</time>
      </trkpt>
      <trkpt lat="46.56992" lon="4.67735">
        <ele>202.80000305176</ele>
        <time>2024-05-20T07:51:58.000Z</time>
      </trkpt>
      <trkpt lat="46.56986" lon="4.67736">
        <ele>202.80000305176</ele>
        <time>2024-05-20T07:51:59.000Z</time>
      </trkpt>
      <trkpt lat="46.56981" lon="4.67737">
        <ele>202.80000305176</ele>
        <time>2024-05-20T07:52:00.000Z</time>
      </trkpt>
      <trkpt lat="46.56975" lon="4.67738">
        <ele>202.80000305176</ele>
        <time>2024-05-20T07:52:01.000Z</time>
      </trkpt>
      <trkpt lat="46.56969" lon="4.67738">
        <ele>202.80000305176</ele>
        <time>2024-05-20T07:52:02.000Z</time>
      </trkpt>
      <trkpt lat="46.56963" lon="4.67739">
        <ele>202.80000305176</ele>
        <time>2024-05-20T07:52:03.000Z</time>
      </trkpt>
      <trkpt lat="46.56957" lon="4.6774">
        <ele>202.80000305176</ele>
        <time>2024-05-20T07:52:04.000Z</time>
      </trkpt>
      <trkpt lat="46.56951" lon="4.67741">
        <ele>203</ele>
        <time>2024-05-20T07:52:05.000Z</time>
      </trkpt>
      <trkpt lat="46.56945" lon="4.67742">
        <ele>203</ele>
        <time>2024-05-20T07:52:06.000Z</time>
      </trkpt>
      <trkpt lat="46.56939" lon="4.67743">
        <ele>203</ele>
        <time>2024-05-20T07:52:07.000Z</time>
      </trkpt>
      <trkpt lat="46.56933" lon="4.67744">
        <ele>203.19999694824</ele>
        <time>2024-05-20T07:52:08.000Z</time>
      </trkpt>
      <trkpt lat="46.56927" lon="4.67744">
        <ele>203.19999694824</ele>
        <time>2024-05-20T07:52:09.000Z</time>
      </trkpt>
      <trkpt lat="46.56921" lon="4.67745">
        <ele>203.39999389648</ele>
        <time>2024-05-20T07:52:10.000Z</time>
      </trkpt>
      <trkpt lat="46.56916" lon="4.67746">
        <ele>203.39999389648</ele>
        <time>2024-05-20T07:52:11.000Z</time>
      </trkpt>
      <trkpt lat="46.5691" lon="4.67747">
        <ele>203.39999389648</ele>
        <time>2024-05-20T07:52:12.000Z</time>
      </trkpt>
      <trkpt lat="46.56904" lon="4.67748">
        <ele>203.39999389648</ele>
        <time>2024-05-20T07:52:13.000Z</time>
      </trkpt>
      <trkpt lat="46.56898" lon="4.67749">
        <ele>203.60000610352</ele>
        <time>2024-05-20T07:52:14.000Z</time>
      </trkpt>
      <trkpt lat="46.56892" lon="4.6775">
        <ele>203.60000610352</ele>
        <time>2024-05-20T07:52:15.000Z</time>
      </trkpt>
      <trkpt lat="46.56886" lon="4.67751">
        <ele>203.60000610352</ele>
        <time>2024-05-20T07:52:16.000Z</time>
      </trkpt>
      <trkpt lat="46.5688" lon="4.67752">
        <ele>203.60000610352</ele>
        <time>2024-05-20T07:52:17.000Z</time>
      </trkpt>
      <trkpt lat="46.56875" lon="4.67753">
        <ele>203.60000610352</ele>
        <time>2024-05-20T07:52:18.000Z</time>
      </trkpt>
      <trkpt lat="46.56869" lon="4.67754">
        <ele>203.60000610352</ele>
        <time>2024-05-20T07:52:19.000Z</time>
      </trkpt>
      <trkpt lat="46.56863" lon="4.67755">
        <ele>203.60000610352</ele>
        <time>2024-05-20T07:52:20.000Z</time>
      </trkpt>
      <trkpt lat="46.56857" lon="4.67756">
        <ele>203.60000610352</ele>
        <time>2024-05-20T07:52:21.000Z</time>
      </trkpt>
      <trkpt lat="46.56851" lon="4.67757">
        <ele>203.80000305176</ele>
        <time>2024-05-20T07:52:22.000Z</time>
      </trkpt>
      <trkpt lat="46.56845" lon="4.67758">
        <ele>203.80000305176</ele>
        <time>2024-05-20T07:52:23.000Z</time>
      </trkpt>
      <trkpt lat="46.5684" lon="4.67759">
        <ele>203.80000305176</ele>
        <time>2024-05-20T07:52:24.000Z</time>
      </trkpt>
      <trkpt lat="46.56834" lon="4.6776">
        <ele>203.80000305176</ele>
        <time>2024-05-20T07:52:25.000Z</time>
      </trkpt>
      <trkpt lat="46.56828" lon="4.67761">
        <ele>203.80000305176</ele>
        <time>2024-05-20T07:52:26.000Z</time>
      </trkpt>
      <trkpt lat="46.56822" lon="4.67762">
        <ele>203.80000305176</ele>
        <time>2024-05-20T07:52:27.000Z</time>
      </trkpt>
      <trkpt lat="46.56816" lon="4.67763">
        <ele>204</ele>
        <time>2024-05-20T07:52:28.000Z</time>
      </trkpt>
      <trkpt lat="46.5681" lon="4.67764">
        <ele>204</ele>
        <time>2024-05-20T07:52:29.000Z</time>
      </trkpt>
      <trkpt lat="46.56804" lon="4.67764">
        <ele>204</ele>
        <time>2024-05-20T07:52:30.000Z</time>
      </trkpt>
      <trkpt lat="46.56798" lon="4.67765">
        <ele>204.19999694824</ele>
        <time>2024-05-20T07:52:31.000Z</time>
      </trkpt>
      <trkpt lat="46.56792" lon="4.67766">
        <ele>204.19999694824</ele>
        <time>2024-05-20T07:52:32.000Z</time>
      </trkpt>
      <trkpt lat="46.56786" lon="4.67767">
        <ele>204.19999694824</ele>
        <time>2024-05-20T07:52:33.000Z</time>
      </trkpt>
      <trkpt lat="46.5678" lon="4.67768">
        <ele>204.19999694824</ele>
        <time>2024-05-20T07:52:34.000Z</time>
      </trkpt>
      <trkpt lat="46.56775" lon="4.67769">
        <ele>204.19999694824</ele>
        <time>2024-05-20T07:52:35.000Z</time>
      </trkpt>
      <trkpt lat="46.56769" lon="4.6777">
        <ele>204.19999694824</ele>
        <time>2024-05-20T07:52:36.000Z</time>
      </trkpt>
      <trkpt lat="46.56763" lon="4.67771">
        <ele>204.39999389648</ele>
        <time>2024-05-20T07:52:37.000Z</time>
      </trkpt>
      <trkpt lat="46.56757" lon="4.67772">
        <ele>204.39999389648</ele>
        <time>2024-05-20T07:52:38.000Z</time>
      </trkpt>
      <trkpt lat="46.56751" lon="4.67773">
        <ele>204.39999389648</ele>
        <time>2024-05-20T07:52:39.000Z</time>
      </trkpt>
      <trkpt lat="46.56745" lon="4.67773">
        <ele>204.39999389648</ele>
        <time>2024-05-20T07:52:40.000Z</time>
      </trkpt>
      <trkpt lat="46.56739" lon="4.67774">
        <ele>204.39999389648</ele>
        <time>2024-05-20T07:52:41.000Z</time>
      </trkpt>
      <trkpt lat="46.56733" lon="4.67775">
        <ele>204.60000610352</ele>
        <time>2024-05-20T07:52:42.000Z</time>
      </trkpt>
      <trkpt lat="46.56727" lon="4.67776">
        <ele>204.60000610352</ele>
        <time>2024-05-20T07:52:43.000Z</time>
      </trkpt>
      <trkpt lat="46.56721" lon="4.67777">
        <ele>204.60000610352</ele>
        <time>2024-05-20T07:52:44.000Z</time>
      </trkpt>
      <trkpt lat="46.56716" lon="4.67779">
        <ele>204.80000305176</ele>
        <time>2024-05-20T07:52:45.000Z</time>
      </trkpt>
      <trkpt lat="46.5671" lon="4.6778">
        <ele>204.80000305176</ele>
        <time>2024-05-20T07:52:46.000Z</time>
      </trkpt>
      <trkpt lat="46.56704" lon="4.67781">
        <ele>204.80000305176</ele>
        <time>2024-05-20T07:52:47.000Z</time>
      </trkpt>
      <trkpt lat="46.56698" lon="4.67782">
        <ele>204.80000305176</ele>
        <time>2024-05-20T07:52:48.000Z</time>
      </trkpt>
      <trkpt lat="46.56693" lon="4.67783">
        <ele>204.80000305176</ele>
        <time>2024-05-20T07:52:49.000Z</time>
      </trkpt>
      <trkpt lat="46.56687" lon="4.67784">
        <ele>205</ele>
        <time>2024-05-20T07:52:50.000Z</time>
      </trkpt>
      <trkpt lat="46.56681" lon="4.67785">
        <ele>205</ele>
        <time>2024-05-20T07:52:51.000Z</time>
      </trkpt>
      <trkpt lat="46.56676" lon="4.67786">
        <ele>205</ele>
        <time>2024-05-20T07:52:52.000Z</time>
      </trkpt>
      <trkpt lat="46.5667" lon="4.67786">
        <ele>205</ele>
        <time>2024-05-20T07:52:53.000Z</time>
      </trkpt>
      <trkpt lat="46.56664" lon="4.67787">
        <ele>205</ele>
        <time>2024-05-20T07:52:54.000Z</time>
      </trkpt>
      <trkpt lat="46.56659" lon="4.67788">
        <ele>205</ele>
        <time>2024-05-20T07:52:55.000Z</time>
      </trkpt>
      <trkpt lat="46.56653" lon="4.67788">
        <ele>205.19999694824</ele>
        <time>2024-05-20T07:52:56.000Z</time>
      </trkpt>
      <trkpt lat="46.56647" lon="4.67789">
        <ele>205.19999694824</ele>
        <time>2024-05-20T07:52:57.000Z</time>
      </trkpt>
      <trkpt lat="46.56641" lon="4.6779">
        <ele>205.39999389648</ele>
        <time>2024-05-20T07:52:58.000Z</time>
      </trkpt>
      <trkpt lat="46.56636" lon="4.6779">
        <ele>205.39999389648</ele>
        <time>2024-05-20T07:52:59.000Z</time>
      </trkpt>
      <trkpt lat="46.5663" lon="4.67791">
        <ele>205.39999389648</ele>
        <time>2024-05-20T07:53:00.000Z</time>
      </trkpt>
      <trkpt lat="46.56624" lon="4.67792">
        <ele>205.39999389648</ele>
        <time>2024-05-20T07:53:01.000Z</time>
      </trkpt>
      <trkpt lat="46.56618" lon="4.67793">
        <ele>205.39999389648</ele>
        <time>2024-05-20T07:53:02.000Z</time>
      </trkpt>
      <trkpt lat="46.56612" lon="4.67793">
        <ele>205.39999389648</ele>
        <time>2024-05-20T07:53:03.000Z</time>
      </trkpt>
      <trkpt lat="46.56606" lon="4.67794">
        <ele>205.39999389648</ele>
        <time>2024-05-20T07:53:04.000Z</time>
      </trkpt>
      <trkpt lat="46.566" lon="4.67796">
        <ele>205.39999389648</ele>
        <time>2024-05-20T07:53:05.000Z</time>
      </trkpt>
      <trkpt lat="46.56595" lon="4.67797">
        <ele>205.39999389648</ele>
        <time>2024-05-20T07:53:06.000Z</time>
      </trkpt>
      <trkpt lat="46.56589" lon="4.67797">
        <ele>205.39999389648</ele>
        <time>2024-05-20T07:53:07.000Z</time>
      </trkpt>
      <trkpt lat="46.56583" lon="4.67798">
        <ele>205.60000610352</ele>
        <time>2024-05-20T07:53:08.000Z</time>
      </trkpt>
      <trkpt lat="46.56578" lon="4.67799">
        <ele>205.60000610352</ele>
        <time>2024-05-20T07:53:09.000Z</time>
      </trkpt>
      <trkpt lat="46.56572" lon="4.67799">
        <ele>205.60000610352</ele>
        <time>2024-05-20T07:53:10.000Z</time>
      </trkpt>
      <trkpt lat="46.56566" lon="4.678">
        <ele>205.60000610352</ele>
        <time>2024-05-20T07:53:11.000Z</time>
      </trkpt>
      <trkpt lat="46.56561" lon="4.67801">
        <ele>205.60000610352</ele>
        <time>2024-05-20T07:53:12.000Z</time>
      </trkpt>
      <trkpt lat="46.56555" lon="4.67802">
        <ele>205.80000305176</ele>
        <time>2024-05-20T07:53:13.000Z</time>
      </trkpt>
      <trkpt lat="46.5655" lon="4.67803">
        <ele>205.80000305176</ele>
        <time>2024-05-20T07:53:14.000Z</time>
      </trkpt>
      <trkpt lat="46.56544" lon="4.67804">
        <ele>205.80000305176</ele>
        <time>2024-05-20T07:53:15.000Z</time>
      </trkpt>
      <trkpt lat="46.56538" lon="4.67804">
        <ele>205.80000305176</ele>
        <time>2024-05-20T07:53:16.000Z</time>
      </trkpt>
      <trkpt lat="46.56532" lon="4.67805">
        <ele>205.80000305176</ele>
        <time>2024-05-20T07:53:17.000Z</time>
      </trkpt>
      <trkpt lat="46.56526" lon="4.67806">
        <ele>205.80000305176</ele>
        <time>2024-05-20T07:53:18.000Z</time>
      </trkpt>
      <trkpt lat="46.5652" lon="4.67807">
        <ele>206</ele>
        <time>2024-05-20T07:53:19.000Z</time>
      </trkpt>
      <trkpt lat="46.56514" lon="4.67808">
        <ele>206</ele>
        <time>2024-05-20T07:53:20.000Z</time>
      </trkpt>
      <trkpt lat="46.56508" lon="4.67809">
        <ele>206</ele>
        <time>2024-05-20T07:53:21.000Z</time>
      </trkpt>
      <trkpt lat="46.56503" lon="4.6781">
        <ele>206.19999694824</ele>
        <time>2024-05-20T07:53:22.000Z</time>
      </trkpt>
      <trkpt lat="46.56497" lon="4.67811">
        <ele>206.19999694824</ele>
        <time>2024-05-20T07:53:23.000Z</time>
      </trkpt>
      <trkpt lat="46.56492" lon="4.67812">
        <ele>206.39999389648</ele>
        <time>2024-05-20T07:53:24.000Z</time>
      </trkpt>
      <trkpt lat="46.56487" lon="4.67813">
        <ele>206.39999389648</ele>
        <time>2024-05-20T07:53:25.000Z</time>
      </trkpt>
      <trkpt lat="46.56481" lon="4.67814">
        <ele>206.60000610352</ele>
        <time>2024-05-20T07:53:26.000Z</time>
      </trkpt>
      <trkpt lat="46.56476" lon="4.67815">
        <ele>206.60000610352</ele>
        <time>2024-05-20T07:53:27.000Z</time>
      </trkpt>
      <trkpt lat="46.56471" lon="4.67815">
        <ele>206.60000610352</ele>
        <time>2024-05-20T07:53:28.000Z</time>
      </trkpt>
      <trkpt lat="46.56466" lon="4.67816">
        <ele>206.60000610352</ele>
        <time>2024-05-20T07:53:29.000Z</time>
      </trkpt>
      <trkpt lat="46.5646" lon="4.67817">
        <ele>206.60000610352</ele>
        <time>2024-05-20T07:53:30.000Z</time>
      </trkpt>
      <trkpt lat="46.56455" lon="4.67818">
        <ele>206.60000610352</ele>
        <time>2024-05-20T07:53:31.000Z</time>
      </trkpt>
      <trkpt lat="46.56449" lon="4.67819">
        <ele>206.80000305176</ele>
        <time>2024-05-20T07:53:32.000Z</time>
      </trkpt>
      <trkpt lat="46.56444" lon="4.67819">
        <ele>206.80000305176</ele>
        <time>2024-05-20T07:53:33.000Z</time>
      </trkpt>
      <trkpt lat="46.56439" lon="4.6782">
        <ele>206.80000305176</ele>
        <time>2024-05-20T07:53:34.000Z</time>
      </trkpt>
      <trkpt lat="46.56433" lon="4.67821">
        <ele>206.80000305176</ele>
        <time>2024-05-20T07:53:35.000Z</time>
      </trkpt>
      <trkpt lat="46.56428" lon="4.67822">
        <ele>206.80000305176</ele>
        <time>2024-05-20T07:53:36.000Z</time>
      </trkpt>
      <trkpt lat="46.56422" lon="4.67823">
        <ele>206.80000305176</ele>
        <time>2024-05-20T07:53:37.000Z</time>
      </trkpt>
      <trkpt lat="46.56416" lon="4.67823">
        <ele>206.80000305176</ele>
        <time>2024-05-20T07:53:38.000Z</time>
      </trkpt>
      <trkpt lat="46.5641" lon="4.67824">
        <ele>206.80000305176</ele>
        <time>2024-05-20T07:53:39.000Z</time>
      </trkpt>
      <trkpt lat="46.56404" lon="4.67825">
        <ele>206.80000305176</ele>
        <time>2024-05-20T07:53:40.000Z</time>
      </trkpt>
      <trkpt lat="46.56398" lon="4.67825">
        <ele>206.80000305176</ele>
        <time>2024-05-20T07:53:41.000Z</time>
      </trkpt>
      <trkpt lat="46.56393" lon="4.67826">
        <ele>207</ele>
        <time>2024-05-20T07:53:42.000Z</time>
      </trkpt>
      <trkpt lat="46.56387" lon="4.67826">
        <ele>207</ele>
        <time>2024-05-20T07:53:43.000Z</time>
      </trkpt>
      <trkpt lat="46.56381" lon="4.67827">
        <ele>207</ele>
        <time>2024-05-20T07:53:44.000Z</time>
      </trkpt>
      <trkpt lat="46.56376" lon="4.67828">
        <ele>207.19999694824</ele>
        <time>2024-05-20T07:53:45.000Z</time>
      </trkpt>
      <trkpt lat="46.56371" lon="4.67828">
        <ele>207.19999694824</ele>
        <time>2024-05-20T07:53:46.000Z</time>
      </trkpt>
      <trkpt lat="46.56365" lon="4.6783">
        <ele>207.19999694824</ele>
        <time>2024-05-20T07:53:47.000Z</time>
      </trkpt>
      <trkpt lat="46.56359" lon="4.67831">
        <ele>207.19999694824</ele>
        <time>2024-05-20T07:53:48.000Z</time>
      </trkpt>
      <trkpt lat="46.56353" lon="4.67832">
        <ele>207.19999694824</ele>
        <time>2024-05-20T07:53:49.000Z</time>
      </trkpt>
      <trkpt lat="46.56347" lon="4.67833">
        <ele>207.39999389648</ele>
        <time>2024-05-20T07:53:50.000Z</time>
      </trkpt>
      <trkpt lat="46.56342" lon="4.67834">
        <ele>207.39999389648</ele>
        <time>2024-05-20T07:53:51.000Z</time>
      </trkpt>
      <trkpt lat="46.56336" lon="4.67835">
        <ele>207.39999389648</ele>
        <time>2024-05-20T07:53:52.000Z</time>
      </trkpt>
      <trkpt lat="46.5633" lon="4.67836">
        <ele>207.60000610352</ele>
        <time>2024-05-20T07:53:53.000Z</time>
      </trkpt>
      <trkpt lat="46.56324" lon="4.67837">
        <ele>207.60000610352</ele>
        <time>2024-05-20T07:53:54.000Z</time>
      </trkpt>
      <trkpt lat="46.56318" lon="4.67838">
        <ele>207.60000610352</ele>
        <time>2024-05-20T07:53:55.000Z</time>
      </trkpt>
      <trkpt lat="46.56312" lon="4.67839">
        <ele>207.60000610352</ele>
        <time>2024-05-20T07:53:56.000Z</time>
      </trkpt>
      <trkpt lat="46.56307" lon="4.6784">
        <ele>207.60000610352</ele>
        <time>2024-05-20T07:53:57.000Z</time>
      </trkpt>
      <trkpt lat="46.56301" lon="4.67841">
        <ele>207.60000610352</ele>
        <time>2024-05-20T07:53:58.000Z</time>
      </trkpt>
      <trkpt lat="46.56295" lon="4.67841">
        <ele>207.60000610352</ele>
        <time>2024-05-20T07:53:59.000Z</time>
      </trkpt>
      <trkpt lat="46.5629" lon="4.67842">
        <ele>207.60000610352</ele>
        <time>2024-05-20T07:54:00.000Z</time>
      </trkpt>
      <trkpt lat="46.56284" lon="4.67843">
        <ele>207.80000305176</ele>
        <time>2024-05-20T07:54:01.000Z</time>
      </trkpt>
      <trkpt lat="46.56279" lon="4.67843">
        <ele>207.80000305176</ele>
        <time>2024-05-20T07:54:02.000Z</time>
      </trkpt>
      <trkpt lat="46.56273" lon="4.67844">
        <ele>207.80000305176</ele>
        <time>2024-05-20T07:54:03.000Z</time>
      </trkpt>
      <trkpt lat="46.56267" lon="4.67845">
        <ele>207.80000305176</ele>
        <time>2024-05-20T07:54:04.000Z</time>
      </trkpt>
      <trkpt lat="46.56261" lon="4.67846">
        <ele>207.80000305176</ele>
        <time>2024-05-20T07:54:05.000Z</time>
      </trkpt>
      <trkpt lat="46.56255" lon="4.67847">
        <ele>207.80000305176</ele>
        <time>2024-05-20T07:54:06.000Z</time>
      </trkpt>
      <trkpt lat="46.56249" lon="4.67847">
        <ele>207.80000305176</ele>
        <time>2024-05-20T07:54:07.000Z</time>
      </trkpt>
      <trkpt lat="46.56244" lon="4.67848">
        <ele>207.80000305176</ele>
        <time>2024-05-20T07:54:08.000Z</time>
      </trkpt>
      <trkpt lat="46.56238" lon="4.67849">
        <ele>207.80000305176</ele>
        <time>2024-05-20T07:54:09.000Z</time>
      </trkpt>
      <trkpt lat="46.56231" lon="4.6785">
        <ele>207.80000305176</ele>
        <time>2024-05-20T07:54:10.000Z</time>
      </trkpt>
      <trkpt lat="46.56225" lon="4.67851">
        <ele>207.80000305176</ele>
        <time>2024-05-20T07:54:11.000Z</time>
      </trkpt>
      <trkpt lat="46.56219" lon="4.67852">
        <ele>207.80000305176</ele>
        <time>2024-05-20T07:54:12.000Z</time>
      </trkpt>
      <trkpt lat="46.56213" lon="4.67854">
        <ele>207.80000305176</ele>
        <time>2024-05-20T07:54:13.000Z</time>
      </trkpt>
      <trkpt lat="46.56207" lon="4.67855">
        <ele>207.80000305176</ele>
        <time>2024-05-20T07:54:14.000Z</time>
      </trkpt>
      <trkpt lat="46.56201" lon="4.67856">
        <ele>207.80000305176</ele>
        <time>2024-05-20T07:54:15.000Z</time>
      </trkpt>
      <trkpt lat="46.56195" lon="4.67857">
        <ele>207.80000305176</ele>
        <time>2024-05-20T07:54:16.000Z</time>
      </trkpt>
      <trkpt lat="46.56189" lon="4.67858">
        <ele>208</ele>
        <time>2024-05-20T07:54:17.000Z</time>
      </trkpt>
      <trkpt lat="46.56183" lon="4.6786">
        <ele>208</ele>
        <time>2024-05-20T07:54:18.000Z</time>
      </trkpt>
      <trkpt lat="46.56177" lon="4.67861">
        <ele>208</ele>
        <time>2024-05-20T07:54:19.000Z</time>
      </trkpt>
      <trkpt lat="46.5617" lon="4.67862">
        <ele>208</ele>
        <time>2024-05-20T07:54:20.000Z</time>
      </trkpt>
      <trkpt lat="46.56164" lon="4.67863">
        <ele>208</ele>
        <time>2024-05-20T07:54:21.000Z</time>
      </trkpt>
      <trkpt lat="46.56158" lon="4.67864">
        <ele>208.19999694824</ele>
        <time>2024-05-20T07:54:22.000Z</time>
      </trkpt>
      <trkpt lat="46.56151" lon="4.67865">
        <ele>208.19999694824</ele>
        <time>2024-05-20T07:54:23.000Z</time>
      </trkpt>
      <trkpt lat="46.56144" lon="4.67866">
        <ele>208.19999694824</ele>
        <time>2024-05-20T07:54:24.000Z</time>
      </trkpt>
      <trkpt lat="46.56138" lon="4.67867">
        <ele>208.19999694824</ele>
        <time>2024-05-20T07:54:25.000Z</time>
      </trkpt>
      <trkpt lat="46.56132" lon="4.67868">
        <ele>208.19999694824</ele>
        <time>2024-05-20T07:54:26.000Z</time>
      </trkpt>
      <trkpt lat="46.56126" lon="4.67869">
        <ele>208.19999694824</ele>
        <time>2024-05-20T07:54:27.000Z</time>
      </trkpt>
      <trkpt lat="46.5612" lon="4.67869">
        <ele>208.19999694824</ele>
        <time>2024-05-20T07:54:28.000Z</time>
      </trkpt>
      <trkpt lat="46.56114" lon="4.6787">
        <ele>208.19999694824</ele>
        <time>2024-05-20T07:54:29.000Z</time>
      </trkpt>
      <trkpt lat="46.56108" lon="4.67871">
        <ele>208.19999694824</ele>
        <time>2024-05-20T07:54:30.000Z</time>
      </trkpt>
      <trkpt lat="46.56102" lon="4.67872">
        <ele>208.19999694824</ele>
        <time>2024-05-20T07:54:31.000Z</time>
      </trkpt>
      <trkpt lat="46.56095" lon="4.67873">
        <ele>208.19999694824</ele>
        <time>2024-05-20T07:54:32.000Z</time>
      </trkpt>
      <trkpt lat="46.56089" lon="4.67874">
        <ele>208.19999694824</ele>
        <time>2024-05-20T07:54:33.000Z</time>
      </trkpt>
      <trkpt lat="46.56083" lon="4.67875">
        <ele>208.19999694824</ele>
        <time>2024-05-20T07:54:34.000Z</time>
      </trkpt>
      <trkpt lat="46.56077" lon="4.67876">
        <ele>208.19999694824</ele>
        <time>2024-05-20T07:54:35.000Z</time>
      </trkpt>
      <trkpt lat="46.56071" lon="4.67877">
        <ele>208.19999694824</ele>
        <time>2024-05-20T07:54:36.000Z</time>
      </trkpt>
      <trkpt lat="46.56065" lon="4.67878">
        <ele>208.19999694824</ele>
        <time>2024-05-20T07:54:37.000Z</time>
      </trkpt>
      <trkpt lat="46.56059" lon="4.67878">
        <ele>208.19999694824</ele>
        <time>2024-05-20T07:54:38.000Z</time>
      </trkpt>
      <trkpt lat="46.56053" lon="4.67879">
        <ele>208.39999389648</ele>
        <time>2024-05-20T07:54:39.000Z</time>
      </trkpt>
      <trkpt lat="46.56047" lon="4.6788">
        <ele>208.39999389648</ele>
        <time>2024-05-20T07:54:40.000Z</time>
      </trkpt>
      <trkpt lat="46.56041" lon="4.67881">
        <ele>208.39999389648</ele>
        <time>2024-05-20T07:54:41.000Z</time>
      </trkpt>
      <trkpt lat="46.56035" lon="4.67883">
        <ele>208.39999389648</ele>
        <time>2024-05-20T07:54:42.000Z</time>
      </trkpt>
      <trkpt lat="46.56028" lon="4.67884">
        <ele>208.39999389648</ele>
        <time>2024-05-20T07:54:43.000Z</time>
      </trkpt>
      <trkpt lat="46.56022" lon="4.67885">
        <ele>208.39999389648</ele>
        <time>2024-05-20T07:54:44.000Z</time>
      </trkpt>
      <trkpt lat="46.56016" lon="4.67886">
        <ele>208.39999389648</ele>
        <time>2024-05-20T07:54:45.000Z</time>
      </trkpt>
      <trkpt lat="46.56009" lon="4.67886">
        <ele>208.39999389648</ele>
        <time>2024-05-20T07:54:46.000Z</time>
      </trkpt>
      <trkpt lat="46.56003" lon="4.67887">
        <ele>208.39999389648</ele>
        <time>2024-05-20T07:54:47.000Z</time>
      </trkpt>
      <trkpt lat="46.55997" lon="4.67888">
        <ele>208.39999389648</ele>
        <time>2024-05-20T07:54:48.000Z</time>
      </trkpt>
      <trkpt lat="46.5599" lon="4.67889">
        <ele>208.39999389648</ele>
        <time>2024-05-20T07:54:49.000Z</time>
      </trkpt>
      <trkpt lat="46.55984" lon="4.6789">
        <ele>208.39999389648</ele>
        <time>2024-05-20T07:54:50.000Z</time>
      </trkpt>
      <trkpt lat="46.55978" lon="4.67891">
        <ele>208.39999389648</ele>
        <time>2024-05-20T07:54:51.000Z</time>
      </trkpt>
      <trkpt lat="46.55972" lon="4.67892">
        <ele>208.39999389648</ele>
        <time>2024-05-20T07:54:52.000Z</time>
      </trkpt>
      <trkpt lat="46.55966" lon="4.67892">
        <ele>208.39999389648</ele>
        <time>2024-05-20T07:54:53.000Z</time>
      </trkpt>
      <trkpt lat="46.5596" lon="4.67893">
        <ele>208.39999389648</ele>
        <time>2024-05-20T07:54:54.000Z</time>
      </trkpt>
      <trkpt lat="46.55954" lon="4.67894">
        <ele>208.39999389648</ele>
        <time>2024-05-20T07:54:55.000Z</time>
      </trkpt>
      <trkpt lat="46.55948" lon="4.67894">
        <ele>208.39999389648</ele>
        <time>2024-05-20T07:54:56.000Z</time>
      </trkpt>
      <trkpt lat="46.55941" lon="4.67895">
        <ele>208.39999389648</ele>
        <time>2024-05-20T07:54:57.000Z</time>
      </trkpt>
      <trkpt lat="46.55935" lon="4.67896">
        <ele>208.39999389648</ele>
        <time>2024-05-20T07:54:58.000Z</time>
      </trkpt>
      <trkpt lat="46.55929" lon="4.67897">
        <ele>208.39999389648</ele>
        <time>2024-05-20T07:54:59.000Z</time>
      </trkpt>
      <trkpt lat="46.55923" lon="4.67898">
        <ele>208.39999389648</ele>
        <time>2024-05-20T07:55:00.000Z</time>
      </trkpt>
      <trkpt lat="46.55917" lon="4.67899">
        <ele>208.39999389648</ele>
        <time>2024-05-20T07:55:01.000Z</time>
      </trkpt>
      <trkpt lat="46.55911" lon="4.67899">
        <ele>208.39999389648</ele>
        <time>2024-05-20T07:55:02.000Z</time>
      </trkpt>
      <trkpt lat="46.55904" lon="4.679">
        <ele>208.39999389648</ele>
        <time>2024-05-20T07:55:03.000Z</time>
      </trkpt>
      <trkpt lat="46.55898" lon="4.67902">
        <ele>208.39999389648</ele>
        <time>2024-05-20T07:55:04.000Z</time>
      </trkpt>
      <trkpt lat="46.55892" lon="4.67903">
        <ele>208.39999389648</ele>
        <time>2024-05-20T07:55:05.000Z</time>
      </trkpt>
      <trkpt lat="46.55886" lon="4.67904">
        <ele>208.39999389648</ele>
        <time>2024-05-20T07:55:06.000Z</time>
      </trkpt>
      <trkpt lat="46.55879" lon="4.67905">
        <ele>208.39999389648</ele>
        <time>2024-05-20T07:55:07.000Z</time>
      </trkpt>
      <trkpt lat="46.55873" lon="4.67906">
        <ele>208.39999389648</ele>
        <time>2024-05-20T07:55:08.000Z</time>
      </trkpt>
      <trkpt lat="46.55867" lon="4.67907">
        <ele>208.39999389648</ele>
        <time>2024-05-20T07:55:09.000Z</time>
      </trkpt>
      <trkpt lat="46.5586" lon="4.67907">
        <ele>208.39999389648</ele>
        <time>2024-05-20T07:55:10.000Z</time>
      </trkpt>
      <trkpt lat="46.55854" lon="4.67908">
        <ele>208.60000610352</ele>
        <time>2024-05-20T07:55:11.000Z</time>
      </trkpt>
      <trkpt lat="46.55848" lon="4.67909">
        <ele>208.60000610352</ele>
        <time>2024-05-20T07:55:12.000Z</time>
      </trkpt>
      <trkpt lat="46.55842" lon="4.6791">
        <ele>208.60000610352</ele>
        <time>2024-05-20T07:55:13.000Z</time>
      </trkpt>
      <trkpt lat="46.55836" lon="4.67911">
        <ele>208.60000610352</ele>
        <time>2024-05-20T07:55:14.000Z</time>
      </trkpt>
      <trkpt lat="46.5583" lon="4.67913">
        <ele>208.60000610352</ele>
        <time>2024-05-20T07:55:15.000Z</time>
      </trkpt>
      <trkpt lat="46.55824" lon="4.67914">
        <ele>208.60000610352</ele>
        <time>2024-05-20T07:55:16.000Z</time>
      </trkpt>
      <trkpt lat="46.55818" lon="4.67916">
        <ele>208.60000610352</ele>
        <time>2024-05-20T07:55:17.000Z</time>
      </trkpt>
      <trkpt lat="46.55812" lon="4.67917">
        <ele>208.60000610352</ele>
        <time>2024-05-20T07:55:18.000Z</time>
      </trkpt>
      <trkpt lat="46.55806" lon="4.67918">
        <ele>208.60000610352</ele>
        <time>2024-05-20T07:55:19.000Z</time>
      </trkpt>
      <trkpt lat="46.558" lon="4.67918">
        <ele>208.60000610352</ele>
        <time>2024-05-20T07:55:20.000Z</time>
      </trkpt>
      <trkpt lat="46.55794" lon="4.67918">
        <ele>208.60000610352</ele>
        <time>2024-05-20T07:55:21.000Z</time>
      </trkpt>
      <trkpt lat="46.55788" lon="4.67919">
        <ele>208.80000305176</ele>
        <time>2024-05-20T07:55:22.000Z</time>
      </trkpt>
      <trkpt lat="46.55782" lon="4.67919">
        <ele>208.80000305176</ele>
        <time>2024-05-20T07:55:23.000Z</time>
      </trkpt>
      <trkpt lat="46.55776" lon="4.6792">
        <ele>208.80000305176</ele>
        <time>2024-05-20T07:55:24.000Z</time>
      </trkpt>
      <trkpt lat="46.5577" lon="4.67922">
        <ele>208.80000305176</ele>
        <time>2024-05-20T07:55:25.000Z</time>
      </trkpt>
      <trkpt lat="46.55763" lon="4.67922">
        <ele>208.80000305176</ele>
        <time>2024-05-20T07:55:26.000Z</time>
      </trkpt>
      <trkpt lat="46.55757" lon="4.67923">
        <ele>208.80000305176</ele>
        <time>2024-05-20T07:55:27.000Z</time>
      </trkpt>
      <trkpt lat="46.55751" lon="4.67924">
        <ele>208.80000305176</ele>
        <time>2024-05-20T07:55:28.000Z</time>
      </trkpt>
      <trkpt lat="46.55744" lon="4.67925">
        <ele>208.80000305176</ele>
        <time>2024-05-20T07:55:29.000Z</time>
      </trkpt>
      <trkpt lat="46.55738" lon="4.67926">
        <ele>208.80000305176</ele>
        <time>2024-05-20T07:55:30.000Z</time>
      </trkpt>
      <trkpt lat="46.55732" lon="4.67926">
        <ele>208.80000305176</ele>
        <time>2024-05-20T07:55:31.000Z</time>
      </trkpt>
      <trkpt lat="46.55726" lon="4.67927">
        <ele>208.80000305176</ele>
        <time>2024-05-20T07:55:32.000Z</time>
      </trkpt>
      <trkpt lat="46.55719" lon="4.67928">
        <ele>209</ele>
        <time>2024-05-20T07:55:33.000Z</time>
      </trkpt>
      <trkpt lat="46.55713" lon="4.67929">
        <ele>209</ele>
        <time>2024-05-20T07:55:34.000Z</time>
      </trkpt>
      <trkpt lat="46.55706" lon="4.6793">
        <ele>209</ele>
        <time>2024-05-20T07:55:35.000Z</time>
      </trkpt>
      <trkpt lat="46.557" lon="4.67932">
        <ele>209</ele>
        <time>2024-05-20T07:55:36.000Z</time>
      </trkpt>
      <trkpt lat="46.55694" lon="4.67933">
        <ele>209</ele>
        <time>2024-05-20T07:55:37.000Z</time>
      </trkpt>
      <trkpt lat="46.55687" lon="4.67934">
        <ele>209</ele>
        <time>2024-05-20T07:55:38.000Z</time>
      </trkpt>
      <trkpt lat="46.55681" lon="4.67935">
        <ele>209</ele>
        <time>2024-05-20T07:55:39.000Z</time>
      </trkpt>
      <trkpt lat="46.55675" lon="4.67936">
        <ele>209</ele>
        <time>2024-05-20T07:55:40.000Z</time>
      </trkpt>
      <trkpt lat="46.55668" lon="4.67937">
        <ele>209</ele>
        <time>2024-05-20T07:55:41.000Z</time>
      </trkpt>
      <trkpt lat="46.55662" lon="4.67938">
        <ele>209</ele>
        <time>2024-05-20T07:55:42.000Z</time>
      </trkpt>
      <trkpt lat="46.55656" lon="4.67939">
        <ele>209</ele>
        <time>2024-05-20T07:55:43.000Z</time>
      </trkpt>
      <trkpt lat="46.55649" lon="4.6794">
        <ele>209</ele>
        <time>2024-05-20T07:55:44.000Z</time>
      </trkpt>
      <trkpt lat="46.55643" lon="4.67941">
        <ele>209</ele>
        <time>2024-05-20T07:55:45.000Z</time>
      </trkpt>
      <trkpt lat="46.55637" lon="4.67942">
        <ele>209</ele>
        <time>2024-05-20T07:55:46.000Z</time>
      </trkpt>
      <trkpt lat="46.5563" lon="4.67943">
        <ele>209</ele>
        <time>2024-05-20T07:55:47.000Z</time>
      </trkpt>
      <trkpt lat="46.55624" lon="4.67944">
        <ele>209</ele>
        <time>2024-05-20T07:55:48.000Z</time>
      </trkpt>
      <trkpt lat="46.55618" lon="4.67945">
        <ele>209</ele>
        <time>2024-05-20T07:55:49.000Z</time>
      </trkpt>
      <trkpt lat="46.55612" lon="4.67946">
        <ele>209</ele>
        <time>2024-05-20T07:55:50.000Z</time>
      </trkpt>
      <trkpt lat="46.55606" lon="4.67947">
        <ele>209.19999694824</ele>
        <time>2024-05-20T07:55:51.000Z</time>
      </trkpt>
      <trkpt lat="46.556" lon="4.67948">
        <ele>209.19999694824</ele>
        <time>2024-05-20T07:55:52.000Z</time>
      </trkpt>
      <trkpt lat="46.55593" lon="4.67949">
        <ele>209.19999694824</ele>
        <time>2024-05-20T07:55:53.000Z</time>
      </trkpt>
      <trkpt lat="46.55587" lon="4.6795">
        <ele>209.19999694824</ele>
        <time>2024-05-20T07:55:54.000Z</time>
      </trkpt>
      <trkpt lat="46.55581" lon="4.67951">
        <ele>209.19999694824</ele>
        <time>2024-05-20T07:55:55.000Z</time>
      </trkpt>
      <trkpt lat="46.55574" lon="4.67952">
        <ele>209.19999694824</ele>
        <time>2024-05-20T07:55:56.000Z</time>
      </trkpt>
      <trkpt lat="46.55568" lon="4.67953">
        <ele>209.19999694824</ele>
        <time>2024-05-20T07:55:57.000Z</time>
      </trkpt>
      <trkpt lat="46.55562" lon="4.67954">
        <ele>209.19999694824</ele>
        <time>2024-05-20T07:55:58.000Z</time>
      </trkpt>
      <trkpt lat="46.55555" lon="4.67955">
        <ele>209.19999694824</ele>
        <time>2024-05-20T07:55:59.000Z</time>
      </trkpt>
      <trkpt lat="46.55549" lon="4.67956">
        <ele>209.19999694824</ele>
        <time>2024-05-20T07:56:00.000Z</time>
      </trkpt>
      <trkpt lat="46.55543" lon="4.67957">
        <ele>209.19999694824</ele>
        <time>2024-05-20T07:56:01.000Z</time>
      </trkpt>
      <trkpt lat="46.55536" lon="4.67958">
        <ele>209.19999694824</ele>
        <time>2024-05-20T07:56:02.000Z</time>
      </trkpt>
      <trkpt lat="46.5553" lon="4.67959">
        <ele>209.19999694824</ele>
        <time>2024-05-20T07:56:03.000Z</time>
      </trkpt>
      <trkpt lat="46.55524" lon="4.6796">
        <ele>209.19999694824</ele>
        <time>2024-05-20T07:56:04.000Z</time>
      </trkpt>
      <trkpt lat="46.55518" lon="4.67961">
        <ele>209.19999694824</ele>
        <time>2024-05-20T07:56:05.000Z</time>
      </trkpt>
      <trkpt lat="46.55511" lon="4.67962">
        <ele>209.19999694824</ele>
        <time>2024-05-20T07:56:06.000Z</time>
      </trkpt>
      <trkpt lat="46.55505" lon="4.67963">
        <ele>209.19999694824</ele>
        <time>2024-05-20T07:56:07.000Z</time>
      </trkpt>
      <trkpt lat="46.55499" lon="4.67964">
        <ele>209.19999694824</ele>
        <time>2024-05-20T07:56:08.000Z</time>
      </trkpt>
      <trkpt lat="46.55492" lon="4.67965">
        <ele>209.19999694824</ele>
        <time>2024-05-20T07:56:09.000Z</time>
      </trkpt>
      <trkpt lat="46.55486" lon="4.67966">
        <ele>209.19999694824</ele>
        <time>2024-05-20T07:56:10.000Z</time>
      </trkpt>
      <trkpt lat="46.5548" lon="4.67967">
        <ele>209.39999389648</ele>
        <time>2024-05-20T07:56:11.000Z</time>
      </trkpt>
      <trkpt lat="46.55473" lon="4.67968">
        <ele>209.39999389648</ele>
        <time>2024-05-20T07:56:12.000Z</time>
      </trkpt>
      <trkpt lat="46.55467" lon="4.67969">
        <ele>209.39999389648</ele>
        <time>2024-05-20T07:56:13.000Z</time>
      </trkpt>
      <trkpt lat="46.55461" lon="4.6797">
        <ele>209.39999389648</ele>
        <time>2024-05-20T07:56:14.000Z</time>
      </trkpt>
      <trkpt lat="46.55455" lon="4.67971">
        <ele>209.39999389648</ele>
        <time>2024-05-20T07:56:15.000Z</time>
      </trkpt>
      <trkpt lat="46.55448" lon="4.67972">
        <ele>209.39999389648</ele>
        <time>2024-05-20T07:56:16.000Z</time>
      </trkpt>
      <trkpt lat="46.55442" lon="4.67973">
        <ele>209.39999389648</ele>
        <time>2024-05-20T07:56:17.000Z</time>
      </trkpt>
      <trkpt lat="46.55436" lon="4.67974">
        <ele>209.60000610352</ele>
        <time>2024-05-20T07:56:18.000Z</time>
      </trkpt>
      <trkpt lat="46.55429" lon="4.67975">
        <ele>209.60000610352</ele>
        <time>2024-05-20T07:56:19.000Z</time>
      </trkpt>
      <trkpt lat="46.55423" lon="4.67976">
        <ele>209.60000610352</ele>
        <time>2024-05-20T07:56:20.000Z</time>
      </trkpt>
      <trkpt lat="46.55417" lon="4.67977">
        <ele>209.60000610352</ele>
        <time>2024-05-20T07:56:21.000Z</time>
      </trkpt>
      <trkpt lat="46.55411" lon="4.67978">
        <ele>209.60000610352</ele>
        <time>2024-05-20T07:56:22.000Z</time>
      </trkpt>
      <trkpt lat="46.55404" lon="4.67979">
        <ele>209.60000610352</ele>
        <time>2024-05-20T07:56:23.000Z</time>
      </trkpt>
      <trkpt lat="46.55398" lon="4.67979">
        <ele>209.60000610352</ele>
        <time>2024-05-20T07:56:24.000Z</time>
      </trkpt>
      <trkpt lat="46.55391" lon="4.6798">
        <ele>209.60000610352</ele>
        <time>2024-05-20T07:56:25.000Z</time>
      </trkpt>
      <trkpt lat="46.55385" lon="4.67981">
        <ele>209.60000610352</ele>
        <time>2024-05-20T07:56:26.000Z</time>
      </trkpt>
      <trkpt lat="46.55378" lon="4.67983">
        <ele>209.39999389648</ele>
        <time>2024-05-20T07:56:27.000Z</time>
      </trkpt>
      <trkpt lat="46.55372" lon="4.67984">
        <ele>209.39999389648</ele>
        <time>2024-05-20T07:56:28.000Z</time>
      </trkpt>
      <trkpt lat="46.55365" lon="4.67985">
        <ele>209.39999389648</ele>
        <time>2024-05-20T07:56:29.000Z</time>
      </trkpt>
      <trkpt lat="46.55359" lon="4.67986">
        <ele>209.19999694824</ele>
        <time>2024-05-20T07:56:30.000Z</time>
      </trkpt>
      <trkpt lat="46.55353" lon="4.67987">
        <ele>209.19999694824</ele>
        <time>2024-05-20T07:56:31.000Z</time>
      </trkpt>
      <trkpt lat="46.55346" lon="4.67988">
        <ele>209.19999694824</ele>
        <time>2024-05-20T07:56:32.000Z</time>
      </trkpt>
      <trkpt lat="46.5534" lon="4.67989">
        <ele>209</ele>
        <time>2024-05-20T07:56:33.000Z</time>
      </trkpt>
      <trkpt lat="46.55334" lon="4.6799">
        <ele>209</ele>
        <time>2024-05-20T07:56:34.000Z</time>
      </trkpt>
      <trkpt lat="46.55328" lon="4.67991">
        <ele>209</ele>
        <time>2024-05-20T07:56:35.000Z</time>
      </trkpt>
      <trkpt lat="46.55322" lon="4.67992">
        <ele>208.80000305176</ele>
        <time>2024-05-20T07:56:36.000Z</time>
      </trkpt>
      <trkpt lat="46.55317" lon="4.67993">
        <ele>208.60000610352</ele>
        <time>2024-05-20T07:56:37.000Z</time>
      </trkpt>
      <trkpt lat="46.55311" lon="4.67994">
        <ele>208.60000610352</ele>
        <time>2024-05-20T07:56:38.000Z</time>
      </trkpt>
      <trkpt lat="46.55307" lon="4.67995">
        <ele>208.60000610352</ele>
        <time>2024-05-20T07:56:39.000Z</time>
      </trkpt>
      <trkpt lat="46.55302" lon="4.67995">
        <ele>208.60000610352</ele>
        <time>2024-05-20T07:56:40.000Z</time>
      </trkpt>
      <trkpt lat="46.55299" lon="4.67995">
        <ele>208.60000610352</ele>
        <time>2024-05-20T07:56:41.000Z</time>
      </trkpt>
      <trkpt lat="46.55295" lon="4.67995">
        <ele>208.80000305176</ele>
        <time>2024-05-20T07:56:42.000Z</time>
      </trkpt>
      <trkpt lat="46.55292" lon="4.67996">
        <ele>209</ele>
        <time>2024-05-20T07:56:43.000Z</time>
      </trkpt>
      <trkpt lat="46.55288" lon="4.67997">
        <ele>209</ele>
        <time>2024-05-20T07:56:44.000Z</time>
      </trkpt>
      <trkpt lat="46.55285" lon="4.67998">
        <ele>209</ele>
        <time>2024-05-20T07:56:45.000Z</time>
      </trkpt>
      <trkpt lat="46.55281" lon="4.67999">
        <ele>209</ele>
        <time>2024-05-20T07:56:46.000Z</time>
      </trkpt>
      <trkpt lat="46.55277" lon="4.67998">
        <ele>209</ele>
        <time>2024-05-20T07:56:47.000Z</time>
      </trkpt>
      <trkpt lat="46.55273" lon="4.67999">
        <ele>209</ele>
        <time>2024-05-20T07:56:48.000Z</time>
      </trkpt>
      <trkpt lat="46.55268" lon="4.68">
        <ele>209</ele>
        <time>2024-05-20T07:56:49.000Z</time>
      </trkpt>
      <trkpt lat="46.55263" lon="4.68001">
        <ele>208.80000305176</ele>
        <time>2024-05-20T07:56:50.000Z</time>
      </trkpt>
      <trkpt lat="46.55258" lon="4.68002">
        <ele>208.60000610352</ele>
        <time>2024-05-20T07:56:51.000Z</time>
      </trkpt>
      <trkpt lat="46.55252" lon="4.68003">
        <ele>208.39999389648</ele>
        <time>2024-05-20T07:56:52.000Z</time>
      </trkpt>
      <trkpt lat="46.55246" lon="4.68003">
        <ele>208.39999389648</ele>
        <time>2024-05-20T07:56:53.000Z</time>
      </trkpt>
      <trkpt lat="46.5524" lon="4.68004">
        <ele>208.39999389648</ele>
        <time>2024-05-20T07:56:54.000Z</time>
      </trkpt>
      <trkpt lat="46.55234" lon="4.68005">
        <ele>208.39999389648</ele>
        <time>2024-05-20T07:56:55.000Z</time>
      </trkpt>
      <trkpt lat="46.55228" lon="4.68006">
        <ele>208.39999389648</ele>
        <time>2024-05-20T07:56:56.000Z</time>
      </trkpt>
      <trkpt lat="46.55222" lon="4.68007">
        <ele>208.39999389648</ele>
        <time>2024-05-20T07:56:57.000Z</time>
      </trkpt>
      <trkpt lat="46.55215" lon="4.68008">
        <ele>208.60000610352</ele>
        <time>2024-05-20T07:56:58.000Z</time>
      </trkpt>
      <trkpt lat="46.55209" lon="4.68009">
        <ele>208.60000610352</ele>
        <time>2024-05-20T07:56:59.000Z</time>
      </trkpt>
      <trkpt lat="46.55203" lon="4.6801">
        <ele>208.60000610352</ele>
        <time>2024-05-20T07:57:00.000Z</time>
      </trkpt>
      <trkpt lat="46.55196" lon="4.68011">
        <ele>208.60000610352</ele>
        <time>2024-05-20T07:57:01.000Z</time>
      </trkpt>
      <trkpt lat="46.5519" lon="4.68012">
        <ele>208.60000610352</ele>
        <time>2024-05-20T07:57:02.000Z</time>
      </trkpt>
      <trkpt lat="46.55184" lon="4.68013">
        <ele>208.60000610352</ele>
        <time>2024-05-20T07:57:03.000Z</time>
      </trkpt>
      <trkpt lat="46.55177" lon="4.68014">
        <ele>208.60000610352</ele>
        <time>2024-05-20T07:57:04.000Z</time>
      </trkpt>
      <trkpt lat="46.55171" lon="4.68014">
        <ele>208.60000610352</ele>
        <time>2024-05-20T07:57:05.000Z</time>
      </trkpt>
      <trkpt lat="46.55164" lon="4.68015">
        <ele>208.60000610352</ele>
        <time>2024-05-20T07:57:06.000Z</time>
      </trkpt>
      <trkpt lat="46.55158" lon="4.68016">
        <ele>208.60000610352</ele>
        <time>2024-05-20T07:57:07.000Z</time>
      </trkpt>
      <trkpt lat="46.55151" lon="4.68017">
        <ele>208.60000610352</ele>
        <time>2024-05-20T07:57:08.000Z</time>
      </trkpt>
      <trkpt lat="46.55144" lon="4.68018">
        <ele>208.60000610352</ele>
        <time>2024-05-20T07:57:09.000Z</time>
      </trkpt>
      <trkpt lat="46.55138" lon="4.68019">
        <ele>208.60000610352</ele>
        <time>2024-05-20T07:57:10.000Z</time>
      </trkpt>
      <trkpt lat="46.55131" lon="4.6802">
        <ele>208.60000610352</ele>
        <time>2024-05-20T07:57:11.000Z</time>
      </trkpt>
      <trkpt lat="46.55124" lon="4.68021">
        <ele>208.60000610352</ele>
        <time>2024-05-20T07:57:12.000Z</time>
      </trkpt>
      <trkpt lat="46.55117" lon="4.68022">
        <ele>208.60000610352</ele>
        <time>2024-05-20T07:57:13.000Z</time>
      </trkpt>
      <trkpt lat="46.55111" lon="4.68023">
        <ele>208.60000610352</ele>
        <time>2024-05-20T07:57:14.000Z</time>
      </trkpt>
      <trkpt lat="46.55104" lon="4.68024">
        <ele>208.60000610352</ele>
        <time>2024-05-20T07:57:15.000Z</time>
      </trkpt>
      <trkpt lat="46.55097" lon="4.68025">
        <ele>208.60000610352</ele>
        <time>2024-05-20T07:57:16.000Z</time>
      </trkpt>
      <trkpt lat="46.5509" lon="4.68026">
        <ele>208.60000610352</ele>
        <time>2024-05-20T07:57:17.000Z</time>
      </trkpt>
      <trkpt lat="46.55084" lon="4.68027">
        <ele>208.39999389648</ele>
        <time>2024-05-20T07:57:18.000Z</time>
      </trkpt>
      <trkpt lat="46.55077" lon="4.68029">
        <ele>208.19999694824</ele>
        <time>2024-05-20T07:57:19.000Z</time>
      </trkpt>
      <trkpt lat="46.5507" lon="4.6803">
        <ele>208.19999694824</ele>
        <time>2024-05-20T07:57:20.000Z</time>
      </trkpt>
      <trkpt lat="46.55063" lon="4.68031">
        <ele>208.19999694824</ele>
        <time>2024-05-20T07:57:21.000Z</time>
      </trkpt>
      <trkpt lat="46.55057" lon="4.68031">
        <ele>208.19999694824</ele>
        <time>2024-05-20T07:57:22.000Z</time>
      </trkpt>
      <trkpt lat="46.5505" lon="4.68032">
        <ele>208.39999389648</ele>
        <time>2024-05-20T07:57:23.000Z</time>
      </trkpt>
      <trkpt lat="46.55044" lon="4.68033">
        <ele>208.39999389648</ele>
        <time>2024-05-20T07:57:24.000Z</time>
      </trkpt>
      <trkpt lat="46.55037" lon="4.68034">
        <ele>208.39999389648</ele>
        <time>2024-05-20T07:57:25.000Z</time>
      </trkpt>
      <trkpt lat="46.5503" lon="4.68035">
        <ele>208.39999389648</ele>
        <time>2024-05-20T07:57:26.000Z</time>
      </trkpt>
      <trkpt lat="46.55024" lon="4.68036">
        <ele>208.39999389648</ele>
        <time>2024-05-20T07:57:27.000Z</time>
      </trkpt>
      <trkpt lat="46.55017" lon="4.68038">
        <ele>208.39999389648</ele>
        <time>2024-05-20T07:57:28.000Z</time>
      </trkpt>
      <trkpt lat="46.55011" lon="4.68039">
        <ele>208.39999389648</ele>
        <time>2024-05-20T07:57:29.000Z</time>
      </trkpt>
      <trkpt lat="46.55004" lon="4.6804">
        <ele>208.39999389648</ele>
        <time>2024-05-20T07:57:30.000Z</time>
      </trkpt>
      <trkpt lat="46.54997" lon="4.6804">
        <ele>208.39999389648</ele>
        <time>2024-05-20T07:57:31.000Z</time>
      </trkpt>
      <trkpt lat="46.54991" lon="4.68041">
        <ele>208.39999389648</ele>
        <time>2024-05-20T07:57:32.000Z</time>
      </trkpt>
      <trkpt lat="46.54984" lon="4.68041">
        <ele>208.19999694824</ele>
        <time>2024-05-20T07:57:33.000Z</time>
      </trkpt>
      <trkpt lat="46.54978" lon="4.68042">
        <ele>208.19999694824</ele>
        <time>2024-05-20T07:57:34.000Z</time>
      </trkpt>
      <trkpt lat="46.54972" lon="4.68042">
        <ele>208.19999694824</ele>
        <time>2024-05-20T07:57:35.000Z</time>
      </trkpt>
      <trkpt lat="46.54966" lon="4.68043">
        <ele>208.19999694824</ele>
        <time>2024-05-20T07:57:36.000Z</time>
      </trkpt>
      <trkpt lat="46.54959" lon="4.68043">
        <ele>208.19999694824</ele>
        <time>2024-05-20T07:57:37.000Z</time>
      </trkpt>
      <trkpt lat="46.54953" lon="4.68043">
        <ele>208.39999389648</ele>
        <time>2024-05-20T07:57:38.000Z</time>
      </trkpt>
      <trkpt lat="46.54946" lon="4.68043">
        <ele>208.39999389648</ele>
        <time>2024-05-20T07:57:39.000Z</time>
      </trkpt>
      <trkpt lat="46.5494" lon="4.68043">
        <ele>208.39999389648</ele>
        <time>2024-05-20T07:57:40.000Z</time>
      </trkpt>
      <trkpt lat="46.54933" lon="4.68043">
        <ele>208.39999389648</ele>
        <time>2024-05-20T07:57:41.000Z</time>
      </trkpt>
      <trkpt lat="46.54927" lon="4.68043">
        <ele>208.39999389648</ele>
        <time>2024-05-20T07:57:42.000Z</time>
      </trkpt>
      <trkpt lat="46.5492" lon="4.68043">
        <ele>208.39999389648</ele>
        <time>2024-05-20T07:57:43.000Z</time>
      </trkpt>
      <trkpt lat="46.54914" lon="4.68044">
        <ele>208.19999694824</ele>
        <time>2024-05-20T07:57:44.000Z</time>
      </trkpt>
      <trkpt lat="46.54907" lon="4.68044">
        <ele>208.19999694824</ele>
        <time>2024-05-20T07:57:45.000Z</time>
      </trkpt>
      <trkpt lat="46.54901" lon="4.68045">
        <ele>208.19999694824</ele>
        <time>2024-05-20T07:57:46.000Z</time>
      </trkpt>
      <trkpt lat="46.54894" lon="4.68045">
        <ele>208</ele>
        <time>2024-05-20T07:57:47.000Z</time>
      </trkpt>
      <trkpt lat="46.54888" lon="4.68045">
        <ele>208</ele>
        <time>2024-05-20T07:57:48.000Z</time>
      </trkpt>
      <trkpt lat="46.54882" lon="4.68045">
        <ele>207.80000305176</ele>
        <time>2024-05-20T07:57:49.000Z</time>
      </trkpt>
      <trkpt lat="46.54877" lon="4.68046">
        <ele>207.80000305176</ele>
        <time>2024-05-20T07:57:50.000Z</time>
      </trkpt>
      <trkpt lat="46.54872" lon="4.68046">
        <ele>207.80000305176</ele>
        <time>2024-05-20T07:57:51.000Z</time>
      </trkpt>
      <trkpt lat="46.54868" lon="4.68045">
        <ele>207.80000305176</ele>
        <time>2024-05-20T07:57:52.000Z</time>
      </trkpt>
      <trkpt lat="46.54864" lon="4.68044">
        <ele>207.80000305176</ele>
        <time>2024-05-20T07:57:53.000Z</time>
      </trkpt>
      <trkpt lat="46.54859" lon="4.68044">
        <ele>207.80000305176</ele>
        <time>2024-05-20T07:57:54.000Z</time>
      </trkpt>
      <trkpt lat="46.54855" lon="4.68045">
        <ele>207.80000305176</ele>
        <time>2024-05-20T07:57:55.000Z</time>
      </trkpt>
      <trkpt lat="46.54851" lon="4.68046">
        <ele>207.80000305176</ele>
        <time>2024-05-20T07:57:56.000Z</time>
      </trkpt>
      <trkpt lat="46.54847" lon="4.68047">
        <ele>207.80000305176</ele>
        <time>2024-05-20T07:57:57.000Z</time>
      </trkpt>
      <trkpt lat="46.54844" lon="4.68046">
        <ele>207.60000610352</ele>
        <time>2024-05-20T07:57:58.000Z</time>
      </trkpt>
      <trkpt lat="46.54841" lon="4.68044">
        <ele>207.60000610352</ele>
        <time>2024-05-20T07:57:59.000Z</time>
      </trkpt>
      <trkpt lat="46.54838" lon="4.68044">
        <ele>207.60000610352</ele>
        <time>2024-05-20T07:58:00.000Z</time>
      </trkpt>
      <trkpt lat="46.54834" lon="4.68044">
        <ele>207.60000610352</ele>
        <time>2024-05-20T07:58:01.000Z</time>
      </trkpt>
      <trkpt lat="46.5483" lon="4.68045">
        <ele>207.80000305176</ele>
        <time>2024-05-20T07:58:02.000Z</time>
      </trkpt>
      <trkpt lat="46.54826" lon="4.68045">
        <ele>207.80000305176</ele>
        <time>2024-05-20T07:58:03.000Z</time>
      </trkpt>
      <trkpt lat="46.54822" lon="4.68045">
        <ele>207.80000305176</ele>
        <time>2024-05-20T07:58:04.000Z</time>
      </trkpt>
      <trkpt lat="46.54817" lon="4.68045">
        <ele>207.80000305176</ele>
        <time>2024-05-20T07:58:05.000Z</time>
      </trkpt>
      <trkpt lat="46.54812" lon="4.68045">
        <ele>207.80000305176</ele>
        <time>2024-05-20T07:58:06.000Z</time>
      </trkpt>
      <trkpt lat="46.54807" lon="4.68045">
        <ele>207.80000305176</ele>
        <time>2024-05-20T07:58:07.000Z</time>
      </trkpt>
      <trkpt lat="46.54803" lon="4.68045">
        <ele>208</ele>
        <time>2024-05-20T07:58:08.000Z</time>
      </trkpt>
      <trkpt lat="46.54798" lon="4.68045">
        <ele>208</ele>
        <time>2024-05-20T07:58:09.000Z</time>
      </trkpt>
      <trkpt lat="46.54793" lon="4.68045">
        <ele>208</ele>
        <time>2024-05-20T07:58:10.000Z</time>
      </trkpt>
      <trkpt lat="46.54787" lon="4.68045">
        <ele>208</ele>
        <time>2024-05-20T07:58:11.000Z</time>
      </trkpt>
      <trkpt lat="46.54782" lon="4.68045">
        <ele>208</ele>
        <time>2024-05-20T07:58:12.000Z</time>
      </trkpt>
      <trkpt lat="46.54776" lon="4.68045">
        <ele>208</ele>
        <time>2024-05-20T07:58:13.000Z</time>
      </trkpt>
      <trkpt lat="46.54771" lon="4.68045">
        <ele>208</ele>
        <time>2024-05-20T07:58:14.000Z</time>
      </trkpt>
      <trkpt lat="46.54765" lon="4.68045">
        <ele>208</ele>
        <time>2024-05-20T07:58:15.000Z</time>
      </trkpt>
      <trkpt lat="46.5476" lon="4.68045">
        <ele>208</ele>
        <time>2024-05-20T07:58:16.000Z</time>
      </trkpt>
      <trkpt lat="46.54754" lon="4.68045">
        <ele>208</ele>
        <time>2024-05-20T07:58:17.000Z</time>
      </trkpt>
      <trkpt lat="46.54748" lon="4.68046">
        <ele>208</ele>
        <time>2024-05-20T07:58:18.000Z</time>
      </trkpt>
      <trkpt lat="46.54743" lon="4.68046">
        <ele>208</ele>
        <time>2024-05-20T07:58:19.000Z</time>
      </trkpt>
      <trkpt lat="46.54737" lon="4.68046">
        <ele>208</ele>
        <time>2024-05-20T07:58:20.000Z</time>
      </trkpt>
      <trkpt lat="46.54731" lon="4.68046">
        <ele>208.19999694824</ele>
        <time>2024-05-20T07:58:21.000Z</time>
      </trkpt>
      <trkpt lat="46.54726" lon="4.68046">
        <ele>208.19999694824</ele>
        <time>2024-05-20T07:58:22.000Z</time>
      </trkpt>
      <trkpt lat="46.5472" lon="4.68046">
        <ele>208.19999694824</ele>
        <time>2024-05-20T07:58:23.000Z</time>
      </trkpt>
      <trkpt lat="46.54714" lon="4.68046">
        <ele>208.19999694824</ele>
        <time>2024-05-20T07:58:24.000Z</time>
      </trkpt>
      <trkpt lat="46.54709" lon="4.68046">
        <ele>208.19999694824</ele>
        <time>2024-05-20T07:58:25.000Z</time>
      </trkpt>
      <trkpt lat="46.54703" lon="4.68047">
        <ele>208.19999694824</ele>
        <time>2024-05-20T07:58:26.000Z</time>
      </trkpt>
      <trkpt lat="46.54697" lon="4.68047">
        <ele>208.19999694824</ele>
        <time>2024-05-20T07:58:27.000Z</time>
      </trkpt>
      <trkpt lat="46.54691" lon="4.68047">
        <ele>208.39999389648</ele>
        <time>2024-05-20T07:58:28.000Z</time>
      </trkpt>
      <trkpt lat="46.54686" lon="4.68047">
        <ele>208.39999389648</ele>
        <time>2024-05-20T07:58:29.000Z</time>
      </trkpt>
      <trkpt lat="46.5468" lon="4.68048">
        <ele>208.39999389648</ele>
        <time>2024-05-20T07:58:30.000Z</time>
      </trkpt>
      <trkpt lat="46.54675" lon="4.68048">
        <ele>208.39999389648</ele>
        <time>2024-05-20T07:58:31.000Z</time>
      </trkpt>
      <trkpt lat="46.54669" lon="4.68048">
        <ele>208.39999389648</ele>
        <time>2024-05-20T07:58:32.000Z</time>
      </trkpt>
      <trkpt lat="46.54663" lon="4.68048">
        <ele>208.39999389648</ele>
        <time>2024-05-20T07:58:33.000Z</time>
      </trkpt>
      <trkpt lat="46.54657" lon="4.68048">
        <ele>208.39999389648</ele>
        <time>2024-05-20T07:58:34.000Z</time>
      </trkpt>
      <trkpt lat="46.54651" lon="4.68049">
        <ele>208.39999389648</ele>
        <time>2024-05-20T07:58:35.000Z</time>
      </trkpt>
      <trkpt lat="46.54644" lon="4.68049">
        <ele>208.39999389648</ele>
        <time>2024-05-20T07:58:36.000Z</time>
      </trkpt>
      <trkpt lat="46.54638" lon="4.68049">
        <ele>208.60000610352</ele>
        <time>2024-05-20T07:58:37.000Z</time>
      </trkpt>
      <trkpt lat="46.54632" lon="4.6805">
        <ele>208.60000610352</ele>
        <time>2024-05-20T07:58:38.000Z</time>
      </trkpt>
      <trkpt lat="46.54626" lon="4.6805">
        <ele>208.60000610352</ele>
        <time>2024-05-20T07:58:39.000Z</time>
      </trkpt>
      <trkpt lat="46.5462" lon="4.6805">
        <ele>208.60000610352</ele>
        <time>2024-05-20T07:58:40.000Z</time>
      </trkpt>
      <trkpt lat="46.54613" lon="4.68051">
        <ele>208.60000610352</ele>
        <time>2024-05-20T07:58:41.000Z</time>
      </trkpt>
      <trkpt lat="46.54607" lon="4.68051">
        <ele>208.60000610352</ele>
        <time>2024-05-20T07:58:42.000Z</time>
      </trkpt>
      <trkpt lat="46.54602" lon="4.68051">
        <ele>208.39999389648</ele>
        <time>2024-05-20T07:58:43.000Z</time>
      </trkpt>
      <trkpt lat="46.54596" lon="4.68051">
        <ele>208.39999389648</ele>
        <time>2024-05-20T07:58:44.000Z</time>
      </trkpt>
      <trkpt lat="46.54591" lon="4.6805">
        <ele>208.39999389648</ele>
        <time>2024-05-20T07:58:45.000Z</time>
      </trkpt>
      <trkpt lat="46.54587" lon="4.6805">
        <ele>208.39999389648</ele>
        <time>2024-05-20T07:58:46.000Z</time>
      </trkpt>
      <trkpt lat="46.54583" lon="4.68051">
        <ele>208.39999389648</ele>
        <time>2024-05-20T07:58:47.000Z</time>
      </trkpt>
      <trkpt lat="46.5458" lon="4.68052">
        <ele>208.39999389648</ele>
        <time>2024-05-20T07:58:48.000Z</time>
      </trkpt>
      <trkpt lat="46.54576" lon="4.68052">
        <ele>208.60000610352</ele>
        <time>2024-05-20T07:58:49.000Z</time>
      </trkpt>
      <trkpt lat="46.54573" lon="4.68052">
        <ele>208.60000610352</ele>
        <time>2024-05-20T07:58:50.000Z</time>
      </trkpt>
      <trkpt lat="46.54569" lon="4.68053">
        <ele>208.60000610352</ele>
        <time>2024-05-20T07:58:51.000Z</time>
      </trkpt>
      <trkpt lat="46.54565" lon="4.68053">
        <ele>208.60000610352</ele>
        <time>2024-05-20T07:58:52.000Z</time>
      </trkpt>
      <trkpt lat="46.54561" lon="4.68052">
        <ele>208.80000305176</ele>
        <time>2024-05-20T07:58:53.000Z</time>
      </trkpt>
      <trkpt lat="46.54558" lon="4.68051">
        <ele>208.80000305176</ele>
        <time>2024-05-20T07:58:54.000Z</time>
      </trkpt>
      <trkpt lat="46.54553" lon="4.68051">
        <ele>208.60000610352</ele>
        <time>2024-05-20T07:58:55.000Z</time>
      </trkpt>
      <trkpt lat="46.54549" lon="4.68051">
        <ele>208.60000610352</ele>
        <time>2024-05-20T07:58:56.000Z</time>
      </trkpt>
      <trkpt lat="46.54544" lon="4.68051">
        <ele>208.60000610352</ele>
        <time>2024-05-20T07:58:57.000Z</time>
      </trkpt>
      <trkpt lat="46.54539" lon="4.68051">
        <ele>208.60000610352</ele>
        <time>2024-05-20T07:58:58.000Z</time>
      </trkpt>
      <trkpt lat="46.54534" lon="4.68051">
        <ele>208.60000610352</ele>
        <time>2024-05-20T07:58:59.000Z</time>
      </trkpt>
      <trkpt lat="46.54528" lon="4.68051">
        <ele>208.39999389648</ele>
        <time>2024-05-20T07:59:00.000Z</time>
      </trkpt>
      <trkpt lat="46.54523" lon="4.68051">
        <ele>208.39999389648</ele>
        <time>2024-05-20T07:59:01.000Z</time>
      </trkpt>
      <trkpt lat="46.54517" lon="4.68051">
        <ele>208.39999389648</ele>
        <time>2024-05-20T07:59:02.000Z</time>
      </trkpt>
      <trkpt lat="46.54511" lon="4.68051">
        <ele>208.39999389648</ele>
        <time>2024-05-20T07:59:03.000Z</time>
      </trkpt>
      <trkpt lat="46.54505" lon="4.68051">
        <ele>208.39999389648</ele>
        <time>2024-05-20T07:59:04.000Z</time>
      </trkpt>
      <trkpt lat="46.54499" lon="4.68051">
        <ele>208.39999389648</ele>
        <time>2024-05-20T07:59:05.000Z</time>
      </trkpt>
      <trkpt lat="46.54493" lon="4.68051">
        <ele>208.39999389648</ele>
        <time>2024-05-20T07:59:06.000Z</time>
      </trkpt>
      <trkpt lat="46.54487" lon="4.68052">
        <ele>208.39999389648</ele>
        <time>2024-05-20T07:59:07.000Z</time>
      </trkpt>
      <trkpt lat="46.54481" lon="4.68052">
        <ele>208.39999389648</ele>
        <time>2024-05-20T07:59:08.000Z</time>
      </trkpt>
      <trkpt lat="46.54475" lon="4.68053">
        <ele>208.39999389648</ele>
        <time>2024-05-20T07:59:09.000Z</time>
      </trkpt>
      <trkpt lat="46.54469" lon="4.68053">
        <ele>208.19999694824</ele>
        <time>2024-05-20T07:59:10.000Z</time>
      </trkpt>
      <trkpt lat="46.54464" lon="4.68053">
        <ele>208.19999694824</ele>
        <time>2024-05-20T07:59:11.000Z</time>
      </trkpt>
      <trkpt lat="46.54457" lon="4.68053">
        <ele>208.19999694824</ele>
        <time>2024-05-20T07:59:12.000Z</time>
      </trkpt>
      <trkpt lat="46.54451" lon="4.68053">
        <ele>208.19999694824</ele>
        <time>2024-05-20T07:59:13.000Z</time>
      </trkpt>
      <trkpt lat="46.54445" lon="4.68053">
        <ele>208.19999694824</ele>
        <time>2024-05-20T07:59:14.000Z</time>
      </trkpt>
      <trkpt lat="46.54439" lon="4.68053">
        <ele>208.19999694824</ele>
        <time>2024-05-20T07:59:15.000Z</time>
      </trkpt>
      <trkpt lat="46.54433" lon="4.68053">
        <ele>208.19999694824</ele>
        <time>2024-05-20T07:59:16.000Z</time>
      </trkpt>
      <trkpt lat="46.54427" lon="4.68053">
        <ele>208.19999694824</ele>
        <time>2024-05-20T07:59:17.000Z</time>
      </trkpt>
      <trkpt lat="46.54421" lon="4.68053">
        <ele>208</ele>
        <time>2024-05-20T07:59:18.000Z</time>
      </trkpt>
      <trkpt lat="46.54415" lon="4.68054">
        <ele>208</ele>
        <time>2024-05-20T07:59:19.000Z</time>
      </trkpt>
      <trkpt lat="46.54408" lon="4.68054">
        <ele>208</ele>
        <time>2024-05-20T07:59:20.000Z</time>
      </trkpt>
      <trkpt lat="46.54402" lon="4.68054">
        <ele>208</ele>
        <time>2024-05-20T07:59:21.000Z</time>
      </trkpt>
      <trkpt lat="46.54396" lon="4.68055">
        <ele>208</ele>
        <time>2024-05-20T07:59:22.000Z</time>
      </trkpt>
      <trkpt lat="46.5439" lon="4.68055">
        <ele>208</ele>
        <time>2024-05-20T07:59:23.000Z</time>
      </trkpt>
      <trkpt lat="46.54384" lon="4.68056">
        <ele>208.19999694824</ele>
        <time>2024-05-20T07:59:24.000Z</time>
      </trkpt>
      <trkpt lat="46.54378" lon="4.68056">
        <ele>208.19999694824</ele>
        <time>2024-05-20T07:59:25.000Z</time>
      </trkpt>
      <trkpt lat="46.54372" lon="4.68056">
        <ele>208.19999694824</ele>
        <time>2024-05-20T07:59:26.000Z</time>
      </trkpt>
      <trkpt lat="46.54365" lon="4.68056">
        <ele>208.19999694824</ele>
        <time>2024-05-20T07:59:27.000Z</time>
      </trkpt>
      <trkpt lat="46.54359" lon="4.68056">
        <ele>208.19999694824</ele>
        <time>2024-05-20T07:59:28.000Z</time>
      </trkpt>
      <trkpt lat="46.54353" lon="4.68056">
        <ele>208.19999694824</ele>
        <time>2024-05-20T07:59:29.000Z</time>
      </trkpt>
      <trkpt lat="46.54346" lon="4.68056">
        <ele>208.19999694824</ele>
        <time>2024-05-20T07:59:30.000Z</time>
      </trkpt>
      <trkpt lat="46.5434" lon="4.68056">
        <ele>208.19999694824</ele>
        <time>2024-05-20T07:59:31.000Z</time>
      </trkpt>
      <trkpt lat="46.54334" lon="4.68057">
        <ele>208.19999694824</ele>
        <time>2024-05-20T07:59:32.000Z</time>
      </trkpt>
      <trkpt lat="46.54328" lon="4.68057">
        <ele>208.19999694824</ele>
        <time>2024-05-20T07:59:33.000Z</time>
      </trkpt>
      <trkpt lat="46.54321" lon="4.68057">
        <ele>208.19999694824</ele>
        <time>2024-05-20T07:59:34.000Z</time>
      </trkpt>
      <trkpt lat="46.54315" lon="4.68057">
        <ele>208.19999694824</ele>
        <time>2024-05-20T07:59:35.000Z</time>
      </trkpt>
      <trkpt lat="46.54309" lon="4.68057">
        <ele>208</ele>
        <time>2024-05-20T07:59:36.000Z</time>
      </trkpt>
      <trkpt lat="46.54303" lon="4.68057">
        <ele>208</ele>
        <time>2024-05-20T07:59:37.000Z</time>
      </trkpt>
      <trkpt lat="46.54297" lon="4.68058">
        <ele>208</ele>
        <time>2024-05-20T07:59:38.000Z</time>
      </trkpt>
      <trkpt lat="46.54291" lon="4.68058">
        <ele>208</ele>
        <time>2024-05-20T07:59:39.000Z</time>
      </trkpt>
      <trkpt lat="46.54285" lon="4.68058">
        <ele>208</ele>
        <time>2024-05-20T07:59:40.000Z</time>
      </trkpt>
      <trkpt lat="46.54279" lon="4.68058">
        <ele>208</ele>
        <time>2024-05-20T07:59:41.000Z</time>
      </trkpt>
      <trkpt lat="46.54273" lon="4.68058">
        <ele>208</ele>
        <time>2024-05-20T07:59:42.000Z</time>
      </trkpt>
      <trkpt lat="46.54267" lon="4.68058">
        <ele>208</ele>
        <time>2024-05-20T07:59:43.000Z</time>
      </trkpt>
      <trkpt lat="46.54261" lon="4.68058">
        <ele>208</ele>
        <time>2024-05-20T07:59:44.000Z</time>
      </trkpt>
      <trkpt lat="46.54254" lon="4.68059">
        <ele>208</ele>
        <time>2024-05-20T07:59:45.000Z</time>
      </trkpt>
      <trkpt lat="46.54248" lon="4.68059">
        <ele>208</ele>
        <time>2024-05-20T07:59:46.000Z</time>
      </trkpt>
      <trkpt lat="46.54241" lon="4.68058">
        <ele>207.80000305176</ele>
        <time>2024-05-20T07:59:47.000Z</time>
      </trkpt>
      <trkpt lat="46.54235" lon="4.68058">
        <ele>207.80000305176</ele>
        <time>2024-05-20T07:59:48.000Z</time>
      </trkpt>
      <trkpt lat="46.54228" lon="4.68058">
        <ele>207.80000305176</ele>
        <time>2024-05-20T07:59:49.000Z</time>
      </trkpt>
      <trkpt lat="46.54221" lon="4.68058">
        <ele>207.80000305176</ele>
        <time>2024-05-20T07:59:50.000Z</time>
      </trkpt>
      <trkpt lat="46.54215" lon="4.68058">
        <ele>207.80000305176</ele>
        <time>2024-05-20T07:59:51.000Z</time>
      </trkpt>
      <trkpt lat="46.54208" lon="4.68058">
        <ele>207.80000305176</ele>
        <time>2024-05-20T07:59:52.000Z</time>
      </trkpt>
      <trkpt lat="46.54202" lon="4.68058">
        <ele>207.80000305176</ele>
        <time>2024-05-20T07:59:53.000Z</time>
      </trkpt>
      <trkpt lat="46.54195" lon="4.68059">
        <ele>207.80000305176</ele>
        <time>2024-05-20T07:59:54.000Z</time>
      </trkpt>
      <trkpt lat="46.54189" lon="4.68059">
        <ele>207.80000305176</ele>
        <time>2024-05-20T07:59:55.000Z</time>
      </trkpt>
      <trkpt lat="46.54182" lon="4.68059">
        <ele>207.80000305176</ele>
        <time>2024-05-20T07:59:56.000Z</time>
      </trkpt>
      <trkpt lat="46.54176" lon="4.68059">
        <ele>207.80000305176</ele>
        <time>2024-05-20T07:59:57.000Z</time>
      </trkpt>
      <trkpt lat="46.54169" lon="4.6806">
        <ele>208</ele>
        <time>2024-05-20T07:59:58.000Z</time>
      </trkpt>
      <trkpt lat="46.54162" lon="4.6806">
        <ele>208</ele>
        <time>2024-05-20T07:59:59.000Z</time>
      </trkpt>
      <trkpt lat="46.54156" lon="4.6806">
        <ele>208</ele>
        <time>2024-05-20T08:00:00.000Z</time>
      </trkpt>
      <trkpt lat="46.54149" lon="4.6806">
        <ele>208</ele>
        <time>2024-05-20T08:00:01.000Z</time>
      </trkpt>
      <trkpt lat="46.54143" lon="4.6806">
        <ele>208</ele>
        <time>2024-05-20T08:00:02.000Z</time>
      </trkpt>
      <trkpt lat="46.54137" lon="4.6806">
        <ele>208</ele>
        <time>2024-05-20T08:00:03.000Z</time>
      </trkpt>
      <trkpt lat="46.5413" lon="4.6806">
        <ele>208</ele>
        <time>2024-05-20T08:00:04.000Z</time>
      </trkpt>
      <trkpt lat="46.54123" lon="4.6806">
        <ele>208</ele>
        <time>2024-05-20T08:00:05.000Z</time>
      </trkpt>
      <trkpt lat="46.54117" lon="4.68061">
        <ele>208</ele>
        <time>2024-05-20T08:00:06.000Z</time>
      </trkpt>
      <trkpt lat="46.5411" lon="4.68061">
        <ele>208</ele>
        <time>2024-05-20T08:00:07.000Z</time>
      </trkpt>
      <trkpt lat="46.54103" lon="4.68061">
        <ele>208</ele>
        <time>2024-05-20T08:00:08.000Z</time>
      </trkpt>
      <trkpt lat="46.54097" lon="4.68061">
        <ele>208</ele>
        <time>2024-05-20T08:00:09.000Z</time>
      </trkpt>
      <trkpt lat="46.5409" lon="4.68061">
        <ele>208</ele>
        <time>2024-05-20T08:00:10.000Z</time>
      </trkpt>
      <trkpt lat="46.54084" lon="4.68061">
        <ele>208</ele>
        <time>2024-05-20T08:00:11.000Z</time>
      </trkpt>
      <trkpt lat="46.54077" lon="4.68062">
        <ele>208</ele>
        <time>2024-05-20T08:00:12.000Z</time>
      </trkpt>
      <trkpt lat="46.54071" lon="4.68062">
        <ele>208</ele>
        <time>2024-05-20T08:00:13.000Z</time>
      </trkpt>
      <trkpt lat="46.54064" lon="4.68063">
        <ele>208</ele>
        <time>2024-05-20T08:00:14.000Z</time>
      </trkpt>
      <trkpt lat="46.54057" lon="4.68064">
        <ele>208</ele>
        <time>2024-05-20T08:00:15.000Z</time>
      </trkpt>
      <trkpt lat="46.54051" lon="4.68068">
        <ele>208</ele>
        <time>2024-05-20T08:00:16.000Z</time>
      </trkpt>
      <trkpt lat="46.54045" lon="4.68072">
        <ele>208</ele>
        <time>2024-05-20T08:00:17.000Z</time>
      </trkpt>
      <trkpt lat="46.54039" lon="4.68077">
        <ele>208</ele>
        <time>2024-05-20T08:00:18.000Z</time>
      </trkpt>
      <trkpt lat="46.54033" lon="4.68082">
        <ele>207.80000305176</ele>
        <time>2024-05-20T08:00:19.000Z</time>
      </trkpt>
      <trkpt lat="46.54026" lon="4.68084">
        <ele>207.80000305176</ele>
        <time>2024-05-20T08:00:20.000Z</time>
      </trkpt>
      <trkpt lat="46.5402" lon="4.68084">
        <ele>207.80000305176</ele>
        <time>2024-05-20T08:00:21.000Z</time>
      </trkpt>
      <trkpt lat="46.54013" lon="4.68084">
        <ele>207.80000305176</ele>
        <time>2024-05-20T08:00:22.000Z</time>
      </trkpt>
      <trkpt lat="46.54006" lon="4.68084">
        <ele>207.80000305176</ele>
        <time>2024-05-20T08:00:23.000Z</time>
      </trkpt>
      <trkpt lat="46.53999" lon="4.68084">
        <ele>207.60000610352</ele>
        <time>2024-05-20T08:00:24.000Z</time>
      </trkpt>
      <trkpt lat="46.53992" lon="4.68083">
        <ele>207.60000610352</ele>
        <time>2024-05-20T08:00:25.000Z</time>
      </trkpt>
      <trkpt lat="46.53986" lon="4.68083">
        <ele>207.39999389648</ele>
        <time>2024-05-20T08:00:26.000Z</time>
      </trkpt>
      <trkpt lat="46.53979" lon="4.68084">
        <ele>207.39999389648</ele>
        <time>2024-05-20T08:00:27.000Z</time>
      </trkpt>
      <trkpt lat="46.53972" lon="4.68084">
        <ele>207.39999389648</ele>
        <time>2024-05-20T08:00:28.000Z</time>
      </trkpt>
      <trkpt lat="46.53965" lon="4.68085">
        <ele>207.39999389648</ele>
        <time>2024-05-20T08:00:29.000Z</time>
      </trkpt>
      <trkpt lat="46.53959" lon="4.68085">
        <ele>207.39999389648</ele>
        <time>2024-05-20T08:00:30.000Z</time>
      </trkpt>
      <trkpt lat="46.53952" lon="4.68085">
        <ele>207.39999389648</ele>
        <time>2024-05-20T08:00:31.000Z</time>
      </trkpt>
      <trkpt lat="46.53945" lon="4.68085">
        <ele>207.39999389648</ele>
        <time>2024-05-20T08:00:32.000Z</time>
      </trkpt>
      <trkpt lat="46.53939" lon="4.68085">
        <ele>207.39999389648</ele>
        <time>2024-05-20T08:00:33.000Z</time>
      </trkpt>
      <trkpt lat="46.53932" lon="4.68086">
        <ele>207.39999389648</ele>
        <time>2024-05-20T08:00:34.000Z</time>
      </trkpt>
      <trkpt lat="46.53925" lon="4.68086">
        <ele>207.39999389648</ele>
        <time>2024-05-20T08:00:35.000Z</time>
      </trkpt>
      <trkpt lat="46.53919" lon="4.68087">
        <ele>207.39999389648</ele>
        <time>2024-05-20T08:00:36.000Z</time>
      </trkpt>
      <trkpt lat="46.53912" lon="4.68087">
        <ele>207.39999389648</ele>
        <time>2024-05-20T08:00:37.000Z</time>
      </trkpt>
      <trkpt lat="46.53906" lon="4.68088">
        <ele>207.39999389648</ele>
        <time>2024-05-20T08:00:38.000Z</time>
      </trkpt>
      <trkpt lat="46.53899" lon="4.68089">
        <ele>207.39999389648</ele>
        <time>2024-05-20T08:00:39.000Z</time>
      </trkpt>
      <trkpt lat="46.53892" lon="4.68089">
        <ele>207.39999389648</ele>
        <time>2024-05-20T08:00:40.000Z</time>
      </trkpt>
      <trkpt lat="46.53885" lon="4.68089">
        <ele>207.39999389648</ele>
        <time>2024-05-20T08:00:41.000Z</time>
      </trkpt>
      <trkpt lat="46.53879" lon="4.6809">
        <ele>207.39999389648</ele>
        <time>2024-05-20T08:00:42.000Z</time>
      </trkpt>
      <trkpt lat="46.53872" lon="4.6809">
        <ele>207.39999389648</ele>
        <time>2024-05-20T08:00:43.000Z</time>
      </trkpt>
      <trkpt lat="46.53865" lon="4.6809">
        <ele>207.39999389648</ele>
        <time>2024-05-20T08:00:44.000Z</time>
      </trkpt>
      <trkpt lat="46.53859" lon="4.68091">
        <ele>207.39999389648</ele>
        <time>2024-05-20T08:00:45.000Z</time>
      </trkpt>
      <trkpt lat="46.53852" lon="4.68093">
        <ele>207.39999389648</ele>
        <time>2024-05-20T08:00:46.000Z</time>
      </trkpt>
      <trkpt lat="46.53845" lon="4.68095">
        <ele>207.39999389648</ele>
        <time>2024-05-20T08:00:47.000Z</time>
      </trkpt>
      <trkpt lat="46.53839" lon="4.68096">
        <ele>207.39999389648</ele>
        <time>2024-05-20T08:00:48.000Z</time>
      </trkpt>
      <trkpt lat="46.53832" lon="4.68098">
        <ele>207.19999694824</ele>
        <time>2024-05-20T08:00:49.000Z</time>
      </trkpt>
      <trkpt lat="46.53825" lon="4.681">
        <ele>207.19999694824</ele>
        <time>2024-05-20T08:00:50.000Z</time>
      </trkpt>
      <trkpt lat="46.53819" lon="4.68103">
        <ele>207.19999694824</ele>
        <time>2024-05-20T08:00:51.000Z</time>
      </trkpt>
      <trkpt lat="46.53812" lon="4.68105">
        <ele>207.39999389648</ele>
        <time>2024-05-20T08:00:52.000Z</time>
      </trkpt>
      <trkpt lat="46.53806" lon="4.68107">
        <ele>207.39999389648</ele>
        <time>2024-05-20T08:00:53.000Z</time>
      </trkpt>
      <trkpt lat="46.53799" lon="4.68108">
        <ele>207.39999389648</ele>
        <time>2024-05-20T08:00:54.000Z</time>
      </trkpt>
      <trkpt lat="46.53793" lon="4.6811">
        <ele>207.39999389648</ele>
        <time>2024-05-20T08:00:55.000Z</time>
      </trkpt>
      <trkpt lat="46.53786" lon="4.68112">
        <ele>207.39999389648</ele>
        <time>2024-05-20T08:00:56.000Z</time>
      </trkpt>
      <trkpt lat="46.5378" lon="4.68115">
        <ele>207.39999389648</ele>
        <time>2024-05-20T08:00:57.000Z</time>
      </trkpt>
      <trkpt lat="46.53774" lon="4.68119">
        <ele>207.39999389648</ele>
        <time>2024-05-20T08:00:58.000Z</time>
      </trkpt>
      <trkpt lat="46.53768" lon="4.68123">
        <ele>207.39999389648</ele>
        <time>2024-05-20T08:00:59.000Z</time>
      </trkpt>
      <trkpt lat="46.53762" lon="4.68126">
        <ele>207.39999389648</ele>
        <time>2024-05-20T08:01:00.000Z</time>
      </trkpt>
      <trkpt lat="46.53755" lon="4.68129">
        <ele>207.39999389648</ele>
        <time>2024-05-20T08:01:01.000Z</time>
      </trkpt>
      <trkpt lat="46.53749" lon="4.68131">
        <ele>207.39999389648</ele>
        <time>2024-05-20T08:01:02.000Z</time>
      </trkpt>
      <trkpt lat="46.53744" lon="4.68134">
        <ele>207.39999389648</ele>
        <time>2024-05-20T08:01:03.000Z</time>
      </trkpt>
      <trkpt lat="46.53738" lon="4.68137">
        <ele>207.39999389648</ele>
        <time>2024-05-20T08:01:04.000Z</time>
      </trkpt>
      <trkpt lat="46.53733" lon="4.68141">
        <ele>207.39999389648</ele>
        <time>2024-05-20T08:01:05.000Z</time>
      </trkpt>
      <trkpt lat="46.53728" lon="4.68144">
        <ele>207.60000610352</ele>
        <time>2024-05-20T08:01:06.000Z</time>
      </trkpt>
      <trkpt lat="46.53722" lon="4.68144">
        <ele>207.60000610352</ele>
        <time>2024-05-20T08:01:07.000Z</time>
      </trkpt>
      <trkpt lat="46.53717" lon="4.68142">
        <ele>207.60000610352</ele>
        <time>2024-05-20T08:01:08.000Z</time>
      </trkpt>
      <trkpt lat="46.53711" lon="4.68141">
        <ele>207.60000610352</ele>
        <time>2024-05-20T08:01:09.000Z</time>
      </trkpt>
      <trkpt lat="46.53705" lon="4.68141">
        <ele>207.60000610352</ele>
        <time>2024-05-20T08:01:10.000Z</time>
      </trkpt>
      <trkpt lat="46.537" lon="4.68144">
        <ele>207.60000610352</ele>
        <time>2024-05-20T08:01:11.000Z</time>
      </trkpt>
      <trkpt lat="46.53695" lon="4.68148">
        <ele>207.60000610352</ele>
        <time>2024-05-20T08:01:12.000Z</time>
      </trkpt>
      <trkpt lat="46.5369" lon="4.68152">
        <ele>207.60000610352</ele>
        <time>2024-05-20T08:01:13.000Z</time>
      </trkpt>
      <trkpt lat="46.53685" lon="4.68157">
        <ele>207.39999389648</ele>
        <time>2024-05-20T08:01:14.000Z</time>
      </trkpt>
      <trkpt lat="46.5368" lon="4.68162">
        <ele>207.39999389648</ele>
        <time>2024-05-20T08:01:15.000Z</time>
      </trkpt>
      <trkpt lat="46.53675" lon="4.68167">
        <ele>207.39999389648</ele>
        <time>2024-05-20T08:01:16.000Z</time>
      </trkpt>
      <trkpt lat="46.53669" lon="4.68172">
        <ele>207.39999389648</ele>
        <time>2024-05-20T08:01:17.000Z</time>
      </trkpt>
      <trkpt lat="46.53664" lon="4.68176">
        <ele>207.39999389648</ele>
        <time>2024-05-20T08:01:18.000Z</time>
      </trkpt>
      <trkpt lat="46.53659" lon="4.68181">
        <ele>207.39999389648</ele>
        <time>2024-05-20T08:01:19.000Z</time>
      </trkpt>
      <trkpt lat="46.53655" lon="4.68186">
        <ele>207.39999389648</ele>
        <time>2024-05-20T08:01:20.000Z</time>
      </trkpt>
      <trkpt lat="46.5365" lon="4.6819">
        <ele>207.39999389648</ele>
        <time>2024-05-20T08:01:21.000Z</time>
      </trkpt>
      <trkpt lat="46.53645" lon="4.68195">
        <ele>207.39999389648</ele>
        <time>2024-05-20T08:01:22.000Z</time>
      </trkpt>
      <trkpt lat="46.5364" lon="4.682">
        <ele>207.39999389648</ele>
        <time>2024-05-20T08:01:23.000Z</time>
      </trkpt>
      <trkpt lat="46.53636" lon="4.68205">
        <ele>207.39999389648</ele>
        <time>2024-05-20T08:01:24.000Z</time>
      </trkpt>
      <trkpt lat="46.53631" lon="4.6821">
        <ele>207.39999389648</ele>
        <time>2024-05-20T08:01:25.000Z</time>
      </trkpt>
      <trkpt lat="46.53626" lon="4.68215">
        <ele>207.39999389648</ele>
        <time>2024-05-20T08:01:26.000Z</time>
      </trkpt>
      <trkpt lat="46.53622" lon="4.68221">
        <ele>207.39999389648</ele>
        <time>2024-05-20T08:01:27.000Z</time>
      </trkpt>
      <trkpt lat="46.53618" lon="4.68226">
        <ele>207.39999389648</ele>
        <time>2024-05-20T08:01:28.000Z</time>
      </trkpt>
      <trkpt lat="46.53613" lon="4.68232">
        <ele>207.39999389648</ele>
        <time>2024-05-20T08:01:29.000Z</time>
      </trkpt>
      <trkpt lat="46.53609" lon="4.68238">
        <ele>207.60000610352</ele>
        <time>2024-05-20T08:01:30.000Z</time>
      </trkpt>
      <trkpt lat="46.53605" lon="4.68243">
        <ele>207.60000610352</ele>
        <time>2024-05-20T08:01:31.000Z</time>
      </trkpt>
      <trkpt lat="46.53601" lon="4.68249">
        <ele>207.60000610352</ele>
        <time>2024-05-20T08:01:32.000Z</time>
      </trkpt>
      <trkpt lat="46.53597" lon="4.68254">
        <ele>207.60000610352</ele>
        <time>2024-05-20T08:01:33.000Z</time>
      </trkpt>
      <trkpt lat="46.53594" lon="4.68259">
        <ele>207.60000610352</ele>
        <time>2024-05-20T08:01:34.000Z</time>
      </trkpt>
      <trkpt lat="46.5359" lon="4.68262">
        <ele>207.80000305176</ele>
        <time>2024-05-20T08:01:35.000Z</time>
      </trkpt>
      <trkpt lat="46.53586" lon="4.68265">
        <ele>207.80000305176</ele>
        <time>2024-05-20T08:01:36.000Z</time>
      </trkpt>
      <trkpt lat="46.53584" lon="4.68269">
        <ele>207.80000305176</ele>
        <time>2024-05-20T08:01:37.000Z</time>
      </trkpt>
      <trkpt lat="46.53581" lon="4.68273">
        <ele>208</ele>
        <time>2024-05-20T08:01:38.000Z</time>
      </trkpt>
      <trkpt lat="46.53577" lon="4.68277">
        <ele>208.19999694824</ele>
        <time>2024-05-20T08:01:39.000Z</time>
      </trkpt>
      <trkpt lat="46.53574" lon="4.68281">
        <ele>208.19999694824</ele>
        <time>2024-05-20T08:01:40.000Z</time>
      </trkpt>
      <trkpt lat="46.5357" lon="4.68286">
        <ele>208.39999389648</ele>
        <time>2024-05-20T08:01:41.000Z</time>
      </trkpt>
      <trkpt lat="46.53566" lon="4.6829">
        <ele>208.39999389648</ele>
        <time>2024-05-20T08:01:42.000Z</time>
      </trkpt>
      <trkpt lat="46.53562" lon="4.68296">
        <ele>208.19999694824</ele>
        <time>2024-05-20T08:01:43.000Z</time>
      </trkpt>
      <trkpt lat="46.53558" lon="4.68301">
        <ele>208.19999694824</ele>
        <time>2024-05-20T08:01:44.000Z</time>
      </trkpt>
      <trkpt lat="46.53554" lon="4.68306">
        <ele>207.80000305176</ele>
        <time>2024-05-20T08:01:45.000Z</time>
      </trkpt>
      <trkpt lat="46.53549" lon="4.68311">
        <ele>207.80000305176</ele>
        <time>2024-05-20T08:01:46.000Z</time>
      </trkpt>
      <trkpt lat="46.53544" lon="4.68316">
        <ele>207.80000305176</ele>
        <time>2024-05-20T08:01:47.000Z</time>
      </trkpt>
      <trkpt lat="46.5354" lon="4.68322">
        <ele>207.80000305176</ele>
        <time>2024-05-20T08:01:48.000Z</time>
      </trkpt>
      <trkpt lat="46.53535" lon="4.68327">
        <ele>207.80000305176</ele>
        <time>2024-05-20T08:01:49.000Z</time>
      </trkpt>
      <trkpt lat="46.5353" lon="4.68332">
        <ele>207.80000305176</ele>
        <time>2024-05-20T08:01:50.000Z</time>
      </trkpt>
      <trkpt lat="46.53526" lon="4.68337">
        <ele>207.80000305176</ele>
        <time>2024-05-20T08:01:51.000Z</time>
      </trkpt>
      <trkpt lat="46.53521" lon="4.68342">
        <ele>207.80000305176</ele>
        <time>2024-05-20T08:01:52.000Z</time>
      </trkpt>
      <trkpt lat="46.53516" lon="4.68348">
        <ele>207.80000305176</ele>
        <time>2024-05-20T08:01:53.000Z</time>
      </trkpt>
      <trkpt lat="46.53511" lon="4.68353">
        <ele>207.80000305176</ele>
        <time>2024-05-20T08:01:54.000Z</time>
      </trkpt>
      <trkpt lat="46.53506" lon="4.68358">
        <ele>208</ele>
        <time>2024-05-20T08:01:55.000Z</time>
      </trkpt>
      <trkpt lat="46.53501" lon="4.68363">
        <ele>208</ele>
        <time>2024-05-20T08:01:56.000Z</time>
      </trkpt>
      <trkpt lat="46.53496" lon="4.68367">
        <ele>208</ele>
        <time>2024-05-20T08:01:57.000Z</time>
      </trkpt>
      <trkpt lat="46.53491" lon="4.68371">
        <ele>208.19999694824</ele>
        <time>2024-05-20T08:01:58.000Z</time>
      </trkpt>
      <trkpt lat="46.53486" lon="4.68375">
        <ele>208.19999694824</ele>
        <time>2024-05-20T08:01:59.000Z</time>
      </trkpt>
      <trkpt lat="46.53481" lon="4.68379">
        <ele>208.19999694824</ele>
        <time>2024-05-20T08:02:00.000Z</time>
      </trkpt>
      <trkpt lat="46.53475" lon="4.68382">
        <ele>208.39999389648</ele>
        <time>2024-05-20T08:02:01.000Z</time>
      </trkpt>
      <trkpt lat="46.53469" lon="4.68386">
        <ele>208.39999389648</ele>
        <time>2024-05-20T08:02:02.000Z</time>
      </trkpt>
      <trkpt lat="46.53463" lon="4.68391">
        <ele>208.39999389648</ele>
        <time>2024-05-20T08:02:03.000Z</time>
      </trkpt>
      <trkpt lat="46.53457" lon="4.68395">
        <ele>208.39999389648</ele>
        <time>2024-05-20T08:02:04.000Z</time>
      </trkpt>
      <trkpt lat="46.53451" lon="4.68399">
        <ele>208.39999389648</ele>
        <time>2024-05-20T08:02:05.000Z</time>
      </trkpt>
      <trkpt lat="46.53445" lon="4.68402">
        <ele>208.60000610352</ele>
        <time>2024-05-20T08:02:06.000Z</time>
      </trkpt>
      <trkpt lat="46.53439" lon="4.68406">
        <ele>208.60000610352</ele>
        <time>2024-05-20T08:02:07.000Z</time>
      </trkpt>
      <trkpt lat="46.53433" lon="4.68409">
        <ele>208.60000610352</ele>
        <time>2024-05-20T08:02:08.000Z</time>
      </trkpt>
      <trkpt lat="46.53426" lon="4.68412">
        <ele>208.80000305176</ele>
        <time>2024-05-20T08:02:09.000Z</time>
      </trkpt>
      <trkpt lat="46.5342" lon="4.68416">
        <ele>208.80000305176</ele>
        <time>2024-05-20T08:02:10.000Z</time>
      </trkpt>
      <trkpt lat="46.53413" lon="4.68419">
        <ele>208.80000305176</ele>
        <time>2024-05-20T08:02:11.000Z</time>
      </trkpt>
      <trkpt lat="46.53407" lon="4.68422">
        <ele>208.80000305176</ele>
        <time>2024-05-20T08:02:12.000Z</time>
      </trkpt>
      <trkpt lat="46.534" lon="4.68425">
        <ele>209</ele>
        <time>2024-05-20T08:02:13.000Z</time>
      </trkpt>
      <trkpt lat="46.53394" lon="4.68428">
        <ele>209</ele>
        <time>2024-05-20T08:02:14.000Z</time>
      </trkpt>
      <trkpt lat="46.53387" lon="4.6843">
        <ele>209</ele>
        <time>2024-05-20T08:02:15.000Z</time>
      </trkpt>
      <trkpt lat="46.5338" lon="4.68432">
        <ele>209</ele>
        <time>2024-05-20T08:02:16.000Z</time>
      </trkpt>
      <trkpt lat="46.53374" lon="4.68433">
        <ele>209</ele>
        <time>2024-05-20T08:02:17.000Z</time>
      </trkpt>
      <trkpt lat="46.53368" lon="4.68434">
        <ele>209</ele>
        <time>2024-05-20T08:02:18.000Z</time>
      </trkpt>
      <trkpt lat="46.53361" lon="4.68436">
        <ele>209</ele>
        <time>2024-05-20T08:02:19.000Z</time>
      </trkpt>
      <trkpt lat="46.53355" lon="4.68437">
        <ele>209</ele>
        <time>2024-05-20T08:02:20.000Z</time>
      </trkpt>
      <trkpt lat="46.53349" lon="4.68439">
        <ele>209.19999694824</ele>
        <time>2024-05-20T08:02:21.000Z</time>
      </trkpt>
      <trkpt lat="46.53345" lon="4.6844">
        <ele>209.19999694824</ele>
        <time>2024-05-20T08:02:22.000Z</time>
      </trkpt>
      <trkpt lat="46.5334" lon="4.68441">
        <ele>209.19999694824</ele>
        <time>2024-05-20T08:02:23.000Z</time>
      </trkpt>
      <trkpt lat="46.53335" lon="4.68442">
        <ele>209.39999389648</ele>
        <time>2024-05-20T08:02:24.000Z</time>
      </trkpt>
      <trkpt lat="46.53331" lon="4.68443">
        <ele>209.39999389648</ele>
        <time>2024-05-20T08:02:25.000Z</time>
      </trkpt>
      <trkpt lat="46.53327" lon="4.68443">
        <ele>209.60000610352</ele>
        <time>2024-05-20T08:02:26.000Z</time>
      </trkpt>
      <trkpt lat="46.53324" lon="4.68443">
        <ele>209.80000305176</ele>
        <time>2024-05-20T08:02:27.000Z</time>
      </trkpt>
      <trkpt lat="46.53321" lon="4.68443">
        <ele>209.80000305176</ele>
        <time>2024-05-20T08:02:28.000Z</time>
      </trkpt>
      <trkpt lat="46.53318" lon="4.68445">
        <ele>209.80000305176</ele>
        <time>2024-05-20T08:02:29.000Z</time>
      </trkpt>
      <trkpt lat="46.53316" lon="4.68445">
        <ele>209.80000305176</ele>
        <time>2024-05-20T08:02:30.000Z</time>
      </trkpt>
      <trkpt lat="46.53311" lon="4.68446">
        <ele>209.80000305176</ele>
        <time>2024-05-20T08:02:31.000Z</time>
      </trkpt>
      <trkpt lat="46.53308" lon="4.68447">
        <ele>209.80000305176</ele>
        <time>2024-05-20T08:02:32.000Z</time>
      </trkpt>
      <trkpt lat="46.53304" lon="4.68448">
        <ele>209.80000305176</ele>
        <time>2024-05-20T08:02:33.000Z</time>
      </trkpt>
      <trkpt lat="46.53301" lon="4.68447">
        <ele>209.80000305176</ele>
        <time>2024-05-20T08:02:34.000Z</time>
      </trkpt>
      <trkpt lat="46.53296" lon="4.68448">
        <ele>209.80000305176</ele>
        <time>2024-05-20T08:02:35.000Z</time>
      </trkpt>
      <trkpt lat="46.53292" lon="4.68449">
        <ele>209.60000610352</ele>
        <time>2024-05-20T08:02:36.000Z</time>
      </trkpt>
      <trkpt lat="46.53287" lon="4.6845">
        <ele>209.39999389648</ele>
        <time>2024-05-20T08:02:37.000Z</time>
      </trkpt>
      <trkpt lat="46.53282" lon="4.68451">
        <ele>209.39999389648</ele>
        <time>2024-05-20T08:02:38.000Z</time>
      </trkpt>
      <trkpt lat="46.53276" lon="4.68452">
        <ele>209.39999389648</ele>
        <time>2024-05-20T08:02:39.000Z</time>
      </trkpt>
      <trkpt lat="46.5327" lon="4.68453">
        <ele>209.39999389648</ele>
        <time>2024-05-20T08:02:40.000Z</time>
      </trkpt>
      <trkpt lat="46.53264" lon="4.68454">
        <ele>209.60000610352</ele>
        <time>2024-05-20T08:02:41.000Z</time>
      </trkpt>
      <trkpt lat="46.53258" lon="4.68456">
        <ele>209.60000610352</ele>
        <time>2024-05-20T08:02:42.000Z</time>
      </trkpt>
      <trkpt lat="46.53252" lon="4.68456">
        <ele>209.60000610352</ele>
        <time>2024-05-20T08:02:43.000Z</time>
      </trkpt>
      <trkpt lat="46.53245" lon="4.68457">
        <ele>209.60000610352</ele>
        <time>2024-05-20T08:02:44.000Z</time>
      </trkpt>
      <trkpt lat="46.53239" lon="4.68458">
        <ele>209.60000610352</ele>
        <time>2024-05-20T08:02:45.000Z</time>
      </trkpt>
      <trkpt lat="46.53232" lon="4.68459">
        <ele>209.60000610352</ele>
        <time>2024-05-20T08:02:46.000Z</time>
      </trkpt>
      <trkpt lat="46.53226" lon="4.6846">
        <ele>209.60000610352</ele>
        <time>2024-05-20T08:02:47.000Z</time>
      </trkpt>
      <trkpt lat="46.53218" lon="4.68462">
        <ele>209.60000610352</ele>
        <time>2024-05-20T08:02:48.000Z</time>
      </trkpt>
      <trkpt lat="46.53213" lon="4.68463">
        <ele>209.80000305176</ele>
        <time>2024-05-20T08:02:49.000Z</time>
      </trkpt>
      <trkpt lat="46.53206" lon="4.68464">
        <ele>209.80000305176</ele>
        <time>2024-05-20T08:02:50.000Z</time>
      </trkpt>
      <trkpt lat="46.532" lon="4.68465">
        <ele>209.80000305176</ele>
        <time>2024-05-20T08:02:51.000Z</time>
      </trkpt>
      <trkpt lat="46.53193" lon="4.68467">
        <ele>209.80000305176</ele>
        <time>2024-05-20T08:02:52.000Z</time>
      </trkpt>
      <trkpt lat="46.53187" lon="4.68468">
        <ele>209.80000305176</ele>
        <time>2024-05-20T08:02:53.000Z</time>
      </trkpt>
      <trkpt lat="46.5318" lon="4.68469">
        <ele>209.80000305176</ele>
        <time>2024-05-20T08:02:54.000Z</time>
      </trkpt>
      <trkpt lat="46.53174" lon="4.6847">
        <ele>209.80000305176</ele>
        <time>2024-05-20T08:02:55.000Z</time>
      </trkpt>
      <trkpt lat="46.53166" lon="4.68471">
        <ele>210</ele>
        <time>2024-05-20T08:02:56.000Z</time>
      </trkpt>
      <trkpt lat="46.53161" lon="4.68472">
        <ele>210</ele>
        <time>2024-05-20T08:02:57.000Z</time>
      </trkpt>
      <trkpt lat="46.53154" lon="4.68473">
        <ele>210</ele>
        <time>2024-05-20T08:02:58.000Z</time>
      </trkpt>
      <trkpt lat="46.53148" lon="4.68474">
        <ele>210</ele>
        <time>2024-05-20T08:02:59.000Z</time>
      </trkpt>
      <trkpt lat="46.5314" lon="4.68476">
        <ele>210</ele>
        <time>2024-05-20T08:03:00.000Z</time>
      </trkpt>
      <trkpt lat="46.53134" lon="4.68477">
        <ele>210</ele>
        <time>2024-05-20T08:03:01.000Z</time>
      </trkpt>
      <trkpt lat="46.53129" lon="4.68478">
        <ele>210</ele>
        <time>2024-05-20T08:03:02.000Z</time>
      </trkpt>
      <trkpt lat="46.53122" lon="4.68479">
        <ele>210</ele>
        <time>2024-05-20T08:03:03.000Z</time>
      </trkpt>
      <trkpt lat="46.53116" lon="4.6848">
        <ele>210</ele>
        <time>2024-05-20T08:03:04.000Z</time>
      </trkpt>
      <trkpt lat="46.53108" lon="4.68482">
        <ele>210.19999694824</ele>
        <time>2024-05-20T08:03:05.000Z</time>
      </trkpt>
      <trkpt lat="46.53103" lon="4.68483">
        <ele>210.19999694824</ele>
        <time>2024-05-20T08:03:06.000Z</time>
      </trkpt>
      <trkpt lat="46.53096" lon="4.68484">
        <ele>210.19999694824</ele>
        <time>2024-05-20T08:03:07.000Z</time>
      </trkpt>
      <trkpt lat="46.5309" lon="4.68486">
        <ele>210.19999694824</ele>
        <time>2024-05-20T08:03:08.000Z</time>
      </trkpt>
      <trkpt lat="46.53083" lon="4.68487">
        <ele>210.19999694824</ele>
        <time>2024-05-20T08:03:09.000Z</time>
      </trkpt>
      <trkpt lat="46.53076" lon="4.68489">
        <ele>210.39999389648</ele>
        <time>2024-05-20T08:03:10.000Z</time>
      </trkpt>
      <trkpt lat="46.53069" lon="4.68489">
        <ele>210.39999389648</ele>
        <time>2024-05-20T08:03:11.000Z</time>
      </trkpt>
      <trkpt lat="46.53063" lon="4.68491">
        <ele>210.39999389648</ele>
        <time>2024-05-20T08:03:12.000Z</time>
      </trkpt>
      <trkpt lat="46.53056" lon="4.68492">
        <ele>210.39999389648</ele>
        <time>2024-05-20T08:03:13.000Z</time>
      </trkpt>
      <trkpt lat="46.53049" lon="4.68493">
        <ele>210.60000610352</ele>
        <time>2024-05-20T08:03:14.000Z</time>
      </trkpt>
      <trkpt lat="46.53043" lon="4.68494">
        <ele>210.60000610352</ele>
        <time>2024-05-20T08:03:15.000Z</time>
      </trkpt>
      <trkpt lat="46.53037" lon="4.68495">
        <ele>210.60000610352</ele>
        <time>2024-05-20T08:03:16.000Z</time>
      </trkpt>
      <trkpt lat="46.53031" lon="4.68496">
        <ele>210.60000610352</ele>
        <time>2024-05-20T08:03:17.000Z</time>
      </trkpt>
      <trkpt lat="46.53024" lon="4.68497">
        <ele>210.80000305176</ele>
        <time>2024-05-20T08:03:18.000Z</time>
      </trkpt>
      <trkpt lat="46.53018" lon="4.68498">
        <ele>210.80000305176</ele>
        <time>2024-05-20T08:03:19.000Z</time>
      </trkpt>
      <trkpt lat="46.53011" lon="4.68499">
        <ele>210.80000305176</ele>
        <time>2024-05-20T08:03:20.000Z</time>
      </trkpt>
      <trkpt lat="46.53005" lon="4.68501">
        <ele>210.80000305176</ele>
        <time>2024-05-20T08:03:21.000Z</time>
      </trkpt>
      <trkpt lat="46.52998" lon="4.68502">
        <ele>210.80000305176</ele>
        <time>2024-05-20T08:03:22.000Z</time>
      </trkpt>
      <trkpt lat="46.52992" lon="4.68504">
        <ele>210.80000305176</ele>
        <time>2024-05-20T08:03:23.000Z</time>
      </trkpt>
      <trkpt lat="46.52984" lon="4.68505">
        <ele>210.80000305176</ele>
        <time>2024-05-20T08:03:24.000Z</time>
      </trkpt>
      <trkpt lat="46.52977" lon="4.68506">
        <ele>210.80000305176</ele>
        <time>2024-05-20T08:03:25.000Z</time>
      </trkpt>
      <trkpt lat="46.52972" lon="4.68507">
        <ele>210.80000305176</ele>
        <time>2024-05-20T08:03:26.000Z</time>
      </trkpt>
      <trkpt lat="46.52965" lon="4.68508">
        <ele>210.80000305176</ele>
        <time>2024-05-20T08:03:27.000Z</time>
      </trkpt>
      <trkpt lat="46.52957" lon="4.68509">
        <ele>210.80000305176</ele>
        <time>2024-05-20T08:03:28.000Z</time>
      </trkpt>
      <trkpt lat="46.52951" lon="4.68511">
        <ele>210.80000305176</ele>
        <time>2024-05-20T08:03:29.000Z</time>
      </trkpt>
      <trkpt lat="46.52945" lon="4.68512">
        <ele>210.80000305176</ele>
        <time>2024-05-20T08:03:30.000Z</time>
      </trkpt>
      <trkpt lat="46.5294" lon="4.68512">
        <ele>210.80000305176</ele>
        <time>2024-05-20T08:03:31.000Z</time>
      </trkpt>
      <trkpt lat="46.52934" lon="4.68511">
        <ele>210.80000305176</ele>
        <time>2024-05-20T08:03:32.000Z</time>
      </trkpt>
      <trkpt lat="46.5293" lon="4.68511">
        <ele>210.80000305176</ele>
        <time>2024-05-20T08:03:33.000Z</time>
      </trkpt>
      <trkpt lat="46.52925" lon="4.68512">
        <ele>210.80000305176</ele>
        <time>2024-05-20T08:03:34.000Z</time>
      </trkpt>
      <trkpt lat="46.52921" lon="4.68514">
        <ele>210.80000305176</ele>
        <time>2024-05-20T08:03:35.000Z</time>
      </trkpt>
      <trkpt lat="46.52916" lon="4.68513">
        <ele>211</ele>
        <time>2024-05-20T08:03:36.000Z</time>
      </trkpt>
      <trkpt lat="46.52912" lon="4.68512">
        <ele>211</ele>
        <time>2024-05-20T08:03:37.000Z</time>
      </trkpt>
      <trkpt lat="46.52907" lon="4.68512">
        <ele>211</ele>
        <time>2024-05-20T08:03:38.000Z</time>
      </trkpt>
      <trkpt lat="46.52902" lon="4.68512">
        <ele>211</ele>
        <time>2024-05-20T08:03:39.000Z</time>
      </trkpt>
      <trkpt lat="46.52897" lon="4.68512">
        <ele>211.19999694824</ele>
        <time>2024-05-20T08:03:40.000Z</time>
      </trkpt>
      <trkpt lat="46.52891" lon="4.68512">
        <ele>211.19999694824</ele>
        <time>2024-05-20T08:03:41.000Z</time>
      </trkpt>
      <trkpt lat="46.52886" lon="4.68512">
        <ele>211.39999389648</ele>
        <time>2024-05-20T08:03:42.000Z</time>
      </trkpt>
      <trkpt lat="46.5288" lon="4.68511">
        <ele>211.39999389648</ele>
        <time>2024-05-20T08:03:43.000Z</time>
      </trkpt>
      <trkpt lat="46.52874" lon="4.6851">
        <ele>211.39999389648</ele>
        <time>2024-05-20T08:03:44.000Z</time>
      </trkpt>
      <trkpt lat="46.52869" lon="4.68509">
        <ele>211.19999694824</ele>
        <time>2024-05-20T08:03:45.000Z</time>
      </trkpt>
      <trkpt lat="46.52863" lon="4.68509">
        <ele>211.19999694824</ele>
        <time>2024-05-20T08:03:46.000Z</time>
      </trkpt>
      <trkpt lat="46.52857" lon="4.68508">
        <ele>211.19999694824</ele>
        <time>2024-05-20T08:03:47.000Z</time>
      </trkpt>
      <trkpt lat="46.52851" lon="4.68507">
        <ele>211.19999694824</ele>
        <time>2024-05-20T08:03:48.000Z</time>
      </trkpt>
      <trkpt lat="46.52845" lon="4.68507">
        <ele>211.19999694824</ele>
        <time>2024-05-20T08:03:49.000Z</time>
      </trkpt>
      <trkpt lat="46.52838" lon="4.68506">
        <ele>211.19999694824</ele>
        <time>2024-05-20T08:03:50.000Z</time>
      </trkpt>
      <trkpt lat="46.52832" lon="4.68505">
        <ele>211.19999694824</ele>
        <time>2024-05-20T08:03:51.000Z</time>
      </trkpt>
      <trkpt lat="46.52826" lon="4.68504">
        <ele>211.19999694824</ele>
        <time>2024-05-20T08:03:52.000Z</time>
      </trkpt>
      <trkpt lat="46.5282" lon="4.68503">
        <ele>211.19999694824</ele>
        <time>2024-05-20T08:03:53.000Z</time>
      </trkpt>
      <trkpt lat="46.52814" lon="4.68502">
        <ele>211.19999694824</ele>
        <time>2024-05-20T08:03:54.000Z</time>
      </trkpt>
      <trkpt lat="46.52807" lon="4.68501">
        <ele>211.39999389648</ele>
        <time>2024-05-20T08:03:55.000Z</time>
      </trkpt>
      <trkpt lat="46.52801" lon="4.685">
        <ele>211.39999389648</ele>
        <time>2024-05-20T08:03:56.000Z</time>
      </trkpt>
      <trkpt lat="46.52794" lon="4.68499">
        <ele>211.39999389648</ele>
        <time>2024-05-20T08:03:57.000Z</time>
      </trkpt>
      <trkpt lat="46.52788" lon="4.68499">
        <ele>211.39999389648</ele>
        <time>2024-05-20T08:03:58.000Z</time>
      </trkpt>
      <trkpt lat="46.52782" lon="4.68498">
        <ele>211.60000610352</ele>
        <time>2024-05-20T08:03:59.000Z</time>
      </trkpt>
      <trkpt lat="46.52776" lon="4.68497">
        <ele>211.60000610352</ele>
        <time>2024-05-20T08:04:00.000Z</time>
      </trkpt>
      <trkpt lat="46.52769" lon="4.68496">
        <ele>211.60000610352</ele>
        <time>2024-05-20T08:04:01.000Z</time>
      </trkpt>
      <trkpt lat="46.52763" lon="4.68495">
        <ele>211.60000610352</ele>
        <time>2024-05-20T08:04:02.000Z</time>
      </trkpt>
      <trkpt lat="46.52756" lon="4.68495">
        <ele>211.60000610352</ele>
        <time>2024-05-20T08:04:03.000Z</time>
      </trkpt>
      <trkpt lat="46.5275" lon="4.68494">
        <ele>211.60000610352</ele>
        <time>2024-05-20T08:04:04.000Z</time>
      </trkpt>
      <trkpt lat="46.52743" lon="4.68492">
        <ele>211.39999389648</ele>
        <time>2024-05-20T08:04:05.000Z</time>
      </trkpt>
      <trkpt lat="46.52737" lon="4.68491">
        <ele>211.39999389648</ele>
        <time>2024-05-20T08:04:06.000Z</time>
      </trkpt>
      <trkpt lat="46.52731" lon="4.6849">
        <ele>211.39999389648</ele>
        <time>2024-05-20T08:04:07.000Z</time>
      </trkpt>
      <trkpt lat="46.52724" lon="4.68489">
        <ele>211.39999389648</ele>
        <time>2024-05-20T08:04:08.000Z</time>
      </trkpt>
      <trkpt lat="46.52718" lon="4.68489">
        <ele>211.39999389648</ele>
        <time>2024-05-20T08:04:09.000Z</time>
      </trkpt>
      <trkpt lat="46.52712" lon="4.68488">
        <ele>211.60000610352</ele>
        <time>2024-05-20T08:04:10.000Z</time>
      </trkpt>
      <trkpt lat="46.52706" lon="4.68487">
        <ele>211.60000610352</ele>
        <time>2024-05-20T08:04:11.000Z</time>
      </trkpt>
      <trkpt lat="46.527" lon="4.68486">
        <ele>211.60000610352</ele>
        <time>2024-05-20T08:04:12.000Z</time>
      </trkpt>
      <trkpt lat="46.52693" lon="4.68486">
        <ele>211.60000610352</ele>
        <time>2024-05-20T08:04:13.000Z</time>
      </trkpt>
      <trkpt lat="46.52687" lon="4.68485">
        <ele>211.60000610352</ele>
        <time>2024-05-20T08:04:14.000Z</time>
      </trkpt>
      <trkpt lat="46.5268" lon="4.68484">
        <ele>211.60000610352</ele>
        <time>2024-05-20T08:04:15.000Z</time>
      </trkpt>
      <trkpt lat="46.52674" lon="4.68483">
        <ele>211.60000610352</ele>
        <time>2024-05-20T08:04:16.000Z</time>
      </trkpt>
      <trkpt lat="46.52667" lon="4.68482">
        <ele>211.60000610352</ele>
        <time>2024-05-20T08:04:17.000Z</time>
      </trkpt>
      <trkpt lat="46.52661" lon="4.68481">
        <ele>211.60000610352</ele>
        <time>2024-05-20T08:04:18.000Z</time>
      </trkpt>
      <trkpt lat="46.52655" lon="4.6848">
        <ele>211.60000610352</ele>
        <time>2024-05-20T08:04:19.000Z</time>
      </trkpt>
      <trkpt lat="46.52648" lon="4.68479">
        <ele>211.80000305176</ele>
        <time>2024-05-20T08:04:20.000Z</time>
      </trkpt>
      <trkpt lat="46.52642" lon="4.68478">
        <ele>211.80000305176</ele>
        <time>2024-05-20T08:04:21.000Z</time>
      </trkpt>
      <trkpt lat="46.52635" lon="4.68478">
        <ele>211.80000305176</ele>
        <time>2024-05-20T08:04:22.000Z</time>
      </trkpt>
      <trkpt lat="46.52628" lon="4.68477">
        <ele>211.80000305176</ele>
        <time>2024-05-20T08:04:23.000Z</time>
      </trkpt>
      <trkpt lat="46.52622" lon="4.68476">
        <ele>211.80000305176</ele>
        <time>2024-05-20T08:04:24.000Z</time>
      </trkpt>
      <trkpt lat="46.52615" lon="4.68476">
        <ele>211.80000305176</ele>
        <time>2024-05-20T08:04:25.000Z</time>
      </trkpt>
      <trkpt lat="46.52609" lon="4.68475">
        <ele>211.80000305176</ele>
        <time>2024-05-20T08:04:26.000Z</time>
      </trkpt>
      <trkpt lat="46.52602" lon="4.68474">
        <ele>211.80000305176</ele>
        <time>2024-05-20T08:04:27.000Z</time>
      </trkpt>
      <trkpt lat="46.52596" lon="4.68473">
        <ele>211.80000305176</ele>
        <time>2024-05-20T08:04:28.000Z</time>
      </trkpt>
      <trkpt lat="46.52589" lon="4.68472">
        <ele>211.80000305176</ele>
        <time>2024-05-20T08:04:29.000Z</time>
      </trkpt>
      <trkpt lat="46.52583" lon="4.68471">
        <ele>211.80000305176</ele>
        <time>2024-05-20T08:04:30.000Z</time>
      </trkpt>
      <trkpt lat="46.52577" lon="4.6847">
        <ele>211.80000305176</ele>
        <time>2024-05-20T08:04:31.000Z</time>
      </trkpt>
      <trkpt lat="46.5257" lon="4.68469">
        <ele>211.80000305176</ele>
        <time>2024-05-20T08:04:32.000Z</time>
      </trkpt>
      <trkpt lat="46.52564" lon="4.68468">
        <ele>212</ele>
        <time>2024-05-20T08:04:33.000Z</time>
      </trkpt>
      <trkpt lat="46.52557" lon="4.68468">
        <ele>212</ele>
        <time>2024-05-20T08:04:34.000Z</time>
      </trkpt>
      <trkpt lat="46.52551" lon="4.68467">
        <ele>212</ele>
        <time>2024-05-20T08:04:35.000Z</time>
      </trkpt>
      <trkpt lat="46.52544" lon="4.68467">
        <ele>212</ele>
        <time>2024-05-20T08:04:36.000Z</time>
      </trkpt>
      <trkpt lat="46.52538" lon="4.68466">
        <ele>211.80000305176</ele>
        <time>2024-05-20T08:04:37.000Z</time>
      </trkpt>
      <trkpt lat="46.52532" lon="4.68465">
        <ele>211.80000305176</ele>
        <time>2024-05-20T08:04:38.000Z</time>
      </trkpt>
      <trkpt lat="46.52526" lon="4.68465">
        <ele>211.80000305176</ele>
        <time>2024-05-20T08:04:39.000Z</time>
      </trkpt>
      <trkpt lat="46.52521" lon="4.68464">
        <ele>211.80000305176</ele>
        <time>2024-05-20T08:04:40.000Z</time>
      </trkpt>
      <trkpt lat="46.52517" lon="4.68463">
        <ele>211.80000305176</ele>
        <time>2024-05-20T08:04:41.000Z</time>
      </trkpt>
      <trkpt lat="46.52513" lon="4.68461">
        <ele>211.80000305176</ele>
        <time>2024-05-20T08:04:42.000Z</time>
      </trkpt>
      <trkpt lat="46.5251" lon="4.68461">
        <ele>211.80000305176</ele>
        <time>2024-05-20T08:04:43.000Z</time>
      </trkpt>
      <trkpt lat="46.52506" lon="4.68462">
        <ele>212</ele>
        <time>2024-05-20T08:04:44.000Z</time>
      </trkpt>
      <trkpt lat="46.52503" lon="4.68462">
        <ele>212</ele>
        <time>2024-05-20T08:04:45.000Z</time>
      </trkpt>
      <trkpt lat="46.52499" lon="4.68461">
        <ele>212</ele>
        <time>2024-05-20T08:04:46.000Z</time>
      </trkpt>
      <trkpt lat="46.52495" lon="4.68459">
        <ele>212.19999694824</ele>
        <time>2024-05-20T08:04:47.000Z</time>
      </trkpt>
      <trkpt lat="46.52491" lon="4.68458">
        <ele>212.19999694824</ele>
        <time>2024-05-20T08:04:48.000Z</time>
      </trkpt>
      <trkpt lat="46.52486" lon="4.68457">
        <ele>212.19999694824</ele>
        <time>2024-05-20T08:04:49.000Z</time>
      </trkpt>
      <trkpt lat="46.52481" lon="4.68457">
        <ele>212</ele>
        <time>2024-05-20T08:04:50.000Z</time>
      </trkpt>
      <trkpt lat="46.52476" lon="4.68456">
        <ele>212</ele>
        <time>2024-05-20T08:04:51.000Z</time>
      </trkpt>
      <trkpt lat="46.52471" lon="4.68456">
        <ele>211.80000305176</ele>
        <time>2024-05-20T08:04:52.000Z</time>
      </trkpt>
      <trkpt lat="46.52466" lon="4.68455">
        <ele>211.80000305176</ele>
        <time>2024-05-20T08:04:53.000Z</time>
      </trkpt>
      <trkpt lat="46.52461" lon="4.68454">
        <ele>211.60000610352</ele>
        <time>2024-05-20T08:04:54.000Z</time>
      </trkpt>
      <trkpt lat="46.52455" lon="4.68453">
        <ele>211.60000610352</ele>
        <time>2024-05-20T08:04:55.000Z</time>
      </trkpt>
      <trkpt lat="46.52449" lon="4.68453">
        <ele>211.60000610352</ele>
        <time>2024-05-20T08:04:56.000Z</time>
      </trkpt>
      <trkpt lat="46.52443" lon="4.68452">
        <ele>211.60000610352</ele>
        <time>2024-05-20T08:04:57.000Z</time>
      </trkpt>
      <trkpt lat="46.52438" lon="4.68451">
        <ele>211.60000610352</ele>
        <time>2024-05-20T08:04:58.000Z</time>
      </trkpt>
      <trkpt lat="46.52432" lon="4.6845">
        <ele>211.60000610352</ele>
        <time>2024-05-20T08:04:59.000Z</time>
      </trkpt>
      <trkpt lat="46.52426" lon="4.68449">
        <ele>211.60000610352</ele>
        <time>2024-05-20T08:05:00.000Z</time>
      </trkpt>
      <trkpt lat="46.52419" lon="4.68448">
        <ele>211.60000610352</ele>
        <time>2024-05-20T08:05:01.000Z</time>
      </trkpt>
      <trkpt lat="46.52413" lon="4.68447">
        <ele>211.60000610352</ele>
        <time>2024-05-20T08:05:02.000Z</time>
      </trkpt>
      <trkpt lat="46.52407" lon="4.68446">
        <ele>211.60000610352</ele>
        <time>2024-05-20T08:05:03.000Z</time>
      </trkpt>
      <trkpt lat="46.52401" lon="4.68445">
        <ele>211.60000610352</ele>
        <time>2024-05-20T08:05:04.000Z</time>
      </trkpt>
      <trkpt lat="46.52394" lon="4.68444">
        <ele>211.80000305176</ele>
        <time>2024-05-20T08:05:05.000Z</time>
      </trkpt>
      <trkpt lat="46.52388" lon="4.68443">
        <ele>211.80000305176</ele>
        <time>2024-05-20T08:05:06.000Z</time>
      </trkpt>
      <trkpt lat="46.52382" lon="4.68443">
        <ele>211.80000305176</ele>
        <time>2024-05-20T08:05:07.000Z</time>
      </trkpt>
      <trkpt lat="46.52375" lon="4.68441">
        <ele>211.80000305176</ele>
        <time>2024-05-20T08:05:08.000Z</time>
      </trkpt>
      <trkpt lat="46.52369" lon="4.6844">
        <ele>211.80000305176</ele>
        <time>2024-05-20T08:05:09.000Z</time>
      </trkpt>
      <trkpt lat="46.52363" lon="4.68439">
        <ele>211.80000305176</ele>
        <time>2024-05-20T08:05:10.000Z</time>
      </trkpt>
      <trkpt lat="46.52356" lon="4.68439">
        <ele>211.80000305176</ele>
        <time>2024-05-20T08:05:11.000Z</time>
      </trkpt>
      <trkpt lat="46.5235" lon="4.68438">
        <ele>211.80000305176</ele>
        <time>2024-05-20T08:05:12.000Z</time>
      </trkpt>
      <trkpt lat="46.52344" lon="4.68437">
        <ele>212</ele>
        <time>2024-05-20T08:05:13.000Z</time>
      </trkpt>
      <trkpt lat="46.52337" lon="4.68436">
        <ele>212</ele>
        <time>2024-05-20T08:05:14.000Z</time>
      </trkpt>
      <trkpt lat="46.52331" lon="4.68435">
        <ele>212</ele>
        <time>2024-05-20T08:05:15.000Z</time>
      </trkpt>
      <trkpt lat="46.52324" lon="4.68434">
        <ele>212</ele>
        <time>2024-05-20T08:05:16.000Z</time>
      </trkpt>
      <trkpt lat="46.52318" lon="4.68434">
        <ele>212</ele>
        <time>2024-05-20T08:05:17.000Z</time>
      </trkpt>
      <trkpt lat="46.52312" lon="4.68433">
        <ele>212.19999694824</ele>
        <time>2024-05-20T08:05:18.000Z</time>
      </trkpt>
      <trkpt lat="46.52306" lon="4.68432">
        <ele>212.19999694824</ele>
        <time>2024-05-20T08:05:19.000Z</time>
      </trkpt>
      <trkpt lat="46.52299" lon="4.68432">
        <ele>212.19999694824</ele>
        <time>2024-05-20T08:05:20.000Z</time>
      </trkpt>
      <trkpt lat="46.52293" lon="4.68431">
        <ele>212.39999389648</ele>
        <time>2024-05-20T08:05:21.000Z</time>
      </trkpt>
      <trkpt lat="46.52287" lon="4.6843">
        <ele>212.39999389648</ele>
        <time>2024-05-20T08:05:22.000Z</time>
      </trkpt>
      <trkpt lat="46.5228" lon="4.68429">
        <ele>212.39999389648</ele>
        <time>2024-05-20T08:05:23.000Z</time>
      </trkpt>
      <trkpt lat="46.52274" lon="4.68428">
        <ele>212.39999389648</ele>
        <time>2024-05-20T08:05:24.000Z</time>
      </trkpt>
      <trkpt lat="46.52267" lon="4.68427">
        <ele>212.39999389648</ele>
        <time>2024-05-20T08:05:25.000Z</time>
      </trkpt>
      <trkpt lat="46.52261" lon="4.68426">
        <ele>212.60000610352</ele>
        <time>2024-05-20T08:05:26.000Z</time>
      </trkpt>
      <trkpt lat="46.52254" lon="4.68425">
        <ele>212.60000610352</ele>
        <time>2024-05-20T08:05:27.000Z</time>
      </trkpt>
      <trkpt lat="46.52248" lon="4.68425">
        <ele>212.60000610352</ele>
        <time>2024-05-20T08:05:28.000Z</time>
      </trkpt>
      <trkpt lat="46.52242" lon="4.68424">
        <ele>212.60000610352</ele>
        <time>2024-05-20T08:05:29.000Z</time>
      </trkpt>
      <trkpt lat="46.52235" lon="4.68423">
        <ele>212.60000610352</ele>
        <time>2024-05-20T08:05:30.000Z</time>
      </trkpt>
      <trkpt lat="46.52228" lon="4.68422">
        <ele>212.60000610352</ele>
        <time>2024-05-20T08:05:31.000Z</time>
      </trkpt>
      <trkpt lat="46.52222" lon="4.68421">
        <ele>212.60000610352</ele>
        <time>2024-05-20T08:05:32.000Z</time>
      </trkpt>
      <trkpt lat="46.52216" lon="4.6842">
        <ele>212.60000610352</ele>
        <time>2024-05-20T08:05:33.000Z</time>
      </trkpt>
      <trkpt lat="46.52209" lon="4.68419">
        <ele>212.60000610352</ele>
        <time>2024-05-20T08:05:34.000Z</time>
      </trkpt>
      <trkpt lat="46.52203" lon="4.68419">
        <ele>212.60000610352</ele>
        <time>2024-05-20T08:05:35.000Z</time>
      </trkpt>
      <trkpt lat="46.52196" lon="4.68418">
        <ele>212.60000610352</ele>
        <time>2024-05-20T08:05:36.000Z</time>
      </trkpt>
      <trkpt lat="46.5219" lon="4.68417">
        <ele>212.80000305176</ele>
        <time>2024-05-20T08:05:37.000Z</time>
      </trkpt>
      <trkpt lat="46.52183" lon="4.68416">
        <ele>212.80000305176</ele>
        <time>2024-05-20T08:05:38.000Z</time>
      </trkpt>
      <trkpt lat="46.52177" lon="4.68415">
        <ele>212.80000305176</ele>
        <time>2024-05-20T08:05:39.000Z</time>
      </trkpt>
      <trkpt lat="46.5217" lon="4.68414">
        <ele>212.80000305176</ele>
        <time>2024-05-20T08:05:40.000Z</time>
      </trkpt>
      <trkpt lat="46.52163" lon="4.68413">
        <ele>213</ele>
        <time>2024-05-20T08:05:41.000Z</time>
      </trkpt>
      <trkpt lat="46.52157" lon="4.68411">
        <ele>213</ele>
        <time>2024-05-20T08:05:42.000Z</time>
      </trkpt>
      <trkpt lat="46.5215" lon="4.6841">
        <ele>213</ele>
        <time>2024-05-20T08:05:43.000Z</time>
      </trkpt>
      <trkpt lat="46.52143" lon="4.68409">
        <ele>213</ele>
        <time>2024-05-20T08:05:44.000Z</time>
      </trkpt>
      <trkpt lat="46.52137" lon="4.68408">
        <ele>213</ele>
        <time>2024-05-20T08:05:45.000Z</time>
      </trkpt>
      <trkpt lat="46.5213" lon="4.68407">
        <ele>213</ele>
        <time>2024-05-20T08:05:46.000Z</time>
      </trkpt>
      <trkpt lat="46.52124" lon="4.68406">
        <ele>213</ele>
        <time>2024-05-20T08:05:47.000Z</time>
      </trkpt>
      <trkpt lat="46.52117" lon="4.68404">
        <ele>213</ele>
        <time>2024-05-20T08:05:48.000Z</time>
      </trkpt>
      <trkpt lat="46.52111" lon="4.68403">
        <ele>213</ele>
        <time>2024-05-20T08:05:49.000Z</time>
      </trkpt>
      <trkpt lat="46.52104" lon="4.68401">
        <ele>213.19999694824</ele>
        <time>2024-05-20T08:05:50.000Z</time>
      </trkpt>
      <trkpt lat="46.52098" lon="4.68398">
        <ele>213.19999694824</ele>
        <time>2024-05-20T08:05:51.000Z</time>
      </trkpt>
      <trkpt lat="46.52091" lon="4.68396">
        <ele>213.19999694824</ele>
        <time>2024-05-20T08:05:52.000Z</time>
      </trkpt>
      <trkpt lat="46.52085" lon="4.68394">
        <ele>213.19999694824</ele>
        <time>2024-05-20T08:05:53.000Z</time>
      </trkpt>
      <trkpt lat="46.52079" lon="4.68392">
        <ele>213.19999694824</ele>
        <time>2024-05-20T08:05:54.000Z</time>
      </trkpt>
      <trkpt lat="46.52072" lon="4.6839">
        <ele>213.19999694824</ele>
        <time>2024-05-20T08:05:55.000Z</time>
      </trkpt>
      <trkpt lat="46.52066" lon="4.68387">
        <ele>213.19999694824</ele>
        <time>2024-05-20T08:05:56.000Z</time>
      </trkpt>
      <trkpt lat="46.5206" lon="4.68385">
        <ele>213.39999389648</ele>
        <time>2024-05-20T08:05:57.000Z</time>
      </trkpt>
      <trkpt lat="46.52053" lon="4.68383">
        <ele>213.39999389648</ele>
        <time>2024-05-20T08:05:58.000Z</time>
      </trkpt>
      <trkpt lat="46.52047" lon="4.6838">
        <ele>213.39999389648</ele>
        <time>2024-05-20T08:05:59.000Z</time>
      </trkpt>
      <trkpt lat="46.5204" lon="4.68378">
        <ele>213.39999389648</ele>
        <time>2024-05-20T08:06:00.000Z</time>
      </trkpt>
      <trkpt lat="46.52034" lon="4.68375">
        <ele>213.39999389648</ele>
        <time>2024-05-20T08:06:01.000Z</time>
      </trkpt>
      <trkpt lat="46.52028" lon="4.68372">
        <ele>213.39999389648</ele>
        <time>2024-05-20T08:06:02.000Z</time>
      </trkpt>
      <trkpt lat="46.52022" lon="4.6837">
        <ele>213.39999389648</ele>
        <time>2024-05-20T08:06:03.000Z</time>
      </trkpt>
      <trkpt lat="46.52015" lon="4.68368">
        <ele>213.39999389648</ele>
        <time>2024-05-20T08:06:04.000Z</time>
      </trkpt>
      <trkpt lat="46.52009" lon="4.68366">
        <ele>213.60000610352</ele>
        <time>2024-05-20T08:06:05.000Z</time>
      </trkpt>
      <trkpt lat="46.52002" lon="4.68364">
        <ele>213.60000610352</ele>
        <time>2024-05-20T08:06:06.000Z</time>
      </trkpt>
      <trkpt lat="46.51996" lon="4.68361">
        <ele>213.60000610352</ele>
        <time>2024-05-20T08:06:07.000Z</time>
      </trkpt>
      <trkpt lat="46.5199" lon="4.68359">
        <ele>213.60000610352</ele>
        <time>2024-05-20T08:06:08.000Z</time>
      </trkpt>
      <trkpt lat="46.51985" lon="4.68358">
        <ele>213.60000610352</ele>
        <time>2024-05-20T08:06:09.000Z</time>
      </trkpt>
      <trkpt lat="46.5198" lon="4.68355">
        <ele>213.60000610352</ele>
        <time>2024-05-20T08:06:10.000Z</time>
      </trkpt>
      <trkpt lat="46.51976" lon="4.68353">
        <ele>213.60000610352</ele>
        <time>2024-05-20T08:06:11.000Z</time>
      </trkpt>
      <trkpt lat="46.51972" lon="4.6835">
        <ele>213.60000610352</ele>
        <time>2024-05-20T08:06:12.000Z</time>
      </trkpt>
      <trkpt lat="46.51968" lon="4.68349">
        <ele>213.60000610352</ele>
        <time>2024-05-20T08:06:13.000Z</time>
      </trkpt>
      <trkpt lat="46.51964" lon="4.68349">
        <ele>213.60000610352</ele>
        <time>2024-05-20T08:06:14.000Z</time>
      </trkpt>
      <trkpt lat="46.5196" lon="4.68348">
        <ele>213.60000610352</ele>
        <time>2024-05-20T08:06:15.000Z</time>
      </trkpt>
      <trkpt lat="46.51956" lon="4.68346">
        <ele>213.60000610352</ele>
        <time>2024-05-20T08:06:16.000Z</time>
      </trkpt>
      <trkpt lat="46.51953" lon="4.68344">
        <ele>213.60000610352</ele>
        <time>2024-05-20T08:06:17.000Z</time>
      </trkpt>
      <trkpt lat="46.51949" lon="4.68342">
        <ele>213.60000610352</ele>
        <time>2024-05-20T08:06:18.000Z</time>
      </trkpt>
      <trkpt lat="46.51945" lon="4.6834">
        <ele>213.60000610352</ele>
        <time>2024-05-20T08:06:19.000Z</time>
      </trkpt>
      <trkpt lat="46.5194" lon="4.68338">
        <ele>213.60000610352</ele>
        <time>2024-05-20T08:06:20.000Z</time>
      </trkpt>
      <trkpt lat="46.51935" lon="4.68337">
        <ele>213.60000610352</ele>
        <time>2024-05-20T08:06:21.000Z</time>
      </trkpt>
      <trkpt lat="46.51929" lon="4.68335">
        <ele>213.60000610352</ele>
        <time>2024-05-20T08:06:22.000Z</time>
      </trkpt>
      <trkpt lat="46.51924" lon="4.68333">
        <ele>213.39999389648</ele>
        <time>2024-05-20T08:06:23.000Z</time>
      </trkpt>
      <trkpt lat="46.51919" lon="4.68331">
        <ele>213.39999389648</ele>
        <time>2024-05-20T08:06:24.000Z</time>
      </trkpt>
      <trkpt lat="46.51914" lon="4.68329">
        <ele>213.19999694824</ele>
        <time>2024-05-20T08:06:25.000Z</time>
      </trkpt>
      <trkpt lat="46.51909" lon="4.68327">
        <ele>213.19999694824</ele>
        <time>2024-05-20T08:06:26.000Z</time>
      </trkpt>
      <trkpt lat="46.51903" lon="4.68325">
        <ele>213.19999694824</ele>
        <time>2024-05-20T08:06:27.000Z</time>
      </trkpt>
      <trkpt lat="46.51898" lon="4.68323">
        <ele>213.19999694824</ele>
        <time>2024-05-20T08:06:28.000Z</time>
      </trkpt>
      <trkpt lat="46.51893" lon="4.68321">
        <ele>213.39999389648</ele>
        <time>2024-05-20T08:06:29.000Z</time>
      </trkpt>
      <trkpt lat="46.51887" lon="4.6832">
        <ele>213.39999389648</ele>
        <time>2024-05-20T08:06:30.000Z</time>
      </trkpt>
      <trkpt lat="46.51882" lon="4.68318">
        <ele>213.39999389648</ele>
        <time>2024-05-20T08:06:31.000Z</time>
      </trkpt>
      <trkpt lat="46.51876" lon="4.68315">
        <ele>213.60000610352</ele>
        <time>2024-05-20T08:06:32.000Z</time>
      </trkpt>
      <trkpt lat="46.5187" lon="4.68313">
        <ele>213.60000610352</ele>
        <time>2024-05-20T08:06:33.000Z</time>
      </trkpt>
      <trkpt lat="46.51864" lon="4.68311">
        <ele>213.60000610352</ele>
        <time>2024-05-20T08:06:34.000Z</time>
      </trkpt>
      <trkpt lat="46.51858" lon="4.68308">
        <ele>213.60000610352</ele>
        <time>2024-05-20T08:06:35.000Z</time>
      </trkpt>
      <trkpt lat="46.51852" lon="4.68306">
        <ele>213.60000610352</ele>
        <time>2024-05-20T08:06:36.000Z</time>
      </trkpt>
      <trkpt lat="46.51846" lon="4.68304">
        <ele>213.60000610352</ele>
        <time>2024-05-20T08:06:37.000Z</time>
      </trkpt>
      <trkpt lat="46.5184" lon="4.68301">
        <ele>213.80000305176</ele>
        <time>2024-05-20T08:06:38.000Z</time>
      </trkpt>
      <trkpt lat="46.51834" lon="4.68299">
        <ele>213.80000305176</ele>
        <time>2024-05-20T08:06:39.000Z</time>
      </trkpt>
      <trkpt lat="46.51829" lon="4.68296">
        <ele>214</ele>
        <time>2024-05-20T08:06:40.000Z</time>
      </trkpt>
      <trkpt lat="46.51822" lon="4.68294">
        <ele>214</ele>
        <time>2024-05-20T08:06:41.000Z</time>
      </trkpt>
      <trkpt lat="46.51816" lon="4.68292">
        <ele>214</ele>
        <time>2024-05-20T08:06:42.000Z</time>
      </trkpt>
      <trkpt lat="46.5181" lon="4.68289">
        <ele>214</ele>
        <time>2024-05-20T08:06:43.000Z</time>
      </trkpt>
      <trkpt lat="46.51804" lon="4.68287">
        <ele>214</ele>
        <time>2024-05-20T08:06:44.000Z</time>
      </trkpt>
      <trkpt lat="46.51798" lon="4.68285">
        <ele>214</ele>
        <time>2024-05-20T08:06:45.000Z</time>
      </trkpt>
      <trkpt lat="46.51791" lon="4.68282">
        <ele>214</ele>
        <time>2024-05-20T08:06:46.000Z</time>
      </trkpt>
      <trkpt lat="46.51785" lon="4.6828">
        <ele>214</ele>
        <time>2024-05-20T08:06:47.000Z</time>
      </trkpt>
      <trkpt lat="46.51779" lon="4.68277">
        <ele>214</ele>
        <time>2024-05-20T08:06:48.000Z</time>
      </trkpt>
      <trkpt lat="46.51773" lon="4.68275">
        <ele>214</ele>
        <time>2024-05-20T08:06:49.000Z</time>
      </trkpt>
      <trkpt lat="46.51766" lon="4.68273">
        <ele>214</ele>
        <time>2024-05-20T08:06:50.000Z</time>
      </trkpt>
      <trkpt lat="46.5176" lon="4.6827">
        <ele>214</ele>
        <time>2024-05-20T08:06:51.000Z</time>
      </trkpt>
      <trkpt lat="46.51754" lon="4.68268">
        <ele>214</ele>
        <time>2024-05-20T08:06:52.000Z</time>
      </trkpt>
      <trkpt lat="46.51748" lon="4.68265">
        <ele>214</ele>
        <time>2024-05-20T08:06:53.000Z</time>
      </trkpt>
      <trkpt lat="46.51742" lon="4.68262">
        <ele>214</ele>
        <time>2024-05-20T08:06:54.000Z</time>
      </trkpt>
      <trkpt lat="46.51736" lon="4.6826">
        <ele>214</ele>
        <time>2024-05-20T08:06:55.000Z</time>
      </trkpt>
      <trkpt lat="46.5173" lon="4.68258">
        <ele>214</ele>
        <time>2024-05-20T08:06:56.000Z</time>
      </trkpt>
      <trkpt lat="46.51724" lon="4.68255">
        <ele>214</ele>
        <time>2024-05-20T08:06:57.000Z</time>
      </trkpt>
      <trkpt lat="46.51718" lon="4.68253">
        <ele>214</ele>
        <time>2024-05-20T08:06:58.000Z</time>
      </trkpt>
      <trkpt lat="46.51711" lon="4.68251">
        <ele>214</ele>
        <time>2024-05-20T08:06:59.000Z</time>
      </trkpt>
      <trkpt lat="46.51705" lon="4.68249">
        <ele>214</ele>
        <time>2024-05-20T08:07:00.000Z</time>
      </trkpt>
      <trkpt lat="46.51699" lon="4.68247">
        <ele>214</ele>
        <time>2024-05-20T08:07:01.000Z</time>
      </trkpt>
      <trkpt lat="46.51693" lon="4.68244">
        <ele>214</ele>
        <time>2024-05-20T08:07:02.000Z</time>
      </trkpt>
      <trkpt lat="46.51687" lon="4.68242">
        <ele>214</ele>
        <time>2024-05-20T08:07:03.000Z</time>
      </trkpt>
      <trkpt lat="46.51681" lon="4.6824">
        <ele>214.19999694824</ele>
        <time>2024-05-20T08:07:04.000Z</time>
      </trkpt>
      <trkpt lat="46.51675" lon="4.68238">
        <ele>214.19999694824</ele>
        <time>2024-05-20T08:07:05.000Z</time>
      </trkpt>
      <trkpt lat="46.51668" lon="4.68235">
        <ele>214.19999694824</ele>
        <time>2024-05-20T08:07:06.000Z</time>
      </trkpt>
      <trkpt lat="46.51662" lon="4.68233">
        <ele>214.19999694824</ele>
        <time>2024-05-20T08:07:07.000Z</time>
      </trkpt>
      <trkpt lat="46.51656" lon="4.6823">
        <ele>214.19999694824</ele>
        <time>2024-05-20T08:07:08.000Z</time>
      </trkpt>
      <trkpt lat="46.51649" lon="4.68228">
        <ele>214.19999694824</ele>
        <time>2024-05-20T08:07:09.000Z</time>
      </trkpt>
      <trkpt lat="46.51643" lon="4.68226">
        <ele>214.39999389648</ele>
        <time>2024-05-20T08:07:10.000Z</time>
      </trkpt>
      <trkpt lat="46.51638" lon="4.68224">
        <ele>214.39999389648</ele>
        <time>2024-05-20T08:07:11.000Z</time>
      </trkpt>
      <trkpt lat="46.5163" lon="4.68221">
        <ele>214.39999389648</ele>
        <time>2024-05-20T08:07:12.000Z</time>
      </trkpt>
      <trkpt lat="46.51624" lon="4.68218">
        <ele>214.39999389648</ele>
        <time>2024-05-20T08:07:13.000Z</time>
      </trkpt>
      <trkpt lat="46.51618" lon="4.68216">
        <ele>214.39999389648</ele>
        <time>2024-05-20T08:07:14.000Z</time>
      </trkpt>
      <trkpt lat="46.51612" lon="4.68214">
        <ele>214.39999389648</ele>
        <time>2024-05-20T08:07:15.000Z</time>
      </trkpt>
      <trkpt lat="46.51606" lon="4.68211">
        <ele>214.39999389648</ele>
        <time>2024-05-20T08:07:16.000Z</time>
      </trkpt>
      <trkpt lat="46.516" lon="4.68208">
        <ele>214.39999389648</ele>
        <time>2024-05-20T08:07:17.000Z</time>
      </trkpt>
      <trkpt lat="46.51594" lon="4.68205">
        <ele>214.39999389648</ele>
        <time>2024-05-20T08:07:18.000Z</time>
      </trkpt>
      <trkpt lat="46.51588" lon="4.68203">
        <ele>214.39999389648</ele>
        <time>2024-05-20T08:07:19.000Z</time>
      </trkpt>
      <trkpt lat="46.51581" lon="4.68201">
        <ele>214.39999389648</ele>
        <time>2024-05-20T08:07:20.000Z</time>
      </trkpt>
      <trkpt lat="46.51575" lon="4.68198">
        <ele>214.39999389648</ele>
        <time>2024-05-20T08:07:21.000Z</time>
      </trkpt>
      <trkpt lat="46.51569" lon="4.68196">
        <ele>214.60000610352</ele>
        <time>2024-05-20T08:07:22.000Z</time>
      </trkpt>
      <trkpt lat="46.51563" lon="4.68194">
        <ele>214.60000610352</ele>
        <time>2024-05-20T08:07:23.000Z</time>
      </trkpt>
      <trkpt lat="46.51556" lon="4.68191">
        <ele>214.60000610352</ele>
        <time>2024-05-20T08:07:24.000Z</time>
      </trkpt>
      <trkpt lat="46.5155" lon="4.68189">
        <ele>214.60000610352</ele>
        <time>2024-05-20T08:07:25.000Z</time>
      </trkpt>
      <trkpt lat="46.51544" lon="4.68186">
        <ele>214.80000305176</ele>
        <time>2024-05-20T08:07:26.000Z</time>
      </trkpt>
      <trkpt lat="46.51538" lon="4.68184">
        <ele>214.80000305176</ele>
        <time>2024-05-20T08:07:27.000Z</time>
      </trkpt>
      <trkpt lat="46.51532" lon="4.68183">
        <ele>215</ele>
        <time>2024-05-20T08:07:28.000Z</time>
      </trkpt>
      <trkpt lat="46.51525" lon="4.68181">
        <ele>215.19999694824</ele>
        <time>2024-05-20T08:07:29.000Z</time>
      </trkpt>
      <trkpt lat="46.51519" lon="4.68179">
        <ele>215.19999694824</ele>
        <time>2024-05-20T08:07:30.000Z</time>
      </trkpt>
      <trkpt lat="46.51512" lon="4.68177">
        <ele>215.19999694824</ele>
        <time>2024-05-20T08:07:31.000Z</time>
      </trkpt>
      <trkpt lat="46.51506" lon="4.68175">
        <ele>215.19999694824</ele>
        <time>2024-05-20T08:07:32.000Z</time>
      </trkpt>
      <trkpt lat="46.515" lon="4.68173">
        <ele>215.19999694824</ele>
        <time>2024-05-20T08:07:33.000Z</time>
      </trkpt>
      <trkpt lat="46.51493" lon="4.68172">
        <ele>215.19999694824</ele>
        <time>2024-05-20T08:07:34.000Z</time>
      </trkpt>
      <trkpt lat="46.51487" lon="4.6817">
        <ele>215.19999694824</ele>
        <time>2024-05-20T08:07:35.000Z</time>
      </trkpt>
      <trkpt lat="46.5148" lon="4.68168">
        <ele>215.19999694824</ele>
        <time>2024-05-20T08:07:36.000Z</time>
      </trkpt>
      <trkpt lat="46.51474" lon="4.68166">
        <ele>215</ele>
        <time>2024-05-20T08:07:37.000Z</time>
      </trkpt>
      <trkpt lat="46.51467" lon="4.68164">
        <ele>215</ele>
        <time>2024-05-20T08:07:38.000Z</time>
      </trkpt>
      <trkpt lat="46.51461" lon="4.68162">
        <ele>215</ele>
        <time>2024-05-20T08:07:39.000Z</time>
      </trkpt>
      <trkpt lat="46.51455" lon="4.6816">
        <ele>215</ele>
        <time>2024-05-20T08:07:40.000Z</time>
      </trkpt>
      <trkpt lat="46.51449" lon="4.68158">
        <ele>215</ele>
        <time>2024-05-20T08:07:41.000Z</time>
      </trkpt>
      <trkpt lat="46.51442" lon="4.68156">
        <ele>215</ele>
        <time>2024-05-20T08:07:42.000Z</time>
      </trkpt>
      <trkpt lat="46.51436" lon="4.68154">
        <ele>215</ele>
        <time>2024-05-20T08:07:43.000Z</time>
      </trkpt>
      <trkpt lat="46.51429" lon="4.68153">
        <ele>215</ele>
        <time>2024-05-20T08:07:44.000Z</time>
      </trkpt>
      <trkpt lat="46.51423" lon="4.68151">
        <ele>215.19999694824</ele>
        <time>2024-05-20T08:07:45.000Z</time>
      </trkpt>
      <trkpt lat="46.51417" lon="4.68149">
        <ele>215.19999694824</ele>
        <time>2024-05-20T08:07:46.000Z</time>
      </trkpt>
      <trkpt lat="46.5141" lon="4.68147">
        <ele>215.19999694824</ele>
        <time>2024-05-20T08:07:47.000Z</time>
      </trkpt>
      <trkpt lat="46.51404" lon="4.68146">
        <ele>215.19999694824</ele>
        <time>2024-05-20T08:07:48.000Z</time>
      </trkpt>
      <trkpt lat="46.51398" lon="4.68144">
        <ele>215.39999389648</ele>
        <time>2024-05-20T08:07:49.000Z</time>
      </trkpt>
      <trkpt lat="46.51391" lon="4.68142">
        <ele>215.39999389648</ele>
        <time>2024-05-20T08:07:50.000Z</time>
      </trkpt>
      <trkpt lat="46.51385" lon="4.6814">
        <ele>215.39999389648</ele>
        <time>2024-05-20T08:07:51.000Z</time>
      </trkpt>
      <trkpt lat="46.51379" lon="4.68138">
        <ele>215.39999389648</ele>
        <time>2024-05-20T08:07:52.000Z</time>
      </trkpt>
      <trkpt lat="46.51372" lon="4.68137">
        <ele>215.39999389648</ele>
        <time>2024-05-20T08:07:53.000Z</time>
      </trkpt>
      <trkpt lat="46.51366" lon="4.68135">
        <ele>215.39999389648</ele>
        <time>2024-05-20T08:07:54.000Z</time>
      </trkpt>
      <trkpt lat="46.51359" lon="4.68133">
        <ele>215.39999389648</ele>
        <time>2024-05-20T08:07:55.000Z</time>
      </trkpt>
      <trkpt lat="46.51353" lon="4.68131">
        <ele>215.39999389648</ele>
        <time>2024-05-20T08:07:56.000Z</time>
      </trkpt>
      <trkpt lat="46.51346" lon="4.68129">
        <ele>215.39999389648</ele>
        <time>2024-05-20T08:07:57.000Z</time>
      </trkpt>
      <trkpt lat="46.5134" lon="4.68127">
        <ele>215.39999389648</ele>
        <time>2024-05-20T08:07:58.000Z</time>
      </trkpt>
      <trkpt lat="46.51333" lon="4.68125">
        <ele>215.39999389648</ele>
        <time>2024-05-20T08:07:59.000Z</time>
      </trkpt>
      <trkpt lat="46.51326" lon="4.68124">
        <ele>215.39999389648</ele>
        <time>2024-05-20T08:08:00.000Z</time>
      </trkpt>
      <trkpt lat="46.5132" lon="4.68122">
        <ele>215.39999389648</ele>
        <time>2024-05-20T08:08:01.000Z</time>
      </trkpt>
      <trkpt lat="46.51313" lon="4.6812">
        <ele>215.39999389648</ele>
        <time>2024-05-20T08:08:02.000Z</time>
      </trkpt>
      <trkpt lat="46.51307" lon="4.68118">
        <ele>215.60000610352</ele>
        <time>2024-05-20T08:08:03.000Z</time>
      </trkpt>
      <trkpt lat="46.513" lon="4.68117">
        <ele>215.60000610352</ele>
        <time>2024-05-20T08:08:04.000Z</time>
      </trkpt>
      <trkpt lat="46.51294" lon="4.68115">
        <ele>215.60000610352</ele>
        <time>2024-05-20T08:08:05.000Z</time>
      </trkpt>
      <trkpt lat="46.51287" lon="4.68112">
        <ele>215.60000610352</ele>
        <time>2024-05-20T08:08:06.000Z</time>
      </trkpt>
      <trkpt lat="46.51281" lon="4.68111">
        <ele>215.60000610352</ele>
        <time>2024-05-20T08:08:07.000Z</time>
      </trkpt>
      <trkpt lat="46.51275" lon="4.68109">
        <ele>215.60000610352</ele>
        <time>2024-05-20T08:08:08.000Z</time>
      </trkpt>
      <trkpt lat="46.51269" lon="4.68107">
        <ele>215.60000610352</ele>
        <time>2024-05-20T08:08:09.000Z</time>
      </trkpt>
      <trkpt lat="46.51263" lon="4.68105">
        <ele>215.60000610352</ele>
        <time>2024-05-20T08:08:10.000Z</time>
      </trkpt>
      <trkpt lat="46.51257" lon="4.68103">
        <ele>215.60000610352</ele>
        <time>2024-05-20T08:08:11.000Z</time>
      </trkpt>
      <trkpt lat="46.51251" lon="4.68103">
        <ele>215.60000610352</ele>
        <time>2024-05-20T08:08:12.000Z</time>
      </trkpt>
      <trkpt lat="46.51246" lon="4.68102">
        <ele>215.60000610352</ele>
        <time>2024-05-20T08:08:13.000Z</time>
      </trkpt>
      <trkpt lat="46.51241" lon="4.68101">
        <ele>215.60000610352</ele>
        <time>2024-05-20T08:08:14.000Z</time>
      </trkpt>
      <trkpt lat="46.51236" lon="4.681">
        <ele>215.60000610352</ele>
        <time>2024-05-20T08:08:15.000Z</time>
      </trkpt>
      <trkpt lat="46.51231" lon="4.68098">
        <ele>215.60000610352</ele>
        <time>2024-05-20T08:08:16.000Z</time>
      </trkpt>
      <trkpt lat="46.51227" lon="4.68097">
        <ele>215.60000610352</ele>
        <time>2024-05-20T08:08:17.000Z</time>
      </trkpt>
      <trkpt lat="46.51223" lon="4.68096">
        <ele>215.60000610352</ele>
        <time>2024-05-20T08:08:18.000Z</time>
      </trkpt>
      <trkpt lat="46.51219" lon="4.68095">
        <ele>215.60000610352</ele>
        <time>2024-05-20T08:08:19.000Z</time>
      </trkpt>
      <trkpt lat="46.51216" lon="4.68094">
        <ele>215.60000610352</ele>
        <time>2024-05-20T08:08:20.000Z</time>
      </trkpt>
      <trkpt lat="46.51213" lon="4.68092">
        <ele>215.60000610352</ele>
        <time>2024-05-20T08:08:21.000Z</time>
      </trkpt>
      <trkpt lat="46.5121" lon="4.68091">
        <ele>215.80000305176</ele>
        <time>2024-05-20T08:08:22.000Z</time>
      </trkpt>
      <trkpt lat="46.51208" lon="4.6809">
        <ele>215.80000305176</ele>
        <time>2024-05-20T08:08:23.000Z</time>
      </trkpt>
      <trkpt lat="46.51205" lon="4.6809">
        <ele>216</ele>
        <time>2024-05-20T08:08:24.000Z</time>
      </trkpt>
      <trkpt lat="46.51203" lon="4.6809">
        <ele>216</ele>
        <time>2024-05-20T08:08:25.000Z</time>
      </trkpt>
      <trkpt lat="46.512" lon="4.68089">
        <ele>216.19999694824</ele>
        <time>2024-05-20T08:08:26.000Z</time>
      </trkpt>
      <trkpt lat="46.51197" lon="4.68088">
        <ele>216.19999694824</ele>
        <time>2024-05-20T08:08:27.000Z</time>
      </trkpt>
      <trkpt lat="46.51194" lon="4.68087">
        <ele>216.19999694824</ele>
        <time>2024-05-20T08:08:28.000Z</time>
      </trkpt>
      <trkpt lat="46.51191" lon="4.68087">
        <ele>216.19999694824</ele>
        <time>2024-05-20T08:08:29.000Z</time>
      </trkpt>
      <trkpt lat="46.51187" lon="4.68086">
        <ele>216.19999694824</ele>
        <time>2024-05-20T08:08:30.000Z</time>
      </trkpt>
      <trkpt lat="46.51183" lon="4.68085">
        <ele>216.19999694824</ele>
        <time>2024-05-20T08:08:31.000Z</time>
      </trkpt>
      <trkpt lat="46.51179" lon="4.68084">
        <ele>216.19999694824</ele>
        <time>2024-05-20T08:08:32.000Z</time>
      </trkpt>
      <trkpt lat="46.51174" lon="4.68084">
        <ele>216.19999694824</ele>
        <time>2024-05-20T08:08:33.000Z</time>
      </trkpt>
      <trkpt lat="46.51169" lon="4.68082">
        <ele>216.19999694824</ele>
        <time>2024-05-20T08:08:34.000Z</time>
      </trkpt>
      <trkpt lat="46.51163" lon="4.68081">
        <ele>216</ele>
        <time>2024-05-20T08:08:35.000Z</time>
      </trkpt>
      <trkpt lat="46.51157" lon="4.68079">
        <ele>215.80000305176</ele>
        <time>2024-05-20T08:08:36.000Z</time>
      </trkpt>
      <trkpt lat="46.51151" lon="4.68077">
        <ele>215.80000305176</ele>
        <time>2024-05-20T08:08:37.000Z</time>
      </trkpt>
      <trkpt lat="46.51145" lon="4.68075">
        <ele>215.80000305176</ele>
        <time>2024-05-20T08:08:38.000Z</time>
      </trkpt>
      <trkpt lat="46.51138" lon="4.68073">
        <ele>215.80000305176</ele>
        <time>2024-05-20T08:08:39.000Z</time>
      </trkpt>
      <trkpt lat="46.51133" lon="4.68071">
        <ele>215.60000610352</ele>
        <time>2024-05-20T08:08:40.000Z</time>
      </trkpt>
      <trkpt lat="46.51126" lon="4.68069">
        <ele>215.60000610352</ele>
        <time>2024-05-20T08:08:41.000Z</time>
      </trkpt>
      <trkpt lat="46.51118" lon="4.68066">
        <ele>215.60000610352</ele>
        <time>2024-05-20T08:08:42.000Z</time>
      </trkpt>
      <trkpt lat="46.51111" lon="4.68064">
        <ele>215.80000305176</ele>
        <time>2024-05-20T08:08:43.000Z</time>
      </trkpt>
      <trkpt lat="46.51104" lon="4.68061">
        <ele>215.80000305176</ele>
        <time>2024-05-20T08:08:44.000Z</time>
      </trkpt>
      <trkpt lat="46.51097" lon="4.68059">
        <ele>215.80000305176</ele>
        <time>2024-05-20T08:08:45.000Z</time>
      </trkpt>
      <trkpt lat="46.5109" lon="4.68057">
        <ele>215.80000305176</ele>
        <time>2024-05-20T08:08:46.000Z</time>
      </trkpt>
      <trkpt lat="46.51083" lon="4.68055">
        <ele>215.80000305176</ele>
        <time>2024-05-20T08:08:47.000Z</time>
      </trkpt>
      <trkpt lat="46.51076" lon="4.68053">
        <ele>215.80000305176</ele>
        <time>2024-05-20T08:08:48.000Z</time>
      </trkpt>
      <trkpt lat="46.51069" lon="4.6805">
        <ele>215.80000305176</ele>
        <time>2024-05-20T08:08:49.000Z</time>
      </trkpt>
      <trkpt lat="46.51062" lon="4.68048">
        <ele>215.80000305176</ele>
        <time>2024-05-20T08:08:50.000Z</time>
      </trkpt>
      <trkpt lat="46.51054" lon="4.68046">
        <ele>215.80000305176</ele>
        <time>2024-05-20T08:08:51.000Z</time>
      </trkpt>
      <trkpt lat="46.51047" lon="4.68043">
        <ele>215.80000305176</ele>
        <time>2024-05-20T08:08:52.000Z</time>
      </trkpt>
      <trkpt lat="46.5104" lon="4.68042">
        <ele>215.80000305176</ele>
        <time>2024-05-20T08:08:53.000Z</time>
      </trkpt>
      <trkpt lat="46.51033" lon="4.6804">
        <ele>215.80000305176</ele>
        <time>2024-05-20T08:08:54.000Z</time>
      </trkpt>
      <trkpt lat="46.51026" lon="4.68038">
        <ele>215.80000305176</ele>
        <time>2024-05-20T08:08:55.000Z</time>
      </trkpt>
      <trkpt lat="46.51019" lon="4.68036">
        <ele>215.80000305176</ele>
        <time>2024-05-20T08:08:56.000Z</time>
      </trkpt>
      <trkpt lat="46.51012" lon="4.68034">
        <ele>215.80000305176</ele>
        <time>2024-05-20T08:08:57.000Z</time>
      </trkpt>
      <trkpt lat="46.51005" lon="4.68032">
        <ele>216</ele>
        <time>2024-05-20T08:08:58.000Z</time>
      </trkpt>
      <trkpt lat="46.50998" lon="4.68031">
        <ele>216</ele>
        <time>2024-05-20T08:08:59.000Z</time>
      </trkpt>
      <trkpt lat="46.5099" lon="4.68028">
        <ele>216.19999694824</ele>
        <time>2024-05-20T08:09:00.000Z</time>
      </trkpt>
      <trkpt lat="46.50983" lon="4.68026">
        <ele>216.19999694824</ele>
        <time>2024-05-20T08:09:01.000Z</time>
      </trkpt>
      <trkpt lat="46.50976" lon="4.68024">
        <ele>216.19999694824</ele>
        <time>2024-05-20T08:09:02.000Z</time>
      </trkpt>
      <trkpt lat="46.50969" lon="4.68022">
        <ele>216.19999694824</ele>
        <time>2024-05-20T08:09:03.000Z</time>
      </trkpt>
      <trkpt lat="46.50962" lon="4.6802">
        <ele>216.19999694824</ele>
        <time>2024-05-20T08:09:04.000Z</time>
      </trkpt>
      <trkpt lat="46.50955" lon="4.68018">
        <ele>216.19999694824</ele>
        <time>2024-05-20T08:09:05.000Z</time>
      </trkpt>
      <trkpt lat="46.50948" lon="4.68016">
        <ele>216.19999694824</ele>
        <time>2024-05-20T08:09:06.000Z</time>
      </trkpt>
      <trkpt lat="46.5094" lon="4.68014">
        <ele>216.19999694824</ele>
        <time>2024-05-20T08:09:07.000Z</time>
      </trkpt>
      <trkpt lat="46.50933" lon="4.68012">
        <ele>216.39999389648</ele>
        <time>2024-05-20T08:09:08.000Z</time>
      </trkpt>
      <trkpt lat="46.50926" lon="4.6801">
        <ele>216.39999389648</ele>
        <time>2024-05-20T08:09:09.000Z</time>
      </trkpt>
      <trkpt lat="46.5092" lon="4.68008">
        <ele>216.39999389648</ele>
        <time>2024-05-20T08:09:10.000Z</time>
      </trkpt>
      <trkpt lat="46.50913" lon="4.68006">
        <ele>216.39999389648</ele>
        <time>2024-05-20T08:09:11.000Z</time>
      </trkpt>
      <trkpt lat="46.50905" lon="4.68005">
        <ele>216.39999389648</ele>
        <time>2024-05-20T08:09:12.000Z</time>
      </trkpt>
      <trkpt lat="46.50898" lon="4.68003">
        <ele>216.39999389648</ele>
        <time>2024-05-20T08:09:13.000Z</time>
      </trkpt>
      <trkpt lat="46.50892" lon="4.68001">
        <ele>216.39999389648</ele>
        <time>2024-05-20T08:09:14.000Z</time>
      </trkpt>
      <trkpt lat="46.50885" lon="4.67999">
        <ele>216.60000610352</ele>
        <time>2024-05-20T08:09:15.000Z</time>
      </trkpt>
      <trkpt lat="46.50878" lon="4.67997">
        <ele>216.60000610352</ele>
        <time>2024-05-20T08:09:16.000Z</time>
      </trkpt>
      <trkpt lat="46.50871" lon="4.67995">
        <ele>216.60000610352</ele>
        <time>2024-05-20T08:09:17.000Z</time>
      </trkpt>
      <trkpt lat="46.50864" lon="4.67993">
        <ele>216.60000610352</ele>
        <time>2024-05-20T08:09:18.000Z</time>
      </trkpt>
      <trkpt lat="46.50857" lon="4.67991">
        <ele>216.80000305176</ele>
        <time>2024-05-20T08:09:19.000Z</time>
      </trkpt>
      <trkpt lat="46.5085" lon="4.67989">
        <ele>216.80000305176</ele>
        <time>2024-05-20T08:09:20.000Z</time>
      </trkpt>
      <trkpt lat="46.50843" lon="4.67987">
        <ele>216.80000305176</ele>
        <time>2024-05-20T08:09:21.000Z</time>
      </trkpt>
      <trkpt lat="46.50836" lon="4.67985">
        <ele>216.80000305176</ele>
        <time>2024-05-20T08:09:22.000Z</time>
      </trkpt>
      <trkpt lat="46.50829" lon="4.67984">
        <ele>216.60000610352</ele>
        <time>2024-05-20T08:09:23.000Z</time>
      </trkpt>
      <trkpt lat="46.50822" lon="4.67982">
        <ele>216.60000610352</ele>
        <time>2024-05-20T08:09:24.000Z</time>
      </trkpt>
      <trkpt lat="46.50816" lon="4.6798">
        <ele>216.60000610352</ele>
        <time>2024-05-20T08:09:25.000Z</time>
      </trkpt>
      <trkpt lat="46.50809" lon="4.67978">
        <ele>216.60000610352</ele>
        <time>2024-05-20T08:09:26.000Z</time>
      </trkpt>
      <trkpt lat="46.50802" lon="4.67976">
        <ele>216.60000610352</ele>
        <time>2024-05-20T08:09:27.000Z</time>
      </trkpt>
      <trkpt lat="46.50796" lon="4.67973">
        <ele>216.60000610352</ele>
        <time>2024-05-20T08:09:28.000Z</time>
      </trkpt>
      <trkpt lat="46.50789" lon="4.67971">
        <ele>216.60000610352</ele>
        <time>2024-05-20T08:09:29.000Z</time>
      </trkpt>
      <trkpt lat="46.50782" lon="4.67968">
        <ele>216.60000610352</ele>
        <time>2024-05-20T08:09:30.000Z</time>
      </trkpt>
      <trkpt lat="46.50775" lon="4.67967">
        <ele>216.60000610352</ele>
        <time>2024-05-20T08:09:31.000Z</time>
      </trkpt>
      <trkpt lat="46.50768" lon="4.67965">
        <ele>216.80000305176</ele>
        <time>2024-05-20T08:09:32.000Z</time>
      </trkpt>
      <trkpt lat="46.50761" lon="4.67963">
        <ele>216.80000305176</ele>
        <time>2024-05-20T08:09:33.000Z</time>
      </trkpt>
      <trkpt lat="46.50754" lon="4.67961">
        <ele>216.80000305176</ele>
        <time>2024-05-20T08:09:34.000Z</time>
      </trkpt>
      <trkpt lat="46.50747" lon="4.6796">
        <ele>216.80000305176</ele>
        <time>2024-05-20T08:09:35.000Z</time>
      </trkpt>
      <trkpt lat="46.5074" lon="4.67958">
        <ele>217</ele>
        <time>2024-05-20T08:09:36.000Z</time>
      </trkpt>
      <trkpt lat="46.50733" lon="4.67956">
        <ele>217</ele>
        <time>2024-05-20T08:09:37.000Z</time>
      </trkpt>
      <trkpt lat="46.50727" lon="4.67954">
        <ele>217</ele>
        <time>2024-05-20T08:09:38.000Z</time>
      </trkpt>
      <trkpt lat="46.50721" lon="4.67953">
        <ele>217</ele>
        <time>2024-05-20T08:09:39.000Z</time>
      </trkpt>
      <trkpt lat="46.50714" lon="4.67951">
        <ele>217</ele>
        <time>2024-05-20T08:09:40.000Z</time>
      </trkpt>
      <trkpt lat="46.50707" lon="4.67949">
        <ele>217</ele>
        <time>2024-05-20T08:09:41.000Z</time>
      </trkpt>
      <trkpt lat="46.50701" lon="4.67947">
        <ele>217</ele>
        <time>2024-05-20T08:09:42.000Z</time>
      </trkpt>
      <trkpt lat="46.50694" lon="4.67945">
        <ele>217</ele>
        <time>2024-05-20T08:09:43.000Z</time>
      </trkpt>
      <trkpt lat="46.50687" lon="4.67943">
        <ele>217.19999694824</ele>
        <time>2024-05-20T08:09:44.000Z</time>
      </trkpt>
      <trkpt lat="46.50681" lon="4.67941">
        <ele>217.19999694824</ele>
        <time>2024-05-20T08:09:45.000Z</time>
      </trkpt>
      <trkpt lat="46.50674" lon="4.67939">
        <ele>217.39999389648</ele>
        <time>2024-05-20T08:09:46.000Z</time>
      </trkpt>
      <trkpt lat="46.50668" lon="4.67937">
        <ele>217.39999389648</ele>
        <time>2024-05-20T08:09:47.000Z</time>
      </trkpt>
      <trkpt lat="46.50661" lon="4.67935">
        <ele>217.39999389648</ele>
        <time>2024-05-20T08:09:48.000Z</time>
      </trkpt>
      <trkpt lat="46.50655" lon="4.67933">
        <ele>217.39999389648</ele>
        <time>2024-05-20T08:09:49.000Z</time>
      </trkpt>
      <trkpt lat="46.50648" lon="4.67932">
        <ele>217.39999389648</ele>
        <time>2024-05-20T08:09:50.000Z</time>
      </trkpt>
      <trkpt lat="46.50642" lon="4.6793">
        <ele>217.39999389648</ele>
        <time>2024-05-20T08:09:51.000Z</time>
      </trkpt>
      <trkpt lat="46.50635" lon="4.67929">
        <ele>217.39999389648</ele>
        <time>2024-05-20T08:09:52.000Z</time>
      </trkpt>
      <trkpt lat="46.50628" lon="4.67927">
        <ele>217.39999389648</ele>
        <time>2024-05-20T08:09:53.000Z</time>
      </trkpt>
      <trkpt lat="46.50622" lon="4.67926">
        <ele>217.39999389648</ele>
        <time>2024-05-20T08:09:54.000Z</time>
      </trkpt>
      <trkpt lat="46.50615" lon="4.67924">
        <ele>217.39999389648</ele>
        <time>2024-05-20T08:09:55.000Z</time>
      </trkpt>
      <trkpt lat="46.50609" lon="4.67922">
        <ele>217.39999389648</ele>
        <time>2024-05-20T08:09:56.000Z</time>
      </trkpt>
      <trkpt lat="46.50602" lon="4.6792">
        <ele>217.60000610352</ele>
        <time>2024-05-20T08:09:57.000Z</time>
      </trkpt>
      <trkpt lat="46.50595" lon="4.67918">
        <ele>217.60000610352</ele>
        <time>2024-05-20T08:09:58.000Z</time>
      </trkpt>
      <trkpt lat="46.50589" lon="4.67916">
        <ele>217.60000610352</ele>
        <time>2024-05-20T08:09:59.000Z</time>
      </trkpt>
      <trkpt lat="46.50582" lon="4.67914">
        <ele>217.60000610352</ele>
        <time>2024-05-20T08:10:00.000Z</time>
      </trkpt>
      <trkpt lat="46.50575" lon="4.67912">
        <ele>217.60000610352</ele>
        <time>2024-05-20T08:10:01.000Z</time>
      </trkpt>
      <trkpt lat="46.50568" lon="4.6791">
        <ele>217.60000610352</ele>
        <time>2024-05-20T08:10:02.000Z</time>
      </trkpt>
      <trkpt lat="46.50561" lon="4.67908">
        <ele>217.60000610352</ele>
        <time>2024-05-20T08:10:03.000Z</time>
      </trkpt>
      <trkpt lat="46.50555" lon="4.67906">
        <ele>217.60000610352</ele>
        <time>2024-05-20T08:10:04.000Z</time>
      </trkpt>
      <trkpt lat="46.50548" lon="4.67904">
        <ele>217.60000610352</ele>
        <time>2024-05-20T08:10:05.000Z</time>
      </trkpt>
      <trkpt lat="46.50542" lon="4.67902">
        <ele>217.60000610352</ele>
        <time>2024-05-20T08:10:06.000Z</time>
      </trkpt>
      <trkpt lat="46.50535" lon="4.679">
        <ele>217.60000610352</ele>
        <time>2024-05-20T08:10:07.000Z</time>
      </trkpt>
      <trkpt lat="46.50529" lon="4.67898">
        <ele>217.60000610352</ele>
        <time>2024-05-20T08:10:08.000Z</time>
      </trkpt>
      <trkpt lat="46.50523" lon="4.67896">
        <ele>217.60000610352</ele>
        <time>2024-05-20T08:10:09.000Z</time>
      </trkpt>
      <trkpt lat="46.50516" lon="4.67895">
        <ele>217.80000305176</ele>
        <time>2024-05-20T08:10:10.000Z</time>
      </trkpt>
      <trkpt lat="46.5051" lon="4.67893">
        <ele>217.80000305176</ele>
        <time>2024-05-20T08:10:11.000Z</time>
      </trkpt>
      <trkpt lat="46.50504" lon="4.67891">
        <ele>217.80000305176</ele>
        <time>2024-05-20T08:10:12.000Z</time>
      </trkpt>
      <trkpt lat="46.50497" lon="4.67889">
        <ele>217.80000305176</ele>
        <time>2024-05-20T08:10:13.000Z</time>
      </trkpt>
      <trkpt lat="46.50491" lon="4.67887">
        <ele>217.80000305176</ele>
        <time>2024-05-20T08:10:14.000Z</time>
      </trkpt>
      <trkpt lat="46.50485" lon="4.67885">
        <ele>217.80000305176</ele>
        <time>2024-05-20T08:10:15.000Z</time>
      </trkpt>
      <trkpt lat="46.50479" lon="4.67883">
        <ele>217.80000305176</ele>
        <time>2024-05-20T08:10:16.000Z</time>
      </trkpt>
      <trkpt lat="46.50473" lon="4.67881">
        <ele>217.80000305176</ele>
        <time>2024-05-20T08:10:17.000Z</time>
      </trkpt>
      <trkpt lat="46.50466" lon="4.67879">
        <ele>217.80000305176</ele>
        <time>2024-05-20T08:10:18.000Z</time>
      </trkpt>
      <trkpt lat="46.5046" lon="4.67877">
        <ele>217.80000305176</ele>
        <time>2024-05-20T08:10:19.000Z</time>
      </trkpt>
      <trkpt lat="46.50454" lon="4.67876">
        <ele>217.80000305176</ele>
        <time>2024-05-20T08:10:20.000Z</time>
      </trkpt>
      <trkpt lat="46.50447" lon="4.67874">
        <ele>217.80000305176</ele>
        <time>2024-05-20T08:10:21.000Z</time>
      </trkpt>
      <trkpt lat="46.50441" lon="4.67872">
        <ele>217.80000305176</ele>
        <time>2024-05-20T08:10:22.000Z</time>
      </trkpt>
      <trkpt lat="46.50435" lon="4.6787">
        <ele>217.80000305176</ele>
        <time>2024-05-20T08:10:23.000Z</time>
      </trkpt>
      <trkpt lat="46.50428" lon="4.67868">
        <ele>217.80000305176</ele>
        <time>2024-05-20T08:10:24.000Z</time>
      </trkpt>
      <trkpt lat="46.50422" lon="4.67866">
        <ele>217.80000305176</ele>
        <time>2024-05-20T08:10:25.000Z</time>
      </trkpt>
      <trkpt lat="46.50416" lon="4.67865">
        <ele>217.80000305176</ele>
        <time>2024-05-20T08:10:26.000Z</time>
      </trkpt>
      <trkpt lat="46.5041" lon="4.67863">
        <ele>217.80000305176</ele>
        <time>2024-05-20T08:10:27.000Z</time>
      </trkpt>
      <trkpt lat="46.50403" lon="4.67861">
        <ele>217.80000305176</ele>
        <time>2024-05-20T08:10:28.000Z</time>
      </trkpt>
      <trkpt lat="46.50397" lon="4.6786">
        <ele>217.80000305176</ele>
        <time>2024-05-20T08:10:29.000Z</time>
      </trkpt>
      <trkpt lat="46.50391" lon="4.67859">
        <ele>218</ele>
        <time>2024-05-20T08:10:30.000Z</time>
      </trkpt>
      <trkpt lat="46.50385" lon="4.67858">
        <ele>218.19999694824</ele>
        <time>2024-05-20T08:10:31.000Z</time>
      </trkpt>
      <trkpt lat="46.50378" lon="4.67857">
        <ele>218.19999694824</ele>
        <time>2024-05-20T08:10:32.000Z</time>
      </trkpt>
      <trkpt lat="46.50372" lon="4.67857">
        <ele>218.39999389648</ele>
        <time>2024-05-20T08:10:33.000Z</time>
      </trkpt>
      <trkpt lat="46.50366" lon="4.67856">
        <ele>218.39999389648</ele>
        <time>2024-05-20T08:10:34.000Z</time>
      </trkpt>
      <trkpt lat="46.50359" lon="4.67856">
        <ele>218.60000610352</ele>
        <time>2024-05-20T08:10:35.000Z</time>
      </trkpt>
      <trkpt lat="46.50353" lon="4.67855">
        <ele>218.60000610352</ele>
        <time>2024-05-20T08:10:36.000Z</time>
      </trkpt>
      <trkpt lat="46.50347" lon="4.67854">
        <ele>218.60000610352</ele>
        <time>2024-05-20T08:10:37.000Z</time>
      </trkpt>
      <trkpt lat="46.5034" lon="4.67854">
        <ele>218.60000610352</ele>
        <time>2024-05-20T08:10:38.000Z</time>
      </trkpt>
      <trkpt lat="46.50334" lon="4.67854">
        <ele>218.60000610352</ele>
        <time>2024-05-20T08:10:39.000Z</time>
      </trkpt>
      <trkpt lat="46.50328" lon="4.67853">
        <ele>218.60000610352</ele>
        <time>2024-05-20T08:10:40.000Z</time>
      </trkpt>
      <trkpt lat="46.50322" lon="4.67853">
        <ele>218.60000610352</ele>
        <time>2024-05-20T08:10:41.000Z</time>
      </trkpt>
      <trkpt lat="46.50316" lon="4.67853">
        <ele>218.60000610352</ele>
        <time>2024-05-20T08:10:42.000Z</time>
      </trkpt>
      <trkpt lat="46.5031" lon="4.67854">
        <ele>218.60000610352</ele>
        <time>2024-05-20T08:10:43.000Z</time>
      </trkpt>
      <trkpt lat="46.50304" lon="4.67854">
        <ele>218.60000610352</ele>
        <time>2024-05-20T08:10:44.000Z</time>
      </trkpt>
      <trkpt lat="46.50299" lon="4.67855">
        <ele>218.60000610352</ele>
        <time>2024-05-20T08:10:45.000Z</time>
      </trkpt>
      <trkpt lat="46.50294" lon="4.67855">
        <ele>218.60000610352</ele>
        <time>2024-05-20T08:10:46.000Z</time>
      </trkpt>
      <trkpt lat="46.50289" lon="4.67855">
        <ele>218.60000610352</ele>
        <time>2024-05-20T08:10:47.000Z</time>
      </trkpt>
      <trkpt lat="46.50285" lon="4.67855">
        <ele>218.60000610352</ele>
        <time>2024-05-20T08:10:48.000Z</time>
      </trkpt>
      <trkpt lat="46.50282" lon="4.67855">
        <ele>218.60000610352</ele>
        <time>2024-05-20T08:10:49.000Z</time>
      </trkpt>
      <trkpt lat="46.5028" lon="4.67855">
        <ele>218.80000305176</ele>
        <time>2024-05-20T08:10:50.000Z</time>
      </trkpt>
      <trkpt lat="46.50279" lon="4.67855">
        <ele>218.80000305176</ele>
        <time>2024-05-20T08:10:51.000Z</time>
      </trkpt>
      <trkpt lat="46.50278" lon="4.67856">
        <ele>219</ele>
        <time>2024-05-20T08:10:52.000Z</time>
      </trkpt>
      <trkpt lat="46.50278" lon="4.67856">
        <ele>219.19999694824</ele>
        <time>2024-05-20T08:10:53.000Z</time>
      </trkpt>
      <trkpt lat="46.50278" lon="4.67856">
        <ele>219.19999694824</ele>
        <time>2024-05-20T08:10:54.000Z</time>
      </trkpt>
      <trkpt lat="46.50272" lon="4.67858">
        <ele>219.39999389648</ele>
        <time>2024-05-20T08:10:57.000Z</time>
      </trkpt>
      <trkpt lat="46.5027" lon="4.67858">
        <ele>219.39999389648</ele>
        <time>2024-05-20T08:10:58.000Z</time>
      </trkpt>
      <trkpt lat="46.50268" lon="4.67858">
        <ele>219.39999389648</ele>
        <time>2024-05-20T08:10:59.000Z</time>
      </trkpt>
      <trkpt lat="46.50265" lon="4.67858">
        <ele>219.39999389648</ele>
        <time>2024-05-20T08:11:00.000Z</time>
      </trkpt>
      <trkpt lat="46.50262" lon="4.6786">
        <ele>219.39999389648</ele>
        <time>2024-05-20T08:11:01.000Z</time>
      </trkpt>
      <trkpt lat="46.50258" lon="4.67861">
        <ele>219.39999389648</ele>
        <time>2024-05-20T08:11:02.000Z</time>
      </trkpt>
      <trkpt lat="46.50255" lon="4.67862">
        <ele>219.39999389648</ele>
        <time>2024-05-20T08:11:03.000Z</time>
      </trkpt>
      <trkpt lat="46.50251" lon="4.67862">
        <ele>219.39999389648</ele>
        <time>2024-05-20T08:11:04.000Z</time>
      </trkpt>
      <trkpt lat="46.50247" lon="4.67863">
        <ele>219.39999389648</ele>
        <time>2024-05-20T08:11:05.000Z</time>
      </trkpt>
      <trkpt lat="46.50242" lon="4.67865">
        <ele>219.39999389648</ele>
        <time>2024-05-20T08:11:06.000Z</time>
      </trkpt>
      <trkpt lat="46.50238" lon="4.67866">
        <ele>219.39999389648</ele>
        <time>2024-05-20T08:11:07.000Z</time>
      </trkpt>
      <trkpt lat="46.50233" lon="4.67867">
        <ele>219.39999389648</ele>
        <time>2024-05-20T08:11:08.000Z</time>
      </trkpt>
      <trkpt lat="46.50228" lon="4.67869">
        <ele>219.19999694824</ele>
        <time>2024-05-20T08:11:09.000Z</time>
      </trkpt>
      <trkpt lat="46.50223" lon="4.6787">
        <ele>219.19999694824</ele>
        <time>2024-05-20T08:11:10.000Z</time>
      </trkpt>
      <trkpt lat="46.50218" lon="4.67872">
        <ele>219.19999694824</ele>
        <time>2024-05-20T08:11:11.000Z</time>
      </trkpt>
      <trkpt lat="46.50213" lon="4.67873">
        <ele>219.19999694824</ele>
        <time>2024-05-20T08:11:12.000Z</time>
      </trkpt>
      <trkpt lat="46.50207" lon="4.67875">
        <ele>219.19999694824</ele>
        <time>2024-05-20T08:11:13.000Z</time>
      </trkpt>
      <trkpt lat="46.50202" lon="4.67877">
        <ele>219.19999694824</ele>
        <time>2024-05-20T08:11:14.000Z</time>
      </trkpt>
      <trkpt lat="46.50196" lon="4.67879">
        <ele>219.19999694824</ele>
        <time>2024-05-20T08:11:15.000Z</time>
      </trkpt>
      <trkpt lat="46.5019" lon="4.67881">
        <ele>219</ele>
        <time>2024-05-20T08:11:16.000Z</time>
      </trkpt>
      <trkpt lat="46.50184" lon="4.67883">
        <ele>219</ele>
        <time>2024-05-20T08:11:17.000Z</time>
      </trkpt>
      <trkpt lat="46.50178" lon="4.67885">
        <ele>219</ele>
        <time>2024-05-20T08:11:18.000Z</time>
      </trkpt>
      <trkpt lat="46.50173" lon="4.67889">
        <ele>218.80000305176</ele>
        <time>2024-05-20T08:11:19.000Z</time>
      </trkpt>
      <trkpt lat="46.50168" lon="4.67891">
        <ele>218.80000305176</ele>
        <time>2024-05-20T08:11:20.000Z</time>
      </trkpt>
      <trkpt lat="46.50162" lon="4.67893">
        <ele>218.80000305176</ele>
        <time>2024-05-20T08:11:21.000Z</time>
      </trkpt>
      <trkpt lat="46.50157" lon="4.67896">
        <ele>218.80000305176</ele>
        <time>2024-05-20T08:11:22.000Z</time>
      </trkpt>
      <trkpt lat="46.5015" lon="4.67898">
        <ele>218.80000305176</ele>
        <time>2024-05-20T08:11:23.000Z</time>
      </trkpt>
      <trkpt lat="46.50144" lon="4.679">
        <ele>218.80000305176</ele>
        <time>2024-05-20T08:11:24.000Z</time>
      </trkpt>
      <trkpt lat="46.50138" lon="4.67902">
        <ele>219</ele>
        <time>2024-05-20T08:11:25.000Z</time>
      </trkpt>
      <trkpt lat="46.50131" lon="4.67904">
        <ele>219</ele>
        <time>2024-05-20T08:11:26.000Z</time>
      </trkpt>
      <trkpt lat="46.50125" lon="4.67906">
        <ele>219</ele>
        <time>2024-05-20T08:11:27.000Z</time>
      </trkpt>
      <trkpt lat="46.50119" lon="4.67909">
        <ele>219</ele>
        <time>2024-05-20T08:11:28.000Z</time>
      </trkpt>
      <trkpt lat="46.50113" lon="4.67911">
        <ele>219</ele>
        <time>2024-05-20T08:11:29.000Z</time>
      </trkpt>
      <trkpt lat="46.50108" lon="4.67913">
        <ele>219</ele>
        <time>2024-05-20T08:11:30.000Z</time>
      </trkpt>
      <trkpt lat="46.50103" lon="4.67915">
        <ele>219</ele>
        <time>2024-05-20T08:11:31.000Z</time>
      </trkpt>
      <trkpt lat="46.50097" lon="4.67917">
        <ele>219</ele>
        <time>2024-05-20T08:11:32.000Z</time>
      </trkpt>
      <trkpt lat="46.50091" lon="4.67919">
        <ele>219</ele>
        <time>2024-05-20T08:11:33.000Z</time>
      </trkpt>
      <trkpt lat="46.50084" lon="4.67921">
        <ele>219</ele>
        <time>2024-05-20T08:11:34.000Z</time>
      </trkpt>
      <trkpt lat="46.50078" lon="4.67922">
        <ele>219</ele>
        <time>2024-05-20T08:11:35.000Z</time>
      </trkpt>
      <trkpt lat="46.50072" lon="4.67924">
        <ele>219.19999694824</ele>
        <time>2024-05-20T08:11:36.000Z</time>
      </trkpt>
      <trkpt lat="46.50065" lon="4.67926">
        <ele>219.19999694824</ele>
        <time>2024-05-20T08:11:37.000Z</time>
      </trkpt>
      <trkpt lat="46.50058" lon="4.67929">
        <ele>219.19999694824</ele>
        <time>2024-05-20T08:11:38.000Z</time>
      </trkpt>
      <trkpt lat="46.50052" lon="4.67931">
        <ele>219.39999389648</ele>
        <time>2024-05-20T08:11:39.000Z</time>
      </trkpt>
      <trkpt lat="46.50045" lon="4.67933">
        <ele>219.39999389648</ele>
        <time>2024-05-20T08:11:40.000Z</time>
      </trkpt>
      <trkpt lat="46.50039" lon="4.67935">
        <ele>219.39999389648</ele>
        <time>2024-05-20T08:11:41.000Z</time>
      </trkpt>
      <trkpt lat="46.50033" lon="4.67938">
        <ele>219.39999389648</ele>
        <time>2024-05-20T08:11:42.000Z</time>
      </trkpt>
      <trkpt lat="46.50026" lon="4.6794">
        <ele>219.60000610352</ele>
        <time>2024-05-20T08:11:43.000Z</time>
      </trkpt>
      <trkpt lat="46.5002" lon="4.67942">
        <ele>219.60000610352</ele>
        <time>2024-05-20T08:11:44.000Z</time>
      </trkpt>
      <trkpt lat="46.50014" lon="4.67944">
        <ele>219.60000610352</ele>
        <time>2024-05-20T08:11:45.000Z</time>
      </trkpt>
      <trkpt lat="46.50007" lon="4.67946">
        <ele>219.60000610352</ele>
        <time>2024-05-20T08:11:46.000Z</time>
      </trkpt>
      <trkpt lat="46.50001" lon="4.67948">
        <ele>219.60000610352</ele>
        <time>2024-05-20T08:11:47.000Z</time>
      </trkpt>
      <trkpt lat="46.49994" lon="4.6795">
        <ele>219.60000610352</ele>
        <time>2024-05-20T08:11:48.000Z</time>
      </trkpt>
      <trkpt lat="46.49987" lon="4.67952">
        <ele>219.60000610352</ele>
        <time>2024-05-20T08:11:49.000Z</time>
      </trkpt>
      <trkpt lat="46.49981" lon="4.67953">
        <ele>219.60000610352</ele>
        <time>2024-05-20T08:11:50.000Z</time>
      </trkpt>
      <trkpt lat="46.49975" lon="4.67955">
        <ele>219.60000610352</ele>
        <time>2024-05-20T08:11:51.000Z</time>
      </trkpt>
      <trkpt lat="46.49968" lon="4.67957">
        <ele>219.80000305176</ele>
        <time>2024-05-20T08:11:52.000Z</time>
      </trkpt>
      <trkpt lat="46.49962" lon="4.67958">
        <ele>219.80000305176</ele>
        <time>2024-05-20T08:11:53.000Z</time>
      </trkpt>
      <trkpt lat="46.49956" lon="4.67961">
        <ele>219.80000305176</ele>
        <time>2024-05-20T08:11:54.000Z</time>
      </trkpt>
      <trkpt lat="46.4995" lon="4.67965">
        <ele>219.80000305176</ele>
        <time>2024-05-20T08:11:55.000Z</time>
      </trkpt>
      <trkpt lat="46.49944" lon="4.67967">
        <ele>219.80000305176</ele>
        <time>2024-05-20T08:11:56.000Z</time>
      </trkpt>
      <trkpt lat="46.49937" lon="4.67969">
        <ele>219.80000305176</ele>
        <time>2024-05-20T08:11:57.000Z</time>
      </trkpt>
      <trkpt lat="46.49931" lon="4.67971">
        <ele>219.80000305176</ele>
        <time>2024-05-20T08:11:58.000Z</time>
      </trkpt>
      <trkpt lat="46.49925" lon="4.67973">
        <ele>219.80000305176</ele>
        <time>2024-05-20T08:11:59.000Z</time>
      </trkpt>
      <trkpt lat="46.49919" lon="4.67975">
        <ele>219.80000305176</ele>
        <time>2024-05-20T08:12:00.000Z</time>
      </trkpt>
      <trkpt lat="46.49912" lon="4.67977">
        <ele>219.80000305176</ele>
        <time>2024-05-20T08:12:01.000Z</time>
      </trkpt>
      <trkpt lat="46.49906" lon="4.67979">
        <ele>219.60000610352</ele>
        <time>2024-05-20T08:12:02.000Z</time>
      </trkpt>
      <trkpt lat="46.499" lon="4.67981">
        <ele>219.80000305176</ele>
        <time>2024-05-20T08:12:03.000Z</time>
      </trkpt>
      <trkpt lat="46.49894" lon="4.67983">
        <ele>219.80000305176</ele>
        <time>2024-05-20T08:12:04.000Z</time>
      </trkpt>
      <trkpt lat="46.49888" lon="4.67986">
        <ele>219.60000610352</ele>
        <time>2024-05-20T08:12:05.000Z</time>
      </trkpt>
      <trkpt lat="46.49882" lon="4.67988">
        <ele>219.60000610352</ele>
        <time>2024-05-20T08:12:06.000Z</time>
      </trkpt>
      <trkpt lat="46.49876" lon="4.6799">
        <ele>219.80000305176</ele>
        <time>2024-05-20T08:12:07.000Z</time>
      </trkpt>
      <trkpt lat="46.4987" lon="4.67992">
        <ele>219.80000305176</ele>
        <time>2024-05-20T08:12:08.000Z</time>
      </trkpt>
      <trkpt lat="46.49864" lon="4.67994">
        <ele>219.80000305176</ele>
        <time>2024-05-20T08:12:09.000Z</time>
      </trkpt>
      <trkpt lat="46.49858" lon="4.67996">
        <ele>219.80000305176</ele>
        <time>2024-05-20T08:12:10.000Z</time>
      </trkpt>
      <trkpt lat="46.49853" lon="4.67997">
        <ele>220</ele>
        <time>2024-05-20T08:12:11.000Z</time>
      </trkpt>
      <trkpt lat="46.49847" lon="4.67999">
        <ele>220.19999694824</ele>
        <time>2024-05-20T08:12:12.000Z</time>
      </trkpt>
      <trkpt lat="46.49841" lon="4.68001">
        <ele>220.19999694824</ele>
        <time>2024-05-20T08:12:13.000Z</time>
      </trkpt>
      <trkpt lat="46.49835" lon="4.68003">
        <ele>220.19999694824</ele>
        <time>2024-05-20T08:12:14.000Z</time>
      </trkpt>
      <trkpt lat="46.49829" lon="4.68005">
        <ele>220.19999694824</ele>
        <time>2024-05-20T08:12:15.000Z</time>
      </trkpt>
      <trkpt lat="46.49824" lon="4.68008">
        <ele>220.19999694824</ele>
        <time>2024-05-20T08:12:16.000Z</time>
      </trkpt>
      <trkpt lat="46.49818" lon="4.6801">
        <ele>220.19999694824</ele>
        <time>2024-05-20T08:12:17.000Z</time>
      </trkpt>
      <trkpt lat="46.49812" lon="4.68012">
        <ele>220.19999694824</ele>
        <time>2024-05-20T08:12:18.000Z</time>
      </trkpt>
      <trkpt lat="46.49806" lon="4.68014">
        <ele>220.19999694824</ele>
        <time>2024-05-20T08:12:19.000Z</time>
      </trkpt>
      <trkpt lat="46.49801" lon="4.68016">
        <ele>220.19999694824</ele>
        <time>2024-05-20T08:12:20.000Z</time>
      </trkpt>
      <trkpt lat="46.49795" lon="4.68017">
        <ele>220.19999694824</ele>
        <time>2024-05-20T08:12:21.000Z</time>
      </trkpt>
      <trkpt lat="46.4979" lon="4.68019">
        <ele>220.19999694824</ele>
        <time>2024-05-20T08:12:22.000Z</time>
      </trkpt>
      <trkpt lat="46.49785" lon="4.68021">
        <ele>220.19999694824</ele>
        <time>2024-05-20T08:12:23.000Z</time>
      </trkpt>
      <trkpt lat="46.4978" lon="4.68022">
        <ele>220.39999389648</ele>
        <time>2024-05-20T08:12:24.000Z</time>
      </trkpt>
      <trkpt lat="46.49775" lon="4.68024">
        <ele>220.39999389648</ele>
        <time>2024-05-20T08:12:25.000Z</time>
      </trkpt>
      <trkpt lat="46.4977" lon="4.68026">
        <ele>220.39999389648</ele>
        <time>2024-05-20T08:12:26.000Z</time>
      </trkpt>
      <trkpt lat="46.49764" lon="4.68027">
        <ele>220.39999389648</ele>
        <time>2024-05-20T08:12:27.000Z</time>
      </trkpt>
      <trkpt lat="46.49759" lon="4.68029">
        <ele>220.39999389648</ele>
        <time>2024-05-20T08:12:28.000Z</time>
      </trkpt>
      <trkpt lat="46.49754" lon="4.68031">
        <ele>220.60000610352</ele>
        <time>2024-05-20T08:12:29.000Z</time>
      </trkpt>
      <trkpt lat="46.49749" lon="4.68033">
        <ele>220.60000610352</ele>
        <time>2024-05-20T08:12:30.000Z</time>
      </trkpt>
      <trkpt lat="46.49744" lon="4.68035">
        <ele>220.60000610352</ele>
        <time>2024-05-20T08:12:31.000Z</time>
      </trkpt>
      <trkpt lat="46.49738" lon="4.68037">
        <ele>220.80000305176</ele>
        <time>2024-05-20T08:12:32.000Z</time>
      </trkpt>
      <trkpt lat="46.49733" lon="4.68038">
        <ele>220.80000305176</ele>
        <time>2024-05-20T08:12:33.000Z</time>
      </trkpt>
      <trkpt lat="46.49727" lon="4.68039">
        <ele>220.80000305176</ele>
        <time>2024-05-20T08:12:34.000Z</time>
      </trkpt>
      <trkpt lat="46.49722" lon="4.6804">
        <ele>220.80000305176</ele>
        <time>2024-05-20T08:12:35.000Z</time>
      </trkpt>
      <trkpt lat="46.49717" lon="4.68042">
        <ele>220.80000305176</ele>
        <time>2024-05-20T08:12:36.000Z</time>
      </trkpt>
      <trkpt lat="46.49712" lon="4.68044">
        <ele>220.80000305176</ele>
        <time>2024-05-20T08:12:37.000Z</time>
      </trkpt>
      <trkpt lat="46.49706" lon="4.68046">
        <ele>220.80000305176</ele>
        <time>2024-05-20T08:12:38.000Z</time>
      </trkpt>
      <trkpt lat="46.49701" lon="4.68048">
        <ele>221</ele>
        <time>2024-05-20T08:12:39.000Z</time>
      </trkpt>
      <trkpt lat="46.49695" lon="4.68051">
        <ele>221</ele>
        <time>2024-05-20T08:12:40.000Z</time>
      </trkpt>
      <trkpt lat="46.4969" lon="4.68052">
        <ele>221</ele>
        <time>2024-05-20T08:12:41.000Z</time>
      </trkpt>
      <trkpt lat="46.49684" lon="4.68054">
        <ele>221</ele>
        <time>2024-05-20T08:12:42.000Z</time>
      </trkpt>
      <trkpt lat="46.49679" lon="4.68057">
        <ele>221</ele>
        <time>2024-05-20T08:12:43.000Z</time>
      </trkpt>
      <trkpt lat="46.49673" lon="4.68059">
        <ele>221</ele>
        <time>2024-05-20T08:12:44.000Z</time>
      </trkpt>
      <trkpt lat="46.49667" lon="4.68061">
        <ele>221</ele>
        <time>2024-05-20T08:12:45.000Z</time>
      </trkpt>
      <trkpt lat="46.49662" lon="4.68063">
        <ele>221.19999694824</ele>
        <time>2024-05-20T08:12:46.000Z</time>
      </trkpt>
      <trkpt lat="46.49657" lon="4.68065">
        <ele>221.19999694824</ele>
        <time>2024-05-20T08:12:47.000Z</time>
      </trkpt>
      <trkpt lat="46.49651" lon="4.68068">
        <ele>221.19999694824</ele>
        <time>2024-05-20T08:12:48.000Z</time>
      </trkpt>
      <trkpt lat="46.49646" lon="4.6807">
        <ele>221.19999694824</ele>
        <time>2024-05-20T08:12:49.000Z</time>
      </trkpt>
      <trkpt lat="46.49641" lon="4.68073">
        <ele>221.19999694824</ele>
        <time>2024-05-20T08:12:50.000Z</time>
      </trkpt>
      <trkpt lat="46.49636" lon="4.68075">
        <ele>221.19999694824</ele>
        <time>2024-05-20T08:12:51.000Z</time>
      </trkpt>
      <trkpt lat="46.4963" lon="4.68077">
        <ele>221.39999389648</ele>
        <time>2024-05-20T08:12:52.000Z</time>
      </trkpt>
      <trkpt lat="46.49624" lon="4.68079">
        <ele>221.39999389648</ele>
        <time>2024-05-20T08:12:53.000Z</time>
      </trkpt>
      <trkpt lat="46.49618" lon="4.6808">
        <ele>221.39999389648</ele>
        <time>2024-05-20T08:12:54.000Z</time>
      </trkpt>
      <trkpt lat="46.49611" lon="4.68082">
        <ele>221.39999389648</ele>
        <time>2024-05-20T08:12:55.000Z</time>
      </trkpt>
      <trkpt lat="46.49605" lon="4.68084">
        <ele>221.39999389648</ele>
        <time>2024-05-20T08:12:56.000Z</time>
      </trkpt>
      <trkpt lat="46.49599" lon="4.68085">
        <ele>221.39999389648</ele>
        <time>2024-05-20T08:12:57.000Z</time>
      </trkpt>
      <trkpt lat="46.49593" lon="4.68087">
        <ele>221.60000610352</ele>
        <time>2024-05-20T08:12:58.000Z</time>
      </trkpt>
      <trkpt lat="46.49586" lon="4.68089">
        <ele>221.39999389648</ele>
        <time>2024-05-20T08:12:59.000Z</time>
      </trkpt>
      <trkpt lat="46.4958" lon="4.68091">
        <ele>221.60000610352</ele>
        <time>2024-05-20T08:13:00.000Z</time>
      </trkpt>
      <trkpt lat="46.49574" lon="4.68093">
        <ele>221.60000610352</ele>
        <time>2024-05-20T08:13:01.000Z</time>
      </trkpt>
      <trkpt lat="46.49568" lon="4.68096">
        <ele>221.60000610352</ele>
        <time>2024-05-20T08:13:02.000Z</time>
      </trkpt>
      <trkpt lat="46.49561" lon="4.68098">
        <ele>221.60000610352</ele>
        <time>2024-05-20T08:13:03.000Z</time>
      </trkpt>
      <trkpt lat="46.49555" lon="4.681">
        <ele>221.80000305176</ele>
        <time>2024-05-20T08:13:04.000Z</time>
      </trkpt>
      <trkpt lat="46.49549" lon="4.68102">
        <ele>221.80000305176</ele>
        <time>2024-05-20T08:13:05.000Z</time>
      </trkpt>
      <trkpt lat="46.49542" lon="4.68104">
        <ele>221.80000305176</ele>
        <time>2024-05-20T08:13:06.000Z</time>
      </trkpt>
      <trkpt lat="46.49536" lon="4.68107">
        <ele>222</ele>
        <time>2024-05-20T08:13:07.000Z</time>
      </trkpt>
      <trkpt lat="46.49529" lon="4.68108">
        <ele>222</ele>
        <time>2024-05-20T08:13:08.000Z</time>
      </trkpt>
      <trkpt lat="46.49523" lon="4.6811">
        <ele>222</ele>
        <time>2024-05-20T08:13:09.000Z</time>
      </trkpt>
      <trkpt lat="46.49517" lon="4.68113">
        <ele>222</ele>
        <time>2024-05-20T08:13:10.000Z</time>
      </trkpt>
      <trkpt lat="46.4951" lon="4.68115">
        <ele>222</ele>
        <time>2024-05-20T08:13:11.000Z</time>
      </trkpt>
      <trkpt lat="46.49505" lon="4.68117">
        <ele>222</ele>
        <time>2024-05-20T08:13:12.000Z</time>
      </trkpt>
      <trkpt lat="46.49499" lon="4.68119">
        <ele>222</ele>
        <time>2024-05-20T08:13:13.000Z</time>
      </trkpt>
      <trkpt lat="46.49493" lon="4.68121">
        <ele>222</ele>
        <time>2024-05-20T08:13:14.000Z</time>
      </trkpt>
      <trkpt lat="46.49487" lon="4.68123">
        <ele>222</ele>
        <time>2024-05-20T08:13:15.000Z</time>
      </trkpt>
      <trkpt lat="46.49481" lon="4.68125">
        <ele>222.19999694824</ele>
        <time>2024-05-20T08:13:16.000Z</time>
      </trkpt>
      <trkpt lat="46.49475" lon="4.68127">
        <ele>222.19999694824</ele>
        <time>2024-05-20T08:13:17.000Z</time>
      </trkpt>
      <trkpt lat="46.49468" lon="4.68129">
        <ele>222.19999694824</ele>
        <time>2024-05-20T08:13:18.000Z</time>
      </trkpt>
      <trkpt lat="46.49462" lon="4.68131">
        <ele>222.19999694824</ele>
        <time>2024-05-20T08:13:19.000Z</time>
      </trkpt>
      <trkpt lat="46.49456" lon="4.68133">
        <ele>222.19999694824</ele>
        <time>2024-05-20T08:13:20.000Z</time>
      </trkpt>
      <trkpt lat="46.4945" lon="4.68135">
        <ele>222.19999694824</ele>
        <time>2024-05-20T08:13:21.000Z</time>
      </trkpt>
      <trkpt lat="46.49445" lon="4.68137">
        <ele>222.19999694824</ele>
        <time>2024-05-20T08:13:22.000Z</time>
      </trkpt>
      <trkpt lat="46.49439" lon="4.68139">
        <ele>222.19999694824</ele>
        <time>2024-05-20T08:13:23.000Z</time>
      </trkpt>
      <trkpt lat="46.49433" lon="4.68142">
        <ele>222.19999694824</ele>
        <time>2024-05-20T08:13:24.000Z</time>
      </trkpt>
      <trkpt lat="46.49427" lon="4.68144">
        <ele>222.39999389648</ele>
        <time>2024-05-20T08:13:25.000Z</time>
      </trkpt>
      <trkpt lat="46.49422" lon="4.68147">
        <ele>222.39999389648</ele>
        <time>2024-05-20T08:13:26.000Z</time>
      </trkpt>
      <trkpt lat="46.49416" lon="4.68148">
        <ele>222.39999389648</ele>
        <time>2024-05-20T08:13:27.000Z</time>
      </trkpt>
      <trkpt lat="46.4941" lon="4.68151">
        <ele>222.60000610352</ele>
        <time>2024-05-20T08:13:28.000Z</time>
      </trkpt>
      <trkpt lat="46.49405" lon="4.68153">
        <ele>222.60000610352</ele>
        <time>2024-05-20T08:13:29.000Z</time>
      </trkpt>
      <trkpt lat="46.49399" lon="4.68155">
        <ele>222.60000610352</ele>
        <time>2024-05-20T08:13:30.000Z</time>
      </trkpt>
      <trkpt lat="46.49393" lon="4.68158">
        <ele>222.60000610352</ele>
        <time>2024-05-20T08:13:31.000Z</time>
      </trkpt>
      <trkpt lat="46.49387" lon="4.68159">
        <ele>222.80000305176</ele>
        <time>2024-05-20T08:13:32.000Z</time>
      </trkpt>
      <trkpt lat="46.49382" lon="4.68162">
        <ele>222.80000305176</ele>
        <time>2024-05-20T08:13:33.000Z</time>
      </trkpt>
      <trkpt lat="46.49376" lon="4.68164">
        <ele>222.80000305176</ele>
        <time>2024-05-20T08:13:34.000Z</time>
      </trkpt>
      <trkpt lat="46.4937" lon="4.68167">
        <ele>222.80000305176</ele>
        <time>2024-05-20T08:13:35.000Z</time>
      </trkpt>
      <trkpt lat="46.49364" lon="4.68169">
        <ele>222.80000305176</ele>
        <time>2024-05-20T08:13:36.000Z</time>
      </trkpt>
      <trkpt lat="46.49359" lon="4.68171">
        <ele>222.80000305176</ele>
        <time>2024-05-20T08:13:37.000Z</time>
      </trkpt>
      <trkpt lat="46.49353" lon="4.68173">
        <ele>222.80000305176</ele>
        <time>2024-05-20T08:13:38.000Z</time>
      </trkpt>
      <trkpt lat="46.49347" lon="4.68175">
        <ele>222.80000305176</ele>
        <time>2024-05-20T08:13:39.000Z</time>
      </trkpt>
      <trkpt lat="46.49342" lon="4.68177">
        <ele>222.60000610352</ele>
        <time>2024-05-20T08:13:40.000Z</time>
      </trkpt>
      <trkpt lat="46.49336" lon="4.68179">
        <ele>222.60000610352</ele>
        <time>2024-05-20T08:13:41.000Z</time>
      </trkpt>
      <trkpt lat="46.49331" lon="4.68181">
        <ele>222.60000610352</ele>
        <time>2024-05-20T08:13:42.000Z</time>
      </trkpt>
      <trkpt lat="46.49325" lon="4.68183">
        <ele>222.60000610352</ele>
        <time>2024-05-20T08:13:43.000Z</time>
      </trkpt>
      <trkpt lat="46.4932" lon="4.68185">
        <ele>222.60000610352</ele>
        <time>2024-05-20T08:13:44.000Z</time>
      </trkpt>
      <trkpt lat="46.49315" lon="4.68187">
        <ele>222.60000610352</ele>
        <time>2024-05-20T08:13:45.000Z</time>
      </trkpt>
      <trkpt lat="46.4931" lon="4.68189">
        <ele>222.60000610352</ele>
        <time>2024-05-20T08:13:46.000Z</time>
      </trkpt>
      <trkpt lat="46.49305" lon="4.68191">
        <ele>222.60000610352</ele>
        <time>2024-05-20T08:13:47.000Z</time>
      </trkpt>
      <trkpt lat="46.49301" lon="4.68191">
        <ele>222.80000305176</ele>
        <time>2024-05-20T08:13:48.000Z</time>
      </trkpt>
      <trkpt lat="46.49297" lon="4.68192">
        <ele>222.80000305176</ele>
        <time>2024-05-20T08:13:49.000Z</time>
      </trkpt>
      <trkpt lat="46.49293" lon="4.68193">
        <ele>222.80000305176</ele>
        <time>2024-05-20T08:13:50.000Z</time>
      </trkpt>
      <trkpt lat="46.49289" lon="4.68194">
        <ele>222.80000305176</ele>
        <time>2024-05-20T08:13:51.000Z</time>
      </trkpt>
      <trkpt lat="46.49285" lon="4.68195">
        <ele>223</ele>
        <time>2024-05-20T08:13:52.000Z</time>
      </trkpt>
      <trkpt lat="46.49281" lon="4.68197">
        <ele>223</ele>
        <time>2024-05-20T08:13:53.000Z</time>
      </trkpt>
      <trkpt lat="46.49277" lon="4.68198">
        <ele>223</ele>
        <time>2024-05-20T08:13:54.000Z</time>
      </trkpt>
      <trkpt lat="46.49272" lon="4.682">
        <ele>223</ele>
        <time>2024-05-20T08:13:55.000Z</time>
      </trkpt>
      <trkpt lat="46.49267" lon="4.68201">
        <ele>223</ele>
        <time>2024-05-20T08:13:56.000Z</time>
      </trkpt>
      <trkpt lat="46.49262" lon="4.68202">
        <ele>223</ele>
        <time>2024-05-20T08:13:57.000Z</time>
      </trkpt>
      <trkpt lat="46.49257" lon="4.68204">
        <ele>223</ele>
        <time>2024-05-20T08:13:58.000Z</time>
      </trkpt>
      <trkpt lat="46.49252" lon="4.68205">
        <ele>223</ele>
        <time>2024-05-20T08:13:59.000Z</time>
      </trkpt>
      <trkpt lat="46.49247" lon="4.68206">
        <ele>223</ele>
        <time>2024-05-20T08:14:00.000Z</time>
      </trkpt>
      <trkpt lat="46.49241" lon="4.68208">
        <ele>223</ele>
        <time>2024-05-20T08:14:01.000Z</time>
      </trkpt>
      <trkpt lat="46.49236" lon="4.6821">
        <ele>223</ele>
        <time>2024-05-20T08:14:02.000Z</time>
      </trkpt>
      <trkpt lat="46.4923" lon="4.68211">
        <ele>223</ele>
        <time>2024-05-20T08:14:03.000Z</time>
      </trkpt>
      <trkpt lat="46.49225" lon="4.68213">
        <ele>223</ele>
        <time>2024-05-20T08:14:04.000Z</time>
      </trkpt>
      <trkpt lat="46.49219" lon="4.68216">
        <ele>223</ele>
        <time>2024-05-20T08:14:05.000Z</time>
      </trkpt>
      <trkpt lat="46.49213" lon="4.68218">
        <ele>223</ele>
        <time>2024-05-20T08:14:06.000Z</time>
      </trkpt>
      <trkpt lat="46.49207" lon="4.6822">
        <ele>223</ele>
        <time>2024-05-20T08:14:07.000Z</time>
      </trkpt>
      <trkpt lat="46.49202" lon="4.68222">
        <ele>223</ele>
        <time>2024-05-20T08:14:08.000Z</time>
      </trkpt>
      <trkpt lat="46.49196" lon="4.68223">
        <ele>223</ele>
        <time>2024-05-20T08:14:09.000Z</time>
      </trkpt>
      <trkpt lat="46.4919" lon="4.68225">
        <ele>223</ele>
        <time>2024-05-20T08:14:10.000Z</time>
      </trkpt>
      <trkpt lat="46.49184" lon="4.68227">
        <ele>223</ele>
        <time>2024-05-20T08:14:11.000Z</time>
      </trkpt>
      <trkpt lat="46.49178" lon="4.68229">
        <ele>223.19999694824</ele>
        <time>2024-05-20T08:14:12.000Z</time>
      </trkpt>
      <trkpt lat="46.49172" lon="4.68231">
        <ele>223.19999694824</ele>
        <time>2024-05-20T08:14:13.000Z</time>
      </trkpt>
      <trkpt lat="46.49166" lon="4.68233">
        <ele>223.19999694824</ele>
        <time>2024-05-20T08:14:14.000Z</time>
      </trkpt>
      <trkpt lat="46.4916" lon="4.68235">
        <ele>223.19999694824</ele>
        <time>2024-05-20T08:14:15.000Z</time>
      </trkpt>
      <trkpt lat="46.49154" lon="4.68237">
        <ele>223.19999694824</ele>
        <time>2024-05-20T08:14:16.000Z</time>
      </trkpt>
      <trkpt lat="46.49148" lon="4.68239">
        <ele>223.19999694824</ele>
        <time>2024-05-20T08:14:17.000Z</time>
      </trkpt>
      <trkpt lat="46.49142" lon="4.68241">
        <ele>223.19999694824</ele>
        <time>2024-05-20T08:14:18.000Z</time>
      </trkpt>
      <trkpt lat="46.49136" lon="4.68243">
        <ele>223.19999694824</ele>
        <time>2024-05-20T08:14:19.000Z</time>
      </trkpt>
      <trkpt lat="46.4913" lon="4.68246">
        <ele>223.19999694824</ele>
        <time>2024-05-20T08:14:20.000Z</time>
      </trkpt>
      <trkpt lat="46.49124" lon="4.68247">
        <ele>223</ele>
        <time>2024-05-20T08:14:21.000Z</time>
      </trkpt>
      <trkpt lat="46.49117" lon="4.68249">
        <ele>223</ele>
        <time>2024-05-20T08:14:22.000Z</time>
      </trkpt>
      <trkpt lat="46.49111" lon="4.68251">
        <ele>223</ele>
        <time>2024-05-20T08:14:23.000Z</time>
      </trkpt>
      <trkpt lat="46.49105" lon="4.68253">
        <ele>223</ele>
        <time>2024-05-20T08:14:24.000Z</time>
      </trkpt>
      <trkpt lat="46.49098" lon="4.68255">
        <ele>223</ele>
        <time>2024-05-20T08:14:25.000Z</time>
      </trkpt>
      <trkpt lat="46.49092" lon="4.68257">
        <ele>223</ele>
        <time>2024-05-20T08:14:26.000Z</time>
      </trkpt>
      <trkpt lat="46.49086" lon="4.6826">
        <ele>223</ele>
        <time>2024-05-20T08:14:27.000Z</time>
      </trkpt>
      <trkpt lat="46.49079" lon="4.68262">
        <ele>223</ele>
        <time>2024-05-20T08:14:28.000Z</time>
      </trkpt>
      <trkpt lat="46.49073" lon="4.68264">
        <ele>223</ele>
        <time>2024-05-20T08:14:29.000Z</time>
      </trkpt>
      <trkpt lat="46.49067" lon="4.68266">
        <ele>223</ele>
        <time>2024-05-20T08:14:30.000Z</time>
      </trkpt>
      <trkpt lat="46.49061" lon="4.68268">
        <ele>223</ele>
        <time>2024-05-20T08:14:31.000Z</time>
      </trkpt>
      <trkpt lat="46.49055" lon="4.6827">
        <ele>223</ele>
        <time>2024-05-20T08:14:32.000Z</time>
      </trkpt>
      <trkpt lat="46.49049" lon="4.68272">
        <ele>223</ele>
        <time>2024-05-20T08:14:33.000Z</time>
      </trkpt>
      <trkpt lat="46.49043" lon="4.68274">
        <ele>223.19999694824</ele>
        <time>2024-05-20T08:14:34.000Z</time>
      </trkpt>
      <trkpt lat="46.49037" lon="4.68276">
        <ele>223.19999694824</ele>
        <time>2024-05-20T08:14:35.000Z</time>
      </trkpt>
      <trkpt lat="46.49031" lon="4.68278">
        <ele>223.39999389648</ele>
        <time>2024-05-20T08:14:36.000Z</time>
      </trkpt>
      <trkpt lat="46.49025" lon="4.6828">
        <ele>223.39999389648</ele>
        <time>2024-05-20T08:14:37.000Z</time>
      </trkpt>
      <trkpt lat="46.49018" lon="4.68282">
        <ele>223.39999389648</ele>
        <time>2024-05-20T08:14:38.000Z</time>
      </trkpt>
      <trkpt lat="46.49012" lon="4.68284">
        <ele>223.60000610352</ele>
        <time>2024-05-20T08:14:39.000Z</time>
      </trkpt>
      <trkpt lat="46.49006" lon="4.68286">
        <ele>223.60000610352</ele>
        <time>2024-05-20T08:14:40.000Z</time>
      </trkpt>
      <trkpt lat="46.49" lon="4.68288">
        <ele>223.80000305176</ele>
        <time>2024-05-20T08:14:41.000Z</time>
      </trkpt>
      <trkpt lat="46.48994" lon="4.6829">
        <ele>223.80000305176</ele>
        <time>2024-05-20T08:14:42.000Z</time>
      </trkpt>
      <trkpt lat="46.48988" lon="4.68292">
        <ele>223.80000305176</ele>
        <time>2024-05-20T08:14:43.000Z</time>
      </trkpt>
      <trkpt lat="46.48981" lon="4.68295">
        <ele>223.80000305176</ele>
        <time>2024-05-20T08:14:44.000Z</time>
      </trkpt>
      <trkpt lat="46.48975" lon="4.68297">
        <ele>223.80000305176</ele>
        <time>2024-05-20T08:14:45.000Z</time>
      </trkpt>
      <trkpt lat="46.48969" lon="4.68299">
        <ele>223.80000305176</ele>
        <time>2024-05-20T08:14:46.000Z</time>
      </trkpt>
      <trkpt lat="46.48963" lon="4.68301">
        <ele>223.80000305176</ele>
        <time>2024-05-20T08:14:47.000Z</time>
      </trkpt>
      <trkpt lat="46.48957" lon="4.68303">
        <ele>223.80000305176</ele>
        <time>2024-05-20T08:14:48.000Z</time>
      </trkpt>
      <trkpt lat="46.48951" lon="4.68304">
        <ele>223.80000305176</ele>
        <time>2024-05-20T08:14:49.000Z</time>
      </trkpt>
      <trkpt lat="46.48944" lon="4.68306">
        <ele>223.80000305176</ele>
        <time>2024-05-20T08:14:50.000Z</time>
      </trkpt>
      <trkpt lat="46.48938" lon="4.68308">
        <ele>223.80000305176</ele>
        <time>2024-05-20T08:14:51.000Z</time>
      </trkpt>
      <trkpt lat="46.48932" lon="4.68309">
        <ele>223.60000610352</ele>
        <time>2024-05-20T08:14:52.000Z</time>
      </trkpt>
      <trkpt lat="46.48925" lon="4.68311">
        <ele>223.60000610352</ele>
        <time>2024-05-20T08:14:53.000Z</time>
      </trkpt>
      <trkpt lat="46.48919" lon="4.68313">
        <ele>223.60000610352</ele>
        <time>2024-05-20T08:14:54.000Z</time>
      </trkpt>
      <trkpt lat="46.48913" lon="4.68315">
        <ele>223.60000610352</ele>
        <time>2024-05-20T08:14:55.000Z</time>
      </trkpt>
      <trkpt lat="46.48907" lon="4.68317">
        <ele>223.60000610352</ele>
        <time>2024-05-20T08:14:56.000Z</time>
      </trkpt>
      <trkpt lat="46.48901" lon="4.68319">
        <ele>223.60000610352</ele>
        <time>2024-05-20T08:14:57.000Z</time>
      </trkpt>
      <trkpt lat="46.48895" lon="4.6832">
        <ele>223.60000610352</ele>
        <time>2024-05-20T08:14:58.000Z</time>
      </trkpt>
      <trkpt lat="46.48889" lon="4.68322">
        <ele>223.60000610352</ele>
        <time>2024-05-20T08:14:59.000Z</time>
      </trkpt>
      <trkpt lat="46.48882" lon="4.68324">
        <ele>223.60000610352</ele>
        <time>2024-05-20T08:15:00.000Z</time>
      </trkpt>
      <trkpt lat="46.48876" lon="4.68325">
        <ele>223.60000610352</ele>
        <time>2024-05-20T08:15:01.000Z</time>
      </trkpt>
      <trkpt lat="46.4887" lon="4.68327">
        <ele>223.60000610352</ele>
        <time>2024-05-20T08:15:02.000Z</time>
      </trkpt>
      <trkpt lat="46.48864" lon="4.68328">
        <ele>223.80000305176</ele>
        <time>2024-05-20T08:15:03.000Z</time>
      </trkpt>
      <trkpt lat="46.48858" lon="4.68329">
        <ele>223.80000305176</ele>
        <time>2024-05-20T08:15:04.000Z</time>
      </trkpt>
      <trkpt lat="46.48852" lon="4.6833">
        <ele>223.80000305176</ele>
        <time>2024-05-20T08:15:05.000Z</time>
      </trkpt>
      <trkpt lat="46.48845" lon="4.68332">
        <ele>223.80000305176</ele>
        <time>2024-05-20T08:15:06.000Z</time>
      </trkpt>
      <trkpt lat="46.48839" lon="4.68333">
        <ele>223.80000305176</ele>
        <time>2024-05-20T08:15:07.000Z</time>
      </trkpt>
      <trkpt lat="46.48833" lon="4.68334">
        <ele>223.80000305176</ele>
        <time>2024-05-20T08:15:08.000Z</time>
      </trkpt>
      <trkpt lat="46.48827" lon="4.68335">
        <ele>223.80000305176</ele>
        <time>2024-05-20T08:15:09.000Z</time>
      </trkpt>
      <trkpt lat="46.4882" lon="4.68336">
        <ele>223.80000305176</ele>
        <time>2024-05-20T08:15:10.000Z</time>
      </trkpt>
      <trkpt lat="46.48814" lon="4.68337">
        <ele>223.80000305176</ele>
        <time>2024-05-20T08:15:11.000Z</time>
      </trkpt>
      <trkpt lat="46.48808" lon="4.68338">
        <ele>224</ele>
        <time>2024-05-20T08:15:12.000Z</time>
      </trkpt>
      <trkpt lat="46.48801" lon="4.68338">
        <ele>224</ele>
        <time>2024-05-20T08:15:13.000Z</time>
      </trkpt>
      <trkpt lat="46.48795" lon="4.68339">
        <ele>224.19999694824</ele>
        <time>2024-05-20T08:15:14.000Z</time>
      </trkpt>
      <trkpt lat="46.48789" lon="4.68339">
        <ele>224.19999694824</ele>
        <time>2024-05-20T08:15:15.000Z</time>
      </trkpt>
      <trkpt lat="46.48783" lon="4.68339">
        <ele>224.19999694824</ele>
        <time>2024-05-20T08:15:16.000Z</time>
      </trkpt>
      <trkpt lat="46.48777" lon="4.6834">
        <ele>224.39999389648</ele>
        <time>2024-05-20T08:15:17.000Z</time>
      </trkpt>
      <trkpt lat="46.4877" lon="4.6834">
        <ele>224.39999389648</ele>
        <time>2024-05-20T08:15:18.000Z</time>
      </trkpt>
      <trkpt lat="46.48764" lon="4.68341">
        <ele>224.39999389648</ele>
        <time>2024-05-20T08:15:19.000Z</time>
      </trkpt>
      <trkpt lat="46.48758" lon="4.68341">
        <ele>224.39999389648</ele>
        <time>2024-05-20T08:15:20.000Z</time>
      </trkpt>
      <trkpt lat="46.48752" lon="4.6834">
        <ele>224.39999389648</ele>
        <time>2024-05-20T08:15:21.000Z</time>
      </trkpt>
      <trkpt lat="46.48746" lon="4.6834">
        <ele>224.60000610352</ele>
        <time>2024-05-20T08:15:22.000Z</time>
      </trkpt>
      <trkpt lat="46.48741" lon="4.68339">
        <ele>224.60000610352</ele>
        <time>2024-05-20T08:15:23.000Z</time>
      </trkpt>
      <trkpt lat="46.48735" lon="4.68339">
        <ele>224.60000610352</ele>
        <time>2024-05-20T08:15:24.000Z</time>
      </trkpt>
      <trkpt lat="46.48729" lon="4.68338">
        <ele>224.80000305176</ele>
        <time>2024-05-20T08:15:25.000Z</time>
      </trkpt>
      <trkpt lat="46.48724" lon="4.68338">
        <ele>224.80000305176</ele>
        <time>2024-05-20T08:15:26.000Z</time>
      </trkpt>
      <trkpt lat="46.48718" lon="4.68337">
        <ele>224.80000305176</ele>
        <time>2024-05-20T08:15:27.000Z</time>
      </trkpt>
      <trkpt lat="46.48712" lon="4.68337">
        <ele>224.80000305176</ele>
        <time>2024-05-20T08:15:28.000Z</time>
      </trkpt>
      <trkpt lat="46.48706" lon="4.68337">
        <ele>224.80000305176</ele>
        <time>2024-05-20T08:15:29.000Z</time>
      </trkpt>
      <trkpt lat="46.487" lon="4.68337">
        <ele>224.80000305176</ele>
        <time>2024-05-20T08:15:30.000Z</time>
      </trkpt>
      <trkpt lat="46.48694" lon="4.68337">
        <ele>224.80000305176</ele>
        <time>2024-05-20T08:15:31.000Z</time>
      </trkpt>
      <trkpt lat="46.48689" lon="4.68336">
        <ele>224.80000305176</ele>
        <time>2024-05-20T08:15:32.000Z</time>
      </trkpt>
      <trkpt lat="46.48683" lon="4.68335">
        <ele>225</ele>
        <time>2024-05-20T08:15:33.000Z</time>
      </trkpt>
      <trkpt lat="46.48677" lon="4.68334">
        <ele>225</ele>
        <time>2024-05-20T08:15:34.000Z</time>
      </trkpt>
      <trkpt lat="46.48671" lon="4.68333">
        <ele>225.19999694824</ele>
        <time>2024-05-20T08:15:35.000Z</time>
      </trkpt>
      <trkpt lat="46.48665" lon="4.68332">
        <ele>225.19999694824</ele>
        <time>2024-05-20T08:15:36.000Z</time>
      </trkpt>
      <trkpt lat="46.48659" lon="4.68331">
        <ele>225.39999389648</ele>
        <time>2024-05-20T08:15:37.000Z</time>
      </trkpt>
      <trkpt lat="46.48652" lon="4.6833">
        <ele>225.39999389648</ele>
        <time>2024-05-20T08:15:38.000Z</time>
      </trkpt>
      <trkpt lat="46.48646" lon="4.68328">
        <ele>225.39999389648</ele>
        <time>2024-05-20T08:15:39.000Z</time>
      </trkpt>
      <trkpt lat="46.4864" lon="4.68326">
        <ele>225.60000610352</ele>
        <time>2024-05-20T08:15:40.000Z</time>
      </trkpt>
      <trkpt lat="46.48633" lon="4.68324">
        <ele>225.60000610352</ele>
        <time>2024-05-20T08:15:41.000Z</time>
      </trkpt>
      <trkpt lat="46.48627" lon="4.68322">
        <ele>225.60000610352</ele>
        <time>2024-05-20T08:15:42.000Z</time>
      </trkpt>
      <trkpt lat="46.4862" lon="4.68319">
        <ele>225.60000610352</ele>
        <time>2024-05-20T08:15:43.000Z</time>
      </trkpt>
      <trkpt lat="46.48614" lon="4.68317">
        <ele>225.80000305176</ele>
        <time>2024-05-20T08:15:44.000Z</time>
      </trkpt>
      <trkpt lat="46.48608" lon="4.68315">
        <ele>225.80000305176</ele>
        <time>2024-05-20T08:15:45.000Z</time>
      </trkpt>
      <trkpt lat="46.48601" lon="4.68313">
        <ele>225.80000305176</ele>
        <time>2024-05-20T08:15:46.000Z</time>
      </trkpt>
      <trkpt lat="46.48595" lon="4.6831">
        <ele>225.80000305176</ele>
        <time>2024-05-20T08:15:47.000Z</time>
      </trkpt>
      <trkpt lat="46.48588" lon="4.68308">
        <ele>225.80000305176</ele>
        <time>2024-05-20T08:15:48.000Z</time>
      </trkpt>
      <trkpt lat="46.48582" lon="4.68305">
        <ele>225.80000305176</ele>
        <time>2024-05-20T08:15:49.000Z</time>
      </trkpt>
      <trkpt lat="46.48575" lon="4.68303">
        <ele>225.80000305176</ele>
        <time>2024-05-20T08:15:50.000Z</time>
      </trkpt>
      <trkpt lat="46.48569" lon="4.68301">
        <ele>225.80000305176</ele>
        <time>2024-05-20T08:15:51.000Z</time>
      </trkpt>
      <trkpt lat="46.48563" lon="4.68299">
        <ele>225.80000305176</ele>
        <time>2024-05-20T08:15:52.000Z</time>
      </trkpt>
      <trkpt lat="46.48557" lon="4.68296">
        <ele>226</ele>
        <time>2024-05-20T08:15:53.000Z</time>
      </trkpt>
      <trkpt lat="46.48551" lon="4.68294">
        <ele>226</ele>
        <time>2024-05-20T08:15:54.000Z</time>
      </trkpt>
      <trkpt lat="46.48545" lon="4.68292">
        <ele>226</ele>
        <time>2024-05-20T08:15:55.000Z</time>
      </trkpt>
      <trkpt lat="46.48539" lon="4.68289">
        <ele>226</ele>
        <time>2024-05-20T08:15:56.000Z</time>
      </trkpt>
      <trkpt lat="46.48533" lon="4.68287">
        <ele>226.19999694824</ele>
        <time>2024-05-20T08:15:57.000Z</time>
      </trkpt>
      <trkpt lat="46.48526" lon="4.68285">
        <ele>226.19999694824</ele>
        <time>2024-05-20T08:15:58.000Z</time>
      </trkpt>
      <trkpt lat="46.48521" lon="4.68283">
        <ele>226.19999694824</ele>
        <time>2024-05-20T08:15:59.000Z</time>
      </trkpt>
      <trkpt lat="46.48515" lon="4.68281">
        <ele>226.19999694824</ele>
        <time>2024-05-20T08:16:00.000Z</time>
      </trkpt>
      <trkpt lat="46.48509" lon="4.6828">
        <ele>226.19999694824</ele>
        <time>2024-05-20T08:16:01.000Z</time>
      </trkpt>
      <trkpt lat="46.48502" lon="4.68278">
        <ele>226.39999389648</ele>
        <time>2024-05-20T08:16:02.000Z</time>
      </trkpt>
      <trkpt lat="46.48496" lon="4.68276">
        <ele>226.39999389648</ele>
        <time>2024-05-20T08:16:03.000Z</time>
      </trkpt>
      <trkpt lat="46.4849" lon="4.68273">
        <ele>226.39999389648</ele>
        <time>2024-05-20T08:16:04.000Z</time>
      </trkpt>
      <trkpt lat="46.48484" lon="4.68271">
        <ele>226.39999389648</ele>
        <time>2024-05-20T08:16:05.000Z</time>
      </trkpt>
      <trkpt lat="46.48478" lon="4.68268">
        <ele>226.39999389648</ele>
        <time>2024-05-20T08:16:06.000Z</time>
      </trkpt>
      <trkpt lat="46.48471" lon="4.68266">
        <ele>226.39999389648</ele>
        <time>2024-05-20T08:16:07.000Z</time>
      </trkpt>
      <trkpt lat="46.48465" lon="4.68263">
        <ele>226.60000610352</ele>
        <time>2024-05-20T08:16:08.000Z</time>
      </trkpt>
      <trkpt lat="46.48459" lon="4.68261">
        <ele>226.60000610352</ele>
        <time>2024-05-20T08:16:09.000Z</time>
      </trkpt>
      <trkpt lat="46.48452" lon="4.68259">
        <ele>226.60000610352</ele>
        <time>2024-05-20T08:16:10.000Z</time>
      </trkpt>
      <trkpt lat="46.48446" lon="4.68256">
        <ele>226.60000610352</ele>
        <time>2024-05-20T08:16:11.000Z</time>
      </trkpt>
      <trkpt lat="46.4844" lon="4.68254">
        <ele>226.60000610352</ele>
        <time>2024-05-20T08:16:12.000Z</time>
      </trkpt>
      <trkpt lat="46.48434" lon="4.68251">
        <ele>226.60000610352</ele>
        <time>2024-05-20T08:16:13.000Z</time>
      </trkpt>
      <trkpt lat="46.48427" lon="4.68249">
        <ele>226.80000305176</ele>
        <time>2024-05-20T08:16:14.000Z</time>
      </trkpt>
      <trkpt lat="46.4842" lon="4.68246">
        <ele>226.80000305176</ele>
        <time>2024-05-20T08:16:15.000Z</time>
      </trkpt>
      <trkpt lat="46.48414" lon="4.68243">
        <ele>226.80000305176</ele>
        <time>2024-05-20T08:16:16.000Z</time>
      </trkpt>
      <trkpt lat="46.48408" lon="4.6824">
        <ele>226.80000305176</ele>
        <time>2024-05-20T08:16:17.000Z</time>
      </trkpt>
      <trkpt lat="46.48401" lon="4.68238">
        <ele>226.80000305176</ele>
        <time>2024-05-20T08:16:18.000Z</time>
      </trkpt>
      <trkpt lat="46.48395" lon="4.68235">
        <ele>226.80000305176</ele>
        <time>2024-05-20T08:16:19.000Z</time>
      </trkpt>
      <trkpt lat="46.48389" lon="4.68233">
        <ele>226.80000305176</ele>
        <time>2024-05-20T08:16:20.000Z</time>
      </trkpt>
      <trkpt lat="46.48383" lon="4.68231">
        <ele>226.80000305176</ele>
        <time>2024-05-20T08:16:21.000Z</time>
      </trkpt>
      <trkpt lat="46.48377" lon="4.68228">
        <ele>227</ele>
        <time>2024-05-20T08:16:22.000Z</time>
      </trkpt>
      <trkpt lat="46.4837" lon="4.68226">
        <ele>227</ele>
        <time>2024-05-20T08:16:23.000Z</time>
      </trkpt>
      <trkpt lat="46.48364" lon="4.68224">
        <ele>227</ele>
        <time>2024-05-20T08:16:24.000Z</time>
      </trkpt>
      <trkpt lat="46.48357" lon="4.68221">
        <ele>227</ele>
        <time>2024-05-20T08:16:25.000Z</time>
      </trkpt>
      <trkpt lat="46.48351" lon="4.68219">
        <ele>226.80000305176</ele>
        <time>2024-05-20T08:16:26.000Z</time>
      </trkpt>
      <trkpt lat="46.48345" lon="4.68217">
        <ele>226.80000305176</ele>
        <time>2024-05-20T08:16:27.000Z</time>
      </trkpt>
      <trkpt lat="46.48339" lon="4.68215">
        <ele>226.80000305176</ele>
        <time>2024-05-20T08:16:28.000Z</time>
      </trkpt>
      <trkpt lat="46.48333" lon="4.68213">
        <ele>226.80000305176</ele>
        <time>2024-05-20T08:16:29.000Z</time>
      </trkpt>
      <trkpt lat="46.48327" lon="4.6821">
        <ele>226.80000305176</ele>
        <time>2024-05-20T08:16:30.000Z</time>
      </trkpt>
      <trkpt lat="46.48321" lon="4.68208">
        <ele>226.80000305176</ele>
        <time>2024-05-20T08:16:31.000Z</time>
      </trkpt>
      <trkpt lat="46.48315" lon="4.68206">
        <ele>227.19999694824</ele>
        <time>2024-05-20T08:16:32.000Z</time>
      </trkpt>
      <trkpt lat="46.48308" lon="4.68204">
        <ele>227.19999694824</ele>
        <time>2024-05-20T08:16:33.000Z</time>
      </trkpt>
      <trkpt lat="46.48302" lon="4.68202">
        <ele>227.19999694824</ele>
        <time>2024-05-20T08:16:34.000Z</time>
      </trkpt>
      <trkpt lat="46.48296" lon="4.68199">
        <ele>227.19999694824</ele>
        <time>2024-05-20T08:16:35.000Z</time>
      </trkpt>
      <trkpt lat="46.4829" lon="4.68197">
        <ele>227.19999694824</ele>
        <time>2024-05-20T08:16:36.000Z</time>
      </trkpt>
      <trkpt lat="46.48283" lon="4.68194">
        <ele>227.19999694824</ele>
        <time>2024-05-20T08:16:37.000Z</time>
      </trkpt>
      <trkpt lat="46.48277" lon="4.68192">
        <ele>227.19999694824</ele>
        <time>2024-05-20T08:16:38.000Z</time>
      </trkpt>
      <trkpt lat="46.48271" lon="4.6819">
        <ele>227.19999694824</ele>
        <time>2024-05-20T08:16:39.000Z</time>
      </trkpt>
      <trkpt lat="46.48265" lon="4.68187">
        <ele>227.19999694824</ele>
        <time>2024-05-20T08:16:40.000Z</time>
      </trkpt>
      <trkpt lat="46.48258" lon="4.68185">
        <ele>227.19999694824</ele>
        <time>2024-05-20T08:16:41.000Z</time>
      </trkpt>
      <trkpt lat="46.48252" lon="4.68182">
        <ele>227.19999694824</ele>
        <time>2024-05-20T08:16:42.000Z</time>
      </trkpt>
      <trkpt lat="46.48247" lon="4.68179">
        <ele>227.39999389648</ele>
        <time>2024-05-20T08:16:43.000Z</time>
      </trkpt>
      <trkpt lat="46.4824" lon="4.68177">
        <ele>227.39999389648</ele>
        <time>2024-05-20T08:16:44.000Z</time>
      </trkpt>
      <trkpt lat="46.48234" lon="4.68174">
        <ele>227.39999389648</ele>
        <time>2024-05-20T08:16:45.000Z</time>
      </trkpt>
      <trkpt lat="46.48228" lon="4.68172">
        <ele>227.39999389648</ele>
        <time>2024-05-20T08:16:46.000Z</time>
      </trkpt>
      <trkpt lat="46.48222" lon="4.68169">
        <ele>227.39999389648</ele>
        <time>2024-05-20T08:16:47.000Z</time>
      </trkpt>
      <trkpt lat="46.48216" lon="4.68166">
        <ele>227.39999389648</ele>
        <time>2024-05-20T08:16:48.000Z</time>
      </trkpt>
      <trkpt lat="46.48209" lon="4.68163">
        <ele>227.60000610352</ele>
        <time>2024-05-20T08:16:49.000Z</time>
      </trkpt>
      <trkpt lat="46.48203" lon="4.68161">
        <ele>227.60000610352</ele>
        <time>2024-05-20T08:16:50.000Z</time>
      </trkpt>
      <trkpt lat="46.48197" lon="4.68159">
        <ele>227.60000610352</ele>
        <time>2024-05-20T08:16:51.000Z</time>
      </trkpt>
      <trkpt lat="46.48191" lon="4.68157">
        <ele>227.60000610352</ele>
        <time>2024-05-20T08:16:52.000Z</time>
      </trkpt>
      <trkpt lat="46.48185" lon="4.68155">
        <ele>227.60000610352</ele>
        <time>2024-05-20T08:16:53.000Z</time>
      </trkpt>
      <trkpt lat="46.48179" lon="4.68153">
        <ele>227.60000610352</ele>
        <time>2024-05-20T08:16:54.000Z</time>
      </trkpt>
      <trkpt lat="46.48173" lon="4.68151">
        <ele>227.60000610352</ele>
        <time>2024-05-20T08:16:55.000Z</time>
      </trkpt>
      <trkpt lat="46.48166" lon="4.68149">
        <ele>227.60000610352</ele>
        <time>2024-05-20T08:16:56.000Z</time>
      </trkpt>
      <trkpt lat="46.4816" lon="4.68147">
        <ele>227.60000610352</ele>
        <time>2024-05-20T08:16:57.000Z</time>
      </trkpt>
      <trkpt lat="46.48154" lon="4.68145">
        <ele>227.80000305176</ele>
        <time>2024-05-20T08:16:58.000Z</time>
      </trkpt>
      <trkpt lat="46.48148" lon="4.68144">
        <ele>227.80000305176</ele>
        <time>2024-05-20T08:16:59.000Z</time>
      </trkpt>
      <trkpt lat="46.48142" lon="4.68142">
        <ele>227.80000305176</ele>
        <time>2024-05-20T08:17:00.000Z</time>
      </trkpt>
      <trkpt lat="46.48136" lon="4.6814">
        <ele>227.80000305176</ele>
        <time>2024-05-20T08:17:01.000Z</time>
      </trkpt>
      <trkpt lat="46.4813" lon="4.68137">
        <ele>227.80000305176</ele>
        <time>2024-05-20T08:17:02.000Z</time>
      </trkpt>
      <trkpt lat="46.48123" lon="4.68135">
        <ele>228</ele>
        <time>2024-05-20T08:17:03.000Z</time>
      </trkpt>
      <trkpt lat="46.48117" lon="4.68133">
        <ele>228</ele>
        <time>2024-05-20T08:17:04.000Z</time>
      </trkpt>
      <trkpt lat="46.48111" lon="4.6813">
        <ele>228</ele>
        <time>2024-05-20T08:17:05.000Z</time>
      </trkpt>
      <trkpt lat="46.48105" lon="4.68128">
        <ele>228</ele>
        <time>2024-05-20T08:17:06.000Z</time>
      </trkpt>
      <trkpt lat="46.48099" lon="4.68125">
        <ele>228</ele>
        <time>2024-05-20T08:17:07.000Z</time>
      </trkpt>
      <trkpt lat="46.48093" lon="4.68123">
        <ele>228</ele>
        <time>2024-05-20T08:17:08.000Z</time>
      </trkpt>
      <trkpt lat="46.48087" lon="4.6812">
        <ele>228</ele>
        <time>2024-05-20T08:17:09.000Z</time>
      </trkpt>
      <trkpt lat="46.48081" lon="4.68118">
        <ele>228</ele>
        <time>2024-05-20T08:17:10.000Z</time>
      </trkpt>
      <trkpt lat="46.48074" lon="4.68115">
        <ele>228</ele>
        <time>2024-05-20T08:17:11.000Z</time>
      </trkpt>
      <trkpt lat="46.48068" lon="4.68113">
        <ele>228</ele>
        <time>2024-05-20T08:17:12.000Z</time>
      </trkpt>
      <trkpt lat="46.48062" lon="4.68111">
        <ele>228</ele>
        <time>2024-05-20T08:17:13.000Z</time>
      </trkpt>
      <trkpt lat="46.48056" lon="4.68109">
        <ele>228</ele>
        <time>2024-05-20T08:17:14.000Z</time>
      </trkpt>
      <trkpt lat="46.4805" lon="4.68106">
        <ele>228.19999694824</ele>
        <time>2024-05-20T08:17:15.000Z</time>
      </trkpt>
      <trkpt lat="46.48044" lon="4.68104">
        <ele>228.19999694824</ele>
        <time>2024-05-20T08:17:16.000Z</time>
      </trkpt>
      <trkpt lat="46.48038" lon="4.68102">
        <ele>228.19999694824</ele>
        <time>2024-05-20T08:17:17.000Z</time>
      </trkpt>
      <trkpt lat="46.48032" lon="4.68099">
        <ele>228.19999694824</ele>
        <time>2024-05-20T08:17:18.000Z</time>
      </trkpt>
      <trkpt lat="46.48025" lon="4.68097">
        <ele>228.19999694824</ele>
        <time>2024-05-20T08:17:19.000Z</time>
      </trkpt>
      <trkpt lat="46.48019" lon="4.68095">
        <ele>228.19999694824</ele>
        <time>2024-05-20T08:17:20.000Z</time>
      </trkpt>
      <trkpt lat="46.48013" lon="4.68092">
        <ele>228.39999389648</ele>
        <time>2024-05-20T08:17:21.000Z</time>
      </trkpt>
      <trkpt lat="46.48007" lon="4.6809">
        <ele>228.39999389648</ele>
        <time>2024-05-20T08:17:22.000Z</time>
      </trkpt>
      <trkpt lat="46.48001" lon="4.68088">
        <ele>228.39999389648</ele>
        <time>2024-05-20T08:17:23.000Z</time>
      </trkpt>
      <trkpt lat="46.47995" lon="4.68087">
        <ele>228.39999389648</ele>
        <time>2024-05-20T08:17:24.000Z</time>
      </trkpt>
      <trkpt lat="46.47989" lon="4.68085">
        <ele>228.39999389648</ele>
        <time>2024-05-20T08:17:25.000Z</time>
      </trkpt>
      <trkpt lat="46.47983" lon="4.68083">
        <ele>228.39999389648</ele>
        <time>2024-05-20T08:17:26.000Z</time>
      </trkpt>
      <trkpt lat="46.47976" lon="4.6808">
        <ele>228.60000610352</ele>
        <time>2024-05-20T08:17:27.000Z</time>
      </trkpt>
      <trkpt lat="46.4797" lon="4.68078">
        <ele>228.60000610352</ele>
        <time>2024-05-20T08:17:28.000Z</time>
      </trkpt>
      <trkpt lat="46.47963" lon="4.68076">
        <ele>228.60000610352</ele>
        <time>2024-05-20T08:17:29.000Z</time>
      </trkpt>
      <trkpt lat="46.47957" lon="4.68074">
        <ele>228.80000305176</ele>
        <time>2024-05-20T08:17:30.000Z</time>
      </trkpt>
      <trkpt lat="46.4795" lon="4.68071">
        <ele>228.80000305176</ele>
        <time>2024-05-20T08:17:31.000Z</time>
      </trkpt>
      <trkpt lat="46.47944" lon="4.68068">
        <ele>228.80000305176</ele>
        <time>2024-05-20T08:17:32.000Z</time>
      </trkpt>
      <trkpt lat="46.47937" lon="4.68066">
        <ele>228.80000305176</ele>
        <time>2024-05-20T08:17:33.000Z</time>
      </trkpt>
      <trkpt lat="46.4793" lon="4.68063">
        <ele>228.80000305176</ele>
        <time>2024-05-20T08:17:34.000Z</time>
      </trkpt>
      <trkpt lat="46.47924" lon="4.6806">
        <ele>228.80000305176</ele>
        <time>2024-05-20T08:17:35.000Z</time>
      </trkpt>
      <trkpt lat="46.47917" lon="4.68058">
        <ele>228.80000305176</ele>
        <time>2024-05-20T08:17:36.000Z</time>
      </trkpt>
      <trkpt lat="46.47911" lon="4.68056">
        <ele>228.60000610352</ele>
        <time>2024-05-20T08:17:37.000Z</time>
      </trkpt>
      <trkpt lat="46.47905" lon="4.68054">
        <ele>228.60000610352</ele>
        <time>2024-05-20T08:17:38.000Z</time>
      </trkpt>
      <trkpt lat="46.47898" lon="4.68051">
        <ele>228.60000610352</ele>
        <time>2024-05-20T08:17:39.000Z</time>
      </trkpt>
      <trkpt lat="46.47892" lon="4.68049">
        <ele>228.60000610352</ele>
        <time>2024-05-20T08:17:40.000Z</time>
      </trkpt>
      <trkpt lat="46.47885" lon="4.68046">
        <ele>228.60000610352</ele>
        <time>2024-05-20T08:17:41.000Z</time>
      </trkpt>
      <trkpt lat="46.47879" lon="4.68043">
        <ele>228.80000305176</ele>
        <time>2024-05-20T08:17:42.000Z</time>
      </trkpt>
      <trkpt lat="46.47872" lon="4.68041">
        <ele>228.80000305176</ele>
        <time>2024-05-20T08:17:43.000Z</time>
      </trkpt>
      <trkpt lat="46.47866" lon="4.68038">
        <ele>228.80000305176</ele>
        <time>2024-05-20T08:17:44.000Z</time>
      </trkpt>
      <trkpt lat="46.47859" lon="4.68036">
        <ele>229</ele>
        <time>2024-05-20T08:17:45.000Z</time>
      </trkpt>
      <trkpt lat="46.47853" lon="4.68033">
        <ele>229</ele>
        <time>2024-05-20T08:17:46.000Z</time>
      </trkpt>
      <trkpt lat="46.47847" lon="4.68031">
        <ele>229</ele>
        <time>2024-05-20T08:17:47.000Z</time>
      </trkpt>
      <trkpt lat="46.4784" lon="4.68028">
        <ele>229</ele>
        <time>2024-05-20T08:17:48.000Z</time>
      </trkpt>
      <trkpt lat="46.47834" lon="4.68026">
        <ele>229.19999694824</ele>
        <time>2024-05-20T08:17:49.000Z</time>
      </trkpt>
      <trkpt lat="46.47828" lon="4.68023">
        <ele>229.19999694824</ele>
        <time>2024-05-20T08:17:50.000Z</time>
      </trkpt>
      <trkpt lat="46.47821" lon="4.68021">
        <ele>229.19999694824</ele>
        <time>2024-05-20T08:17:51.000Z</time>
      </trkpt>
      <trkpt lat="46.47815" lon="4.68018">
        <ele>229.19999694824</ele>
        <time>2024-05-20T08:17:52.000Z</time>
      </trkpt>
      <trkpt lat="46.47808" lon="4.68016">
        <ele>229.19999694824</ele>
        <time>2024-05-20T08:17:53.000Z</time>
      </trkpt>
      <trkpt lat="46.47802" lon="4.68014">
        <ele>229.39999389648</ele>
        <time>2024-05-20T08:17:54.000Z</time>
      </trkpt>
      <trkpt lat="46.47796" lon="4.68012">
        <ele>229.39999389648</ele>
        <time>2024-05-20T08:17:55.000Z</time>
      </trkpt>
      <trkpt lat="46.47789" lon="4.6801">
        <ele>229.39999389648</ele>
        <time>2024-05-20T08:17:56.000Z</time>
      </trkpt>
      <trkpt lat="46.47783" lon="4.68007">
        <ele>229.60000610352</ele>
        <time>2024-05-20T08:17:57.000Z</time>
      </trkpt>
      <trkpt lat="46.47777" lon="4.68005">
        <ele>229.60000610352</ele>
        <time>2024-05-20T08:17:58.000Z</time>
      </trkpt>
      <trkpt lat="46.4777" lon="4.68002">
        <ele>229.60000610352</ele>
        <time>2024-05-20T08:17:59.000Z</time>
      </trkpt>
      <trkpt lat="46.47764" lon="4.68">
        <ele>229.80000305176</ele>
        <time>2024-05-20T08:18:00.000Z</time>
      </trkpt>
      <trkpt lat="46.47758" lon="4.67998">
        <ele>229.80000305176</ele>
        <time>2024-05-20T08:18:01.000Z</time>
      </trkpt>
      <trkpt lat="46.47751" lon="4.67996">
        <ele>229.80000305176</ele>
        <time>2024-05-20T08:18:02.000Z</time>
      </trkpt>
      <trkpt lat="46.47745" lon="4.67994">
        <ele>229.80000305176</ele>
        <time>2024-05-20T08:18:03.000Z</time>
      </trkpt>
      <trkpt lat="46.47739" lon="4.67993">
        <ele>229.80000305176</ele>
        <time>2024-05-20T08:18:04.000Z</time>
      </trkpt>
      <trkpt lat="46.47733" lon="4.67991">
        <ele>229.80000305176</ele>
        <time>2024-05-20T08:18:05.000Z</time>
      </trkpt>
      <trkpt lat="46.47726" lon="4.67989">
        <ele>229.80000305176</ele>
        <time>2024-05-20T08:18:06.000Z</time>
      </trkpt>
      <trkpt lat="46.4772" lon="4.67987">
        <ele>230</ele>
        <time>2024-05-20T08:18:07.000Z</time>
      </trkpt>
      <trkpt lat="46.47714" lon="4.67984">
        <ele>230</ele>
        <time>2024-05-20T08:18:08.000Z</time>
      </trkpt>
      <trkpt lat="46.47708" lon="4.67982">
        <ele>230</ele>
        <time>2024-05-20T08:18:09.000Z</time>
      </trkpt>
      <trkpt lat="46.47702" lon="4.6798">
        <ele>230.19999694824</ele>
        <time>2024-05-20T08:18:10.000Z</time>
      </trkpt>
      <trkpt lat="46.47696" lon="4.67977">
        <ele>230.19999694824</ele>
        <time>2024-05-20T08:18:11.000Z</time>
      </trkpt>
      <trkpt lat="46.4769" lon="4.67974">
        <ele>230.19999694824</ele>
        <time>2024-05-20T08:18:12.000Z</time>
      </trkpt>
      <trkpt lat="46.47684" lon="4.67972">
        <ele>230.19999694824</ele>
        <time>2024-05-20T08:18:13.000Z</time>
      </trkpt>
      <trkpt lat="46.47678" lon="4.67969">
        <ele>230.19999694824</ele>
        <time>2024-05-20T08:18:14.000Z</time>
      </trkpt>
      <trkpt lat="46.47672" lon="4.67966">
        <ele>230.19999694824</ele>
        <time>2024-05-20T08:18:15.000Z</time>
      </trkpt>
      <trkpt lat="46.47666" lon="4.67964">
        <ele>230.39999389648</ele>
        <time>2024-05-20T08:18:16.000Z</time>
      </trkpt>
      <trkpt lat="46.4766" lon="4.67961">
        <ele>230.39999389648</ele>
        <time>2024-05-20T08:18:17.000Z</time>
      </trkpt>
      <trkpt lat="46.47654" lon="4.67959">
        <ele>230.39999389648</ele>
        <time>2024-05-20T08:18:18.000Z</time>
      </trkpt>
      <trkpt lat="46.47647" lon="4.67957">
        <ele>230.39999389648</ele>
        <time>2024-05-20T08:18:19.000Z</time>
      </trkpt>
      <trkpt lat="46.47641" lon="4.67955">
        <ele>230.39999389648</ele>
        <time>2024-05-20T08:18:20.000Z</time>
      </trkpt>
      <trkpt lat="46.47635" lon="4.67952">
        <ele>230.39999389648</ele>
        <time>2024-05-20T08:18:21.000Z</time>
      </trkpt>
      <trkpt lat="46.47628" lon="4.6795">
        <ele>230.39999389648</ele>
        <time>2024-05-20T08:18:22.000Z</time>
      </trkpt>
      <trkpt lat="46.47622" lon="4.67947">
        <ele>230.39999389648</ele>
        <time>2024-05-20T08:18:23.000Z</time>
      </trkpt>
      <trkpt lat="46.47616" lon="4.67945">
        <ele>230.39999389648</ele>
        <time>2024-05-20T08:18:24.000Z</time>
      </trkpt>
      <trkpt lat="46.4761" lon="4.67943">
        <ele>230.60000610352</ele>
        <time>2024-05-20T08:18:25.000Z</time>
      </trkpt>
      <trkpt lat="46.47603" lon="4.67941">
        <ele>230.60000610352</ele>
        <time>2024-05-20T08:18:26.000Z</time>
      </trkpt>
      <trkpt lat="46.47597" lon="4.67938">
        <ele>230.60000610352</ele>
        <time>2024-05-20T08:18:27.000Z</time>
      </trkpt>
      <trkpt lat="46.47591" lon="4.67936">
        <ele>230.60000610352</ele>
        <time>2024-05-20T08:18:28.000Z</time>
      </trkpt>
      <trkpt lat="46.47585" lon="4.67934">
        <ele>230.60000610352</ele>
        <time>2024-05-20T08:18:29.000Z</time>
      </trkpt>
      <trkpt lat="46.47579" lon="4.67933">
        <ele>230.60000610352</ele>
        <time>2024-05-20T08:18:30.000Z</time>
      </trkpt>
      <trkpt lat="46.47572" lon="4.67931">
        <ele>230.60000610352</ele>
        <time>2024-05-20T08:18:31.000Z</time>
      </trkpt>
      <trkpt lat="46.47567" lon="4.67929">
        <ele>230.80000305176</ele>
        <time>2024-05-20T08:18:32.000Z</time>
      </trkpt>
      <trkpt lat="46.47562" lon="4.67928">
        <ele>230.80000305176</ele>
        <time>2024-05-20T08:18:33.000Z</time>
      </trkpt>
      <trkpt lat="46.47555" lon="4.67926">
        <ele>230.80000305176</ele>
        <time>2024-05-20T08:18:34.000Z</time>
      </trkpt>
      <trkpt lat="46.47549" lon="4.67924">
        <ele>230.80000305176</ele>
        <time>2024-05-20T08:18:35.000Z</time>
      </trkpt>
      <trkpt lat="46.47543" lon="4.67922">
        <ele>230.80000305176</ele>
        <time>2024-05-20T08:18:36.000Z</time>
      </trkpt>
      <trkpt lat="46.47537" lon="4.6792">
        <ele>230.80000305176</ele>
        <time>2024-05-20T08:18:37.000Z</time>
      </trkpt>
      <trkpt lat="46.47531" lon="4.67918">
        <ele>231</ele>
        <time>2024-05-20T08:18:38.000Z</time>
      </trkpt>
      <trkpt lat="46.47525" lon="4.67916">
        <ele>231</ele>
        <time>2024-05-20T08:18:39.000Z</time>
      </trkpt>
      <trkpt lat="46.47519" lon="4.67915">
        <ele>231</ele>
        <time>2024-05-20T08:18:40.000Z</time>
      </trkpt>
      <trkpt lat="46.47512" lon="4.67914">
        <ele>231.19999694824</ele>
        <time>2024-05-20T08:18:41.000Z</time>
      </trkpt>
      <trkpt lat="46.47506" lon="4.67912">
        <ele>231.19999694824</ele>
        <time>2024-05-20T08:18:42.000Z</time>
      </trkpt>
      <trkpt lat="46.475" lon="4.67911">
        <ele>231.19999694824</ele>
        <time>2024-05-20T08:18:43.000Z</time>
      </trkpt>
      <trkpt lat="46.47494" lon="4.67909">
        <ele>231.19999694824</ele>
        <time>2024-05-20T08:18:44.000Z</time>
      </trkpt>
      <trkpt lat="46.47487" lon="4.67907">
        <ele>231.19999694824</ele>
        <time>2024-05-20T08:18:45.000Z</time>
      </trkpt>
      <trkpt lat="46.47481" lon="4.67905">
        <ele>231.39999389648</ele>
        <time>2024-05-20T08:18:46.000Z</time>
      </trkpt>
      <trkpt lat="46.47475" lon="4.67903">
        <ele>231.39999389648</ele>
        <time>2024-05-20T08:18:47.000Z</time>
      </trkpt>
      <trkpt lat="46.47469" lon="4.67902">
        <ele>231.39999389648</ele>
        <time>2024-05-20T08:18:48.000Z</time>
      </trkpt>
      <trkpt lat="46.47463" lon="4.67901">
        <ele>231.39999389648</ele>
        <time>2024-05-20T08:18:49.000Z</time>
      </trkpt>
      <trkpt lat="46.47457" lon="4.67899">
        <ele>231.39999389648</ele>
        <time>2024-05-20T08:18:50.000Z</time>
      </trkpt>
      <trkpt lat="46.47451" lon="4.67896">
        <ele>231.39999389648</ele>
        <time>2024-05-20T08:18:51.000Z</time>
      </trkpt>
      <trkpt lat="46.47445" lon="4.67894">
        <ele>231.39999389648</ele>
        <time>2024-05-20T08:18:52.000Z</time>
      </trkpt>
      <trkpt lat="46.47439" lon="4.67892">
        <ele>231.39999389648</ele>
        <time>2024-05-20T08:18:53.000Z</time>
      </trkpt>
      <trkpt lat="46.47433" lon="4.67891">
        <ele>231.39999389648</ele>
        <time>2024-05-20T08:18:54.000Z</time>
      </trkpt>
      <trkpt lat="46.47427" lon="4.67889">
        <ele>231.39999389648</ele>
        <time>2024-05-20T08:18:55.000Z</time>
      </trkpt>
      <trkpt lat="46.47421" lon="4.67887">
        <ele>231.39999389648</ele>
        <time>2024-05-20T08:18:56.000Z</time>
      </trkpt>
      <trkpt lat="46.47415" lon="4.67885">
        <ele>231.39999389648</ele>
        <time>2024-05-20T08:18:57.000Z</time>
      </trkpt>
      <trkpt lat="46.47409" lon="4.67884">
        <ele>231.39999389648</ele>
        <time>2024-05-20T08:18:58.000Z</time>
      </trkpt>
      <trkpt lat="46.47403" lon="4.67882">
        <ele>231.39999389648</ele>
        <time>2024-05-20T08:18:59.000Z</time>
      </trkpt>
      <trkpt lat="46.47396" lon="4.67881">
        <ele>231.39999389648</ele>
        <time>2024-05-20T08:19:00.000Z</time>
      </trkpt>
      <trkpt lat="46.4739" lon="4.67879">
        <ele>231.39999389648</ele>
        <time>2024-05-20T08:19:01.000Z</time>
      </trkpt>
      <trkpt lat="46.47384" lon="4.67877">
        <ele>231.39999389648</ele>
        <time>2024-05-20T08:19:02.000Z</time>
      </trkpt>
      <trkpt lat="46.47378" lon="4.67875">
        <ele>231.60000610352</ele>
        <time>2024-05-20T08:19:03.000Z</time>
      </trkpt>
      <trkpt lat="46.47371" lon="4.67873">
        <ele>231.60000610352</ele>
        <time>2024-05-20T08:19:04.000Z</time>
      </trkpt>
      <trkpt lat="46.47365" lon="4.67871">
        <ele>231.60000610352</ele>
        <time>2024-05-20T08:19:05.000Z</time>
      </trkpt>
      <trkpt lat="46.47359" lon="4.67869">
        <ele>231.60000610352</ele>
        <time>2024-05-20T08:19:06.000Z</time>
      </trkpt>
      <trkpt lat="46.47353" lon="4.67868">
        <ele>231.60000610352</ele>
        <time>2024-05-20T08:19:07.000Z</time>
      </trkpt>
      <trkpt lat="46.47347" lon="4.67866">
        <ele>231.60000610352</ele>
        <time>2024-05-20T08:19:08.000Z</time>
      </trkpt>
      <trkpt lat="46.4734" lon="4.67864">
        <ele>231.60000610352</ele>
        <time>2024-05-20T08:19:09.000Z</time>
      </trkpt>
      <trkpt lat="46.47334" lon="4.67863">
        <ele>231.60000610352</ele>
        <time>2024-05-20T08:19:10.000Z</time>
      </trkpt>
      <trkpt lat="46.47328" lon="4.67862">
        <ele>231.60000610352</ele>
        <time>2024-05-20T08:19:11.000Z</time>
      </trkpt>
      <trkpt lat="46.47322" lon="4.67861">
        <ele>231.60000610352</ele>
        <time>2024-05-20T08:19:12.000Z</time>
      </trkpt>
      <trkpt lat="46.47316" lon="4.67859">
        <ele>231.60000610352</ele>
        <time>2024-05-20T08:19:13.000Z</time>
      </trkpt>
      <trkpt lat="46.4731" lon="4.67858">
        <ele>231.80000305176</ele>
        <time>2024-05-20T08:19:14.000Z</time>
      </trkpt>
      <trkpt lat="46.47304" lon="4.67855">
        <ele>231.80000305176</ele>
        <time>2024-05-20T08:19:15.000Z</time>
      </trkpt>
      <trkpt lat="46.47298" lon="4.67853">
        <ele>232</ele>
        <time>2024-05-20T08:19:16.000Z</time>
      </trkpt>
      <trkpt lat="46.47292" lon="4.6785">
        <ele>232</ele>
        <time>2024-05-20T08:19:17.000Z</time>
      </trkpt>
      <trkpt lat="46.47287" lon="4.67849">
        <ele>232</ele>
        <time>2024-05-20T08:19:18.000Z</time>
      </trkpt>
      <trkpt lat="46.47281" lon="4.67848">
        <ele>232</ele>
        <time>2024-05-20T08:19:19.000Z</time>
      </trkpt>
      <trkpt lat="46.47274" lon="4.67847">
        <ele>232</ele>
        <time>2024-05-20T08:19:20.000Z</time>
      </trkpt>
      <trkpt lat="46.47268" lon="4.67845">
        <ele>232.19999694824</ele>
        <time>2024-05-20T08:19:21.000Z</time>
      </trkpt>
      <trkpt lat="46.47262" lon="4.67843">
        <ele>232.19999694824</ele>
        <time>2024-05-20T08:19:22.000Z</time>
      </trkpt>
      <trkpt lat="46.47256" lon="4.67842">
        <ele>232.19999694824</ele>
        <time>2024-05-20T08:19:23.000Z</time>
      </trkpt>
      <trkpt lat="46.4725" lon="4.67841">
        <ele>232.19999694824</ele>
        <time>2024-05-20T08:19:24.000Z</time>
      </trkpt>
      <trkpt lat="46.47244" lon="4.67839">
        <ele>232.19999694824</ele>
        <time>2024-05-20T08:19:25.000Z</time>
      </trkpt>
      <trkpt lat="46.47238" lon="4.67838">
        <ele>232.19999694824</ele>
        <time>2024-05-20T08:19:26.000Z</time>
      </trkpt>
      <trkpt lat="46.47232" lon="4.67837">
        <ele>232.19999694824</ele>
        <time>2024-05-20T08:19:27.000Z</time>
      </trkpt>
      <trkpt lat="46.47226" lon="4.67835">
        <ele>232.19999694824</ele>
        <time>2024-05-20T08:19:28.000Z</time>
      </trkpt>
      <trkpt lat="46.4722" lon="4.67833">
        <ele>232.19999694824</ele>
        <time>2024-05-20T08:19:29.000Z</time>
      </trkpt>
      <trkpt lat="46.47213" lon="4.67831">
        <ele>232.19999694824</ele>
        <time>2024-05-20T08:19:30.000Z</time>
      </trkpt>
      <trkpt lat="46.47207" lon="4.67829">
        <ele>232.19999694824</ele>
        <time>2024-05-20T08:19:31.000Z</time>
      </trkpt>
      <trkpt lat="46.47201" lon="4.67828">
        <ele>232.19999694824</ele>
        <time>2024-05-20T08:19:32.000Z</time>
      </trkpt>
      <trkpt lat="46.47195" lon="4.67826">
        <ele>232.19999694824</ele>
        <time>2024-05-20T08:19:33.000Z</time>
      </trkpt>
      <trkpt lat="46.47189" lon="4.67825">
        <ele>232.19999694824</ele>
        <time>2024-05-20T08:19:34.000Z</time>
      </trkpt>
      <trkpt lat="46.47182" lon="4.67824">
        <ele>232.19999694824</ele>
        <time>2024-05-20T08:19:35.000Z</time>
      </trkpt>
      <trkpt lat="46.47176" lon="4.67822">
        <ele>232.19999694824</ele>
        <time>2024-05-20T08:19:36.000Z</time>
      </trkpt>
      <trkpt lat="46.4717" lon="4.6782">
        <ele>232.19999694824</ele>
        <time>2024-05-20T08:19:37.000Z</time>
      </trkpt>
      <trkpt lat="46.47163" lon="4.67819">
        <ele>232.19999694824</ele>
        <time>2024-05-20T08:19:38.000Z</time>
      </trkpt>
      <trkpt lat="46.47157" lon="4.67817">
        <ele>232.19999694824</ele>
        <time>2024-05-20T08:19:39.000Z</time>
      </trkpt>
      <trkpt lat="46.4715" lon="4.67815">
        <ele>232.19999694824</ele>
        <time>2024-05-20T08:19:40.000Z</time>
      </trkpt>
      <trkpt lat="46.47144" lon="4.67814">
        <ele>232.19999694824</ele>
        <time>2024-05-20T08:19:41.000Z</time>
      </trkpt>
      <trkpt lat="46.47138" lon="4.67811">
        <ele>232.19999694824</ele>
        <time>2024-05-20T08:19:42.000Z</time>
      </trkpt>
      <trkpt lat="46.47132" lon="4.67809">
        <ele>232.19999694824</ele>
        <time>2024-05-20T08:19:43.000Z</time>
      </trkpt>
      <trkpt lat="46.47126" lon="4.67807">
        <ele>232.39999389648</ele>
        <time>2024-05-20T08:19:44.000Z</time>
      </trkpt>
      <trkpt lat="46.47119" lon="4.67806">
        <ele>232.39999389648</ele>
        <time>2024-05-20T08:19:45.000Z</time>
      </trkpt>
      <trkpt lat="46.47113" lon="4.67804">
        <ele>232.39999389648</ele>
        <time>2024-05-20T08:19:46.000Z</time>
      </trkpt>
      <trkpt lat="46.47107" lon="4.67802">
        <ele>232.39999389648</ele>
        <time>2024-05-20T08:19:47.000Z</time>
      </trkpt>
      <trkpt lat="46.471" lon="4.678">
        <ele>232.39999389648</ele>
        <time>2024-05-20T08:19:48.000Z</time>
      </trkpt>
      <trkpt lat="46.47094" lon="4.67799">
        <ele>232.39999389648</ele>
        <time>2024-05-20T08:19:49.000Z</time>
      </trkpt>
      <trkpt lat="46.47088" lon="4.67797">
        <ele>232.39999389648</ele>
        <time>2024-05-20T08:19:50.000Z</time>
      </trkpt>
      <trkpt lat="46.47081" lon="4.67796">
        <ele>232.39999389648</ele>
        <time>2024-05-20T08:19:51.000Z</time>
      </trkpt>
      <trkpt lat="46.47075" lon="4.67795">
        <ele>232.39999389648</ele>
        <time>2024-05-20T08:19:52.000Z</time>
      </trkpt>
      <trkpt lat="46.47069" lon="4.67793">
        <ele>232.39999389648</ele>
        <time>2024-05-20T08:19:53.000Z</time>
      </trkpt>
      <trkpt lat="46.47062" lon="4.67791">
        <ele>232.39999389648</ele>
        <time>2024-05-20T08:19:54.000Z</time>
      </trkpt>
      <trkpt lat="46.47056" lon="4.67789">
        <ele>232.39999389648</ele>
        <time>2024-05-20T08:19:55.000Z</time>
      </trkpt>
      <trkpt lat="46.4705" lon="4.67787">
        <ele>232.60000610352</ele>
        <time>2024-05-20T08:19:56.000Z</time>
      </trkpt>
      <trkpt lat="46.47044" lon="4.67786">
        <ele>232.60000610352</ele>
        <time>2024-05-20T08:19:57.000Z</time>
      </trkpt>
      <trkpt lat="46.47037" lon="4.67784">
        <ele>232.60000610352</ele>
        <time>2024-05-20T08:19:58.000Z</time>
      </trkpt>
      <trkpt lat="46.47031" lon="4.67783">
        <ele>232.60000610352</ele>
        <time>2024-05-20T08:19:59.000Z</time>
      </trkpt>
      <trkpt lat="46.47025" lon="4.67782">
        <ele>232.60000610352</ele>
        <time>2024-05-20T08:20:00.000Z</time>
      </trkpt>
      <trkpt lat="46.47019" lon="4.6778">
        <ele>232.60000610352</ele>
        <time>2024-05-20T08:20:01.000Z</time>
      </trkpt>
      <trkpt lat="46.47013" lon="4.67779">
        <ele>232.60000610352</ele>
        <time>2024-05-20T08:20:02.000Z</time>
      </trkpt>
      <trkpt lat="46.47007" lon="4.67777">
        <ele>232.60000610352</ele>
        <time>2024-05-20T08:20:03.000Z</time>
      </trkpt>
      <trkpt lat="46.47" lon="4.67775">
        <ele>232.60000610352</ele>
        <time>2024-05-20T08:20:04.000Z</time>
      </trkpt>
      <trkpt lat="46.46994" lon="4.67773">
        <ele>232.80000305176</ele>
        <time>2024-05-20T08:20:05.000Z</time>
      </trkpt>
      <trkpt lat="46.46988" lon="4.67772">
        <ele>232.80000305176</ele>
        <time>2024-05-20T08:20:06.000Z</time>
      </trkpt>
      <trkpt lat="46.46982" lon="4.6777">
        <ele>232.80000305176</ele>
        <time>2024-05-20T08:20:07.000Z</time>
      </trkpt>
      <trkpt lat="46.46976" lon="4.67768">
        <ele>232.80000305176</ele>
        <time>2024-05-20T08:20:08.000Z</time>
      </trkpt>
      <trkpt lat="46.46969" lon="4.67766">
        <ele>232.80000305176</ele>
        <time>2024-05-20T08:20:09.000Z</time>
      </trkpt>
      <trkpt lat="46.46963" lon="4.67764">
        <ele>232.80000305176</ele>
        <time>2024-05-20T08:20:10.000Z</time>
      </trkpt>
      <trkpt lat="46.46957" lon="4.67763">
        <ele>232.80000305176</ele>
        <time>2024-05-20T08:20:11.000Z</time>
      </trkpt>
      <trkpt lat="46.4695" lon="4.67761">
        <ele>232.80000305176</ele>
        <time>2024-05-20T08:20:12.000Z</time>
      </trkpt>
      <trkpt lat="46.46944" lon="4.67759">
        <ele>233</ele>
        <time>2024-05-20T08:20:13.000Z</time>
      </trkpt>
      <trkpt lat="46.46938" lon="4.67757">
        <ele>233</ele>
        <time>2024-05-20T08:20:14.000Z</time>
      </trkpt>
      <trkpt lat="46.46932" lon="4.67755">
        <ele>233</ele>
        <time>2024-05-20T08:20:15.000Z</time>
      </trkpt>
      <trkpt lat="46.46925" lon="4.67754">
        <ele>233</ele>
        <time>2024-05-20T08:20:16.000Z</time>
      </trkpt>
      <trkpt lat="46.46919" lon="4.67753">
        <ele>233</ele>
        <time>2024-05-20T08:20:17.000Z</time>
      </trkpt>
      <trkpt lat="46.46914" lon="4.67752">
        <ele>233</ele>
        <time>2024-05-20T08:20:18.000Z</time>
      </trkpt>
      <trkpt lat="46.46907" lon="4.67749">
        <ele>233</ele>
        <time>2024-05-20T08:20:19.000Z</time>
      </trkpt>
      <trkpt lat="46.46901" lon="4.67747">
        <ele>233</ele>
        <time>2024-05-20T08:20:20.000Z</time>
      </trkpt>
      <trkpt lat="46.46895" lon="4.67745">
        <ele>233</ele>
        <time>2024-05-20T08:20:21.000Z</time>
      </trkpt>
      <trkpt lat="46.46889" lon="4.67744">
        <ele>233</ele>
        <time>2024-05-20T08:20:22.000Z</time>
      </trkpt>
      <trkpt lat="46.46883" lon="4.67742">
        <ele>233</ele>
        <time>2024-05-20T08:20:23.000Z</time>
      </trkpt>
      <trkpt lat="46.46877" lon="4.6774">
        <ele>233</ele>
        <time>2024-05-20T08:20:24.000Z</time>
      </trkpt>
      <trkpt lat="46.4687" lon="4.67738">
        <ele>233</ele>
        <time>2024-05-20T08:20:25.000Z</time>
      </trkpt>
      <trkpt lat="46.46865" lon="4.67736">
        <ele>233.19999694824</ele>
        <time>2024-05-20T08:20:26.000Z</time>
      </trkpt>
      <trkpt lat="46.46858" lon="4.67735">
        <ele>233.19999694824</ele>
        <time>2024-05-20T08:20:27.000Z</time>
      </trkpt>
      <trkpt lat="46.46852" lon="4.67733">
        <ele>233.19999694824</ele>
        <time>2024-05-20T08:20:28.000Z</time>
      </trkpt>
      <trkpt lat="46.46846" lon="4.67732">
        <ele>233.19999694824</ele>
        <time>2024-05-20T08:20:29.000Z</time>
      </trkpt>
      <trkpt lat="46.4684" lon="4.6773">
        <ele>233.19999694824</ele>
        <time>2024-05-20T08:20:30.000Z</time>
      </trkpt>
      <trkpt lat="46.46833" lon="4.67729">
        <ele>233.19999694824</ele>
        <time>2024-05-20T08:20:31.000Z</time>
      </trkpt>
      <trkpt lat="46.46827" lon="4.67727">
        <ele>233.19999694824</ele>
        <time>2024-05-20T08:20:32.000Z</time>
      </trkpt>
      <trkpt lat="46.46821" lon="4.67725">
        <ele>233.39999389648</ele>
        <time>2024-05-20T08:20:33.000Z</time>
      </trkpt>
      <trkpt lat="46.46815" lon="4.67724">
        <ele>233.39999389648</ele>
        <time>2024-05-20T08:20:34.000Z</time>
      </trkpt>
      <trkpt lat="46.46808" lon="4.67723">
        <ele>233.39999389648</ele>
        <time>2024-05-20T08:20:35.000Z</time>
      </trkpt>
      <trkpt lat="46.46802" lon="4.67721">
        <ele>233.39999389648</ele>
        <time>2024-05-20T08:20:36.000Z</time>
      </trkpt>
      <trkpt lat="46.46795" lon="4.67719">
        <ele>233.39999389648</ele>
        <time>2024-05-20T08:20:37.000Z</time>
      </trkpt>
      <trkpt lat="46.46789" lon="4.67717">
        <ele>233.39999389648</ele>
        <time>2024-05-20T08:20:38.000Z</time>
      </trkpt>
      <trkpt lat="46.46783" lon="4.67716">
        <ele>233.39999389648</ele>
        <time>2024-05-20T08:20:39.000Z</time>
      </trkpt>
      <trkpt lat="46.46776" lon="4.67714">
        <ele>233.39999389648</ele>
        <time>2024-05-20T08:20:40.000Z</time>
      </trkpt>
      <trkpt lat="46.4677" lon="4.67712">
        <ele>233.39999389648</ele>
        <time>2024-05-20T08:20:41.000Z</time>
      </trkpt>
      <trkpt lat="46.46763" lon="4.6771">
        <ele>233.39999389648</ele>
        <time>2024-05-20T08:20:42.000Z</time>
      </trkpt>
      <trkpt lat="46.46757" lon="4.67708">
        <ele>233.39999389648</ele>
        <time>2024-05-20T08:20:43.000Z</time>
      </trkpt>
      <trkpt lat="46.4675" lon="4.67706">
        <ele>233.39999389648</ele>
        <time>2024-05-20T08:20:44.000Z</time>
      </trkpt>
      <trkpt lat="46.46744" lon="4.67705">
        <ele>233.39999389648</ele>
        <time>2024-05-20T08:20:45.000Z</time>
      </trkpt>
      <trkpt lat="46.46737" lon="4.67703">
        <ele>233.39999389648</ele>
        <time>2024-05-20T08:20:46.000Z</time>
      </trkpt>
      <trkpt lat="46.46731" lon="4.67701">
        <ele>233.39999389648</ele>
        <time>2024-05-20T08:20:47.000Z</time>
      </trkpt>
      <trkpt lat="46.46724" lon="4.677">
        <ele>233.39999389648</ele>
        <time>2024-05-20T08:20:48.000Z</time>
      </trkpt>
      <trkpt lat="46.46718" lon="4.67698">
        <ele>233.39999389648</ele>
        <time>2024-05-20T08:20:49.000Z</time>
      </trkpt>
      <trkpt lat="46.46712" lon="4.67697">
        <ele>233.39999389648</ele>
        <time>2024-05-20T08:20:50.000Z</time>
      </trkpt>
      <trkpt lat="46.46706" lon="4.67696">
        <ele>233.39999389648</ele>
        <time>2024-05-20T08:20:51.000Z</time>
      </trkpt>
      <trkpt lat="46.467" lon="4.67695">
        <ele>233.39999389648</ele>
        <time>2024-05-20T08:20:52.000Z</time>
      </trkpt>
      <trkpt lat="46.46693" lon="4.67693">
        <ele>233.39999389648</ele>
        <time>2024-05-20T08:20:53.000Z</time>
      </trkpt>
      <trkpt lat="46.46687" lon="4.67692">
        <ele>233.39999389648</ele>
        <time>2024-05-20T08:20:54.000Z</time>
      </trkpt>
      <trkpt lat="46.46681" lon="4.67691">
        <ele>233.39999389648</ele>
        <time>2024-05-20T08:20:55.000Z</time>
      </trkpt>
      <trkpt lat="46.46675" lon="4.67689">
        <ele>233.19999694824</ele>
        <time>2024-05-20T08:20:56.000Z</time>
      </trkpt>
      <trkpt lat="46.46669" lon="4.67687">
        <ele>233</ele>
        <time>2024-05-20T08:20:57.000Z</time>
      </trkpt>
      <trkpt lat="46.46663" lon="4.67686">
        <ele>233</ele>
        <time>2024-05-20T08:20:58.000Z</time>
      </trkpt>
      <trkpt lat="46.46657" lon="4.67684">
        <ele>233.19999694824</ele>
        <time>2024-05-20T08:20:59.000Z</time>
      </trkpt>
      <trkpt lat="46.46652" lon="4.67683">
        <ele>233.19999694824</ele>
        <time>2024-05-20T08:21:00.000Z</time>
      </trkpt>
      <trkpt lat="46.46647" lon="4.67682">
        <ele>233.19999694824</ele>
        <time>2024-05-20T08:21:01.000Z</time>
      </trkpt>
      <trkpt lat="46.46642" lon="4.6768">
        <ele>233.19999694824</ele>
        <time>2024-05-20T08:21:02.000Z</time>
      </trkpt>
      <trkpt lat="46.46638" lon="4.67679">
        <ele>233.19999694824</ele>
        <time>2024-05-20T08:21:03.000Z</time>
      </trkpt>
      <trkpt lat="46.46633" lon="4.67678">
        <ele>233.19999694824</ele>
        <time>2024-05-20T08:21:04.000Z</time>
      </trkpt>
      <trkpt lat="46.46629" lon="4.67677">
        <ele>233.19999694824</ele>
        <time>2024-05-20T08:21:05.000Z</time>
      </trkpt>
      <trkpt lat="46.46625" lon="4.67676">
        <ele>233.19999694824</ele>
        <time>2024-05-20T08:21:06.000Z</time>
      </trkpt>
      <trkpt lat="46.4662" lon="4.67675">
        <ele>233.19999694824</ele>
        <time>2024-05-20T08:21:07.000Z</time>
      </trkpt>
      <trkpt lat="46.46616" lon="4.67673">
        <ele>233.19999694824</ele>
        <time>2024-05-20T08:21:08.000Z</time>
      </trkpt>
      <trkpt lat="46.46611" lon="4.67671">
        <ele>233.19999694824</ele>
        <time>2024-05-20T08:21:09.000Z</time>
      </trkpt>
      <trkpt lat="46.46606" lon="4.67669">
        <ele>233.19999694824</ele>
        <time>2024-05-20T08:21:10.000Z</time>
      </trkpt>
      <trkpt lat="46.466" lon="4.67668">
        <ele>233.19999694824</ele>
        <time>2024-05-20T08:21:11.000Z</time>
      </trkpt>
      <trkpt lat="46.46595" lon="4.67666">
        <ele>233.19999694824</ele>
        <time>2024-05-20T08:21:12.000Z</time>
      </trkpt>
      <trkpt lat="46.46589" lon="4.67665">
        <ele>233</ele>
        <time>2024-05-20T08:21:13.000Z</time>
      </trkpt>
      <trkpt lat="46.46584" lon="4.67664">
        <ele>232.80000305176</ele>
        <time>2024-05-20T08:21:14.000Z</time>
      </trkpt>
      <trkpt lat="46.46578" lon="4.67663">
        <ele>232.80000305176</ele>
        <time>2024-05-20T08:21:15.000Z</time>
      </trkpt>
      <trkpt lat="46.46573" lon="4.67661">
        <ele>232.60000610352</ele>
        <time>2024-05-20T08:21:16.000Z</time>
      </trkpt>
      <trkpt lat="46.46567" lon="4.67659">
        <ele>232.60000610352</ele>
        <time>2024-05-20T08:21:17.000Z</time>
      </trkpt>
      <trkpt lat="46.46561" lon="4.67657">
        <ele>232.60000610352</ele>
        <time>2024-05-20T08:21:18.000Z</time>
      </trkpt>
      <trkpt lat="46.46555" lon="4.67656">
        <ele>232.60000610352</ele>
        <time>2024-05-20T08:21:19.000Z</time>
      </trkpt>
      <trkpt lat="46.4655" lon="4.67654">
        <ele>232.60000610352</ele>
        <time>2024-05-20T08:21:20.000Z</time>
      </trkpt>
      <trkpt lat="46.46544" lon="4.67653">
        <ele>232.60000610352</ele>
        <time>2024-05-20T08:21:21.000Z</time>
      </trkpt>
      <trkpt lat="46.46538" lon="4.67652">
        <ele>232.60000610352</ele>
        <time>2024-05-20T08:21:22.000Z</time>
      </trkpt>
      <trkpt lat="46.46532" lon="4.6765">
        <ele>232.60000610352</ele>
        <time>2024-05-20T08:21:23.000Z</time>
      </trkpt>
      <trkpt lat="46.46526" lon="4.67649">
        <ele>232.60000610352</ele>
        <time>2024-05-20T08:21:24.000Z</time>
      </trkpt>
      <trkpt lat="46.46519" lon="4.67648">
        <ele>232.60000610352</ele>
        <time>2024-05-20T08:21:25.000Z</time>
      </trkpt>
      <trkpt lat="46.46513" lon="4.67646">
        <ele>232.60000610352</ele>
        <time>2024-05-20T08:21:26.000Z</time>
      </trkpt>
      <trkpt lat="46.46507" lon="4.67644">
        <ele>232.60000610352</ele>
        <time>2024-05-20T08:21:27.000Z</time>
      </trkpt>
      <trkpt lat="46.46501" lon="4.67642">
        <ele>232.60000610352</ele>
        <time>2024-05-20T08:21:28.000Z</time>
      </trkpt>
      <trkpt lat="46.46494" lon="4.67641">
        <ele>232.60000610352</ele>
        <time>2024-05-20T08:21:29.000Z</time>
      </trkpt>
      <trkpt lat="46.46488" lon="4.67639">
        <ele>232.60000610352</ele>
        <time>2024-05-20T08:21:30.000Z</time>
      </trkpt>
      <trkpt lat="46.46482" lon="4.67638">
        <ele>232.60000610352</ele>
        <time>2024-05-20T08:21:31.000Z</time>
      </trkpt>
      <trkpt lat="46.46476" lon="4.67636">
        <ele>232.60000610352</ele>
        <time>2024-05-20T08:21:32.000Z</time>
      </trkpt>
      <trkpt lat="46.4647" lon="4.67635">
        <ele>232.60000610352</ele>
        <time>2024-05-20T08:21:33.000Z</time>
      </trkpt>
      <trkpt lat="46.46463" lon="4.67634">
        <ele>232.60000610352</ele>
        <time>2024-05-20T08:21:34.000Z</time>
      </trkpt>
      <trkpt lat="46.46457" lon="4.67632">
        <ele>232.60000610352</ele>
        <time>2024-05-20T08:21:35.000Z</time>
      </trkpt>
      <trkpt lat="46.46451" lon="4.67631">
        <ele>232.60000610352</ele>
        <time>2024-05-20T08:21:36.000Z</time>
      </trkpt>
      <trkpt lat="46.46445" lon="4.6763">
        <ele>232.39999389648</ele>
        <time>2024-05-20T08:21:37.000Z</time>
      </trkpt>
      <trkpt lat="46.46438" lon="4.67629">
        <ele>232.39999389648</ele>
        <time>2024-05-20T08:21:38.000Z</time>
      </trkpt>
      <trkpt lat="46.46432" lon="4.67627">
        <ele>232.39999389648</ele>
        <time>2024-05-20T08:21:39.000Z</time>
      </trkpt>
      <trkpt lat="46.46427" lon="4.67625">
        <ele>232.39999389648</ele>
        <time>2024-05-20T08:21:40.000Z</time>
      </trkpt>
      <trkpt lat="46.4642" lon="4.67623">
        <ele>232.39999389648</ele>
        <time>2024-05-20T08:21:41.000Z</time>
      </trkpt>
      <trkpt lat="46.46414" lon="4.67622">
        <ele>232.60000610352</ele>
        <time>2024-05-20T08:21:42.000Z</time>
      </trkpt>
      <trkpt lat="46.46407" lon="4.67621">
        <ele>232.60000610352</ele>
        <time>2024-05-20T08:21:43.000Z</time>
      </trkpt>
      <trkpt lat="46.46401" lon="4.6762">
        <ele>232.60000610352</ele>
        <time>2024-05-20T08:21:44.000Z</time>
      </trkpt>
      <trkpt lat="46.46394" lon="4.67619">
        <ele>232.60000610352</ele>
        <time>2024-05-20T08:21:45.000Z</time>
      </trkpt>
      <trkpt lat="46.46388" lon="4.67618">
        <ele>232.60000610352</ele>
        <time>2024-05-20T08:21:46.000Z</time>
      </trkpt>
      <trkpt lat="46.46382" lon="4.67617">
        <ele>232.60000610352</ele>
        <time>2024-05-20T08:21:47.000Z</time>
      </trkpt>
      <trkpt lat="46.46376" lon="4.67615">
        <ele>232.80000305176</ele>
        <time>2024-05-20T08:21:48.000Z</time>
      </trkpt>
      <trkpt lat="46.4637" lon="4.67614">
        <ele>232.80000305176</ele>
        <time>2024-05-20T08:21:49.000Z</time>
      </trkpt>
      <trkpt lat="46.46363" lon="4.67613">
        <ele>232.80000305176</ele>
        <time>2024-05-20T08:21:50.000Z</time>
      </trkpt>
      <trkpt lat="46.46357" lon="4.67611">
        <ele>233</ele>
        <time>2024-05-20T08:21:51.000Z</time>
      </trkpt>
      <trkpt lat="46.46351" lon="4.6761">
        <ele>233</ele>
        <time>2024-05-20T08:21:52.000Z</time>
      </trkpt>
      <trkpt lat="46.46344" lon="4.67609">
        <ele>233</ele>
        <time>2024-05-20T08:21:53.000Z</time>
      </trkpt>
      <trkpt lat="46.46338" lon="4.67608">
        <ele>233</ele>
        <time>2024-05-20T08:21:54.000Z</time>
      </trkpt>
      <trkpt lat="46.46331" lon="4.67606">
        <ele>233</ele>
        <time>2024-05-20T08:21:55.000Z</time>
      </trkpt>
      <trkpt lat="46.46325" lon="4.67605">
        <ele>233</ele>
        <time>2024-05-20T08:21:56.000Z</time>
      </trkpt>
      <trkpt lat="46.46318" lon="4.67604">
        <ele>233</ele>
        <time>2024-05-20T08:21:57.000Z</time>
      </trkpt>
      <trkpt lat="46.46312" lon="4.67603">
        <ele>233</ele>
        <time>2024-05-20T08:21:58.000Z</time>
      </trkpt>
      <trkpt lat="46.46306" lon="4.67601">
        <ele>233</ele>
        <time>2024-05-20T08:21:59.000Z</time>
      </trkpt>
      <trkpt lat="46.46299" lon="4.676">
        <ele>233</ele>
        <time>2024-05-20T08:22:00.000Z</time>
      </trkpt>
      <trkpt lat="46.46293" lon="4.67599">
        <ele>233</ele>
        <time>2024-05-20T08:22:01.000Z</time>
      </trkpt>
      <trkpt lat="46.46286" lon="4.67597">
        <ele>233</ele>
        <time>2024-05-20T08:22:02.000Z</time>
      </trkpt>
      <trkpt lat="46.4628" lon="4.67596">
        <ele>233</ele>
        <time>2024-05-20T08:22:03.000Z</time>
      </trkpt>
      <trkpt lat="46.46273" lon="4.67595">
        <ele>233</ele>
        <time>2024-05-20T08:22:04.000Z</time>
      </trkpt>
      <trkpt lat="46.46267" lon="4.67594">
        <ele>233.19999694824</ele>
        <time>2024-05-20T08:22:05.000Z</time>
      </trkpt>
      <trkpt lat="46.4626" lon="4.67593">
        <ele>233.19999694824</ele>
        <time>2024-05-20T08:22:06.000Z</time>
      </trkpt>
      <trkpt lat="46.46254" lon="4.67591">
        <ele>233.19999694824</ele>
        <time>2024-05-20T08:22:07.000Z</time>
      </trkpt>
      <trkpt lat="46.46247" lon="4.6759">
        <ele>233.19999694824</ele>
        <time>2024-05-20T08:22:08.000Z</time>
      </trkpt>
      <trkpt lat="46.46241" lon="4.67589">
        <ele>233.19999694824</ele>
        <time>2024-05-20T08:22:09.000Z</time>
      </trkpt>
      <trkpt lat="46.46234" lon="4.67588">
        <ele>233.19999694824</ele>
        <time>2024-05-20T08:22:10.000Z</time>
      </trkpt>
      <trkpt lat="46.46227" lon="4.67586">
        <ele>233.19999694824</ele>
        <time>2024-05-20T08:22:11.000Z</time>
      </trkpt>
      <trkpt lat="46.46221" lon="4.67585">
        <ele>233.19999694824</ele>
        <time>2024-05-20T08:22:12.000Z</time>
      </trkpt>
      <trkpt lat="46.46215" lon="4.67584">
        <ele>233.19999694824</ele>
        <time>2024-05-20T08:22:13.000Z</time>
      </trkpt>
      <trkpt lat="46.46208" lon="4.67583">
        <ele>233.19999694824</ele>
        <time>2024-05-20T08:22:14.000Z</time>
      </trkpt>
      <trkpt lat="46.46202" lon="4.67581">
        <ele>233.19999694824</ele>
        <time>2024-05-20T08:22:15.000Z</time>
      </trkpt>
      <trkpt lat="46.46195" lon="4.6758">
        <ele>233.19999694824</ele>
        <time>2024-05-20T08:22:16.000Z</time>
      </trkpt>
      <trkpt lat="46.46189" lon="4.67579">
        <ele>233.19999694824</ele>
        <time>2024-05-20T08:22:17.000Z</time>
      </trkpt>
      <trkpt lat="46.46182" lon="4.67577">
        <ele>233.19999694824</ele>
        <time>2024-05-20T08:22:18.000Z</time>
      </trkpt>
      <trkpt lat="46.46175" lon="4.67576">
        <ele>233.19999694824</ele>
        <time>2024-05-20T08:22:19.000Z</time>
      </trkpt>
      <trkpt lat="46.46169" lon="4.67574">
        <ele>233.19999694824</ele>
        <time>2024-05-20T08:22:20.000Z</time>
      </trkpt>
      <trkpt lat="46.46162" lon="4.67573">
        <ele>233.19999694824</ele>
        <time>2024-05-20T08:22:21.000Z</time>
      </trkpt>
      <trkpt lat="46.46155" lon="4.67572">
        <ele>233.19999694824</ele>
        <time>2024-05-20T08:22:22.000Z</time>
      </trkpt>
      <trkpt lat="46.46149" lon="4.6757">
        <ele>233.19999694824</ele>
        <time>2024-05-20T08:22:23.000Z</time>
      </trkpt>
      <trkpt lat="46.46142" lon="4.67569">
        <ele>233.19999694824</ele>
        <time>2024-05-20T08:22:24.000Z</time>
      </trkpt>
      <trkpt lat="46.46135" lon="4.67568">
        <ele>233.19999694824</ele>
        <time>2024-05-20T08:22:25.000Z</time>
      </trkpt>
      <trkpt lat="46.46129" lon="4.67566">
        <ele>233.19999694824</ele>
        <time>2024-05-20T08:22:26.000Z</time>
      </trkpt>
      <trkpt lat="46.46122" lon="4.67565">
        <ele>233.19999694824</ele>
        <time>2024-05-20T08:22:27.000Z</time>
      </trkpt>
      <trkpt lat="46.46116" lon="4.67564">
        <ele>233.19999694824</ele>
        <time>2024-05-20T08:22:28.000Z</time>
      </trkpt>
      <trkpt lat="46.46109" lon="4.67563">
        <ele>233.19999694824</ele>
        <time>2024-05-20T08:22:29.000Z</time>
      </trkpt>
      <trkpt lat="46.46103" lon="4.67561">
        <ele>233.39999389648</ele>
        <time>2024-05-20T08:22:30.000Z</time>
      </trkpt>
      <trkpt lat="46.46096" lon="4.67559">
        <ele>233.39999389648</ele>
        <time>2024-05-20T08:22:31.000Z</time>
      </trkpt>
      <trkpt lat="46.4609" lon="4.67558">
        <ele>233.39999389648</ele>
        <time>2024-05-20T08:22:32.000Z</time>
      </trkpt>
      <trkpt lat="46.46084" lon="4.67556">
        <ele>233.39999389648</ele>
        <time>2024-05-20T08:22:33.000Z</time>
      </trkpt>
      <trkpt lat="46.46077" lon="4.67555">
        <ele>233.39999389648</ele>
        <time>2024-05-20T08:22:34.000Z</time>
      </trkpt>
      <trkpt lat="46.46071" lon="4.67554">
        <ele>233.39999389648</ele>
        <time>2024-05-20T08:22:35.000Z</time>
      </trkpt>
      <trkpt lat="46.46064" lon="4.67554">
        <ele>233.39999389648</ele>
        <time>2024-05-20T08:22:36.000Z</time>
      </trkpt>
      <trkpt lat="46.46058" lon="4.67552">
        <ele>233.60000610352</ele>
        <time>2024-05-20T08:22:37.000Z</time>
      </trkpt>
      <trkpt lat="46.46052" lon="4.67551">
        <ele>233.60000610352</ele>
        <time>2024-05-20T08:22:38.000Z</time>
      </trkpt>
      <trkpt lat="46.46046" lon="4.67549">
        <ele>233.80000305176</ele>
        <time>2024-05-20T08:22:39.000Z</time>
      </trkpt>
      <trkpt lat="46.4604" lon="4.67548">
        <ele>233.80000305176</ele>
        <time>2024-05-20T08:22:40.000Z</time>
      </trkpt>
      <trkpt lat="46.46033" lon="4.67548">
        <ele>234</ele>
        <time>2024-05-20T08:22:41.000Z</time>
      </trkpt>
      <trkpt lat="46.46027" lon="4.67547">
        <ele>234</ele>
        <time>2024-05-20T08:22:42.000Z</time>
      </trkpt>
      <trkpt lat="46.46021" lon="4.67546">
        <ele>234</ele>
        <time>2024-05-20T08:22:43.000Z</time>
      </trkpt>
      <trkpt lat="46.46015" lon="4.67545">
        <ele>234</ele>
        <time>2024-05-20T08:22:44.000Z</time>
      </trkpt>
      <trkpt lat="46.46009" lon="4.67543">
        <ele>234</ele>
        <time>2024-05-20T08:22:45.000Z</time>
      </trkpt>
      <trkpt lat="46.46003" lon="4.67542">
        <ele>234</ele>
        <time>2024-05-20T08:22:46.000Z</time>
      </trkpt>
      <trkpt lat="46.45996" lon="4.67541">
        <ele>234.19999694824</ele>
        <time>2024-05-20T08:22:47.000Z</time>
      </trkpt>
      <trkpt lat="46.4599" lon="4.6754">
        <ele>234.19999694824</ele>
        <time>2024-05-20T08:22:48.000Z</time>
      </trkpt>
      <trkpt lat="46.45984" lon="4.67539">
        <ele>234.19999694824</ele>
        <time>2024-05-20T08:22:49.000Z</time>
      </trkpt>
      <trkpt lat="46.45979" lon="4.67537">
        <ele>234.39999389648</ele>
        <time>2024-05-20T08:22:50.000Z</time>
      </trkpt>
      <trkpt lat="46.45973" lon="4.67536">
        <ele>234.39999389648</ele>
        <time>2024-05-20T08:22:51.000Z</time>
      </trkpt>
      <trkpt lat="46.45967" lon="4.67534">
        <ele>234.60000610352</ele>
        <time>2024-05-20T08:22:52.000Z</time>
      </trkpt>
      <trkpt lat="46.45961" lon="4.67533">
        <ele>234.60000610352</ele>
        <time>2024-05-20T08:22:53.000Z</time>
      </trkpt>
      <trkpt lat="46.45956" lon="4.67532">
        <ele>234.60000610352</ele>
        <time>2024-05-20T08:22:54.000Z</time>
      </trkpt>
      <trkpt lat="46.4595" lon="4.67532">
        <ele>234.80000305176</ele>
        <time>2024-05-20T08:22:55.000Z</time>
      </trkpt>
      <trkpt lat="46.45944" lon="4.67531">
        <ele>234.80000305176</ele>
        <time>2024-05-20T08:22:56.000Z</time>
      </trkpt>
      <trkpt lat="46.45938" lon="4.67529">
        <ele>234.80000305176</ele>
        <time>2024-05-20T08:22:57.000Z</time>
      </trkpt>
      <trkpt lat="46.45933" lon="4.67528">
        <ele>234.80000305176</ele>
        <time>2024-05-20T08:22:58.000Z</time>
      </trkpt>
      <trkpt lat="46.45927" lon="4.67527">
        <ele>234.80000305176</ele>
        <time>2024-05-20T08:22:59.000Z</time>
      </trkpt>
      <trkpt lat="46.45921" lon="4.67525">
        <ele>234.80000305176</ele>
        <time>2024-05-20T08:23:00.000Z</time>
      </trkpt>
      <trkpt lat="46.45915" lon="4.67524">
        <ele>234.80000305176</ele>
        <time>2024-05-20T08:23:01.000Z</time>
      </trkpt>
      <trkpt lat="46.4591" lon="4.67523">
        <ele>235</ele>
        <time>2024-05-20T08:23:02.000Z</time>
      </trkpt>
      <trkpt lat="46.45903" lon="4.67522">
        <ele>235</ele>
        <time>2024-05-20T08:23:03.000Z</time>
      </trkpt>
      <trkpt lat="46.45898" lon="4.67521">
        <ele>235.19999694824</ele>
        <time>2024-05-20T08:23:04.000Z</time>
      </trkpt>
      <trkpt lat="46.45892" lon="4.67521">
        <ele>235.19999694824</ele>
        <time>2024-05-20T08:23:05.000Z</time>
      </trkpt>
      <trkpt lat="46.45886" lon="4.67521">
        <ele>235.19999694824</ele>
        <time>2024-05-20T08:23:06.000Z</time>
      </trkpt>
      <trkpt lat="46.4588" lon="4.6752">
        <ele>235.19999694824</ele>
        <time>2024-05-20T08:23:07.000Z</time>
      </trkpt>
      <trkpt lat="46.45874" lon="4.67519">
        <ele>235.39999389648</ele>
        <time>2024-05-20T08:23:08.000Z</time>
      </trkpt>
      <trkpt lat="46.45868" lon="4.67518">
        <ele>235.60000610352</ele>
        <time>2024-05-20T08:23:09.000Z</time>
      </trkpt>
      <trkpt lat="46.45862" lon="4.67517">
        <ele>235.60000610352</ele>
        <time>2024-05-20T08:23:10.000Z</time>
      </trkpt>
      <trkpt lat="46.45855" lon="4.67516">
        <ele>235.60000610352</ele>
        <time>2024-05-20T08:23:11.000Z</time>
      </trkpt>
      <trkpt lat="46.4585" lon="4.67515">
        <ele>235.60000610352</ele>
        <time>2024-05-20T08:23:12.000Z</time>
      </trkpt>
      <trkpt lat="46.45844" lon="4.67515">
        <ele>235.60000610352</ele>
        <time>2024-05-20T08:23:13.000Z</time>
      </trkpt>
      <trkpt lat="46.45838" lon="4.67514">
        <ele>235.60000610352</ele>
        <time>2024-05-20T08:23:14.000Z</time>
      </trkpt>
      <trkpt lat="46.45832" lon="4.67512">
        <ele>235.80000305176</ele>
        <time>2024-05-20T08:23:15.000Z</time>
      </trkpt>
      <trkpt lat="46.45826" lon="4.67511">
        <ele>235.80000305176</ele>
        <time>2024-05-20T08:23:16.000Z</time>
      </trkpt>
      <trkpt lat="46.45821" lon="4.6751">
        <ele>236</ele>
        <time>2024-05-20T08:23:17.000Z</time>
      </trkpt>
      <trkpt lat="46.45815" lon="4.67509">
        <ele>236</ele>
        <time>2024-05-20T08:23:18.000Z</time>
      </trkpt>
      <trkpt lat="46.45808" lon="4.67507">
        <ele>236</ele>
        <time>2024-05-20T08:23:19.000Z</time>
      </trkpt>
      <trkpt lat="46.45802" lon="4.67505">
        <ele>236</ele>
        <time>2024-05-20T08:23:20.000Z</time>
      </trkpt>
      <trkpt lat="46.45796" lon="4.67503">
        <ele>236.19999694824</ele>
        <time>2024-05-20T08:23:21.000Z</time>
      </trkpt>
      <trkpt lat="46.45791" lon="4.67502">
        <ele>236.19999694824</ele>
        <time>2024-05-20T08:23:22.000Z</time>
      </trkpt>
      <trkpt lat="46.45785" lon="4.67501">
        <ele>236.19999694824</ele>
        <time>2024-05-20T08:23:23.000Z</time>
      </trkpt>
      <trkpt lat="46.45779" lon="4.67499">
        <ele>236.39999389648</ele>
        <time>2024-05-20T08:23:24.000Z</time>
      </trkpt>
      <trkpt lat="46.45773" lon="4.67498">
        <ele>236.39999389648</ele>
        <time>2024-05-20T08:23:25.000Z</time>
      </trkpt>
      <trkpt lat="46.45767" lon="4.67497">
        <ele>236.39999389648</ele>
        <time>2024-05-20T08:23:26.000Z</time>
      </trkpt>
      <trkpt lat="46.45762" lon="4.67496">
        <ele>236.39999389648</ele>
        <time>2024-05-20T08:23:27.000Z</time>
      </trkpt>
      <trkpt lat="46.45756" lon="4.67495">
        <ele>236.60000610352</ele>
        <time>2024-05-20T08:23:28.000Z</time>
      </trkpt>
      <trkpt lat="46.4575" lon="4.67494">
        <ele>236.60000610352</ele>
        <time>2024-05-20T08:23:29.000Z</time>
      </trkpt>
      <trkpt lat="46.45744" lon="4.67493">
        <ele>236.60000610352</ele>
        <time>2024-05-20T08:23:30.000Z</time>
      </trkpt>
      <trkpt lat="46.45738" lon="4.67491">
        <ele>236.80000305176</ele>
        <time>2024-05-20T08:23:31.000Z</time>
      </trkpt>
      <trkpt lat="46.45732" lon="4.6749">
        <ele>236.80000305176</ele>
        <time>2024-05-20T08:23:32.000Z</time>
      </trkpt>
      <trkpt lat="46.45727" lon="4.67489">
        <ele>236.80000305176</ele>
        <time>2024-05-20T08:23:33.000Z</time>
      </trkpt>
      <trkpt lat="46.45721" lon="4.67488">
        <ele>237</ele>
        <time>2024-05-20T08:23:34.000Z</time>
      </trkpt>
      <trkpt lat="46.45715" lon="4.67487">
        <ele>237</ele>
        <time>2024-05-20T08:23:35.000Z</time>
      </trkpt>
      <trkpt lat="46.45709" lon="4.67486">
        <ele>237.19999694824</ele>
        <time>2024-05-20T08:23:36.000Z</time>
      </trkpt>
      <trkpt lat="46.45703" lon="4.67484">
        <ele>237.39999389648</ele>
        <time>2024-05-20T08:23:37.000Z</time>
      </trkpt>
      <trkpt lat="46.45697" lon="4.67483">
        <ele>237.39999389648</ele>
        <time>2024-05-20T08:23:38.000Z</time>
      </trkpt>
      <trkpt lat="46.45691" lon="4.67482">
        <ele>237.39999389648</ele>
        <time>2024-05-20T08:23:39.000Z</time>
      </trkpt>
      <trkpt lat="46.45685" lon="4.6748">
        <ele>237.39999389648</ele>
        <time>2024-05-20T08:23:40.000Z</time>
      </trkpt>
      <trkpt lat="46.45679" lon="4.67479">
        <ele>237.39999389648</ele>
        <time>2024-05-20T08:23:41.000Z</time>
      </trkpt>
      <trkpt lat="46.45673" lon="4.67478">
        <ele>237.60000610352</ele>
        <time>2024-05-20T08:23:42.000Z</time>
      </trkpt>
      <trkpt lat="46.45668" lon="4.67477">
        <ele>237.60000610352</ele>
        <time>2024-05-20T08:23:43.000Z</time>
      </trkpt>
      <trkpt lat="46.45661" lon="4.67476">
        <ele>237.60000610352</ele>
        <time>2024-05-20T08:23:44.000Z</time>
      </trkpt>
      <trkpt lat="46.45656" lon="4.67475">
        <ele>237.60000610352</ele>
        <time>2024-05-20T08:23:45.000Z</time>
      </trkpt>
      <trkpt lat="46.4565" lon="4.67474">
        <ele>237.60000610352</ele>
        <time>2024-05-20T08:23:46.000Z</time>
      </trkpt>
      <trkpt lat="46.45644" lon="4.67474">
        <ele>237.60000610352</ele>
        <time>2024-05-20T08:23:47.000Z</time>
      </trkpt>
      <trkpt lat="46.45638" lon="4.67473">
        <ele>237.60000610352</ele>
        <time>2024-05-20T08:23:48.000Z</time>
      </trkpt>
      <trkpt lat="46.45632" lon="4.67472">
        <ele>237.60000610352</ele>
        <time>2024-05-20T08:23:49.000Z</time>
      </trkpt>
      <trkpt lat="46.45626" lon="4.6747">
        <ele>237.60000610352</ele>
        <time>2024-05-20T08:23:50.000Z</time>
      </trkpt>
      <trkpt lat="46.45621" lon="4.6747">
        <ele>237.60000610352</ele>
        <time>2024-05-20T08:23:51.000Z</time>
      </trkpt>
      <trkpt lat="46.45615" lon="4.67469">
        <ele>237.80000305176</ele>
        <time>2024-05-20T08:23:52.000Z</time>
      </trkpt>
      <trkpt lat="46.45609" lon="4.67469">
        <ele>237.80000305176</ele>
        <time>2024-05-20T08:23:53.000Z</time>
      </trkpt>
      <trkpt lat="46.45603" lon="4.67468">
        <ele>237.80000305176</ele>
        <time>2024-05-20T08:23:54.000Z</time>
      </trkpt>
      <trkpt lat="46.45597" lon="4.67468">
        <ele>238</ele>
        <time>2024-05-20T08:23:55.000Z</time>
      </trkpt>
      <trkpt lat="46.45591" lon="4.67468">
        <ele>238</ele>
        <time>2024-05-20T08:23:56.000Z</time>
      </trkpt>
      <trkpt lat="46.45585" lon="4.67468">
        <ele>238</ele>
        <time>2024-05-20T08:23:57.000Z</time>
      </trkpt>
      <trkpt lat="46.45579" lon="4.67468">
        <ele>238</ele>
        <time>2024-05-20T08:23:58.000Z</time>
      </trkpt>
      <trkpt lat="46.45574" lon="4.67467">
        <ele>238.19999694824</ele>
        <time>2024-05-20T08:23:59.000Z</time>
      </trkpt>
      <trkpt lat="46.45568" lon="4.67467">
        <ele>238.19999694824</ele>
        <time>2024-05-20T08:24:00.000Z</time>
      </trkpt>
      <trkpt lat="46.45562" lon="4.67467">
        <ele>238.39999389648</ele>
        <time>2024-05-20T08:24:01.000Z</time>
      </trkpt>
      <trkpt lat="46.45556" lon="4.67467">
        <ele>238.39999389648</ele>
        <time>2024-05-20T08:24:02.000Z</time>
      </trkpt>
      <trkpt lat="46.4555" lon="4.67467">
        <ele>238.39999389648</ele>
        <time>2024-05-20T08:24:03.000Z</time>
      </trkpt>
      <trkpt lat="46.45544" lon="4.67467">
        <ele>238.39999389648</ele>
        <time>2024-05-20T08:24:04.000Z</time>
      </trkpt>
      <trkpt lat="46.45538" lon="4.67467">
        <ele>238.39999389648</ele>
        <time>2024-05-20T08:24:05.000Z</time>
      </trkpt>
      <trkpt lat="46.45532" lon="4.67466">
        <ele>238.39999389648</ele>
        <time>2024-05-20T08:24:06.000Z</time>
      </trkpt>
      <trkpt lat="46.45526" lon="4.67466">
        <ele>238.39999389648</ele>
        <time>2024-05-20T08:24:07.000Z</time>
      </trkpt>
      <trkpt lat="46.4552" lon="4.67466">
        <ele>238.39999389648</ele>
        <time>2024-05-20T08:24:08.000Z</time>
      </trkpt>
      <trkpt lat="46.45514" lon="4.67466">
        <ele>238.39999389648</ele>
        <time>2024-05-20T08:24:09.000Z</time>
      </trkpt>
      <trkpt lat="46.45508" lon="4.67466">
        <ele>238.60000610352</ele>
        <time>2024-05-20T08:24:10.000Z</time>
      </trkpt>
      <trkpt lat="46.45502" lon="4.67466">
        <ele>238.60000610352</ele>
        <time>2024-05-20T08:24:11.000Z</time>
      </trkpt>
      <trkpt lat="46.45496" lon="4.67466">
        <ele>238.60000610352</ele>
        <time>2024-05-20T08:24:12.000Z</time>
      </trkpt>
      <trkpt lat="46.4549" lon="4.67466">
        <ele>238.80000305176</ele>
        <time>2024-05-20T08:24:13.000Z</time>
      </trkpt>
      <trkpt lat="46.45484" lon="4.67465">
        <ele>238.80000305176</ele>
        <time>2024-05-20T08:24:14.000Z</time>
      </trkpt>
      <trkpt lat="46.45478" lon="4.67466">
        <ele>238.80000305176</ele>
        <time>2024-05-20T08:24:15.000Z</time>
      </trkpt>
      <trkpt lat="46.45473" lon="4.67466">
        <ele>239</ele>
        <time>2024-05-20T08:24:16.000Z</time>
      </trkpt>
      <trkpt lat="46.45467" lon="4.67466">
        <ele>239</ele>
        <time>2024-05-20T08:24:17.000Z</time>
      </trkpt>
      <trkpt lat="46.45461" lon="4.67465">
        <ele>239.19999694824</ele>
        <time>2024-05-20T08:24:18.000Z</time>
      </trkpt>
      <trkpt lat="46.45455" lon="4.67465">
        <ele>239.19999694824</ele>
        <time>2024-05-20T08:24:19.000Z</time>
      </trkpt>
      <trkpt lat="46.4545" lon="4.67465">
        <ele>239.19999694824</ele>
        <time>2024-05-20T08:24:20.000Z</time>
      </trkpt>
      <trkpt lat="46.45444" lon="4.67465">
        <ele>239.19999694824</ele>
        <time>2024-05-20T08:24:21.000Z</time>
      </trkpt>
      <trkpt lat="46.45438" lon="4.67465">
        <ele>239.19999694824</ele>
        <time>2024-05-20T08:24:22.000Z</time>
      </trkpt>
      <trkpt lat="46.45432" lon="4.67465">
        <ele>239.19999694824</ele>
        <time>2024-05-20T08:24:23.000Z</time>
      </trkpt>
      <trkpt lat="46.45427" lon="4.67465">
        <ele>239.39999389648</ele>
        <time>2024-05-20T08:24:24.000Z</time>
      </trkpt>
      <trkpt lat="46.45421" lon="4.67465">
        <ele>239.39999389648</ele>
        <time>2024-05-20T08:24:25.000Z</time>
      </trkpt>
      <trkpt lat="46.45415" lon="4.67465">
        <ele>239.60000610352</ele>
        <time>2024-05-20T08:24:26.000Z</time>
      </trkpt>
      <trkpt lat="46.45409" lon="4.67465">
        <ele>239.60000610352</ele>
        <time>2024-05-20T08:24:27.000Z</time>
      </trkpt>
      <trkpt lat="46.45404" lon="4.67465">
        <ele>239.80000305176</ele>
        <time>2024-05-20T08:24:28.000Z</time>
      </trkpt>
      <trkpt lat="46.45397" lon="4.67465">
        <ele>239.80000305176</ele>
        <time>2024-05-20T08:24:29.000Z</time>
      </trkpt>
      <trkpt lat="46.45392" lon="4.67465">
        <ele>240</ele>
        <time>2024-05-20T08:24:30.000Z</time>
      </trkpt>
      <trkpt lat="46.45386" lon="4.67465">
        <ele>240</ele>
        <time>2024-05-20T08:24:31.000Z</time>
      </trkpt>
      <trkpt lat="46.4538" lon="4.67464">
        <ele>240.19999694824</ele>
        <time>2024-05-20T08:24:32.000Z</time>
      </trkpt>
      <trkpt lat="46.45374" lon="4.67464">
        <ele>240.19999694824</ele>
        <time>2024-05-20T08:24:33.000Z</time>
      </trkpt>
      <trkpt lat="46.45368" lon="4.67464">
        <ele>240.19999694824</ele>
        <time>2024-05-20T08:24:34.000Z</time>
      </trkpt>
      <trkpt lat="46.45362" lon="4.67463">
        <ele>240.39999389648</ele>
        <time>2024-05-20T08:24:35.000Z</time>
      </trkpt>
      <trkpt lat="46.45356" lon="4.67463">
        <ele>240.39999389648</ele>
        <time>2024-05-20T08:24:36.000Z</time>
      </trkpt>
      <trkpt lat="46.4535" lon="4.67462">
        <ele>240.39999389648</ele>
        <time>2024-05-20T08:24:37.000Z</time>
      </trkpt>
      <trkpt lat="46.45344" lon="4.67461">
        <ele>240.60000610352</ele>
        <time>2024-05-20T08:24:38.000Z</time>
      </trkpt>
      <trkpt lat="46.45338" lon="4.6746">
        <ele>240.60000610352</ele>
        <time>2024-05-20T08:24:39.000Z</time>
      </trkpt>
      <trkpt lat="46.45332" lon="4.67459">
        <ele>240.80000305176</ele>
        <time>2024-05-20T08:24:40.000Z</time>
      </trkpt>
      <trkpt lat="46.45326" lon="4.67457">
        <ele>240.80000305176</ele>
        <time>2024-05-20T08:24:41.000Z</time>
      </trkpt>
      <trkpt lat="46.4532" lon="4.67455">
        <ele>240.80000305176</ele>
        <time>2024-05-20T08:24:42.000Z</time>
      </trkpt>
      <trkpt lat="46.45315" lon="4.67454">
        <ele>240.80000305176</ele>
        <time>2024-05-20T08:24:43.000Z</time>
      </trkpt>
      <trkpt lat="46.45309" lon="4.67452">
        <ele>240.80000305176</ele>
        <time>2024-05-20T08:24:44.000Z</time>
      </trkpt>
      <trkpt lat="46.45303" lon="4.67451">
        <ele>241</ele>
        <time>2024-05-20T08:24:45.000Z</time>
      </trkpt>
      <trkpt lat="46.45297" lon="4.6745">
        <ele>241</ele>
        <time>2024-05-20T08:24:46.000Z</time>
      </trkpt>
      <trkpt lat="46.45292" lon="4.67449">
        <ele>241</ele>
        <time>2024-05-20T08:24:47.000Z</time>
      </trkpt>
      <trkpt lat="46.45286" lon="4.67447">
        <ele>241</ele>
        <time>2024-05-20T08:24:48.000Z</time>
      </trkpt>
      <trkpt lat="46.4528" lon="4.67445">
        <ele>241.19999694824</ele>
        <time>2024-05-20T08:24:49.000Z</time>
      </trkpt>
      <trkpt lat="46.45274" lon="4.67444">
        <ele>241.19999694824</ele>
        <time>2024-05-20T08:24:50.000Z</time>
      </trkpt>
      <trkpt lat="46.45269" lon="4.67442">
        <ele>241.19999694824</ele>
        <time>2024-05-20T08:24:51.000Z</time>
      </trkpt>
      <trkpt lat="46.45264" lon="4.6744">
        <ele>241.19999694824</ele>
        <time>2024-05-20T08:24:52.000Z</time>
      </trkpt>
      <trkpt lat="46.45259" lon="4.67438">
        <ele>241.19999694824</ele>
        <time>2024-05-20T08:24:53.000Z</time>
      </trkpt>
      <trkpt lat="46.45254" lon="4.67436">
        <ele>241.19999694824</ele>
        <time>2024-05-20T08:24:54.000Z</time>
      </trkpt>
      <trkpt lat="46.45248" lon="4.67435">
        <ele>241.39999389648</ele>
        <time>2024-05-20T08:24:55.000Z</time>
      </trkpt>
      <trkpt lat="46.45243" lon="4.67432">
        <ele>241.39999389648</ele>
        <time>2024-05-20T08:24:56.000Z</time>
      </trkpt>
      <trkpt lat="46.45238" lon="4.6743">
        <ele>241.60000610352</ele>
        <time>2024-05-20T08:24:57.000Z</time>
      </trkpt>
      <trkpt lat="46.45232" lon="4.67428">
        <ele>241.80000305176</ele>
        <time>2024-05-20T08:24:58.000Z</time>
      </trkpt>
      <trkpt lat="46.45226" lon="4.67426">
        <ele>241.80000305176</ele>
        <time>2024-05-20T08:24:59.000Z</time>
      </trkpt>
      <trkpt lat="46.4522" lon="4.67424">
        <ele>241.80000305176</ele>
        <time>2024-05-20T08:25:00.000Z</time>
      </trkpt>
      <trkpt lat="46.45215" lon="4.67422">
        <ele>241.80000305176</ele>
        <time>2024-05-20T08:25:01.000Z</time>
      </trkpt>
      <trkpt lat="46.45209" lon="4.6742">
        <ele>241.80000305176</ele>
        <time>2024-05-20T08:25:02.000Z</time>
      </trkpt>
      <trkpt lat="46.45204" lon="4.67418">
        <ele>242</ele>
        <time>2024-05-20T08:25:03.000Z</time>
      </trkpt>
      <trkpt lat="46.45197" lon="4.67416">
        <ele>242</ele>
        <time>2024-05-20T08:25:04.000Z</time>
      </trkpt>
      <trkpt lat="46.45191" lon="4.67414">
        <ele>242</ele>
        <time>2024-05-20T08:25:05.000Z</time>
      </trkpt>
      <trkpt lat="46.45185" lon="4.67413">
        <ele>242.19999694824</ele>
        <time>2024-05-20T08:25:06.000Z</time>
      </trkpt>
      <trkpt lat="46.45179" lon="4.67411">
        <ele>242.19999694824</ele>
        <time>2024-05-20T08:25:07.000Z</time>
      </trkpt>
      <trkpt lat="46.45173" lon="4.67408">
        <ele>242.19999694824</ele>
        <time>2024-05-20T08:25:08.000Z</time>
      </trkpt>
      <trkpt lat="46.45168" lon="4.67405">
        <ele>242.19999694824</ele>
        <time>2024-05-20T08:25:09.000Z</time>
      </trkpt>
      <trkpt lat="46.45162" lon="4.67402">
        <ele>242.39999389648</ele>
        <time>2024-05-20T08:25:10.000Z</time>
      </trkpt>
      <trkpt lat="46.45156" lon="4.67399">
        <ele>242.60000610352</ele>
        <time>2024-05-20T08:25:11.000Z</time>
      </trkpt>
      <trkpt lat="46.4515" lon="4.67396">
        <ele>242.60000610352</ele>
        <time>2024-05-20T08:25:12.000Z</time>
      </trkpt>
      <trkpt lat="46.45144" lon="4.67393">
        <ele>242.80000305176</ele>
        <time>2024-05-20T08:25:13.000Z</time>
      </trkpt>
      <trkpt lat="46.45138" lon="4.67391">
        <ele>242.80000305176</ele>
        <time>2024-05-20T08:25:14.000Z</time>
      </trkpt>
      <trkpt lat="46.45133" lon="4.67391">
        <ele>242.80000305176</ele>
        <time>2024-05-20T08:25:15.000Z</time>
      </trkpt>
      <trkpt lat="46.45128" lon="4.67389">
        <ele>243</ele>
        <time>2024-05-20T08:25:16.000Z</time>
      </trkpt>
      <trkpt lat="46.45122" lon="4.67387">
        <ele>243</ele>
        <time>2024-05-20T08:25:17.000Z</time>
      </trkpt>
      <trkpt lat="46.45116" lon="4.67386">
        <ele>243</ele>
        <time>2024-05-20T08:25:18.000Z</time>
      </trkpt>
      <trkpt lat="46.45109" lon="4.67384">
        <ele>243.19999694824</ele>
        <time>2024-05-20T08:25:19.000Z</time>
      </trkpt>
      <trkpt lat="46.45102" lon="4.67382">
        <ele>243.19999694824</ele>
        <time>2024-05-20T08:25:20.000Z</time>
      </trkpt>
      <trkpt lat="46.45096" lon="4.6738">
        <ele>243.39999389648</ele>
        <time>2024-05-20T08:25:21.000Z</time>
      </trkpt>
      <trkpt lat="46.4509" lon="4.67378">
        <ele>243.39999389648</ele>
        <time>2024-05-20T08:25:22.000Z</time>
      </trkpt>
      <trkpt lat="46.45083" lon="4.67376">
        <ele>243.60000610352</ele>
        <time>2024-05-20T08:25:23.000Z</time>
      </trkpt>
      <trkpt lat="46.45077" lon="4.67373">
        <ele>243.60000610352</ele>
        <time>2024-05-20T08:25:24.000Z</time>
      </trkpt>
      <trkpt lat="46.4507" lon="4.6737">
        <ele>243.60000610352</ele>
        <time>2024-05-20T08:25:25.000Z</time>
      </trkpt>
      <trkpt lat="46.45064" lon="4.67367">
        <ele>243.80000305176</ele>
        <time>2024-05-20T08:25:26.000Z</time>
      </trkpt>
      <trkpt lat="46.45059" lon="4.67365">
        <ele>243.80000305176</ele>
        <time>2024-05-20T08:25:27.000Z</time>
      </trkpt>
      <trkpt lat="46.45053" lon="4.67363">
        <ele>243.80000305176</ele>
        <time>2024-05-20T08:25:28.000Z</time>
      </trkpt>
      <trkpt lat="46.45047" lon="4.6736">
        <ele>244</ele>
        <time>2024-05-20T08:25:29.000Z</time>
      </trkpt>
      <trkpt lat="46.45041" lon="4.67357">
        <ele>244</ele>
        <time>2024-05-20T08:25:30.000Z</time>
      </trkpt>
      <trkpt lat="46.45036" lon="4.67354">
        <ele>244</ele>
        <time>2024-05-20T08:25:31.000Z</time>
      </trkpt>
      <trkpt lat="46.4503" lon="4.6735">
        <ele>244</ele>
        <time>2024-05-20T08:25:32.000Z</time>
      </trkpt>
      <trkpt lat="46.45025" lon="4.67347">
        <ele>244</ele>
        <time>2024-05-20T08:25:33.000Z</time>
      </trkpt>
      <trkpt lat="46.45019" lon="4.67344">
        <ele>244</ele>
        <time>2024-05-20T08:25:34.000Z</time>
      </trkpt>
      <trkpt lat="46.45014" lon="4.67341">
        <ele>244</ele>
        <time>2024-05-20T08:25:35.000Z</time>
      </trkpt>
      <trkpt lat="46.45009" lon="4.67337">
        <ele>244</ele>
        <time>2024-05-20T08:25:36.000Z</time>
      </trkpt>
      <trkpt lat="46.45004" lon="4.67333">
        <ele>244</ele>
        <time>2024-05-20T08:25:37.000Z</time>
      </trkpt>
      <trkpt lat="46.44999" lon="4.67329">
        <ele>244</ele>
        <time>2024-05-20T08:25:38.000Z</time>
      </trkpt>
      <trkpt lat="46.44994" lon="4.67326">
        <ele>244.19999694824</ele>
        <time>2024-05-20T08:25:39.000Z</time>
      </trkpt>
      <trkpt lat="46.44989" lon="4.67323">
        <ele>244.19999694824</ele>
        <time>2024-05-20T08:25:40.000Z</time>
      </trkpt>
      <trkpt lat="46.44983" lon="4.6732">
        <ele>244.19999694824</ele>
        <time>2024-05-20T08:25:41.000Z</time>
      </trkpt>
      <trkpt lat="46.44977" lon="4.67316">
        <ele>244.19999694824</ele>
        <time>2024-05-20T08:25:42.000Z</time>
      </trkpt>
      <trkpt lat="46.44972" lon="4.67309">
        <ele>244.39999389648</ele>
        <time>2024-05-20T08:25:43.000Z</time>
      </trkpt>
      <trkpt lat="46.44968" lon="4.67304">
        <ele>244.39999389648</ele>
        <time>2024-05-20T08:25:44.000Z</time>
      </trkpt>
      <trkpt lat="46.44962" lon="4.67298">
        <ele>244.39999389648</ele>
        <time>2024-05-20T08:25:45.000Z</time>
      </trkpt>
      <trkpt lat="46.44957" lon="4.67294">
        <ele>244.39999389648</ele>
        <time>2024-05-20T08:25:46.000Z</time>
      </trkpt>
      <trkpt lat="46.44953" lon="4.67291">
        <ele>244.60000610352</ele>
        <time>2024-05-20T08:25:47.000Z</time>
      </trkpt>
      <trkpt lat="46.44946" lon="4.67288">
        <ele>244.60000610352</ele>
        <time>2024-05-20T08:25:48.000Z</time>
      </trkpt>
      <trkpt lat="46.4494" lon="4.67285">
        <ele>244.80000305176</ele>
        <time>2024-05-20T08:25:49.000Z</time>
      </trkpt>
      <trkpt lat="46.44935" lon="4.67282">
        <ele>244.80000305176</ele>
        <time>2024-05-20T08:25:50.000Z</time>
      </trkpt>
      <trkpt lat="46.4493" lon="4.6728">
        <ele>245</ele>
        <time>2024-05-20T08:25:51.000Z</time>
      </trkpt>
      <trkpt lat="46.44925" lon="4.67279">
        <ele>245</ele>
        <time>2024-05-20T08:25:52.000Z</time>
      </trkpt>
      <trkpt lat="46.44919" lon="4.67277">
        <ele>245</ele>
        <time>2024-05-20T08:25:53.000Z</time>
      </trkpt>
      <trkpt lat="46.44913" lon="4.67277">
        <ele>245</ele>
        <time>2024-05-20T08:25:54.000Z</time>
      </trkpt>
      <trkpt lat="46.44907" lon="4.67275">
        <ele>245</ele>
        <time>2024-05-20T08:25:55.000Z</time>
      </trkpt>
      <trkpt lat="46.44901" lon="4.67274">
        <ele>245</ele>
        <time>2024-05-20T08:25:56.000Z</time>
      </trkpt>
      <trkpt lat="46.44895" lon="4.67274">
        <ele>245</ele>
        <time>2024-05-20T08:25:57.000Z</time>
      </trkpt>
      <trkpt lat="46.4489" lon="4.67274">
        <ele>245</ele>
        <time>2024-05-20T08:25:58.000Z</time>
      </trkpt>
      <trkpt lat="46.44884" lon="4.67273">
        <ele>245</ele>
        <time>2024-05-20T08:25:59.000Z</time>
      </trkpt>
      <trkpt lat="46.44879" lon="4.67272">
        <ele>245.19999694824</ele>
        <time>2024-05-20T08:26:00.000Z</time>
      </trkpt>
      <trkpt lat="46.44873" lon="4.67272">
        <ele>245.19999694824</ele>
        <time>2024-05-20T08:26:01.000Z</time>
      </trkpt>
      <trkpt lat="46.44867" lon="4.67272">
        <ele>245.39999389648</ele>
        <time>2024-05-20T08:26:02.000Z</time>
      </trkpt>
      <trkpt lat="46.44861" lon="4.67272">
        <ele>245.39999389648</ele>
        <time>2024-05-20T08:26:03.000Z</time>
      </trkpt>
      <trkpt lat="46.44856" lon="4.67271">
        <ele>245.60000610352</ele>
        <time>2024-05-20T08:26:04.000Z</time>
      </trkpt>
      <trkpt lat="46.44849" lon="4.6727">
        <ele>245.60000610352</ele>
        <time>2024-05-20T08:26:05.000Z</time>
      </trkpt>
      <trkpt lat="46.44844" lon="4.6727">
        <ele>245.60000610352</ele>
        <time>2024-05-20T08:26:06.000Z</time>
      </trkpt>
      <trkpt lat="46.44838" lon="4.67269">
        <ele>245.60000610352</ele>
        <time>2024-05-20T08:26:07.000Z</time>
      </trkpt>
      <trkpt lat="46.44832" lon="4.67269">
        <ele>245.80000305176</ele>
        <time>2024-05-20T08:26:08.000Z</time>
      </trkpt>
      <trkpt lat="46.44826" lon="4.67267">
        <ele>245.80000305176</ele>
        <time>2024-05-20T08:26:09.000Z</time>
      </trkpt>
      <trkpt lat="46.4482" lon="4.67265">
        <ele>245.80000305176</ele>
        <time>2024-05-20T08:26:10.000Z</time>
      </trkpt>
      <trkpt lat="46.44815" lon="4.67263">
        <ele>246</ele>
        <time>2024-05-20T08:26:11.000Z</time>
      </trkpt>
      <trkpt lat="46.44809" lon="4.67261">
        <ele>246</ele>
        <time>2024-05-20T08:26:12.000Z</time>
      </trkpt>
      <trkpt lat="46.44804" lon="4.67259">
        <ele>246</ele>
        <time>2024-05-20T08:26:13.000Z</time>
      </trkpt>
      <trkpt lat="46.44798" lon="4.67257">
        <ele>246</ele>
        <time>2024-05-20T08:26:14.000Z</time>
      </trkpt>
      <trkpt lat="46.44793" lon="4.67254">
        <ele>246</ele>
        <time>2024-05-20T08:26:15.000Z</time>
      </trkpt>
      <trkpt lat="46.44787" lon="4.67252">
        <ele>246.19999694824</ele>
        <time>2024-05-20T08:26:16.000Z</time>
      </trkpt>
      <trkpt lat="46.44782" lon="4.6725">
        <ele>246.39999389648</ele>
        <time>2024-05-20T08:26:17.000Z</time>
      </trkpt>
      <trkpt lat="46.44778" lon="4.67248">
        <ele>246.60000610352</ele>
        <time>2024-05-20T08:26:18.000Z</time>
      </trkpt>
      <trkpt lat="46.44772" lon="4.67246">
        <ele>246.60000610352</ele>
        <time>2024-05-20T08:26:19.000Z</time>
      </trkpt>
      <trkpt lat="46.44767" lon="4.67244">
        <ele>246.80000305176</ele>
        <time>2024-05-20T08:26:20.000Z</time>
      </trkpt>
      <trkpt lat="46.44762" lon="4.67242">
        <ele>246.80000305176</ele>
        <time>2024-05-20T08:26:21.000Z</time>
      </trkpt>
      <trkpt lat="46.44757" lon="4.67239">
        <ele>247</ele>
        <time>2024-05-20T08:26:22.000Z</time>
      </trkpt>
      <trkpt lat="46.44753" lon="4.67237">
        <ele>247</ele>
        <time>2024-05-20T08:26:23.000Z</time>
      </trkpt>
      <trkpt lat="46.44748" lon="4.67234">
        <ele>247</ele>
        <time>2024-05-20T08:26:24.000Z</time>
      </trkpt>
      <trkpt lat="46.44743" lon="4.67231">
        <ele>247.19999694824</ele>
        <time>2024-05-20T08:26:25.000Z</time>
      </trkpt>
      <trkpt lat="46.44738" lon="4.67229">
        <ele>247.19999694824</ele>
        <time>2024-05-20T08:26:26.000Z</time>
      </trkpt>
      <trkpt lat="46.44733" lon="4.67226">
        <ele>247.19999694824</ele>
        <time>2024-05-20T08:26:27.000Z</time>
      </trkpt>
      <trkpt lat="46.44729" lon="4.67224">
        <ele>247.19999694824</ele>
        <time>2024-05-20T08:26:28.000Z</time>
      </trkpt>
      <trkpt lat="46.44724" lon="4.67222">
        <ele>247.39999389648</ele>
        <time>2024-05-20T08:26:29.000Z</time>
      </trkpt>
      <trkpt lat="46.44718" lon="4.67219">
        <ele>247.39999389648</ele>
        <time>2024-05-20T08:26:30.000Z</time>
      </trkpt>
      <trkpt lat="46.44712" lon="4.67215">
        <ele>247.39999389648</ele>
        <time>2024-05-20T08:26:31.000Z</time>
      </trkpt>
      <trkpt lat="46.44707" lon="4.67212">
        <ele>247.39999389648</ele>
        <time>2024-05-20T08:26:32.000Z</time>
      </trkpt>
      <trkpt lat="46.44701" lon="4.67209">
        <ele>247.39999389648</ele>
        <time>2024-05-20T08:26:33.000Z</time>
      </trkpt>
      <trkpt lat="46.44695" lon="4.67207">
        <ele>247.60000610352</ele>
        <time>2024-05-20T08:26:34.000Z</time>
      </trkpt>
      <trkpt lat="46.4469" lon="4.67204">
        <ele>247.60000610352</ele>
        <time>2024-05-20T08:26:35.000Z</time>
      </trkpt>
      <trkpt lat="46.44684" lon="4.67202">
        <ele>247.60000610352</ele>
        <time>2024-05-20T08:26:36.000Z</time>
      </trkpt>
      <trkpt lat="46.44679" lon="4.67199">
        <ele>247.60000610352</ele>
        <time>2024-05-20T08:26:37.000Z</time>
      </trkpt>
      <trkpt lat="46.44673" lon="4.67195">
        <ele>247.60000610352</ele>
        <time>2024-05-20T08:26:38.000Z</time>
      </trkpt>
      <trkpt lat="46.44668" lon="4.67192">
        <ele>247.60000610352</ele>
        <time>2024-05-20T08:26:39.000Z</time>
      </trkpt>
      <trkpt lat="46.44661" lon="4.67189">
        <ele>247.80000305176</ele>
        <time>2024-05-20T08:26:40.000Z</time>
      </trkpt>
      <trkpt lat="46.44655" lon="4.67186">
        <ele>247.80000305176</ele>
        <time>2024-05-20T08:26:41.000Z</time>
      </trkpt>
      <trkpt lat="46.4465" lon="4.67182">
        <ele>247.80000305176</ele>
        <time>2024-05-20T08:26:42.000Z</time>
      </trkpt>
      <trkpt lat="46.44646" lon="4.6718">
        <ele>247.80000305176</ele>
        <time>2024-05-20T08:26:43.000Z</time>
      </trkpt>
      <trkpt lat="46.4464" lon="4.67177">
        <ele>247.80000305176</ele>
        <time>2024-05-20T08:26:44.000Z</time>
      </trkpt>
      <trkpt lat="46.44635" lon="4.67173">
        <ele>247.80000305176</ele>
        <time>2024-05-20T08:26:45.000Z</time>
      </trkpt>
      <trkpt lat="46.44629" lon="4.6717">
        <ele>248</ele>
        <time>2024-05-20T08:26:46.000Z</time>
      </trkpt>
      <trkpt lat="46.44623" lon="4.67167">
        <ele>248.19999694824</ele>
        <time>2024-05-20T08:26:47.000Z</time>
      </trkpt>
      <trkpt lat="46.44616" lon="4.67164">
        <ele>248.19999694824</ele>
        <time>2024-05-20T08:26:48.000Z</time>
      </trkpt>
      <trkpt lat="46.4461" lon="4.67161">
        <ele>248.19999694824</ele>
        <time>2024-05-20T08:26:49.000Z</time>
      </trkpt>
      <trkpt lat="46.44604" lon="4.67159">
        <ele>248.19999694824</ele>
        <time>2024-05-20T08:26:50.000Z</time>
      </trkpt>
      <trkpt lat="46.44598" lon="4.67156">
        <ele>248.19999694824</ele>
        <time>2024-05-20T08:26:51.000Z</time>
      </trkpt>
      <trkpt lat="46.44593" lon="4.67154">
        <ele>248.19999694824</ele>
        <time>2024-05-20T08:26:52.000Z</time>
      </trkpt>
      <trkpt lat="46.44586" lon="4.67151">
        <ele>248.19999694824</ele>
        <time>2024-05-20T08:26:53.000Z</time>
      </trkpt>
      <trkpt lat="46.44579" lon="4.67148">
        <ele>248.19999694824</ele>
        <time>2024-05-20T08:26:54.000Z</time>
      </trkpt>
      <trkpt lat="46.44573" lon="4.67144">
        <ele>248.19999694824</ele>
        <time>2024-05-20T08:26:55.000Z</time>
      </trkpt>
      <trkpt lat="46.44566" lon="4.67142">
        <ele>248.39999389648</ele>
        <time>2024-05-20T08:26:56.000Z</time>
      </trkpt>
      <trkpt lat="46.44561" lon="4.6714">
        <ele>248.39999389648</ele>
        <time>2024-05-20T08:26:57.000Z</time>
      </trkpt>
      <trkpt lat="46.44555" lon="4.67137">
        <ele>248.60000610352</ele>
        <time>2024-05-20T08:26:58.000Z</time>
      </trkpt>
      <trkpt lat="46.44548" lon="4.67135">
        <ele>248.60000610352</ele>
        <time>2024-05-20T08:26:59.000Z</time>
      </trkpt>
      <trkpt lat="46.44542" lon="4.67135">
        <ele>248.60000610352</ele>
        <time>2024-05-20T08:27:00.000Z</time>
      </trkpt>
      <trkpt lat="46.44536" lon="4.67134">
        <ele>248.60000610352</ele>
        <time>2024-05-20T08:27:01.000Z</time>
      </trkpt>
      <trkpt lat="46.4453" lon="4.67131">
        <ele>248.60000610352</ele>
        <time>2024-05-20T08:27:02.000Z</time>
      </trkpt>
      <trkpt lat="46.44524" lon="4.67129">
        <ele>248.60000610352</ele>
        <time>2024-05-20T08:27:03.000Z</time>
      </trkpt>
      <trkpt lat="46.44518" lon="4.67127">
        <ele>248.60000610352</ele>
        <time>2024-05-20T08:27:04.000Z</time>
      </trkpt>
      <trkpt lat="46.44512" lon="4.67125">
        <ele>248.60000610352</ele>
        <time>2024-05-20T08:27:05.000Z</time>
      </trkpt>
      <trkpt lat="46.44506" lon="4.67125">
        <ele>248.80000305176</ele>
        <time>2024-05-20T08:27:06.000Z</time>
      </trkpt>
      <trkpt lat="46.445" lon="4.67124">
        <ele>248.80000305176</ele>
        <time>2024-05-20T08:27:07.000Z</time>
      </trkpt>
      <trkpt lat="46.44494" lon="4.67123">
        <ele>248.80000305176</ele>
        <time>2024-05-20T08:27:08.000Z</time>
      </trkpt>
      <trkpt lat="46.44488" lon="4.67123">
        <ele>248.80000305176</ele>
        <time>2024-05-20T08:27:09.000Z</time>
      </trkpt>
      <trkpt lat="46.44482" lon="4.67123">
        <ele>248.80000305176</ele>
        <time>2024-05-20T08:27:10.000Z</time>
      </trkpt>
      <trkpt lat="46.44476" lon="4.67122">
        <ele>248.80000305176</ele>
        <time>2024-05-20T08:27:11.000Z</time>
      </trkpt>
      <trkpt lat="46.4447" lon="4.67121">
        <ele>248.80000305176</ele>
        <time>2024-05-20T08:27:12.000Z</time>
      </trkpt>
      <trkpt lat="46.44464" lon="4.67121">
        <ele>248.80000305176</ele>
        <time>2024-05-20T08:27:13.000Z</time>
      </trkpt>
      <trkpt lat="46.44458" lon="4.67121">
        <ele>248.80000305176</ele>
        <time>2024-05-20T08:27:14.000Z</time>
      </trkpt>
      <trkpt lat="46.44452" lon="4.67121">
        <ele>248.80000305176</ele>
        <time>2024-05-20T08:27:15.000Z</time>
      </trkpt>
      <trkpt lat="46.44446" lon="4.67122">
        <ele>248.80000305176</ele>
        <time>2024-05-20T08:27:16.000Z</time>
      </trkpt>
      <trkpt lat="46.4444" lon="4.67122">
        <ele>248.80000305176</ele>
        <time>2024-05-20T08:27:17.000Z</time>
      </trkpt>
      <trkpt lat="46.44435" lon="4.67122">
        <ele>248.80000305176</ele>
        <time>2024-05-20T08:27:18.000Z</time>
      </trkpt>
      <trkpt lat="46.44428" lon="4.67122">
        <ele>248.80000305176</ele>
        <time>2024-05-20T08:27:19.000Z</time>
      </trkpt>
      <trkpt lat="46.44422" lon="4.67123">
        <ele>248.80000305176</ele>
        <time>2024-05-20T08:27:20.000Z</time>
      </trkpt>
      <trkpt lat="46.44416" lon="4.67123">
        <ele>248.80000305176</ele>
        <time>2024-05-20T08:27:21.000Z</time>
      </trkpt>
      <trkpt lat="46.4441" lon="4.67124">
        <ele>248.80000305176</ele>
        <time>2024-05-20T08:27:22.000Z</time>
      </trkpt>
      <trkpt lat="46.44404" lon="4.67125">
        <ele>248.80000305176</ele>
        <time>2024-05-20T08:27:23.000Z</time>
      </trkpt>
      <trkpt lat="46.44398" lon="4.67127">
        <ele>248.80000305176</ele>
        <time>2024-05-20T08:27:24.000Z</time>
      </trkpt>
      <trkpt lat="46.44393" lon="4.67128">
        <ele>248.80000305176</ele>
        <time>2024-05-20T08:27:25.000Z</time>
      </trkpt>
      <trkpt lat="46.44386" lon="4.67129">
        <ele>248.80000305176</ele>
        <time>2024-05-20T08:27:26.000Z</time>
      </trkpt>
      <trkpt lat="46.4438" lon="4.67131">
        <ele>248.80000305176</ele>
        <time>2024-05-20T08:27:27.000Z</time>
      </trkpt>
      <trkpt lat="46.44374" lon="4.67132">
        <ele>248.80000305176</ele>
        <time>2024-05-20T08:27:28.000Z</time>
      </trkpt>
      <trkpt lat="46.44369" lon="4.67133">
        <ele>248.80000305176</ele>
        <time>2024-05-20T08:27:29.000Z</time>
      </trkpt>
      <trkpt lat="46.44364" lon="4.67135">
        <ele>248.80000305176</ele>
        <time>2024-05-20T08:27:30.000Z</time>
      </trkpt>
      <trkpt lat="46.44358" lon="4.67137">
        <ele>248.60000610352</ele>
        <time>2024-05-20T08:27:31.000Z</time>
      </trkpt>
      <trkpt lat="46.44353" lon="4.67139">
        <ele>248.60000610352</ele>
        <time>2024-05-20T08:27:32.000Z</time>
      </trkpt>
      <trkpt lat="46.44348" lon="4.6714">
        <ele>248.60000610352</ele>
        <time>2024-05-20T08:27:33.000Z</time>
      </trkpt>
      <trkpt lat="46.44344" lon="4.67141">
        <ele>248.60000610352</ele>
        <time>2024-05-20T08:27:34.000Z</time>
      </trkpt>
      <trkpt lat="46.44341" lon="4.67142">
        <ele>248.60000610352</ele>
        <time>2024-05-20T08:27:35.000Z</time>
      </trkpt>
      <trkpt lat="46.44337" lon="4.67143">
        <ele>248.80000305176</ele>
        <time>2024-05-20T08:27:36.000Z</time>
      </trkpt>
      <trkpt lat="46.44332" lon="4.67144">
        <ele>249</ele>
        <time>2024-05-20T08:27:37.000Z</time>
      </trkpt>
      <trkpt lat="46.44327" lon="4.67145">
        <ele>248.80000305176</ele>
        <time>2024-05-20T08:27:38.000Z</time>
      </trkpt>
      <trkpt lat="46.44322" lon="4.67146">
        <ele>248.80000305176</ele>
        <time>2024-05-20T08:27:39.000Z</time>
      </trkpt>
      <trkpt lat="46.44317" lon="4.67147">
        <ele>248.80000305176</ele>
        <time>2024-05-20T08:27:40.000Z</time>
      </trkpt>
      <trkpt lat="46.44311" lon="4.67149">
        <ele>248.80000305176</ele>
        <time>2024-05-20T08:27:41.000Z</time>
      </trkpt>
      <trkpt lat="46.44305" lon="4.6715">
        <ele>248.60000610352</ele>
        <time>2024-05-20T08:27:42.000Z</time>
      </trkpt>
      <trkpt lat="46.44299" lon="4.67152">
        <ele>248.60000610352</ele>
        <time>2024-05-20T08:27:43.000Z</time>
      </trkpt>
      <trkpt lat="46.44293" lon="4.67153">
        <ele>248.60000610352</ele>
        <time>2024-05-20T08:27:44.000Z</time>
      </trkpt>
      <trkpt lat="46.44287" lon="4.67155">
        <ele>248.39999389648</ele>
        <time>2024-05-20T08:27:45.000Z</time>
      </trkpt>
      <trkpt lat="46.44281" lon="4.67157">
        <ele>248.39999389648</ele>
        <time>2024-05-20T08:27:46.000Z</time>
      </trkpt>
      <trkpt lat="46.44275" lon="4.67158">
        <ele>248.39999389648</ele>
        <time>2024-05-20T08:27:47.000Z</time>
      </trkpt>
      <trkpt lat="46.44269" lon="4.6716">
        <ele>248.39999389648</ele>
        <time>2024-05-20T08:27:48.000Z</time>
      </trkpt>
      <trkpt lat="46.44263" lon="4.67162">
        <ele>248.39999389648</ele>
        <time>2024-05-20T08:27:49.000Z</time>
      </trkpt>
      <trkpt lat="46.44258" lon="4.67163">
        <ele>248.39999389648</ele>
        <time>2024-05-20T08:27:50.000Z</time>
      </trkpt>
      <trkpt lat="46.4425" lon="4.67164">
        <ele>248.39999389648</ele>
        <time>2024-05-20T08:27:51.000Z</time>
      </trkpt>
      <trkpt lat="46.44244" lon="4.67166">
        <ele>248.39999389648</ele>
        <time>2024-05-20T08:27:52.000Z</time>
      </trkpt>
      <trkpt lat="46.44237" lon="4.67168">
        <ele>248.39999389648</ele>
        <time>2024-05-20T08:27:53.000Z</time>
      </trkpt>
      <trkpt lat="46.44231" lon="4.67169">
        <ele>248.39999389648</ele>
        <time>2024-05-20T08:27:54.000Z</time>
      </trkpt>
      <trkpt lat="46.44224" lon="4.67171">
        <ele>248.39999389648</ele>
        <time>2024-05-20T08:27:55.000Z</time>
      </trkpt>
      <trkpt lat="46.44218" lon="4.67173">
        <ele>248.39999389648</ele>
        <time>2024-05-20T08:27:56.000Z</time>
      </trkpt>
      <trkpt lat="46.44211" lon="4.67174">
        <ele>248.39999389648</ele>
        <time>2024-05-20T08:27:57.000Z</time>
      </trkpt>
      <trkpt lat="46.44205" lon="4.67176">
        <ele>248.39999389648</ele>
        <time>2024-05-20T08:27:58.000Z</time>
      </trkpt>
      <trkpt lat="46.44199" lon="4.67178">
        <ele>248.39999389648</ele>
        <time>2024-05-20T08:27:59.000Z</time>
      </trkpt>
      <trkpt lat="46.44192" lon="4.67179">
        <ele>248.19999694824</ele>
        <time>2024-05-20T08:28:00.000Z</time>
      </trkpt>
      <trkpt lat="46.44187" lon="4.6718">
        <ele>248.19999694824</ele>
        <time>2024-05-20T08:28:01.000Z</time>
      </trkpt>
      <trkpt lat="46.44181" lon="4.67182">
        <ele>248.19999694824</ele>
        <time>2024-05-20T08:28:02.000Z</time>
      </trkpt>
      <trkpt lat="46.44174" lon="4.67184">
        <ele>248.39999389648</ele>
        <time>2024-05-20T08:28:03.000Z</time>
      </trkpt>
      <trkpt lat="46.44168" lon="4.67185">
        <ele>248.39999389648</ele>
        <time>2024-05-20T08:28:04.000Z</time>
      </trkpt>
      <trkpt lat="46.44163" lon="4.67186">
        <ele>248.60000610352</ele>
        <time>2024-05-20T08:28:05.000Z</time>
      </trkpt>
      <trkpt lat="46.44156" lon="4.67188">
        <ele>248.60000610352</ele>
        <time>2024-05-20T08:28:06.000Z</time>
      </trkpt>
      <trkpt lat="46.4415" lon="4.67189">
        <ele>248.60000610352</ele>
        <time>2024-05-20T08:28:07.000Z</time>
      </trkpt>
      <trkpt lat="46.44144" lon="4.67191">
        <ele>248.60000610352</ele>
        <time>2024-05-20T08:28:08.000Z</time>
      </trkpt>
      <trkpt lat="46.44137" lon="4.67193">
        <ele>248.60000610352</ele>
        <time>2024-05-20T08:28:09.000Z</time>
      </trkpt>
      <trkpt lat="46.44131" lon="4.67194">
        <ele>248.60000610352</ele>
        <time>2024-05-20T08:28:10.000Z</time>
      </trkpt>
      <trkpt lat="46.44125" lon="4.67196">
        <ele>248.60000610352</ele>
        <time>2024-05-20T08:28:11.000Z</time>
      </trkpt>
      <trkpt lat="46.44119" lon="4.67197">
        <ele>248.80000305176</ele>
        <time>2024-05-20T08:28:12.000Z</time>
      </trkpt>
      <trkpt lat="46.44113" lon="4.67199">
        <ele>248.80000305176</ele>
        <time>2024-05-20T08:28:13.000Z</time>
      </trkpt>
      <trkpt lat="46.44106" lon="4.672">
        <ele>248.80000305176</ele>
        <time>2024-05-20T08:28:14.000Z</time>
      </trkpt>
      <trkpt lat="46.441" lon="4.67202">
        <ele>248.80000305176</ele>
        <time>2024-05-20T08:28:15.000Z</time>
      </trkpt>
      <trkpt lat="46.44093" lon="4.67203">
        <ele>248.80000305176</ele>
        <time>2024-05-20T08:28:16.000Z</time>
      </trkpt>
      <trkpt lat="46.44087" lon="4.67205">
        <ele>248.80000305176</ele>
        <time>2024-05-20T08:28:17.000Z</time>
      </trkpt>
      <trkpt lat="46.44081" lon="4.67207">
        <ele>248.80000305176</ele>
        <time>2024-05-20T08:28:18.000Z</time>
      </trkpt>
      <trkpt lat="46.44075" lon="4.67208">
        <ele>248.80000305176</ele>
        <time>2024-05-20T08:28:19.000Z</time>
      </trkpt>
      <trkpt lat="46.44069" lon="4.6721">
        <ele>249</ele>
        <time>2024-05-20T08:28:20.000Z</time>
      </trkpt>
      <trkpt lat="46.44063" lon="4.67211">
        <ele>249</ele>
        <time>2024-05-20T08:28:21.000Z</time>
      </trkpt>
      <trkpt lat="46.44057" lon="4.67212">
        <ele>249</ele>
        <time>2024-05-20T08:28:22.000Z</time>
      </trkpt>
      <trkpt lat="46.44051" lon="4.67213">
        <ele>249</ele>
        <time>2024-05-20T08:28:23.000Z</time>
      </trkpt>
      <trkpt lat="46.44044" lon="4.67214">
        <ele>249</ele>
        <time>2024-05-20T08:28:24.000Z</time>
      </trkpt>
      <trkpt lat="46.44038" lon="4.67216">
        <ele>249</ele>
        <time>2024-05-20T08:28:25.000Z</time>
      </trkpt>
      <trkpt lat="46.44031" lon="4.67217">
        <ele>249</ele>
        <time>2024-05-20T08:28:26.000Z</time>
      </trkpt>
      <trkpt lat="46.44025" lon="4.67217">
        <ele>249</ele>
        <time>2024-05-20T08:28:27.000Z</time>
      </trkpt>
      <trkpt lat="46.44019" lon="4.67218">
        <ele>249</ele>
        <time>2024-05-20T08:28:28.000Z</time>
      </trkpt>
      <trkpt lat="46.44013" lon="4.67219">
        <ele>249</ele>
        <time>2024-05-20T08:28:29.000Z</time>
      </trkpt>
      <trkpt lat="46.44007" lon="4.6722">
        <ele>249</ele>
        <time>2024-05-20T08:28:30.000Z</time>
      </trkpt>
      <trkpt lat="46.44" lon="4.67221">
        <ele>249</ele>
        <time>2024-05-20T08:28:31.000Z</time>
      </trkpt>
      <trkpt lat="46.43994" lon="4.67222">
        <ele>249</ele>
        <time>2024-05-20T08:28:32.000Z</time>
      </trkpt>
      <trkpt lat="46.43988" lon="4.67223">
        <ele>249</ele>
        <time>2024-05-20T08:28:33.000Z</time>
      </trkpt>
      <trkpt lat="46.43982" lon="4.67224">
        <ele>249</ele>
        <time>2024-05-20T08:28:34.000Z</time>
      </trkpt>
      <trkpt lat="46.43975" lon="4.67225">
        <ele>249</ele>
        <time>2024-05-20T08:28:35.000Z</time>
      </trkpt>
      <trkpt lat="46.43969" lon="4.67225">
        <ele>249</ele>
        <time>2024-05-20T08:28:36.000Z</time>
      </trkpt>
      <trkpt lat="46.43963" lon="4.67225">
        <ele>249</ele>
        <time>2024-05-20T08:28:37.000Z</time>
      </trkpt>
      <trkpt lat="46.43956" lon="4.67226">
        <ele>249</ele>
        <time>2024-05-20T08:28:38.000Z</time>
      </trkpt>
      <trkpt lat="46.4395" lon="4.67226">
        <ele>249</ele>
        <time>2024-05-20T08:28:39.000Z</time>
      </trkpt>
      <trkpt lat="46.43943" lon="4.67227">
        <ele>249</ele>
        <time>2024-05-20T08:28:40.000Z</time>
      </trkpt>
      <trkpt lat="46.43937" lon="4.67227">
        <ele>249</ele>
        <time>2024-05-20T08:28:41.000Z</time>
      </trkpt>
      <trkpt lat="46.4393" lon="4.67227">
        <ele>249</ele>
        <time>2024-05-20T08:28:42.000Z</time>
      </trkpt>
      <trkpt lat="46.43924" lon="4.67228">
        <ele>249</ele>
        <time>2024-05-20T08:28:43.000Z</time>
      </trkpt>
      <trkpt lat="46.43918" lon="4.67228">
        <ele>248.80000305176</ele>
        <time>2024-05-20T08:28:44.000Z</time>
      </trkpt>
      <trkpt lat="46.43911" lon="4.67229">
        <ele>248.80000305176</ele>
        <time>2024-05-20T08:28:45.000Z</time>
      </trkpt>
      <trkpt lat="46.43905" lon="4.67229">
        <ele>248.80000305176</ele>
        <time>2024-05-20T08:28:46.000Z</time>
      </trkpt>
      <trkpt lat="46.43899" lon="4.6723">
        <ele>248.80000305176</ele>
        <time>2024-05-20T08:28:47.000Z</time>
      </trkpt>
      <trkpt lat="46.43893" lon="4.6723">
        <ele>248.80000305176</ele>
        <time>2024-05-20T08:28:48.000Z</time>
      </trkpt>
      <trkpt lat="46.43887" lon="4.67231">
        <ele>248.80000305176</ele>
        <time>2024-05-20T08:28:49.000Z</time>
      </trkpt>
      <trkpt lat="46.4388" lon="4.67231">
        <ele>248.80000305176</ele>
        <time>2024-05-20T08:28:50.000Z</time>
      </trkpt>
      <trkpt lat="46.43874" lon="4.67231">
        <ele>248.80000305176</ele>
        <time>2024-05-20T08:28:51.000Z</time>
      </trkpt>
      <trkpt lat="46.43868" lon="4.67231">
        <ele>248.80000305176</ele>
        <time>2024-05-20T08:28:52.000Z</time>
      </trkpt>
      <trkpt lat="46.43861" lon="4.67231">
        <ele>248.80000305176</ele>
        <time>2024-05-20T08:28:53.000Z</time>
      </trkpt>
      <trkpt lat="46.43854" lon="4.67231">
        <ele>248.80000305176</ele>
        <time>2024-05-20T08:28:54.000Z</time>
      </trkpt>
      <trkpt lat="46.43848" lon="4.67232">
        <ele>248.80000305176</ele>
        <time>2024-05-20T08:28:55.000Z</time>
      </trkpt>
      <trkpt lat="46.43842" lon="4.67232">
        <ele>248.80000305176</ele>
        <time>2024-05-20T08:28:56.000Z</time>
      </trkpt>
      <trkpt lat="46.43836" lon="4.67233">
        <ele>248.80000305176</ele>
        <time>2024-05-20T08:28:57.000Z</time>
      </trkpt>
      <trkpt lat="46.43829" lon="4.67233">
        <ele>248.80000305176</ele>
        <time>2024-05-20T08:28:58.000Z</time>
      </trkpt>
      <trkpt lat="46.43823" lon="4.67234">
        <ele>248.80000305176</ele>
        <time>2024-05-20T08:28:59.000Z</time>
      </trkpt>
      <trkpt lat="46.43817" lon="4.67234">
        <ele>248.80000305176</ele>
        <time>2024-05-20T08:29:00.000Z</time>
      </trkpt>
      <trkpt lat="46.43811" lon="4.67235">
        <ele>248.80000305176</ele>
        <time>2024-05-20T08:29:01.000Z</time>
      </trkpt>
      <trkpt lat="46.43804" lon="4.67235">
        <ele>248.80000305176</ele>
        <time>2024-05-20T08:29:02.000Z</time>
      </trkpt>
      <trkpt lat="46.43798" lon="4.67235">
        <ele>248.80000305176</ele>
        <time>2024-05-20T08:29:03.000Z</time>
      </trkpt>
      <trkpt lat="46.43792" lon="4.67237">
        <ele>248.80000305176</ele>
        <time>2024-05-20T08:29:04.000Z</time>
      </trkpt>
      <trkpt lat="46.43785" lon="4.67237">
        <ele>248.80000305176</ele>
        <time>2024-05-20T08:29:05.000Z</time>
      </trkpt>
      <trkpt lat="46.43779" lon="4.67238">
        <ele>249</ele>
        <time>2024-05-20T08:29:06.000Z</time>
      </trkpt>
      <trkpt lat="46.43772" lon="4.67238">
        <ele>249</ele>
        <time>2024-05-20T08:29:07.000Z</time>
      </trkpt>
      <trkpt lat="46.43766" lon="4.67238">
        <ele>249</ele>
        <time>2024-05-20T08:29:08.000Z</time>
      </trkpt>
      <trkpt lat="46.43759" lon="4.67239">
        <ele>249</ele>
        <time>2024-05-20T08:29:09.000Z</time>
      </trkpt>
      <trkpt lat="46.43753" lon="4.67239">
        <ele>249</ele>
        <time>2024-05-20T08:29:10.000Z</time>
      </trkpt>
      <trkpt lat="46.43747" lon="4.67239">
        <ele>248.80000305176</ele>
        <time>2024-05-20T08:29:11.000Z</time>
      </trkpt>
      <trkpt lat="46.43741" lon="4.6724">
        <ele>248.80000305176</ele>
        <time>2024-05-20T08:29:12.000Z</time>
      </trkpt>
      <trkpt lat="46.43734" lon="4.6724">
        <ele>248.80000305176</ele>
        <time>2024-05-20T08:29:13.000Z</time>
      </trkpt>
      <trkpt lat="46.43728" lon="4.67241">
        <ele>248.80000305176</ele>
        <time>2024-05-20T08:29:14.000Z</time>
      </trkpt>
      <trkpt lat="46.43721" lon="4.67241">
        <ele>248.80000305176</ele>
        <time>2024-05-20T08:29:15.000Z</time>
      </trkpt>
      <trkpt lat="46.43715" lon="4.67242">
        <ele>248.60000610352</ele>
        <time>2024-05-20T08:29:16.000Z</time>
      </trkpt>
      <trkpt lat="46.43709" lon="4.67242">
        <ele>248.60000610352</ele>
        <time>2024-05-20T08:29:17.000Z</time>
      </trkpt>
      <trkpt lat="46.43702" lon="4.67242">
        <ele>248.60000610352</ele>
        <time>2024-05-20T08:29:18.000Z</time>
      </trkpt>
      <trkpt lat="46.43696" lon="4.67243">
        <ele>248.60000610352</ele>
        <time>2024-05-20T08:29:19.000Z</time>
      </trkpt>
      <trkpt lat="46.4369" lon="4.67244">
        <ele>248.60000610352</ele>
        <time>2024-05-20T08:29:20.000Z</time>
      </trkpt>
      <trkpt lat="46.43684" lon="4.67245">
        <ele>248.60000610352</ele>
        <time>2024-05-20T08:29:21.000Z</time>
      </trkpt>
      <trkpt lat="46.43677" lon="4.67245">
        <ele>248.60000610352</ele>
        <time>2024-05-20T08:29:22.000Z</time>
      </trkpt>
      <trkpt lat="46.43671" lon="4.67245">
        <ele>248.80000305176</ele>
        <time>2024-05-20T08:29:23.000Z</time>
      </trkpt>
      <trkpt lat="46.43665" lon="4.67245">
        <ele>248.80000305176</ele>
        <time>2024-05-20T08:29:24.000Z</time>
      </trkpt>
      <trkpt lat="46.43659" lon="4.67246">
        <ele>248.80000305176</ele>
        <time>2024-05-20T08:29:25.000Z</time>
      </trkpt>
      <trkpt lat="46.43652" lon="4.67246">
        <ele>248.80000305176</ele>
        <time>2024-05-20T08:29:26.000Z</time>
      </trkpt>
      <trkpt lat="46.43646" lon="4.67246">
        <ele>248.80000305176</ele>
        <time>2024-05-20T08:29:27.000Z</time>
      </trkpt>
      <trkpt lat="46.4364" lon="4.67247">
        <ele>248.80000305176</ele>
        <time>2024-05-20T08:29:28.000Z</time>
      </trkpt>
      <trkpt lat="46.43634" lon="4.67247">
        <ele>248.80000305176</ele>
        <time>2024-05-20T08:29:29.000Z</time>
      </trkpt>
      <trkpt lat="46.43627" lon="4.67247">
        <ele>248.80000305176</ele>
        <time>2024-05-20T08:29:30.000Z</time>
      </trkpt>
      <trkpt lat="46.43621" lon="4.67248">
        <ele>248.80000305176</ele>
        <time>2024-05-20T08:29:31.000Z</time>
      </trkpt>
      <trkpt lat="46.43615" lon="4.67248">
        <ele>248.80000305176</ele>
        <time>2024-05-20T08:29:32.000Z</time>
      </trkpt>
      <trkpt lat="46.43609" lon="4.67248">
        <ele>248.80000305176</ele>
        <time>2024-05-20T08:29:33.000Z</time>
      </trkpt>
      <trkpt lat="46.43603" lon="4.67249">
        <ele>248.80000305176</ele>
        <time>2024-05-20T08:29:34.000Z</time>
      </trkpt>
      <trkpt lat="46.43597" lon="4.67249">
        <ele>248.80000305176</ele>
        <time>2024-05-20T08:29:35.000Z</time>
      </trkpt>
      <trkpt lat="46.43591" lon="4.67249">
        <ele>248.80000305176</ele>
        <time>2024-05-20T08:29:36.000Z</time>
      </trkpt>
      <trkpt lat="46.43586" lon="4.67249">
        <ele>248.60000610352</ele>
        <time>2024-05-20T08:29:37.000Z</time>
      </trkpt>
      <trkpt lat="46.43581" lon="4.67249">
        <ele>248.60000610352</ele>
        <time>2024-05-20T08:29:38.000Z</time>
      </trkpt>
      <trkpt lat="46.43576" lon="4.6725">
        <ele>248.60000610352</ele>
        <time>2024-05-20T08:29:39.000Z</time>
      </trkpt>
      <trkpt lat="46.4357" lon="4.67251">
        <ele>248.60000610352</ele>
        <time>2024-05-20T08:29:40.000Z</time>
      </trkpt>
      <trkpt lat="46.43565" lon="4.67252">
        <ele>248.60000610352</ele>
        <time>2024-05-20T08:29:41.000Z</time>
      </trkpt>
      <trkpt lat="46.43561" lon="4.67252">
        <ele>248.60000610352</ele>
        <time>2024-05-20T08:29:42.000Z</time>
      </trkpt>
      <trkpt lat="46.43556" lon="4.67252">
        <ele>248.60000610352</ele>
        <time>2024-05-20T08:29:43.000Z</time>
      </trkpt>
      <trkpt lat="46.43552" lon="4.67252">
        <ele>248.60000610352</ele>
        <time>2024-05-20T08:29:44.000Z</time>
      </trkpt>
      <trkpt lat="46.43547" lon="4.67251">
        <ele>248.60000610352</ele>
        <time>2024-05-20T08:29:45.000Z</time>
      </trkpt>
      <trkpt lat="46.43543" lon="4.67251">
        <ele>248.60000610352</ele>
        <time>2024-05-20T08:29:46.000Z</time>
      </trkpt>
      <trkpt lat="46.43538" lon="4.67251">
        <ele>248.60000610352</ele>
        <time>2024-05-20T08:29:47.000Z</time>
      </trkpt>
      <trkpt lat="46.43533" lon="4.67252">
        <ele>248.60000610352</ele>
        <time>2024-05-20T08:29:48.000Z</time>
      </trkpt>
      <trkpt lat="46.43529" lon="4.67252">
        <ele>248.60000610352</ele>
        <time>2024-05-20T08:29:49.000Z</time>
      </trkpt>
      <trkpt lat="46.43526" lon="4.67253">
        <ele>248.60000610352</ele>
        <time>2024-05-20T08:29:50.000Z</time>
      </trkpt>
      <trkpt lat="46.43523" lon="4.67253">
        <ele>248.60000610352</ele>
        <time>2024-05-20T08:29:51.000Z</time>
      </trkpt>
      <trkpt lat="46.4352" lon="4.67254">
        <ele>248.80000305176</ele>
        <time>2024-05-20T08:29:52.000Z</time>
      </trkpt>
      <trkpt lat="46.43516" lon="4.67255">
        <ele>249</ele>
        <time>2024-05-20T08:29:53.000Z</time>
      </trkpt>
      <trkpt lat="46.43512" lon="4.67256">
        <ele>249</ele>
        <time>2024-05-20T08:29:54.000Z</time>
      </trkpt>
      <trkpt lat="46.43508" lon="4.67256">
        <ele>249</ele>
        <time>2024-05-20T08:29:55.000Z</time>
      </trkpt>
      <trkpt lat="46.43503" lon="4.67255">
        <ele>249</ele>
        <time>2024-05-20T08:29:56.000Z</time>
      </trkpt>
      <trkpt lat="46.43498" lon="4.67255">
        <ele>249</ele>
        <time>2024-05-20T08:29:57.000Z</time>
      </trkpt>
      <trkpt lat="46.43493" lon="4.67254">
        <ele>249</ele>
        <time>2024-05-20T08:29:58.000Z</time>
      </trkpt>
      <trkpt lat="46.43488" lon="4.67254">
        <ele>248.60000610352</ele>
        <time>2024-05-20T08:29:59.000Z</time>
      </trkpt>
      <trkpt lat="46.43482" lon="4.67254">
        <ele>248.60000610352</ele>
        <time>2024-05-20T08:30:00.000Z</time>
      </trkpt>
      <trkpt lat="46.43477" lon="4.67254">
        <ele>248.60000610352</ele>
        <time>2024-05-20T08:30:01.000Z</time>
      </trkpt>
      <trkpt lat="46.43472" lon="4.67253">
        <ele>248.60000610352</ele>
        <time>2024-05-20T08:30:02.000Z</time>
      </trkpt>
      <trkpt lat="46.43466" lon="4.67252">
        <ele>248.80000305176</ele>
        <time>2024-05-20T08:30:03.000Z</time>
      </trkpt>
      <trkpt lat="46.4346" lon="4.67251">
        <ele>248.80000305176</ele>
        <time>2024-05-20T08:30:04.000Z</time>
      </trkpt>
      <trkpt lat="46.43454" lon="4.6725">
        <ele>248.80000305176</ele>
        <time>2024-05-20T08:30:05.000Z</time>
      </trkpt>
      <trkpt lat="46.43448" lon="4.67249">
        <ele>248.80000305176</ele>
        <time>2024-05-20T08:30:06.000Z</time>
      </trkpt>
      <trkpt lat="46.43442" lon="4.67248">
        <ele>249</ele>
        <time>2024-05-20T08:30:07.000Z</time>
      </trkpt>
      <trkpt lat="46.43436" lon="4.67247">
        <ele>249</ele>
        <time>2024-05-20T08:30:08.000Z</time>
      </trkpt>
      <trkpt lat="46.4343" lon="4.67246">
        <ele>249</ele>
        <time>2024-05-20T08:30:09.000Z</time>
      </trkpt>
      <trkpt lat="46.43424" lon="4.67244">
        <ele>249</ele>
        <time>2024-05-20T08:30:10.000Z</time>
      </trkpt>
      <trkpt lat="46.43418" lon="4.67243">
        <ele>249</ele>
        <time>2024-05-20T08:30:11.000Z</time>
      </trkpt>
      <trkpt lat="46.43412" lon="4.67242">
        <ele>249</ele>
        <time>2024-05-20T08:30:12.000Z</time>
      </trkpt>
      <trkpt lat="46.43406" lon="4.67241">
        <ele>249</ele>
        <time>2024-05-20T08:30:13.000Z</time>
      </trkpt>
      <trkpt lat="46.43401" lon="4.6724">
        <ele>249</ele>
        <time>2024-05-20T08:30:14.000Z</time>
      </trkpt>
      <trkpt lat="46.43395" lon="4.67238">
        <ele>249</ele>
        <time>2024-05-20T08:30:15.000Z</time>
      </trkpt>
      <trkpt lat="46.43389" lon="4.67237">
        <ele>249</ele>
        <time>2024-05-20T08:30:16.000Z</time>
      </trkpt>
      <trkpt lat="46.43383" lon="4.67236">
        <ele>249</ele>
        <time>2024-05-20T08:30:17.000Z</time>
      </trkpt>
      <trkpt lat="46.43377" lon="4.67235">
        <ele>249.19999694824</ele>
        <time>2024-05-20T08:30:18.000Z</time>
      </trkpt>
      <trkpt lat="46.4337" lon="4.67233">
        <ele>249.19999694824</ele>
        <time>2024-05-20T08:30:19.000Z</time>
      </trkpt>
      <trkpt lat="46.43365" lon="4.67232">
        <ele>249.19999694824</ele>
        <time>2024-05-20T08:30:20.000Z</time>
      </trkpt>
      <trkpt lat="46.43359" lon="4.6723">
        <ele>249.19999694824</ele>
        <time>2024-05-20T08:30:21.000Z</time>
      </trkpt>
      <trkpt lat="46.43353" lon="4.67228">
        <ele>249.19999694824</ele>
        <time>2024-05-20T08:30:22.000Z</time>
      </trkpt>
      <trkpt lat="46.43348" lon="4.67226">
        <ele>249.19999694824</ele>
        <time>2024-05-20T08:30:23.000Z</time>
      </trkpt>
      <trkpt lat="46.43342" lon="4.67224">
        <ele>249.19999694824</ele>
        <time>2024-05-20T08:30:24.000Z</time>
      </trkpt>
      <trkpt lat="46.43336" lon="4.67223">
        <ele>249.19999694824</ele>
        <time>2024-05-20T08:30:25.000Z</time>
      </trkpt>
      <trkpt lat="46.4333" lon="4.67221">
        <ele>249.19999694824</ele>
        <time>2024-05-20T08:30:26.000Z</time>
      </trkpt>
      <trkpt lat="46.43325" lon="4.67219">
        <ele>249.19999694824</ele>
        <time>2024-05-20T08:30:27.000Z</time>
      </trkpt>
      <trkpt lat="46.4332" lon="4.67216">
        <ele>249.19999694824</ele>
        <time>2024-05-20T08:30:28.000Z</time>
      </trkpt>
      <trkpt lat="46.43314" lon="4.67212">
        <ele>249.39999389648</ele>
        <time>2024-05-20T08:30:29.000Z</time>
      </trkpt>
      <trkpt lat="46.43308" lon="4.67209">
        <ele>249.39999389648</ele>
        <time>2024-05-20T08:30:30.000Z</time>
      </trkpt>
      <trkpt lat="46.43302" lon="4.67206">
        <ele>249.39999389648</ele>
        <time>2024-05-20T08:30:31.000Z</time>
      </trkpt>
      <trkpt lat="46.43296" lon="4.67202">
        <ele>249.39999389648</ele>
        <time>2024-05-20T08:30:32.000Z</time>
      </trkpt>
      <trkpt lat="46.4329" lon="4.67199">
        <ele>249.39999389648</ele>
        <time>2024-05-20T08:30:33.000Z</time>
      </trkpt>
      <trkpt lat="46.43284" lon="4.67196">
        <ele>249.39999389648</ele>
        <time>2024-05-20T08:30:34.000Z</time>
      </trkpt>
      <trkpt lat="46.43277" lon="4.67193">
        <ele>249.39999389648</ele>
        <time>2024-05-20T08:30:35.000Z</time>
      </trkpt>
      <trkpt lat="46.43271" lon="4.67191">
        <ele>249.19999694824</ele>
        <time>2024-05-20T08:30:36.000Z</time>
      </trkpt>
      <trkpt lat="46.43264" lon="4.67188">
        <ele>249.19999694824</ele>
        <time>2024-05-20T08:30:37.000Z</time>
      </trkpt>
      <trkpt lat="46.43259" lon="4.67185">
        <ele>249.19999694824</ele>
        <time>2024-05-20T08:30:38.000Z</time>
      </trkpt>
      <trkpt lat="46.43254" lon="4.67182">
        <ele>249.19999694824</ele>
        <time>2024-05-20T08:30:39.000Z</time>
      </trkpt>
      <trkpt lat="46.43247" lon="4.67178">
        <ele>249.19999694824</ele>
        <time>2024-05-20T08:30:40.000Z</time>
      </trkpt>
      <trkpt lat="46.43241" lon="4.67175">
        <ele>249.19999694824</ele>
        <time>2024-05-20T08:30:41.000Z</time>
      </trkpt>
      <trkpt lat="46.43235" lon="4.67171">
        <ele>249.19999694824</ele>
        <time>2024-05-20T08:30:42.000Z</time>
      </trkpt>
      <trkpt lat="46.43229" lon="4.67167">
        <ele>249.19999694824</ele>
        <time>2024-05-20T08:30:43.000Z</time>
      </trkpt>
      <trkpt lat="46.43223" lon="4.67163">
        <ele>249.19999694824</ele>
        <time>2024-05-20T08:30:44.000Z</time>
      </trkpt>
      <trkpt lat="46.43218" lon="4.6716">
        <ele>249.19999694824</ele>
        <time>2024-05-20T08:30:45.000Z</time>
      </trkpt>
      <trkpt lat="46.43213" lon="4.67156">
        <ele>249.19999694824</ele>
        <time>2024-05-20T08:30:46.000Z</time>
      </trkpt>
      <trkpt lat="46.43207" lon="4.67152">
        <ele>249.19999694824</ele>
        <time>2024-05-20T08:30:47.000Z</time>
      </trkpt>
      <trkpt lat="46.43202" lon="4.67149">
        <ele>249.19999694824</ele>
        <time>2024-05-20T08:30:48.000Z</time>
      </trkpt>
      <trkpt lat="46.43195" lon="4.67145">
        <ele>249.19999694824</ele>
        <time>2024-05-20T08:30:49.000Z</time>
      </trkpt>
      <trkpt lat="46.43188" lon="4.67142">
        <ele>249.19999694824</ele>
        <time>2024-05-20T08:30:50.000Z</time>
      </trkpt>
      <trkpt lat="46.43183" lon="4.67136">
        <ele>249.19999694824</ele>
        <time>2024-05-20T08:30:51.000Z</time>
      </trkpt>
      <trkpt lat="46.43177" lon="4.6713">
        <ele>249.19999694824</ele>
        <time>2024-05-20T08:30:52.000Z</time>
      </trkpt>
      <trkpt lat="46.4317" lon="4.67124">
        <ele>249.19999694824</ele>
        <time>2024-05-20T08:30:53.000Z</time>
      </trkpt>
      <trkpt lat="46.43164" lon="4.6712">
        <ele>249.19999694824</ele>
        <time>2024-05-20T08:30:54.000Z</time>
      </trkpt>
      <trkpt lat="46.43159" lon="4.67115">
        <ele>249.39999389648</ele>
        <time>2024-05-20T08:30:55.000Z</time>
      </trkpt>
      <trkpt lat="46.43154" lon="4.6711">
        <ele>249.39999389648</ele>
        <time>2024-05-20T08:30:56.000Z</time>
      </trkpt>
      <trkpt lat="46.43148" lon="4.67106">
        <ele>249.39999389648</ele>
        <time>2024-05-20T08:30:57.000Z</time>
      </trkpt>
      <trkpt lat="46.43142" lon="4.671">
        <ele>249.39999389648</ele>
        <time>2024-05-20T08:30:58.000Z</time>
      </trkpt>
      <trkpt lat="46.43136" lon="4.67095">
        <ele>249.60000610352</ele>
        <time>2024-05-20T08:30:59.000Z</time>
      </trkpt>
      <trkpt lat="46.43131" lon="4.6709">
        <ele>249.60000610352</ele>
        <time>2024-05-20T08:31:00.000Z</time>
      </trkpt>
      <trkpt lat="46.43126" lon="4.67084">
        <ele>249.60000610352</ele>
        <time>2024-05-20T08:31:01.000Z</time>
      </trkpt>
      <trkpt lat="46.4312" lon="4.67079">
        <ele>249.60000610352</ele>
        <time>2024-05-20T08:31:02.000Z</time>
      </trkpt>
      <trkpt lat="46.43115" lon="4.67074">
        <ele>249.60000610352</ele>
        <time>2024-05-20T08:31:03.000Z</time>
      </trkpt>
      <trkpt lat="46.4311" lon="4.67069">
        <ele>249.60000610352</ele>
        <time>2024-05-20T08:31:04.000Z</time>
      </trkpt>
      <trkpt lat="46.43105" lon="4.67064">
        <ele>249.60000610352</ele>
        <time>2024-05-20T08:31:05.000Z</time>
      </trkpt>
      <trkpt lat="46.431" lon="4.67058">
        <ele>249.60000610352</ele>
        <time>2024-05-20T08:31:06.000Z</time>
      </trkpt>
      <trkpt lat="46.43094" lon="4.67053">
        <ele>249.39999389648</ele>
        <time>2024-05-20T08:31:07.000Z</time>
      </trkpt>
      <trkpt lat="46.43089" lon="4.67048">
        <ele>249.39999389648</ele>
        <time>2024-05-20T08:31:08.000Z</time>
      </trkpt>
      <trkpt lat="46.43083" lon="4.67043">
        <ele>249.39999389648</ele>
        <time>2024-05-20T08:31:09.000Z</time>
      </trkpt>
      <trkpt lat="46.43078" lon="4.67038">
        <ele>249.39999389648</ele>
        <time>2024-05-20T08:31:10.000Z</time>
      </trkpt>
      <trkpt lat="46.43072" lon="4.67033">
        <ele>249.39999389648</ele>
        <time>2024-05-20T08:31:11.000Z</time>
      </trkpt>
      <trkpt lat="46.43067" lon="4.67028">
        <ele>249.39999389648</ele>
        <time>2024-05-20T08:31:12.000Z</time>
      </trkpt>
      <trkpt lat="46.43062" lon="4.67023">
        <ele>249.39999389648</ele>
        <time>2024-05-20T08:31:13.000Z</time>
      </trkpt>
      <trkpt lat="46.43056" lon="4.67018">
        <ele>249.39999389648</ele>
        <time>2024-05-20T08:31:14.000Z</time>
      </trkpt>
      <trkpt lat="46.43051" lon="4.67014">
        <ele>249.39999389648</ele>
        <time>2024-05-20T08:31:15.000Z</time>
      </trkpt>
      <trkpt lat="46.43045" lon="4.67009">
        <ele>249.39999389648</ele>
        <time>2024-05-20T08:31:16.000Z</time>
      </trkpt>
      <trkpt lat="46.4304" lon="4.67004">
        <ele>249.39999389648</ele>
        <time>2024-05-20T08:31:17.000Z</time>
      </trkpt>
      <trkpt lat="46.43035" lon="4.66998">
        <ele>249.39999389648</ele>
        <time>2024-05-20T08:31:18.000Z</time>
      </trkpt>
      <trkpt lat="46.43029" lon="4.66994">
        <ele>249.39999389648</ele>
        <time>2024-05-20T08:31:19.000Z</time>
      </trkpt>
      <trkpt lat="46.43024" lon="4.66989">
        <ele>249.39999389648</ele>
        <time>2024-05-20T08:31:20.000Z</time>
      </trkpt>
      <trkpt lat="46.43018" lon="4.66985">
        <ele>249.39999389648</ele>
        <time>2024-05-20T08:31:21.000Z</time>
      </trkpt>
      <trkpt lat="46.43013" lon="4.6698">
        <ele>249.39999389648</ele>
        <time>2024-05-20T08:31:22.000Z</time>
      </trkpt>
      <trkpt lat="46.43007" lon="4.66975">
        <ele>249.39999389648</ele>
        <time>2024-05-20T08:31:23.000Z</time>
      </trkpt>
      <trkpt lat="46.43002" lon="4.66971">
        <ele>249.39999389648</ele>
        <time>2024-05-20T08:31:24.000Z</time>
      </trkpt>
      <trkpt lat="46.42996" lon="4.66966">
        <ele>249.39999389648</ele>
        <time>2024-05-20T08:31:25.000Z</time>
      </trkpt>
      <trkpt lat="46.42991" lon="4.66962">
        <ele>249.39999389648</ele>
        <time>2024-05-20T08:31:26.000Z</time>
      </trkpt>
      <trkpt lat="46.42986" lon="4.66957">
        <ele>249.39999389648</ele>
        <time>2024-05-20T08:31:27.000Z</time>
      </trkpt>
      <trkpt lat="46.42981" lon="4.66952">
        <ele>249.39999389648</ele>
        <time>2024-05-20T08:31:28.000Z</time>
      </trkpt>
      <trkpt lat="46.42976" lon="4.66947">
        <ele>249.39999389648</ele>
        <time>2024-05-20T08:31:29.000Z</time>
      </trkpt>
      <trkpt lat="46.4297" lon="4.66942">
        <ele>249.19999694824</ele>
        <time>2024-05-20T08:31:30.000Z</time>
      </trkpt>
      <trkpt lat="46.42966" lon="4.66938">
        <ele>249.19999694824</ele>
        <time>2024-05-20T08:31:31.000Z</time>
      </trkpt>
      <trkpt lat="46.42961" lon="4.66933">
        <ele>249.19999694824</ele>
        <time>2024-05-20T08:31:32.000Z</time>
      </trkpt>
      <trkpt lat="46.42956" lon="4.66928">
        <ele>249.19999694824</ele>
        <time>2024-05-20T08:31:33.000Z</time>
      </trkpt>
      <trkpt lat="46.4295" lon="4.66924">
        <ele>249.19999694824</ele>
        <time>2024-05-20T08:31:34.000Z</time>
      </trkpt>
      <trkpt lat="46.42945" lon="4.66919">
        <ele>249.19999694824</ele>
        <time>2024-05-20T08:31:35.000Z</time>
      </trkpt>
      <trkpt lat="46.4294" lon="4.66914">
        <ele>249.19999694824</ele>
        <time>2024-05-20T08:31:36.000Z</time>
      </trkpt>
      <trkpt lat="46.42935" lon="4.66909">
        <ele>249.19999694824</ele>
        <time>2024-05-20T08:31:37.000Z</time>
      </trkpt>
      <trkpt lat="46.42929" lon="4.66905">
        <ele>249.19999694824</ele>
        <time>2024-05-20T08:31:38.000Z</time>
      </trkpt>
      <trkpt lat="46.42924" lon="4.669">
        <ele>249.19999694824</ele>
        <time>2024-05-20T08:31:39.000Z</time>
      </trkpt>
      <trkpt lat="46.42919" lon="4.66895">
        <ele>249.19999694824</ele>
        <time>2024-05-20T08:31:40.000Z</time>
      </trkpt>
      <trkpt lat="46.42914" lon="4.6689">
        <ele>249.19999694824</ele>
        <time>2024-05-20T08:31:41.000Z</time>
      </trkpt>
      <trkpt lat="46.42909" lon="4.66886">
        <ele>249.19999694824</ele>
        <time>2024-05-20T08:31:42.000Z</time>
      </trkpt>
      <trkpt lat="46.42903" lon="4.66881">
        <ele>249.19999694824</ele>
        <time>2024-05-20T08:31:43.000Z</time>
      </trkpt>
      <trkpt lat="46.42898" lon="4.66876">
        <ele>249.19999694824</ele>
        <time>2024-05-20T08:31:44.000Z</time>
      </trkpt>
      <trkpt lat="46.42893" lon="4.66872">
        <ele>249.19999694824</ele>
        <time>2024-05-20T08:31:45.000Z</time>
      </trkpt>
      <trkpt lat="46.42888" lon="4.66868">
        <ele>249.19999694824</ele>
        <time>2024-05-20T08:31:46.000Z</time>
      </trkpt>
      <trkpt lat="46.42883" lon="4.66863">
        <ele>249.19999694824</ele>
        <time>2024-05-20T08:31:47.000Z</time>
      </trkpt>
      <trkpt lat="46.42878" lon="4.66858">
        <ele>249.19999694824</ele>
        <time>2024-05-20T08:31:48.000Z</time>
      </trkpt>
      <trkpt lat="46.42873" lon="4.66853">
        <ele>249.19999694824</ele>
        <time>2024-05-20T08:31:49.000Z</time>
      </trkpt>
      <trkpt lat="46.42869" lon="4.66849">
        <ele>249.19999694824</ele>
        <time>2024-05-20T08:31:50.000Z</time>
      </trkpt>
      <trkpt lat="46.42864" lon="4.66844">
        <ele>249.19999694824</ele>
        <time>2024-05-20T08:31:51.000Z</time>
      </trkpt>
      <trkpt lat="46.42859" lon="4.6684">
        <ele>249.19999694824</ele>
        <time>2024-05-20T08:31:52.000Z</time>
      </trkpt>
      <trkpt lat="46.42853" lon="4.66835">
        <ele>249.19999694824</ele>
        <time>2024-05-20T08:31:53.000Z</time>
      </trkpt>
      <trkpt lat="46.42848" lon="4.6683">
        <ele>249.19999694824</ele>
        <time>2024-05-20T08:31:54.000Z</time>
      </trkpt>
      <trkpt lat="46.42844" lon="4.66825">
        <ele>249.19999694824</ele>
        <time>2024-05-20T08:31:55.000Z</time>
      </trkpt>
      <trkpt lat="46.42839" lon="4.66821">
        <ele>249</ele>
        <time>2024-05-20T08:31:56.000Z</time>
      </trkpt>
      <trkpt lat="46.42834" lon="4.66816">
        <ele>249</ele>
        <time>2024-05-20T08:31:57.000Z</time>
      </trkpt>
      <trkpt lat="46.42828" lon="4.66811">
        <ele>249</ele>
        <time>2024-05-20T08:31:58.000Z</time>
      </trkpt>
      <trkpt lat="46.42823" lon="4.66807">
        <ele>249</ele>
        <time>2024-05-20T08:31:59.000Z</time>
      </trkpt>
      <trkpt lat="46.42818" lon="4.66802">
        <ele>249</ele>
        <time>2024-05-20T08:32:00.000Z</time>
      </trkpt>
      <trkpt lat="46.42813" lon="4.66798">
        <ele>249</ele>
        <time>2024-05-20T08:32:01.000Z</time>
      </trkpt>
      <trkpt lat="46.42808" lon="4.66793">
        <ele>249</ele>
        <time>2024-05-20T08:32:02.000Z</time>
      </trkpt>
      <trkpt lat="46.42803" lon="4.66789">
        <ele>249</ele>
        <time>2024-05-20T08:32:03.000Z</time>
      </trkpt>
      <trkpt lat="46.42797" lon="4.66785">
        <ele>249</ele>
        <time>2024-05-20T08:32:04.000Z</time>
      </trkpt>
      <trkpt lat="46.42792" lon="4.66781">
        <ele>249</ele>
        <time>2024-05-20T08:32:05.000Z</time>
      </trkpt>
      <trkpt lat="46.42787" lon="4.66777">
        <ele>249</ele>
        <time>2024-05-20T08:32:06.000Z</time>
      </trkpt>
      <trkpt lat="46.42781" lon="4.66773">
        <ele>249</ele>
        <time>2024-05-20T08:32:07.000Z</time>
      </trkpt>
      <trkpt lat="46.42776" lon="4.66769">
        <ele>249</ele>
        <time>2024-05-20T08:32:08.000Z</time>
      </trkpt>
      <trkpt lat="46.4277" lon="4.66766">
        <ele>249</ele>
        <time>2024-05-20T08:32:09.000Z</time>
      </trkpt>
      <trkpt lat="46.42764" lon="4.66764">
        <ele>249</ele>
        <time>2024-05-20T08:32:10.000Z</time>
      </trkpt>
      <trkpt lat="46.42758" lon="4.66761">
        <ele>249</ele>
        <time>2024-05-20T08:32:11.000Z</time>
      </trkpt>
      <trkpt lat="46.42753" lon="4.66758">
        <ele>248.80000305176</ele>
        <time>2024-05-20T08:32:12.000Z</time>
      </trkpt>
      <trkpt lat="46.42747" lon="4.66756">
        <ele>248.80000305176</ele>
        <time>2024-05-20T08:32:13.000Z</time>
      </trkpt>
      <trkpt lat="46.42741" lon="4.66753">
        <ele>248.80000305176</ele>
        <time>2024-05-20T08:32:14.000Z</time>
      </trkpt>
      <trkpt lat="46.42736" lon="4.6675">
        <ele>248.80000305176</ele>
        <time>2024-05-20T08:32:15.000Z</time>
      </trkpt>
      <trkpt lat="46.4273" lon="4.66747">
        <ele>248.80000305176</ele>
        <time>2024-05-20T08:32:16.000Z</time>
      </trkpt>
      <trkpt lat="46.42724" lon="4.66744">
        <ele>248.80000305176</ele>
        <time>2024-05-20T08:32:17.000Z</time>
      </trkpt>
      <trkpt lat="46.42719" lon="4.66741">
        <ele>248.60000610352</ele>
        <time>2024-05-20T08:32:18.000Z</time>
      </trkpt>
      <trkpt lat="46.42713" lon="4.66738">
        <ele>248.60000610352</ele>
        <time>2024-05-20T08:32:19.000Z</time>
      </trkpt>
      <trkpt lat="46.42707" lon="4.66735">
        <ele>248.60000610352</ele>
        <time>2024-05-20T08:32:20.000Z</time>
      </trkpt>
      <trkpt lat="46.42702" lon="4.66731">
        <ele>248.60000610352</ele>
        <time>2024-05-20T08:32:21.000Z</time>
      </trkpt>
      <trkpt lat="46.42696" lon="4.66728">
        <ele>248.39999389648</ele>
        <time>2024-05-20T08:32:22.000Z</time>
      </trkpt>
      <trkpt lat="46.42691" lon="4.66725">
        <ele>248.39999389648</ele>
        <time>2024-05-20T08:32:23.000Z</time>
      </trkpt>
      <trkpt lat="46.42685" lon="4.66722">
        <ele>248.39999389648</ele>
        <time>2024-05-20T08:32:24.000Z</time>
      </trkpt>
      <trkpt lat="46.4268" lon="4.66718">
        <ele>248.39999389648</ele>
        <time>2024-05-20T08:32:25.000Z</time>
      </trkpt>
      <trkpt lat="46.42674" lon="4.66715">
        <ele>248.60000610352</ele>
        <time>2024-05-20T08:32:26.000Z</time>
      </trkpt>
      <trkpt lat="46.42669" lon="4.66712">
        <ele>248.60000610352</ele>
        <time>2024-05-20T08:32:27.000Z</time>
      </trkpt>
      <trkpt lat="46.42663" lon="4.66709">
        <ele>248.60000610352</ele>
        <time>2024-05-20T08:32:28.000Z</time>
      </trkpt>
      <trkpt lat="46.42658" lon="4.66705">
        <ele>248.60000610352</ele>
        <time>2024-05-20T08:32:29.000Z</time>
      </trkpt>
      <trkpt lat="46.42653" lon="4.66702">
        <ele>248.80000305176</ele>
        <time>2024-05-20T08:32:30.000Z</time>
      </trkpt>
      <trkpt lat="46.42647" lon="4.66699">
        <ele>248.80000305176</ele>
        <time>2024-05-20T08:32:31.000Z</time>
      </trkpt>
      <trkpt lat="46.42643" lon="4.66696">
        <ele>248.80000305176</ele>
        <time>2024-05-20T08:32:32.000Z</time>
      </trkpt>
      <trkpt lat="46.42638" lon="4.66694">
        <ele>249</ele>
        <time>2024-05-20T08:32:33.000Z</time>
      </trkpt>
      <trkpt lat="46.42633" lon="4.66692">
        <ele>249</ele>
        <time>2024-05-20T08:32:34.000Z</time>
      </trkpt>
      <trkpt lat="46.42629" lon="4.66689">
        <ele>249.19999694824</ele>
        <time>2024-05-20T08:32:35.000Z</time>
      </trkpt>
      <trkpt lat="46.42624" lon="4.66686">
        <ele>249.19999694824</ele>
        <time>2024-05-20T08:32:36.000Z</time>
      </trkpt>
      <trkpt lat="46.42619" lon="4.66683">
        <ele>249.19999694824</ele>
        <time>2024-05-20T08:32:37.000Z</time>
      </trkpt>
      <trkpt lat="46.42614" lon="4.66681">
        <ele>249.19999694824</ele>
        <time>2024-05-20T08:32:38.000Z</time>
      </trkpt>
      <trkpt lat="46.42609" lon="4.66678">
        <ele>249.19999694824</ele>
        <time>2024-05-20T08:32:39.000Z</time>
      </trkpt>
      <trkpt lat="46.42604" lon="4.66675">
        <ele>249.19999694824</ele>
        <time>2024-05-20T08:32:40.000Z</time>
      </trkpt>
      <trkpt lat="46.42599" lon="4.66672">
        <ele>249.19999694824</ele>
        <time>2024-05-20T08:32:41.000Z</time>
      </trkpt>
      <trkpt lat="46.42595" lon="4.66669">
        <ele>249.19999694824</ele>
        <time>2024-05-20T08:32:42.000Z</time>
      </trkpt>
      <trkpt lat="46.42589" lon="4.66666">
        <ele>249</ele>
        <time>2024-05-20T08:32:43.000Z</time>
      </trkpt>
      <trkpt lat="46.42584" lon="4.66663">
        <ele>249</ele>
        <time>2024-05-20T08:32:44.000Z</time>
      </trkpt>
      <trkpt lat="46.42579" lon="4.6666">
        <ele>249</ele>
        <time>2024-05-20T08:32:45.000Z</time>
      </trkpt>
      <trkpt lat="46.42574" lon="4.66657">
        <ele>249</ele>
        <time>2024-05-20T08:32:46.000Z</time>
      </trkpt>
      <trkpt lat="46.42569" lon="4.66655">
        <ele>249.19999694824</ele>
        <time>2024-05-20T08:32:47.000Z</time>
      </trkpt>
      <trkpt lat="46.42564" lon="4.66652">
        <ele>249.19999694824</ele>
        <time>2024-05-20T08:32:48.000Z</time>
      </trkpt>
      <trkpt lat="46.42559" lon="4.6665">
        <ele>249.19999694824</ele>
        <time>2024-05-20T08:32:49.000Z</time>
      </trkpt>
      <trkpt lat="46.42554" lon="4.66647">
        <ele>249.19999694824</ele>
        <time>2024-05-20T08:32:50.000Z</time>
      </trkpt>
      <trkpt lat="46.4255" lon="4.66644">
        <ele>249.19999694824</ele>
        <time>2024-05-20T08:32:51.000Z</time>
      </trkpt>
      <trkpt lat="46.42545" lon="4.66641">
        <ele>249.19999694824</ele>
        <time>2024-05-20T08:32:52.000Z</time>
      </trkpt>
      <trkpt lat="46.4254" lon="4.66639">
        <ele>249.19999694824</ele>
        <time>2024-05-20T08:32:53.000Z</time>
      </trkpt>
      <trkpt lat="46.42536" lon="4.66636">
        <ele>249.19999694824</ele>
        <time>2024-05-20T08:32:54.000Z</time>
      </trkpt>
      <trkpt lat="46.42532" lon="4.66634">
        <ele>249.19999694824</ele>
        <time>2024-05-20T08:32:55.000Z</time>
      </trkpt>
      <trkpt lat="46.42527" lon="4.66632">
        <ele>249.19999694824</ele>
        <time>2024-05-20T08:32:56.000Z</time>
      </trkpt>
      <trkpt lat="46.42523" lon="4.6663">
        <ele>249.19999694824</ele>
        <time>2024-05-20T08:32:57.000Z</time>
      </trkpt>
      <trkpt lat="46.42519" lon="4.66628">
        <ele>249.19999694824</ele>
        <time>2024-05-20T08:32:58.000Z</time>
      </trkpt>
      <trkpt lat="46.42516" lon="4.66626">
        <ele>249.19999694824</ele>
        <time>2024-05-20T08:32:59.000Z</time>
      </trkpt>
      <trkpt lat="46.42513" lon="4.66624">
        <ele>249.39999389648</ele>
        <time>2024-05-20T08:33:00.000Z</time>
      </trkpt>
      <trkpt lat="46.42509" lon="4.66622">
        <ele>249.60000610352</ele>
        <time>2024-05-20T08:33:01.000Z</time>
      </trkpt>
      <trkpt lat="46.42506" lon="4.6662">
        <ele>249.60000610352</ele>
        <time>2024-05-20T08:33:02.000Z</time>
      </trkpt>
      <trkpt lat="46.42503" lon="4.66619">
        <ele>249.60000610352</ele>
        <time>2024-05-20T08:33:03.000Z</time>
      </trkpt>
      <trkpt lat="46.425" lon="4.66617">
        <ele>249.60000610352</ele>
        <time>2024-05-20T08:33:04.000Z</time>
      </trkpt>
      <trkpt lat="46.42497" lon="4.66615">
        <ele>249.60000610352</ele>
        <time>2024-05-20T08:33:05.000Z</time>
      </trkpt>
      <trkpt lat="46.42493" lon="4.66613">
        <ele>249.60000610352</ele>
        <time>2024-05-20T08:33:06.000Z</time>
      </trkpt>
      <trkpt lat="46.42489" lon="4.6661">
        <ele>249.80000305176</ele>
        <time>2024-05-20T08:33:07.000Z</time>
      </trkpt>
      <trkpt lat="46.42484" lon="4.66607">
        <ele>249.80000305176</ele>
        <time>2024-05-20T08:33:08.000Z</time>
      </trkpt>
      <trkpt lat="46.42479" lon="4.66605">
        <ele>249.80000305176</ele>
        <time>2024-05-20T08:33:09.000Z</time>
      </trkpt>
      <trkpt lat="46.42474" lon="4.66603">
        <ele>249.80000305176</ele>
        <time>2024-05-20T08:33:10.000Z</time>
      </trkpt>
      <trkpt lat="46.42468" lon="4.666">
        <ele>249.60000610352</ele>
        <time>2024-05-20T08:33:11.000Z</time>
      </trkpt>
      <trkpt lat="46.42463" lon="4.66598">
        <ele>249.60000610352</ele>
        <time>2024-05-20T08:33:12.000Z</time>
      </trkpt>
      <trkpt lat="46.42458" lon="4.66595">
        <ele>249.60000610352</ele>
        <time>2024-05-20T08:33:13.000Z</time>
      </trkpt>
      <trkpt lat="46.42454" lon="4.66594">
        <ele>249.60000610352</ele>
        <time>2024-05-20T08:33:14.000Z</time>
      </trkpt>
      <trkpt lat="46.42449" lon="4.66591">
        <ele>249.60000610352</ele>
        <time>2024-05-20T08:33:15.000Z</time>
      </trkpt>
      <trkpt lat="46.42445" lon="4.66589">
        <ele>249.60000610352</ele>
        <time>2024-05-20T08:33:16.000Z</time>
      </trkpt>
      <trkpt lat="46.4244" lon="4.66586">
        <ele>249.60000610352</ele>
        <time>2024-05-20T08:33:17.000Z</time>
      </trkpt>
      <trkpt lat="46.42436" lon="4.66584">
        <ele>249.60000610352</ele>
        <time>2024-05-20T08:33:18.000Z</time>
      </trkpt>
      <trkpt lat="46.42432" lon="4.66582">
        <ele>249.60000610352</ele>
        <time>2024-05-20T08:33:19.000Z</time>
      </trkpt>
      <trkpt lat="46.42427" lon="4.6658">
        <ele>249.60000610352</ele>
        <time>2024-05-20T08:33:20.000Z</time>
      </trkpt>
      <trkpt lat="46.42423" lon="4.66577">
        <ele>249.60000610352</ele>
        <time>2024-05-20T08:33:21.000Z</time>
      </trkpt>
      <trkpt lat="46.42419" lon="4.66575">
        <ele>249.60000610352</ele>
        <time>2024-05-20T08:33:22.000Z</time>
      </trkpt>
      <trkpt lat="46.42415" lon="4.66573">
        <ele>249.60000610352</ele>
        <time>2024-05-20T08:33:23.000Z</time>
      </trkpt>
      <trkpt lat="46.4241" lon="4.66571">
        <ele>249.60000610352</ele>
        <time>2024-05-20T08:33:24.000Z</time>
      </trkpt>
      <trkpt lat="46.42406" lon="4.6657">
        <ele>249.60000610352</ele>
        <time>2024-05-20T08:33:25.000Z</time>
      </trkpt>
      <trkpt lat="46.42401" lon="4.66568">
        <ele>249.60000610352</ele>
        <time>2024-05-20T08:33:26.000Z</time>
      </trkpt>
      <trkpt lat="46.42397" lon="4.66566">
        <ele>249.60000610352</ele>
        <time>2024-05-20T08:33:27.000Z</time>
      </trkpt>
      <trkpt lat="46.42394" lon="4.66565">
        <ele>249.60000610352</ele>
        <time>2024-05-20T08:33:28.000Z</time>
      </trkpt>
      <trkpt lat="46.4239" lon="4.66564">
        <ele>249.60000610352</ele>
        <time>2024-05-20T08:33:29.000Z</time>
      </trkpt>
      <trkpt lat="46.42387" lon="4.66566">
        <ele>249.60000610352</ele>
        <time>2024-05-20T08:33:30.000Z</time>
      </trkpt>
      <trkpt lat="46.42385" lon="4.66569">
        <ele>249.60000610352</ele>
        <time>2024-05-20T08:33:31.000Z</time>
      </trkpt>
      <trkpt lat="46.42384" lon="4.66573">
        <ele>249.60000610352</ele>
        <time>2024-05-20T08:33:32.000Z</time>
      </trkpt>
      <trkpt lat="46.42383" lon="4.66577">
        <ele>249.80000305176</ele>
        <time>2024-05-20T08:33:33.000Z</time>
      </trkpt>
      <trkpt lat="46.42382" lon="4.6658">
        <ele>249.80000305176</ele>
        <time>2024-05-20T08:33:34.000Z</time>
      </trkpt>
      <trkpt lat="46.42381" lon="4.66582">
        <ele>249.80000305176</ele>
        <time>2024-05-20T08:33:35.000Z</time>
      </trkpt>
      <trkpt lat="46.4238" lon="4.66585">
        <ele>249.80000305176</ele>
        <time>2024-05-20T08:33:36.000Z</time>
      </trkpt>
      <trkpt lat="46.4238" lon="4.66586">
        <ele>250</ele>
        <time>2024-05-20T08:33:37.000Z</time>
      </trkpt>
      <trkpt lat="46.4238" lon="4.66588">
        <ele>250</ele>
        <time>2024-05-20T08:33:38.000Z</time>
      </trkpt>
      <trkpt lat="46.42381" lon="4.66589">
        <ele>250</ele>
        <time>2024-05-20T08:33:39.000Z</time>
      </trkpt>
      <trkpt lat="46.42382" lon="4.66588">
        <ele>250</ele>
        <time>2024-05-20T08:33:40.000Z</time>
      </trkpt>
      <trkpt lat="46.42383" lon="4.66586">
        <ele>250</ele>
        <time>2024-05-20T08:33:41.000Z</time>
      </trkpt>
      <trkpt lat="46.42382" lon="4.66584">
        <ele>250.19999694824</ele>
        <time>2024-05-20T08:33:42.000Z</time>
      </trkpt>
      <trkpt lat="46.42382" lon="4.66581">
        <ele>250.19999694824</ele>
        <time>2024-05-20T08:33:43.000Z</time>
      </trkpt>
      <trkpt lat="46.42459" lon="4.66568">
        <ele>248.80000305176</ele>
        <time>2024-05-20T08:53:13.000Z</time>
      </trkpt>
      <trkpt lat="46.42456" lon="4.66566">
        <ele>249.19999694824</ele>
        <time>2024-05-20T08:53:14.000Z</time>
      </trkpt>
      <trkpt lat="46.42453" lon="4.66565">
        <ele>249.39999389648</ele>
        <time>2024-05-20T08:53:15.000Z</time>
      </trkpt>
      <trkpt lat="46.42449" lon="4.66563">
        <ele>249.60000610352</ele>
        <time>2024-05-20T08:53:16.000Z</time>
      </trkpt>
      <trkpt lat="46.42446" lon="4.66562">
        <ele>249.60000610352</ele>
        <time>2024-05-20T08:53:17.000Z</time>
      </trkpt>
      <trkpt lat="46.42442" lon="4.6656">
        <ele>249.80000305176</ele>
        <time>2024-05-20T08:53:18.000Z</time>
      </trkpt>
      <trkpt lat="46.42439" lon="4.66559">
        <ele>249.80000305176</ele>
        <time>2024-05-20T08:53:19.000Z</time>
      </trkpt>
      <trkpt lat="46.42436" lon="4.66559">
        <ele>250</ele>
        <time>2024-05-20T08:53:20.000Z</time>
      </trkpt>
      <trkpt lat="46.42433" lon="4.6656">
        <ele>250</ele>
        <time>2024-05-20T08:53:21.000Z</time>
      </trkpt>
      <trkpt lat="46.42431" lon="4.66563">
        <ele>250.19999694824</ele>
        <time>2024-05-20T08:53:22.000Z</time>
      </trkpt>
      <trkpt lat="46.42429" lon="4.66566">
        <ele>250.19999694824</ele>
        <time>2024-05-20T08:53:23.000Z</time>
      </trkpt>
      <trkpt lat="46.42428" lon="4.66569">
        <ele>250.39999389648</ele>
        <time>2024-05-20T08:53:24.000Z</time>
      </trkpt>
      <trkpt lat="46.42428" lon="4.66572">
        <ele>250.39999389648</ele>
        <time>2024-05-20T08:53:25.000Z</time>
      </trkpt>
      <trkpt lat="46.42429" lon="4.66574">
        <ele>250.60000610352</ele>
        <time>2024-05-20T08:53:26.000Z</time>
      </trkpt>
      <trkpt lat="46.42431" lon="4.66575">
        <ele>250.60000610352</ele>
        <time>2024-05-20T08:53:27.000Z</time>
      </trkpt>
      <trkpt lat="46.42433" lon="4.66577">
        <ele>250.60000610352</ele>
        <time>2024-05-20T08:53:28.000Z</time>
      </trkpt>
      <trkpt lat="46.42435" lon="4.66578">
        <ele>250.60000610352</ele>
        <time>2024-05-20T08:53:29.000Z</time>
      </trkpt>
      <trkpt lat="46.42437" lon="4.66579">
        <ele>250.60000610352</ele>
        <time>2024-05-20T08:53:30.000Z</time>
      </trkpt>
      <trkpt lat="46.42439" lon="4.66581">
        <ele>250.60000610352</ele>
        <time>2024-05-20T08:53:31.000Z</time>
      </trkpt>
      <trkpt lat="46.42439" lon="4.66584">
        <ele>250.60000610352</ele>
        <time>2024-05-20T08:53:32.000Z</time>
      </trkpt>
      <trkpt lat="46.42438" lon="4.66586">
        <ele>250.60000610352</ele>
        <time>2024-05-20T08:53:33.000Z</time>
      </trkpt>
      <trkpt lat="46.42436" lon="4.66587">
        <ele>250.39999389648</ele>
        <time>2024-05-20T08:53:34.000Z</time>
      </trkpt>
      <trkpt lat="46.42434" lon="4.66585">
        <ele>250.39999389648</ele>
        <time>2024-05-20T08:53:35.000Z</time>
      </trkpt>
      <trkpt lat="46.42431" lon="4.66583">
        <ele>250.39999389648</ele>
        <time>2024-05-20T08:53:36.000Z</time>
      </trkpt>
      <trkpt lat="46.42429" lon="4.6658">
        <ele>250.39999389648</ele>
        <time>2024-05-20T08:53:37.000Z</time>
      </trkpt>
      <trkpt lat="46.42425" lon="4.66579">
        <ele>250.19999694824</ele>
        <time>2024-05-20T08:53:38.000Z</time>
      </trkpt>
      <trkpt lat="46.42422" lon="4.66577">
        <ele>250.19999694824</ele>
        <time>2024-05-20T08:53:39.000Z</time>
      </trkpt>
      <trkpt lat="46.42418" lon="4.66575">
        <ele>250.19999694824</ele>
        <time>2024-05-20T08:53:40.000Z</time>
      </trkpt>
      <trkpt lat="46.42415" lon="4.66573">
        <ele>250.19999694824</ele>
        <time>2024-05-20T08:53:41.000Z</time>
      </trkpt>
      <trkpt lat="46.42411" lon="4.66572">
        <ele>250.19999694824</ele>
        <time>2024-05-20T08:53:42.000Z</time>
      </trkpt>
      <trkpt lat="46.42407" lon="4.6657">
        <ele>250.19999694824</ele>
        <time>2024-05-20T08:53:43.000Z</time>
      </trkpt>
      <trkpt lat="46.42403" lon="4.66569">
        <ele>250.19999694824</ele>
        <time>2024-05-20T08:53:44.000Z</time>
      </trkpt>
      <trkpt lat="46.42399" lon="4.66567">
        <ele>250.19999694824</ele>
        <time>2024-05-20T08:53:45.000Z</time>
      </trkpt>
      <trkpt lat="46.42395" lon="4.66565">
        <ele>250.19999694824</ele>
        <time>2024-05-20T08:53:46.000Z</time>
      </trkpt>
      <trkpt lat="46.42391" lon="4.66563">
        <ele>250.19999694824</ele>
        <time>2024-05-20T08:53:47.000Z</time>
      </trkpt>
      <trkpt lat="46.42387" lon="4.66564">
        <ele>250.19999694824</ele>
        <time>2024-05-20T08:53:48.000Z</time>
      </trkpt>
      <trkpt lat="46.42384" lon="4.66568">
        <ele>250.19999694824</ele>
        <time>2024-05-20T08:53:49.000Z</time>
      </trkpt>
      <trkpt lat="46.42382" lon="4.66572">
        <ele>250.19999694824</ele>
        <time>2024-05-20T08:53:50.000Z</time>
      </trkpt>
      <trkpt lat="46.4238" lon="4.66577">
        <ele>250.19999694824</ele>
        <time>2024-05-20T08:53:51.000Z</time>
      </trkpt>
      <trkpt lat="46.42379" lon="4.66583">
        <ele>250.39999389648</ele>
        <time>2024-05-20T08:53:52.000Z</time>
      </trkpt>
      <trkpt lat="46.42379" lon="4.66588">
        <ele>250.39999389648</ele>
        <time>2024-05-20T08:53:53.000Z</time>
      </trkpt>
      <trkpt lat="46.42378" lon="4.66594">
        <ele>250.39999389648</ele>
        <time>2024-05-20T08:53:54.000Z</time>
      </trkpt>
      <trkpt lat="46.42376" lon="4.66599">
        <ele>250.39999389648</ele>
        <time>2024-05-20T08:53:55.000Z</time>
      </trkpt>
      <trkpt lat="46.42374" lon="4.66603">
        <ele>250.39999389648</ele>
        <time>2024-05-20T08:53:56.000Z</time>
      </trkpt>
      <trkpt lat="46.42373" lon="4.66608">
        <ele>250.39999389648</ele>
        <time>2024-05-20T08:53:57.000Z</time>
      </trkpt>
      <trkpt lat="46.42372" lon="4.66613">
        <ele>250.39999389648</ele>
        <time>2024-05-20T08:53:58.000Z</time>
      </trkpt>
      <trkpt lat="46.42371" lon="4.66618">
        <ele>250.39999389648</ele>
        <time>2024-05-20T08:53:59.000Z</time>
      </trkpt>
      <trkpt lat="46.4237" lon="4.66623">
        <ele>250.39999389648</ele>
        <time>2024-05-20T08:54:00.000Z</time>
      </trkpt>
      <trkpt lat="46.42369" lon="4.66626">
        <ele>250.39999389648</ele>
        <time>2024-05-20T08:54:01.000Z</time>
      </trkpt>
      <trkpt lat="46.42366" lon="4.66629">
        <ele>250.60000610352</ele>
        <time>2024-05-20T08:54:02.000Z</time>
      </trkpt>
      <trkpt lat="46.42364" lon="4.6663">
        <ele>250.60000610352</ele>
        <time>2024-05-20T08:54:03.000Z</time>
      </trkpt>
      <trkpt lat="46.4236" lon="4.66631">
        <ele>250.60000610352</ele>
        <time>2024-05-20T08:54:04.000Z</time>
      </trkpt>
      <trkpt lat="46.42357" lon="4.66631">
        <ele>250.60000610352</ele>
        <time>2024-05-20T08:54:05.000Z</time>
      </trkpt>
      <trkpt lat="46.42353" lon="4.6663">
        <ele>250.60000610352</ele>
        <time>2024-05-20T08:54:06.000Z</time>
      </trkpt>
      <trkpt lat="46.4235" lon="4.66629">
        <ele>250.60000610352</ele>
        <time>2024-05-20T08:54:07.000Z</time>
      </trkpt>
      <trkpt lat="46.42346" lon="4.66627">
        <ele>250.60000610352</ele>
        <time>2024-05-20T08:54:08.000Z</time>
      </trkpt>
      <trkpt lat="46.42343" lon="4.66624">
        <ele>250.60000610352</ele>
        <time>2024-05-20T08:54:09.000Z</time>
      </trkpt>
      <trkpt lat="46.42339" lon="4.66622">
        <ele>250.60000610352</ele>
        <time>2024-05-20T08:54:10.000Z</time>
      </trkpt>
      <trkpt lat="46.42335" lon="4.66619">
        <ele>250.60000610352</ele>
        <time>2024-05-20T08:54:11.000Z</time>
      </trkpt>
      <trkpt lat="46.42331" lon="4.66617">
        <ele>250.60000610352</ele>
        <time>2024-05-20T08:54:12.000Z</time>
      </trkpt>
      <trkpt lat="46.42327" lon="4.66614">
        <ele>250.80000305176</ele>
        <time>2024-05-20T08:54:13.000Z</time>
      </trkpt>
      <trkpt lat="46.42323" lon="4.66611">
        <ele>250.80000305176</ele>
        <time>2024-05-20T08:54:14.000Z</time>
      </trkpt>
      <trkpt lat="46.42319" lon="4.66607">
        <ele>250.80000305176</ele>
        <time>2024-05-20T08:54:15.000Z</time>
      </trkpt>
      <trkpt lat="46.42314" lon="4.66604">
        <ele>250.80000305176</ele>
        <time>2024-05-20T08:54:16.000Z</time>
      </trkpt>
      <trkpt lat="46.4231" lon="4.66601">
        <ele>250.80000305176</ele>
        <time>2024-05-20T08:54:17.000Z</time>
      </trkpt>
      <trkpt lat="46.42306" lon="4.66597">
        <ele>250.80000305176</ele>
        <time>2024-05-20T08:54:18.000Z</time>
      </trkpt>
      <trkpt lat="46.42302" lon="4.66594">
        <ele>250.80000305176</ele>
        <time>2024-05-20T08:54:19.000Z</time>
      </trkpt>
      <trkpt lat="46.42298" lon="4.6659">
        <ele>250.80000305176</ele>
        <time>2024-05-20T08:54:20.000Z</time>
      </trkpt>
      <trkpt lat="46.42294" lon="4.66586">
        <ele>251</ele>
        <time>2024-05-20T08:54:21.000Z</time>
      </trkpt>
      <trkpt lat="46.4229" lon="4.66582">
        <ele>251</ele>
        <time>2024-05-20T08:54:22.000Z</time>
      </trkpt>
      <trkpt lat="46.42285" lon="4.66577">
        <ele>251</ele>
        <time>2024-05-20T08:54:23.000Z</time>
      </trkpt>
      <trkpt lat="46.42281" lon="4.66573">
        <ele>251</ele>
        <time>2024-05-20T08:54:24.000Z</time>
      </trkpt>
      <trkpt lat="46.42276" lon="4.66568">
        <ele>251</ele>
        <time>2024-05-20T08:54:25.000Z</time>
      </trkpt>
      <trkpt lat="46.42272" lon="4.66564">
        <ele>251</ele>
        <time>2024-05-20T08:54:26.000Z</time>
      </trkpt>
      <trkpt lat="46.42267" lon="4.6656">
        <ele>251</ele>
        <time>2024-05-20T08:54:27.000Z</time>
      </trkpt>
      <trkpt lat="46.42262" lon="4.66556">
        <ele>251</ele>
        <time>2024-05-20T08:54:28.000Z</time>
      </trkpt>
      <trkpt lat="46.42258" lon="4.66552">
        <ele>251</ele>
        <time>2024-05-20T08:54:29.000Z</time>
      </trkpt>
      <trkpt lat="46.42253" lon="4.66547">
        <ele>251</ele>
        <time>2024-05-20T08:54:30.000Z</time>
      </trkpt>
      <trkpt lat="46.42249" lon="4.66543">
        <ele>251</ele>
        <time>2024-05-20T08:54:31.000Z</time>
      </trkpt>
      <trkpt lat="46.42244" lon="4.66539">
        <ele>251</ele>
        <time>2024-05-20T08:54:32.000Z</time>
      </trkpt>
      <trkpt lat="46.4224" lon="4.66534">
        <ele>251.19999694824</ele>
        <time>2024-05-20T08:54:33.000Z</time>
      </trkpt>
      <trkpt lat="46.42235" lon="4.66529">
        <ele>251.19999694824</ele>
        <time>2024-05-20T08:54:34.000Z</time>
      </trkpt>
      <trkpt lat="46.4223" lon="4.66524">
        <ele>251.19999694824</ele>
        <time>2024-05-20T08:54:35.000Z</time>
      </trkpt>
      <trkpt lat="46.42225" lon="4.6652">
        <ele>251.19999694824</ele>
        <time>2024-05-20T08:54:36.000Z</time>
      </trkpt>
      <trkpt lat="46.42221" lon="4.66516">
        <ele>251.19999694824</ele>
        <time>2024-05-20T08:54:37.000Z</time>
      </trkpt>
      <trkpt lat="46.42216" lon="4.66511">
        <ele>251.19999694824</ele>
        <time>2024-05-20T08:54:38.000Z</time>
      </trkpt>
      <trkpt lat="46.42211" lon="4.66506">
        <ele>251.19999694824</ele>
        <time>2024-05-20T08:54:39.000Z</time>
      </trkpt>
      <trkpt lat="46.42206" lon="4.66501">
        <ele>251.19999694824</ele>
        <time>2024-05-20T08:54:40.000Z</time>
      </trkpt>
      <trkpt lat="46.42201" lon="4.66496">
        <ele>251.19999694824</ele>
        <time>2024-05-20T08:54:41.000Z</time>
      </trkpt>
      <trkpt lat="46.42196" lon="4.66491">
        <ele>251.19999694824</ele>
        <time>2024-05-20T08:54:42.000Z</time>
      </trkpt>
      <trkpt lat="46.42191" lon="4.66487">
        <ele>251.19999694824</ele>
        <time>2024-05-20T08:54:43.000Z</time>
      </trkpt>
      <trkpt lat="46.42186" lon="4.66483">
        <ele>251.19999694824</ele>
        <time>2024-05-20T08:54:44.000Z</time>
      </trkpt>
      <trkpt lat="46.42181" lon="4.6648">
        <ele>251.19999694824</ele>
        <time>2024-05-20T08:54:45.000Z</time>
      </trkpt>
      <trkpt lat="46.42176" lon="4.66476">
        <ele>251.19999694824</ele>
        <time>2024-05-20T08:54:46.000Z</time>
      </trkpt>
      <trkpt lat="46.42172" lon="4.66473">
        <ele>251.19999694824</ele>
        <time>2024-05-20T08:54:47.000Z</time>
      </trkpt>
      <trkpt lat="46.42167" lon="4.66471">
        <ele>251.19999694824</ele>
        <time>2024-05-20T08:54:48.000Z</time>
      </trkpt>
      <trkpt lat="46.42163" lon="4.66468">
        <ele>251.19999694824</ele>
        <time>2024-05-20T08:54:49.000Z</time>
      </trkpt>
      <trkpt lat="46.42158" lon="4.66465">
        <ele>251.19999694824</ele>
        <time>2024-05-20T08:54:50.000Z</time>
      </trkpt>
      <trkpt lat="46.42154" lon="4.66463">
        <ele>251.39999389648</ele>
        <time>2024-05-20T08:54:51.000Z</time>
      </trkpt>
      <trkpt lat="46.4215" lon="4.6646">
        <ele>251.39999389648</ele>
        <time>2024-05-20T08:54:52.000Z</time>
      </trkpt>
      <trkpt lat="46.42146" lon="4.66456">
        <ele>251.39999389648</ele>
        <time>2024-05-20T08:54:53.000Z</time>
      </trkpt>
      <trkpt lat="46.42142" lon="4.66454">
        <ele>251.39999389648</ele>
        <time>2024-05-20T08:54:54.000Z</time>
      </trkpt>
      <trkpt lat="46.42137" lon="4.66451">
        <ele>251.39999389648</ele>
        <time>2024-05-20T08:54:55.000Z</time>
      </trkpt>
      <trkpt lat="46.42133" lon="4.66449">
        <ele>251.39999389648</ele>
        <time>2024-05-20T08:54:56.000Z</time>
      </trkpt>
      <trkpt lat="46.42129" lon="4.66446">
        <ele>251.39999389648</ele>
        <time>2024-05-20T08:54:57.000Z</time>
      </trkpt>
      <trkpt lat="46.42125" lon="4.66443">
        <ele>251.39999389648</ele>
        <time>2024-05-20T08:54:58.000Z</time>
      </trkpt>
      <trkpt lat="46.4212" lon="4.6644">
        <ele>251.39999389648</ele>
        <time>2024-05-20T08:54:59.000Z</time>
      </trkpt>
      <trkpt lat="46.42116" lon="4.66437">
        <ele>251.39999389648</ele>
        <time>2024-05-20T08:55:00.000Z</time>
      </trkpt>
      <trkpt lat="46.42111" lon="4.66434">
        <ele>251.39999389648</ele>
        <time>2024-05-20T08:55:01.000Z</time>
      </trkpt>
      <trkpt lat="46.42106" lon="4.66431">
        <ele>251.39999389648</ele>
        <time>2024-05-20T08:55:02.000Z</time>
      </trkpt>
      <trkpt lat="46.42102" lon="4.66428">
        <ele>251.39999389648</ele>
        <time>2024-05-20T08:55:03.000Z</time>
      </trkpt>
      <trkpt lat="46.42098" lon="4.66425">
        <ele>251.39999389648</ele>
        <time>2024-05-20T08:55:04.000Z</time>
      </trkpt>
      <trkpt lat="46.42094" lon="4.66422">
        <ele>251.39999389648</ele>
        <time>2024-05-20T08:55:05.000Z</time>
      </trkpt>
      <trkpt lat="46.4209" lon="4.66418">
        <ele>251.39999389648</ele>
        <time>2024-05-20T08:55:06.000Z</time>
      </trkpt>
      <trkpt lat="46.42086" lon="4.66416">
        <ele>251.39999389648</ele>
        <time>2024-05-20T08:55:07.000Z</time>
      </trkpt>
      <trkpt lat="46.42082" lon="4.66412">
        <ele>251.39999389648</ele>
        <time>2024-05-20T08:55:08.000Z</time>
      </trkpt>
      <trkpt lat="46.42077" lon="4.6641">
        <ele>251.39999389648</ele>
        <time>2024-05-20T08:55:09.000Z</time>
      </trkpt>
      <trkpt lat="46.42072" lon="4.66407">
        <ele>251.39999389648</ele>
        <time>2024-05-20T08:55:10.000Z</time>
      </trkpt>
      <trkpt lat="46.42068" lon="4.66403">
        <ele>251.39999389648</ele>
        <time>2024-05-20T08:55:11.000Z</time>
      </trkpt>
      <trkpt lat="46.42063" lon="4.664">
        <ele>251.39999389648</ele>
        <time>2024-05-20T08:55:12.000Z</time>
      </trkpt>
      <trkpt lat="46.42058" lon="4.66397">
        <ele>251.19999694824</ele>
        <time>2024-05-20T08:55:13.000Z</time>
      </trkpt>
      <trkpt lat="46.42054" lon="4.66394">
        <ele>251.19999694824</ele>
        <time>2024-05-20T08:55:14.000Z</time>
      </trkpt>
      <trkpt lat="46.42049" lon="4.66391">
        <ele>251.19999694824</ele>
        <time>2024-05-20T08:55:15.000Z</time>
      </trkpt>
      <trkpt lat="46.42045" lon="4.66388">
        <ele>251.19999694824</ele>
        <time>2024-05-20T08:55:16.000Z</time>
      </trkpt>
      <trkpt lat="46.4204" lon="4.66384">
        <ele>251.19999694824</ele>
        <time>2024-05-20T08:55:17.000Z</time>
      </trkpt>
      <trkpt lat="46.42035" lon="4.66381">
        <ele>251.19999694824</ele>
        <time>2024-05-20T08:55:18.000Z</time>
      </trkpt>
      <trkpt lat="46.4203" lon="4.66378">
        <ele>251.19999694824</ele>
        <time>2024-05-20T08:55:19.000Z</time>
      </trkpt>
      <trkpt lat="46.42026" lon="4.66374">
        <ele>251.19999694824</ele>
        <time>2024-05-20T08:55:20.000Z</time>
      </trkpt>
      <trkpt lat="46.42021" lon="4.66371">
        <ele>251.19999694824</ele>
        <time>2024-05-20T08:55:21.000Z</time>
      </trkpt>
      <trkpt lat="46.42016" lon="4.66369">
        <ele>251</ele>
        <time>2024-05-20T08:55:22.000Z</time>
      </trkpt>
      <trkpt lat="46.42012" lon="4.66366">
        <ele>251</ele>
        <time>2024-05-20T08:55:23.000Z</time>
      </trkpt>
      <trkpt lat="46.42008" lon="4.66365">
        <ele>251</ele>
        <time>2024-05-20T08:55:24.000Z</time>
      </trkpt>
      <trkpt lat="46.42003" lon="4.66363">
        <ele>251</ele>
        <time>2024-05-20T08:55:25.000Z</time>
      </trkpt>
      <trkpt lat="46.41997" lon="4.66363">
        <ele>251</ele>
        <time>2024-05-20T08:55:26.000Z</time>
      </trkpt>
      <trkpt lat="46.41992" lon="4.66363">
        <ele>251</ele>
        <time>2024-05-20T08:55:27.000Z</time>
      </trkpt>
      <trkpt lat="46.41987" lon="4.66363">
        <ele>250.80000305176</ele>
        <time>2024-05-20T08:55:28.000Z</time>
      </trkpt>
      <trkpt lat="46.41982" lon="4.66363">
        <ele>250.80000305176</ele>
        <time>2024-05-20T08:55:29.000Z</time>
      </trkpt>
      <trkpt lat="46.41978" lon="4.66363">
        <ele>250.80000305176</ele>
        <time>2024-05-20T08:55:30.000Z</time>
      </trkpt>
      <trkpt lat="46.41974" lon="4.66363">
        <ele>250.80000305176</ele>
        <time>2024-05-20T08:55:31.000Z</time>
      </trkpt>
      <trkpt lat="46.41971" lon="4.66363">
        <ele>251.19999694824</ele>
        <time>2024-05-20T08:55:32.000Z</time>
      </trkpt>
      <trkpt lat="46.41968" lon="4.66362">
        <ele>251.39999389648</ele>
        <time>2024-05-20T08:55:33.000Z</time>
      </trkpt>
      <trkpt lat="46.41965" lon="4.66361">
        <ele>251.80000305176</ele>
        <time>2024-05-20T08:55:34.000Z</time>
      </trkpt>
      <trkpt lat="46.41962" lon="4.6636">
        <ele>252</ele>
        <time>2024-05-20T08:55:35.000Z</time>
      </trkpt>
      <trkpt lat="46.41959" lon="4.6636">
        <ele>252.19999694824</ele>
        <time>2024-05-20T08:55:36.000Z</time>
      </trkpt>
      <trkpt lat="46.41956" lon="4.66359">
        <ele>252.39999389648</ele>
        <time>2024-05-20T08:55:37.000Z</time>
      </trkpt>
      <trkpt lat="46.41953" lon="4.66358">
        <ele>252.60000610352</ele>
        <time>2024-05-20T08:55:38.000Z</time>
      </trkpt>
      <trkpt lat="46.4195" lon="4.66358">
        <ele>252.80000305176</ele>
        <time>2024-05-20T08:55:39.000Z</time>
      </trkpt>
      <trkpt lat="46.41948" lon="4.66357">
        <ele>253</ele>
        <time>2024-05-20T08:55:40.000Z</time>
      </trkpt>
      <trkpt lat="46.41945" lon="4.66357">
        <ele>253.19999694824</ele>
        <time>2024-05-20T08:55:41.000Z</time>
      </trkpt>
      <trkpt lat="46.41943" lon="4.66357">
        <ele>253.39999389648</ele>
        <time>2024-05-20T08:55:42.000Z</time>
      </trkpt>
      <trkpt lat="46.4194" lon="4.66356">
        <ele>253.60000610352</ele>
        <time>2024-05-20T08:55:43.000Z</time>
      </trkpt>
      <trkpt lat="46.41938" lon="4.66356">
        <ele>253.80000305176</ele>
        <time>2024-05-20T08:55:44.000Z</time>
      </trkpt>
      <trkpt lat="46.41935" lon="4.66357">
        <ele>254.19999694824</ele>
        <time>2024-05-20T08:55:45.000Z</time>
      </trkpt>
      <trkpt lat="46.41932" lon="4.66357">
        <ele>254.39999389648</ele>
        <time>2024-05-20T08:55:46.000Z</time>
      </trkpt>
      <trkpt lat="46.4193" lon="4.66358">
        <ele>254.60000610352</ele>
        <time>2024-05-20T08:55:47.000Z</time>
      </trkpt>
      <trkpt lat="46.41928" lon="4.66359">
        <ele>254.80000305176</ele>
        <time>2024-05-20T08:55:48.000Z</time>
      </trkpt>
      <trkpt lat="46.41925" lon="4.6636">
        <ele>255</ele>
        <time>2024-05-20T08:55:49.000Z</time>
      </trkpt>
      <trkpt lat="46.41923" lon="4.66361">
        <ele>255.19999694824</ele>
        <time>2024-05-20T08:55:50.000Z</time>
      </trkpt>
      <trkpt lat="46.41921" lon="4.66362">
        <ele>255.39999389648</ele>
        <time>2024-05-20T08:55:51.000Z</time>
      </trkpt>
      <trkpt lat="46.41918" lon="4.66363">
        <ele>255.80000305176</ele>
        <time>2024-05-20T08:55:52.000Z</time>
      </trkpt>
      <trkpt lat="46.41916" lon="4.66365">
        <ele>255.80000305176</ele>
        <time>2024-05-20T08:55:53.000Z</time>
      </trkpt>
      <trkpt lat="46.41914" lon="4.66366">
        <ele>256</ele>
        <time>2024-05-20T08:55:54.000Z</time>
      </trkpt>
      <trkpt lat="46.41912" lon="4.66368">
        <ele>256</ele>
        <time>2024-05-20T08:55:55.000Z</time>
      </trkpt>
      <trkpt lat="46.4191" lon="4.6637">
        <ele>256.20001220703</ele>
        <time>2024-05-20T08:55:56.000Z</time>
      </trkpt>
      <trkpt lat="46.41908" lon="4.66373">
        <ele>256.39999389648</ele>
        <time>2024-05-20T08:55:57.000Z</time>
      </trkpt>
      <trkpt lat="46.41906" lon="4.66375">
        <ele>256.60000610352</ele>
        <time>2024-05-20T08:55:58.000Z</time>
      </trkpt>
      <trkpt lat="46.41905" lon="4.66377">
        <ele>257</ele>
        <time>2024-05-20T08:55:59.000Z</time>
      </trkpt>
      <trkpt lat="46.41903" lon="4.66379">
        <ele>257.20001220703</ele>
        <time>2024-05-20T08:56:00.000Z</time>
      </trkpt>
      <trkpt lat="46.41902" lon="4.66381">
        <ele>257.39999389648</ele>
        <time>2024-05-20T08:56:01.000Z</time>
      </trkpt>
      <trkpt lat="46.419" lon="4.66384">
        <ele>257.60000610352</ele>
        <time>2024-05-20T08:56:02.000Z</time>
      </trkpt>
      <trkpt lat="46.41899" lon="4.66386">
        <ele>257.79998779297</ele>
        <time>2024-05-20T08:56:03.000Z</time>
      </trkpt>
      <trkpt lat="46.41897" lon="4.66388">
        <ele>258</ele>
        <time>2024-05-20T08:56:04.000Z</time>
      </trkpt>
      <trkpt lat="46.41895" lon="4.6639">
        <ele>258.39999389648</ele>
        <time>2024-05-20T08:56:05.000Z</time>
      </trkpt>
      <trkpt lat="46.41893" lon="4.66392">
        <ele>258.60000610352</ele>
        <time>2024-05-20T08:56:06.000Z</time>
      </trkpt>
      <trkpt lat="46.41892" lon="4.66394">
        <ele>258.79998779297</ele>
        <time>2024-05-20T08:56:07.000Z</time>
      </trkpt>
      <trkpt lat="46.4189" lon="4.66396">
        <ele>259</ele>
        <time>2024-05-20T08:56:08.000Z</time>
      </trkpt>
      <trkpt lat="46.41889" lon="4.66399">
        <ele>259.20001220703</ele>
        <time>2024-05-20T08:56:09.000Z</time>
      </trkpt>
      <trkpt lat="46.41887" lon="4.66401">
        <ele>259.39999389648</ele>
        <time>2024-05-20T08:56:10.000Z</time>
      </trkpt>
      <trkpt lat="46.41885" lon="4.66403">
        <ele>259.60000610352</ele>
        <time>2024-05-20T08:56:11.000Z</time>
      </trkpt>
      <trkpt lat="46.41884" lon="4.66406">
        <ele>259.79998779297</ele>
        <time>2024-05-20T08:56:12.000Z</time>
      </trkpt>
      <trkpt lat="46.41882" lon="4.66408">
        <ele>260</ele>
        <time>2024-05-20T08:56:13.000Z</time>
      </trkpt>
      <trkpt lat="46.41881" lon="4.6641">
        <ele>260.20001220703</ele>
        <time>2024-05-20T08:56:14.000Z</time>
      </trkpt>
      <trkpt lat="46.4188" lon="4.66412">
        <ele>260.39999389648</ele>
        <time>2024-05-20T08:56:15.000Z</time>
      </trkpt>
      <trkpt lat="46.41879" lon="4.66414">
        <ele>260.60000610352</ele>
        <time>2024-05-20T08:56:16.000Z</time>
      </trkpt>
      <trkpt lat="46.41878" lon="4.66417">
        <ele>261</ele>
        <time>2024-05-20T08:56:17.000Z</time>
      </trkpt>
      <trkpt lat="46.41877" lon="4.66419">
        <ele>261</ele>
        <time>2024-05-20T08:56:18.000Z</time>
      </trkpt>
      <trkpt lat="46.41876" lon="4.66421">
        <ele>261.20001220703</ele>
        <time>2024-05-20T08:56:19.000Z</time>
      </trkpt>
      <trkpt lat="46.41874" lon="4.66424">
        <ele>261.39999389648</ele>
        <time>2024-05-20T08:56:20.000Z</time>
      </trkpt>
      <trkpt lat="46.41873" lon="4.66426">
        <ele>261.39999389648</ele>
        <time>2024-05-20T08:56:21.000Z</time>
      </trkpt>
      <trkpt lat="46.41872" lon="4.66429">
        <ele>261.60000610352</ele>
        <time>2024-05-20T08:56:22.000Z</time>
      </trkpt>
      <trkpt lat="46.4187" lon="4.66431">
        <ele>261.79998779297</ele>
        <time>2024-05-20T08:56:23.000Z</time>
      </trkpt>
      <trkpt lat="46.41869" lon="4.66434">
        <ele>261.79998779297</ele>
        <time>2024-05-20T08:56:24.000Z</time>
      </trkpt>
      <trkpt lat="46.41868" lon="4.66437">
        <ele>261.79998779297</ele>
        <time>2024-05-20T08:56:25.000Z</time>
      </trkpt>
      <trkpt lat="46.41866" lon="4.66439">
        <ele>262</ele>
        <time>2024-05-20T08:56:26.000Z</time>
      </trkpt>
      <trkpt lat="46.41865" lon="4.66442">
        <ele>262.20001220703</ele>
        <time>2024-05-20T08:56:27.000Z</time>
      </trkpt>
      <trkpt lat="46.41863" lon="4.66445">
        <ele>262.20001220703</ele>
        <time>2024-05-20T08:56:28.000Z</time>
      </trkpt>
      <trkpt lat="46.41862" lon="4.66448">
        <ele>262.39999389648</ele>
        <time>2024-05-20T08:56:29.000Z</time>
      </trkpt>
      <trkpt lat="46.4186" lon="4.66451">
        <ele>262.39999389648</ele>
        <time>2024-05-20T08:56:30.000Z</time>
      </trkpt>
      <trkpt lat="46.41859" lon="4.66454">
        <ele>262.60000610352</ele>
        <time>2024-05-20T08:56:31.000Z</time>
      </trkpt>
      <trkpt lat="46.41857" lon="4.66457">
        <ele>262.60000610352</ele>
        <time>2024-05-20T08:56:32.000Z</time>
      </trkpt>
      <trkpt lat="46.41856" lon="4.66461">
        <ele>262.79998779297</ele>
        <time>2024-05-20T08:56:33.000Z</time>
      </trkpt>
      <trkpt lat="46.41854" lon="4.66464">
        <ele>263</ele>
        <time>2024-05-20T08:56:34.000Z</time>
      </trkpt>
      <trkpt lat="46.41853" lon="4.66467">
        <ele>263</ele>
        <time>2024-05-20T08:56:35.000Z</time>
      </trkpt>
      <trkpt lat="46.41851" lon="4.66471">
        <ele>263</ele>
        <time>2024-05-20T08:56:36.000Z</time>
      </trkpt>
      <trkpt lat="46.41849" lon="4.66474">
        <ele>263</ele>
        <time>2024-05-20T08:56:37.000Z</time>
      </trkpt>
      <trkpt lat="46.41847" lon="4.66478">
        <ele>263</ele>
        <time>2024-05-20T08:56:38.000Z</time>
      </trkpt>
      <trkpt lat="46.41844" lon="4.66481">
        <ele>263</ele>
        <time>2024-05-20T08:56:39.000Z</time>
      </trkpt>
      <trkpt lat="46.41842" lon="4.66485">
        <ele>263</ele>
        <time>2024-05-20T08:56:40.000Z</time>
      </trkpt>
      <trkpt lat="46.41841" lon="4.66489">
        <ele>263</ele>
        <time>2024-05-20T08:56:41.000Z</time>
      </trkpt>
      <trkpt lat="46.41839" lon="4.66493">
        <ele>263.20001220703</ele>
        <time>2024-05-20T08:56:42.000Z</time>
      </trkpt>
      <trkpt lat="46.41837" lon="4.66497">
        <ele>263.20001220703</ele>
        <time>2024-05-20T08:56:43.000Z</time>
      </trkpt>
      <trkpt lat="46.41835" lon="4.66501">
        <ele>263.20001220703</ele>
        <time>2024-05-20T08:56:44.000Z</time>
      </trkpt>
      <trkpt lat="46.41834" lon="4.66505">
        <ele>263.20001220703</ele>
        <time>2024-05-20T08:56:45.000Z</time>
      </trkpt>
      <trkpt lat="46.41832" lon="4.66508">
        <ele>263</ele>
        <time>2024-05-20T08:56:46.000Z</time>
      </trkpt>
      <trkpt lat="46.41831" lon="4.66511">
        <ele>263</ele>
        <time>2024-05-20T08:56:47.000Z</time>
      </trkpt>
      <trkpt lat="46.41829" lon="4.66513">
        <ele>263</ele>
        <time>2024-05-20T08:56:48.000Z</time>
      </trkpt>
      <trkpt lat="46.41827" lon="4.66513">
        <ele>263.20001220703</ele>
        <time>2024-05-20T08:56:49.000Z</time>
      </trkpt>
      <trkpt lat="46.41825" lon="4.66511">
        <ele>263.20001220703</ele>
        <time>2024-05-20T08:56:50.000Z</time>
      </trkpt>
      <trkpt lat="46.41823" lon="4.66508">
        <ele>263.39999389648</ele>
        <time>2024-05-20T08:56:51.000Z</time>
      </trkpt>
      <trkpt lat="46.41822" lon="4.66503">
        <ele>263.39999389648</ele>
        <time>2024-05-20T08:56:52.000Z</time>
      </trkpt>
      <trkpt lat="46.41821" lon="4.66498">
        <ele>263.39999389648</ele>
        <time>2024-05-20T08:56:53.000Z</time>
      </trkpt>
      <trkpt lat="46.4182" lon="4.66493">
        <ele>263.39999389648</ele>
        <time>2024-05-20T08:56:54.000Z</time>
      </trkpt>
      <trkpt lat="46.41818" lon="4.66488">
        <ele>263.39999389648</ele>
        <time>2024-05-20T08:56:55.000Z</time>
      </trkpt>
      <trkpt lat="46.41816" lon="4.66483">
        <ele>263.20001220703</ele>
        <time>2024-05-20T08:56:56.000Z</time>
      </trkpt>
      <trkpt lat="46.41814" lon="4.66477">
        <ele>263.20001220703</ele>
        <time>2024-05-20T08:56:57.000Z</time>
      </trkpt>
      <trkpt lat="46.41813" lon="4.66471">
        <ele>263</ele>
        <time>2024-05-20T08:56:58.000Z</time>
      </trkpt>
      <trkpt lat="46.41812" lon="4.66464">
        <ele>262.79998779297</ele>
        <time>2024-05-20T08:56:59.000Z</time>
      </trkpt>
      <trkpt lat="46.41813" lon="4.66455">
        <ele>262.60000610352</ele>
        <time>2024-05-20T08:57:00.000Z</time>
      </trkpt>
      <trkpt lat="46.41813" lon="4.66446">
        <ele>262.39999389648</ele>
        <time>2024-05-20T08:57:01.000Z</time>
      </trkpt>
      <trkpt lat="46.41811" lon="4.66436">
        <ele>262</ele>
        <time>2024-05-20T08:57:02.000Z</time>
      </trkpt>
      <trkpt lat="46.41808" lon="4.66427">
        <ele>261.39999389648</ele>
        <time>2024-05-20T08:57:03.000Z</time>
      </trkpt>
      <trkpt lat="46.41804" lon="4.66418">
        <ele>260.60000610352</ele>
        <time>2024-05-20T08:57:04.000Z</time>
      </trkpt>
      <trkpt lat="46.41798" lon="4.6641">
        <ele>259.79998779297</ele>
        <time>2024-05-20T08:57:05.000Z</time>
      </trkpt>
      <trkpt lat="46.41791" lon="4.66402">
        <ele>258.79998779297</ele>
        <time>2024-05-20T08:57:06.000Z</time>
      </trkpt>
      <trkpt lat="46.41784" lon="4.66395">
        <ele>258</ele>
        <time>2024-05-20T08:57:07.000Z</time>
      </trkpt>
      <trkpt lat="46.41776" lon="4.66387">
        <ele>256.79998779297</ele>
        <time>2024-05-20T08:57:08.000Z</time>
      </trkpt>
      <trkpt lat="46.41768" lon="4.66378">
        <ele>256</ele>
        <time>2024-05-20T08:57:09.000Z</time>
      </trkpt>
      <trkpt lat="46.41759" lon="4.6637">
        <ele>255</ele>
        <time>2024-05-20T08:57:10.000Z</time>
      </trkpt>
      <trkpt lat="46.41751" lon="4.6636">
        <ele>254.60000610352</ele>
        <time>2024-05-20T08:57:11.000Z</time>
      </trkpt>
      <trkpt lat="46.41741" lon="4.66352">
        <ele>254</ele>
        <time>2024-05-20T08:57:12.000Z</time>
      </trkpt>
      <trkpt lat="46.41732" lon="4.66343">
        <ele>253.19999694824</ele>
        <time>2024-05-20T08:57:13.000Z</time>
      </trkpt>
      <trkpt lat="46.41722" lon="4.66335">
        <ele>252.19999694824</ele>
        <time>2024-05-20T08:57:14.000Z</time>
      </trkpt>
      <trkpt lat="46.41713" lon="4.66327">
        <ele>251.39999389648</ele>
        <time>2024-05-20T08:57:15.000Z</time>
      </trkpt>
      <trkpt lat="46.41703" lon="4.66319">
        <ele>250.80000305176</ele>
        <time>2024-05-20T08:57:16.000Z</time>
      </trkpt>
      <trkpt lat="46.41694" lon="4.66311">
        <ele>250.39999389648</ele>
        <time>2024-05-20T08:57:17.000Z</time>
      </trkpt>
      <trkpt lat="46.41685" lon="4.66304">
        <ele>249.80000305176</ele>
        <time>2024-05-20T08:57:18.000Z</time>
      </trkpt>
      <trkpt lat="46.41676" lon="4.66297">
        <ele>249.80000305176</ele>
        <time>2024-05-20T08:57:19.000Z</time>
      </trkpt>
      <trkpt lat="46.41667" lon="4.6629">
        <ele>249.80000305176</ele>
        <time>2024-05-20T08:57:20.000Z</time>
      </trkpt>
      <trkpt lat="46.41659" lon="4.66283">
        <ele>249.60000610352</ele>
        <time>2024-05-20T08:57:21.000Z</time>
      </trkpt>
      <trkpt lat="46.4165" lon="4.66276">
        <ele>249.60000610352</ele>
        <time>2024-05-20T08:57:22.000Z</time>
      </trkpt>
      <trkpt lat="46.41642" lon="4.6627">
        <ele>249.60000610352</ele>
        <time>2024-05-20T08:57:23.000Z</time>
      </trkpt>
      <trkpt lat="46.41634" lon="4.66264">
        <ele>249.39999389648</ele>
        <time>2024-05-20T08:57:24.000Z</time>
      </trkpt>
      <trkpt lat="46.41626" lon="4.66257">
        <ele>249.39999389648</ele>
        <time>2024-05-20T08:57:25.000Z</time>
      </trkpt>
      <trkpt lat="46.41619" lon="4.66251">
        <ele>249.19999694824</ele>
        <time>2024-05-20T08:57:26.000Z</time>
      </trkpt>
      <trkpt lat="46.41611" lon="4.66245">
        <ele>249.19999694824</ele>
        <time>2024-05-20T08:57:27.000Z</time>
      </trkpt>
      <trkpt lat="46.41604" lon="4.66239">
        <ele>249.19999694824</ele>
        <time>2024-05-20T08:57:28.000Z</time>
      </trkpt>
      <trkpt lat="46.41597" lon="4.66233">
        <ele>249.19999694824</ele>
        <time>2024-05-20T08:57:29.000Z</time>
      </trkpt>
      <trkpt lat="46.4159" lon="4.66228">
        <ele>249.39999389648</ele>
        <time>2024-05-20T08:57:30.000Z</time>
      </trkpt>
      <trkpt lat="46.41583" lon="4.66222">
        <ele>249.39999389648</ele>
        <time>2024-05-20T08:57:31.000Z</time>
      </trkpt>
      <trkpt lat="46.41576" lon="4.66216">
        <ele>249.39999389648</ele>
        <time>2024-05-20T08:57:32.000Z</time>
      </trkpt>
      <trkpt lat="46.41569" lon="4.66211">
        <ele>249.39999389648</ele>
        <time>2024-05-20T08:57:33.000Z</time>
      </trkpt>
      <trkpt lat="46.41562" lon="4.66206">
        <ele>249.39999389648</ele>
        <time>2024-05-20T08:57:34.000Z</time>
      </trkpt>
      <trkpt lat="46.41556" lon="4.662">
        <ele>249.39999389648</ele>
        <time>2024-05-20T08:57:35.000Z</time>
      </trkpt>
      <trkpt lat="46.41549" lon="4.66196">
        <ele>249.39999389648</ele>
        <time>2024-05-20T08:57:36.000Z</time>
      </trkpt>
      <trkpt lat="46.41543" lon="4.66191">
        <ele>249.39999389648</ele>
        <time>2024-05-20T08:57:37.000Z</time>
      </trkpt>
      <trkpt lat="46.41537" lon="4.66187">
        <ele>249.60000610352</ele>
        <time>2024-05-20T08:57:38.000Z</time>
      </trkpt>
      <trkpt lat="46.41532" lon="4.66182">
        <ele>250</ele>
        <time>2024-05-20T08:57:39.000Z</time>
      </trkpt>
      <trkpt lat="46.41526" lon="4.66178">
        <ele>250.60000610352</ele>
        <time>2024-05-20T08:57:40.000Z</time>
      </trkpt>
      <trkpt lat="46.41521" lon="4.66175">
        <ele>251</ele>
        <time>2024-05-20T08:57:41.000Z</time>
      </trkpt>
      <trkpt lat="46.41516" lon="4.66171">
        <ele>251</ele>
        <time>2024-05-20T08:57:42.000Z</time>
      </trkpt>
      <trkpt lat="46.41512" lon="4.66168">
        <ele>251.39999389648</ele>
        <time>2024-05-20T08:57:43.000Z</time>
      </trkpt>
      <trkpt lat="46.41507" lon="4.66165">
        <ele>252</ele>
        <time>2024-05-20T08:57:44.000Z</time>
      </trkpt>
      <trkpt lat="46.41503" lon="4.66162">
        <ele>252.39999389648</ele>
        <time>2024-05-20T08:57:45.000Z</time>
      </trkpt>
      <trkpt lat="46.41499" lon="4.6616">
        <ele>252.80000305176</ele>
        <time>2024-05-20T08:57:46.000Z</time>
      </trkpt>
      <trkpt lat="46.41495" lon="4.66158">
        <ele>253.19999694824</ele>
        <time>2024-05-20T08:57:47.000Z</time>
      </trkpt>
      <trkpt lat="46.41491" lon="4.66156">
        <ele>253.60000610352</ele>
        <time>2024-05-20T08:57:48.000Z</time>
      </trkpt>
      <trkpt lat="46.41487" lon="4.66153">
        <ele>254</ele>
        <time>2024-05-20T08:57:49.000Z</time>
      </trkpt>
      <trkpt lat="46.41483" lon="4.66151">
        <ele>254.19999694824</ele>
        <time>2024-05-20T08:57:50.000Z</time>
      </trkpt>
      <trkpt lat="46.41479" lon="4.66149">
        <ele>254.39999389648</ele>
        <time>2024-05-20T08:57:51.000Z</time>
      </trkpt>
      <trkpt lat="46.41476" lon="4.66147">
        <ele>254.60000610352</ele>
        <time>2024-05-20T08:57:52.000Z</time>
      </trkpt>
      <trkpt lat="46.41472" lon="4.66145">
        <ele>255</ele>
        <time>2024-05-20T08:57:53.000Z</time>
      </trkpt>
      <trkpt lat="46.41468" lon="4.66143">
        <ele>255.19999694824</ele>
        <time>2024-05-20T08:57:54.000Z</time>
      </trkpt>
      <trkpt lat="46.41464" lon="4.66141">
        <ele>255.60000610352</ele>
        <time>2024-05-20T08:57:55.000Z</time>
      </trkpt>
      <trkpt lat="46.41461" lon="4.66138">
        <ele>255.80000305176</ele>
        <time>2024-05-20T08:57:56.000Z</time>
      </trkpt>
      <trkpt lat="46.41457" lon="4.66136">
        <ele>256</ele>
        <time>2024-05-20T08:57:57.000Z</time>
      </trkpt>
      <trkpt lat="46.41453" lon="4.66134">
        <ele>256</ele>
        <time>2024-05-20T08:57:58.000Z</time>
      </trkpt>
      <trkpt lat="46.41449" lon="4.66132">
        <ele>256.20001220703</ele>
        <time>2024-05-20T08:57:59.000Z</time>
      </trkpt>
      <trkpt lat="46.41446" lon="4.6613">
        <ele>256.39999389648</ele>
        <time>2024-05-20T08:58:00.000Z</time>
      </trkpt>
      <trkpt lat="46.41442" lon="4.66128">
        <ele>256.60000610352</ele>
        <time>2024-05-20T08:58:01.000Z</time>
      </trkpt>
      <trkpt lat="46.41439" lon="4.66126">
        <ele>256.79998779297</ele>
        <time>2024-05-20T08:58:02.000Z</time>
      </trkpt>
      <trkpt lat="46.41437" lon="4.66123">
        <ele>256.79998779297</ele>
        <time>2024-05-20T08:58:03.000Z</time>
      </trkpt>
      <trkpt lat="46.41434" lon="4.66119">
        <ele>257</ele>
        <time>2024-05-20T08:58:04.000Z</time>
      </trkpt>
      <trkpt lat="46.41432" lon="4.66116">
        <ele>257</ele>
        <time>2024-05-20T08:58:05.000Z</time>
      </trkpt>
      <trkpt lat="46.41429" lon="4.66113">
        <ele>257.20001220703</ele>
        <time>2024-05-20T08:58:06.000Z</time>
      </trkpt>
      <trkpt lat="46.41425" lon="4.6611">
        <ele>257.20001220703</ele>
        <time>2024-05-20T08:58:07.000Z</time>
      </trkpt>
      <trkpt lat="46.41421" lon="4.66107">
        <ele>257.20001220703</ele>
        <time>2024-05-20T08:58:08.000Z</time>
      </trkpt>
      <trkpt lat="46.41416" lon="4.66105">
        <ele>257.20001220703</ele>
        <time>2024-05-20T08:58:09.000Z</time>
      </trkpt>
      <trkpt lat="46.41412" lon="4.66103">
        <ele>257.20001220703</ele>
        <time>2024-05-20T08:58:10.000Z</time>
      </trkpt>
      <trkpt lat="46.41408" lon="4.661">
        <ele>257</ele>
        <time>2024-05-20T08:58:11.000Z</time>
      </trkpt>
      <trkpt lat="46.41403" lon="4.66097">
        <ele>257</ele>
        <time>2024-05-20T08:58:12.000Z</time>
      </trkpt>
      <trkpt lat="46.41398" lon="4.66094">
        <ele>257</ele>
        <time>2024-05-20T08:58:13.000Z</time>
      </trkpt>
      <trkpt lat="46.41394" lon="4.66092">
        <ele>256.79998779297</ele>
        <time>2024-05-20T08:58:14.000Z</time>
      </trkpt>
      <trkpt lat="46.41389" lon="4.66089">
        <ele>256.79998779297</ele>
        <time>2024-05-20T08:58:15.000Z</time>
      </trkpt>
      <trkpt lat="46.41384" lon="4.66086">
        <ele>256.60000610352</ele>
        <time>2024-05-20T08:58:16.000Z</time>
      </trkpt>
      <trkpt lat="46.41378" lon="4.66084">
        <ele>256.39999389648</ele>
        <time>2024-05-20T08:58:17.000Z</time>
      </trkpt>
      <trkpt lat="46.41373" lon="4.66082">
        <ele>256.20001220703</ele>
        <time>2024-05-20T08:58:18.000Z</time>
      </trkpt>
      <trkpt lat="46.41367" lon="4.66081">
        <ele>256</ele>
        <time>2024-05-20T08:58:19.000Z</time>
      </trkpt>
      <trkpt lat="46.41361" lon="4.66079">
        <ele>256</ele>
        <time>2024-05-20T08:58:20.000Z</time>
      </trkpt>
      <trkpt lat="46.41355" lon="4.66077">
        <ele>255.80000305176</ele>
        <time>2024-05-20T08:58:21.000Z</time>
      </trkpt>
      <trkpt lat="46.41349" lon="4.66073">
        <ele>255.39999389648</ele>
        <time>2024-05-20T08:58:22.000Z</time>
      </trkpt>
      <trkpt lat="46.41343" lon="4.66069">
        <ele>255.39999389648</ele>
        <time>2024-05-20T08:58:23.000Z</time>
      </trkpt>
      <trkpt lat="46.41336" lon="4.66065">
        <ele>255.19999694824</ele>
        <time>2024-05-20T08:58:24.000Z</time>
      </trkpt>
      <trkpt lat="46.41329" lon="4.66062">
        <ele>254.80000305176</ele>
        <time>2024-05-20T08:58:25.000Z</time>
      </trkpt>
      <trkpt lat="46.41321" lon="4.66057">
        <ele>254.39999389648</ele>
        <time>2024-05-20T08:58:26.000Z</time>
      </trkpt>
      <trkpt lat="46.41314" lon="4.66052">
        <ele>254.19999694824</ele>
        <time>2024-05-20T08:58:27.000Z</time>
      </trkpt>
      <trkpt lat="46.41306" lon="4.66047">
        <ele>253.60000610352</ele>
        <time>2024-05-20T08:58:28.000Z</time>
      </trkpt>
      <trkpt lat="46.41298" lon="4.66043">
        <ele>252.80000305176</ele>
        <time>2024-05-20T08:58:29.000Z</time>
      </trkpt>
      <trkpt lat="46.41291" lon="4.66038">
        <ele>252.19999694824</ele>
        <time>2024-05-20T08:58:30.000Z</time>
      </trkpt>
      <trkpt lat="46.41283" lon="4.66034">
        <ele>251.60000610352</ele>
        <time>2024-05-20T08:58:31.000Z</time>
      </trkpt>
      <trkpt lat="46.41276" lon="4.66029">
        <ele>251.60000610352</ele>
        <time>2024-05-20T08:58:32.000Z</time>
      </trkpt>
      <trkpt lat="46.41269" lon="4.66025">
        <ele>251.60000610352</ele>
        <time>2024-05-20T08:58:33.000Z</time>
      </trkpt>
      <trkpt lat="46.41262" lon="4.66022">
        <ele>251.60000610352</ele>
        <time>2024-05-20T08:58:34.000Z</time>
      </trkpt>
      <trkpt lat="46.41256" lon="4.66018">
        <ele>251.80000305176</ele>
        <time>2024-05-20T08:58:35.000Z</time>
      </trkpt>
      <trkpt lat="46.4125" lon="4.66015">
        <ele>252.19999694824</ele>
        <time>2024-05-20T08:58:36.000Z</time>
      </trkpt>
      <trkpt lat="46.41244" lon="4.66012">
        <ele>252.60000610352</ele>
        <time>2024-05-20T08:58:37.000Z</time>
      </trkpt>
      <trkpt lat="46.41239" lon="4.6601">
        <ele>252.80000305176</ele>
        <time>2024-05-20T08:58:38.000Z</time>
      </trkpt>
      <trkpt lat="46.41233" lon="4.66007">
        <ele>253.19999694824</ele>
        <time>2024-05-20T08:58:39.000Z</time>
      </trkpt>
      <trkpt lat="46.41228" lon="4.66004">
        <ele>253.39999389648</ele>
        <time>2024-05-20T08:58:40.000Z</time>
      </trkpt>
      <trkpt lat="46.41223" lon="4.66002">
        <ele>253.80000305176</ele>
        <time>2024-05-20T08:58:41.000Z</time>
      </trkpt>
      <trkpt lat="46.41218" lon="4.65999">
        <ele>254.19999694824</ele>
        <time>2024-05-20T08:58:42.000Z</time>
      </trkpt>
      <trkpt lat="46.41213" lon="4.65996">
        <ele>254.39999389648</ele>
        <time>2024-05-20T08:58:43.000Z</time>
      </trkpt>
      <trkpt lat="46.41208" lon="4.65993">
        <ele>254.60000610352</ele>
        <time>2024-05-20T08:58:44.000Z</time>
      </trkpt>
      <trkpt lat="46.41203" lon="4.6599">
        <ele>255</ele>
        <time>2024-05-20T08:58:45.000Z</time>
      </trkpt>
      <trkpt lat="46.41198" lon="4.65987">
        <ele>255</ele>
        <time>2024-05-20T08:58:46.000Z</time>
      </trkpt>
      <trkpt lat="46.41194" lon="4.65985">
        <ele>255.19999694824</ele>
        <time>2024-05-20T08:58:47.000Z</time>
      </trkpt>
      <trkpt lat="46.41189" lon="4.65982">
        <ele>255.39999389648</ele>
        <time>2024-05-20T08:58:48.000Z</time>
      </trkpt>
      <trkpt lat="46.41184" lon="4.65979">
        <ele>255.80000305176</ele>
        <time>2024-05-20T08:58:49.000Z</time>
      </trkpt>
      <trkpt lat="46.4118" lon="4.65976">
        <ele>256</ele>
        <time>2024-05-20T08:58:50.000Z</time>
      </trkpt>
      <trkpt lat="46.41175" lon="4.65974">
        <ele>256.39999389648</ele>
        <time>2024-05-20T08:58:51.000Z</time>
      </trkpt>
      <trkpt lat="46.41171" lon="4.65971">
        <ele>256.39999389648</ele>
        <time>2024-05-20T08:58:52.000Z</time>
      </trkpt>
      <trkpt lat="46.41166" lon="4.65968">
        <ele>256.39999389648</ele>
        <time>2024-05-20T08:58:53.000Z</time>
      </trkpt>
      <trkpt lat="46.41162" lon="4.65965">
        <ele>256.60000610352</ele>
        <time>2024-05-20T08:58:54.000Z</time>
      </trkpt>
      <trkpt lat="46.41158" lon="4.65963">
        <ele>257</ele>
        <time>2024-05-20T08:58:55.000Z</time>
      </trkpt>
      <trkpt lat="46.41153" lon="4.65961">
        <ele>257</ele>
        <time>2024-05-20T08:58:56.000Z</time>
      </trkpt>
      <trkpt lat="46.41149" lon="4.6596">
        <ele>257.20001220703</ele>
        <time>2024-05-20T08:58:57.000Z</time>
      </trkpt>
      <trkpt lat="46.41144" lon="4.65958">
        <ele>257.39999389648</ele>
        <time>2024-05-20T08:58:58.000Z</time>
      </trkpt>
      <trkpt lat="46.4114" lon="4.65957">
        <ele>257.79998779297</ele>
        <time>2024-05-20T08:58:59.000Z</time>
      </trkpt>
      <trkpt lat="46.41135" lon="4.65956">
        <ele>257.79998779297</ele>
        <time>2024-05-20T08:59:00.000Z</time>
      </trkpt>
      <trkpt lat="46.4113" lon="4.65956">
        <ele>258</ele>
        <time>2024-05-20T08:59:01.000Z</time>
      </trkpt>
      <trkpt lat="46.41126" lon="4.65957">
        <ele>258.20001220703</ele>
        <time>2024-05-20T08:59:02.000Z</time>
      </trkpt>
      <trkpt lat="46.41121" lon="4.65958">
        <ele>258.39999389648</ele>
        <time>2024-05-20T08:59:03.000Z</time>
      </trkpt>
      <trkpt lat="46.41117" lon="4.6596">
        <ele>258.60000610352</ele>
        <time>2024-05-20T08:59:04.000Z</time>
      </trkpt>
      <trkpt lat="46.41113" lon="4.65963">
        <ele>258.60000610352</ele>
        <time>2024-05-20T08:59:05.000Z</time>
      </trkpt>
      <trkpt lat="46.41109" lon="4.65966">
        <ele>258.60000610352</ele>
        <time>2024-05-20T08:59:06.000Z</time>
      </trkpt>
      <trkpt lat="46.41105" lon="4.6597">
        <ele>258.79998779297</ele>
        <time>2024-05-20T08:59:07.000Z</time>
      </trkpt>
      <trkpt lat="46.41101" lon="4.65973">
        <ele>259</ele>
        <time>2024-05-20T08:59:08.000Z</time>
      </trkpt>
      <trkpt lat="46.41098" lon="4.65978">
        <ele>259</ele>
        <time>2024-05-20T08:59:09.000Z</time>
      </trkpt>
      <trkpt lat="46.41095" lon="4.65983">
        <ele>259.20001220703</ele>
        <time>2024-05-20T08:59:10.000Z</time>
      </trkpt>
      <trkpt lat="46.41093" lon="4.65987">
        <ele>259.20001220703</ele>
        <time>2024-05-20T08:59:11.000Z</time>
      </trkpt>
      <trkpt lat="46.41091" lon="4.65992">
        <ele>259.39999389648</ele>
        <time>2024-05-20T08:59:12.000Z</time>
      </trkpt>
      <trkpt lat="46.41089" lon="4.65996">
        <ele>259.39999389648</ele>
        <time>2024-05-20T08:59:13.000Z</time>
      </trkpt>
      <trkpt lat="46.41088" lon="4.65999">
        <ele>259.39999389648</ele>
        <time>2024-05-20T08:59:14.000Z</time>
      </trkpt>
      <trkpt lat="46.41086" lon="4.66001">
        <ele>259.60000610352</ele>
        <time>2024-05-20T08:59:15.000Z</time>
      </trkpt>
      <trkpt lat="46.41084" lon="4.66002">
        <ele>259.79998779297</ele>
        <time>2024-05-20T08:59:16.000Z</time>
      </trkpt>
      <trkpt lat="46.41082" lon="4.66002">
        <ele>259.79998779297</ele>
        <time>2024-05-20T08:59:17.000Z</time>
      </trkpt>
      <trkpt lat="46.4108" lon="4.66003">
        <ele>259.79998779297</ele>
        <time>2024-05-20T08:59:18.000Z</time>
      </trkpt>
      <trkpt lat="46.41077" lon="4.66002">
        <ele>260</ele>
        <time>2024-05-20T08:59:19.000Z</time>
      </trkpt>
      <trkpt lat="46.41074" lon="4.66">
        <ele>260.20001220703</ele>
        <time>2024-05-20T08:59:20.000Z</time>
      </trkpt>
      <trkpt lat="46.41071" lon="4.65998">
        <ele>260.20001220703</ele>
        <time>2024-05-20T08:59:21.000Z</time>
      </trkpt>
      <trkpt lat="46.41067" lon="4.65997">
        <ele>260.20001220703</ele>
        <time>2024-05-20T08:59:22.000Z</time>
      </trkpt>
      <trkpt lat="46.41064" lon="4.65995">
        <ele>260.20001220703</ele>
        <time>2024-05-20T08:59:23.000Z</time>
      </trkpt>
      <trkpt lat="46.4106" lon="4.65993">
        <ele>260.20001220703</ele>
        <time>2024-05-20T08:59:24.000Z</time>
      </trkpt>
      <trkpt lat="46.41056" lon="4.65992">
        <ele>260.20001220703</ele>
        <time>2024-05-20T08:59:25.000Z</time>
      </trkpt>
      <trkpt lat="46.41052" lon="4.6599">
        <ele>260.39999389648</ele>
        <time>2024-05-20T08:59:26.000Z</time>
      </trkpt>
      <trkpt lat="46.41048" lon="4.65989">
        <ele>260.39999389648</ele>
        <time>2024-05-20T08:59:27.000Z</time>
      </trkpt>
      <trkpt lat="46.41044" lon="4.65987">
        <ele>260.39999389648</ele>
        <time>2024-05-20T08:59:28.000Z</time>
      </trkpt>
      <trkpt lat="46.4104" lon="4.65986">
        <ele>260.39999389648</ele>
        <time>2024-05-20T08:59:29.000Z</time>
      </trkpt>
      <trkpt lat="46.41036" lon="4.65985">
        <ele>260.60000610352</ele>
        <time>2024-05-20T08:59:30.000Z</time>
      </trkpt>
      <trkpt lat="46.41032" lon="4.65984">
        <ele>260.60000610352</ele>
        <time>2024-05-20T08:59:31.000Z</time>
      </trkpt>
      <trkpt lat="46.41028" lon="4.65982">
        <ele>260.60000610352</ele>
        <time>2024-05-20T08:59:32.000Z</time>
      </trkpt>
      <trkpt lat="46.41024" lon="4.65981">
        <ele>260.79998779297</ele>
        <time>2024-05-20T08:59:33.000Z</time>
      </trkpt>
      <trkpt lat="46.4102" lon="4.65979">
        <ele>260.79998779297</ele>
        <time>2024-05-20T08:59:34.000Z</time>
      </trkpt>
      <trkpt lat="46.41016" lon="4.65978">
        <ele>261</ele>
        <time>2024-05-20T08:59:35.000Z</time>
      </trkpt>
      <trkpt lat="46.41013" lon="4.65976">
        <ele>261</ele>
        <time>2024-05-20T08:59:36.000Z</time>
      </trkpt>
      <trkpt lat="46.41009" lon="4.65974">
        <ele>261.20001220703</ele>
        <time>2024-05-20T08:59:37.000Z</time>
      </trkpt>
      <trkpt lat="46.41005" lon="4.65973">
        <ele>261.39999389648</ele>
        <time>2024-05-20T08:59:38.000Z</time>
      </trkpt>
      <trkpt lat="46.41001" lon="4.65971">
        <ele>261.39999389648</ele>
        <time>2024-05-20T08:59:39.000Z</time>
      </trkpt>
      <trkpt lat="46.40998" lon="4.6597">
        <ele>261.60000610352</ele>
        <time>2024-05-20T08:59:40.000Z</time>
      </trkpt>
      <trkpt lat="46.40993" lon="4.65969">
        <ele>261.60000610352</ele>
        <time>2024-05-20T08:59:41.000Z</time>
      </trkpt>
      <trkpt lat="46.4099" lon="4.65967">
        <ele>261.79998779297</ele>
        <time>2024-05-20T08:59:42.000Z</time>
      </trkpt>
      <trkpt lat="46.40986" lon="4.65966">
        <ele>261.79998779297</ele>
        <time>2024-05-20T08:59:43.000Z</time>
      </trkpt>
      <trkpt lat="46.40982" lon="4.65966">
        <ele>262</ele>
        <time>2024-05-20T08:59:44.000Z</time>
      </trkpt>
      <trkpt lat="46.40979" lon="4.65964">
        <ele>262.39999389648</ele>
        <time>2024-05-20T08:59:45.000Z</time>
      </trkpt>
      <trkpt lat="46.40977" lon="4.65963">
        <ele>262.60000610352</ele>
        <time>2024-05-20T08:59:46.000Z</time>
      </trkpt>
      <trkpt lat="46.40974" lon="4.65962">
        <ele>263.20001220703</ele>
        <time>2024-05-20T08:59:47.000Z</time>
      </trkpt>
      <trkpt lat="46.40972" lon="4.65961">
        <ele>263.60000610352</ele>
        <time>2024-05-20T08:59:48.000Z</time>
      </trkpt>
      <trkpt lat="46.40969" lon="4.65961">
        <ele>264</ele>
        <time>2024-05-20T08:59:49.000Z</time>
      </trkpt>
      <trkpt lat="46.40967" lon="4.6596">
        <ele>264.39999389648</ele>
        <time>2024-05-20T08:59:50.000Z</time>
      </trkpt>
      <trkpt lat="46.40965" lon="4.6596">
        <ele>264.79998779297</ele>
        <time>2024-05-20T08:59:51.000Z</time>
      </trkpt>
      <trkpt lat="46.40963" lon="4.6596">
        <ele>265.20001220703</ele>
        <time>2024-05-20T08:59:52.000Z</time>
      </trkpt>
      <trkpt lat="46.4096" lon="4.6596">
        <ele>265.60000610352</ele>
        <time>2024-05-20T08:59:53.000Z</time>
      </trkpt>
      <trkpt lat="46.40957" lon="4.65959">
        <ele>266</ele>
        <time>2024-05-20T08:59:54.000Z</time>
      </trkpt>
      <trkpt lat="46.40955" lon="4.65958">
        <ele>266.39999389648</ele>
        <time>2024-05-20T08:59:55.000Z</time>
      </trkpt>
      <trkpt lat="46.40952" lon="4.65958">
        <ele>266.60000610352</ele>
        <time>2024-05-20T08:59:56.000Z</time>
      </trkpt>
      <trkpt lat="46.40949" lon="4.65958">
        <ele>267</ele>
        <time>2024-05-20T08:59:57.000Z</time>
      </trkpt>
      <trkpt lat="46.40947" lon="4.65958">
        <ele>267.20001220703</ele>
        <time>2024-05-20T08:59:58.000Z</time>
      </trkpt>
      <trkpt lat="46.40944" lon="4.65958">
        <ele>267.60000610352</ele>
        <time>2024-05-20T08:59:59.000Z</time>
      </trkpt>
      <trkpt lat="46.40941" lon="4.65957">
        <ele>267.79998779297</ele>
        <time>2024-05-20T09:00:00.000Z</time>
      </trkpt>
      <trkpt lat="46.40939" lon="4.65957">
        <ele>268</ele>
        <time>2024-05-20T09:00:01.000Z</time>
      </trkpt>
      <trkpt lat="46.40936" lon="4.65956">
        <ele>268.39999389648</ele>
        <time>2024-05-20T09:00:02.000Z</time>
      </trkpt>
      <trkpt lat="46.40933" lon="4.65956">
        <ele>268.60000610352</ele>
        <time>2024-05-20T09:00:03.000Z</time>
      </trkpt>
      <trkpt lat="46.40929" lon="4.65956">
        <ele>268.79998779297</ele>
        <time>2024-05-20T09:00:04.000Z</time>
      </trkpt>
      <trkpt lat="46.40926" lon="4.65955">
        <ele>269.20001220703</ele>
        <time>2024-05-20T09:00:05.000Z</time>
      </trkpt>
      <trkpt lat="46.40923" lon="4.65954">
        <ele>269.20001220703</ele>
        <time>2024-05-20T09:00:06.000Z</time>
      </trkpt>
      <trkpt lat="46.4092" lon="4.65953">
        <ele>269.39999389648</ele>
        <time>2024-05-20T09:00:07.000Z</time>
      </trkpt>
      <trkpt lat="46.40917" lon="4.65952">
        <ele>269.60000610352</ele>
        <time>2024-05-20T09:00:08.000Z</time>
      </trkpt>
      <trkpt lat="46.40914" lon="4.65951">
        <ele>269.60000610352</ele>
        <time>2024-05-20T09:00:09.000Z</time>
      </trkpt>
      <trkpt lat="46.40911" lon="4.6595">
        <ele>269.79998779297</ele>
        <time>2024-05-20T09:00:10.000Z</time>
      </trkpt>
      <trkpt lat="46.40907" lon="4.65948">
        <ele>270</ele>
        <time>2024-05-20T09:00:11.000Z</time>
      </trkpt>
      <trkpt lat="46.40904" lon="4.65947">
        <ele>270</ele>
        <time>2024-05-20T09:00:12.000Z</time>
      </trkpt>
      <trkpt lat="46.409" lon="4.65945">
        <ele>270.20001220703</ele>
        <time>2024-05-20T09:00:13.000Z</time>
      </trkpt>
      <trkpt lat="46.40897" lon="4.65944">
        <ele>270.20001220703</ele>
        <time>2024-05-20T09:00:14.000Z</time>
      </trkpt>
      <trkpt lat="46.40893" lon="4.65942">
        <ele>270.20001220703</ele>
        <time>2024-05-20T09:00:15.000Z</time>
      </trkpt>
      <trkpt lat="46.40889" lon="4.65941">
        <ele>270.20001220703</ele>
        <time>2024-05-20T09:00:16.000Z</time>
      </trkpt>
      <trkpt lat="46.40885" lon="4.6594">
        <ele>270.20001220703</ele>
        <time>2024-05-20T09:00:17.000Z</time>
      </trkpt>
      <trkpt lat="46.4088" lon="4.65938">
        <ele>270.20001220703</ele>
        <time>2024-05-20T09:00:18.000Z</time>
      </trkpt>
      <trkpt lat="46.40876" lon="4.65936">
        <ele>270.20001220703</ele>
        <time>2024-05-20T09:00:19.000Z</time>
      </trkpt>
      <trkpt lat="46.40871" lon="4.65934">
        <ele>270</ele>
        <time>2024-05-20T09:00:20.000Z</time>
      </trkpt>
      <trkpt lat="46.40865" lon="4.65932">
        <ele>269.79998779297</ele>
        <time>2024-05-20T09:00:21.000Z</time>
      </trkpt>
      <trkpt lat="46.40859" lon="4.6593">
        <ele>269.39999389648</ele>
        <time>2024-05-20T09:00:22.000Z</time>
      </trkpt>
      <trkpt lat="46.40853" lon="4.65927">
        <ele>269</ele>
        <time>2024-05-20T09:00:23.000Z</time>
      </trkpt>
      <trkpt lat="46.40847" lon="4.65925">
        <ele>268.79998779297</ele>
        <time>2024-05-20T09:00:24.000Z</time>
      </trkpt>
      <trkpt lat="46.4084" lon="4.65922">
        <ele>268.20001220703</ele>
        <time>2024-05-20T09:00:25.000Z</time>
      </trkpt>
      <trkpt lat="46.40833" lon="4.6592">
        <ele>267.79998779297</ele>
        <time>2024-05-20T09:00:26.000Z</time>
      </trkpt>
      <trkpt lat="46.40826" lon="4.65918">
        <ele>267.20001220703</ele>
        <time>2024-05-20T09:00:27.000Z</time>
      </trkpt>
      <trkpt lat="46.40819" lon="4.65916">
        <ele>266.60000610352</ele>
        <time>2024-05-20T09:00:28.000Z</time>
      </trkpt>
      <trkpt lat="46.40812" lon="4.65913">
        <ele>266.20001220703</ele>
        <time>2024-05-20T09:00:29.000Z</time>
      </trkpt>
      <trkpt lat="46.40807" lon="4.65908">
        <ele>266</ele>
        <time>2024-05-20T09:00:30.000Z</time>
      </trkpt>
      <trkpt lat="46.40803" lon="4.65901">
        <ele>266</ele>
        <time>2024-05-20T09:00:31.000Z</time>
      </trkpt>
      <trkpt lat="46.40799" lon="4.65893">
        <ele>266</ele>
        <time>2024-05-20T09:00:32.000Z</time>
      </trkpt>
      <trkpt lat="46.40796" lon="4.65887">
        <ele>266</ele>
        <time>2024-05-20T09:00:33.000Z</time>
      </trkpt>
      <trkpt lat="46.40792" lon="4.6588">
        <ele>266</ele>
        <time>2024-05-20T09:00:34.000Z</time>
      </trkpt>
      <trkpt lat="46.40789" lon="4.65874">
        <ele>266</ele>
        <time>2024-05-20T09:00:35.000Z</time>
      </trkpt>
      <trkpt lat="46.40786" lon="4.65869">
        <ele>266.20001220703</ele>
        <time>2024-05-20T09:00:36.000Z</time>
      </trkpt>
      <trkpt lat="46.40782" lon="4.65865">
        <ele>266.39999389648</ele>
        <time>2024-05-20T09:00:37.000Z</time>
      </trkpt>
      <trkpt lat="46.40778" lon="4.65861">
        <ele>267</ele>
        <time>2024-05-20T09:00:38.000Z</time>
      </trkpt>
      <trkpt lat="46.40774" lon="4.65858">
        <ele>267.20001220703</ele>
        <time>2024-05-20T09:00:39.000Z</time>
      </trkpt>
      <trkpt lat="46.40771" lon="4.65855">
        <ele>267.39999389648</ele>
        <time>2024-05-20T09:00:40.000Z</time>
      </trkpt>
      <trkpt lat="46.40767" lon="4.65852">
        <ele>267.60000610352</ele>
        <time>2024-05-20T09:00:41.000Z</time>
      </trkpt>
      <trkpt lat="46.40763" lon="4.6585">
        <ele>267.79998779297</ele>
        <time>2024-05-20T09:00:42.000Z</time>
      </trkpt>
      <trkpt lat="46.4076" lon="4.65847">
        <ele>268.20001220703</ele>
        <time>2024-05-20T09:00:43.000Z</time>
      </trkpt>
      <trkpt lat="46.40757" lon="4.65845">
        <ele>268.39999389648</ele>
        <time>2024-05-20T09:00:44.000Z</time>
      </trkpt>
      <trkpt lat="46.40753" lon="4.65842">
        <ele>268.60000610352</ele>
        <time>2024-05-20T09:00:45.000Z</time>
      </trkpt>
      <trkpt lat="46.4075" lon="4.6584">
        <ele>268.79998779297</ele>
        <time>2024-05-20T09:00:46.000Z</time>
      </trkpt>
      <trkpt lat="46.40746" lon="4.65838">
        <ele>268.79998779297</ele>
        <time>2024-05-20T09:00:47.000Z</time>
      </trkpt>
      <trkpt lat="46.40743" lon="4.65836">
        <ele>269.20001220703</ele>
        <time>2024-05-20T09:00:48.000Z</time>
      </trkpt>
      <trkpt lat="46.40739" lon="4.65834">
        <ele>269.20001220703</ele>
        <time>2024-05-20T09:00:49.000Z</time>
      </trkpt>
      <trkpt lat="46.40735" lon="4.65833">
        <ele>269.20001220703</ele>
        <time>2024-05-20T09:00:50.000Z</time>
      </trkpt>
      <trkpt lat="46.40732" lon="4.65831">
        <ele>269.39999389648</ele>
        <time>2024-05-20T09:00:51.000Z</time>
      </trkpt>
      <trkpt lat="46.40728" lon="4.6583">
        <ele>269.60000610352</ele>
        <time>2024-05-20T09:00:52.000Z</time>
      </trkpt>
      <trkpt lat="46.40724" lon="4.65829">
        <ele>269.79998779297</ele>
        <time>2024-05-20T09:00:53.000Z</time>
      </trkpt>
      <trkpt lat="46.40721" lon="4.65828">
        <ele>270</ele>
        <time>2024-05-20T09:00:54.000Z</time>
      </trkpt>
      <trkpt lat="46.40717" lon="4.65827">
        <ele>270.20001220703</ele>
        <time>2024-05-20T09:00:55.000Z</time>
      </trkpt>
      <trkpt lat="46.40714" lon="4.65826">
        <ele>270.20001220703</ele>
        <time>2024-05-20T09:00:56.000Z</time>
      </trkpt>
      <trkpt lat="46.4071" lon="4.65826">
        <ele>270.39999389648</ele>
        <time>2024-05-20T09:00:57.000Z</time>
      </trkpt>
      <trkpt lat="46.40706" lon="4.65825">
        <ele>270.39999389648</ele>
        <time>2024-05-20T09:00:58.000Z</time>
      </trkpt>
      <trkpt lat="46.40703" lon="4.65824">
        <ele>270.60000610352</ele>
        <time>2024-05-20T09:00:59.000Z</time>
      </trkpt>
      <trkpt lat="46.40699" lon="4.65823">
        <ele>270.79998779297</ele>
        <time>2024-05-20T09:01:00.000Z</time>
      </trkpt>
      <trkpt lat="46.40696" lon="4.65822">
        <ele>271</ele>
        <time>2024-05-20T09:01:01.000Z</time>
      </trkpt>
      <trkpt lat="46.40692" lon="4.65822">
        <ele>271</ele>
        <time>2024-05-20T09:01:02.000Z</time>
      </trkpt>
      <trkpt lat="46.40689" lon="4.65821">
        <ele>271.20001220703</ele>
        <time>2024-05-20T09:01:03.000Z</time>
      </trkpt>
      <trkpt lat="46.40685" lon="4.65821">
        <ele>271.39999389648</ele>
        <time>2024-05-20T09:01:04.000Z</time>
      </trkpt>
      <trkpt lat="46.40682" lon="4.6582">
        <ele>271.39999389648</ele>
        <time>2024-05-20T09:01:05.000Z</time>
      </trkpt>
      <trkpt lat="46.40678" lon="4.65819">
        <ele>271.60000610352</ele>
        <time>2024-05-20T09:01:06.000Z</time>
      </trkpt>
      <trkpt lat="46.40674" lon="4.65818">
        <ele>271.79998779297</ele>
        <time>2024-05-20T09:01:07.000Z</time>
      </trkpt>
      <trkpt lat="46.40671" lon="4.65817">
        <ele>272</ele>
        <time>2024-05-20T09:01:08.000Z</time>
      </trkpt>
      <trkpt lat="46.40667" lon="4.65816">
        <ele>272.20001220703</ele>
        <time>2024-05-20T09:01:09.000Z</time>
      </trkpt>
      <trkpt lat="46.40664" lon="4.65815">
        <ele>272.39999389648</ele>
        <time>2024-05-20T09:01:10.000Z</time>
      </trkpt>
      <trkpt lat="46.4066" lon="4.65814">
        <ele>272.60000610352</ele>
        <time>2024-05-20T09:01:11.000Z</time>
      </trkpt>
      <trkpt lat="46.40657" lon="4.65814">
        <ele>272.79998779297</ele>
        <time>2024-05-20T09:01:12.000Z</time>
      </trkpt>
      <trkpt lat="46.40653" lon="4.65813">
        <ele>273</ele>
        <time>2024-05-20T09:01:13.000Z</time>
      </trkpt>
      <trkpt lat="46.4065" lon="4.65812">
        <ele>273.20001220703</ele>
        <time>2024-05-20T09:01:14.000Z</time>
      </trkpt>
      <trkpt lat="46.40647" lon="4.65812">
        <ele>273.20001220703</ele>
        <time>2024-05-20T09:01:15.000Z</time>
      </trkpt>
      <trkpt lat="46.40644" lon="4.65811">
        <ele>273.39999389648</ele>
        <time>2024-05-20T09:01:16.000Z</time>
      </trkpt>
      <trkpt lat="46.40641" lon="4.65811">
        <ele>273.60000610352</ele>
        <time>2024-05-20T09:01:17.000Z</time>
      </trkpt>
      <trkpt lat="46.40639" lon="4.6581">
        <ele>273.79998779297</ele>
        <time>2024-05-20T09:01:18.000Z</time>
      </trkpt>
      <trkpt lat="46.40636" lon="4.6581">
        <ele>274</ele>
        <time>2024-05-20T09:01:19.000Z</time>
      </trkpt>
      <trkpt lat="46.40634" lon="4.6581">
        <ele>274.20001220703</ele>
        <time>2024-05-20T09:01:20.000Z</time>
      </trkpt>
      <trkpt lat="46.40631" lon="4.6581">
        <ele>274.60000610352</ele>
        <time>2024-05-20T09:01:21.000Z</time>
      </trkpt>
      <trkpt lat="46.40629" lon="4.6581">
        <ele>275</ele>
        <time>2024-05-20T09:01:22.000Z</time>
      </trkpt>
      <trkpt lat="46.40627" lon="4.65809">
        <ele>275.39999389648</ele>
        <time>2024-05-20T09:01:23.000Z</time>
      </trkpt>
      <trkpt lat="46.40624" lon="4.65808">
        <ele>275.79998779297</ele>
        <time>2024-05-20T09:01:24.000Z</time>
      </trkpt>
      <trkpt lat="46.40622" lon="4.65808">
        <ele>276.20001220703</ele>
        <time>2024-05-20T09:01:25.000Z</time>
      </trkpt>
      <trkpt lat="46.4062" lon="4.65808">
        <ele>276.39999389648</ele>
        <time>2024-05-20T09:01:26.000Z</time>
      </trkpt>
      <trkpt lat="46.40618" lon="4.65808">
        <ele>276.79998779297</ele>
        <time>2024-05-20T09:01:27.000Z</time>
      </trkpt>
      <trkpt lat="46.40616" lon="4.65807">
        <ele>277.20001220703</ele>
        <time>2024-05-20T09:01:28.000Z</time>
      </trkpt>
      <trkpt lat="46.40614" lon="4.65806">
        <ele>277.39999389648</ele>
        <time>2024-05-20T09:01:29.000Z</time>
      </trkpt>
      <trkpt lat="46.40611" lon="4.65806">
        <ele>277.79998779297</ele>
        <time>2024-05-20T09:01:30.000Z</time>
      </trkpt>
      <trkpt lat="46.40609" lon="4.65805">
        <ele>278.20001220703</ele>
        <time>2024-05-20T09:01:31.000Z</time>
      </trkpt>
      <trkpt lat="46.40606" lon="4.65805">
        <ele>278.39999389648</ele>
        <time>2024-05-20T09:01:32.000Z</time>
      </trkpt>
      <trkpt lat="46.40603" lon="4.65805">
        <ele>278.79998779297</ele>
        <time>2024-05-20T09:01:33.000Z</time>
      </trkpt>
      <trkpt lat="46.406" lon="4.65805">
        <ele>279</ele>
        <time>2024-05-20T09:01:34.000Z</time>
      </trkpt>
      <trkpt lat="46.40597" lon="4.65805">
        <ele>279</ele>
        <time>2024-05-20T09:01:35.000Z</time>
      </trkpt>
      <trkpt lat="46.40594" lon="4.65803">
        <ele>279.20001220703</ele>
        <time>2024-05-20T09:01:36.000Z</time>
      </trkpt>
      <trkpt lat="46.40593" lon="4.65799">
        <ele>279.20001220703</ele>
        <time>2024-05-20T09:01:37.000Z</time>
      </trkpt>
      <trkpt lat="46.40591" lon="4.65793">
        <ele>279.20001220703</ele>
        <time>2024-05-20T09:01:38.000Z</time>
      </trkpt>
      <trkpt lat="46.40589" lon="4.65788">
        <ele>279.20001220703</ele>
        <time>2024-05-20T09:01:39.000Z</time>
      </trkpt>
      <trkpt lat="46.40586" lon="4.65781">
        <ele>279</ele>
        <time>2024-05-20T09:01:40.000Z</time>
      </trkpt>
      <trkpt lat="46.40583" lon="4.65775">
        <ele>278.60000610352</ele>
        <time>2024-05-20T09:01:41.000Z</time>
      </trkpt>
      <trkpt lat="46.40581" lon="4.65768">
        <ele>278.20001220703</ele>
        <time>2024-05-20T09:01:42.000Z</time>
      </trkpt>
      <trkpt lat="46.40578" lon="4.65763">
        <ele>277.79998779297</ele>
        <time>2024-05-20T09:01:43.000Z</time>
      </trkpt>
      <trkpt lat="46.40575" lon="4.65757">
        <ele>277.20001220703</ele>
        <time>2024-05-20T09:01:44.000Z</time>
      </trkpt>
      <trkpt lat="46.40572" lon="4.65753">
        <ele>277</ele>
        <time>2024-05-20T09:01:45.000Z</time>
      </trkpt>
      <trkpt lat="46.40568" lon="4.65746">
        <ele>276.60000610352</ele>
        <time>2024-05-20T09:01:46.000Z</time>
      </trkpt>
      <trkpt lat="46.40566" lon="4.65742">
        <ele>276.39999389648</ele>
        <time>2024-05-20T09:01:47.000Z</time>
      </trkpt>
      <trkpt lat="46.40564" lon="4.65736">
        <ele>276.20001220703</ele>
        <time>2024-05-20T09:01:48.000Z</time>
      </trkpt>
      <trkpt lat="46.40565" lon="4.65726">
        <ele>275.60000610352</ele>
        <time>2024-05-20T09:01:49.000Z</time>
      </trkpt>
      <trkpt lat="46.40564" lon="4.6572">
        <ele>275.20001220703</ele>
        <time>2024-05-20T09:01:50.000Z</time>
      </trkpt>
      <trkpt lat="46.40562" lon="4.65716">
        <ele>274.79998779297</ele>
        <time>2024-05-20T09:01:51.000Z</time>
      </trkpt>
      <trkpt lat="46.4056" lon="4.65715">
        <ele>274.39999389648</ele>
        <time>2024-05-20T09:01:52.000Z</time>
      </trkpt>
      <trkpt lat="46.40558" lon="4.65715">
        <ele>274.20001220703</ele>
        <time>2024-05-20T09:01:53.000Z</time>
      </trkpt>
      <trkpt lat="46.40555" lon="4.65714">
        <ele>274</ele>
        <time>2024-05-20T09:01:54.000Z</time>
      </trkpt>
      <trkpt lat="46.40551" lon="4.65712">
        <ele>273.79998779297</ele>
        <time>2024-05-20T09:01:55.000Z</time>
      </trkpt>
      <trkpt lat="46.40547" lon="4.65709">
        <ele>273.79998779297</ele>
        <time>2024-05-20T09:01:56.000Z</time>
      </trkpt>
      <trkpt lat="46.40543" lon="4.65706">
        <ele>273.60000610352</ele>
        <time>2024-05-20T09:01:57.000Z</time>
      </trkpt>
      <trkpt lat="46.40539" lon="4.65703">
        <ele>273.20001220703</ele>
        <time>2024-05-20T09:01:58.000Z</time>
      </trkpt>
      <trkpt lat="46.40535" lon="4.65701">
        <ele>273</ele>
        <time>2024-05-20T09:01:59.000Z</time>
      </trkpt>
      <trkpt lat="46.40532" lon="4.65699">
        <ele>273</ele>
        <time>2024-05-20T09:02:00.000Z</time>
      </trkpt>
      <trkpt lat="46.40527" lon="4.65696">
        <ele>273</ele>
        <time>2024-05-20T09:02:01.000Z</time>
      </trkpt>
      <trkpt lat="46.40523" lon="4.65694">
        <ele>273</ele>
        <time>2024-05-20T09:02:02.000Z</time>
      </trkpt>
      <trkpt lat="46.4052" lon="4.65693">
        <ele>273.39999389648</ele>
        <time>2024-05-20T09:02:03.000Z</time>
      </trkpt>
      <trkpt lat="46.40516" lon="4.65691">
        <ele>273.79998779297</ele>
        <time>2024-05-20T09:02:04.000Z</time>
      </trkpt>
      <trkpt lat="46.40512" lon="4.65689">
        <ele>274.20001220703</ele>
        <time>2024-05-20T09:02:05.000Z</time>
      </trkpt>
      <trkpt lat="46.40508" lon="4.65687">
        <ele>274.39999389648</ele>
        <time>2024-05-20T09:02:06.000Z</time>
      </trkpt>
      <trkpt lat="46.40504" lon="4.65685">
        <ele>274.60000610352</ele>
        <time>2024-05-20T09:02:07.000Z</time>
      </trkpt>
      <trkpt lat="46.405" lon="4.65683">
        <ele>274.79998779297</ele>
        <time>2024-05-20T09:02:08.000Z</time>
      </trkpt>
      <trkpt lat="46.40496" lon="4.65682">
        <ele>275</ele>
        <time>2024-05-20T09:02:09.000Z</time>
      </trkpt>
      <trkpt lat="46.40492" lon="4.6568">
        <ele>275.20001220703</ele>
        <time>2024-05-20T09:02:10.000Z</time>
      </trkpt>
      <trkpt lat="46.40488" lon="4.65679">
        <ele>275.20001220703</ele>
        <time>2024-05-20T09:02:11.000Z</time>
      </trkpt>
      <trkpt lat="46.40483" lon="4.65678">
        <ele>275.39999389648</ele>
        <time>2024-05-20T09:02:12.000Z</time>
      </trkpt>
      <trkpt lat="46.40479" lon="4.65676">
        <ele>275.39999389648</ele>
        <time>2024-05-20T09:02:13.000Z</time>
      </trkpt>
      <trkpt lat="46.40475" lon="4.65675">
        <ele>275.60000610352</ele>
        <time>2024-05-20T09:02:14.000Z</time>
      </trkpt>
      <trkpt lat="46.40471" lon="4.65674">
        <ele>275.60000610352</ele>
        <time>2024-05-20T09:02:15.000Z</time>
      </trkpt>
      <trkpt lat="46.40467" lon="4.65673">
        <ele>275.60000610352</ele>
        <time>2024-05-20T09:02:16.000Z</time>
      </trkpt>
      <trkpt lat="46.40462" lon="4.65672">
        <ele>275.79998779297</ele>
        <time>2024-05-20T09:02:17.000Z</time>
      </trkpt>
      <trkpt lat="46.40458" lon="4.65671">
        <ele>275.79998779297</ele>
        <time>2024-05-20T09:02:18.000Z</time>
      </trkpt>
      <trkpt lat="46.40454" lon="4.6567">
        <ele>276</ele>
        <time>2024-05-20T09:02:19.000Z</time>
      </trkpt>
      <trkpt lat="46.40449" lon="4.65669">
        <ele>276</ele>
        <time>2024-05-20T09:02:20.000Z</time>
      </trkpt>
      <trkpt lat="46.40445" lon="4.65668">
        <ele>276.20001220703</ele>
        <time>2024-05-20T09:02:21.000Z</time>
      </trkpt>
      <trkpt lat="46.40441" lon="4.65667">
        <ele>276.39999389648</ele>
        <time>2024-05-20T09:02:22.000Z</time>
      </trkpt>
      <trkpt lat="46.40437" lon="4.65666">
        <ele>276.39999389648</ele>
        <time>2024-05-20T09:02:23.000Z</time>
      </trkpt>
      <trkpt lat="46.40433" lon="4.65665">
        <ele>276.60000610352</ele>
        <time>2024-05-20T09:02:24.000Z</time>
      </trkpt>
      <trkpt lat="46.40429" lon="4.65664">
        <ele>276.79998779297</ele>
        <time>2024-05-20T09:02:25.000Z</time>
      </trkpt>
      <trkpt lat="46.40425" lon="4.65662">
        <ele>277</ele>
        <time>2024-05-20T09:02:26.000Z</time>
      </trkpt>
      <trkpt lat="46.40421" lon="4.65661">
        <ele>277.20001220703</ele>
        <time>2024-05-20T09:02:27.000Z</time>
      </trkpt>
      <trkpt lat="46.40416" lon="4.6566">
        <ele>277.20001220703</ele>
        <time>2024-05-20T09:02:28.000Z</time>
      </trkpt>
      <trkpt lat="46.40412" lon="4.65659">
        <ele>277.20001220703</ele>
        <time>2024-05-20T09:02:29.000Z</time>
      </trkpt>
      <trkpt lat="46.40408" lon="4.65657">
        <ele>277.20001220703</ele>
        <time>2024-05-20T09:02:30.000Z</time>
      </trkpt>
      <trkpt lat="46.40403" lon="4.65656">
        <ele>277.20001220703</ele>
        <time>2024-05-20T09:02:31.000Z</time>
      </trkpt>
      <trkpt lat="46.40399" lon="4.65655">
        <ele>277.20001220703</ele>
        <time>2024-05-20T09:02:32.000Z</time>
      </trkpt>
      <trkpt lat="46.40395" lon="4.65653">
        <ele>277.20001220703</ele>
        <time>2024-05-20T09:02:33.000Z</time>
      </trkpt>
      <trkpt lat="46.4039" lon="4.65652">
        <ele>277.20001220703</ele>
        <time>2024-05-20T09:02:34.000Z</time>
      </trkpt>
      <trkpt lat="46.40386" lon="4.6565">
        <ele>277.20001220703</ele>
        <time>2024-05-20T09:02:35.000Z</time>
      </trkpt>
      <trkpt lat="46.40381" lon="4.65649">
        <ele>277.39999389648</ele>
        <time>2024-05-20T09:02:36.000Z</time>
      </trkpt>
      <trkpt lat="46.40377" lon="4.65647">
        <ele>277.39999389648</ele>
        <time>2024-05-20T09:02:37.000Z</time>
      </trkpt>
      <trkpt lat="46.40373" lon="4.65645">
        <ele>277.39999389648</ele>
        <time>2024-05-20T09:02:38.000Z</time>
      </trkpt>
      <trkpt lat="46.40369" lon="4.65643">
        <ele>277.39999389648</ele>
        <time>2024-05-20T09:02:39.000Z</time>
      </trkpt>
      <trkpt lat="46.40365" lon="4.65641">
        <ele>277.60000610352</ele>
        <time>2024-05-20T09:02:40.000Z</time>
      </trkpt>
      <trkpt lat="46.4036" lon="4.6564">
        <ele>277.60000610352</ele>
        <time>2024-05-20T09:02:41.000Z</time>
      </trkpt>
      <trkpt lat="46.40357" lon="4.65638">
        <ele>277.60000610352</ele>
        <time>2024-05-20T09:02:42.000Z</time>
      </trkpt>
      <trkpt lat="46.40353" lon="4.65636">
        <ele>277.79998779297</ele>
        <time>2024-05-20T09:02:43.000Z</time>
      </trkpt>
      <trkpt lat="46.4035" lon="4.65635">
        <ele>277.79998779297</ele>
        <time>2024-05-20T09:02:44.000Z</time>
      </trkpt>
      <trkpt lat="46.40347" lon="4.65633">
        <ele>278.20001220703</ele>
        <time>2024-05-20T09:02:45.000Z</time>
      </trkpt>
      <trkpt lat="46.40344" lon="4.65632">
        <ele>278.39999389648</ele>
        <time>2024-05-20T09:02:46.000Z</time>
      </trkpt>
      <trkpt lat="46.40341" lon="4.65632">
        <ele>278.79998779297</ele>
        <time>2024-05-20T09:02:47.000Z</time>
      </trkpt>
      <trkpt lat="46.40339" lon="4.65631">
        <ele>279.20001220703</ele>
        <time>2024-05-20T09:02:48.000Z</time>
      </trkpt>
      <trkpt lat="46.40336" lon="4.65631">
        <ele>279.60000610352</ele>
        <time>2024-05-20T09:02:49.000Z</time>
      </trkpt>
      <trkpt lat="46.40334" lon="4.6563">
        <ele>280</ele>
        <time>2024-05-20T09:02:50.000Z</time>
      </trkpt>
      <trkpt lat="46.40331" lon="4.65629">
        <ele>280.39999389648</ele>
        <time>2024-05-20T09:02:51.000Z</time>
      </trkpt>
      <trkpt lat="46.40329" lon="4.65629">
        <ele>280.79998779297</ele>
        <time>2024-05-20T09:02:52.000Z</time>
      </trkpt>
      <trkpt lat="46.40326" lon="4.65629">
        <ele>281</ele>
        <time>2024-05-20T09:02:53.000Z</time>
      </trkpt>
      <trkpt lat="46.40324" lon="4.65628">
        <ele>281.39999389648</ele>
        <time>2024-05-20T09:02:54.000Z</time>
      </trkpt>
      <trkpt lat="46.40322" lon="4.65627">
        <ele>281.79998779297</ele>
        <time>2024-05-20T09:02:55.000Z</time>
      </trkpt>
      <trkpt lat="46.4032" lon="4.65625">
        <ele>282.20001220703</ele>
        <time>2024-05-20T09:02:56.000Z</time>
      </trkpt>
      <trkpt lat="46.40318" lon="4.65622">
        <ele>282.39999389648</ele>
        <time>2024-05-20T09:02:57.000Z</time>
      </trkpt>
      <trkpt lat="46.40316" lon="4.65619">
        <ele>282.79998779297</ele>
        <time>2024-05-20T09:02:58.000Z</time>
      </trkpt>
      <trkpt lat="46.40315" lon="4.65617">
        <ele>283</ele>
        <time>2024-05-20T09:02:59.000Z</time>
      </trkpt>
      <trkpt lat="46.40312" lon="4.65615">
        <ele>283.20001220703</ele>
        <time>2024-05-20T09:03:00.000Z</time>
      </trkpt>
      <trkpt lat="46.40311" lon="4.65613">
        <ele>283.60000610352</ele>
        <time>2024-05-20T09:03:01.000Z</time>
      </trkpt>
      <trkpt lat="46.40309" lon="4.6561">
        <ele>283.60000610352</ele>
        <time>2024-05-20T09:03:02.000Z</time>
      </trkpt>
      <trkpt lat="46.40306" lon="4.65607">
        <ele>283.79998779297</ele>
        <time>2024-05-20T09:03:03.000Z</time>
      </trkpt>
      <trkpt lat="46.40303" lon="4.65605">
        <ele>284</ele>
        <time>2024-05-20T09:03:04.000Z</time>
      </trkpt>
      <trkpt lat="46.40301" lon="4.65602">
        <ele>284</ele>
        <time>2024-05-20T09:03:05.000Z</time>
      </trkpt>
      <trkpt lat="46.40298" lon="4.656">
        <ele>284</ele>
        <time>2024-05-20T09:03:06.000Z</time>
      </trkpt>
      <trkpt lat="46.40295" lon="4.65597">
        <ele>284.20001220703</ele>
        <time>2024-05-20T09:03:07.000Z</time>
      </trkpt>
      <trkpt lat="46.40292" lon="4.65594">
        <ele>284.20001220703</ele>
        <time>2024-05-20T09:03:08.000Z</time>
      </trkpt>
      <trkpt lat="46.40289" lon="4.65591">
        <ele>284.20001220703</ele>
        <time>2024-05-20T09:03:09.000Z</time>
      </trkpt>
      <trkpt lat="46.40286" lon="4.65588">
        <ele>284.20001220703</ele>
        <time>2024-05-20T09:03:10.000Z</time>
      </trkpt>
      <trkpt lat="46.40282" lon="4.65586">
        <ele>284.20001220703</ele>
        <time>2024-05-20T09:03:11.000Z</time>
      </trkpt>
      <trkpt lat="46.40279" lon="4.65583">
        <ele>284.20001220703</ele>
        <time>2024-05-20T09:03:12.000Z</time>
      </trkpt>
      <trkpt lat="46.40276" lon="4.65581">
        <ele>284.39999389648</ele>
        <time>2024-05-20T09:03:13.000Z</time>
      </trkpt>
      <trkpt lat="46.40272" lon="4.65578">
        <ele>284.60000610352</ele>
        <time>2024-05-20T09:03:14.000Z</time>
      </trkpt>
      <trkpt lat="46.40268" lon="4.65575">
        <ele>284.60000610352</ele>
        <time>2024-05-20T09:03:15.000Z</time>
      </trkpt>
      <trkpt lat="46.40265" lon="4.65572">
        <ele>284.60000610352</ele>
        <time>2024-05-20T09:03:16.000Z</time>
      </trkpt>
      <trkpt lat="46.40261" lon="4.65569">
        <ele>284.60000610352</ele>
        <time>2024-05-20T09:03:17.000Z</time>
      </trkpt>
      <trkpt lat="46.40257" lon="4.65566">
        <ele>284.79998779297</ele>
        <time>2024-05-20T09:03:18.000Z</time>
      </trkpt>
      <trkpt lat="46.40254" lon="4.65563">
        <ele>284.79998779297</ele>
        <time>2024-05-20T09:03:19.000Z</time>
      </trkpt>
      <trkpt lat="46.40251" lon="4.6556">
        <ele>284.79998779297</ele>
        <time>2024-05-20T09:03:20.000Z</time>
      </trkpt>
      <trkpt lat="46.40247" lon="4.65557">
        <ele>284.79998779297</ele>
        <time>2024-05-20T09:03:21.000Z</time>
      </trkpt>
      <trkpt lat="46.40244" lon="4.65554">
        <ele>285</ele>
        <time>2024-05-20T09:03:22.000Z</time>
      </trkpt>
      <trkpt lat="46.40241" lon="4.65551">
        <ele>285</ele>
        <time>2024-05-20T09:03:23.000Z</time>
      </trkpt>
      <trkpt lat="46.40238" lon="4.65548">
        <ele>285.20001220703</ele>
        <time>2024-05-20T09:03:24.000Z</time>
      </trkpt>
      <trkpt lat="46.40234" lon="4.65544">
        <ele>285.20001220703</ele>
        <time>2024-05-20T09:03:25.000Z</time>
      </trkpt>
      <trkpt lat="46.40231" lon="4.6554">
        <ele>285.20001220703</ele>
        <time>2024-05-20T09:03:26.000Z</time>
      </trkpt>
      <trkpt lat="46.40227" lon="4.65536">
        <ele>285.20001220703</ele>
        <time>2024-05-20T09:03:27.000Z</time>
      </trkpt>
      <trkpt lat="46.40222" lon="4.65531">
        <ele>285.20001220703</ele>
        <time>2024-05-20T09:03:28.000Z</time>
      </trkpt>
      <trkpt lat="46.40218" lon="4.65526">
        <ele>285.20001220703</ele>
        <time>2024-05-20T09:03:29.000Z</time>
      </trkpt>
      <trkpt lat="46.40212" lon="4.65521">
        <ele>284.79998779297</ele>
        <time>2024-05-20T09:03:30.000Z</time>
      </trkpt>
      <trkpt lat="46.40206" lon="4.65515">
        <ele>284.20001220703</ele>
        <time>2024-05-20T09:03:31.000Z</time>
      </trkpt>
      <trkpt lat="46.402" lon="4.6551">
        <ele>283.60000610352</ele>
        <time>2024-05-20T09:03:32.000Z</time>
      </trkpt>
      <trkpt lat="46.40194" lon="4.65506">
        <ele>282.79998779297</ele>
        <time>2024-05-20T09:03:33.000Z</time>
      </trkpt>
      <trkpt lat="46.40189" lon="4.65502">
        <ele>282.39999389648</ele>
        <time>2024-05-20T09:03:34.000Z</time>
      </trkpt>
      <trkpt lat="46.40183" lon="4.65498">
        <ele>282.39999389648</ele>
        <time>2024-05-20T09:03:35.000Z</time>
      </trkpt>
      <trkpt lat="46.40178" lon="4.65494">
        <ele>282.39999389648</ele>
        <time>2024-05-20T09:03:36.000Z</time>
      </trkpt>
      <trkpt lat="46.40173" lon="4.65491">
        <ele>282.39999389648</ele>
        <time>2024-05-20T09:03:37.000Z</time>
      </trkpt>
      <trkpt lat="46.40168" lon="4.65487">
        <ele>282.60000610352</ele>
        <time>2024-05-20T09:03:38.000Z</time>
      </trkpt>
      <trkpt lat="46.40163" lon="4.65484">
        <ele>283</ele>
        <time>2024-05-20T09:03:39.000Z</time>
      </trkpt>
      <trkpt lat="46.40158" lon="4.6548">
        <ele>283</ele>
        <time>2024-05-20T09:03:40.000Z</time>
      </trkpt>
      <trkpt lat="46.40153" lon="4.65478">
        <ele>283.20001220703</ele>
        <time>2024-05-20T09:03:41.000Z</time>
      </trkpt>
      <trkpt lat="46.40148" lon="4.65476">
        <ele>283.39999389648</ele>
        <time>2024-05-20T09:03:42.000Z</time>
      </trkpt>
      <trkpt lat="46.40143" lon="4.65474">
        <ele>283.60000610352</ele>
        <time>2024-05-20T09:03:43.000Z</time>
      </trkpt>
      <trkpt lat="46.40138" lon="4.65472">
        <ele>283.60000610352</ele>
        <time>2024-05-20T09:03:44.000Z</time>
      </trkpt>
      <trkpt lat="46.40134" lon="4.65469">
        <ele>283.79998779297</ele>
        <time>2024-05-20T09:03:45.000Z</time>
      </trkpt>
      <trkpt lat="46.40129" lon="4.65468">
        <ele>284</ele>
        <time>2024-05-20T09:03:46.000Z</time>
      </trkpt>
      <trkpt lat="46.40124" lon="4.65466">
        <ele>284.20001220703</ele>
        <time>2024-05-20T09:03:47.000Z</time>
      </trkpt>
      <trkpt lat="46.4012" lon="4.65464">
        <ele>284.39999389648</ele>
        <time>2024-05-20T09:03:48.000Z</time>
      </trkpt>
      <trkpt lat="46.40115" lon="4.65463">
        <ele>284.60000610352</ele>
        <time>2024-05-20T09:03:49.000Z</time>
      </trkpt>
      <trkpt lat="46.4011" lon="4.65462">
        <ele>284.79998779297</ele>
        <time>2024-05-20T09:03:50.000Z</time>
      </trkpt>
      <trkpt lat="46.40105" lon="4.6546">
        <ele>285</ele>
        <time>2024-05-20T09:03:51.000Z</time>
      </trkpt>
      <trkpt lat="46.401" lon="4.65459">
        <ele>285.20001220703</ele>
        <time>2024-05-20T09:03:52.000Z</time>
      </trkpt>
      <trkpt lat="46.40096" lon="4.65459">
        <ele>285.39999389648</ele>
        <time>2024-05-20T09:03:53.000Z</time>
      </trkpt>
      <trkpt lat="46.40092" lon="4.65458">
        <ele>285.60000610352</ele>
        <time>2024-05-20T09:03:54.000Z</time>
      </trkpt>
      <trkpt lat="46.40087" lon="4.65457">
        <ele>285.60000610352</ele>
        <time>2024-05-20T09:03:55.000Z</time>
      </trkpt>
      <trkpt lat="46.40083" lon="4.65457">
        <ele>285.79998779297</ele>
        <time>2024-05-20T09:03:56.000Z</time>
      </trkpt>
      <trkpt lat="46.40078" lon="4.65457">
        <ele>285.79998779297</ele>
        <time>2024-05-20T09:03:57.000Z</time>
      </trkpt>
      <trkpt lat="46.40074" lon="4.65456">
        <ele>286</ele>
        <time>2024-05-20T09:03:58.000Z</time>
      </trkpt>
      <trkpt lat="46.40069" lon="4.65455">
        <ele>286.20001220703</ele>
        <time>2024-05-20T09:03:59.000Z</time>
      </trkpt>
      <trkpt lat="46.40065" lon="4.65454">
        <ele>286.39999389648</ele>
        <time>2024-05-20T09:04:00.000Z</time>
      </trkpt>
      <trkpt lat="46.40061" lon="4.65454">
        <ele>286.60000610352</ele>
        <time>2024-05-20T09:04:01.000Z</time>
      </trkpt>
      <trkpt lat="46.40056" lon="4.65453">
        <ele>286.60000610352</ele>
        <time>2024-05-20T09:04:02.000Z</time>
      </trkpt>
      <trkpt lat="46.40052" lon="4.65453">
        <ele>286.79998779297</ele>
        <time>2024-05-20T09:04:03.000Z</time>
      </trkpt>
      <trkpt lat="46.40047" lon="4.65453">
        <ele>286.79998779297</ele>
        <time>2024-05-20T09:04:04.000Z</time>
      </trkpt>
      <trkpt lat="46.40043" lon="4.65454">
        <ele>286.79998779297</ele>
        <time>2024-05-20T09:04:05.000Z</time>
      </trkpt>
      <trkpt lat="46.40038" lon="4.65455">
        <ele>287</ele>
        <time>2024-05-20T09:04:06.000Z</time>
      </trkpt>
      <trkpt lat="46.40034" lon="4.65458">
        <ele>287.20001220703</ele>
        <time>2024-05-20T09:04:07.000Z</time>
      </trkpt>
      <trkpt lat="46.4003" lon="4.65461">
        <ele>287.20001220703</ele>
        <time>2024-05-20T09:04:08.000Z</time>
      </trkpt>
      <trkpt lat="46.40026" lon="4.65464">
        <ele>287.20001220703</ele>
        <time>2024-05-20T09:04:09.000Z</time>
      </trkpt>
      <trkpt lat="46.40022" lon="4.65468">
        <ele>287.20001220703</ele>
        <time>2024-05-20T09:04:10.000Z</time>
      </trkpt>
      <trkpt lat="46.40018" lon="4.65471">
        <ele>287.20001220703</ele>
        <time>2024-05-20T09:04:11.000Z</time>
      </trkpt>
      <trkpt lat="46.40014" lon="4.65475">
        <ele>287.20001220703</ele>
        <time>2024-05-20T09:04:12.000Z</time>
      </trkpt>
      <trkpt lat="46.4001" lon="4.65479">
        <ele>287.20001220703</ele>
        <time>2024-05-20T09:04:13.000Z</time>
      </trkpt>
      <trkpt lat="46.40006" lon="4.65482">
        <ele>287.20001220703</ele>
        <time>2024-05-20T09:04:14.000Z</time>
      </trkpt>
      <trkpt lat="46.40002" lon="4.65487">
        <ele>287.20001220703</ele>
        <time>2024-05-20T09:04:15.000Z</time>
      </trkpt>
      <trkpt lat="46.39998" lon="4.65492">
        <ele>287.39999389648</ele>
        <time>2024-05-20T09:04:16.000Z</time>
      </trkpt>
      <trkpt lat="46.39994" lon="4.65495">
        <ele>287.39999389648</ele>
        <time>2024-05-20T09:04:17.000Z</time>
      </trkpt>
      <trkpt lat="46.3999" lon="4.65497">
        <ele>287.60000610352</ele>
        <time>2024-05-20T09:04:18.000Z</time>
      </trkpt>
      <trkpt lat="46.39986" lon="4.65498">
        <ele>287.79998779297</ele>
        <time>2024-05-20T09:04:19.000Z</time>
      </trkpt>
      <trkpt lat="46.39982" lon="4.65497">
        <ele>287.79998779297</ele>
        <time>2024-05-20T09:04:20.000Z</time>
      </trkpt>
      <trkpt lat="46.39979" lon="4.65496">
        <ele>288</ele>
        <time>2024-05-20T09:04:21.000Z</time>
      </trkpt>
      <trkpt lat="46.39975" lon="4.65495">
        <ele>288.20001220703</ele>
        <time>2024-05-20T09:04:22.000Z</time>
      </trkpt>
      <trkpt lat="46.39972" lon="4.65493">
        <ele>288.60000610352</ele>
        <time>2024-05-20T09:04:23.000Z</time>
      </trkpt>
      <trkpt lat="46.39969" lon="4.65489">
        <ele>288.60000610352</ele>
        <time>2024-05-20T09:04:24.000Z</time>
      </trkpt>
      <trkpt lat="46.39966" lon="4.65486">
        <ele>288.60000610352</ele>
        <time>2024-05-20T09:04:25.000Z</time>
      </trkpt>
      <trkpt lat="46.39963" lon="4.65481">
        <ele>288.60000610352</ele>
        <time>2024-05-20T09:04:26.000Z</time>
      </trkpt>
      <trkpt lat="46.3996" lon="4.65476">
        <ele>288.60000610352</ele>
        <time>2024-05-20T09:04:27.000Z</time>
      </trkpt>
      <trkpt lat="46.39957" lon="4.6547">
        <ele>288.60000610352</ele>
        <time>2024-05-20T09:04:28.000Z</time>
      </trkpt>
      <trkpt lat="46.39954" lon="4.65464">
        <ele>288.60000610352</ele>
        <time>2024-05-20T09:04:29.000Z</time>
      </trkpt>
      <trkpt lat="46.3995" lon="4.65458">
        <ele>288.20001220703</ele>
        <time>2024-05-20T09:04:30.000Z</time>
      </trkpt>
      <trkpt lat="46.39946" lon="4.65451">
        <ele>287.79998779297</ele>
        <time>2024-05-20T09:04:31.000Z</time>
      </trkpt>
      <trkpt lat="46.39942" lon="4.65446">
        <ele>287.39999389648</ele>
        <time>2024-05-20T09:04:32.000Z</time>
      </trkpt>
      <trkpt lat="46.39937" lon="4.65443">
        <ele>287.20001220703</ele>
        <time>2024-05-20T09:04:33.000Z</time>
      </trkpt>
      <trkpt lat="46.39933" lon="4.65441">
        <ele>287.20001220703</ele>
        <time>2024-05-20T09:04:34.000Z</time>
      </trkpt>
      <trkpt lat="46.39929" lon="4.6544">
        <ele>287.20001220703</ele>
        <time>2024-05-20T09:04:35.000Z</time>
      </trkpt>
      <trkpt lat="46.39925" lon="4.6544">
        <ele>287.20001220703</ele>
        <time>2024-05-20T09:04:36.000Z</time>
      </trkpt>
      <trkpt lat="46.3992" lon="4.65439">
        <ele>287.60000610352</ele>
        <time>2024-05-20T09:04:37.000Z</time>
      </trkpt>
      <trkpt lat="46.39916" lon="4.6544">
        <ele>287.79998779297</ele>
        <time>2024-05-20T09:04:38.000Z</time>
      </trkpt>
      <trkpt lat="46.39912" lon="4.6544">
        <ele>288.20001220703</ele>
        <time>2024-05-20T09:04:39.000Z</time>
      </trkpt>
      <trkpt lat="46.39908" lon="4.6544">
        <ele>288.60000610352</ele>
        <time>2024-05-20T09:04:40.000Z</time>
      </trkpt>
      <trkpt lat="46.39905" lon="4.6544">
        <ele>289</ele>
        <time>2024-05-20T09:04:41.000Z</time>
      </trkpt>
      <trkpt lat="46.39901" lon="4.6544">
        <ele>289.20001220703</ele>
        <time>2024-05-20T09:04:42.000Z</time>
      </trkpt>
      <trkpt lat="46.39897" lon="4.6544">
        <ele>289.60000610352</ele>
        <time>2024-05-20T09:04:43.000Z</time>
      </trkpt>
      <trkpt lat="46.39893" lon="4.65439">
        <ele>290</ele>
        <time>2024-05-20T09:04:44.000Z</time>
      </trkpt>
      <trkpt lat="46.39889" lon="4.65439">
        <ele>290.39999389648</ele>
        <time>2024-05-20T09:04:45.000Z</time>
      </trkpt>
      <trkpt lat="46.39885" lon="4.65439">
        <ele>290.39999389648</ele>
        <time>2024-05-20T09:04:46.000Z</time>
      </trkpt>
      <trkpt lat="46.39881" lon="4.65438">
        <ele>290.60000610352</ele>
        <time>2024-05-20T09:04:47.000Z</time>
      </trkpt>
      <trkpt lat="46.39878" lon="4.65438">
        <ele>291</ele>
        <time>2024-05-20T09:04:48.000Z</time>
      </trkpt>
      <trkpt lat="46.39874" lon="4.65438">
        <ele>291.20001220703</ele>
        <time>2024-05-20T09:04:49.000Z</time>
      </trkpt>
      <trkpt lat="46.3987" lon="4.65439">
        <ele>291.39999389648</ele>
        <time>2024-05-20T09:04:50.000Z</time>
      </trkpt>
      <trkpt lat="46.39866" lon="4.65439">
        <ele>291.79998779297</ele>
        <time>2024-05-20T09:04:51.000Z</time>
      </trkpt>
      <trkpt lat="46.39862" lon="4.6544">
        <ele>292</ele>
        <time>2024-05-20T09:04:52.000Z</time>
      </trkpt>
      <trkpt lat="46.39858" lon="4.6544">
        <ele>292.20001220703</ele>
        <time>2024-05-20T09:04:53.000Z</time>
      </trkpt>
      <trkpt lat="46.39854" lon="4.65441">
        <ele>292.39999389648</ele>
        <time>2024-05-20T09:04:54.000Z</time>
      </trkpt>
      <trkpt lat="46.39849" lon="4.65442">
        <ele>292.60000610352</ele>
        <time>2024-05-20T09:04:55.000Z</time>
      </trkpt>
      <trkpt lat="46.39845" lon="4.65443">
        <ele>292.79998779297</ele>
        <time>2024-05-20T09:04:56.000Z</time>
      </trkpt>
      <trkpt lat="46.39841" lon="4.65445">
        <ele>292.79998779297</ele>
        <time>2024-05-20T09:04:57.000Z</time>
      </trkpt>
      <trkpt lat="46.39837" lon="4.65446">
        <ele>293</ele>
        <time>2024-05-20T09:04:58.000Z</time>
      </trkpt>
      <trkpt lat="46.39833" lon="4.65446">
        <ele>293</ele>
        <time>2024-05-20T09:04:59.000Z</time>
      </trkpt>
      <trkpt lat="46.39828" lon="4.65447">
        <ele>293</ele>
        <time>2024-05-20T09:05:00.000Z</time>
      </trkpt>
      <trkpt lat="46.39824" lon="4.65448">
        <ele>293.20001220703</ele>
        <time>2024-05-20T09:05:01.000Z</time>
      </trkpt>
      <trkpt lat="46.3982" lon="4.6545">
        <ele>293.39999389648</ele>
        <time>2024-05-20T09:05:02.000Z</time>
      </trkpt>
      <trkpt lat="46.39816" lon="4.65451">
        <ele>293.39999389648</ele>
        <time>2024-05-20T09:05:03.000Z</time>
      </trkpt>
      <trkpt lat="46.39812" lon="4.65453">
        <ele>293.60000610352</ele>
        <time>2024-05-20T09:05:04.000Z</time>
      </trkpt>
      <trkpt lat="46.39808" lon="4.65454">
        <ele>293.60000610352</ele>
        <time>2024-05-20T09:05:05.000Z</time>
      </trkpt>
      <trkpt lat="46.39803" lon="4.65456">
        <ele>293.79998779297</ele>
        <time>2024-05-20T09:05:06.000Z</time>
      </trkpt>
      <trkpt lat="46.39799" lon="4.65458">
        <ele>293.79998779297</ele>
        <time>2024-05-20T09:05:07.000Z</time>
      </trkpt>
      <trkpt lat="46.39795" lon="4.6546">
        <ele>293.79998779297</ele>
        <time>2024-05-20T09:05:08.000Z</time>
      </trkpt>
      <trkpt lat="46.39791" lon="4.65462">
        <ele>294</ele>
        <time>2024-05-20T09:05:09.000Z</time>
      </trkpt>
      <trkpt lat="46.39786" lon="4.65463">
        <ele>294</ele>
        <time>2024-05-20T09:05:10.000Z</time>
      </trkpt>
      <trkpt lat="46.39782" lon="4.65465">
        <ele>294</ele>
        <time>2024-05-20T09:05:11.000Z</time>
      </trkpt>
      <trkpt lat="46.39778" lon="4.65466">
        <ele>294</ele>
        <time>2024-05-20T09:05:12.000Z</time>
      </trkpt>
      <trkpt lat="46.39774" lon="4.65467">
        <ele>294.20001220703</ele>
        <time>2024-05-20T09:05:13.000Z</time>
      </trkpt>
      <trkpt lat="46.39769" lon="4.65469">
        <ele>294.20001220703</ele>
        <time>2024-05-20T09:05:14.000Z</time>
      </trkpt>
      <trkpt lat="46.39766" lon="4.65471">
        <ele>294.39999389648</ele>
        <time>2024-05-20T09:05:15.000Z</time>
      </trkpt>
      <trkpt lat="46.39762" lon="4.65474">
        <ele>294.39999389648</ele>
        <time>2024-05-20T09:05:16.000Z</time>
      </trkpt>
      <trkpt lat="46.39758" lon="4.65476">
        <ele>294.60000610352</ele>
        <time>2024-05-20T09:05:17.000Z</time>
      </trkpt>
      <trkpt lat="46.39755" lon="4.65479">
        <ele>294.60000610352</ele>
        <time>2024-05-20T09:05:18.000Z</time>
      </trkpt>
      <trkpt lat="46.39751" lon="4.65482">
        <ele>294.79998779297</ele>
        <time>2024-05-20T09:05:19.000Z</time>
      </trkpt>
      <trkpt lat="46.39747" lon="4.65484">
        <ele>294.79998779297</ele>
        <time>2024-05-20T09:05:20.000Z</time>
      </trkpt>
      <trkpt lat="46.39743" lon="4.65487">
        <ele>295</ele>
        <time>2024-05-20T09:05:21.000Z</time>
      </trkpt>
      <trkpt lat="46.39739" lon="4.6549">
        <ele>295</ele>
        <time>2024-05-20T09:05:22.000Z</time>
      </trkpt>
      <trkpt lat="46.39734" lon="4.65492">
        <ele>295</ele>
        <time>2024-05-20T09:05:23.000Z</time>
      </trkpt>
      <trkpt lat="46.3973" lon="4.65495">
        <ele>295</ele>
        <time>2024-05-20T09:05:24.000Z</time>
      </trkpt>
      <trkpt lat="46.39725" lon="4.65498">
        <ele>295</ele>
        <time>2024-05-20T09:05:25.000Z</time>
      </trkpt>
      <trkpt lat="46.39719" lon="4.655">
        <ele>294.79998779297</ele>
        <time>2024-05-20T09:05:26.000Z</time>
      </trkpt>
      <trkpt lat="46.39714" lon="4.65503">
        <ele>294.60000610352</ele>
        <time>2024-05-20T09:05:27.000Z</time>
      </trkpt>
      <trkpt lat="46.39709" lon="4.65507">
        <ele>294.39999389648</ele>
        <time>2024-05-20T09:05:28.000Z</time>
      </trkpt>
      <trkpt lat="46.39705" lon="4.65511">
        <ele>294.39999389648</ele>
        <time>2024-05-20T09:05:29.000Z</time>
      </trkpt>
      <trkpt lat="46.397" lon="4.65515">
        <ele>294.39999389648</ele>
        <time>2024-05-20T09:05:30.000Z</time>
      </trkpt>
      <trkpt lat="46.39695" lon="4.6552">
        <ele>294.20001220703</ele>
        <time>2024-05-20T09:05:31.000Z</time>
      </trkpt>
      <trkpt lat="46.39691" lon="4.65524">
        <ele>294.20001220703</ele>
        <time>2024-05-20T09:05:32.000Z</time>
      </trkpt>
      <trkpt lat="46.39687" lon="4.65529">
        <ele>294.20001220703</ele>
        <time>2024-05-20T09:05:33.000Z</time>
      </trkpt>
      <trkpt lat="46.39682" lon="4.65533">
        <ele>294.20001220703</ele>
        <time>2024-05-20T09:05:34.000Z</time>
      </trkpt>
      <trkpt lat="46.39677" lon="4.65538">
        <ele>294.20001220703</ele>
        <time>2024-05-20T09:05:35.000Z</time>
      </trkpt>
      <trkpt lat="46.39673" lon="4.65543">
        <ele>294.39999389648</ele>
        <time>2024-05-20T09:05:36.000Z</time>
      </trkpt>
      <trkpt lat="46.39668" lon="4.65548">
        <ele>294.39999389648</ele>
        <time>2024-05-20T09:05:37.000Z</time>
      </trkpt>
      <trkpt lat="46.39664" lon="4.65553">
        <ele>294.39999389648</ele>
        <time>2024-05-20T09:05:38.000Z</time>
      </trkpt>
      <trkpt lat="46.39659" lon="4.65557">
        <ele>294.39999389648</ele>
        <time>2024-05-20T09:05:39.000Z</time>
      </trkpt>
      <trkpt lat="46.39655" lon="4.65561">
        <ele>294.79998779297</ele>
        <time>2024-05-20T09:05:40.000Z</time>
      </trkpt>
      <trkpt lat="46.39651" lon="4.65566">
        <ele>295</ele>
        <time>2024-05-20T09:05:41.000Z</time>
      </trkpt>
      <trkpt lat="46.39646" lon="4.6557">
        <ele>295</ele>
        <time>2024-05-20T09:05:42.000Z</time>
      </trkpt>
      <trkpt lat="46.39642" lon="4.65574">
        <ele>295</ele>
        <time>2024-05-20T09:05:43.000Z</time>
      </trkpt>
      <trkpt lat="46.39638" lon="4.65579">
        <ele>295.20001220703</ele>
        <time>2024-05-20T09:05:44.000Z</time>
      </trkpt>
      <trkpt lat="46.39634" lon="4.65582">
        <ele>295.39999389648</ele>
        <time>2024-05-20T09:05:45.000Z</time>
      </trkpt>
      <trkpt lat="46.39629" lon="4.65586">
        <ele>295.39999389648</ele>
        <time>2024-05-20T09:05:46.000Z</time>
      </trkpt>
      <trkpt lat="46.39625" lon="4.65591">
        <ele>295.79998779297</ele>
        <time>2024-05-20T09:05:47.000Z</time>
      </trkpt>
      <trkpt lat="46.39621" lon="4.65594">
        <ele>296</ele>
        <time>2024-05-20T09:05:48.000Z</time>
      </trkpt>
      <trkpt lat="46.39616" lon="4.65598">
        <ele>296</ele>
        <time>2024-05-20T09:05:49.000Z</time>
      </trkpt>
      <trkpt lat="46.39612" lon="4.65602">
        <ele>296</ele>
        <time>2024-05-20T09:05:50.000Z</time>
      </trkpt>
      <trkpt lat="46.39608" lon="4.65607">
        <ele>296.20001220703</ele>
        <time>2024-05-20T09:05:51.000Z</time>
      </trkpt>
      <trkpt lat="46.39605" lon="4.65611">
        <ele>296.20001220703</ele>
        <time>2024-05-20T09:05:52.000Z</time>
      </trkpt>
      <trkpt lat="46.39601" lon="4.65616">
        <ele>296.20001220703</ele>
        <time>2024-05-20T09:05:53.000Z</time>
      </trkpt>
      <trkpt lat="46.39597" lon="4.6562">
        <ele>296.39999389648</ele>
        <time>2024-05-20T09:05:54.000Z</time>
      </trkpt>
      <trkpt lat="46.39593" lon="4.65624">
        <ele>296.39999389648</ele>
        <time>2024-05-20T09:05:55.000Z</time>
      </trkpt>
      <trkpt lat="46.3959" lon="4.65629">
        <ele>296.60000610352</ele>
        <time>2024-05-20T09:05:56.000Z</time>
      </trkpt>
      <trkpt lat="46.39586" lon="4.65633">
        <ele>297</ele>
        <time>2024-05-20T09:05:57.000Z</time>
      </trkpt>
      <trkpt lat="46.39582" lon="4.65637">
        <ele>297.20001220703</ele>
        <time>2024-05-20T09:05:58.000Z</time>
      </trkpt>
      <trkpt lat="46.39578" lon="4.6564">
        <ele>297.20001220703</ele>
        <time>2024-05-20T09:05:59.000Z</time>
      </trkpt>
      <trkpt lat="46.39575" lon="4.65644">
        <ele>297.20001220703</ele>
        <time>2024-05-20T09:06:00.000Z</time>
      </trkpt>
      <trkpt lat="46.39571" lon="4.65647">
        <ele>297.39999389648</ele>
        <time>2024-05-20T09:06:01.000Z</time>
      </trkpt>
      <trkpt lat="46.39568" lon="4.65651">
        <ele>297.39999389648</ele>
        <time>2024-05-20T09:06:02.000Z</time>
      </trkpt>
      <trkpt lat="46.39564" lon="4.65655">
        <ele>297.79998779297</ele>
        <time>2024-05-20T09:06:03.000Z</time>
      </trkpt>
      <trkpt lat="46.39561" lon="4.65658">
        <ele>297.79998779297</ele>
        <time>2024-05-20T09:06:04.000Z</time>
      </trkpt>
      <trkpt lat="46.39557" lon="4.65662">
        <ele>297.79998779297</ele>
        <time>2024-05-20T09:06:05.000Z</time>
      </trkpt>
      <trkpt lat="46.39554" lon="4.65666">
        <ele>297.79998779297</ele>
        <time>2024-05-20T09:06:06.000Z</time>
      </trkpt>
      <trkpt lat="46.3955" lon="4.65669">
        <ele>297.79998779297</ele>
        <time>2024-05-20T09:06:07.000Z</time>
      </trkpt>
      <trkpt lat="46.39548" lon="4.65672">
        <ele>298</ele>
        <time>2024-05-20T09:06:08.000Z</time>
      </trkpt>
      <trkpt lat="46.39545" lon="4.65676">
        <ele>298</ele>
        <time>2024-05-20T09:06:09.000Z</time>
      </trkpt>
      <trkpt lat="46.39544" lon="4.65679">
        <ele>298.39999389648</ele>
        <time>2024-05-20T09:06:10.000Z</time>
      </trkpt>
      <trkpt lat="46.39543" lon="4.65682">
        <ele>298.60000610352</ele>
        <time>2024-05-20T09:06:11.000Z</time>
      </trkpt>
      <trkpt lat="46.3954" lon="4.65682">
        <ele>298.79998779297</ele>
        <time>2024-05-20T09:06:12.000Z</time>
      </trkpt>
      <trkpt lat="46.39539" lon="4.65681">
        <ele>299</ele>
        <time>2024-05-20T09:06:13.000Z</time>
      </trkpt>
      <trkpt lat="46.39537" lon="4.65678">
        <ele>299</ele>
        <time>2024-05-20T09:06:14.000Z</time>
      </trkpt>
      <trkpt lat="46.39537" lon="4.65675">
        <ele>299.20001220703</ele>
        <time>2024-05-20T09:06:15.000Z</time>
      </trkpt>
      <trkpt lat="46.39539" lon="4.65671">
        <ele>299.20001220703</ele>
        <time>2024-05-20T09:06:16.000Z</time>
      </trkpt>
      <trkpt lat="46.39541" lon="4.65667">
        <ele>299.20001220703</ele>
        <time>2024-05-20T09:06:17.000Z</time>
      </trkpt>
      <trkpt lat="46.39545" lon="4.65662">
        <ele>299.20001220703</ele>
        <time>2024-05-20T09:06:18.000Z</time>
      </trkpt>
      <trkpt lat="46.39549" lon="4.65657">
        <ele>298.79998779297</ele>
        <time>2024-05-20T09:06:19.000Z</time>
      </trkpt>
      <trkpt lat="46.39554" lon="4.6565">
        <ele>298.39999389648</ele>
        <time>2024-05-20T09:06:20.000Z</time>
      </trkpt>
      <trkpt lat="46.39558" lon="4.65644">
        <ele>297.60000610352</ele>
        <time>2024-05-20T09:06:21.000Z</time>
      </trkpt>
      <trkpt lat="46.39563" lon="4.65639">
        <ele>296.60000610352</ele>
        <time>2024-05-20T09:06:22.000Z</time>
      </trkpt>
      <trkpt lat="46.39568" lon="4.65633">
        <ele>296</ele>
        <time>2024-05-20T09:06:23.000Z</time>
      </trkpt>
      <trkpt lat="46.39572" lon="4.65628">
        <ele>295.39999389648</ele>
        <time>2024-05-20T09:06:24.000Z</time>
      </trkpt>
      <trkpt lat="46.39575" lon="4.65622">
        <ele>294.79998779297</ele>
        <time>2024-05-20T09:06:25.000Z</time>
      </trkpt>
      <trkpt lat="46.39576" lon="4.65615">
        <ele>294.20001220703</ele>
        <time>2024-05-20T09:06:26.000Z</time>
      </trkpt>
      <trkpt lat="46.39576" lon="4.65607">
        <ele>293.60000610352</ele>
        <time>2024-05-20T09:06:27.000Z</time>
      </trkpt>
      <trkpt lat="46.39574" lon="4.65599">
        <ele>293.20001220703</ele>
        <time>2024-05-20T09:06:28.000Z</time>
      </trkpt>
      <trkpt lat="46.39573" lon="4.65591">
        <ele>292.60000610352</ele>
        <time>2024-05-20T09:06:29.000Z</time>
      </trkpt>
      <trkpt lat="46.39571" lon="4.65583">
        <ele>292</ele>
        <time>2024-05-20T09:06:30.000Z</time>
      </trkpt>
      <trkpt lat="46.39569" lon="4.65576">
        <ele>291</ele>
        <time>2024-05-20T09:06:31.000Z</time>
      </trkpt>
      <trkpt lat="46.39567" lon="4.65569">
        <ele>290.20001220703</ele>
        <time>2024-05-20T09:06:32.000Z</time>
      </trkpt>
      <trkpt lat="46.39564" lon="4.65564">
        <ele>289.39999389648</ele>
        <time>2024-05-20T09:06:33.000Z</time>
      </trkpt>
      <trkpt lat="46.39561" lon="4.65559">
        <ele>288.39999389648</ele>
        <time>2024-05-20T09:06:34.000Z</time>
      </trkpt>
      <trkpt lat="46.39558" lon="4.65557">
        <ele>287.79998779297</ele>
        <time>2024-05-20T09:06:35.000Z</time>
      </trkpt>
      <trkpt lat="46.39554" lon="4.65557">
        <ele>287</ele>
        <time>2024-05-20T09:06:36.000Z</time>
      </trkpt>
      <trkpt lat="46.3955" lon="4.65559">
        <ele>286.39999389648</ele>
        <time>2024-05-20T09:06:37.000Z</time>
      </trkpt>
      <trkpt lat="46.39547" lon="4.65563">
        <ele>286.20001220703</ele>
        <time>2024-05-20T09:06:38.000Z</time>
      </trkpt>
      <trkpt lat="46.39543" lon="4.65567">
        <ele>286</ele>
        <time>2024-05-20T09:06:39.000Z</time>
      </trkpt>
      <trkpt lat="46.3954" lon="4.65571">
        <ele>285.79998779297</ele>
        <time>2024-05-20T09:06:40.000Z</time>
      </trkpt>
      <trkpt lat="46.39536" lon="4.65575">
        <ele>285.79998779297</ele>
        <time>2024-05-20T09:06:41.000Z</time>
      </trkpt>
      <trkpt lat="46.39533" lon="4.65579">
        <ele>285.79998779297</ele>
        <time>2024-05-20T09:06:42.000Z</time>
      </trkpt>
      <trkpt lat="46.39529" lon="4.65582">
        <ele>285.60000610352</ele>
        <time>2024-05-20T09:06:43.000Z</time>
      </trkpt>
      <trkpt lat="46.39525" lon="4.65585">
        <ele>285.60000610352</ele>
        <time>2024-05-20T09:06:44.000Z</time>
      </trkpt>
      <trkpt lat="46.39521" lon="4.65588">
        <ele>285.60000610352</ele>
        <time>2024-05-20T09:06:45.000Z</time>
      </trkpt>
      <trkpt lat="46.39517" lon="4.65591">
        <ele>285.60000610352</ele>
        <time>2024-05-20T09:06:46.000Z</time>
      </trkpt>
      <trkpt lat="46.39512" lon="4.65593">
        <ele>285.60000610352</ele>
        <time>2024-05-20T09:06:47.000Z</time>
      </trkpt>
      <trkpt lat="46.39508" lon="4.65594">
        <ele>285.79998779297</ele>
        <time>2024-05-20T09:06:48.000Z</time>
      </trkpt>
      <trkpt lat="46.39504" lon="4.65592">
        <ele>286</ele>
        <time>2024-05-20T09:06:49.000Z</time>
      </trkpt>
      <trkpt lat="46.395" lon="4.65589">
        <ele>286</ele>
        <time>2024-05-20T09:06:50.000Z</time>
      </trkpt>
      <trkpt lat="46.39497" lon="4.65586">
        <ele>286.20001220703</ele>
        <time>2024-05-20T09:06:51.000Z</time>
      </trkpt>
      <trkpt lat="46.39493" lon="4.65582">
        <ele>286.39999389648</ele>
        <time>2024-05-20T09:06:52.000Z</time>
      </trkpt>
      <trkpt lat="46.3949" lon="4.65579">
        <ele>286.60000610352</ele>
        <time>2024-05-20T09:06:53.000Z</time>
      </trkpt>
      <trkpt lat="46.39487" lon="4.65575">
        <ele>286.79998779297</ele>
        <time>2024-05-20T09:06:54.000Z</time>
      </trkpt>
      <trkpt lat="46.39485" lon="4.65571">
        <ele>287</ele>
        <time>2024-05-20T09:06:55.000Z</time>
      </trkpt>
      <trkpt lat="46.39482" lon="4.65567">
        <ele>287.20001220703</ele>
        <time>2024-05-20T09:06:56.000Z</time>
      </trkpt>
      <trkpt lat="46.39479" lon="4.65563">
        <ele>287.20001220703</ele>
        <time>2024-05-20T09:06:57.000Z</time>
      </trkpt>
      <trkpt lat="46.39476" lon="4.65559">
        <ele>287.20001220703</ele>
        <time>2024-05-20T09:06:58.000Z</time>
      </trkpt>
      <trkpt lat="46.39474" lon="4.65556">
        <ele>287.39999389648</ele>
        <time>2024-05-20T09:06:59.000Z</time>
      </trkpt>
      <trkpt lat="46.39471" lon="4.65552">
        <ele>287.39999389648</ele>
        <time>2024-05-20T09:07:00.000Z</time>
      </trkpt>
      <trkpt lat="46.39469" lon="4.65548">
        <ele>287.60000610352</ele>
        <time>2024-05-20T09:07:01.000Z</time>
      </trkpt>
      <trkpt lat="46.39466" lon="4.65545">
        <ele>287.79998779297</ele>
        <time>2024-05-20T09:07:02.000Z</time>
      </trkpt>
      <trkpt lat="46.39464" lon="4.65541">
        <ele>288</ele>
        <time>2024-05-20T09:07:03.000Z</time>
      </trkpt>
      <trkpt lat="46.39461" lon="4.65539">
        <ele>288.20001220703</ele>
        <time>2024-05-20T09:07:04.000Z</time>
      </trkpt>
      <trkpt lat="46.39458" lon="4.65537">
        <ele>288.39999389648</ele>
        <time>2024-05-20T09:07:05.000Z</time>
      </trkpt>
      <trkpt lat="46.39456" lon="4.65536">
        <ele>288.60000610352</ele>
        <time>2024-05-20T09:07:06.000Z</time>
      </trkpt>
      <trkpt lat="46.39453" lon="4.65535">
        <ele>288.79998779297</ele>
        <time>2024-05-20T09:07:07.000Z</time>
      </trkpt>
      <trkpt lat="46.39451" lon="4.65535">
        <ele>289</ele>
        <time>2024-05-20T09:07:08.000Z</time>
      </trkpt>
      <trkpt lat="46.39448" lon="4.65535">
        <ele>289.39999389648</ele>
        <time>2024-05-20T09:07:09.000Z</time>
      </trkpt>
      <trkpt lat="46.39446" lon="4.65536">
        <ele>289.79998779297</ele>
        <time>2024-05-20T09:07:10.000Z</time>
      </trkpt>
      <trkpt lat="46.39444" lon="4.65537">
        <ele>290.39999389648</ele>
        <time>2024-05-20T09:07:11.000Z</time>
      </trkpt>
      <trkpt lat="46.39443" lon="4.65539">
        <ele>290.60000610352</ele>
        <time>2024-05-20T09:07:12.000Z</time>
      </trkpt>
      <trkpt lat="46.39441" lon="4.65542">
        <ele>291</ele>
        <time>2024-05-20T09:07:13.000Z</time>
      </trkpt>
      <trkpt lat="46.39439" lon="4.65544">
        <ele>291.39999389648</ele>
        <time>2024-05-20T09:07:14.000Z</time>
      </trkpt>
      <trkpt lat="46.39438" lon="4.65547">
        <ele>291.79998779297</ele>
        <time>2024-05-20T09:07:15.000Z</time>
      </trkpt>
      <trkpt lat="46.39436" lon="4.65549">
        <ele>292.20001220703</ele>
        <time>2024-05-20T09:07:16.000Z</time>
      </trkpt>
      <trkpt lat="46.39434" lon="4.65551">
        <ele>292.60000610352</ele>
        <time>2024-05-20T09:07:17.000Z</time>
      </trkpt>
      <trkpt lat="46.39432" lon="4.65553">
        <ele>292.79998779297</ele>
        <time>2024-05-20T09:07:18.000Z</time>
      </trkpt>
      <trkpt lat="46.3943" lon="4.65555">
        <ele>293</ele>
        <time>2024-05-20T09:07:19.000Z</time>
      </trkpt>
      <trkpt lat="46.39429" lon="4.65557">
        <ele>293.20001220703</ele>
        <time>2024-05-20T09:07:20.000Z</time>
      </trkpt>
      <trkpt lat="46.39427" lon="4.65559">
        <ele>293.60000610352</ele>
        <time>2024-05-20T09:07:21.000Z</time>
      </trkpt>
      <trkpt lat="46.39426" lon="4.65562">
        <ele>293.79998779297</ele>
        <time>2024-05-20T09:07:22.000Z</time>
      </trkpt>
      <trkpt lat="46.39424" lon="4.65564">
        <ele>294</ele>
        <time>2024-05-20T09:07:23.000Z</time>
      </trkpt>
      <trkpt lat="46.39422" lon="4.65566">
        <ele>294</ele>
        <time>2024-05-20T09:07:24.000Z</time>
      </trkpt>
      <trkpt lat="46.39421" lon="4.65568">
        <ele>294.20001220703</ele>
        <time>2024-05-20T09:07:25.000Z</time>
      </trkpt>
      <trkpt lat="46.39419" lon="4.65571">
        <ele>294.20001220703</ele>
        <time>2024-05-20T09:07:26.000Z</time>
      </trkpt>
      <trkpt lat="46.39417" lon="4.65573">
        <ele>294.39999389648</ele>
        <time>2024-05-20T09:07:27.000Z</time>
      </trkpt>
      <trkpt lat="46.39415" lon="4.65576">
        <ele>294.60000610352</ele>
        <time>2024-05-20T09:07:28.000Z</time>
      </trkpt>
      <trkpt lat="46.39414" lon="4.65578">
        <ele>295</ele>
        <time>2024-05-20T09:07:29.000Z</time>
      </trkpt>
      <trkpt lat="46.39412" lon="4.6558">
        <ele>295.20001220703</ele>
        <time>2024-05-20T09:07:30.000Z</time>
      </trkpt>
      <trkpt lat="46.3941" lon="4.65582">
        <ele>295.39999389648</ele>
        <time>2024-05-20T09:07:31.000Z</time>
      </trkpt>
      <trkpt lat="46.39407" lon="4.65584">
        <ele>295.60000610352</ele>
        <time>2024-05-20T09:07:32.000Z</time>
      </trkpt>
      <trkpt lat="46.39405" lon="4.65586">
        <ele>295.79998779297</ele>
        <time>2024-05-20T09:07:33.000Z</time>
      </trkpt>
      <trkpt lat="46.39403" lon="4.65589">
        <ele>295.79998779297</ele>
        <time>2024-05-20T09:07:34.000Z</time>
      </trkpt>
      <trkpt lat="46.39401" lon="4.65592">
        <ele>296</ele>
        <time>2024-05-20T09:07:35.000Z</time>
      </trkpt>
      <trkpt lat="46.39399" lon="4.65595">
        <ele>296.20001220703</ele>
        <time>2024-05-20T09:07:36.000Z</time>
      </trkpt>
      <trkpt lat="46.39397" lon="4.65597">
        <ele>296.39999389648</ele>
        <time>2024-05-20T09:07:37.000Z</time>
      </trkpt>
      <trkpt lat="46.39395" lon="4.656">
        <ele>296.60000610352</ele>
        <time>2024-05-20T09:07:38.000Z</time>
      </trkpt>
      <trkpt lat="46.39393" lon="4.65603">
        <ele>296.60000610352</ele>
        <time>2024-05-20T09:07:39.000Z</time>
      </trkpt>
      <trkpt lat="46.39391" lon="4.65606">
        <ele>296.79998779297</ele>
        <time>2024-05-20T09:07:40.000Z</time>
      </trkpt>
      <trkpt lat="46.39389" lon="4.65608">
        <ele>296.79998779297</ele>
        <time>2024-05-20T09:07:41.000Z</time>
      </trkpt>
      <trkpt lat="46.39387" lon="4.65611">
        <ele>297.39999389648</ele>
        <time>2024-05-20T09:07:42.000Z</time>
      </trkpt>
      <trkpt lat="46.39385" lon="4.65613">
        <ele>297.60000610352</ele>
        <time>2024-05-20T09:07:43.000Z</time>
      </trkpt>
      <trkpt lat="46.39383" lon="4.65616">
        <ele>297.79998779297</ele>
        <time>2024-05-20T09:07:44.000Z</time>
      </trkpt>
      <trkpt lat="46.39381" lon="4.65619">
        <ele>297.79998779297</ele>
        <time>2024-05-20T09:07:45.000Z</time>
      </trkpt>
      <trkpt lat="46.39378" lon="4.65621">
        <ele>298.39999389648</ele>
        <time>2024-05-20T09:07:46.000Z</time>
      </trkpt>
      <trkpt lat="46.39376" lon="4.65624">
        <ele>298.60000610352</ele>
        <time>2024-05-20T09:07:47.000Z</time>
      </trkpt>
      <trkpt lat="46.39374" lon="4.65627">
        <ele>298.79998779297</ele>
        <time>2024-05-20T09:07:48.000Z</time>
      </trkpt>
      <trkpt lat="46.39372" lon="4.65629">
        <ele>298.79998779297</ele>
        <time>2024-05-20T09:07:49.000Z</time>
      </trkpt>
      <trkpt lat="46.39369" lon="4.65632">
        <ele>299</ele>
        <time>2024-05-20T09:07:50.000Z</time>
      </trkpt>
      <trkpt lat="46.39367" lon="4.65635">
        <ele>299.20001220703</ele>
        <time>2024-05-20T09:07:51.000Z</time>
      </trkpt>
      <trkpt lat="46.39365" lon="4.65637">
        <ele>299.39999389648</ele>
        <time>2024-05-20T09:07:52.000Z</time>
      </trkpt>
      <trkpt lat="46.39363" lon="4.6564">
        <ele>299.60000610352</ele>
        <time>2024-05-20T09:07:53.000Z</time>
      </trkpt>
      <trkpt lat="46.39361" lon="4.65643">
        <ele>299.79998779297</ele>
        <time>2024-05-20T09:07:54.000Z</time>
      </trkpt>
      <trkpt lat="46.39359" lon="4.65646">
        <ele>300</ele>
        <time>2024-05-20T09:07:55.000Z</time>
      </trkpt>
      <trkpt lat="46.39356" lon="4.65649">
        <ele>300.20001220703</ele>
        <time>2024-05-20T09:07:56.000Z</time>
      </trkpt>
      <trkpt lat="46.39354" lon="4.65652">
        <ele>300.39999389648</ele>
        <time>2024-05-20T09:07:57.000Z</time>
      </trkpt>
      <trkpt lat="46.39352" lon="4.65655">
        <ele>300.39999389648</ele>
        <time>2024-05-20T09:07:58.000Z</time>
      </trkpt>
      <trkpt lat="46.3935" lon="4.65658">
        <ele>300.60000610352</ele>
        <time>2024-05-20T09:07:59.000Z</time>
      </trkpt>
      <trkpt lat="46.39347" lon="4.65661">
        <ele>301</ele>
        <time>2024-05-20T09:08:00.000Z</time>
      </trkpt>
      <trkpt lat="46.39345" lon="4.65664">
        <ele>301.39999389648</ele>
        <time>2024-05-20T09:08:01.000Z</time>
      </trkpt>
      <trkpt lat="46.39343" lon="4.65667">
        <ele>301.39999389648</ele>
        <time>2024-05-20T09:08:02.000Z</time>
      </trkpt>
      <trkpt lat="46.39341" lon="4.6567">
        <ele>301.79998779297</ele>
        <time>2024-05-20T09:08:03.000Z</time>
      </trkpt>
      <trkpt lat="46.39339" lon="4.65674">
        <ele>301.79998779297</ele>
        <time>2024-05-20T09:08:04.000Z</time>
      </trkpt>
      <trkpt lat="46.39337" lon="4.65677">
        <ele>301.79998779297</ele>
        <time>2024-05-20T09:08:05.000Z</time>
      </trkpt>
      <trkpt lat="46.39335" lon="4.65679">
        <ele>302</ele>
        <time>2024-05-20T09:08:06.000Z</time>
      </trkpt>
      <trkpt lat="46.39333" lon="4.65682">
        <ele>302</ele>
        <time>2024-05-20T09:08:07.000Z</time>
      </trkpt>
      <trkpt lat="46.39331" lon="4.65686">
        <ele>302</ele>
        <time>2024-05-20T09:08:08.000Z</time>
      </trkpt>
      <trkpt lat="46.3933" lon="4.65689">
        <ele>302.39999389648</ele>
        <time>2024-05-20T09:08:09.000Z</time>
      </trkpt>
      <trkpt lat="46.39328" lon="4.65693">
        <ele>302.60000610352</ele>
        <time>2024-05-20T09:08:10.000Z</time>
      </trkpt>
      <trkpt lat="46.39327" lon="4.65697">
        <ele>302.60000610352</ele>
        <time>2024-05-20T09:08:11.000Z</time>
      </trkpt>
      <trkpt lat="46.39325" lon="4.65702">
        <ele>302.79998779297</ele>
        <time>2024-05-20T09:08:12.000Z</time>
      </trkpt>
      <trkpt lat="46.39324" lon="4.65706">
        <ele>302.79998779297</ele>
        <time>2024-05-20T09:08:13.000Z</time>
      </trkpt>
      <trkpt lat="46.39322" lon="4.6571">
        <ele>302.79998779297</ele>
        <time>2024-05-20T09:08:14.000Z</time>
      </trkpt>
      <trkpt lat="46.39321" lon="4.65714">
        <ele>302.79998779297</ele>
        <time>2024-05-20T09:08:15.000Z</time>
      </trkpt>
      <trkpt lat="46.39318" lon="4.65718">
        <ele>302.79998779297</ele>
        <time>2024-05-20T09:08:16.000Z</time>
      </trkpt>
      <trkpt lat="46.39315" lon="4.65722">
        <ele>302.79998779297</ele>
        <time>2024-05-20T09:08:17.000Z</time>
      </trkpt>
      <trkpt lat="46.39312" lon="4.65726">
        <ele>302.60000610352</ele>
        <time>2024-05-20T09:08:18.000Z</time>
      </trkpt>
      <trkpt lat="46.39309" lon="4.6573">
        <ele>302.60000610352</ele>
        <time>2024-05-20T09:08:19.000Z</time>
      </trkpt>
      <trkpt lat="46.39307" lon="4.65735">
        <ele>302.60000610352</ele>
        <time>2024-05-20T09:08:20.000Z</time>
      </trkpt>
      <trkpt lat="46.39304" lon="4.65739">
        <ele>302.60000610352</ele>
        <time>2024-05-20T09:08:21.000Z</time>
      </trkpt>
      <trkpt lat="46.39301" lon="4.65744">
        <ele>302.60000610352</ele>
        <time>2024-05-20T09:08:22.000Z</time>
      </trkpt>
      <trkpt lat="46.39297" lon="4.65748">
        <ele>302.39999389648</ele>
        <time>2024-05-20T09:08:23.000Z</time>
      </trkpt>
      <trkpt lat="46.39294" lon="4.65753">
        <ele>302.39999389648</ele>
        <time>2024-05-20T09:08:24.000Z</time>
      </trkpt>
      <trkpt lat="46.3929" lon="4.65758">
        <ele>302.20001220703</ele>
        <time>2024-05-20T09:08:25.000Z</time>
      </trkpt>
      <trkpt lat="46.39287" lon="4.65763">
        <ele>302</ele>
        <time>2024-05-20T09:08:26.000Z</time>
      </trkpt>
      <trkpt lat="46.39284" lon="4.65768">
        <ele>301.79998779297</ele>
        <time>2024-05-20T09:08:27.000Z</time>
      </trkpt>
      <trkpt lat="46.3928" lon="4.65773">
        <ele>301.60000610352</ele>
        <time>2024-05-20T09:08:28.000Z</time>
      </trkpt>
      <trkpt lat="46.39277" lon="4.65778">
        <ele>301.60000610352</ele>
        <time>2024-05-20T09:08:29.000Z</time>
      </trkpt>
      <trkpt lat="46.39274" lon="4.65782">
        <ele>301.60000610352</ele>
        <time>2024-05-20T09:08:30.000Z</time>
      </trkpt>
      <trkpt lat="46.39272" lon="4.65787">
        <ele>301.60000610352</ele>
        <time>2024-05-20T09:08:31.000Z</time>
      </trkpt>
      <trkpt lat="46.3927" lon="4.65792">
        <ele>301.79998779297</ele>
        <time>2024-05-20T09:08:32.000Z</time>
      </trkpt>
      <trkpt lat="46.39267" lon="4.65796">
        <ele>302</ele>
        <time>2024-05-20T09:08:33.000Z</time>
      </trkpt>
      <trkpt lat="46.39265" lon="4.65799">
        <ele>302.39999389648</ele>
        <time>2024-05-20T09:08:34.000Z</time>
      </trkpt>
      <trkpt lat="46.39263" lon="4.65803">
        <ele>302.60000610352</ele>
        <time>2024-05-20T09:08:35.000Z</time>
      </trkpt>
      <trkpt lat="46.3926" lon="4.65807">
        <ele>302.79998779297</ele>
        <time>2024-05-20T09:08:36.000Z</time>
      </trkpt>
      <trkpt lat="46.39258" lon="4.65811">
        <ele>303</ele>
        <time>2024-05-20T09:08:37.000Z</time>
      </trkpt>
      <trkpt lat="46.39256" lon="4.65814">
        <ele>303.20001220703</ele>
        <time>2024-05-20T09:08:38.000Z</time>
      </trkpt>
      <trkpt lat="46.39253" lon="4.65817">
        <ele>303.39999389648</ele>
        <time>2024-05-20T09:08:39.000Z</time>
      </trkpt>
      <trkpt lat="46.39251" lon="4.6582">
        <ele>303.60000610352</ele>
        <time>2024-05-20T09:08:40.000Z</time>
      </trkpt>
      <trkpt lat="46.39248" lon="4.65823">
        <ele>303.79998779297</ele>
        <time>2024-05-20T09:08:41.000Z</time>
      </trkpt>
      <trkpt lat="46.39245" lon="4.65825">
        <ele>304.20001220703</ele>
        <time>2024-05-20T09:08:42.000Z</time>
      </trkpt>
      <trkpt lat="46.39242" lon="4.65828">
        <ele>304.60000610352</ele>
        <time>2024-05-20T09:08:43.000Z</time>
      </trkpt>
      <trkpt lat="46.3924" lon="4.6583">
        <ele>304.79998779297</ele>
        <time>2024-05-20T09:08:44.000Z</time>
      </trkpt>
      <trkpt lat="46.39237" lon="4.65832">
        <ele>305.20001220703</ele>
        <time>2024-05-20T09:08:45.000Z</time>
      </trkpt>
      <trkpt lat="46.39235" lon="4.65834">
        <ele>305.60000610352</ele>
        <time>2024-05-20T09:08:46.000Z</time>
      </trkpt>
      <trkpt lat="46.39232" lon="4.65836">
        <ele>306.20001220703</ele>
        <time>2024-05-20T09:08:47.000Z</time>
      </trkpt>
      <trkpt lat="46.3923" lon="4.65838">
        <ele>306.60000610352</ele>
        <time>2024-05-20T09:08:48.000Z</time>
      </trkpt>
      <trkpt lat="46.39227" lon="4.65841">
        <ele>307</ele>
        <time>2024-05-20T09:08:49.000Z</time>
      </trkpt>
      <trkpt lat="46.39225" lon="4.65843">
        <ele>307.39999389648</ele>
        <time>2024-05-20T09:08:50.000Z</time>
      </trkpt>
      <trkpt lat="46.39222" lon="4.65847">
        <ele>307.60000610352</ele>
        <time>2024-05-20T09:08:51.000Z</time>
      </trkpt>
      <trkpt lat="46.3922" lon="4.6585">
        <ele>307.79998779297</ele>
        <time>2024-05-20T09:08:52.000Z</time>
      </trkpt>
      <trkpt lat="46.39217" lon="4.65853">
        <ele>308.20001220703</ele>
        <time>2024-05-20T09:08:53.000Z</time>
      </trkpt>
      <trkpt lat="46.39216" lon="4.65855">
        <ele>308.60000610352</ele>
        <time>2024-05-20T09:08:54.000Z</time>
      </trkpt>
      <trkpt lat="46.39214" lon="4.65858">
        <ele>308.79998779297</ele>
        <time>2024-05-20T09:08:55.000Z</time>
      </trkpt>
      <trkpt lat="46.39212" lon="4.6586">
        <ele>309</ele>
        <time>2024-05-20T09:08:56.000Z</time>
      </trkpt>
      <trkpt lat="46.3921" lon="4.65863">
        <ele>309.39999389648</ele>
        <time>2024-05-20T09:08:57.000Z</time>
      </trkpt>
      <trkpt lat="46.39208" lon="4.65866">
        <ele>309.60000610352</ele>
        <time>2024-05-20T09:08:58.000Z</time>
      </trkpt>
      <trkpt lat="46.39206" lon="4.65868">
        <ele>309.79998779297</ele>
        <time>2024-05-20T09:08:59.000Z</time>
      </trkpt>
      <trkpt lat="46.39204" lon="4.65871">
        <ele>310.20001220703</ele>
        <time>2024-05-20T09:09:00.000Z</time>
      </trkpt>
      <trkpt lat="46.39202" lon="4.65874">
        <ele>310.60000610352</ele>
        <time>2024-05-20T09:09:01.000Z</time>
      </trkpt>
      <trkpt lat="46.392" lon="4.65877">
        <ele>310.79998779297</ele>
        <time>2024-05-20T09:09:02.000Z</time>
      </trkpt>
      <trkpt lat="46.39199" lon="4.65879">
        <ele>311.20001220703</ele>
        <time>2024-05-20T09:09:03.000Z</time>
      </trkpt>
      <trkpt lat="46.39197" lon="4.65882">
        <ele>311.20001220703</ele>
        <time>2024-05-20T09:09:04.000Z</time>
      </trkpt>
      <trkpt lat="46.39195" lon="4.65885">
        <ele>311.39999389648</ele>
        <time>2024-05-20T09:09:05.000Z</time>
      </trkpt>
      <trkpt lat="46.39192" lon="4.65888">
        <ele>311.60000610352</ele>
        <time>2024-05-20T09:09:06.000Z</time>
      </trkpt>
      <trkpt lat="46.39191" lon="4.65892">
        <ele>311.79998779297</ele>
        <time>2024-05-20T09:09:07.000Z</time>
      </trkpt>
      <trkpt lat="46.39189" lon="4.65895">
        <ele>312</ele>
        <time>2024-05-20T09:09:08.000Z</time>
      </trkpt>
      <trkpt lat="46.39187" lon="4.65899">
        <ele>312.20001220703</ele>
        <time>2024-05-20T09:09:09.000Z</time>
      </trkpt>
      <trkpt lat="46.39186" lon="4.65902">
        <ele>312.20001220703</ele>
        <time>2024-05-20T09:09:10.000Z</time>
      </trkpt>
      <trkpt lat="46.39183" lon="4.65906">
        <ele>312.20001220703</ele>
        <time>2024-05-20T09:09:11.000Z</time>
      </trkpt>
      <trkpt lat="46.39181" lon="4.6591">
        <ele>312.39999389648</ele>
        <time>2024-05-20T09:09:12.000Z</time>
      </trkpt>
      <trkpt lat="46.3918" lon="4.65914">
        <ele>312.39999389648</ele>
        <time>2024-05-20T09:09:13.000Z</time>
      </trkpt>
      <trkpt lat="46.39178" lon="4.65918">
        <ele>312.39999389648</ele>
        <time>2024-05-20T09:09:14.000Z</time>
      </trkpt>
      <trkpt lat="46.39176" lon="4.65922">
        <ele>312.60000610352</ele>
        <time>2024-05-20T09:09:15.000Z</time>
      </trkpt>
      <trkpt lat="46.39174" lon="4.65926">
        <ele>312.60000610352</ele>
        <time>2024-05-20T09:09:16.000Z</time>
      </trkpt>
      <trkpt lat="46.39172" lon="4.6593">
        <ele>312.60000610352</ele>
        <time>2024-05-20T09:09:17.000Z</time>
      </trkpt>
      <trkpt lat="46.39171" lon="4.65934">
        <ele>312.79998779297</ele>
        <time>2024-05-20T09:09:18.000Z</time>
      </trkpt>
      <trkpt lat="46.3917" lon="4.65938">
        <ele>312.79998779297</ele>
        <time>2024-05-20T09:09:19.000Z</time>
      </trkpt>
      <trkpt lat="46.39169" lon="4.65941">
        <ele>313</ele>
        <time>2024-05-20T09:09:20.000Z</time>
      </trkpt>
      <trkpt lat="46.39168" lon="4.65945">
        <ele>313.39999389648</ele>
        <time>2024-05-20T09:09:21.000Z</time>
      </trkpt>
      <trkpt lat="46.39167" lon="4.65948">
        <ele>313.60000610352</ele>
        <time>2024-05-20T09:09:22.000Z</time>
      </trkpt>
      <trkpt lat="46.39165" lon="4.65952">
        <ele>314</ele>
        <time>2024-05-20T09:09:23.000Z</time>
      </trkpt>
      <trkpt lat="46.39164" lon="4.65954">
        <ele>314.20001220703</ele>
        <time>2024-05-20T09:09:24.000Z</time>
      </trkpt>
      <trkpt lat="46.39163" lon="4.65957">
        <ele>314.39999389648</ele>
        <time>2024-05-20T09:09:25.000Z</time>
      </trkpt>
      <trkpt lat="46.39162" lon="4.6596">
        <ele>314.60000610352</ele>
        <time>2024-05-20T09:09:26.000Z</time>
      </trkpt>
      <trkpt lat="46.3916" lon="4.65961">
        <ele>314.79998779297</ele>
        <time>2024-05-20T09:09:27.000Z</time>
      </trkpt>
      <trkpt lat="46.39159" lon="4.65963">
        <ele>315</ele>
        <time>2024-05-20T09:09:28.000Z</time>
      </trkpt>
      <trkpt lat="46.39157" lon="4.65964">
        <ele>315.20001220703</ele>
        <time>2024-05-20T09:09:29.000Z</time>
      </trkpt>
      <trkpt lat="46.39155" lon="4.65966">
        <ele>315.60000610352</ele>
        <time>2024-05-20T09:09:30.000Z</time>
      </trkpt>
      <trkpt lat="46.39153" lon="4.65968">
        <ele>316</ele>
        <time>2024-05-20T09:09:31.000Z</time>
      </trkpt>
      <trkpt lat="46.39152" lon="4.6597">
        <ele>316.60000610352</ele>
        <time>2024-05-20T09:09:32.000Z</time>
      </trkpt>
      <trkpt lat="46.3915" lon="4.65971">
        <ele>317</ele>
        <time>2024-05-20T09:09:33.000Z</time>
      </trkpt>
      <trkpt lat="46.39148" lon="4.65973">
        <ele>317.60000610352</ele>
        <time>2024-05-20T09:09:34.000Z</time>
      </trkpt>
      <trkpt lat="46.39147" lon="4.65974">
        <ele>318</ele>
        <time>2024-05-20T09:09:35.000Z</time>
      </trkpt>
      <trkpt lat="46.39146" lon="4.65976">
        <ele>318.39999389648</ele>
        <time>2024-05-20T09:09:36.000Z</time>
      </trkpt>
      <trkpt lat="46.39144" lon="4.65978">
        <ele>318.79998779297</ele>
        <time>2024-05-20T09:09:37.000Z</time>
      </trkpt>
      <trkpt lat="46.39143" lon="4.6598">
        <ele>319.20001220703</ele>
        <time>2024-05-20T09:09:38.000Z</time>
      </trkpt>
      <trkpt lat="46.39141" lon="4.65982">
        <ele>319.60000610352</ele>
        <time>2024-05-20T09:09:39.000Z</time>
      </trkpt>
      <trkpt lat="46.39139" lon="4.65984">
        <ele>319.79998779297</ele>
        <time>2024-05-20T09:09:40.000Z</time>
      </trkpt>
      <trkpt lat="46.39138" lon="4.65985">
        <ele>320</ele>
        <time>2024-05-20T09:09:41.000Z</time>
      </trkpt>
      <trkpt lat="46.39136" lon="4.65987">
        <ele>320.20001220703</ele>
        <time>2024-05-20T09:09:42.000Z</time>
      </trkpt>
      <trkpt lat="46.39134" lon="4.65989">
        <ele>320.39999389648</ele>
        <time>2024-05-20T09:09:43.000Z</time>
      </trkpt>
      <trkpt lat="46.39132" lon="4.65991">
        <ele>320.60000610352</ele>
        <time>2024-05-20T09:09:44.000Z</time>
      </trkpt>
      <trkpt lat="46.3913" lon="4.65993">
        <ele>320.79998779297</ele>
        <time>2024-05-20T09:09:45.000Z</time>
      </trkpt>
      <trkpt lat="46.39128" lon="4.65995">
        <ele>321</ele>
        <time>2024-05-20T09:09:46.000Z</time>
      </trkpt>
      <trkpt lat="46.39126" lon="4.65996">
        <ele>321.20001220703</ele>
        <time>2024-05-20T09:09:47.000Z</time>
      </trkpt>
      <trkpt lat="46.39125" lon="4.65998">
        <ele>321.39999389648</ele>
        <time>2024-05-20T09:09:48.000Z</time>
      </trkpt>
      <trkpt lat="46.39123" lon="4.66">
        <ele>321.60000610352</ele>
        <time>2024-05-20T09:09:49.000Z</time>
      </trkpt>
      <trkpt lat="46.39121" lon="4.66002">
        <ele>321.79998779297</ele>
        <time>2024-05-20T09:09:50.000Z</time>
      </trkpt>
      <trkpt lat="46.3912" lon="4.66003">
        <ele>322</ele>
        <time>2024-05-20T09:09:51.000Z</time>
      </trkpt>
      <trkpt lat="46.39118" lon="4.66005">
        <ele>322.20001220703</ele>
        <time>2024-05-20T09:09:52.000Z</time>
      </trkpt>
      <trkpt lat="46.39116" lon="4.66006">
        <ele>322.60000610352</ele>
        <time>2024-05-20T09:09:53.000Z</time>
      </trkpt>
      <trkpt lat="46.39114" lon="4.66008">
        <ele>322.79998779297</ele>
        <time>2024-05-20T09:09:54.000Z</time>
      </trkpt>
      <trkpt lat="46.39113" lon="4.6601">
        <ele>323.20001220703</ele>
        <time>2024-05-20T09:09:55.000Z</time>
      </trkpt>
      <trkpt lat="46.39111" lon="4.66012">
        <ele>323.39999389648</ele>
        <time>2024-05-20T09:09:56.000Z</time>
      </trkpt>
      <trkpt lat="46.3911" lon="4.66014">
        <ele>323.79998779297</ele>
        <time>2024-05-20T09:09:57.000Z</time>
      </trkpt>
      <trkpt lat="46.39108" lon="4.66016">
        <ele>324</ele>
        <time>2024-05-20T09:09:58.000Z</time>
      </trkpt>
      <trkpt lat="46.39106" lon="4.66018">
        <ele>324.20001220703</ele>
        <time>2024-05-20T09:09:59.000Z</time>
      </trkpt>
      <trkpt lat="46.39104" lon="4.66019">
        <ele>324.60000610352</ele>
        <time>2024-05-20T09:10:00.000Z</time>
      </trkpt>
      <trkpt lat="46.39102" lon="4.66021">
        <ele>324.79998779297</ele>
        <time>2024-05-20T09:10:01.000Z</time>
      </trkpt>
      <trkpt lat="46.39101" lon="4.66022">
        <ele>325</ele>
        <time>2024-05-20T09:10:02.000Z</time>
      </trkpt>
      <trkpt lat="46.39099" lon="4.66023">
        <ele>325.39999389648</ele>
        <time>2024-05-20T09:10:03.000Z</time>
      </trkpt>
      <trkpt lat="46.39097" lon="4.66025">
        <ele>325.60000610352</ele>
        <time>2024-05-20T09:10:04.000Z</time>
      </trkpt>
      <trkpt lat="46.39095" lon="4.66026">
        <ele>325.79998779297</ele>
        <time>2024-05-20T09:10:05.000Z</time>
      </trkpt>
      <trkpt lat="46.39094" lon="4.66028">
        <ele>326.20001220703</ele>
        <time>2024-05-20T09:10:06.000Z</time>
      </trkpt>
      <trkpt lat="46.39092" lon="4.66029">
        <ele>326.39999389648</ele>
        <time>2024-05-20T09:10:07.000Z</time>
      </trkpt>
      <trkpt lat="46.3909" lon="4.66031">
        <ele>326.60000610352</ele>
        <time>2024-05-20T09:10:08.000Z</time>
      </trkpt>
      <trkpt lat="46.39089" lon="4.66032">
        <ele>327</ele>
        <time>2024-05-20T09:10:09.000Z</time>
      </trkpt>
      <trkpt lat="46.39087" lon="4.66034">
        <ele>327.20001220703</ele>
        <time>2024-05-20T09:10:10.000Z</time>
      </trkpt>
      <trkpt lat="46.39085" lon="4.66035">
        <ele>327.39999389648</ele>
        <time>2024-05-20T09:10:11.000Z</time>
      </trkpt>
      <trkpt lat="46.39083" lon="4.66036">
        <ele>327.39999389648</ele>
        <time>2024-05-20T09:10:12.000Z</time>
      </trkpt>
      <trkpt lat="46.39082" lon="4.66038">
        <ele>327.60000610352</ele>
        <time>2024-05-20T09:10:13.000Z</time>
      </trkpt>
      <trkpt lat="46.3908" lon="4.66039">
        <ele>327.79998779297</ele>
        <time>2024-05-20T09:10:14.000Z</time>
      </trkpt>
      <trkpt lat="46.39079" lon="4.66041">
        <ele>328</ele>
        <time>2024-05-20T09:10:15.000Z</time>
      </trkpt>
      <trkpt lat="46.39077" lon="4.66042">
        <ele>328.20001220703</ele>
        <time>2024-05-20T09:10:16.000Z</time>
      </trkpt>
      <trkpt lat="46.39076" lon="4.66044">
        <ele>328.60000610352</ele>
        <time>2024-05-20T09:10:17.000Z</time>
      </trkpt>
      <trkpt lat="46.39074" lon="4.66045">
        <ele>328.79998779297</ele>
        <time>2024-05-20T09:10:18.000Z</time>
      </trkpt>
      <trkpt lat="46.39072" lon="4.66047">
        <ele>329.20001220703</ele>
        <time>2024-05-20T09:10:19.000Z</time>
      </trkpt>
      <trkpt lat="46.39071" lon="4.66049">
        <ele>329.60000610352</ele>
        <time>2024-05-20T09:10:20.000Z</time>
      </trkpt>
      <trkpt lat="46.39069" lon="4.66052">
        <ele>329.79998779297</ele>
        <time>2024-05-20T09:10:21.000Z</time>
      </trkpt>
      <trkpt lat="46.39068" lon="4.66054">
        <ele>330.20001220703</ele>
        <time>2024-05-20T09:10:22.000Z</time>
      </trkpt>
      <trkpt lat="46.39066" lon="4.66056">
        <ele>330.20001220703</ele>
        <time>2024-05-20T09:10:23.000Z</time>
      </trkpt>
      <trkpt lat="46.39064" lon="4.66058">
        <ele>330.39999389648</ele>
        <time>2024-05-20T09:10:24.000Z</time>
      </trkpt>
      <trkpt lat="46.39063" lon="4.66061">
        <ele>330.60000610352</ele>
        <time>2024-05-20T09:10:25.000Z</time>
      </trkpt>
      <trkpt lat="46.39061" lon="4.66063">
        <ele>330.79998779297</ele>
        <time>2024-05-20T09:10:26.000Z</time>
      </trkpt>
      <trkpt lat="46.39059" lon="4.66066">
        <ele>331</ele>
        <time>2024-05-20T09:10:27.000Z</time>
      </trkpt>
      <trkpt lat="46.39058" lon="4.66069">
        <ele>331</ele>
        <time>2024-05-20T09:10:28.000Z</time>
      </trkpt>
      <trkpt lat="46.39057" lon="4.66072">
        <ele>331.20001220703</ele>
        <time>2024-05-20T09:10:29.000Z</time>
      </trkpt>
      <trkpt lat="46.39055" lon="4.66074">
        <ele>331.60000610352</ele>
        <time>2024-05-20T09:10:30.000Z</time>
      </trkpt>
      <trkpt lat="46.39053" lon="4.66077">
        <ele>331.79998779297</ele>
        <time>2024-05-20T09:10:31.000Z</time>
      </trkpt>
      <trkpt lat="46.39052" lon="4.6608">
        <ele>331.79998779297</ele>
        <time>2024-05-20T09:10:32.000Z</time>
      </trkpt>
      <trkpt lat="46.3905" lon="4.66083">
        <ele>332</ele>
        <time>2024-05-20T09:10:33.000Z</time>
      </trkpt>
      <trkpt lat="46.39048" lon="4.66086">
        <ele>332.20001220703</ele>
        <time>2024-05-20T09:10:34.000Z</time>
      </trkpt>
      <trkpt lat="46.39047" lon="4.66089">
        <ele>332.20001220703</ele>
        <time>2024-05-20T09:10:35.000Z</time>
      </trkpt>
      <trkpt lat="46.39045" lon="4.66092">
        <ele>332.39999389648</ele>
        <time>2024-05-20T09:10:36.000Z</time>
      </trkpt>
      <trkpt lat="46.39044" lon="4.66095">
        <ele>332.39999389648</ele>
        <time>2024-05-20T09:10:37.000Z</time>
      </trkpt>
      <trkpt lat="46.39042" lon="4.66098">
        <ele>332.60000610352</ele>
        <time>2024-05-20T09:10:38.000Z</time>
      </trkpt>
      <trkpt lat="46.3904" lon="4.66101">
        <ele>332.79998779297</ele>
        <time>2024-05-20T09:10:39.000Z</time>
      </trkpt>
      <trkpt lat="46.39039" lon="4.66104">
        <ele>333</ele>
        <time>2024-05-20T09:10:40.000Z</time>
      </trkpt>
      <trkpt lat="46.39037" lon="4.66107">
        <ele>333.20001220703</ele>
        <time>2024-05-20T09:10:41.000Z</time>
      </trkpt>
      <trkpt lat="46.39036" lon="4.6611">
        <ele>333.39999389648</ele>
        <time>2024-05-20T09:10:42.000Z</time>
      </trkpt>
      <trkpt lat="46.39034" lon="4.66113">
        <ele>333.60000610352</ele>
        <time>2024-05-20T09:10:43.000Z</time>
      </trkpt>
      <trkpt lat="46.39033" lon="4.66115">
        <ele>334</ele>
        <time>2024-05-20T09:10:44.000Z</time>
      </trkpt>
      <trkpt lat="46.39031" lon="4.66118">
        <ele>334.20001220703</ele>
        <time>2024-05-20T09:10:45.000Z</time>
      </trkpt>
      <trkpt lat="46.3903" lon="4.66121">
        <ele>334.39999389648</ele>
        <time>2024-05-20T09:10:46.000Z</time>
      </trkpt>
      <trkpt lat="46.39028" lon="4.66124">
        <ele>334.39999389648</ele>
        <time>2024-05-20T09:10:47.000Z</time>
      </trkpt>
      <trkpt lat="46.39026" lon="4.66127">
        <ele>334.60000610352</ele>
        <time>2024-05-20T09:10:48.000Z</time>
      </trkpt>
      <trkpt lat="46.39025" lon="4.6613">
        <ele>334.79998779297</ele>
        <time>2024-05-20T09:10:49.000Z</time>
      </trkpt>
      <trkpt lat="46.39023" lon="4.66133">
        <ele>335.20001220703</ele>
        <time>2024-05-20T09:10:50.000Z</time>
      </trkpt>
      <trkpt lat="46.39022" lon="4.66136">
        <ele>335.39999389648</ele>
        <time>2024-05-20T09:10:51.000Z</time>
      </trkpt>
      <trkpt lat="46.3902" lon="4.66139">
        <ele>335.39999389648</ele>
        <time>2024-05-20T09:10:52.000Z</time>
      </trkpt>
      <trkpt lat="46.39019" lon="4.66142">
        <ele>335.60000610352</ele>
        <time>2024-05-20T09:10:53.000Z</time>
      </trkpt>
      <trkpt lat="46.39017" lon="4.66146">
        <ele>335.60000610352</ele>
        <time>2024-05-20T09:10:54.000Z</time>
      </trkpt>
      <trkpt lat="46.39016" lon="4.66149">
        <ele>335.79998779297</ele>
        <time>2024-05-20T09:10:55.000Z</time>
      </trkpt>
      <trkpt lat="46.39016" lon="4.66153">
        <ele>335.79998779297</ele>
        <time>2024-05-20T09:10:56.000Z</time>
      </trkpt>
      <trkpt lat="46.39015" lon="4.66157">
        <ele>335.79998779297</ele>
        <time>2024-05-20T09:10:57.000Z</time>
      </trkpt>
      <trkpt lat="46.39014" lon="4.66162">
        <ele>335.79998779297</ele>
        <time>2024-05-20T09:10:58.000Z</time>
      </trkpt>
      <trkpt lat="46.39013" lon="4.66167">
        <ele>335.79998779297</ele>
        <time>2024-05-20T09:10:59.000Z</time>
      </trkpt>
      <trkpt lat="46.39012" lon="4.66173">
        <ele>335.79998779297</ele>
        <time>2024-05-20T09:11:00.000Z</time>
      </trkpt>
      <trkpt lat="46.39011" lon="4.66179">
        <ele>335.79998779297</ele>
        <time>2024-05-20T09:11:01.000Z</time>
      </trkpt>
      <trkpt lat="46.39009" lon="4.66186">
        <ele>335.60000610352</ele>
        <time>2024-05-20T09:11:02.000Z</time>
      </trkpt>
      <trkpt lat="46.39007" lon="4.66194">
        <ele>335.39999389648</ele>
        <time>2024-05-20T09:11:03.000Z</time>
      </trkpt>
      <trkpt lat="46.39005" lon="4.66202">
        <ele>335</ele>
        <time>2024-05-20T09:11:04.000Z</time>
      </trkpt>
      <trkpt lat="46.39003" lon="4.66211">
        <ele>334.60000610352</ele>
        <time>2024-05-20T09:11:05.000Z</time>
      </trkpt>
      <trkpt lat="46.39001" lon="4.6622">
        <ele>334</ele>
        <time>2024-05-20T09:11:06.000Z</time>
      </trkpt>
      <trkpt lat="46.38999" lon="4.6623">
        <ele>333.60000610352</ele>
        <time>2024-05-20T09:11:07.000Z</time>
      </trkpt>
      <trkpt lat="46.38997" lon="4.66239">
        <ele>332.79998779297</ele>
        <time>2024-05-20T09:11:08.000Z</time>
      </trkpt>
      <trkpt lat="46.38995" lon="4.66246">
        <ele>332.39999389648</ele>
        <time>2024-05-20T09:11:09.000Z</time>
      </trkpt>
      <trkpt lat="46.38994" lon="4.66253">
        <ele>331.79998779297</ele>
        <time>2024-05-20T09:11:10.000Z</time>
      </trkpt>
      <trkpt lat="46.38993" lon="4.6626">
        <ele>331.60000610352</ele>
        <time>2024-05-20T09:11:11.000Z</time>
      </trkpt>
      <trkpt lat="46.38993" lon="4.66266">
        <ele>331.60000610352</ele>
        <time>2024-05-20T09:11:12.000Z</time>
      </trkpt>
      <trkpt lat="46.38993" lon="4.66271">
        <ele>331.60000610352</ele>
        <time>2024-05-20T09:11:13.000Z</time>
      </trkpt>
      <trkpt lat="46.38995" lon="4.66276">
        <ele>331.60000610352</ele>
        <time>2024-05-20T09:11:14.000Z</time>
      </trkpt>
      <trkpt lat="46.38997" lon="4.6628">
        <ele>331.60000610352</ele>
        <time>2024-05-20T09:11:15.000Z</time>
      </trkpt>
      <trkpt lat="46.38999" lon="4.66285">
        <ele>331.60000610352</ele>
        <time>2024-05-20T09:11:16.000Z</time>
      </trkpt>
      <trkpt lat="46.39003" lon="4.66288">
        <ele>331.20001220703</ele>
        <time>2024-05-20T09:11:17.000Z</time>
      </trkpt>
      <trkpt lat="46.39008" lon="4.6629">
        <ele>331</ele>
        <time>2024-05-20T09:11:18.000Z</time>
      </trkpt>
      <trkpt lat="46.39013" lon="4.66289">
        <ele>330.60000610352</ele>
        <time>2024-05-20T09:11:19.000Z</time>
      </trkpt>
      <trkpt lat="46.39018" lon="4.66286">
        <ele>330</ele>
        <time>2024-05-20T09:11:20.000Z</time>
      </trkpt>
      <trkpt lat="46.39024" lon="4.6628">
        <ele>329.39999389648</ele>
        <time>2024-05-20T09:11:21.000Z</time>
      </trkpt>
      <trkpt lat="46.39028" lon="4.66274">
        <ele>328.79998779297</ele>
        <time>2024-05-20T09:11:22.000Z</time>
      </trkpt>
      <trkpt lat="46.39033" lon="4.66268">
        <ele>327.79998779297</ele>
        <time>2024-05-20T09:11:23.000Z</time>
      </trkpt>
      <trkpt lat="46.39038" lon="4.66261">
        <ele>327</ele>
        <time>2024-05-20T09:11:24.000Z</time>
      </trkpt>
      <trkpt lat="46.39042" lon="4.66254">
        <ele>326</ele>
        <time>2024-05-20T09:11:25.000Z</time>
      </trkpt>
      <trkpt lat="46.39047" lon="4.66247">
        <ele>325</ele>
        <time>2024-05-20T09:11:26.000Z</time>
      </trkpt>
      <trkpt lat="46.39052" lon="4.6624">
        <ele>324</ele>
        <time>2024-05-20T09:11:27.000Z</time>
      </trkpt>
      <trkpt lat="46.39056" lon="4.66234">
        <ele>323.20001220703</ele>
        <time>2024-05-20T09:11:28.000Z</time>
      </trkpt>
      <trkpt lat="46.39061" lon="4.66229">
        <ele>322.20001220703</ele>
        <time>2024-05-20T09:11:29.000Z</time>
      </trkpt>
      <trkpt lat="46.39067" lon="4.66227">
        <ele>321.60000610352</ele>
        <time>2024-05-20T09:11:30.000Z</time>
      </trkpt>
      <trkpt lat="46.39072" lon="4.66227">
        <ele>320.39999389648</ele>
        <time>2024-05-20T09:11:31.000Z</time>
      </trkpt>
      <trkpt lat="46.39077" lon="4.6623">
        <ele>319.39999389648</ele>
        <time>2024-05-20T09:11:32.000Z</time>
      </trkpt>
      <trkpt lat="46.39082" lon="4.66235">
        <ele>318.39999389648</ele>
        <time>2024-05-20T09:11:33.000Z</time>
      </trkpt>
      <trkpt lat="46.39085" lon="4.6624">
        <ele>317.20001220703</ele>
        <time>2024-05-20T09:11:34.000Z</time>
      </trkpt>
      <trkpt lat="46.39087" lon="4.66246">
        <ele>316.39999389648</ele>
        <time>2024-05-20T09:11:35.000Z</time>
      </trkpt>
      <trkpt lat="46.39086" lon="4.66251">
        <ele>316</ele>
        <time>2024-05-20T09:11:36.000Z</time>
      </trkpt>
      <trkpt lat="46.39085" lon="4.66256">
        <ele>315.79998779297</ele>
        <time>2024-05-20T09:11:37.000Z</time>
      </trkpt>
      <trkpt lat="46.39083" lon="4.66261">
        <ele>315.79998779297</ele>
        <time>2024-05-20T09:11:38.000Z</time>
      </trkpt>
      <trkpt lat="46.39081" lon="4.66265">
        <ele>315.79998779297</ele>
        <time>2024-05-20T09:11:39.000Z</time>
      </trkpt>
      <trkpt lat="46.39079" lon="4.6627">
        <ele>315.79998779297</ele>
        <time>2024-05-20T09:11:40.000Z</time>
      </trkpt>
      <trkpt lat="46.39076" lon="4.66275">
        <ele>315.79998779297</ele>
        <time>2024-05-20T09:11:41.000Z</time>
      </trkpt>
      <trkpt lat="46.39073" lon="4.66279">
        <ele>315.79998779297</ele>
        <time>2024-05-20T09:11:42.000Z</time>
      </trkpt>
      <trkpt lat="46.39071" lon="4.66284">
        <ele>315.79998779297</ele>
        <time>2024-05-20T09:11:43.000Z</time>
      </trkpt>
      <trkpt lat="46.39068" lon="4.66288">
        <ele>315.79998779297</ele>
        <time>2024-05-20T09:11:44.000Z</time>
      </trkpt>
      <trkpt lat="46.39065" lon="4.66292">
        <ele>316</ele>
        <time>2024-05-20T09:11:45.000Z</time>
      </trkpt>
      <trkpt lat="46.39062" lon="4.66297">
        <ele>316</ele>
        <time>2024-05-20T09:11:46.000Z</time>
      </trkpt>
      <trkpt lat="46.3906" lon="4.66301">
        <ele>316</ele>
        <time>2024-05-20T09:11:47.000Z</time>
      </trkpt>
      <trkpt lat="46.39058" lon="4.66304">
        <ele>316.20001220703</ele>
        <time>2024-05-20T09:11:48.000Z</time>
      </trkpt>
      <trkpt lat="46.39056" lon="4.66308">
        <ele>316.39999389648</ele>
        <time>2024-05-20T09:11:49.000Z</time>
      </trkpt>
      <trkpt lat="46.39054" lon="4.66312">
        <ele>316.39999389648</ele>
        <time>2024-05-20T09:11:50.000Z</time>
      </trkpt>
      <trkpt lat="46.39051" lon="4.66316">
        <ele>316.60000610352</ele>
        <time>2024-05-20T09:11:51.000Z</time>
      </trkpt>
      <trkpt lat="46.39048" lon="4.66321">
        <ele>316.60000610352</ele>
        <time>2024-05-20T09:11:52.000Z</time>
      </trkpt>
      <trkpt lat="46.39045" lon="4.66326">
        <ele>316.79998779297</ele>
        <time>2024-05-20T09:11:53.000Z</time>
      </trkpt>
      <trkpt lat="46.39042" lon="4.66331">
        <ele>317.39999389648</ele>
        <time>2024-05-20T09:11:54.000Z</time>
      </trkpt>
      <trkpt lat="46.3904" lon="4.66335">
        <ele>317.39999389648</ele>
        <time>2024-05-20T09:11:55.000Z</time>
      </trkpt>
      <trkpt lat="46.39037" lon="4.6634">
        <ele>317.79998779297</ele>
        <time>2024-05-20T09:11:56.000Z</time>
      </trkpt>
      <trkpt lat="46.39034" lon="4.66346">
        <ele>317.79998779297</ele>
        <time>2024-05-20T09:11:57.000Z</time>
      </trkpt>
      <trkpt lat="46.39031" lon="4.66352">
        <ele>317.79998779297</ele>
        <time>2024-05-20T09:11:58.000Z</time>
      </trkpt>
      <trkpt lat="46.39029" lon="4.66357">
        <ele>318</ele>
        <time>2024-05-20T09:11:59.000Z</time>
      </trkpt>
      <trkpt lat="46.39027" lon="4.66362">
        <ele>318.20001220703</ele>
        <time>2024-05-20T09:12:00.000Z</time>
      </trkpt>
      <trkpt lat="46.39024" lon="4.66366">
        <ele>318.39999389648</ele>
        <time>2024-05-20T09:12:01.000Z</time>
      </trkpt>
      <trkpt lat="46.39022" lon="4.6637">
        <ele>318.39999389648</ele>
        <time>2024-05-20T09:12:02.000Z</time>
      </trkpt>
      <trkpt lat="46.3902" lon="4.66374">
        <ele>318.60000610352</ele>
        <time>2024-05-20T09:12:03.000Z</time>
      </trkpt>
      <trkpt lat="46.39019" lon="4.66378">
        <ele>318.60000610352</ele>
        <time>2024-05-20T09:12:04.000Z</time>
      </trkpt>
      <trkpt lat="46.39017" lon="4.66382">
        <ele>318.60000610352</ele>
        <time>2024-05-20T09:12:05.000Z</time>
      </trkpt>
      <trkpt lat="46.39015" lon="4.66385">
        <ele>318.79998779297</ele>
        <time>2024-05-20T09:12:06.000Z</time>
      </trkpt>
      <trkpt lat="46.39014" lon="4.66389">
        <ele>319</ele>
        <time>2024-05-20T09:12:07.000Z</time>
      </trkpt>
      <trkpt lat="46.39012" lon="4.66391">
        <ele>319.20001220703</ele>
        <time>2024-05-20T09:12:08.000Z</time>
      </trkpt>
      <trkpt lat="46.39012" lon="4.66394">
        <ele>319.39999389648</ele>
        <time>2024-05-20T09:12:09.000Z</time>
      </trkpt>
      <trkpt lat="46.39011" lon="4.66396">
        <ele>319.60000610352</ele>
        <time>2024-05-20T09:12:10.000Z</time>
      </trkpt>
      <trkpt lat="46.3901" lon="4.66399">
        <ele>319.79998779297</ele>
        <time>2024-05-20T09:12:11.000Z</time>
      </trkpt>
      <trkpt lat="46.39009" lon="4.66402">
        <ele>320</ele>
        <time>2024-05-20T09:12:12.000Z</time>
      </trkpt>
      <trkpt lat="46.39008" lon="4.66405">
        <ele>320</ele>
        <time>2024-05-20T09:12:13.000Z</time>
      </trkpt>
      <trkpt lat="46.39007" lon="4.66409">
        <ele>320</ele>
        <time>2024-05-20T09:12:14.000Z</time>
      </trkpt>
      <trkpt lat="46.39005" lon="4.66413">
        <ele>320</ele>
        <time>2024-05-20T09:12:15.000Z</time>
      </trkpt>
      <trkpt lat="46.39003" lon="4.66417">
        <ele>320</ele>
        <time>2024-05-20T09:12:16.000Z</time>
      </trkpt>
      <trkpt lat="46.39001" lon="4.66422">
        <ele>320</ele>
        <time>2024-05-20T09:12:17.000Z</time>
      </trkpt>
      <trkpt lat="46.38999" lon="4.66426">
        <ele>320</ele>
        <time>2024-05-20T09:12:18.000Z</time>
      </trkpt>
      <trkpt lat="46.38997" lon="4.66431">
        <ele>320.20001220703</ele>
        <time>2024-05-20T09:12:19.000Z</time>
      </trkpt>
      <trkpt lat="46.38995" lon="4.66434">
        <ele>320.39999389648</ele>
        <time>2024-05-20T09:12:20.000Z</time>
      </trkpt>
      <trkpt lat="46.38993" lon="4.66436">
        <ele>320.39999389648</ele>
        <time>2024-05-20T09:12:21.000Z</time>
      </trkpt>
      <trkpt lat="46.38992" lon="4.66437">
        <ele>320.60000610352</ele>
        <time>2024-05-20T09:12:22.000Z</time>
      </trkpt>
      <trkpt lat="46.38991" lon="4.66439">
        <ele>321</ele>
        <time>2024-05-20T09:12:23.000Z</time>
      </trkpt>
      <trkpt lat="46.38989" lon="4.6644">
        <ele>321</ele>
        <time>2024-05-20T09:12:24.000Z</time>
      </trkpt>
      <trkpt lat="46.38428" lon="4.68404">
        <ele>326</ele>
        <time>2024-05-20T09:17:38.000Z</time>
      </trkpt>
      <trkpt lat="46.38412" lon="4.68415">
        <ele>326</ele>
        <time>2024-05-20T09:17:39.000Z</time>
      </trkpt>
      <trkpt lat="46.38408" lon="4.68416">
        <ele>326.39999389648</ele>
        <time>2024-05-20T09:17:40.000Z</time>
      </trkpt>
      <trkpt lat="46.38403" lon="4.68424">
        <ele>326.39999389648</ele>
        <time>2024-05-20T09:17:41.000Z</time>
      </trkpt>
      <trkpt lat="46.384" lon="4.6843">
        <ele>326.39999389648</ele>
        <time>2024-05-20T09:17:42.000Z</time>
      </trkpt>
      <trkpt lat="46.38397" lon="4.68437">
        <ele>326.20001220703</ele>
        <time>2024-05-20T09:17:43.000Z</time>
      </trkpt>
      <trkpt lat="46.38393" lon="4.68441">
        <ele>326.20001220703</ele>
        <time>2024-05-20T09:17:44.000Z</time>
      </trkpt>
      <trkpt lat="46.38388" lon="4.68447">
        <ele>326.20001220703</ele>
        <time>2024-05-20T09:17:45.000Z</time>
      </trkpt>
      <trkpt lat="46.38386" lon="4.68452">
        <ele>326.20001220703</ele>
        <time>2024-05-20T09:17:46.000Z</time>
      </trkpt>
      <trkpt lat="46.38382" lon="4.68458">
        <ele>326.20001220703</ele>
        <time>2024-05-20T09:17:47.000Z</time>
      </trkpt>
      <trkpt lat="46.38379" lon="4.68464">
        <ele>326.20001220703</ele>
        <time>2024-05-20T09:17:48.000Z</time>
      </trkpt>
      <trkpt lat="46.38374" lon="4.68469">
        <ele>326.39999389648</ele>
        <time>2024-05-20T09:17:49.000Z</time>
      </trkpt>
      <trkpt lat="46.38369" lon="4.68475">
        <ele>326.39999389648</ele>
        <time>2024-05-20T09:17:50.000Z</time>
      </trkpt>
      <trkpt lat="46.38366" lon="4.6848">
        <ele>326.39999389648</ele>
        <time>2024-05-20T09:17:51.000Z</time>
      </trkpt>
      <trkpt lat="46.38361" lon="4.68487">
        <ele>326.39999389648</ele>
        <time>2024-05-20T09:17:52.000Z</time>
      </trkpt>
      <trkpt lat="46.38358" lon="4.68491">
        <ele>326.39999389648</ele>
        <time>2024-05-20T09:17:53.000Z</time>
      </trkpt>
      <trkpt lat="46.38354" lon="4.68497">
        <ele>326.39999389648</ele>
        <time>2024-05-20T09:17:54.000Z</time>
      </trkpt>
      <trkpt lat="46.38351" lon="4.68502">
        <ele>326.39999389648</ele>
        <time>2024-05-20T09:17:55.000Z</time>
      </trkpt>
      <trkpt lat="46.38347" lon="4.68506">
        <ele>326.39999389648</ele>
        <time>2024-05-20T09:17:56.000Z</time>
      </trkpt>
      <trkpt lat="46.38343" lon="4.68511">
        <ele>326.39999389648</ele>
        <time>2024-05-20T09:17:57.000Z</time>
      </trkpt>
      <trkpt lat="46.38339" lon="4.68517">
        <ele>326.39999389648</ele>
        <time>2024-05-20T09:17:58.000Z</time>
      </trkpt>
      <trkpt lat="46.38335" lon="4.68522">
        <ele>326.39999389648</ele>
        <time>2024-05-20T09:17:59.000Z</time>
      </trkpt>
      <trkpt lat="46.38331" lon="4.68528">
        <ele>326.20001220703</ele>
        <time>2024-05-20T09:18:00.000Z</time>
      </trkpt>
      <trkpt lat="46.38328" lon="4.68534">
        <ele>326.20001220703</ele>
        <time>2024-05-20T09:18:01.000Z</time>
      </trkpt>
      <trkpt lat="46.38323" lon="4.68541">
        <ele>326.20001220703</ele>
        <time>2024-05-20T09:18:02.000Z</time>
      </trkpt>
      <trkpt lat="46.38319" lon="4.68548">
        <ele>326.20001220703</ele>
        <time>2024-05-20T09:18:03.000Z</time>
      </trkpt>
      <trkpt lat="46.38314" lon="4.68555">
        <ele>326</ele>
        <time>2024-05-20T09:18:04.000Z</time>
      </trkpt>
      <trkpt lat="46.3831" lon="4.68562">
        <ele>326</ele>
        <time>2024-05-20T09:18:05.000Z</time>
      </trkpt>
      <trkpt lat="46.38305" lon="4.6857">
        <ele>325.79998779297</ele>
        <time>2024-05-20T09:18:06.000Z</time>
      </trkpt>
      <trkpt lat="46.383" lon="4.68577">
        <ele>325.79998779297</ele>
        <time>2024-05-20T09:18:07.000Z</time>
      </trkpt>
      <trkpt lat="46.38295" lon="4.68585">
        <ele>325.39999389648</ele>
        <time>2024-05-20T09:18:08.000Z</time>
      </trkpt>
      <trkpt lat="46.3829" lon="4.68592">
        <ele>325.20001220703</ele>
        <time>2024-05-20T09:18:09.000Z</time>
      </trkpt>
      <trkpt lat="46.38285" lon="4.68599">
        <ele>325</ele>
        <time>2024-05-20T09:18:10.000Z</time>
      </trkpt>
      <trkpt lat="46.38281" lon="4.68606">
        <ele>324.20001220703</ele>
        <time>2024-05-20T09:18:11.000Z</time>
      </trkpt>
      <trkpt lat="46.38276" lon="4.68613">
        <ele>324</ele>
        <time>2024-05-20T09:18:12.000Z</time>
      </trkpt>
      <trkpt lat="46.38271" lon="4.6862">
        <ele>324</ele>
        <time>2024-05-20T09:18:13.000Z</time>
      </trkpt>
      <trkpt lat="46.38267" lon="4.68626">
        <ele>323.79998779297</ele>
        <time>2024-05-20T09:18:14.000Z</time>
      </trkpt>
      <trkpt lat="46.38263" lon="4.68632">
        <ele>323.79998779297</ele>
        <time>2024-05-20T09:18:15.000Z</time>
      </trkpt>
      <trkpt lat="46.38259" lon="4.68637">
        <ele>323.79998779297</ele>
        <time>2024-05-20T09:18:16.000Z</time>
      </trkpt>
      <trkpt lat="46.38256" lon="4.68642">
        <ele>323.79998779297</ele>
        <time>2024-05-20T09:18:17.000Z</time>
      </trkpt>
      <trkpt lat="46.38253" lon="4.68645">
        <ele>323.79998779297</ele>
        <time>2024-05-20T09:18:18.000Z</time>
      </trkpt>
      <trkpt lat="46.3825" lon="4.68649">
        <ele>323.79998779297</ele>
        <time>2024-05-20T09:18:19.000Z</time>
      </trkpt>
      <trkpt lat="46.38248" lon="4.68654">
        <ele>323.79998779297</ele>
        <time>2024-05-20T09:18:20.000Z</time>
      </trkpt>
      <trkpt lat="46.38245" lon="4.68659">
        <ele>323.79998779297</ele>
        <time>2024-05-20T09:18:21.000Z</time>
      </trkpt>
      <trkpt lat="46.38242" lon="4.68663">
        <ele>323.60000610352</ele>
        <time>2024-05-20T09:18:22.000Z</time>
      </trkpt>
      <trkpt lat="46.38238" lon="4.68668">
        <ele>323.60000610352</ele>
        <time>2024-05-20T09:18:23.000Z</time>
      </trkpt>
      <trkpt lat="46.38234" lon="4.68674">
        <ele>323.60000610352</ele>
        <time>2024-05-20T09:18:24.000Z</time>
      </trkpt>
      <trkpt lat="46.3823" lon="4.6868">
        <ele>323.60000610352</ele>
        <time>2024-05-20T09:18:25.000Z</time>
      </trkpt>
      <trkpt lat="46.38226" lon="4.68686">
        <ele>323.39999389648</ele>
        <time>2024-05-20T09:18:26.000Z</time>
      </trkpt>
      <trkpt lat="46.38222" lon="4.68692">
        <ele>323.20001220703</ele>
        <time>2024-05-20T09:18:27.000Z</time>
      </trkpt>
      <trkpt lat="46.38217" lon="4.68698">
        <ele>323</ele>
        <time>2024-05-20T09:18:28.000Z</time>
      </trkpt>
      <trkpt lat="46.38212" lon="4.68705">
        <ele>322.79998779297</ele>
        <time>2024-05-20T09:18:29.000Z</time>
      </trkpt>
      <trkpt lat="46.38207" lon="4.68711">
        <ele>322.60000610352</ele>
        <time>2024-05-20T09:18:30.000Z</time>
      </trkpt>
      <trkpt lat="46.38203" lon="4.68718">
        <ele>322.39999389648</ele>
        <time>2024-05-20T09:18:31.000Z</time>
      </trkpt>
      <trkpt lat="46.38198" lon="4.68724">
        <ele>322</ele>
        <time>2024-05-20T09:18:32.000Z</time>
      </trkpt>
      <trkpt lat="46.38193" lon="4.68731">
        <ele>321.79998779297</ele>
        <time>2024-05-20T09:18:33.000Z</time>
      </trkpt>
      <trkpt lat="46.38187" lon="4.68738">
        <ele>321.60000610352</ele>
        <time>2024-05-20T09:18:34.000Z</time>
      </trkpt>
      <trkpt lat="46.38182" lon="4.68744">
        <ele>321.60000610352</ele>
        <time>2024-05-20T09:18:35.000Z</time>
      </trkpt>
      <trkpt lat="46.38176" lon="4.6875">
        <ele>321.39999389648</ele>
        <time>2024-05-20T09:18:36.000Z</time>
      </trkpt>
      <trkpt lat="46.38171" lon="4.68757">
        <ele>321.20001220703</ele>
        <time>2024-05-20T09:18:37.000Z</time>
      </trkpt>
      <trkpt lat="46.38165" lon="4.68763">
        <ele>321</ele>
        <time>2024-05-20T09:18:38.000Z</time>
      </trkpt>
      <trkpt lat="46.38159" lon="4.68769">
        <ele>320.79998779297</ele>
        <time>2024-05-20T09:18:39.000Z</time>
      </trkpt>
      <trkpt lat="46.38153" lon="4.68775">
        <ele>320.79998779297</ele>
        <time>2024-05-20T09:18:40.000Z</time>
      </trkpt>
      <trkpt lat="46.38146" lon="4.68781">
        <ele>320.39999389648</ele>
        <time>2024-05-20T09:18:41.000Z</time>
      </trkpt>
      <trkpt lat="46.38139" lon="4.68786">
        <ele>320.20001220703</ele>
        <time>2024-05-20T09:18:42.000Z</time>
      </trkpt>
      <trkpt lat="46.38132" lon="4.68792">
        <ele>319.60000610352</ele>
        <time>2024-05-20T09:18:43.000Z</time>
      </trkpt>
      <trkpt lat="46.38125" lon="4.68797">
        <ele>319.20001220703</ele>
        <time>2024-05-20T09:18:44.000Z</time>
      </trkpt>
      <trkpt lat="46.38118" lon="4.68802">
        <ele>319.20001220703</ele>
        <time>2024-05-20T09:18:45.000Z</time>
      </trkpt>
      <trkpt lat="46.3811" lon="4.68808">
        <ele>319</ele>
        <time>2024-05-20T09:18:46.000Z</time>
      </trkpt>
      <trkpt lat="46.38103" lon="4.68813">
        <ele>318.79998779297</ele>
        <time>2024-05-20T09:18:47.000Z</time>
      </trkpt>
      <trkpt lat="46.38095" lon="4.68818">
        <ele>318.79998779297</ele>
        <time>2024-05-20T09:18:48.000Z</time>
      </trkpt>
      <trkpt lat="46.38087" lon="4.68822">
        <ele>318.39999389648</ele>
        <time>2024-05-20T09:18:49.000Z</time>
      </trkpt>
      <trkpt lat="46.3808" lon="4.68825">
        <ele>318</ele>
        <time>2024-05-20T09:18:50.000Z</time>
      </trkpt>
      <trkpt lat="46.38074" lon="4.68827">
        <ele>317.60000610352</ele>
        <time>2024-05-20T09:18:51.000Z</time>
      </trkpt>
      <trkpt lat="46.38067" lon="4.6883">
        <ele>317.60000610352</ele>
        <time>2024-05-20T09:18:52.000Z</time>
      </trkpt>
      <trkpt lat="46.3806" lon="4.68834">
        <ele>317.60000610352</ele>
        <time>2024-05-20T09:18:53.000Z</time>
      </trkpt>
      <trkpt lat="46.38053" lon="4.68837">
        <ele>317.39999389648</ele>
        <time>2024-05-20T09:18:54.000Z</time>
      </trkpt>
      <trkpt lat="46.38046" lon="4.6884">
        <ele>317.20001220703</ele>
        <time>2024-05-20T09:18:55.000Z</time>
      </trkpt>
      <trkpt lat="46.38039" lon="4.68844">
        <ele>317.20001220703</ele>
        <time>2024-05-20T09:18:56.000Z</time>
      </trkpt>
      <trkpt lat="46.38031" lon="4.68847">
        <ele>317</ele>
        <time>2024-05-20T09:18:57.000Z</time>
      </trkpt>
      <trkpt lat="46.38023" lon="4.68848">
        <ele>317</ele>
        <time>2024-05-20T09:18:58.000Z</time>
      </trkpt>
      <trkpt lat="46.38015" lon="4.6885">
        <ele>316.79998779297</ele>
        <time>2024-05-20T09:18:59.000Z</time>
      </trkpt>
      <trkpt lat="46.38006" lon="4.6885">
        <ele>316.60000610352</ele>
        <time>2024-05-20T09:19:00.000Z</time>
      </trkpt>
      <trkpt lat="46.37996" lon="4.68852">
        <ele>316.39999389648</ele>
        <time>2024-05-20T09:19:01.000Z</time>
      </trkpt>
      <trkpt lat="46.37989" lon="4.68852">
        <ele>316</ele>
        <time>2024-05-20T09:19:02.000Z</time>
      </trkpt>
      <trkpt lat="46.37981" lon="4.68853">
        <ele>315.79998779297</ele>
        <time>2024-05-20T09:19:03.000Z</time>
      </trkpt>
      <trkpt lat="46.37972" lon="4.68853">
        <ele>315.60000610352</ele>
        <time>2024-05-20T09:19:04.000Z</time>
      </trkpt>
      <trkpt lat="46.37964" lon="4.68854">
        <ele>315.39999389648</ele>
        <time>2024-05-20T09:19:05.000Z</time>
      </trkpt>
      <trkpt lat="46.37956" lon="4.68856">
        <ele>315.39999389648</ele>
        <time>2024-05-20T09:19:06.000Z</time>
      </trkpt>
      <trkpt lat="46.37949" lon="4.68856">
        <ele>315.39999389648</ele>
        <time>2024-05-20T09:19:07.000Z</time>
      </trkpt>
      <trkpt lat="46.3794" lon="4.68857">
        <ele>315.20001220703</ele>
        <time>2024-05-20T09:19:08.000Z</time>
      </trkpt>
      <trkpt lat="46.37931" lon="4.68857">
        <ele>315</ele>
        <time>2024-05-20T09:19:09.000Z</time>
      </trkpt>
      <trkpt lat="46.37923" lon="4.68856">
        <ele>314.79998779297</ele>
        <time>2024-05-20T09:19:10.000Z</time>
      </trkpt>
      <trkpt lat="46.37914" lon="4.68857">
        <ele>314.60000610352</ele>
        <time>2024-05-20T09:19:11.000Z</time>
      </trkpt>
      <trkpt lat="46.37905" lon="4.68856">
        <ele>314.39999389648</ele>
        <time>2024-05-20T09:19:12.000Z</time>
      </trkpt>
      <trkpt lat="46.37897" lon="4.68857">
        <ele>314.39999389648</ele>
        <time>2024-05-20T09:19:13.000Z</time>
      </trkpt>
      <trkpt lat="46.37888" lon="4.68855">
        <ele>314</ele>
        <time>2024-05-20T09:19:14.000Z</time>
      </trkpt>
      <trkpt lat="46.3788" lon="4.68853">
        <ele>313.79998779297</ele>
        <time>2024-05-20T09:19:15.000Z</time>
      </trkpt>
      <trkpt lat="46.37872" lon="4.68847">
        <ele>313.39999389648</ele>
        <time>2024-05-20T09:19:16.000Z</time>
      </trkpt>
      <trkpt lat="46.37863" lon="4.68846">
        <ele>313.20001220703</ele>
        <time>2024-05-20T09:19:17.000Z</time>
      </trkpt>
      <trkpt lat="46.37853" lon="4.68845">
        <ele>313.20001220703</ele>
        <time>2024-05-20T09:19:18.000Z</time>
      </trkpt>
      <trkpt lat="46.37845" lon="4.68842">
        <ele>313</ele>
        <time>2024-05-20T09:19:19.000Z</time>
      </trkpt>
      <trkpt lat="46.37837" lon="4.68839">
        <ele>312.79998779297</ele>
        <time>2024-05-20T09:19:20.000Z</time>
      </trkpt>
      <trkpt lat="46.37829" lon="4.68838">
        <ele>312.39999389648</ele>
        <time>2024-05-20T09:19:21.000Z</time>
      </trkpt>
      <trkpt lat="46.37821" lon="4.68838">
        <ele>312.39999389648</ele>
        <time>2024-05-20T09:19:22.000Z</time>
      </trkpt>
      <trkpt lat="46.37812" lon="4.68836">
        <ele>312.20001220703</ele>
        <time>2024-05-20T09:19:23.000Z</time>
      </trkpt>
      <trkpt lat="46.37804" lon="4.68834">
        <ele>311.79998779297</ele>
        <time>2024-05-20T09:19:24.000Z</time>
      </trkpt>
      <trkpt lat="46.37796" lon="4.68833">
        <ele>311.39999389648</ele>
        <time>2024-05-20T09:19:25.000Z</time>
      </trkpt>
      <trkpt lat="46.37788" lon="4.68834">
        <ele>311.20001220703</ele>
        <time>2024-05-20T09:19:26.000Z</time>
      </trkpt>
      <trkpt lat="46.3778" lon="4.68834">
        <ele>311</ele>
        <time>2024-05-20T09:19:27.000Z</time>
      </trkpt>
      <trkpt lat="46.37772" lon="4.68835">
        <ele>310.79998779297</ele>
        <time>2024-05-20T09:19:28.000Z</time>
      </trkpt>
      <trkpt lat="46.37764" lon="4.68836">
        <ele>310.39999389648</ele>
        <time>2024-05-20T09:19:29.000Z</time>
      </trkpt>
      <trkpt lat="46.37755" lon="4.68837">
        <ele>310</ele>
        <time>2024-05-20T09:19:30.000Z</time>
      </trkpt>
      <trkpt lat="46.37747" lon="4.68837">
        <ele>310</ele>
        <time>2024-05-20T09:19:31.000Z</time>
      </trkpt>
      <trkpt lat="46.37739" lon="4.68837">
        <ele>309.79998779297</ele>
        <time>2024-05-20T09:19:32.000Z</time>
      </trkpt>
      <trkpt lat="46.37731" lon="4.68838">
        <ele>309.60000610352</ele>
        <time>2024-05-20T09:19:33.000Z</time>
      </trkpt>
      <trkpt lat="46.37723" lon="4.68838">
        <ele>309.39999389648</ele>
        <time>2024-05-20T09:19:34.000Z</time>
      </trkpt>
      <trkpt lat="46.37715" lon="4.68839">
        <ele>309</ele>
        <time>2024-05-20T09:19:35.000Z</time>
      </trkpt>
      <trkpt lat="46.37707" lon="4.6884">
        <ele>309</ele>
        <time>2024-05-20T09:19:36.000Z</time>
      </trkpt>
      <trkpt lat="46.37699" lon="4.68841">
        <ele>308.79998779297</ele>
        <time>2024-05-20T09:19:37.000Z</time>
      </trkpt>
      <trkpt lat="46.37691" lon="4.68843">
        <ele>308.60000610352</ele>
        <time>2024-05-20T09:19:38.000Z</time>
      </trkpt>
      <trkpt lat="46.37683" lon="4.68844">
        <ele>308.39999389648</ele>
        <time>2024-05-20T09:19:39.000Z</time>
      </trkpt>
      <trkpt lat="46.37675" lon="4.68845">
        <ele>308.20001220703</ele>
        <time>2024-05-20T09:19:40.000Z</time>
      </trkpt>
      <trkpt lat="46.37667" lon="4.68846">
        <ele>308.20001220703</ele>
        <time>2024-05-20T09:19:41.000Z</time>
      </trkpt>
      <trkpt lat="46.37659" lon="4.68846">
        <ele>308</ele>
        <time>2024-05-20T09:19:42.000Z</time>
      </trkpt>
      <trkpt lat="46.3765" lon="4.68847">
        <ele>308</ele>
        <time>2024-05-20T09:19:43.000Z</time>
      </trkpt>
      <trkpt lat="46.37643" lon="4.68848">
        <ele>308</ele>
        <time>2024-05-20T09:19:44.000Z</time>
      </trkpt>
      <trkpt lat="46.37635" lon="4.68848">
        <ele>308</ele>
        <time>2024-05-20T09:19:45.000Z</time>
      </trkpt>
      <trkpt lat="46.37627" lon="4.68849">
        <ele>307.79998779297</ele>
        <time>2024-05-20T09:19:46.000Z</time>
      </trkpt>
      <trkpt lat="46.37619" lon="4.6885">
        <ele>307.60000610352</ele>
        <time>2024-05-20T09:19:47.000Z</time>
      </trkpt>
      <trkpt lat="46.37612" lon="4.68852">
        <ele>307.20001220703</ele>
        <time>2024-05-20T09:19:48.000Z</time>
      </trkpt>
      <trkpt lat="46.37604" lon="4.68853">
        <ele>306.79998779297</ele>
        <time>2024-05-20T09:19:49.000Z</time>
      </trkpt>
      <trkpt lat="46.37598" lon="4.68853">
        <ele>306.79998779297</ele>
        <time>2024-05-20T09:19:50.000Z</time>
      </trkpt>
      <trkpt lat="46.37593" lon="4.68854">
        <ele>306.79998779297</ele>
        <time>2024-05-20T09:19:51.000Z</time>
      </trkpt>
      <trkpt lat="46.37589" lon="4.68854">
        <ele>306.79998779297</ele>
        <time>2024-05-20T09:19:52.000Z</time>
      </trkpt>
      <trkpt lat="46.37585" lon="4.68855">
        <ele>306.79998779297</ele>
        <time>2024-05-20T09:19:53.000Z</time>
      </trkpt>
      <trkpt lat="46.37582" lon="4.68857">
        <ele>306.79998779297</ele>
        <time>2024-05-20T09:19:54.000Z</time>
      </trkpt>
      <trkpt lat="46.37578" lon="4.68859">
        <ele>306.79998779297</ele>
        <time>2024-05-20T09:19:55.000Z</time>
      </trkpt>
      <trkpt lat="46.37574" lon="4.6886">
        <ele>306.79998779297</ele>
        <time>2024-05-20T09:19:56.000Z</time>
      </trkpt>
      <trkpt lat="46.37569" lon="4.68861">
        <ele>306.79998779297</ele>
        <time>2024-05-20T09:19:57.000Z</time>
      </trkpt>
      <trkpt lat="46.37564" lon="4.68861">
        <ele>306.60000610352</ele>
        <time>2024-05-20T09:19:58.000Z</time>
      </trkpt>
      <trkpt lat="46.37558" lon="4.68861">
        <ele>306.39999389648</ele>
        <time>2024-05-20T09:19:59.000Z</time>
      </trkpt>
      <trkpt lat="46.37553" lon="4.68862">
        <ele>306.20001220703</ele>
        <time>2024-05-20T09:20:00.000Z</time>
      </trkpt>
      <trkpt lat="46.37547" lon="4.68862">
        <ele>305.60000610352</ele>
        <time>2024-05-20T09:20:01.000Z</time>
      </trkpt>
      <trkpt lat="46.3754" lon="4.68862">
        <ele>305.20001220703</ele>
        <time>2024-05-20T09:20:02.000Z</time>
      </trkpt>
      <trkpt lat="46.37534" lon="4.68862">
        <ele>305.20001220703</ele>
        <time>2024-05-20T09:20:03.000Z</time>
      </trkpt>
      <trkpt lat="46.37528" lon="4.68863">
        <ele>305</ele>
        <time>2024-05-20T09:20:04.000Z</time>
      </trkpt>
      <trkpt lat="46.37521" lon="4.68863">
        <ele>305</ele>
        <time>2024-05-20T09:20:05.000Z</time>
      </trkpt>
      <trkpt lat="46.37515" lon="4.68864">
        <ele>305</ele>
        <time>2024-05-20T09:20:06.000Z</time>
      </trkpt>
      <trkpt lat="46.37508" lon="4.68865">
        <ele>305</ele>
        <time>2024-05-20T09:20:07.000Z</time>
      </trkpt>
      <trkpt lat="46.37501" lon="4.68866">
        <ele>304.79998779297</ele>
        <time>2024-05-20T09:20:08.000Z</time>
      </trkpt>
      <trkpt lat="46.37494" lon="4.68866">
        <ele>304.60000610352</ele>
        <time>2024-05-20T09:20:09.000Z</time>
      </trkpt>
      <trkpt lat="46.37487" lon="4.68866">
        <ele>304.20001220703</ele>
        <time>2024-05-20T09:20:10.000Z</time>
      </trkpt>
      <trkpt lat="46.3748" lon="4.68866">
        <ele>304</ele>
        <time>2024-05-20T09:20:11.000Z</time>
      </trkpt>
      <trkpt lat="46.37473" lon="4.68867">
        <ele>303.79998779297</ele>
        <time>2024-05-20T09:20:12.000Z</time>
      </trkpt>
      <trkpt lat="46.37466" lon="4.68868">
        <ele>303.79998779297</ele>
        <time>2024-05-20T09:20:13.000Z</time>
      </trkpt>
      <trkpt lat="46.37459" lon="4.68869">
        <ele>303.39999389648</ele>
        <time>2024-05-20T09:20:14.000Z</time>
      </trkpt>
      <trkpt lat="46.37451" lon="4.6887">
        <ele>303.39999389648</ele>
        <time>2024-05-20T09:20:15.000Z</time>
      </trkpt>
      <trkpt lat="46.37444" lon="4.68871">
        <ele>303.20001220703</ele>
        <time>2024-05-20T09:20:16.000Z</time>
      </trkpt>
      <trkpt lat="46.37436" lon="4.68872">
        <ele>303</ele>
        <time>2024-05-20T09:20:17.000Z</time>
      </trkpt>
      <trkpt lat="46.37428" lon="4.68873">
        <ele>302.79998779297</ele>
        <time>2024-05-20T09:20:18.000Z</time>
      </trkpt>
      <trkpt lat="46.37421" lon="4.68875">
        <ele>302.60000610352</ele>
        <time>2024-05-20T09:20:19.000Z</time>
      </trkpt>
      <trkpt lat="46.37413" lon="4.68876">
        <ele>302.39999389648</ele>
        <time>2024-05-20T09:20:20.000Z</time>
      </trkpt>
      <trkpt lat="46.37405" lon="4.68878">
        <ele>302.20001220703</ele>
        <time>2024-05-20T09:20:21.000Z</time>
      </trkpt>
      <trkpt lat="46.37398" lon="4.6888">
        <ele>301.79998779297</ele>
        <time>2024-05-20T09:20:22.000Z</time>
      </trkpt>
      <trkpt lat="46.3739" lon="4.68882">
        <ele>301.60000610352</ele>
        <time>2024-05-20T09:20:23.000Z</time>
      </trkpt>
      <trkpt lat="46.37382" lon="4.68884">
        <ele>301.39999389648</ele>
        <time>2024-05-20T09:20:24.000Z</time>
      </trkpt>
      <trkpt lat="46.37374" lon="4.68887">
        <ele>301.39999389648</ele>
        <time>2024-05-20T09:20:25.000Z</time>
      </trkpt>
      <trkpt lat="46.37366" lon="4.6889">
        <ele>301</ele>
        <time>2024-05-20T09:20:26.000Z</time>
      </trkpt>
      <trkpt lat="46.37359" lon="4.68893">
        <ele>300.79998779297</ele>
        <time>2024-05-20T09:20:27.000Z</time>
      </trkpt>
      <trkpt lat="46.37352" lon="4.68896">
        <ele>300.79998779297</ele>
        <time>2024-05-20T09:20:28.000Z</time>
      </trkpt>
      <trkpt lat="46.37345" lon="4.689">
        <ele>300.60000610352</ele>
        <time>2024-05-20T09:20:29.000Z</time>
      </trkpt>
      <trkpt lat="46.37338" lon="4.68904">
        <ele>300.39999389648</ele>
        <time>2024-05-20T09:20:30.000Z</time>
      </trkpt>
      <trkpt lat="46.37332" lon="4.68908">
        <ele>300.20001220703</ele>
        <time>2024-05-20T09:20:31.000Z</time>
      </trkpt>
      <trkpt lat="46.37325" lon="4.68913">
        <ele>300.20001220703</ele>
        <time>2024-05-20T09:20:32.000Z</time>
      </trkpt>
      <trkpt lat="46.37318" lon="4.68919">
        <ele>299.79998779297</ele>
        <time>2024-05-20T09:20:33.000Z</time>
      </trkpt>
      <trkpt lat="46.37311" lon="4.68924">
        <ele>299.79998779297</ele>
        <time>2024-05-20T09:20:34.000Z</time>
      </trkpt>
      <trkpt lat="46.37304" lon="4.6893">
        <ele>299.60000610352</ele>
        <time>2024-05-20T09:20:35.000Z</time>
      </trkpt>
      <trkpt lat="46.37297" lon="4.68936">
        <ele>299.60000610352</ele>
        <time>2024-05-20T09:20:36.000Z</time>
      </trkpt>
      <trkpt lat="46.3729" lon="4.68943">
        <ele>299.39999389648</ele>
        <time>2024-05-20T09:20:37.000Z</time>
      </trkpt>
      <trkpt lat="46.37283" lon="4.68948">
        <ele>299.39999389648</ele>
        <time>2024-05-20T09:20:38.000Z</time>
      </trkpt>
      <trkpt lat="46.37277" lon="4.68954">
        <ele>299.20001220703</ele>
        <time>2024-05-20T09:20:39.000Z</time>
      </trkpt>
      <trkpt lat="46.3727" lon="4.6896">
        <ele>299</ele>
        <time>2024-05-20T09:20:40.000Z</time>
      </trkpt>
      <trkpt lat="46.37264" lon="4.68966">
        <ele>298.79998779297</ele>
        <time>2024-05-20T09:20:41.000Z</time>
      </trkpt>
      <trkpt lat="46.37257" lon="4.68972">
        <ele>298.39999389648</ele>
        <time>2024-05-20T09:20:42.000Z</time>
      </trkpt>
      <trkpt lat="46.3725" lon="4.68977">
        <ele>298.20001220703</ele>
        <time>2024-05-20T09:20:43.000Z</time>
      </trkpt>
      <trkpt lat="46.37242" lon="4.68984">
        <ele>298</ele>
        <time>2024-05-20T09:20:44.000Z</time>
      </trkpt>
      <trkpt lat="46.37235" lon="4.68991">
        <ele>297.79998779297</ele>
        <time>2024-05-20T09:20:45.000Z</time>
      </trkpt>
      <trkpt lat="46.37227" lon="4.68998">
        <ele>297.60000610352</ele>
        <time>2024-05-20T09:20:46.000Z</time>
      </trkpt>
      <trkpt lat="46.37218" lon="4.69004">
        <ele>297.60000610352</ele>
        <time>2024-05-20T09:20:47.000Z</time>
      </trkpt>
      <trkpt lat="46.3721" lon="4.6901">
        <ele>297.39999389648</ele>
        <time>2024-05-20T09:20:48.000Z</time>
      </trkpt>
      <trkpt lat="46.37202" lon="4.69017">
        <ele>297.20001220703</ele>
        <time>2024-05-20T09:20:49.000Z</time>
      </trkpt>
      <trkpt lat="46.37195" lon="4.69023">
        <ele>297.20001220703</ele>
        <time>2024-05-20T09:20:50.000Z</time>
      </trkpt>
      <trkpt lat="46.37188" lon="4.69029">
        <ele>297</ele>
        <time>2024-05-20T09:20:51.000Z</time>
      </trkpt>
      <trkpt lat="46.3718" lon="4.69035">
        <ele>296.60000610352</ele>
        <time>2024-05-20T09:20:52.000Z</time>
      </trkpt>
      <trkpt lat="46.37172" lon="4.69039">
        <ele>296.39999389648</ele>
        <time>2024-05-20T09:20:53.000Z</time>
      </trkpt>
      <trkpt lat="46.37164" lon="4.69044">
        <ele>296</ele>
        <time>2024-05-20T09:20:54.000Z</time>
      </trkpt>
      <trkpt lat="46.37156" lon="4.69049">
        <ele>296</ele>
        <time>2024-05-20T09:20:55.000Z</time>
      </trkpt>
      <trkpt lat="46.37146" lon="4.69054">
        <ele>295.60000610352</ele>
        <time>2024-05-20T09:20:56.000Z</time>
      </trkpt>
      <trkpt lat="46.37138" lon="4.6906">
        <ele>295.60000610352</ele>
        <time>2024-05-20T09:20:57.000Z</time>
      </trkpt>
      <trkpt lat="46.3713" lon="4.69066">
        <ele>295.20001220703</ele>
        <time>2024-05-20T09:20:58.000Z</time>
      </trkpt>
      <trkpt lat="46.37121" lon="4.6907">
        <ele>294.79998779297</ele>
        <time>2024-05-20T09:20:59.000Z</time>
      </trkpt>
      <trkpt lat="46.37113" lon="4.69074">
        <ele>294.60000610352</ele>
        <time>2024-05-20T09:21:00.000Z</time>
      </trkpt>
      <trkpt lat="46.37105" lon="4.69078">
        <ele>294.60000610352</ele>
        <time>2024-05-20T09:21:01.000Z</time>
      </trkpt>
      <trkpt lat="46.37096" lon="4.69081">
        <ele>294.60000610352</ele>
        <time>2024-05-20T09:21:02.000Z</time>
      </trkpt>
      <trkpt lat="46.37088" lon="4.69084">
        <ele>294</ele>
        <time>2024-05-20T09:21:03.000Z</time>
      </trkpt>
      <trkpt lat="46.3708" lon="4.69088">
        <ele>294</ele>
        <time>2024-05-20T09:21:04.000Z</time>
      </trkpt>
      <trkpt lat="46.37072" lon="4.69091">
        <ele>293.79998779297</ele>
        <time>2024-05-20T09:21:05.000Z</time>
      </trkpt>
      <trkpt lat="46.37063" lon="4.69093">
        <ele>293.79998779297</ele>
        <time>2024-05-20T09:21:06.000Z</time>
      </trkpt>
      <trkpt lat="46.37055" lon="4.69094">
        <ele>293.60000610352</ele>
        <time>2024-05-20T09:21:07.000Z</time>
      </trkpt>
      <trkpt lat="46.37047" lon="4.69094">
        <ele>293.20001220703</ele>
        <time>2024-05-20T09:21:08.000Z</time>
      </trkpt>
      <trkpt lat="46.37039" lon="4.69093">
        <ele>293.20001220703</ele>
        <time>2024-05-20T09:21:09.000Z</time>
      </trkpt>
      <trkpt lat="46.37032" lon="4.69096">
        <ele>293</ele>
        <time>2024-05-20T09:21:10.000Z</time>
      </trkpt>
      <trkpt lat="46.37024" lon="4.69099">
        <ele>292.79998779297</ele>
        <time>2024-05-20T09:21:11.000Z</time>
      </trkpt>
      <trkpt lat="46.37017" lon="4.69101">
        <ele>292.79998779297</ele>
        <time>2024-05-20T09:21:12.000Z</time>
      </trkpt>
      <trkpt lat="46.37009" lon="4.69103">
        <ele>292.60000610352</ele>
        <time>2024-05-20T09:21:13.000Z</time>
      </trkpt>
      <trkpt lat="46.37" lon="4.69105">
        <ele>292.39999389648</ele>
        <time>2024-05-20T09:21:14.000Z</time>
      </trkpt>
      <trkpt lat="46.36993" lon="4.69107">
        <ele>292.20001220703</ele>
        <time>2024-05-20T09:21:15.000Z</time>
      </trkpt>
      <trkpt lat="46.36985" lon="4.69109">
        <ele>291.79998779297</ele>
        <time>2024-05-20T09:21:16.000Z</time>
      </trkpt>
      <trkpt lat="46.36977" lon="4.69112">
        <ele>291.79998779297</ele>
        <time>2024-05-20T09:21:17.000Z</time>
      </trkpt>
      <trkpt lat="46.36969" lon="4.69114">
        <ele>291.60000610352</ele>
        <time>2024-05-20T09:21:18.000Z</time>
      </trkpt>
      <trkpt lat="46.36962" lon="4.69118">
        <ele>291.39999389648</ele>
        <time>2024-05-20T09:21:19.000Z</time>
      </trkpt>
      <trkpt lat="46.36955" lon="4.69121">
        <ele>291.20001220703</ele>
        <time>2024-05-20T09:21:20.000Z</time>
      </trkpt>
      <trkpt lat="46.36946" lon="4.69125">
        <ele>290.79998779297</ele>
        <time>2024-05-20T09:21:21.000Z</time>
      </trkpt>
      <trkpt lat="46.36937" lon="4.69129">
        <ele>290.60000610352</ele>
        <time>2024-05-20T09:21:22.000Z</time>
      </trkpt>
      <trkpt lat="46.36928" lon="4.69133">
        <ele>290.39999389648</ele>
        <time>2024-05-20T09:21:23.000Z</time>
      </trkpt>
      <trkpt lat="46.36919" lon="4.69137">
        <ele>290.20001220703</ele>
        <time>2024-05-20T09:21:24.000Z</time>
      </trkpt>
      <trkpt lat="46.36911" lon="4.69141">
        <ele>290.20001220703</ele>
        <time>2024-05-20T09:21:25.000Z</time>
      </trkpt>
      <trkpt lat="46.36902" lon="4.69146">
        <ele>289.79998779297</ele>
        <time>2024-05-20T09:21:26.000Z</time>
      </trkpt>
      <trkpt lat="46.36894" lon="4.6915">
        <ele>289.60000610352</ele>
        <time>2024-05-20T09:21:27.000Z</time>
      </trkpt>
      <trkpt lat="46.36886" lon="4.69154">
        <ele>289.20001220703</ele>
        <time>2024-05-20T09:21:28.000Z</time>
      </trkpt>
      <trkpt lat="46.36878" lon="4.69156">
        <ele>289</ele>
        <time>2024-05-20T09:21:29.000Z</time>
      </trkpt>
      <trkpt lat="46.3687" lon="4.69158">
        <ele>289</ele>
        <time>2024-05-20T09:21:30.000Z</time>
      </trkpt>
      <trkpt lat="46.36861" lon="4.6916">
        <ele>288.79998779297</ele>
        <time>2024-05-20T09:21:31.000Z</time>
      </trkpt>
      <trkpt lat="46.36853" lon="4.69163">
        <ele>288.79998779297</ele>
        <time>2024-05-20T09:21:32.000Z</time>
      </trkpt>
      <trkpt lat="46.36845" lon="4.69165">
        <ele>288.39999389648</ele>
        <time>2024-05-20T09:21:33.000Z</time>
      </trkpt>
      <trkpt lat="46.36836" lon="4.69166">
        <ele>288.20001220703</ele>
        <time>2024-05-20T09:21:34.000Z</time>
      </trkpt>
      <trkpt lat="46.36826" lon="4.69167">
        <ele>288.20001220703</ele>
        <time>2024-05-20T09:21:35.000Z</time>
      </trkpt>
      <trkpt lat="46.36817" lon="4.6917">
        <ele>287.79998779297</ele>
        <time>2024-05-20T09:21:36.000Z</time>
      </trkpt>
      <trkpt lat="46.36809" lon="4.69172">
        <ele>287.79998779297</ele>
        <time>2024-05-20T09:21:37.000Z</time>
      </trkpt>
      <trkpt lat="46.368" lon="4.69174">
        <ele>287.60000610352</ele>
        <time>2024-05-20T09:21:38.000Z</time>
      </trkpt>
      <trkpt lat="46.3679" lon="4.69176">
        <ele>287.39999389648</ele>
        <time>2024-05-20T09:21:39.000Z</time>
      </trkpt>
      <trkpt lat="46.36781" lon="4.69178">
        <ele>287.20001220703</ele>
        <time>2024-05-20T09:21:40.000Z</time>
      </trkpt>
      <trkpt lat="46.36772" lon="4.69179">
        <ele>287</ele>
        <time>2024-05-20T09:21:41.000Z</time>
      </trkpt>
      <trkpt lat="46.36763" lon="4.69181">
        <ele>286.79998779297</ele>
        <time>2024-05-20T09:21:42.000Z</time>
      </trkpt>
      <trkpt lat="46.36754" lon="4.69182">
        <ele>286.39999389648</ele>
        <time>2024-05-20T09:21:43.000Z</time>
      </trkpt>
      <trkpt lat="46.36745" lon="4.69183">
        <ele>286.20001220703</ele>
        <time>2024-05-20T09:21:44.000Z</time>
      </trkpt>
      <trkpt lat="46.36736" lon="4.69185">
        <ele>286</ele>
        <time>2024-05-20T09:21:45.000Z</time>
      </trkpt>
      <trkpt lat="46.36727" lon="4.69188">
        <ele>286</ele>
        <time>2024-05-20T09:21:46.000Z</time>
      </trkpt>
      <trkpt lat="46.36719" lon="4.6919">
        <ele>285.20001220703</ele>
        <time>2024-05-20T09:21:47.000Z</time>
      </trkpt>
      <trkpt lat="46.36712" lon="4.69191">
        <ele>284.79998779297</ele>
        <time>2024-05-20T09:21:48.000Z</time>
      </trkpt>
      <trkpt lat="46.36705" lon="4.69192">
        <ele>284.60000610352</ele>
        <time>2024-05-20T09:21:49.000Z</time>
      </trkpt>
      <trkpt lat="46.36697" lon="4.69194">
        <ele>284.20001220703</ele>
        <time>2024-05-20T09:21:50.000Z</time>
      </trkpt>
      <trkpt lat="46.36691" lon="4.69196">
        <ele>284.20001220703</ele>
        <time>2024-05-20T09:21:51.000Z</time>
      </trkpt>
      <trkpt lat="46.36684" lon="4.69198">
        <ele>284.20001220703</ele>
        <time>2024-05-20T09:21:52.000Z</time>
      </trkpt>
      <trkpt lat="46.36677" lon="4.692">
        <ele>284</ele>
        <time>2024-05-20T09:21:53.000Z</time>
      </trkpt>
      <trkpt lat="46.3667" lon="4.69202">
        <ele>283.79998779297</ele>
        <time>2024-05-20T09:21:54.000Z</time>
      </trkpt>
      <trkpt lat="46.36662" lon="4.69204">
        <ele>283.60000610352</ele>
        <time>2024-05-20T09:21:55.000Z</time>
      </trkpt>
      <trkpt lat="46.36654" lon="4.69206">
        <ele>283.39999389648</ele>
        <time>2024-05-20T09:21:56.000Z</time>
      </trkpt>
      <trkpt lat="46.36646" lon="4.69209">
        <ele>283.20001220703</ele>
        <time>2024-05-20T09:21:57.000Z</time>
      </trkpt>
      <trkpt lat="46.36639" lon="4.69213">
        <ele>283</ele>
        <time>2024-05-20T09:21:58.000Z</time>
      </trkpt>
      <trkpt lat="46.36632" lon="4.69216">
        <ele>282.79998779297</ele>
        <time>2024-05-20T09:21:59.000Z</time>
      </trkpt>
      <trkpt lat="46.36623" lon="4.6922">
        <ele>282.60000610352</ele>
        <time>2024-05-20T09:22:00.000Z</time>
      </trkpt>
      <trkpt lat="46.36615" lon="4.69224">
        <ele>282.20001220703</ele>
        <time>2024-05-20T09:22:01.000Z</time>
      </trkpt>
      <trkpt lat="46.36607" lon="4.69228">
        <ele>282.20001220703</ele>
        <time>2024-05-20T09:22:02.000Z</time>
      </trkpt>
      <trkpt lat="46.36599" lon="4.69232">
        <ele>282</ele>
        <time>2024-05-20T09:22:03.000Z</time>
      </trkpt>
      <trkpt lat="46.36591" lon="4.69236">
        <ele>281.79998779297</ele>
        <time>2024-05-20T09:22:04.000Z</time>
      </trkpt>
      <trkpt lat="46.36583" lon="4.6924">
        <ele>281.60000610352</ele>
        <time>2024-05-20T09:22:05.000Z</time>
      </trkpt>
      <trkpt lat="46.36574" lon="4.69244">
        <ele>281.39999389648</ele>
        <time>2024-05-20T09:22:06.000Z</time>
      </trkpt>
      <trkpt lat="46.36566" lon="4.69248">
        <ele>281.20001220703</ele>
        <time>2024-05-20T09:22:07.000Z</time>
      </trkpt>
      <trkpt lat="46.36558" lon="4.69252">
        <ele>280.79998779297</ele>
        <time>2024-05-20T09:22:08.000Z</time>
      </trkpt>
      <trkpt lat="46.36549" lon="4.69256">
        <ele>280.39999389648</ele>
        <time>2024-05-20T09:22:09.000Z</time>
      </trkpt>
      <trkpt lat="46.3654" lon="4.6926">
        <ele>280.20001220703</ele>
        <time>2024-05-20T09:22:10.000Z</time>
      </trkpt>
      <trkpt lat="46.36532" lon="4.69264">
        <ele>280</ele>
        <time>2024-05-20T09:22:11.000Z</time>
      </trkpt>
      <trkpt lat="46.36524" lon="4.69268">
        <ele>280</ele>
        <time>2024-05-20T09:22:12.000Z</time>
      </trkpt>
      <trkpt lat="46.36515" lon="4.69272">
        <ele>279.60000610352</ele>
        <time>2024-05-20T09:22:13.000Z</time>
      </trkpt>
      <trkpt lat="46.36508" lon="4.69276">
        <ele>279.20001220703</ele>
        <time>2024-05-20T09:22:14.000Z</time>
      </trkpt>
      <trkpt lat="46.365" lon="4.69279">
        <ele>279</ele>
        <time>2024-05-20T09:22:15.000Z</time>
      </trkpt>
      <trkpt lat="46.36492" lon="4.69283">
        <ele>278.39999389648</ele>
        <time>2024-05-20T09:22:16.000Z</time>
      </trkpt>
      <trkpt lat="46.36485" lon="4.69287">
        <ele>278.20001220703</ele>
        <time>2024-05-20T09:22:17.000Z</time>
      </trkpt>
      <trkpt lat="46.36479" lon="4.69291">
        <ele>278</ele>
        <time>2024-05-20T09:22:18.000Z</time>
      </trkpt>
      <trkpt lat="46.36473" lon="4.69294">
        <ele>277.79998779297</ele>
        <time>2024-05-20T09:22:19.000Z</time>
      </trkpt>
      <trkpt lat="46.36467" lon="4.69297">
        <ele>277.79998779297</ele>
        <time>2024-05-20T09:22:20.000Z</time>
      </trkpt>
      <trkpt lat="46.36462" lon="4.693">
        <ele>277.79998779297</ele>
        <time>2024-05-20T09:22:21.000Z</time>
      </trkpt>
      <trkpt lat="46.36458" lon="4.69302">
        <ele>277.79998779297</ele>
        <time>2024-05-20T09:22:22.000Z</time>
      </trkpt>
      <trkpt lat="46.36454" lon="4.69304">
        <ele>277.79998779297</ele>
        <time>2024-05-20T09:22:23.000Z</time>
      </trkpt>
      <trkpt lat="46.3645" lon="4.69305">
        <ele>278</ele>
        <time>2024-05-20T09:22:24.000Z</time>
      </trkpt>
      <trkpt lat="46.36447" lon="4.69307">
        <ele>278</ele>
        <time>2024-05-20T09:22:25.000Z</time>
      </trkpt>
      <trkpt lat="46.36444" lon="4.69307">
        <ele>278</ele>
        <time>2024-05-20T09:22:26.000Z</time>
      </trkpt>
      <trkpt lat="46.36441" lon="4.69308">
        <ele>278</ele>
        <time>2024-05-20T09:22:27.000Z</time>
      </trkpt>
      <trkpt lat="46.36438" lon="4.69307">
        <ele>277.79998779297</ele>
        <time>2024-05-20T09:22:28.000Z</time>
      </trkpt>
      <trkpt lat="46.36436" lon="4.69304">
        <ele>277.79998779297</ele>
        <time>2024-05-20T09:22:29.000Z</time>
      </trkpt>
      <trkpt lat="46.36435" lon="4.69302">
        <ele>277.60000610352</ele>
        <time>2024-05-20T09:22:30.000Z</time>
      </trkpt>
      <trkpt lat="46.36433" lon="4.693">
        <ele>277.39999389648</ele>
        <time>2024-05-20T09:22:31.000Z</time>
      </trkpt>
      <trkpt lat="46.36432" lon="4.69298">
        <ele>277.20001220703</ele>
        <time>2024-05-20T09:22:32.000Z</time>
      </trkpt>
      <trkpt lat="46.3643" lon="4.69296">
        <ele>277</ele>
        <time>2024-05-20T09:22:33.000Z</time>
      </trkpt>
      <trkpt lat="46.36427" lon="4.69295">
        <ele>276.79998779297</ele>
        <time>2024-05-20T09:22:34.000Z</time>
      </trkpt>
      <trkpt lat="46.36425" lon="4.69296">
        <ele>276.79998779297</ele>
        <time>2024-05-20T09:22:35.000Z</time>
      </trkpt>
      <trkpt lat="46.36422" lon="4.69298">
        <ele>276.79998779297</ele>
        <time>2024-05-20T09:22:36.000Z</time>
      </trkpt>
      <trkpt lat="46.3642" lon="4.69299">
        <ele>276.79998779297</ele>
        <time>2024-05-20T09:22:37.000Z</time>
      </trkpt>
      <trkpt lat="46.36417" lon="4.69301">
        <ele>276.79998779297</ele>
        <time>2024-05-20T09:22:38.000Z</time>
      </trkpt>
      <trkpt lat="46.36414" lon="4.69302">
        <ele>277</ele>
        <time>2024-05-20T09:22:39.000Z</time>
      </trkpt>
      <trkpt lat="46.36411" lon="4.69303">
        <ele>277.20001220703</ele>
        <time>2024-05-20T09:22:40.000Z</time>
      </trkpt>
      <trkpt lat="46.36408" lon="4.69303">
        <ele>277.39999389648</ele>
        <time>2024-05-20T09:22:41.000Z</time>
      </trkpt>
      <trkpt lat="46.36405" lon="4.69303">
        <ele>277.60000610352</ele>
        <time>2024-05-20T09:22:42.000Z</time>
      </trkpt>
      <trkpt lat="46.36401" lon="4.69303">
        <ele>278</ele>
        <time>2024-05-20T09:22:43.000Z</time>
      </trkpt>
      <trkpt lat="46.36398" lon="4.69303">
        <ele>278.20001220703</ele>
        <time>2024-05-20T09:22:44.000Z</time>
      </trkpt>
      <trkpt lat="46.36395" lon="4.69303">
        <ele>278.39999389648</ele>
        <time>2024-05-20T09:22:45.000Z</time>
      </trkpt>
      <trkpt lat="46.36391" lon="4.69303">
        <ele>278.60000610352</ele>
        <time>2024-05-20T09:22:46.000Z</time>
      </trkpt>
      <trkpt lat="46.36388" lon="4.69303">
        <ele>278.79998779297</ele>
        <time>2024-05-20T09:22:47.000Z</time>
      </trkpt>
      <trkpt lat="46.36385" lon="4.69303">
        <ele>279.20001220703</ele>
        <time>2024-05-20T09:22:48.000Z</time>
      </trkpt>
      <trkpt lat="46.36382" lon="4.69304">
        <ele>279.39999389648</ele>
        <time>2024-05-20T09:22:49.000Z</time>
      </trkpt>
      <trkpt lat="46.36379" lon="4.69305">
        <ele>279.79998779297</ele>
        <time>2024-05-20T09:22:50.000Z</time>
      </trkpt>
      <trkpt lat="46.36376" lon="4.69305">
        <ele>279.79998779297</ele>
        <time>2024-05-20T09:22:51.000Z</time>
      </trkpt>
      <trkpt lat="46.36373" lon="4.69305">
        <ele>280.20001220703</ele>
        <time>2024-05-20T09:22:52.000Z</time>
      </trkpt>
      <trkpt lat="46.3637" lon="4.69305">
        <ele>280.60000610352</ele>
        <time>2024-05-20T09:22:53.000Z</time>
      </trkpt>
      <trkpt lat="46.36368" lon="4.69305">
        <ele>280.79998779297</ele>
        <time>2024-05-20T09:22:54.000Z</time>
      </trkpt>
      <trkpt lat="46.36365" lon="4.69305">
        <ele>281</ele>
        <time>2024-05-20T09:22:55.000Z</time>
      </trkpt>
      <trkpt lat="46.36362" lon="4.69306">
        <ele>281.20001220703</ele>
        <time>2024-05-20T09:22:56.000Z</time>
      </trkpt>
      <trkpt lat="46.36359" lon="4.69306">
        <ele>281.39999389648</ele>
        <time>2024-05-20T09:22:57.000Z</time>
      </trkpt>
      <trkpt lat="46.36356" lon="4.69307">
        <ele>281.60000610352</ele>
        <time>2024-05-20T09:22:58.000Z</time>
      </trkpt>
      <trkpt lat="46.36353" lon="4.69307">
        <ele>281.79998779297</ele>
        <time>2024-05-20T09:22:59.000Z</time>
      </trkpt>
      <trkpt lat="46.3635" lon="4.69308">
        <ele>281.79998779297</ele>
        <time>2024-05-20T09:23:00.000Z</time>
      </trkpt>
      <trkpt lat="46.36347" lon="4.69308">
        <ele>282</ele>
        <time>2024-05-20T09:23:01.000Z</time>
      </trkpt>
      <trkpt lat="46.36343" lon="4.69308">
        <ele>282</ele>
        <time>2024-05-20T09:23:02.000Z</time>
      </trkpt>
      <trkpt lat="46.3634" lon="4.69308">
        <ele>282.20001220703</ele>
        <time>2024-05-20T09:23:03.000Z</time>
      </trkpt>
      <trkpt lat="46.36337" lon="4.69308">
        <ele>282.20001220703</ele>
        <time>2024-05-20T09:23:04.000Z</time>
      </trkpt>
      <trkpt lat="46.36333" lon="4.69309">
        <ele>282.20001220703</ele>
        <time>2024-05-20T09:23:05.000Z</time>
      </trkpt>
      <trkpt lat="46.36329" lon="4.69309">
        <ele>282.20001220703</ele>
        <time>2024-05-20T09:23:06.000Z</time>
      </trkpt>
      <trkpt lat="46.36325" lon="4.6931">
        <ele>282.20001220703</ele>
        <time>2024-05-20T09:23:07.000Z</time>
      </trkpt>
      <trkpt lat="46.36321" lon="4.69311">
        <ele>282.20001220703</ele>
        <time>2024-05-20T09:23:08.000Z</time>
      </trkpt>
      <trkpt lat="46.36316" lon="4.69312">
        <ele>282</ele>
        <time>2024-05-20T09:23:09.000Z</time>
      </trkpt>
      <trkpt lat="46.36311" lon="4.69313">
        <ele>281.79998779297</ele>
        <time>2024-05-20T09:23:10.000Z</time>
      </trkpt>
      <trkpt lat="46.36306" lon="4.69314">
        <ele>281.79998779297</ele>
        <time>2024-05-20T09:23:11.000Z</time>
      </trkpt>
      <trkpt lat="46.363" lon="4.69315">
        <ele>281.39999389648</ele>
        <time>2024-05-20T09:23:12.000Z</time>
      </trkpt>
      <trkpt lat="46.36294" lon="4.69316">
        <ele>281</ele>
        <time>2024-05-20T09:23:13.000Z</time>
      </trkpt>
      <trkpt lat="46.36288" lon="4.69317">
        <ele>280.39999389648</ele>
        <time>2024-05-20T09:23:14.000Z</time>
      </trkpt>
      <trkpt lat="46.36283" lon="4.69318">
        <ele>280</ele>
        <time>2024-05-20T09:23:15.000Z</time>
      </trkpt>
      <trkpt lat="46.36277" lon="4.69319">
        <ele>279.79998779297</ele>
        <time>2024-05-20T09:23:16.000Z</time>
      </trkpt>
      <trkpt lat="46.36271" lon="4.6932">
        <ele>279.60000610352</ele>
        <time>2024-05-20T09:23:17.000Z</time>
      </trkpt>
      <trkpt lat="46.36265" lon="4.69321">
        <ele>279.39999389648</ele>
        <time>2024-05-20T09:23:18.000Z</time>
      </trkpt>
      <trkpt lat="46.3626" lon="4.69322">
        <ele>279.20001220703</ele>
        <time>2024-05-20T09:23:19.000Z</time>
      </trkpt>
      <trkpt lat="46.36254" lon="4.69323">
        <ele>279</ele>
        <time>2024-05-20T09:23:20.000Z</time>
      </trkpt>
      <trkpt lat="46.36248" lon="4.69324">
        <ele>279</ele>
        <time>2024-05-20T09:23:21.000Z</time>
      </trkpt>
      <trkpt lat="46.36242" lon="4.69325">
        <ele>279</ele>
        <time>2024-05-20T09:23:22.000Z</time>
      </trkpt>
      <trkpt lat="46.36237" lon="4.69326">
        <ele>279</ele>
        <time>2024-05-20T09:23:23.000Z</time>
      </trkpt>
      <trkpt lat="46.36231" lon="4.69327">
        <ele>279</ele>
        <time>2024-05-20T09:23:24.000Z</time>
      </trkpt>
      <trkpt lat="46.36225" lon="4.69328">
        <ele>279</ele>
        <time>2024-05-20T09:23:25.000Z</time>
      </trkpt>
      <trkpt lat="46.3622" lon="4.6933">
        <ele>278.79998779297</ele>
        <time>2024-05-20T09:23:26.000Z</time>
      </trkpt>
      <trkpt lat="46.36214" lon="4.69331">
        <ele>278.79998779297</ele>
        <time>2024-05-20T09:23:27.000Z</time>
      </trkpt>
      <trkpt lat="46.36209" lon="4.69332">
        <ele>278.79998779297</ele>
        <time>2024-05-20T09:23:28.000Z</time>
      </trkpt>
      <trkpt lat="46.36203" lon="4.69333">
        <ele>278.79998779297</ele>
        <time>2024-05-20T09:23:29.000Z</time>
      </trkpt>
      <trkpt lat="46.36197" lon="4.69335">
        <ele>278.79998779297</ele>
        <time>2024-05-20T09:23:30.000Z</time>
      </trkpt>
      <trkpt lat="46.36191" lon="4.69336">
        <ele>278.60000610352</ele>
        <time>2024-05-20T09:23:31.000Z</time>
      </trkpt>
      <trkpt lat="46.36186" lon="4.69338">
        <ele>278.60000610352</ele>
        <time>2024-05-20T09:23:32.000Z</time>
      </trkpt>
      <trkpt lat="46.3618" lon="4.69339">
        <ele>278.39999389648</ele>
        <time>2024-05-20T09:23:33.000Z</time>
      </trkpt>
      <trkpt lat="46.36174" lon="4.69341">
        <ele>278</ele>
        <time>2024-05-20T09:23:34.000Z</time>
      </trkpt>
      <trkpt lat="46.36167" lon="4.69342">
        <ele>277.79998779297</ele>
        <time>2024-05-20T09:23:35.000Z</time>
      </trkpt>
      <trkpt lat="46.36161" lon="4.69344">
        <ele>277.39999389648</ele>
        <time>2024-05-20T09:23:36.000Z</time>
      </trkpt>
      <trkpt lat="46.36154" lon="4.69344">
        <ele>277</ele>
        <time>2024-05-20T09:23:37.000Z</time>
      </trkpt>
      <trkpt lat="46.36148" lon="4.69345">
        <ele>277</ele>
        <time>2024-05-20T09:23:38.000Z</time>
      </trkpt>
      <trkpt lat="46.36142" lon="4.69346">
        <ele>276.39999389648</ele>
        <time>2024-05-20T09:23:39.000Z</time>
      </trkpt>
      <trkpt lat="46.36137" lon="4.69349">
        <ele>276.20001220703</ele>
        <time>2024-05-20T09:23:40.000Z</time>
      </trkpt>
      <trkpt lat="46.36132" lon="4.69353">
        <ele>275.79998779297</ele>
        <time>2024-05-20T09:23:41.000Z</time>
      </trkpt>
      <trkpt lat="46.36127" lon="4.69356">
        <ele>275.39999389648</ele>
        <time>2024-05-20T09:23:42.000Z</time>
      </trkpt>
      <trkpt lat="46.36121" lon="4.69358">
        <ele>275</ele>
        <time>2024-05-20T09:23:43.000Z</time>
      </trkpt>
      <trkpt lat="46.36116" lon="4.69359">
        <ele>274.60000610352</ele>
        <time>2024-05-20T09:23:44.000Z</time>
      </trkpt>
      <trkpt lat="46.3611" lon="4.6936">
        <ele>274.39999389648</ele>
        <time>2024-05-20T09:23:45.000Z</time>
      </trkpt>
      <trkpt lat="46.36105" lon="4.69361">
        <ele>274.39999389648</ele>
        <time>2024-05-20T09:23:46.000Z</time>
      </trkpt>
      <trkpt lat="46.36101" lon="4.69362">
        <ele>274.20001220703</ele>
        <time>2024-05-20T09:23:47.000Z</time>
      </trkpt>
      <trkpt lat="46.36096" lon="4.69363">
        <ele>273.79998779297</ele>
        <time>2024-05-20T09:23:48.000Z</time>
      </trkpt>
      <trkpt lat="46.36093" lon="4.69363">
        <ele>273.79998779297</ele>
        <time>2024-05-20T09:23:49.000Z</time>
      </trkpt>
      <trkpt lat="46.3609" lon="4.69364">
        <ele>273.79998779297</ele>
        <time>2024-05-20T09:23:50.000Z</time>
      </trkpt>
      <trkpt lat="46.36087" lon="4.69365">
        <ele>273.79998779297</ele>
        <time>2024-05-20T09:23:51.000Z</time>
      </trkpt>
      <trkpt lat="46.36084" lon="4.69367">
        <ele>273.79998779297</ele>
        <time>2024-05-20T09:23:52.000Z</time>
      </trkpt>
      <trkpt lat="46.36082" lon="4.69368">
        <ele>273.60000610352</ele>
        <time>2024-05-20T09:23:53.000Z</time>
      </trkpt>
      <trkpt lat="46.36079" lon="4.69369">
        <ele>273.39999389648</ele>
        <time>2024-05-20T09:23:54.000Z</time>
      </trkpt>
      <trkpt lat="46.36076" lon="4.69373">
        <ele>273.20001220703</ele>
        <time>2024-05-20T09:23:55.000Z</time>
      </trkpt>
      <trkpt lat="46.36074" lon="4.69379">
        <ele>272.79998779297</ele>
        <time>2024-05-20T09:23:56.000Z</time>
      </trkpt>
      <trkpt lat="46.36074" lon="4.69385">
        <ele>272.39999389648</ele>
        <time>2024-05-20T09:23:57.000Z</time>
      </trkpt>
      <trkpt lat="46.36074" lon="4.69392">
        <ele>272.20001220703</ele>
        <time>2024-05-20T09:23:58.000Z</time>
      </trkpt>
      <trkpt lat="46.36074" lon="4.694">
        <ele>271.60000610352</ele>
        <time>2024-05-20T09:23:59.000Z</time>
      </trkpt>
      <trkpt lat="46.36074" lon="4.69408">
        <ele>271</ele>
        <time>2024-05-20T09:24:00.000Z</time>
      </trkpt>
      <trkpt lat="46.36073" lon="4.69416">
        <ele>270.60000610352</ele>
        <time>2024-05-20T09:24:01.000Z</time>
      </trkpt>
      <trkpt lat="46.3607" lon="4.69422">
        <ele>269.79998779297</ele>
        <time>2024-05-20T09:24:02.000Z</time>
      </trkpt>
      <trkpt lat="46.36066" lon="4.69427">
        <ele>269.39999389648</ele>
        <time>2024-05-20T09:24:03.000Z</time>
      </trkpt>
      <trkpt lat="46.36062" lon="4.69431">
        <ele>268.79998779297</ele>
        <time>2024-05-20T09:24:04.000Z</time>
      </trkpt>
      <trkpt lat="46.36059" lon="4.69434">
        <ele>268.60000610352</ele>
        <time>2024-05-20T09:24:05.000Z</time>
      </trkpt>
      <trkpt lat="46.36056" lon="4.69436">
        <ele>268.60000610352</ele>
        <time>2024-05-20T09:24:06.000Z</time>
      </trkpt>
      <trkpt lat="46.36053" lon="4.69439">
        <ele>268.60000610352</ele>
        <time>2024-05-20T09:24:07.000Z</time>
      </trkpt>
      <trkpt lat="46.36049" lon="4.6944">
        <ele>268.60000610352</ele>
        <time>2024-05-20T09:24:08.000Z</time>
      </trkpt>
      <trkpt lat="46.36045" lon="4.69441">
        <ele>268.60000610352</ele>
        <time>2024-05-20T09:24:09.000Z</time>
      </trkpt>
      <trkpt lat="46.3604" lon="4.69441">
        <ele>268.60000610352</ele>
        <time>2024-05-20T09:24:10.000Z</time>
      </trkpt>
      <trkpt lat="46.36035" lon="4.69441">
        <ele>268.60000610352</ele>
        <time>2024-05-20T09:24:11.000Z</time>
      </trkpt>
      <trkpt lat="46.36029" lon="4.69441">
        <ele>268.39999389648</ele>
        <time>2024-05-20T09:24:12.000Z</time>
      </trkpt>
      <trkpt lat="46.36023" lon="4.69442">
        <ele>268</ele>
        <time>2024-05-20T09:24:13.000Z</time>
      </trkpt>
      <trkpt lat="46.36017" lon="4.69446">
        <ele>267.39999389648</ele>
        <time>2024-05-20T09:24:14.000Z</time>
      </trkpt>
      <trkpt lat="46.3601" lon="4.69451">
        <ele>266.60000610352</ele>
        <time>2024-05-20T09:24:15.000Z</time>
      </trkpt>
      <trkpt lat="46.36004" lon="4.69456">
        <ele>265.60000610352</ele>
        <time>2024-05-20T09:24:16.000Z</time>
      </trkpt>
      <trkpt lat="46.35998" lon="4.69462">
        <ele>264.60000610352</ele>
        <time>2024-05-20T09:24:17.000Z</time>
      </trkpt>
      <trkpt lat="46.35991" lon="4.69469">
        <ele>263.60000610352</ele>
        <time>2024-05-20T09:24:18.000Z</time>
      </trkpt>
      <trkpt lat="46.35986" lon="4.69475">
        <ele>262.79998779297</ele>
        <time>2024-05-20T09:24:19.000Z</time>
      </trkpt>
      <trkpt lat="46.35981" lon="4.69482">
        <ele>262</ele>
        <time>2024-05-20T09:24:20.000Z</time>
      </trkpt>
      <trkpt lat="46.35976" lon="4.69488">
        <ele>261.39999389648</ele>
        <time>2024-05-20T09:24:21.000Z</time>
      </trkpt>
      <trkpt lat="46.35973" lon="4.69494">
        <ele>260.60000610352</ele>
        <time>2024-05-20T09:24:22.000Z</time>
      </trkpt>
      <trkpt lat="46.35971" lon="4.695">
        <ele>260.60000610352</ele>
        <time>2024-05-20T09:24:23.000Z</time>
      </trkpt>
      <trkpt lat="46.35972" lon="4.69507">
        <ele>260.39999389648</ele>
        <time>2024-05-20T09:24:24.000Z</time>
      </trkpt>
      <trkpt lat="46.35973" lon="4.69515">
        <ele>260.39999389648</ele>
        <time>2024-05-20T09:24:25.000Z</time>
      </trkpt>
      <trkpt lat="46.35974" lon="4.69523">
        <ele>260.39999389648</ele>
        <time>2024-05-20T09:24:26.000Z</time>
      </trkpt>
      <trkpt lat="46.35973" lon="4.69531">
        <ele>260.20001220703</ele>
        <time>2024-05-20T09:24:27.000Z</time>
      </trkpt>
      <trkpt lat="46.3597" lon="4.69539">
        <ele>259.79998779297</ele>
        <time>2024-05-20T09:24:28.000Z</time>
      </trkpt>
      <trkpt lat="46.35966" lon="4.69545">
        <ele>259.20001220703</ele>
        <time>2024-05-20T09:24:29.000Z</time>
      </trkpt>
      <trkpt lat="46.35963" lon="4.69552">
        <ele>259</ele>
        <time>2024-05-20T09:24:30.000Z</time>
      </trkpt>
      <trkpt lat="46.3596" lon="4.69559">
        <ele>259</ele>
        <time>2024-05-20T09:24:31.000Z</time>
      </trkpt>
      <trkpt lat="46.35957" lon="4.69566">
        <ele>258.79998779297</ele>
        <time>2024-05-20T09:24:32.000Z</time>
      </trkpt>
      <trkpt lat="46.35954" lon="4.69573">
        <ele>258.79998779297</ele>
        <time>2024-05-20T09:24:33.000Z</time>
      </trkpt>
      <trkpt lat="46.35951" lon="4.69581">
        <ele>258.79998779297</ele>
        <time>2024-05-20T09:24:34.000Z</time>
      </trkpt>
      <trkpt lat="46.35948" lon="4.69589">
        <ele>258.60000610352</ele>
        <time>2024-05-20T09:24:35.000Z</time>
      </trkpt>
      <trkpt lat="46.35946" lon="4.69596">
        <ele>258.60000610352</ele>
        <time>2024-05-20T09:24:36.000Z</time>
      </trkpt>
      <trkpt lat="46.35943" lon="4.69602">
        <ele>258.79998779297</ele>
        <time>2024-05-20T09:24:37.000Z</time>
      </trkpt>
      <trkpt lat="46.35941" lon="4.69609">
        <ele>258.79998779297</ele>
        <time>2024-05-20T09:24:38.000Z</time>
      </trkpt>
      <trkpt lat="46.35939" lon="4.69616">
        <ele>258.79998779297</ele>
        <time>2024-05-20T09:24:39.000Z</time>
      </trkpt>
      <trkpt lat="46.35936" lon="4.69623">
        <ele>259</ele>
        <time>2024-05-20T09:24:40.000Z</time>
      </trkpt>
      <trkpt lat="46.35934" lon="4.6963">
        <ele>259</ele>
        <time>2024-05-20T09:24:41.000Z</time>
      </trkpt>
      <trkpt lat="46.35932" lon="4.69638">
        <ele>259</ele>
        <time>2024-05-20T09:24:42.000Z</time>
      </trkpt>
      <trkpt lat="46.35929" lon="4.69645">
        <ele>259</ele>
        <time>2024-05-20T09:24:43.000Z</time>
      </trkpt>
      <trkpt lat="46.35927" lon="4.69651">
        <ele>259</ele>
        <time>2024-05-20T09:24:44.000Z</time>
      </trkpt>
      <trkpt lat="46.35925" lon="4.69657">
        <ele>259.20001220703</ele>
        <time>2024-05-20T09:24:45.000Z</time>
      </trkpt>
      <trkpt lat="46.35923" lon="4.69663">
        <ele>259.20001220703</ele>
        <time>2024-05-20T09:24:46.000Z</time>
      </trkpt>
      <trkpt lat="46.35921" lon="4.69668">
        <ele>259.39999389648</ele>
        <time>2024-05-20T09:24:47.000Z</time>
      </trkpt>
      <trkpt lat="46.35918" lon="4.69673">
        <ele>259.60000610352</ele>
        <time>2024-05-20T09:24:48.000Z</time>
      </trkpt>
      <trkpt lat="46.35915" lon="4.69678">
        <ele>259.79998779297</ele>
        <time>2024-05-20T09:24:49.000Z</time>
      </trkpt>
      <trkpt lat="46.35911" lon="4.69683">
        <ele>260.20001220703</ele>
        <time>2024-05-20T09:24:50.000Z</time>
      </trkpt>
      <trkpt lat="46.35907" lon="4.69688">
        <ele>260.60000610352</ele>
        <time>2024-05-20T09:24:51.000Z</time>
      </trkpt>
      <trkpt lat="46.35903" lon="4.69693">
        <ele>260.79998779297</ele>
        <time>2024-05-20T09:24:52.000Z</time>
      </trkpt>
      <trkpt lat="46.35899" lon="4.69697">
        <ele>261</ele>
        <time>2024-05-20T09:24:53.000Z</time>
      </trkpt>
      <trkpt lat="46.35895" lon="4.69703">
        <ele>261</ele>
        <time>2024-05-20T09:24:54.000Z</time>
      </trkpt>
      <trkpt lat="46.35891" lon="4.69709">
        <ele>261</ele>
        <time>2024-05-20T09:24:55.000Z</time>
      </trkpt>
      <trkpt lat="46.35888" lon="4.69715">
        <ele>261</ele>
        <time>2024-05-20T09:24:56.000Z</time>
      </trkpt>
      <trkpt lat="46.35884" lon="4.6972">
        <ele>261</ele>
        <time>2024-05-20T09:24:57.000Z</time>
      </trkpt>
      <trkpt lat="46.35879" lon="4.69726">
        <ele>261</ele>
        <time>2024-05-20T09:24:58.000Z</time>
      </trkpt>
      <trkpt lat="46.35875" lon="4.69732">
        <ele>261</ele>
        <time>2024-05-20T09:24:59.000Z</time>
      </trkpt>
      <trkpt lat="46.35871" lon="4.69739">
        <ele>260.79998779297</ele>
        <time>2024-05-20T09:25:00.000Z</time>
      </trkpt>
      <trkpt lat="46.35868" lon="4.69745">
        <ele>260.79998779297</ele>
        <time>2024-05-20T09:25:01.000Z</time>
      </trkpt>
      <trkpt lat="46.35864" lon="4.69751">
        <ele>260.79998779297</ele>
        <time>2024-05-20T09:25:02.000Z</time>
      </trkpt>
      <trkpt lat="46.3586" lon="4.69756">
        <ele>260.60000610352</ele>
        <time>2024-05-20T09:25:03.000Z</time>
      </trkpt>
      <trkpt lat="46.35856" lon="4.69762">
        <ele>260.60000610352</ele>
        <time>2024-05-20T09:25:04.000Z</time>
      </trkpt>
      <trkpt lat="46.35852" lon="4.69769">
        <ele>260.39999389648</ele>
        <time>2024-05-20T09:25:05.000Z</time>
      </trkpt>
      <trkpt lat="46.35848" lon="4.69775">
        <ele>260.20001220703</ele>
        <time>2024-05-20T09:25:06.000Z</time>
      </trkpt>
      <trkpt lat="46.35844" lon="4.69781">
        <ele>260.20001220703</ele>
        <time>2024-05-20T09:25:07.000Z</time>
      </trkpt>
      <trkpt lat="46.3584" lon="4.69787">
        <ele>260</ele>
        <time>2024-05-20T09:25:08.000Z</time>
      </trkpt>
      <trkpt lat="46.35837" lon="4.69794">
        <ele>260</ele>
        <time>2024-05-20T09:25:09.000Z</time>
      </trkpt>
      <trkpt lat="46.35833" lon="4.69801">
        <ele>259.79998779297</ele>
        <time>2024-05-20T09:25:10.000Z</time>
      </trkpt>
      <trkpt lat="46.35829" lon="4.69808">
        <ele>259.79998779297</ele>
        <time>2024-05-20T09:25:11.000Z</time>
      </trkpt>
      <trkpt lat="46.35826" lon="4.69815">
        <ele>259.60000610352</ele>
        <time>2024-05-20T09:25:12.000Z</time>
      </trkpt>
      <trkpt lat="46.35823" lon="4.69822">
        <ele>259.60000610352</ele>
        <time>2024-05-20T09:25:13.000Z</time>
      </trkpt>
      <trkpt lat="46.35821" lon="4.6983">
        <ele>259.60000610352</ele>
        <time>2024-05-20T09:25:14.000Z</time>
      </trkpt>
      <trkpt lat="46.35818" lon="4.69838">
        <ele>259.60000610352</ele>
        <time>2024-05-20T09:25:15.000Z</time>
      </trkpt>
      <trkpt lat="46.35816" lon="4.69846">
        <ele>259.60000610352</ele>
        <time>2024-05-20T09:25:16.000Z</time>
      </trkpt>
      <trkpt lat="46.35813" lon="4.69854">
        <ele>259.60000610352</ele>
        <time>2024-05-20T09:25:17.000Z</time>
      </trkpt>
      <trkpt lat="46.35811" lon="4.69863">
        <ele>259.20001220703</ele>
        <time>2024-05-20T09:25:18.000Z</time>
      </trkpt>
      <trkpt lat="46.35808" lon="4.69872">
        <ele>259</ele>
        <time>2024-05-20T09:25:19.000Z</time>
      </trkpt>
      <trkpt lat="46.35806" lon="4.6988">
        <ele>258.79998779297</ele>
        <time>2024-05-20T09:25:20.000Z</time>
      </trkpt>
      <trkpt lat="46.35803" lon="4.69889">
        <ele>258.60000610352</ele>
        <time>2024-05-20T09:25:21.000Z</time>
      </trkpt>
      <trkpt lat="46.35801" lon="4.69896">
        <ele>258.60000610352</ele>
        <time>2024-05-20T09:25:22.000Z</time>
      </trkpt>
      <trkpt lat="46.35799" lon="4.69902">
        <ele>258.60000610352</ele>
        <time>2024-05-20T09:25:23.000Z</time>
      </trkpt>
      <trkpt lat="46.35796" lon="4.69906">
        <ele>258.60000610352</ele>
        <time>2024-05-20T09:25:24.000Z</time>
      </trkpt>
      <trkpt lat="46.35793" lon="4.69907">
        <ele>258.60000610352</ele>
        <time>2024-05-20T09:25:25.000Z</time>
      </trkpt>
      <trkpt lat="46.35789" lon="4.69905">
        <ele>258.60000610352</ele>
        <time>2024-05-20T09:25:26.000Z</time>
      </trkpt>
      <trkpt lat="46.35784" lon="4.69902">
        <ele>258.60000610352</ele>
        <time>2024-05-20T09:25:27.000Z</time>
      </trkpt>
      <trkpt lat="46.35779" lon="4.69898">
        <ele>258.60000610352</ele>
        <time>2024-05-20T09:25:28.000Z</time>
      </trkpt>
      <trkpt lat="46.35774" lon="4.69894">
        <ele>258.20001220703</ele>
        <time>2024-05-20T09:25:29.000Z</time>
      </trkpt>
      <trkpt lat="46.35768" lon="4.6989">
        <ele>258</ele>
        <time>2024-05-20T09:25:30.000Z</time>
      </trkpt>
      <trkpt lat="46.35763" lon="4.69886">
        <ele>257.60000610352</ele>
        <time>2024-05-20T09:25:31.000Z</time>
      </trkpt>
      <trkpt lat="46.35757" lon="4.69882">
        <ele>257.20001220703</ele>
        <time>2024-05-20T09:25:32.000Z</time>
      </trkpt>
      <trkpt lat="46.35751" lon="4.69877">
        <ele>256.39999389648</ele>
        <time>2024-05-20T09:25:33.000Z</time>
      </trkpt>
      <trkpt lat="46.35744" lon="4.69873">
        <ele>255.80000305176</ele>
        <time>2024-05-20T09:25:34.000Z</time>
      </trkpt>
      <trkpt lat="46.35738" lon="4.69869">
        <ele>255.39999389648</ele>
        <time>2024-05-20T09:25:35.000Z</time>
      </trkpt>
      <trkpt lat="46.35732" lon="4.69864">
        <ele>255</ele>
        <time>2024-05-20T09:25:36.000Z</time>
      </trkpt>
      <trkpt lat="46.35726" lon="4.6986">
        <ele>254.80000305176</ele>
        <time>2024-05-20T09:25:37.000Z</time>
      </trkpt>
      <trkpt lat="46.3572" lon="4.69856">
        <ele>254.39999389648</ele>
        <time>2024-05-20T09:25:38.000Z</time>
      </trkpt>
      <trkpt lat="46.35715" lon="4.69851">
        <ele>254</ele>
        <time>2024-05-20T09:25:39.000Z</time>
      </trkpt>
      <trkpt lat="46.3571" lon="4.69848">
        <ele>253.80000305176</ele>
        <time>2024-05-20T09:25:40.000Z</time>
      </trkpt>
      <trkpt lat="46.35706" lon="4.69846">
        <ele>253.80000305176</ele>
        <time>2024-05-20T09:25:41.000Z</time>
      </trkpt>
      <trkpt lat="46.35702" lon="4.69846">
        <ele>253.80000305176</ele>
        <time>2024-05-20T09:25:42.000Z</time>
      </trkpt>
      <trkpt lat="46.35699" lon="4.69848">
        <ele>253.80000305176</ele>
        <time>2024-05-20T09:25:43.000Z</time>
      </trkpt>
      <trkpt lat="46.35696" lon="4.69853">
        <ele>253.80000305176</ele>
        <time>2024-05-20T09:25:44.000Z</time>
      </trkpt>
      <trkpt lat="46.35692" lon="4.69859">
        <ele>253.80000305176</ele>
        <time>2024-05-20T09:25:45.000Z</time>
      </trkpt>
      <trkpt lat="46.35688" lon="4.69865">
        <ele>253.80000305176</ele>
        <time>2024-05-20T09:25:46.000Z</time>
      </trkpt>
      <trkpt lat="46.35683" lon="4.69872">
        <ele>253.60000610352</ele>
        <time>2024-05-20T09:25:47.000Z</time>
      </trkpt>
      <trkpt lat="46.35679" lon="4.69878">
        <ele>253.60000610352</ele>
        <time>2024-05-20T09:25:48.000Z</time>
      </trkpt>
      <trkpt lat="46.35675" lon="4.69885">
        <ele>253.39999389648</ele>
        <time>2024-05-20T09:25:49.000Z</time>
      </trkpt>
      <trkpt lat="46.3567" lon="4.69892">
        <ele>253</ele>
        <time>2024-05-20T09:25:50.000Z</time>
      </trkpt>
      <trkpt lat="46.35665" lon="4.69899">
        <ele>252.80000305176</ele>
        <time>2024-05-20T09:25:51.000Z</time>
      </trkpt>
      <trkpt lat="46.35661" lon="4.69905">
        <ele>252.60000610352</ele>
        <time>2024-05-20T09:25:52.000Z</time>
      </trkpt>
      <trkpt lat="46.35656" lon="4.69912">
        <ele>252.39999389648</ele>
        <time>2024-05-20T09:25:53.000Z</time>
      </trkpt>
      <trkpt lat="46.35651" lon="4.6992">
        <ele>252.39999389648</ele>
        <time>2024-05-20T09:25:54.000Z</time>
      </trkpt>
      <trkpt lat="46.35646" lon="4.69927">
        <ele>252.39999389648</ele>
        <time>2024-05-20T09:25:55.000Z</time>
      </trkpt>
      <trkpt lat="46.3564" lon="4.69933">
        <ele>252.19999694824</ele>
        <time>2024-05-20T09:25:56.000Z</time>
      </trkpt>
      <trkpt lat="46.35635" lon="4.6994">
        <ele>252.19999694824</ele>
        <time>2024-05-20T09:25:57.000Z</time>
      </trkpt>
      <trkpt lat="46.35631" lon="4.69946">
        <ele>252.19999694824</ele>
        <time>2024-05-20T09:25:58.000Z</time>
      </trkpt>
      <trkpt lat="46.35627" lon="4.69952">
        <ele>252.19999694824</ele>
        <time>2024-05-20T09:25:59.000Z</time>
      </trkpt>
      <trkpt lat="46.35623" lon="4.69957">
        <ele>252.60000610352</ele>
        <time>2024-05-20T09:26:00.000Z</time>
      </trkpt>
      <trkpt lat="46.35619" lon="4.69962">
        <ele>252.80000305176</ele>
        <time>2024-05-20T09:26:01.000Z</time>
      </trkpt>
      <trkpt lat="46.35617" lon="4.69967">
        <ele>253.39999389648</ele>
        <time>2024-05-20T09:26:02.000Z</time>
      </trkpt>
      <trkpt lat="46.35613" lon="4.69972">
        <ele>253.60000610352</ele>
        <time>2024-05-20T09:26:03.000Z</time>
      </trkpt>
      <trkpt lat="46.3561" lon="4.69978">
        <ele>254.19999694824</ele>
        <time>2024-05-20T09:26:04.000Z</time>
      </trkpt>
      <trkpt lat="46.35609" lon="4.69982">
        <ele>254.60000610352</ele>
        <time>2024-05-20T09:26:05.000Z</time>
      </trkpt>
      <trkpt lat="46.35607" lon="4.69985">
        <ele>255</ele>
        <time>2024-05-20T09:26:06.000Z</time>
      </trkpt>
      <trkpt lat="46.35605" lon="4.69989">
        <ele>255.80000305176</ele>
        <time>2024-05-20T09:26:07.000Z</time>
      </trkpt>
      <trkpt lat="46.35604" lon="4.69993">
        <ele>256.39999389648</ele>
        <time>2024-05-20T09:26:08.000Z</time>
      </trkpt>
      <trkpt lat="46.35602" lon="4.69997">
        <ele>256.60000610352</ele>
        <time>2024-05-20T09:26:09.000Z</time>
      </trkpt>
      <trkpt lat="46.356" lon="4.70001">
        <ele>256.60000610352</ele>
        <time>2024-05-20T09:26:10.000Z</time>
      </trkpt>
      <trkpt lat="46.35598" lon="4.70006">
        <ele>256.60000610352</ele>
        <time>2024-05-20T09:26:11.000Z</time>
      </trkpt>
      <trkpt lat="46.35596" lon="4.70011">
        <ele>256.60000610352</ele>
        <time>2024-05-20T09:26:12.000Z</time>
      </trkpt>
      <trkpt lat="46.35593" lon="4.70016">
        <ele>256.60000610352</ele>
        <time>2024-05-20T09:26:13.000Z</time>
      </trkpt>
      <trkpt lat="46.3559" lon="4.70021">
        <ele>256.20001220703</ele>
        <time>2024-05-20T09:26:14.000Z</time>
      </trkpt>
      <trkpt lat="46.35587" lon="4.70026">
        <ele>255.80000305176</ele>
        <time>2024-05-20T09:26:15.000Z</time>
      </trkpt>
      <trkpt lat="46.35584" lon="4.70031">
        <ele>255.80000305176</ele>
        <time>2024-05-20T09:26:16.000Z</time>
      </trkpt>
      <trkpt lat="46.35582" lon="4.70036">
        <ele>255.60000610352</ele>
        <time>2024-05-20T09:26:17.000Z</time>
      </trkpt>
      <trkpt lat="46.3558" lon="4.70042">
        <ele>255.60000610352</ele>
        <time>2024-05-20T09:26:18.000Z</time>
      </trkpt>
      <trkpt lat="46.35577" lon="4.70048">
        <ele>255.39999389648</ele>
        <time>2024-05-20T09:26:19.000Z</time>
      </trkpt>
      <trkpt lat="46.35575" lon="4.70055">
        <ele>255.19999694824</ele>
        <time>2024-05-20T09:26:20.000Z</time>
      </trkpt>
      <trkpt lat="46.35572" lon="4.7006">
        <ele>254.60000610352</ele>
        <time>2024-05-20T09:26:21.000Z</time>
      </trkpt>
      <trkpt lat="46.35568" lon="4.70064">
        <ele>254.39999389648</ele>
        <time>2024-05-20T09:26:22.000Z</time>
      </trkpt>
      <trkpt lat="46.35565" lon="4.70068">
        <ele>254.39999389648</ele>
        <time>2024-05-20T09:26:23.000Z</time>
      </trkpt>
      <trkpt lat="46.35562" lon="4.7007">
        <ele>254.39999389648</ele>
        <time>2024-05-20T09:26:24.000Z</time>
      </trkpt>
      <trkpt lat="46.35558" lon="4.70072">
        <ele>254.39999389648</ele>
        <time>2024-05-20T09:26:25.000Z</time>
      </trkpt>
      <trkpt lat="46.35555" lon="4.70075">
        <ele>254.60000610352</ele>
        <time>2024-05-20T09:26:26.000Z</time>
      </trkpt>
      <trkpt lat="46.35551" lon="4.70078">
        <ele>255</ele>
        <time>2024-05-20T09:26:27.000Z</time>
      </trkpt>
      <trkpt lat="46.35548" lon="4.70082">
        <ele>255</ele>
        <time>2024-05-20T09:26:28.000Z</time>
      </trkpt>
      <trkpt lat="46.35544" lon="4.70086">
        <ele>255</ele>
        <time>2024-05-20T09:26:29.000Z</time>
      </trkpt>
      <trkpt lat="46.3554" lon="4.70091">
        <ele>255</ele>
        <time>2024-05-20T09:26:30.000Z</time>
      </trkpt>
      <trkpt lat="46.35536" lon="4.70095">
        <ele>255</ele>
        <time>2024-05-20T09:26:31.000Z</time>
      </trkpt>
      <trkpt lat="46.35532" lon="4.701">
        <ele>255</ele>
        <time>2024-05-20T09:26:32.000Z</time>
      </trkpt>
      <trkpt lat="46.35528" lon="4.70104">
        <ele>254.80000305176</ele>
        <time>2024-05-20T09:26:33.000Z</time>
      </trkpt>
      <trkpt lat="46.35524" lon="4.70109">
        <ele>254.80000305176</ele>
        <time>2024-05-20T09:26:34.000Z</time>
      </trkpt>
      <trkpt lat="46.3552" lon="4.70113">
        <ele>254.80000305176</ele>
        <time>2024-05-20T09:26:35.000Z</time>
      </trkpt>
      <trkpt lat="46.35517" lon="4.70116">
        <ele>254.80000305176</ele>
        <time>2024-05-20T09:26:36.000Z</time>
      </trkpt>
      <trkpt lat="46.35514" lon="4.70119">
        <ele>255.19999694824</ele>
        <time>2024-05-20T09:26:37.000Z</time>
      </trkpt>
      <trkpt lat="46.35511" lon="4.70123">
        <ele>255.60000610352</ele>
        <time>2024-05-20T09:26:38.000Z</time>
      </trkpt>
      <trkpt lat="46.35508" lon="4.70126">
        <ele>256.20001220703</ele>
        <time>2024-05-20T09:26:39.000Z</time>
      </trkpt>
      <trkpt lat="46.35506" lon="4.7013">
        <ele>256.79998779297</ele>
        <time>2024-05-20T09:26:40.000Z</time>
      </trkpt>
      <trkpt lat="46.35503" lon="4.70134">
        <ele>257.39999389648</ele>
        <time>2024-05-20T09:26:41.000Z</time>
      </trkpt>
      <trkpt lat="46.355" lon="4.70139">
        <ele>257.60000610352</ele>
        <time>2024-05-20T09:26:42.000Z</time>
      </trkpt>
      <trkpt lat="46.35497" lon="4.70143">
        <ele>257.79998779297</ele>
        <time>2024-05-20T09:26:43.000Z</time>
      </trkpt>
      <trkpt lat="46.35495" lon="4.70148">
        <ele>258</ele>
        <time>2024-05-20T09:26:44.000Z</time>
      </trkpt>
      <trkpt lat="46.35492" lon="4.70153">
        <ele>258</ele>
        <time>2024-05-20T09:26:45.000Z</time>
      </trkpt>
      <trkpt lat="46.35488" lon="4.70158">
        <ele>258</ele>
        <time>2024-05-20T09:26:46.000Z</time>
      </trkpt>
      <trkpt lat="46.35485" lon="4.70164">
        <ele>258</ele>
        <time>2024-05-20T09:26:47.000Z</time>
      </trkpt>
      <trkpt lat="46.35481" lon="4.7017">
        <ele>258</ele>
        <time>2024-05-20T09:26:48.000Z</time>
      </trkpt>
      <trkpt lat="46.35477" lon="4.70176">
        <ele>258</ele>
        <time>2024-05-20T09:26:49.000Z</time>
      </trkpt>
      <trkpt lat="46.35473" lon="4.70182">
        <ele>257.79998779297</ele>
        <time>2024-05-20T09:26:50.000Z</time>
      </trkpt>
      <trkpt lat="46.35469" lon="4.70188">
        <ele>257.79998779297</ele>
        <time>2024-05-20T09:26:51.000Z</time>
      </trkpt>
      <trkpt lat="46.35464" lon="4.70194">
        <ele>257.60000610352</ele>
        <time>2024-05-20T09:26:52.000Z</time>
      </trkpt>
      <trkpt lat="46.3546" lon="4.702">
        <ele>257.60000610352</ele>
        <time>2024-05-20T09:26:53.000Z</time>
      </trkpt>
      <trkpt lat="46.35456" lon="4.70205">
        <ele>257.39999389648</ele>
        <time>2024-05-20T09:26:54.000Z</time>
      </trkpt>
      <trkpt lat="46.35452" lon="4.70211">
        <ele>257.20001220703</ele>
        <time>2024-05-20T09:26:55.000Z</time>
      </trkpt>
      <trkpt lat="46.35447" lon="4.70216">
        <ele>257</ele>
        <time>2024-05-20T09:26:56.000Z</time>
      </trkpt>
      <trkpt lat="46.35443" lon="4.70222">
        <ele>256.79998779297</ele>
        <time>2024-05-20T09:26:57.000Z</time>
      </trkpt>
      <trkpt lat="46.35438" lon="4.70227">
        <ele>256.79998779297</ele>
        <time>2024-05-20T09:26:58.000Z</time>
      </trkpt>
      <trkpt lat="46.35433" lon="4.70232">
        <ele>256.79998779297</ele>
        <time>2024-05-20T09:26:59.000Z</time>
      </trkpt>
      <trkpt lat="46.35429" lon="4.70236">
        <ele>256.60000610352</ele>
        <time>2024-05-20T09:27:00.000Z</time>
      </trkpt>
      <trkpt lat="46.35422" lon="4.70243">
        <ele>256.60000610352</ele>
        <time>2024-05-20T09:27:01.000Z</time>
      </trkpt>
      <trkpt lat="46.35417" lon="4.70248">
        <ele>256.39999389648</ele>
        <time>2024-05-20T09:27:02.000Z</time>
      </trkpt>
      <trkpt lat="46.35412" lon="4.70253">
        <ele>256.20001220703</ele>
        <time>2024-05-20T09:27:03.000Z</time>
      </trkpt>
      <trkpt lat="46.35407" lon="4.70259">
        <ele>256</ele>
        <time>2024-05-20T09:27:04.000Z</time>
      </trkpt>
      <trkpt lat="46.35402" lon="4.70265">
        <ele>255.80000305176</ele>
        <time>2024-05-20T09:27:05.000Z</time>
      </trkpt>
      <trkpt lat="46.35398" lon="4.7027">
        <ele>255.60000610352</ele>
        <time>2024-05-20T09:27:06.000Z</time>
      </trkpt>
      <trkpt lat="46.35394" lon="4.70278">
        <ele>255.39999389648</ele>
        <time>2024-05-20T09:27:07.000Z</time>
      </trkpt>
      <trkpt lat="46.35389" lon="4.70287">
        <ele>255</ele>
        <time>2024-05-20T09:27:08.000Z</time>
      </trkpt>
      <trkpt lat="46.35383" lon="4.70297">
        <ele>254.60000610352</ele>
        <time>2024-05-20T09:27:09.000Z</time>
      </trkpt>
      <trkpt lat="46.35378" lon="4.70308">
        <ele>253.60000610352</ele>
        <time>2024-05-20T09:27:10.000Z</time>
      </trkpt>
      <trkpt lat="46.35372" lon="4.70319">
        <ele>252.39999389648</ele>
        <time>2024-05-20T09:27:11.000Z</time>
      </trkpt>
      <trkpt lat="46.35365" lon="4.7033">
        <ele>251.19999694824</ele>
        <time>2024-05-20T09:27:12.000Z</time>
      </trkpt>
      <trkpt lat="46.35359" lon="4.70342">
        <ele>250.19999694824</ele>
        <time>2024-05-20T09:27:13.000Z</time>
      </trkpt>
      <trkpt lat="46.35352" lon="4.70354">
        <ele>249</ele>
        <time>2024-05-20T09:27:14.000Z</time>
      </trkpt>
      <trkpt lat="46.35345" lon="4.70366">
        <ele>248</ele>
        <time>2024-05-20T09:27:15.000Z</time>
      </trkpt>
      <trkpt lat="46.35338" lon="4.70378">
        <ele>246.80000305176</ele>
        <time>2024-05-20T09:27:16.000Z</time>
      </trkpt>
      <trkpt lat="46.3533" lon="4.70389">
        <ele>246.39999389648</ele>
        <time>2024-05-20T09:27:17.000Z</time>
      </trkpt>
      <trkpt lat="46.35323" lon="4.704">
        <ele>245.80000305176</ele>
        <time>2024-05-20T09:27:18.000Z</time>
      </trkpt>
      <trkpt lat="46.35316" lon="4.70411">
        <ele>245.80000305176</ele>
        <time>2024-05-20T09:27:19.000Z</time>
      </trkpt>
      <trkpt lat="46.35309" lon="4.70421">
        <ele>245.19999694824</ele>
        <time>2024-05-20T09:27:20.000Z</time>
      </trkpt>
      <trkpt lat="46.35302" lon="4.70432">
        <ele>245</ele>
        <time>2024-05-20T09:27:21.000Z</time>
      </trkpt>
      <trkpt lat="46.35295" lon="4.70442">
        <ele>244.80000305176</ele>
        <time>2024-05-20T09:27:22.000Z</time>
      </trkpt>
      <trkpt lat="46.35288" lon="4.70452">
        <ele>244.80000305176</ele>
        <time>2024-05-20T09:27:23.000Z</time>
      </trkpt>
      <trkpt lat="46.35281" lon="4.70463">
        <ele>244.80000305176</ele>
        <time>2024-05-20T09:27:24.000Z</time>
      </trkpt>
      <trkpt lat="46.35274" lon="4.70474">
        <ele>244.80000305176</ele>
        <time>2024-05-20T09:27:25.000Z</time>
      </trkpt>
      <trkpt lat="46.35267" lon="4.70484">
        <ele>244.80000305176</ele>
        <time>2024-05-20T09:27:26.000Z</time>
      </trkpt>
      <trkpt lat="46.35262" lon="4.70492">
        <ele>244.80000305176</ele>
        <time>2024-05-20T09:27:27.000Z</time>
      </trkpt>
      <trkpt lat="46.35256" lon="4.70501">
        <ele>244.80000305176</ele>
        <time>2024-05-20T09:27:28.000Z</time>
      </trkpt>
      <trkpt lat="46.3525" lon="4.7051">
        <ele>244.80000305176</ele>
        <time>2024-05-20T09:27:29.000Z</time>
      </trkpt>
      <trkpt lat="46.35244" lon="4.70519">
        <ele>244.80000305176</ele>
        <time>2024-05-20T09:27:30.000Z</time>
      </trkpt>
      <trkpt lat="46.35238" lon="4.70528">
        <ele>244.80000305176</ele>
        <time>2024-05-20T09:27:31.000Z</time>
      </trkpt>
      <trkpt lat="46.35233" lon="4.70537">
        <ele>244.80000305176</ele>
        <time>2024-05-20T09:27:32.000Z</time>
      </trkpt>
      <trkpt lat="46.35227" lon="4.70545">
        <ele>244.80000305176</ele>
        <time>2024-05-20T09:27:33.000Z</time>
      </trkpt>
      <trkpt lat="46.3522" lon="4.70556">
        <ele>244.80000305176</ele>
        <time>2024-05-20T09:27:34.000Z</time>
      </trkpt>
      <trkpt lat="46.35216" lon="4.70563">
        <ele>244.80000305176</ele>
        <time>2024-05-20T09:27:35.000Z</time>
      </trkpt>
      <trkpt lat="46.3521" lon="4.70571">
        <ele>244.80000305176</ele>
        <time>2024-05-20T09:27:36.000Z</time>
      </trkpt>
      <trkpt lat="46.35204" lon="4.7058">
        <ele>244.80000305176</ele>
        <time>2024-05-20T09:27:37.000Z</time>
      </trkpt>
      <trkpt lat="46.35198" lon="4.70589">
        <ele>244.60000610352</ele>
        <time>2024-05-20T09:27:38.000Z</time>
      </trkpt>
      <trkpt lat="46.35192" lon="4.70598">
        <ele>244.60000610352</ele>
        <time>2024-05-20T09:27:39.000Z</time>
      </trkpt>
      <trkpt lat="46.35187" lon="4.70607">
        <ele>244.60000610352</ele>
        <time>2024-05-20T09:27:40.000Z</time>
      </trkpt>
      <trkpt lat="46.35181" lon="4.70615">
        <ele>244.60000610352</ele>
        <time>2024-05-20T09:27:41.000Z</time>
      </trkpt>
      <trkpt lat="46.35176" lon="4.70624">
        <ele>244.39999389648</ele>
        <time>2024-05-20T09:27:42.000Z</time>
      </trkpt>
      <trkpt lat="46.3517" lon="4.70633">
        <ele>244.19999694824</ele>
        <time>2024-05-20T09:27:43.000Z</time>
      </trkpt>
      <trkpt lat="46.35164" lon="4.70642">
        <ele>244</ele>
        <time>2024-05-20T09:27:44.000Z</time>
      </trkpt>
      <trkpt lat="46.35159" lon="4.70651">
        <ele>244</ele>
        <time>2024-05-20T09:27:45.000Z</time>
      </trkpt>
      <trkpt lat="46.35154" lon="4.70659">
        <ele>243.80000305176</ele>
        <time>2024-05-20T09:27:46.000Z</time>
      </trkpt>
      <trkpt lat="46.35148" lon="4.70668">
        <ele>243.60000610352</ele>
        <time>2024-05-20T09:27:47.000Z</time>
      </trkpt>
      <trkpt lat="46.35143" lon="4.70676">
        <ele>243.60000610352</ele>
        <time>2024-05-20T09:27:48.000Z</time>
      </trkpt>
      <trkpt lat="46.35138" lon="4.70684">
        <ele>243.39999389648</ele>
        <time>2024-05-20T09:27:49.000Z</time>
      </trkpt>
      <trkpt lat="46.35133" lon="4.70692">
        <ele>243.39999389648</ele>
        <time>2024-05-20T09:27:50.000Z</time>
      </trkpt>
      <trkpt lat="46.35126" lon="4.70701">
        <ele>243.39999389648</ele>
        <time>2024-05-20T09:27:51.000Z</time>
      </trkpt>
      <trkpt lat="46.35121" lon="4.70709">
        <ele>243.39999389648</ele>
        <time>2024-05-20T09:27:52.000Z</time>
      </trkpt>
      <trkpt lat="46.35116" lon="4.70715">
        <ele>243.39999389648</ele>
        <time>2024-05-20T09:27:53.000Z</time>
      </trkpt>
      <trkpt lat="46.35112" lon="4.70721">
        <ele>243.39999389648</ele>
        <time>2024-05-20T09:27:54.000Z</time>
      </trkpt>
      <trkpt lat="46.35108" lon="4.70728">
        <ele>243.39999389648</ele>
        <time>2024-05-20T09:27:55.000Z</time>
      </trkpt>
      <trkpt lat="46.35104" lon="4.70733">
        <ele>243.39999389648</ele>
        <time>2024-05-20T09:27:56.000Z</time>
      </trkpt>
      <trkpt lat="46.35102" lon="4.70736">
        <ele>243.39999389648</ele>
        <time>2024-05-20T09:27:57.000Z</time>
      </trkpt>
      <trkpt lat="46.35099" lon="4.70739">
        <ele>243.60000610352</ele>
        <time>2024-05-20T09:27:58.000Z</time>
      </trkpt>
      <trkpt lat="46.35097" lon="4.70741">
        <ele>243.80000305176</ele>
        <time>2024-05-20T09:27:59.000Z</time>
      </trkpt>
      <trkpt lat="46.35096" lon="4.70743">
        <ele>243.80000305176</ele>
        <time>2024-05-20T09:28:00.000Z</time>
      </trkpt>
      <trkpt lat="46.35095" lon="4.70745">
        <ele>244.19999694824</ele>
        <time>2024-05-20T09:28:01.000Z</time>
      </trkpt>
      <trkpt lat="46.35094" lon="4.70747">
        <ele>244.19999694824</ele>
        <time>2024-05-20T09:28:02.000Z</time>
      </trkpt>
      <trkpt lat="46.35094" lon="4.7075">
        <ele>244.19999694824</ele>
        <time>2024-05-20T09:28:03.000Z</time>
      </trkpt>
      <trkpt lat="46.35093" lon="4.70753">
        <ele>244.19999694824</ele>
        <time>2024-05-20T09:28:04.000Z</time>
      </trkpt>
      <trkpt lat="46.35092" lon="4.70757">
        <ele>244.19999694824</ele>
        <time>2024-05-20T09:28:05.000Z</time>
      </trkpt>
      <trkpt lat="46.35093" lon="4.70761">
        <ele>244.19999694824</ele>
        <time>2024-05-20T09:28:06.000Z</time>
      </trkpt>
      <trkpt lat="46.35095" lon="4.70765">
        <ele>244.19999694824</ele>
        <time>2024-05-20T09:28:07.000Z</time>
      </trkpt>
      <trkpt lat="46.35097" lon="4.70769">
        <ele>244</ele>
        <time>2024-05-20T09:28:08.000Z</time>
      </trkpt>
      <trkpt lat="46.35099" lon="4.70774">
        <ele>244</ele>
        <time>2024-05-20T09:28:09.000Z</time>
      </trkpt>
      <trkpt lat="46.35099" lon="4.70779">
        <ele>244</ele>
        <time>2024-05-20T09:28:10.000Z</time>
      </trkpt>
      <trkpt lat="46.35098" lon="4.70785">
        <ele>244</ele>
        <time>2024-05-20T09:28:11.000Z</time>
      </trkpt>
      <trkpt lat="46.35098" lon="4.7079">
        <ele>244</ele>
        <time>2024-05-20T09:28:12.000Z</time>
      </trkpt>
      <trkpt lat="46.35097" lon="4.70795">
        <ele>244</ele>
        <time>2024-05-20T09:28:13.000Z</time>
      </trkpt>
      <trkpt lat="46.35096" lon="4.708">
        <ele>243.80000305176</ele>
        <time>2024-05-20T09:28:14.000Z</time>
      </trkpt>
      <trkpt lat="46.35095" lon="4.70806">
        <ele>243.60000610352</ele>
        <time>2024-05-20T09:28:15.000Z</time>
      </trkpt>
      <trkpt lat="46.35094" lon="4.70812">
        <ele>243.60000610352</ele>
        <time>2024-05-20T09:28:16.000Z</time>
      </trkpt>
      <trkpt lat="46.35093" lon="4.70818">
        <ele>243.19999694824</ele>
        <time>2024-05-20T09:28:17.000Z</time>
      </trkpt>
      <trkpt lat="46.3509" lon="4.70823">
        <ele>243</ele>
        <time>2024-05-20T09:28:18.000Z</time>
      </trkpt>
      <trkpt lat="46.35087" lon="4.70826">
        <ele>243</ele>
        <time>2024-05-20T09:28:19.000Z</time>
      </trkpt>
      <trkpt lat="46.35084" lon="4.7083">
        <ele>243</ele>
        <time>2024-05-20T09:28:20.000Z</time>
      </trkpt>
      <trkpt lat="46.35081" lon="4.70833">
        <ele>243</ele>
        <time>2024-05-20T09:28:21.000Z</time>
      </trkpt>
      <trkpt lat="46.35077" lon="4.70839">
        <ele>242.80000305176</ele>
        <time>2024-05-20T09:28:22.000Z</time>
      </trkpt>
      <trkpt lat="46.35073" lon="4.70844">
        <ele>242.80000305176</ele>
        <time>2024-05-20T09:28:23.000Z</time>
      </trkpt>
      <trkpt lat="46.35069" lon="4.70849">
        <ele>242.60000610352</ele>
        <time>2024-05-20T09:28:24.000Z</time>
      </trkpt>
      <trkpt lat="46.35066" lon="4.70855">
        <ele>242.60000610352</ele>
        <time>2024-05-20T09:28:25.000Z</time>
      </trkpt>
      <trkpt lat="46.35062" lon="4.7086">
        <ele>242.39999389648</ele>
        <time>2024-05-20T09:28:26.000Z</time>
      </trkpt>
      <trkpt lat="46.35059" lon="4.70866">
        <ele>242.19999694824</ele>
        <time>2024-05-20T09:28:27.000Z</time>
      </trkpt>
      <trkpt lat="46.35055" lon="4.70871">
        <ele>242</ele>
        <time>2024-05-20T09:28:28.000Z</time>
      </trkpt>
      <trkpt lat="46.35052" lon="4.70877">
        <ele>241.80000305176</ele>
        <time>2024-05-20T09:28:29.000Z</time>
      </trkpt>
      <trkpt lat="46.35048" lon="4.70882">
        <ele>241.80000305176</ele>
        <time>2024-05-20T09:28:30.000Z</time>
      </trkpt>
      <trkpt lat="46.35044" lon="4.70888">
        <ele>241.80000305176</ele>
        <time>2024-05-20T09:28:31.000Z</time>
      </trkpt>
      <trkpt lat="46.35041" lon="4.70893">
        <ele>241.80000305176</ele>
        <time>2024-05-20T09:28:32.000Z</time>
      </trkpt>
      <trkpt lat="46.35037" lon="4.709">
        <ele>241.80000305176</ele>
        <time>2024-05-20T09:28:33.000Z</time>
      </trkpt>
      <trkpt lat="46.35033" lon="4.70906">
        <ele>241.80000305176</ele>
        <time>2024-05-20T09:28:34.000Z</time>
      </trkpt>
      <trkpt lat="46.3503" lon="4.70912">
        <ele>242</ele>
        <time>2024-05-20T09:28:35.000Z</time>
      </trkpt>
      <trkpt lat="46.35026" lon="4.70918">
        <ele>242</ele>
        <time>2024-05-20T09:28:36.000Z</time>
      </trkpt>
      <trkpt lat="46.35022" lon="4.70923">
        <ele>242</ele>
        <time>2024-05-20T09:28:37.000Z</time>
      </trkpt>
      <trkpt lat="46.35019" lon="4.70929">
        <ele>242</ele>
        <time>2024-05-20T09:28:38.000Z</time>
      </trkpt>
      <trkpt lat="46.35015" lon="4.70934">
        <ele>242.19999694824</ele>
        <time>2024-05-20T09:28:39.000Z</time>
      </trkpt>
      <trkpt lat="46.35011" lon="4.7094">
        <ele>242.19999694824</ele>
        <time>2024-05-20T09:28:40.000Z</time>
      </trkpt>
      <trkpt lat="46.35008" lon="4.70945">
        <ele>242.19999694824</ele>
        <time>2024-05-20T09:28:41.000Z</time>
      </trkpt>
      <trkpt lat="46.35005" lon="4.7095">
        <ele>242.19999694824</ele>
        <time>2024-05-20T09:28:42.000Z</time>
      </trkpt>
      <trkpt lat="46.35001" lon="4.70955">
        <ele>242.39999389648</ele>
        <time>2024-05-20T09:28:43.000Z</time>
      </trkpt>
      <trkpt lat="46.34999" lon="4.7096">
        <ele>242.39999389648</ele>
        <time>2024-05-20T09:28:44.000Z</time>
      </trkpt>
      <trkpt lat="46.34995" lon="4.70965">
        <ele>242.80000305176</ele>
        <time>2024-05-20T09:28:45.000Z</time>
      </trkpt>
      <trkpt lat="46.34993" lon="4.70968">
        <ele>243</ele>
        <time>2024-05-20T09:28:46.000Z</time>
      </trkpt>
      <trkpt lat="46.3499" lon="4.70973">
        <ele>243.19999694824</ele>
        <time>2024-05-20T09:28:47.000Z</time>
      </trkpt>
      <trkpt lat="46.34987" lon="4.70978">
        <ele>243.39999389648</ele>
        <time>2024-05-20T09:28:48.000Z</time>
      </trkpt>
      <trkpt lat="46.34984" lon="4.70983">
        <ele>243.39999389648</ele>
        <time>2024-05-20T09:28:49.000Z</time>
      </trkpt>
      <trkpt lat="46.34981" lon="4.70987">
        <ele>243.60000610352</ele>
        <time>2024-05-20T09:28:50.000Z</time>
      </trkpt>
      <trkpt lat="46.34979" lon="4.70992">
        <ele>243.60000610352</ele>
        <time>2024-05-20T09:28:51.000Z</time>
      </trkpt>
      <trkpt lat="46.34975" lon="4.70997">
        <ele>243.80000305176</ele>
        <time>2024-05-20T09:28:52.000Z</time>
      </trkpt>
      <trkpt lat="46.34972" lon="4.71001">
        <ele>243.80000305176</ele>
        <time>2024-05-20T09:28:53.000Z</time>
      </trkpt>
      <trkpt lat="46.34969" lon="4.71006">
        <ele>244</ele>
        <time>2024-05-20T09:28:54.000Z</time>
      </trkpt>
      <trkpt lat="46.34967" lon="4.7101">
        <ele>244</ele>
        <time>2024-05-20T09:28:55.000Z</time>
      </trkpt>
      <trkpt lat="46.34964" lon="4.71015">
        <ele>244.19999694824</ele>
        <time>2024-05-20T09:28:56.000Z</time>
      </trkpt>
      <trkpt lat="46.34961" lon="4.71019">
        <ele>244.39999389648</ele>
        <time>2024-05-20T09:28:57.000Z</time>
      </trkpt>
      <trkpt lat="46.34958" lon="4.71024">
        <ele>244.39999389648</ele>
        <time>2024-05-20T09:28:58.000Z</time>
      </trkpt>
      <trkpt lat="46.34955" lon="4.71028">
        <ele>244.39999389648</ele>
        <time>2024-05-20T09:28:59.000Z</time>
      </trkpt>
      <trkpt lat="46.34953" lon="4.71032">
        <ele>244.60000610352</ele>
        <time>2024-05-20T09:29:00.000Z</time>
      </trkpt>
      <trkpt lat="46.3495" lon="4.71037">
        <ele>244.60000610352</ele>
        <time>2024-05-20T09:29:01.000Z</time>
      </trkpt>
      <trkpt lat="46.34947" lon="4.71041">
        <ele>244.80000305176</ele>
        <time>2024-05-20T09:29:02.000Z</time>
      </trkpt>
      <trkpt lat="46.34944" lon="4.71046">
        <ele>245</ele>
        <time>2024-05-20T09:29:03.000Z</time>
      </trkpt>
      <trkpt lat="46.34942" lon="4.7105">
        <ele>245</ele>
        <time>2024-05-20T09:29:04.000Z</time>
      </trkpt>
      <trkpt lat="46.34939" lon="4.71055">
        <ele>245</ele>
        <time>2024-05-20T09:29:05.000Z</time>
      </trkpt>
      <trkpt lat="46.34936" lon="4.7106">
        <ele>245</ele>
        <time>2024-05-20T09:29:06.000Z</time>
      </trkpt>
      <trkpt lat="46.34933" lon="4.71064">
        <ele>245</ele>
        <time>2024-05-20T09:29:07.000Z</time>
      </trkpt>
      <trkpt lat="46.34931" lon="4.71069">
        <ele>245.19999694824</ele>
        <time>2024-05-20T09:29:08.000Z</time>
      </trkpt>
      <trkpt lat="46.34928" lon="4.71073">
        <ele>245.19999694824</ele>
        <time>2024-05-20T09:29:09.000Z</time>
      </trkpt>
      <trkpt lat="46.34925" lon="4.71078">
        <ele>245.39999389648</ele>
        <time>2024-05-20T09:29:10.000Z</time>
      </trkpt>
      <trkpt lat="46.34923" lon="4.71082">
        <ele>245.39999389648</ele>
        <time>2024-05-20T09:29:11.000Z</time>
      </trkpt>
      <trkpt lat="46.34921" lon="4.71087">
        <ele>245.39999389648</ele>
        <time>2024-05-20T09:29:12.000Z</time>
      </trkpt>
      <trkpt lat="46.34918" lon="4.71092">
        <ele>245.39999389648</ele>
        <time>2024-05-20T09:29:13.000Z</time>
      </trkpt>
      <trkpt lat="46.34916" lon="4.71097">
        <ele>245.60000610352</ele>
        <time>2024-05-20T09:29:14.000Z</time>
      </trkpt>
      <trkpt lat="46.34913" lon="4.71102">
        <ele>245.60000610352</ele>
        <time>2024-05-20T09:29:15.000Z</time>
      </trkpt>
      <trkpt lat="46.3491" lon="4.71107">
        <ele>245.60000610352</ele>
        <time>2024-05-20T09:29:16.000Z</time>
      </trkpt>
      <trkpt lat="46.34908" lon="4.71112">
        <ele>245.60000610352</ele>
        <time>2024-05-20T09:29:17.000Z</time>
      </trkpt>
      <trkpt lat="46.34906" lon="4.71118">
        <ele>245.60000610352</ele>
        <time>2024-05-20T09:29:18.000Z</time>
      </trkpt>
      <trkpt lat="46.34906" lon="4.71124">
        <ele>245.60000610352</ele>
        <time>2024-05-20T09:29:19.000Z</time>
      </trkpt>
      <trkpt lat="46.34905" lon="4.71131">
        <ele>245.60000610352</ele>
        <time>2024-05-20T09:29:20.000Z</time>
      </trkpt>
      <trkpt lat="46.34904" lon="4.71138">
        <ele>245.60000610352</ele>
        <time>2024-05-20T09:29:21.000Z</time>
      </trkpt>
      <trkpt lat="46.34902" lon="4.71144">
        <ele>245.60000610352</ele>
        <time>2024-05-20T09:29:22.000Z</time>
      </trkpt>
      <trkpt lat="46.349" lon="4.71149">
        <ele>245.39999389648</ele>
        <time>2024-05-20T09:29:23.000Z</time>
      </trkpt>
      <trkpt lat="46.34898" lon="4.71153">
        <ele>245.19999694824</ele>
        <time>2024-05-20T09:29:24.000Z</time>
      </trkpt>
      <trkpt lat="46.34896" lon="4.71158">
        <ele>245.19999694824</ele>
        <time>2024-05-20T09:29:25.000Z</time>
      </trkpt>
      <trkpt lat="46.34892" lon="4.71163">
        <ele>245.19999694824</ele>
        <time>2024-05-20T09:29:26.000Z</time>
      </trkpt>
      <trkpt lat="46.34888" lon="4.71166">
        <ele>245.19999694824</ele>
        <time>2024-05-20T09:29:27.000Z</time>
      </trkpt>
      <trkpt lat="46.34886" lon="4.71167">
        <ele>245.39999389648</ele>
        <time>2024-05-20T09:29:28.000Z</time>
      </trkpt>
      <trkpt lat="46.34882" lon="4.71168">
        <ele>245.39999389648</ele>
        <time>2024-05-20T09:29:29.000Z</time>
      </trkpt>
      <trkpt lat="46.34879" lon="4.7117">
        <ele>245.39999389648</ele>
        <time>2024-05-20T09:29:30.000Z</time>
      </trkpt>
      <trkpt lat="46.34878" lon="4.71173">
        <ele>245.60000610352</ele>
        <time>2024-05-20T09:29:31.000Z</time>
      </trkpt>
      <trkpt lat="46.34876" lon="4.71177">
        <ele>245.80000305176</ele>
        <time>2024-05-20T09:29:32.000Z</time>
      </trkpt>
      <trkpt lat="46.34874" lon="4.71181">
        <ele>246</ele>
        <time>2024-05-20T09:29:33.000Z</time>
      </trkpt>
      <trkpt lat="46.34872" lon="4.71185">
        <ele>246.19999694824</ele>
        <time>2024-05-20T09:29:34.000Z</time>
      </trkpt>
      <trkpt lat="46.34871" lon="4.71189">
        <ele>246.39999389648</ele>
        <time>2024-05-20T09:29:35.000Z</time>
      </trkpt>
      <trkpt lat="46.3487" lon="4.71193">
        <ele>246.60000610352</ele>
        <time>2024-05-20T09:29:36.000Z</time>
      </trkpt>
      <trkpt lat="46.34869" lon="4.71197">
        <ele>247</ele>
        <time>2024-05-20T09:29:37.000Z</time>
      </trkpt>
      <trkpt lat="46.34866" lon="4.71202">
        <ele>247</ele>
        <time>2024-05-20T09:29:38.000Z</time>
      </trkpt>
      <trkpt lat="46.34864" lon="4.71207">
        <ele>247</ele>
        <time>2024-05-20T09:29:39.000Z</time>
      </trkpt>
      <trkpt lat="46.34862" lon="4.71214">
        <ele>247</ele>
        <time>2024-05-20T09:29:40.000Z</time>
      </trkpt>
      <trkpt lat="46.34859" lon="4.71222">
        <ele>246.60000610352</ele>
        <time>2024-05-20T09:29:41.000Z</time>
      </trkpt>
      <trkpt lat="46.34856" lon="4.71228">
        <ele>246</ele>
        <time>2024-05-20T09:29:42.000Z</time>
      </trkpt>
      <trkpt lat="46.34853" lon="4.71235">
        <ele>245.60000610352</ele>
        <time>2024-05-20T09:29:43.000Z</time>
      </trkpt>
      <trkpt lat="46.3485" lon="4.71243">
        <ele>245.60000610352</ele>
        <time>2024-05-20T09:29:44.000Z</time>
      </trkpt>
      <trkpt lat="46.34848" lon="4.7125">
        <ele>245.39999389648</ele>
        <time>2024-05-20T09:29:45.000Z</time>
      </trkpt>
      <trkpt lat="46.34845" lon="4.71256">
        <ele>245.39999389648</ele>
        <time>2024-05-20T09:29:46.000Z</time>
      </trkpt>
      <trkpt lat="46.34843" lon="4.71262">
        <ele>245.39999389648</ele>
        <time>2024-05-20T09:29:47.000Z</time>
      </trkpt>
      <trkpt lat="46.34841" lon="4.71267">
        <ele>245.39999389648</ele>
        <time>2024-05-20T09:29:48.000Z</time>
      </trkpt>
      <trkpt lat="46.34838" lon="4.71273">
        <ele>245.39999389648</ele>
        <time>2024-05-20T09:29:49.000Z</time>
      </trkpt>
      <trkpt lat="46.34837" lon="4.71277">
        <ele>245.39999389648</ele>
        <time>2024-05-20T09:29:50.000Z</time>
      </trkpt>
      <trkpt lat="46.34836" lon="4.71281">
        <ele>245.60000610352</ele>
        <time>2024-05-20T09:29:51.000Z</time>
      </trkpt>
      <trkpt lat="46.34835" lon="4.71285">
        <ele>245.80000305176</ele>
        <time>2024-05-20T09:29:52.000Z</time>
      </trkpt>
      <trkpt lat="46.34834" lon="4.71291">
        <ele>246</ele>
        <time>2024-05-20T09:29:53.000Z</time>
      </trkpt>
      <trkpt lat="46.34832" lon="4.71298">
        <ele>246</ele>
        <time>2024-05-20T09:29:54.000Z</time>
      </trkpt>
      <trkpt lat="46.34831" lon="4.71304">
        <ele>246</ele>
        <time>2024-05-20T09:29:55.000Z</time>
      </trkpt>
      <trkpt lat="46.34829" lon="4.7131">
        <ele>246</ele>
        <time>2024-05-20T09:29:56.000Z</time>
      </trkpt>
      <trkpt lat="46.34827" lon="4.71316">
        <ele>246</ele>
        <time>2024-05-20T09:29:57.000Z</time>
      </trkpt>
      <trkpt lat="46.34824" lon="4.71322">
        <ele>246</ele>
        <time>2024-05-20T09:29:58.000Z</time>
      </trkpt>
      <trkpt lat="46.34822" lon="4.71327">
        <ele>246</ele>
        <time>2024-05-20T09:29:59.000Z</time>
      </trkpt>
      <trkpt lat="46.34819" lon="4.71332">
        <ele>246</ele>
        <time>2024-05-20T09:30:00.000Z</time>
      </trkpt>
      <trkpt lat="46.34815" lon="4.71338">
        <ele>246</ele>
        <time>2024-05-20T09:30:01.000Z</time>
      </trkpt>
      <trkpt lat="46.34813" lon="4.71344">
        <ele>246.19999694824</ele>
        <time>2024-05-20T09:30:02.000Z</time>
      </trkpt>
      <trkpt lat="46.34812" lon="4.71351">
        <ele>246.39999389648</ele>
        <time>2024-05-20T09:30:03.000Z</time>
      </trkpt>
      <trkpt lat="46.34808" lon="4.71357">
        <ele>246.60000610352</ele>
        <time>2024-05-20T09:30:04.000Z</time>
      </trkpt>
      <trkpt lat="46.34805" lon="4.71362">
        <ele>246.80000305176</ele>
        <time>2024-05-20T09:30:05.000Z</time>
      </trkpt>
      <trkpt lat="46.34804" lon="4.71368">
        <ele>247.19999694824</ele>
        <time>2024-05-20T09:30:06.000Z</time>
      </trkpt>
      <trkpt lat="46.34801" lon="4.71375">
        <ele>247.39999389648</ele>
        <time>2024-05-20T09:30:07.000Z</time>
      </trkpt>
      <trkpt lat="46.34798" lon="4.71381">
        <ele>247.60000610352</ele>
        <time>2024-05-20T09:30:08.000Z</time>
      </trkpt>
      <trkpt lat="46.34794" lon="4.71387">
        <ele>248.19999694824</ele>
        <time>2024-05-20T09:30:09.000Z</time>
      </trkpt>
      <trkpt lat="46.34792" lon="4.71393">
        <ele>248.39999389648</ele>
        <time>2024-05-20T09:30:10.000Z</time>
      </trkpt>
      <trkpt lat="46.3479" lon="4.71398">
        <ele>248.39999389648</ele>
        <time>2024-05-20T09:30:11.000Z</time>
      </trkpt>
      <trkpt lat="46.34786" lon="4.71404">
        <ele>248.60000610352</ele>
        <time>2024-05-20T09:30:12.000Z</time>
      </trkpt>
      <trkpt lat="46.34783" lon="4.71409">
        <ele>248.80000305176</ele>
        <time>2024-05-20T09:30:13.000Z</time>
      </trkpt>
      <trkpt lat="46.3478" lon="4.71415">
        <ele>248.80000305176</ele>
        <time>2024-05-20T09:30:14.000Z</time>
      </trkpt>
      <trkpt lat="46.34777" lon="4.7142">
        <ele>248.80000305176</ele>
        <time>2024-05-20T09:30:15.000Z</time>
      </trkpt>
      <trkpt lat="46.34774" lon="4.71424">
        <ele>248.80000305176</ele>
        <time>2024-05-20T09:30:16.000Z</time>
      </trkpt>
      <trkpt lat="46.3477" lon="4.7143">
        <ele>248.80000305176</ele>
        <time>2024-05-20T09:30:17.000Z</time>
      </trkpt>
      <trkpt lat="46.34766" lon="4.71435">
        <ele>248.80000305176</ele>
        <time>2024-05-20T09:30:18.000Z</time>
      </trkpt>
      <trkpt lat="46.34762" lon="4.7144">
        <ele>248.80000305176</ele>
        <time>2024-05-20T09:30:19.000Z</time>
      </trkpt>
      <trkpt lat="46.34758" lon="4.71445">
        <ele>248.80000305176</ele>
        <time>2024-05-20T09:30:20.000Z</time>
      </trkpt>
      <trkpt lat="46.34755" lon="4.7145">
        <ele>249</ele>
        <time>2024-05-20T09:30:21.000Z</time>
      </trkpt>
      <trkpt lat="46.34752" lon="4.71455">
        <ele>249</ele>
        <time>2024-05-20T09:30:22.000Z</time>
      </trkpt>
      <trkpt lat="46.34749" lon="4.71461">
        <ele>249.19999694824</ele>
        <time>2024-05-20T09:30:23.000Z</time>
      </trkpt>
      <trkpt lat="46.34746" lon="4.71467">
        <ele>249.19999694824</ele>
        <time>2024-05-20T09:30:24.000Z</time>
      </trkpt>
      <trkpt lat="46.34743" lon="4.71474">
        <ele>249.19999694824</ele>
        <time>2024-05-20T09:30:25.000Z</time>
      </trkpt>
      <trkpt lat="46.34738" lon="4.7148">
        <ele>249.19999694824</ele>
        <time>2024-05-20T09:30:26.000Z</time>
      </trkpt>
      <trkpt lat="46.34734" lon="4.71486">
        <ele>249</ele>
        <time>2024-05-20T09:30:27.000Z</time>
      </trkpt>
      <trkpt lat="46.34729" lon="4.71493">
        <ele>248.60000610352</ele>
        <time>2024-05-20T09:30:28.000Z</time>
      </trkpt>
      <trkpt lat="46.34724" lon="4.71499">
        <ele>248</ele>
        <time>2024-05-20T09:30:29.000Z</time>
      </trkpt>
      <trkpt lat="46.34721" lon="4.71506">
        <ele>247.60000610352</ele>
        <time>2024-05-20T09:30:30.000Z</time>
      </trkpt>
      <trkpt lat="46.34717" lon="4.71513">
        <ele>247.60000610352</ele>
        <time>2024-05-20T09:30:31.000Z</time>
      </trkpt>
      <trkpt lat="46.34712" lon="4.7152">
        <ele>247.39999389648</ele>
        <time>2024-05-20T09:30:32.000Z</time>
      </trkpt>
      <trkpt lat="46.34707" lon="4.71527">
        <ele>247.19999694824</ele>
        <time>2024-05-20T09:30:33.000Z</time>
      </trkpt>
      <trkpt lat="46.34703" lon="4.71534">
        <ele>247.19999694824</ele>
        <time>2024-05-20T09:30:34.000Z</time>
      </trkpt>
      <trkpt lat="46.34698" lon="4.71542">
        <ele>247.19999694824</ele>
        <time>2024-05-20T09:30:35.000Z</time>
      </trkpt>
      <trkpt lat="46.34694" lon="4.71548">
        <ele>247.19999694824</ele>
        <time>2024-05-20T09:30:36.000Z</time>
      </trkpt>
      <trkpt lat="46.34689" lon="4.71554">
        <ele>247.19999694824</ele>
        <time>2024-05-20T09:30:37.000Z</time>
      </trkpt>
      <trkpt lat="46.34683" lon="4.71557">
        <ele>247.39999389648</ele>
        <time>2024-05-20T09:30:38.000Z</time>
      </trkpt>
      <trkpt lat="46.34678" lon="4.71557">
        <ele>247.60000610352</ele>
        <time>2024-05-20T09:30:39.000Z</time>
      </trkpt>
      <trkpt lat="46.34674" lon="4.71556">
        <ele>247.60000610352</ele>
        <time>2024-05-20T09:30:40.000Z</time>
      </trkpt>
      <trkpt lat="46.34669" lon="4.71557">
        <ele>248</ele>
        <time>2024-05-20T09:30:41.000Z</time>
      </trkpt>
      <trkpt lat="46.34665" lon="4.71559">
        <ele>248.39999389648</ele>
        <time>2024-05-20T09:30:42.000Z</time>
      </trkpt>
      <trkpt lat="46.34662" lon="4.71562">
        <ele>249</ele>
        <time>2024-05-20T09:30:43.000Z</time>
      </trkpt>
      <trkpt lat="46.34658" lon="4.71564">
        <ele>249.39999389648</ele>
        <time>2024-05-20T09:30:44.000Z</time>
      </trkpt>
      <trkpt lat="46.34654" lon="4.71567">
        <ele>249.60000610352</ele>
        <time>2024-05-20T09:30:45.000Z</time>
      </trkpt>
      <trkpt lat="46.3465" lon="4.7157">
        <ele>249.60000610352</ele>
        <time>2024-05-20T09:30:46.000Z</time>
      </trkpt>
      <trkpt lat="46.34646" lon="4.71573">
        <ele>249.60000610352</ele>
        <time>2024-05-20T09:30:47.000Z</time>
      </trkpt>
      <trkpt lat="46.34642" lon="4.71576">
        <ele>249.60000610352</ele>
        <time>2024-05-20T09:30:48.000Z</time>
      </trkpt>
      <trkpt lat="46.34638" lon="4.7158">
        <ele>249.60000610352</ele>
        <time>2024-05-20T09:30:49.000Z</time>
      </trkpt>
      <trkpt lat="46.34635" lon="4.71582">
        <ele>249.39999389648</ele>
        <time>2024-05-20T09:30:50.000Z</time>
      </trkpt>
      <trkpt lat="46.34631" lon="4.71585">
        <ele>249.19999694824</ele>
        <time>2024-05-20T09:30:51.000Z</time>
      </trkpt>
      <trkpt lat="46.34628" lon="4.71588">
        <ele>249.19999694824</ele>
        <time>2024-05-20T09:30:52.000Z</time>
      </trkpt>
      <trkpt lat="46.34626" lon="4.71589">
        <ele>249.19999694824</ele>
        <time>2024-05-20T09:30:53.000Z</time>
      </trkpt>
      <trkpt lat="46.34624" lon="4.71589">
        <ele>249.19999694824</ele>
        <time>2024-05-20T09:30:54.000Z</time>
      </trkpt>
      <trkpt lat="46.34622" lon="4.71589">
        <ele>249.19999694824</ele>
        <time>2024-05-20T09:30:55.000Z</time>
      </trkpt>
      <trkpt lat="46.3462" lon="4.71589">
        <ele>249.19999694824</ele>
        <time>2024-05-20T09:30:56.000Z</time>
      </trkpt>
      <trkpt lat="46.34618" lon="4.7159">
        <ele>249.19999694824</ele>
        <time>2024-05-20T09:30:57.000Z</time>
      </trkpt>
      <trkpt lat="46.34616" lon="4.71591">
        <ele>249.19999694824</ele>
        <time>2024-05-20T09:30:58.000Z</time>
      </trkpt>
      <trkpt lat="46.34614" lon="4.71592">
        <ele>249</ele>
        <time>2024-05-20T09:30:59.000Z</time>
      </trkpt>
      <trkpt lat="46.34611" lon="4.71592">
        <ele>249</ele>
        <time>2024-05-20T09:31:00.000Z</time>
      </trkpt>
      <trkpt lat="46.34609" lon="4.71592">
        <ele>248.80000305176</ele>
        <time>2024-05-20T09:31:01.000Z</time>
      </trkpt>
      <trkpt lat="46.34606" lon="4.71592">
        <ele>248.80000305176</ele>
        <time>2024-05-20T09:31:02.000Z</time>
      </trkpt>
      <trkpt lat="46.34602" lon="4.71592">
        <ele>248.80000305176</ele>
        <time>2024-05-20T09:31:03.000Z</time>
      </trkpt>
      <trkpt lat="46.34599" lon="4.71594">
        <ele>248.60000610352</ele>
        <time>2024-05-20T09:31:04.000Z</time>
      </trkpt>
      <trkpt lat="46.34595" lon="4.71595">
        <ele>248.60000610352</ele>
        <time>2024-05-20T09:31:05.000Z</time>
      </trkpt>
      <trkpt lat="46.34591" lon="4.71597">
        <ele>248.39999389648</ele>
        <time>2024-05-20T09:31:06.000Z</time>
      </trkpt>
      <trkpt lat="46.34588" lon="4.71599">
        <ele>248.39999389648</ele>
        <time>2024-05-20T09:31:07.000Z</time>
      </trkpt>
      <trkpt lat="46.34583" lon="4.71602">
        <ele>248.39999389648</ele>
        <time>2024-05-20T09:31:08.000Z</time>
      </trkpt>
      <trkpt lat="46.34579" lon="4.71604">
        <ele>248.39999389648</ele>
        <time>2024-05-20T09:31:09.000Z</time>
      </trkpt>
      <trkpt lat="46.34574" lon="4.71607">
        <ele>248.19999694824</ele>
        <time>2024-05-20T09:31:10.000Z</time>
      </trkpt>
      <trkpt lat="46.3457" lon="4.71609">
        <ele>248</ele>
        <time>2024-05-20T09:31:11.000Z</time>
      </trkpt>
      <trkpt lat="46.34565" lon="4.71611">
        <ele>248</ele>
        <time>2024-05-20T09:31:12.000Z</time>
      </trkpt>
      <trkpt lat="46.3456" lon="4.71613">
        <ele>247.80000305176</ele>
        <time>2024-05-20T09:31:13.000Z</time>
      </trkpt>
      <trkpt lat="46.34555" lon="4.71615">
        <ele>247.80000305176</ele>
        <time>2024-05-20T09:31:14.000Z</time>
      </trkpt>
      <trkpt lat="46.34551" lon="4.71618">
        <ele>247.80000305176</ele>
        <time>2024-05-20T09:31:15.000Z</time>
      </trkpt>
      <trkpt lat="46.34546" lon="4.7162">
        <ele>247.80000305176</ele>
        <time>2024-05-20T09:31:16.000Z</time>
      </trkpt>
      <trkpt lat="46.34541" lon="4.71623">
        <ele>247.60000610352</ele>
        <time>2024-05-20T09:31:17.000Z</time>
      </trkpt>
      <trkpt lat="46.34536" lon="4.71625">
        <ele>247.39999389648</ele>
        <time>2024-05-20T09:31:18.000Z</time>
      </trkpt>
      <trkpt lat="46.34531" lon="4.71628">
        <ele>247.19999694824</ele>
        <time>2024-05-20T09:31:19.000Z</time>
      </trkpt>
      <trkpt lat="46.34526" lon="4.71631">
        <ele>247.19999694824</ele>
        <time>2024-05-20T09:31:20.000Z</time>
      </trkpt>
      <trkpt lat="46.34521" lon="4.71633">
        <ele>247</ele>
        <time>2024-05-20T09:31:21.000Z</time>
      </trkpt>
      <trkpt lat="46.34516" lon="4.71635">
        <ele>247</ele>
        <time>2024-05-20T09:31:22.000Z</time>
      </trkpt>
      <trkpt lat="46.3451" lon="4.71637">
        <ele>246.80000305176</ele>
        <time>2024-05-20T09:31:23.000Z</time>
      </trkpt>
      <trkpt lat="46.34505" lon="4.7164">
        <ele>246.60000610352</ele>
        <time>2024-05-20T09:31:24.000Z</time>
      </trkpt>
      <trkpt lat="46.345" lon="4.71643">
        <ele>246.60000610352</ele>
        <time>2024-05-20T09:31:25.000Z</time>
      </trkpt>
      <trkpt lat="46.34495" lon="4.71646">
        <ele>246.60000610352</ele>
        <time>2024-05-20T09:31:26.000Z</time>
      </trkpt>
      <trkpt lat="46.3449" lon="4.71649">
        <ele>246.60000610352</ele>
        <time>2024-05-20T09:31:27.000Z</time>
      </trkpt>
      <trkpt lat="46.34485" lon="4.71652">
        <ele>246.39999389648</ele>
        <time>2024-05-20T09:31:28.000Z</time>
      </trkpt>
      <trkpt lat="46.3448" lon="4.71656">
        <ele>245.80000305176</ele>
        <time>2024-05-20T09:31:29.000Z</time>
      </trkpt>
      <trkpt lat="46.34475" lon="4.71659">
        <ele>245.60000610352</ele>
        <time>2024-05-20T09:31:30.000Z</time>
      </trkpt>
      <trkpt lat="46.3447" lon="4.71663">
        <ele>245.39999389648</ele>
        <time>2024-05-20T09:31:31.000Z</time>
      </trkpt>
      <trkpt lat="46.34464" lon="4.71667">
        <ele>245.19999694824</ele>
        <time>2024-05-20T09:31:32.000Z</time>
      </trkpt>
      <trkpt lat="46.34459" lon="4.71671">
        <ele>245</ele>
        <time>2024-05-20T09:31:33.000Z</time>
      </trkpt>
      <trkpt lat="46.34454" lon="4.71675">
        <ele>245</ele>
        <time>2024-05-20T09:31:34.000Z</time>
      </trkpt>
      <trkpt lat="46.34448" lon="4.7168">
        <ele>245</ele>
        <time>2024-05-20T09:31:35.000Z</time>
      </trkpt>
      <trkpt lat="46.34443" lon="4.71684">
        <ele>245</ele>
        <time>2024-05-20T09:31:36.000Z</time>
      </trkpt>
      <trkpt lat="46.34437" lon="4.71689">
        <ele>244.80000305176</ele>
        <time>2024-05-20T09:31:37.000Z</time>
      </trkpt>
      <trkpt lat="46.34432" lon="4.71694">
        <ele>244.80000305176</ele>
        <time>2024-05-20T09:31:38.000Z</time>
      </trkpt>
      <trkpt lat="46.34426" lon="4.71698">
        <ele>244.39999389648</ele>
        <time>2024-05-20T09:31:39.000Z</time>
      </trkpt>
      <trkpt lat="46.3442" lon="4.71703">
        <ele>244.19999694824</ele>
        <time>2024-05-20T09:31:40.000Z</time>
      </trkpt>
      <trkpt lat="46.34415" lon="4.71708">
        <ele>244</ele>
        <time>2024-05-20T09:31:41.000Z</time>
      </trkpt>
      <trkpt lat="46.34409" lon="4.71713">
        <ele>244</ele>
        <time>2024-05-20T09:31:42.000Z</time>
      </trkpt>
      <trkpt lat="46.34404" lon="4.71718">
        <ele>244</ele>
        <time>2024-05-20T09:31:43.000Z</time>
      </trkpt>
      <trkpt lat="46.34399" lon="4.71723">
        <ele>243.80000305176</ele>
        <time>2024-05-20T09:31:44.000Z</time>
      </trkpt>
      <trkpt lat="46.34393" lon="4.71728">
        <ele>243.60000610352</ele>
        <time>2024-05-20T09:31:45.000Z</time>
      </trkpt>
      <trkpt lat="46.34387" lon="4.71733">
        <ele>243.39999389648</ele>
        <time>2024-05-20T09:31:46.000Z</time>
      </trkpt>
      <trkpt lat="46.34382" lon="4.71739">
        <ele>243.19999694824</ele>
        <time>2024-05-20T09:31:47.000Z</time>
      </trkpt>
      <trkpt lat="46.34377" lon="4.71746">
        <ele>242.80000305176</ele>
        <time>2024-05-20T09:31:48.000Z</time>
      </trkpt>
      <trkpt lat="46.34372" lon="4.71753">
        <ele>242.60000610352</ele>
        <time>2024-05-20T09:31:49.000Z</time>
      </trkpt>
      <trkpt lat="46.34367" lon="4.7176">
        <ele>242.39999389648</ele>
        <time>2024-05-20T09:31:50.000Z</time>
      </trkpt>
      <trkpt lat="46.34361" lon="4.71766">
        <ele>242</ele>
        <time>2024-05-20T09:31:51.000Z</time>
      </trkpt>
      <trkpt lat="46.34356" lon="4.71773">
        <ele>241.80000305176</ele>
        <time>2024-05-20T09:31:52.000Z</time>
      </trkpt>
      <trkpt lat="46.3435" lon="4.7178">
        <ele>241.39999389648</ele>
        <time>2024-05-20T09:31:53.000Z</time>
      </trkpt>
      <trkpt lat="46.34345" lon="4.71787">
        <ele>241</ele>
        <time>2024-05-20T09:31:54.000Z</time>
      </trkpt>
      <trkpt lat="46.34339" lon="4.71793">
        <ele>240.60000610352</ele>
        <time>2024-05-20T09:31:55.000Z</time>
      </trkpt>
      <trkpt lat="46.34334" lon="4.71799">
        <ele>240</ele>
        <time>2024-05-20T09:31:56.000Z</time>
      </trkpt>
      <trkpt lat="46.34328" lon="4.71805">
        <ele>239.60000610352</ele>
        <time>2024-05-20T09:31:57.000Z</time>
      </trkpt>
      <trkpt lat="46.34323" lon="4.71811">
        <ele>239.39999389648</ele>
        <time>2024-05-20T09:31:58.000Z</time>
      </trkpt>
      <trkpt lat="46.34318" lon="4.71816">
        <ele>239.39999389648</ele>
        <time>2024-05-20T09:31:59.000Z</time>
      </trkpt>
      <trkpt lat="46.34313" lon="4.71822">
        <ele>239.19999694824</ele>
        <time>2024-05-20T09:32:00.000Z</time>
      </trkpt>
      <trkpt lat="46.34308" lon="4.71827">
        <ele>239</ele>
        <time>2024-05-20T09:32:01.000Z</time>
      </trkpt>
      <trkpt lat="46.34304" lon="4.71832">
        <ele>238.60000610352</ele>
        <time>2024-05-20T09:32:02.000Z</time>
      </trkpt>
      <trkpt lat="46.343" lon="4.71837">
        <ele>238.19999694824</ele>
        <time>2024-05-20T09:32:03.000Z</time>
      </trkpt>
      <trkpt lat="46.34296" lon="4.71842">
        <ele>238.19999694824</ele>
        <time>2024-05-20T09:32:04.000Z</time>
      </trkpt>
      <trkpt lat="46.34292" lon="4.71846">
        <ele>238.19999694824</ele>
        <time>2024-05-20T09:32:05.000Z</time>
      </trkpt>
      <trkpt lat="46.34289" lon="4.7185">
        <ele>238.19999694824</ele>
        <time>2024-05-20T09:32:06.000Z</time>
      </trkpt>
      <trkpt lat="46.34285" lon="4.71854">
        <ele>238.19999694824</ele>
        <time>2024-05-20T09:32:07.000Z</time>
      </trkpt>
      <trkpt lat="46.34281" lon="4.71859">
        <ele>238.39999389648</ele>
        <time>2024-05-20T09:32:08.000Z</time>
      </trkpt>
      <trkpt lat="46.34277" lon="4.71865">
        <ele>238.39999389648</ele>
        <time>2024-05-20T09:32:09.000Z</time>
      </trkpt>
      <trkpt lat="46.34273" lon="4.71871">
        <ele>238.39999389648</ele>
        <time>2024-05-20T09:32:10.000Z</time>
      </trkpt>
      <trkpt lat="46.34268" lon="4.71878">
        <ele>238.39999389648</ele>
        <time>2024-05-20T09:32:11.000Z</time>
      </trkpt>
      <trkpt lat="46.34263" lon="4.71884">
        <ele>238</ele>
        <time>2024-05-20T09:32:12.000Z</time>
      </trkpt>
      <trkpt lat="46.34257" lon="4.71889">
        <ele>237</ele>
        <time>2024-05-20T09:32:13.000Z</time>
      </trkpt>
      <trkpt lat="46.34251" lon="4.71894">
        <ele>236</ele>
        <time>2024-05-20T09:32:14.000Z</time>
      </trkpt>
      <trkpt lat="46.34246" lon="4.71898">
        <ele>235.80000305176</ele>
        <time>2024-05-20T09:32:15.000Z</time>
      </trkpt>
      <trkpt lat="46.34241" lon="4.71903">
        <ele>235.39999389648</ele>
        <time>2024-05-20T09:32:16.000Z</time>
      </trkpt>
      <trkpt lat="46.34237" lon="4.71907">
        <ele>235.19999694824</ele>
        <time>2024-05-20T09:32:17.000Z</time>
      </trkpt>
      <trkpt lat="46.34234" lon="4.7191">
        <ele>235.19999694824</ele>
        <time>2024-05-20T09:32:18.000Z</time>
      </trkpt>
      <trkpt lat="46.34231" lon="4.71914">
        <ele>235.19999694824</ele>
        <time>2024-05-20T09:32:19.000Z</time>
      </trkpt>
      <trkpt lat="46.34229" lon="4.71918">
        <ele>235.19999694824</ele>
        <time>2024-05-20T09:32:20.000Z</time>
      </trkpt>
      <trkpt lat="46.34226" lon="4.71921">
        <ele>235.39999389648</ele>
        <time>2024-05-20T09:32:21.000Z</time>
      </trkpt>
      <trkpt lat="46.34223" lon="4.71925">
        <ele>235.39999389648</ele>
        <time>2024-05-20T09:32:22.000Z</time>
      </trkpt>
      <trkpt lat="46.3422" lon="4.71929">
        <ele>235.39999389648</ele>
        <time>2024-05-20T09:32:23.000Z</time>
      </trkpt>
      <trkpt lat="46.34218" lon="4.71933">
        <ele>235.39999389648</ele>
        <time>2024-05-20T09:32:24.000Z</time>
      </trkpt>
      <trkpt lat="46.34215" lon="4.71937">
        <ele>235.19999694824</ele>
        <time>2024-05-20T09:32:25.000Z</time>
      </trkpt>
      <trkpt lat="46.34212" lon="4.71943">
        <ele>235.19999694824</ele>
        <time>2024-05-20T09:32:26.000Z</time>
      </trkpt>
      <trkpt lat="46.34209" lon="4.71948">
        <ele>234.80000305176</ele>
        <time>2024-05-20T09:32:27.000Z</time>
      </trkpt>
      <trkpt lat="46.34207" lon="4.71954">
        <ele>234.60000610352</ele>
        <time>2024-05-20T09:32:28.000Z</time>
      </trkpt>
      <trkpt lat="46.34205" lon="4.7196">
        <ele>234.39999389648</ele>
        <time>2024-05-20T09:32:29.000Z</time>
      </trkpt>
      <trkpt lat="46.34206" lon="4.71965">
        <ele>234.19999694824</ele>
        <time>2024-05-20T09:32:30.000Z</time>
      </trkpt>
      <trkpt lat="46.34207" lon="4.7197">
        <ele>233.80000305176</ele>
        <time>2024-05-20T09:32:31.000Z</time>
      </trkpt>
      <trkpt lat="46.34208" lon="4.71976">
        <ele>233.60000610352</ele>
        <time>2024-05-20T09:32:32.000Z</time>
      </trkpt>
      <trkpt lat="46.34211" lon="4.71982">
        <ele>233.19999694824</ele>
        <time>2024-05-20T09:32:33.000Z</time>
      </trkpt>
      <trkpt lat="46.34214" lon="4.71989">
        <ele>233</ele>
        <time>2024-05-20T09:32:34.000Z</time>
      </trkpt>
      <trkpt lat="46.34218" lon="4.71996">
        <ele>232.60000610352</ele>
        <time>2024-05-20T09:32:35.000Z</time>
      </trkpt>
      <trkpt lat="46.34221" lon="4.72003">
        <ele>232.19999694824</ele>
        <time>2024-05-20T09:32:36.000Z</time>
      </trkpt>
      <trkpt lat="46.34224" lon="4.72012">
        <ele>231.60000610352</ele>
        <time>2024-05-20T09:32:37.000Z</time>
      </trkpt>
      <trkpt lat="46.34227" lon="4.7202">
        <ele>231.39999389648</ele>
        <time>2024-05-20T09:32:38.000Z</time>
      </trkpt>
      <trkpt lat="46.3423" lon="4.7203">
        <ele>231</ele>
        <time>2024-05-20T09:32:39.000Z</time>
      </trkpt>
      <trkpt lat="46.34233" lon="4.72039">
        <ele>230.80000305176</ele>
        <time>2024-05-20T09:32:40.000Z</time>
      </trkpt>
      <trkpt lat="46.34237" lon="4.72049">
        <ele>230.60000610352</ele>
        <time>2024-05-20T09:32:41.000Z</time>
      </trkpt>
      <trkpt lat="46.3424" lon="4.72059">
        <ele>230</ele>
        <time>2024-05-20T09:32:42.000Z</time>
      </trkpt>
      <trkpt lat="46.34243" lon="4.72069">
        <ele>229.80000305176</ele>
        <time>2024-05-20T09:32:43.000Z</time>
      </trkpt>
      <trkpt lat="46.34246" lon="4.72079">
        <ele>229.39999389648</ele>
        <time>2024-05-20T09:32:44.000Z</time>
      </trkpt>
      <trkpt lat="46.34249" lon="4.72088">
        <ele>229.19999694824</ele>
        <time>2024-05-20T09:32:45.000Z</time>
      </trkpt>
      <trkpt lat="46.34251" lon="4.72098">
        <ele>228.80000305176</ele>
        <time>2024-05-20T09:32:46.000Z</time>
      </trkpt>
      <trkpt lat="46.34254" lon="4.72106">
        <ele>228.80000305176</ele>
        <time>2024-05-20T09:32:47.000Z</time>
      </trkpt>
      <trkpt lat="46.34256" lon="4.72115">
        <ele>228.39999389648</ele>
        <time>2024-05-20T09:32:48.000Z</time>
      </trkpt>
      <trkpt lat="46.34256" lon="4.72122">
        <ele>228.39999389648</ele>
        <time>2024-05-20T09:32:49.000Z</time>
      </trkpt>
      <trkpt lat="46.34256" lon="4.72129">
        <ele>228.39999389648</ele>
        <time>2024-05-20T09:32:50.000Z</time>
      </trkpt>
      <trkpt lat="46.34255" lon="4.72133">
        <ele>228.39999389648</ele>
        <time>2024-05-20T09:32:51.000Z</time>
      </trkpt>
      <trkpt lat="46.34254" lon="4.72136">
        <ele>228.39999389648</ele>
        <time>2024-05-20T09:32:52.000Z</time>
      </trkpt>
      <trkpt lat="46.34253" lon="4.72138">
        <ele>229</ele>
        <time>2024-05-20T09:32:53.000Z</time>
      </trkpt>
      <trkpt lat="46.34251" lon="4.7214">
        <ele>229.19999694824</ele>
        <time>2024-05-20T09:32:54.000Z</time>
      </trkpt>
      <trkpt lat="46.34248" lon="4.72143">
        <ele>229.39999389648</ele>
        <time>2024-05-20T09:32:55.000Z</time>
      </trkpt>
      <trkpt lat="46.34245" lon="4.72146">
        <ele>229.39999389648</ele>
        <time>2024-05-20T09:32:56.000Z</time>
      </trkpt>
      <trkpt lat="46.34242" lon="4.72149">
        <ele>229.39999389648</ele>
        <time>2024-05-20T09:32:57.000Z</time>
      </trkpt>
      <trkpt lat="46.34238" lon="4.72151">
        <ele>229.39999389648</ele>
        <time>2024-05-20T09:32:58.000Z</time>
      </trkpt>
      <trkpt lat="46.34233" lon="4.72153">
        <ele>229.39999389648</ele>
        <time>2024-05-20T09:32:59.000Z</time>
      </trkpt>
      <trkpt lat="46.34228" lon="4.72155">
        <ele>229.19999694824</ele>
        <time>2024-05-20T09:33:00.000Z</time>
      </trkpt>
      <trkpt lat="46.34222" lon="4.72157">
        <ele>229</ele>
        <time>2024-05-20T09:33:01.000Z</time>
      </trkpt>
      <trkpt lat="46.34216" lon="4.72159">
        <ele>228.80000305176</ele>
        <time>2024-05-20T09:33:02.000Z</time>
      </trkpt>
      <trkpt lat="46.34211" lon="4.72162">
        <ele>228.39999389648</ele>
        <time>2024-05-20T09:33:03.000Z</time>
      </trkpt>
      <trkpt lat="46.34205" lon="4.72164">
        <ele>228.19999694824</ele>
        <time>2024-05-20T09:33:04.000Z</time>
      </trkpt>
      <trkpt lat="46.34199" lon="4.72165">
        <ele>228</ele>
        <time>2024-05-20T09:33:05.000Z</time>
      </trkpt>
      <trkpt lat="46.34193" lon="4.72166">
        <ele>228</ele>
        <time>2024-05-20T09:33:06.000Z</time>
      </trkpt>
      <trkpt lat="46.34187" lon="4.72167">
        <ele>228</ele>
        <time>2024-05-20T09:33:07.000Z</time>
      </trkpt>
      <trkpt lat="46.34181" lon="4.72168">
        <ele>228</ele>
        <time>2024-05-20T09:33:08.000Z</time>
      </trkpt>
      <trkpt lat="46.34175" lon="4.72169">
        <ele>228</ele>
        <time>2024-05-20T09:33:09.000Z</time>
      </trkpt>
      <trkpt lat="46.34169" lon="4.72172">
        <ele>228.19999694824</ele>
        <time>2024-05-20T09:33:10.000Z</time>
      </trkpt>
      <trkpt lat="46.34163" lon="4.72174">
        <ele>228.19999694824</ele>
        <time>2024-05-20T09:33:11.000Z</time>
      </trkpt>
      <trkpt lat="46.34157" lon="4.72177">
        <ele>228.19999694824</ele>
        <time>2024-05-20T09:33:12.000Z</time>
      </trkpt>
      <trkpt lat="46.34151" lon="4.72179">
        <ele>228.19999694824</ele>
        <time>2024-05-20T09:33:13.000Z</time>
      </trkpt>
      <trkpt lat="46.34144" lon="4.72181">
        <ele>228.19999694824</ele>
        <time>2024-05-20T09:33:14.000Z</time>
      </trkpt>
      <trkpt lat="46.34138" lon="4.72182">
        <ele>228</ele>
        <time>2024-05-20T09:33:15.000Z</time>
      </trkpt>
      <trkpt lat="46.34132" lon="4.72184">
        <ele>227.80000305176</ele>
        <time>2024-05-20T09:33:16.000Z</time>
      </trkpt>
      <trkpt lat="46.34126" lon="4.72185">
        <ele>227.60000610352</ele>
        <time>2024-05-20T09:33:17.000Z</time>
      </trkpt>
      <trkpt lat="46.3412" lon="4.72186">
        <ele>227.60000610352</ele>
        <time>2024-05-20T09:33:18.000Z</time>
      </trkpt>
      <trkpt lat="46.34113" lon="4.72185">
        <ele>227.60000610352</ele>
        <time>2024-05-20T09:33:19.000Z</time>
      </trkpt>
      <trkpt lat="46.34107" lon="4.72183">
        <ele>227.39999389648</ele>
        <time>2024-05-20T09:33:20.000Z</time>
      </trkpt>
      <trkpt lat="46.34101" lon="4.72182">
        <ele>227.39999389648</ele>
        <time>2024-05-20T09:33:21.000Z</time>
      </trkpt>
      <trkpt lat="46.34096" lon="4.72181">
        <ele>227.39999389648</ele>
        <time>2024-05-20T09:33:22.000Z</time>
      </trkpt>
      <trkpt lat="46.3409" lon="4.7218">
        <ele>227.39999389648</ele>
        <time>2024-05-20T09:33:23.000Z</time>
      </trkpt>
      <trkpt lat="46.34084" lon="4.7218">
        <ele>227.60000610352</ele>
        <time>2024-05-20T09:33:24.000Z</time>
      </trkpt>
      <trkpt lat="46.34078" lon="4.7218">
        <ele>227.60000610352</ele>
        <time>2024-05-20T09:33:25.000Z</time>
      </trkpt>
      <trkpt lat="46.34072" lon="4.72179">
        <ele>227.80000305176</ele>
        <time>2024-05-20T09:33:26.000Z</time>
      </trkpt>
      <trkpt lat="46.34067" lon="4.72179">
        <ele>227.80000305176</ele>
        <time>2024-05-20T09:33:27.000Z</time>
      </trkpt>
      <trkpt lat="46.34062" lon="4.72178">
        <ele>227.80000305176</ele>
        <time>2024-05-20T09:33:28.000Z</time>
      </trkpt>
      <trkpt lat="46.34057" lon="4.72178">
        <ele>227.80000305176</ele>
        <time>2024-05-20T09:33:29.000Z</time>
      </trkpt>
      <trkpt lat="46.34052" lon="4.72176">
        <ele>227.80000305176</ele>
        <time>2024-05-20T09:33:30.000Z</time>
      </trkpt>
      <trkpt lat="46.34046" lon="4.72173">
        <ele>227.80000305176</ele>
        <time>2024-05-20T09:33:31.000Z</time>
      </trkpt>
      <trkpt lat="46.3404" lon="4.72171">
        <ele>227.80000305176</ele>
        <time>2024-05-20T09:33:32.000Z</time>
      </trkpt>
      <trkpt lat="46.34035" lon="4.7217">
        <ele>227.80000305176</ele>
        <time>2024-05-20T09:33:33.000Z</time>
      </trkpt>
      <trkpt lat="46.34029" lon="4.72169">
        <ele>227.80000305176</ele>
        <time>2024-05-20T09:33:34.000Z</time>
      </trkpt>
      <trkpt lat="46.34024" lon="4.7217">
        <ele>227.80000305176</ele>
        <time>2024-05-20T09:33:35.000Z</time>
      </trkpt>
      <trkpt lat="46.34019" lon="4.72173">
        <ele>227.80000305176</ele>
        <time>2024-05-20T09:33:36.000Z</time>
      </trkpt>
      <trkpt lat="46.34015" lon="4.72177">
        <ele>228</ele>
        <time>2024-05-20T09:33:37.000Z</time>
      </trkpt>
      <trkpt lat="46.3401" lon="4.72182">
        <ele>228</ele>
        <time>2024-05-20T09:33:38.000Z</time>
      </trkpt>
      <trkpt lat="46.34007" lon="4.72187">
        <ele>227.80000305176</ele>
        <time>2024-05-20T09:33:39.000Z</time>
      </trkpt>
      <trkpt lat="46.34003" lon="4.72192">
        <ele>227.39999389648</ele>
        <time>2024-05-20T09:33:40.000Z</time>
      </trkpt>
      <trkpt lat="46.33998" lon="4.72198">
        <ele>227</ele>
        <time>2024-05-20T09:33:41.000Z</time>
      </trkpt>
      <trkpt lat="46.33994" lon="4.72204">
        <ele>226.80000305176</ele>
        <time>2024-05-20T09:33:42.000Z</time>
      </trkpt>
      <trkpt lat="46.3399" lon="4.7221">
        <ele>226.60000610352</ele>
        <time>2024-05-20T09:33:43.000Z</time>
      </trkpt>
      <trkpt lat="46.33985" lon="4.72215">
        <ele>226.60000610352</ele>
        <time>2024-05-20T09:33:44.000Z</time>
      </trkpt>
      <trkpt lat="46.3398" lon="4.72221">
        <ele>226.60000610352</ele>
        <time>2024-05-20T09:33:45.000Z</time>
      </trkpt>
      <trkpt lat="46.33976" lon="4.72226">
        <ele>226.60000610352</ele>
        <time>2024-05-20T09:33:46.000Z</time>
      </trkpt>
      <trkpt lat="46.33971" lon="4.72232">
        <ele>226.39999389648</ele>
        <time>2024-05-20T09:33:47.000Z</time>
      </trkpt>
      <trkpt lat="46.33966" lon="4.72237">
        <ele>226.39999389648</ele>
        <time>2024-05-20T09:33:48.000Z</time>
      </trkpt>
      <trkpt lat="46.33961" lon="4.72244">
        <ele>226.39999389648</ele>
        <time>2024-05-20T09:33:49.000Z</time>
      </trkpt>
      <trkpt lat="46.33956" lon="4.7225">
        <ele>226.39999389648</ele>
        <time>2024-05-20T09:33:50.000Z</time>
      </trkpt>
      <trkpt lat="46.33951" lon="4.72256">
        <ele>226.39999389648</ele>
        <time>2024-05-20T09:33:51.000Z</time>
      </trkpt>
      <trkpt lat="46.33945" lon="4.72263">
        <ele>226.39999389648</ele>
        <time>2024-05-20T09:33:52.000Z</time>
      </trkpt>
      <trkpt lat="46.33939" lon="4.7227">
        <ele>226.39999389648</ele>
        <time>2024-05-20T09:33:53.000Z</time>
      </trkpt>
      <trkpt lat="46.33933" lon="4.72276">
        <ele>226.39999389648</ele>
        <time>2024-05-20T09:33:54.000Z</time>
      </trkpt>
      <trkpt lat="46.33927" lon="4.72284">
        <ele>226.39999389648</ele>
        <time>2024-05-20T09:33:55.000Z</time>
      </trkpt>
      <trkpt lat="46.33921" lon="4.72292">
        <ele>226.39999389648</ele>
        <time>2024-05-20T09:33:56.000Z</time>
      </trkpt>
      <trkpt lat="46.33916" lon="4.723">
        <ele>226.39999389648</ele>
        <time>2024-05-20T09:33:57.000Z</time>
      </trkpt>
      <trkpt lat="46.33911" lon="4.72306">
        <ele>226.39999389648</ele>
        <time>2024-05-20T09:33:58.000Z</time>
      </trkpt>
      <trkpt lat="46.33907" lon="4.72312">
        <ele>226.39999389648</ele>
        <time>2024-05-20T09:33:59.000Z</time>
      </trkpt>
      <trkpt lat="46.33902" lon="4.72318">
        <ele>226.39999389648</ele>
        <time>2024-05-20T09:34:00.000Z</time>
      </trkpt>
      <trkpt lat="46.33895" lon="4.72324">
        <ele>226.39999389648</ele>
        <time>2024-05-20T09:34:01.000Z</time>
      </trkpt>
      <trkpt lat="46.3389" lon="4.72331">
        <ele>226.39999389648</ele>
        <time>2024-05-20T09:34:02.000Z</time>
      </trkpt>
      <trkpt lat="46.33883" lon="4.72337">
        <ele>226.39999389648</ele>
        <time>2024-05-20T09:34:03.000Z</time>
      </trkpt>
      <trkpt lat="46.33877" lon="4.72343">
        <ele>226.39999389648</ele>
        <time>2024-05-20T09:34:04.000Z</time>
      </trkpt>
      <trkpt lat="46.33873" lon="4.7235">
        <ele>226.39999389648</ele>
        <time>2024-05-20T09:34:05.000Z</time>
      </trkpt>
      <trkpt lat="46.33867" lon="4.72357">
        <ele>226.39999389648</ele>
        <time>2024-05-20T09:34:06.000Z</time>
      </trkpt>
      <trkpt lat="46.33861" lon="4.72364">
        <ele>226.19999694824</ele>
        <time>2024-05-20T09:34:07.000Z</time>
      </trkpt>
      <trkpt lat="46.33856" lon="4.72369">
        <ele>226</ele>
        <time>2024-05-20T09:34:08.000Z</time>
      </trkpt>
      <trkpt lat="46.33852" lon="4.72375">
        <ele>226</ele>
        <time>2024-05-20T09:34:09.000Z</time>
      </trkpt>
      <trkpt lat="46.3385" lon="4.72383">
        <ele>226</ele>
        <time>2024-05-20T09:34:10.000Z</time>
      </trkpt>
      <trkpt lat="46.33846" lon="4.72391">
        <ele>226</ele>
        <time>2024-05-20T09:34:11.000Z</time>
      </trkpt>
      <trkpt lat="46.33842" lon="4.72399">
        <ele>226</ele>
        <time>2024-05-20T09:34:12.000Z</time>
      </trkpt>
      <trkpt lat="46.33836" lon="4.72405">
        <ele>226</ele>
        <time>2024-05-20T09:34:13.000Z</time>
      </trkpt>
      <trkpt lat="46.3383" lon="4.7241">
        <ele>226</ele>
        <time>2024-05-20T09:34:14.000Z</time>
      </trkpt>
      <trkpt lat="46.33824" lon="4.72415">
        <ele>226</ele>
        <time>2024-05-20T09:34:15.000Z</time>
      </trkpt>
      <trkpt lat="46.33819" lon="4.7242">
        <ele>226</ele>
        <time>2024-05-20T09:34:16.000Z</time>
      </trkpt>
      <trkpt lat="46.33813" lon="4.72426">
        <ele>226</ele>
        <time>2024-05-20T09:34:17.000Z</time>
      </trkpt>
      <trkpt lat="46.33806" lon="4.72433">
        <ele>226</ele>
        <time>2024-05-20T09:34:18.000Z</time>
      </trkpt>
      <trkpt lat="46.33801" lon="4.72439">
        <ele>225.80000305176</ele>
        <time>2024-05-20T09:34:19.000Z</time>
      </trkpt>
      <trkpt lat="46.33794" lon="4.72446">
        <ele>225.60000610352</ele>
        <time>2024-05-20T09:34:20.000Z</time>
      </trkpt>
      <trkpt lat="46.33789" lon="4.72452">
        <ele>225.39999389648</ele>
        <time>2024-05-20T09:34:21.000Z</time>
      </trkpt>
      <trkpt lat="46.33783" lon="4.72457">
        <ele>225.39999389648</ele>
        <time>2024-05-20T09:34:22.000Z</time>
      </trkpt>
      <trkpt lat="46.33779" lon="4.72462">
        <ele>225.19999694824</ele>
        <time>2024-05-20T09:34:23.000Z</time>
      </trkpt>
      <trkpt lat="46.33773" lon="4.72468">
        <ele>225.19999694824</ele>
        <time>2024-05-20T09:34:24.000Z</time>
      </trkpt>
      <trkpt lat="46.33768" lon="4.72473">
        <ele>225</ele>
        <time>2024-05-20T09:34:25.000Z</time>
      </trkpt>
      <trkpt lat="46.33763" lon="4.72479">
        <ele>224.60000610352</ele>
        <time>2024-05-20T09:34:26.000Z</time>
      </trkpt>
      <trkpt lat="46.33759" lon="4.72486">
        <ele>224.60000610352</ele>
        <time>2024-05-20T09:34:27.000Z</time>
      </trkpt>
      <trkpt lat="46.33754" lon="4.72493">
        <ele>224.39999389648</ele>
        <time>2024-05-20T09:34:28.000Z</time>
      </trkpt>
      <trkpt lat="46.3375" lon="4.72498">
        <ele>224.19999694824</ele>
        <time>2024-05-20T09:34:29.000Z</time>
      </trkpt>
      <trkpt lat="46.33744" lon="4.72506">
        <ele>224.19999694824</ele>
        <time>2024-05-20T09:34:30.000Z</time>
      </trkpt>
      <trkpt lat="46.33738" lon="4.72512">
        <ele>224</ele>
        <time>2024-05-20T09:34:31.000Z</time>
      </trkpt>
      <trkpt lat="46.33733" lon="4.72519">
        <ele>224</ele>
        <time>2024-05-20T09:34:32.000Z</time>
      </trkpt>
      <trkpt lat="46.3373" lon="4.72525">
        <ele>224</ele>
        <time>2024-05-20T09:34:33.000Z</time>
      </trkpt>
      <trkpt lat="46.33725" lon="4.72532">
        <ele>224</ele>
        <time>2024-05-20T09:34:34.000Z</time>
      </trkpt>
      <trkpt lat="46.33719" lon="4.72541">
        <ele>224</ele>
        <time>2024-05-20T09:34:35.000Z</time>
      </trkpt>
      <trkpt lat="46.33713" lon="4.72548">
        <ele>223.80000305176</ele>
        <time>2024-05-20T09:34:36.000Z</time>
      </trkpt>
      <trkpt lat="46.33708" lon="4.72554">
        <ele>223.80000305176</ele>
        <time>2024-05-20T09:34:37.000Z</time>
      </trkpt>
      <trkpt lat="46.33704" lon="4.7256">
        <ele>223.80000305176</ele>
        <time>2024-05-20T09:34:38.000Z</time>
      </trkpt>
      <trkpt lat="46.33699" lon="4.72567">
        <ele>223.80000305176</ele>
        <time>2024-05-20T09:34:39.000Z</time>
      </trkpt>
      <trkpt lat="46.33695" lon="4.72573">
        <ele>223.80000305176</ele>
        <time>2024-05-20T09:34:40.000Z</time>
      </trkpt>
      <trkpt lat="46.33689" lon="4.72581">
        <ele>223.80000305176</ele>
        <time>2024-05-20T09:34:41.000Z</time>
      </trkpt>
      <trkpt lat="46.33684" lon="4.72588">
        <ele>223.80000305176</ele>
        <time>2024-05-20T09:34:42.000Z</time>
      </trkpt>
      <trkpt lat="46.33679" lon="4.72596">
        <ele>223.80000305176</ele>
        <time>2024-05-20T09:34:43.000Z</time>
      </trkpt>
      <trkpt lat="46.33674" lon="4.72603">
        <ele>223.80000305176</ele>
        <time>2024-05-20T09:34:44.000Z</time>
      </trkpt>
      <trkpt lat="46.33669" lon="4.7261">
        <ele>223.80000305176</ele>
        <time>2024-05-20T09:34:45.000Z</time>
      </trkpt>
      <trkpt lat="46.33664" lon="4.72618">
        <ele>223.60000610352</ele>
        <time>2024-05-20T09:34:46.000Z</time>
      </trkpt>
      <trkpt lat="46.33658" lon="4.72625">
        <ele>223.60000610352</ele>
        <time>2024-05-20T09:34:47.000Z</time>
      </trkpt>
      <trkpt lat="46.33653" lon="4.72632">
        <ele>223.39999389648</ele>
        <time>2024-05-20T09:34:48.000Z</time>
      </trkpt>
      <trkpt lat="46.33648" lon="4.72638">
        <ele>223.39999389648</ele>
        <time>2024-05-20T09:34:49.000Z</time>
      </trkpt>
      <trkpt lat="46.33643" lon="4.72646">
        <ele>223.39999389648</ele>
        <time>2024-05-20T09:34:50.000Z</time>
      </trkpt>
      <trkpt lat="46.33637" lon="4.72655">
        <ele>223.19999694824</ele>
        <time>2024-05-20T09:34:51.000Z</time>
      </trkpt>
      <trkpt lat="46.33632" lon="4.72662">
        <ele>223</ele>
        <time>2024-05-20T09:34:52.000Z</time>
      </trkpt>
      <trkpt lat="46.33627" lon="4.7267">
        <ele>223</ele>
        <time>2024-05-20T09:34:53.000Z</time>
      </trkpt>
      <trkpt lat="46.33622" lon="4.72678">
        <ele>222.80000305176</ele>
        <time>2024-05-20T09:34:54.000Z</time>
      </trkpt>
      <trkpt lat="46.33617" lon="4.72686">
        <ele>222.80000305176</ele>
        <time>2024-05-20T09:34:55.000Z</time>
      </trkpt>
      <trkpt lat="46.33612" lon="4.72694">
        <ele>222.80000305176</ele>
        <time>2024-05-20T09:34:56.000Z</time>
      </trkpt>
      <trkpt lat="46.33608" lon="4.72703">
        <ele>222.80000305176</ele>
        <time>2024-05-20T09:34:57.000Z</time>
      </trkpt>
      <trkpt lat="46.33603" lon="4.7271">
        <ele>222.80000305176</ele>
        <time>2024-05-20T09:34:58.000Z</time>
      </trkpt>
      <trkpt lat="46.33599" lon="4.72718">
        <ele>222.80000305176</ele>
        <time>2024-05-20T09:34:59.000Z</time>
      </trkpt>
      <trkpt lat="46.33595" lon="4.72723">
        <ele>222.80000305176</ele>
        <time>2024-05-20T09:35:00.000Z</time>
      </trkpt>
      <trkpt lat="46.3359" lon="4.72732">
        <ele>222.80000305176</ele>
        <time>2024-05-20T09:35:01.000Z</time>
      </trkpt>
      <trkpt lat="46.33585" lon="4.7274">
        <ele>222.80000305176</ele>
        <time>2024-05-20T09:35:02.000Z</time>
      </trkpt>
      <trkpt lat="46.33581" lon="4.72747">
        <ele>222.80000305176</ele>
        <time>2024-05-20T09:35:03.000Z</time>
      </trkpt>
      <trkpt lat="46.33576" lon="4.72756">
        <ele>222.60000610352</ele>
        <time>2024-05-20T09:35:04.000Z</time>
      </trkpt>
      <trkpt lat="46.33571" lon="4.72764">
        <ele>222.39999389648</ele>
        <time>2024-05-20T09:35:05.000Z</time>
      </trkpt>
      <trkpt lat="46.33568" lon="4.72771">
        <ele>222.39999389648</ele>
        <time>2024-05-20T09:35:06.000Z</time>
      </trkpt>
      <trkpt lat="46.33563" lon="4.72779">
        <ele>222</ele>
        <time>2024-05-20T09:35:07.000Z</time>
      </trkpt>
      <trkpt lat="46.33559" lon="4.72787">
        <ele>222</ele>
        <time>2024-05-20T09:35:08.000Z</time>
      </trkpt>
      <trkpt lat="46.33553" lon="4.72797">
        <ele>221.80000305176</ele>
        <time>2024-05-20T09:35:09.000Z</time>
      </trkpt>
      <trkpt lat="46.33548" lon="4.72805">
        <ele>221.60000610352</ele>
        <time>2024-05-20T09:35:10.000Z</time>
      </trkpt>
      <trkpt lat="46.33543" lon="4.72813">
        <ele>221.60000610352</ele>
        <time>2024-05-20T09:35:11.000Z</time>
      </trkpt>
      <trkpt lat="46.33538" lon="4.72821">
        <ele>221.60000610352</ele>
        <time>2024-05-20T09:35:12.000Z</time>
      </trkpt>
      <trkpt lat="46.33534" lon="4.72829">
        <ele>221.39999389648</ele>
        <time>2024-05-20T09:35:13.000Z</time>
      </trkpt>
      <trkpt lat="46.33529" lon="4.72837">
        <ele>221.39999389648</ele>
        <time>2024-05-20T09:35:14.000Z</time>
      </trkpt>
      <trkpt lat="46.33525" lon="4.72846">
        <ele>221.19999694824</ele>
        <time>2024-05-20T09:35:15.000Z</time>
      </trkpt>
      <trkpt lat="46.33521" lon="4.72852">
        <ele>221.19999694824</ele>
        <time>2024-05-20T09:35:16.000Z</time>
      </trkpt>
      <trkpt lat="46.33515" lon="4.72862">
        <ele>221.19999694824</ele>
        <time>2024-05-20T09:35:17.000Z</time>
      </trkpt>
      <trkpt lat="46.3351" lon="4.7287">
        <ele>221</ele>
        <time>2024-05-20T09:35:18.000Z</time>
      </trkpt>
      <trkpt lat="46.33506" lon="4.72877">
        <ele>220.80000305176</ele>
        <time>2024-05-20T09:35:19.000Z</time>
      </trkpt>
      <trkpt lat="46.33501" lon="4.72884">
        <ele>220.60000610352</ele>
        <time>2024-05-20T09:35:20.000Z</time>
      </trkpt>
      <trkpt lat="46.33497" lon="4.72891">
        <ele>220</ele>
        <time>2024-05-20T09:35:21.000Z</time>
      </trkpt>
      <trkpt lat="46.33494" lon="4.72896">
        <ele>219.80000305176</ele>
        <time>2024-05-20T09:35:22.000Z</time>
      </trkpt>
      <trkpt lat="46.3349" lon="4.72903">
        <ele>219.80000305176</ele>
        <time>2024-05-20T09:35:23.000Z</time>
      </trkpt>
      <trkpt lat="46.33487" lon="4.7291">
        <ele>219.80000305176</ele>
        <time>2024-05-20T09:35:24.000Z</time>
      </trkpt>
      <trkpt lat="46.33486" lon="4.72918">
        <ele>219.80000305176</ele>
        <time>2024-05-20T09:35:25.000Z</time>
      </trkpt>
      <trkpt lat="46.33487" lon="4.72926">
        <ele>219.80000305176</ele>
        <time>2024-05-20T09:35:26.000Z</time>
      </trkpt>
      <trkpt lat="46.3349" lon="4.72931">
        <ele>219.80000305176</ele>
        <time>2024-05-20T09:35:27.000Z</time>
      </trkpt>
      <trkpt lat="46.33494" lon="4.72934">
        <ele>220.19999694824</ele>
        <time>2024-05-20T09:35:28.000Z</time>
      </trkpt>
      <trkpt lat="46.33497" lon="4.72935">
        <ele>220.19999694824</ele>
        <time>2024-05-20T09:35:29.000Z</time>
      </trkpt>
      <trkpt lat="46.33501" lon="4.72937">
        <ele>220.60000610352</ele>
        <time>2024-05-20T09:35:30.000Z</time>
      </trkpt>
      <trkpt lat="46.33506" lon="4.72939">
        <ele>221</ele>
        <time>2024-05-20T09:35:31.000Z</time>
      </trkpt>
      <trkpt lat="46.3351" lon="4.72941">
        <ele>221.39999389648</ele>
        <time>2024-05-20T09:35:32.000Z</time>
      </trkpt>
      <trkpt lat="46.33512" lon="4.72943">
        <ele>221.60000610352</ele>
        <time>2024-05-20T09:35:33.000Z</time>
      </trkpt>
      <trkpt lat="46.33515" lon="4.72947">
        <ele>222</ele>
        <time>2024-05-20T09:35:34.000Z</time>
      </trkpt>
      <trkpt lat="46.33515" lon="4.72952">
        <ele>222.19999694824</ele>
        <time>2024-05-20T09:35:35.000Z</time>
      </trkpt>
      <trkpt lat="46.33515" lon="4.72957">
        <ele>222.80000305176</ele>
        <time>2024-05-20T09:35:36.000Z</time>
      </trkpt>
      <trkpt lat="46.33514" lon="4.72962">
        <ele>223</ele>
        <time>2024-05-20T09:35:37.000Z</time>
      </trkpt>
      <trkpt lat="46.33513" lon="4.72967">
        <ele>223</ele>
        <time>2024-05-20T09:35:38.000Z</time>
      </trkpt>
      <trkpt lat="46.33512" lon="4.72973">
        <ele>223</ele>
        <time>2024-05-20T09:35:39.000Z</time>
      </trkpt>
      <trkpt lat="46.3351" lon="4.72981">
        <ele>223</ele>
        <time>2024-05-20T09:35:40.000Z</time>
      </trkpt>
      <trkpt lat="46.33509" lon="4.72989">
        <ele>222.80000305176</ele>
        <time>2024-05-20T09:35:41.000Z</time>
      </trkpt>
      <trkpt lat="46.33507" lon="4.72997">
        <ele>222.60000610352</ele>
        <time>2024-05-20T09:35:42.000Z</time>
      </trkpt>
      <trkpt lat="46.33506" lon="4.73003">
        <ele>222.39999389648</ele>
        <time>2024-05-20T09:35:43.000Z</time>
      </trkpt>
      <trkpt lat="46.33504" lon="4.73011">
        <ele>222.39999389648</ele>
        <time>2024-05-20T09:35:44.000Z</time>
      </trkpt>
      <trkpt lat="46.33502" lon="4.73017">
        <ele>222.39999389648</ele>
        <time>2024-05-20T09:35:45.000Z</time>
      </trkpt>
      <trkpt lat="46.33501" lon="4.73024">
        <ele>222.39999389648</ele>
        <time>2024-05-20T09:35:46.000Z</time>
      </trkpt>
      <trkpt lat="46.33499" lon="4.73033">
        <ele>222.39999389648</ele>
        <time>2024-05-20T09:35:47.000Z</time>
      </trkpt>
      <trkpt lat="46.33497" lon="4.7304">
        <ele>222.39999389648</ele>
        <time>2024-05-20T09:35:48.000Z</time>
      </trkpt>
      <trkpt lat="46.33496" lon="4.73048">
        <ele>222.39999389648</ele>
        <time>2024-05-20T09:35:49.000Z</time>
      </trkpt>
      <trkpt lat="46.33494" lon="4.73056">
        <ele>222.19999694824</ele>
        <time>2024-05-20T09:35:50.000Z</time>
      </trkpt>
      <trkpt lat="46.33493" lon="4.73063">
        <ele>222.19999694824</ele>
        <time>2024-05-20T09:35:51.000Z</time>
      </trkpt>
      <trkpt lat="46.33491" lon="4.7307">
        <ele>222.19999694824</ele>
        <time>2024-05-20T09:35:52.000Z</time>
      </trkpt>
      <trkpt lat="46.33489" lon="4.73076">
        <ele>222.19999694824</ele>
        <time>2024-05-20T09:35:53.000Z</time>
      </trkpt>
      <trkpt lat="46.33486" lon="4.73083">
        <ele>222.39999389648</ele>
        <time>2024-05-20T09:35:54.000Z</time>
      </trkpt>
      <trkpt lat="46.33483" lon="4.73088">
        <ele>222.80000305176</ele>
        <time>2024-05-20T09:35:55.000Z</time>
      </trkpt>
      <trkpt lat="46.33479" lon="4.73095">
        <ele>223</ele>
        <time>2024-05-20T09:35:56.000Z</time>
      </trkpt>
      <trkpt lat="46.33475" lon="4.73101">
        <ele>223.19999694824</ele>
        <time>2024-05-20T09:35:57.000Z</time>
      </trkpt>
      <trkpt lat="46.33471" lon="4.73107">
        <ele>223.19999694824</ele>
        <time>2024-05-20T09:35:58.000Z</time>
      </trkpt>
      <trkpt lat="46.33468" lon="4.73114">
        <ele>223.19999694824</ele>
        <time>2024-05-20T09:35:59.000Z</time>
      </trkpt>
      <trkpt lat="46.33465" lon="4.73121">
        <ele>223.19999694824</ele>
        <time>2024-05-20T09:36:00.000Z</time>
      </trkpt>
      <trkpt lat="46.33463" lon="4.73128">
        <ele>223.19999694824</ele>
        <time>2024-05-20T09:36:01.000Z</time>
      </trkpt>
      <trkpt lat="46.33461" lon="4.73135">
        <ele>223.19999694824</ele>
        <time>2024-05-20T09:36:02.000Z</time>
      </trkpt>
      <trkpt lat="46.33459" lon="4.73142">
        <ele>223.19999694824</ele>
        <time>2024-05-20T09:36:03.000Z</time>
      </trkpt>
      <trkpt lat="46.33457" lon="4.73149">
        <ele>223.19999694824</ele>
        <time>2024-05-20T09:36:04.000Z</time>
      </trkpt>
      <trkpt lat="46.33455" lon="4.73156">
        <ele>223.19999694824</ele>
        <time>2024-05-20T09:36:05.000Z</time>
      </trkpt>
      <trkpt lat="46.33454" lon="4.73162">
        <ele>223</ele>
        <time>2024-05-20T09:36:06.000Z</time>
      </trkpt>
      <trkpt lat="46.33452" lon="4.73167">
        <ele>223</ele>
        <time>2024-05-20T09:36:07.000Z</time>
      </trkpt>
      <trkpt lat="46.33451" lon="4.73171">
        <ele>223</ele>
        <time>2024-05-20T09:36:08.000Z</time>
      </trkpt>
      <trkpt lat="46.33451" lon="4.73174">
        <ele>223</ele>
        <time>2024-05-20T09:36:09.000Z</time>
      </trkpt>
      <trkpt lat="46.33451" lon="4.73175">
        <ele>223</ele>
        <time>2024-05-20T09:36:10.000Z</time>
      </trkpt>
      <trkpt lat="46.33451" lon="4.73175">
        <ele>223</ele>
        <time>2024-05-20T09:36:11.000Z</time>
      </trkpt>
      <trkpt lat="46.33454" lon="4.73182">
        <ele>223</ele>
        <time>2024-05-20T09:36:16.000Z</time>
      </trkpt>
      <trkpt lat="46.33454" lon="4.73186">
        <ele>223</ele>
        <time>2024-05-20T09:36:17.000Z</time>
      </trkpt>
      <trkpt lat="46.33454" lon="4.73189">
        <ele>222.80000305176</ele>
        <time>2024-05-20T09:36:18.000Z</time>
      </trkpt>
      <trkpt lat="46.33456" lon="4.73192">
        <ele>222.80000305176</ele>
        <time>2024-05-20T09:36:19.000Z</time>
      </trkpt>
      <trkpt lat="46.33457" lon="4.73197">
        <ele>222.39999389648</ele>
        <time>2024-05-20T09:36:20.000Z</time>
      </trkpt>
      <trkpt lat="46.33457" lon="4.73201">
        <ele>222.19999694824</ele>
        <time>2024-05-20T09:36:21.000Z</time>
      </trkpt>
      <trkpt lat="46.33455" lon="4.73207">
        <ele>221.60000610352</ele>
        <time>2024-05-20T09:36:22.000Z</time>
      </trkpt>
      <trkpt lat="46.33454" lon="4.73211">
        <ele>221.39999389648</ele>
        <time>2024-05-20T09:36:23.000Z</time>
      </trkpt>
      <trkpt lat="46.33452" lon="4.73217">
        <ele>221.39999389648</ele>
        <time>2024-05-20T09:36:24.000Z</time>
      </trkpt>
      <trkpt lat="46.3345" lon="4.73223">
        <ele>221</ele>
        <time>2024-05-20T09:36:25.000Z</time>
      </trkpt>
      <trkpt lat="46.33448" lon="4.7323">
        <ele>221</ele>
        <time>2024-05-20T09:36:26.000Z</time>
      </trkpt>
      <trkpt lat="46.33445" lon="4.73236">
        <ele>220.80000305176</ele>
        <time>2024-05-20T09:36:27.000Z</time>
      </trkpt>
      <trkpt lat="46.33443" lon="4.73244">
        <ele>220.60000610352</ele>
        <time>2024-05-20T09:36:28.000Z</time>
      </trkpt>
      <trkpt lat="46.33441" lon="4.73251">
        <ele>220.39999389648</ele>
        <time>2024-05-20T09:36:29.000Z</time>
      </trkpt>
      <trkpt lat="46.33439" lon="4.73258">
        <ele>220.19999694824</ele>
        <time>2024-05-20T09:36:30.000Z</time>
      </trkpt>
      <trkpt lat="46.33436" lon="4.73265">
        <ele>220.19999694824</ele>
        <time>2024-05-20T09:36:31.000Z</time>
      </trkpt>
      <trkpt lat="46.33434" lon="4.73273">
        <ele>220</ele>
        <time>2024-05-20T09:36:32.000Z</time>
      </trkpt>
      <trkpt lat="46.33432" lon="4.73282">
        <ele>219.80000305176</ele>
        <time>2024-05-20T09:36:33.000Z</time>
      </trkpt>
      <trkpt lat="46.3343" lon="4.7329">
        <ele>219.80000305176</ele>
        <time>2024-05-20T09:36:34.000Z</time>
      </trkpt>
      <trkpt lat="46.33428" lon="4.73299">
        <ele>219.80000305176</ele>
        <time>2024-05-20T09:36:35.000Z</time>
      </trkpt>
      <trkpt lat="46.33425" lon="4.73307">
        <ele>219.80000305176</ele>
        <time>2024-05-20T09:36:36.000Z</time>
      </trkpt>
      <trkpt lat="46.33423" lon="4.73315">
        <ele>219.80000305176</ele>
        <time>2024-05-20T09:36:37.000Z</time>
      </trkpt>
      <trkpt lat="46.33421" lon="4.73323">
        <ele>219.60000610352</ele>
        <time>2024-05-20T09:36:38.000Z</time>
      </trkpt>
      <trkpt lat="46.33419" lon="4.73332">
        <ele>219.60000610352</ele>
        <time>2024-05-20T09:36:39.000Z</time>
      </trkpt>
      <trkpt lat="46.33416" lon="4.7334">
        <ele>219.60000610352</ele>
        <time>2024-05-20T09:36:40.000Z</time>
      </trkpt>
      <trkpt lat="46.33414" lon="4.73348">
        <ele>219.60000610352</ele>
        <time>2024-05-20T09:36:41.000Z</time>
      </trkpt>
      <trkpt lat="46.33412" lon="4.73354">
        <ele>219.60000610352</ele>
        <time>2024-05-20T09:36:42.000Z</time>
      </trkpt>
      <trkpt lat="46.33409" lon="4.73363">
        <ele>219.60000610352</ele>
        <time>2024-05-20T09:36:43.000Z</time>
      </trkpt>
      <trkpt lat="46.33407" lon="4.7337">
        <ele>219.60000610352</ele>
        <time>2024-05-20T09:36:44.000Z</time>
      </trkpt>
      <trkpt lat="46.33405" lon="4.73378">
        <ele>219.60000610352</ele>
        <time>2024-05-20T09:36:45.000Z</time>
      </trkpt>
      <trkpt lat="46.33403" lon="4.73387">
        <ele>219.39999389648</ele>
        <time>2024-05-20T09:36:46.000Z</time>
      </trkpt>
      <trkpt lat="46.334" lon="4.73394">
        <ele>219.39999389648</ele>
        <time>2024-05-20T09:36:47.000Z</time>
      </trkpt>
      <trkpt lat="46.33398" lon="4.734">
        <ele>219.19999694824</ele>
        <time>2024-05-20T09:36:48.000Z</time>
      </trkpt>
      <trkpt lat="46.33395" lon="4.73408">
        <ele>219.19999694824</ele>
        <time>2024-05-20T09:36:49.000Z</time>
      </trkpt>
      <trkpt lat="46.33392" lon="4.73417">
        <ele>219.19999694824</ele>
        <time>2024-05-20T09:36:50.000Z</time>
      </trkpt>
      <trkpt lat="46.3339" lon="4.73424">
        <ele>219.19999694824</ele>
        <time>2024-05-20T09:36:51.000Z</time>
      </trkpt>
      <trkpt lat="46.33388" lon="4.73433">
        <ele>219.19999694824</ele>
        <time>2024-05-20T09:36:52.000Z</time>
      </trkpt>
      <trkpt lat="46.33384" lon="4.73443">
        <ele>219.19999694824</ele>
        <time>2024-05-20T09:36:53.000Z</time>
      </trkpt>
      <trkpt lat="46.33382" lon="4.73452">
        <ele>219.19999694824</ele>
        <time>2024-05-20T09:36:54.000Z</time>
      </trkpt>
      <trkpt lat="46.33379" lon="4.73461">
        <ele>219.19999694824</ele>
        <time>2024-05-20T09:36:55.000Z</time>
      </trkpt>
      <trkpt lat="46.33377" lon="4.73469">
        <ele>219.19999694824</ele>
        <time>2024-05-20T09:36:56.000Z</time>
      </trkpt>
      <trkpt lat="46.33374" lon="4.73478">
        <ele>219</ele>
        <time>2024-05-20T09:36:57.000Z</time>
      </trkpt>
      <trkpt lat="46.33371" lon="4.73487">
        <ele>218.80000305176</ele>
        <time>2024-05-20T09:36:58.000Z</time>
      </trkpt>
      <trkpt lat="46.33368" lon="4.73495">
        <ele>218.39999389648</ele>
        <time>2024-05-20T09:36:59.000Z</time>
      </trkpt>
      <trkpt lat="46.33366" lon="4.73503">
        <ele>218.39999389648</ele>
        <time>2024-05-20T09:37:00.000Z</time>
      </trkpt>
      <trkpt lat="46.33363" lon="4.73511">
        <ele>218.39999389648</ele>
        <time>2024-05-20T09:37:01.000Z</time>
      </trkpt>
      <trkpt lat="46.33361" lon="4.7352">
        <ele>218.39999389648</ele>
        <time>2024-05-20T09:37:02.000Z</time>
      </trkpt>
      <trkpt lat="46.33359" lon="4.73529">
        <ele>218.39999389648</ele>
        <time>2024-05-20T09:37:03.000Z</time>
      </trkpt>
      <trkpt lat="46.33357" lon="4.73537">
        <ele>218.39999389648</ele>
        <time>2024-05-20T09:37:04.000Z</time>
      </trkpt>
      <trkpt lat="46.33355" lon="4.73546">
        <ele>218.39999389648</ele>
        <time>2024-05-20T09:37:05.000Z</time>
      </trkpt>
      <trkpt lat="46.33353" lon="4.73554">
        <ele>218.39999389648</ele>
        <time>2024-05-20T09:37:06.000Z</time>
      </trkpt>
      <trkpt lat="46.33351" lon="4.73563">
        <ele>218.39999389648</ele>
        <time>2024-05-20T09:37:07.000Z</time>
      </trkpt>
      <trkpt lat="46.33349" lon="4.73571">
        <ele>218.39999389648</ele>
        <time>2024-05-20T09:37:08.000Z</time>
      </trkpt>
      <trkpt lat="46.33347" lon="4.73579">
        <ele>218.39999389648</ele>
        <time>2024-05-20T09:37:09.000Z</time>
      </trkpt>
      <trkpt lat="46.33345" lon="4.73588">
        <ele>218.39999389648</ele>
        <time>2024-05-20T09:37:10.000Z</time>
      </trkpt>
      <trkpt lat="46.33342" lon="4.73596">
        <ele>218.39999389648</ele>
        <time>2024-05-20T09:37:11.000Z</time>
      </trkpt>
      <trkpt lat="46.3334" lon="4.73605">
        <ele>218.19999694824</ele>
        <time>2024-05-20T09:37:12.000Z</time>
      </trkpt>
      <trkpt lat="46.33338" lon="4.73613">
        <ele>218.19999694824</ele>
        <time>2024-05-20T09:37:13.000Z</time>
      </trkpt>
      <trkpt lat="46.33337" lon="4.73622">
        <ele>218.19999694824</ele>
        <time>2024-05-20T09:37:14.000Z</time>
      </trkpt>
      <trkpt lat="46.33335" lon="4.7363">
        <ele>218.19999694824</ele>
        <time>2024-05-20T09:37:15.000Z</time>
      </trkpt>
      <trkpt lat="46.33333" lon="4.73638">
        <ele>218.19999694824</ele>
        <time>2024-05-20T09:37:16.000Z</time>
      </trkpt>
      <trkpt lat="46.33331" lon="4.73646">
        <ele>218.19999694824</ele>
        <time>2024-05-20T09:37:17.000Z</time>
      </trkpt>
      <trkpt lat="46.33329" lon="4.73654">
        <ele>218.19999694824</ele>
        <time>2024-05-20T09:37:18.000Z</time>
      </trkpt>
      <trkpt lat="46.33327" lon="4.73663">
        <ele>218.19999694824</ele>
        <time>2024-05-20T09:37:19.000Z</time>
      </trkpt>
      <trkpt lat="46.33326" lon="4.73671">
        <ele>218.19999694824</ele>
        <time>2024-05-20T09:37:20.000Z</time>
      </trkpt>
      <trkpt lat="46.33324" lon="4.73679">
        <ele>218.19999694824</ele>
        <time>2024-05-20T09:37:21.000Z</time>
      </trkpt>
      <trkpt lat="46.33322" lon="4.73688">
        <ele>218</ele>
        <time>2024-05-20T09:37:22.000Z</time>
      </trkpt>
      <trkpt lat="46.3332" lon="4.73696">
        <ele>218</ele>
        <time>2024-05-20T09:37:23.000Z</time>
      </trkpt>
      <trkpt lat="46.33318" lon="4.73705">
        <ele>217.80000305176</ele>
        <time>2024-05-20T09:37:24.000Z</time>
      </trkpt>
      <trkpt lat="46.33317" lon="4.73714">
        <ele>217.80000305176</ele>
        <time>2024-05-20T09:37:25.000Z</time>
      </trkpt>
      <trkpt lat="46.33315" lon="4.73722">
        <ele>217.80000305176</ele>
        <time>2024-05-20T09:37:26.000Z</time>
      </trkpt>
      <trkpt lat="46.33313" lon="4.73731">
        <ele>217.80000305176</ele>
        <time>2024-05-20T09:37:27.000Z</time>
      </trkpt>
      <trkpt lat="46.33311" lon="4.73742">
        <ele>217.60000610352</ele>
        <time>2024-05-20T09:37:28.000Z</time>
      </trkpt>
      <trkpt lat="46.33309" lon="4.7375">
        <ele>217.39999389648</ele>
        <time>2024-05-20T09:37:29.000Z</time>
      </trkpt>
      <trkpt lat="46.33307" lon="4.73759">
        <ele>217.39999389648</ele>
        <time>2024-05-20T09:37:30.000Z</time>
      </trkpt>
      <trkpt lat="46.33305" lon="4.73768">
        <ele>217.19999694824</ele>
        <time>2024-05-20T09:37:31.000Z</time>
      </trkpt>
      <trkpt lat="46.33302" lon="4.73779">
        <ele>217</ele>
        <time>2024-05-20T09:37:32.000Z</time>
      </trkpt>
      <trkpt lat="46.33299" lon="4.73788">
        <ele>217</ele>
        <time>2024-05-20T09:37:33.000Z</time>
      </trkpt>
      <trkpt lat="46.33297" lon="4.73799">
        <ele>217</ele>
        <time>2024-05-20T09:37:34.000Z</time>
      </trkpt>
      <trkpt lat="46.33295" lon="4.73806">
        <ele>217</ele>
        <time>2024-05-20T09:37:35.000Z</time>
      </trkpt>
      <trkpt lat="46.33292" lon="4.73818">
        <ele>217</ele>
        <time>2024-05-20T09:37:36.000Z</time>
      </trkpt>
      <trkpt lat="46.33289" lon="4.73826">
        <ele>217</ele>
        <time>2024-05-20T09:37:37.000Z</time>
      </trkpt>
      <trkpt lat="46.33287" lon="4.73834">
        <ele>217</ele>
        <time>2024-05-20T09:37:38.000Z</time>
      </trkpt>
      <trkpt lat="46.33285" lon="4.73842">
        <ele>217.19999694824</ele>
        <time>2024-05-20T09:37:39.000Z</time>
      </trkpt>
      <trkpt lat="46.33283" lon="4.73851">
        <ele>217.39999389648</ele>
        <time>2024-05-20T09:37:40.000Z</time>
      </trkpt>
      <trkpt lat="46.3328" lon="4.7386">
        <ele>217.39999389648</ele>
        <time>2024-05-20T09:37:41.000Z</time>
      </trkpt>
      <trkpt lat="46.33277" lon="4.73869">
        <ele>217.39999389648</ele>
        <time>2024-05-20T09:37:42.000Z</time>
      </trkpt>
      <trkpt lat="46.33275" lon="4.73879">
        <ele>217.39999389648</ele>
        <time>2024-05-20T09:37:43.000Z</time>
      </trkpt>
      <trkpt lat="46.33272" lon="4.73888">
        <ele>217</ele>
        <time>2024-05-20T09:37:44.000Z</time>
      </trkpt>
      <trkpt lat="46.3327" lon="4.73898">
        <ele>217</ele>
        <time>2024-05-20T09:37:45.000Z</time>
      </trkpt>
      <trkpt lat="46.33268" lon="4.73907">
        <ele>216.80000305176</ele>
        <time>2024-05-20T09:37:46.000Z</time>
      </trkpt>
      <trkpt lat="46.33265" lon="4.73916">
        <ele>216.60000610352</ele>
        <time>2024-05-20T09:37:47.000Z</time>
      </trkpt>
      <trkpt lat="46.33263" lon="4.73926">
        <ele>216.39999389648</ele>
        <time>2024-05-20T09:37:48.000Z</time>
      </trkpt>
      <trkpt lat="46.3326" lon="4.73935">
        <ele>216.39999389648</ele>
        <time>2024-05-20T09:37:49.000Z</time>
      </trkpt>
      <trkpt lat="46.33258" lon="4.73944">
        <ele>216.19999694824</ele>
        <time>2024-05-20T09:37:50.000Z</time>
      </trkpt>
      <trkpt lat="46.33255" lon="4.73954">
        <ele>216.19999694824</ele>
        <time>2024-05-20T09:37:51.000Z</time>
      </trkpt>
      <trkpt lat="46.33253" lon="4.73963">
        <ele>216.19999694824</ele>
        <time>2024-05-20T09:37:52.000Z</time>
      </trkpt>
      <trkpt lat="46.33251" lon="4.73973">
        <ele>216.19999694824</ele>
        <time>2024-05-20T09:37:53.000Z</time>
      </trkpt>
      <trkpt lat="46.33248" lon="4.73983">
        <ele>216</ele>
        <time>2024-05-20T09:37:54.000Z</time>
      </trkpt>
      <trkpt lat="46.33246" lon="4.73992">
        <ele>215.60000610352</ele>
        <time>2024-05-20T09:37:55.000Z</time>
      </trkpt>
      <trkpt lat="46.33244" lon="4.74002">
        <ele>215.39999389648</ele>
        <time>2024-05-20T09:37:56.000Z</time>
      </trkpt>
      <trkpt lat="46.33241" lon="4.74011">
        <ele>215</ele>
        <time>2024-05-20T09:37:57.000Z</time>
      </trkpt>
      <trkpt lat="46.33239" lon="4.74021">
        <ele>214.80000305176</ele>
        <time>2024-05-20T09:37:58.000Z</time>
      </trkpt>
      <trkpt lat="46.33236" lon="4.74031">
        <ele>214.80000305176</ele>
        <time>2024-05-20T09:37:59.000Z</time>
      </trkpt>
      <trkpt lat="46.33234" lon="4.7404">
        <ele>214.80000305176</ele>
        <time>2024-05-20T09:38:00.000Z</time>
      </trkpt>
      <trkpt lat="46.33232" lon="4.7405">
        <ele>214.80000305176</ele>
        <time>2024-05-20T09:38:01.000Z</time>
      </trkpt>
      <trkpt lat="46.33229" lon="4.7406">
        <ele>214.80000305176</ele>
        <time>2024-05-20T09:38:02.000Z</time>
      </trkpt>
      <trkpt lat="46.33227" lon="4.74069">
        <ele>214.80000305176</ele>
        <time>2024-05-20T09:38:03.000Z</time>
      </trkpt>
      <trkpt lat="46.33225" lon="4.74079">
        <ele>214.80000305176</ele>
        <time>2024-05-20T09:38:04.000Z</time>
      </trkpt>
      <trkpt lat="46.33222" lon="4.74088">
        <ele>214.60000610352</ele>
        <time>2024-05-20T09:38:05.000Z</time>
      </trkpt>
      <trkpt lat="46.3322" lon="4.74098">
        <ele>214.60000610352</ele>
        <time>2024-05-20T09:38:06.000Z</time>
      </trkpt>
      <trkpt lat="46.33218" lon="4.74107">
        <ele>214.39999389648</ele>
        <time>2024-05-20T09:38:07.000Z</time>
      </trkpt>
      <trkpt lat="46.33216" lon="4.74116">
        <ele>214.19999694824</ele>
        <time>2024-05-20T09:38:08.000Z</time>
      </trkpt>
      <trkpt lat="46.33214" lon="4.74125">
        <ele>214</ele>
        <time>2024-05-20T09:38:09.000Z</time>
      </trkpt>
      <trkpt lat="46.33211" lon="4.74134">
        <ele>214</ele>
        <time>2024-05-20T09:38:10.000Z</time>
      </trkpt>
      <trkpt lat="46.33209" lon="4.74143">
        <ele>214</ele>
        <time>2024-05-20T09:38:11.000Z</time>
      </trkpt>
      <trkpt lat="46.33207" lon="4.74151">
        <ele>214</ele>
        <time>2024-05-20T09:38:12.000Z</time>
      </trkpt>
      <trkpt lat="46.33206" lon="4.74159">
        <ele>214</ele>
        <time>2024-05-20T09:38:13.000Z</time>
      </trkpt>
      <trkpt lat="46.33204" lon="4.74168">
        <ele>214</ele>
        <time>2024-05-20T09:38:14.000Z</time>
      </trkpt>
      <trkpt lat="46.33202" lon="4.74175">
        <ele>214</ele>
        <time>2024-05-20T09:38:15.000Z</time>
      </trkpt>
      <trkpt lat="46.332" lon="4.74183">
        <ele>214</ele>
        <time>2024-05-20T09:38:16.000Z</time>
      </trkpt>
      <trkpt lat="46.33198" lon="4.7419">
        <ele>214.19999694824</ele>
        <time>2024-05-20T09:38:17.000Z</time>
      </trkpt>
      <trkpt lat="46.33197" lon="4.74197">
        <ele>214.19999694824</ele>
        <time>2024-05-20T09:38:18.000Z</time>
      </trkpt>
      <trkpt lat="46.33195" lon="4.74204">
        <ele>214.19999694824</ele>
        <time>2024-05-20T09:38:19.000Z</time>
      </trkpt>
      <trkpt lat="46.33194" lon="4.74211">
        <ele>214.39999389648</ele>
        <time>2024-05-20T09:38:20.000Z</time>
      </trkpt>
      <trkpt lat="46.33192" lon="4.74216">
        <ele>214.39999389648</ele>
        <time>2024-05-20T09:38:21.000Z</time>
      </trkpt>
      <trkpt lat="46.33192" lon="4.7422">
        <ele>214.60000610352</ele>
        <time>2024-05-20T09:38:22.000Z</time>
      </trkpt>
      <trkpt lat="46.33192" lon="4.74223">
        <ele>214.60000610352</ele>
        <time>2024-05-20T09:38:23.000Z</time>
      </trkpt>
      <trkpt lat="46.33194" lon="4.74224">
        <ele>214.80000305176</ele>
        <time>2024-05-20T09:38:24.000Z</time>
      </trkpt>
      <trkpt lat="46.33195" lon="4.74226">
        <ele>214.80000305176</ele>
        <time>2024-05-20T09:38:25.000Z</time>
      </trkpt>
      <trkpt lat="46.33196" lon="4.74226">
        <ele>214.80000305176</ele>
        <time>2024-05-20T09:38:26.000Z</time>
      </trkpt>
      <trkpt lat="46.33196" lon="4.74226">
        <ele>214.80000305176</ele>
        <time>2024-05-20T09:38:27.000Z</time>
      </trkpt>
      <trkpt lat="46.33192" lon="4.74223">
        <ele>214</ele>
        <time>2024-05-20T09:39:22.000Z</time>
      </trkpt>
      <trkpt lat="46.33191" lon="4.74223">
        <ele>214</ele>
        <time>2024-05-20T09:39:23.000Z</time>
      </trkpt>
      <trkpt lat="46.33191" lon="4.74223">
        <ele>213.80000305176</ele>
        <time>2024-05-20T09:39:24.000Z</time>
      </trkpt>
      <trkpt lat="46.3319" lon="4.74224">
        <ele>213.80000305176</ele>
        <time>2024-05-20T09:39:25.000Z</time>
      </trkpt>
      <trkpt lat="46.3319" lon="4.74224">
        <ele>213.60000610352</ele>
        <time>2024-05-20T09:39:26.000Z</time>
      </trkpt>
      <trkpt lat="46.33188" lon="4.74233">
        <ele>213.80000305176</ele>
        <time>2024-05-20T09:39:48.000Z</time>
      </trkpt>
      <trkpt lat="46.33187" lon="4.74236">
        <ele>213.80000305176</ele>
        <time>2024-05-20T09:39:49.000Z</time>
      </trkpt>
      <trkpt lat="46.33187" lon="4.74239">
        <ele>213.80000305176</ele>
        <time>2024-05-20T09:39:50.000Z</time>
      </trkpt>
      <trkpt lat="46.33186" lon="4.74244">
        <ele>213.80000305176</ele>
        <time>2024-05-20T09:39:51.000Z</time>
      </trkpt>
      <trkpt lat="46.33184" lon="4.74248">
        <ele>213.80000305176</ele>
        <time>2024-05-20T09:39:52.000Z</time>
      </trkpt>
      <trkpt lat="46.33183" lon="4.74253">
        <ele>213.80000305176</ele>
        <time>2024-05-20T09:39:53.000Z</time>
      </trkpt>
      <trkpt lat="46.33182" lon="4.74259">
        <ele>213.80000305176</ele>
        <time>2024-05-20T09:39:54.000Z</time>
      </trkpt>
      <trkpt lat="46.33181" lon="4.74265">
        <ele>213.80000305176</ele>
        <time>2024-05-20T09:39:55.000Z</time>
      </trkpt>
      <trkpt lat="46.3318" lon="4.74271">
        <ele>213.60000610352</ele>
        <time>2024-05-20T09:39:56.000Z</time>
      </trkpt>
      <trkpt lat="46.33178" lon="4.74277">
        <ele>213.60000610352</ele>
        <time>2024-05-20T09:39:57.000Z</time>
      </trkpt>
      <trkpt lat="46.33177" lon="4.74283">
        <ele>213.60000610352</ele>
        <time>2024-05-20T09:39:58.000Z</time>
      </trkpt>
      <trkpt lat="46.33175" lon="4.74289">
        <ele>213.60000610352</ele>
        <time>2024-05-20T09:39:59.000Z</time>
      </trkpt>
      <trkpt lat="46.33173" lon="4.74294">
        <ele>213.39999389648</ele>
        <time>2024-05-20T09:40:00.000Z</time>
      </trkpt>
      <trkpt lat="46.33172" lon="4.743">
        <ele>213.39999389648</ele>
        <time>2024-05-20T09:40:01.000Z</time>
      </trkpt>
      <trkpt lat="46.33171" lon="4.74305">
        <ele>213.39999389648</ele>
        <time>2024-05-20T09:40:02.000Z</time>
      </trkpt>
      <trkpt lat="46.3317" lon="4.74311">
        <ele>213.39999389648</ele>
        <time>2024-05-20T09:40:03.000Z</time>
      </trkpt>
      <trkpt lat="46.33168" lon="4.74316">
        <ele>213.39999389648</ele>
        <time>2024-05-20T09:40:04.000Z</time>
      </trkpt>
      <trkpt lat="46.33167" lon="4.74322">
        <ele>213.39999389648</ele>
        <time>2024-05-20T09:40:05.000Z</time>
      </trkpt>
      <trkpt lat="46.33165" lon="4.74327">
        <ele>213.39999389648</ele>
        <time>2024-05-20T09:40:06.000Z</time>
      </trkpt>
      <trkpt lat="46.33164" lon="4.74333">
        <ele>213.39999389648</ele>
        <time>2024-05-20T09:40:07.000Z</time>
      </trkpt>
      <trkpt lat="46.33162" lon="4.74338">
        <ele>213.39999389648</ele>
        <time>2024-05-20T09:40:08.000Z</time>
      </trkpt>
      <trkpt lat="46.3316" lon="4.74343">
        <ele>213.39999389648</ele>
        <time>2024-05-20T09:40:09.000Z</time>
      </trkpt>
      <trkpt lat="46.33159" lon="4.74347">
        <ele>213.39999389648</ele>
        <time>2024-05-20T09:40:10.000Z</time>
      </trkpt>
      <trkpt lat="46.33157" lon="4.74351">
        <ele>213.60000610352</ele>
        <time>2024-05-20T09:40:11.000Z</time>
      </trkpt>
      <trkpt lat="46.33156" lon="4.74355">
        <ele>213.60000610352</ele>
        <time>2024-05-20T09:40:12.000Z</time>
      </trkpt>
      <trkpt lat="46.33155" lon="4.74359">
        <ele>213.60000610352</ele>
        <time>2024-05-20T09:40:13.000Z</time>
      </trkpt>
      <trkpt lat="46.33154" lon="4.74364">
        <ele>213.60000610352</ele>
        <time>2024-05-20T09:40:14.000Z</time>
      </trkpt>
      <trkpt lat="46.33153" lon="4.74368">
        <ele>213.60000610352</ele>
        <time>2024-05-20T09:40:15.000Z</time>
      </trkpt>
      <trkpt lat="46.33151" lon="4.74373">
        <ele>213.60000610352</ele>
        <time>2024-05-20T09:40:16.000Z</time>
      </trkpt>
      <trkpt lat="46.33149" lon="4.74376">
        <ele>213.80000305176</ele>
        <time>2024-05-20T09:40:17.000Z</time>
      </trkpt>
      <trkpt lat="46.33147" lon="4.74378">
        <ele>213.80000305176</ele>
        <time>2024-05-20T09:40:18.000Z</time>
      </trkpt>
      <trkpt lat="46.33144" lon="4.7438">
        <ele>214</ele>
        <time>2024-05-20T09:40:19.000Z</time>
      </trkpt>
      <trkpt lat="46.33142" lon="4.74381">
        <ele>214</ele>
        <time>2024-05-20T09:40:20.000Z</time>
      </trkpt>
      <trkpt lat="46.33139" lon="4.74382">
        <ele>214.19999694824</ele>
        <time>2024-05-20T09:40:21.000Z</time>
      </trkpt>
      <trkpt lat="46.33137" lon="4.74383">
        <ele>214.19999694824</ele>
        <time>2024-05-20T09:40:22.000Z</time>
      </trkpt>
      <trkpt lat="46.33135" lon="4.74384">
        <ele>214.19999694824</ele>
        <time>2024-05-20T09:40:23.000Z</time>
      </trkpt>
      <trkpt lat="46.33134" lon="4.74384">
        <ele>214.19999694824</ele>
        <time>2024-05-20T09:40:24.000Z</time>
      </trkpt>
      <trkpt lat="46.33133" lon="4.74384">
        <ele>214.19999694824</ele>
        <time>2024-05-20T09:40:25.000Z</time>
      </trkpt>
      <trkpt lat="46.33133" lon="4.74384">
        <ele>214.19999694824</ele>
        <time>2024-05-20T09:40:26.000Z</time>
      </trkpt>
      <trkpt lat="46.33129" lon="4.74386">
        <ele>214.19999694824</ele>
        <time>2024-05-20T09:40:32.000Z</time>
      </trkpt>
      <trkpt lat="46.33126" lon="4.74388">
        <ele>214.19999694824</ele>
        <time>2024-05-20T09:40:33.000Z</time>
      </trkpt>
      <trkpt lat="46.33124" lon="4.74391">
        <ele>214</ele>
        <time>2024-05-20T09:40:34.000Z</time>
      </trkpt>
      <trkpt lat="46.33121" lon="4.74394">
        <ele>213.80000305176</ele>
        <time>2024-05-20T09:40:35.000Z</time>
      </trkpt>
      <trkpt lat="46.33119" lon="4.74398">
        <ele>213.80000305176</ele>
        <time>2024-05-20T09:40:36.000Z</time>
      </trkpt>
      <trkpt lat="46.33116" lon="4.74401">
        <ele>213.60000610352</ele>
        <time>2024-05-20T09:40:37.000Z</time>
      </trkpt>
      <trkpt lat="46.33113" lon="4.74406">
        <ele>213.60000610352</ele>
        <time>2024-05-20T09:40:38.000Z</time>
      </trkpt>
      <trkpt lat="46.3311" lon="4.7441">
        <ele>213.19999694824</ele>
        <time>2024-05-20T09:40:39.000Z</time>
      </trkpt>
      <trkpt lat="46.33106" lon="4.74415">
        <ele>213</ele>
        <time>2024-05-20T09:40:40.000Z</time>
      </trkpt>
      <trkpt lat="46.33102" lon="4.74421">
        <ele>213</ele>
        <time>2024-05-20T09:40:41.000Z</time>
      </trkpt>
      <trkpt lat="46.33098" lon="4.74426">
        <ele>213</ele>
        <time>2024-05-20T09:40:42.000Z</time>
      </trkpt>
      <trkpt lat="46.33094" lon="4.74432">
        <ele>212.80000305176</ele>
        <time>2024-05-20T09:40:43.000Z</time>
      </trkpt>
      <trkpt lat="46.3309" lon="4.74438">
        <ele>212.60000610352</ele>
        <time>2024-05-20T09:40:44.000Z</time>
      </trkpt>
      <trkpt lat="46.33086" lon="4.74444">
        <ele>212.60000610352</ele>
        <time>2024-05-20T09:40:45.000Z</time>
      </trkpt>
      <trkpt lat="46.33083" lon="4.7445">
        <ele>212.60000610352</ele>
        <time>2024-05-20T09:40:46.000Z</time>
      </trkpt>
      <trkpt lat="46.33079" lon="4.74456">
        <ele>212.60000610352</ele>
        <time>2024-05-20T09:40:47.000Z</time>
      </trkpt>
      <trkpt lat="46.33075" lon="4.74461">
        <ele>212.60000610352</ele>
        <time>2024-05-20T09:40:48.000Z</time>
      </trkpt>
      <trkpt lat="46.33071" lon="4.74467">
        <ele>212.60000610352</ele>
        <time>2024-05-20T09:40:49.000Z</time>
      </trkpt>
      <trkpt lat="46.33067" lon="4.74472">
        <ele>212.80000305176</ele>
        <time>2024-05-20T09:40:50.000Z</time>
      </trkpt>
      <trkpt lat="46.33062" lon="4.74476">
        <ele>212.80000305176</ele>
        <time>2024-05-20T09:40:51.000Z</time>
      </trkpt>
      <trkpt lat="46.33057" lon="4.7448">
        <ele>212.80000305176</ele>
        <time>2024-05-20T09:40:52.000Z</time>
      </trkpt>
      <trkpt lat="46.33053" lon="4.74484">
        <ele>212.80000305176</ele>
        <time>2024-05-20T09:40:53.000Z</time>
      </trkpt>
      <trkpt lat="46.33048" lon="4.74489">
        <ele>212.80000305176</ele>
        <time>2024-05-20T09:40:54.000Z</time>
      </trkpt>
      <trkpt lat="46.33043" lon="4.74494">
        <ele>212.60000610352</ele>
        <time>2024-05-20T09:40:55.000Z</time>
      </trkpt>
      <trkpt lat="46.33038" lon="4.74499">
        <ele>212.60000610352</ele>
        <time>2024-05-20T09:40:56.000Z</time>
      </trkpt>
      <trkpt lat="46.33032" lon="4.74504">
        <ele>212.60000610352</ele>
        <time>2024-05-20T09:40:57.000Z</time>
      </trkpt>
      <trkpt lat="46.33027" lon="4.74508">
        <ele>212.60000610352</ele>
        <time>2024-05-20T09:40:58.000Z</time>
      </trkpt>
      <trkpt lat="46.33022" lon="4.74513">
        <ele>212.60000610352</ele>
        <time>2024-05-20T09:40:59.000Z</time>
      </trkpt>
      <trkpt lat="46.33017" lon="4.74517">
        <ele>212.80000305176</ele>
        <time>2024-05-20T09:41:00.000Z</time>
      </trkpt>
      <trkpt lat="46.33011" lon="4.74521">
        <ele>212.80000305176</ele>
        <time>2024-05-20T09:41:01.000Z</time>
      </trkpt>
      <trkpt lat="46.33006" lon="4.74525">
        <ele>212.80000305176</ele>
        <time>2024-05-20T09:41:02.000Z</time>
      </trkpt>
      <trkpt lat="46.33" lon="4.74529">
        <ele>212.80000305176</ele>
        <time>2024-05-20T09:41:03.000Z</time>
      </trkpt>
      <trkpt lat="46.32994" lon="4.74533">
        <ele>212.80000305176</ele>
        <time>2024-05-20T09:41:04.000Z</time>
      </trkpt>
      <trkpt lat="46.32989" lon="4.74536">
        <ele>212.80000305176</ele>
        <time>2024-05-20T09:41:05.000Z</time>
      </trkpt>
      <trkpt lat="46.32983" lon="4.74539">
        <ele>212.60000610352</ele>
        <time>2024-05-20T09:41:06.000Z</time>
      </trkpt>
      <trkpt lat="46.32978" lon="4.74542">
        <ele>212.60000610352</ele>
        <time>2024-05-20T09:41:07.000Z</time>
      </trkpt>
      <trkpt lat="46.32973" lon="4.74545">
        <ele>212.60000610352</ele>
        <time>2024-05-20T09:41:08.000Z</time>
      </trkpt>
      <trkpt lat="46.32968" lon="4.74547">
        <ele>212.60000610352</ele>
        <time>2024-05-20T09:41:09.000Z</time>
      </trkpt>
      <trkpt lat="46.32962" lon="4.74551">
        <ele>212.60000610352</ele>
        <time>2024-05-20T09:41:10.000Z</time>
      </trkpt>
      <trkpt lat="46.32957" lon="4.74554">
        <ele>212.60000610352</ele>
        <time>2024-05-20T09:41:11.000Z</time>
      </trkpt>
      <trkpt lat="46.32951" lon="4.74557">
        <ele>212.60000610352</ele>
        <time>2024-05-20T09:41:12.000Z</time>
      </trkpt>
      <trkpt lat="46.32945" lon="4.74559">
        <ele>212.60000610352</ele>
        <time>2024-05-20T09:41:13.000Z</time>
      </trkpt>
      <trkpt lat="46.32939" lon="4.74562">
        <ele>212.60000610352</ele>
        <time>2024-05-20T09:41:14.000Z</time>
      </trkpt>
      <trkpt lat="46.32933" lon="4.74565">
        <ele>212.80000305176</ele>
        <time>2024-05-20T09:41:15.000Z</time>
      </trkpt>
      <trkpt lat="46.32928" lon="4.74568">
        <ele>212.80000305176</ele>
        <time>2024-05-20T09:41:16.000Z</time>
      </trkpt>
      <trkpt lat="46.32921" lon="4.7457">
        <ele>212.80000305176</ele>
        <time>2024-05-20T09:41:17.000Z</time>
      </trkpt>
      <trkpt lat="46.32915" lon="4.74572">
        <ele>212.80000305176</ele>
        <time>2024-05-20T09:41:18.000Z</time>
      </trkpt>
      <trkpt lat="46.3291" lon="4.74573">
        <ele>212.80000305176</ele>
        <time>2024-05-20T09:41:19.000Z</time>
      </trkpt>
      <trkpt lat="46.32904" lon="4.74575">
        <ele>212.80000305176</ele>
        <time>2024-05-20T09:41:20.000Z</time>
      </trkpt>
      <trkpt lat="46.32898" lon="4.74576">
        <ele>212.80000305176</ele>
        <time>2024-05-20T09:41:21.000Z</time>
      </trkpt>
      <trkpt lat="46.32892" lon="4.74577">
        <ele>212.80000305176</ele>
        <time>2024-05-20T09:41:22.000Z</time>
      </trkpt>
      <trkpt lat="46.32886" lon="4.74578">
        <ele>212.80000305176</ele>
        <time>2024-05-20T09:41:23.000Z</time>
      </trkpt>
      <trkpt lat="46.32881" lon="4.74579">
        <ele>212.80000305176</ele>
        <time>2024-05-20T09:41:24.000Z</time>
      </trkpt>
      <trkpt lat="46.32875" lon="4.74579">
        <ele>213</ele>
        <time>2024-05-20T09:41:25.000Z</time>
      </trkpt>
      <trkpt lat="46.32869" lon="4.74578">
        <ele>213.19999694824</ele>
        <time>2024-05-20T09:41:26.000Z</time>
      </trkpt>
      <trkpt lat="46.32863" lon="4.74579">
        <ele>213.19999694824</ele>
        <time>2024-05-20T09:41:27.000Z</time>
      </trkpt>
      <trkpt lat="46.32857" lon="4.74579">
        <ele>213.19999694824</ele>
        <time>2024-05-20T09:41:28.000Z</time>
      </trkpt>
      <trkpt lat="46.32851" lon="4.74579">
        <ele>213.19999694824</ele>
        <time>2024-05-20T09:41:29.000Z</time>
      </trkpt>
      <trkpt lat="46.32846" lon="4.74579">
        <ele>213.19999694824</ele>
        <time>2024-05-20T09:41:30.000Z</time>
      </trkpt>
      <trkpt lat="46.3284" lon="4.74578">
        <ele>213.39999389648</ele>
        <time>2024-05-20T09:41:31.000Z</time>
      </trkpt>
      <trkpt lat="46.32833" lon="4.74578">
        <ele>213.39999389648</ele>
        <time>2024-05-20T09:41:32.000Z</time>
      </trkpt>
      <trkpt lat="46.32826" lon="4.74577">
        <ele>213.60000610352</ele>
        <time>2024-05-20T09:41:33.000Z</time>
      </trkpt>
      <trkpt lat="46.3282" lon="4.74576">
        <ele>213.60000610352</ele>
        <time>2024-05-20T09:41:34.000Z</time>
      </trkpt>
      <trkpt lat="46.32814" lon="4.74575">
        <ele>213.60000610352</ele>
        <time>2024-05-20T09:41:35.000Z</time>
      </trkpt>
      <trkpt lat="46.32808" lon="4.74575">
        <ele>213.60000610352</ele>
        <time>2024-05-20T09:41:36.000Z</time>
      </trkpt>
      <trkpt lat="46.32801" lon="4.74573">
        <ele>213.60000610352</ele>
        <time>2024-05-20T09:41:37.000Z</time>
      </trkpt>
      <trkpt lat="46.32795" lon="4.74572">
        <ele>213.60000610352</ele>
        <time>2024-05-20T09:41:38.000Z</time>
      </trkpt>
      <trkpt lat="46.32788" lon="4.74572">
        <ele>213.60000610352</ele>
        <time>2024-05-20T09:41:39.000Z</time>
      </trkpt>
      <trkpt lat="46.32781" lon="4.74572">
        <ele>213.60000610352</ele>
        <time>2024-05-20T09:41:40.000Z</time>
      </trkpt>
      <trkpt lat="46.32774" lon="4.74572">
        <ele>213.60000610352</ele>
        <time>2024-05-20T09:41:41.000Z</time>
      </trkpt>
      <trkpt lat="46.32767" lon="4.74572">
        <ele>213.60000610352</ele>
        <time>2024-05-20T09:41:42.000Z</time>
      </trkpt>
      <trkpt lat="46.3276" lon="4.74572">
        <ele>213.60000610352</ele>
        <time>2024-05-20T09:41:43.000Z</time>
      </trkpt>
      <trkpt lat="46.32753" lon="4.74571">
        <ele>213.60000610352</ele>
        <time>2024-05-20T09:41:44.000Z</time>
      </trkpt>
      <trkpt lat="46.32746" lon="4.7457">
        <ele>213.39999389648</ele>
        <time>2024-05-20T09:41:45.000Z</time>
      </trkpt>
      <trkpt lat="46.32739" lon="4.74569">
        <ele>213.39999389648</ele>
        <time>2024-05-20T09:41:46.000Z</time>
      </trkpt>
      <trkpt lat="46.32732" lon="4.74568">
        <ele>213.39999389648</ele>
        <time>2024-05-20T09:41:47.000Z</time>
      </trkpt>
      <trkpt lat="46.32725" lon="4.74568">
        <ele>213.39999389648</ele>
        <time>2024-05-20T09:41:48.000Z</time>
      </trkpt>
      <trkpt lat="46.32719" lon="4.74568">
        <ele>213.60000610352</ele>
        <time>2024-05-20T09:41:49.000Z</time>
      </trkpt>
      <trkpt lat="46.32713" lon="4.74569">
        <ele>213.60000610352</ele>
        <time>2024-05-20T09:41:50.000Z</time>
      </trkpt>
      <trkpt lat="46.32706" lon="4.74569">
        <ele>213.60000610352</ele>
        <time>2024-05-20T09:41:51.000Z</time>
      </trkpt>
      <trkpt lat="46.32699" lon="4.74569">
        <ele>213.60000610352</ele>
        <time>2024-05-20T09:41:52.000Z</time>
      </trkpt>
      <trkpt lat="46.32691" lon="4.74567">
        <ele>213.60000610352</ele>
        <time>2024-05-20T09:41:53.000Z</time>
      </trkpt>
      <trkpt lat="46.32683" lon="4.74565">
        <ele>213.60000610352</ele>
        <time>2024-05-20T09:41:54.000Z</time>
      </trkpt>
      <trkpt lat="46.32675" lon="4.74564">
        <ele>213.60000610352</ele>
        <time>2024-05-20T09:41:55.000Z</time>
      </trkpt>
      <trkpt lat="46.32668" lon="4.74564">
        <ele>213.39999389648</ele>
        <time>2024-05-20T09:41:56.000Z</time>
      </trkpt>
      <trkpt lat="46.3266" lon="4.74563">
        <ele>213.39999389648</ele>
        <time>2024-05-20T09:41:57.000Z</time>
      </trkpt>
      <trkpt lat="46.32653" lon="4.74563">
        <ele>213.19999694824</ele>
        <time>2024-05-20T09:41:58.000Z</time>
      </trkpt>
      <trkpt lat="46.32647" lon="4.74562">
        <ele>213.19999694824</ele>
        <time>2024-05-20T09:41:59.000Z</time>
      </trkpt>
      <trkpt lat="46.3264" lon="4.74563">
        <ele>213</ele>
        <time>2024-05-20T09:42:00.000Z</time>
      </trkpt>
      <trkpt lat="46.32632" lon="4.74565">
        <ele>212.80000305176</ele>
        <time>2024-05-20T09:42:01.000Z</time>
      </trkpt>
      <trkpt lat="46.32625" lon="4.74568">
        <ele>212.60000610352</ele>
        <time>2024-05-20T09:42:02.000Z</time>
      </trkpt>
      <trkpt lat="46.32618" lon="4.74573">
        <ele>212.60000610352</ele>
        <time>2024-05-20T09:42:03.000Z</time>
      </trkpt>
      <trkpt lat="46.32611" lon="4.74575">
        <ele>212.60000610352</ele>
        <time>2024-05-20T09:42:04.000Z</time>
      </trkpt>
      <trkpt lat="46.32604" lon="4.74578">
        <ele>212.60000610352</ele>
        <time>2024-05-20T09:42:05.000Z</time>
      </trkpt>
      <trkpt lat="46.32596" lon="4.74579">
        <ele>212.39999389648</ele>
        <time>2024-05-20T09:42:06.000Z</time>
      </trkpt>
      <trkpt lat="46.32589" lon="4.74581">
        <ele>212.39999389648</ele>
        <time>2024-05-20T09:42:07.000Z</time>
      </trkpt>
      <trkpt lat="46.32582" lon="4.74585">
        <ele>212.19999694824</ele>
        <time>2024-05-20T09:42:08.000Z</time>
      </trkpt>
      <trkpt lat="46.32575" lon="4.7459">
        <ele>212</ele>
        <time>2024-05-20T09:42:09.000Z</time>
      </trkpt>
      <trkpt lat="46.32569" lon="4.74594">
        <ele>212</ele>
        <time>2024-05-20T09:42:10.000Z</time>
      </trkpt>
      <trkpt lat="46.32561" lon="4.74598">
        <ele>211.80000305176</ele>
        <time>2024-05-20T09:42:11.000Z</time>
      </trkpt>
      <trkpt lat="46.32555" lon="4.74601">
        <ele>211.60000610352</ele>
        <time>2024-05-20T09:42:12.000Z</time>
      </trkpt>
      <trkpt lat="46.32547" lon="4.74605">
        <ele>211.60000610352</ele>
        <time>2024-05-20T09:42:13.000Z</time>
      </trkpt>
      <trkpt lat="46.3254" lon="4.74608">
        <ele>211.60000610352</ele>
        <time>2024-05-20T09:42:14.000Z</time>
      </trkpt>
      <trkpt lat="46.32533" lon="4.74611">
        <ele>211.39999389648</ele>
        <time>2024-05-20T09:42:15.000Z</time>
      </trkpt>
      <trkpt lat="46.32526" lon="4.74615">
        <ele>211.19999694824</ele>
        <time>2024-05-20T09:42:16.000Z</time>
      </trkpt>
      <trkpt lat="46.3252" lon="4.74621">
        <ele>211</ele>
        <time>2024-05-20T09:42:17.000Z</time>
      </trkpt>
      <trkpt lat="46.32515" lon="4.74626">
        <ele>210.80000305176</ele>
        <time>2024-05-20T09:42:18.000Z</time>
      </trkpt>
      <trkpt lat="46.3251" lon="4.74632">
        <ele>210.80000305176</ele>
        <time>2024-05-20T09:42:19.000Z</time>
      </trkpt>
      <trkpt lat="46.32505" lon="4.74636">
        <ele>210.80000305176</ele>
        <time>2024-05-20T09:42:20.000Z</time>
      </trkpt>
      <trkpt lat="46.32498" lon="4.7464">
        <ele>210.60000610352</ele>
        <time>2024-05-20T09:42:21.000Z</time>
      </trkpt>
      <trkpt lat="46.32492" lon="4.74644">
        <ele>210.60000610352</ele>
        <time>2024-05-20T09:42:22.000Z</time>
      </trkpt>
      <trkpt lat="46.32486" lon="4.7465">
        <ele>210.39999389648</ele>
        <time>2024-05-20T09:42:23.000Z</time>
      </trkpt>
      <trkpt lat="46.32482" lon="4.74657">
        <ele>210.39999389648</ele>
        <time>2024-05-20T09:42:24.000Z</time>
      </trkpt>
      <trkpt lat="46.32479" lon="4.74665">
        <ele>210.19999694824</ele>
        <time>2024-05-20T09:42:25.000Z</time>
      </trkpt>
      <trkpt lat="46.32475" lon="4.74673">
        <ele>210</ele>
        <time>2024-05-20T09:42:26.000Z</time>
      </trkpt>
      <trkpt lat="46.32469" lon="4.74679">
        <ele>209.80000305176</ele>
        <time>2024-05-20T09:42:27.000Z</time>
      </trkpt>
      <trkpt lat="46.32463" lon="4.74686">
        <ele>209.39999389648</ele>
        <time>2024-05-20T09:42:28.000Z</time>
      </trkpt>
      <trkpt lat="46.32458" lon="4.74692">
        <ele>209.39999389648</ele>
        <time>2024-05-20T09:42:29.000Z</time>
      </trkpt>
      <trkpt lat="46.32452" lon="4.74699">
        <ele>209.19999694824</ele>
        <time>2024-05-20T09:42:30.000Z</time>
      </trkpt>
      <trkpt lat="46.32447" lon="4.74706">
        <ele>209</ele>
        <time>2024-05-20T09:42:31.000Z</time>
      </trkpt>
      <trkpt lat="46.32442" lon="4.74712">
        <ele>208.80000305176</ele>
        <time>2024-05-20T09:42:32.000Z</time>
      </trkpt>
      <trkpt lat="46.32437" lon="4.74719">
        <ele>208.80000305176</ele>
        <time>2024-05-20T09:42:33.000Z</time>
      </trkpt>
      <trkpt lat="46.32432" lon="4.74726">
        <ele>208.60000610352</ele>
        <time>2024-05-20T09:42:34.000Z</time>
      </trkpt>
      <trkpt lat="46.32428" lon="4.74733">
        <ele>208.19999694824</ele>
        <time>2024-05-20T09:42:35.000Z</time>
      </trkpt>
      <trkpt lat="46.32425" lon="4.7474">
        <ele>208.19999694824</ele>
        <time>2024-05-20T09:42:36.000Z</time>
      </trkpt>
      <trkpt lat="46.32421" lon="4.74746">
        <ele>208</ele>
        <time>2024-05-20T09:42:37.000Z</time>
      </trkpt>
      <trkpt lat="46.32419" lon="4.74751">
        <ele>208</ele>
        <time>2024-05-20T09:42:38.000Z</time>
      </trkpt>
      <trkpt lat="46.32416" lon="4.74755">
        <ele>208</ele>
        <time>2024-05-20T09:42:39.000Z</time>
      </trkpt>
      <trkpt lat="46.32414" lon="4.74759">
        <ele>208.19999694824</ele>
        <time>2024-05-20T09:42:40.000Z</time>
      </trkpt>
      <trkpt lat="46.32412" lon="4.74762">
        <ele>208.39999389648</ele>
        <time>2024-05-20T09:42:41.000Z</time>
      </trkpt>
      <trkpt lat="46.3241" lon="4.74767">
        <ele>208.39999389648</ele>
        <time>2024-05-20T09:42:42.000Z</time>
      </trkpt>
      <trkpt lat="46.32407" lon="4.74772">
        <ele>208.39999389648</ele>
        <time>2024-05-20T09:42:43.000Z</time>
      </trkpt>
      <trkpt lat="46.32405" lon="4.74778">
        <ele>208.39999389648</ele>
        <time>2024-05-20T09:42:44.000Z</time>
      </trkpt>
      <trkpt lat="46.32402" lon="4.74783">
        <ele>208.39999389648</ele>
        <time>2024-05-20T09:42:45.000Z</time>
      </trkpt>
      <trkpt lat="46.324" lon="4.74789">
        <ele>208.39999389648</ele>
        <time>2024-05-20T09:42:46.000Z</time>
      </trkpt>
      <trkpt lat="46.32398" lon="4.74795">
        <ele>208.39999389648</ele>
        <time>2024-05-20T09:42:47.000Z</time>
      </trkpt>
      <trkpt lat="46.32395" lon="4.74801">
        <ele>208.39999389648</ele>
        <time>2024-05-20T09:42:48.000Z</time>
      </trkpt>
      <trkpt lat="46.32393" lon="4.74808">
        <ele>208.19999694824</ele>
        <time>2024-05-20T09:42:49.000Z</time>
      </trkpt>
      <trkpt lat="46.32391" lon="4.74815">
        <ele>208.19999694824</ele>
        <time>2024-05-20T09:42:50.000Z</time>
      </trkpt>
      <trkpt lat="46.32388" lon="4.74823">
        <ele>208</ele>
        <time>2024-05-20T09:42:51.000Z</time>
      </trkpt>
      <trkpt lat="46.32386" lon="4.7483">
        <ele>208</ele>
        <time>2024-05-20T09:42:52.000Z</time>
      </trkpt>
      <trkpt lat="46.32383" lon="4.74837">
        <ele>207.80000305176</ele>
        <time>2024-05-20T09:42:53.000Z</time>
      </trkpt>
      <trkpt lat="46.3238" lon="4.74844">
        <ele>207.80000305176</ele>
        <time>2024-05-20T09:42:54.000Z</time>
      </trkpt>
      <trkpt lat="46.32377" lon="4.74852">
        <ele>207.60000610352</ele>
        <time>2024-05-20T09:42:55.000Z</time>
      </trkpt>
      <trkpt lat="46.32375" lon="4.7486">
        <ele>207.39999389648</ele>
        <time>2024-05-20T09:42:56.000Z</time>
      </trkpt>
      <trkpt lat="46.32373" lon="4.74869">
        <ele>207.19999694824</ele>
        <time>2024-05-20T09:42:57.000Z</time>
      </trkpt>
      <trkpt lat="46.32371" lon="4.74878">
        <ele>207.19999694824</ele>
        <time>2024-05-20T09:42:58.000Z</time>
      </trkpt>
      <trkpt lat="46.32369" lon="4.74886">
        <ele>207.19999694824</ele>
        <time>2024-05-20T09:42:59.000Z</time>
      </trkpt>
      <trkpt lat="46.32367" lon="4.74895">
        <ele>207.19999694824</ele>
        <time>2024-05-20T09:43:00.000Z</time>
      </trkpt>
      <trkpt lat="46.32365" lon="4.74904">
        <ele>207.19999694824</ele>
        <time>2024-05-20T09:43:01.000Z</time>
      </trkpt>
      <trkpt lat="46.32363" lon="4.74913">
        <ele>207</ele>
        <time>2024-05-20T09:43:02.000Z</time>
      </trkpt>
      <trkpt lat="46.32361" lon="4.74922">
        <ele>206.80000305176</ele>
        <time>2024-05-20T09:43:03.000Z</time>
      </trkpt>
      <trkpt lat="46.32359" lon="4.74931">
        <ele>206.80000305176</ele>
        <time>2024-05-20T09:43:04.000Z</time>
      </trkpt>
      <trkpt lat="46.32357" lon="4.7494">
        <ele>206.80000305176</ele>
        <time>2024-05-20T09:43:05.000Z</time>
      </trkpt>
      <trkpt lat="46.32356" lon="4.74949">
        <ele>206.60000610352</ele>
        <time>2024-05-20T09:43:06.000Z</time>
      </trkpt>
      <trkpt lat="46.32354" lon="4.74958">
        <ele>206.60000610352</ele>
        <time>2024-05-20T09:43:07.000Z</time>
      </trkpt>
      <trkpt lat="46.32352" lon="4.74967">
        <ele>206.80000305176</ele>
        <time>2024-05-20T09:43:08.000Z</time>
      </trkpt>
      <trkpt lat="46.32351" lon="4.74976">
        <ele>206.80000305176</ele>
        <time>2024-05-20T09:43:09.000Z</time>
      </trkpt>
      <trkpt lat="46.32349" lon="4.74985">
        <ele>206.80000305176</ele>
        <time>2024-05-20T09:43:10.000Z</time>
      </trkpt>
      <trkpt lat="46.32348" lon="4.74994">
        <ele>206.80000305176</ele>
        <time>2024-05-20T09:43:11.000Z</time>
      </trkpt>
      <trkpt lat="46.32346" lon="4.75002">
        <ele>206.80000305176</ele>
        <time>2024-05-20T09:43:12.000Z</time>
      </trkpt>
      <trkpt lat="46.32344" lon="4.75011">
        <ele>206.80000305176</ele>
        <time>2024-05-20T09:43:13.000Z</time>
      </trkpt>
      <trkpt lat="46.32342" lon="4.7502">
        <ele>206.80000305176</ele>
        <time>2024-05-20T09:43:14.000Z</time>
      </trkpt>
      <trkpt lat="46.3234" lon="4.7503">
        <ele>206.80000305176</ele>
        <time>2024-05-20T09:43:15.000Z</time>
      </trkpt>
      <trkpt lat="46.32338" lon="4.75039">
        <ele>206.80000305176</ele>
        <time>2024-05-20T09:43:16.000Z</time>
      </trkpt>
      <trkpt lat="46.32336" lon="4.75048">
        <ele>206.80000305176</ele>
        <time>2024-05-20T09:43:17.000Z</time>
      </trkpt>
      <trkpt lat="46.32334" lon="4.75056">
        <ele>206.60000610352</ele>
        <time>2024-05-20T09:43:18.000Z</time>
      </trkpt>
      <trkpt lat="46.32331" lon="4.75065">
        <ele>206.60000610352</ele>
        <time>2024-05-20T09:43:19.000Z</time>
      </trkpt>
      <trkpt lat="46.32329" lon="4.75073">
        <ele>206.60000610352</ele>
        <time>2024-05-20T09:43:20.000Z</time>
      </trkpt>
      <trkpt lat="46.32327" lon="4.75081">
        <ele>206.60000610352</ele>
        <time>2024-05-20T09:43:21.000Z</time>
      </trkpt>
      <trkpt lat="46.32325" lon="4.75089">
        <ele>206.60000610352</ele>
        <time>2024-05-20T09:43:22.000Z</time>
      </trkpt>
      <trkpt lat="46.32322" lon="4.75098">
        <ele>206.60000610352</ele>
        <time>2024-05-20T09:43:23.000Z</time>
      </trkpt>
      <trkpt lat="46.3232" lon="4.75106">
        <ele>206.60000610352</ele>
        <time>2024-05-20T09:43:24.000Z</time>
      </trkpt>
      <trkpt lat="46.32318" lon="4.75114">
        <ele>206.80000305176</ele>
        <time>2024-05-20T09:43:25.000Z</time>
      </trkpt>
      <trkpt lat="46.32315" lon="4.75122">
        <ele>206.80000305176</ele>
        <time>2024-05-20T09:43:26.000Z</time>
      </trkpt>
      <trkpt lat="46.32312" lon="4.7513">
        <ele>206.80000305176</ele>
        <time>2024-05-20T09:43:27.000Z</time>
      </trkpt>
      <trkpt lat="46.3231" lon="4.75138">
        <ele>206.80000305176</ele>
        <time>2024-05-20T09:43:28.000Z</time>
      </trkpt>
      <trkpt lat="46.32307" lon="4.75145">
        <ele>207</ele>
        <time>2024-05-20T09:43:29.000Z</time>
      </trkpt>
      <trkpt lat="46.32305" lon="4.75151">
        <ele>207</ele>
        <time>2024-05-20T09:43:30.000Z</time>
      </trkpt>
      <trkpt lat="46.32302" lon="4.75157">
        <ele>207</ele>
        <time>2024-05-20T09:43:31.000Z</time>
      </trkpt>
      <trkpt lat="46.32299" lon="4.75163">
        <ele>207.19999694824</ele>
        <time>2024-05-20T09:43:32.000Z</time>
      </trkpt>
      <trkpt lat="46.32296" lon="4.75167">
        <ele>207.19999694824</ele>
        <time>2024-05-20T09:43:33.000Z</time>
      </trkpt>
      <trkpt lat="46.32294" lon="4.75171">
        <ele>207.19999694824</ele>
        <time>2024-05-20T09:43:34.000Z</time>
      </trkpt>
      <trkpt lat="46.32292" lon="4.75174">
        <ele>207.39999389648</ele>
        <time>2024-05-20T09:43:35.000Z</time>
      </trkpt>
      <trkpt lat="46.32291" lon="4.75176">
        <ele>207.39999389648</ele>
        <time>2024-05-20T09:43:36.000Z</time>
      </trkpt>
      <trkpt lat="46.32289" lon="4.75178">
        <ele>207.60000610352</ele>
        <time>2024-05-20T09:43:37.000Z</time>
      </trkpt>
      <trkpt lat="46.32288" lon="4.75181">
        <ele>207.80000305176</ele>
        <time>2024-05-20T09:43:38.000Z</time>
      </trkpt>
      <trkpt lat="46.32287" lon="4.75184">
        <ele>207.80000305176</ele>
        <time>2024-05-20T09:43:39.000Z</time>
      </trkpt>
      <trkpt lat="46.32288" lon="4.75188">
        <ele>207.80000305176</ele>
        <time>2024-05-20T09:43:40.000Z</time>
      </trkpt>
      <trkpt lat="46.3229" lon="4.75192">
        <ele>207.80000305176</ele>
        <time>2024-05-20T09:43:41.000Z</time>
      </trkpt>
      <trkpt lat="46.32292" lon="4.75195">
        <ele>207.80000305176</ele>
        <time>2024-05-20T09:43:42.000Z</time>
      </trkpt>
      <trkpt lat="46.32294" lon="4.75199">
        <ele>207.80000305176</ele>
        <time>2024-05-20T09:43:43.000Z</time>
      </trkpt>
      <trkpt lat="46.32295" lon="4.75202">
        <ele>207.80000305176</ele>
        <time>2024-05-20T09:43:44.000Z</time>
      </trkpt>
      <trkpt lat="46.32296" lon="4.75207">
        <ele>207.80000305176</ele>
        <time>2024-05-20T09:43:45.000Z</time>
      </trkpt>
      <trkpt lat="46.32295" lon="4.75211">
        <ele>207.80000305176</ele>
        <time>2024-05-20T09:43:46.000Z</time>
      </trkpt>
      <trkpt lat="46.32293" lon="4.75214">
        <ele>207.80000305176</ele>
        <time>2024-05-20T09:43:47.000Z</time>
      </trkpt>
      <trkpt lat="46.32292" lon="4.75218">
        <ele>207.80000305176</ele>
        <time>2024-05-20T09:43:48.000Z</time>
      </trkpt>
      <trkpt lat="46.3229" lon="4.75221">
        <ele>207.80000305176</ele>
        <time>2024-05-20T09:43:49.000Z</time>
      </trkpt>
      <trkpt lat="46.32288" lon="4.75225">
        <ele>207.80000305176</ele>
        <time>2024-05-20T09:43:50.000Z</time>
      </trkpt>
      <trkpt lat="46.32286" lon="4.75229">
        <ele>208.19999694824</ele>
        <time>2024-05-20T09:43:51.000Z</time>
      </trkpt>
      <trkpt lat="46.32285" lon="4.75233">
        <ele>208.19999694824</ele>
        <time>2024-05-20T09:43:52.000Z</time>
      </trkpt>
      <trkpt lat="46.32282" lon="4.75237">
        <ele>208.19999694824</ele>
        <time>2024-05-20T09:43:53.000Z</time>
      </trkpt>
      <trkpt lat="46.3228" lon="4.75242">
        <ele>208.39999389648</ele>
        <time>2024-05-20T09:43:54.000Z</time>
      </trkpt>
      <trkpt lat="46.32278" lon="4.75246">
        <ele>208.39999389648</ele>
        <time>2024-05-20T09:43:55.000Z</time>
      </trkpt>
      <trkpt lat="46.32276" lon="4.75251">
        <ele>208.39999389648</ele>
        <time>2024-05-20T09:43:56.000Z</time>
      </trkpt>
      <trkpt lat="46.32274" lon="4.75256">
        <ele>208.39999389648</ele>
        <time>2024-05-20T09:43:57.000Z</time>
      </trkpt>
      <trkpt lat="46.32272" lon="4.7526">
        <ele>208.39999389648</ele>
        <time>2024-05-20T09:43:58.000Z</time>
      </trkpt>
      <trkpt lat="46.32269" lon="4.75265">
        <ele>208.39999389648</ele>
        <time>2024-05-20T09:43:59.000Z</time>
      </trkpt>
      <trkpt lat="46.32267" lon="4.7527">
        <ele>208.19999694824</ele>
        <time>2024-05-20T09:44:00.000Z</time>
      </trkpt>
      <trkpt lat="46.32264" lon="4.75275">
        <ele>208.19999694824</ele>
        <time>2024-05-20T09:44:01.000Z</time>
      </trkpt>
      <trkpt lat="46.32261" lon="4.7528">
        <ele>208.19999694824</ele>
        <time>2024-05-20T09:44:02.000Z</time>
      </trkpt>
      <trkpt lat="46.32258" lon="4.75284">
        <ele>208.19999694824</ele>
        <time>2024-05-20T09:44:03.000Z</time>
      </trkpt>
      <trkpt lat="46.32254" lon="4.75287">
        <ele>208.19999694824</ele>
        <time>2024-05-20T09:44:04.000Z</time>
      </trkpt>
      <trkpt lat="46.3225" lon="4.75291">
        <ele>208.19999694824</ele>
        <time>2024-05-20T09:44:05.000Z</time>
      </trkpt>
      <trkpt lat="46.32246" lon="4.75294">
        <ele>208.19999694824</ele>
        <time>2024-05-20T09:44:06.000Z</time>
      </trkpt>
      <trkpt lat="46.32242" lon="4.75296">
        <ele>208.19999694824</ele>
        <time>2024-05-20T09:44:07.000Z</time>
      </trkpt>
      <trkpt lat="46.32237" lon="4.753">
        <ele>208.19999694824</ele>
        <time>2024-05-20T09:44:08.000Z</time>
      </trkpt>
      <trkpt lat="46.32233" lon="4.75304">
        <ele>208.19999694824</ele>
        <time>2024-05-20T09:44:09.000Z</time>
      </trkpt>
      <trkpt lat="46.32229" lon="4.75309">
        <ele>208.19999694824</ele>
        <time>2024-05-20T09:44:10.000Z</time>
      </trkpt>
      <trkpt lat="46.32226" lon="4.75315">
        <ele>208</ele>
        <time>2024-05-20T09:44:11.000Z</time>
      </trkpt>
      <trkpt lat="46.32222" lon="4.75322">
        <ele>207.60000610352</ele>
        <time>2024-05-20T09:44:12.000Z</time>
      </trkpt>
      <trkpt lat="46.32219" lon="4.75328">
        <ele>207.60000610352</ele>
        <time>2024-05-20T09:44:13.000Z</time>
      </trkpt>
      <trkpt lat="46.32216" lon="4.75335">
        <ele>207.60000610352</ele>
        <time>2024-05-20T09:44:14.000Z</time>
      </trkpt>
      <trkpt lat="46.32213" lon="4.75341">
        <ele>207.60000610352</ele>
        <time>2024-05-20T09:44:15.000Z</time>
      </trkpt>
      <trkpt lat="46.32209" lon="4.75347">
        <ele>207.60000610352</ele>
        <time>2024-05-20T09:44:16.000Z</time>
      </trkpt>
      <trkpt lat="46.32206" lon="4.75354">
        <ele>207.39999389648</ele>
        <time>2024-05-20T09:44:17.000Z</time>
      </trkpt>
      <trkpt lat="46.32202" lon="4.75361">
        <ele>207.39999389648</ele>
        <time>2024-05-20T09:44:18.000Z</time>
      </trkpt>
      <trkpt lat="46.32198" lon="4.75368">
        <ele>207.39999389648</ele>
        <time>2024-05-20T09:44:19.000Z</time>
      </trkpt>
      <trkpt lat="46.32194" lon="4.75375">
        <ele>207.39999389648</ele>
        <time>2024-05-20T09:44:20.000Z</time>
      </trkpt>
      <trkpt lat="46.32191" lon="4.75381">
        <ele>207.39999389648</ele>
        <time>2024-05-20T09:44:21.000Z</time>
      </trkpt>
      <trkpt lat="46.32187" lon="4.75388">
        <ele>207.39999389648</ele>
        <time>2024-05-20T09:44:22.000Z</time>
      </trkpt>
      <trkpt lat="46.32183" lon="4.75394">
        <ele>207.39999389648</ele>
        <time>2024-05-20T09:44:23.000Z</time>
      </trkpt>
      <trkpt lat="46.32179" lon="4.754">
        <ele>207.39999389648</ele>
        <time>2024-05-20T09:44:24.000Z</time>
      </trkpt>
      <trkpt lat="46.32176" lon="4.75406">
        <ele>207.60000610352</ele>
        <time>2024-05-20T09:44:25.000Z</time>
      </trkpt>
      <trkpt lat="46.32172" lon="4.75413">
        <ele>207.80000305176</ele>
        <time>2024-05-20T09:44:26.000Z</time>
      </trkpt>
      <trkpt lat="46.32169" lon="4.7542">
        <ele>207.80000305176</ele>
        <time>2024-05-20T09:44:27.000Z</time>
      </trkpt>
      <trkpt lat="46.32166" lon="4.75427">
        <ele>207.80000305176</ele>
        <time>2024-05-20T09:44:28.000Z</time>
      </trkpt>
      <trkpt lat="46.32164" lon="4.75434">
        <ele>208</ele>
        <time>2024-05-20T09:44:29.000Z</time>
      </trkpt>
      <trkpt lat="46.32161" lon="4.75441">
        <ele>208</ele>
        <time>2024-05-20T09:44:30.000Z</time>
      </trkpt>
      <trkpt lat="46.32158" lon="4.75448">
        <ele>208</ele>
        <time>2024-05-20T09:44:31.000Z</time>
      </trkpt>
      <trkpt lat="46.32155" lon="4.75455">
        <ele>208.19999694824</ele>
        <time>2024-05-20T09:44:32.000Z</time>
      </trkpt>
      <trkpt lat="46.32152" lon="4.75462">
        <ele>208.19999694824</ele>
        <time>2024-05-20T09:44:33.000Z</time>
      </trkpt>
      <trkpt lat="46.32149" lon="4.75469">
        <ele>208.19999694824</ele>
        <time>2024-05-20T09:44:34.000Z</time>
      </trkpt>
      <trkpt lat="46.32147" lon="4.75476">
        <ele>208.19999694824</ele>
        <time>2024-05-20T09:44:35.000Z</time>
      </trkpt>
      <trkpt lat="46.32145" lon="4.75484">
        <ele>208.39999389648</ele>
        <time>2024-05-20T09:44:36.000Z</time>
      </trkpt>
      <trkpt lat="46.32143" lon="4.75492">
        <ele>208.60000610352</ele>
        <time>2024-05-20T09:44:37.000Z</time>
      </trkpt>
      <trkpt lat="46.32141" lon="4.75499">
        <ele>208.60000610352</ele>
        <time>2024-05-20T09:44:38.000Z</time>
      </trkpt>
      <trkpt lat="46.32137" lon="4.75507">
        <ele>208.80000305176</ele>
        <time>2024-05-20T09:44:39.000Z</time>
      </trkpt>
      <trkpt lat="46.32134" lon="4.75513">
        <ele>208.80000305176</ele>
        <time>2024-05-20T09:44:40.000Z</time>
      </trkpt>
      <trkpt lat="46.32131" lon="4.7552">
        <ele>208.80000305176</ele>
        <time>2024-05-20T09:44:41.000Z</time>
      </trkpt>
      <trkpt lat="46.32127" lon="4.75527">
        <ele>208.80000305176</ele>
        <time>2024-05-20T09:44:42.000Z</time>
      </trkpt>
      <trkpt lat="46.32123" lon="4.75533">
        <ele>208.80000305176</ele>
        <time>2024-05-20T09:44:43.000Z</time>
      </trkpt>
      <trkpt lat="46.32119" lon="4.75539">
        <ele>208.80000305176</ele>
        <time>2024-05-20T09:44:44.000Z</time>
      </trkpt>
      <trkpt lat="46.32115" lon="4.75545">
        <ele>208.80000305176</ele>
        <time>2024-05-20T09:44:45.000Z</time>
      </trkpt>
      <trkpt lat="46.32112" lon="4.75552">
        <ele>208.39999389648</ele>
        <time>2024-05-20T09:44:46.000Z</time>
      </trkpt>
      <trkpt lat="46.32108" lon="4.75559">
        <ele>208.39999389648</ele>
        <time>2024-05-20T09:44:47.000Z</time>
      </trkpt>
      <trkpt lat="46.32104" lon="4.75566">
        <ele>208.39999389648</ele>
        <time>2024-05-20T09:44:48.000Z</time>
      </trkpt>
      <trkpt lat="46.321" lon="4.75572">
        <ele>208.39999389648</ele>
        <time>2024-05-20T09:44:49.000Z</time>
      </trkpt>
      <trkpt lat="46.32096" lon="4.75578">
        <ele>208.19999694824</ele>
        <time>2024-05-20T09:44:50.000Z</time>
      </trkpt>
      <trkpt lat="46.32092" lon="4.75585">
        <ele>208.19999694824</ele>
        <time>2024-05-20T09:44:51.000Z</time>
      </trkpt>
      <trkpt lat="46.32088" lon="4.75591">
        <ele>208.19999694824</ele>
        <time>2024-05-20T09:44:52.000Z</time>
      </trkpt>
      <trkpt lat="46.32083" lon="4.75596">
        <ele>208</ele>
        <time>2024-05-20T09:44:53.000Z</time>
      </trkpt>
      <trkpt lat="46.32078" lon="4.75599">
        <ele>208</ele>
        <time>2024-05-20T09:44:54.000Z</time>
      </trkpt>
      <trkpt lat="46.32073" lon="4.75605">
        <ele>208</ele>
        <time>2024-05-20T09:44:55.000Z</time>
      </trkpt>
      <trkpt lat="46.32069" lon="4.75611">
        <ele>207.80000305176</ele>
        <time>2024-05-20T09:44:56.000Z</time>
      </trkpt>
      <trkpt lat="46.32064" lon="4.75617">
        <ele>207.80000305176</ele>
        <time>2024-05-20T09:44:57.000Z</time>
      </trkpt>
      <trkpt lat="46.32059" lon="4.75624">
        <ele>207.60000610352</ele>
        <time>2024-05-20T09:44:58.000Z</time>
      </trkpt>
      <trkpt lat="46.32055" lon="4.7563">
        <ele>207.60000610352</ele>
        <time>2024-05-20T09:44:59.000Z</time>
      </trkpt>
      <trkpt lat="46.32051" lon="4.75636">
        <ele>207.60000610352</ele>
        <time>2024-05-20T09:45:00.000Z</time>
      </trkpt>
      <trkpt lat="46.32046" lon="4.75641">
        <ele>207.39999389648</ele>
        <time>2024-05-20T09:45:01.000Z</time>
      </trkpt>
      <trkpt lat="46.32042" lon="4.75647">
        <ele>207.39999389648</ele>
        <time>2024-05-20T09:45:02.000Z</time>
      </trkpt>
      <trkpt lat="46.32037" lon="4.75652">
        <ele>207.60000610352</ele>
        <time>2024-05-20T09:45:03.000Z</time>
      </trkpt>
      <trkpt lat="46.32033" lon="4.75658">
        <ele>207.60000610352</ele>
        <time>2024-05-20T09:45:04.000Z</time>
      </trkpt>
      <trkpt lat="46.32028" lon="4.75664">
        <ele>207.80000305176</ele>
        <time>2024-05-20T09:45:05.000Z</time>
      </trkpt>
      <trkpt lat="46.32024" lon="4.75671">
        <ele>207.80000305176</ele>
        <time>2024-05-20T09:45:06.000Z</time>
      </trkpt>
      <trkpt lat="46.32019" lon="4.75677">
        <ele>207.80000305176</ele>
        <time>2024-05-20T09:45:07.000Z</time>
      </trkpt>
      <trkpt lat="46.32015" lon="4.75683">
        <ele>207.80000305176</ele>
        <time>2024-05-20T09:45:08.000Z</time>
      </trkpt>
      <trkpt lat="46.3201" lon="4.75688">
        <ele>207.80000305176</ele>
        <time>2024-05-20T09:45:09.000Z</time>
      </trkpt>
      <trkpt lat="46.32005" lon="4.75694">
        <ele>207.80000305176</ele>
        <time>2024-05-20T09:45:10.000Z</time>
      </trkpt>
      <trkpt lat="46.32001" lon="4.757">
        <ele>207.80000305176</ele>
        <time>2024-05-20T09:45:11.000Z</time>
      </trkpt>
      <trkpt lat="46.31996" lon="4.75705">
        <ele>207.80000305176</ele>
        <time>2024-05-20T09:45:12.000Z</time>
      </trkpt>
      <trkpt lat="46.31992" lon="4.75711">
        <ele>207.80000305176</ele>
        <time>2024-05-20T09:45:13.000Z</time>
      </trkpt>
      <trkpt lat="46.31987" lon="4.75717">
        <ele>207.80000305176</ele>
        <time>2024-05-20T09:45:14.000Z</time>
      </trkpt>
      <trkpt lat="46.31983" lon="4.75723">
        <ele>207.80000305176</ele>
        <time>2024-05-20T09:45:15.000Z</time>
      </trkpt>
      <trkpt lat="46.31978" lon="4.75729">
        <ele>207.80000305176</ele>
        <time>2024-05-20T09:45:16.000Z</time>
      </trkpt>
      <trkpt lat="46.31974" lon="4.75735">
        <ele>207.80000305176</ele>
        <time>2024-05-20T09:45:17.000Z</time>
      </trkpt>
      <trkpt lat="46.31969" lon="4.75741">
        <ele>207.80000305176</ele>
        <time>2024-05-20T09:45:18.000Z</time>
      </trkpt>
      <trkpt lat="46.31965" lon="4.75747">
        <ele>207.80000305176</ele>
        <time>2024-05-20T09:45:19.000Z</time>
      </trkpt>
      <trkpt lat="46.31961" lon="4.75753">
        <ele>207.80000305176</ele>
        <time>2024-05-20T09:45:20.000Z</time>
      </trkpt>
      <trkpt lat="46.31956" lon="4.75759">
        <ele>207.60000610352</ele>
        <time>2024-05-20T09:45:21.000Z</time>
      </trkpt>
      <trkpt lat="46.31952" lon="4.75765">
        <ele>207.60000610352</ele>
        <time>2024-05-20T09:45:22.000Z</time>
      </trkpt>
      <trkpt lat="46.31948" lon="4.75771">
        <ele>207.60000610352</ele>
        <time>2024-05-20T09:45:23.000Z</time>
      </trkpt>
      <trkpt lat="46.31944" lon="4.75776">
        <ele>207.19999694824</ele>
        <time>2024-05-20T09:45:24.000Z</time>
      </trkpt>
      <trkpt lat="46.31939" lon="4.75781">
        <ele>206.80000305176</ele>
        <time>2024-05-20T09:45:25.000Z</time>
      </trkpt>
      <trkpt lat="46.31935" lon="4.75786">
        <ele>206.60000610352</ele>
        <time>2024-05-20T09:45:26.000Z</time>
      </trkpt>
      <trkpt lat="46.31931" lon="4.75792">
        <ele>206.60000610352</ele>
        <time>2024-05-20T09:45:27.000Z</time>
      </trkpt>
      <trkpt lat="46.31926" lon="4.75798">
        <ele>206.60000610352</ele>
        <time>2024-05-20T09:45:28.000Z</time>
      </trkpt>
      <trkpt lat="46.31922" lon="4.75804">
        <ele>206.60000610352</ele>
        <time>2024-05-20T09:45:29.000Z</time>
      </trkpt>
      <trkpt lat="46.31917" lon="4.7581">
        <ele>206.60000610352</ele>
        <time>2024-05-20T09:45:30.000Z</time>
      </trkpt>
      <trkpt lat="46.31912" lon="4.75816">
        <ele>206.60000610352</ele>
        <time>2024-05-20T09:45:31.000Z</time>
      </trkpt>
      <trkpt lat="46.31907" lon="4.75822">
        <ele>206.60000610352</ele>
        <time>2024-05-20T09:45:32.000Z</time>
      </trkpt>
      <trkpt lat="46.31902" lon="4.75828">
        <ele>206.60000610352</ele>
        <time>2024-05-20T09:45:33.000Z</time>
      </trkpt>
      <trkpt lat="46.31897" lon="4.75834">
        <ele>206.60000610352</ele>
        <time>2024-05-20T09:45:34.000Z</time>
      </trkpt>
      <trkpt lat="46.31891" lon="4.75839">
        <ele>206.39999389648</ele>
        <time>2024-05-20T09:45:35.000Z</time>
      </trkpt>
      <trkpt lat="46.31886" lon="4.75845">
        <ele>206.39999389648</ele>
        <time>2024-05-20T09:45:36.000Z</time>
      </trkpt>
      <trkpt lat="46.3188" lon="4.7585">
        <ele>206.39999389648</ele>
        <time>2024-05-20T09:45:37.000Z</time>
      </trkpt>
      <trkpt lat="46.31874" lon="4.75856">
        <ele>206.19999694824</ele>
        <time>2024-05-20T09:45:38.000Z</time>
      </trkpt>
      <trkpt lat="46.31868" lon="4.75861">
        <ele>206</ele>
        <time>2024-05-20T09:45:39.000Z</time>
      </trkpt>
      <trkpt lat="46.31862" lon="4.75866">
        <ele>206</ele>
        <time>2024-05-20T09:45:40.000Z</time>
      </trkpt>
      <trkpt lat="46.31856" lon="4.75871">
        <ele>206</ele>
        <time>2024-05-20T09:45:41.000Z</time>
      </trkpt>
      <trkpt lat="46.31851" lon="4.75877">
        <ele>206</ele>
        <time>2024-05-20T09:45:42.000Z</time>
      </trkpt>
      <trkpt lat="46.31845" lon="4.75882">
        <ele>206</ele>
        <time>2024-05-20T09:45:43.000Z</time>
      </trkpt>
      <trkpt lat="46.31839" lon="4.75887">
        <ele>206</ele>
        <time>2024-05-20T09:45:44.000Z</time>
      </trkpt>
      <trkpt lat="46.31833" lon="4.75892">
        <ele>206</ele>
        <time>2024-05-20T09:45:45.000Z</time>
      </trkpt>
      <trkpt lat="46.31827" lon="4.75897">
        <ele>206</ele>
        <time>2024-05-20T09:45:46.000Z</time>
      </trkpt>
      <trkpt lat="46.31821" lon="4.75903">
        <ele>205.80000305176</ele>
        <time>2024-05-20T09:45:47.000Z</time>
      </trkpt>
      <trkpt lat="46.31815" lon="4.75908">
        <ele>205.80000305176</ele>
        <time>2024-05-20T09:45:48.000Z</time>
      </trkpt>
      <trkpt lat="46.31809" lon="4.75913">
        <ele>205.80000305176</ele>
        <time>2024-05-20T09:45:49.000Z</time>
      </trkpt>
      <trkpt lat="46.31803" lon="4.75919">
        <ele>205.80000305176</ele>
        <time>2024-05-20T09:45:50.000Z</time>
      </trkpt>
      <trkpt lat="46.31797" lon="4.75924">
        <ele>205.80000305176</ele>
        <time>2024-05-20T09:45:51.000Z</time>
      </trkpt>
      <trkpt lat="46.31791" lon="4.75929">
        <ele>205.80000305176</ele>
        <time>2024-05-20T09:45:52.000Z</time>
      </trkpt>
      <trkpt lat="46.31785" lon="4.75934">
        <ele>205.60000610352</ele>
        <time>2024-05-20T09:45:53.000Z</time>
      </trkpt>
      <trkpt lat="46.31779" lon="4.75939">
        <ele>205.39999389648</ele>
        <time>2024-05-20T09:45:54.000Z</time>
      </trkpt>
      <trkpt lat="46.31773" lon="4.75944">
        <ele>205.39999389648</ele>
        <time>2024-05-20T09:45:55.000Z</time>
      </trkpt>
      <trkpt lat="46.31767" lon="4.75949">
        <ele>205.39999389648</ele>
        <time>2024-05-20T09:45:56.000Z</time>
      </trkpt>
      <trkpt lat="46.31761" lon="4.75954">
        <ele>205.19999694824</ele>
        <time>2024-05-20T09:45:57.000Z</time>
      </trkpt>
      <trkpt lat="46.31755" lon="4.75958">
        <ele>204.80000305176</ele>
        <time>2024-05-20T09:45:58.000Z</time>
      </trkpt>
      <trkpt lat="46.31749" lon="4.75963">
        <ele>204.60000610352</ele>
        <time>2024-05-20T09:45:59.000Z</time>
      </trkpt>
      <trkpt lat="46.31743" lon="4.75968">
        <ele>204.60000610352</ele>
        <time>2024-05-20T09:46:00.000Z</time>
      </trkpt>
      <trkpt lat="46.31738" lon="4.75973">
        <ele>204.60000610352</ele>
        <time>2024-05-20T09:46:01.000Z</time>
      </trkpt>
      <trkpt lat="46.31732" lon="4.75978">
        <ele>204.60000610352</ele>
        <time>2024-05-20T09:46:02.000Z</time>
      </trkpt>
      <trkpt lat="46.31726" lon="4.75983">
        <ele>204.60000610352</ele>
        <time>2024-05-20T09:46:03.000Z</time>
      </trkpt>
      <trkpt lat="46.3172" lon="4.75987">
        <ele>204.39999389648</ele>
        <time>2024-05-20T09:46:04.000Z</time>
      </trkpt>
      <trkpt lat="46.31713" lon="4.75992">
        <ele>204.19999694824</ele>
        <time>2024-05-20T09:46:05.000Z</time>
      </trkpt>
      <trkpt lat="46.31707" lon="4.75997">
        <ele>204</ele>
        <time>2024-05-20T09:46:06.000Z</time>
      </trkpt>
      <trkpt lat="46.31701" lon="4.76001">
        <ele>204</ele>
        <time>2024-05-20T09:46:07.000Z</time>
      </trkpt>
      <trkpt lat="46.31695" lon="4.76005">
        <ele>203.80000305176</ele>
        <time>2024-05-20T09:46:08.000Z</time>
      </trkpt>
      <trkpt lat="46.31689" lon="4.7601">
        <ele>203.60000610352</ele>
        <time>2024-05-20T09:46:09.000Z</time>
      </trkpt>
      <trkpt lat="46.31683" lon="4.76013">
        <ele>203.60000610352</ele>
        <time>2024-05-20T09:46:10.000Z</time>
      </trkpt>
      <trkpt lat="46.31677" lon="4.76016">
        <ele>203.60000610352</ele>
        <time>2024-05-20T09:46:11.000Z</time>
      </trkpt>
      <trkpt lat="46.31671" lon="4.7602">
        <ele>203.39999389648</ele>
        <time>2024-05-20T09:46:12.000Z</time>
      </trkpt>
      <trkpt lat="46.31665" lon="4.76023">
        <ele>203.39999389648</ele>
        <time>2024-05-20T09:46:13.000Z</time>
      </trkpt>
      <trkpt lat="46.31658" lon="4.76026">
        <ele>203.60000610352</ele>
        <time>2024-05-20T09:46:14.000Z</time>
      </trkpt>
      <trkpt lat="46.31652" lon="4.76029">
        <ele>203.60000610352</ele>
        <time>2024-05-20T09:46:15.000Z</time>
      </trkpt>
      <trkpt lat="46.31646" lon="4.76032">
        <ele>203.60000610352</ele>
        <time>2024-05-20T09:46:16.000Z</time>
      </trkpt>
      <trkpt lat="46.3164" lon="4.76035">
        <ele>203.60000610352</ele>
        <time>2024-05-20T09:46:17.000Z</time>
      </trkpt>
      <trkpt lat="46.31634" lon="4.76037">
        <ele>203.60000610352</ele>
        <time>2024-05-20T09:46:18.000Z</time>
      </trkpt>
      <trkpt lat="46.31628" lon="4.7604">
        <ele>203.60000610352</ele>
        <time>2024-05-20T09:46:19.000Z</time>
      </trkpt>
      <trkpt lat="46.31622" lon="4.76042">
        <ele>203.60000610352</ele>
        <time>2024-05-20T09:46:20.000Z</time>
      </trkpt>
      <trkpt lat="46.31616" lon="4.76044">
        <ele>203.60000610352</ele>
        <time>2024-05-20T09:46:21.000Z</time>
      </trkpt>
      <trkpt lat="46.3161" lon="4.76047">
        <ele>203.60000610352</ele>
        <time>2024-05-20T09:46:22.000Z</time>
      </trkpt>
      <trkpt lat="46.31604" lon="4.76049">
        <ele>203.80000305176</ele>
        <time>2024-05-20T09:46:23.000Z</time>
      </trkpt>
      <trkpt lat="46.31598" lon="4.76051">
        <ele>203.80000305176</ele>
        <time>2024-05-20T09:46:24.000Z</time>
      </trkpt>
      <trkpt lat="46.31591" lon="4.76053">
        <ele>203.80000305176</ele>
        <time>2024-05-20T09:46:25.000Z</time>
      </trkpt>
      <trkpt lat="46.31585" lon="4.76055">
        <ele>203.80000305176</ele>
        <time>2024-05-20T09:46:26.000Z</time>
      </trkpt>
      <trkpt lat="46.31579" lon="4.76057">
        <ele>203.80000305176</ele>
        <time>2024-05-20T09:46:27.000Z</time>
      </trkpt>
      <trkpt lat="46.31573" lon="4.76059">
        <ele>203.80000305176</ele>
        <time>2024-05-20T09:46:28.000Z</time>
      </trkpt>
      <trkpt lat="46.31567" lon="4.7606">
        <ele>203.80000305176</ele>
        <time>2024-05-20T09:46:29.000Z</time>
      </trkpt>
      <trkpt lat="46.31561" lon="4.76061">
        <ele>203.80000305176</ele>
        <time>2024-05-20T09:46:30.000Z</time>
      </trkpt>
      <trkpt lat="46.31555" lon="4.76062">
        <ele>203.80000305176</ele>
        <time>2024-05-20T09:46:31.000Z</time>
      </trkpt>
      <trkpt lat="46.31548" lon="4.76063">
        <ele>203.80000305176</ele>
        <time>2024-05-20T09:46:32.000Z</time>
      </trkpt>
      <trkpt lat="46.31542" lon="4.76064">
        <ele>203.80000305176</ele>
        <time>2024-05-20T09:46:33.000Z</time>
      </trkpt>
      <trkpt lat="46.31535" lon="4.76066">
        <ele>203.80000305176</ele>
        <time>2024-05-20T09:46:34.000Z</time>
      </trkpt>
      <trkpt lat="46.31529" lon="4.76067">
        <ele>204.19999694824</ele>
        <time>2024-05-20T09:46:35.000Z</time>
      </trkpt>
      <trkpt lat="46.31522" lon="4.76068">
        <ele>204.19999694824</ele>
        <time>2024-05-20T09:46:36.000Z</time>
      </trkpt>
      <trkpt lat="46.31516" lon="4.76069">
        <ele>204.19999694824</ele>
        <time>2024-05-20T09:46:37.000Z</time>
      </trkpt>
      <trkpt lat="46.31509" lon="4.7607">
        <ele>204.19999694824</ele>
        <time>2024-05-20T09:46:38.000Z</time>
      </trkpt>
      <trkpt lat="46.31503" lon="4.7607">
        <ele>204.19999694824</ele>
        <time>2024-05-20T09:46:39.000Z</time>
      </trkpt>
      <trkpt lat="46.31496" lon="4.76071">
        <ele>204.39999389648</ele>
        <time>2024-05-20T09:46:40.000Z</time>
      </trkpt>
      <trkpt lat="46.3149" lon="4.76071">
        <ele>204.39999389648</ele>
        <time>2024-05-20T09:46:41.000Z</time>
      </trkpt>
      <trkpt lat="46.31483" lon="4.76072">
        <ele>204.39999389648</ele>
        <time>2024-05-20T09:46:42.000Z</time>
      </trkpt>
      <trkpt lat="46.31477" lon="4.76073">
        <ele>204.60000610352</ele>
        <time>2024-05-20T09:46:43.000Z</time>
      </trkpt>
      <trkpt lat="46.3147" lon="4.76073">
        <ele>204.60000610352</ele>
        <time>2024-05-20T09:46:44.000Z</time>
      </trkpt>
      <trkpt lat="46.31464" lon="4.76074">
        <ele>204.60000610352</ele>
        <time>2024-05-20T09:46:45.000Z</time>
      </trkpt>
      <trkpt lat="46.31457" lon="4.76075">
        <ele>204.60000610352</ele>
        <time>2024-05-20T09:46:46.000Z</time>
      </trkpt>
      <trkpt lat="46.31451" lon="4.76076">
        <ele>204.60000610352</ele>
        <time>2024-05-20T09:46:47.000Z</time>
      </trkpt>
      <trkpt lat="46.31444" lon="4.76076">
        <ele>204.39999389648</ele>
        <time>2024-05-20T09:46:48.000Z</time>
      </trkpt>
      <trkpt lat="46.31438" lon="4.76077">
        <ele>204.39999389648</ele>
        <time>2024-05-20T09:46:49.000Z</time>
      </trkpt>
      <trkpt lat="46.31432" lon="4.76077">
        <ele>204.39999389648</ele>
        <time>2024-05-20T09:46:50.000Z</time>
      </trkpt>
      <trkpt lat="46.31425" lon="4.76078">
        <ele>204.39999389648</ele>
        <time>2024-05-20T09:46:51.000Z</time>
      </trkpt>
      <trkpt lat="46.31419" lon="4.76079">
        <ele>204.39999389648</ele>
        <time>2024-05-20T09:46:52.000Z</time>
      </trkpt>
      <trkpt lat="46.31412" lon="4.76079">
        <ele>204.60000610352</ele>
        <time>2024-05-20T09:46:53.000Z</time>
      </trkpt>
      <trkpt lat="46.31405" lon="4.76081">
        <ele>204.60000610352</ele>
        <time>2024-05-20T09:46:54.000Z</time>
      </trkpt>
      <trkpt lat="46.31399" lon="4.76081">
        <ele>204.60000610352</ele>
        <time>2024-05-20T09:46:55.000Z</time>
      </trkpt>
      <trkpt lat="46.31393" lon="4.76082">
        <ele>204.60000610352</ele>
        <time>2024-05-20T09:46:56.000Z</time>
      </trkpt>
      <trkpt lat="46.31387" lon="4.76082">
        <ele>204.60000610352</ele>
        <time>2024-05-20T09:46:57.000Z</time>
      </trkpt>
      <trkpt lat="46.31381" lon="4.76083">
        <ele>204.60000610352</ele>
        <time>2024-05-20T09:46:58.000Z</time>
      </trkpt>
      <trkpt lat="46.31377" lon="4.76083">
        <ele>204.60000610352</ele>
        <time>2024-05-20T09:46:59.000Z</time>
      </trkpt>
      <trkpt lat="46.31374" lon="4.76084">
        <ele>204.80000305176</ele>
        <time>2024-05-20T09:47:00.000Z</time>
      </trkpt>
      <trkpt lat="46.31371" lon="4.76085">
        <ele>204.80000305176</ele>
        <time>2024-05-20T09:47:01.000Z</time>
      </trkpt>
      <trkpt lat="46.31368" lon="4.76085">
        <ele>204.80000305176</ele>
        <time>2024-05-20T09:47:02.000Z</time>
      </trkpt>
      <trkpt lat="46.31365" lon="4.76086">
        <ele>204.80000305176</ele>
        <time>2024-05-20T09:47:03.000Z</time>
      </trkpt>
      <trkpt lat="46.31361" lon="4.76086">
        <ele>204.80000305176</ele>
        <time>2024-05-20T09:47:04.000Z</time>
      </trkpt>
      <trkpt lat="46.31357" lon="4.76086">
        <ele>204.80000305176</ele>
        <time>2024-05-20T09:47:05.000Z</time>
      </trkpt>
      <trkpt lat="46.31352" lon="4.76087">
        <ele>204.80000305176</ele>
        <time>2024-05-20T09:47:06.000Z</time>
      </trkpt>
      <trkpt lat="46.31347" lon="4.76088">
        <ele>204.60000610352</ele>
        <time>2024-05-20T09:47:07.000Z</time>
      </trkpt>
      <trkpt lat="46.31341" lon="4.76089">
        <ele>204.19999694824</ele>
        <time>2024-05-20T09:47:08.000Z</time>
      </trkpt>
      <trkpt lat="46.31335" lon="4.7609">
        <ele>204</ele>
        <time>2024-05-20T09:47:09.000Z</time>
      </trkpt>
      <trkpt lat="46.31329" lon="4.76092">
        <ele>204</ele>
        <time>2024-05-20T09:47:10.000Z</time>
      </trkpt>
      <trkpt lat="46.31324" lon="4.76095">
        <ele>204</ele>
        <time>2024-05-20T09:47:11.000Z</time>
      </trkpt>
      <trkpt lat="46.31318" lon="4.76097">
        <ele>204</ele>
        <time>2024-05-20T09:47:12.000Z</time>
      </trkpt>
      <trkpt lat="46.31312" lon="4.76099">
        <ele>204</ele>
        <time>2024-05-20T09:47:13.000Z</time>
      </trkpt>
      <trkpt lat="46.31306" lon="4.76102">
        <ele>204</ele>
        <time>2024-05-20T09:47:14.000Z</time>
      </trkpt>
      <trkpt lat="46.313" lon="4.76104">
        <ele>203.80000305176</ele>
        <time>2024-05-20T09:47:15.000Z</time>
      </trkpt>
      <trkpt lat="46.31294" lon="4.76107">
        <ele>203.80000305176</ele>
        <time>2024-05-20T09:47:16.000Z</time>
      </trkpt>
      <trkpt lat="46.31288" lon="4.7611">
        <ele>203.60000610352</ele>
        <time>2024-05-20T09:47:17.000Z</time>
      </trkpt>
      <trkpt lat="46.31282" lon="4.76113">
        <ele>203.60000610352</ele>
        <time>2024-05-20T09:47:18.000Z</time>
      </trkpt>
      <trkpt lat="46.31276" lon="4.76116">
        <ele>203.60000610352</ele>
        <time>2024-05-20T09:47:19.000Z</time>
      </trkpt>
      <trkpt lat="46.3127" lon="4.76119">
        <ele>203.60000610352</ele>
        <time>2024-05-20T09:47:20.000Z</time>
      </trkpt>
      <trkpt lat="46.31264" lon="4.76122">
        <ele>203.39999389648</ele>
        <time>2024-05-20T09:47:21.000Z</time>
      </trkpt>
      <trkpt lat="46.31259" lon="4.76125">
        <ele>203.19999694824</ele>
        <time>2024-05-20T09:47:22.000Z</time>
      </trkpt>
      <trkpt lat="46.31253" lon="4.76128">
        <ele>203</ele>
        <time>2024-05-20T09:47:23.000Z</time>
      </trkpt>
      <trkpt lat="46.31248" lon="4.76131">
        <ele>203</ele>
        <time>2024-05-20T09:47:24.000Z</time>
      </trkpt>
      <trkpt lat="46.31244" lon="4.76135">
        <ele>203</ele>
        <time>2024-05-20T09:47:25.000Z</time>
      </trkpt>
      <trkpt lat="46.31238" lon="4.76139">
        <ele>202.80000305176</ele>
        <time>2024-05-20T09:47:26.000Z</time>
      </trkpt>
      <trkpt lat="46.31233" lon="4.76142">
        <ele>202.80000305176</ele>
        <time>2024-05-20T09:47:27.000Z</time>
      </trkpt>
      <trkpt lat="46.31227" lon="4.76146">
        <ele>202.60000610352</ele>
        <time>2024-05-20T09:47:28.000Z</time>
      </trkpt>
      <trkpt lat="46.31221" lon="4.7615">
        <ele>202.60000610352</ele>
        <time>2024-05-20T09:47:29.000Z</time>
      </trkpt>
      <trkpt lat="46.31216" lon="4.76155">
        <ele>202.60000610352</ele>
        <time>2024-05-20T09:47:30.000Z</time>
      </trkpt>
      <trkpt lat="46.3121" lon="4.76159">
        <ele>202.39999389648</ele>
        <time>2024-05-20T09:47:31.000Z</time>
      </trkpt>
      <trkpt lat="46.31204" lon="4.76163">
        <ele>202.39999389648</ele>
        <time>2024-05-20T09:47:32.000Z</time>
      </trkpt>
      <trkpt lat="46.31197" lon="4.76168">
        <ele>202.39999389648</ele>
        <time>2024-05-20T09:47:33.000Z</time>
      </trkpt>
      <trkpt lat="46.31191" lon="4.76172">
        <ele>202.39999389648</ele>
        <time>2024-05-20T09:47:34.000Z</time>
      </trkpt>
      <trkpt lat="46.31186" lon="4.76177">
        <ele>202.39999389648</ele>
        <time>2024-05-20T09:47:35.000Z</time>
      </trkpt>
      <trkpt lat="46.3118" lon="4.76182">
        <ele>202.39999389648</ele>
        <time>2024-05-20T09:47:36.000Z</time>
      </trkpt>
      <trkpt lat="46.31174" lon="4.76188">
        <ele>202</ele>
        <time>2024-05-20T09:47:37.000Z</time>
      </trkpt>
      <trkpt lat="46.31168" lon="4.76194">
        <ele>201.80000305176</ele>
        <time>2024-05-20T09:47:38.000Z</time>
      </trkpt>
      <trkpt lat="46.31162" lon="4.76199">
        <ele>201.80000305176</ele>
        <time>2024-05-20T09:47:39.000Z</time>
      </trkpt>
      <trkpt lat="46.31156" lon="4.76205">
        <ele>201.60000610352</ele>
        <time>2024-05-20T09:47:40.000Z</time>
      </trkpt>
      <trkpt lat="46.3115" lon="4.76211">
        <ele>201.39999389648</ele>
        <time>2024-05-20T09:47:41.000Z</time>
      </trkpt>
      <trkpt lat="46.31144" lon="4.76217">
        <ele>201.19999694824</ele>
        <time>2024-05-20T09:47:42.000Z</time>
      </trkpt>
      <trkpt lat="46.31138" lon="4.76223">
        <ele>201.19999694824</ele>
        <time>2024-05-20T09:47:43.000Z</time>
      </trkpt>
      <trkpt lat="46.31133" lon="4.76229">
        <ele>201</ele>
        <time>2024-05-20T09:47:44.000Z</time>
      </trkpt>
      <trkpt lat="46.31127" lon="4.76236">
        <ele>200.80000305176</ele>
        <time>2024-05-20T09:47:45.000Z</time>
      </trkpt>
      <trkpt lat="46.31122" lon="4.76242">
        <ele>200.80000305176</ele>
        <time>2024-05-20T09:47:46.000Z</time>
      </trkpt>
      <trkpt lat="46.31116" lon="4.76248">
        <ele>200.80000305176</ele>
        <time>2024-05-20T09:47:47.000Z</time>
      </trkpt>
      <trkpt lat="46.3111" lon="4.76254">
        <ele>200.80000305176</ele>
        <time>2024-05-20T09:47:48.000Z</time>
      </trkpt>
      <trkpt lat="46.31105" lon="4.76261">
        <ele>200.80000305176</ele>
        <time>2024-05-20T09:47:49.000Z</time>
      </trkpt>
      <trkpt lat="46.31099" lon="4.76267">
        <ele>200.80000305176</ele>
        <time>2024-05-20T09:47:50.000Z</time>
      </trkpt>
      <trkpt lat="46.31094" lon="4.76274">
        <ele>200.60000610352</ele>
        <time>2024-05-20T09:47:51.000Z</time>
      </trkpt>
      <trkpt lat="46.31088" lon="4.7628">
        <ele>200.60000610352</ele>
        <time>2024-05-20T09:47:52.000Z</time>
      </trkpt>
      <trkpt lat="46.31083" lon="4.76287">
        <ele>200.60000610352</ele>
        <time>2024-05-20T09:47:53.000Z</time>
      </trkpt>
      <trkpt lat="46.31078" lon="4.76294">
        <ele>200.39999389648</ele>
        <time>2024-05-20T09:47:54.000Z</time>
      </trkpt>
      <trkpt lat="46.31073" lon="4.76302">
        <ele>200.39999389648</ele>
        <time>2024-05-20T09:47:55.000Z</time>
      </trkpt>
      <trkpt lat="46.31067" lon="4.76309">
        <ele>200</ele>
        <time>2024-05-20T09:47:56.000Z</time>
      </trkpt>
      <trkpt lat="46.31062" lon="4.76316">
        <ele>200</ele>
        <time>2024-05-20T09:47:57.000Z</time>
      </trkpt>
      <trkpt lat="46.31056" lon="4.76323">
        <ele>199.60000610352</ele>
        <time>2024-05-20T09:47:58.000Z</time>
      </trkpt>
      <trkpt lat="46.31051" lon="4.7633">
        <ele>199.60000610352</ele>
        <time>2024-05-20T09:47:59.000Z</time>
      </trkpt>
      <trkpt lat="46.31046" lon="4.76338">
        <ele>199.39999389648</ele>
        <time>2024-05-20T09:48:00.000Z</time>
      </trkpt>
      <trkpt lat="46.31041" lon="4.76345">
        <ele>199.19999694824</ele>
        <time>2024-05-20T09:48:01.000Z</time>
      </trkpt>
      <trkpt lat="46.31036" lon="4.76353">
        <ele>199.19999694824</ele>
        <time>2024-05-20T09:48:02.000Z</time>
      </trkpt>
      <trkpt lat="46.31031" lon="4.76361">
        <ele>199</ele>
        <time>2024-05-20T09:48:03.000Z</time>
      </trkpt>
      <trkpt lat="46.31026" lon="4.76368">
        <ele>199</ele>
        <time>2024-05-20T09:48:04.000Z</time>
      </trkpt>
      <trkpt lat="46.3102" lon="4.76376">
        <ele>199</ele>
        <time>2024-05-20T09:48:05.000Z</time>
      </trkpt>
      <trkpt lat="46.31016" lon="4.76384">
        <ele>199</ele>
        <time>2024-05-20T09:48:06.000Z</time>
      </trkpt>
      <trkpt lat="46.31011" lon="4.76393">
        <ele>199</ele>
        <time>2024-05-20T09:48:07.000Z</time>
      </trkpt>
      <trkpt lat="46.31007" lon="4.76401">
        <ele>199</ele>
        <time>2024-05-20T09:48:08.000Z</time>
      </trkpt>
      <trkpt lat="46.31003" lon="4.7641">
        <ele>199.19999694824</ele>
        <time>2024-05-20T09:48:09.000Z</time>
      </trkpt>
      <trkpt lat="46.30999" lon="4.76418">
        <ele>199.19999694824</ele>
        <time>2024-05-20T09:48:10.000Z</time>
      </trkpt>
      <trkpt lat="46.30995" lon="4.76427">
        <ele>199.19999694824</ele>
        <time>2024-05-20T09:48:11.000Z</time>
      </trkpt>
      <trkpt lat="46.3099" lon="4.76435">
        <ele>199.19999694824</ele>
        <time>2024-05-20T09:48:12.000Z</time>
      </trkpt>
      <trkpt lat="46.30986" lon="4.76443">
        <ele>199</ele>
        <time>2024-05-20T09:48:13.000Z</time>
      </trkpt>
      <trkpt lat="46.30982" lon="4.76452">
        <ele>199</ele>
        <time>2024-05-20T09:48:14.000Z</time>
      </trkpt>
      <trkpt lat="46.30978" lon="4.76461">
        <ele>199</ele>
        <time>2024-05-20T09:48:15.000Z</time>
      </trkpt>
      <trkpt lat="46.30974" lon="4.7647">
        <ele>199</ele>
        <time>2024-05-20T09:48:16.000Z</time>
      </trkpt>
      <trkpt lat="46.3097" lon="4.76479">
        <ele>199</ele>
        <time>2024-05-20T09:48:17.000Z</time>
      </trkpt>
      <trkpt lat="46.30967" lon="4.76488">
        <ele>199</ele>
        <time>2024-05-20T09:48:18.000Z</time>
      </trkpt>
      <trkpt lat="46.30963" lon="4.76497">
        <ele>199</ele>
        <time>2024-05-20T09:48:19.000Z</time>
      </trkpt>
      <trkpt lat="46.3096" lon="4.76506">
        <ele>199</ele>
        <time>2024-05-20T09:48:20.000Z</time>
      </trkpt>
      <trkpt lat="46.30956" lon="4.76515">
        <ele>199</ele>
        <time>2024-05-20T09:48:21.000Z</time>
      </trkpt>
      <trkpt lat="46.30953" lon="4.76524">
        <ele>199</ele>
        <time>2024-05-20T09:48:22.000Z</time>
      </trkpt>
      <trkpt lat="46.30949" lon="4.76532">
        <ele>199</ele>
        <time>2024-05-20T09:48:23.000Z</time>
      </trkpt>
      <trkpt lat="46.30946" lon="4.76541">
        <ele>199</ele>
        <time>2024-05-20T09:48:24.000Z</time>
      </trkpt>
      <trkpt lat="46.30942" lon="4.76549">
        <ele>199</ele>
        <time>2024-05-20T09:48:25.000Z</time>
      </trkpt>
      <trkpt lat="46.30939" lon="4.76557">
        <ele>199</ele>
        <time>2024-05-20T09:48:26.000Z</time>
      </trkpt>
      <trkpt lat="46.30935" lon="4.76565">
        <ele>199</ele>
        <time>2024-05-20T09:48:27.000Z</time>
      </trkpt>
      <trkpt lat="46.30932" lon="4.76573">
        <ele>199</ele>
        <time>2024-05-20T09:48:28.000Z</time>
      </trkpt>
      <trkpt lat="46.30928" lon="4.76581">
        <ele>199</ele>
        <time>2024-05-20T09:48:29.000Z</time>
      </trkpt>
      <trkpt lat="46.30924" lon="4.76589">
        <ele>199</ele>
        <time>2024-05-20T09:48:30.000Z</time>
      </trkpt>
      <trkpt lat="46.3092" lon="4.76597">
        <ele>199</ele>
        <time>2024-05-20T09:48:31.000Z</time>
      </trkpt>
      <trkpt lat="46.30916" lon="4.76605">
        <ele>199</ele>
        <time>2024-05-20T09:48:32.000Z</time>
      </trkpt>
      <trkpt lat="46.30912" lon="4.76613">
        <ele>199</ele>
        <time>2024-05-20T09:48:33.000Z</time>
      </trkpt>
      <trkpt lat="46.30908" lon="4.7662">
        <ele>199</ele>
        <time>2024-05-20T09:48:34.000Z</time>
      </trkpt>
      <trkpt lat="46.30904" lon="4.76627">
        <ele>199</ele>
        <time>2024-05-20T09:48:35.000Z</time>
      </trkpt>
      <trkpt lat="46.309" lon="4.76633">
        <ele>199</ele>
        <time>2024-05-20T09:48:36.000Z</time>
      </trkpt>
      <trkpt lat="46.30896" lon="4.76639">
        <ele>199</ele>
        <time>2024-05-20T09:48:37.000Z</time>
      </trkpt>
      <trkpt lat="46.30892" lon="4.76644">
        <ele>199</ele>
        <time>2024-05-20T09:48:38.000Z</time>
      </trkpt>
      <trkpt lat="46.30889" lon="4.76648">
        <ele>199</ele>
        <time>2024-05-20T09:48:39.000Z</time>
      </trkpt>
      <trkpt lat="46.30886" lon="4.76653">
        <ele>199</ele>
        <time>2024-05-20T09:48:40.000Z</time>
      </trkpt>
      <trkpt lat="46.30883" lon="4.76659">
        <ele>199</ele>
        <time>2024-05-20T09:48:41.000Z</time>
      </trkpt>
      <trkpt lat="46.30879" lon="4.76664">
        <ele>199</ele>
        <time>2024-05-20T09:48:42.000Z</time>
      </trkpt>
      <trkpt lat="46.30874" lon="4.76669">
        <ele>199</ele>
        <time>2024-05-20T09:48:43.000Z</time>
      </trkpt>
      <trkpt lat="46.30869" lon="4.76675">
        <ele>199.19999694824</ele>
        <time>2024-05-20T09:48:44.000Z</time>
      </trkpt>
      <trkpt lat="46.30863" lon="4.76681">
        <ele>199.19999694824</ele>
        <time>2024-05-20T09:48:45.000Z</time>
      </trkpt>
      <trkpt lat="46.30858" lon="4.76688">
        <ele>199.19999694824</ele>
        <time>2024-05-20T09:48:46.000Z</time>
      </trkpt>
      <trkpt lat="46.30852" lon="4.76694">
        <ele>199</ele>
        <time>2024-05-20T09:48:47.000Z</time>
      </trkpt>
      <trkpt lat="46.30847" lon="4.767">
        <ele>199</ele>
        <time>2024-05-20T09:48:48.000Z</time>
      </trkpt>
      <trkpt lat="46.30842" lon="4.76705">
        <ele>199</ele>
        <time>2024-05-20T09:48:49.000Z</time>
      </trkpt>
      <trkpt lat="46.30836" lon="4.7671">
        <ele>199</ele>
        <time>2024-05-20T09:48:50.000Z</time>
      </trkpt>
      <trkpt lat="46.3083" lon="4.76716">
        <ele>199</ele>
        <time>2024-05-20T09:48:51.000Z</time>
      </trkpt>
      <trkpt lat="46.30825" lon="4.76721">
        <ele>199</ele>
        <time>2024-05-20T09:48:52.000Z</time>
      </trkpt>
      <trkpt lat="46.30819" lon="4.76727">
        <ele>199</ele>
        <time>2024-05-20T09:48:53.000Z</time>
      </trkpt>
      <trkpt lat="46.30813" lon="4.76732">
        <ele>199</ele>
        <time>2024-05-20T09:48:54.000Z</time>
      </trkpt>
      <trkpt lat="46.30806" lon="4.76737">
        <ele>199</ele>
        <time>2024-05-20T09:48:55.000Z</time>
      </trkpt>
      <trkpt lat="46.308" lon="4.76741">
        <ele>199</ele>
        <time>2024-05-20T09:48:56.000Z</time>
      </trkpt>
      <trkpt lat="46.30793" lon="4.76746">
        <ele>199</ele>
        <time>2024-05-20T09:48:57.000Z</time>
      </trkpt>
      <trkpt lat="46.30787" lon="4.7675">
        <ele>199</ele>
        <time>2024-05-20T09:48:58.000Z</time>
      </trkpt>
      <trkpt lat="46.30781" lon="4.76754">
        <ele>199</ele>
        <time>2024-05-20T09:48:59.000Z</time>
      </trkpt>
      <trkpt lat="46.30774" lon="4.76758">
        <ele>199</ele>
        <time>2024-05-20T09:49:00.000Z</time>
      </trkpt>
      <trkpt lat="46.30768" lon="4.76762">
        <ele>199</ele>
        <time>2024-05-20T09:49:01.000Z</time>
      </trkpt>
      <trkpt lat="46.30762" lon="4.76765">
        <ele>199</ele>
        <time>2024-05-20T09:49:02.000Z</time>
      </trkpt>
      <trkpt lat="46.30755" lon="4.76768">
        <ele>199</ele>
        <time>2024-05-20T09:49:03.000Z</time>
      </trkpt>
      <trkpt lat="46.30749" lon="4.76772">
        <ele>199</ele>
        <time>2024-05-20T09:49:04.000Z</time>
      </trkpt>
      <trkpt lat="46.30743" lon="4.76774">
        <ele>198.80000305176</ele>
        <time>2024-05-20T09:49:05.000Z</time>
      </trkpt>
      <trkpt lat="46.30737" lon="4.76777">
        <ele>198.80000305176</ele>
        <time>2024-05-20T09:49:06.000Z</time>
      </trkpt>
      <trkpt lat="46.30732" lon="4.7678">
        <ele>198.80000305176</ele>
        <time>2024-05-20T09:49:07.000Z</time>
      </trkpt>
      <trkpt lat="46.30727" lon="4.76784">
        <ele>198.80000305176</ele>
        <time>2024-05-20T09:49:08.000Z</time>
      </trkpt>
      <trkpt lat="46.30721" lon="4.76786">
        <ele>198.80000305176</ele>
        <time>2024-05-20T09:49:09.000Z</time>
      </trkpt>
      <trkpt lat="46.30716" lon="4.76789">
        <ele>198.80000305176</ele>
        <time>2024-05-20T09:49:10.000Z</time>
      </trkpt>
      <trkpt lat="46.30711" lon="4.76791">
        <ele>198.80000305176</ele>
        <time>2024-05-20T09:49:11.000Z</time>
      </trkpt>
      <trkpt lat="46.30707" lon="4.76793">
        <ele>198.60000610352</ele>
        <time>2024-05-20T09:49:12.000Z</time>
      </trkpt>
      <trkpt lat="46.30703" lon="4.76794">
        <ele>198.60000610352</ele>
        <time>2024-05-20T09:49:13.000Z</time>
      </trkpt>
      <trkpt lat="46.307" lon="4.76796">
        <ele>198.60000610352</ele>
        <time>2024-05-20T09:49:14.000Z</time>
      </trkpt>
      <trkpt lat="46.30697" lon="4.76797">
        <ele>198.60000610352</ele>
        <time>2024-05-20T09:49:15.000Z</time>
      </trkpt>
      <trkpt lat="46.30694" lon="4.76798">
        <ele>198.80000305176</ele>
        <time>2024-05-20T09:49:16.000Z</time>
      </trkpt>
      <trkpt lat="46.3069" lon="4.768">
        <ele>199.19999694824</ele>
        <time>2024-05-20T09:49:17.000Z</time>
      </trkpt>
      <trkpt lat="46.30686" lon="4.76801">
        <ele>199.19999694824</ele>
        <time>2024-05-20T09:49:18.000Z</time>
      </trkpt>
      <trkpt lat="46.30681" lon="4.76804">
        <ele>199.19999694824</ele>
        <time>2024-05-20T09:49:19.000Z</time>
      </trkpt>
      <trkpt lat="46.30677" lon="4.76806">
        <ele>199.19999694824</ele>
        <time>2024-05-20T09:49:20.000Z</time>
      </trkpt>
      <trkpt lat="46.30673" lon="4.76809">
        <ele>199</ele>
        <time>2024-05-20T09:49:21.000Z</time>
      </trkpt>
      <trkpt lat="46.30669" lon="4.76812">
        <ele>198.80000305176</ele>
        <time>2024-05-20T09:49:22.000Z</time>
      </trkpt>
      <trkpt lat="46.30665" lon="4.76814">
        <ele>198.80000305176</ele>
        <time>2024-05-20T09:49:23.000Z</time>
      </trkpt>
      <trkpt lat="46.3066" lon="4.76816">
        <ele>198.80000305176</ele>
        <time>2024-05-20T09:49:24.000Z</time>
      </trkpt>
      <trkpt lat="46.30655" lon="4.76818">
        <ele>198.80000305176</ele>
        <time>2024-05-20T09:49:25.000Z</time>
      </trkpt>
      <trkpt lat="46.30651" lon="4.76821">
        <ele>198.80000305176</ele>
        <time>2024-05-20T09:49:26.000Z</time>
      </trkpt>
      <trkpt lat="46.30646" lon="4.76824">
        <ele>198.80000305176</ele>
        <time>2024-05-20T09:49:27.000Z</time>
      </trkpt>
      <trkpt lat="46.30641" lon="4.76827">
        <ele>198.80000305176</ele>
        <time>2024-05-20T09:49:28.000Z</time>
      </trkpt>
      <trkpt lat="46.30637" lon="4.76831">
        <ele>198.80000305176</ele>
        <time>2024-05-20T09:49:29.000Z</time>
      </trkpt>
      <trkpt lat="46.30632" lon="4.76835">
        <ele>198.80000305176</ele>
        <time>2024-05-20T09:49:30.000Z</time>
      </trkpt>
      <trkpt lat="46.30627" lon="4.76838">
        <ele>198.80000305176</ele>
        <time>2024-05-20T09:49:31.000Z</time>
      </trkpt>
      <trkpt lat="46.30623" lon="4.76841">
        <ele>198.80000305176</ele>
        <time>2024-05-20T09:49:32.000Z</time>
      </trkpt>
      <trkpt lat="46.30618" lon="4.76844">
        <ele>198.80000305176</ele>
        <time>2024-05-20T09:49:33.000Z</time>
      </trkpt>
      <trkpt lat="46.30613" lon="4.76848">
        <ele>198.80000305176</ele>
        <time>2024-05-20T09:49:34.000Z</time>
      </trkpt>
      <trkpt lat="46.30608" lon="4.76852">
        <ele>198.80000305176</ele>
        <time>2024-05-20T09:49:35.000Z</time>
      </trkpt>
      <trkpt lat="46.30603" lon="4.76856">
        <ele>198.80000305176</ele>
        <time>2024-05-20T09:49:36.000Z</time>
      </trkpt>
      <trkpt lat="46.30598" lon="4.7686">
        <ele>198.80000305176</ele>
        <time>2024-05-20T09:49:37.000Z</time>
      </trkpt>
      <trkpt lat="46.30593" lon="4.76864">
        <ele>198.80000305176</ele>
        <time>2024-05-20T09:49:38.000Z</time>
      </trkpt>
      <trkpt lat="46.30587" lon="4.76868">
        <ele>198.80000305176</ele>
        <time>2024-05-20T09:49:39.000Z</time>
      </trkpt>
      <trkpt lat="46.30582" lon="4.76872">
        <ele>198.80000305176</ele>
        <time>2024-05-20T09:49:40.000Z</time>
      </trkpt>
      <trkpt lat="46.30577" lon="4.76877">
        <ele>199</ele>
        <time>2024-05-20T09:49:41.000Z</time>
      </trkpt>
      <trkpt lat="46.30572" lon="4.76881">
        <ele>199</ele>
        <time>2024-05-20T09:49:42.000Z</time>
      </trkpt>
      <trkpt lat="46.30567" lon="4.76886">
        <ele>199</ele>
        <time>2024-05-20T09:49:43.000Z</time>
      </trkpt>
      <trkpt lat="46.30562" lon="4.7689">
        <ele>199</ele>
        <time>2024-05-20T09:49:44.000Z</time>
      </trkpt>
      <trkpt lat="46.30556" lon="4.76895">
        <ele>199</ele>
        <time>2024-05-20T09:49:45.000Z</time>
      </trkpt>
      <trkpt lat="46.3055" lon="4.76899">
        <ele>199</ele>
        <time>2024-05-20T09:49:46.000Z</time>
      </trkpt>
      <trkpt lat="46.30544" lon="4.76902">
        <ele>199</ele>
        <time>2024-05-20T09:49:47.000Z</time>
      </trkpt>
      <trkpt lat="46.30539" lon="4.76905">
        <ele>199</ele>
        <time>2024-05-20T09:49:48.000Z</time>
      </trkpt>
      <trkpt lat="46.30533" lon="4.76908">
        <ele>199</ele>
        <time>2024-05-20T09:49:49.000Z</time>
      </trkpt>
      <trkpt lat="46.30526" lon="4.76911">
        <ele>199</ele>
        <time>2024-05-20T09:49:50.000Z</time>
      </trkpt>
      <trkpt lat="46.3052" lon="4.76914">
        <ele>199</ele>
        <time>2024-05-20T09:49:51.000Z</time>
      </trkpt>
      <trkpt lat="46.30514" lon="4.76918">
        <ele>198.80000305176</ele>
        <time>2024-05-20T09:49:52.000Z</time>
      </trkpt>
      <trkpt lat="46.30508" lon="4.76921">
        <ele>198.80000305176</ele>
        <time>2024-05-20T09:49:53.000Z</time>
      </trkpt>
      <trkpt lat="46.30501" lon="4.76924">
        <ele>198.60000610352</ele>
        <time>2024-05-20T09:49:54.000Z</time>
      </trkpt>
      <trkpt lat="46.30495" lon="4.76926">
        <ele>198.60000610352</ele>
        <time>2024-05-20T09:49:55.000Z</time>
      </trkpt>
      <trkpt lat="46.30489" lon="4.76929">
        <ele>198.60000610352</ele>
        <time>2024-05-20T09:49:56.000Z</time>
      </trkpt>
      <trkpt lat="46.30482" lon="4.76931">
        <ele>198.60000610352</ele>
        <time>2024-05-20T09:49:57.000Z</time>
      </trkpt>
      <trkpt lat="46.30476" lon="4.76934">
        <ele>198.60000610352</ele>
        <time>2024-05-20T09:49:58.000Z</time>
      </trkpt>
      <trkpt lat="46.30469" lon="4.76935">
        <ele>198.60000610352</ele>
        <time>2024-05-20T09:49:59.000Z</time>
      </trkpt>
      <trkpt lat="46.30463" lon="4.76937">
        <ele>198.60000610352</ele>
        <time>2024-05-20T09:50:00.000Z</time>
      </trkpt>
      <trkpt lat="46.30456" lon="4.76939">
        <ele>198.60000610352</ele>
        <time>2024-05-20T09:50:01.000Z</time>
      </trkpt>
      <trkpt lat="46.3045" lon="4.76941">
        <ele>198.60000610352</ele>
        <time>2024-05-20T09:50:02.000Z</time>
      </trkpt>
      <trkpt lat="46.30443" lon="4.76943">
        <ele>198.60000610352</ele>
        <time>2024-05-20T09:50:03.000Z</time>
      </trkpt>
      <trkpt lat="46.30436" lon="4.76945">
        <ele>198.60000610352</ele>
        <time>2024-05-20T09:50:04.000Z</time>
      </trkpt>
      <trkpt lat="46.3043" lon="4.76947">
        <ele>198.60000610352</ele>
        <time>2024-05-20T09:50:05.000Z</time>
      </trkpt>
      <trkpt lat="46.30423" lon="4.76949">
        <ele>198.60000610352</ele>
        <time>2024-05-20T09:50:06.000Z</time>
      </trkpt>
      <trkpt lat="46.30417" lon="4.76951">
        <ele>198.60000610352</ele>
        <time>2024-05-20T09:50:07.000Z</time>
      </trkpt>
      <trkpt lat="46.3041" lon="4.76953">
        <ele>198.60000610352</ele>
        <time>2024-05-20T09:50:08.000Z</time>
      </trkpt>
      <trkpt lat="46.30404" lon="4.76955">
        <ele>198.60000610352</ele>
        <time>2024-05-20T09:50:09.000Z</time>
      </trkpt>
      <trkpt lat="46.30397" lon="4.76957">
        <ele>198.60000610352</ele>
        <time>2024-05-20T09:50:10.000Z</time>
      </trkpt>
      <trkpt lat="46.3039" lon="4.76958">
        <ele>198.60000610352</ele>
        <time>2024-05-20T09:50:11.000Z</time>
      </trkpt>
      <trkpt lat="46.30384" lon="4.7696">
        <ele>198.60000610352</ele>
        <time>2024-05-20T09:50:12.000Z</time>
      </trkpt>
      <trkpt lat="46.30377" lon="4.76963">
        <ele>198.80000305176</ele>
        <time>2024-05-20T09:50:13.000Z</time>
      </trkpt>
      <trkpt lat="46.30371" lon="4.76965">
        <ele>198.80000305176</ele>
        <time>2024-05-20T09:50:14.000Z</time>
      </trkpt>
      <trkpt lat="46.30365" lon="4.76968">
        <ele>198.80000305176</ele>
        <time>2024-05-20T09:50:15.000Z</time>
      </trkpt>
      <trkpt lat="46.30358" lon="4.7697">
        <ele>198.80000305176</ele>
        <time>2024-05-20T09:50:16.000Z</time>
      </trkpt>
      <trkpt lat="46.30352" lon="4.76973">
        <ele>199</ele>
        <time>2024-05-20T09:50:17.000Z</time>
      </trkpt>
      <trkpt lat="46.30346" lon="4.76976">
        <ele>199</ele>
        <time>2024-05-20T09:50:18.000Z</time>
      </trkpt>
      <trkpt lat="46.3034" lon="4.76979">
        <ele>199</ele>
        <time>2024-05-20T09:50:19.000Z</time>
      </trkpt>
      <trkpt lat="46.30333" lon="4.76982">
        <ele>199</ele>
        <time>2024-05-20T09:50:20.000Z</time>
      </trkpt>
      <trkpt lat="46.30327" lon="4.76986">
        <ele>198.80000305176</ele>
        <time>2024-05-20T09:50:21.000Z</time>
      </trkpt>
      <trkpt lat="46.30321" lon="4.76989">
        <ele>198.80000305176</ele>
        <time>2024-05-20T09:50:22.000Z</time>
      </trkpt>
      <trkpt lat="46.30315" lon="4.76993">
        <ele>198.60000610352</ele>
        <time>2024-05-20T09:50:23.000Z</time>
      </trkpt>
      <trkpt lat="46.30309" lon="4.76997">
        <ele>198.60000610352</ele>
        <time>2024-05-20T09:50:24.000Z</time>
      </trkpt>
      <trkpt lat="46.30304" lon="4.77002">
        <ele>198.39999389648</ele>
        <time>2024-05-20T09:50:25.000Z</time>
      </trkpt>
      <trkpt lat="46.30298" lon="4.77006">
        <ele>198.39999389648</ele>
        <time>2024-05-20T09:50:26.000Z</time>
      </trkpt>
      <trkpt lat="46.30292" lon="4.77011">
        <ele>198.39999389648</ele>
        <time>2024-05-20T09:50:27.000Z</time>
      </trkpt>
      <trkpt lat="46.30287" lon="4.77015">
        <ele>198.39999389648</ele>
        <time>2024-05-20T09:50:28.000Z</time>
      </trkpt>
      <trkpt lat="46.30282" lon="4.77019">
        <ele>198.19999694824</ele>
        <time>2024-05-20T09:50:29.000Z</time>
      </trkpt>
      <trkpt lat="46.30278" lon="4.77023">
        <ele>198.19999694824</ele>
        <time>2024-05-20T09:50:30.000Z</time>
      </trkpt>
      <trkpt lat="46.30275" lon="4.77026">
        <ele>198.19999694824</ele>
        <time>2024-05-20T09:50:31.000Z</time>
      </trkpt>
      <trkpt lat="46.30272" lon="4.77028">
        <ele>198.19999694824</ele>
        <time>2024-05-20T09:50:32.000Z</time>
      </trkpt>
      <trkpt lat="46.3027" lon="4.77032">
        <ele>198.19999694824</ele>
        <time>2024-05-20T09:50:33.000Z</time>
      </trkpt>
      <trkpt lat="46.30268" lon="4.77035">
        <ele>198.39999389648</ele>
        <time>2024-05-20T09:50:34.000Z</time>
      </trkpt>
      <trkpt lat="46.30265" lon="4.77038">
        <ele>198.39999389648</ele>
        <time>2024-05-20T09:50:35.000Z</time>
      </trkpt>
      <trkpt lat="46.30262" lon="4.77041">
        <ele>198.39999389648</ele>
        <time>2024-05-20T09:50:36.000Z</time>
      </trkpt>
      <trkpt lat="46.30258" lon="4.77045">
        <ele>198.39999389648</ele>
        <time>2024-05-20T09:50:37.000Z</time>
      </trkpt>
      <trkpt lat="46.30255" lon="4.77049">
        <ele>198.39999389648</ele>
        <time>2024-05-20T09:50:38.000Z</time>
      </trkpt>
      <trkpt lat="46.30251" lon="4.77052">
        <ele>198.19999694824</ele>
        <time>2024-05-20T09:50:39.000Z</time>
      </trkpt>
      <trkpt lat="46.30247" lon="4.77056">
        <ele>198.19999694824</ele>
        <time>2024-05-20T09:50:40.000Z</time>
      </trkpt>
      <trkpt lat="46.30244" lon="4.77061">
        <ele>198</ele>
        <time>2024-05-20T09:50:41.000Z</time>
      </trkpt>
      <trkpt lat="46.3024" lon="4.77065">
        <ele>198</ele>
        <time>2024-05-20T09:50:42.000Z</time>
      </trkpt>
      <trkpt lat="46.30236" lon="4.77069">
        <ele>197.80000305176</ele>
        <time>2024-05-20T09:50:43.000Z</time>
      </trkpt>
      <trkpt lat="46.30233" lon="4.77074">
        <ele>197.80000305176</ele>
        <time>2024-05-20T09:50:44.000Z</time>
      </trkpt>
      <trkpt lat="46.30229" lon="4.77079">
        <ele>197.80000305176</ele>
        <time>2024-05-20T09:50:45.000Z</time>
      </trkpt>
      <trkpt lat="46.30225" lon="4.77084">
        <ele>197.80000305176</ele>
        <time>2024-05-20T09:50:46.000Z</time>
      </trkpt>
      <trkpt lat="46.30221" lon="4.77089">
        <ele>197.80000305176</ele>
        <time>2024-05-20T09:50:47.000Z</time>
      </trkpt>
      <trkpt lat="46.30218" lon="4.77095">
        <ele>197.80000305176</ele>
        <time>2024-05-20T09:50:48.000Z</time>
      </trkpt>
      <trkpt lat="46.30215" lon="4.771">
        <ele>197.80000305176</ele>
        <time>2024-05-20T09:50:49.000Z</time>
      </trkpt>
      <trkpt lat="46.30211" lon="4.77106">
        <ele>197.80000305176</ele>
        <time>2024-05-20T09:50:50.000Z</time>
      </trkpt>
      <trkpt lat="46.30207" lon="4.77112">
        <ele>197.60000610352</ele>
        <time>2024-05-20T09:50:51.000Z</time>
      </trkpt>
      <trkpt lat="46.30204" lon="4.77118">
        <ele>197.60000610352</ele>
        <time>2024-05-20T09:50:52.000Z</time>
      </trkpt>
      <trkpt lat="46.302" lon="4.77125">
        <ele>197.60000610352</ele>
        <time>2024-05-20T09:50:53.000Z</time>
      </trkpt>
      <trkpt lat="46.30196" lon="4.77131">
        <ele>197.60000610352</ele>
        <time>2024-05-20T09:50:54.000Z</time>
      </trkpt>
      <trkpt lat="46.30193" lon="4.77137">
        <ele>197.39999389648</ele>
        <time>2024-05-20T09:50:55.000Z</time>
      </trkpt>
      <trkpt lat="46.30189" lon="4.77144">
        <ele>197.39999389648</ele>
        <time>2024-05-20T09:50:56.000Z</time>
      </trkpt>
      <trkpt lat="46.30186" lon="4.77151">
        <ele>197.39999389648</ele>
        <time>2024-05-20T09:50:57.000Z</time>
      </trkpt>
      <trkpt lat="46.30183" lon="4.77158">
        <ele>197.39999389648</ele>
        <time>2024-05-20T09:50:58.000Z</time>
      </trkpt>
      <trkpt lat="46.3018" lon="4.77164">
        <ele>197.39999389648</ele>
        <time>2024-05-20T09:50:59.000Z</time>
      </trkpt>
      <trkpt lat="46.30176" lon="4.77171">
        <ele>197.39999389648</ele>
        <time>2024-05-20T09:51:00.000Z</time>
      </trkpt>
      <trkpt lat="46.30173" lon="4.77179">
        <ele>197.19999694824</ele>
        <time>2024-05-20T09:51:01.000Z</time>
      </trkpt>
      <trkpt lat="46.3017" lon="4.77187">
        <ele>197.39999389648</ele>
        <time>2024-05-20T09:51:02.000Z</time>
      </trkpt>
      <trkpt lat="46.30167" lon="4.77194">
        <ele>197.39999389648</ele>
        <time>2024-05-20T09:51:03.000Z</time>
      </trkpt>
      <trkpt lat="46.30164" lon="4.77202">
        <ele>197.39999389648</ele>
        <time>2024-05-20T09:51:04.000Z</time>
      </trkpt>
      <trkpt lat="46.30161" lon="4.7721">
        <ele>197.39999389648</ele>
        <time>2024-05-20T09:51:05.000Z</time>
      </trkpt>
      <trkpt lat="46.30158" lon="4.77218">
        <ele>197.60000610352</ele>
        <time>2024-05-20T09:51:06.000Z</time>
      </trkpt>
      <trkpt lat="46.30155" lon="4.77226">
        <ele>197.80000305176</ele>
        <time>2024-05-20T09:51:07.000Z</time>
      </trkpt>
      <trkpt lat="46.30152" lon="4.77234">
        <ele>197.80000305176</ele>
        <time>2024-05-20T09:51:08.000Z</time>
      </trkpt>
      <trkpt lat="46.30149" lon="4.77242">
        <ele>197.80000305176</ele>
        <time>2024-05-20T09:51:09.000Z</time>
      </trkpt>
      <trkpt lat="46.30146" lon="4.77249">
        <ele>197.80000305176</ele>
        <time>2024-05-20T09:51:10.000Z</time>
      </trkpt>
      <trkpt lat="46.30142" lon="4.77257">
        <ele>197.80000305176</ele>
        <time>2024-05-20T09:51:11.000Z</time>
      </trkpt>
      <trkpt lat="46.30139" lon="4.77265">
        <ele>197.60000610352</ele>
        <time>2024-05-20T09:51:12.000Z</time>
      </trkpt>
      <trkpt lat="46.30136" lon="4.77273">
        <ele>197.60000610352</ele>
        <time>2024-05-20T09:51:13.000Z</time>
      </trkpt>
      <trkpt lat="46.30133" lon="4.7728">
        <ele>197.39999389648</ele>
        <time>2024-05-20T09:51:14.000Z</time>
      </trkpt>
      <trkpt lat="46.3013" lon="4.77288">
        <ele>197.39999389648</ele>
        <time>2024-05-20T09:51:15.000Z</time>
      </trkpt>
      <trkpt lat="46.30126" lon="4.77295">
        <ele>197.39999389648</ele>
        <time>2024-05-20T09:51:16.000Z</time>
      </trkpt>
      <trkpt lat="46.30123" lon="4.77302">
        <ele>197.39999389648</ele>
        <time>2024-05-20T09:51:17.000Z</time>
      </trkpt>
      <trkpt lat="46.30119" lon="4.7731">
        <ele>197.39999389648</ele>
        <time>2024-05-20T09:51:18.000Z</time>
      </trkpt>
      <trkpt lat="46.30115" lon="4.77317">
        <ele>197.39999389648</ele>
        <time>2024-05-20T09:51:19.000Z</time>
      </trkpt>
      <trkpt lat="46.30112" lon="4.77324">
        <ele>197.39999389648</ele>
        <time>2024-05-20T09:51:20.000Z</time>
      </trkpt>
      <trkpt lat="46.30108" lon="4.77332">
        <ele>197.60000610352</ele>
        <time>2024-05-20T09:51:21.000Z</time>
      </trkpt>
      <trkpt lat="46.30104" lon="4.77339">
        <ele>197.60000610352</ele>
        <time>2024-05-20T09:51:22.000Z</time>
      </trkpt>
      <trkpt lat="46.30099" lon="4.77346">
        <ele>197.60000610352</ele>
        <time>2024-05-20T09:51:23.000Z</time>
      </trkpt>
      <trkpt lat="46.30095" lon="4.77353">
        <ele>197.60000610352</ele>
        <time>2024-05-20T09:51:24.000Z</time>
      </trkpt>
      <trkpt lat="46.30091" lon="4.77361">
        <ele>197.60000610352</ele>
        <time>2024-05-20T09:51:25.000Z</time>
      </trkpt>
      <trkpt lat="46.30086" lon="4.77368">
        <ele>197.39999389648</ele>
        <time>2024-05-20T09:51:26.000Z</time>
      </trkpt>
      <trkpt lat="46.30082" lon="4.77374">
        <ele>197.39999389648</ele>
        <time>2024-05-20T09:51:27.000Z</time>
      </trkpt>
      <trkpt lat="46.30077" lon="4.77381">
        <ele>197.39999389648</ele>
        <time>2024-05-20T09:51:28.000Z</time>
      </trkpt>
      <trkpt lat="46.30072" lon="4.77387">
        <ele>197.60000610352</ele>
        <time>2024-05-20T09:51:29.000Z</time>
      </trkpt>
      <trkpt lat="46.30068" lon="4.77393">
        <ele>197.60000610352</ele>
        <time>2024-05-20T09:51:30.000Z</time>
      </trkpt>
      <trkpt lat="46.30063" lon="4.77399">
        <ele>197.60000610352</ele>
        <time>2024-05-20T09:51:31.000Z</time>
      </trkpt>
      <trkpt lat="46.30059" lon="4.77404">
        <ele>197.60000610352</ele>
        <time>2024-05-20T09:51:32.000Z</time>
      </trkpt>
      <trkpt lat="46.30054" lon="4.7741">
        <ele>197.60000610352</ele>
        <time>2024-05-20T09:51:33.000Z</time>
      </trkpt>
      <trkpt lat="46.30049" lon="4.77416">
        <ele>197.60000610352</ele>
        <time>2024-05-20T09:51:34.000Z</time>
      </trkpt>
      <trkpt lat="46.30044" lon="4.77421">
        <ele>197.39999389648</ele>
        <time>2024-05-20T09:51:35.000Z</time>
      </trkpt>
      <trkpt lat="46.30039" lon="4.77427">
        <ele>197.39999389648</ele>
        <time>2024-05-20T09:51:36.000Z</time>
      </trkpt>
      <trkpt lat="46.30034" lon="4.77432">
        <ele>197.39999389648</ele>
        <time>2024-05-20T09:51:37.000Z</time>
      </trkpt>
      <trkpt lat="46.3003" lon="4.77439">
        <ele>197.60000610352</ele>
        <time>2024-05-20T09:51:38.000Z</time>
      </trkpt>
      <trkpt lat="46.30025" lon="4.77445">
        <ele>197.60000610352</ele>
        <time>2024-05-20T09:51:39.000Z</time>
      </trkpt>
      <trkpt lat="46.3002" lon="4.77451">
        <ele>197.60000610352</ele>
        <time>2024-05-20T09:51:40.000Z</time>
      </trkpt>
      <trkpt lat="46.30015" lon="4.77457">
        <ele>197.60000610352</ele>
        <time>2024-05-20T09:51:41.000Z</time>
      </trkpt>
      <trkpt lat="46.3001" lon="4.77464">
        <ele>197.60000610352</ele>
        <time>2024-05-20T09:51:42.000Z</time>
      </trkpt>
      <trkpt lat="46.30005" lon="4.7747">
        <ele>197.60000610352</ele>
        <time>2024-05-20T09:51:43.000Z</time>
      </trkpt>
      <trkpt lat="46.3" lon="4.77476">
        <ele>197.60000610352</ele>
        <time>2024-05-20T09:51:44.000Z</time>
      </trkpt>
      <trkpt lat="46.29995" lon="4.77483">
        <ele>197.60000610352</ele>
        <time>2024-05-20T09:51:45.000Z</time>
      </trkpt>
      <trkpt lat="46.2999" lon="4.77489">
        <ele>197.60000610352</ele>
        <time>2024-05-20T09:51:46.000Z</time>
      </trkpt>
      <trkpt lat="46.29985" lon="4.77495">
        <ele>197.80000305176</ele>
        <time>2024-05-20T09:51:47.000Z</time>
      </trkpt>
      <trkpt lat="46.2998" lon="4.77501">
        <ele>197.80000305176</ele>
        <time>2024-05-20T09:51:48.000Z</time>
      </trkpt>
      <trkpt lat="46.29975" lon="4.77507">
        <ele>197.80000305176</ele>
        <time>2024-05-20T09:51:49.000Z</time>
      </trkpt>
      <trkpt lat="46.29971" lon="4.77513">
        <ele>197.80000305176</ele>
        <time>2024-05-20T09:51:50.000Z</time>
      </trkpt>
      <trkpt lat="46.29966" lon="4.77519">
        <ele>197.80000305176</ele>
        <time>2024-05-20T09:51:51.000Z</time>
      </trkpt>
      <trkpt lat="46.29962" lon="4.77525">
        <ele>197.80000305176</ele>
        <time>2024-05-20T09:51:52.000Z</time>
      </trkpt>
      <trkpt lat="46.29957" lon="4.77531">
        <ele>197.80000305176</ele>
        <time>2024-05-20T09:51:53.000Z</time>
      </trkpt>
      <trkpt lat="46.29952" lon="4.77536">
        <ele>197.80000305176</ele>
        <time>2024-05-20T09:51:54.000Z</time>
      </trkpt>
      <trkpt lat="46.29948" lon="4.77542">
        <ele>197.80000305176</ele>
        <time>2024-05-20T09:51:55.000Z</time>
      </trkpt>
      <trkpt lat="46.29944" lon="4.77548">
        <ele>197.60000610352</ele>
        <time>2024-05-20T09:51:56.000Z</time>
      </trkpt>
      <trkpt lat="46.29941" lon="4.77554">
        <ele>197.39999389648</ele>
        <time>2024-05-20T09:51:57.000Z</time>
      </trkpt>
      <trkpt lat="46.29937" lon="4.77559">
        <ele>197.39999389648</ele>
        <time>2024-05-20T09:51:58.000Z</time>
      </trkpt>
      <trkpt lat="46.29933" lon="4.77564">
        <ele>197.39999389648</ele>
        <time>2024-05-20T09:51:59.000Z</time>
      </trkpt>
      <trkpt lat="46.2993" lon="4.77569">
        <ele>197.39999389648</ele>
        <time>2024-05-20T09:52:00.000Z</time>
      </trkpt>
      <trkpt lat="46.29926" lon="4.77573">
        <ele>197.39999389648</ele>
        <time>2024-05-20T09:52:01.000Z</time>
      </trkpt>
      <trkpt lat="46.29923" lon="4.77577">
        <ele>197.60000610352</ele>
        <time>2024-05-20T09:52:02.000Z</time>
      </trkpt>
      <trkpt lat="46.2992" lon="4.77582">
        <ele>197.80000305176</ele>
        <time>2024-05-20T09:52:03.000Z</time>
      </trkpt>
      <trkpt lat="46.29916" lon="4.77586">
        <ele>198</ele>
        <time>2024-05-20T09:52:04.000Z</time>
      </trkpt>
      <trkpt lat="46.29914" lon="4.7759">
        <ele>198</ele>
        <time>2024-05-20T09:52:05.000Z</time>
      </trkpt>
      <trkpt lat="46.29911" lon="4.77594">
        <ele>198</ele>
        <time>2024-05-20T09:52:06.000Z</time>
      </trkpt>
      <trkpt lat="46.29908" lon="4.77598">
        <ele>198</ele>
        <time>2024-05-20T09:52:07.000Z</time>
      </trkpt>
      <trkpt lat="46.29905" lon="4.77603">
        <ele>198</ele>
        <time>2024-05-20T09:52:08.000Z</time>
      </trkpt>
      <trkpt lat="46.29903" lon="4.77607">
        <ele>198</ele>
        <time>2024-05-20T09:52:09.000Z</time>
      </trkpt>
      <trkpt lat="46.299" lon="4.7761">
        <ele>198</ele>
        <time>2024-05-20T09:52:10.000Z</time>
      </trkpt>
      <trkpt lat="46.29897" lon="4.77613">
        <ele>198</ele>
        <time>2024-05-20T09:52:11.000Z</time>
      </trkpt>
      <trkpt lat="46.29894" lon="4.77616">
        <ele>198</ele>
        <time>2024-05-20T09:52:12.000Z</time>
      </trkpt>
      <trkpt lat="46.29893" lon="4.77619">
        <ele>198</ele>
        <time>2024-05-20T09:52:13.000Z</time>
      </trkpt>
      <trkpt lat="46.29891" lon="4.7762">
        <ele>198</ele>
        <time>2024-05-20T09:52:14.000Z</time>
      </trkpt>
      <trkpt lat="46.2989" lon="4.77622">
        <ele>198</ele>
        <time>2024-05-20T09:52:15.000Z</time>
      </trkpt>
      <trkpt lat="46.29888" lon="4.77624">
        <ele>198</ele>
        <time>2024-05-20T09:52:16.000Z</time>
      </trkpt>
      <trkpt lat="46.29886" lon="4.77626">
        <ele>198</ele>
        <time>2024-05-20T09:52:17.000Z</time>
      </trkpt>
      <trkpt lat="46.29885" lon="4.77629">
        <ele>198</ele>
        <time>2024-05-20T09:52:18.000Z</time>
      </trkpt>
      <trkpt lat="46.29883" lon="4.77632">
        <ele>198</ele>
        <time>2024-05-20T09:52:19.000Z</time>
      </trkpt>
      <trkpt lat="46.29882" lon="4.77635">
        <ele>197.80000305176</ele>
        <time>2024-05-20T09:52:20.000Z</time>
      </trkpt>
      <trkpt lat="46.2988" lon="4.77638">
        <ele>197.80000305176</ele>
        <time>2024-05-20T09:52:21.000Z</time>
      </trkpt>
      <trkpt lat="46.29877" lon="4.77641">
        <ele>197.80000305176</ele>
        <time>2024-05-20T09:52:22.000Z</time>
      </trkpt>
      <trkpt lat="46.29874" lon="4.77644">
        <ele>197.60000610352</ele>
        <time>2024-05-20T09:52:23.000Z</time>
      </trkpt>
      <trkpt lat="46.29872" lon="4.77649">
        <ele>197.60000610352</ele>
        <time>2024-05-20T09:52:24.000Z</time>
      </trkpt>
      <trkpt lat="46.29869" lon="4.77653">
        <ele>197.39999389648</ele>
        <time>2024-05-20T09:52:25.000Z</time>
      </trkpt>
      <trkpt lat="46.29866" lon="4.77657">
        <ele>197.19999694824</ele>
        <time>2024-05-20T09:52:26.000Z</time>
      </trkpt>
      <trkpt lat="46.29863" lon="4.77661">
        <ele>197.19999694824</ele>
        <time>2024-05-20T09:52:27.000Z</time>
      </trkpt>
      <trkpt lat="46.29859" lon="4.77666">
        <ele>197.19999694824</ele>
        <time>2024-05-20T09:52:28.000Z</time>
      </trkpt>
      <trkpt lat="46.29856" lon="4.77671">
        <ele>197</ele>
        <time>2024-05-20T09:52:29.000Z</time>
      </trkpt>
      <trkpt lat="46.29853" lon="4.77676">
        <ele>197</ele>
        <time>2024-05-20T09:52:30.000Z</time>
      </trkpt>
      <trkpt lat="46.29849" lon="4.77681">
        <ele>197</ele>
        <time>2024-05-20T09:52:31.000Z</time>
      </trkpt>
      <trkpt lat="46.29845" lon="4.77686">
        <ele>197</ele>
        <time>2024-05-20T09:52:32.000Z</time>
      </trkpt>
      <trkpt lat="46.29841" lon="4.77691">
        <ele>197</ele>
        <time>2024-05-20T09:52:33.000Z</time>
      </trkpt>
      <trkpt lat="46.29837" lon="4.77695">
        <ele>197</ele>
        <time>2024-05-20T09:52:34.000Z</time>
      </trkpt>
      <trkpt lat="46.29833" lon="4.777">
        <ele>197</ele>
        <time>2024-05-20T09:52:35.000Z</time>
      </trkpt>
      <trkpt lat="46.29829" lon="4.77704">
        <ele>197</ele>
        <time>2024-05-20T09:52:36.000Z</time>
      </trkpt>
      <trkpt lat="46.29825" lon="4.77708">
        <ele>197</ele>
        <time>2024-05-20T09:52:37.000Z</time>
      </trkpt>
      <trkpt lat="46.2982" lon="4.77713">
        <ele>197</ele>
        <time>2024-05-20T09:52:38.000Z</time>
      </trkpt>
      <trkpt lat="46.29816" lon="4.77718">
        <ele>197</ele>
        <time>2024-05-20T09:52:39.000Z</time>
      </trkpt>
      <trkpt lat="46.29811" lon="4.77722">
        <ele>197</ele>
        <time>2024-05-20T09:52:40.000Z</time>
      </trkpt>
      <trkpt lat="46.29808" lon="4.77726">
        <ele>197.19999694824</ele>
        <time>2024-05-20T09:52:41.000Z</time>
      </trkpt>
      <trkpt lat="46.29804" lon="4.7773">
        <ele>197.19999694824</ele>
        <time>2024-05-20T09:52:42.000Z</time>
      </trkpt>
      <trkpt lat="46.298" lon="4.77734">
        <ele>197.19999694824</ele>
        <time>2024-05-20T09:52:43.000Z</time>
      </trkpt>
      <trkpt lat="46.29795" lon="4.77738">
        <ele>197.39999389648</ele>
        <time>2024-05-20T09:52:44.000Z</time>
      </trkpt>
      <trkpt lat="46.29791" lon="4.77742">
        <ele>197.39999389648</ele>
        <time>2024-05-20T09:52:45.000Z</time>
      </trkpt>
      <trkpt lat="46.29787" lon="4.77745">
        <ele>197.39999389648</ele>
        <time>2024-05-20T09:52:46.000Z</time>
      </trkpt>
      <trkpt lat="46.29783" lon="4.77749">
        <ele>197.39999389648</ele>
        <time>2024-05-20T09:52:47.000Z</time>
      </trkpt>
      <trkpt lat="46.29779" lon="4.77753">
        <ele>197.39999389648</ele>
        <time>2024-05-20T09:52:48.000Z</time>
      </trkpt>
      <trkpt lat="46.29774" lon="4.77758">
        <ele>197.39999389648</ele>
        <time>2024-05-20T09:52:49.000Z</time>
      </trkpt>
      <trkpt lat="46.2977" lon="4.77762">
        <ele>197.39999389648</ele>
        <time>2024-05-20T09:52:50.000Z</time>
      </trkpt>
      <trkpt lat="46.29765" lon="4.77766">
        <ele>197.39999389648</ele>
        <time>2024-05-20T09:52:51.000Z</time>
      </trkpt>
      <trkpt lat="46.2976" lon="4.77771">
        <ele>197.39999389648</ele>
        <time>2024-05-20T09:52:52.000Z</time>
      </trkpt>
      <trkpt lat="46.29756" lon="4.77776">
        <ele>197.60000610352</ele>
        <time>2024-05-20T09:52:53.000Z</time>
      </trkpt>
      <trkpt lat="46.29751" lon="4.77781">
        <ele>198</ele>
        <time>2024-05-20T09:52:54.000Z</time>
      </trkpt>
      <trkpt lat="46.29746" lon="4.77787">
        <ele>198</ele>
        <time>2024-05-20T09:52:55.000Z</time>
      </trkpt>
      <trkpt lat="46.29741" lon="4.77791">
        <ele>198</ele>
        <time>2024-05-20T09:52:56.000Z</time>
      </trkpt>
      <trkpt lat="46.29737" lon="4.77796">
        <ele>198</ele>
        <time>2024-05-20T09:52:57.000Z</time>
      </trkpt>
      <trkpt lat="46.29732" lon="4.77801">
        <ele>198</ele>
        <time>2024-05-20T09:52:58.000Z</time>
      </trkpt>
      <trkpt lat="46.29727" lon="4.77807">
        <ele>198</ele>
        <time>2024-05-20T09:52:59.000Z</time>
      </trkpt>
      <trkpt lat="46.29722" lon="4.77812">
        <ele>198</ele>
        <time>2024-05-20T09:53:00.000Z</time>
      </trkpt>
      <trkpt lat="46.29717" lon="4.77817">
        <ele>197.80000305176</ele>
        <time>2024-05-20T09:53:01.000Z</time>
      </trkpt>
      <trkpt lat="46.29712" lon="4.77821">
        <ele>197.80000305176</ele>
        <time>2024-05-20T09:53:02.000Z</time>
      </trkpt>
      <trkpt lat="46.29707" lon="4.77825">
        <ele>197.80000305176</ele>
        <time>2024-05-20T09:53:03.000Z</time>
      </trkpt>
      <trkpt lat="46.29701" lon="4.7783">
        <ele>197.80000305176</ele>
        <time>2024-05-20T09:53:04.000Z</time>
      </trkpt>
      <trkpt lat="46.29696" lon="4.77835">
        <ele>197.80000305176</ele>
        <time>2024-05-20T09:53:05.000Z</time>
      </trkpt>
      <trkpt lat="46.29692" lon="4.77839">
        <ele>197.80000305176</ele>
        <time>2024-05-20T09:53:06.000Z</time>
      </trkpt>
      <trkpt lat="46.29688" lon="4.77843">
        <ele>197.80000305176</ele>
        <time>2024-05-20T09:53:07.000Z</time>
      </trkpt>
      <trkpt lat="46.29683" lon="4.77848">
        <ele>198</ele>
        <time>2024-05-20T09:53:08.000Z</time>
      </trkpt>
      <trkpt lat="46.29679" lon="4.77853">
        <ele>198</ele>
        <time>2024-05-20T09:53:09.000Z</time>
      </trkpt>
      <trkpt lat="46.29675" lon="4.77857">
        <ele>198.19999694824</ele>
        <time>2024-05-20T09:53:10.000Z</time>
      </trkpt>
      <trkpt lat="46.29671" lon="4.7786">
        <ele>198.19999694824</ele>
        <time>2024-05-20T09:53:11.000Z</time>
      </trkpt>
      <trkpt lat="46.29669" lon="4.77863">
        <ele>198.19999694824</ele>
        <time>2024-05-20T09:53:12.000Z</time>
      </trkpt>
      <trkpt lat="46.29666" lon="4.77867">
        <ele>198.39999389648</ele>
        <time>2024-05-20T09:53:13.000Z</time>
      </trkpt>
      <trkpt lat="46.29662" lon="4.7787">
        <ele>198.39999389648</ele>
        <time>2024-05-20T09:53:14.000Z</time>
      </trkpt>
      <trkpt lat="46.29659" lon="4.77875">
        <ele>198.39999389648</ele>
        <time>2024-05-20T09:53:15.000Z</time>
      </trkpt>
      <trkpt lat="46.29655" lon="4.77879">
        <ele>198.39999389648</ele>
        <time>2024-05-20T09:53:16.000Z</time>
      </trkpt>
      <trkpt lat="46.29652" lon="4.77883">
        <ele>198.39999389648</ele>
        <time>2024-05-20T09:53:17.000Z</time>
      </trkpt>
      <trkpt lat="46.29648" lon="4.77886">
        <ele>198.39999389648</ele>
        <time>2024-05-20T09:53:18.000Z</time>
      </trkpt>
      <trkpt lat="46.29645" lon="4.7789">
        <ele>198.19999694824</ele>
        <time>2024-05-20T09:53:19.000Z</time>
      </trkpt>
      <trkpt lat="46.29641" lon="4.77893">
        <ele>198.19999694824</ele>
        <time>2024-05-20T09:53:20.000Z</time>
      </trkpt>
      <trkpt lat="46.29637" lon="4.77896">
        <ele>198.19999694824</ele>
        <time>2024-05-20T09:53:21.000Z</time>
      </trkpt>
      <trkpt lat="46.29633" lon="4.779">
        <ele>198.19999694824</ele>
        <time>2024-05-20T09:53:22.000Z</time>
      </trkpt>
      <trkpt lat="46.29629" lon="4.77904">
        <ele>198.19999694824</ele>
        <time>2024-05-20T09:53:23.000Z</time>
      </trkpt>
      <trkpt lat="46.29624" lon="4.77909">
        <ele>198</ele>
        <time>2024-05-20T09:53:24.000Z</time>
      </trkpt>
      <trkpt lat="46.2962" lon="4.77913">
        <ele>198</ele>
        <time>2024-05-20T09:53:25.000Z</time>
      </trkpt>
      <trkpt lat="46.29615" lon="4.77918">
        <ele>198</ele>
        <time>2024-05-20T09:53:26.000Z</time>
      </trkpt>
      <trkpt lat="46.29611" lon="4.77922">
        <ele>197.80000305176</ele>
        <time>2024-05-20T09:53:27.000Z</time>
      </trkpt>
      <trkpt lat="46.29606" lon="4.77927">
        <ele>197.80000305176</ele>
        <time>2024-05-20T09:53:28.000Z</time>
      </trkpt>
      <trkpt lat="46.29602" lon="4.77932">
        <ele>197.80000305176</ele>
        <time>2024-05-20T09:53:29.000Z</time>
      </trkpt>
      <trkpt lat="46.29597" lon="4.77937">
        <ele>197.80000305176</ele>
        <time>2024-05-20T09:53:30.000Z</time>
      </trkpt>
      <trkpt lat="46.29592" lon="4.77942">
        <ele>197.60000610352</ele>
        <time>2024-05-20T09:53:31.000Z</time>
      </trkpt>
      <trkpt lat="46.29588" lon="4.77946">
        <ele>197.80000305176</ele>
        <time>2024-05-20T09:53:32.000Z</time>
      </trkpt>
      <trkpt lat="46.29583" lon="4.77951">
        <ele>197.80000305176</ele>
        <time>2024-05-20T09:53:33.000Z</time>
      </trkpt>
      <trkpt lat="46.29578" lon="4.77955">
        <ele>197.80000305176</ele>
        <time>2024-05-20T09:53:34.000Z</time>
      </trkpt>
      <trkpt lat="46.29573" lon="4.77959">
        <ele>197.80000305176</ele>
        <time>2024-05-20T09:53:35.000Z</time>
      </trkpt>
      <trkpt lat="46.29568" lon="4.77964">
        <ele>197.80000305176</ele>
        <time>2024-05-20T09:53:36.000Z</time>
      </trkpt>
      <trkpt lat="46.29563" lon="4.77969">
        <ele>197.80000305176</ele>
        <time>2024-05-20T09:53:37.000Z</time>
      </trkpt>
      <trkpt lat="46.29558" lon="4.77974">
        <ele>197.80000305176</ele>
        <time>2024-05-20T09:53:38.000Z</time>
      </trkpt>
      <trkpt lat="46.29553" lon="4.77979">
        <ele>197.80000305176</ele>
        <time>2024-05-20T09:53:39.000Z</time>
      </trkpt>
      <trkpt lat="46.29548" lon="4.77984">
        <ele>197.80000305176</ele>
        <time>2024-05-20T09:53:40.000Z</time>
      </trkpt>
      <trkpt lat="46.29542" lon="4.77989">
        <ele>197.80000305176</ele>
        <time>2024-05-20T09:53:41.000Z</time>
      </trkpt>
      <trkpt lat="46.29537" lon="4.77994">
        <ele>197.39999389648</ele>
        <time>2024-05-20T09:53:42.000Z</time>
      </trkpt>
      <trkpt lat="46.29532" lon="4.77999">
        <ele>197.39999389648</ele>
        <time>2024-05-20T09:53:43.000Z</time>
      </trkpt>
      <trkpt lat="46.29527" lon="4.78003">
        <ele>197.19999694824</ele>
        <time>2024-05-20T09:53:44.000Z</time>
      </trkpt>
      <trkpt lat="46.29522" lon="4.78008">
        <ele>197.19999694824</ele>
        <time>2024-05-20T09:53:45.000Z</time>
      </trkpt>
      <trkpt lat="46.29517" lon="4.78013">
        <ele>197.19999694824</ele>
        <time>2024-05-20T09:53:46.000Z</time>
      </trkpt>
      <trkpt lat="46.29512" lon="4.78018">
        <ele>197.19999694824</ele>
        <time>2024-05-20T09:53:47.000Z</time>
      </trkpt>
      <trkpt lat="46.29507" lon="4.78023">
        <ele>197</ele>
        <time>2024-05-20T09:53:48.000Z</time>
      </trkpt>
      <trkpt lat="46.29502" lon="4.78028">
        <ele>197</ele>
        <time>2024-05-20T09:53:49.000Z</time>
      </trkpt>
      <trkpt lat="46.29498" lon="4.78033">
        <ele>197</ele>
        <time>2024-05-20T09:53:50.000Z</time>
      </trkpt>
      <trkpt lat="46.29493" lon="4.78038">
        <ele>196.80000305176</ele>
        <time>2024-05-20T09:53:51.000Z</time>
      </trkpt>
      <trkpt lat="46.29488" lon="4.78043">
        <ele>196.80000305176</ele>
        <time>2024-05-20T09:53:52.000Z</time>
      </trkpt>
      <trkpt lat="46.29483" lon="4.78047">
        <ele>196.80000305176</ele>
        <time>2024-05-20T09:53:53.000Z</time>
      </trkpt>
      <trkpt lat="46.29478" lon="4.78052">
        <ele>196.80000305176</ele>
        <time>2024-05-20T09:53:54.000Z</time>
      </trkpt>
      <trkpt lat="46.29473" lon="4.78057">
        <ele>196.80000305176</ele>
        <time>2024-05-20T09:53:55.000Z</time>
      </trkpt>
      <trkpt lat="46.29468" lon="4.78062">
        <ele>196.80000305176</ele>
        <time>2024-05-20T09:53:56.000Z</time>
      </trkpt>
      <trkpt lat="46.29463" lon="4.78066">
        <ele>196.80000305176</ele>
        <time>2024-05-20T09:53:57.000Z</time>
      </trkpt>
      <trkpt lat="46.29459" lon="4.78071">
        <ele>196.80000305176</ele>
        <time>2024-05-20T09:53:58.000Z</time>
      </trkpt>
      <trkpt lat="46.29454" lon="4.78076">
        <ele>197</ele>
        <time>2024-05-20T09:53:59.000Z</time>
      </trkpt>
      <trkpt lat="46.29449" lon="4.78081">
        <ele>197</ele>
        <time>2024-05-20T09:54:00.000Z</time>
      </trkpt>
      <trkpt lat="46.29444" lon="4.78086">
        <ele>197</ele>
        <time>2024-05-20T09:54:01.000Z</time>
      </trkpt>
      <trkpt lat="46.2944" lon="4.78091">
        <ele>197</ele>
        <time>2024-05-20T09:54:02.000Z</time>
      </trkpt>
      <trkpt lat="46.29435" lon="4.78096">
        <ele>197</ele>
        <time>2024-05-20T09:54:03.000Z</time>
      </trkpt>
      <trkpt lat="46.2943" lon="4.78101">
        <ele>197</ele>
        <time>2024-05-20T09:54:04.000Z</time>
      </trkpt>
      <trkpt lat="46.29426" lon="4.78106">
        <ele>197.19999694824</ele>
        <time>2024-05-20T09:54:05.000Z</time>
      </trkpt>
      <trkpt lat="46.29421" lon="4.78111">
        <ele>197.19999694824</ele>
        <time>2024-05-20T09:54:06.000Z</time>
      </trkpt>
      <trkpt lat="46.29417" lon="4.78115">
        <ele>197.19999694824</ele>
        <time>2024-05-20T09:54:07.000Z</time>
      </trkpt>
      <trkpt lat="46.29413" lon="4.78119">
        <ele>197.19999694824</ele>
        <time>2024-05-20T09:54:08.000Z</time>
      </trkpt>
      <trkpt lat="46.29409" lon="4.78123">
        <ele>197.19999694824</ele>
        <time>2024-05-20T09:54:09.000Z</time>
      </trkpt>
      <trkpt lat="46.29404" lon="4.78128">
        <ele>197.19999694824</ele>
        <time>2024-05-20T09:54:10.000Z</time>
      </trkpt>
      <trkpt lat="46.29401" lon="4.78132">
        <ele>197</ele>
        <time>2024-05-20T09:54:11.000Z</time>
      </trkpt>
      <trkpt lat="46.29397" lon="4.78137">
        <ele>197</ele>
        <time>2024-05-20T09:54:12.000Z</time>
      </trkpt>
      <trkpt lat="46.29393" lon="4.78141">
        <ele>197</ele>
        <time>2024-05-20T09:54:13.000Z</time>
      </trkpt>
      <trkpt lat="46.29389" lon="4.78147">
        <ele>197</ele>
        <time>2024-05-20T09:54:14.000Z</time>
      </trkpt>
      <trkpt lat="46.29385" lon="4.78152">
        <ele>197.19999694824</ele>
        <time>2024-05-20T09:54:15.000Z</time>
      </trkpt>
      <trkpt lat="46.2938" lon="4.78155">
        <ele>197.19999694824</ele>
        <time>2024-05-20T09:54:16.000Z</time>
      </trkpt>
      <trkpt lat="46.29375" lon="4.78158">
        <ele>197.39999389648</ele>
        <time>2024-05-20T09:54:17.000Z</time>
      </trkpt>
      <trkpt lat="46.2937" lon="4.78162">
        <ele>197.39999389648</ele>
        <time>2024-05-20T09:54:18.000Z</time>
      </trkpt>
      <trkpt lat="46.29366" lon="4.78167">
        <ele>197.39999389648</ele>
        <time>2024-05-20T09:54:19.000Z</time>
      </trkpt>
      <trkpt lat="46.29361" lon="4.78171">
        <ele>197.60000610352</ele>
        <time>2024-05-20T09:54:20.000Z</time>
      </trkpt>
      <trkpt lat="46.29356" lon="4.78176">
        <ele>197.60000610352</ele>
        <time>2024-05-20T09:54:21.000Z</time>
      </trkpt>
      <trkpt lat="46.29351" lon="4.7818">
        <ele>197.60000610352</ele>
        <time>2024-05-20T09:54:22.000Z</time>
      </trkpt>
      <trkpt lat="46.29346" lon="4.78185">
        <ele>197.60000610352</ele>
        <time>2024-05-20T09:54:23.000Z</time>
      </trkpt>
      <trkpt lat="46.29342" lon="4.7819">
        <ele>197.60000610352</ele>
        <time>2024-05-20T09:54:24.000Z</time>
      </trkpt>
      <trkpt lat="46.29337" lon="4.78195">
        <ele>197.60000610352</ele>
        <time>2024-05-20T09:54:25.000Z</time>
      </trkpt>
      <trkpt lat="46.29332" lon="4.782">
        <ele>197.60000610352</ele>
        <time>2024-05-20T09:54:26.000Z</time>
      </trkpt>
      <trkpt lat="46.29327" lon="4.78205">
        <ele>197.60000610352</ele>
        <time>2024-05-20T09:54:27.000Z</time>
      </trkpt>
      <trkpt lat="46.29322" lon="4.78209">
        <ele>197.60000610352</ele>
        <time>2024-05-20T09:54:28.000Z</time>
      </trkpt>
      <trkpt lat="46.29317" lon="4.78214">
        <ele>197.60000610352</ele>
        <time>2024-05-20T09:54:29.000Z</time>
      </trkpt>
      <trkpt lat="46.29312" lon="4.78219">
        <ele>197.60000610352</ele>
        <time>2024-05-20T09:54:30.000Z</time>
      </trkpt>
      <trkpt lat="46.29307" lon="4.78224">
        <ele>197.60000610352</ele>
        <time>2024-05-20T09:54:31.000Z</time>
      </trkpt>
      <trkpt lat="46.29302" lon="4.78228">
        <ele>197.60000610352</ele>
        <time>2024-05-20T09:54:32.000Z</time>
      </trkpt>
      <trkpt lat="46.29297" lon="4.78234">
        <ele>197.60000610352</ele>
        <time>2024-05-20T09:54:33.000Z</time>
      </trkpt>
      <trkpt lat="46.29293" lon="4.78239">
        <ele>197.80000305176</ele>
        <time>2024-05-20T09:54:34.000Z</time>
      </trkpt>
      <trkpt lat="46.29288" lon="4.78244">
        <ele>197.80000305176</ele>
        <time>2024-05-20T09:54:35.000Z</time>
      </trkpt>
      <trkpt lat="46.29283" lon="4.78249">
        <ele>197.80000305176</ele>
        <time>2024-05-20T09:54:36.000Z</time>
      </trkpt>
      <trkpt lat="46.29278" lon="4.78255">
        <ele>197.80000305176</ele>
        <time>2024-05-20T09:54:37.000Z</time>
      </trkpt>
      <trkpt lat="46.29273" lon="4.7826">
        <ele>198</ele>
        <time>2024-05-20T09:54:38.000Z</time>
      </trkpt>
      <trkpt lat="46.29268" lon="4.78265">
        <ele>198.19999694824</ele>
        <time>2024-05-20T09:54:39.000Z</time>
      </trkpt>
      <trkpt lat="46.29263" lon="4.7827">
        <ele>198.19999694824</ele>
        <time>2024-05-20T09:54:40.000Z</time>
      </trkpt>
      <trkpt lat="46.29258" lon="4.78276">
        <ele>198.19999694824</ele>
        <time>2024-05-20T09:54:41.000Z</time>
      </trkpt>
      <trkpt lat="46.29254" lon="4.78282">
        <ele>198.19999694824</ele>
        <time>2024-05-20T09:54:42.000Z</time>
      </trkpt>
      <trkpt lat="46.29249" lon="4.78288">
        <ele>198.19999694824</ele>
        <time>2024-05-20T09:54:43.000Z</time>
      </trkpt>
      <trkpt lat="46.29245" lon="4.78294">
        <ele>198.39999389648</ele>
        <time>2024-05-20T09:54:44.000Z</time>
      </trkpt>
      <trkpt lat="46.29241" lon="4.783">
        <ele>198.39999389648</ele>
        <time>2024-05-20T09:54:45.000Z</time>
      </trkpt>
      <trkpt lat="46.29237" lon="4.78307">
        <ele>198.39999389648</ele>
        <time>2024-05-20T09:54:46.000Z</time>
      </trkpt>
      <trkpt lat="46.29233" lon="4.78313">
        <ele>198.60000610352</ele>
        <time>2024-05-20T09:54:47.000Z</time>
      </trkpt>
      <trkpt lat="46.29229" lon="4.7832">
        <ele>198.60000610352</ele>
        <time>2024-05-20T09:54:48.000Z</time>
      </trkpt>
      <trkpt lat="46.29225" lon="4.78326">
        <ele>198.80000305176</ele>
        <time>2024-05-20T09:54:49.000Z</time>
      </trkpt>
      <trkpt lat="46.29221" lon="4.78332">
        <ele>198.80000305176</ele>
        <time>2024-05-20T09:54:50.000Z</time>
      </trkpt>
      <trkpt lat="46.29216" lon="4.78338">
        <ele>199</ele>
        <time>2024-05-20T09:54:51.000Z</time>
      </trkpt>
      <trkpt lat="46.29212" lon="4.78344">
        <ele>199</ele>
        <time>2024-05-20T09:54:52.000Z</time>
      </trkpt>
      <trkpt lat="46.29208" lon="4.78351">
        <ele>199</ele>
        <time>2024-05-20T09:54:53.000Z</time>
      </trkpt>
      <trkpt lat="46.29204" lon="4.78357">
        <ele>199.19999694824</ele>
        <time>2024-05-20T09:54:54.000Z</time>
      </trkpt>
      <trkpt lat="46.29201" lon="4.78364">
        <ele>199.60000610352</ele>
        <time>2024-05-20T09:54:55.000Z</time>
      </trkpt>
      <trkpt lat="46.29197" lon="4.7837">
        <ele>199.60000610352</ele>
        <time>2024-05-20T09:54:56.000Z</time>
      </trkpt>
      <trkpt lat="46.29194" lon="4.78376">
        <ele>199.80000305176</ele>
        <time>2024-05-20T09:54:57.000Z</time>
      </trkpt>
      <trkpt lat="46.29191" lon="4.78382">
        <ele>200</ele>
        <time>2024-05-20T09:54:58.000Z</time>
      </trkpt>
      <trkpt lat="46.29188" lon="4.78389">
        <ele>200.19999694824</ele>
        <time>2024-05-20T09:54:59.000Z</time>
      </trkpt>
      <trkpt lat="46.29185" lon="4.78395">
        <ele>200.19999694824</ele>
        <time>2024-05-20T09:55:00.000Z</time>
      </trkpt>
      <trkpt lat="46.29182" lon="4.784">
        <ele>200.19999694824</ele>
        <time>2024-05-20T09:55:01.000Z</time>
      </trkpt>
      <trkpt lat="46.29179" lon="4.78405">
        <ele>200.19999694824</ele>
        <time>2024-05-20T09:55:02.000Z</time>
      </trkpt>
      <trkpt lat="46.29177" lon="4.7841">
        <ele>200.19999694824</ele>
        <time>2024-05-20T09:55:03.000Z</time>
      </trkpt>
      <trkpt lat="46.29175" lon="4.78416">
        <ele>200.19999694824</ele>
        <time>2024-05-20T09:55:04.000Z</time>
      </trkpt>
      <trkpt lat="46.29173" lon="4.7842">
        <ele>200.19999694824</ele>
        <time>2024-05-20T09:55:05.000Z</time>
      </trkpt>
      <trkpt lat="46.29171" lon="4.78425">
        <ele>200.19999694824</ele>
        <time>2024-05-20T09:55:06.000Z</time>
      </trkpt>
      <trkpt lat="46.29169" lon="4.78429">
        <ele>200.19999694824</ele>
        <time>2024-05-20T09:55:07.000Z</time>
      </trkpt>
      <trkpt lat="46.29168" lon="4.78433">
        <ele>200.19999694824</ele>
        <time>2024-05-20T09:55:08.000Z</time>
      </trkpt>
      <trkpt lat="46.29166" lon="4.78437">
        <ele>200.39999389648</ele>
        <time>2024-05-20T09:55:09.000Z</time>
      </trkpt>
      <trkpt lat="46.29164" lon="4.78442">
        <ele>200.60000610352</ele>
        <time>2024-05-20T09:55:10.000Z</time>
      </trkpt>
      <trkpt lat="46.29161" lon="4.78446">
        <ele>200.60000610352</ele>
        <time>2024-05-20T09:55:11.000Z</time>
      </trkpt>
      <trkpt lat="46.29158" lon="4.7845">
        <ele>200.80000305176</ele>
        <time>2024-05-20T09:55:12.000Z</time>
      </trkpt>
      <trkpt lat="46.29156" lon="4.78455">
        <ele>200.80000305176</ele>
        <time>2024-05-20T09:55:13.000Z</time>
      </trkpt>
      <trkpt lat="46.29154" lon="4.7846">
        <ele>200.80000305176</ele>
        <time>2024-05-20T09:55:14.000Z</time>
      </trkpt>
      <trkpt lat="46.29151" lon="4.78465">
        <ele>200.80000305176</ele>
        <time>2024-05-20T09:55:15.000Z</time>
      </trkpt>
      <trkpt lat="46.29149" lon="4.7847">
        <ele>200.80000305176</ele>
        <time>2024-05-20T09:55:16.000Z</time>
      </trkpt>
      <trkpt lat="46.29146" lon="4.78475">
        <ele>200.80000305176</ele>
        <time>2024-05-20T09:55:17.000Z</time>
      </trkpt>
      <trkpt lat="46.29144" lon="4.7848">
        <ele>200.80000305176</ele>
        <time>2024-05-20T09:55:18.000Z</time>
      </trkpt>
      <trkpt lat="46.29141" lon="4.78485">
        <ele>200.80000305176</ele>
        <time>2024-05-20T09:55:19.000Z</time>
      </trkpt>
      <trkpt lat="46.29139" lon="4.78491">
        <ele>200.80000305176</ele>
        <time>2024-05-20T09:55:20.000Z</time>
      </trkpt>
      <trkpt lat="46.29137" lon="4.78496">
        <ele>201</ele>
        <time>2024-05-20T09:55:21.000Z</time>
      </trkpt>
      <trkpt lat="46.29135" lon="4.78501">
        <ele>201.19999694824</ele>
        <time>2024-05-20T09:55:22.000Z</time>
      </trkpt>
      <trkpt lat="46.29132" lon="4.78506">
        <ele>201.19999694824</ele>
        <time>2024-05-20T09:55:23.000Z</time>
      </trkpt>
      <trkpt lat="46.2913" lon="4.78511">
        <ele>201.60000610352</ele>
        <time>2024-05-20T09:55:24.000Z</time>
      </trkpt>
      <trkpt lat="46.29127" lon="4.78516">
        <ele>201.60000610352</ele>
        <time>2024-05-20T09:55:25.000Z</time>
      </trkpt>
      <trkpt lat="46.29125" lon="4.78522">
        <ele>201.60000610352</ele>
        <time>2024-05-20T09:55:26.000Z</time>
      </trkpt>
      <trkpt lat="46.29123" lon="4.78527">
        <ele>201.80000305176</ele>
        <time>2024-05-20T09:55:27.000Z</time>
      </trkpt>
      <trkpt lat="46.2912" lon="4.78532">
        <ele>201.80000305176</ele>
        <time>2024-05-20T09:55:28.000Z</time>
      </trkpt>
      <trkpt lat="46.29118" lon="4.78538">
        <ele>201.80000305176</ele>
        <time>2024-05-20T09:55:29.000Z</time>
      </trkpt>
      <trkpt lat="46.29115" lon="4.78543">
        <ele>202</ele>
        <time>2024-05-20T09:55:30.000Z</time>
      </trkpt>
      <trkpt lat="46.29113" lon="4.78549">
        <ele>202</ele>
        <time>2024-05-20T09:55:31.000Z</time>
      </trkpt>
      <trkpt lat="46.29111" lon="4.78555">
        <ele>202</ele>
        <time>2024-05-20T09:55:32.000Z</time>
      </trkpt>
      <trkpt lat="46.29109" lon="4.78561">
        <ele>202</ele>
        <time>2024-05-20T09:55:33.000Z</time>
      </trkpt>
      <trkpt lat="46.29107" lon="4.78566">
        <ele>202.19999694824</ele>
        <time>2024-05-20T09:55:34.000Z</time>
      </trkpt>
      <trkpt lat="46.29105" lon="4.78572">
        <ele>202.19999694824</ele>
        <time>2024-05-20T09:55:35.000Z</time>
      </trkpt>
      <trkpt lat="46.29103" lon="4.78578">
        <ele>202.39999389648</ele>
        <time>2024-05-20T09:55:36.000Z</time>
      </trkpt>
      <trkpt lat="46.29101" lon="4.78584">
        <ele>202.60000610352</ele>
        <time>2024-05-20T09:55:37.000Z</time>
      </trkpt>
      <trkpt lat="46.29099" lon="4.7859">
        <ele>202.80000305176</ele>
        <time>2024-05-20T09:55:38.000Z</time>
      </trkpt>
      <trkpt lat="46.29097" lon="4.78597">
        <ele>203</ele>
        <time>2024-05-20T09:55:39.000Z</time>
      </trkpt>
      <trkpt lat="46.29095" lon="4.78603">
        <ele>203.19999694824</ele>
        <time>2024-05-20T09:55:40.000Z</time>
      </trkpt>
      <trkpt lat="46.29093" lon="4.78609">
        <ele>203.19999694824</ele>
        <time>2024-05-20T09:55:41.000Z</time>
      </trkpt>
      <trkpt lat="46.29091" lon="4.78616">
        <ele>203.19999694824</ele>
        <time>2024-05-20T09:55:42.000Z</time>
      </trkpt>
      <trkpt lat="46.29089" lon="4.78622">
        <ele>203.19999694824</ele>
        <time>2024-05-20T09:55:43.000Z</time>
      </trkpt>
      <trkpt lat="46.29087" lon="4.78629">
        <ele>203.19999694824</ele>
        <time>2024-05-20T09:55:44.000Z</time>
      </trkpt>
      <trkpt lat="46.29085" lon="4.78635">
        <ele>203.39999389648</ele>
        <time>2024-05-20T09:55:45.000Z</time>
      </trkpt>
      <trkpt lat="46.29084" lon="4.78642">
        <ele>203.60000610352</ele>
        <time>2024-05-20T09:55:46.000Z</time>
      </trkpt>
      <trkpt lat="46.29082" lon="4.78649">
        <ele>203.60000610352</ele>
        <time>2024-05-20T09:55:47.000Z</time>
      </trkpt>
      <trkpt lat="46.29081" lon="4.78655">
        <ele>204</ele>
        <time>2024-05-20T09:55:48.000Z</time>
      </trkpt>
      <trkpt lat="46.29079" lon="4.78662">
        <ele>204</ele>
        <time>2024-05-20T09:55:49.000Z</time>
      </trkpt>
      <trkpt lat="46.29077" lon="4.78669">
        <ele>204.19999694824</ele>
        <time>2024-05-20T09:55:50.000Z</time>
      </trkpt>
      <trkpt lat="46.29076" lon="4.78675">
        <ele>204.19999694824</ele>
        <time>2024-05-20T09:55:51.000Z</time>
      </trkpt>
      <trkpt lat="46.29074" lon="4.78682">
        <ele>204.39999389648</ele>
        <time>2024-05-20T09:55:52.000Z</time>
      </trkpt>
      <trkpt lat="46.29073" lon="4.78689">
        <ele>204.60000610352</ele>
        <time>2024-05-20T09:55:53.000Z</time>
      </trkpt>
      <trkpt lat="46.29071" lon="4.78695">
        <ele>204.80000305176</ele>
        <time>2024-05-20T09:55:54.000Z</time>
      </trkpt>
      <trkpt lat="46.2907" lon="4.78702">
        <ele>205</ele>
        <time>2024-05-20T09:55:55.000Z</time>
      </trkpt>
      <trkpt lat="46.29069" lon="4.78709">
        <ele>205.19999694824</ele>
        <time>2024-05-20T09:55:56.000Z</time>
      </trkpt>
      <trkpt lat="46.29068" lon="4.78716">
        <ele>205.39999389648</ele>
        <time>2024-05-20T09:55:57.000Z</time>
      </trkpt>
      <trkpt lat="46.29067" lon="4.78723">
        <ele>205.39999389648</ele>
        <time>2024-05-20T09:55:58.000Z</time>
      </trkpt>
      <trkpt lat="46.29066" lon="4.7873">
        <ele>205.39999389648</ele>
        <time>2024-05-20T09:55:59.000Z</time>
      </trkpt>
      <trkpt lat="46.29065" lon="4.78736">
        <ele>205.60000610352</ele>
        <time>2024-05-20T09:56:00.000Z</time>
      </trkpt>
      <trkpt lat="46.29065" lon="4.78743">
        <ele>205.60000610352</ele>
        <time>2024-05-20T09:56:01.000Z</time>
      </trkpt>
      <trkpt lat="46.29064" lon="4.78749">
        <ele>205.60000610352</ele>
        <time>2024-05-20T09:56:02.000Z</time>
      </trkpt>
      <trkpt lat="46.29062" lon="4.78754">
        <ele>205.60000610352</ele>
        <time>2024-05-20T09:56:03.000Z</time>
      </trkpt>
      <trkpt lat="46.29061" lon="4.78759">
        <ele>205.60000610352</ele>
        <time>2024-05-20T09:56:04.000Z</time>
      </trkpt>
      <trkpt lat="46.2906" lon="4.78765">
        <ele>205.80000305176</ele>
        <time>2024-05-20T09:56:05.000Z</time>
      </trkpt>
      <trkpt lat="46.2906" lon="4.7877">
        <ele>205.80000305176</ele>
        <time>2024-05-20T09:56:06.000Z</time>
      </trkpt>
      <trkpt lat="46.29059" lon="4.78775">
        <ele>205.80000305176</ele>
        <time>2024-05-20T09:56:07.000Z</time>
      </trkpt>
      <trkpt lat="46.29058" lon="4.7878">
        <ele>206</ele>
        <time>2024-05-20T09:56:08.000Z</time>
      </trkpt>
      <trkpt lat="46.29058" lon="4.78785">
        <ele>206</ele>
        <time>2024-05-20T09:56:09.000Z</time>
      </trkpt>
      <trkpt lat="46.29058" lon="4.7879">
        <ele>206</ele>
        <time>2024-05-20T09:56:10.000Z</time>
      </trkpt>
      <trkpt lat="46.29058" lon="4.78795">
        <ele>206</ele>
        <time>2024-05-20T09:56:11.000Z</time>
      </trkpt>
      <trkpt lat="46.29057" lon="4.788">
        <ele>206.19999694824</ele>
        <time>2024-05-20T09:56:12.000Z</time>
      </trkpt>
      <trkpt lat="46.29055" lon="4.78805">
        <ele>206.39999389648</ele>
        <time>2024-05-20T09:56:13.000Z</time>
      </trkpt>
      <trkpt lat="46.29054" lon="4.7881">
        <ele>206.39999389648</ele>
        <time>2024-05-20T09:56:14.000Z</time>
      </trkpt>
      <trkpt lat="46.29053" lon="4.78815">
        <ele>206.39999389648</ele>
        <time>2024-05-20T09:56:15.000Z</time>
      </trkpt>
      <trkpt lat="46.29052" lon="4.78821">
        <ele>206.39999389648</ele>
        <time>2024-05-20T09:56:16.000Z</time>
      </trkpt>
      <trkpt lat="46.29051" lon="4.78827">
        <ele>206.60000610352</ele>
        <time>2024-05-20T09:56:17.000Z</time>
      </trkpt>
      <trkpt lat="46.2905" lon="4.78833">
        <ele>206.60000610352</ele>
        <time>2024-05-20T09:56:18.000Z</time>
      </trkpt>
      <trkpt lat="46.29049" lon="4.78839">
        <ele>206.60000610352</ele>
        <time>2024-05-20T09:56:19.000Z</time>
      </trkpt>
      <trkpt lat="46.29048" lon="4.78845">
        <ele>206.60000610352</ele>
        <time>2024-05-20T09:56:20.000Z</time>
      </trkpt>
      <trkpt lat="46.29047" lon="4.78851">
        <ele>206.80000305176</ele>
        <time>2024-05-20T09:56:21.000Z</time>
      </trkpt>
      <trkpt lat="46.29046" lon="4.78856">
        <ele>207</ele>
        <time>2024-05-20T09:56:22.000Z</time>
      </trkpt>
      <trkpt lat="46.29045" lon="4.78862">
        <ele>207</ele>
        <time>2024-05-20T09:56:23.000Z</time>
      </trkpt>
      <trkpt lat="46.29044" lon="4.78868">
        <ele>207.19999694824</ele>
        <time>2024-05-20T09:56:24.000Z</time>
      </trkpt>
      <trkpt lat="46.29042" lon="4.78874">
        <ele>207.39999389648</ele>
        <time>2024-05-20T09:56:25.000Z</time>
      </trkpt>
      <trkpt lat="46.29041" lon="4.7888">
        <ele>207.39999389648</ele>
        <time>2024-05-20T09:56:26.000Z</time>
      </trkpt>
      <trkpt lat="46.2904" lon="4.78886">
        <ele>207.60000610352</ele>
        <time>2024-05-20T09:56:27.000Z</time>
      </trkpt>
      <trkpt lat="46.29039" lon="4.78892">
        <ele>207.60000610352</ele>
        <time>2024-05-20T09:56:28.000Z</time>
      </trkpt>
      <trkpt lat="46.29039" lon="4.78898">
        <ele>207.60000610352</ele>
        <time>2024-05-20T09:56:29.000Z</time>
      </trkpt>
      <trkpt lat="46.29038" lon="4.78904">
        <ele>207.80000305176</ele>
        <time>2024-05-20T09:56:30.000Z</time>
      </trkpt>
      <trkpt lat="46.29038" lon="4.78909">
        <ele>208</ele>
        <time>2024-05-20T09:56:31.000Z</time>
      </trkpt>
      <trkpt lat="46.29037" lon="4.78915">
        <ele>208.19999694824</ele>
        <time>2024-05-20T09:56:32.000Z</time>
      </trkpt>
      <trkpt lat="46.29035" lon="4.78919">
        <ele>208.39999389648</ele>
        <time>2024-05-20T09:56:33.000Z</time>
      </trkpt>
      <trkpt lat="46.29034" lon="4.78924">
        <ele>208.60000610352</ele>
        <time>2024-05-20T09:56:34.000Z</time>
      </trkpt>
      <trkpt lat="46.29033" lon="4.78928">
        <ele>208.60000610352</ele>
        <time>2024-05-20T09:56:35.000Z</time>
      </trkpt>
      <trkpt lat="46.29032" lon="4.78932">
        <ele>208.60000610352</ele>
        <time>2024-05-20T09:56:36.000Z</time>
      </trkpt>
      <trkpt lat="46.29031" lon="4.78936">
        <ele>208.60000610352</ele>
        <time>2024-05-20T09:56:37.000Z</time>
      </trkpt>
      <trkpt lat="46.2903" lon="4.78941">
        <ele>208.60000610352</ele>
        <time>2024-05-20T09:56:38.000Z</time>
      </trkpt>
      <trkpt lat="46.29029" lon="4.78945">
        <ele>208.60000610352</ele>
        <time>2024-05-20T09:56:39.000Z</time>
      </trkpt>
      <trkpt lat="46.29027" lon="4.7895">
        <ele>208.60000610352</ele>
        <time>2024-05-20T09:56:40.000Z</time>
      </trkpt>
      <trkpt lat="46.29026" lon="4.78955">
        <ele>208.60000610352</ele>
        <time>2024-05-20T09:56:41.000Z</time>
      </trkpt>
      <trkpt lat="46.29025" lon="4.7896">
        <ele>208.80000305176</ele>
        <time>2024-05-20T09:56:42.000Z</time>
      </trkpt>
      <trkpt lat="46.29024" lon="4.78966">
        <ele>208.80000305176</ele>
        <time>2024-05-20T09:56:43.000Z</time>
      </trkpt>
      <trkpt lat="46.29023" lon="4.78972">
        <ele>208.80000305176</ele>
        <time>2024-05-20T09:56:44.000Z</time>
      </trkpt>
      <trkpt lat="46.29022" lon="4.78977">
        <ele>208.80000305176</ele>
        <time>2024-05-20T09:56:45.000Z</time>
      </trkpt>
      <trkpt lat="46.2902" lon="4.7898">
        <ele>208.80000305176</ele>
        <time>2024-05-20T09:56:46.000Z</time>
      </trkpt>
      <trkpt lat="46.29018" lon="4.78983">
        <ele>208.80000305176</ele>
        <time>2024-05-20T09:56:47.000Z</time>
      </trkpt>
      <trkpt lat="46.29015" lon="4.78984">
        <ele>209</ele>
        <time>2024-05-20T09:56:48.000Z</time>
      </trkpt>
      <trkpt lat="46.29012" lon="4.78986">
        <ele>209</ele>
        <time>2024-05-20T09:56:49.000Z</time>
      </trkpt>
      <trkpt lat="46.29011" lon="4.78988">
        <ele>209</ele>
        <time>2024-05-20T09:56:50.000Z</time>
      </trkpt>
      <trkpt lat="46.29009" lon="4.78991">
        <ele>209</ele>
        <time>2024-05-20T09:56:51.000Z</time>
      </trkpt>
      <trkpt lat="46.29009" lon="4.78994">
        <ele>208.80000305176</ele>
        <time>2024-05-20T09:56:52.000Z</time>
      </trkpt>
      <trkpt lat="46.29009" lon="4.78998">
        <ele>208.80000305176</ele>
        <time>2024-05-20T09:56:53.000Z</time>
      </trkpt>
      <trkpt lat="46.29008" lon="4.79002">
        <ele>208.80000305176</ele>
        <time>2024-05-20T09:56:54.000Z</time>
      </trkpt>
      <trkpt lat="46.29006" lon="4.79008">
        <ele>208.80000305176</ele>
        <time>2024-05-20T09:56:55.000Z</time>
      </trkpt>
      <trkpt lat="46.29005" lon="4.79014">
        <ele>208.60000610352</ele>
        <time>2024-05-20T09:56:56.000Z</time>
      </trkpt>
      <trkpt lat="46.29004" lon="4.7902">
        <ele>208.60000610352</ele>
        <time>2024-05-20T09:56:57.000Z</time>
      </trkpt>
      <trkpt lat="46.29003" lon="4.79027">
        <ele>208.60000610352</ele>
        <time>2024-05-20T09:56:58.000Z</time>
      </trkpt>
      <trkpt lat="46.29002" lon="4.79034">
        <ele>208.39999389648</ele>
        <time>2024-05-20T09:56:59.000Z</time>
      </trkpt>
      <trkpt lat="46.29001" lon="4.79041">
        <ele>208.39999389648</ele>
        <time>2024-05-20T09:57:00.000Z</time>
      </trkpt>
      <trkpt lat="46.29" lon="4.79048">
        <ele>208.19999694824</ele>
        <time>2024-05-20T09:57:01.000Z</time>
      </trkpt>
      <trkpt lat="46.28999" lon="4.79055">
        <ele>208.19999694824</ele>
        <time>2024-05-20T09:57:02.000Z</time>
      </trkpt>
      <trkpt lat="46.28998" lon="4.79062">
        <ele>208.19999694824</ele>
        <time>2024-05-20T09:57:03.000Z</time>
      </trkpt>
      <trkpt lat="46.28997" lon="4.79069">
        <ele>208.19999694824</ele>
        <time>2024-05-20T09:57:04.000Z</time>
      </trkpt>
      <trkpt lat="46.28996" lon="4.79076">
        <ele>208.19999694824</ele>
        <time>2024-05-20T09:57:05.000Z</time>
      </trkpt>
      <trkpt lat="46.28995" lon="4.79084">
        <ele>208.19999694824</ele>
        <time>2024-05-20T09:57:06.000Z</time>
      </trkpt>
      <trkpt lat="46.28993" lon="4.79091">
        <ele>208.19999694824</ele>
        <time>2024-05-20T09:57:07.000Z</time>
      </trkpt>
      <trkpt lat="46.28992" lon="4.79099">
        <ele>208.19999694824</ele>
        <time>2024-05-20T09:57:08.000Z</time>
      </trkpt>
      <trkpt lat="46.28992" lon="4.79106">
        <ele>207.60000610352</ele>
        <time>2024-05-20T09:57:09.000Z</time>
      </trkpt>
      <trkpt lat="46.28992" lon="4.79114">
        <ele>207.60000610352</ele>
        <time>2024-05-20T09:57:10.000Z</time>
      </trkpt>
      <trkpt lat="46.28994" lon="4.7912">
        <ele>207.60000610352</ele>
        <time>2024-05-20T09:57:11.000Z</time>
      </trkpt>
      <trkpt lat="46.28998" lon="4.79123">
        <ele>207.60000610352</ele>
        <time>2024-05-20T09:57:12.000Z</time>
      </trkpt>
      <trkpt lat="46.29002" lon="4.79125">
        <ele>207.60000610352</ele>
        <time>2024-05-20T09:57:13.000Z</time>
      </trkpt>
      <trkpt lat="46.29006" lon="4.79127">
        <ele>208</ele>
        <time>2024-05-20T09:57:14.000Z</time>
      </trkpt>
      <trkpt lat="46.29011" lon="4.79127">
        <ele>208.39999389648</ele>
        <time>2024-05-20T09:57:15.000Z</time>
      </trkpt>
      <trkpt lat="46.29015" lon="4.79128">
        <ele>208.60000610352</ele>
        <time>2024-05-20T09:57:16.000Z</time>
      </trkpt>
      <trkpt lat="46.29019" lon="4.79128">
        <ele>208.80000305176</ele>
        <time>2024-05-20T09:57:17.000Z</time>
      </trkpt>
      <trkpt lat="46.29023" lon="4.79128">
        <ele>209.19999694824</ele>
        <time>2024-05-20T09:57:18.000Z</time>
      </trkpt>
      <trkpt lat="46.29027" lon="4.79128">
        <ele>209.19999694824</ele>
        <time>2024-05-20T09:57:19.000Z</time>
      </trkpt>
      <trkpt lat="46.29031" lon="4.79128">
        <ele>209.39999389648</ele>
        <time>2024-05-20T09:57:20.000Z</time>
      </trkpt>
      <trkpt lat="46.29035" lon="4.79128">
        <ele>209.60000610352</ele>
        <time>2024-05-20T09:57:21.000Z</time>
      </trkpt>
      <trkpt lat="46.29039" lon="4.79128">
        <ele>210</ele>
        <time>2024-05-20T09:57:22.000Z</time>
      </trkpt>
      <trkpt lat="46.29044" lon="4.79128">
        <ele>210.19999694824</ele>
        <time>2024-05-20T09:57:23.000Z</time>
      </trkpt>
      <trkpt lat="46.29048" lon="4.79128">
        <ele>210.39999389648</ele>
        <time>2024-05-20T09:57:24.000Z</time>
      </trkpt>
      <trkpt lat="46.29053" lon="4.79128">
        <ele>210.60000610352</ele>
        <time>2024-05-20T09:57:25.000Z</time>
      </trkpt>
      <trkpt lat="46.29057" lon="4.79128">
        <ele>210.80000305176</ele>
        <time>2024-05-20T09:57:26.000Z</time>
      </trkpt>
      <trkpt lat="46.29061" lon="4.79128">
        <ele>211</ele>
        <time>2024-05-20T09:57:27.000Z</time>
      </trkpt>
      <trkpt lat="46.29066" lon="4.79128">
        <ele>211</ele>
        <time>2024-05-20T09:57:28.000Z</time>
      </trkpt>
      <trkpt lat="46.29071" lon="4.79129">
        <ele>211.19999694824</ele>
        <time>2024-05-20T09:57:29.000Z</time>
      </trkpt>
      <trkpt lat="46.29075" lon="4.79129">
        <ele>211.19999694824</ele>
        <time>2024-05-20T09:57:30.000Z</time>
      </trkpt>
      <trkpt lat="46.2908" lon="4.7913">
        <ele>211.39999389648</ele>
        <time>2024-05-20T09:57:31.000Z</time>
      </trkpt>
      <trkpt lat="46.29084" lon="4.79131">
        <ele>211.39999389648</ele>
        <time>2024-05-20T09:57:32.000Z</time>
      </trkpt>
      <trkpt lat="46.29089" lon="4.79131">
        <ele>211.60000610352</ele>
        <time>2024-05-20T09:57:33.000Z</time>
      </trkpt>
      <trkpt lat="46.29094" lon="4.79132">
        <ele>211.80000305176</ele>
        <time>2024-05-20T09:57:34.000Z</time>
      </trkpt>
      <trkpt lat="46.29098" lon="4.79132">
        <ele>211.80000305176</ele>
        <time>2024-05-20T09:57:35.000Z</time>
      </trkpt>
      <trkpt lat="46.29103" lon="4.79133">
        <ele>212</ele>
        <time>2024-05-20T09:57:36.000Z</time>
      </trkpt>
      <trkpt lat="46.29108" lon="4.79133">
        <ele>212</ele>
        <time>2024-05-20T09:57:37.000Z</time>
      </trkpt>
      <trkpt lat="46.29112" lon="4.79134">
        <ele>212.19999694824</ele>
        <time>2024-05-20T09:57:38.000Z</time>
      </trkpt>
      <trkpt lat="46.29117" lon="4.79135">
        <ele>212.39999389648</ele>
        <time>2024-05-20T09:57:39.000Z</time>
      </trkpt>
      <trkpt lat="46.29123" lon="4.79136">
        <ele>212.39999389648</ele>
        <time>2024-05-20T09:57:40.000Z</time>
      </trkpt>
      <trkpt lat="46.29128" lon="4.79136">
        <ele>212.39999389648</ele>
        <time>2024-05-20T09:57:41.000Z</time>
      </trkpt>
      <trkpt lat="46.29133" lon="4.79137">
        <ele>212.60000610352</ele>
        <time>2024-05-20T09:57:42.000Z</time>
      </trkpt>
      <trkpt lat="46.29137" lon="4.79138">
        <ele>212.60000610352</ele>
        <time>2024-05-20T09:57:43.000Z</time>
      </trkpt>
      <trkpt lat="46.29142" lon="4.79139">
        <ele>212.80000305176</ele>
        <time>2024-05-20T09:57:44.000Z</time>
      </trkpt>
      <trkpt lat="46.29147" lon="4.7914">
        <ele>213</ele>
        <time>2024-05-20T09:57:45.000Z</time>
      </trkpt>
      <trkpt lat="46.29151" lon="4.7914">
        <ele>213.19999694824</ele>
        <time>2024-05-20T09:57:46.000Z</time>
      </trkpt>
      <trkpt lat="46.29155" lon="4.79141">
        <ele>213.39999389648</ele>
        <time>2024-05-20T09:57:47.000Z</time>
      </trkpt>
      <trkpt lat="46.2916" lon="4.79142">
        <ele>213.60000610352</ele>
        <time>2024-05-20T09:57:48.000Z</time>
      </trkpt>
      <trkpt lat="46.29165" lon="4.79143">
        <ele>213.80000305176</ele>
        <time>2024-05-20T09:57:49.000Z</time>
      </trkpt>
      <trkpt lat="46.29169" lon="4.79143">
        <ele>214</ele>
        <time>2024-05-20T09:57:50.000Z</time>
      </trkpt>
      <trkpt lat="46.29174" lon="4.79144">
        <ele>214</ele>
        <time>2024-05-20T09:57:51.000Z</time>
      </trkpt>
      <trkpt lat="46.29179" lon="4.79145">
        <ele>214.19999694824</ele>
        <time>2024-05-20T09:57:52.000Z</time>
      </trkpt>
      <trkpt lat="46.29183" lon="4.79146">
        <ele>214.19999694824</ele>
        <time>2024-05-20T09:57:53.000Z</time>
      </trkpt>
      <trkpt lat="46.29188" lon="4.79147">
        <ele>214.19999694824</ele>
        <time>2024-05-20T09:57:54.000Z</time>
      </trkpt>
      <trkpt lat="46.29193" lon="4.79148">
        <ele>214.19999694824</ele>
        <time>2024-05-20T09:57:55.000Z</time>
      </trkpt>
      <trkpt lat="46.29197" lon="4.79148">
        <ele>214.39999389648</ele>
        <time>2024-05-20T09:57:56.000Z</time>
      </trkpt>
      <trkpt lat="46.29202" lon="4.79149">
        <ele>214.39999389648</ele>
        <time>2024-05-20T09:57:57.000Z</time>
      </trkpt>
      <trkpt lat="46.29206" lon="4.7915">
        <ele>214.60000610352</ele>
        <time>2024-05-20T09:57:58.000Z</time>
      </trkpt>
      <trkpt lat="46.29211" lon="4.79151">
        <ele>215</ele>
        <time>2024-05-20T09:57:59.000Z</time>
      </trkpt>
      <trkpt lat="46.29215" lon="4.79151">
        <ele>215</ele>
        <time>2024-05-20T09:58:00.000Z</time>
      </trkpt>
      <trkpt lat="46.29219" lon="4.79152">
        <ele>215.39999389648</ele>
        <time>2024-05-20T09:58:01.000Z</time>
      </trkpt>
      <trkpt lat="46.29223" lon="4.79153">
        <ele>215.39999389648</ele>
        <time>2024-05-20T09:58:02.000Z</time>
      </trkpt>
      <trkpt lat="46.29228" lon="4.79154">
        <ele>215.60000610352</ele>
        <time>2024-05-20T09:58:03.000Z</time>
      </trkpt>
      <trkpt lat="46.29233" lon="4.79155">
        <ele>215.60000610352</ele>
        <time>2024-05-20T09:58:04.000Z</time>
      </trkpt>
      <trkpt lat="46.29237" lon="4.79156">
        <ele>215.60000610352</ele>
        <time>2024-05-20T09:58:05.000Z</time>
      </trkpt>
      <trkpt lat="46.29242" lon="4.79157">
        <ele>215.60000610352</ele>
        <time>2024-05-20T09:58:06.000Z</time>
      </trkpt>
      <trkpt lat="46.29246" lon="4.79157">
        <ele>215.60000610352</ele>
        <time>2024-05-20T09:58:07.000Z</time>
      </trkpt>
      <trkpt lat="46.29251" lon="4.79158">
        <ele>215.60000610352</ele>
        <time>2024-05-20T09:58:08.000Z</time>
      </trkpt>
      <trkpt lat="46.29255" lon="4.79159">
        <ele>215.80000305176</ele>
        <time>2024-05-20T09:58:09.000Z</time>
      </trkpt>
      <trkpt lat="46.29259" lon="4.79159">
        <ele>216</ele>
        <time>2024-05-20T09:58:10.000Z</time>
      </trkpt>
      <trkpt lat="46.29264" lon="4.7916">
        <ele>216</ele>
        <time>2024-05-20T09:58:11.000Z</time>
      </trkpt>
      <trkpt lat="46.29269" lon="4.79161">
        <ele>216.19999694824</ele>
        <time>2024-05-20T09:58:12.000Z</time>
      </trkpt>
      <trkpt lat="46.29273" lon="4.79162">
        <ele>216.19999694824</ele>
        <time>2024-05-20T09:58:13.000Z</time>
      </trkpt>
      <trkpt lat="46.29278" lon="4.79162">
        <ele>216.39999389648</ele>
        <time>2024-05-20T09:58:14.000Z</time>
      </trkpt>
      <trkpt lat="46.29282" lon="4.79163">
        <ele>216.60000610352</ele>
        <time>2024-05-20T09:58:15.000Z</time>
      </trkpt>
      <trkpt lat="46.29287" lon="4.79164">
        <ele>216.80000305176</ele>
        <time>2024-05-20T09:58:16.000Z</time>
      </trkpt>
      <trkpt lat="46.29292" lon="4.79164">
        <ele>216.80000305176</ele>
        <time>2024-05-20T09:58:17.000Z</time>
      </trkpt>
      <trkpt lat="46.29297" lon="4.79165">
        <ele>216.80000305176</ele>
        <time>2024-05-20T09:58:18.000Z</time>
      </trkpt>
      <trkpt lat="46.29302" lon="4.79165">
        <ele>216.80000305176</ele>
        <time>2024-05-20T09:58:19.000Z</time>
      </trkpt>
      <trkpt lat="46.29307" lon="4.79166">
        <ele>216.80000305176</ele>
        <time>2024-05-20T09:58:20.000Z</time>
      </trkpt>
      <trkpt lat="46.29313" lon="4.79167">
        <ele>216.80000305176</ele>
        <time>2024-05-20T09:58:21.000Z</time>
      </trkpt>
      <trkpt lat="46.29318" lon="4.79168">
        <ele>216.80000305176</ele>
        <time>2024-05-20T09:58:22.000Z</time>
      </trkpt>
      <trkpt lat="46.29323" lon="4.79169">
        <ele>217</ele>
        <time>2024-05-20T09:58:23.000Z</time>
      </trkpt>
      <trkpt lat="46.29328" lon="4.7917">
        <ele>217</ele>
        <time>2024-05-20T09:58:24.000Z</time>
      </trkpt>
      <trkpt lat="46.29333" lon="4.79171">
        <ele>217</ele>
        <time>2024-05-20T09:58:25.000Z</time>
      </trkpt>
      <trkpt lat="46.29338" lon="4.79172">
        <ele>217</ele>
        <time>2024-05-20T09:58:26.000Z</time>
      </trkpt>
      <trkpt lat="46.29343" lon="4.79173">
        <ele>217</ele>
        <time>2024-05-20T09:58:27.000Z</time>
      </trkpt>
      <trkpt lat="46.29348" lon="4.79173">
        <ele>217</ele>
        <time>2024-05-20T09:58:28.000Z</time>
      </trkpt>
      <trkpt lat="46.29353" lon="4.79174">
        <ele>216.80000305176</ele>
        <time>2024-05-20T09:58:29.000Z</time>
      </trkpt>
      <trkpt lat="46.29359" lon="4.79175">
        <ele>216.80000305176</ele>
        <time>2024-05-20T09:58:30.000Z</time>
      </trkpt>
      <trkpt lat="46.29364" lon="4.79176">
        <ele>216.80000305176</ele>
        <time>2024-05-20T09:58:31.000Z</time>
      </trkpt>
      <trkpt lat="46.29369" lon="4.79177">
        <ele>216.80000305176</ele>
        <time>2024-05-20T09:58:32.000Z</time>
      </trkpt>
      <trkpt lat="46.29375" lon="4.79177">
        <ele>216.80000305176</ele>
        <time>2024-05-20T09:58:33.000Z</time>
      </trkpt>
      <trkpt lat="46.2938" lon="4.79178">
        <ele>216.80000305176</ele>
        <time>2024-05-20T09:58:34.000Z</time>
      </trkpt>
      <trkpt lat="46.29385" lon="4.79178">
        <ele>216.80000305176</ele>
        <time>2024-05-20T09:58:35.000Z</time>
      </trkpt>
      <trkpt lat="46.2939" lon="4.79179">
        <ele>216.80000305176</ele>
        <time>2024-05-20T09:58:36.000Z</time>
      </trkpt>
      <trkpt lat="46.29395" lon="4.7918">
        <ele>216.80000305176</ele>
        <time>2024-05-20T09:58:37.000Z</time>
      </trkpt>
      <trkpt lat="46.29401" lon="4.7918">
        <ele>216.80000305176</ele>
        <time>2024-05-20T09:58:38.000Z</time>
      </trkpt>
      <trkpt lat="46.29406" lon="4.79181">
        <ele>216.60000610352</ele>
        <time>2024-05-20T09:58:39.000Z</time>
      </trkpt>
      <trkpt lat="46.29412" lon="4.79181">
        <ele>216.60000610352</ele>
        <time>2024-05-20T09:58:40.000Z</time>
      </trkpt>
      <trkpt lat="46.29417" lon="4.79182">
        <ele>216.60000610352</ele>
        <time>2024-05-20T09:58:41.000Z</time>
      </trkpt>
      <trkpt lat="46.29422" lon="4.79182">
        <ele>216.60000610352</ele>
        <time>2024-05-20T09:58:42.000Z</time>
      </trkpt>
      <trkpt lat="46.29428" lon="4.79183">
        <ele>216.60000610352</ele>
        <time>2024-05-20T09:58:43.000Z</time>
      </trkpt>
      <trkpt lat="46.29433" lon="4.79184">
        <ele>216.60000610352</ele>
        <time>2024-05-20T09:58:44.000Z</time>
      </trkpt>
      <trkpt lat="46.29438" lon="4.79184">
        <ele>216.60000610352</ele>
        <time>2024-05-20T09:58:45.000Z</time>
      </trkpt>
      <trkpt lat="46.29443" lon="4.79185">
        <ele>216.60000610352</ele>
        <time>2024-05-20T09:58:46.000Z</time>
      </trkpt>
      <trkpt lat="46.29448" lon="4.79185">
        <ele>216.60000610352</ele>
        <time>2024-05-20T09:58:47.000Z</time>
      </trkpt>
      <trkpt lat="46.29453" lon="4.79186">
        <ele>216.60000610352</ele>
        <time>2024-05-20T09:58:48.000Z</time>
      </trkpt>
      <trkpt lat="46.29459" lon="4.79186">
        <ele>216.80000305176</ele>
        <time>2024-05-20T09:58:49.000Z</time>
      </trkpt>
      <trkpt lat="46.29464" lon="4.79187">
        <ele>217</ele>
        <time>2024-05-20T09:58:50.000Z</time>
      </trkpt>
      <trkpt lat="46.29469" lon="4.79188">
        <ele>217</ele>
        <time>2024-05-20T09:58:51.000Z</time>
      </trkpt>
      <trkpt lat="46.29475" lon="4.79189">
        <ele>217</ele>
        <time>2024-05-20T09:58:52.000Z</time>
      </trkpt>
      <trkpt lat="46.2948" lon="4.7919">
        <ele>217</ele>
        <time>2024-05-20T09:58:53.000Z</time>
      </trkpt>
      <trkpt lat="46.29485" lon="4.79191">
        <ele>217</ele>
        <time>2024-05-20T09:58:54.000Z</time>
      </trkpt>
      <trkpt lat="46.29491" lon="4.79193">
        <ele>217</ele>
        <time>2024-05-20T09:58:55.000Z</time>
      </trkpt>
      <trkpt lat="46.29496" lon="4.79194">
        <ele>217.19999694824</ele>
        <time>2024-05-20T09:58:56.000Z</time>
      </trkpt>
      <trkpt lat="46.29501" lon="4.79195">
        <ele>217.19999694824</ele>
        <time>2024-05-20T09:58:57.000Z</time>
      </trkpt>
      <trkpt lat="46.29506" lon="4.79196">
        <ele>217.39999389648</ele>
        <time>2024-05-20T09:58:58.000Z</time>
      </trkpt>
      <trkpt lat="46.29511" lon="4.79197">
        <ele>217.39999389648</ele>
        <time>2024-05-20T09:58:59.000Z</time>
      </trkpt>
      <trkpt lat="46.29516" lon="4.79198">
        <ele>217.60000610352</ele>
        <time>2024-05-20T09:59:00.000Z</time>
      </trkpt>
      <trkpt lat="46.29521" lon="4.792">
        <ele>217.60000610352</ele>
        <time>2024-05-20T09:59:01.000Z</time>
      </trkpt>
      <trkpt lat="46.29526" lon="4.79201">
        <ele>217.80000305176</ele>
        <time>2024-05-20T09:59:02.000Z</time>
      </trkpt>
      <trkpt lat="46.29531" lon="4.79202">
        <ele>217.80000305176</ele>
        <time>2024-05-20T09:59:03.000Z</time>
      </trkpt>
      <trkpt lat="46.29536" lon="4.79203">
        <ele>217.80000305176</ele>
        <time>2024-05-20T09:59:04.000Z</time>
      </trkpt>
      <trkpt lat="46.29541" lon="4.79204">
        <ele>218</ele>
        <time>2024-05-20T09:59:05.000Z</time>
      </trkpt>
      <trkpt lat="46.29546" lon="4.79205">
        <ele>218</ele>
        <time>2024-05-20T09:59:06.000Z</time>
      </trkpt>
      <trkpt lat="46.29551" lon="4.79207">
        <ele>218</ele>
        <time>2024-05-20T09:59:07.000Z</time>
      </trkpt>
      <trkpt lat="46.29557" lon="4.79208">
        <ele>218</ele>
        <time>2024-05-20T09:59:08.000Z</time>
      </trkpt>
      <trkpt lat="46.29562" lon="4.7921">
        <ele>218</ele>
        <time>2024-05-20T09:59:09.000Z</time>
      </trkpt>
      <trkpt lat="46.29567" lon="4.79211">
        <ele>218</ele>
        <time>2024-05-20T09:59:10.000Z</time>
      </trkpt>
      <trkpt lat="46.29572" lon="4.79212">
        <ele>218</ele>
        <time>2024-05-20T09:59:11.000Z</time>
      </trkpt>
      <trkpt lat="46.29577" lon="4.79214">
        <ele>218.19999694824</ele>
        <time>2024-05-20T09:59:12.000Z</time>
      </trkpt>
      <trkpt lat="46.29581" lon="4.79215">
        <ele>218.19999694824</ele>
        <time>2024-05-20T09:59:13.000Z</time>
      </trkpt>
      <trkpt lat="46.29586" lon="4.79216">
        <ele>218.60000610352</ele>
        <time>2024-05-20T09:59:14.000Z</time>
      </trkpt>
      <trkpt lat="46.2959" lon="4.79217">
        <ele>218.80000305176</ele>
        <time>2024-05-20T09:59:15.000Z</time>
      </trkpt>
      <trkpt lat="46.29595" lon="4.79218">
        <ele>219.19999694824</ele>
        <time>2024-05-20T09:59:16.000Z</time>
      </trkpt>
      <trkpt lat="46.296" lon="4.79219">
        <ele>219.19999694824</ele>
        <time>2024-05-20T09:59:17.000Z</time>
      </trkpt>
      <trkpt lat="46.29605" lon="4.79221">
        <ele>219.39999389648</ele>
        <time>2024-05-20T09:59:18.000Z</time>
      </trkpt>
      <trkpt lat="46.29609" lon="4.79222">
        <ele>219.60000610352</ele>
        <time>2024-05-20T09:59:19.000Z</time>
      </trkpt>
      <trkpt lat="46.29614" lon="4.79223">
        <ele>219.60000610352</ele>
        <time>2024-05-20T09:59:20.000Z</time>
      </trkpt>
      <trkpt lat="46.29619" lon="4.79224">
        <ele>219.60000610352</ele>
        <time>2024-05-20T09:59:21.000Z</time>
      </trkpt>
      <trkpt lat="46.29625" lon="4.79226">
        <ele>219.60000610352</ele>
        <time>2024-05-20T09:59:22.000Z</time>
      </trkpt>
      <trkpt lat="46.2963" lon="4.79227">
        <ele>219.60000610352</ele>
        <time>2024-05-20T09:59:23.000Z</time>
      </trkpt>
      <trkpt lat="46.29635" lon="4.79228">
        <ele>219.60000610352</ele>
        <time>2024-05-20T09:59:24.000Z</time>
      </trkpt>
      <trkpt lat="46.2964" lon="4.79229">
        <ele>219.60000610352</ele>
        <time>2024-05-20T09:59:25.000Z</time>
      </trkpt>
      <trkpt lat="46.29645" lon="4.7923">
        <ele>219.80000305176</ele>
        <time>2024-05-20T09:59:26.000Z</time>
      </trkpt>
      <trkpt lat="46.2965" lon="4.79232">
        <ele>219.80000305176</ele>
        <time>2024-05-20T09:59:27.000Z</time>
      </trkpt>
      <trkpt lat="46.29655" lon="4.79233">
        <ele>220</ele>
        <time>2024-05-20T09:59:28.000Z</time>
      </trkpt>
      <trkpt lat="46.2966" lon="4.79234">
        <ele>220.19999694824</ele>
        <time>2024-05-20T09:59:29.000Z</time>
      </trkpt>
      <trkpt lat="46.29665" lon="4.79235">
        <ele>220.39999389648</ele>
        <time>2024-05-20T09:59:30.000Z</time>
      </trkpt>
      <trkpt lat="46.2967" lon="4.79236">
        <ele>220.60000610352</ele>
        <time>2024-05-20T09:59:31.000Z</time>
      </trkpt>
      <trkpt lat="46.29675" lon="4.79237">
        <ele>220.80000305176</ele>
        <time>2024-05-20T09:59:32.000Z</time>
      </trkpt>
      <trkpt lat="46.2968" lon="4.79238">
        <ele>221</ele>
        <time>2024-05-20T09:59:33.000Z</time>
      </trkpt>
      <trkpt lat="46.29685" lon="4.79239">
        <ele>221.19999694824</ele>
        <time>2024-05-20T09:59:34.000Z</time>
      </trkpt>
      <trkpt lat="46.2969" lon="4.79241">
        <ele>221.19999694824</ele>
        <time>2024-05-20T09:59:35.000Z</time>
      </trkpt>
      <trkpt lat="46.29694" lon="4.79242">
        <ele>221.39999389648</ele>
        <time>2024-05-20T09:59:36.000Z</time>
      </trkpt>
      <trkpt lat="46.29699" lon="4.79243">
        <ele>221.39999389648</ele>
        <time>2024-05-20T09:59:37.000Z</time>
      </trkpt>
      <trkpt lat="46.29704" lon="4.79244">
        <ele>221.39999389648</ele>
        <time>2024-05-20T09:59:38.000Z</time>
      </trkpt>
      <trkpt lat="46.29709" lon="4.79245">
        <ele>221.60000610352</ele>
        <time>2024-05-20T09:59:39.000Z</time>
      </trkpt>
      <trkpt lat="46.29713" lon="4.79247">
        <ele>221.80000305176</ele>
        <time>2024-05-20T09:59:40.000Z</time>
      </trkpt>
      <trkpt lat="46.29718" lon="4.79248">
        <ele>222</ele>
        <time>2024-05-20T09:59:41.000Z</time>
      </trkpt>
      <trkpt lat="46.29722" lon="4.79249">
        <ele>222</ele>
        <time>2024-05-20T09:59:42.000Z</time>
      </trkpt>
      <trkpt lat="46.29727" lon="4.7925">
        <ele>222.19999694824</ele>
        <time>2024-05-20T09:59:43.000Z</time>
      </trkpt>
      <trkpt lat="46.29731" lon="4.79251">
        <ele>222.39999389648</ele>
        <time>2024-05-20T09:59:44.000Z</time>
      </trkpt>
      <trkpt lat="46.29736" lon="4.79252">
        <ele>222.80000305176</ele>
        <time>2024-05-20T09:59:45.000Z</time>
      </trkpt>
      <trkpt lat="46.2974" lon="4.79254">
        <ele>222.80000305176</ele>
        <time>2024-05-20T09:59:46.000Z</time>
      </trkpt>
      <trkpt lat="46.29745" lon="4.79254">
        <ele>222.80000305176</ele>
        <time>2024-05-20T09:59:47.000Z</time>
      </trkpt>
      <trkpt lat="46.2975" lon="4.79255">
        <ele>223</ele>
        <time>2024-05-20T09:59:48.000Z</time>
      </trkpt>
      <trkpt lat="46.29754" lon="4.79256">
        <ele>223</ele>
        <time>2024-05-20T09:59:49.000Z</time>
      </trkpt>
      <trkpt lat="46.29759" lon="4.79257">
        <ele>223.19999694824</ele>
        <time>2024-05-20T09:59:50.000Z</time>
      </trkpt>
      <trkpt lat="46.29764" lon="4.79257">
        <ele>223.39999389648</ele>
        <time>2024-05-20T09:59:51.000Z</time>
      </trkpt>
      <trkpt lat="46.29769" lon="4.79258">
        <ele>223.39999389648</ele>
        <time>2024-05-20T09:59:52.000Z</time>
      </trkpt>
      <trkpt lat="46.29773" lon="4.79259">
        <ele>223.39999389648</ele>
        <time>2024-05-20T09:59:53.000Z</time>
      </trkpt>
      <trkpt lat="46.29778" lon="4.7926">
        <ele>223.60000610352</ele>
        <time>2024-05-20T09:59:54.000Z</time>
      </trkpt>
      <trkpt lat="46.29783" lon="4.7926">
        <ele>223.60000610352</ele>
        <time>2024-05-20T09:59:55.000Z</time>
      </trkpt>
      <trkpt lat="46.29788" lon="4.79261">
        <ele>223.60000610352</ele>
        <time>2024-05-20T09:59:56.000Z</time>
      </trkpt>
      <trkpt lat="46.29794" lon="4.79262">
        <ele>223.60000610352</ele>
        <time>2024-05-20T09:59:57.000Z</time>
      </trkpt>
      <trkpt lat="46.29799" lon="4.79263">
        <ele>223.60000610352</ele>
        <time>2024-05-20T09:59:58.000Z</time>
      </trkpt>
      <trkpt lat="46.29804" lon="4.79263">
        <ele>223.60000610352</ele>
        <time>2024-05-20T09:59:59.000Z</time>
      </trkpt>
      <trkpt lat="46.2981" lon="4.79264">
        <ele>223.39999389648</ele>
        <time>2024-05-20T10:00:00.000Z</time>
      </trkpt>
      <trkpt lat="46.29815" lon="4.79264">
        <ele>223.39999389648</ele>
        <time>2024-05-20T10:00:01.000Z</time>
      </trkpt>
      <trkpt lat="46.29821" lon="4.79265">
        <ele>223.39999389648</ele>
        <time>2024-05-20T10:00:02.000Z</time>
      </trkpt>
      <trkpt lat="46.29826" lon="4.79266">
        <ele>223.39999389648</ele>
        <time>2024-05-20T10:00:03.000Z</time>
      </trkpt>
      <trkpt lat="46.29832" lon="4.79267">
        <ele>223.39999389648</ele>
        <time>2024-05-20T10:00:04.000Z</time>
      </trkpt>
      <trkpt lat="46.29838" lon="4.79267">
        <ele>223.19999694824</ele>
        <time>2024-05-20T10:00:05.000Z</time>
      </trkpt>
      <trkpt lat="46.29844" lon="4.79268">
        <ele>223.19999694824</ele>
        <time>2024-05-20T10:00:06.000Z</time>
      </trkpt>
      <trkpt lat="46.29849" lon="4.79269">
        <ele>223.19999694824</ele>
        <time>2024-05-20T10:00:07.000Z</time>
      </trkpt>
      <trkpt lat="46.29855" lon="4.7927">
        <ele>223.19999694824</ele>
        <time>2024-05-20T10:00:08.000Z</time>
      </trkpt>
      <trkpt lat="46.2986" lon="4.79271">
        <ele>223.19999694824</ele>
        <time>2024-05-20T10:00:09.000Z</time>
      </trkpt>
      <trkpt lat="46.29866" lon="4.79272">
        <ele>223.19999694824</ele>
        <time>2024-05-20T10:00:10.000Z</time>
      </trkpt>
      <trkpt lat="46.29871" lon="4.79273">
        <ele>223.39999389648</ele>
        <time>2024-05-20T10:00:11.000Z</time>
      </trkpt>
      <trkpt lat="46.29876" lon="4.79274">
        <ele>223.60000610352</ele>
        <time>2024-05-20T10:00:12.000Z</time>
      </trkpt>
      <trkpt lat="46.29882" lon="4.79275">
        <ele>223.80000305176</ele>
        <time>2024-05-20T10:00:13.000Z</time>
      </trkpt>
      <trkpt lat="46.29888" lon="4.79276">
        <ele>223.80000305176</ele>
        <time>2024-05-20T10:00:14.000Z</time>
      </trkpt>
      <trkpt lat="46.29894" lon="4.79276">
        <ele>223.80000305176</ele>
        <time>2024-05-20T10:00:15.000Z</time>
      </trkpt>
      <trkpt lat="46.29899" lon="4.79277">
        <ele>223.80000305176</ele>
        <time>2024-05-20T10:00:16.000Z</time>
      </trkpt>
      <trkpt lat="46.29905" lon="4.79278">
        <ele>223.80000305176</ele>
        <time>2024-05-20T10:00:17.000Z</time>
      </trkpt>
      <trkpt lat="46.29911" lon="4.79279">
        <ele>223.80000305176</ele>
        <time>2024-05-20T10:00:18.000Z</time>
      </trkpt>
      <trkpt lat="46.29917" lon="4.7928">
        <ele>223.39999389648</ele>
        <time>2024-05-20T10:00:19.000Z</time>
      </trkpt>
      <trkpt lat="46.29923" lon="4.79281">
        <ele>223.39999389648</ele>
        <time>2024-05-20T10:00:20.000Z</time>
      </trkpt>
      <trkpt lat="46.29929" lon="4.79282">
        <ele>223.39999389648</ele>
        <time>2024-05-20T10:00:21.000Z</time>
      </trkpt>
      <trkpt lat="46.29935" lon="4.79283">
        <ele>223.39999389648</ele>
        <time>2024-05-20T10:00:22.000Z</time>
      </trkpt>
      <trkpt lat="46.2994" lon="4.79285">
        <ele>223.60000610352</ele>
        <time>2024-05-20T10:00:23.000Z</time>
      </trkpt>
      <trkpt lat="46.29946" lon="4.79287">
        <ele>223.80000305176</ele>
        <time>2024-05-20T10:00:24.000Z</time>
      </trkpt>
      <trkpt lat="46.29952" lon="4.79288">
        <ele>223.80000305176</ele>
        <time>2024-05-20T10:00:25.000Z</time>
      </trkpt>
      <trkpt lat="46.29958" lon="4.7929">
        <ele>223.80000305176</ele>
        <time>2024-05-20T10:00:26.000Z</time>
      </trkpt>
      <trkpt lat="46.29964" lon="4.79292">
        <ele>223.80000305176</ele>
        <time>2024-05-20T10:00:27.000Z</time>
      </trkpt>
      <trkpt lat="46.2997" lon="4.79293">
        <ele>223.80000305176</ele>
        <time>2024-05-20T10:00:28.000Z</time>
      </trkpt>
      <trkpt lat="46.29975" lon="4.79295">
        <ele>223.80000305176</ele>
        <time>2024-05-20T10:00:29.000Z</time>
      </trkpt>
      <trkpt lat="46.29982" lon="4.79296">
        <ele>223.80000305176</ele>
        <time>2024-05-20T10:00:30.000Z</time>
      </trkpt>
      <trkpt lat="46.29988" lon="4.79298">
        <ele>224</ele>
        <time>2024-05-20T10:00:31.000Z</time>
      </trkpt>
      <trkpt lat="46.29994" lon="4.793">
        <ele>224</ele>
        <time>2024-05-20T10:00:32.000Z</time>
      </trkpt>
      <trkpt lat="46.3" lon="4.79302">
        <ele>223.80000305176</ele>
        <time>2024-05-20T10:00:33.000Z</time>
      </trkpt>
      <trkpt lat="46.30006" lon="4.79303">
        <ele>223.80000305176</ele>
        <time>2024-05-20T10:00:34.000Z</time>
      </trkpt>
      <trkpt lat="46.30012" lon="4.79305">
        <ele>223.80000305176</ele>
        <time>2024-05-20T10:00:35.000Z</time>
      </trkpt>
      <trkpt lat="46.30018" lon="4.79307">
        <ele>224</ele>
        <time>2024-05-20T10:00:36.000Z</time>
      </trkpt>
      <trkpt lat="46.30023" lon="4.79309">
        <ele>224</ele>
        <time>2024-05-20T10:00:37.000Z</time>
      </trkpt>
      <trkpt lat="46.30029" lon="4.79311">
        <ele>224</ele>
        <time>2024-05-20T10:00:38.000Z</time>
      </trkpt>
      <trkpt lat="46.30035" lon="4.79313">
        <ele>224</ele>
        <time>2024-05-20T10:00:39.000Z</time>
      </trkpt>
      <trkpt lat="46.30042" lon="4.79314">
        <ele>224</ele>
        <time>2024-05-20T10:00:40.000Z</time>
      </trkpt>
      <trkpt lat="46.30048" lon="4.79316">
        <ele>224</ele>
        <time>2024-05-20T10:00:41.000Z</time>
      </trkpt>
      <trkpt lat="46.30054" lon="4.79318">
        <ele>224</ele>
        <time>2024-05-20T10:00:42.000Z</time>
      </trkpt>
      <trkpt lat="46.3006" lon="4.79319">
        <ele>224</ele>
        <time>2024-05-20T10:00:43.000Z</time>
      </trkpt>
      <trkpt lat="46.30066" lon="4.7932">
        <ele>224</ele>
        <time>2024-05-20T10:00:44.000Z</time>
      </trkpt>
      <trkpt lat="46.30072" lon="4.79322">
        <ele>224</ele>
        <time>2024-05-20T10:00:45.000Z</time>
      </trkpt>
      <trkpt lat="46.30078" lon="4.79323">
        <ele>224</ele>
        <time>2024-05-20T10:00:46.000Z</time>
      </trkpt>
      <trkpt lat="46.30084" lon="4.79324">
        <ele>224.19999694824</ele>
        <time>2024-05-20T10:00:47.000Z</time>
      </trkpt>
      <trkpt lat="46.3009" lon="4.79326">
        <ele>224.19999694824</ele>
        <time>2024-05-20T10:00:48.000Z</time>
      </trkpt>
      <trkpt lat="46.30096" lon="4.79327">
        <ele>224.19999694824</ele>
        <time>2024-05-20T10:00:49.000Z</time>
      </trkpt>
      <trkpt lat="46.30102" lon="4.79329">
        <ele>224.39999389648</ele>
        <time>2024-05-20T10:00:50.000Z</time>
      </trkpt>
      <trkpt lat="46.30108" lon="4.7933">
        <ele>224.60000610352</ele>
        <time>2024-05-20T10:00:51.000Z</time>
      </trkpt>
      <trkpt lat="46.30114" lon="4.79332">
        <ele>224.60000610352</ele>
        <time>2024-05-20T10:00:52.000Z</time>
      </trkpt>
      <trkpt lat="46.3012" lon="4.79333">
        <ele>224.80000305176</ele>
        <time>2024-05-20T10:00:53.000Z</time>
      </trkpt>
      <trkpt lat="46.30126" lon="4.79335">
        <ele>224.80000305176</ele>
        <time>2024-05-20T10:00:54.000Z</time>
      </trkpt>
      <trkpt lat="46.30132" lon="4.79336">
        <ele>225</ele>
        <time>2024-05-20T10:00:55.000Z</time>
      </trkpt>
      <trkpt lat="46.30138" lon="4.79338">
        <ele>225</ele>
        <time>2024-05-20T10:00:56.000Z</time>
      </trkpt>
      <trkpt lat="46.30143" lon="4.79339">
        <ele>225.19999694824</ele>
        <time>2024-05-20T10:00:57.000Z</time>
      </trkpt>
      <trkpt lat="46.30149" lon="4.79341">
        <ele>225.19999694824</ele>
        <time>2024-05-20T10:00:58.000Z</time>
      </trkpt>
      <trkpt lat="46.30155" lon="4.79343">
        <ele>225.39999389648</ele>
        <time>2024-05-20T10:00:59.000Z</time>
      </trkpt>
      <trkpt lat="46.30161" lon="4.79344">
        <ele>225.39999389648</ele>
        <time>2024-05-20T10:01:00.000Z</time>
      </trkpt>
      <trkpt lat="46.30167" lon="4.79345">
        <ele>225.39999389648</ele>
        <time>2024-05-20T10:01:01.000Z</time>
      </trkpt>
      <trkpt lat="46.30172" lon="4.79346">
        <ele>225.60000610352</ele>
        <time>2024-05-20T10:01:02.000Z</time>
      </trkpt>
      <trkpt lat="46.30177" lon="4.79347">
        <ele>225.60000610352</ele>
        <time>2024-05-20T10:01:03.000Z</time>
      </trkpt>
      <trkpt lat="46.30182" lon="4.79349">
        <ele>225.60000610352</ele>
        <time>2024-05-20T10:01:04.000Z</time>
      </trkpt>
      <trkpt lat="46.30188" lon="4.79351">
        <ele>225.60000610352</ele>
        <time>2024-05-20T10:01:05.000Z</time>
      </trkpt>
      <trkpt lat="46.30192" lon="4.79355">
        <ele>225.60000610352</ele>
        <time>2024-05-20T10:01:06.000Z</time>
      </trkpt>
      <trkpt lat="46.30195" lon="4.79361">
        <ele>225.60000610352</ele>
        <time>2024-05-20T10:01:07.000Z</time>
      </trkpt>
      <trkpt lat="46.30197" lon="4.79368">
        <ele>225.60000610352</ele>
        <time>2024-05-20T10:01:08.000Z</time>
      </trkpt>
      <trkpt lat="46.302" lon="4.79375">
        <ele>225.60000610352</ele>
        <time>2024-05-20T10:01:09.000Z</time>
      </trkpt>
      <trkpt lat="46.30203" lon="4.79382">
        <ele>225.39999389648</ele>
        <time>2024-05-20T10:01:10.000Z</time>
      </trkpt>
      <trkpt lat="46.30206" lon="4.79389">
        <ele>225.19999694824</ele>
        <time>2024-05-20T10:01:11.000Z</time>
      </trkpt>
      <trkpt lat="46.3021" lon="4.79396">
        <ele>225</ele>
        <time>2024-05-20T10:01:12.000Z</time>
      </trkpt>
      <trkpt lat="46.30214" lon="4.79404">
        <ele>224.60000610352</ele>
        <time>2024-05-20T10:01:13.000Z</time>
      </trkpt>
      <trkpt lat="46.30217" lon="4.79411">
        <ele>224.39999389648</ele>
        <time>2024-05-20T10:01:14.000Z</time>
      </trkpt>
      <trkpt lat="46.30221" lon="4.79418">
        <ele>224</ele>
        <time>2024-05-20T10:01:15.000Z</time>
      </trkpt>
      <trkpt lat="46.30224" lon="4.79424">
        <ele>223.80000305176</ele>
        <time>2024-05-20T10:01:16.000Z</time>
      </trkpt>
      <trkpt lat="46.30227" lon="4.79432">
        <ele>223.60000610352</ele>
        <time>2024-05-20T10:01:17.000Z</time>
      </trkpt>
      <trkpt lat="46.3023" lon="4.79438">
        <ele>223.19999694824</ele>
        <time>2024-05-20T10:01:18.000Z</time>
      </trkpt>
      <trkpt lat="46.30233" lon="4.79444">
        <ele>222.80000305176</ele>
        <time>2024-05-20T10:01:19.000Z</time>
      </trkpt>
      <trkpt lat="46.30235" lon="4.7945">
        <ele>222.39999389648</ele>
        <time>2024-05-20T10:01:20.000Z</time>
      </trkpt>
      <trkpt lat="46.30238" lon="4.79456">
        <ele>222.19999694824</ele>
        <time>2024-05-20T10:01:21.000Z</time>
      </trkpt>
      <trkpt lat="46.30239" lon="4.79462">
        <ele>221.80000305176</ele>
        <time>2024-05-20T10:01:22.000Z</time>
      </trkpt>
      <trkpt lat="46.30239" lon="4.79468">
        <ele>221.39999389648</ele>
        <time>2024-05-20T10:01:23.000Z</time>
      </trkpt>
      <trkpt lat="46.30237" lon="4.79474">
        <ele>221</ele>
        <time>2024-05-20T10:01:24.000Z</time>
      </trkpt>
      <trkpt lat="46.30236" lon="4.79479">
        <ele>220.60000610352</ele>
        <time>2024-05-20T10:01:25.000Z</time>
      </trkpt>
      <trkpt lat="46.30234" lon="4.79486">
        <ele>220.39999389648</ele>
        <time>2024-05-20T10:01:26.000Z</time>
      </trkpt>
      <trkpt lat="46.30232" lon="4.79492">
        <ele>220.19999694824</ele>
        <time>2024-05-20T10:01:27.000Z</time>
      </trkpt>
      <trkpt lat="46.30232" lon="4.79498">
        <ele>220.19999694824</ele>
        <time>2024-05-20T10:01:28.000Z</time>
      </trkpt>
      <trkpt lat="46.30232" lon="4.79504">
        <ele>220.19999694824</ele>
        <time>2024-05-20T10:01:29.000Z</time>
      </trkpt>
      <trkpt lat="46.30232" lon="4.7951">
        <ele>220.19999694824</ele>
        <time>2024-05-20T10:01:30.000Z</time>
      </trkpt>
      <trkpt lat="46.30233" lon="4.79515">
        <ele>220.19999694824</ele>
        <time>2024-05-20T10:01:31.000Z</time>
      </trkpt>
      <trkpt lat="46.30235" lon="4.79521">
        <ele>220</ele>
        <time>2024-05-20T10:01:32.000Z</time>
      </trkpt>
      <trkpt lat="46.30238" lon="4.79525">
        <ele>220</ele>
        <time>2024-05-20T10:01:33.000Z</time>
      </trkpt>
      <trkpt lat="46.30241" lon="4.79529">
        <ele>220</ele>
        <time>2024-05-20T10:01:34.000Z</time>
      </trkpt>
      <trkpt lat="46.30245" lon="4.79532">
        <ele>220</ele>
        <time>2024-05-20T10:01:35.000Z</time>
      </trkpt>
      <trkpt lat="46.30248" lon="4.79534">
        <ele>220</ele>
        <time>2024-05-20T10:01:36.000Z</time>
      </trkpt>
      <trkpt lat="46.30251" lon="4.79537">
        <ele>220</ele>
        <time>2024-05-20T10:01:37.000Z</time>
      </trkpt>
      <trkpt lat="46.30255" lon="4.7954">
        <ele>220</ele>
        <time>2024-05-20T10:01:38.000Z</time>
      </trkpt>
      <trkpt lat="46.30257" lon="4.79543">
        <ele>220</ele>
        <time>2024-05-20T10:01:39.000Z</time>
      </trkpt>
      <trkpt lat="46.3026" lon="4.79546">
        <ele>220.19999694824</ele>
        <time>2024-05-20T10:01:40.000Z</time>
      </trkpt>
      <trkpt lat="46.30261" lon="4.7955">
        <ele>220.19999694824</ele>
        <time>2024-05-20T10:01:41.000Z</time>
      </trkpt>
      <trkpt lat="46.30263" lon="4.79553">
        <ele>220.19999694824</ele>
        <time>2024-05-20T10:01:42.000Z</time>
      </trkpt>
      <trkpt lat="46.30264" lon="4.79556">
        <ele>220.19999694824</ele>
        <time>2024-05-20T10:01:43.000Z</time>
      </trkpt>
      <trkpt lat="46.30265" lon="4.79558">
        <ele>220.19999694824</ele>
        <time>2024-05-20T10:01:44.000Z</time>
      </trkpt>
      <trkpt lat="46.30266" lon="4.79558">
        <ele>220.19999694824</ele>
        <time>2024-05-20T10:01:45.000Z</time>
      </trkpt>
      <trkpt lat="46.30267" lon="4.79556">
        <ele>220.19999694824</ele>
        <time>2024-05-20T10:01:46.000Z</time>
      </trkpt>
      <trkpt lat="46.30265" lon="4.79554">
        <ele>220.19999694824</ele>
        <time>2024-05-20T10:01:47.000Z</time>
      </trkpt>
      <trkpt lat="46.30263" lon="4.79551">
        <ele>220.19999694824</ele>
        <time>2024-05-20T10:01:48.000Z</time>
      </trkpt>
      <trkpt lat="46.30261" lon="4.79548">
        <ele>220.19999694824</ele>
        <time>2024-05-20T10:01:49.000Z</time>
      </trkpt>
      <trkpt lat="46.30258" lon="4.79545">
        <ele>220.19999694824</ele>
        <time>2024-05-20T10:01:50.000Z</time>
      </trkpt>
      <trkpt lat="46.30255" lon="4.79541">
        <ele>220</ele>
        <time>2024-05-20T10:01:51.000Z</time>
      </trkpt>
      <trkpt lat="46.30252" lon="4.79538">
        <ele>219.80000305176</ele>
        <time>2024-05-20T10:01:52.000Z</time>
      </trkpt>
      <trkpt lat="46.30249" lon="4.79536">
        <ele>219.60000610352</ele>
        <time>2024-05-20T10:01:53.000Z</time>
      </trkpt>
      <trkpt lat="46.30246" lon="4.79533">
        <ele>219.60000610352</ele>
        <time>2024-05-20T10:01:54.000Z</time>
      </trkpt>
      <trkpt lat="46.30244" lon="4.79531">
        <ele>219.60000610352</ele>
        <time>2024-05-20T10:01:55.000Z</time>
      </trkpt>
      <trkpt lat="46.30241" lon="4.79529">
        <ele>219.60000610352</ele>
        <time>2024-05-20T10:01:56.000Z</time>
      </trkpt>
      <trkpt lat="46.30238" lon="4.79528">
        <ele>219.60000610352</ele>
        <time>2024-05-20T10:01:57.000Z</time>
      </trkpt>
      <trkpt lat="46.30234" lon="4.79528">
        <ele>219.80000305176</ele>
        <time>2024-05-20T10:01:58.000Z</time>
      </trkpt>
      <trkpt lat="46.30231" lon="4.79532">
        <ele>219.80000305176</ele>
        <time>2024-05-20T10:01:59.000Z</time>
      </trkpt>
      <trkpt lat="46.30228" lon="4.79537">
        <ele>219.80000305176</ele>
        <time>2024-05-20T10:02:00.000Z</time>
      </trkpt>
      <trkpt lat="46.30225" lon="4.79543">
        <ele>219.80000305176</ele>
        <time>2024-05-20T10:02:01.000Z</time>
      </trkpt>
      <trkpt lat="46.30222" lon="4.79548">
        <ele>219.80000305176</ele>
        <time>2024-05-20T10:02:02.000Z</time>
      </trkpt>
      <trkpt lat="46.3022" lon="4.79554">
        <ele>219.80000305176</ele>
        <time>2024-05-20T10:02:03.000Z</time>
      </trkpt>
      <trkpt lat="46.30218" lon="4.7956">
        <ele>219.80000305176</ele>
        <time>2024-05-20T10:02:04.000Z</time>
      </trkpt>
      <trkpt lat="46.30216" lon="4.79566">
        <ele>219.80000305176</ele>
        <time>2024-05-20T10:02:05.000Z</time>
      </trkpt>
      <trkpt lat="46.30214" lon="4.7957">
        <ele>220</ele>
        <time>2024-05-20T10:02:06.000Z</time>
      </trkpt>
      <trkpt lat="46.30211" lon="4.79578">
        <ele>220.19999694824</ele>
        <time>2024-05-20T10:02:07.000Z</time>
      </trkpt>
      <trkpt lat="46.30209" lon="4.79584">
        <ele>220.19999694824</ele>
        <time>2024-05-20T10:02:08.000Z</time>
      </trkpt>
      <trkpt lat="46.30207" lon="4.79591">
        <ele>220.19999694824</ele>
        <time>2024-05-20T10:02:09.000Z</time>
      </trkpt>
      <trkpt lat="46.30205" lon="4.79598">
        <ele>220.19999694824</ele>
        <time>2024-05-20T10:02:10.000Z</time>
      </trkpt>
      <trkpt lat="46.30203" lon="4.79605">
        <ele>220.19999694824</ele>
        <time>2024-05-20T10:02:11.000Z</time>
      </trkpt>
      <trkpt lat="46.30201" lon="4.79613">
        <ele>220.19999694824</ele>
        <time>2024-05-20T10:02:12.000Z</time>
      </trkpt>
      <trkpt lat="46.30199" lon="4.7962">
        <ele>220.19999694824</ele>
        <time>2024-05-20T10:02:13.000Z</time>
      </trkpt>
      <trkpt lat="46.30197" lon="4.79628">
        <ele>220</ele>
        <time>2024-05-20T10:02:14.000Z</time>
      </trkpt>
      <trkpt lat="46.30195" lon="4.79635">
        <ele>220</ele>
        <time>2024-05-20T10:02:15.000Z</time>
      </trkpt>
      <trkpt lat="46.30193" lon="4.79643">
        <ele>219.60000610352</ele>
        <time>2024-05-20T10:02:16.000Z</time>
      </trkpt>
      <trkpt lat="46.30191" lon="4.79652">
        <ele>219.39999389648</ele>
        <time>2024-05-20T10:02:17.000Z</time>
      </trkpt>
      <trkpt lat="46.30188" lon="4.7966">
        <ele>219.19999694824</ele>
        <time>2024-05-20T10:02:18.000Z</time>
      </trkpt>
      <trkpt lat="46.30186" lon="4.79669">
        <ele>219</ele>
        <time>2024-05-20T10:02:19.000Z</time>
      </trkpt>
      <trkpt lat="46.30184" lon="4.79678">
        <ele>218.60000610352</ele>
        <time>2024-05-20T10:02:20.000Z</time>
      </trkpt>
      <trkpt lat="46.30182" lon="4.79686">
        <ele>218.19999694824</ele>
        <time>2024-05-20T10:02:21.000Z</time>
      </trkpt>
      <trkpt lat="46.30179" lon="4.79695">
        <ele>218</ele>
        <time>2024-05-20T10:02:22.000Z</time>
      </trkpt>
      <trkpt lat="46.30176" lon="4.79705">
        <ele>217.80000305176</ele>
        <time>2024-05-20T10:02:23.000Z</time>
      </trkpt>
      <trkpt lat="46.30173" lon="4.79714">
        <ele>217.60000610352</ele>
        <time>2024-05-20T10:02:24.000Z</time>
      </trkpt>
      <trkpt lat="46.30171" lon="4.79723">
        <ele>217.39999389648</ele>
        <time>2024-05-20T10:02:25.000Z</time>
      </trkpt>
      <trkpt lat="46.30168" lon="4.79732">
        <ele>217.19999694824</ele>
        <time>2024-05-20T10:02:26.000Z</time>
      </trkpt>
      <trkpt lat="46.30165" lon="4.79741">
        <ele>216.80000305176</ele>
        <time>2024-05-20T10:02:27.000Z</time>
      </trkpt>
      <trkpt lat="46.30161" lon="4.79749">
        <ele>216.80000305176</ele>
        <time>2024-05-20T10:02:28.000Z</time>
      </trkpt>
      <trkpt lat="46.30159" lon="4.79756">
        <ele>216.60000610352</ele>
        <time>2024-05-20T10:02:29.000Z</time>
      </trkpt>
      <trkpt lat="46.30155" lon="4.79766">
        <ele>216.39999389648</ele>
        <time>2024-05-20T10:02:30.000Z</time>
      </trkpt>
      <trkpt lat="46.30151" lon="4.79774">
        <ele>215.60000610352</ele>
        <time>2024-05-20T10:02:31.000Z</time>
      </trkpt>
      <trkpt lat="46.30148" lon="4.79782">
        <ele>215.60000610352</ele>
        <time>2024-05-20T10:02:32.000Z</time>
      </trkpt>
      <trkpt lat="46.30144" lon="4.7979">
        <ele>215</ele>
        <time>2024-05-20T10:02:33.000Z</time>
      </trkpt>
      <trkpt lat="46.30141" lon="4.79797">
        <ele>215</ele>
        <time>2024-05-20T10:02:34.000Z</time>
      </trkpt>
      <trkpt lat="46.30139" lon="4.79804">
        <ele>214.80000305176</ele>
        <time>2024-05-20T10:02:35.000Z</time>
      </trkpt>
      <trkpt lat="46.30137" lon="4.79811">
        <ele>214.80000305176</ele>
        <time>2024-05-20T10:02:36.000Z</time>
      </trkpt>
      <trkpt lat="46.30136" lon="4.79815">
        <ele>214.80000305176</ele>
        <time>2024-05-20T10:02:37.000Z</time>
      </trkpt>
      <trkpt lat="46.30135" lon="4.79821">
        <ele>214.80000305176</ele>
        <time>2024-05-20T10:02:38.000Z</time>
      </trkpt>
      <trkpt lat="46.30135" lon="4.79825">
        <ele>214.80000305176</ele>
        <time>2024-05-20T10:02:39.000Z</time>
      </trkpt>
      <trkpt lat="46.30135" lon="4.79828">
        <ele>215.19999694824</ele>
        <time>2024-05-20T10:02:40.000Z</time>
      </trkpt>
      <trkpt lat="46.30135" lon="4.7983">
        <ele>215.19999694824</ele>
        <time>2024-05-20T10:02:41.000Z</time>
      </trkpt>
      <trkpt lat="46.30135" lon="4.79831">
        <ele>215.19999694824</ele>
        <time>2024-05-20T10:02:42.000Z</time>
      </trkpt>
      <trkpt lat="46.30134" lon="4.79833">
        <ele>215.39999389648</ele>
        <time>2024-05-20T10:02:43.000Z</time>
      </trkpt>
      <trkpt lat="46.30132" lon="4.79836">
        <ele>215.39999389648</ele>
        <time>2024-05-20T10:02:44.000Z</time>
      </trkpt>
      <trkpt lat="46.3013" lon="4.79839">
        <ele>215.39999389648</ele>
        <time>2024-05-20T10:02:45.000Z</time>
      </trkpt>
      <trkpt lat="46.30128" lon="4.79843">
        <ele>215.39999389648</ele>
        <time>2024-05-20T10:02:46.000Z</time>
      </trkpt>
      <trkpt lat="46.30127" lon="4.79847">
        <ele>215.39999389648</ele>
        <time>2024-05-20T10:02:47.000Z</time>
      </trkpt>
      <trkpt lat="46.30125" lon="4.79853">
        <ele>215.39999389648</ele>
        <time>2024-05-20T10:02:48.000Z</time>
      </trkpt>
      <trkpt lat="46.30124" lon="4.79858">
        <ele>215.19999694824</ele>
        <time>2024-05-20T10:02:49.000Z</time>
      </trkpt>
      <trkpt lat="46.30124" lon="4.79862">
        <ele>214.80000305176</ele>
        <time>2024-05-20T10:02:50.000Z</time>
      </trkpt>
      <trkpt lat="46.30125" lon="4.79868">
        <ele>214.80000305176</ele>
        <time>2024-05-20T10:02:51.000Z</time>
      </trkpt>
      <trkpt lat="46.30125" lon="4.79873">
        <ele>214.60000610352</ele>
        <time>2024-05-20T10:02:52.000Z</time>
      </trkpt>
      <trkpt lat="46.30126" lon="4.79879">
        <ele>214.60000610352</ele>
        <time>2024-05-20T10:02:53.000Z</time>
      </trkpt>
      <trkpt lat="46.30127" lon="4.79884">
        <ele>214.60000610352</ele>
        <time>2024-05-20T10:02:54.000Z</time>
      </trkpt>
      <trkpt lat="46.30129" lon="4.7989">
        <ele>214.60000610352</ele>
        <time>2024-05-20T10:02:55.000Z</time>
      </trkpt>
      <trkpt lat="46.30132" lon="4.79895">
        <ele>214.39999389648</ele>
        <time>2024-05-20T10:02:56.000Z</time>
      </trkpt>
      <trkpt lat="46.30135" lon="4.799">
        <ele>214.39999389648</ele>
        <time>2024-05-20T10:02:57.000Z</time>
      </trkpt>
      <trkpt lat="46.30138" lon="4.79905">
        <ele>214.19999694824</ele>
        <time>2024-05-20T10:02:58.000Z</time>
      </trkpt>
      <trkpt lat="46.30141" lon="4.7991">
        <ele>214.19999694824</ele>
        <time>2024-05-20T10:02:59.000Z</time>
      </trkpt>
      <trkpt lat="46.30144" lon="4.79916">
        <ele>214</ele>
        <time>2024-05-20T10:03:00.000Z</time>
      </trkpt>
      <trkpt lat="46.30147" lon="4.79922">
        <ele>214</ele>
        <time>2024-05-20T10:03:01.000Z</time>
      </trkpt>
      <trkpt lat="46.3015" lon="4.79927">
        <ele>214</ele>
        <time>2024-05-20T10:03:02.000Z</time>
      </trkpt>
      <trkpt lat="46.30153" lon="4.79932">
        <ele>214</ele>
        <time>2024-05-20T10:03:03.000Z</time>
      </trkpt>
      <trkpt lat="46.30157" lon="4.7994">
        <ele>213.80000305176</ele>
        <time>2024-05-20T10:03:04.000Z</time>
      </trkpt>
      <trkpt lat="46.3016" lon="4.79946">
        <ele>213.80000305176</ele>
        <time>2024-05-20T10:03:05.000Z</time>
      </trkpt>
      <trkpt lat="46.30164" lon="4.79952">
        <ele>213.60000610352</ele>
        <time>2024-05-20T10:03:06.000Z</time>
      </trkpt>
      <trkpt lat="46.30167" lon="4.79958">
        <ele>213.60000610352</ele>
        <time>2024-05-20T10:03:07.000Z</time>
      </trkpt>
      <trkpt lat="46.30171" lon="4.79966">
        <ele>213.39999389648</ele>
        <time>2024-05-20T10:03:08.000Z</time>
      </trkpt>
      <trkpt lat="46.30174" lon="4.79972">
        <ele>213.39999389648</ele>
        <time>2024-05-20T10:03:09.000Z</time>
      </trkpt>
      <trkpt lat="46.30178" lon="4.79978">
        <ele>213.19999694824</ele>
        <time>2024-05-20T10:03:10.000Z</time>
      </trkpt>
      <trkpt lat="46.30181" lon="4.79985">
        <ele>213.19999694824</ele>
        <time>2024-05-20T10:03:11.000Z</time>
      </trkpt>
      <trkpt lat="46.30185" lon="4.79991">
        <ele>213.19999694824</ele>
        <time>2024-05-20T10:03:12.000Z</time>
      </trkpt>
      <trkpt lat="46.30188" lon="4.79998">
        <ele>213.19999694824</ele>
        <time>2024-05-20T10:03:13.000Z</time>
      </trkpt>
      <trkpt lat="46.30192" lon="4.80003">
        <ele>213.19999694824</ele>
        <time>2024-05-20T10:03:14.000Z</time>
      </trkpt>
      <trkpt lat="46.30196" lon="4.8001">
        <ele>213.19999694824</ele>
        <time>2024-05-20T10:03:15.000Z</time>
      </trkpt>
      <trkpt lat="46.30201" lon="4.80019">
        <ele>213.19999694824</ele>
        <time>2024-05-20T10:03:16.000Z</time>
      </trkpt>
      <trkpt lat="46.30205" lon="4.80026">
        <ele>212.80000305176</ele>
        <time>2024-05-20T10:03:17.000Z</time>
      </trkpt>
      <trkpt lat="46.3021" lon="4.80034">
        <ele>212.60000610352</ele>
        <time>2024-05-20T10:03:18.000Z</time>
      </trkpt>
      <trkpt lat="46.30214" lon="4.80041">
        <ele>212.19999694824</ele>
        <time>2024-05-20T10:03:19.000Z</time>
      </trkpt>
      <trkpt lat="46.30218" lon="4.80048">
        <ele>212</ele>
        <time>2024-05-20T10:03:20.000Z</time>
      </trkpt>
      <trkpt lat="46.30223" lon="4.80056">
        <ele>212</ele>
        <time>2024-05-20T10:03:21.000Z</time>
      </trkpt>
      <trkpt lat="46.30227" lon="4.80063">
        <ele>211.80000305176</ele>
        <time>2024-05-20T10:03:22.000Z</time>
      </trkpt>
      <trkpt lat="46.30231" lon="4.80071">
        <ele>211.80000305176</ele>
        <time>2024-05-20T10:03:23.000Z</time>
      </trkpt>
      <trkpt lat="46.30235" lon="4.80079">
        <ele>211.60000610352</ele>
        <time>2024-05-20T10:03:24.000Z</time>
      </trkpt>
      <trkpt lat="46.30239" lon="4.80086">
        <ele>211.39999389648</ele>
        <time>2024-05-20T10:03:25.000Z</time>
      </trkpt>
      <trkpt lat="46.30243" lon="4.80094">
        <ele>211.39999389648</ele>
        <time>2024-05-20T10:03:26.000Z</time>
      </trkpt>
      <trkpt lat="46.30247" lon="4.80101">
        <ele>211.39999389648</ele>
        <time>2024-05-20T10:03:27.000Z</time>
      </trkpt>
      <trkpt lat="46.3025" lon="4.80109">
        <ele>211.39999389648</ele>
        <time>2024-05-20T10:03:28.000Z</time>
      </trkpt>
      <trkpt lat="46.30253" lon="4.80117">
        <ele>211.39999389648</ele>
        <time>2024-05-20T10:03:29.000Z</time>
      </trkpt>
      <trkpt lat="46.30255" lon="4.80126">
        <ele>211.39999389648</ele>
        <time>2024-05-20T10:03:30.000Z</time>
      </trkpt>
      <trkpt lat="46.30257" lon="4.80135">
        <ele>211.39999389648</ele>
        <time>2024-05-20T10:03:31.000Z</time>
      </trkpt>
      <trkpt lat="46.30258" lon="4.80144">
        <ele>211.39999389648</ele>
        <time>2024-05-20T10:03:32.000Z</time>
      </trkpt>
      <trkpt lat="46.30259" lon="4.80153">
        <ele>211.39999389648</ele>
        <time>2024-05-20T10:03:33.000Z</time>
      </trkpt>
      <trkpt lat="46.3026" lon="4.80163">
        <ele>211.19999694824</ele>
        <time>2024-05-20T10:03:34.000Z</time>
      </trkpt>
      <trkpt lat="46.30261" lon="4.80172">
        <ele>211</ele>
        <time>2024-05-20T10:03:35.000Z</time>
      </trkpt>
      <trkpt lat="46.30261" lon="4.80182">
        <ele>210.60000610352</ele>
        <time>2024-05-20T10:03:36.000Z</time>
      </trkpt>
      <trkpt lat="46.3026" lon="4.80191">
        <ele>210.19999694824</ele>
        <time>2024-05-20T10:03:37.000Z</time>
      </trkpt>
      <trkpt lat="46.30258" lon="4.802">
        <ele>209.80000305176</ele>
        <time>2024-05-20T10:03:38.000Z</time>
      </trkpt>
      <trkpt lat="46.30254" lon="4.80209">
        <ele>209.60000610352</ele>
        <time>2024-05-20T10:03:39.000Z</time>
      </trkpt>
      <trkpt lat="46.3025" lon="4.80216">
        <ele>209.39999389648</ele>
        <time>2024-05-20T10:03:40.000Z</time>
      </trkpt>
      <trkpt lat="46.30246" lon="4.80224">
        <ele>209.39999389648</ele>
        <time>2024-05-20T10:03:41.000Z</time>
      </trkpt>
      <trkpt lat="46.30242" lon="4.80231">
        <ele>209.39999389648</ele>
        <time>2024-05-20T10:03:42.000Z</time>
      </trkpt>
      <trkpt lat="46.30239" lon="4.80239">
        <ele>209.39999389648</ele>
        <time>2024-05-20T10:03:43.000Z</time>
      </trkpt>
      <trkpt lat="46.30236" lon="4.80247">
        <ele>209.60000610352</ele>
        <time>2024-05-20T10:03:44.000Z</time>
      </trkpt>
      <trkpt lat="46.30233" lon="4.80256">
        <ele>209.60000610352</ele>
        <time>2024-05-20T10:03:45.000Z</time>
      </trkpt>
      <trkpt lat="46.30231" lon="4.80264">
        <ele>209.60000610352</ele>
        <time>2024-05-20T10:03:46.000Z</time>
      </trkpt>
      <trkpt lat="46.30229" lon="4.80273">
        <ele>209.60000610352</ele>
        <time>2024-05-20T10:03:47.000Z</time>
      </trkpt>
      <trkpt lat="46.30228" lon="4.80283">
        <ele>209.60000610352</ele>
        <time>2024-05-20T10:03:48.000Z</time>
      </trkpt>
      <trkpt lat="46.30227" lon="4.80292">
        <ele>209.60000610352</ele>
        <time>2024-05-20T10:03:49.000Z</time>
      </trkpt>
      <trkpt lat="46.30226" lon="4.80301">
        <ele>209.60000610352</ele>
        <time>2024-05-20T10:03:50.000Z</time>
      </trkpt>
      <trkpt lat="46.30225" lon="4.8031">
        <ele>209.80000305176</ele>
        <time>2024-05-20T10:03:51.000Z</time>
      </trkpt>
      <trkpt lat="46.30224" lon="4.80318">
        <ele>209.80000305176</ele>
        <time>2024-05-20T10:03:52.000Z</time>
      </trkpt>
      <trkpt lat="46.30224" lon="4.80326">
        <ele>209.80000305176</ele>
        <time>2024-05-20T10:03:53.000Z</time>
      </trkpt>
      <trkpt lat="46.30223" lon="4.80334">
        <ele>210</ele>
        <time>2024-05-20T10:03:54.000Z</time>
      </trkpt>
      <trkpt lat="46.30222" lon="4.80342">
        <ele>210.19999694824</ele>
        <time>2024-05-20T10:03:55.000Z</time>
      </trkpt>
      <trkpt lat="46.3022" lon="4.80349">
        <ele>210.60000610352</ele>
        <time>2024-05-20T10:03:56.000Z</time>
      </trkpt>
      <trkpt lat="46.30218" lon="4.80355">
        <ele>210.80000305176</ele>
        <time>2024-05-20T10:03:57.000Z</time>
      </trkpt>
      <trkpt lat="46.30216" lon="4.80361">
        <ele>211.19999694824</ele>
        <time>2024-05-20T10:03:58.000Z</time>
      </trkpt>
      <trkpt lat="46.30214" lon="4.80367">
        <ele>211.60000610352</ele>
        <time>2024-05-20T10:03:59.000Z</time>
      </trkpt>
      <trkpt lat="46.30211" lon="4.80373">
        <ele>211.80000305176</ele>
        <time>2024-05-20T10:04:00.000Z</time>
      </trkpt>
      <trkpt lat="46.30208" lon="4.80378">
        <ele>212</ele>
        <time>2024-05-20T10:04:01.000Z</time>
      </trkpt>
      <trkpt lat="46.30205" lon="4.80384">
        <ele>212.19999694824</ele>
        <time>2024-05-20T10:04:02.000Z</time>
      </trkpt>
      <trkpt lat="46.30202" lon="4.80389">
        <ele>212.19999694824</ele>
        <time>2024-05-20T10:04:03.000Z</time>
      </trkpt>
      <trkpt lat="46.30199" lon="4.80395">
        <ele>212.39999389648</ele>
        <time>2024-05-20T10:04:04.000Z</time>
      </trkpt>
      <trkpt lat="46.30196" lon="4.804">
        <ele>212.60000610352</ele>
        <time>2024-05-20T10:04:05.000Z</time>
      </trkpt>
      <trkpt lat="46.30193" lon="4.80405">
        <ele>213</ele>
        <time>2024-05-20T10:04:06.000Z</time>
      </trkpt>
      <trkpt lat="46.3019" lon="4.8041">
        <ele>213.19999694824</ele>
        <time>2024-05-20T10:04:07.000Z</time>
      </trkpt>
      <trkpt lat="46.30187" lon="4.80416">
        <ele>213.39999389648</ele>
        <time>2024-05-20T10:04:08.000Z</time>
      </trkpt>
      <trkpt lat="46.30184" lon="4.80421">
        <ele>213.80000305176</ele>
        <time>2024-05-20T10:04:09.000Z</time>
      </trkpt>
      <trkpt lat="46.30181" lon="4.80427">
        <ele>214</ele>
        <time>2024-05-20T10:04:10.000Z</time>
      </trkpt>
      <trkpt lat="46.30179" lon="4.80433">
        <ele>214.19999694824</ele>
        <time>2024-05-20T10:04:11.000Z</time>
      </trkpt>
      <trkpt lat="46.30176" lon="4.80438">
        <ele>214.39999389648</ele>
        <time>2024-05-20T10:04:12.000Z</time>
      </trkpt>
      <trkpt lat="46.30174" lon="4.80443">
        <ele>214.39999389648</ele>
        <time>2024-05-20T10:04:13.000Z</time>
      </trkpt>
      <trkpt lat="46.30171" lon="4.80448">
        <ele>214.60000610352</ele>
        <time>2024-05-20T10:04:14.000Z</time>
      </trkpt>
      <trkpt lat="46.30169" lon="4.80453">
        <ele>214.80000305176</ele>
        <time>2024-05-20T10:04:15.000Z</time>
      </trkpt>
      <trkpt lat="46.30166" lon="4.80458">
        <ele>214.80000305176</ele>
        <time>2024-05-20T10:04:16.000Z</time>
      </trkpt>
      <trkpt lat="46.30163" lon="4.80462">
        <ele>215</ele>
        <time>2024-05-20T10:04:17.000Z</time>
      </trkpt>
      <trkpt lat="46.3016" lon="4.80465">
        <ele>215.19999694824</ele>
        <time>2024-05-20T10:04:18.000Z</time>
      </trkpt>
      <trkpt lat="46.30156" lon="4.80465">
        <ele>215.19999694824</ele>
        <time>2024-05-20T10:04:19.000Z</time>
      </trkpt>
      <trkpt lat="46.30152" lon="4.80464">
        <ele>215.19999694824</ele>
        <time>2024-05-20T10:04:20.000Z</time>
      </trkpt>
      <trkpt lat="46.30148" lon="4.80461">
        <ele>215.19999694824</ele>
        <time>2024-05-20T10:04:21.000Z</time>
      </trkpt>
      <trkpt lat="46.30145" lon="4.80457">
        <ele>215.19999694824</ele>
        <time>2024-05-20T10:04:22.000Z</time>
      </trkpt>
      <trkpt lat="46.30141" lon="4.80453">
        <ele>215.19999694824</ele>
        <time>2024-05-20T10:04:23.000Z</time>
      </trkpt>
      <trkpt lat="46.30137" lon="4.80449">
        <ele>215.19999694824</ele>
        <time>2024-05-20T10:04:24.000Z</time>
      </trkpt>
      <trkpt lat="46.30134" lon="4.80446">
        <ele>215.19999694824</ele>
        <time>2024-05-20T10:04:25.000Z</time>
      </trkpt>
      <trkpt lat="46.3013" lon="4.80443">
        <ele>215.39999389648</ele>
        <time>2024-05-20T10:04:26.000Z</time>
      </trkpt>
      <trkpt lat="46.30126" lon="4.8044">
        <ele>215.60000610352</ele>
        <time>2024-05-20T10:04:27.000Z</time>
      </trkpt>
      <trkpt lat="46.30122" lon="4.80438">
        <ele>216</ele>
        <time>2024-05-20T10:04:28.000Z</time>
      </trkpt>
      <trkpt lat="46.30118" lon="4.80439">
        <ele>216.19999694824</ele>
        <time>2024-05-20T10:04:29.000Z</time>
      </trkpt>
      <trkpt lat="46.30115" lon="4.80441">
        <ele>216.60000610352</ele>
        <time>2024-05-20T10:04:30.000Z</time>
      </trkpt>
      <trkpt lat="46.30112" lon="4.80445">
        <ele>216.80000305176</ele>
        <time>2024-05-20T10:04:31.000Z</time>
      </trkpt>
      <trkpt lat="46.3011" lon="4.80449">
        <ele>217.19999694824</ele>
        <time>2024-05-20T10:04:32.000Z</time>
      </trkpt>
      <trkpt lat="46.30107" lon="4.80454">
        <ele>217.39999389648</ele>
        <time>2024-05-20T10:04:33.000Z</time>
      </trkpt>
      <trkpt lat="46.30105" lon="4.80459">
        <ele>217.39999389648</ele>
        <time>2024-05-20T10:04:34.000Z</time>
      </trkpt>
      <trkpt lat="46.30102" lon="4.80464">
        <ele>217.60000610352</ele>
        <time>2024-05-20T10:04:35.000Z</time>
      </trkpt>
      <trkpt lat="46.301" lon="4.80469">
        <ele>217.60000610352</ele>
        <time>2024-05-20T10:04:36.000Z</time>
      </trkpt>
      <trkpt lat="46.30097" lon="4.80475">
        <ele>217.60000610352</ele>
        <time>2024-05-20T10:04:37.000Z</time>
      </trkpt>
      <trkpt lat="46.30094" lon="4.8048">
        <ele>217.60000610352</ele>
        <time>2024-05-20T10:04:38.000Z</time>
      </trkpt>
      <trkpt lat="46.30092" lon="4.80486">
        <ele>217.60000610352</ele>
        <time>2024-05-20T10:04:39.000Z</time>
      </trkpt>
      <trkpt lat="46.30089" lon="4.80492">
        <ele>217.60000610352</ele>
        <time>2024-05-20T10:04:40.000Z</time>
      </trkpt>
      <trkpt lat="46.30086" lon="4.80498">
        <ele>217.60000610352</ele>
        <time>2024-05-20T10:04:41.000Z</time>
      </trkpt>
      <trkpt lat="46.30084" lon="4.80504">
        <ele>217.60000610352</ele>
        <time>2024-05-20T10:04:42.000Z</time>
      </trkpt>
      <trkpt lat="46.30081" lon="4.8051">
        <ele>217.60000610352</ele>
        <time>2024-05-20T10:04:43.000Z</time>
      </trkpt>
      <trkpt lat="46.30079" lon="4.80516">
        <ele>217.60000610352</ele>
        <time>2024-05-20T10:04:44.000Z</time>
      </trkpt>
      <trkpt lat="46.30076" lon="4.80523">
        <ele>217.60000610352</ele>
        <time>2024-05-20T10:04:45.000Z</time>
      </trkpt>
      <trkpt lat="46.30073" lon="4.80529">
        <ele>217.60000610352</ele>
        <time>2024-05-20T10:04:46.000Z</time>
      </trkpt>
      <trkpt lat="46.3007" lon="4.80536">
        <ele>217.60000610352</ele>
        <time>2024-05-20T10:04:47.000Z</time>
      </trkpt>
      <trkpt lat="46.30067" lon="4.80542">
        <ele>217.60000610352</ele>
        <time>2024-05-20T10:04:48.000Z</time>
      </trkpt>
      <trkpt lat="46.30064" lon="4.80549">
        <ele>217.39999389648</ele>
        <time>2024-05-20T10:04:49.000Z</time>
      </trkpt>
      <trkpt lat="46.30061" lon="4.80556">
        <ele>217.39999389648</ele>
        <time>2024-05-20T10:04:50.000Z</time>
      </trkpt>
      <trkpt lat="46.30058" lon="4.80562">
        <ele>217.39999389648</ele>
        <time>2024-05-20T10:04:51.000Z</time>
      </trkpt>
      <trkpt lat="46.30055" lon="4.80569">
        <ele>217.39999389648</ele>
        <time>2024-05-20T10:04:52.000Z</time>
      </trkpt>
      <trkpt lat="46.30052" lon="4.80577">
        <ele>217.19999694824</ele>
        <time>2024-05-20T10:04:53.000Z</time>
      </trkpt>
      <trkpt lat="46.3005" lon="4.80584">
        <ele>217.19999694824</ele>
        <time>2024-05-20T10:04:54.000Z</time>
      </trkpt>
      <trkpt lat="46.30047" lon="4.80591">
        <ele>217.19999694824</ele>
        <time>2024-05-20T10:04:55.000Z</time>
      </trkpt>
      <trkpt lat="46.30044" lon="4.80598">
        <ele>217.19999694824</ele>
        <time>2024-05-20T10:04:56.000Z</time>
      </trkpt>
      <trkpt lat="46.3004" lon="4.80605">
        <ele>217.19999694824</ele>
        <time>2024-05-20T10:04:57.000Z</time>
      </trkpt>
      <trkpt lat="46.30037" lon="4.80612">
        <ele>217.19999694824</ele>
        <time>2024-05-20T10:04:58.000Z</time>
      </trkpt>
      <trkpt lat="46.30033" lon="4.80619">
        <ele>217</ele>
        <time>2024-05-20T10:04:59.000Z</time>
      </trkpt>
      <trkpt lat="46.3003" lon="4.80626">
        <ele>217</ele>
        <time>2024-05-20T10:05:00.000Z</time>
      </trkpt>
      <trkpt lat="46.30027" lon="4.80633">
        <ele>216.80000305176</ele>
        <time>2024-05-20T10:05:01.000Z</time>
      </trkpt>
      <trkpt lat="46.30024" lon="4.80641">
        <ele>216.60000610352</ele>
        <time>2024-05-20T10:05:02.000Z</time>
      </trkpt>
      <trkpt lat="46.30021" lon="4.80648">
        <ele>216.60000610352</ele>
        <time>2024-05-20T10:05:03.000Z</time>
      </trkpt>
      <trkpt lat="46.30019" lon="4.80656">
        <ele>216.60000610352</ele>
        <time>2024-05-20T10:05:04.000Z</time>
      </trkpt>
      <trkpt lat="46.30018" lon="4.80663">
        <ele>216.60000610352</ele>
        <time>2024-05-20T10:05:05.000Z</time>
      </trkpt>
      <trkpt lat="46.30019" lon="4.8067">
        <ele>216.39999389648</ele>
        <time>2024-05-20T10:05:06.000Z</time>
      </trkpt>
      <trkpt lat="46.30023" lon="4.80676">
        <ele>216.39999389648</ele>
        <time>2024-05-20T10:05:07.000Z</time>
      </trkpt>
      <trkpt lat="46.30027" lon="4.80681">
        <ele>216.39999389648</ele>
        <time>2024-05-20T10:05:08.000Z</time>
      </trkpt>
      <trkpt lat="46.30032" lon="4.80685">
        <ele>216.39999389648</ele>
        <time>2024-05-20T10:05:09.000Z</time>
      </trkpt>
      <trkpt lat="46.30037" lon="4.80689">
        <ele>216</ele>
        <time>2024-05-20T10:05:10.000Z</time>
      </trkpt>
      <trkpt lat="46.30042" lon="4.80694">
        <ele>215.80000305176</ele>
        <time>2024-05-20T10:05:11.000Z</time>
      </trkpt>
      <trkpt lat="46.30047" lon="4.80698">
        <ele>215.39999389648</ele>
        <time>2024-05-20T10:05:12.000Z</time>
      </trkpt>
      <trkpt lat="46.30053" lon="4.80703">
        <ele>215</ele>
        <time>2024-05-20T10:05:13.000Z</time>
      </trkpt>
      <trkpt lat="46.30058" lon="4.80708">
        <ele>214.80000305176</ele>
        <time>2024-05-20T10:05:14.000Z</time>
      </trkpt>
      <trkpt lat="46.30062" lon="4.80713">
        <ele>214.39999389648</ele>
        <time>2024-05-20T10:05:15.000Z</time>
      </trkpt>
      <trkpt lat="46.30068" lon="4.80719">
        <ele>214.19999694824</ele>
        <time>2024-05-20T10:05:16.000Z</time>
      </trkpt>
      <trkpt lat="46.30072" lon="4.80726">
        <ele>213.60000610352</ele>
        <time>2024-05-20T10:05:17.000Z</time>
      </trkpt>
      <trkpt lat="46.30074" lon="4.80733">
        <ele>213.60000610352</ele>
        <time>2024-05-20T10:05:18.000Z</time>
      </trkpt>
      <trkpt lat="46.30074" lon="4.80742">
        <ele>213.39999389648</ele>
        <time>2024-05-20T10:05:19.000Z</time>
      </trkpt>
      <trkpt lat="46.30073" lon="4.8075">
        <ele>213</ele>
        <time>2024-05-20T10:05:20.000Z</time>
      </trkpt>
      <trkpt lat="46.3007" lon="4.80758">
        <ele>212.60000610352</ele>
        <time>2024-05-20T10:05:21.000Z</time>
      </trkpt>
      <trkpt lat="46.30068" lon="4.80765">
        <ele>212.39999389648</ele>
        <time>2024-05-20T10:05:22.000Z</time>
      </trkpt>
      <trkpt lat="46.30065" lon="4.80772">
        <ele>212.19999694824</ele>
        <time>2024-05-20T10:05:23.000Z</time>
      </trkpt>
      <trkpt lat="46.30062" lon="4.80779">
        <ele>212</ele>
        <time>2024-05-20T10:05:24.000Z</time>
      </trkpt>
      <trkpt lat="46.30059" lon="4.80785">
        <ele>212</ele>
        <time>2024-05-20T10:05:25.000Z</time>
      </trkpt>
      <trkpt lat="46.30056" lon="4.80793">
        <ele>212</ele>
        <time>2024-05-20T10:05:26.000Z</time>
      </trkpt>
      <trkpt lat="46.30053" lon="4.808">
        <ele>212</ele>
        <time>2024-05-20T10:05:27.000Z</time>
      </trkpt>
      <trkpt lat="46.3005" lon="4.80807">
        <ele>212</ele>
        <time>2024-05-20T10:05:28.000Z</time>
      </trkpt>
      <trkpt lat="46.30047" lon="4.80814">
        <ele>211.80000305176</ele>
        <time>2024-05-20T10:05:29.000Z</time>
      </trkpt>
      <trkpt lat="46.30043" lon="4.80821">
        <ele>211.80000305176</ele>
        <time>2024-05-20T10:05:30.000Z</time>
      </trkpt>
      <trkpt lat="46.30041" lon="4.80829">
        <ele>211.80000305176</ele>
        <time>2024-05-20T10:05:31.000Z</time>
      </trkpt>
      <trkpt lat="46.30038" lon="4.80837">
        <ele>211.80000305176</ele>
        <time>2024-05-20T10:05:32.000Z</time>
      </trkpt>
      <trkpt lat="46.30037" lon="4.80846">
        <ele>211.80000305176</ele>
        <time>2024-05-20T10:05:33.000Z</time>
      </trkpt>
      <trkpt lat="46.30035" lon="4.80854">
        <ele>211.80000305176</ele>
        <time>2024-05-20T10:05:34.000Z</time>
      </trkpt>
      <trkpt lat="46.30032" lon="4.80863">
        <ele>211.80000305176</ele>
        <time>2024-05-20T10:05:35.000Z</time>
      </trkpt>
      <trkpt lat="46.3003" lon="4.80872">
        <ele>211.39999389648</ele>
        <time>2024-05-20T10:05:36.000Z</time>
      </trkpt>
      <trkpt lat="46.30028" lon="4.8088">
        <ele>211.19999694824</ele>
        <time>2024-05-20T10:05:37.000Z</time>
      </trkpt>
      <trkpt lat="46.30026" lon="4.80889">
        <ele>211</ele>
        <time>2024-05-20T10:05:38.000Z</time>
      </trkpt>
      <trkpt lat="46.30023" lon="4.80898">
        <ele>210.80000305176</ele>
        <time>2024-05-20T10:05:39.000Z</time>
      </trkpt>
      <trkpt lat="46.30021" lon="4.80906">
        <ele>210.80000305176</ele>
        <time>2024-05-20T10:05:40.000Z</time>
      </trkpt>
      <trkpt lat="46.30018" lon="4.80915">
        <ele>210.60000610352</ele>
        <time>2024-05-20T10:05:41.000Z</time>
      </trkpt>
      <trkpt lat="46.30016" lon="4.80924">
        <ele>210.39999389648</ele>
        <time>2024-05-20T10:05:42.000Z</time>
      </trkpt>
      <trkpt lat="46.30014" lon="4.80931">
        <ele>210.19999694824</ele>
        <time>2024-05-20T10:05:43.000Z</time>
      </trkpt>
      <trkpt lat="46.3001" lon="4.80941">
        <ele>210.19999694824</ele>
        <time>2024-05-20T10:05:44.000Z</time>
      </trkpt>
      <trkpt lat="46.30007" lon="4.8095">
        <ele>210</ele>
        <time>2024-05-20T10:05:45.000Z</time>
      </trkpt>
      <trkpt lat="46.30004" lon="4.80959">
        <ele>209.80000305176</ele>
        <time>2024-05-20T10:05:46.000Z</time>
      </trkpt>
      <trkpt lat="46.3" lon="4.80967">
        <ele>209.19999694824</ele>
        <time>2024-05-20T10:05:47.000Z</time>
      </trkpt>
      <trkpt lat="46.29997" lon="4.80974">
        <ele>209.19999694824</ele>
        <time>2024-05-20T10:05:48.000Z</time>
      </trkpt>
      <trkpt lat="46.29993" lon="4.80979">
        <ele>209.19999694824</ele>
        <time>2024-05-20T10:05:49.000Z</time>
      </trkpt>
      <trkpt lat="46.29989" lon="4.8098">
        <ele>209.19999694824</ele>
        <time>2024-05-20T10:05:50.000Z</time>
      </trkpt>
      <trkpt lat="46.29985" lon="4.80979">
        <ele>209.19999694824</ele>
        <time>2024-05-20T10:05:51.000Z</time>
      </trkpt>
      <trkpt lat="46.29983" lon="4.80978">
        <ele>209.19999694824</ele>
        <time>2024-05-20T10:05:52.000Z</time>
      </trkpt>
      <trkpt lat="46.2998" lon="4.80977">
        <ele>209.39999389648</ele>
        <time>2024-05-20T10:05:53.000Z</time>
      </trkpt>
      <trkpt lat="46.29977" lon="4.80977">
        <ele>209.39999389648</ele>
        <time>2024-05-20T10:05:54.000Z</time>
      </trkpt>
      <trkpt lat="46.29973" lon="4.80977">
        <ele>209.39999389648</ele>
        <time>2024-05-20T10:05:55.000Z</time>
      </trkpt>
      <trkpt lat="46.29969" lon="4.8098">
        <ele>209.39999389648</ele>
        <time>2024-05-20T10:05:56.000Z</time>
      </trkpt>
      <trkpt lat="46.29966" lon="4.80982">
        <ele>209.19999694824</ele>
        <time>2024-05-20T10:05:57.000Z</time>
      </trkpt>
      <trkpt lat="46.29963" lon="4.80984">
        <ele>209.19999694824</ele>
        <time>2024-05-20T10:05:58.000Z</time>
      </trkpt>
      <trkpt lat="46.29959" lon="4.80986">
        <ele>209.19999694824</ele>
        <time>2024-05-20T10:05:59.000Z</time>
      </trkpt>
      <trkpt lat="46.29956" lon="4.80989">
        <ele>209.19999694824</ele>
        <time>2024-05-20T10:06:00.000Z</time>
      </trkpt>
      <trkpt lat="46.29953" lon="4.80992">
        <ele>209.39999389648</ele>
        <time>2024-05-20T10:06:01.000Z</time>
      </trkpt>
      <trkpt lat="46.29949" lon="4.80996">
        <ele>209.39999389648</ele>
        <time>2024-05-20T10:06:02.000Z</time>
      </trkpt>
      <trkpt lat="46.29947" lon="4.81001">
        <ele>209.60000610352</ele>
        <time>2024-05-20T10:06:03.000Z</time>
      </trkpt>
      <trkpt lat="46.29944" lon="4.81006">
        <ele>209.80000305176</ele>
        <time>2024-05-20T10:06:04.000Z</time>
      </trkpt>
      <trkpt lat="46.29942" lon="4.81012">
        <ele>209.80000305176</ele>
        <time>2024-05-20T10:06:05.000Z</time>
      </trkpt>
      <trkpt lat="46.2994" lon="4.81019">
        <ele>209.80000305176</ele>
        <time>2024-05-20T10:06:06.000Z</time>
      </trkpt>
      <trkpt lat="46.29938" lon="4.81025">
        <ele>209.80000305176</ele>
        <time>2024-05-20T10:06:07.000Z</time>
      </trkpt>
      <trkpt lat="46.29936" lon="4.81032">
        <ele>209.60000610352</ele>
        <time>2024-05-20T10:06:08.000Z</time>
      </trkpt>
      <trkpt lat="46.29934" lon="4.81039">
        <ele>209.60000610352</ele>
        <time>2024-05-20T10:06:09.000Z</time>
      </trkpt>
      <trkpt lat="46.29933" lon="4.81046">
        <ele>209.39999389648</ele>
        <time>2024-05-20T10:06:10.000Z</time>
      </trkpt>
      <trkpt lat="46.29931" lon="4.81053">
        <ele>209.39999389648</ele>
        <time>2024-05-20T10:06:11.000Z</time>
      </trkpt>
      <trkpt lat="46.29929" lon="4.8106">
        <ele>209.19999694824</ele>
        <time>2024-05-20T10:06:12.000Z</time>
      </trkpt>
      <trkpt lat="46.29927" lon="4.81066">
        <ele>209.19999694824</ele>
        <time>2024-05-20T10:06:13.000Z</time>
      </trkpt>
      <trkpt lat="46.29925" lon="4.81075">
        <ele>209</ele>
        <time>2024-05-20T10:06:14.000Z</time>
      </trkpt>
      <trkpt lat="46.29923" lon="4.81082">
        <ele>208.80000305176</ele>
        <time>2024-05-20T10:06:15.000Z</time>
      </trkpt>
      <trkpt lat="46.29922" lon="4.81089">
        <ele>208.60000610352</ele>
        <time>2024-05-20T10:06:16.000Z</time>
      </trkpt>
      <trkpt lat="46.29922" lon="4.81097">
        <ele>208.60000610352</ele>
        <time>2024-05-20T10:06:17.000Z</time>
      </trkpt>
      <trkpt lat="46.29922" lon="4.81105">
        <ele>208.60000610352</ele>
        <time>2024-05-20T10:06:18.000Z</time>
      </trkpt>
      <trkpt lat="46.29922" lon="4.81113">
        <ele>208.60000610352</ele>
        <time>2024-05-20T10:06:19.000Z</time>
      </trkpt>
      <trkpt lat="46.29922" lon="4.81122">
        <ele>208.39999389648</ele>
        <time>2024-05-20T10:06:20.000Z</time>
      </trkpt>
      <trkpt lat="46.29922" lon="4.81131">
        <ele>208</ele>
        <time>2024-05-20T10:06:21.000Z</time>
      </trkpt>
      <trkpt lat="46.29921" lon="4.81139">
        <ele>207.80000305176</ele>
        <time>2024-05-20T10:06:22.000Z</time>
      </trkpt>
      <trkpt lat="46.29921" lon="4.81148">
        <ele>207.39999389648</ele>
        <time>2024-05-20T10:06:23.000Z</time>
      </trkpt>
      <trkpt lat="46.2992" lon="4.81156">
        <ele>207.19999694824</ele>
        <time>2024-05-20T10:06:24.000Z</time>
      </trkpt>
      <trkpt lat="46.29919" lon="4.81165">
        <ele>207</ele>
        <time>2024-05-20T10:06:25.000Z</time>
      </trkpt>
      <trkpt lat="46.29918" lon="4.81174">
        <ele>206.60000610352</ele>
        <time>2024-05-20T10:06:26.000Z</time>
      </trkpt>
      <trkpt lat="46.29916" lon="4.81183">
        <ele>206.60000610352</ele>
        <time>2024-05-20T10:06:27.000Z</time>
      </trkpt>
      <trkpt lat="46.29915" lon="4.81192">
        <ele>206.39999389648</ele>
        <time>2024-05-20T10:06:28.000Z</time>
      </trkpt>
      <trkpt lat="46.29914" lon="4.81201">
        <ele>206.39999389648</ele>
        <time>2024-05-20T10:06:29.000Z</time>
      </trkpt>
      <trkpt lat="46.29912" lon="4.8121">
        <ele>206.19999694824</ele>
        <time>2024-05-20T10:06:30.000Z</time>
      </trkpt>
      <trkpt lat="46.2991" lon="4.81219">
        <ele>205.80000305176</ele>
        <time>2024-05-20T10:06:31.000Z</time>
      </trkpt>
      <trkpt lat="46.29908" lon="4.81227">
        <ele>205.39999389648</ele>
        <time>2024-05-20T10:06:32.000Z</time>
      </trkpt>
      <trkpt lat="46.29906" lon="4.81234">
        <ele>205.39999389648</ele>
        <time>2024-05-20T10:06:33.000Z</time>
      </trkpt>
      <trkpt lat="46.29902" lon="4.8124">
        <ele>205.19999694824</ele>
        <time>2024-05-20T10:06:34.000Z</time>
      </trkpt>
      <trkpt lat="46.29898" lon="4.81242">
        <ele>205.19999694824</ele>
        <time>2024-05-20T10:06:35.000Z</time>
      </trkpt>
      <trkpt lat="46.29893" lon="4.81243">
        <ele>205</ele>
        <time>2024-05-20T10:06:36.000Z</time>
      </trkpt>
      <trkpt lat="46.2989" lon="4.81246">
        <ele>205</ele>
        <time>2024-05-20T10:06:37.000Z</time>
      </trkpt>
      <trkpt lat="46.29886" lon="4.81252">
        <ele>205</ele>
        <time>2024-05-20T10:06:38.000Z</time>
      </trkpt>
      <trkpt lat="46.29884" lon="4.81258">
        <ele>204.80000305176</ele>
        <time>2024-05-20T10:06:39.000Z</time>
      </trkpt>
      <trkpt lat="46.29881" lon="4.81265">
        <ele>204.39999389648</ele>
        <time>2024-05-20T10:06:40.000Z</time>
      </trkpt>
      <trkpt lat="46.29878" lon="4.81271">
        <ele>204.19999694824</ele>
        <time>2024-05-20T10:06:41.000Z</time>
      </trkpt>
      <trkpt lat="46.29875" lon="4.81279">
        <ele>204</ele>
        <time>2024-05-20T10:06:42.000Z</time>
      </trkpt>
      <trkpt lat="46.29872" lon="4.81286">
        <ele>203.80000305176</ele>
        <time>2024-05-20T10:06:43.000Z</time>
      </trkpt>
      <trkpt lat="46.29868" lon="4.81293">
        <ele>203.60000610352</ele>
        <time>2024-05-20T10:06:44.000Z</time>
      </trkpt>
      <trkpt lat="46.29865" lon="4.813">
        <ele>203.39999389648</ele>
        <time>2024-05-20T10:06:45.000Z</time>
      </trkpt>
      <trkpt lat="46.29861" lon="4.81308">
        <ele>203.19999694824</ele>
        <time>2024-05-20T10:06:46.000Z</time>
      </trkpt>
      <trkpt lat="46.29858" lon="4.81315">
        <ele>203</ele>
        <time>2024-05-20T10:06:47.000Z</time>
      </trkpt>
      <trkpt lat="46.29854" lon="4.81323">
        <ele>202.80000305176</ele>
        <time>2024-05-20T10:06:48.000Z</time>
      </trkpt>
      <trkpt lat="46.2985" lon="4.81331">
        <ele>202.60000610352</ele>
        <time>2024-05-20T10:06:49.000Z</time>
      </trkpt>
      <trkpt lat="46.29847" lon="4.81339">
        <ele>202.19999694824</ele>
        <time>2024-05-20T10:06:50.000Z</time>
      </trkpt>
      <trkpt lat="46.29843" lon="4.81348">
        <ele>201.80000305176</ele>
        <time>2024-05-20T10:06:51.000Z</time>
      </trkpt>
      <trkpt lat="46.29839" lon="4.81356">
        <ele>201.19999694824</ele>
        <time>2024-05-20T10:06:52.000Z</time>
      </trkpt>
      <trkpt lat="46.29836" lon="4.81365">
        <ele>201</ele>
        <time>2024-05-20T10:06:53.000Z</time>
      </trkpt>
      <trkpt lat="46.29833" lon="4.81374">
        <ele>200.80000305176</ele>
        <time>2024-05-20T10:06:54.000Z</time>
      </trkpt>
      <trkpt lat="46.29829" lon="4.81383">
        <ele>200.60000610352</ele>
        <time>2024-05-20T10:06:55.000Z</time>
      </trkpt>
      <trkpt lat="46.29825" lon="4.81393">
        <ele>200.39999389648</ele>
        <time>2024-05-20T10:06:56.000Z</time>
      </trkpt>
      <trkpt lat="46.29822" lon="4.81402">
        <ele>200</ele>
        <time>2024-05-20T10:06:57.000Z</time>
      </trkpt>
      <trkpt lat="46.29818" lon="4.81412">
        <ele>199.80000305176</ele>
        <time>2024-05-20T10:06:58.000Z</time>
      </trkpt>
      <trkpt lat="46.29815" lon="4.81422">
        <ele>199</ele>
        <time>2024-05-20T10:06:59.000Z</time>
      </trkpt>
      <trkpt lat="46.29812" lon="4.81431">
        <ele>198.60000610352</ele>
        <time>2024-05-20T10:07:00.000Z</time>
      </trkpt>
      <trkpt lat="46.2981" lon="4.8144">
        <ele>198.19999694824</ele>
        <time>2024-05-20T10:07:01.000Z</time>
      </trkpt>
      <trkpt lat="46.29808" lon="4.81449">
        <ele>197.60000610352</ele>
        <time>2024-05-20T10:07:02.000Z</time>
      </trkpt>
      <trkpt lat="46.29806" lon="4.81456">
        <ele>197.19999694824</ele>
        <time>2024-05-20T10:07:03.000Z</time>
      </trkpt>
      <trkpt lat="46.29804" lon="4.81463">
        <ele>197</ele>
        <time>2024-05-20T10:07:04.000Z</time>
      </trkpt>
      <trkpt lat="46.29802" lon="4.8147">
        <ele>197</ele>
        <time>2024-05-20T10:07:05.000Z</time>
      </trkpt>
      <trkpt lat="46.298" lon="4.81477">
        <ele>197</ele>
        <time>2024-05-20T10:07:06.000Z</time>
      </trkpt>
      <trkpt lat="46.29798" lon="4.81484">
        <ele>196.60000610352</ele>
        <time>2024-05-20T10:07:07.000Z</time>
      </trkpt>
      <trkpt lat="46.29796" lon="4.81492">
        <ele>196.60000610352</ele>
        <time>2024-05-20T10:07:08.000Z</time>
      </trkpt>
      <trkpt lat="46.29795" lon="4.815">
        <ele>196</ele>
        <time>2024-05-20T10:07:09.000Z</time>
      </trkpt>
      <trkpt lat="46.29794" lon="4.81509">
        <ele>195.80000305176</ele>
        <time>2024-05-20T10:07:10.000Z</time>
      </trkpt>
      <trkpt lat="46.29793" lon="4.81518">
        <ele>195.39999389648</ele>
        <time>2024-05-20T10:07:11.000Z</time>
      </trkpt>
      <trkpt lat="46.29792" lon="4.81527">
        <ele>195</ele>
        <time>2024-05-20T10:07:12.000Z</time>
      </trkpt>
      <trkpt lat="46.29792" lon="4.81535">
        <ele>194.39999389648</ele>
        <time>2024-05-20T10:07:13.000Z</time>
      </trkpt>
      <trkpt lat="46.29791" lon="4.81544">
        <ele>194.19999694824</ele>
        <time>2024-05-20T10:07:14.000Z</time>
      </trkpt>
      <trkpt lat="46.29791" lon="4.81554">
        <ele>194.19999694824</ele>
        <time>2024-05-20T10:07:15.000Z</time>
      </trkpt>
      <trkpt lat="46.29791" lon="4.81563">
        <ele>193.80000305176</ele>
        <time>2024-05-20T10:07:16.000Z</time>
      </trkpt>
      <trkpt lat="46.29791" lon="4.81572">
        <ele>193.39999389648</ele>
        <time>2024-05-20T10:07:17.000Z</time>
      </trkpt>
      <trkpt lat="46.2979" lon="4.81581">
        <ele>193</ele>
        <time>2024-05-20T10:07:18.000Z</time>
      </trkpt>
      <trkpt lat="46.2979" lon="4.81588">
        <ele>192.39999389648</ele>
        <time>2024-05-20T10:07:19.000Z</time>
      </trkpt>
      <trkpt lat="46.2979" lon="4.81595">
        <ele>192</ele>
        <time>2024-05-20T10:07:20.000Z</time>
      </trkpt>
      <trkpt lat="46.29791" lon="4.816">
        <ele>192</ele>
        <time>2024-05-20T10:07:21.000Z</time>
      </trkpt>
      <trkpt lat="46.29792" lon="4.81605">
        <ele>192</ele>
        <time>2024-05-20T10:07:22.000Z</time>
      </trkpt>
      <trkpt lat="46.29793" lon="4.81611">
        <ele>192</ele>
        <time>2024-05-20T10:07:23.000Z</time>
      </trkpt>
      <trkpt lat="46.29794" lon="4.81615">
        <ele>191.60000610352</ele>
        <time>2024-05-20T10:07:24.000Z</time>
      </trkpt>
      <trkpt lat="46.29794" lon="4.81619">
        <ele>191.39999389648</ele>
        <time>2024-05-20T10:07:25.000Z</time>
      </trkpt>
      <trkpt lat="46.29792" lon="4.81624">
        <ele>191.19999694824</ele>
        <time>2024-05-20T10:07:26.000Z</time>
      </trkpt>
      <trkpt lat="46.2979" lon="4.8163">
        <ele>191.19999694824</ele>
        <time>2024-05-20T10:07:27.000Z</time>
      </trkpt>
      <trkpt lat="46.29789" lon="4.81637">
        <ele>190.80000305176</ele>
        <time>2024-05-20T10:07:28.000Z</time>
      </trkpt>
      <trkpt lat="46.29788" lon="4.81644">
        <ele>190.80000305176</ele>
        <time>2024-05-20T10:07:29.000Z</time>
      </trkpt>
      <trkpt lat="46.29787" lon="4.81651">
        <ele>190.60000610352</ele>
        <time>2024-05-20T10:07:30.000Z</time>
      </trkpt>
      <trkpt lat="46.29786" lon="4.81658">
        <ele>190.39999389648</ele>
        <time>2024-05-20T10:07:31.000Z</time>
      </trkpt>
      <trkpt lat="46.29785" lon="4.81665">
        <ele>190.19999694824</ele>
        <time>2024-05-20T10:07:32.000Z</time>
      </trkpt>
      <trkpt lat="46.29784" lon="4.81672">
        <ele>190</ele>
        <time>2024-05-20T10:07:33.000Z</time>
      </trkpt>
      <trkpt lat="46.29784" lon="4.81679">
        <ele>189.80000305176</ele>
        <time>2024-05-20T10:07:34.000Z</time>
      </trkpt>
      <trkpt lat="46.29783" lon="4.81685">
        <ele>189.80000305176</ele>
        <time>2024-05-20T10:07:35.000Z</time>
      </trkpt>
      <trkpt lat="46.29782" lon="4.81692">
        <ele>189.60000610352</ele>
        <time>2024-05-20T10:07:36.000Z</time>
      </trkpt>
      <trkpt lat="46.29781" lon="4.81699">
        <ele>189.39999389648</ele>
        <time>2024-05-20T10:07:37.000Z</time>
      </trkpt>
      <trkpt lat="46.2978" lon="4.81706">
        <ele>189.39999389648</ele>
        <time>2024-05-20T10:07:38.000Z</time>
      </trkpt>
      <trkpt lat="46.29778" lon="4.81714">
        <ele>189.19999694824</ele>
        <time>2024-05-20T10:07:39.000Z</time>
      </trkpt>
      <trkpt lat="46.29777" lon="4.81721">
        <ele>188.80000305176</ele>
        <time>2024-05-20T10:07:40.000Z</time>
      </trkpt>
      <trkpt lat="46.29775" lon="4.81728">
        <ele>188.80000305176</ele>
        <time>2024-05-20T10:07:41.000Z</time>
      </trkpt>
      <trkpt lat="46.29774" lon="4.81734">
        <ele>188.60000610352</ele>
        <time>2024-05-20T10:07:42.000Z</time>
      </trkpt>
      <trkpt lat="46.29772" lon="4.8174">
        <ele>188.39999389648</ele>
        <time>2024-05-20T10:07:43.000Z</time>
      </trkpt>
      <trkpt lat="46.29771" lon="4.81744">
        <ele>188.19999694824</ele>
        <time>2024-05-20T10:07:44.000Z</time>
      </trkpt>
      <trkpt lat="46.29769" lon="4.81748">
        <ele>188</ele>
        <time>2024-05-20T10:07:45.000Z</time>
      </trkpt>
      <trkpt lat="46.29768" lon="4.81751">
        <ele>187.60000610352</ele>
        <time>2024-05-20T10:07:46.000Z</time>
      </trkpt>
      <trkpt lat="46.29768" lon="4.81754">
        <ele>187.60000610352</ele>
        <time>2024-05-20T10:07:47.000Z</time>
      </trkpt>
      <trkpt lat="46.29767" lon="4.81756">
        <ele>187.39999389648</ele>
        <time>2024-05-20T10:07:48.000Z</time>
      </trkpt>
      <trkpt lat="46.29766" lon="4.81756">
        <ele>187.39999389648</ele>
        <time>2024-05-20T10:07:49.000Z</time>
      </trkpt>
      <trkpt lat="46.29765" lon="4.81756">
        <ele>187.19999694824</ele>
        <time>2024-05-20T10:07:50.000Z</time>
      </trkpt>
      <trkpt lat="46.29765" lon="4.81756">
        <ele>187.19999694824</ele>
        <time>2024-05-20T10:07:51.000Z</time>
      </trkpt>
      <trkpt lat="46.29765" lon="4.81756">
        <ele>187.19999694824</ele>
        <time>2024-05-20T10:07:52.000Z</time>
      </trkpt>
      <trkpt lat="46.29763" lon="4.81761">
        <ele>187.19999694824</ele>
        <time>2024-05-20T10:08:10.000Z</time>
      </trkpt>
      <trkpt lat="46.29763" lon="4.81764">
        <ele>187</ele>
        <time>2024-05-20T10:08:11.000Z</time>
      </trkpt>
      <trkpt lat="46.29763" lon="4.81767">
        <ele>187</ele>
        <time>2024-05-20T10:08:12.000Z</time>
      </trkpt>
      <trkpt lat="46.29763" lon="4.81772">
        <ele>186.80000305176</ele>
        <time>2024-05-20T10:08:13.000Z</time>
      </trkpt>
      <trkpt lat="46.29764" lon="4.81777">
        <ele>186.80000305176</ele>
        <time>2024-05-20T10:08:14.000Z</time>
      </trkpt>
      <trkpt lat="46.29765" lon="4.81782">
        <ele>186.80000305176</ele>
        <time>2024-05-20T10:08:15.000Z</time>
      </trkpt>
      <trkpt lat="46.29766" lon="4.81789">
        <ele>186.60000610352</ele>
        <time>2024-05-20T10:08:16.000Z</time>
      </trkpt>
      <trkpt lat="46.29768" lon="4.81796">
        <ele>186.19999694824</ele>
        <time>2024-05-20T10:08:17.000Z</time>
      </trkpt>
      <trkpt lat="46.29769" lon="4.81804">
        <ele>186</ele>
        <time>2024-05-20T10:08:18.000Z</time>
      </trkpt>
      <trkpt lat="46.2977" lon="4.81812">
        <ele>185.60000610352</ele>
        <time>2024-05-20T10:08:19.000Z</time>
      </trkpt>
      <trkpt lat="46.29771" lon="4.8182">
        <ele>185</ele>
        <time>2024-05-20T10:08:20.000Z</time>
      </trkpt>
      <trkpt lat="46.29772" lon="4.81829">
        <ele>184.60000610352</ele>
        <time>2024-05-20T10:08:21.000Z</time>
      </trkpt>
      <trkpt lat="46.29774" lon="4.81837">
        <ele>184.39999389648</ele>
        <time>2024-05-20T10:08:22.000Z</time>
      </trkpt>
      <trkpt lat="46.29775" lon="4.81846">
        <ele>184.19999694824</ele>
        <time>2024-05-20T10:08:23.000Z</time>
      </trkpt>
      <trkpt lat="46.29776" lon="4.81855">
        <ele>184</ele>
        <time>2024-05-20T10:08:24.000Z</time>
      </trkpt>
      <trkpt lat="46.29778" lon="4.81864">
        <ele>183.39999389648</ele>
        <time>2024-05-20T10:08:25.000Z</time>
      </trkpt>
      <trkpt lat="46.29779" lon="4.81874">
        <ele>183</ele>
        <time>2024-05-20T10:08:26.000Z</time>
      </trkpt>
      <trkpt lat="46.2978" lon="4.81883">
        <ele>182.60000610352</ele>
        <time>2024-05-20T10:08:27.000Z</time>
      </trkpt>
      <trkpt lat="46.29781" lon="4.81892">
        <ele>182.19999694824</ele>
        <time>2024-05-20T10:08:28.000Z</time>
      </trkpt>
      <trkpt lat="46.29781" lon="4.81902">
        <ele>181.60000610352</ele>
        <time>2024-05-20T10:08:29.000Z</time>
      </trkpt>
      <trkpt lat="46.29782" lon="4.81911">
        <ele>181.60000610352</ele>
        <time>2024-05-20T10:08:30.000Z</time>
      </trkpt>
      <trkpt lat="46.29783" lon="4.8192">
        <ele>181.60000610352</ele>
        <time>2024-05-20T10:08:31.000Z</time>
      </trkpt>
      <trkpt lat="46.29783" lon="4.81928">
        <ele>181.39999389648</ele>
        <time>2024-05-20T10:08:32.000Z</time>
      </trkpt>
      <trkpt lat="46.29784" lon="4.81937">
        <ele>181.39999389648</ele>
        <time>2024-05-20T10:08:33.000Z</time>
      </trkpt>
      <trkpt lat="46.29785" lon="4.81944">
        <ele>181.60000610352</ele>
        <time>2024-05-20T10:08:34.000Z</time>
      </trkpt>
      <trkpt lat="46.29785" lon="4.81951">
        <ele>181.60000610352</ele>
        <time>2024-05-20T10:08:35.000Z</time>
      </trkpt>
      <trkpt lat="46.29785" lon="4.81957">
        <ele>181.60000610352</ele>
        <time>2024-05-20T10:08:36.000Z</time>
      </trkpt>
      <trkpt lat="46.29785" lon="4.81963">
        <ele>181.80000305176</ele>
        <time>2024-05-20T10:08:37.000Z</time>
      </trkpt>
      <trkpt lat="46.29786" lon="4.81969">
        <ele>182</ele>
        <time>2024-05-20T10:08:38.000Z</time>
      </trkpt>
      <trkpt lat="46.29787" lon="4.81974">
        <ele>182</ele>
        <time>2024-05-20T10:08:39.000Z</time>
      </trkpt>
      <trkpt lat="46.29788" lon="4.81978">
        <ele>182.19999694824</ele>
        <time>2024-05-20T10:08:40.000Z</time>
      </trkpt>
      <trkpt lat="46.29789" lon="4.81983">
        <ele>182.19999694824</ele>
        <time>2024-05-20T10:08:41.000Z</time>
      </trkpt>
      <trkpt lat="46.29789" lon="4.81988">
        <ele>182.39999389648</ele>
        <time>2024-05-20T10:08:42.000Z</time>
      </trkpt>
      <trkpt lat="46.29789" lon="4.81993">
        <ele>182.60000610352</ele>
        <time>2024-05-20T10:08:43.000Z</time>
      </trkpt>
      <trkpt lat="46.29788" lon="4.81997">
        <ele>182.60000610352</ele>
        <time>2024-05-20T10:08:44.000Z</time>
      </trkpt>
      <trkpt lat="46.29788" lon="4.82002">
        <ele>182.60000610352</ele>
        <time>2024-05-20T10:08:45.000Z</time>
      </trkpt>
      <trkpt lat="46.29789" lon="4.82006">
        <ele>182.80000305176</ele>
        <time>2024-05-20T10:08:46.000Z</time>
      </trkpt>
      <trkpt lat="46.2979" lon="4.82009">
        <ele>182.80000305176</ele>
        <time>2024-05-20T10:08:47.000Z</time>
      </trkpt>
      <trkpt lat="46.29791" lon="4.82014">
        <ele>182.80000305176</ele>
        <time>2024-05-20T10:08:48.000Z</time>
      </trkpt>
      <trkpt lat="46.29796" lon="4.82038">
        <ele>182.80000305176</ele>
        <time>2024-05-20T10:08:53.000Z</time>
      </trkpt>
      <trkpt lat="46.29794" lon="4.82044">
        <ele>183</ele>
        <time>2024-05-20T10:08:54.000Z</time>
      </trkpt>
      <trkpt lat="46.29792" lon="4.82052">
        <ele>183</ele>
        <time>2024-05-20T10:08:55.000Z</time>
      </trkpt>
      <trkpt lat="46.29788" lon="4.82058">
        <ele>183</ele>
        <time>2024-05-20T10:08:56.000Z</time>
      </trkpt>
      <trkpt lat="46.29785" lon="4.82065">
        <ele>183</ele>
        <time>2024-05-20T10:08:57.000Z</time>
      </trkpt>
      <trkpt lat="46.29783" lon="4.8207">
        <ele>183</ele>
        <time>2024-05-20T10:08:58.000Z</time>
      </trkpt>
      <trkpt lat="46.29782" lon="4.82074">
        <ele>183</ele>
        <time>2024-05-20T10:08:59.000Z</time>
      </trkpt>
      <trkpt lat="46.29781" lon="4.82078">
        <ele>183</ele>
        <time>2024-05-20T10:09:00.000Z</time>
      </trkpt>
      <trkpt lat="46.2978" lon="4.82084">
        <ele>183</ele>
        <time>2024-05-20T10:09:01.000Z</time>
      </trkpt>
      <trkpt lat="46.29778" lon="4.8209">
        <ele>183</ele>
        <time>2024-05-20T10:09:02.000Z</time>
      </trkpt>
      <trkpt lat="46.29777" lon="4.82095">
        <ele>183</ele>
        <time>2024-05-20T10:09:03.000Z</time>
      </trkpt>
      <trkpt lat="46.29775" lon="4.821">
        <ele>183</ele>
        <time>2024-05-20T10:09:04.000Z</time>
      </trkpt>
      <trkpt lat="46.29773" lon="4.82106">
        <ele>183</ele>
        <time>2024-05-20T10:09:05.000Z</time>
      </trkpt>
      <trkpt lat="46.29771" lon="4.82112">
        <ele>183</ele>
        <time>2024-05-20T10:09:06.000Z</time>
      </trkpt>
      <trkpt lat="46.29769" lon="4.82117">
        <ele>182.80000305176</ele>
        <time>2024-05-20T10:09:07.000Z</time>
      </trkpt>
      <trkpt lat="46.29765" lon="4.82123">
        <ele>182.60000610352</ele>
        <time>2024-05-20T10:09:08.000Z</time>
      </trkpt>
      <trkpt lat="46.29762" lon="4.82128">
        <ele>182.19999694824</ele>
        <time>2024-05-20T10:09:09.000Z</time>
      </trkpt>
      <trkpt lat="46.2976" lon="4.82135">
        <ele>182</ele>
        <time>2024-05-20T10:09:10.000Z</time>
      </trkpt>
      <trkpt lat="46.29759" lon="4.82141">
        <ele>182</ele>
        <time>2024-05-20T10:09:11.000Z</time>
      </trkpt>
      <trkpt lat="46.29761" lon="4.82147">
        <ele>181.60000610352</ele>
        <time>2024-05-20T10:09:12.000Z</time>
      </trkpt>
      <trkpt lat="46.29764" lon="4.82152">
        <ele>181.39999389648</ele>
        <time>2024-05-20T10:09:13.000Z</time>
      </trkpt>
      <trkpt lat="46.29767" lon="4.82156">
        <ele>181.39999389648</ele>
        <time>2024-05-20T10:09:14.000Z</time>
      </trkpt>
      <trkpt lat="46.2977" lon="4.82159">
        <ele>181.39999389648</ele>
        <time>2024-05-20T10:09:15.000Z</time>
      </trkpt>
      <trkpt lat="46.29773" lon="4.82163">
        <ele>181.39999389648</ele>
        <time>2024-05-20T10:09:16.000Z</time>
      </trkpt>
      <trkpt lat="46.29776" lon="4.82167">
        <ele>181.39999389648</ele>
        <time>2024-05-20T10:09:17.000Z</time>
      </trkpt>
      <trkpt lat="46.29779" lon="4.82172">
        <ele>181.39999389648</ele>
        <time>2024-05-20T10:09:18.000Z</time>
      </trkpt>
      <trkpt lat="46.29781" lon="4.82178">
        <ele>181.19999694824</ele>
        <time>2024-05-20T10:09:19.000Z</time>
      </trkpt>
      <trkpt lat="46.29783" lon="4.82183">
        <ele>181.19999694824</ele>
        <time>2024-05-20T10:09:20.000Z</time>
      </trkpt>
      <trkpt lat="46.29786" lon="4.82189">
        <ele>181.19999694824</ele>
        <time>2024-05-20T10:09:21.000Z</time>
      </trkpt>
      <trkpt lat="46.29789" lon="4.82195">
        <ele>181.19999694824</ele>
        <time>2024-05-20T10:09:22.000Z</time>
      </trkpt>
      <trkpt lat="46.29792" lon="4.822">
        <ele>181</ele>
        <time>2024-05-20T10:09:23.000Z</time>
      </trkpt>
      <trkpt lat="46.29795" lon="4.82205">
        <ele>181</ele>
        <time>2024-05-20T10:09:24.000Z</time>
      </trkpt>
      <trkpt lat="46.29798" lon="4.82209">
        <ele>181</ele>
        <time>2024-05-20T10:09:25.000Z</time>
      </trkpt>
      <trkpt lat="46.29801" lon="4.82214">
        <ele>180.80000305176</ele>
        <time>2024-05-20T10:09:26.000Z</time>
      </trkpt>
      <trkpt lat="46.29804" lon="4.82218">
        <ele>180.60000610352</ele>
        <time>2024-05-20T10:09:27.000Z</time>
      </trkpt>
      <trkpt lat="46.29807" lon="4.82222">
        <ele>180.60000610352</ele>
        <time>2024-05-20T10:09:28.000Z</time>
      </trkpt>
      <trkpt lat="46.29809" lon="4.82226">
        <ele>180.60000610352</ele>
        <time>2024-05-20T10:09:29.000Z</time>
      </trkpt>
      <trkpt lat="46.29811" lon="4.8223">
        <ele>180.60000610352</ele>
        <time>2024-05-20T10:09:30.000Z</time>
      </trkpt>
      <trkpt lat="46.29813" lon="4.82234">
        <ele>180.60000610352</ele>
        <time>2024-05-20T10:09:31.000Z</time>
      </trkpt>
      <trkpt lat="46.29814" lon="4.82238">
        <ele>180.60000610352</ele>
        <time>2024-05-20T10:09:32.000Z</time>
      </trkpt>
      <trkpt lat="46.29817" lon="4.82242">
        <ele>180.60000610352</ele>
        <time>2024-05-20T10:09:33.000Z</time>
      </trkpt>
      <trkpt lat="46.29819" lon="4.82247">
        <ele>180.60000610352</ele>
        <time>2024-05-20T10:09:34.000Z</time>
      </trkpt>
      <trkpt lat="46.29821" lon="4.82251">
        <ele>180.60000610352</ele>
        <time>2024-05-20T10:09:35.000Z</time>
      </trkpt>
      <trkpt lat="46.29823" lon="4.82256">
        <ele>180.39999389648</ele>
        <time>2024-05-20T10:09:36.000Z</time>
      </trkpt>
      <trkpt lat="46.29826" lon="4.82262">
        <ele>180.39999389648</ele>
        <time>2024-05-20T10:09:37.000Z</time>
      </trkpt>
      <trkpt lat="46.29828" lon="4.82267">
        <ele>180.39999389648</ele>
        <time>2024-05-20T10:09:38.000Z</time>
      </trkpt>
      <trkpt lat="46.29831" lon="4.82273">
        <ele>180.39999389648</ele>
        <time>2024-05-20T10:09:39.000Z</time>
      </trkpt>
      <trkpt lat="46.29833" lon="4.82278">
        <ele>180.39999389648</ele>
        <time>2024-05-20T10:09:40.000Z</time>
      </trkpt>
      <trkpt lat="46.29836" lon="4.82284">
        <ele>180.39999389648</ele>
        <time>2024-05-20T10:09:41.000Z</time>
      </trkpt>
      <trkpt lat="46.29839" lon="4.8229">
        <ele>180.39999389648</ele>
        <time>2024-05-20T10:09:42.000Z</time>
      </trkpt>
      <trkpt lat="46.29842" lon="4.82296">
        <ele>180.39999389648</ele>
        <time>2024-05-20T10:09:43.000Z</time>
      </trkpt>
      <trkpt lat="46.29845" lon="4.82302">
        <ele>180.39999389648</ele>
        <time>2024-05-20T10:09:44.000Z</time>
      </trkpt>
      <trkpt lat="46.29848" lon="4.82309">
        <ele>180.39999389648</ele>
        <time>2024-05-20T10:09:45.000Z</time>
      </trkpt>
      <trkpt lat="46.29851" lon="4.82315">
        <ele>180.39999389648</ele>
        <time>2024-05-20T10:09:46.000Z</time>
      </trkpt>
      <trkpt lat="46.29855" lon="4.82321">
        <ele>180.39999389648</ele>
        <time>2024-05-20T10:09:47.000Z</time>
      </trkpt>
      <trkpt lat="46.29858" lon="4.82327">
        <ele>180.39999389648</ele>
        <time>2024-05-20T10:09:48.000Z</time>
      </trkpt>
      <trkpt lat="46.29861" lon="4.82334">
        <ele>180.39999389648</ele>
        <time>2024-05-20T10:09:49.000Z</time>
      </trkpt>
      <trkpt lat="46.29865" lon="4.8234">
        <ele>180.39999389648</ele>
        <time>2024-05-20T10:09:50.000Z</time>
      </trkpt>
      <trkpt lat="46.29869" lon="4.82346">
        <ele>180.39999389648</ele>
        <time>2024-05-20T10:09:51.000Z</time>
      </trkpt>
      <trkpt lat="46.29872" lon="4.82353">
        <ele>180.39999389648</ele>
        <time>2024-05-20T10:09:52.000Z</time>
      </trkpt>
      <trkpt lat="46.29876" lon="4.8236">
        <ele>180.39999389648</ele>
        <time>2024-05-20T10:09:53.000Z</time>
      </trkpt>
      <trkpt lat="46.2988" lon="4.82367">
        <ele>180.39999389648</ele>
        <time>2024-05-20T10:09:54.000Z</time>
      </trkpt>
      <trkpt lat="46.29882" lon="4.82375">
        <ele>180.39999389648</ele>
        <time>2024-05-20T10:09:55.000Z</time>
      </trkpt>
      <trkpt lat="46.29884" lon="4.82382">
        <ele>180.39999389648</ele>
        <time>2024-05-20T10:09:56.000Z</time>
      </trkpt>
      <trkpt lat="46.29889" lon="4.82388">
        <ele>180.19999694824</ele>
        <time>2024-05-20T10:09:57.000Z</time>
      </trkpt>
      <trkpt lat="46.29892" lon="4.82395">
        <ele>180.19999694824</ele>
        <time>2024-05-20T10:09:58.000Z</time>
      </trkpt>
      <trkpt lat="46.29896" lon="4.82402">
        <ele>180</ele>
        <time>2024-05-20T10:09:59.000Z</time>
      </trkpt>
      <trkpt lat="46.29899" lon="4.8241">
        <ele>180</ele>
        <time>2024-05-20T10:10:00.000Z</time>
      </trkpt>
      <trkpt lat="46.29902" lon="4.82417">
        <ele>180</ele>
        <time>2024-05-20T10:10:01.000Z</time>
      </trkpt>
      <trkpt lat="46.29905" lon="4.82424">
        <ele>180</ele>
        <time>2024-05-20T10:10:02.000Z</time>
      </trkpt>
      <trkpt lat="46.29908" lon="4.82432">
        <ele>179.80000305176</ele>
        <time>2024-05-20T10:10:03.000Z</time>
      </trkpt>
      <trkpt lat="46.29912" lon="4.82439">
        <ele>179.60000610352</ele>
        <time>2024-05-20T10:10:04.000Z</time>
      </trkpt>
      <trkpt lat="46.29915" lon="4.82446">
        <ele>179.39999389648</ele>
        <time>2024-05-20T10:10:05.000Z</time>
      </trkpt>
      <trkpt lat="46.29918" lon="4.82453">
        <ele>179.19999694824</ele>
        <time>2024-05-20T10:10:06.000Z</time>
      </trkpt>
      <trkpt lat="46.29921" lon="4.8246">
        <ele>179.19999694824</ele>
        <time>2024-05-20T10:10:07.000Z</time>
      </trkpt>
      <trkpt lat="46.29924" lon="4.82467">
        <ele>179</ele>
        <time>2024-05-20T10:10:08.000Z</time>
      </trkpt>
      <trkpt lat="46.29927" lon="4.82475">
        <ele>179</ele>
        <time>2024-05-20T10:10:09.000Z</time>
      </trkpt>
      <trkpt lat="46.2993" lon="4.82482">
        <ele>179</ele>
        <time>2024-05-20T10:10:10.000Z</time>
      </trkpt>
      <trkpt lat="46.29934" lon="4.82488">
        <ele>178.80000305176</ele>
        <time>2024-05-20T10:10:11.000Z</time>
      </trkpt>
      <trkpt lat="46.29937" lon="4.82495">
        <ele>178.80000305176</ele>
        <time>2024-05-20T10:10:12.000Z</time>
      </trkpt>
      <trkpt lat="46.2994" lon="4.82502">
        <ele>178.80000305176</ele>
        <time>2024-05-20T10:10:13.000Z</time>
      </trkpt>
      <trkpt lat="46.29944" lon="4.82509">
        <ele>178.80000305176</ele>
        <time>2024-05-20T10:10:14.000Z</time>
      </trkpt>
      <trkpt lat="46.29947" lon="4.82515">
        <ele>178.39999389648</ele>
        <time>2024-05-20T10:10:15.000Z</time>
      </trkpt>
      <trkpt lat="46.2995" lon="4.82522">
        <ele>178.39999389648</ele>
        <time>2024-05-20T10:10:16.000Z</time>
      </trkpt>
      <trkpt lat="46.29953" lon="4.82529">
        <ele>178.39999389648</ele>
        <time>2024-05-20T10:10:17.000Z</time>
      </trkpt>
      <trkpt lat="46.29956" lon="4.82535">
        <ele>178.39999389648</ele>
        <time>2024-05-20T10:10:18.000Z</time>
      </trkpt>
      <trkpt lat="46.29959" lon="4.82541">
        <ele>178.60000610352</ele>
        <time>2024-05-20T10:10:19.000Z</time>
      </trkpt>
      <trkpt lat="46.29962" lon="4.82547">
        <ele>178.60000610352</ele>
        <time>2024-05-20T10:10:20.000Z</time>
      </trkpt>
      <trkpt lat="46.29964" lon="4.82553">
        <ele>178.80000305176</ele>
        <time>2024-05-20T10:10:21.000Z</time>
      </trkpt>
      <trkpt lat="46.29966" lon="4.82559">
        <ele>178.80000305176</ele>
        <time>2024-05-20T10:10:22.000Z</time>
      </trkpt>
      <trkpt lat="46.29968" lon="4.82565">
        <ele>178.80000305176</ele>
        <time>2024-05-20T10:10:23.000Z</time>
      </trkpt>
      <trkpt lat="46.2997" lon="4.82569">
        <ele>178.80000305176</ele>
        <time>2024-05-20T10:10:24.000Z</time>
      </trkpt>
      <trkpt lat="46.2997" lon="4.82573">
        <ele>178.80000305176</ele>
        <time>2024-05-20T10:10:25.000Z</time>
      </trkpt>
      <trkpt lat="46.2997" lon="4.82577">
        <ele>179</ele>
        <time>2024-05-20T10:10:26.000Z</time>
      </trkpt>
      <trkpt lat="46.29969" lon="4.82581">
        <ele>179</ele>
        <time>2024-05-20T10:10:27.000Z</time>
      </trkpt>
      <trkpt lat="46.29968" lon="4.82586">
        <ele>179</ele>
        <time>2024-05-20T10:10:28.000Z</time>
      </trkpt>
      <trkpt lat="46.29966" lon="4.82591">
        <ele>179</ele>
        <time>2024-05-20T10:10:29.000Z</time>
      </trkpt>
      <trkpt lat="46.29965" lon="4.82596">
        <ele>179</ele>
        <time>2024-05-20T10:10:30.000Z</time>
      </trkpt>
      <trkpt lat="46.29962" lon="4.826">
        <ele>179</ele>
        <time>2024-05-20T10:10:31.000Z</time>
      </trkpt>
      <trkpt lat="46.2996" lon="4.82606">
        <ele>179</ele>
        <time>2024-05-20T10:10:32.000Z</time>
      </trkpt>
      <trkpt lat="46.29958" lon="4.82611">
        <ele>178.80000305176</ele>
        <time>2024-05-20T10:10:33.000Z</time>
      </trkpt>
      <trkpt lat="46.29955" lon="4.82616">
        <ele>178.80000305176</ele>
        <time>2024-05-20T10:10:34.000Z</time>
      </trkpt>
      <trkpt lat="46.29952" lon="4.82622">
        <ele>178.80000305176</ele>
        <time>2024-05-20T10:10:35.000Z</time>
      </trkpt>
      <trkpt lat="46.2995" lon="4.82627">
        <ele>178.60000610352</ele>
        <time>2024-05-20T10:10:36.000Z</time>
      </trkpt>
      <trkpt lat="46.29947" lon="4.82633">
        <ele>178.60000610352</ele>
        <time>2024-05-20T10:10:37.000Z</time>
      </trkpt>
      <trkpt lat="46.29944" lon="4.82639">
        <ele>178.19999694824</ele>
        <time>2024-05-20T10:10:38.000Z</time>
      </trkpt>
      <trkpt lat="46.29941" lon="4.82645">
        <ele>178</ele>
        <time>2024-05-20T10:10:39.000Z</time>
      </trkpt>
      <trkpt lat="46.29938" lon="4.8265">
        <ele>178</ele>
        <time>2024-05-20T10:10:40.000Z</time>
      </trkpt>
      <trkpt lat="46.29935" lon="4.82656">
        <ele>178</ele>
        <time>2024-05-20T10:10:41.000Z</time>
      </trkpt>
      <trkpt lat="46.29932" lon="4.82661">
        <ele>178</ele>
        <time>2024-05-20T10:10:42.000Z</time>
      </trkpt>
      <trkpt lat="46.29928" lon="4.82666">
        <ele>178</ele>
        <time>2024-05-20T10:10:43.000Z</time>
      </trkpt>
      <trkpt lat="46.29924" lon="4.82669">
        <ele>178</ele>
        <time>2024-05-20T10:10:44.000Z</time>
      </trkpt>
      <trkpt lat="46.2992" lon="4.82671">
        <ele>178</ele>
        <time>2024-05-20T10:10:45.000Z</time>
      </trkpt>
      <trkpt lat="46.29915" lon="4.82671">
        <ele>178</ele>
        <time>2024-05-20T10:10:46.000Z</time>
      </trkpt>
      <trkpt lat="46.2991" lon="4.8267">
        <ele>178.19999694824</ele>
        <time>2024-05-20T10:10:47.000Z</time>
      </trkpt>
      <trkpt lat="46.29905" lon="4.82669">
        <ele>178.19999694824</ele>
        <time>2024-05-20T10:10:48.000Z</time>
      </trkpt>
      <trkpt lat="46.29899" lon="4.82668">
        <ele>178.19999694824</ele>
        <time>2024-05-20T10:10:49.000Z</time>
      </trkpt>
      <trkpt lat="46.29894" lon="4.82669">
        <ele>178.19999694824</ele>
        <time>2024-05-20T10:10:50.000Z</time>
      </trkpt>
      <trkpt lat="46.29889" lon="4.82671">
        <ele>178.19999694824</ele>
        <time>2024-05-20T10:10:51.000Z</time>
      </trkpt>
      <trkpt lat="46.29885" lon="4.82675">
        <ele>178.39999389648</ele>
        <time>2024-05-20T10:10:52.000Z</time>
      </trkpt>
      <trkpt lat="46.29882" lon="4.8268">
        <ele>178.39999389648</ele>
        <time>2024-05-20T10:10:53.000Z</time>
      </trkpt>
      <trkpt lat="46.29879" lon="4.82686">
        <ele>178.39999389648</ele>
        <time>2024-05-20T10:10:54.000Z</time>
      </trkpt>
      <trkpt lat="46.29878" lon="4.82693">
        <ele>178.39999389648</ele>
        <time>2024-05-20T10:10:55.000Z</time>
      </trkpt>
      <trkpt lat="46.29877" lon="4.827">
        <ele>178.39999389648</ele>
        <time>2024-05-20T10:10:56.000Z</time>
      </trkpt>
      <trkpt lat="46.29878" lon="4.82708">
        <ele>178.39999389648</ele>
        <time>2024-05-20T10:10:57.000Z</time>
      </trkpt>
      <trkpt lat="46.29879" lon="4.82716">
        <ele>178.19999694824</ele>
        <time>2024-05-20T10:10:58.000Z</time>
      </trkpt>
      <trkpt lat="46.2988" lon="4.82725">
        <ele>178.19999694824</ele>
        <time>2024-05-20T10:10:59.000Z</time>
      </trkpt>
      <trkpt lat="46.29881" lon="4.82733">
        <ele>178.19999694824</ele>
        <time>2024-05-20T10:11:00.000Z</time>
      </trkpt>
      <trkpt lat="46.29881" lon="4.82741">
        <ele>178</ele>
        <time>2024-05-20T10:11:01.000Z</time>
      </trkpt>
      <trkpt lat="46.2988" lon="4.82749">
        <ele>178</ele>
        <time>2024-05-20T10:11:02.000Z</time>
      </trkpt>
      <trkpt lat="46.29878" lon="4.82756">
        <ele>178</ele>
        <time>2024-05-20T10:11:03.000Z</time>
      </trkpt>
      <trkpt lat="46.29875" lon="4.82762">
        <ele>178</ele>
        <time>2024-05-20T10:11:04.000Z</time>
      </trkpt>
      <trkpt lat="46.29872" lon="4.82767">
        <ele>178</ele>
        <time>2024-05-20T10:11:05.000Z</time>
      </trkpt>
      <trkpt lat="46.29869" lon="4.82772">
        <ele>178</ele>
        <time>2024-05-20T10:11:06.000Z</time>
      </trkpt>
      <trkpt lat="46.29867" lon="4.82777">
        <ele>178</ele>
        <time>2024-05-20T10:11:07.000Z</time>
      </trkpt>
      <trkpt lat="46.29865" lon="4.82782">
        <ele>178</ele>
        <time>2024-05-20T10:11:08.000Z</time>
      </trkpt>
      <trkpt lat="46.29862" lon="4.82787">
        <ele>178.19999694824</ele>
        <time>2024-05-20T10:11:09.000Z</time>
      </trkpt>
      <trkpt lat="46.2986" lon="4.82791">
        <ele>178.19999694824</ele>
        <time>2024-05-20T10:11:10.000Z</time>
      </trkpt>
      <trkpt lat="46.29858" lon="4.82796">
        <ele>178.19999694824</ele>
        <time>2024-05-20T10:11:11.000Z</time>
      </trkpt>
      <trkpt lat="46.29856" lon="4.82801">
        <ele>178</ele>
        <time>2024-05-20T10:11:12.000Z</time>
      </trkpt>
      <trkpt lat="46.29854" lon="4.82806">
        <ele>178</ele>
        <time>2024-05-20T10:11:13.000Z</time>
      </trkpt>
      <trkpt lat="46.29852" lon="4.82811">
        <ele>178</ele>
        <time>2024-05-20T10:11:14.000Z</time>
      </trkpt>
      <trkpt lat="46.2985" lon="4.82815">
        <ele>178</ele>
        <time>2024-05-20T10:11:15.000Z</time>
      </trkpt>
      <trkpt lat="46.29848" lon="4.8282">
        <ele>178</ele>
        <time>2024-05-20T10:11:16.000Z</time>
      </trkpt>
      <trkpt lat="46.29846" lon="4.82824">
        <ele>178</ele>
        <time>2024-05-20T10:11:17.000Z</time>
      </trkpt>
      <trkpt lat="46.29845" lon="4.82828">
        <ele>178</ele>
        <time>2024-05-20T10:11:18.000Z</time>
      </trkpt>
      <trkpt lat="46.29843" lon="4.82832">
        <ele>178</ele>
        <time>2024-05-20T10:11:19.000Z</time>
      </trkpt>
      <trkpt lat="46.2984" lon="4.82837">
        <ele>177.80000305176</ele>
        <time>2024-05-20T10:11:20.000Z</time>
      </trkpt>
      <trkpt lat="46.29838" lon="4.82841">
        <ele>177.80000305176</ele>
        <time>2024-05-20T10:11:21.000Z</time>
      </trkpt>
      <trkpt lat="46.29835" lon="4.82846">
        <ele>177.80000305176</ele>
        <time>2024-05-20T10:11:22.000Z</time>
      </trkpt>
      <trkpt lat="46.29833" lon="4.82851">
        <ele>177.80000305176</ele>
        <time>2024-05-20T10:11:23.000Z</time>
      </trkpt>
      <trkpt lat="46.2983" lon="4.82856">
        <ele>177.80000305176</ele>
        <time>2024-05-20T10:11:24.000Z</time>
      </trkpt>
      <trkpt lat="46.29827" lon="4.82861">
        <ele>177.60000610352</ele>
        <time>2024-05-20T10:11:25.000Z</time>
      </trkpt>
      <trkpt lat="46.29824" lon="4.82865">
        <ele>177.60000610352</ele>
        <time>2024-05-20T10:11:26.000Z</time>
      </trkpt>
      <trkpt lat="46.29822" lon="4.82869">
        <ele>177.60000610352</ele>
        <time>2024-05-20T10:11:27.000Z</time>
      </trkpt>
      <trkpt lat="46.2982" lon="4.82872">
        <ele>177.60000610352</ele>
        <time>2024-05-20T10:11:28.000Z</time>
      </trkpt>
      <trkpt lat="46.29819" lon="4.82875">
        <ele>177.60000610352</ele>
        <time>2024-05-20T10:11:29.000Z</time>
      </trkpt>
      <trkpt lat="46.29819" lon="4.82879">
        <ele>177.60000610352</ele>
        <time>2024-05-20T10:11:30.000Z</time>
      </trkpt>
      <trkpt lat="46.29818" lon="4.82883">
        <ele>177.80000305176</ele>
        <time>2024-05-20T10:11:31.000Z</time>
      </trkpt>
      <trkpt lat="46.29817" lon="4.82886">
        <ele>178</ele>
        <time>2024-05-20T10:11:32.000Z</time>
      </trkpt>
      <trkpt lat="46.29817" lon="4.82891">
        <ele>178</ele>
        <time>2024-05-20T10:11:33.000Z</time>
      </trkpt>
      <trkpt lat="46.29816" lon="4.82895">
        <ele>178.19999694824</ele>
        <time>2024-05-20T10:11:34.000Z</time>
      </trkpt>
      <trkpt lat="46.29813" lon="4.82899">
        <ele>178.19999694824</ele>
        <time>2024-05-20T10:11:35.000Z</time>
      </trkpt>
      <trkpt lat="46.29811" lon="4.82904">
        <ele>178.19999694824</ele>
        <time>2024-05-20T10:11:36.000Z</time>
      </trkpt>
      <trkpt lat="46.29809" lon="4.82908">
        <ele>178.39999389648</ele>
        <time>2024-05-20T10:11:37.000Z</time>
      </trkpt>
      <trkpt lat="46.29806" lon="4.82913">
        <ele>178.39999389648</ele>
        <time>2024-05-20T10:11:38.000Z</time>
      </trkpt>
      <trkpt lat="46.29803" lon="4.82918">
        <ele>178.39999389648</ele>
        <time>2024-05-20T10:11:39.000Z</time>
      </trkpt>
      <trkpt lat="46.298" lon="4.82923">
        <ele>178.39999389648</ele>
        <time>2024-05-20T10:11:40.000Z</time>
      </trkpt>
      <trkpt lat="46.29798" lon="4.82928">
        <ele>178.39999389648</ele>
        <time>2024-05-20T10:11:41.000Z</time>
      </trkpt>
      <trkpt lat="46.29796" lon="4.82933">
        <ele>178.39999389648</ele>
        <time>2024-05-20T10:11:42.000Z</time>
      </trkpt>
      <trkpt lat="46.29793" lon="4.82938">
        <ele>178.39999389648</ele>
        <time>2024-05-20T10:11:43.000Z</time>
      </trkpt>
      <trkpt lat="46.29791" lon="4.82943">
        <ele>178.19999694824</ele>
        <time>2024-05-20T10:11:44.000Z</time>
      </trkpt>
      <trkpt lat="46.29788" lon="4.82948">
        <ele>178</ele>
        <time>2024-05-20T10:11:45.000Z</time>
      </trkpt>
      <trkpt lat="46.29785" lon="4.82954">
        <ele>178</ele>
        <time>2024-05-20T10:11:46.000Z</time>
      </trkpt>
      <trkpt lat="46.29783" lon="4.82959">
        <ele>177.80000305176</ele>
        <time>2024-05-20T10:11:47.000Z</time>
      </trkpt>
      <trkpt lat="46.2978" lon="4.82965">
        <ele>177.60000610352</ele>
        <time>2024-05-20T10:11:48.000Z</time>
      </trkpt>
      <trkpt lat="46.29778" lon="4.8297">
        <ele>177.39999389648</ele>
        <time>2024-05-20T10:11:49.000Z</time>
      </trkpt>
      <trkpt lat="46.29776" lon="4.82976">
        <ele>177.39999389648</ele>
        <time>2024-05-20T10:11:50.000Z</time>
      </trkpt>
      <trkpt lat="46.29773" lon="4.82981">
        <ele>177.60000610352</ele>
        <time>2024-05-20T10:11:51.000Z</time>
      </trkpt>
      <trkpt lat="46.2977" lon="4.82987">
        <ele>177.60000610352</ele>
        <time>2024-05-20T10:11:52.000Z</time>
      </trkpt>
      <trkpt lat="46.29768" lon="4.82992">
        <ele>177.60000610352</ele>
        <time>2024-05-20T10:11:53.000Z</time>
      </trkpt>
      <trkpt lat="46.29766" lon="4.82997">
        <ele>177.80000305176</ele>
        <time>2024-05-20T10:11:54.000Z</time>
      </trkpt>
      <trkpt lat="46.29763" lon="4.83002">
        <ele>177.80000305176</ele>
        <time>2024-05-20T10:11:55.000Z</time>
      </trkpt>
      <trkpt lat="46.29761" lon="4.83006">
        <ele>177.80000305176</ele>
        <time>2024-05-20T10:11:56.000Z</time>
      </trkpt>
      <trkpt lat="46.29758" lon="4.83009">
        <ele>177.80000305176</ele>
        <time>2024-05-20T10:11:57.000Z</time>
      </trkpt>
      <trkpt lat="46.29755" lon="4.83009">
        <ele>177.80000305176</ele>
        <time>2024-05-20T10:11:58.000Z</time>
      </trkpt>
      <trkpt lat="46.29752" lon="4.83008">
        <ele>178</ele>
        <time>2024-05-20T10:11:59.000Z</time>
      </trkpt>
      <trkpt lat="46.29749" lon="4.83008">
        <ele>178</ele>
        <time>2024-05-20T10:12:00.000Z</time>
      </trkpt>
      <trkpt lat="46.29747" lon="4.8301">
        <ele>178.19999694824</ele>
        <time>2024-05-20T10:12:01.000Z</time>
      </trkpt>
      <trkpt lat="46.29745" lon="4.83014">
        <ele>178.19999694824</ele>
        <time>2024-05-20T10:12:02.000Z</time>
      </trkpt>
      <trkpt lat="46.29744" lon="4.83018">
        <ele>178.19999694824</ele>
        <time>2024-05-20T10:12:03.000Z</time>
      </trkpt>
      <trkpt lat="46.29743" lon="4.83022">
        <ele>178.19999694824</ele>
        <time>2024-05-20T10:12:04.000Z</time>
      </trkpt>
      <trkpt lat="46.29743" lon="4.83027">
        <ele>178.19999694824</ele>
        <time>2024-05-20T10:12:05.000Z</time>
      </trkpt>
      <trkpt lat="46.29743" lon="4.83032">
        <ele>178</ele>
        <time>2024-05-20T10:12:06.000Z</time>
      </trkpt>
      <trkpt lat="46.29744" lon="4.83035">
        <ele>178</ele>
        <time>2024-05-20T10:12:07.000Z</time>
      </trkpt>
      <trkpt lat="46.29746" lon="4.83038">
        <ele>178</ele>
        <time>2024-05-20T10:12:08.000Z</time>
      </trkpt>
      <trkpt lat="46.29747" lon="4.83042">
        <ele>178</ele>
        <time>2024-05-20T10:12:09.000Z</time>
      </trkpt>
      <trkpt lat="46.29748" lon="4.83046">
        <ele>178</ele>
        <time>2024-05-20T10:12:10.000Z</time>
      </trkpt>
      <trkpt lat="46.29749" lon="4.8305">
        <ele>178.39999389648</ele>
        <time>2024-05-20T10:12:11.000Z</time>
      </trkpt>
      <trkpt lat="46.29749" lon="4.83055">
        <ele>178.60000610352</ele>
        <time>2024-05-20T10:12:12.000Z</time>
      </trkpt>
      <trkpt lat="46.29749" lon="4.8306">
        <ele>178.80000305176</ele>
        <time>2024-05-20T10:12:13.000Z</time>
      </trkpt>
      <trkpt lat="46.29749" lon="4.83065">
        <ele>179</ele>
        <time>2024-05-20T10:12:14.000Z</time>
      </trkpt>
      <trkpt lat="46.29748" lon="4.8307">
        <ele>179.19999694824</ele>
        <time>2024-05-20T10:12:15.000Z</time>
      </trkpt>
      <trkpt lat="46.29748" lon="4.83075">
        <ele>179.39999389648</ele>
        <time>2024-05-20T10:12:16.000Z</time>
      </trkpt>
      <trkpt lat="46.29747" lon="4.8308">
        <ele>179.39999389648</ele>
        <time>2024-05-20T10:12:17.000Z</time>
      </trkpt>
      <trkpt lat="46.29747" lon="4.83085">
        <ele>179.60000610352</ele>
        <time>2024-05-20T10:12:18.000Z</time>
      </trkpt>
      <trkpt lat="46.29746" lon="4.8309">
        <ele>179.80000305176</ele>
        <time>2024-05-20T10:12:19.000Z</time>
      </trkpt>
      <trkpt lat="46.29746" lon="4.83095">
        <ele>180</ele>
        <time>2024-05-20T10:12:20.000Z</time>
      </trkpt>
      <trkpt lat="46.29745" lon="4.831">
        <ele>180.19999694824</ele>
        <time>2024-05-20T10:12:21.000Z</time>
      </trkpt>
      <trkpt lat="46.29745" lon="4.83105">
        <ele>180.39999389648</ele>
        <time>2024-05-20T10:12:22.000Z</time>
      </trkpt>
      <trkpt lat="46.29744" lon="4.8311">
        <ele>180.60000610352</ele>
        <time>2024-05-20T10:12:23.000Z</time>
      </trkpt>
      <trkpt lat="46.29744" lon="4.83115">
        <ele>180.80000305176</ele>
        <time>2024-05-20T10:12:24.000Z</time>
      </trkpt>
      <trkpt lat="46.29744" lon="4.83119">
        <ele>181</ele>
        <time>2024-05-20T10:12:25.000Z</time>
      </trkpt>
      <trkpt lat="46.29743" lon="4.83124">
        <ele>181.39999389648</ele>
        <time>2024-05-20T10:12:26.000Z</time>
      </trkpt>
      <trkpt lat="46.29743" lon="4.83129">
        <ele>181.60000610352</ele>
        <time>2024-05-20T10:12:27.000Z</time>
      </trkpt>
      <trkpt lat="46.29742" lon="4.83134">
        <ele>181.80000305176</ele>
        <time>2024-05-20T10:12:28.000Z</time>
      </trkpt>
      <trkpt lat="46.29742" lon="4.83138">
        <ele>182</ele>
        <time>2024-05-20T10:12:29.000Z</time>
      </trkpt>
      <trkpt lat="46.29742" lon="4.83143">
        <ele>182.19999694824</ele>
        <time>2024-05-20T10:12:30.000Z</time>
      </trkpt>
      <trkpt lat="46.29742" lon="4.83148">
        <ele>182.39999389648</ele>
        <time>2024-05-20T10:12:31.000Z</time>
      </trkpt>
      <trkpt lat="46.29741" lon="4.83153">
        <ele>182.60000610352</ele>
        <time>2024-05-20T10:12:32.000Z</time>
      </trkpt>
      <trkpt lat="46.29741" lon="4.83158">
        <ele>182.80000305176</ele>
        <time>2024-05-20T10:12:33.000Z</time>
      </trkpt>
      <trkpt lat="46.2974" lon="4.83164">
        <ele>183</ele>
        <time>2024-05-20T10:12:34.000Z</time>
      </trkpt>
      <trkpt lat="46.2974" lon="4.83169">
        <ele>183.19999694824</ele>
        <time>2024-05-20T10:12:35.000Z</time>
      </trkpt>
      <trkpt lat="46.29739" lon="4.83175">
        <ele>183.19999694824</ele>
        <time>2024-05-20T10:12:36.000Z</time>
      </trkpt>
      <trkpt lat="46.29739" lon="4.8318">
        <ele>183.39999389648</ele>
        <time>2024-05-20T10:12:37.000Z</time>
      </trkpt>
      <trkpt lat="46.29739" lon="4.83185">
        <ele>183.60000610352</ele>
        <time>2024-05-20T10:12:38.000Z</time>
      </trkpt>
      <trkpt lat="46.29738" lon="4.83191">
        <ele>183.60000610352</ele>
        <time>2024-05-20T10:12:39.000Z</time>
      </trkpt>
      <trkpt lat="46.29738" lon="4.83197">
        <ele>183.80000305176</ele>
        <time>2024-05-20T10:12:40.000Z</time>
      </trkpt>
      <trkpt lat="46.29737" lon="4.83203">
        <ele>183.80000305176</ele>
        <time>2024-05-20T10:12:41.000Z</time>
      </trkpt>
      <trkpt lat="46.29737" lon="4.83208">
        <ele>184</ele>
        <time>2024-05-20T10:12:42.000Z</time>
      </trkpt>
      <trkpt lat="46.29736" lon="4.83214">
        <ele>184</ele>
        <time>2024-05-20T10:12:43.000Z</time>
      </trkpt>
      <trkpt lat="46.29736" lon="4.8322">
        <ele>184</ele>
        <time>2024-05-20T10:12:44.000Z</time>
      </trkpt>
      <trkpt lat="46.29736" lon="4.83226">
        <ele>184.19999694824</ele>
        <time>2024-05-20T10:12:45.000Z</time>
      </trkpt>
      <trkpt lat="46.29735" lon="4.83233">
        <ele>184.19999694824</ele>
        <time>2024-05-20T10:12:46.000Z</time>
      </trkpt>
      <trkpt lat="46.29734" lon="4.83239">
        <ele>184.19999694824</ele>
        <time>2024-05-20T10:12:47.000Z</time>
      </trkpt>
      <trkpt lat="46.29734" lon="4.83246">
        <ele>184.19999694824</ele>
        <time>2024-05-20T10:12:48.000Z</time>
      </trkpt>
      <trkpt lat="46.29733" lon="4.83253">
        <ele>184.19999694824</ele>
        <time>2024-05-20T10:12:49.000Z</time>
      </trkpt>
      <trkpt lat="46.29733" lon="4.83259">
        <ele>184</ele>
        <time>2024-05-20T10:12:50.000Z</time>
      </trkpt>
      <trkpt lat="46.29732" lon="4.83267">
        <ele>184</ele>
        <time>2024-05-20T10:12:51.000Z</time>
      </trkpt>
      <trkpt lat="46.29732" lon="4.83274">
        <ele>184</ele>
        <time>2024-05-20T10:12:52.000Z</time>
      </trkpt>
      <trkpt lat="46.29731" lon="4.83282">
        <ele>183.80000305176</ele>
        <time>2024-05-20T10:12:53.000Z</time>
      </trkpt>
      <trkpt lat="46.2973" lon="4.8329">
        <ele>183.80000305176</ele>
        <time>2024-05-20T10:12:54.000Z</time>
      </trkpt>
      <trkpt lat="46.2973" lon="4.83298">
        <ele>183.60000610352</ele>
        <time>2024-05-20T10:12:55.000Z</time>
      </trkpt>
      <trkpt lat="46.29729" lon="4.83306">
        <ele>183.39999389648</ele>
        <time>2024-05-20T10:12:56.000Z</time>
      </trkpt>
      <trkpt lat="46.29728" lon="4.83314">
        <ele>183.19999694824</ele>
        <time>2024-05-20T10:12:57.000Z</time>
      </trkpt>
      <trkpt lat="46.29727" lon="4.83323">
        <ele>183</ele>
        <time>2024-05-20T10:12:58.000Z</time>
      </trkpt>
      <trkpt lat="46.29727" lon="4.83332">
        <ele>182.80000305176</ele>
        <time>2024-05-20T10:12:59.000Z</time>
      </trkpt>
      <trkpt lat="46.29726" lon="4.83341">
        <ele>182.60000610352</ele>
        <time>2024-05-20T10:13:00.000Z</time>
      </trkpt>
      <trkpt lat="46.29725" lon="4.83349">
        <ele>182.39999389648</ele>
        <time>2024-05-20T10:13:01.000Z</time>
      </trkpt>
      <trkpt lat="46.29724" lon="4.83358">
        <ele>182</ele>
        <time>2024-05-20T10:13:02.000Z</time>
      </trkpt>
      <trkpt lat="46.29723" lon="4.83366">
        <ele>181.80000305176</ele>
        <time>2024-05-20T10:13:03.000Z</time>
      </trkpt>
      <trkpt lat="46.29722" lon="4.83373">
        <ele>181.39999389648</ele>
        <time>2024-05-20T10:13:04.000Z</time>
      </trkpt>
      <trkpt lat="46.29721" lon="4.8338">
        <ele>181.19999694824</ele>
        <time>2024-05-20T10:13:05.000Z</time>
      </trkpt>
      <trkpt lat="46.29721" lon="4.83386">
        <ele>181</ele>
        <time>2024-05-20T10:13:06.000Z</time>
      </trkpt>
      <trkpt lat="46.2972" lon="4.83391">
        <ele>180.80000305176</ele>
        <time>2024-05-20T10:13:07.000Z</time>
      </trkpt>
      <trkpt lat="46.29718" lon="4.83396">
        <ele>180.60000610352</ele>
        <time>2024-05-20T10:13:08.000Z</time>
      </trkpt>
      <trkpt lat="46.29716" lon="4.834">
        <ele>180.60000610352</ele>
        <time>2024-05-20T10:13:09.000Z</time>
      </trkpt>
      <trkpt lat="46.29713" lon="4.83403">
        <ele>180.39999389648</ele>
        <time>2024-05-20T10:13:10.000Z</time>
      </trkpt>
      <trkpt lat="46.29709" lon="4.83407">
        <ele>180.19999694824</ele>
        <time>2024-05-20T10:13:11.000Z</time>
      </trkpt>
      <trkpt lat="46.29705" lon="4.83411">
        <ele>180.19999694824</ele>
        <time>2024-05-20T10:13:12.000Z</time>
      </trkpt>
      <trkpt lat="46.29703" lon="4.83416">
        <ele>180</ele>
        <time>2024-05-20T10:13:13.000Z</time>
      </trkpt>
      <trkpt lat="46.297" lon="4.83421">
        <ele>179.80000305176</ele>
        <time>2024-05-20T10:13:14.000Z</time>
      </trkpt>
      <trkpt lat="46.29697" lon="4.83426">
        <ele>179.60000610352</ele>
        <time>2024-05-20T10:13:15.000Z</time>
      </trkpt>
      <trkpt lat="46.29694" lon="4.83431">
        <ele>179.60000610352</ele>
        <time>2024-05-20T10:13:16.000Z</time>
      </trkpt>
      <trkpt lat="46.29689" lon="4.83434">
        <ele>179.60000610352</ele>
        <time>2024-05-20T10:13:17.000Z</time>
      </trkpt>
      <trkpt lat="46.29684" lon="4.83437">
        <ele>179.39999389648</ele>
        <time>2024-05-20T10:13:18.000Z</time>
      </trkpt>
      <trkpt lat="46.29679" lon="4.83439">
        <ele>179.19999694824</ele>
        <time>2024-05-20T10:13:19.000Z</time>
      </trkpt>
      <trkpt lat="46.29673" lon="4.83441">
        <ele>179</ele>
        <time>2024-05-20T10:13:20.000Z</time>
      </trkpt>
      <trkpt lat="46.29668" lon="4.83443">
        <ele>178.80000305176</ele>
        <time>2024-05-20T10:13:21.000Z</time>
      </trkpt>
      <trkpt lat="46.29662" lon="4.83445">
        <ele>178.39999389648</ele>
        <time>2024-05-20T10:13:22.000Z</time>
      </trkpt>
      <trkpt lat="46.29656" lon="4.83447">
        <ele>178.19999694824</ele>
        <time>2024-05-20T10:13:23.000Z</time>
      </trkpt>
      <trkpt lat="46.2965" lon="4.83449">
        <ele>178</ele>
        <time>2024-05-20T10:13:24.000Z</time>
      </trkpt>
      <trkpt lat="46.29644" lon="4.83451">
        <ele>177.80000305176</ele>
        <time>2024-05-20T10:13:25.000Z</time>
      </trkpt>
      <trkpt lat="46.29638" lon="4.83453">
        <ele>177.60000610352</ele>
        <time>2024-05-20T10:13:26.000Z</time>
      </trkpt>
      <trkpt lat="46.29632" lon="4.83455">
        <ele>177.39999389648</ele>
        <time>2024-05-20T10:13:27.000Z</time>
      </trkpt>
      <trkpt lat="46.29626" lon="4.83457">
        <ele>177.19999694824</ele>
        <time>2024-05-20T10:13:28.000Z</time>
      </trkpt>
      <trkpt lat="46.2962" lon="4.83459">
        <ele>177.19999694824</ele>
        <time>2024-05-20T10:13:29.000Z</time>
      </trkpt>
      <trkpt lat="46.29615" lon="4.83462">
        <ele>177.19999694824</ele>
        <time>2024-05-20T10:13:30.000Z</time>
      </trkpt>
      <trkpt lat="46.29609" lon="4.83463">
        <ele>177.19999694824</ele>
        <time>2024-05-20T10:13:31.000Z</time>
      </trkpt>
      <trkpt lat="46.29604" lon="4.83465">
        <ele>177.19999694824</ele>
        <time>2024-05-20T10:13:32.000Z</time>
      </trkpt>
      <trkpt lat="46.29599" lon="4.83466">
        <ele>177.19999694824</ele>
        <time>2024-05-20T10:13:33.000Z</time>
      </trkpt>
      <trkpt lat="46.29593" lon="4.83468">
        <ele>177.39999389648</ele>
        <time>2024-05-20T10:13:34.000Z</time>
      </trkpt>
      <trkpt lat="46.29588" lon="4.8347">
        <ele>177.60000610352</ele>
        <time>2024-05-20T10:13:35.000Z</time>
      </trkpt>
      <trkpt lat="46.29583" lon="4.83471">
        <ele>177.80000305176</ele>
        <time>2024-05-20T10:13:36.000Z</time>
      </trkpt>
      <trkpt lat="46.29578" lon="4.83473">
        <ele>177.80000305176</ele>
        <time>2024-05-20T10:13:37.000Z</time>
      </trkpt>
      <trkpt lat="46.29573" lon="4.83475">
        <ele>178</ele>
        <time>2024-05-20T10:13:38.000Z</time>
      </trkpt>
      <trkpt lat="46.29569" lon="4.83476">
        <ele>178.19999694824</ele>
        <time>2024-05-20T10:13:39.000Z</time>
      </trkpt>
      <trkpt lat="46.29564" lon="4.83478">
        <ele>178.39999389648</ele>
        <time>2024-05-20T10:13:40.000Z</time>
      </trkpt>
      <trkpt lat="46.29559" lon="4.83479">
        <ele>178.80000305176</ele>
        <time>2024-05-20T10:13:41.000Z</time>
      </trkpt>
      <trkpt lat="46.29554" lon="4.83481">
        <ele>179</ele>
        <time>2024-05-20T10:13:42.000Z</time>
      </trkpt>
      <trkpt lat="46.2955" lon="4.83483">
        <ele>179.19999694824</ele>
        <time>2024-05-20T10:13:43.000Z</time>
      </trkpt>
      <trkpt lat="46.29545" lon="4.83484">
        <ele>179.39999389648</ele>
        <time>2024-05-20T10:13:44.000Z</time>
      </trkpt>
      <trkpt lat="46.29541" lon="4.83486">
        <ele>179.60000610352</ele>
        <time>2024-05-20T10:13:45.000Z</time>
      </trkpt>
      <trkpt lat="46.29536" lon="4.83487">
        <ele>179.80000305176</ele>
        <time>2024-05-20T10:13:46.000Z</time>
      </trkpt>
      <trkpt lat="46.29532" lon="4.83489">
        <ele>180</ele>
        <time>2024-05-20T10:13:47.000Z</time>
      </trkpt>
      <trkpt lat="46.29527" lon="4.8349">
        <ele>180.19999694824</ele>
        <time>2024-05-20T10:13:48.000Z</time>
      </trkpt>
      <trkpt lat="46.29523" lon="4.83492">
        <ele>180.19999694824</ele>
        <time>2024-05-20T10:13:49.000Z</time>
      </trkpt>
      <trkpt lat="46.29519" lon="4.83495">
        <ele>180.39999389648</ele>
        <time>2024-05-20T10:13:50.000Z</time>
      </trkpt>
      <trkpt lat="46.29515" lon="4.83497">
        <ele>180.60000610352</ele>
        <time>2024-05-20T10:13:51.000Z</time>
      </trkpt>
      <trkpt lat="46.29511" lon="4.83499">
        <ele>181</ele>
        <time>2024-05-20T10:13:52.000Z</time>
      </trkpt>
      <trkpt lat="46.29507" lon="4.83501">
        <ele>181.19999694824</ele>
        <time>2024-05-20T10:13:53.000Z</time>
      </trkpt>
      <trkpt lat="46.29503" lon="4.83504">
        <ele>181.39999389648</ele>
        <time>2024-05-20T10:13:54.000Z</time>
      </trkpt>
      <trkpt lat="46.29499" lon="4.83507">
        <ele>181.60000610352</ele>
        <time>2024-05-20T10:13:55.000Z</time>
      </trkpt>
      <trkpt lat="46.29495" lon="4.8351">
        <ele>182</ele>
        <time>2024-05-20T10:13:56.000Z</time>
      </trkpt>
      <trkpt lat="46.29491" lon="4.83513">
        <ele>182.19999694824</ele>
        <time>2024-05-20T10:13:57.000Z</time>
      </trkpt>
      <trkpt lat="46.29487" lon="4.83516">
        <ele>182.19999694824</ele>
        <time>2024-05-20T10:13:58.000Z</time>
      </trkpt>
      <trkpt lat="46.29483" lon="4.83519">
        <ele>182.19999694824</ele>
        <time>2024-05-20T10:13:59.000Z</time>
      </trkpt>
      <trkpt lat="46.29479" lon="4.83522">
        <ele>182.39999389648</ele>
        <time>2024-05-20T10:14:00.000Z</time>
      </trkpt>
      <trkpt lat="46.29475" lon="4.83525">
        <ele>182.39999389648</ele>
        <time>2024-05-20T10:14:01.000Z</time>
      </trkpt>
      <trkpt lat="46.29472" lon="4.83528">
        <ele>182.39999389648</ele>
        <time>2024-05-20T10:14:02.000Z</time>
      </trkpt>
      <trkpt lat="46.29468" lon="4.83532">
        <ele>182.60000610352</ele>
        <time>2024-05-20T10:14:03.000Z</time>
      </trkpt>
      <trkpt lat="46.29464" lon="4.83535">
        <ele>182.80000305176</ele>
        <time>2024-05-20T10:14:04.000Z</time>
      </trkpt>
      <trkpt lat="46.2946" lon="4.83538">
        <ele>182.80000305176</ele>
        <time>2024-05-20T10:14:05.000Z</time>
      </trkpt>
      <trkpt lat="46.29456" lon="4.83541">
        <ele>182.80000305176</ele>
        <time>2024-05-20T10:14:06.000Z</time>
      </trkpt>
      <trkpt lat="46.29452" lon="4.83545">
        <ele>182.80000305176</ele>
        <time>2024-05-20T10:14:07.000Z</time>
      </trkpt>
      <trkpt lat="46.29449" lon="4.83548">
        <ele>182.80000305176</ele>
        <time>2024-05-20T10:14:08.000Z</time>
      </trkpt>
      <trkpt lat="46.29445" lon="4.83551">
        <ele>183</ele>
        <time>2024-05-20T10:14:09.000Z</time>
      </trkpt>
      <trkpt lat="46.29441" lon="4.83554">
        <ele>183</ele>
        <time>2024-05-20T10:14:10.000Z</time>
      </trkpt>
      <trkpt lat="46.29437" lon="4.83557">
        <ele>183</ele>
        <time>2024-05-20T10:14:11.000Z</time>
      </trkpt>
      <trkpt lat="46.29433" lon="4.8356">
        <ele>183.19999694824</ele>
        <time>2024-05-20T10:14:12.000Z</time>
      </trkpt>
      <trkpt lat="46.29429" lon="4.83563">
        <ele>183.19999694824</ele>
        <time>2024-05-20T10:14:13.000Z</time>
      </trkpt>
      <trkpt lat="46.29425" lon="4.83567">
        <ele>183.39999389648</ele>
        <time>2024-05-20T10:14:14.000Z</time>
      </trkpt>
      <trkpt lat="46.29422" lon="4.8357">
        <ele>183.39999389648</ele>
        <time>2024-05-20T10:14:15.000Z</time>
      </trkpt>
      <trkpt lat="46.29418" lon="4.83573">
        <ele>183.39999389648</ele>
        <time>2024-05-20T10:14:16.000Z</time>
      </trkpt>
      <trkpt lat="46.29414" lon="4.83576">
        <ele>183.60000610352</ele>
        <time>2024-05-20T10:14:17.000Z</time>
      </trkpt>
      <trkpt lat="46.2941" lon="4.83579">
        <ele>183.60000610352</ele>
        <time>2024-05-20T10:14:18.000Z</time>
      </trkpt>
      <trkpt lat="46.29406" lon="4.83583">
        <ele>183.60000610352</ele>
        <time>2024-05-20T10:14:19.000Z</time>
      </trkpt>
      <trkpt lat="46.29402" lon="4.83586">
        <ele>183.60000610352</ele>
        <time>2024-05-20T10:14:20.000Z</time>
      </trkpt>
      <trkpt lat="46.29398" lon="4.83589">
        <ele>183.60000610352</ele>
        <time>2024-05-20T10:14:21.000Z</time>
      </trkpt>
      <trkpt lat="46.29394" lon="4.83593">
        <ele>183.60000610352</ele>
        <time>2024-05-20T10:14:22.000Z</time>
      </trkpt>
      <trkpt lat="46.2939" lon="4.83596">
        <ele>183.60000610352</ele>
        <time>2024-05-20T10:14:23.000Z</time>
      </trkpt>
      <trkpt lat="46.29386" lon="4.836">
        <ele>183.60000610352</ele>
        <time>2024-05-20T10:14:24.000Z</time>
      </trkpt>
      <trkpt lat="46.29381" lon="4.83603">
        <ele>183.80000305176</ele>
        <time>2024-05-20T10:14:25.000Z</time>
      </trkpt>
      <trkpt lat="46.29377" lon="4.83606">
        <ele>183.80000305176</ele>
        <time>2024-05-20T10:14:26.000Z</time>
      </trkpt>
      <trkpt lat="46.29373" lon="4.83609">
        <ele>183.80000305176</ele>
        <time>2024-05-20T10:14:27.000Z</time>
      </trkpt>
      <trkpt lat="46.29369" lon="4.83613">
        <ele>183.80000305176</ele>
        <time>2024-05-20T10:14:28.000Z</time>
      </trkpt>
      <trkpt lat="46.29364" lon="4.83617">
        <ele>183.80000305176</ele>
        <time>2024-05-20T10:14:29.000Z</time>
      </trkpt>
      <trkpt lat="46.2936" lon="4.8362">
        <ele>184</ele>
        <time>2024-05-20T10:14:30.000Z</time>
      </trkpt>
      <trkpt lat="46.29356" lon="4.83624">
        <ele>184</ele>
        <time>2024-05-20T10:14:31.000Z</time>
      </trkpt>
      <trkpt lat="46.29351" lon="4.83628">
        <ele>184</ele>
        <time>2024-05-20T10:14:32.000Z</time>
      </trkpt>
      <trkpt lat="46.29347" lon="4.83632">
        <ele>184</ele>
        <time>2024-05-20T10:14:33.000Z</time>
      </trkpt>
      <trkpt lat="46.29342" lon="4.83635">
        <ele>184</ele>
        <time>2024-05-20T10:14:34.000Z</time>
      </trkpt>
      <trkpt lat="46.29338" lon="4.83639">
        <ele>184</ele>
        <time>2024-05-20T10:14:35.000Z</time>
      </trkpt>
      <trkpt lat="46.29333" lon="4.83643">
        <ele>184</ele>
        <time>2024-05-20T10:14:36.000Z</time>
      </trkpt>
      <trkpt lat="46.29328" lon="4.83647">
        <ele>183.80000305176</ele>
        <time>2024-05-20T10:14:37.000Z</time>
      </trkpt>
      <trkpt lat="46.29323" lon="4.83651">
        <ele>183.80000305176</ele>
        <time>2024-05-20T10:14:38.000Z</time>
      </trkpt>
      <trkpt lat="46.29318" lon="4.83654">
        <ele>183.80000305176</ele>
        <time>2024-05-20T10:14:39.000Z</time>
      </trkpt>
      <trkpt lat="46.29314" lon="4.83658">
        <ele>183.60000610352</ele>
        <time>2024-05-20T10:14:40.000Z</time>
      </trkpt>
      <trkpt lat="46.29309" lon="4.83662">
        <ele>183.60000610352</ele>
        <time>2024-05-20T10:14:41.000Z</time>
      </trkpt>
      <trkpt lat="46.29304" lon="4.83666">
        <ele>183.60000610352</ele>
        <time>2024-05-20T10:14:42.000Z</time>
      </trkpt>
      <trkpt lat="46.29299" lon="4.83669">
        <ele>183.39999389648</ele>
        <time>2024-05-20T10:14:43.000Z</time>
      </trkpt>
      <trkpt lat="46.29295" lon="4.83673">
        <ele>183.39999389648</ele>
        <time>2024-05-20T10:14:44.000Z</time>
      </trkpt>
      <trkpt lat="46.29289" lon="4.83677">
        <ele>183.19999694824</ele>
        <time>2024-05-20T10:14:45.000Z</time>
      </trkpt>
      <trkpt lat="46.29284" lon="4.83681">
        <ele>182.80000305176</ele>
        <time>2024-05-20T10:14:46.000Z</time>
      </trkpt>
      <trkpt lat="46.29279" lon="4.83685">
        <ele>182.80000305176</ele>
        <time>2024-05-20T10:14:47.000Z</time>
      </trkpt>
      <trkpt lat="46.29274" lon="4.83689">
        <ele>182.39999389648</ele>
        <time>2024-05-20T10:14:48.000Z</time>
      </trkpt>
      <trkpt lat="46.29269" lon="4.83694">
        <ele>182.39999389648</ele>
        <time>2024-05-20T10:14:49.000Z</time>
      </trkpt>
      <trkpt lat="46.29263" lon="4.83698">
        <ele>182</ele>
        <time>2024-05-20T10:14:50.000Z</time>
      </trkpt>
      <trkpt lat="46.29257" lon="4.83702">
        <ele>182</ele>
        <time>2024-05-20T10:14:51.000Z</time>
      </trkpt>
      <trkpt lat="46.29252" lon="4.83706">
        <ele>181.39999389648</ele>
        <time>2024-05-20T10:14:52.000Z</time>
      </trkpt>
      <trkpt lat="46.29246" lon="4.83709">
        <ele>181</ele>
        <time>2024-05-20T10:14:53.000Z</time>
      </trkpt>
      <trkpt lat="46.2924" lon="4.83713">
        <ele>180.39999389648</ele>
        <time>2024-05-20T10:14:54.000Z</time>
      </trkpt>
      <trkpt lat="46.29233" lon="4.83716">
        <ele>179.80000305176</ele>
        <time>2024-05-20T10:14:55.000Z</time>
      </trkpt>
      <trkpt lat="46.29227" lon="4.83718">
        <ele>179.60000610352</ele>
        <time>2024-05-20T10:14:56.000Z</time>
      </trkpt>
      <trkpt lat="46.29221" lon="4.83721">
        <ele>179.39999389648</ele>
        <time>2024-05-20T10:14:57.000Z</time>
      </trkpt>
      <trkpt lat="46.29214" lon="4.83722">
        <ele>179</ele>
        <time>2024-05-20T10:14:58.000Z</time>
      </trkpt>
      <trkpt lat="46.29207" lon="4.83724">
        <ele>179</ele>
        <time>2024-05-20T10:14:59.000Z</time>
      </trkpt>
      <trkpt lat="46.292" lon="4.83725">
        <ele>178.60000610352</ele>
        <time>2024-05-20T10:15:00.000Z</time>
      </trkpt>
      <trkpt lat="46.29193" lon="4.83726">
        <ele>178.60000610352</ele>
        <time>2024-05-20T10:15:01.000Z</time>
      </trkpt>
      <trkpt lat="46.29186" lon="4.83727">
        <ele>178.19999694824</ele>
        <time>2024-05-20T10:15:02.000Z</time>
      </trkpt>
      <trkpt lat="46.29178" lon="4.83727">
        <ele>178</ele>
        <time>2024-05-20T10:15:03.000Z</time>
      </trkpt>
      <trkpt lat="46.29172" lon="4.83727">
        <ele>177.80000305176</ele>
        <time>2024-05-20T10:15:04.000Z</time>
      </trkpt>
      <trkpt lat="46.29165" lon="4.83726">
        <ele>177.60000610352</ele>
        <time>2024-05-20T10:15:05.000Z</time>
      </trkpt>
      <trkpt lat="46.29156" lon="4.83724">
        <ele>177.19999694824</ele>
        <time>2024-05-20T10:15:06.000Z</time>
      </trkpt>
      <trkpt lat="46.29148" lon="4.83722">
        <ele>176.80000305176</ele>
        <time>2024-05-20T10:15:07.000Z</time>
      </trkpt>
      <trkpt lat="46.29141" lon="4.8372">
        <ele>176.39999389648</ele>
        <time>2024-05-20T10:15:08.000Z</time>
      </trkpt>
      <trkpt lat="46.29133" lon="4.83716">
        <ele>176</ele>
        <time>2024-05-20T10:15:09.000Z</time>
      </trkpt>
      <trkpt lat="46.29125" lon="4.83713">
        <ele>175.80000305176</ele>
        <time>2024-05-20T10:15:10.000Z</time>
      </trkpt>
      <trkpt lat="46.29118" lon="4.83709">
        <ele>175.80000305176</ele>
        <time>2024-05-20T10:15:11.000Z</time>
      </trkpt>
      <trkpt lat="46.2911" lon="4.83705">
        <ele>175.39999389648</ele>
        <time>2024-05-20T10:15:12.000Z</time>
      </trkpt>
      <trkpt lat="46.29103" lon="4.837">
        <ele>175</ele>
        <time>2024-05-20T10:15:13.000Z</time>
      </trkpt>
      <trkpt lat="46.29097" lon="4.83695">
        <ele>175</ele>
        <time>2024-05-20T10:15:14.000Z</time>
      </trkpt>
      <trkpt lat="46.2909" lon="4.83689">
        <ele>175</ele>
        <time>2024-05-20T10:15:15.000Z</time>
      </trkpt>
      <trkpt lat="46.29083" lon="4.83683">
        <ele>174.60000610352</ele>
        <time>2024-05-20T10:15:16.000Z</time>
      </trkpt>
      <trkpt lat="46.29077" lon="4.83677">
        <ele>174</ele>
        <time>2024-05-20T10:15:17.000Z</time>
      </trkpt>
      <trkpt lat="46.29072" lon="4.83671">
        <ele>174</ele>
        <time>2024-05-20T10:15:18.000Z</time>
      </trkpt>
      <trkpt lat="46.29066" lon="4.83664">
        <ele>173.80000305176</ele>
        <time>2024-05-20T10:15:19.000Z</time>
      </trkpt>
      <trkpt lat="46.29061" lon="4.83658">
        <ele>173.80000305176</ele>
        <time>2024-05-20T10:15:20.000Z</time>
      </trkpt>
      <trkpt lat="46.29056" lon="4.83651">
        <ele>173.80000305176</ele>
        <time>2024-05-20T10:15:21.000Z</time>
      </trkpt>
      <trkpt lat="46.29051" lon="4.83644">
        <ele>173.80000305176</ele>
        <time>2024-05-20T10:15:22.000Z</time>
      </trkpt>
      <trkpt lat="46.29047" lon="4.83636">
        <ele>173.60000610352</ele>
        <time>2024-05-20T10:15:23.000Z</time>
      </trkpt>
      <trkpt lat="46.29043" lon="4.83629">
        <ele>173.60000610352</ele>
        <time>2024-05-20T10:15:24.000Z</time>
      </trkpt>
      <trkpt lat="46.29039" lon="4.83621">
        <ele>173.60000610352</ele>
        <time>2024-05-20T10:15:25.000Z</time>
      </trkpt>
      <trkpt lat="46.29035" lon="4.83614">
        <ele>173.19999694824</ele>
        <time>2024-05-20T10:15:26.000Z</time>
      </trkpt>
      <trkpt lat="46.29031" lon="4.83606">
        <ele>173.19999694824</ele>
        <time>2024-05-20T10:15:27.000Z</time>
      </trkpt>
      <trkpt lat="46.29028" lon="4.83598">
        <ele>173.19999694824</ele>
        <time>2024-05-20T10:15:28.000Z</time>
      </trkpt>
      <trkpt lat="46.29025" lon="4.8359">
        <ele>173.19999694824</ele>
        <time>2024-05-20T10:15:29.000Z</time>
      </trkpt>
      <trkpt lat="46.29022" lon="4.83582">
        <ele>173.19999694824</ele>
        <time>2024-05-20T10:15:30.000Z</time>
      </trkpt>
      <trkpt lat="46.29019" lon="4.83573">
        <ele>173.19999694824</ele>
        <time>2024-05-20T10:15:31.000Z</time>
      </trkpt>
      <trkpt lat="46.29017" lon="4.83565">
        <ele>173.19999694824</ele>
        <time>2024-05-20T10:15:32.000Z</time>
      </trkpt>
      <trkpt lat="46.29014" lon="4.83557">
        <ele>173.39999389648</ele>
        <time>2024-05-20T10:15:33.000Z</time>
      </trkpt>
      <trkpt lat="46.29012" lon="4.83548">
        <ele>173.39999389648</ele>
        <time>2024-05-20T10:15:34.000Z</time>
      </trkpt>
      <trkpt lat="46.29009" lon="4.8354">
        <ele>173.60000610352</ele>
        <time>2024-05-20T10:15:35.000Z</time>
      </trkpt>
      <trkpt lat="46.29007" lon="4.83532">
        <ele>173.60000610352</ele>
        <time>2024-05-20T10:15:36.000Z</time>
      </trkpt>
      <trkpt lat="46.29004" lon="4.83524">
        <ele>173.80000305176</ele>
        <time>2024-05-20T10:15:37.000Z</time>
      </trkpt>
      <trkpt lat="46.29002" lon="4.83515">
        <ele>173.80000305176</ele>
        <time>2024-05-20T10:15:38.000Z</time>
      </trkpt>
      <trkpt lat="46.28999" lon="4.83507">
        <ele>173.80000305176</ele>
        <time>2024-05-20T10:15:39.000Z</time>
      </trkpt>
      <trkpt lat="46.28997" lon="4.83498">
        <ele>174</ele>
        <time>2024-05-20T10:15:40.000Z</time>
      </trkpt>
      <trkpt lat="46.28994" lon="4.8349">
        <ele>174</ele>
        <time>2024-05-20T10:15:41.000Z</time>
      </trkpt>
      <trkpt lat="46.28992" lon="4.83482">
        <ele>174</ele>
        <time>2024-05-20T10:15:42.000Z</time>
      </trkpt>
      <trkpt lat="46.2899" lon="4.83473">
        <ele>174</ele>
        <time>2024-05-20T10:15:43.000Z</time>
      </trkpt>
      <trkpt lat="46.28987" lon="4.83465">
        <ele>174</ele>
        <time>2024-05-20T10:15:44.000Z</time>
      </trkpt>
      <trkpt lat="46.28985" lon="4.83457">
        <ele>174</ele>
        <time>2024-05-20T10:15:45.000Z</time>
      </trkpt>
      <trkpt lat="46.28982" lon="4.83448">
        <ele>174</ele>
        <time>2024-05-20T10:15:46.000Z</time>
      </trkpt>
      <trkpt lat="46.2898" lon="4.8344">
        <ele>174</ele>
        <time>2024-05-20T10:15:47.000Z</time>
      </trkpt>
      <trkpt lat="46.28977" lon="4.83432">
        <ele>174</ele>
        <time>2024-05-20T10:15:48.000Z</time>
      </trkpt>
      <trkpt lat="46.28975" lon="4.83424">
        <ele>174</ele>
        <time>2024-05-20T10:15:49.000Z</time>
      </trkpt>
      <trkpt lat="46.28973" lon="4.83416">
        <ele>174</ele>
        <time>2024-05-20T10:15:50.000Z</time>
      </trkpt>
      <trkpt lat="46.2897" lon="4.83408">
        <ele>174</ele>
        <time>2024-05-20T10:15:51.000Z</time>
      </trkpt>
      <trkpt lat="46.28968" lon="4.834">
        <ele>174</ele>
        <time>2024-05-20T10:15:52.000Z</time>
      </trkpt>
      <trkpt lat="46.28965" lon="4.83392">
        <ele>174.19999694824</ele>
        <time>2024-05-20T10:15:53.000Z</time>
      </trkpt>
      <trkpt lat="46.28963" lon="4.83384">
        <ele>174.19999694824</ele>
        <time>2024-05-20T10:15:54.000Z</time>
      </trkpt>
      <trkpt lat="46.28961" lon="4.83376">
        <ele>174.19999694824</ele>
        <time>2024-05-20T10:15:55.000Z</time>
      </trkpt>
      <trkpt lat="46.28958" lon="4.83368">
        <ele>174.19999694824</ele>
        <time>2024-05-20T10:15:56.000Z</time>
      </trkpt>
      <trkpt lat="46.28956" lon="4.8336">
        <ele>174.19999694824</ele>
        <time>2024-05-20T10:15:57.000Z</time>
      </trkpt>
      <trkpt lat="46.28953" lon="4.83352">
        <ele>174.19999694824</ele>
        <time>2024-05-20T10:15:58.000Z</time>
      </trkpt>
      <trkpt lat="46.28951" lon="4.83345">
        <ele>174.19999694824</ele>
        <time>2024-05-20T10:15:59.000Z</time>
      </trkpt>
      <trkpt lat="46.28948" lon="4.83337">
        <ele>174.19999694824</ele>
        <time>2024-05-20T10:16:00.000Z</time>
      </trkpt>
      <trkpt lat="46.28945" lon="4.83329">
        <ele>174</ele>
        <time>2024-05-20T10:16:01.000Z</time>
      </trkpt>
      <trkpt lat="46.28942" lon="4.83322">
        <ele>174</ele>
        <time>2024-05-20T10:16:02.000Z</time>
      </trkpt>
      <trkpt lat="46.28939" lon="4.83315">
        <ele>174</ele>
        <time>2024-05-20T10:16:03.000Z</time>
      </trkpt>
      <trkpt lat="46.28935" lon="4.83308">
        <ele>174</ele>
        <time>2024-05-20T10:16:04.000Z</time>
      </trkpt>
      <trkpt lat="46.28932" lon="4.83301">
        <ele>174</ele>
        <time>2024-05-20T10:16:05.000Z</time>
      </trkpt>
      <trkpt lat="46.28928" lon="4.83294">
        <ele>174.19999694824</ele>
        <time>2024-05-20T10:16:06.000Z</time>
      </trkpt>
      <trkpt lat="46.28924" lon="4.83287">
        <ele>174.19999694824</ele>
        <time>2024-05-20T10:16:07.000Z</time>
      </trkpt>
      <trkpt lat="46.2892" lon="4.83281">
        <ele>174.19999694824</ele>
        <time>2024-05-20T10:16:08.000Z</time>
      </trkpt>
      <trkpt lat="46.28916" lon="4.83274">
        <ele>174.39999389648</ele>
        <time>2024-05-20T10:16:09.000Z</time>
      </trkpt>
      <trkpt lat="46.28913" lon="4.83267">
        <ele>174.39999389648</ele>
        <time>2024-05-20T10:16:10.000Z</time>
      </trkpt>
      <trkpt lat="46.28909" lon="4.83261">
        <ele>174.39999389648</ele>
        <time>2024-05-20T10:16:11.000Z</time>
      </trkpt>
      <trkpt lat="46.28906" lon="4.83255">
        <ele>174.39999389648</ele>
        <time>2024-05-20T10:16:12.000Z</time>
      </trkpt>
      <trkpt lat="46.28903" lon="4.83248">
        <ele>174.39999389648</ele>
        <time>2024-05-20T10:16:13.000Z</time>
      </trkpt>
      <trkpt lat="46.289" lon="4.83242">
        <ele>174.39999389648</ele>
        <time>2024-05-20T10:16:14.000Z</time>
      </trkpt>
      <trkpt lat="46.28896" lon="4.83237">
        <ele>174.39999389648</ele>
        <time>2024-05-20T10:16:15.000Z</time>
      </trkpt>
      <trkpt lat="46.28893" lon="4.83232">
        <ele>174.39999389648</ele>
        <time>2024-05-20T10:16:16.000Z</time>
      </trkpt>
      <trkpt lat="46.28891" lon="4.83228">
        <ele>174.39999389648</ele>
        <time>2024-05-20T10:16:17.000Z</time>
      </trkpt>
      <trkpt lat="46.28888" lon="4.83224">
        <ele>174.60000610352</ele>
        <time>2024-05-20T10:16:18.000Z</time>
      </trkpt>
      <trkpt lat="46.28886" lon="4.83221">
        <ele>174.60000610352</ele>
        <time>2024-05-20T10:16:19.000Z</time>
      </trkpt>
      <trkpt lat="46.28884" lon="4.83218">
        <ele>174.80000305176</ele>
        <time>2024-05-20T10:16:20.000Z</time>
      </trkpt>
      <trkpt lat="46.28883" lon="4.83216">
        <ele>174.80000305176</ele>
        <time>2024-05-20T10:16:21.000Z</time>
      </trkpt>
      <trkpt lat="46.28882" lon="4.83216">
        <ele>175</ele>
        <time>2024-05-20T10:16:22.000Z</time>
      </trkpt>
      <trkpt lat="46.28882" lon="4.83216">
        <ele>175.19999694824</ele>
        <time>2024-05-20T10:16:23.000Z</time>
      </trkpt>
      <trkpt lat="46.28882" lon="4.83216">
        <ele>175.19999694824</ele>
        <time>2024-05-20T10:16:24.000Z</time>
      </trkpt>
      <trkpt lat="46.2888" lon="4.83214">
        <ele>175.19999694824</ele>
        <time>2024-05-20T10:17:01.000Z</time>
      </trkpt>
      <trkpt lat="46.28878" lon="4.83213">
        <ele>175.19999694824</ele>
        <time>2024-05-20T10:17:02.000Z</time>
      </trkpt>
      <trkpt lat="46.28876" lon="4.83212">
        <ele>175.19999694824</ele>
        <time>2024-05-20T10:17:03.000Z</time>
      </trkpt>
      <trkpt lat="46.28873" lon="4.83211">
        <ele>175</ele>
        <time>2024-05-20T10:17:04.000Z</time>
      </trkpt>
      <trkpt lat="46.28871" lon="4.83211">
        <ele>175</ele>
        <time>2024-05-20T10:17:05.000Z</time>
      </trkpt>
      <trkpt lat="46.28869" lon="4.83212">
        <ele>174.80000305176</ele>
        <time>2024-05-20T10:17:06.000Z</time>
      </trkpt>
      <trkpt lat="46.28866" lon="4.83213">
        <ele>174.80000305176</ele>
        <time>2024-05-20T10:17:07.000Z</time>
      </trkpt>
      <trkpt lat="46.28865" lon="4.83214">
        <ele>174.80000305176</ele>
        <time>2024-05-20T10:17:08.000Z</time>
      </trkpt>
      <trkpt lat="46.28864" lon="4.83216">
        <ele>174.80000305176</ele>
        <time>2024-05-20T10:17:09.000Z</time>
      </trkpt>
      <trkpt lat="46.28864" lon="4.83216">
        <ele>174.80000305176</ele>
        <time>2024-05-20T10:17:10.000Z</time>
      </trkpt>
      <trkpt lat="46.28864" lon="4.83216">
        <ele>174.80000305176</ele>
        <time>2024-05-20T10:17:11.000Z</time>
      </trkpt>
      <trkpt lat="46.28862" lon="4.83222">
        <ele>174.60000610352</ele>
        <time>2024-05-20T10:17:14.000Z</time>
      </trkpt>
      <trkpt lat="46.28861" lon="4.83225">
        <ele>174.60000610352</ele>
        <time>2024-05-20T10:17:15.000Z</time>
      </trkpt>
      <trkpt lat="46.2886" lon="4.83227">
        <ele>174.60000610352</ele>
        <time>2024-05-20T10:17:16.000Z</time>
      </trkpt>
      <trkpt lat="46.28857" lon="4.83229">
        <ele>174.39999389648</ele>
        <time>2024-05-20T10:17:17.000Z</time>
      </trkpt>
      <trkpt lat="46.28855" lon="4.83229">
        <ele>174.39999389648</ele>
        <time>2024-05-20T10:17:18.000Z</time>
      </trkpt>
      <trkpt lat="46.28853" lon="4.83229">
        <ele>174.19999694824</ele>
        <time>2024-05-20T10:17:19.000Z</time>
      </trkpt>
      <trkpt lat="46.2885" lon="4.83229">
        <ele>174.19999694824</ele>
        <time>2024-05-20T10:17:20.000Z</time>
      </trkpt>
      <trkpt lat="46.28848" lon="4.83227">
        <ele>174</ele>
        <time>2024-05-20T10:17:21.000Z</time>
      </trkpt>
      <trkpt lat="46.28845" lon="4.83226">
        <ele>174</ele>
        <time>2024-05-20T10:17:22.000Z</time>
      </trkpt>
      <trkpt lat="46.28843" lon="4.83224">
        <ele>174</ele>
        <time>2024-05-20T10:17:23.000Z</time>
      </trkpt>
      <trkpt lat="46.2884" lon="4.83221">
        <ele>174</ele>
        <time>2024-05-20T10:17:24.000Z</time>
      </trkpt>
      <trkpt lat="46.28836" lon="4.83219">
        <ele>174</ele>
        <time>2024-05-20T10:17:25.000Z</time>
      </trkpt>
      <trkpt lat="46.28833" lon="4.83218">
        <ele>174</ele>
        <time>2024-05-20T10:17:26.000Z</time>
      </trkpt>
      <trkpt lat="46.28831" lon="4.83217">
        <ele>174</ele>
        <time>2024-05-20T10:17:27.000Z</time>
      </trkpt>
      <trkpt lat="46.28829" lon="4.83216">
        <ele>174</ele>
        <time>2024-05-20T10:17:28.000Z</time>
      </trkpt>
      <trkpt lat="46.28828" lon="4.83214">
        <ele>174.19999694824</ele>
        <time>2024-05-20T10:17:29.000Z</time>
      </trkpt>
      <trkpt lat="46.28828" lon="4.83212">
        <ele>174.39999389648</ele>
        <time>2024-05-20T10:17:30.000Z</time>
      </trkpt>
      <trkpt lat="46.28828" lon="4.8321">
        <ele>174.39999389648</ele>
        <time>2024-05-20T10:17:31.000Z</time>
      </trkpt>
      <trkpt lat="46.28829" lon="4.83208">
        <ele>174.60000610352</ele>
        <time>2024-05-20T10:17:32.000Z</time>
      </trkpt>
      <trkpt lat="46.28831" lon="4.83207">
        <ele>174.60000610352</ele>
        <time>2024-05-20T10:17:33.000Z</time>
      </trkpt>
      <trkpt lat="46.28832" lon="4.83208">
        <ele>174.60000610352</ele>
        <time>2024-05-20T10:17:34.000Z</time>
      </trkpt>
      <trkpt lat="46.28833" lon="4.8321">
        <ele>174.60000610352</ele>
        <time>2024-05-20T10:17:35.000Z</time>
      </trkpt>
      <trkpt lat="46.28832" lon="4.83212">
        <ele>174.60000610352</ele>
        <time>2024-05-20T10:17:36.000Z</time>
      </trkpt>
      <trkpt lat="46.28831" lon="4.83214">
        <ele>174.39999389648</ele>
        <time>2024-05-20T10:17:37.000Z</time>
      </trkpt>
      <trkpt lat="46.28829" lon="4.83216">
        <ele>174.39999389648</ele>
        <time>2024-05-20T10:17:38.000Z</time>
      </trkpt>
      <trkpt lat="46.28828" lon="4.83217">
        <ele>174.39999389648</ele>
        <time>2024-05-20T10:17:39.000Z</time>
      </trkpt>
      <trkpt lat="46.28827" lon="4.83219">
        <ele>174.39999389648</ele>
        <time>2024-05-20T10:17:40.000Z</time>
      </trkpt>
      <trkpt lat="46.28826" lon="4.83221">
        <ele>174.39999389648</ele>
        <time>2024-05-20T10:17:41.000Z</time>
      </trkpt>
      <trkpt lat="46.28825" lon="4.83222">
        <ele>174.39999389648</ele>
        <time>2024-05-20T10:17:42.000Z</time>
      </trkpt>
      <trkpt lat="46.28824" lon="4.83224">
        <ele>174.39999389648</ele>
        <time>2024-05-20T10:17:43.000Z</time>
      </trkpt>
      <trkpt lat="46.28823" lon="4.83226">
        <ele>174.39999389648</ele>
        <time>2024-05-20T10:17:44.000Z</time>
      </trkpt>
      <trkpt lat="46.28823" lon="4.83228">
        <ele>174.39999389648</ele>
        <time>2024-05-20T10:17:45.000Z</time>
      </trkpt>
      <trkpt lat="46.28823" lon="4.8323">
        <ele>174.39999389648</ele>
        <time>2024-05-20T10:17:46.000Z</time>
      </trkpt>
      <trkpt lat="46.28822" lon="4.83232">
        <ele>174.39999389648</ele>
        <time>2024-05-20T10:17:47.000Z</time>
      </trkpt>
      <trkpt lat="46.28822" lon="4.83234">
        <ele>174.39999389648</ele>
        <time>2024-05-20T10:17:48.000Z</time>
      </trkpt>
      <trkpt lat="46.28822" lon="4.83236">
        <ele>174.39999389648</ele>
        <time>2024-05-20T10:17:49.000Z</time>
      </trkpt>
      <trkpt lat="46.28821" lon="4.83239">
        <ele>174.39999389648</ele>
        <time>2024-05-20T10:17:50.000Z</time>
      </trkpt>
      <trkpt lat="46.28821" lon="4.8324">
        <ele>174.39999389648</ele>
        <time>2024-05-20T10:17:51.000Z</time>
      </trkpt>
      <trkpt lat="46.2882" lon="4.83243">
        <ele>174.39999389648</ele>
        <time>2024-05-20T10:17:52.000Z</time>
      </trkpt>
      <trkpt lat="46.2882" lon="4.83245">
        <ele>174.39999389648</ele>
        <time>2024-05-20T10:17:53.000Z</time>
      </trkpt>
      <trkpt lat="46.28821" lon="4.83246">
        <ele>174.39999389648</ele>
        <time>2024-05-20T10:17:54.000Z</time>
      </trkpt>
      <trkpt lat="46.28822" lon="4.83245">
        <ele>174.39999389648</ele>
        <time>2024-05-20T10:17:55.000Z</time>
      </trkpt>
      <trkpt lat="46.28823" lon="4.83244">
        <ele>174.39999389648</ele>
        <time>2024-05-20T10:17:56.000Z</time>
      </trkpt>
      <trkpt lat="46.28823" lon="4.83241">
        <ele>174.60000610352</ele>
        <time>2024-05-20T10:17:57.000Z</time>
      </trkpt>
      <trkpt lat="46.28823" lon="4.8324">
        <ele>174.60000610352</ele>
        <time>2024-05-20T10:17:58.000Z</time>
      </trkpt>
      <trkpt lat="46.28823" lon="4.83238">
        <ele>174.60000610352</ele>
        <time>2024-05-20T10:17:59.000Z</time>
      </trkpt>
      <trkpt lat="46.28824" lon="4.83237">
        <ele>174.60000610352</ele>
        <time>2024-05-20T10:18:00.000Z</time>
      </trkpt>
      <trkpt lat="46.28824" lon="4.83236">
        <ele>174.60000610352</ele>
        <time>2024-05-20T10:18:01.000Z</time>
      </trkpt>
      <trkpt lat="46.28825" lon="4.83234">
        <ele>174.60000610352</ele>
        <time>2024-05-20T10:18:02.000Z</time>
      </trkpt>
      <trkpt lat="46.28824" lon="4.83232">
        <ele>174.60000610352</ele>
        <time>2024-05-20T10:18:03.000Z</time>
      </trkpt>
      <trkpt lat="46.28823" lon="4.83231">
        <ele>174.60000610352</ele>
        <time>2024-05-20T10:18:04.000Z</time>
      </trkpt>
      <trkpt lat="46.28822" lon="4.83231">
        <ele>174.60000610352</ele>
        <time>2024-05-20T10:18:05.000Z</time>
      </trkpt>
      <trkpt lat="46.28821" lon="4.83232">
        <ele>174.60000610352</ele>
        <time>2024-05-20T10:18:06.000Z</time>
      </trkpt>
      <trkpt lat="46.2882" lon="4.83236">
        <ele>174.60000610352</ele>
        <time>2024-05-20T10:18:07.000Z</time>
      </trkpt>
      <trkpt lat="46.28819" lon="4.8324">
        <ele>174.39999389648</ele>
        <time>2024-05-20T10:18:08.000Z</time>
      </trkpt>
      <trkpt lat="46.28819" lon="4.83244">
        <ele>174.39999389648</ele>
        <time>2024-05-20T10:18:09.000Z</time>
      </trkpt>
      <trkpt lat="46.28818" lon="4.8325">
        <ele>174.39999389648</ele>
        <time>2024-05-20T10:18:10.000Z</time>
      </trkpt>
      <trkpt lat="46.28817" lon="4.83256">
        <ele>174.19999694824</ele>
        <time>2024-05-20T10:18:11.000Z</time>
      </trkpt>
      <trkpt lat="46.28816" lon="4.83263">
        <ele>174</ele>
        <time>2024-05-20T10:18:12.000Z</time>
      </trkpt>
      <trkpt lat="46.28815" lon="4.8327">
        <ele>174</ele>
        <time>2024-05-20T10:18:13.000Z</time>
      </trkpt>
      <trkpt lat="46.28814" lon="4.83277">
        <ele>173.80000305176</ele>
        <time>2024-05-20T10:18:14.000Z</time>
      </trkpt>
      <trkpt lat="46.28813" lon="4.83283">
        <ele>173.60000610352</ele>
        <time>2024-05-20T10:18:15.000Z</time>
      </trkpt>
      <trkpt lat="46.28811" lon="4.8329">
        <ele>173.60000610352</ele>
        <time>2024-05-20T10:18:16.000Z</time>
      </trkpt>
      <trkpt lat="46.2881" lon="4.83297">
        <ele>173.60000610352</ele>
        <time>2024-05-20T10:18:17.000Z</time>
      </trkpt>
      <trkpt lat="46.28808" lon="4.83304">
        <ele>173.60000610352</ele>
        <time>2024-05-20T10:18:18.000Z</time>
      </trkpt>
      <trkpt lat="46.28807" lon="4.83311">
        <ele>173.60000610352</ele>
        <time>2024-05-20T10:18:19.000Z</time>
      </trkpt>
      <trkpt lat="46.28806" lon="4.83319">
        <ele>173.60000610352</ele>
        <time>2024-05-20T10:18:20.000Z</time>
      </trkpt>
      <trkpt lat="46.28805" lon="4.83326">
        <ele>173.60000610352</ele>
        <time>2024-05-20T10:18:21.000Z</time>
      </trkpt>
      <trkpt lat="46.28803" lon="4.83333">
        <ele>173.60000610352</ele>
        <time>2024-05-20T10:18:22.000Z</time>
      </trkpt>
      <trkpt lat="46.28802" lon="4.8334">
        <ele>173.60000610352</ele>
        <time>2024-05-20T10:18:23.000Z</time>
      </trkpt>
      <trkpt lat="46.28801" lon="4.83347">
        <ele>173.60000610352</ele>
        <time>2024-05-20T10:18:24.000Z</time>
      </trkpt>
      <trkpt lat="46.28799" lon="4.83355">
        <ele>173.60000610352</ele>
        <time>2024-05-20T10:18:25.000Z</time>
      </trkpt>
      <trkpt lat="46.28797" lon="4.83362">
        <ele>173.60000610352</ele>
        <time>2024-05-20T10:18:26.000Z</time>
      </trkpt>
      <trkpt lat="46.28795" lon="4.83369">
        <ele>173.60000610352</ele>
        <time>2024-05-20T10:18:27.000Z</time>
      </trkpt>
      <trkpt lat="46.28792" lon="4.83376">
        <ele>173.60000610352</ele>
        <time>2024-05-20T10:18:28.000Z</time>
      </trkpt>
      <trkpt lat="46.28789" lon="4.83382">
        <ele>173.80000305176</ele>
        <time>2024-05-20T10:18:29.000Z</time>
      </trkpt>
      <trkpt lat="46.28786" lon="4.83388">
        <ele>173.80000305176</ele>
        <time>2024-05-20T10:18:30.000Z</time>
      </trkpt>
      <trkpt lat="46.28782" lon="4.83394">
        <ele>173.80000305176</ele>
        <time>2024-05-20T10:18:31.000Z</time>
      </trkpt>
      <trkpt lat="46.28778" lon="4.834">
        <ele>173.80000305176</ele>
        <time>2024-05-20T10:18:32.000Z</time>
      </trkpt>
      <trkpt lat="46.28774" lon="4.83405">
        <ele>173.80000305176</ele>
        <time>2024-05-20T10:18:33.000Z</time>
      </trkpt>
      <trkpt lat="46.28769" lon="4.8341">
        <ele>173.80000305176</ele>
        <time>2024-05-20T10:18:34.000Z</time>
      </trkpt>
      <trkpt lat="46.28765" lon="4.83415">
        <ele>173.80000305176</ele>
        <time>2024-05-20T10:18:35.000Z</time>
      </trkpt>
      <trkpt lat="46.28761" lon="4.8342">
        <ele>173.80000305176</ele>
        <time>2024-05-20T10:18:36.000Z</time>
      </trkpt>
      <trkpt lat="46.28756" lon="4.83426">
        <ele>173.80000305176</ele>
        <time>2024-05-20T10:18:37.000Z</time>
      </trkpt>
      <trkpt lat="46.28752" lon="4.8343">
        <ele>173.80000305176</ele>
        <time>2024-05-20T10:18:38.000Z</time>
      </trkpt>
      <trkpt lat="46.28748" lon="4.83435">
        <ele>173.80000305176</ele>
        <time>2024-05-20T10:18:39.000Z</time>
      </trkpt>
      <trkpt lat="46.28743" lon="4.8344">
        <ele>173.60000610352</ele>
        <time>2024-05-20T10:18:40.000Z</time>
      </trkpt>
      <trkpt lat="46.28739" lon="4.83445">
        <ele>173.60000610352</ele>
        <time>2024-05-20T10:18:41.000Z</time>
      </trkpt>
      <trkpt lat="46.28734" lon="4.8345">
        <ele>173.60000610352</ele>
        <time>2024-05-20T10:18:42.000Z</time>
      </trkpt>
      <trkpt lat="46.2873" lon="4.83455">
        <ele>173.60000610352</ele>
        <time>2024-05-20T10:18:43.000Z</time>
      </trkpt>
      <trkpt lat="46.28725" lon="4.8346">
        <ele>173.60000610352</ele>
        <time>2024-05-20T10:18:44.000Z</time>
      </trkpt>
      <trkpt lat="46.28721" lon="4.83465">
        <ele>173.60000610352</ele>
        <time>2024-05-20T10:18:45.000Z</time>
      </trkpt>
      <trkpt lat="46.28716" lon="4.8347">
        <ele>173.60000610352</ele>
        <time>2024-05-20T10:18:46.000Z</time>
      </trkpt>
      <trkpt lat="46.28712" lon="4.83475">
        <ele>173.60000610352</ele>
        <time>2024-05-20T10:18:47.000Z</time>
      </trkpt>
      <trkpt lat="46.28707" lon="4.83479">
        <ele>173.60000610352</ele>
        <time>2024-05-20T10:18:48.000Z</time>
      </trkpt>
      <trkpt lat="46.28703" lon="4.83484">
        <ele>173.60000610352</ele>
        <time>2024-05-20T10:18:49.000Z</time>
      </trkpt>
      <trkpt lat="46.28698" lon="4.83489">
        <ele>173.80000305176</ele>
        <time>2024-05-20T10:18:50.000Z</time>
      </trkpt>
      <trkpt lat="46.28694" lon="4.83494">
        <ele>173.80000305176</ele>
        <time>2024-05-20T10:18:51.000Z</time>
      </trkpt>
      <trkpt lat="46.2869" lon="4.83499">
        <ele>173.80000305176</ele>
        <time>2024-05-20T10:18:52.000Z</time>
      </trkpt>
      <trkpt lat="46.28685" lon="4.83504">
        <ele>173.80000305176</ele>
        <time>2024-05-20T10:18:53.000Z</time>
      </trkpt>
      <trkpt lat="46.28681" lon="4.83509">
        <ele>173.80000305176</ele>
        <time>2024-05-20T10:18:54.000Z</time>
      </trkpt>
      <trkpt lat="46.28677" lon="4.83514">
        <ele>173.80000305176</ele>
        <time>2024-05-20T10:18:55.000Z</time>
      </trkpt>
      <trkpt lat="46.28672" lon="4.83519">
        <ele>173.80000305176</ele>
        <time>2024-05-20T10:18:56.000Z</time>
      </trkpt>
      <trkpt lat="46.28668" lon="4.83524">
        <ele>173.80000305176</ele>
        <time>2024-05-20T10:18:57.000Z</time>
      </trkpt>
      <trkpt lat="46.28664" lon="4.83529">
        <ele>173.80000305176</ele>
        <time>2024-05-20T10:18:58.000Z</time>
      </trkpt>
      <trkpt lat="46.28659" lon="4.83534">
        <ele>173.80000305176</ele>
        <time>2024-05-20T10:18:59.000Z</time>
      </trkpt>
      <trkpt lat="46.28655" lon="4.83539">
        <ele>173.60000610352</ele>
        <time>2024-05-20T10:19:00.000Z</time>
      </trkpt>
      <trkpt lat="46.2865" lon="4.83544">
        <ele>173.60000610352</ele>
        <time>2024-05-20T10:19:01.000Z</time>
      </trkpt>
      <trkpt lat="46.28646" lon="4.8355">
        <ele>173.60000610352</ele>
        <time>2024-05-20T10:19:02.000Z</time>
      </trkpt>
      <trkpt lat="46.28641" lon="4.83555">
        <ele>173.60000610352</ele>
        <time>2024-05-20T10:19:03.000Z</time>
      </trkpt>
      <trkpt lat="46.28637" lon="4.8356">
        <ele>173.60000610352</ele>
        <time>2024-05-20T10:19:04.000Z</time>
      </trkpt>
      <trkpt lat="46.28632" lon="4.83565">
        <ele>173.60000610352</ele>
        <time>2024-05-20T10:19:05.000Z</time>
      </trkpt>
      <trkpt lat="46.28628" lon="4.8357">
        <ele>173.60000610352</ele>
        <time>2024-05-20T10:19:06.000Z</time>
      </trkpt>
      <trkpt lat="46.28624" lon="4.83575">
        <ele>173.80000305176</ele>
        <time>2024-05-20T10:19:07.000Z</time>
      </trkpt>
      <trkpt lat="46.28619" lon="4.8358">
        <ele>173.80000305176</ele>
        <time>2024-05-20T10:19:08.000Z</time>
      </trkpt>
      <trkpt lat="46.28615" lon="4.83585">
        <ele>173.80000305176</ele>
        <time>2024-05-20T10:19:09.000Z</time>
      </trkpt>
      <trkpt lat="46.2861" lon="4.8359">
        <ele>173.80000305176</ele>
        <time>2024-05-20T10:19:10.000Z</time>
      </trkpt>
      <trkpt lat="46.28606" lon="4.83595">
        <ele>173.80000305176</ele>
        <time>2024-05-20T10:19:11.000Z</time>
      </trkpt>
      <trkpt lat="46.28602" lon="4.83601">
        <ele>173.80000305176</ele>
        <time>2024-05-20T10:19:12.000Z</time>
      </trkpt>
      <trkpt lat="46.28597" lon="4.83606">
        <ele>173.80000305176</ele>
        <time>2024-05-20T10:19:13.000Z</time>
      </trkpt>
      <trkpt lat="46.28593" lon="4.83611">
        <ele>173.80000305176</ele>
        <time>2024-05-20T10:19:14.000Z</time>
      </trkpt>
      <trkpt lat="46.28588" lon="4.83616">
        <ele>173.80000305176</ele>
        <time>2024-05-20T10:19:15.000Z</time>
      </trkpt>
      <trkpt lat="46.28584" lon="4.83621">
        <ele>173.80000305176</ele>
        <time>2024-05-20T10:19:16.000Z</time>
      </trkpt>
      <trkpt lat="46.28579" lon="4.83626">
        <ele>173.80000305176</ele>
        <time>2024-05-20T10:19:17.000Z</time>
      </trkpt>
      <trkpt lat="46.28574" lon="4.83631">
        <ele>173.80000305176</ele>
        <time>2024-05-20T10:19:18.000Z</time>
      </trkpt>
      <trkpt lat="46.2857" lon="4.83636">
        <ele>173.80000305176</ele>
        <time>2024-05-20T10:19:19.000Z</time>
      </trkpt>
      <trkpt lat="46.28565" lon="4.83641">
        <ele>173.60000610352</ele>
        <time>2024-05-20T10:19:20.000Z</time>
      </trkpt>
      <trkpt lat="46.28561" lon="4.83647">
        <ele>173.60000610352</ele>
        <time>2024-05-20T10:19:21.000Z</time>
      </trkpt>
      <trkpt lat="46.28556" lon="4.83652">
        <ele>173.60000610352</ele>
        <time>2024-05-20T10:19:22.000Z</time>
      </trkpt>
      <trkpt lat="46.28552" lon="4.83657">
        <ele>173.60000610352</ele>
        <time>2024-05-20T10:19:23.000Z</time>
      </trkpt>
      <trkpt lat="46.28547" lon="4.83662">
        <ele>173.60000610352</ele>
        <time>2024-05-20T10:19:24.000Z</time>
      </trkpt>
      <trkpt lat="46.28543" lon="4.83667">
        <ele>173.60000610352</ele>
        <time>2024-05-20T10:19:25.000Z</time>
      </trkpt>
      <trkpt lat="46.28538" lon="4.83672">
        <ele>173.60000610352</ele>
        <time>2024-05-20T10:19:26.000Z</time>
      </trkpt>
      <trkpt lat="46.28533" lon="4.83678">
        <ele>173.60000610352</ele>
        <time>2024-05-20T10:19:27.000Z</time>
      </trkpt>
      <trkpt lat="46.28529" lon="4.83683">
        <ele>173.60000610352</ele>
        <time>2024-05-20T10:19:28.000Z</time>
      </trkpt>
      <trkpt lat="46.28524" lon="4.83688">
        <ele>173.60000610352</ele>
        <time>2024-05-20T10:19:29.000Z</time>
      </trkpt>
      <trkpt lat="46.28519" lon="4.83694">
        <ele>173.80000305176</ele>
        <time>2024-05-20T10:19:30.000Z</time>
      </trkpt>
      <trkpt lat="46.28515" lon="4.83699">
        <ele>173.60000610352</ele>
        <time>2024-05-20T10:19:31.000Z</time>
      </trkpt>
      <trkpt lat="46.2851" lon="4.83705">
        <ele>173.60000610352</ele>
        <time>2024-05-20T10:19:32.000Z</time>
      </trkpt>
      <trkpt lat="46.28505" lon="4.8371">
        <ele>173.60000610352</ele>
        <time>2024-05-20T10:19:33.000Z</time>
      </trkpt>
      <trkpt lat="46.28501" lon="4.83715">
        <ele>173.80000305176</ele>
        <time>2024-05-20T10:19:34.000Z</time>
      </trkpt>
      <trkpt lat="46.28496" lon="4.83721">
        <ele>173.80000305176</ele>
        <time>2024-05-20T10:19:35.000Z</time>
      </trkpt>
      <trkpt lat="46.28491" lon="4.83726">
        <ele>173.80000305176</ele>
        <time>2024-05-20T10:19:36.000Z</time>
      </trkpt>
      <trkpt lat="46.28487" lon="4.83731">
        <ele>173.80000305176</ele>
        <time>2024-05-20T10:19:37.000Z</time>
      </trkpt>
      <trkpt lat="46.28482" lon="4.83736">
        <ele>173.80000305176</ele>
        <time>2024-05-20T10:19:38.000Z</time>
      </trkpt>
      <trkpt lat="46.28478" lon="4.83742">
        <ele>173.80000305176</ele>
        <time>2024-05-20T10:19:39.000Z</time>
      </trkpt>
      <trkpt lat="46.28473" lon="4.83747">
        <ele>173.80000305176</ele>
        <time>2024-05-20T10:19:40.000Z</time>
      </trkpt>
      <trkpt lat="46.28469" lon="4.83752">
        <ele>173.60000610352</ele>
        <time>2024-05-20T10:19:41.000Z</time>
      </trkpt>
      <trkpt lat="46.28464" lon="4.83757">
        <ele>173.60000610352</ele>
        <time>2024-05-20T10:19:42.000Z</time>
      </trkpt>
      <trkpt lat="46.2846" lon="4.83763">
        <ele>173.39999389648</ele>
        <time>2024-05-20T10:19:43.000Z</time>
      </trkpt>
      <trkpt lat="46.28455" lon="4.83768">
        <ele>173.39999389648</ele>
        <time>2024-05-20T10:19:44.000Z</time>
      </trkpt>
      <trkpt lat="46.2845" lon="4.83772">
        <ele>173.19999694824</ele>
        <time>2024-05-20T10:19:45.000Z</time>
      </trkpt>
      <trkpt lat="46.28445" lon="4.83777">
        <ele>173.19999694824</ele>
        <time>2024-05-20T10:19:46.000Z</time>
      </trkpt>
      <trkpt lat="46.2844" lon="4.83779">
        <ele>173.19999694824</ele>
        <time>2024-05-20T10:19:47.000Z</time>
      </trkpt>
      <trkpt lat="46.28434" lon="4.83781">
        <ele>173.19999694824</ele>
        <time>2024-05-20T10:19:48.000Z</time>
      </trkpt>
      <trkpt lat="46.28428" lon="4.83782">
        <ele>173.19999694824</ele>
        <time>2024-05-20T10:19:49.000Z</time>
      </trkpt>
      <trkpt lat="46.28422" lon="4.83781">
        <ele>173.19999694824</ele>
        <time>2024-05-20T10:19:50.000Z</time>
      </trkpt>
      <trkpt lat="46.28416" lon="4.83779">
        <ele>173.19999694824</ele>
        <time>2024-05-20T10:19:51.000Z</time>
      </trkpt>
      <trkpt lat="46.28411" lon="4.83776">
        <ele>173.19999694824</ele>
        <time>2024-05-20T10:19:52.000Z</time>
      </trkpt>
      <trkpt lat="46.28405" lon="4.83773">
        <ele>173.39999389648</ele>
        <time>2024-05-20T10:19:53.000Z</time>
      </trkpt>
      <trkpt lat="46.28399" lon="4.8377">
        <ele>173.39999389648</ele>
        <time>2024-05-20T10:19:54.000Z</time>
      </trkpt>
      <trkpt lat="46.28394" lon="4.83767">
        <ele>173.39999389648</ele>
        <time>2024-05-20T10:19:55.000Z</time>
      </trkpt>
      <trkpt lat="46.28388" lon="4.83765">
        <ele>173.60000610352</ele>
        <time>2024-05-20T10:19:56.000Z</time>
      </trkpt>
      <trkpt lat="46.28382" lon="4.83763">
        <ele>173.80000305176</ele>
        <time>2024-05-20T10:19:57.000Z</time>
      </trkpt>
      <trkpt lat="46.28377" lon="4.83761">
        <ele>173.80000305176</ele>
        <time>2024-05-20T10:19:58.000Z</time>
      </trkpt>
      <trkpt lat="46.28371" lon="4.83759">
        <ele>173.80000305176</ele>
        <time>2024-05-20T10:19:59.000Z</time>
      </trkpt>
      <trkpt lat="46.28365" lon="4.83757">
        <ele>173.80000305176</ele>
        <time>2024-05-20T10:20:00.000Z</time>
      </trkpt>
      <trkpt lat="46.28359" lon="4.83756">
        <ele>173.80000305176</ele>
        <time>2024-05-20T10:20:01.000Z</time>
      </trkpt>
      <trkpt lat="46.28354" lon="4.83755">
        <ele>173.80000305176</ele>
        <time>2024-05-20T10:20:02.000Z</time>
      </trkpt>
      <trkpt lat="46.28348" lon="4.83754">
        <ele>173.80000305176</ele>
        <time>2024-05-20T10:20:03.000Z</time>
      </trkpt>
      <trkpt lat="46.28342" lon="4.83754">
        <ele>173.80000305176</ele>
        <time>2024-05-20T10:20:04.000Z</time>
      </trkpt>
      <trkpt lat="46.28336" lon="4.83753">
        <ele>173.80000305176</ele>
        <time>2024-05-20T10:20:05.000Z</time>
      </trkpt>
      <trkpt lat="46.2833" lon="4.83752">
        <ele>173.80000305176</ele>
        <time>2024-05-20T10:20:06.000Z</time>
      </trkpt>
      <trkpt lat="46.28325" lon="4.83751">
        <ele>173.60000610352</ele>
        <time>2024-05-20T10:20:07.000Z</time>
      </trkpt>
      <trkpt lat="46.28319" lon="4.8375">
        <ele>173.60000610352</ele>
        <time>2024-05-20T10:20:08.000Z</time>
      </trkpt>
      <trkpt lat="46.28314" lon="4.83748">
        <ele>173.60000610352</ele>
        <time>2024-05-20T10:20:09.000Z</time>
      </trkpt>
      <trkpt lat="46.28308" lon="4.83745">
        <ele>173.60000610352</ele>
        <time>2024-05-20T10:20:10.000Z</time>
      </trkpt>
      <trkpt lat="46.28302" lon="4.83742">
        <ele>173.60000610352</ele>
        <time>2024-05-20T10:20:11.000Z</time>
      </trkpt>
      <trkpt lat="46.28297" lon="4.8374">
        <ele>173.60000610352</ele>
        <time>2024-05-20T10:20:12.000Z</time>
      </trkpt>
      <trkpt lat="46.28291" lon="4.83737">
        <ele>173.60000610352</ele>
        <time>2024-05-20T10:20:13.000Z</time>
      </trkpt>
      <trkpt lat="46.28286" lon="4.83734">
        <ele>173.39999389648</ele>
        <time>2024-05-20T10:20:14.000Z</time>
      </trkpt>
      <trkpt lat="46.2828" lon="4.83731">
        <ele>173.39999389648</ele>
        <time>2024-05-20T10:20:15.000Z</time>
      </trkpt>
      <trkpt lat="46.28274" lon="4.83728">
        <ele>173.39999389648</ele>
        <time>2024-05-20T10:20:16.000Z</time>
      </trkpt>
      <trkpt lat="46.28269" lon="4.83724">
        <ele>173.39999389648</ele>
        <time>2024-05-20T10:20:17.000Z</time>
      </trkpt>
      <trkpt lat="46.28263" lon="4.83722">
        <ele>173.39999389648</ele>
        <time>2024-05-20T10:20:18.000Z</time>
      </trkpt>
      <trkpt lat="46.28257" lon="4.83719">
        <ele>173.39999389648</ele>
        <time>2024-05-20T10:20:19.000Z</time>
      </trkpt>
      <trkpt lat="46.28252" lon="4.83717">
        <ele>173.39999389648</ele>
        <time>2024-05-20T10:20:20.000Z</time>
      </trkpt>
      <trkpt lat="46.28246" lon="4.83715">
        <ele>173.39999389648</ele>
        <time>2024-05-20T10:20:21.000Z</time>
      </trkpt>
      <trkpt lat="46.28241" lon="4.83714">
        <ele>173.39999389648</ele>
        <time>2024-05-20T10:20:22.000Z</time>
      </trkpt>
      <trkpt lat="46.28235" lon="4.83713">
        <ele>173.39999389648</ele>
        <time>2024-05-20T10:20:23.000Z</time>
      </trkpt>
      <trkpt lat="46.28231" lon="4.8371">
        <ele>173.60000610352</ele>
        <time>2024-05-20T10:20:24.000Z</time>
      </trkpt>
      <trkpt lat="46.28227" lon="4.83706">
        <ele>173.80000305176</ele>
        <time>2024-05-20T10:20:25.000Z</time>
      </trkpt>
      <trkpt lat="46.28224" lon="4.83701">
        <ele>173.80000305176</ele>
        <time>2024-05-20T10:20:26.000Z</time>
      </trkpt>
      <trkpt lat="46.2822" lon="4.83698">
        <ele>173.80000305176</ele>
        <time>2024-05-20T10:20:27.000Z</time>
      </trkpt>
      <trkpt lat="46.28217" lon="4.83696">
        <ele>173.80000305176</ele>
        <time>2024-05-20T10:20:28.000Z</time>
      </trkpt>
      <trkpt lat="46.28214" lon="4.83694">
        <ele>174</ele>
        <time>2024-05-20T10:20:29.000Z</time>
      </trkpt>
      <trkpt lat="46.28211" lon="4.83693">
        <ele>174</ele>
        <time>2024-05-20T10:20:30.000Z</time>
      </trkpt>
      <trkpt lat="46.28209" lon="4.83692">
        <ele>174.19999694824</ele>
        <time>2024-05-20T10:20:31.000Z</time>
      </trkpt>
      <trkpt lat="46.28207" lon="4.83691">
        <ele>174.19999694824</ele>
        <time>2024-05-20T10:20:32.000Z</time>
      </trkpt>
      <trkpt lat="46.28204" lon="4.8369">
        <ele>174.19999694824</ele>
        <time>2024-05-20T10:20:33.000Z</time>
      </trkpt>
      <trkpt lat="46.28201" lon="4.83689">
        <ele>174.19999694824</ele>
        <time>2024-05-20T10:20:34.000Z</time>
      </trkpt>
      <trkpt lat="46.28198" lon="4.83687">
        <ele>174.19999694824</ele>
        <time>2024-05-20T10:20:35.000Z</time>
      </trkpt>
      <trkpt lat="46.28195" lon="4.83686">
        <ele>174.19999694824</ele>
        <time>2024-05-20T10:20:36.000Z</time>
      </trkpt>
      <trkpt lat="46.28191" lon="4.83684">
        <ele>174</ele>
        <time>2024-05-20T10:20:37.000Z</time>
      </trkpt>
      <trkpt lat="46.28187" lon="4.83682">
        <ele>174</ele>
        <time>2024-05-20T10:20:38.000Z</time>
      </trkpt>
      <trkpt lat="46.28184" lon="4.83679">
        <ele>173.80000305176</ele>
        <time>2024-05-20T10:20:39.000Z</time>
      </trkpt>
      <trkpt lat="46.2818" lon="4.83677">
        <ele>173.60000610352</ele>
        <time>2024-05-20T10:20:40.000Z</time>
      </trkpt>
      <trkpt lat="46.28176" lon="4.83675">
        <ele>173.60000610352</ele>
        <time>2024-05-20T10:20:41.000Z</time>
      </trkpt>
      <trkpt lat="46.28171" lon="4.83673">
        <ele>173.60000610352</ele>
        <time>2024-05-20T10:20:42.000Z</time>
      </trkpt>
      <trkpt lat="46.28167" lon="4.83671">
        <ele>173.39999389648</ele>
        <time>2024-05-20T10:20:43.000Z</time>
      </trkpt>
      <trkpt lat="46.28163" lon="4.83668">
        <ele>173.39999389648</ele>
        <time>2024-05-20T10:20:44.000Z</time>
      </trkpt>
      <trkpt lat="46.28158" lon="4.83666">
        <ele>173.39999389648</ele>
        <time>2024-05-20T10:20:45.000Z</time>
      </trkpt>
      <trkpt lat="46.28154" lon="4.83664">
        <ele>173.39999389648</ele>
        <time>2024-05-20T10:20:46.000Z</time>
      </trkpt>
      <trkpt lat="46.28149" lon="4.83661">
        <ele>173.39999389648</ele>
        <time>2024-05-20T10:20:47.000Z</time>
      </trkpt>
      <trkpt lat="46.28144" lon="4.83659">
        <ele>173.39999389648</ele>
        <time>2024-05-20T10:20:48.000Z</time>
      </trkpt>
      <trkpt lat="46.28139" lon="4.83656">
        <ele>173.39999389648</ele>
        <time>2024-05-20T10:20:49.000Z</time>
      </trkpt>
      <trkpt lat="46.28135" lon="4.83654">
        <ele>173.39999389648</ele>
        <time>2024-05-20T10:20:50.000Z</time>
      </trkpt>
      <trkpt lat="46.2813" lon="4.83651">
        <ele>173.39999389648</ele>
        <time>2024-05-20T10:20:51.000Z</time>
      </trkpt>
      <trkpt lat="46.28125" lon="4.83649">
        <ele>173.19999694824</ele>
        <time>2024-05-20T10:20:52.000Z</time>
      </trkpt>
      <trkpt lat="46.2812" lon="4.83646">
        <ele>173.19999694824</ele>
        <time>2024-05-20T10:20:53.000Z</time>
      </trkpt>
      <trkpt lat="46.28115" lon="4.83643">
        <ele>173.19999694824</ele>
        <time>2024-05-20T10:20:54.000Z</time>
      </trkpt>
      <trkpt lat="46.2811" lon="4.83641">
        <ele>173.19999694824</ele>
        <time>2024-05-20T10:20:55.000Z</time>
      </trkpt>
      <trkpt lat="46.28106" lon="4.83638">
        <ele>173.19999694824</ele>
        <time>2024-05-20T10:20:56.000Z</time>
      </trkpt>
      <trkpt lat="46.28101" lon="4.83635">
        <ele>173.19999694824</ele>
        <time>2024-05-20T10:20:57.000Z</time>
      </trkpt>
      <trkpt lat="46.28096" lon="4.83633">
        <ele>173.19999694824</ele>
        <time>2024-05-20T10:20:58.000Z</time>
      </trkpt>
      <trkpt lat="46.28091" lon="4.8363">
        <ele>173.19999694824</ele>
        <time>2024-05-20T10:20:59.000Z</time>
      </trkpt>
      <trkpt lat="46.28086" lon="4.83627">
        <ele>173.19999694824</ele>
        <time>2024-05-20T10:21:00.000Z</time>
      </trkpt>
      <trkpt lat="46.28081" lon="4.83625">
        <ele>173.19999694824</ele>
        <time>2024-05-20T10:21:01.000Z</time>
      </trkpt>
      <trkpt lat="46.28076" lon="4.83622">
        <ele>173</ele>
        <time>2024-05-20T10:21:02.000Z</time>
      </trkpt>
      <trkpt lat="46.28071" lon="4.83619">
        <ele>172.80000305176</ele>
        <time>2024-05-20T10:21:03.000Z</time>
      </trkpt>
      <trkpt lat="46.28065" lon="4.83617">
        <ele>172.80000305176</ele>
        <time>2024-05-20T10:21:04.000Z</time>
      </trkpt>
      <trkpt lat="46.2806" lon="4.83614">
        <ele>172.80000305176</ele>
        <time>2024-05-20T10:21:05.000Z</time>
      </trkpt>
      <trkpt lat="46.28055" lon="4.83612">
        <ele>172.80000305176</ele>
        <time>2024-05-20T10:21:06.000Z</time>
      </trkpt>
      <trkpt lat="46.2805" lon="4.8361">
        <ele>172.80000305176</ele>
        <time>2024-05-20T10:21:07.000Z</time>
      </trkpt>
      <trkpt lat="46.28044" lon="4.83608">
        <ele>172.80000305176</ele>
        <time>2024-05-20T10:21:08.000Z</time>
      </trkpt>
      <trkpt lat="46.28039" lon="4.83606">
        <ele>173</ele>
        <time>2024-05-20T10:21:09.000Z</time>
      </trkpt>
      <trkpt lat="46.28034" lon="4.83604">
        <ele>173</ele>
        <time>2024-05-20T10:21:10.000Z</time>
      </trkpt>
      <trkpt lat="46.28028" lon="4.83602">
        <ele>173</ele>
        <time>2024-05-20T10:21:11.000Z</time>
      </trkpt>
      <trkpt lat="46.28022" lon="4.836">
        <ele>173</ele>
        <time>2024-05-20T10:21:12.000Z</time>
      </trkpt>
      <trkpt lat="46.28017" lon="4.83598">
        <ele>173</ele>
        <time>2024-05-20T10:21:13.000Z</time>
      </trkpt>
      <trkpt lat="46.28011" lon="4.83596">
        <ele>173</ele>
        <time>2024-05-20T10:21:14.000Z</time>
      </trkpt>
      <trkpt lat="46.28006" lon="4.83594">
        <ele>173</ele>
        <time>2024-05-20T10:21:15.000Z</time>
      </trkpt>
      <trkpt lat="46.28" lon="4.83592">
        <ele>173</ele>
        <time>2024-05-20T10:21:16.000Z</time>
      </trkpt>
      <trkpt lat="46.27995" lon="4.8359">
        <ele>173</ele>
        <time>2024-05-20T10:21:17.000Z</time>
      </trkpt>
      <trkpt lat="46.27989" lon="4.83588">
        <ele>173.19999694824</ele>
        <time>2024-05-20T10:21:18.000Z</time>
      </trkpt>
      <trkpt lat="46.27984" lon="4.83586">
        <ele>173.19999694824</ele>
        <time>2024-05-20T10:21:19.000Z</time>
      </trkpt>
      <trkpt lat="46.27978" lon="4.83584">
        <ele>173.19999694824</ele>
        <time>2024-05-20T10:21:20.000Z</time>
      </trkpt>
      <trkpt lat="46.27973" lon="4.83582">
        <ele>173.19999694824</ele>
        <time>2024-05-20T10:21:21.000Z</time>
      </trkpt>
      <trkpt lat="46.27967" lon="4.8358">
        <ele>173.19999694824</ele>
        <time>2024-05-20T10:21:22.000Z</time>
      </trkpt>
      <trkpt lat="46.27962" lon="4.83578">
        <ele>173.19999694824</ele>
        <time>2024-05-20T10:21:23.000Z</time>
      </trkpt>
      <trkpt lat="46.27956" lon="4.83576">
        <ele>173</ele>
        <time>2024-05-20T10:21:24.000Z</time>
      </trkpt>
      <trkpt lat="46.27951" lon="4.83574">
        <ele>173</ele>
        <time>2024-05-20T10:21:25.000Z</time>
      </trkpt>
      <trkpt lat="46.27945" lon="4.83572">
        <ele>173.19999694824</ele>
        <time>2024-05-20T10:21:26.000Z</time>
      </trkpt>
      <trkpt lat="46.2794" lon="4.8357">
        <ele>173.19999694824</ele>
        <time>2024-05-20T10:21:27.000Z</time>
      </trkpt>
      <trkpt lat="46.27935" lon="4.83568">
        <ele>173.19999694824</ele>
        <time>2024-05-20T10:21:28.000Z</time>
      </trkpt>
      <trkpt lat="46.27929" lon="4.83566">
        <ele>173</ele>
        <time>2024-05-20T10:21:29.000Z</time>
      </trkpt>
      <trkpt lat="46.27924" lon="4.83564">
        <ele>173</ele>
        <time>2024-05-20T10:21:30.000Z</time>
      </trkpt>
      <trkpt lat="46.27918" lon="4.83562">
        <ele>173</ele>
        <time>2024-05-20T10:21:31.000Z</time>
      </trkpt>
      <trkpt lat="46.27913" lon="4.8356">
        <ele>173.19999694824</ele>
        <time>2024-05-20T10:21:32.000Z</time>
      </trkpt>
      <trkpt lat="46.27907" lon="4.83558">
        <ele>173.19999694824</ele>
        <time>2024-05-20T10:21:33.000Z</time>
      </trkpt>
      <trkpt lat="46.27902" lon="4.83556">
        <ele>173.19999694824</ele>
        <time>2024-05-20T10:21:34.000Z</time>
      </trkpt>
      <trkpt lat="46.27896" lon="4.83554">
        <ele>173.19999694824</ele>
        <time>2024-05-20T10:21:35.000Z</time>
      </trkpt>
      <trkpt lat="46.27891" lon="4.83553">
        <ele>173.19999694824</ele>
        <time>2024-05-20T10:21:36.000Z</time>
      </trkpt>
      <trkpt lat="46.27885" lon="4.83551">
        <ele>173.19999694824</ele>
        <time>2024-05-20T10:21:37.000Z</time>
      </trkpt>
      <trkpt lat="46.2788" lon="4.83549">
        <ele>173</ele>
        <time>2024-05-20T10:21:38.000Z</time>
      </trkpt>
      <trkpt lat="46.27874" lon="4.83547">
        <ele>173</ele>
        <time>2024-05-20T10:21:39.000Z</time>
      </trkpt>
      <trkpt lat="46.27869" lon="4.83545">
        <ele>173</ele>
        <time>2024-05-20T10:21:40.000Z</time>
      </trkpt>
      <trkpt lat="46.27863" lon="4.83543">
        <ele>173</ele>
        <time>2024-05-20T10:21:41.000Z</time>
      </trkpt>
      <trkpt lat="46.27858" lon="4.83541">
        <ele>173</ele>
        <time>2024-05-20T10:21:42.000Z</time>
      </trkpt>
      <trkpt lat="46.27853" lon="4.83539">
        <ele>173</ele>
        <time>2024-05-20T10:21:43.000Z</time>
      </trkpt>
      <trkpt lat="46.27847" lon="4.83537">
        <ele>173</ele>
        <time>2024-05-20T10:21:44.000Z</time>
      </trkpt>
      <trkpt lat="46.27842" lon="4.83535">
        <ele>173</ele>
        <time>2024-05-20T10:21:45.000Z</time>
      </trkpt>
      <trkpt lat="46.27836" lon="4.83532">
        <ele>173</ele>
        <time>2024-05-20T10:21:46.000Z</time>
      </trkpt>
      <trkpt lat="46.27831" lon="4.8353">
        <ele>173</ele>
        <time>2024-05-20T10:21:47.000Z</time>
      </trkpt>
      <trkpt lat="46.27826" lon="4.83528">
        <ele>173</ele>
        <time>2024-05-20T10:21:48.000Z</time>
      </trkpt>
      <trkpt lat="46.2782" lon="4.83526">
        <ele>173</ele>
        <time>2024-05-20T10:21:49.000Z</time>
      </trkpt>
      <trkpt lat="46.27815" lon="4.83524">
        <ele>173</ele>
        <time>2024-05-20T10:21:50.000Z</time>
      </trkpt>
      <trkpt lat="46.27809" lon="4.83522">
        <ele>173</ele>
        <time>2024-05-20T10:21:51.000Z</time>
      </trkpt>
      <trkpt lat="46.27804" lon="4.8352">
        <ele>173.19999694824</ele>
        <time>2024-05-20T10:21:52.000Z</time>
      </trkpt>
      <trkpt lat="46.27799" lon="4.83518">
        <ele>173.19999694824</ele>
        <time>2024-05-20T10:21:53.000Z</time>
      </trkpt>
      <trkpt lat="46.27793" lon="4.83516">
        <ele>173.19999694824</ele>
        <time>2024-05-20T10:21:54.000Z</time>
      </trkpt>
      <trkpt lat="46.27788" lon="4.83514">
        <ele>173</ele>
        <time>2024-05-20T10:21:55.000Z</time>
      </trkpt>
      <trkpt lat="46.27782" lon="4.83512">
        <ele>173</ele>
        <time>2024-05-20T10:21:56.000Z</time>
      </trkpt>
      <trkpt lat="46.27777" lon="4.83509">
        <ele>173</ele>
        <time>2024-05-20T10:21:57.000Z</time>
      </trkpt>
      <trkpt lat="46.27771" lon="4.83507">
        <ele>173</ele>
        <time>2024-05-20T10:21:58.000Z</time>
      </trkpt>
      <trkpt lat="46.27766" lon="4.83505">
        <ele>173</ele>
        <time>2024-05-20T10:21:59.000Z</time>
      </trkpt>
      <trkpt lat="46.2776" lon="4.83503">
        <ele>172.80000305176</ele>
        <time>2024-05-20T10:22:00.000Z</time>
      </trkpt>
      <trkpt lat="46.27755" lon="4.835">
        <ele>172.80000305176</ele>
        <time>2024-05-20T10:22:01.000Z</time>
      </trkpt>
      <trkpt lat="46.27749" lon="4.83498">
        <ele>172.80000305176</ele>
        <time>2024-05-20T10:22:02.000Z</time>
      </trkpt>
      <trkpt lat="46.27744" lon="4.83495">
        <ele>172.80000305176</ele>
        <time>2024-05-20T10:22:03.000Z</time>
      </trkpt>
      <trkpt lat="46.27738" lon="4.83493">
        <ele>172.80000305176</ele>
        <time>2024-05-20T10:22:04.000Z</time>
      </trkpt>
      <trkpt lat="46.27733" lon="4.8349">
        <ele>172.80000305176</ele>
        <time>2024-05-20T10:22:05.000Z</time>
      </trkpt>
      <trkpt lat="46.27727" lon="4.83488">
        <ele>172.80000305176</ele>
        <time>2024-05-20T10:22:06.000Z</time>
      </trkpt>
      <trkpt lat="46.27722" lon="4.83486">
        <ele>172.80000305176</ele>
        <time>2024-05-20T10:22:07.000Z</time>
      </trkpt>
      <trkpt lat="46.27717" lon="4.83484">
        <ele>172.80000305176</ele>
        <time>2024-05-20T10:22:08.000Z</time>
      </trkpt>
      <trkpt lat="46.27712" lon="4.83481">
        <ele>172.60000610352</ele>
        <time>2024-05-20T10:22:09.000Z</time>
      </trkpt>
      <trkpt lat="46.27707" lon="4.83479">
        <ele>172.60000610352</ele>
        <time>2024-05-20T10:22:10.000Z</time>
      </trkpt>
      <trkpt lat="46.27702" lon="4.83476">
        <ele>172.60000610352</ele>
        <time>2024-05-20T10:22:11.000Z</time>
      </trkpt>
      <trkpt lat="46.27698" lon="4.83472">
        <ele>172.60000610352</ele>
        <time>2024-05-20T10:22:12.000Z</time>
      </trkpt>
      <trkpt lat="46.27695" lon="4.83466">
        <ele>172.80000305176</ele>
        <time>2024-05-20T10:22:13.000Z</time>
      </trkpt>
      <trkpt lat="46.27694" lon="4.8346">
        <ele>172.80000305176</ele>
        <time>2024-05-20T10:22:14.000Z</time>
      </trkpt>
      <trkpt lat="46.27695" lon="4.83454">
        <ele>172.80000305176</ele>
        <time>2024-05-20T10:22:15.000Z</time>
      </trkpt>
      <trkpt lat="46.27696" lon="4.83448">
        <ele>173</ele>
        <time>2024-05-20T10:22:16.000Z</time>
      </trkpt>
      <trkpt lat="46.27698" lon="4.83441">
        <ele>173.19999694824</ele>
        <time>2024-05-20T10:22:17.000Z</time>
      </trkpt>
      <trkpt lat="46.277" lon="4.83435">
        <ele>173.39999389648</ele>
        <time>2024-05-20T10:22:18.000Z</time>
      </trkpt>
      <trkpt lat="46.27702" lon="4.83428">
        <ele>173.39999389648</ele>
        <time>2024-05-20T10:22:19.000Z</time>
      </trkpt>
      <trkpt lat="46.27704" lon="4.83421">
        <ele>173.39999389648</ele>
        <time>2024-05-20T10:22:20.000Z</time>
      </trkpt>
      <trkpt lat="46.27706" lon="4.83414">
        <ele>173.19999694824</ele>
        <time>2024-05-20T10:22:21.000Z</time>
      </trkpt>
      <trkpt lat="46.27708" lon="4.83408">
        <ele>173.19999694824</ele>
        <time>2024-05-20T10:22:22.000Z</time>
      </trkpt>
      <trkpt lat="46.2771" lon="4.83401">
        <ele>173.19999694824</ele>
        <time>2024-05-20T10:22:23.000Z</time>
      </trkpt>
      <trkpt lat="46.27713" lon="4.83393">
        <ele>173</ele>
        <time>2024-05-20T10:22:24.000Z</time>
      </trkpt>
      <trkpt lat="46.27715" lon="4.83386">
        <ele>173</ele>
        <time>2024-05-20T10:22:25.000Z</time>
      </trkpt>
      <trkpt lat="46.27717" lon="4.83379">
        <ele>173</ele>
        <time>2024-05-20T10:22:26.000Z</time>
      </trkpt>
      <trkpt lat="46.27719" lon="4.83372">
        <ele>173</ele>
        <time>2024-05-20T10:22:27.000Z</time>
      </trkpt>
      <trkpt lat="46.27721" lon="4.83365">
        <ele>173</ele>
        <time>2024-05-20T10:22:28.000Z</time>
      </trkpt>
      <trkpt lat="46.27724" lon="4.83358">
        <ele>173</ele>
        <time>2024-05-20T10:22:29.000Z</time>
      </trkpt>
      <trkpt lat="46.27727" lon="4.83351">
        <ele>173</ele>
        <time>2024-05-20T10:22:30.000Z</time>
      </trkpt>
      <trkpt lat="46.2773" lon="4.83344">
        <ele>173</ele>
        <time>2024-05-20T10:22:31.000Z</time>
      </trkpt>
      <trkpt lat="46.27732" lon="4.83338">
        <ele>173</ele>
        <time>2024-05-20T10:22:32.000Z</time>
      </trkpt>
      <trkpt lat="46.27735" lon="4.83331">
        <ele>173.19999694824</ele>
        <time>2024-05-20T10:22:33.000Z</time>
      </trkpt>
      <trkpt lat="46.27738" lon="4.83324">
        <ele>173.19999694824</ele>
        <time>2024-05-20T10:22:34.000Z</time>
      </trkpt>
      <trkpt lat="46.27741" lon="4.83317">
        <ele>173.39999389648</ele>
        <time>2024-05-20T10:22:35.000Z</time>
      </trkpt>
      <trkpt lat="46.27744" lon="4.8331">
        <ele>173.39999389648</ele>
        <time>2024-05-20T10:22:36.000Z</time>
      </trkpt>
      <trkpt lat="46.27747" lon="4.83304">
        <ele>173.39999389648</ele>
        <time>2024-05-20T10:22:37.000Z</time>
      </trkpt>
      <trkpt lat="46.2775" lon="4.83297">
        <ele>173.39999389648</ele>
        <time>2024-05-20T10:22:38.000Z</time>
      </trkpt>
      <trkpt lat="46.27752" lon="4.8329">
        <ele>173.39999389648</ele>
        <time>2024-05-20T10:22:39.000Z</time>
      </trkpt>
      <trkpt lat="46.27755" lon="4.83283">
        <ele>173.19999694824</ele>
        <time>2024-05-20T10:22:40.000Z</time>
      </trkpt>
      <trkpt lat="46.27758" lon="4.83277">
        <ele>173.39999389648</ele>
        <time>2024-05-20T10:22:41.000Z</time>
      </trkpt>
      <trkpt lat="46.27762" lon="4.8327">
        <ele>173.39999389648</ele>
        <time>2024-05-20T10:22:42.000Z</time>
      </trkpt>
      <trkpt lat="46.27765" lon="4.83263">
        <ele>173.39999389648</ele>
        <time>2024-05-20T10:22:43.000Z</time>
      </trkpt>
      <trkpt lat="46.27768" lon="4.83256">
        <ele>173.39999389648</ele>
        <time>2024-05-20T10:22:44.000Z</time>
      </trkpt>
      <trkpt lat="46.27771" lon="4.8325">
        <ele>173.39999389648</ele>
        <time>2024-05-20T10:22:45.000Z</time>
      </trkpt>
      <trkpt lat="46.27774" lon="4.83243">
        <ele>173.39999389648</ele>
        <time>2024-05-20T10:22:46.000Z</time>
      </trkpt>
      <trkpt lat="46.27777" lon="4.83236">
        <ele>173.39999389648</ele>
        <time>2024-05-20T10:22:47.000Z</time>
      </trkpt>
      <trkpt lat="46.2778" lon="4.83229">
        <ele>173.39999389648</ele>
        <time>2024-05-20T10:22:48.000Z</time>
      </trkpt>
      <trkpt lat="46.27783" lon="4.83223">
        <ele>173.39999389648</ele>
        <time>2024-05-20T10:22:49.000Z</time>
      </trkpt>
      <trkpt lat="46.27786" lon="4.83216">
        <ele>173.39999389648</ele>
        <time>2024-05-20T10:22:50.000Z</time>
      </trkpt>
      <trkpt lat="46.27789" lon="4.83209">
        <ele>173.60000610352</ele>
        <time>2024-05-20T10:22:51.000Z</time>
      </trkpt>
      <trkpt lat="46.27792" lon="4.83202">
        <ele>173.60000610352</ele>
        <time>2024-05-20T10:22:52.000Z</time>
      </trkpt>
      <trkpt lat="46.27794" lon="4.83195">
        <ele>173.60000610352</ele>
        <time>2024-05-20T10:22:53.000Z</time>
      </trkpt>
      <trkpt lat="46.27798" lon="4.83188">
        <ele>173.60000610352</ele>
        <time>2024-05-20T10:22:54.000Z</time>
      </trkpt>
      <trkpt lat="46.27801" lon="4.83182">
        <ele>173.60000610352</ele>
        <time>2024-05-20T10:22:55.000Z</time>
      </trkpt>
      <trkpt lat="46.27804" lon="4.83175">
        <ele>173.80000305176</ele>
        <time>2024-05-20T10:22:56.000Z</time>
      </trkpt>
      <trkpt lat="46.27807" lon="4.83168">
        <ele>173.80000305176</ele>
        <time>2024-05-20T10:22:57.000Z</time>
      </trkpt>
      <trkpt lat="46.2781" lon="4.83161">
        <ele>173.80000305176</ele>
        <time>2024-05-20T10:22:58.000Z</time>
      </trkpt>
      <trkpt lat="46.27813" lon="4.83154">
        <ele>173.80000305176</ele>
        <time>2024-05-20T10:22:59.000Z</time>
      </trkpt>
      <trkpt lat="46.27815" lon="4.83147">
        <ele>173.80000305176</ele>
        <time>2024-05-20T10:23:00.000Z</time>
      </trkpt>
      <trkpt lat="46.27818" lon="4.8314">
        <ele>173.80000305176</ele>
        <time>2024-05-20T10:23:01.000Z</time>
      </trkpt>
      <trkpt lat="46.2782" lon="4.83132">
        <ele>173.80000305176</ele>
        <time>2024-05-20T10:23:02.000Z</time>
      </trkpt>
      <trkpt lat="46.27823" lon="4.83125">
        <ele>173.80000305176</ele>
        <time>2024-05-20T10:23:03.000Z</time>
      </trkpt>
      <trkpt lat="46.27825" lon="4.83117">
        <ele>173.80000305176</ele>
        <time>2024-05-20T10:23:04.000Z</time>
      </trkpt>
      <trkpt lat="46.27827" lon="4.83109">
        <ele>173.60000610352</ele>
        <time>2024-05-20T10:23:05.000Z</time>
      </trkpt>
      <trkpt lat="46.27828" lon="4.83102">
        <ele>173.60000610352</ele>
        <time>2024-05-20T10:23:06.000Z</time>
      </trkpt>
      <trkpt lat="46.2783" lon="4.83094">
        <ele>173.60000610352</ele>
        <time>2024-05-20T10:23:07.000Z</time>
      </trkpt>
      <trkpt lat="46.27831" lon="4.83085">
        <ele>173.60000610352</ele>
        <time>2024-05-20T10:23:08.000Z</time>
      </trkpt>
      <trkpt lat="46.27832" lon="4.83077">
        <ele>173.60000610352</ele>
        <time>2024-05-20T10:23:09.000Z</time>
      </trkpt>
      <trkpt lat="46.27833" lon="4.83069">
        <ele>173.60000610352</ele>
        <time>2024-05-20T10:23:10.000Z</time>
      </trkpt>
      <trkpt lat="46.27833" lon="4.8306">
        <ele>173.60000610352</ele>
        <time>2024-05-20T10:23:11.000Z</time>
      </trkpt>
      <trkpt lat="46.27833" lon="4.83052">
        <ele>173.19999694824</ele>
        <time>2024-05-20T10:23:12.000Z</time>
      </trkpt>
      <trkpt lat="46.27833" lon="4.83044">
        <ele>173.19999694824</ele>
        <time>2024-05-20T10:23:13.000Z</time>
      </trkpt>
      <trkpt lat="46.27833" lon="4.83036">
        <ele>173.19999694824</ele>
        <time>2024-05-20T10:23:14.000Z</time>
      </trkpt>
      <trkpt lat="46.27833" lon="4.83027">
        <ele>173.19999694824</ele>
        <time>2024-05-20T10:23:15.000Z</time>
      </trkpt>
      <trkpt lat="46.27833" lon="4.83019">
        <ele>173.19999694824</ele>
        <time>2024-05-20T10:23:16.000Z</time>
      </trkpt>
      <trkpt lat="46.27832" lon="4.83012">
        <ele>173.19999694824</ele>
        <time>2024-05-20T10:23:17.000Z</time>
      </trkpt>
      <trkpt lat="46.27832" lon="4.83004">
        <ele>173.19999694824</ele>
        <time>2024-05-20T10:23:18.000Z</time>
      </trkpt>
      <trkpt lat="46.2783" lon="4.82996">
        <ele>173.19999694824</ele>
        <time>2024-05-20T10:23:19.000Z</time>
      </trkpt>
      <trkpt lat="46.27829" lon="4.82989">
        <ele>173.19999694824</ele>
        <time>2024-05-20T10:23:20.000Z</time>
      </trkpt>
      <trkpt lat="46.27827" lon="4.82982">
        <ele>173.39999389648</ele>
        <time>2024-05-20T10:23:21.000Z</time>
      </trkpt>
      <trkpt lat="46.27825" lon="4.82975">
        <ele>173.39999389648</ele>
        <time>2024-05-20T10:23:22.000Z</time>
      </trkpt>
      <trkpt lat="46.27822" lon="4.82968">
        <ele>173.39999389648</ele>
        <time>2024-05-20T10:23:23.000Z</time>
      </trkpt>
      <trkpt lat="46.27819" lon="4.82961">
        <ele>173.19999694824</ele>
        <time>2024-05-20T10:23:24.000Z</time>
      </trkpt>
      <trkpt lat="46.27816" lon="4.82955">
        <ele>173.19999694824</ele>
        <time>2024-05-20T10:23:25.000Z</time>
      </trkpt>
      <trkpt lat="46.27813" lon="4.82949">
        <ele>173.19999694824</ele>
        <time>2024-05-20T10:23:26.000Z</time>
      </trkpt>
      <trkpt lat="46.2781" lon="4.82944">
        <ele>173.19999694824</ele>
        <time>2024-05-20T10:23:27.000Z</time>
      </trkpt>
      <trkpt lat="46.27806" lon="4.82939">
        <ele>173.19999694824</ele>
        <time>2024-05-20T10:23:28.000Z</time>
      </trkpt>
      <trkpt lat="46.27803" lon="4.82934">
        <ele>173.19999694824</ele>
        <time>2024-05-20T10:23:29.000Z</time>
      </trkpt>
      <trkpt lat="46.278" lon="4.8293">
        <ele>173.39999389648</ele>
        <time>2024-05-20T10:23:30.000Z</time>
      </trkpt>
      <trkpt lat="46.27797" lon="4.82926">
        <ele>173.80000305176</ele>
        <time>2024-05-20T10:23:31.000Z</time>
      </trkpt>
      <trkpt lat="46.27794" lon="4.82922">
        <ele>173.80000305176</ele>
        <time>2024-05-20T10:23:32.000Z</time>
      </trkpt>
      <trkpt lat="46.27792" lon="4.82919">
        <ele>173.80000305176</ele>
        <time>2024-05-20T10:23:33.000Z</time>
      </trkpt>
      <trkpt lat="46.27789" lon="4.82915">
        <ele>173.80000305176</ele>
        <time>2024-05-20T10:23:34.000Z</time>
      </trkpt>
      <trkpt lat="46.27786" lon="4.82912">
        <ele>173.80000305176</ele>
        <time>2024-05-20T10:23:35.000Z</time>
      </trkpt>
      <trkpt lat="46.27784" lon="4.82908">
        <ele>174</ele>
        <time>2024-05-20T10:23:36.000Z</time>
      </trkpt>
      <trkpt lat="46.27783" lon="4.82904">
        <ele>174</ele>
        <time>2024-05-20T10:23:37.000Z</time>
      </trkpt>
      <trkpt lat="46.27783" lon="4.82901">
        <ele>174</ele>
        <time>2024-05-20T10:23:38.000Z</time>
      </trkpt>
      <trkpt lat="46.27783" lon="4.82898">
        <ele>174</ele>
        <time>2024-05-20T10:23:39.000Z</time>
      </trkpt>
      <trkpt lat="46.27783" lon="4.82897">
        <ele>174.19999694824</ele>
        <time>2024-05-20T10:23:40.000Z</time>
      </trkpt>
      <trkpt lat="46.27784" lon="4.82895">
        <ele>174.39999389648</ele>
        <time>2024-05-20T10:23:41.000Z</time>
      </trkpt>
      <trkpt lat="46.27784" lon="4.82893">
        <ele>174.39999389648</ele>
        <time>2024-05-20T10:23:42.000Z</time>
      </trkpt>
      <trkpt lat="46.27785" lon="4.8289">
        <ele>174.60000610352</ele>
        <time>2024-05-20T10:23:43.000Z</time>
      </trkpt>
      <trkpt lat="46.27784" lon="4.82886">
        <ele>174.60000610352</ele>
        <time>2024-05-20T10:23:44.000Z</time>
      </trkpt>
      <trkpt lat="46.27782" lon="4.82883">
        <ele>174.60000610352</ele>
        <time>2024-05-20T10:23:45.000Z</time>
      </trkpt>
      <trkpt lat="46.2778" lon="4.82881">
        <ele>174.60000610352</ele>
        <time>2024-05-20T10:23:46.000Z</time>
      </trkpt>
      <trkpt lat="46.27777" lon="4.82881">
        <ele>174.60000610352</ele>
        <time>2024-05-20T10:23:47.000Z</time>
      </trkpt>
      <trkpt lat="46.27774" lon="4.8288">
        <ele>174.60000610352</ele>
        <time>2024-05-20T10:23:48.000Z</time>
      </trkpt>
      <trkpt lat="46.2777" lon="4.8288">
        <ele>174.39999389648</ele>
        <time>2024-05-20T10:23:49.000Z</time>
      </trkpt>
      <trkpt lat="46.27766" lon="4.8288">
        <ele>174.39999389648</ele>
        <time>2024-05-20T10:23:50.000Z</time>
      </trkpt>
      <trkpt lat="46.27763" lon="4.8288">
        <ele>174.39999389648</ele>
        <time>2024-05-20T10:23:51.000Z</time>
      </trkpt>
      <trkpt lat="46.27759" lon="4.82881">
        <ele>174.39999389648</ele>
        <time>2024-05-20T10:23:52.000Z</time>
      </trkpt>
      <trkpt lat="46.27756" lon="4.82882">
        <ele>174.39999389648</ele>
        <time>2024-05-20T10:23:53.000Z</time>
      </trkpt>
      <trkpt lat="46.27753" lon="4.82885">
        <ele>174.39999389648</ele>
        <time>2024-05-20T10:23:54.000Z</time>
      </trkpt>
      <trkpt lat="46.2775" lon="4.82887">
        <ele>174.39999389648</ele>
        <time>2024-05-20T10:23:55.000Z</time>
      </trkpt>
      <trkpt lat="46.27747" lon="4.8289">
        <ele>174.39999389648</ele>
        <time>2024-05-20T10:23:56.000Z</time>
      </trkpt>
      <trkpt lat="46.27744" lon="4.82893">
        <ele>174.60000610352</ele>
        <time>2024-05-20T10:23:57.000Z</time>
      </trkpt>
      <trkpt lat="46.27741" lon="4.82895">
        <ele>174.60000610352</ele>
        <time>2024-05-20T10:23:58.000Z</time>
      </trkpt>
      <trkpt lat="46.27739" lon="4.82897">
        <ele>174.60000610352</ele>
        <time>2024-05-20T10:23:59.000Z</time>
      </trkpt>
      <trkpt lat="46.27737" lon="4.82899">
        <ele>174.60000610352</ele>
        <time>2024-05-20T10:24:00.000Z</time>
      </trkpt>
      <trkpt lat="46.27735" lon="4.82901">
        <ele>174.60000610352</ele>
        <time>2024-05-20T10:24:01.000Z</time>
      </trkpt>
      <trkpt lat="46.27733" lon="4.829">
        <ele>174.80000305176</ele>
        <time>2024-05-20T10:24:02.000Z</time>
      </trkpt>
      <trkpt lat="46.27731" lon="4.82898">
        <ele>174.80000305176</ele>
        <time>2024-05-20T10:24:03.000Z</time>
      </trkpt>
      <trkpt lat="46.27728" lon="4.82895">
        <ele>174.80000305176</ele>
        <time>2024-05-20T10:24:04.000Z</time>
      </trkpt>
      <trkpt lat="46.27725" lon="4.82892">
        <ele>174.80000305176</ele>
        <time>2024-05-20T10:24:05.000Z</time>
      </trkpt>
      <trkpt lat="46.27721" lon="4.8289">
        <ele>174.60000610352</ele>
        <time>2024-05-20T10:24:06.000Z</time>
      </trkpt>
      <trkpt lat="46.27717" lon="4.82888">
        <ele>174.39999389648</ele>
        <time>2024-05-20T10:24:07.000Z</time>
      </trkpt>
      <trkpt lat="46.27713" lon="4.82886">
        <ele>174.19999694824</ele>
        <time>2024-05-20T10:24:08.000Z</time>
      </trkpt>
      <trkpt lat="46.27709" lon="4.82884">
        <ele>174.19999694824</ele>
        <time>2024-05-20T10:24:09.000Z</time>
      </trkpt>
      <trkpt lat="46.27704" lon="4.82882">
        <ele>174.19999694824</ele>
        <time>2024-05-20T10:24:10.000Z</time>
      </trkpt>
      <trkpt lat="46.27699" lon="4.8288">
        <ele>174</ele>
        <time>2024-05-20T10:24:11.000Z</time>
      </trkpt>
      <trkpt lat="46.27695" lon="4.82879">
        <ele>174</ele>
        <time>2024-05-20T10:24:12.000Z</time>
      </trkpt>
      <trkpt lat="46.27691" lon="4.82879">
        <ele>174</ele>
        <time>2024-05-20T10:24:13.000Z</time>
      </trkpt>
      <trkpt lat="46.27686" lon="4.82879">
        <ele>174</ele>
        <time>2024-05-20T10:24:14.000Z</time>
      </trkpt>
      <trkpt lat="46.27682" lon="4.82878">
        <ele>174</ele>
        <time>2024-05-20T10:24:15.000Z</time>
      </trkpt>
      <trkpt lat="46.27677" lon="4.82877">
        <ele>174</ele>
        <time>2024-05-20T10:24:16.000Z</time>
      </trkpt>
      <trkpt lat="46.27672" lon="4.82875">
        <ele>174</ele>
        <time>2024-05-20T10:24:17.000Z</time>
      </trkpt>
      <trkpt lat="46.27668" lon="4.82874">
        <ele>174</ele>
        <time>2024-05-20T10:24:18.000Z</time>
      </trkpt>
      <trkpt lat="46.27663" lon="4.82872">
        <ele>174</ele>
        <time>2024-05-20T10:24:19.000Z</time>
      </trkpt>
      <trkpt lat="46.27659" lon="4.8287">
        <ele>173.80000305176</ele>
        <time>2024-05-20T10:24:20.000Z</time>
      </trkpt>
      <trkpt lat="46.27655" lon="4.82868">
        <ele>173.80000305176</ele>
        <time>2024-05-20T10:24:21.000Z</time>
      </trkpt>
      <trkpt lat="46.27651" lon="4.82866">
        <ele>173.80000305176</ele>
        <time>2024-05-20T10:24:22.000Z</time>
      </trkpt>
      <trkpt lat="46.27647" lon="4.82865">
        <ele>173.80000305176</ele>
        <time>2024-05-20T10:24:23.000Z</time>
      </trkpt>
      <trkpt lat="46.27644" lon="4.82863">
        <ele>173.80000305176</ele>
        <time>2024-05-20T10:24:24.000Z</time>
      </trkpt>
      <trkpt lat="46.2764" lon="4.82861">
        <ele>174</ele>
        <time>2024-05-20T10:24:25.000Z</time>
      </trkpt>
      <trkpt lat="46.27637" lon="4.8286">
        <ele>174</ele>
        <time>2024-05-20T10:24:26.000Z</time>
      </trkpt>
      <trkpt lat="46.27633" lon="4.82859">
        <ele>174.19999694824</ele>
        <time>2024-05-20T10:24:27.000Z</time>
      </trkpt>
      <trkpt lat="46.27629" lon="4.82858">
        <ele>174.19999694824</ele>
        <time>2024-05-20T10:24:28.000Z</time>
      </trkpt>
      <trkpt lat="46.27625" lon="4.82856">
        <ele>174.19999694824</ele>
        <time>2024-05-20T10:24:29.000Z</time>
      </trkpt>
      <trkpt lat="46.2762" lon="4.82854">
        <ele>174.19999694824</ele>
        <time>2024-05-20T10:24:30.000Z</time>
      </trkpt>
      <trkpt lat="46.27616" lon="4.82852">
        <ele>174</ele>
        <time>2024-05-20T10:24:31.000Z</time>
      </trkpt>
      <trkpt lat="46.27612" lon="4.82849">
        <ele>174</ele>
        <time>2024-05-20T10:24:32.000Z</time>
      </trkpt>
      <trkpt lat="46.27608" lon="4.82846">
        <ele>174</ele>
        <time>2024-05-20T10:24:33.000Z</time>
      </trkpt>
      <trkpt lat="46.27603" lon="4.82844">
        <ele>174</ele>
        <time>2024-05-20T10:24:34.000Z</time>
      </trkpt>
      <trkpt lat="46.27598" lon="4.82841">
        <ele>174</ele>
        <time>2024-05-20T10:24:35.000Z</time>
      </trkpt>
      <trkpt lat="46.27594" lon="4.82839">
        <ele>174</ele>
        <time>2024-05-20T10:24:36.000Z</time>
      </trkpt>
      <trkpt lat="46.27589" lon="4.82836">
        <ele>174</ele>
        <time>2024-05-20T10:24:37.000Z</time>
      </trkpt>
      <trkpt lat="46.27584" lon="4.82833">
        <ele>174</ele>
        <time>2024-05-20T10:24:38.000Z</time>
      </trkpt>
      <trkpt lat="46.27579" lon="4.82831">
        <ele>174</ele>
        <time>2024-05-20T10:24:39.000Z</time>
      </trkpt>
      <trkpt lat="46.27575" lon="4.82828">
        <ele>174</ele>
        <time>2024-05-20T10:24:40.000Z</time>
      </trkpt>
      <trkpt lat="46.2757" lon="4.82826">
        <ele>173.80000305176</ele>
        <time>2024-05-20T10:24:41.000Z</time>
      </trkpt>
      <trkpt lat="46.27565" lon="4.82823">
        <ele>173.80000305176</ele>
        <time>2024-05-20T10:24:42.000Z</time>
      </trkpt>
      <trkpt lat="46.2756" lon="4.8282">
        <ele>173.80000305176</ele>
        <time>2024-05-20T10:24:43.000Z</time>
      </trkpt>
      <trkpt lat="46.27555" lon="4.82817">
        <ele>173.80000305176</ele>
        <time>2024-05-20T10:24:44.000Z</time>
      </trkpt>
      <trkpt lat="46.2755" lon="4.82814">
        <ele>173.80000305176</ele>
        <time>2024-05-20T10:24:45.000Z</time>
      </trkpt>
      <trkpt lat="46.27546" lon="4.82811">
        <ele>173.80000305176</ele>
        <time>2024-05-20T10:24:46.000Z</time>
      </trkpt>
      <trkpt lat="46.27541" lon="4.82807">
        <ele>173.80000305176</ele>
        <time>2024-05-20T10:24:47.000Z</time>
      </trkpt>
      <trkpt lat="46.27536" lon="4.82803">
        <ele>173.80000305176</ele>
        <time>2024-05-20T10:24:48.000Z</time>
      </trkpt>
      <trkpt lat="46.27531" lon="4.82799">
        <ele>173.80000305176</ele>
        <time>2024-05-20T10:24:49.000Z</time>
      </trkpt>
      <trkpt lat="46.27526" lon="4.82795">
        <ele>173.80000305176</ele>
        <time>2024-05-20T10:24:50.000Z</time>
      </trkpt>
      <trkpt lat="46.27521" lon="4.82791">
        <ele>173.80000305176</ele>
        <time>2024-05-20T10:24:51.000Z</time>
      </trkpt>
      <trkpt lat="46.27517" lon="4.82787">
        <ele>173.80000305176</ele>
        <time>2024-05-20T10:24:52.000Z</time>
      </trkpt>
      <trkpt lat="46.27512" lon="4.82783">
        <ele>173.80000305176</ele>
        <time>2024-05-20T10:24:53.000Z</time>
      </trkpt>
      <trkpt lat="46.27507" lon="4.8278">
        <ele>174</ele>
        <time>2024-05-20T10:24:54.000Z</time>
      </trkpt>
      <trkpt lat="46.27502" lon="4.82776">
        <ele>174</ele>
        <time>2024-05-20T10:24:55.000Z</time>
      </trkpt>
      <trkpt lat="46.27497" lon="4.82773">
        <ele>174.19999694824</ele>
        <time>2024-05-20T10:24:56.000Z</time>
      </trkpt>
      <trkpt lat="46.27492" lon="4.82769">
        <ele>174.19999694824</ele>
        <time>2024-05-20T10:24:57.000Z</time>
      </trkpt>
      <trkpt lat="46.27487" lon="4.82764">
        <ele>174.19999694824</ele>
        <time>2024-05-20T10:24:58.000Z</time>
      </trkpt>
      <trkpt lat="46.27482" lon="4.8276">
        <ele>174.19999694824</ele>
        <time>2024-05-20T10:24:59.000Z</time>
      </trkpt>
      <trkpt lat="46.27477" lon="4.82755">
        <ele>174.19999694824</ele>
        <time>2024-05-20T10:25:00.000Z</time>
      </trkpt>
      <trkpt lat="46.27472" lon="4.8275">
        <ele>174.19999694824</ele>
        <time>2024-05-20T10:25:01.000Z</time>
      </trkpt>
      <trkpt lat="46.27467" lon="4.82744">
        <ele>174.19999694824</ele>
        <time>2024-05-20T10:25:02.000Z</time>
      </trkpt>
      <trkpt lat="46.27463" lon="4.82739">
        <ele>174.19999694824</ele>
        <time>2024-05-20T10:25:03.000Z</time>
      </trkpt>
      <trkpt lat="46.27458" lon="4.82735">
        <ele>174.19999694824</ele>
        <time>2024-05-20T10:25:04.000Z</time>
      </trkpt>
      <trkpt lat="46.27453" lon="4.8273">
        <ele>174.19999694824</ele>
        <time>2024-05-20T10:25:05.000Z</time>
      </trkpt>
      <trkpt lat="46.27449" lon="4.82725">
        <ele>174.19999694824</ele>
        <time>2024-05-20T10:25:06.000Z</time>
      </trkpt>
      <trkpt lat="46.27444" lon="4.82721">
        <ele>174.19999694824</ele>
        <time>2024-05-20T10:25:07.000Z</time>
      </trkpt>
      <trkpt lat="46.27438" lon="4.82717">
        <ele>174.19999694824</ele>
        <time>2024-05-20T10:25:08.000Z</time>
      </trkpt>
      <trkpt lat="46.27433" lon="4.82713">
        <ele>174.39999389648</ele>
        <time>2024-05-20T10:25:09.000Z</time>
      </trkpt>
      <trkpt lat="46.27427" lon="4.8271">
        <ele>174.39999389648</ele>
        <time>2024-05-20T10:25:10.000Z</time>
      </trkpt>
      <trkpt lat="46.27422" lon="4.82707">
        <ele>174.39999389648</ele>
        <time>2024-05-20T10:25:11.000Z</time>
      </trkpt>
      <trkpt lat="46.27416" lon="4.82704">
        <ele>174.39999389648</ele>
        <time>2024-05-20T10:25:12.000Z</time>
      </trkpt>
      <trkpt lat="46.27411" lon="4.82701">
        <ele>174.19999694824</ele>
        <time>2024-05-20T10:25:13.000Z</time>
      </trkpt>
      <trkpt lat="46.27405" lon="4.82698">
        <ele>174.19999694824</ele>
        <time>2024-05-20T10:25:14.000Z</time>
      </trkpt>
      <trkpt lat="46.27399" lon="4.82695">
        <ele>174.19999694824</ele>
        <time>2024-05-20T10:25:15.000Z</time>
      </trkpt>
      <trkpt lat="46.27394" lon="4.82691">
        <ele>174.19999694824</ele>
        <time>2024-05-20T10:25:16.000Z</time>
      </trkpt>
      <trkpt lat="46.27388" lon="4.82688">
        <ele>174.19999694824</ele>
        <time>2024-05-20T10:25:17.000Z</time>
      </trkpt>
      <trkpt lat="46.27382" lon="4.82685">
        <ele>174.19999694824</ele>
        <time>2024-05-20T10:25:18.000Z</time>
      </trkpt>
      <trkpt lat="46.27377" lon="4.82682">
        <ele>174.19999694824</ele>
        <time>2024-05-20T10:25:19.000Z</time>
      </trkpt>
      <trkpt lat="46.27371" lon="4.8268">
        <ele>174.39999389648</ele>
        <time>2024-05-20T10:25:20.000Z</time>
      </trkpt>
      <trkpt lat="46.27365" lon="4.82678">
        <ele>174.39999389648</ele>
        <time>2024-05-20T10:25:21.000Z</time>
      </trkpt>
      <trkpt lat="46.2736" lon="4.82677">
        <ele>174.39999389648</ele>
        <time>2024-05-20T10:25:22.000Z</time>
      </trkpt>
      <trkpt lat="46.27354" lon="4.82676">
        <ele>174.39999389648</ele>
        <time>2024-05-20T10:25:23.000Z</time>
      </trkpt>
      <trkpt lat="46.27347" lon="4.82675">
        <ele>174.39999389648</ele>
        <time>2024-05-20T10:25:24.000Z</time>
      </trkpt>
      <trkpt lat="46.27341" lon="4.82673">
        <ele>174.39999389648</ele>
        <time>2024-05-20T10:25:25.000Z</time>
      </trkpt>
      <trkpt lat="46.27335" lon="4.82672">
        <ele>174.39999389648</ele>
        <time>2024-05-20T10:25:26.000Z</time>
      </trkpt>
      <trkpt lat="46.2733" lon="4.8267">
        <ele>174.39999389648</ele>
        <time>2024-05-20T10:25:27.000Z</time>
      </trkpt>
      <trkpt lat="46.27324" lon="4.82667">
        <ele>174.39999389648</ele>
        <time>2024-05-20T10:25:28.000Z</time>
      </trkpt>
      <trkpt lat="46.27319" lon="4.82664">
        <ele>174.39999389648</ele>
        <time>2024-05-20T10:25:29.000Z</time>
      </trkpt>
      <trkpt lat="46.27313" lon="4.82661">
        <ele>174.39999389648</ele>
        <time>2024-05-20T10:25:30.000Z</time>
      </trkpt>
      <trkpt lat="46.27308" lon="4.82658">
        <ele>174.60000610352</ele>
        <time>2024-05-20T10:25:31.000Z</time>
      </trkpt>
      <trkpt lat="46.27303" lon="4.82654">
        <ele>174.60000610352</ele>
        <time>2024-05-20T10:25:32.000Z</time>
      </trkpt>
      <trkpt lat="46.27298" lon="4.8265">
        <ele>174.60000610352</ele>
        <time>2024-05-20T10:25:33.000Z</time>
      </trkpt>
      <trkpt lat="46.27293" lon="4.82646">
        <ele>174.60000610352</ele>
        <time>2024-05-20T10:25:34.000Z</time>
      </trkpt>
      <trkpt lat="46.27287" lon="4.82643">
        <ele>174.60000610352</ele>
        <time>2024-05-20T10:25:35.000Z</time>
      </trkpt>
      <trkpt lat="46.27282" lon="4.82639">
        <ele>174.60000610352</ele>
        <time>2024-05-20T10:25:36.000Z</time>
      </trkpt>
      <trkpt lat="46.27277" lon="4.82635">
        <ele>174.60000610352</ele>
        <time>2024-05-20T10:25:37.000Z</time>
      </trkpt>
      <trkpt lat="46.27272" lon="4.82631">
        <ele>174.60000610352</ele>
        <time>2024-05-20T10:25:38.000Z</time>
      </trkpt>
      <trkpt lat="46.27267" lon="4.82627">
        <ele>174.60000610352</ele>
        <time>2024-05-20T10:25:39.000Z</time>
      </trkpt>
      <trkpt lat="46.27262" lon="4.82623">
        <ele>174.60000610352</ele>
        <time>2024-05-20T10:25:40.000Z</time>
      </trkpt>
      <trkpt lat="46.27256" lon="4.82619">
        <ele>174.60000610352</ele>
        <time>2024-05-20T10:25:41.000Z</time>
      </trkpt>
      <trkpt lat="46.27251" lon="4.82615">
        <ele>174.60000610352</ele>
        <time>2024-05-20T10:25:42.000Z</time>
      </trkpt>
      <trkpt lat="46.27246" lon="4.82611">
        <ele>174.60000610352</ele>
        <time>2024-05-20T10:25:43.000Z</time>
      </trkpt>
      <trkpt lat="46.2724" lon="4.82607">
        <ele>174.60000610352</ele>
        <time>2024-05-20T10:25:44.000Z</time>
      </trkpt>
      <trkpt lat="46.27235" lon="4.82603">
        <ele>174.60000610352</ele>
        <time>2024-05-20T10:25:45.000Z</time>
      </trkpt>
      <trkpt lat="46.27229" lon="4.82598">
        <ele>174.60000610352</ele>
        <time>2024-05-20T10:25:46.000Z</time>
      </trkpt>
      <trkpt lat="46.27224" lon="4.82594">
        <ele>174.60000610352</ele>
        <time>2024-05-20T10:25:47.000Z</time>
      </trkpt>
      <trkpt lat="46.27219" lon="4.8259">
        <ele>174.60000610352</ele>
        <time>2024-05-20T10:25:48.000Z</time>
      </trkpt>
      <trkpt lat="46.27213" lon="4.82585">
        <ele>174.39999389648</ele>
        <time>2024-05-20T10:25:49.000Z</time>
      </trkpt>
      <trkpt lat="46.27208" lon="4.82581">
        <ele>174.39999389648</ele>
        <time>2024-05-20T10:25:50.000Z</time>
      </trkpt>
      <trkpt lat="46.27203" lon="4.82576">
        <ele>174.39999389648</ele>
        <time>2024-05-20T10:25:51.000Z</time>
      </trkpt>
      <trkpt lat="46.27198" lon="4.82571">
        <ele>174.39999389648</ele>
        <time>2024-05-20T10:25:52.000Z</time>
      </trkpt>
      <trkpt lat="46.27193" lon="4.82567">
        <ele>174.39999389648</ele>
        <time>2024-05-20T10:25:53.000Z</time>
      </trkpt>
      <trkpt lat="46.27188" lon="4.82562">
        <ele>174.39999389648</ele>
        <time>2024-05-20T10:25:54.000Z</time>
      </trkpt>
      <trkpt lat="46.27183" lon="4.82557">
        <ele>174.39999389648</ele>
        <time>2024-05-20T10:25:55.000Z</time>
      </trkpt>
      <trkpt lat="46.27178" lon="4.82552">
        <ele>174.39999389648</ele>
        <time>2024-05-20T10:25:56.000Z</time>
      </trkpt>
      <trkpt lat="46.27173" lon="4.82548">
        <ele>174.39999389648</ele>
        <time>2024-05-20T10:25:57.000Z</time>
      </trkpt>
      <trkpt lat="46.27168" lon="4.82543">
        <ele>174.39999389648</ele>
        <time>2024-05-20T10:25:58.000Z</time>
      </trkpt>
      <trkpt lat="46.27164" lon="4.82539">
        <ele>174.39999389648</ele>
        <time>2024-05-20T10:25:59.000Z</time>
      </trkpt>
      <trkpt lat="46.27159" lon="4.82536">
        <ele>174.39999389648</ele>
        <time>2024-05-20T10:26:00.000Z</time>
      </trkpt>
      <trkpt lat="46.27154" lon="4.82532">
        <ele>174.60000610352</ele>
        <time>2024-05-20T10:26:01.000Z</time>
      </trkpt>
      <trkpt lat="46.2715" lon="4.82528">
        <ele>174.60000610352</ele>
        <time>2024-05-20T10:26:02.000Z</time>
      </trkpt>
      <trkpt lat="46.27145" lon="4.82523">
        <ele>174.60000610352</ele>
        <time>2024-05-20T10:26:03.000Z</time>
      </trkpt>
      <trkpt lat="46.2714" lon="4.82517">
        <ele>174.60000610352</ele>
        <time>2024-05-20T10:26:04.000Z</time>
      </trkpt>
      <trkpt lat="46.27135" lon="4.82512">
        <ele>174.60000610352</ele>
        <time>2024-05-20T10:26:05.000Z</time>
      </trkpt>
      <trkpt lat="46.2713" lon="4.82507">
        <ele>174.60000610352</ele>
        <time>2024-05-20T10:26:06.000Z</time>
      </trkpt>
      <trkpt lat="46.27125" lon="4.82501">
        <ele>174.60000610352</ele>
        <time>2024-05-20T10:26:07.000Z</time>
      </trkpt>
      <trkpt lat="46.2712" lon="4.82496">
        <ele>174.60000610352</ele>
        <time>2024-05-20T10:26:08.000Z</time>
      </trkpt>
      <trkpt lat="46.27115" lon="4.82491">
        <ele>174.60000610352</ele>
        <time>2024-05-20T10:26:09.000Z</time>
      </trkpt>
      <trkpt lat="46.27109" lon="4.82487">
        <ele>174.60000610352</ele>
        <time>2024-05-20T10:26:10.000Z</time>
      </trkpt>
      <trkpt lat="46.27104" lon="4.82483">
        <ele>174.60000610352</ele>
        <time>2024-05-20T10:26:11.000Z</time>
      </trkpt>
      <trkpt lat="46.27099" lon="4.82479">
        <ele>174.60000610352</ele>
        <time>2024-05-20T10:26:12.000Z</time>
      </trkpt>
      <trkpt lat="46.27094" lon="4.82474">
        <ele>174.39999389648</ele>
        <time>2024-05-20T10:26:13.000Z</time>
      </trkpt>
      <trkpt lat="46.27089" lon="4.8247">
        <ele>174.39999389648</ele>
        <time>2024-05-20T10:26:14.000Z</time>
      </trkpt>
      <trkpt lat="46.27084" lon="4.82465">
        <ele>174.39999389648</ele>
        <time>2024-05-20T10:26:15.000Z</time>
      </trkpt>
      <trkpt lat="46.27078" lon="4.82461">
        <ele>174.39999389648</ele>
        <time>2024-05-20T10:26:16.000Z</time>
      </trkpt>
      <trkpt lat="46.27073" lon="4.82457">
        <ele>174.39999389648</ele>
        <time>2024-05-20T10:26:17.000Z</time>
      </trkpt>
      <trkpt lat="46.27067" lon="4.82453">
        <ele>174.39999389648</ele>
        <time>2024-05-20T10:26:18.000Z</time>
      </trkpt>
      <trkpt lat="46.27062" lon="4.82449">
        <ele>174.39999389648</ele>
        <time>2024-05-20T10:26:19.000Z</time>
      </trkpt>
      <trkpt lat="46.27056" lon="4.82445">
        <ele>174.39999389648</ele>
        <time>2024-05-20T10:26:20.000Z</time>
      </trkpt>
      <trkpt lat="46.27051" lon="4.82441">
        <ele>174.39999389648</ele>
        <time>2024-05-20T10:26:21.000Z</time>
      </trkpt>
      <trkpt lat="46.27046" lon="4.82437">
        <ele>174.39999389648</ele>
        <time>2024-05-20T10:26:22.000Z</time>
      </trkpt>
      <trkpt lat="46.2704" lon="4.82433">
        <ele>174.39999389648</ele>
        <time>2024-05-20T10:26:23.000Z</time>
      </trkpt>
      <trkpt lat="46.27035" lon="4.82429">
        <ele>174.39999389648</ele>
        <time>2024-05-20T10:26:24.000Z</time>
      </trkpt>
      <trkpt lat="46.27029" lon="4.82424">
        <ele>174.39999389648</ele>
        <time>2024-05-20T10:26:25.000Z</time>
      </trkpt>
      <trkpt lat="46.27024" lon="4.8242">
        <ele>174.19999694824</ele>
        <time>2024-05-20T10:26:26.000Z</time>
      </trkpt>
      <trkpt lat="46.27018" lon="4.82416">
        <ele>174.19999694824</ele>
        <time>2024-05-20T10:26:27.000Z</time>
      </trkpt>
      <trkpt lat="46.27013" lon="4.82412">
        <ele>174.19999694824</ele>
        <time>2024-05-20T10:26:28.000Z</time>
      </trkpt>
      <trkpt lat="46.27008" lon="4.82408">
        <ele>174.19999694824</ele>
        <time>2024-05-20T10:26:29.000Z</time>
      </trkpt>
      <trkpt lat="46.27002" lon="4.82404">
        <ele>174</ele>
        <time>2024-05-20T10:26:30.000Z</time>
      </trkpt>
      <trkpt lat="46.26997" lon="4.82399">
        <ele>174</ele>
        <time>2024-05-20T10:26:31.000Z</time>
      </trkpt>
      <trkpt lat="46.26992" lon="4.82395">
        <ele>174</ele>
        <time>2024-05-20T10:26:32.000Z</time>
      </trkpt>
      <trkpt lat="46.26986" lon="4.82391">
        <ele>174</ele>
        <time>2024-05-20T10:26:33.000Z</time>
      </trkpt>
      <trkpt lat="46.26981" lon="4.82387">
        <ele>174</ele>
        <time>2024-05-20T10:26:34.000Z</time>
      </trkpt>
      <trkpt lat="46.26976" lon="4.82383">
        <ele>174.19999694824</ele>
        <time>2024-05-20T10:26:35.000Z</time>
      </trkpt>
      <trkpt lat="46.2697" lon="4.82378">
        <ele>174.19999694824</ele>
        <time>2024-05-20T10:26:36.000Z</time>
      </trkpt>
      <trkpt lat="46.26966" lon="4.82374">
        <ele>174.19999694824</ele>
        <time>2024-05-20T10:26:37.000Z</time>
      </trkpt>
      <trkpt lat="46.2696" lon="4.8237">
        <ele>174.19999694824</ele>
        <time>2024-05-20T10:26:38.000Z</time>
      </trkpt>
      <trkpt lat="46.26955" lon="4.82366">
        <ele>174</ele>
        <time>2024-05-20T10:26:39.000Z</time>
      </trkpt>
      <trkpt lat="46.2695" lon="4.82361">
        <ele>174</ele>
        <time>2024-05-20T10:26:40.000Z</time>
      </trkpt>
      <trkpt lat="46.26945" lon="4.82356">
        <ele>174</ele>
        <time>2024-05-20T10:26:41.000Z</time>
      </trkpt>
      <trkpt lat="46.26939" lon="4.82352">
        <ele>174</ele>
        <time>2024-05-20T10:26:42.000Z</time>
      </trkpt>
      <trkpt lat="46.26934" lon="4.82347">
        <ele>174</ele>
        <time>2024-05-20T10:26:43.000Z</time>
      </trkpt>
      <trkpt lat="46.26929" lon="4.82342">
        <ele>174</ele>
        <time>2024-05-20T10:26:44.000Z</time>
      </trkpt>
      <trkpt lat="46.26924" lon="4.82338">
        <ele>174</ele>
        <time>2024-05-20T10:26:45.000Z</time>
      </trkpt>
      <trkpt lat="46.26919" lon="4.82333">
        <ele>174</ele>
        <time>2024-05-20T10:26:46.000Z</time>
      </trkpt>
      <trkpt lat="46.26914" lon="4.82329">
        <ele>174.19999694824</ele>
        <time>2024-05-20T10:26:47.000Z</time>
      </trkpt>
      <trkpt lat="46.26909" lon="4.82324">
        <ele>174.19999694824</ele>
        <time>2024-05-20T10:26:48.000Z</time>
      </trkpt>
      <trkpt lat="46.26904" lon="4.82319">
        <ele>174.19999694824</ele>
        <time>2024-05-20T10:26:49.000Z</time>
      </trkpt>
      <trkpt lat="46.26899" lon="4.82314">
        <ele>174.19999694824</ele>
        <time>2024-05-20T10:26:50.000Z</time>
      </trkpt>
      <trkpt lat="46.26894" lon="4.8231">
        <ele>174.19999694824</ele>
        <time>2024-05-20T10:26:51.000Z</time>
      </trkpt>
      <trkpt lat="46.26889" lon="4.82305">
        <ele>174.19999694824</ele>
        <time>2024-05-20T10:26:52.000Z</time>
      </trkpt>
      <trkpt lat="46.26884" lon="4.823">
        <ele>174.19999694824</ele>
        <time>2024-05-20T10:26:53.000Z</time>
      </trkpt>
      <trkpt lat="46.26879" lon="4.82295">
        <ele>174</ele>
        <time>2024-05-20T10:26:54.000Z</time>
      </trkpt>
      <trkpt lat="46.26874" lon="4.8229">
        <ele>174</ele>
        <time>2024-05-20T10:26:55.000Z</time>
      </trkpt>
      <trkpt lat="46.26869" lon="4.82285">
        <ele>174</ele>
        <time>2024-05-20T10:26:56.000Z</time>
      </trkpt>
      <trkpt lat="46.26864" lon="4.8228">
        <ele>174</ele>
        <time>2024-05-20T10:26:57.000Z</time>
      </trkpt>
      <trkpt lat="46.26859" lon="4.82275">
        <ele>174</ele>
        <time>2024-05-20T10:26:58.000Z</time>
      </trkpt>
      <trkpt lat="46.26854" lon="4.8227">
        <ele>173.80000305176</ele>
        <time>2024-05-20T10:26:59.000Z</time>
      </trkpt>
      <trkpt lat="46.26849" lon="4.82265">
        <ele>173.80000305176</ele>
        <time>2024-05-20T10:27:00.000Z</time>
      </trkpt>
      <trkpt lat="46.26844" lon="4.82259">
        <ele>173.80000305176</ele>
        <time>2024-05-20T10:27:01.000Z</time>
      </trkpt>
      <trkpt lat="46.26839" lon="4.82254">
        <ele>173.80000305176</ele>
        <time>2024-05-20T10:27:02.000Z</time>
      </trkpt>
      <trkpt lat="46.26834" lon="4.82249">
        <ele>173.80000305176</ele>
        <time>2024-05-20T10:27:03.000Z</time>
      </trkpt>
      <trkpt lat="46.26829" lon="4.82244">
        <ele>174</ele>
        <time>2024-05-20T10:27:04.000Z</time>
      </trkpt>
      <trkpt lat="46.26824" lon="4.8224">
        <ele>174</ele>
        <time>2024-05-20T10:27:05.000Z</time>
      </trkpt>
      <trkpt lat="46.2682" lon="4.82234">
        <ele>174</ele>
        <time>2024-05-20T10:27:06.000Z</time>
      </trkpt>
      <trkpt lat="46.26815" lon="4.82229">
        <ele>174</ele>
        <time>2024-05-20T10:27:07.000Z</time>
      </trkpt>
      <trkpt lat="46.2681" lon="4.82224">
        <ele>174</ele>
        <time>2024-05-20T10:27:08.000Z</time>
      </trkpt>
      <trkpt lat="46.26805" lon="4.82219">
        <ele>174</ele>
        <time>2024-05-20T10:27:09.000Z</time>
      </trkpt>
      <trkpt lat="46.26801" lon="4.82213">
        <ele>174</ele>
        <time>2024-05-20T10:27:10.000Z</time>
      </trkpt>
      <trkpt lat="46.26796" lon="4.82208">
        <ele>174</ele>
        <time>2024-05-20T10:27:11.000Z</time>
      </trkpt>
      <trkpt lat="46.26791" lon="4.82203">
        <ele>174</ele>
        <time>2024-05-20T10:27:12.000Z</time>
      </trkpt>
      <trkpt lat="46.26786" lon="4.82197">
        <ele>174</ele>
        <time>2024-05-20T10:27:13.000Z</time>
      </trkpt>
      <trkpt lat="46.26782" lon="4.82192">
        <ele>174.19999694824</ele>
        <time>2024-05-20T10:27:14.000Z</time>
      </trkpt>
      <trkpt lat="46.26777" lon="4.82186">
        <ele>174.19999694824</ele>
        <time>2024-05-20T10:27:15.000Z</time>
      </trkpt>
      <trkpt lat="46.26772" lon="4.82181">
        <ele>174.19999694824</ele>
        <time>2024-05-20T10:27:16.000Z</time>
      </trkpt>
      <trkpt lat="46.26768" lon="4.82175">
        <ele>174.19999694824</ele>
        <time>2024-05-20T10:27:17.000Z</time>
      </trkpt>
      <trkpt lat="46.26763" lon="4.8217">
        <ele>174.19999694824</ele>
        <time>2024-05-20T10:27:18.000Z</time>
      </trkpt>
      <trkpt lat="46.26759" lon="4.82164">
        <ele>174.19999694824</ele>
        <time>2024-05-20T10:27:19.000Z</time>
      </trkpt>
      <trkpt lat="46.26754" lon="4.82159">
        <ele>174.19999694824</ele>
        <time>2024-05-20T10:27:20.000Z</time>
      </trkpt>
      <trkpt lat="46.26749" lon="4.82153">
        <ele>174</ele>
        <time>2024-05-20T10:27:21.000Z</time>
      </trkpt>
      <trkpt lat="46.26745" lon="4.82147">
        <ele>174</ele>
        <time>2024-05-20T10:27:22.000Z</time>
      </trkpt>
      <trkpt lat="46.2674" lon="4.82141">
        <ele>174</ele>
        <time>2024-05-20T10:27:23.000Z</time>
      </trkpt>
      <trkpt lat="46.26735" lon="4.82136">
        <ele>174</ele>
        <time>2024-05-20T10:27:24.000Z</time>
      </trkpt>
      <trkpt lat="46.2673" lon="4.8213">
        <ele>174</ele>
        <time>2024-05-20T10:27:25.000Z</time>
      </trkpt>
      <trkpt lat="46.26725" lon="4.82125">
        <ele>174</ele>
        <time>2024-05-20T10:27:26.000Z</time>
      </trkpt>
      <trkpt lat="46.2672" lon="4.8212">
        <ele>174</ele>
        <time>2024-05-20T10:27:27.000Z</time>
      </trkpt>
      <trkpt lat="46.26715" lon="4.82114">
        <ele>173.80000305176</ele>
        <time>2024-05-20T10:27:28.000Z</time>
      </trkpt>
      <trkpt lat="46.26711" lon="4.82109">
        <ele>173.80000305176</ele>
        <time>2024-05-20T10:27:29.000Z</time>
      </trkpt>
      <trkpt lat="46.26705" lon="4.82104">
        <ele>173.80000305176</ele>
        <time>2024-05-20T10:27:30.000Z</time>
      </trkpt>
      <trkpt lat="46.267" lon="4.82099">
        <ele>173.80000305176</ele>
        <time>2024-05-20T10:27:31.000Z</time>
      </trkpt>
      <trkpt lat="46.26695" lon="4.82094">
        <ele>173.60000610352</ele>
        <time>2024-05-20T10:27:32.000Z</time>
      </trkpt>
      <trkpt lat="46.2669" lon="4.82089">
        <ele>173.60000610352</ele>
        <time>2024-05-20T10:27:33.000Z</time>
      </trkpt>
      <trkpt lat="46.26685" lon="4.82084">
        <ele>173.60000610352</ele>
        <time>2024-05-20T10:27:34.000Z</time>
      </trkpt>
      <trkpt lat="46.26679" lon="4.82079">
        <ele>173.60000610352</ele>
        <time>2024-05-20T10:27:35.000Z</time>
      </trkpt>
      <trkpt lat="46.26674" lon="4.82074">
        <ele>173.60000610352</ele>
        <time>2024-05-20T10:27:36.000Z</time>
      </trkpt>
      <trkpt lat="46.2667" lon="4.82069">
        <ele>173.60000610352</ele>
        <time>2024-05-20T10:27:37.000Z</time>
      </trkpt>
      <trkpt lat="46.26665" lon="4.82064">
        <ele>173.60000610352</ele>
        <time>2024-05-20T10:27:38.000Z</time>
      </trkpt>
      <trkpt lat="46.26661" lon="4.82059">
        <ele>173.60000610352</ele>
        <time>2024-05-20T10:27:39.000Z</time>
      </trkpt>
      <trkpt lat="46.26657" lon="4.82054">
        <ele>173.60000610352</ele>
        <time>2024-05-20T10:27:40.000Z</time>
      </trkpt>
      <trkpt lat="46.26653" lon="4.82049">
        <ele>173.39999389648</ele>
        <time>2024-05-20T10:27:41.000Z</time>
      </trkpt>
      <trkpt lat="46.26649" lon="4.82045">
        <ele>173.19999694824</ele>
        <time>2024-05-20T10:27:42.000Z</time>
      </trkpt>
      <trkpt lat="46.26645" lon="4.8204">
        <ele>173.19999694824</ele>
        <time>2024-05-20T10:27:43.000Z</time>
      </trkpt>
      <trkpt lat="46.26641" lon="4.82035">
        <ele>173.19999694824</ele>
        <time>2024-05-20T10:27:44.000Z</time>
      </trkpt>
      <trkpt lat="46.26637" lon="4.8203">
        <ele>173.19999694824</ele>
        <time>2024-05-20T10:27:45.000Z</time>
      </trkpt>
      <trkpt lat="46.26633" lon="4.82026">
        <ele>173.19999694824</ele>
        <time>2024-05-20T10:27:46.000Z</time>
      </trkpt>
      <trkpt lat="46.26629" lon="4.82021">
        <ele>173.19999694824</ele>
        <time>2024-05-20T10:27:47.000Z</time>
      </trkpt>
      <trkpt lat="46.26625" lon="4.82016">
        <ele>173.19999694824</ele>
        <time>2024-05-20T10:27:48.000Z</time>
      </trkpt>
      <trkpt lat="46.26621" lon="4.82011">
        <ele>173.19999694824</ele>
        <time>2024-05-20T10:27:49.000Z</time>
      </trkpt>
      <trkpt lat="46.26617" lon="4.82005">
        <ele>173.19999694824</ele>
        <time>2024-05-20T10:27:50.000Z</time>
      </trkpt>
      <trkpt lat="46.26613" lon="4.82">
        <ele>173.19999694824</ele>
        <time>2024-05-20T10:27:51.000Z</time>
      </trkpt>
      <trkpt lat="46.2661" lon="4.81995">
        <ele>173.19999694824</ele>
        <time>2024-05-20T10:27:52.000Z</time>
      </trkpt>
      <trkpt lat="46.26606" lon="4.81989">
        <ele>173.19999694824</ele>
        <time>2024-05-20T10:27:53.000Z</time>
      </trkpt>
      <trkpt lat="46.26601" lon="4.81984">
        <ele>173.19999694824</ele>
        <time>2024-05-20T10:27:54.000Z</time>
      </trkpt>
      <trkpt lat="46.26597" lon="4.81978">
        <ele>173.19999694824</ele>
        <time>2024-05-20T10:27:55.000Z</time>
      </trkpt>
      <trkpt lat="46.26593" lon="4.81972">
        <ele>173.19999694824</ele>
        <time>2024-05-20T10:27:56.000Z</time>
      </trkpt>
      <trkpt lat="46.26589" lon="4.81966">
        <ele>173.19999694824</ele>
        <time>2024-05-20T10:27:57.000Z</time>
      </trkpt>
      <trkpt lat="46.26584" lon="4.8196">
        <ele>173.19999694824</ele>
        <time>2024-05-20T10:27:58.000Z</time>
      </trkpt>
      <trkpt lat="46.2658" lon="4.81955">
        <ele>173</ele>
        <time>2024-05-20T10:27:59.000Z</time>
      </trkpt>
      <trkpt lat="46.26576" lon="4.81949">
        <ele>173</ele>
        <time>2024-05-20T10:28:00.000Z</time>
      </trkpt>
      <trkpt lat="46.26571" lon="4.81944">
        <ele>173</ele>
        <time>2024-05-20T10:28:01.000Z</time>
      </trkpt>
      <trkpt lat="46.26567" lon="4.81938">
        <ele>173</ele>
        <time>2024-05-20T10:28:02.000Z</time>
      </trkpt>
      <trkpt lat="46.26563" lon="4.81933">
        <ele>173</ele>
        <time>2024-05-20T10:28:03.000Z</time>
      </trkpt>
      <trkpt lat="46.26559" lon="4.81928">
        <ele>173</ele>
        <time>2024-05-20T10:28:04.000Z</time>
      </trkpt>
      <trkpt lat="46.26555" lon="4.81922">
        <ele>173</ele>
        <time>2024-05-20T10:28:05.000Z</time>
      </trkpt>
      <trkpt lat="46.2655" lon="4.81916">
        <ele>173</ele>
        <time>2024-05-20T10:28:06.000Z</time>
      </trkpt>
      <trkpt lat="46.26546" lon="4.81911">
        <ele>173</ele>
        <time>2024-05-20T10:28:07.000Z</time>
      </trkpt>
      <trkpt lat="46.26541" lon="4.81905">
        <ele>173</ele>
        <time>2024-05-20T10:28:08.000Z</time>
      </trkpt>
      <trkpt lat="46.26537" lon="4.81899">
        <ele>173</ele>
        <time>2024-05-20T10:28:09.000Z</time>
      </trkpt>
      <trkpt lat="46.26533" lon="4.81893">
        <ele>173</ele>
        <time>2024-05-20T10:28:10.000Z</time>
      </trkpt>
      <trkpt lat="46.26529" lon="4.81888">
        <ele>173</ele>
        <time>2024-05-20T10:28:11.000Z</time>
      </trkpt>
      <trkpt lat="46.26524" lon="4.81882">
        <ele>173</ele>
        <time>2024-05-20T10:28:12.000Z</time>
      </trkpt>
      <trkpt lat="46.2652" lon="4.81877">
        <ele>173</ele>
        <time>2024-05-20T10:28:13.000Z</time>
      </trkpt>
      <trkpt lat="46.26516" lon="4.81871">
        <ele>173</ele>
        <time>2024-05-20T10:28:14.000Z</time>
      </trkpt>
      <trkpt lat="46.26512" lon="4.81866">
        <ele>173</ele>
        <time>2024-05-20T10:28:15.000Z</time>
      </trkpt>
      <trkpt lat="46.26508" lon="4.81861">
        <ele>173.19999694824</ele>
        <time>2024-05-20T10:28:16.000Z</time>
      </trkpt>
      <trkpt lat="46.26504" lon="4.81855">
        <ele>173.19999694824</ele>
        <time>2024-05-20T10:28:17.000Z</time>
      </trkpt>
      <trkpt lat="46.265" lon="4.8185">
        <ele>173.19999694824</ele>
        <time>2024-05-20T10:28:18.000Z</time>
      </trkpt>
      <trkpt lat="46.26496" lon="4.81845">
        <ele>173.19999694824</ele>
        <time>2024-05-20T10:28:19.000Z</time>
      </trkpt>
      <trkpt lat="46.26492" lon="4.8184">
        <ele>173.19999694824</ele>
        <time>2024-05-20T10:28:20.000Z</time>
      </trkpt>
      <trkpt lat="46.26488" lon="4.81835">
        <ele>173.19999694824</ele>
        <time>2024-05-20T10:28:21.000Z</time>
      </trkpt>
      <trkpt lat="46.26484" lon="4.8183">
        <ele>173.19999694824</ele>
        <time>2024-05-20T10:28:22.000Z</time>
      </trkpt>
      <trkpt lat="46.2648" lon="4.81826">
        <ele>173.19999694824</ele>
        <time>2024-05-20T10:28:23.000Z</time>
      </trkpt>
      <trkpt lat="46.26476" lon="4.81822">
        <ele>173.19999694824</ele>
        <time>2024-05-20T10:28:24.000Z</time>
      </trkpt>
      <trkpt lat="46.26473" lon="4.81819">
        <ele>173</ele>
        <time>2024-05-20T10:28:25.000Z</time>
      </trkpt>
      <trkpt lat="46.2647" lon="4.81817">
        <ele>173</ele>
        <time>2024-05-20T10:28:26.000Z</time>
      </trkpt>
      <trkpt lat="46.26468" lon="4.81815">
        <ele>173</ele>
        <time>2024-05-20T10:28:27.000Z</time>
      </trkpt>
      <trkpt lat="46.26467" lon="4.81814">
        <ele>173</ele>
        <time>2024-05-20T10:28:28.000Z</time>
      </trkpt>
      <trkpt lat="46.26465" lon="4.81815">
        <ele>173</ele>
        <time>2024-05-20T10:28:29.000Z</time>
      </trkpt>
      <trkpt lat="46.26464" lon="4.81815">
        <ele>173.19999694824</ele>
        <time>2024-05-20T10:28:30.000Z</time>
      </trkpt>
      <trkpt lat="46.26464" lon="4.81817">
        <ele>173.60000610352</ele>
        <time>2024-05-20T10:28:31.000Z</time>
      </trkpt>
      <trkpt lat="46.26463" lon="4.81819">
        <ele>173.80000305176</ele>
        <time>2024-05-20T10:28:32.000Z</time>
      </trkpt>
      <trkpt lat="46.26462" lon="4.81821">
        <ele>174</ele>
        <time>2024-05-20T10:28:33.000Z</time>
      </trkpt>
      <trkpt lat="46.26461" lon="4.81824">
        <ele>174</ele>
        <time>2024-05-20T10:28:34.000Z</time>
      </trkpt>
      <trkpt lat="46.2646" lon="4.81827">
        <ele>174</ele>
        <time>2024-05-20T10:28:35.000Z</time>
      </trkpt>
      <trkpt lat="46.26458" lon="4.8183">
        <ele>174</ele>
        <time>2024-05-20T10:28:36.000Z</time>
      </trkpt>
      <trkpt lat="46.26456" lon="4.81834">
        <ele>174</ele>
        <time>2024-05-20T10:28:37.000Z</time>
      </trkpt>
      <trkpt lat="46.26454" lon="4.81837">
        <ele>174.19999694824</ele>
        <time>2024-05-20T10:28:38.000Z</time>
      </trkpt>
      <trkpt lat="46.26451" lon="4.81841">
        <ele>174.19999694824</ele>
        <time>2024-05-20T10:28:39.000Z</time>
      </trkpt>
      <trkpt lat="46.26449" lon="4.81846">
        <ele>174.19999694824</ele>
        <time>2024-05-20T10:28:40.000Z</time>
      </trkpt>
      <trkpt lat="46.26446" lon="4.81851">
        <ele>174.19999694824</ele>
        <time>2024-05-20T10:28:41.000Z</time>
      </trkpt>
      <trkpt lat="46.26444" lon="4.81856">
        <ele>174.19999694824</ele>
        <time>2024-05-20T10:28:42.000Z</time>
      </trkpt>
      <trkpt lat="46.26441" lon="4.81861">
        <ele>174.19999694824</ele>
        <time>2024-05-20T10:28:43.000Z</time>
      </trkpt>
      <trkpt lat="46.26438" lon="4.81866">
        <ele>174.19999694824</ele>
        <time>2024-05-20T10:28:44.000Z</time>
      </trkpt>
      <trkpt lat="46.26435" lon="4.81871">
        <ele>174.19999694824</ele>
        <time>2024-05-20T10:28:45.000Z</time>
      </trkpt>
      <trkpt lat="46.26432" lon="4.81877">
        <ele>174</ele>
        <time>2024-05-20T10:28:46.000Z</time>
      </trkpt>
      <trkpt lat="46.26428" lon="4.81883">
        <ele>174</ele>
        <time>2024-05-20T10:28:47.000Z</time>
      </trkpt>
      <trkpt lat="46.26425" lon="4.8189">
        <ele>174</ele>
        <time>2024-05-20T10:28:48.000Z</time>
      </trkpt>
      <trkpt lat="46.26421" lon="4.81895">
        <ele>173.60000610352</ele>
        <time>2024-05-20T10:28:49.000Z</time>
      </trkpt>
      <trkpt lat="46.26417" lon="4.81901">
        <ele>173.60000610352</ele>
        <time>2024-05-20T10:28:50.000Z</time>
      </trkpt>
      <trkpt lat="46.26414" lon="4.81906">
        <ele>173.60000610352</ele>
        <time>2024-05-20T10:28:51.000Z</time>
      </trkpt>
      <trkpt lat="46.2641" lon="4.81912">
        <ele>173.60000610352</ele>
        <time>2024-05-20T10:28:52.000Z</time>
      </trkpt>
      <trkpt lat="46.26407" lon="4.81918">
        <ele>173.60000610352</ele>
        <time>2024-05-20T10:28:53.000Z</time>
      </trkpt>
      <trkpt lat="46.26403" lon="4.81924">
        <ele>173.39999389648</ele>
        <time>2024-05-20T10:28:54.000Z</time>
      </trkpt>
      <trkpt lat="46.26399" lon="4.8193">
        <ele>173.39999389648</ele>
        <time>2024-05-20T10:28:55.000Z</time>
      </trkpt>
      <trkpt lat="46.26396" lon="4.81936">
        <ele>173.39999389648</ele>
        <time>2024-05-20T10:28:56.000Z</time>
      </trkpt>
      <trkpt lat="46.26392" lon="4.81941">
        <ele>173.39999389648</ele>
        <time>2024-05-20T10:28:57.000Z</time>
      </trkpt>
      <trkpt lat="46.26388" lon="4.81945">
        <ele>173.39999389648</ele>
        <time>2024-05-20T10:28:58.000Z</time>
      </trkpt>
      <trkpt lat="46.26384" lon="4.81946">
        <ele>173.39999389648</ele>
        <time>2024-05-20T10:28:59.000Z</time>
      </trkpt>
      <trkpt lat="46.26379" lon="4.81945">
        <ele>173.60000610352</ele>
        <time>2024-05-20T10:29:00.000Z</time>
      </trkpt>
      <trkpt lat="46.26374" lon="4.81942">
        <ele>173.60000610352</ele>
        <time>2024-05-20T10:29:01.000Z</time>
      </trkpt>
      <trkpt lat="46.26369" lon="4.8194">
        <ele>173.60000610352</ele>
        <time>2024-05-20T10:29:02.000Z</time>
      </trkpt>
      <trkpt lat="46.26364" lon="4.81937">
        <ele>173.39999389648</ele>
        <time>2024-05-20T10:29:03.000Z</time>
      </trkpt>
      <trkpt lat="46.26359" lon="4.81934">
        <ele>173.19999694824</ele>
        <time>2024-05-20T10:29:04.000Z</time>
      </trkpt>
      <trkpt lat="46.26353" lon="4.81931">
        <ele>173.19999694824</ele>
        <time>2024-05-20T10:29:05.000Z</time>
      </trkpt>
      <trkpt lat="46.26348" lon="4.81928">
        <ele>173</ele>
        <time>2024-05-20T10:29:06.000Z</time>
      </trkpt>
      <trkpt lat="46.26342" lon="4.81925">
        <ele>172.80000305176</ele>
        <time>2024-05-20T10:29:07.000Z</time>
      </trkpt>
      <trkpt lat="46.26336" lon="4.81922">
        <ele>172.60000610352</ele>
        <time>2024-05-20T10:29:08.000Z</time>
      </trkpt>
      <trkpt lat="46.26331" lon="4.8192">
        <ele>172.39999389648</ele>
        <time>2024-05-20T10:29:09.000Z</time>
      </trkpt>
      <trkpt lat="46.26325" lon="4.81917">
        <ele>172.39999389648</ele>
        <time>2024-05-20T10:29:10.000Z</time>
      </trkpt>
      <trkpt lat="46.2632" lon="4.81916">
        <ele>172.39999389648</ele>
        <time>2024-05-20T10:29:11.000Z</time>
      </trkpt>
      <trkpt lat="46.26314" lon="4.81915">
        <ele>172.39999389648</ele>
        <time>2024-05-20T10:29:12.000Z</time>
      </trkpt>
      <trkpt lat="46.26308" lon="4.81915">
        <ele>172.39999389648</ele>
        <time>2024-05-20T10:29:13.000Z</time>
      </trkpt>
      <trkpt lat="46.26303" lon="4.81916">
        <ele>172.39999389648</ele>
        <time>2024-05-20T10:29:14.000Z</time>
      </trkpt>
      <trkpt lat="46.26297" lon="4.81917">
        <ele>172.39999389648</ele>
        <time>2024-05-20T10:29:15.000Z</time>
      </trkpt>
      <trkpt lat="46.26292" lon="4.81917">
        <ele>172.39999389648</ele>
        <time>2024-05-20T10:29:16.000Z</time>
      </trkpt>
      <trkpt lat="46.26287" lon="4.81916">
        <ele>172.60000610352</ele>
        <time>2024-05-20T10:29:17.000Z</time>
      </trkpt>
      <trkpt lat="46.26282" lon="4.81914">
        <ele>172.60000610352</ele>
        <time>2024-05-20T10:29:18.000Z</time>
      </trkpt>
      <trkpt lat="46.26277" lon="4.81911">
        <ele>172.60000610352</ele>
        <time>2024-05-20T10:29:19.000Z</time>
      </trkpt>
      <trkpt lat="46.26272" lon="4.81907">
        <ele>172.60000610352</ele>
        <time>2024-05-20T10:29:20.000Z</time>
      </trkpt>
      <trkpt lat="46.26268" lon="4.81902">
        <ele>172.60000610352</ele>
        <time>2024-05-20T10:29:21.000Z</time>
      </trkpt>
      <trkpt lat="46.26265" lon="4.81896">
        <ele>172.60000610352</ele>
        <time>2024-05-20T10:29:22.000Z</time>
      </trkpt>
      <trkpt lat="46.26261" lon="4.8189">
        <ele>172.60000610352</ele>
        <time>2024-05-20T10:29:23.000Z</time>
      </trkpt>
      <trkpt lat="46.26259" lon="4.81882">
        <ele>172.60000610352</ele>
        <time>2024-05-20T10:29:24.000Z</time>
      </trkpt>
      <trkpt lat="46.26256" lon="4.81875">
        <ele>172.80000305176</ele>
        <time>2024-05-20T10:29:25.000Z</time>
      </trkpt>
      <trkpt lat="46.26254" lon="4.81867">
        <ele>172.80000305176</ele>
        <time>2024-05-20T10:29:26.000Z</time>
      </trkpt>
      <trkpt lat="46.26252" lon="4.81859">
        <ele>172.80000305176</ele>
        <time>2024-05-20T10:29:27.000Z</time>
      </trkpt>
      <trkpt lat="46.2625" lon="4.8185">
        <ele>172.80000305176</ele>
        <time>2024-05-20T10:29:28.000Z</time>
      </trkpt>
      <trkpt lat="46.26248" lon="4.81842">
        <ele>172.80000305176</ele>
        <time>2024-05-20T10:29:29.000Z</time>
      </trkpt>
      <trkpt lat="46.26247" lon="4.81834">
        <ele>172.60000610352</ele>
        <time>2024-05-20T10:29:30.000Z</time>
      </trkpt>
      <trkpt lat="46.26245" lon="4.81826">
        <ele>172.60000610352</ele>
        <time>2024-05-20T10:29:31.000Z</time>
      </trkpt>
      <trkpt lat="46.26244" lon="4.81818">
        <ele>172.60000610352</ele>
        <time>2024-05-20T10:29:32.000Z</time>
      </trkpt>
      <trkpt lat="46.26242" lon="4.8181">
        <ele>172.60000610352</ele>
        <time>2024-05-20T10:29:33.000Z</time>
      </trkpt>
      <trkpt lat="46.26241" lon="4.81802">
        <ele>172.60000610352</ele>
        <time>2024-05-20T10:29:34.000Z</time>
      </trkpt>
      <trkpt lat="46.26239" lon="4.81793">
        <ele>172.39999389648</ele>
        <time>2024-05-20T10:29:35.000Z</time>
      </trkpt>
      <trkpt lat="46.26238" lon="4.81785">
        <ele>172.39999389648</ele>
        <time>2024-05-20T10:29:36.000Z</time>
      </trkpt>
      <trkpt lat="46.26237" lon="4.81777">
        <ele>172.39999389648</ele>
        <time>2024-05-20T10:29:37.000Z</time>
      </trkpt>
      <trkpt lat="46.26235" lon="4.81768">
        <ele>172.39999389648</ele>
        <time>2024-05-20T10:29:38.000Z</time>
      </trkpt>
      <trkpt lat="46.26234" lon="4.8176">
        <ele>172.39999389648</ele>
        <time>2024-05-20T10:29:39.000Z</time>
      </trkpt>
      <trkpt lat="46.26231" lon="4.81753">
        <ele>172.39999389648</ele>
        <time>2024-05-20T10:29:40.000Z</time>
      </trkpt>
      <trkpt lat="46.26229" lon="4.81746">
        <ele>172.39999389648</ele>
        <time>2024-05-20T10:29:41.000Z</time>
      </trkpt>
      <trkpt lat="46.26225" lon="4.8174">
        <ele>172.60000610352</ele>
        <time>2024-05-20T10:29:42.000Z</time>
      </trkpt>
      <trkpt lat="46.26221" lon="4.81733">
        <ele>172.60000610352</ele>
        <time>2024-05-20T10:29:43.000Z</time>
      </trkpt>
      <trkpt lat="46.26217" lon="4.81727">
        <ele>172.60000610352</ele>
        <time>2024-05-20T10:29:44.000Z</time>
      </trkpt>
      <trkpt lat="46.26214" lon="4.81722">
        <ele>172.60000610352</ele>
        <time>2024-05-20T10:29:45.000Z</time>
      </trkpt>
      <trkpt lat="46.2621" lon="4.81716">
        <ele>172.60000610352</ele>
        <time>2024-05-20T10:29:46.000Z</time>
      </trkpt>
      <trkpt lat="46.26206" lon="4.81712">
        <ele>172.80000305176</ele>
        <time>2024-05-20T10:29:47.000Z</time>
      </trkpt>
      <trkpt lat="46.26202" lon="4.81707">
        <ele>172.80000305176</ele>
        <time>2024-05-20T10:29:48.000Z</time>
      </trkpt>
      <trkpt lat="46.26197" lon="4.81701">
        <ele>172.80000305176</ele>
        <time>2024-05-20T10:29:49.000Z</time>
      </trkpt>
      <trkpt lat="46.26192" lon="4.81698">
        <ele>172.80000305176</ele>
        <time>2024-05-20T10:29:50.000Z</time>
      </trkpt>
      <trkpt lat="46.26187" lon="4.81696">
        <ele>172.80000305176</ele>
        <time>2024-05-20T10:29:51.000Z</time>
      </trkpt>
      <trkpt lat="46.26183" lon="4.81693">
        <ele>173</ele>
        <time>2024-05-20T10:29:52.000Z</time>
      </trkpt>
      <trkpt lat="46.26179" lon="4.8169">
        <ele>173.19999694824</ele>
        <time>2024-05-20T10:29:53.000Z</time>
      </trkpt>
      <trkpt lat="46.26177" lon="4.81685">
        <ele>173.60000610352</ele>
        <time>2024-05-20T10:29:54.000Z</time>
      </trkpt>
      <trkpt lat="46.26174" lon="4.81678">
        <ele>173.60000610352</ele>
        <time>2024-05-20T10:29:55.000Z</time>
      </trkpt>
      <trkpt lat="46.26172" lon="4.81671">
        <ele>173.60000610352</ele>
        <time>2024-05-20T10:29:56.000Z</time>
      </trkpt>
      <trkpt lat="46.26169" lon="4.81663">
        <ele>173.60000610352</ele>
        <time>2024-05-20T10:29:57.000Z</time>
      </trkpt>
      <trkpt lat="46.26166" lon="4.81657">
        <ele>173.60000610352</ele>
        <time>2024-05-20T10:29:58.000Z</time>
      </trkpt>
      <trkpt lat="46.26163" lon="4.81651">
        <ele>173.39999389648</ele>
        <time>2024-05-20T10:29:59.000Z</time>
      </trkpt>
      <trkpt lat="46.26159" lon="4.81646">
        <ele>173.19999694824</ele>
        <time>2024-05-20T10:30:00.000Z</time>
      </trkpt>
      <trkpt lat="46.26156" lon="4.81641">
        <ele>173.19999694824</ele>
        <time>2024-05-20T10:30:01.000Z</time>
      </trkpt>
      <trkpt lat="46.26152" lon="4.81635">
        <ele>173.19999694824</ele>
        <time>2024-05-20T10:30:02.000Z</time>
      </trkpt>
      <trkpt lat="46.26148" lon="4.81629">
        <ele>173.19999694824</ele>
        <time>2024-05-20T10:30:03.000Z</time>
      </trkpt>
      <trkpt lat="46.26144" lon="4.81623">
        <ele>173.19999694824</ele>
        <time>2024-05-20T10:30:04.000Z</time>
      </trkpt>
      <trkpt lat="46.2614" lon="4.81617">
        <ele>173.19999694824</ele>
        <time>2024-05-20T10:30:05.000Z</time>
      </trkpt>
      <trkpt lat="46.26135" lon="4.81611">
        <ele>173.39999389648</ele>
        <time>2024-05-20T10:30:06.000Z</time>
      </trkpt>
      <trkpt lat="46.26132" lon="4.81604">
        <ele>173.39999389648</ele>
        <time>2024-05-20T10:30:07.000Z</time>
      </trkpt>
      <trkpt lat="46.26128" lon="4.81597">
        <ele>173.60000610352</ele>
        <time>2024-05-20T10:30:08.000Z</time>
      </trkpt>
      <trkpt lat="46.26123" lon="4.81591">
        <ele>173.60000610352</ele>
        <time>2024-05-20T10:30:09.000Z</time>
      </trkpt>
      <trkpt lat="46.2612" lon="4.81585">
        <ele>173.60000610352</ele>
        <time>2024-05-20T10:30:10.000Z</time>
      </trkpt>
      <trkpt lat="46.26116" lon="4.81578">
        <ele>173.60000610352</ele>
        <time>2024-05-20T10:30:11.000Z</time>
      </trkpt>
      <trkpt lat="46.26112" lon="4.81572">
        <ele>173.60000610352</ele>
        <time>2024-05-20T10:30:12.000Z</time>
      </trkpt>
      <trkpt lat="46.26108" lon="4.81566">
        <ele>173.80000305176</ele>
        <time>2024-05-20T10:30:13.000Z</time>
      </trkpt>
      <trkpt lat="46.26104" lon="4.81559">
        <ele>173.80000305176</ele>
        <time>2024-05-20T10:30:14.000Z</time>
      </trkpt>
      <trkpt lat="46.261" lon="4.81552">
        <ele>173.80000305176</ele>
        <time>2024-05-20T10:30:15.000Z</time>
      </trkpt>
      <trkpt lat="46.26096" lon="4.81545">
        <ele>173.60000610352</ele>
        <time>2024-05-20T10:30:16.000Z</time>
      </trkpt>
      <trkpt lat="46.26092" lon="4.81537">
        <ele>173.60000610352</ele>
        <time>2024-05-20T10:30:17.000Z</time>
      </trkpt>
      <trkpt lat="46.26088" lon="4.81531">
        <ele>173.60000610352</ele>
        <time>2024-05-20T10:30:18.000Z</time>
      </trkpt>
      <trkpt lat="46.26084" lon="4.81524">
        <ele>173.60000610352</ele>
        <time>2024-05-20T10:30:19.000Z</time>
      </trkpt>
      <trkpt lat="46.2608" lon="4.81518">
        <ele>173.60000610352</ele>
        <time>2024-05-20T10:30:20.000Z</time>
      </trkpt>
      <trkpt lat="46.26075" lon="4.81511">
        <ele>173.60000610352</ele>
        <time>2024-05-20T10:30:21.000Z</time>
      </trkpt>
      <trkpt lat="46.26071" lon="4.81504">
        <ele>173.60000610352</ele>
        <time>2024-05-20T10:30:22.000Z</time>
      </trkpt>
      <trkpt lat="46.26067" lon="4.81497">
        <ele>173.60000610352</ele>
        <time>2024-05-20T10:30:23.000Z</time>
      </trkpt>
      <trkpt lat="46.26063" lon="4.8149">
        <ele>173.60000610352</ele>
        <time>2024-05-20T10:30:24.000Z</time>
      </trkpt>
      <trkpt lat="46.26059" lon="4.81484">
        <ele>173.80000305176</ele>
        <time>2024-05-20T10:30:25.000Z</time>
      </trkpt>
      <trkpt lat="46.26055" lon="4.81477">
        <ele>173.80000305176</ele>
        <time>2024-05-20T10:30:26.000Z</time>
      </trkpt>
      <trkpt lat="46.26051" lon="4.81471">
        <ele>173.80000305176</ele>
        <time>2024-05-20T10:30:27.000Z</time>
      </trkpt>
      <trkpt lat="46.26047" lon="4.81464">
        <ele>173.80000305176</ele>
        <time>2024-05-20T10:30:28.000Z</time>
      </trkpt>
      <trkpt lat="46.26043" lon="4.81457">
        <ele>173.80000305176</ele>
        <time>2024-05-20T10:30:29.000Z</time>
      </trkpt>
      <trkpt lat="46.26039" lon="4.8145">
        <ele>173.80000305176</ele>
        <time>2024-05-20T10:30:30.000Z</time>
      </trkpt>
      <trkpt lat="46.26035" lon="4.81444">
        <ele>173.80000305176</ele>
        <time>2024-05-20T10:30:31.000Z</time>
      </trkpt>
      <trkpt lat="46.2603" lon="4.81438">
        <ele>173.80000305176</ele>
        <time>2024-05-20T10:30:32.000Z</time>
      </trkpt>
      <trkpt lat="46.26026" lon="4.81431">
        <ele>174</ele>
        <time>2024-05-20T10:30:33.000Z</time>
      </trkpt>
      <trkpt lat="46.26022" lon="4.81424">
        <ele>174</ele>
        <time>2024-05-20T10:30:34.000Z</time>
      </trkpt>
      <trkpt lat="46.26017" lon="4.81417">
        <ele>174</ele>
        <time>2024-05-20T10:30:35.000Z</time>
      </trkpt>
      <trkpt lat="46.26013" lon="4.81411">
        <ele>174</ele>
        <time>2024-05-20T10:30:36.000Z</time>
      </trkpt>
      <trkpt lat="46.26008" lon="4.81405">
        <ele>174</ele>
        <time>2024-05-20T10:30:37.000Z</time>
      </trkpt>
      <trkpt lat="46.26004" lon="4.81399">
        <ele>174</ele>
        <time>2024-05-20T10:30:38.000Z</time>
      </trkpt>
      <trkpt lat="46.25999" lon="4.81393">
        <ele>174</ele>
        <time>2024-05-20T10:30:39.000Z</time>
      </trkpt>
      <trkpt lat="46.25995" lon="4.81388">
        <ele>174</ele>
        <time>2024-05-20T10:30:40.000Z</time>
      </trkpt>
      <trkpt lat="46.2599" lon="4.81382">
        <ele>173.80000305176</ele>
        <time>2024-05-20T10:30:41.000Z</time>
      </trkpt>
      <trkpt lat="46.25985" lon="4.81378">
        <ele>173.80000305176</ele>
        <time>2024-05-20T10:30:42.000Z</time>
      </trkpt>
      <trkpt lat="46.25981" lon="4.81375">
        <ele>173.80000305176</ele>
        <time>2024-05-20T10:30:43.000Z</time>
      </trkpt>
      <trkpt lat="46.25977" lon="4.81373">
        <ele>173.80000305176</ele>
        <time>2024-05-20T10:30:44.000Z</time>
      </trkpt>
      <trkpt lat="46.25973" lon="4.81373">
        <ele>173.80000305176</ele>
        <time>2024-05-20T10:30:45.000Z</time>
      </trkpt>
      <trkpt lat="46.2597" lon="4.81377">
        <ele>174</ele>
        <time>2024-05-20T10:30:46.000Z</time>
      </trkpt>
      <trkpt lat="46.25968" lon="4.81383">
        <ele>174</ele>
        <time>2024-05-20T10:30:47.000Z</time>
      </trkpt>
      <trkpt lat="46.25967" lon="4.81389">
        <ele>174</ele>
        <time>2024-05-20T10:30:48.000Z</time>
      </trkpt>
      <trkpt lat="46.25965" lon="4.81395">
        <ele>174</ele>
        <time>2024-05-20T10:30:49.000Z</time>
      </trkpt>
      <trkpt lat="46.25964" lon="4.81402">
        <ele>173.80000305176</ele>
        <time>2024-05-20T10:30:50.000Z</time>
      </trkpt>
      <trkpt lat="46.25962" lon="4.81408">
        <ele>173.60000610352</ele>
        <time>2024-05-20T10:30:51.000Z</time>
      </trkpt>
      <trkpt lat="46.25961" lon="4.81415">
        <ele>173.60000610352</ele>
        <time>2024-05-20T10:30:52.000Z</time>
      </trkpt>
      <trkpt lat="46.2596" lon="4.81422">
        <ele>173.60000610352</ele>
        <time>2024-05-20T10:30:53.000Z</time>
      </trkpt>
      <trkpt lat="46.25958" lon="4.81429">
        <ele>173.80000305176</ele>
        <time>2024-05-20T10:30:54.000Z</time>
      </trkpt>
      <trkpt lat="46.25957" lon="4.81437">
        <ele>173.80000305176</ele>
        <time>2024-05-20T10:30:55.000Z</time>
      </trkpt>
      <trkpt lat="46.25956" lon="4.81444">
        <ele>173.80000305176</ele>
        <time>2024-05-20T10:30:56.000Z</time>
      </trkpt>
      <trkpt lat="46.25954" lon="4.81452">
        <ele>174</ele>
        <time>2024-05-20T10:30:57.000Z</time>
      </trkpt>
      <trkpt lat="46.25952" lon="4.81459">
        <ele>174</ele>
        <time>2024-05-20T10:30:58.000Z</time>
      </trkpt>
      <trkpt lat="46.25951" lon="4.81466">
        <ele>174</ele>
        <time>2024-05-20T10:30:59.000Z</time>
      </trkpt>
      <trkpt lat="46.25949" lon="4.81474">
        <ele>173.80000305176</ele>
        <time>2024-05-20T10:31:00.000Z</time>
      </trkpt>
      <trkpt lat="46.25948" lon="4.81482">
        <ele>173.80000305176</ele>
        <time>2024-05-20T10:31:01.000Z</time>
      </trkpt>
      <trkpt lat="46.25946" lon="4.8149">
        <ele>173.80000305176</ele>
        <time>2024-05-20T10:31:02.000Z</time>
      </trkpt>
      <trkpt lat="46.25945" lon="4.81497">
        <ele>173.60000610352</ele>
        <time>2024-05-20T10:31:03.000Z</time>
      </trkpt>
      <trkpt lat="46.25943" lon="4.81505">
        <ele>173.60000610352</ele>
        <time>2024-05-20T10:31:04.000Z</time>
      </trkpt>
      <trkpt lat="46.25942" lon="4.81513">
        <ele>173.60000610352</ele>
        <time>2024-05-20T10:31:05.000Z</time>
      </trkpt>
      <trkpt lat="46.2594" lon="4.81521">
        <ele>173.60000610352</ele>
        <time>2024-05-20T10:31:06.000Z</time>
      </trkpt>
      <trkpt lat="46.25939" lon="4.81529">
        <ele>173.60000610352</ele>
        <time>2024-05-20T10:31:07.000Z</time>
      </trkpt>
      <trkpt lat="46.25937" lon="4.81537">
        <ele>173.60000610352</ele>
        <time>2024-05-20T10:31:08.000Z</time>
      </trkpt>
      <trkpt lat="46.25935" lon="4.81545">
        <ele>173.60000610352</ele>
        <time>2024-05-20T10:31:09.000Z</time>
      </trkpt>
      <trkpt lat="46.25934" lon="4.81553">
        <ele>173.60000610352</ele>
        <time>2024-05-20T10:31:10.000Z</time>
      </trkpt>
      <trkpt lat="46.25932" lon="4.81561">
        <ele>173.60000610352</ele>
        <time>2024-05-20T10:31:11.000Z</time>
      </trkpt>
      <trkpt lat="46.25931" lon="4.81569">
        <ele>173.60000610352</ele>
        <time>2024-05-20T10:31:12.000Z</time>
      </trkpt>
      <trkpt lat="46.25929" lon="4.81576">
        <ele>173.60000610352</ele>
        <time>2024-05-20T10:31:13.000Z</time>
      </trkpt>
      <trkpt lat="46.25927" lon="4.81584">
        <ele>173.60000610352</ele>
        <time>2024-05-20T10:31:14.000Z</time>
      </trkpt>
      <trkpt lat="46.25926" lon="4.81592">
        <ele>173.39999389648</ele>
        <time>2024-05-20T10:31:15.000Z</time>
      </trkpt>
      <trkpt lat="46.25924" lon="4.816">
        <ele>173.39999389648</ele>
        <time>2024-05-20T10:31:16.000Z</time>
      </trkpt>
      <trkpt lat="46.25923" lon="4.81608">
        <ele>173.39999389648</ele>
        <time>2024-05-20T10:31:17.000Z</time>
      </trkpt>
      <trkpt lat="46.25921" lon="4.81616">
        <ele>173.60000610352</ele>
        <time>2024-05-20T10:31:18.000Z</time>
      </trkpt>
      <trkpt lat="46.25919" lon="4.81624">
        <ele>173.60000610352</ele>
        <time>2024-05-20T10:31:19.000Z</time>
      </trkpt>
      <trkpt lat="46.25918" lon="4.81632">
        <ele>173.60000610352</ele>
        <time>2024-05-20T10:31:20.000Z</time>
      </trkpt>
      <trkpt lat="46.25916" lon="4.8164">
        <ele>173.60000610352</ele>
        <time>2024-05-20T10:31:21.000Z</time>
      </trkpt>
      <trkpt lat="46.25915" lon="4.81648">
        <ele>173.60000610352</ele>
        <time>2024-05-20T10:31:22.000Z</time>
      </trkpt>
      <trkpt lat="46.25913" lon="4.81656">
        <ele>173.60000610352</ele>
        <time>2024-05-20T10:31:23.000Z</time>
      </trkpt>
      <trkpt lat="46.25911" lon="4.81665">
        <ele>173.60000610352</ele>
        <time>2024-05-20T10:31:24.000Z</time>
      </trkpt>
      <trkpt lat="46.2591" lon="4.81673">
        <ele>173.60000610352</ele>
        <time>2024-05-20T10:31:25.000Z</time>
      </trkpt>
      <trkpt lat="46.25908" lon="4.81681">
        <ele>173.60000610352</ele>
        <time>2024-05-20T10:31:26.000Z</time>
      </trkpt>
      <trkpt lat="46.25907" lon="4.8169">
        <ele>173.60000610352</ele>
        <time>2024-05-20T10:31:27.000Z</time>
      </trkpt>
      <trkpt lat="46.25905" lon="4.81698">
        <ele>173.60000610352</ele>
        <time>2024-05-20T10:31:28.000Z</time>
      </trkpt>
      <trkpt lat="46.25903" lon="4.81706">
        <ele>173.60000610352</ele>
        <time>2024-05-20T10:31:29.000Z</time>
      </trkpt>
      <trkpt lat="46.25901" lon="4.81714">
        <ele>173.60000610352</ele>
        <time>2024-05-20T10:31:30.000Z</time>
      </trkpt>
      <trkpt lat="46.25899" lon="4.81722">
        <ele>173.60000610352</ele>
        <time>2024-05-20T10:31:31.000Z</time>
      </trkpt>
      <trkpt lat="46.25898" lon="4.8173">
        <ele>173.60000610352</ele>
        <time>2024-05-20T10:31:32.000Z</time>
      </trkpt>
      <trkpt lat="46.25896" lon="4.81738">
        <ele>173.60000610352</ele>
        <time>2024-05-20T10:31:33.000Z</time>
      </trkpt>
      <trkpt lat="46.25893" lon="4.81746">
        <ele>173.60000610352</ele>
        <time>2024-05-20T10:31:34.000Z</time>
      </trkpt>
      <trkpt lat="46.2589" lon="4.81752">
        <ele>173.39999389648</ele>
        <time>2024-05-20T10:31:35.000Z</time>
      </trkpt>
      <trkpt lat="46.25885" lon="4.81756">
        <ele>173.39999389648</ele>
        <time>2024-05-20T10:31:36.000Z</time>
      </trkpt>
      <trkpt lat="46.2588" lon="4.81757">
        <ele>173.39999389648</ele>
        <time>2024-05-20T10:31:37.000Z</time>
      </trkpt>
      <trkpt lat="46.25875" lon="4.81756">
        <ele>173.39999389648</ele>
        <time>2024-05-20T10:31:38.000Z</time>
      </trkpt>
      <trkpt lat="46.2587" lon="4.81754">
        <ele>173.39999389648</ele>
        <time>2024-05-20T10:31:39.000Z</time>
      </trkpt>
      <trkpt lat="46.25864" lon="4.81752">
        <ele>173.60000610352</ele>
        <time>2024-05-20T10:31:40.000Z</time>
      </trkpt>
      <trkpt lat="46.25859" lon="4.81749">
        <ele>173.60000610352</ele>
        <time>2024-05-20T10:31:41.000Z</time>
      </trkpt>
      <trkpt lat="46.25854" lon="4.81747">
        <ele>173.60000610352</ele>
        <time>2024-05-20T10:31:42.000Z</time>
      </trkpt>
      <trkpt lat="46.25849" lon="4.81744">
        <ele>173.60000610352</ele>
        <time>2024-05-20T10:31:43.000Z</time>
      </trkpt>
      <trkpt lat="46.25843" lon="4.81742">
        <ele>173.60000610352</ele>
        <time>2024-05-20T10:31:44.000Z</time>
      </trkpt>
      <trkpt lat="46.25837" lon="4.81739">
        <ele>173.80000305176</ele>
        <time>2024-05-20T10:31:45.000Z</time>
      </trkpt>
      <trkpt lat="46.25832" lon="4.81737">
        <ele>173.80000305176</ele>
        <time>2024-05-20T10:31:46.000Z</time>
      </trkpt>
      <trkpt lat="46.25827" lon="4.81735">
        <ele>173.80000305176</ele>
        <time>2024-05-20T10:31:47.000Z</time>
      </trkpt>
      <trkpt lat="46.25821" lon="4.81733">
        <ele>174</ele>
        <time>2024-05-20T10:31:48.000Z</time>
      </trkpt>
      <trkpt lat="46.25816" lon="4.8173">
        <ele>174</ele>
        <time>2024-05-20T10:31:49.000Z</time>
      </trkpt>
      <trkpt lat="46.2581" lon="4.81728">
        <ele>174</ele>
        <time>2024-05-20T10:31:50.000Z</time>
      </trkpt>
      <trkpt lat="46.25805" lon="4.81725">
        <ele>174</ele>
        <time>2024-05-20T10:31:51.000Z</time>
      </trkpt>
      <trkpt lat="46.258" lon="4.81722">
        <ele>174</ele>
        <time>2024-05-20T10:31:52.000Z</time>
      </trkpt>
      <trkpt lat="46.25794" lon="4.8172">
        <ele>174</ele>
        <time>2024-05-20T10:31:53.000Z</time>
      </trkpt>
      <trkpt lat="46.25789" lon="4.81717">
        <ele>174</ele>
        <time>2024-05-20T10:31:54.000Z</time>
      </trkpt>
      <trkpt lat="46.25783" lon="4.81714">
        <ele>174</ele>
        <time>2024-05-20T10:31:55.000Z</time>
      </trkpt>
      <trkpt lat="46.25777" lon="4.81712">
        <ele>174</ele>
        <time>2024-05-20T10:31:56.000Z</time>
      </trkpt>
      <trkpt lat="46.25771" lon="4.81711">
        <ele>173.80000305176</ele>
        <time>2024-05-20T10:31:57.000Z</time>
      </trkpt>
      <trkpt lat="46.25766" lon="4.81713">
        <ele>173.60000610352</ele>
        <time>2024-05-20T10:31:58.000Z</time>
      </trkpt>
      <trkpt lat="46.25762" lon="4.81717">
        <ele>173.60000610352</ele>
        <time>2024-05-20T10:31:59.000Z</time>
      </trkpt>
      <trkpt lat="46.25759" lon="4.81724">
        <ele>173.60000610352</ele>
        <time>2024-05-20T10:32:00.000Z</time>
      </trkpt>
      <trkpt lat="46.25757" lon="4.81731">
        <ele>173.60000610352</ele>
        <time>2024-05-20T10:32:01.000Z</time>
      </trkpt>
      <trkpt lat="46.25756" lon="4.81738">
        <ele>173.80000305176</ele>
        <time>2024-05-20T10:32:02.000Z</time>
      </trkpt>
      <trkpt lat="46.25755" lon="4.81746">
        <ele>173.80000305176</ele>
        <time>2024-05-20T10:32:03.000Z</time>
      </trkpt>
      <trkpt lat="46.25754" lon="4.81753">
        <ele>173.80000305176</ele>
        <time>2024-05-20T10:32:04.000Z</time>
      </trkpt>
      <trkpt lat="46.25752" lon="4.81761">
        <ele>174</ele>
        <time>2024-05-20T10:32:05.000Z</time>
      </trkpt>
      <trkpt lat="46.25751" lon="4.81769">
        <ele>174</ele>
        <time>2024-05-20T10:32:06.000Z</time>
      </trkpt>
      <trkpt lat="46.25749" lon="4.81777">
        <ele>174</ele>
        <time>2024-05-20T10:32:07.000Z</time>
      </trkpt>
      <trkpt lat="46.25747" lon="4.81784">
        <ele>174</ele>
        <time>2024-05-20T10:32:08.000Z</time>
      </trkpt>
      <trkpt lat="46.25745" lon="4.81792">
        <ele>174</ele>
        <time>2024-05-20T10:32:09.000Z</time>
      </trkpt>
      <trkpt lat="46.25744" lon="4.818">
        <ele>174</ele>
        <time>2024-05-20T10:32:10.000Z</time>
      </trkpt>
      <trkpt lat="46.25742" lon="4.81808">
        <ele>174</ele>
        <time>2024-05-20T10:32:11.000Z</time>
      </trkpt>
      <trkpt lat="46.2574" lon="4.81816">
        <ele>174</ele>
        <time>2024-05-20T10:32:12.000Z</time>
      </trkpt>
      <trkpt lat="46.25738" lon="4.81824">
        <ele>174</ele>
        <time>2024-05-20T10:32:13.000Z</time>
      </trkpt>
      <trkpt lat="46.25736" lon="4.81832">
        <ele>174</ele>
        <time>2024-05-20T10:32:14.000Z</time>
      </trkpt>
      <trkpt lat="46.25734" lon="4.81839">
        <ele>173.80000305176</ele>
        <time>2024-05-20T10:32:15.000Z</time>
      </trkpt>
      <trkpt lat="46.25732" lon="4.81847">
        <ele>174</ele>
        <time>2024-05-20T10:32:16.000Z</time>
      </trkpt>
      <trkpt lat="46.2573" lon="4.81855">
        <ele>174</ele>
        <time>2024-05-20T10:32:17.000Z</time>
      </trkpt>
      <trkpt lat="46.25728" lon="4.81863">
        <ele>174</ele>
        <time>2024-05-20T10:32:18.000Z</time>
      </trkpt>
      <trkpt lat="46.25726" lon="4.81871">
        <ele>174</ele>
        <time>2024-05-20T10:32:19.000Z</time>
      </trkpt>
      <trkpt lat="46.25723" lon="4.81878">
        <ele>174</ele>
        <time>2024-05-20T10:32:20.000Z</time>
      </trkpt>
      <trkpt lat="46.25721" lon="4.81886">
        <ele>173.80000305176</ele>
        <time>2024-05-20T10:32:21.000Z</time>
      </trkpt>
      <trkpt lat="46.25719" lon="4.81894">
        <ele>173.80000305176</ele>
        <time>2024-05-20T10:32:22.000Z</time>
      </trkpt>
      <trkpt lat="46.25716" lon="4.81902">
        <ele>173.80000305176</ele>
        <time>2024-05-20T10:32:23.000Z</time>
      </trkpt>
      <trkpt lat="46.25714" lon="4.8191">
        <ele>173.80000305176</ele>
        <time>2024-05-20T10:32:24.000Z</time>
      </trkpt>
      <trkpt lat="46.25711" lon="4.81918">
        <ele>173.39999389648</ele>
        <time>2024-05-20T10:32:25.000Z</time>
      </trkpt>
      <trkpt lat="46.25708" lon="4.81924">
        <ele>173.39999389648</ele>
        <time>2024-05-20T10:32:26.000Z</time>
      </trkpt>
      <trkpt lat="46.25704" lon="4.81929">
        <ele>173.39999389648</ele>
        <time>2024-05-20T10:32:27.000Z</time>
      </trkpt>
      <trkpt lat="46.257" lon="4.81932">
        <ele>173.39999389648</ele>
        <time>2024-05-20T10:32:28.000Z</time>
      </trkpt>
      <trkpt lat="46.25695" lon="4.81932">
        <ele>173.39999389648</ele>
        <time>2024-05-20T10:32:29.000Z</time>
      </trkpt>
      <trkpt lat="46.25691" lon="4.8193">
        <ele>173.60000610352</ele>
        <time>2024-05-20T10:32:30.000Z</time>
      </trkpt>
      <trkpt lat="46.25685" lon="4.81928">
        <ele>173.60000610352</ele>
        <time>2024-05-20T10:32:31.000Z</time>
      </trkpt>
      <trkpt lat="46.2568" lon="4.81925">
        <ele>173.80000305176</ele>
        <time>2024-05-20T10:32:32.000Z</time>
      </trkpt>
      <trkpt lat="46.25675" lon="4.81923">
        <ele>173.80000305176</ele>
        <time>2024-05-20T10:32:33.000Z</time>
      </trkpt>
      <trkpt lat="46.2567" lon="4.8192">
        <ele>173.80000305176</ele>
        <time>2024-05-20T10:32:34.000Z</time>
      </trkpt>
      <trkpt lat="46.25665" lon="4.81919">
        <ele>173.80000305176</ele>
        <time>2024-05-20T10:32:35.000Z</time>
      </trkpt>
      <trkpt lat="46.25659" lon="4.81917">
        <ele>173.80000305176</ele>
        <time>2024-05-20T10:32:36.000Z</time>
      </trkpt>
      <trkpt lat="46.25654" lon="4.81915">
        <ele>173.80000305176</ele>
        <time>2024-05-20T10:32:37.000Z</time>
      </trkpt>
      <trkpt lat="46.25649" lon="4.81914">
        <ele>173.80000305176</ele>
        <time>2024-05-20T10:32:38.000Z</time>
      </trkpt>
      <trkpt lat="46.25643" lon="4.81913">
        <ele>174</ele>
        <time>2024-05-20T10:32:39.000Z</time>
      </trkpt>
      <trkpt lat="46.25638" lon="4.81911">
        <ele>174</ele>
        <time>2024-05-20T10:32:40.000Z</time>
      </trkpt>
      <trkpt lat="46.25632" lon="4.8191">
        <ele>174</ele>
        <time>2024-05-20T10:32:41.000Z</time>
      </trkpt>
      <trkpt lat="46.25627" lon="4.81909">
        <ele>174.19999694824</ele>
        <time>2024-05-20T10:32:42.000Z</time>
      </trkpt>
      <trkpt lat="46.25621" lon="4.81908">
        <ele>174.19999694824</ele>
        <time>2024-05-20T10:32:43.000Z</time>
      </trkpt>
      <trkpt lat="46.25615" lon="4.81906">
        <ele>174.19999694824</ele>
        <time>2024-05-20T10:32:44.000Z</time>
      </trkpt>
      <trkpt lat="46.2561" lon="4.81903">
        <ele>174.19999694824</ele>
        <time>2024-05-20T10:32:45.000Z</time>
      </trkpt>
      <trkpt lat="46.25604" lon="4.819">
        <ele>174.19999694824</ele>
        <time>2024-05-20T10:32:46.000Z</time>
      </trkpt>
      <trkpt lat="46.25599" lon="4.81896">
        <ele>174.19999694824</ele>
        <time>2024-05-20T10:32:47.000Z</time>
      </trkpt>
      <trkpt lat="46.25594" lon="4.81891">
        <ele>174.19999694824</ele>
        <time>2024-05-20T10:32:48.000Z</time>
      </trkpt>
      <trkpt lat="46.2559" lon="4.81886">
        <ele>174.19999694824</ele>
        <time>2024-05-20T10:32:49.000Z</time>
      </trkpt>
      <trkpt lat="46.25585" lon="4.81881">
        <ele>174.19999694824</ele>
        <time>2024-05-20T10:32:50.000Z</time>
      </trkpt>
      <trkpt lat="46.2558" lon="4.81877">
        <ele>174.19999694824</ele>
        <time>2024-05-20T10:32:51.000Z</time>
      </trkpt>
      <trkpt lat="46.25574" lon="4.81873">
        <ele>174.19999694824</ele>
        <time>2024-05-20T10:32:52.000Z</time>
      </trkpt>
      <trkpt lat="46.25569" lon="4.8187">
        <ele>174.19999694824</ele>
        <time>2024-05-20T10:32:53.000Z</time>
      </trkpt>
      <trkpt lat="46.25564" lon="4.81867">
        <ele>174.19999694824</ele>
        <time>2024-05-20T10:32:54.000Z</time>
      </trkpt>
      <trkpt lat="46.25558" lon="4.81864">
        <ele>174.19999694824</ele>
        <time>2024-05-20T10:32:55.000Z</time>
      </trkpt>
      <trkpt lat="46.25553" lon="4.81861">
        <ele>174.19999694824</ele>
        <time>2024-05-20T10:32:56.000Z</time>
      </trkpt>
      <trkpt lat="46.25547" lon="4.81858">
        <ele>174.19999694824</ele>
        <time>2024-05-20T10:32:57.000Z</time>
      </trkpt>
      <trkpt lat="46.25541" lon="4.81855">
        <ele>174</ele>
        <time>2024-05-20T10:32:58.000Z</time>
      </trkpt>
      <trkpt lat="46.25536" lon="4.81852">
        <ele>174</ele>
        <time>2024-05-20T10:32:59.000Z</time>
      </trkpt>
      <trkpt lat="46.2553" lon="4.8185">
        <ele>174</ele>
        <time>2024-05-20T10:33:00.000Z</time>
      </trkpt>
      <trkpt lat="46.25525" lon="4.81847">
        <ele>174</ele>
        <time>2024-05-20T10:33:01.000Z</time>
      </trkpt>
      <trkpt lat="46.25519" lon="4.81844">
        <ele>174</ele>
        <time>2024-05-20T10:33:02.000Z</time>
      </trkpt>
      <trkpt lat="46.25514" lon="4.81841">
        <ele>174</ele>
        <time>2024-05-20T10:33:03.000Z</time>
      </trkpt>
      <trkpt lat="46.25508" lon="4.81838">
        <ele>174</ele>
        <time>2024-05-20T10:33:04.000Z</time>
      </trkpt>
      <trkpt lat="46.25502" lon="4.81835">
        <ele>174</ele>
        <time>2024-05-20T10:33:05.000Z</time>
      </trkpt>
      <trkpt lat="46.25497" lon="4.81832">
        <ele>174.19999694824</ele>
        <time>2024-05-20T10:33:06.000Z</time>
      </trkpt>
      <trkpt lat="46.25492" lon="4.81829">
        <ele>174.19999694824</ele>
        <time>2024-05-20T10:33:07.000Z</time>
      </trkpt>
      <trkpt lat="46.25486" lon="4.81826">
        <ele>174.19999694824</ele>
        <time>2024-05-20T10:33:08.000Z</time>
      </trkpt>
      <trkpt lat="46.25481" lon="4.81824">
        <ele>174.19999694824</ele>
        <time>2024-05-20T10:33:09.000Z</time>
      </trkpt>
      <trkpt lat="46.25476" lon="4.81821">
        <ele>174.19999694824</ele>
        <time>2024-05-20T10:33:10.000Z</time>
      </trkpt>
      <trkpt lat="46.25471" lon="4.81817">
        <ele>174.19999694824</ele>
        <time>2024-05-20T10:33:11.000Z</time>
      </trkpt>
      <trkpt lat="46.25467" lon="4.81812">
        <ele>174.19999694824</ele>
        <time>2024-05-20T10:33:12.000Z</time>
      </trkpt>
      <trkpt lat="46.25464" lon="4.81806">
        <ele>174.19999694824</ele>
        <time>2024-05-20T10:33:13.000Z</time>
      </trkpt>
      <trkpt lat="46.25462" lon="4.81798">
        <ele>174.19999694824</ele>
        <time>2024-05-20T10:33:14.000Z</time>
      </trkpt>
      <trkpt lat="46.25462" lon="4.81791">
        <ele>174.19999694824</ele>
        <time>2024-05-20T10:33:15.000Z</time>
      </trkpt>
      <trkpt lat="46.25464" lon="4.81784">
        <ele>174.19999694824</ele>
        <time>2024-05-20T10:33:16.000Z</time>
      </trkpt>
      <trkpt lat="46.25465" lon="4.81777">
        <ele>174</ele>
        <time>2024-05-20T10:33:17.000Z</time>
      </trkpt>
      <trkpt lat="46.25467" lon="4.8177">
        <ele>174</ele>
        <time>2024-05-20T10:33:18.000Z</time>
      </trkpt>
      <trkpt lat="46.25468" lon="4.81762">
        <ele>174</ele>
        <time>2024-05-20T10:33:19.000Z</time>
      </trkpt>
      <trkpt lat="46.2547" lon="4.81755">
        <ele>174</ele>
        <time>2024-05-20T10:33:20.000Z</time>
      </trkpt>
      <trkpt lat="46.25472" lon="4.81748">
        <ele>174</ele>
        <time>2024-05-20T10:33:21.000Z</time>
      </trkpt>
      <trkpt lat="46.25474" lon="4.8174">
        <ele>174</ele>
        <time>2024-05-20T10:33:22.000Z</time>
      </trkpt>
      <trkpt lat="46.25476" lon="4.81733">
        <ele>174</ele>
        <time>2024-05-20T10:33:23.000Z</time>
      </trkpt>
      <trkpt lat="46.25478" lon="4.81725">
        <ele>174.19999694824</ele>
        <time>2024-05-20T10:33:24.000Z</time>
      </trkpt>
      <trkpt lat="46.2548" lon="4.81717">
        <ele>174</ele>
        <time>2024-05-20T10:33:25.000Z</time>
      </trkpt>
      <trkpt lat="46.25482" lon="4.81709">
        <ele>174</ele>
        <time>2024-05-20T10:33:26.000Z</time>
      </trkpt>
      <trkpt lat="46.25484" lon="4.81702">
        <ele>174</ele>
        <time>2024-05-20T10:33:27.000Z</time>
      </trkpt>
      <trkpt lat="46.25486" lon="4.81694">
        <ele>174</ele>
        <time>2024-05-20T10:33:28.000Z</time>
      </trkpt>
      <trkpt lat="46.25488" lon="4.81686">
        <ele>174</ele>
        <time>2024-05-20T10:33:29.000Z</time>
      </trkpt>
      <trkpt lat="46.2549" lon="4.81679">
        <ele>174</ele>
        <time>2024-05-20T10:33:30.000Z</time>
      </trkpt>
      <trkpt lat="46.25492" lon="4.81671">
        <ele>173.80000305176</ele>
        <time>2024-05-20T10:33:31.000Z</time>
      </trkpt>
      <trkpt lat="46.25494" lon="4.81664">
        <ele>173.80000305176</ele>
        <time>2024-05-20T10:33:32.000Z</time>
      </trkpt>
      <trkpt lat="46.25495" lon="4.81657">
        <ele>173.80000305176</ele>
        <time>2024-05-20T10:33:33.000Z</time>
      </trkpt>
      <trkpt lat="46.25497" lon="4.81649">
        <ele>173.80000305176</ele>
        <time>2024-05-20T10:33:34.000Z</time>
      </trkpt>
      <trkpt lat="46.25499" lon="4.81642">
        <ele>173.80000305176</ele>
        <time>2024-05-20T10:33:35.000Z</time>
      </trkpt>
      <trkpt lat="46.25501" lon="4.81635">
        <ele>173.80000305176</ele>
        <time>2024-05-20T10:33:36.000Z</time>
      </trkpt>
      <trkpt lat="46.25502" lon="4.81629">
        <ele>173.80000305176</ele>
        <time>2024-05-20T10:33:37.000Z</time>
      </trkpt>
      <trkpt lat="46.25501" lon="4.81622">
        <ele>173.80000305176</ele>
        <time>2024-05-20T10:33:38.000Z</time>
      </trkpt>
      <trkpt lat="46.25499" lon="4.81616">
        <ele>173.80000305176</ele>
        <time>2024-05-20T10:33:39.000Z</time>
      </trkpt>
      <trkpt lat="46.25495" lon="4.81611">
        <ele>173.80000305176</ele>
        <time>2024-05-20T10:33:40.000Z</time>
      </trkpt>
      <trkpt lat="46.2549" lon="4.81609">
        <ele>173.60000610352</ele>
        <time>2024-05-20T10:33:41.000Z</time>
      </trkpt>
      <trkpt lat="46.25486" lon="4.81608">
        <ele>173.39999389648</ele>
        <time>2024-05-20T10:33:42.000Z</time>
      </trkpt>
      <trkpt lat="46.25481" lon="4.81608">
        <ele>173.39999389648</ele>
        <time>2024-05-20T10:33:43.000Z</time>
      </trkpt>
      <trkpt lat="46.25476" lon="4.81607">
        <ele>173.39999389648</ele>
        <time>2024-05-20T10:33:44.000Z</time>
      </trkpt>
      <trkpt lat="46.25471" lon="4.81607">
        <ele>173.39999389648</ele>
        <time>2024-05-20T10:33:45.000Z</time>
      </trkpt>
      <trkpt lat="46.25467" lon="4.81606">
        <ele>173.39999389648</ele>
        <time>2024-05-20T10:33:46.000Z</time>
      </trkpt>
      <trkpt lat="46.25462" lon="4.81605">
        <ele>173.39999389648</ele>
        <time>2024-05-20T10:33:47.000Z</time>
      </trkpt>
      <trkpt lat="46.25457" lon="4.81605">
        <ele>173.60000610352</ele>
        <time>2024-05-20T10:33:48.000Z</time>
      </trkpt>
      <trkpt lat="46.25452" lon="4.81605">
        <ele>173.60000610352</ele>
        <time>2024-05-20T10:33:49.000Z</time>
      </trkpt>
      <trkpt lat="46.25447" lon="4.81604">
        <ele>173.60000610352</ele>
        <time>2024-05-20T10:33:50.000Z</time>
      </trkpt>
      <trkpt lat="46.25441" lon="4.81604">
        <ele>173.80000305176</ele>
        <time>2024-05-20T10:33:51.000Z</time>
      </trkpt>
      <trkpt lat="46.25436" lon="4.81604">
        <ele>173.80000305176</ele>
        <time>2024-05-20T10:33:52.000Z</time>
      </trkpt>
      <trkpt lat="46.25431" lon="4.81603">
        <ele>173.80000305176</ele>
        <time>2024-05-20T10:33:53.000Z</time>
      </trkpt>
      <trkpt lat="46.25425" lon="4.81603">
        <ele>173.80000305176</ele>
        <time>2024-05-20T10:33:54.000Z</time>
      </trkpt>
      <trkpt lat="46.25419" lon="4.81602">
        <ele>173.80000305176</ele>
        <time>2024-05-20T10:33:55.000Z</time>
      </trkpt>
      <trkpt lat="46.25414" lon="4.81601">
        <ele>173.80000305176</ele>
        <time>2024-05-20T10:33:56.000Z</time>
      </trkpt>
      <trkpt lat="46.25408" lon="4.816">
        <ele>173.80000305176</ele>
        <time>2024-05-20T10:33:57.000Z</time>
      </trkpt>
      <trkpt lat="46.25402" lon="4.81599">
        <ele>173.80000305176</ele>
        <time>2024-05-20T10:33:58.000Z</time>
      </trkpt>
      <trkpt lat="46.25397" lon="4.81599">
        <ele>173.80000305176</ele>
        <time>2024-05-20T10:33:59.000Z</time>
      </trkpt>
      <trkpt lat="46.25391" lon="4.81598">
        <ele>173.80000305176</ele>
        <time>2024-05-20T10:34:00.000Z</time>
      </trkpt>
      <trkpt lat="46.25385" lon="4.81597">
        <ele>173.80000305176</ele>
        <time>2024-05-20T10:34:01.000Z</time>
      </trkpt>
      <trkpt lat="46.25379" lon="4.81596">
        <ele>173.80000305176</ele>
        <time>2024-05-20T10:34:02.000Z</time>
      </trkpt>
      <trkpt lat="46.25374" lon="4.81596">
        <ele>173.80000305176</ele>
        <time>2024-05-20T10:34:03.000Z</time>
      </trkpt>
      <trkpt lat="46.25368" lon="4.81595">
        <ele>173.80000305176</ele>
        <time>2024-05-20T10:34:04.000Z</time>
      </trkpt>
      <trkpt lat="46.25362" lon="4.81595">
        <ele>173.60000610352</ele>
        <time>2024-05-20T10:34:05.000Z</time>
      </trkpt>
      <trkpt lat="46.25356" lon="4.81596">
        <ele>173.60000610352</ele>
        <time>2024-05-20T10:34:06.000Z</time>
      </trkpt>
      <trkpt lat="46.25351" lon="4.81599">
        <ele>173.60000610352</ele>
        <time>2024-05-20T10:34:07.000Z</time>
      </trkpt>
      <trkpt lat="46.25346" lon="4.81604">
        <ele>173.39999389648</ele>
        <time>2024-05-20T10:34:08.000Z</time>
      </trkpt>
      <trkpt lat="46.25343" lon="4.81609">
        <ele>173.39999389648</ele>
        <time>2024-05-20T10:34:09.000Z</time>
      </trkpt>
      <trkpt lat="46.2534" lon="4.81616">
        <ele>173.39999389648</ele>
        <time>2024-05-20T10:34:10.000Z</time>
      </trkpt>
      <trkpt lat="46.25338" lon="4.81623">
        <ele>173.39999389648</ele>
        <time>2024-05-20T10:34:11.000Z</time>
      </trkpt>
      <trkpt lat="46.25336" lon="4.8163">
        <ele>173.80000305176</ele>
        <time>2024-05-20T10:34:12.000Z</time>
      </trkpt>
      <trkpt lat="46.25334" lon="4.81638">
        <ele>173.80000305176</ele>
        <time>2024-05-20T10:34:13.000Z</time>
      </trkpt>
      <trkpt lat="46.25333" lon="4.81646">
        <ele>173.80000305176</ele>
        <time>2024-05-20T10:34:14.000Z</time>
      </trkpt>
      <trkpt lat="46.25331" lon="4.81654">
        <ele>173.80000305176</ele>
        <time>2024-05-20T10:34:15.000Z</time>
      </trkpt>
      <trkpt lat="46.25329" lon="4.81662">
        <ele>173.80000305176</ele>
        <time>2024-05-20T10:34:16.000Z</time>
      </trkpt>
      <trkpt lat="46.25327" lon="4.8167">
        <ele>173.60000610352</ele>
        <time>2024-05-20T10:34:17.000Z</time>
      </trkpt>
      <trkpt lat="46.25325" lon="4.81678">
        <ele>173.60000610352</ele>
        <time>2024-05-20T10:34:18.000Z</time>
      </trkpt>
      <trkpt lat="46.25323" lon="4.81686">
        <ele>173.60000610352</ele>
        <time>2024-05-20T10:34:19.000Z</time>
      </trkpt>
      <trkpt lat="46.25321" lon="4.81694">
        <ele>173.60000610352</ele>
        <time>2024-05-20T10:34:20.000Z</time>
      </trkpt>
      <trkpt lat="46.25319" lon="4.81703">
        <ele>173.60000610352</ele>
        <time>2024-05-20T10:34:21.000Z</time>
      </trkpt>
      <trkpt lat="46.25317" lon="4.81711">
        <ele>173.39999389648</ele>
        <time>2024-05-20T10:34:22.000Z</time>
      </trkpt>
      <trkpt lat="46.25315" lon="4.81719">
        <ele>173.39999389648</ele>
        <time>2024-05-20T10:34:23.000Z</time>
      </trkpt>
      <trkpt lat="46.25313" lon="4.81727">
        <ele>173.39999389648</ele>
        <time>2024-05-20T10:34:24.000Z</time>
      </trkpt>
      <trkpt lat="46.25312" lon="4.81735">
        <ele>173.39999389648</ele>
        <time>2024-05-20T10:34:25.000Z</time>
      </trkpt>
      <trkpt lat="46.2531" lon="4.81743">
        <ele>173.39999389648</ele>
        <time>2024-05-20T10:34:26.000Z</time>
      </trkpt>
      <trkpt lat="46.25308" lon="4.81751">
        <ele>173.39999389648</ele>
        <time>2024-05-20T10:34:27.000Z</time>
      </trkpt>
      <trkpt lat="46.25307" lon="4.81759">
        <ele>173.39999389648</ele>
        <time>2024-05-20T10:34:28.000Z</time>
      </trkpt>
      <trkpt lat="46.25307" lon="4.81766">
        <ele>173.39999389648</ele>
        <time>2024-05-20T10:34:29.000Z</time>
      </trkpt>
      <trkpt lat="46.25308" lon="4.81774">
        <ele>173.19999694824</ele>
        <time>2024-05-20T10:34:30.000Z</time>
      </trkpt>
      <trkpt lat="46.25311" lon="4.81781">
        <ele>173.19999694824</ele>
        <time>2024-05-20T10:34:31.000Z</time>
      </trkpt>
      <trkpt lat="46.25314" lon="4.81787">
        <ele>173.19999694824</ele>
        <time>2024-05-20T10:34:32.000Z</time>
      </trkpt>
      <trkpt lat="46.25319" lon="4.81792">
        <ele>173.19999694824</ele>
        <time>2024-05-20T10:34:33.000Z</time>
      </trkpt>
      <trkpt lat="46.25323" lon="4.81797">
        <ele>173.19999694824</ele>
        <time>2024-05-20T10:34:34.000Z</time>
      </trkpt>
      <trkpt lat="46.25327" lon="4.81802">
        <ele>173</ele>
        <time>2024-05-20T10:34:35.000Z</time>
      </trkpt>
      <trkpt lat="46.2533" lon="4.81809">
        <ele>173</ele>
        <time>2024-05-20T10:34:36.000Z</time>
      </trkpt>
      <trkpt lat="46.25331" lon="4.81816">
        <ele>172.80000305176</ele>
        <time>2024-05-20T10:34:37.000Z</time>
      </trkpt>
      <trkpt lat="46.25331" lon="4.81824">
        <ele>172.60000610352</ele>
        <time>2024-05-20T10:34:38.000Z</time>
      </trkpt>
      <trkpt lat="46.2533" lon="4.81832">
        <ele>172.60000610352</ele>
        <time>2024-05-20T10:34:39.000Z</time>
      </trkpt>
      <trkpt lat="46.25329" lon="4.8184">
        <ele>172.60000610352</ele>
        <time>2024-05-20T10:34:40.000Z</time>
      </trkpt>
      <trkpt lat="46.25328" lon="4.81848">
        <ele>172.60000610352</ele>
        <time>2024-05-20T10:34:41.000Z</time>
      </trkpt>
      <trkpt lat="46.25326" lon="4.81855">
        <ele>172.80000305176</ele>
        <time>2024-05-20T10:34:42.000Z</time>
      </trkpt>
      <trkpt lat="46.25325" lon="4.81863">
        <ele>172.80000305176</ele>
        <time>2024-05-20T10:34:43.000Z</time>
      </trkpt>
      <trkpt lat="46.25323" lon="4.81872">
        <ele>172.80000305176</ele>
        <time>2024-05-20T10:34:44.000Z</time>
      </trkpt>
      <trkpt lat="46.25322" lon="4.8188">
        <ele>173</ele>
        <time>2024-05-20T10:34:45.000Z</time>
      </trkpt>
      <trkpt lat="46.25321" lon="4.81889">
        <ele>173</ele>
        <time>2024-05-20T10:34:46.000Z</time>
      </trkpt>
      <trkpt lat="46.2532" lon="4.81897">
        <ele>173</ele>
        <time>2024-05-20T10:34:47.000Z</time>
      </trkpt>
      <trkpt lat="46.25319" lon="4.81905">
        <ele>173</ele>
        <time>2024-05-20T10:34:48.000Z</time>
      </trkpt>
      <trkpt lat="46.25317" lon="4.81914">
        <ele>173</ele>
        <time>2024-05-20T10:34:49.000Z</time>
      </trkpt>
      <trkpt lat="46.25316" lon="4.81922">
        <ele>173</ele>
        <time>2024-05-20T10:34:50.000Z</time>
      </trkpt>
      <trkpt lat="46.25314" lon="4.8193">
        <ele>173</ele>
        <time>2024-05-20T10:34:51.000Z</time>
      </trkpt>
      <trkpt lat="46.25313" lon="4.81939">
        <ele>173</ele>
        <time>2024-05-20T10:34:52.000Z</time>
      </trkpt>
      <trkpt lat="46.25312" lon="4.81948">
        <ele>173</ele>
        <time>2024-05-20T10:34:53.000Z</time>
      </trkpt>
      <trkpt lat="46.2531" lon="4.81956">
        <ele>172.80000305176</ele>
        <time>2024-05-20T10:34:54.000Z</time>
      </trkpt>
      <trkpt lat="46.25309" lon="4.81965">
        <ele>172.80000305176</ele>
        <time>2024-05-20T10:34:55.000Z</time>
      </trkpt>
      <trkpt lat="46.25307" lon="4.81973">
        <ele>172.80000305176</ele>
        <time>2024-05-20T10:34:56.000Z</time>
      </trkpt>
      <trkpt lat="46.25306" lon="4.81982">
        <ele>172.80000305176</ele>
        <time>2024-05-20T10:34:57.000Z</time>
      </trkpt>
      <trkpt lat="46.25305" lon="4.8199">
        <ele>172.80000305176</ele>
        <time>2024-05-20T10:34:58.000Z</time>
      </trkpt>
      <trkpt lat="46.25303" lon="4.81998">
        <ele>172.80000305176</ele>
        <time>2024-05-20T10:34:59.000Z</time>
      </trkpt>
      <trkpt lat="46.25302" lon="4.82005">
        <ele>172.80000305176</ele>
        <time>2024-05-20T10:35:00.000Z</time>
      </trkpt>
      <trkpt lat="46.25299" lon="4.82012">
        <ele>172.80000305176</ele>
        <time>2024-05-20T10:35:01.000Z</time>
      </trkpt>
      <trkpt lat="46.25295" lon="4.82017">
        <ele>172.60000610352</ele>
        <time>2024-05-20T10:35:02.000Z</time>
      </trkpt>
      <trkpt lat="46.2529" lon="4.82018">
        <ele>172.60000610352</ele>
        <time>2024-05-20T10:35:03.000Z</time>
      </trkpt>
      <trkpt lat="46.25286" lon="4.82016">
        <ele>172.60000610352</ele>
        <time>2024-05-20T10:35:04.000Z</time>
      </trkpt>
      <trkpt lat="46.25281" lon="4.82013">
        <ele>172.60000610352</ele>
        <time>2024-05-20T10:35:05.000Z</time>
      </trkpt>
      <trkpt lat="46.25276" lon="4.82011">
        <ele>172.60000610352</ele>
        <time>2024-05-20T10:35:06.000Z</time>
      </trkpt>
      <trkpt lat="46.25271" lon="4.82009">
        <ele>172.60000610352</ele>
        <time>2024-05-20T10:35:07.000Z</time>
      </trkpt>
      <trkpt lat="46.25266" lon="4.82007">
        <ele>172.60000610352</ele>
        <time>2024-05-20T10:35:08.000Z</time>
      </trkpt>
      <trkpt lat="46.25261" lon="4.82006">
        <ele>172.60000610352</ele>
        <time>2024-05-20T10:35:09.000Z</time>
      </trkpt>
      <trkpt lat="46.25256" lon="4.82003">
        <ele>172.39999389648</ele>
        <time>2024-05-20T10:35:10.000Z</time>
      </trkpt>
      <trkpt lat="46.25251" lon="4.82001">
        <ele>172.39999389648</ele>
        <time>2024-05-20T10:35:11.000Z</time>
      </trkpt>
      <trkpt lat="46.25245" lon="4.81999">
        <ele>172.60000610352</ele>
        <time>2024-05-20T10:35:12.000Z</time>
      </trkpt>
      <trkpt lat="46.2524" lon="4.81997">
        <ele>172.60000610352</ele>
        <time>2024-05-20T10:35:13.000Z</time>
      </trkpt>
      <trkpt lat="46.25234" lon="4.81995">
        <ele>172.80000305176</ele>
        <time>2024-05-20T10:35:14.000Z</time>
      </trkpt>
      <trkpt lat="46.25229" lon="4.81993">
        <ele>172.80000305176</ele>
        <time>2024-05-20T10:35:15.000Z</time>
      </trkpt>
      <trkpt lat="46.25223" lon="4.81991">
        <ele>172.80000305176</ele>
        <time>2024-05-20T10:35:16.000Z</time>
      </trkpt>
      <trkpt lat="46.25218" lon="4.81989">
        <ele>172.80000305176</ele>
        <time>2024-05-20T10:35:17.000Z</time>
      </trkpt>
      <trkpt lat="46.25213" lon="4.81987">
        <ele>172.80000305176</ele>
        <time>2024-05-20T10:35:18.000Z</time>
      </trkpt>
      <trkpt lat="46.25207" lon="4.81985">
        <ele>172.80000305176</ele>
        <time>2024-05-20T10:35:19.000Z</time>
      </trkpt>
      <trkpt lat="46.25202" lon="4.81983">
        <ele>172.80000305176</ele>
        <time>2024-05-20T10:35:20.000Z</time>
      </trkpt>
      <trkpt lat="46.25196" lon="4.81981">
        <ele>173</ele>
        <time>2024-05-20T10:35:21.000Z</time>
      </trkpt>
      <trkpt lat="46.25191" lon="4.81978">
        <ele>173.19999694824</ele>
        <time>2024-05-20T10:35:22.000Z</time>
      </trkpt>
      <trkpt lat="46.25186" lon="4.81976">
        <ele>173.39999389648</ele>
        <time>2024-05-20T10:35:23.000Z</time>
      </trkpt>
      <trkpt lat="46.2518" lon="4.81974">
        <ele>173.39999389648</ele>
        <time>2024-05-20T10:35:24.000Z</time>
      </trkpt>
      <trkpt lat="46.25174" lon="4.81972">
        <ele>173.39999389648</ele>
        <time>2024-05-20T10:35:25.000Z</time>
      </trkpt>
      <trkpt lat="46.25169" lon="4.8197">
        <ele>173.60000610352</ele>
        <time>2024-05-20T10:35:26.000Z</time>
      </trkpt>
      <trkpt lat="46.25163" lon="4.81968">
        <ele>173.60000610352</ele>
        <time>2024-05-20T10:35:27.000Z</time>
      </trkpt>
      <trkpt lat="46.25157" lon="4.81966">
        <ele>173.60000610352</ele>
        <time>2024-05-20T10:35:28.000Z</time>
      </trkpt>
      <trkpt lat="46.25152" lon="4.81964">
        <ele>173.60000610352</ele>
        <time>2024-05-20T10:35:29.000Z</time>
      </trkpt>
      <trkpt lat="46.25146" lon="4.81962">
        <ele>173.60000610352</ele>
        <time>2024-05-20T10:35:30.000Z</time>
      </trkpt>
      <trkpt lat="46.25141" lon="4.8196">
        <ele>173.60000610352</ele>
        <time>2024-05-20T10:35:31.000Z</time>
      </trkpt>
      <trkpt lat="46.25135" lon="4.81958">
        <ele>173.60000610352</ele>
        <time>2024-05-20T10:35:32.000Z</time>
      </trkpt>
      <trkpt lat="46.25129" lon="4.81956">
        <ele>173.60000610352</ele>
        <time>2024-05-20T10:35:33.000Z</time>
      </trkpt>
      <trkpt lat="46.25124" lon="4.81953">
        <ele>173.60000610352</ele>
        <time>2024-05-20T10:35:34.000Z</time>
      </trkpt>
      <trkpt lat="46.25118" lon="4.81951">
        <ele>173.60000610352</ele>
        <time>2024-05-20T10:35:35.000Z</time>
      </trkpt>
      <trkpt lat="46.25112" lon="4.81949">
        <ele>173.60000610352</ele>
        <time>2024-05-20T10:35:36.000Z</time>
      </trkpt>
      <trkpt lat="46.25106" lon="4.81947">
        <ele>173.60000610352</ele>
        <time>2024-05-20T10:35:37.000Z</time>
      </trkpt>
      <trkpt lat="46.251" lon="4.81944">
        <ele>173.60000610352</ele>
        <time>2024-05-20T10:35:38.000Z</time>
      </trkpt>
      <trkpt lat="46.25095" lon="4.81942">
        <ele>173.60000610352</ele>
        <time>2024-05-20T10:35:39.000Z</time>
      </trkpt>
      <trkpt lat="46.25089" lon="4.8194">
        <ele>173.60000610352</ele>
        <time>2024-05-20T10:35:40.000Z</time>
      </trkpt>
      <trkpt lat="46.25083" lon="4.81937">
        <ele>173.60000610352</ele>
        <time>2024-05-20T10:35:41.000Z</time>
      </trkpt>
      <trkpt lat="46.25077" lon="4.81935">
        <ele>173.60000610352</ele>
        <time>2024-05-20T10:35:42.000Z</time>
      </trkpt>
      <trkpt lat="46.25071" lon="4.81933">
        <ele>173.39999389648</ele>
        <time>2024-05-20T10:35:43.000Z</time>
      </trkpt>
      <trkpt lat="46.25065" lon="4.81931">
        <ele>173.19999694824</ele>
        <time>2024-05-20T10:35:44.000Z</time>
      </trkpt>
      <trkpt lat="46.2506" lon="4.81929">
        <ele>173.19999694824</ele>
        <time>2024-05-20T10:35:45.000Z</time>
      </trkpt>
      <trkpt lat="46.25054" lon="4.81927">
        <ele>173.19999694824</ele>
        <time>2024-05-20T10:35:46.000Z</time>
      </trkpt>
      <trkpt lat="46.25048" lon="4.81925">
        <ele>173.19999694824</ele>
        <time>2024-05-20T10:35:47.000Z</time>
      </trkpt>
      <trkpt lat="46.25043" lon="4.81922">
        <ele>173.39999389648</ele>
        <time>2024-05-20T10:35:48.000Z</time>
      </trkpt>
      <trkpt lat="46.25037" lon="4.8192">
        <ele>173.39999389648</ele>
        <time>2024-05-20T10:35:49.000Z</time>
      </trkpt>
      <trkpt lat="46.25032" lon="4.81918">
        <ele>173.39999389648</ele>
        <time>2024-05-20T10:35:50.000Z</time>
      </trkpt>
      <trkpt lat="46.25026" lon="4.81916">
        <ele>173.39999389648</ele>
        <time>2024-05-20T10:35:51.000Z</time>
      </trkpt>
      <trkpt lat="46.2502" lon="4.81914">
        <ele>173.39999389648</ele>
        <time>2024-05-20T10:35:52.000Z</time>
      </trkpt>
      <trkpt lat="46.25015" lon="4.81912">
        <ele>173.39999389648</ele>
        <time>2024-05-20T10:35:53.000Z</time>
      </trkpt>
      <trkpt lat="46.25009" lon="4.8191">
        <ele>173.39999389648</ele>
        <time>2024-05-20T10:35:54.000Z</time>
      </trkpt>
      <trkpt lat="46.25003" lon="4.81908">
        <ele>173.39999389648</ele>
        <time>2024-05-20T10:35:55.000Z</time>
      </trkpt>
      <trkpt lat="46.24998" lon="4.81906">
        <ele>173.19999694824</ele>
        <time>2024-05-20T10:35:56.000Z</time>
      </trkpt>
      <trkpt lat="46.24993" lon="4.81904">
        <ele>173.19999694824</ele>
        <time>2024-05-20T10:35:57.000Z</time>
      </trkpt>
      <trkpt lat="46.24988" lon="4.81902">
        <ele>173.19999694824</ele>
        <time>2024-05-20T10:35:58.000Z</time>
      </trkpt>
      <trkpt lat="46.24983" lon="4.81901">
        <ele>173.19999694824</ele>
        <time>2024-05-20T10:35:59.000Z</time>
      </trkpt>
      <trkpt lat="46.24979" lon="4.81899">
        <ele>173.19999694824</ele>
        <time>2024-05-20T10:36:00.000Z</time>
      </trkpt>
      <trkpt lat="46.24975" lon="4.81899">
        <ele>173.19999694824</ele>
        <time>2024-05-20T10:36:01.000Z</time>
      </trkpt>
      <trkpt lat="46.24972" lon="4.81897">
        <ele>173.19999694824</ele>
        <time>2024-05-20T10:36:02.000Z</time>
      </trkpt>
      <trkpt lat="46.24968" lon="4.81895">
        <ele>173.19999694824</ele>
        <time>2024-05-20T10:36:03.000Z</time>
      </trkpt>
      <trkpt lat="46.24964" lon="4.81893">
        <ele>173.19999694824</ele>
        <time>2024-05-20T10:36:04.000Z</time>
      </trkpt>
      <trkpt lat="46.24961" lon="4.81891">
        <ele>173.19999694824</ele>
        <time>2024-05-20T10:36:05.000Z</time>
      </trkpt>
      <trkpt lat="46.24958" lon="4.81889">
        <ele>173.19999694824</ele>
        <time>2024-05-20T10:36:06.000Z</time>
      </trkpt>
      <trkpt lat="46.24956" lon="4.81885">
        <ele>173.19999694824</ele>
        <time>2024-05-20T10:36:07.000Z</time>
      </trkpt>
      <trkpt lat="46.24955" lon="4.81881">
        <ele>173.19999694824</ele>
        <time>2024-05-20T10:36:08.000Z</time>
      </trkpt>
      <trkpt lat="46.24955" lon="4.81876">
        <ele>173</ele>
        <time>2024-05-20T10:36:09.000Z</time>
      </trkpt>
      <trkpt lat="46.24956" lon="4.8187">
        <ele>173</ele>
        <time>2024-05-20T10:36:10.000Z</time>
      </trkpt>
      <trkpt lat="46.24957" lon="4.81864">
        <ele>173</ele>
        <time>2024-05-20T10:36:11.000Z</time>
      </trkpt>
      <trkpt lat="46.24959" lon="4.81858">
        <ele>173</ele>
        <time>2024-05-20T10:36:12.000Z</time>
      </trkpt>
      <trkpt lat="46.24962" lon="4.81852">
        <ele>173</ele>
        <time>2024-05-20T10:36:13.000Z</time>
      </trkpt>
      <trkpt lat="46.24964" lon="4.81846">
        <ele>172.80000305176</ele>
        <time>2024-05-20T10:36:14.000Z</time>
      </trkpt>
      <trkpt lat="46.24967" lon="4.8184">
        <ele>172.60000610352</ele>
        <time>2024-05-20T10:36:15.000Z</time>
      </trkpt>
      <trkpt lat="46.24969" lon="4.81834">
        <ele>172.60000610352</ele>
        <time>2024-05-20T10:36:16.000Z</time>
      </trkpt>
      <trkpt lat="46.24972" lon="4.81827">
        <ele>172.60000610352</ele>
        <time>2024-05-20T10:36:17.000Z</time>
      </trkpt>
      <trkpt lat="46.24975" lon="4.8182">
        <ele>172.39999389648</ele>
        <time>2024-05-20T10:36:18.000Z</time>
      </trkpt>
      <trkpt lat="46.24977" lon="4.81813">
        <ele>172.39999389648</ele>
        <time>2024-05-20T10:36:19.000Z</time>
      </trkpt>
      <trkpt lat="46.2498" lon="4.81806">
        <ele>172.39999389648</ele>
        <time>2024-05-20T10:36:20.000Z</time>
      </trkpt>
      <trkpt lat="46.24982" lon="4.81799">
        <ele>172.39999389648</ele>
        <time>2024-05-20T10:36:21.000Z</time>
      </trkpt>
      <trkpt lat="46.24984" lon="4.81791">
        <ele>172.39999389648</ele>
        <time>2024-05-20T10:36:22.000Z</time>
      </trkpt>
      <trkpt lat="46.24987" lon="4.81784">
        <ele>172.19999694824</ele>
        <time>2024-05-20T10:36:23.000Z</time>
      </trkpt>
      <trkpt lat="46.2499" lon="4.81777">
        <ele>172.19999694824</ele>
        <time>2024-05-20T10:36:24.000Z</time>
      </trkpt>
      <trkpt lat="46.24993" lon="4.81769">
        <ele>172.19999694824</ele>
        <time>2024-05-20T10:36:25.000Z</time>
      </trkpt>
      <trkpt lat="46.24995" lon="4.81762">
        <ele>172.19999694824</ele>
        <time>2024-05-20T10:36:26.000Z</time>
      </trkpt>
      <trkpt lat="46.24998" lon="4.81754">
        <ele>172.19999694824</ele>
        <time>2024-05-20T10:36:27.000Z</time>
      </trkpt>
      <trkpt lat="46.25" lon="4.81746">
        <ele>172.19999694824</ele>
        <time>2024-05-20T10:36:28.000Z</time>
      </trkpt>
      <trkpt lat="46.25002" lon="4.81738">
        <ele>172.19999694824</ele>
        <time>2024-05-20T10:36:29.000Z</time>
      </trkpt>
      <trkpt lat="46.25002" lon="4.81731">
        <ele>172.19999694824</ele>
        <time>2024-05-20T10:36:30.000Z</time>
      </trkpt>
      <trkpt lat="46.25" lon="4.81724">
        <ele>172.19999694824</ele>
        <time>2024-05-20T10:36:31.000Z</time>
      </trkpt>
      <trkpt lat="46.24997" lon="4.8172">
        <ele>172.19999694824</ele>
        <time>2024-05-20T10:36:32.000Z</time>
      </trkpt>
      <trkpt lat="46.24992" lon="4.81718">
        <ele>172.19999694824</ele>
        <time>2024-05-20T10:36:33.000Z</time>
      </trkpt>
      <trkpt lat="46.24986" lon="4.81716">
        <ele>172.39999389648</ele>
        <time>2024-05-20T10:36:34.000Z</time>
      </trkpt>
      <trkpt lat="46.24981" lon="4.81715">
        <ele>172.39999389648</ele>
        <time>2024-05-20T10:36:35.000Z</time>
      </trkpt>
      <trkpt lat="46.24975" lon="4.81715">
        <ele>172.39999389648</ele>
        <time>2024-05-20T10:36:36.000Z</time>
      </trkpt>
      <trkpt lat="46.2497" lon="4.81714">
        <ele>172.39999389648</ele>
        <time>2024-05-20T10:36:37.000Z</time>
      </trkpt>
      <trkpt lat="46.24964" lon="4.81713">
        <ele>172.39999389648</ele>
        <time>2024-05-20T10:36:38.000Z</time>
      </trkpt>
      <trkpt lat="46.24959" lon="4.81712">
        <ele>172.39999389648</ele>
        <time>2024-05-20T10:36:39.000Z</time>
      </trkpt>
      <trkpt lat="46.24953" lon="4.81711">
        <ele>172.39999389648</ele>
        <time>2024-05-20T10:36:40.000Z</time>
      </trkpt>
      <trkpt lat="46.24947" lon="4.81709">
        <ele>172.39999389648</ele>
        <time>2024-05-20T10:36:41.000Z</time>
      </trkpt>
      <trkpt lat="46.24941" lon="4.81708">
        <ele>172.60000610352</ele>
        <time>2024-05-20T10:36:42.000Z</time>
      </trkpt>
      <trkpt lat="46.24936" lon="4.81707">
        <ele>172.60000610352</ele>
        <time>2024-05-20T10:36:43.000Z</time>
      </trkpt>
      <trkpt lat="46.2493" lon="4.81705">
        <ele>172.60000610352</ele>
        <time>2024-05-20T10:36:44.000Z</time>
      </trkpt>
      <trkpt lat="46.24924" lon="4.81704">
        <ele>172.60000610352</ele>
        <time>2024-05-20T10:36:45.000Z</time>
      </trkpt>
      <trkpt lat="46.24918" lon="4.81702">
        <ele>172.80000305176</ele>
        <time>2024-05-20T10:36:46.000Z</time>
      </trkpt>
      <trkpt lat="46.24912" lon="4.81701">
        <ele>172.80000305176</ele>
        <time>2024-05-20T10:36:47.000Z</time>
      </trkpt>
      <trkpt lat="46.24906" lon="4.81699">
        <ele>172.80000305176</ele>
        <time>2024-05-20T10:36:48.000Z</time>
      </trkpt>
      <trkpt lat="46.24901" lon="4.81698">
        <ele>172.60000610352</ele>
        <time>2024-05-20T10:36:49.000Z</time>
      </trkpt>
      <trkpt lat="46.24895" lon="4.81697">
        <ele>172.60000610352</ele>
        <time>2024-05-20T10:36:50.000Z</time>
      </trkpt>
      <trkpt lat="46.24889" lon="4.81695">
        <ele>172.60000610352</ele>
        <time>2024-05-20T10:36:51.000Z</time>
      </trkpt>
      <trkpt lat="46.24883" lon="4.81694">
        <ele>172.80000305176</ele>
        <time>2024-05-20T10:36:52.000Z</time>
      </trkpt>
      <trkpt lat="46.24877" lon="4.81692">
        <ele>172.60000610352</ele>
        <time>2024-05-20T10:36:53.000Z</time>
      </trkpt>
      <trkpt lat="46.24871" lon="4.81691">
        <ele>172.80000305176</ele>
        <time>2024-05-20T10:36:54.000Z</time>
      </trkpt>
      <trkpt lat="46.24866" lon="4.81689">
        <ele>172.80000305176</ele>
        <time>2024-05-20T10:36:55.000Z</time>
      </trkpt>
      <trkpt lat="46.2486" lon="4.81687">
        <ele>172.80000305176</ele>
        <time>2024-05-20T10:36:56.000Z</time>
      </trkpt>
      <trkpt lat="46.24854" lon="4.81685">
        <ele>172.80000305176</ele>
        <time>2024-05-20T10:36:57.000Z</time>
      </trkpt>
      <trkpt lat="46.24848" lon="4.81682">
        <ele>172.80000305176</ele>
        <time>2024-05-20T10:36:58.000Z</time>
      </trkpt>
      <trkpt lat="46.24843" lon="4.81679">
        <ele>172.80000305176</ele>
        <time>2024-05-20T10:36:59.000Z</time>
      </trkpt>
      <trkpt lat="46.24837" lon="4.81675">
        <ele>172.80000305176</ele>
        <time>2024-05-20T10:37:00.000Z</time>
      </trkpt>
      <trkpt lat="46.24832" lon="4.81672">
        <ele>173</ele>
        <time>2024-05-20T10:37:01.000Z</time>
      </trkpt>
      <trkpt lat="46.24827" lon="4.81667">
        <ele>173</ele>
        <time>2024-05-20T10:37:02.000Z</time>
      </trkpt>
      <trkpt lat="46.24822" lon="4.81662">
        <ele>173.19999694824</ele>
        <time>2024-05-20T10:37:03.000Z</time>
      </trkpt>
      <trkpt lat="46.24817" lon="4.81657">
        <ele>173.19999694824</ele>
        <time>2024-05-20T10:37:04.000Z</time>
      </trkpt>
      <trkpt lat="46.24813" lon="4.81652">
        <ele>173.19999694824</ele>
        <time>2024-05-20T10:37:05.000Z</time>
      </trkpt>
      <trkpt lat="46.24808" lon="4.81647">
        <ele>173.19999694824</ele>
        <time>2024-05-20T10:37:06.000Z</time>
      </trkpt>
      <trkpt lat="46.24803" lon="4.81641">
        <ele>173.19999694824</ele>
        <time>2024-05-20T10:37:07.000Z</time>
      </trkpt>
      <trkpt lat="46.24799" lon="4.81635">
        <ele>173.19999694824</ele>
        <time>2024-05-20T10:37:08.000Z</time>
      </trkpt>
      <trkpt lat="46.24795" lon="4.81629">
        <ele>173.19999694824</ele>
        <time>2024-05-20T10:37:09.000Z</time>
      </trkpt>
      <trkpt lat="46.2479" lon="4.81623">
        <ele>173</ele>
        <time>2024-05-20T10:37:10.000Z</time>
      </trkpt>
      <trkpt lat="46.24786" lon="4.81617">
        <ele>173</ele>
        <time>2024-05-20T10:37:11.000Z</time>
      </trkpt>
      <trkpt lat="46.24782" lon="4.8161">
        <ele>173</ele>
        <time>2024-05-20T10:37:12.000Z</time>
      </trkpt>
      <trkpt lat="46.24779" lon="4.81604">
        <ele>173</ele>
        <time>2024-05-20T10:37:13.000Z</time>
      </trkpt>
      <trkpt lat="46.24775" lon="4.81598">
        <ele>173.19999694824</ele>
        <time>2024-05-20T10:37:14.000Z</time>
      </trkpt>
      <trkpt lat="46.2477" lon="4.81592">
        <ele>173.19999694824</ele>
        <time>2024-05-20T10:37:15.000Z</time>
      </trkpt>
      <trkpt lat="46.24765" lon="4.81587">
        <ele>173.19999694824</ele>
        <time>2024-05-20T10:37:16.000Z</time>
      </trkpt>
      <trkpt lat="46.2476" lon="4.81582">
        <ele>173.19999694824</ele>
        <time>2024-05-20T10:37:17.000Z</time>
      </trkpt>
      <trkpt lat="46.24755" lon="4.81578">
        <ele>173.19999694824</ele>
        <time>2024-05-20T10:37:18.000Z</time>
      </trkpt>
      <trkpt lat="46.24749" lon="4.81576">
        <ele>173.19999694824</ele>
        <time>2024-05-20T10:37:19.000Z</time>
      </trkpt>
      <trkpt lat="46.24742" lon="4.81575">
        <ele>173.19999694824</ele>
        <time>2024-05-20T10:37:20.000Z</time>
      </trkpt>
      <trkpt lat="46.24736" lon="4.81574">
        <ele>173.39999389648</ele>
        <time>2024-05-20T10:37:21.000Z</time>
      </trkpt>
      <trkpt lat="46.2473" lon="4.81573">
        <ele>173.39999389648</ele>
        <time>2024-05-20T10:37:22.000Z</time>
      </trkpt>
      <trkpt lat="46.24724" lon="4.81572">
        <ele>173.39999389648</ele>
        <time>2024-05-20T10:37:23.000Z</time>
      </trkpt>
      <trkpt lat="46.24718" lon="4.8157">
        <ele>173.39999389648</ele>
        <time>2024-05-20T10:37:24.000Z</time>
      </trkpt>
      <trkpt lat="46.24712" lon="4.81568">
        <ele>173.39999389648</ele>
        <time>2024-05-20T10:37:25.000Z</time>
      </trkpt>
      <trkpt lat="46.24706" lon="4.81565">
        <ele>173.39999389648</ele>
        <time>2024-05-20T10:37:26.000Z</time>
      </trkpt>
      <trkpt lat="46.247" lon="4.81563">
        <ele>173.39999389648</ele>
        <time>2024-05-20T10:37:27.000Z</time>
      </trkpt>
      <trkpt lat="46.24694" lon="4.81561">
        <ele>173.39999389648</ele>
        <time>2024-05-20T10:37:28.000Z</time>
      </trkpt>
      <trkpt lat="46.24688" lon="4.81558">
        <ele>173.39999389648</ele>
        <time>2024-05-20T10:37:29.000Z</time>
      </trkpt>
      <trkpt lat="46.24681" lon="4.81556">
        <ele>173.39999389648</ele>
        <time>2024-05-20T10:37:30.000Z</time>
      </trkpt>
      <trkpt lat="46.24675" lon="4.81554">
        <ele>173.39999389648</ele>
        <time>2024-05-20T10:37:31.000Z</time>
      </trkpt>
      <trkpt lat="46.2467" lon="4.81552">
        <ele>173.60000610352</ele>
        <time>2024-05-20T10:37:32.000Z</time>
      </trkpt>
      <trkpt lat="46.24664" lon="4.81551">
        <ele>173.60000610352</ele>
        <time>2024-05-20T10:37:33.000Z</time>
      </trkpt>
      <trkpt lat="46.24659" lon="4.81551">
        <ele>173.60000610352</ele>
        <time>2024-05-20T10:37:34.000Z</time>
      </trkpt>
      <trkpt lat="46.24655" lon="4.8155">
        <ele>174.19999694824</ele>
        <time>2024-05-20T10:37:35.000Z</time>
      </trkpt>
      <trkpt lat="46.2465" lon="4.81549">
        <ele>174.19999694824</ele>
        <time>2024-05-20T10:37:36.000Z</time>
      </trkpt>
      <trkpt lat="46.24645" lon="4.81548">
        <ele>174.39999389648</ele>
        <time>2024-05-20T10:37:37.000Z</time>
      </trkpt>
      <trkpt lat="46.2464" lon="4.81547">
        <ele>174.39999389648</ele>
        <time>2024-05-20T10:37:38.000Z</time>
      </trkpt>
      <trkpt lat="46.24636" lon="4.81546">
        <ele>174.39999389648</ele>
        <time>2024-05-20T10:37:39.000Z</time>
      </trkpt>
      <trkpt lat="46.24631" lon="4.81545">
        <ele>174.19999694824</ele>
        <time>2024-05-20T10:37:40.000Z</time>
      </trkpt>
      <trkpt lat="46.24627" lon="4.81545">
        <ele>174.19999694824</ele>
        <time>2024-05-20T10:37:41.000Z</time>
      </trkpt>
      <trkpt lat="46.24623" lon="4.81544">
        <ele>174.19999694824</ele>
        <time>2024-05-20T10:37:42.000Z</time>
      </trkpt>
      <trkpt lat="46.24619" lon="4.81543">
        <ele>174.19999694824</ele>
        <time>2024-05-20T10:37:43.000Z</time>
      </trkpt>
      <trkpt lat="46.24615" lon="4.81542">
        <ele>174.19999694824</ele>
        <time>2024-05-20T10:37:44.000Z</time>
      </trkpt>
      <trkpt lat="46.24611" lon="4.81542">
        <ele>174.19999694824</ele>
        <time>2024-05-20T10:37:45.000Z</time>
      </trkpt>
      <trkpt lat="46.24607" lon="4.81541">
        <ele>174.19999694824</ele>
        <time>2024-05-20T10:37:46.000Z</time>
      </trkpt>
      <trkpt lat="46.24602" lon="4.8154">
        <ele>174</ele>
        <time>2024-05-20T10:37:47.000Z</time>
      </trkpt>
      <trkpt lat="46.24596" lon="4.8154">
        <ele>174</ele>
        <time>2024-05-20T10:37:48.000Z</time>
      </trkpt>
      <trkpt lat="46.24591" lon="4.81539">
        <ele>173.80000305176</ele>
        <time>2024-05-20T10:37:49.000Z</time>
      </trkpt>
      <trkpt lat="46.24586" lon="4.81539">
        <ele>173.80000305176</ele>
        <time>2024-05-20T10:37:50.000Z</time>
      </trkpt>
      <trkpt lat="46.24581" lon="4.81538">
        <ele>173.60000610352</ele>
        <time>2024-05-20T10:37:51.000Z</time>
      </trkpt>
      <trkpt lat="46.24576" lon="4.81538">
        <ele>173.60000610352</ele>
        <time>2024-05-20T10:37:52.000Z</time>
      </trkpt>
      <trkpt lat="46.2457" lon="4.81537">
        <ele>173.60000610352</ele>
        <time>2024-05-20T10:37:53.000Z</time>
      </trkpt>
      <trkpt lat="46.24565" lon="4.81537">
        <ele>173.60000610352</ele>
        <time>2024-05-20T10:37:54.000Z</time>
      </trkpt>
      <trkpt lat="46.2456" lon="4.81537">
        <ele>173.60000610352</ele>
        <time>2024-05-20T10:37:55.000Z</time>
      </trkpt>
      <trkpt lat="46.24555" lon="4.81537">
        <ele>173.60000610352</ele>
        <time>2024-05-20T10:37:56.000Z</time>
      </trkpt>
      <trkpt lat="46.2455" lon="4.81537">
        <ele>173.60000610352</ele>
        <time>2024-05-20T10:37:57.000Z</time>
      </trkpt>
      <trkpt lat="46.24545" lon="4.81537">
        <ele>173.80000305176</ele>
        <time>2024-05-20T10:37:58.000Z</time>
      </trkpt>
      <trkpt lat="46.2454" lon="4.81537">
        <ele>173.80000305176</ele>
        <time>2024-05-20T10:37:59.000Z</time>
      </trkpt>
      <trkpt lat="46.24534" lon="4.81537">
        <ele>173.80000305176</ele>
        <time>2024-05-20T10:38:00.000Z</time>
      </trkpt>
      <trkpt lat="46.24529" lon="4.81537">
        <ele>174</ele>
        <time>2024-05-20T10:38:01.000Z</time>
      </trkpt>
      <trkpt lat="46.24524" lon="4.81537">
        <ele>174</ele>
        <time>2024-05-20T10:38:02.000Z</time>
      </trkpt>
      <trkpt lat="46.24519" lon="4.81537">
        <ele>174</ele>
        <time>2024-05-20T10:38:03.000Z</time>
      </trkpt>
      <trkpt lat="46.24514" lon="4.81537">
        <ele>173.80000305176</ele>
        <time>2024-05-20T10:38:04.000Z</time>
      </trkpt>
      <trkpt lat="46.24509" lon="4.81536">
        <ele>173.80000305176</ele>
        <time>2024-05-20T10:38:05.000Z</time>
      </trkpt>
      <trkpt lat="46.24505" lon="4.81534">
        <ele>173.80000305176</ele>
        <time>2024-05-20T10:38:06.000Z</time>
      </trkpt>
      <trkpt lat="46.24502" lon="4.8153">
        <ele>173.80000305176</ele>
        <time>2024-05-20T10:38:07.000Z</time>
      </trkpt>
      <trkpt lat="46.245" lon="4.81525">
        <ele>173.80000305176</ele>
        <time>2024-05-20T10:38:08.000Z</time>
      </trkpt>
      <trkpt lat="46.245" lon="4.81519">
        <ele>173.80000305176</ele>
        <time>2024-05-20T10:38:09.000Z</time>
      </trkpt>
      <trkpt lat="46.24501" lon="4.81513">
        <ele>173.80000305176</ele>
        <time>2024-05-20T10:38:10.000Z</time>
      </trkpt>
      <trkpt lat="46.24502" lon="4.81505">
        <ele>173.80000305176</ele>
        <time>2024-05-20T10:38:11.000Z</time>
      </trkpt>
      <trkpt lat="46.24503" lon="4.81498">
        <ele>173.80000305176</ele>
        <time>2024-05-20T10:38:12.000Z</time>
      </trkpt>
      <trkpt lat="46.24505" lon="4.8149">
        <ele>173.60000610352</ele>
        <time>2024-05-20T10:38:13.000Z</time>
      </trkpt>
      <trkpt lat="46.24506" lon="4.81482">
        <ele>173.60000610352</ele>
        <time>2024-05-20T10:38:14.000Z</time>
      </trkpt>
      <trkpt lat="46.24507" lon="4.81474">
        <ele>173.39999389648</ele>
        <time>2024-05-20T10:38:15.000Z</time>
      </trkpt>
      <trkpt lat="46.24508" lon="4.81466">
        <ele>173.39999389648</ele>
        <time>2024-05-20T10:38:16.000Z</time>
      </trkpt>
      <trkpt lat="46.2451" lon="4.81458">
        <ele>173</ele>
        <time>2024-05-20T10:38:17.000Z</time>
      </trkpt>
      <trkpt lat="46.24512" lon="4.8145">
        <ele>173</ele>
        <time>2024-05-20T10:38:18.000Z</time>
      </trkpt>
      <trkpt lat="46.24513" lon="4.81442">
        <ele>173</ele>
        <time>2024-05-20T10:38:19.000Z</time>
      </trkpt>
      <trkpt lat="46.24515" lon="4.81434">
        <ele>173</ele>
        <time>2024-05-20T10:38:20.000Z</time>
      </trkpt>
      <trkpt lat="46.24517" lon="4.81426">
        <ele>173</ele>
        <time>2024-05-20T10:38:21.000Z</time>
      </trkpt>
      <trkpt lat="46.24519" lon="4.81418">
        <ele>173</ele>
        <time>2024-05-20T10:38:22.000Z</time>
      </trkpt>
      <trkpt lat="46.24521" lon="4.8141">
        <ele>173</ele>
        <time>2024-05-20T10:38:23.000Z</time>
      </trkpt>
      <trkpt lat="46.24522" lon="4.81402">
        <ele>172.80000305176</ele>
        <time>2024-05-20T10:38:24.000Z</time>
      </trkpt>
      <trkpt lat="46.24524" lon="4.81394">
        <ele>172.80000305176</ele>
        <time>2024-05-20T10:38:25.000Z</time>
      </trkpt>
      <trkpt lat="46.24525" lon="4.81387">
        <ele>172.80000305176</ele>
        <time>2024-05-20T10:38:26.000Z</time>
      </trkpt>
      <trkpt lat="46.24527" lon="4.81379">
        <ele>172.80000305176</ele>
        <time>2024-05-20T10:38:27.000Z</time>
      </trkpt>
      <trkpt lat="46.24529" lon="4.81371">
        <ele>173</ele>
        <time>2024-05-20T10:38:28.000Z</time>
      </trkpt>
      <trkpt lat="46.2453" lon="4.81363">
        <ele>173</ele>
        <time>2024-05-20T10:38:29.000Z</time>
      </trkpt>
      <trkpt lat="46.24532" lon="4.81355">
        <ele>173</ele>
        <time>2024-05-20T10:38:30.000Z</time>
      </trkpt>
      <trkpt lat="46.24533" lon="4.81348">
        <ele>173</ele>
        <time>2024-05-20T10:38:31.000Z</time>
      </trkpt>
      <trkpt lat="46.24535" lon="4.8134">
        <ele>173</ele>
        <time>2024-05-20T10:38:32.000Z</time>
      </trkpt>
      <trkpt lat="46.24536" lon="4.81333">
        <ele>173</ele>
        <time>2024-05-20T10:38:33.000Z</time>
      </trkpt>
      <trkpt lat="46.24538" lon="4.81325">
        <ele>173</ele>
        <time>2024-05-20T10:38:34.000Z</time>
      </trkpt>
      <trkpt lat="46.24539" lon="4.81319">
        <ele>173</ele>
        <time>2024-05-20T10:38:35.000Z</time>
      </trkpt>
      <trkpt lat="46.2454" lon="4.81312">
        <ele>173</ele>
        <time>2024-05-20T10:38:36.000Z</time>
      </trkpt>
      <trkpt lat="46.24541" lon="4.81305">
        <ele>173</ele>
        <time>2024-05-20T10:38:37.000Z</time>
      </trkpt>
      <trkpt lat="46.24543" lon="4.813">
        <ele>173</ele>
        <time>2024-05-20T10:38:38.000Z</time>
      </trkpt>
      <trkpt lat="46.24544" lon="4.81295">
        <ele>173</ele>
        <time>2024-05-20T10:38:39.000Z</time>
      </trkpt>
      <trkpt lat="46.24545" lon="4.8129">
        <ele>173.19999694824</ele>
        <time>2024-05-20T10:38:40.000Z</time>
      </trkpt>
      <trkpt lat="46.24544" lon="4.81287">
        <ele>173.19999694824</ele>
        <time>2024-05-20T10:38:41.000Z</time>
      </trkpt>
      <trkpt lat="46.24542" lon="4.81284">
        <ele>173.39999389648</ele>
        <time>2024-05-20T10:38:42.000Z</time>
      </trkpt>
      <trkpt lat="46.2454" lon="4.81282">
        <ele>173.60000610352</ele>
        <time>2024-05-20T10:38:43.000Z</time>
      </trkpt>
      <trkpt lat="46.24538" lon="4.81281">
        <ele>173.60000610352</ele>
        <time>2024-05-20T10:38:44.000Z</time>
      </trkpt>
      <trkpt lat="46.24536" lon="4.8128">
        <ele>173.60000610352</ele>
        <time>2024-05-20T10:38:45.000Z</time>
      </trkpt>
      <trkpt lat="46.24534" lon="4.81279">
        <ele>173.60000610352</ele>
        <time>2024-05-20T10:38:46.000Z</time>
      </trkpt>
      <trkpt lat="46.24531" lon="4.81277">
        <ele>173.60000610352</ele>
        <time>2024-05-20T10:38:47.000Z</time>
      </trkpt>
      <trkpt lat="46.24528" lon="4.81275">
        <ele>173.60000610352</ele>
        <time>2024-05-20T10:38:48.000Z</time>
      </trkpt>
      <trkpt lat="46.24524" lon="4.81274">
        <ele>173.60000610352</ele>
        <time>2024-05-20T10:38:49.000Z</time>
      </trkpt>
      <trkpt lat="46.2452" lon="4.81273">
        <ele>173.60000610352</ele>
        <time>2024-05-20T10:38:50.000Z</time>
      </trkpt>
      <trkpt lat="46.24515" lon="4.81271">
        <ele>173.60000610352</ele>
        <time>2024-05-20T10:38:51.000Z</time>
      </trkpt>
      <trkpt lat="46.2451" lon="4.8127">
        <ele>173.39999389648</ele>
        <time>2024-05-20T10:38:52.000Z</time>
      </trkpt>
      <trkpt lat="46.24505" lon="4.81269">
        <ele>173.39999389648</ele>
        <time>2024-05-20T10:38:53.000Z</time>
      </trkpt>
      <trkpt lat="46.245" lon="4.81267">
        <ele>173.19999694824</ele>
        <time>2024-05-20T10:38:54.000Z</time>
      </trkpt>
      <trkpt lat="46.24495" lon="4.81265">
        <ele>173.19999694824</ele>
        <time>2024-05-20T10:38:55.000Z</time>
      </trkpt>
      <trkpt lat="46.2449" lon="4.81262">
        <ele>173.19999694824</ele>
        <time>2024-05-20T10:38:56.000Z</time>
      </trkpt>
      <trkpt lat="46.24484" lon="4.8126">
        <ele>173.19999694824</ele>
        <time>2024-05-20T10:38:57.000Z</time>
      </trkpt>
      <trkpt lat="46.24479" lon="4.81258">
        <ele>173.19999694824</ele>
        <time>2024-05-20T10:38:58.000Z</time>
      </trkpt>
      <trkpt lat="46.24473" lon="4.81257">
        <ele>173.19999694824</ele>
        <time>2024-05-20T10:38:59.000Z</time>
      </trkpt>
      <trkpt lat="46.24468" lon="4.81255">
        <ele>173.19999694824</ele>
        <time>2024-05-20T10:39:00.000Z</time>
      </trkpt>
      <trkpt lat="46.24463" lon="4.81254">
        <ele>173.19999694824</ele>
        <time>2024-05-20T10:39:01.000Z</time>
      </trkpt>
      <trkpt lat="46.24457" lon="4.81252">
        <ele>173.19999694824</ele>
        <time>2024-05-20T10:39:02.000Z</time>
      </trkpt>
      <trkpt lat="46.24452" lon="4.8125">
        <ele>173.19999694824</ele>
        <time>2024-05-20T10:39:03.000Z</time>
      </trkpt>
      <trkpt lat="46.24446" lon="4.81248">
        <ele>173.19999694824</ele>
        <time>2024-05-20T10:39:04.000Z</time>
      </trkpt>
      <trkpt lat="46.24441" lon="4.81245">
        <ele>173.19999694824</ele>
        <time>2024-05-20T10:39:05.000Z</time>
      </trkpt>
      <trkpt lat="46.24436" lon="4.81243">
        <ele>173.39999389648</ele>
        <time>2024-05-20T10:39:06.000Z</time>
      </trkpt>
      <trkpt lat="46.2443" lon="4.81241">
        <ele>173.39999389648</ele>
        <time>2024-05-20T10:39:07.000Z</time>
      </trkpt>
      <trkpt lat="46.24424" lon="4.81239">
        <ele>173.39999389648</ele>
        <time>2024-05-20T10:39:08.000Z</time>
      </trkpt>
      <trkpt lat="46.24418" lon="4.81238">
        <ele>173.39999389648</ele>
        <time>2024-05-20T10:39:09.000Z</time>
      </trkpt>
      <trkpt lat="46.24413" lon="4.81236">
        <ele>173.39999389648</ele>
        <time>2024-05-20T10:39:10.000Z</time>
      </trkpt>
      <trkpt lat="46.24407" lon="4.81234">
        <ele>173.39999389648</ele>
        <time>2024-05-20T10:39:11.000Z</time>
      </trkpt>
      <trkpt lat="46.24401" lon="4.81232">
        <ele>173.39999389648</ele>
        <time>2024-05-20T10:39:12.000Z</time>
      </trkpt>
      <trkpt lat="46.24396" lon="4.8123">
        <ele>173.39999389648</ele>
        <time>2024-05-20T10:39:13.000Z</time>
      </trkpt>
      <trkpt lat="46.2439" lon="4.81228">
        <ele>173.39999389648</ele>
        <time>2024-05-20T10:39:14.000Z</time>
      </trkpt>
      <trkpt lat="46.24385" lon="4.81226">
        <ele>173.39999389648</ele>
        <time>2024-05-20T10:39:15.000Z</time>
      </trkpt>
      <trkpt lat="46.24379" lon="4.81224">
        <ele>173.19999694824</ele>
        <time>2024-05-20T10:39:16.000Z</time>
      </trkpt>
      <trkpt lat="46.24373" lon="4.81222">
        <ele>173.19999694824</ele>
        <time>2024-05-20T10:39:17.000Z</time>
      </trkpt>
      <trkpt lat="46.24368" lon="4.8122">
        <ele>173.39999389648</ele>
        <time>2024-05-20T10:39:18.000Z</time>
      </trkpt>
      <trkpt lat="46.24362" lon="4.81218">
        <ele>173.39999389648</ele>
        <time>2024-05-20T10:39:19.000Z</time>
      </trkpt>
      <trkpt lat="46.24356" lon="4.81216">
        <ele>173.39999389648</ele>
        <time>2024-05-20T10:39:20.000Z</time>
      </trkpt>
      <trkpt lat="46.2435" lon="4.81214">
        <ele>173.39999389648</ele>
        <time>2024-05-20T10:39:21.000Z</time>
      </trkpt>
      <trkpt lat="46.24345" lon="4.81212">
        <ele>173.39999389648</ele>
        <time>2024-05-20T10:39:22.000Z</time>
      </trkpt>
      <trkpt lat="46.24339" lon="4.8121">
        <ele>173.60000610352</ele>
        <time>2024-05-20T10:39:23.000Z</time>
      </trkpt>
      <trkpt lat="46.24333" lon="4.81208">
        <ele>173.60000610352</ele>
        <time>2024-05-20T10:39:24.000Z</time>
      </trkpt>
      <trkpt lat="46.24328" lon="4.81207">
        <ele>173.60000610352</ele>
        <time>2024-05-20T10:39:25.000Z</time>
      </trkpt>
      <trkpt lat="46.24322" lon="4.81205">
        <ele>173.60000610352</ele>
        <time>2024-05-20T10:39:26.000Z</time>
      </trkpt>
      <trkpt lat="46.24316" lon="4.81203">
        <ele>173.39999389648</ele>
        <time>2024-05-20T10:39:27.000Z</time>
      </trkpt>
      <trkpt lat="46.2431" lon="4.81201">
        <ele>173.39999389648</ele>
        <time>2024-05-20T10:39:28.000Z</time>
      </trkpt>
      <trkpt lat="46.24305" lon="4.81199">
        <ele>173.39999389648</ele>
        <time>2024-05-20T10:39:29.000Z</time>
      </trkpt>
      <trkpt lat="46.24299" lon="4.81197">
        <ele>173.39999389648</ele>
        <time>2024-05-20T10:39:30.000Z</time>
      </trkpt>
      <trkpt lat="46.24293" lon="4.81195">
        <ele>173.39999389648</ele>
        <time>2024-05-20T10:39:31.000Z</time>
      </trkpt>
      <trkpt lat="46.24288" lon="4.81193">
        <ele>173.39999389648</ele>
        <time>2024-05-20T10:39:32.000Z</time>
      </trkpt>
      <trkpt lat="46.24283" lon="4.81191">
        <ele>173.60000610352</ele>
        <time>2024-05-20T10:39:33.000Z</time>
      </trkpt>
      <trkpt lat="46.24277" lon="4.81188">
        <ele>173.60000610352</ele>
        <time>2024-05-20T10:39:34.000Z</time>
      </trkpt>
      <trkpt lat="46.24271" lon="4.81187">
        <ele>173.80000305176</ele>
        <time>2024-05-20T10:39:35.000Z</time>
      </trkpt>
      <trkpt lat="46.24265" lon="4.81184">
        <ele>173.80000305176</ele>
        <time>2024-05-20T10:39:36.000Z</time>
      </trkpt>
      <trkpt lat="46.2426" lon="4.81182">
        <ele>173.80000305176</ele>
        <time>2024-05-20T10:39:37.000Z</time>
      </trkpt>
      <trkpt lat="46.24254" lon="4.8118">
        <ele>173.80000305176</ele>
        <time>2024-05-20T10:39:38.000Z</time>
      </trkpt>
      <trkpt lat="46.24248" lon="4.81178">
        <ele>173.80000305176</ele>
        <time>2024-05-20T10:39:39.000Z</time>
      </trkpt>
      <trkpt lat="46.24243" lon="4.81176">
        <ele>173.80000305176</ele>
        <time>2024-05-20T10:39:40.000Z</time>
      </trkpt>
      <trkpt lat="46.24237" lon="4.81174">
        <ele>173.80000305176</ele>
        <time>2024-05-20T10:39:41.000Z</time>
      </trkpt>
      <trkpt lat="46.24231" lon="4.81172">
        <ele>173.80000305176</ele>
        <time>2024-05-20T10:39:42.000Z</time>
      </trkpt>
      <trkpt lat="46.24225" lon="4.81171">
        <ele>173.80000305176</ele>
        <time>2024-05-20T10:39:43.000Z</time>
      </trkpt>
      <trkpt lat="46.24219" lon="4.81169">
        <ele>174</ele>
        <time>2024-05-20T10:39:44.000Z</time>
      </trkpt>
      <trkpt lat="46.24213" lon="4.81168">
        <ele>173.80000305176</ele>
        <time>2024-05-20T10:39:45.000Z</time>
      </trkpt>
      <trkpt lat="46.24208" lon="4.81167">
        <ele>173.80000305176</ele>
        <time>2024-05-20T10:39:46.000Z</time>
      </trkpt>
      <trkpt lat="46.24202" lon="4.81166">
        <ele>173.80000305176</ele>
        <time>2024-05-20T10:39:47.000Z</time>
      </trkpt>
      <trkpt lat="46.24197" lon="4.81164">
        <ele>173.80000305176</ele>
        <time>2024-05-20T10:39:48.000Z</time>
      </trkpt>
      <trkpt lat="46.24192" lon="4.81161">
        <ele>173.80000305176</ele>
        <time>2024-05-20T10:39:49.000Z</time>
      </trkpt>
      <trkpt lat="46.24188" lon="4.81156">
        <ele>173.80000305176</ele>
        <time>2024-05-20T10:39:50.000Z</time>
      </trkpt>
      <trkpt lat="46.24184" lon="4.8115">
        <ele>173.80000305176</ele>
        <time>2024-05-20T10:39:51.000Z</time>
      </trkpt>
      <trkpt lat="46.24181" lon="4.81144">
        <ele>173.60000610352</ele>
        <time>2024-05-20T10:39:52.000Z</time>
      </trkpt>
      <trkpt lat="46.24177" lon="4.81139">
        <ele>173.60000610352</ele>
        <time>2024-05-20T10:39:53.000Z</time>
      </trkpt>
      <trkpt lat="46.24173" lon="4.81135">
        <ele>173.39999389648</ele>
        <time>2024-05-20T10:39:54.000Z</time>
      </trkpt>
      <trkpt lat="46.24169" lon="4.81132">
        <ele>173.39999389648</ele>
        <time>2024-05-20T10:39:55.000Z</time>
      </trkpt>
      <trkpt lat="46.24165" lon="4.8113">
        <ele>173.39999389648</ele>
        <time>2024-05-20T10:39:56.000Z</time>
      </trkpt>
      <trkpt lat="46.24161" lon="4.8113">
        <ele>173.39999389648</ele>
        <time>2024-05-20T10:39:57.000Z</time>
      </trkpt>
      <trkpt lat="46.24156" lon="4.81131">
        <ele>173.39999389648</ele>
        <time>2024-05-20T10:39:58.000Z</time>
      </trkpt>
      <trkpt lat="46.24151" lon="4.81132">
        <ele>173.39999389648</ele>
        <time>2024-05-20T10:39:59.000Z</time>
      </trkpt>
      <trkpt lat="46.24147" lon="4.81133">
        <ele>173.60000610352</ele>
        <time>2024-05-20T10:40:00.000Z</time>
      </trkpt>
      <trkpt lat="46.24142" lon="4.81135">
        <ele>173.60000610352</ele>
        <time>2024-05-20T10:40:01.000Z</time>
      </trkpt>
      <trkpt lat="46.24137" lon="4.81136">
        <ele>173.60000610352</ele>
        <time>2024-05-20T10:40:02.000Z</time>
      </trkpt>
      <trkpt lat="46.24132" lon="4.81137">
        <ele>173.60000610352</ele>
        <time>2024-05-20T10:40:03.000Z</time>
      </trkpt>
      <trkpt lat="46.24126" lon="4.81136">
        <ele>173.39999389648</ele>
        <time>2024-05-20T10:40:04.000Z</time>
      </trkpt>
      <trkpt lat="46.24121" lon="4.81134">
        <ele>173.39999389648</ele>
        <time>2024-05-20T10:40:05.000Z</time>
      </trkpt>
      <trkpt lat="46.24116" lon="4.81132">
        <ele>173.39999389648</ele>
        <time>2024-05-20T10:40:06.000Z</time>
      </trkpt>
      <trkpt lat="46.24112" lon="4.81129">
        <ele>173.39999389648</ele>
        <time>2024-05-20T10:40:07.000Z</time>
      </trkpt>
      <trkpt lat="46.24107" lon="4.81124">
        <ele>173.39999389648</ele>
        <time>2024-05-20T10:40:08.000Z</time>
      </trkpt>
      <trkpt lat="46.24103" lon="4.81119">
        <ele>173.60000610352</ele>
        <time>2024-05-20T10:40:09.000Z</time>
      </trkpt>
      <trkpt lat="46.24099" lon="4.81112">
        <ele>173.60000610352</ele>
        <time>2024-05-20T10:40:10.000Z</time>
      </trkpt>
      <trkpt lat="46.24095" lon="4.81106">
        <ele>173.60000610352</ele>
        <time>2024-05-20T10:40:11.000Z</time>
      </trkpt>
      <trkpt lat="46.24091" lon="4.811">
        <ele>173.60000610352</ele>
        <time>2024-05-20T10:40:12.000Z</time>
      </trkpt>
      <trkpt lat="46.24087" lon="4.81094">
        <ele>173.60000610352</ele>
        <time>2024-05-20T10:40:13.000Z</time>
      </trkpt>
      <trkpt lat="46.24083" lon="4.81088">
        <ele>173.60000610352</ele>
        <time>2024-05-20T10:40:14.000Z</time>
      </trkpt>
      <trkpt lat="46.24078" lon="4.81083">
        <ele>173.60000610352</ele>
        <time>2024-05-20T10:40:15.000Z</time>
      </trkpt>
      <trkpt lat="46.24073" lon="4.8108">
        <ele>173.60000610352</ele>
        <time>2024-05-20T10:40:16.000Z</time>
      </trkpt>
      <trkpt lat="46.24068" lon="4.81077">
        <ele>173.60000610352</ele>
        <time>2024-05-20T10:40:17.000Z</time>
      </trkpt>
      <trkpt lat="46.24062" lon="4.81074">
        <ele>173.60000610352</ele>
        <time>2024-05-20T10:40:18.000Z</time>
      </trkpt>
      <trkpt lat="46.24056" lon="4.81073">
        <ele>173.60000610352</ele>
        <time>2024-05-20T10:40:19.000Z</time>
      </trkpt>
      <trkpt lat="46.2405" lon="4.81072">
        <ele>173.60000610352</ele>
        <time>2024-05-20T10:40:20.000Z</time>
      </trkpt>
      <trkpt lat="46.24045" lon="4.81072">
        <ele>173.60000610352</ele>
        <time>2024-05-20T10:40:21.000Z</time>
      </trkpt>
      <trkpt lat="46.2404" lon="4.81074">
        <ele>173.60000610352</ele>
        <time>2024-05-20T10:40:22.000Z</time>
      </trkpt>
      <trkpt lat="46.24035" lon="4.81077">
        <ele>173.60000610352</ele>
        <time>2024-05-20T10:40:23.000Z</time>
      </trkpt>
      <trkpt lat="46.2403" lon="4.81081">
        <ele>173.80000305176</ele>
        <time>2024-05-20T10:40:24.000Z</time>
      </trkpt>
      <trkpt lat="46.24026" lon="4.81084">
        <ele>173.80000305176</ele>
        <time>2024-05-20T10:40:25.000Z</time>
      </trkpt>
      <trkpt lat="46.24022" lon="4.81088">
        <ele>173.60000610352</ele>
        <time>2024-05-20T10:40:26.000Z</time>
      </trkpt>
      <trkpt lat="46.24018" lon="4.81091">
        <ele>173.80000305176</ele>
        <time>2024-05-20T10:40:27.000Z</time>
      </trkpt>
      <trkpt lat="46.24014" lon="4.81095">
        <ele>173.80000305176</ele>
        <time>2024-05-20T10:40:28.000Z</time>
      </trkpt>
      <trkpt lat="46.24011" lon="4.81098">
        <ele>173.80000305176</ele>
        <time>2024-05-20T10:40:29.000Z</time>
      </trkpt>
      <trkpt lat="46.24007" lon="4.81101">
        <ele>173.80000305176</ele>
        <time>2024-05-20T10:40:30.000Z</time>
      </trkpt>
      <trkpt lat="46.24003" lon="4.81103">
        <ele>173.80000305176</ele>
        <time>2024-05-20T10:40:31.000Z</time>
      </trkpt>
      <trkpt lat="46.23998" lon="4.81104">
        <ele>173.80000305176</ele>
        <time>2024-05-20T10:40:32.000Z</time>
      </trkpt>
      <trkpt lat="46.23993" lon="4.81103">
        <ele>174</ele>
        <time>2024-05-20T10:40:33.000Z</time>
      </trkpt>
      <trkpt lat="46.23989" lon="4.81103">
        <ele>174</ele>
        <time>2024-05-20T10:40:34.000Z</time>
      </trkpt>
      <trkpt lat="46.23984" lon="4.81101">
        <ele>174</ele>
        <time>2024-05-20T10:40:35.000Z</time>
      </trkpt>
      <trkpt lat="46.23979" lon="4.811">
        <ele>174</ele>
        <time>2024-05-20T10:40:36.000Z</time>
      </trkpt>
      <trkpt lat="46.23974" lon="4.81099">
        <ele>173.80000305176</ele>
        <time>2024-05-20T10:40:37.000Z</time>
      </trkpt>
      <trkpt lat="46.23968" lon="4.81098">
        <ele>173.80000305176</ele>
        <time>2024-05-20T10:40:38.000Z</time>
      </trkpt>
      <trkpt lat="46.23963" lon="4.81097">
        <ele>173.80000305176</ele>
        <time>2024-05-20T10:40:39.000Z</time>
      </trkpt>
      <trkpt lat="46.23958" lon="4.81096">
        <ele>173.80000305176</ele>
        <time>2024-05-20T10:40:40.000Z</time>
      </trkpt>
      <trkpt lat="46.23952" lon="4.81095">
        <ele>173.80000305176</ele>
        <time>2024-05-20T10:40:41.000Z</time>
      </trkpt>
      <trkpt lat="46.23947" lon="4.81093">
        <ele>173.80000305176</ele>
        <time>2024-05-20T10:40:42.000Z</time>
      </trkpt>
      <trkpt lat="46.23941" lon="4.81092">
        <ele>173.80000305176</ele>
        <time>2024-05-20T10:40:43.000Z</time>
      </trkpt>
      <trkpt lat="46.23935" lon="4.8109">
        <ele>173.80000305176</ele>
        <time>2024-05-20T10:40:44.000Z</time>
      </trkpt>
      <trkpt lat="46.2393" lon="4.8109">
        <ele>173.80000305176</ele>
        <time>2024-05-20T10:40:45.000Z</time>
      </trkpt>
      <trkpt lat="46.23924" lon="4.81089">
        <ele>173.80000305176</ele>
        <time>2024-05-20T10:40:46.000Z</time>
      </trkpt>
      <trkpt lat="46.23919" lon="4.81087">
        <ele>173.80000305176</ele>
        <time>2024-05-20T10:40:47.000Z</time>
      </trkpt>
      <trkpt lat="46.23913" lon="4.81086">
        <ele>173.80000305176</ele>
        <time>2024-05-20T10:40:48.000Z</time>
      </trkpt>
      <trkpt lat="46.23908" lon="4.81086">
        <ele>173.80000305176</ele>
        <time>2024-05-20T10:40:49.000Z</time>
      </trkpt>
      <trkpt lat="46.23902" lon="4.81084">
        <ele>173.80000305176</ele>
        <time>2024-05-20T10:40:50.000Z</time>
      </trkpt>
      <trkpt lat="46.23896" lon="4.81083">
        <ele>173.80000305176</ele>
        <time>2024-05-20T10:40:51.000Z</time>
      </trkpt>
      <trkpt lat="46.2389" lon="4.81081">
        <ele>173.80000305176</ele>
        <time>2024-05-20T10:40:52.000Z</time>
      </trkpt>
      <trkpt lat="46.23885" lon="4.8108">
        <ele>173.80000305176</ele>
        <time>2024-05-20T10:40:53.000Z</time>
      </trkpt>
      <trkpt lat="46.23879" lon="4.81078">
        <ele>173.80000305176</ele>
        <time>2024-05-20T10:40:54.000Z</time>
      </trkpt>
      <trkpt lat="46.23873" lon="4.81076">
        <ele>173.80000305176</ele>
        <time>2024-05-20T10:40:55.000Z</time>
      </trkpt>
      <trkpt lat="46.23867" lon="4.81075">
        <ele>173.80000305176</ele>
        <time>2024-05-20T10:40:56.000Z</time>
      </trkpt>
      <trkpt lat="46.23862" lon="4.81073">
        <ele>173.80000305176</ele>
        <time>2024-05-20T10:40:57.000Z</time>
      </trkpt>
      <trkpt lat="46.23856" lon="4.81071">
        <ele>173.80000305176</ele>
        <time>2024-05-20T10:40:58.000Z</time>
      </trkpt>
      <trkpt lat="46.2385" lon="4.81069">
        <ele>173.80000305176</ele>
        <time>2024-05-20T10:40:59.000Z</time>
      </trkpt>
      <trkpt lat="46.23844" lon="4.81068">
        <ele>173.80000305176</ele>
        <time>2024-05-20T10:41:00.000Z</time>
      </trkpt>
      <trkpt lat="46.23838" lon="4.81066">
        <ele>173.80000305176</ele>
        <time>2024-05-20T10:41:01.000Z</time>
      </trkpt>
      <trkpt lat="46.23833" lon="4.81064">
        <ele>173.80000305176</ele>
        <time>2024-05-20T10:41:02.000Z</time>
      </trkpt>
      <trkpt lat="46.23827" lon="4.81062">
        <ele>173.80000305176</ele>
        <time>2024-05-20T10:41:03.000Z</time>
      </trkpt>
      <trkpt lat="46.23821" lon="4.81059">
        <ele>173.80000305176</ele>
        <time>2024-05-20T10:41:04.000Z</time>
      </trkpt>
      <trkpt lat="46.23816" lon="4.81057">
        <ele>173.80000305176</ele>
        <time>2024-05-20T10:41:05.000Z</time>
      </trkpt>
      <trkpt lat="46.2381" lon="4.81056">
        <ele>173.80000305176</ele>
        <time>2024-05-20T10:41:06.000Z</time>
      </trkpt>
      <trkpt lat="46.23804" lon="4.81053">
        <ele>173.60000610352</ele>
        <time>2024-05-20T10:41:07.000Z</time>
      </trkpt>
      <trkpt lat="46.23799" lon="4.81051">
        <ele>173.60000610352</ele>
        <time>2024-05-20T10:41:08.000Z</time>
      </trkpt>
      <trkpt lat="46.23793" lon="4.81049">
        <ele>173.60000610352</ele>
        <time>2024-05-20T10:41:09.000Z</time>
      </trkpt>
      <trkpt lat="46.23787" lon="4.81047">
        <ele>173.60000610352</ele>
        <time>2024-05-20T10:41:10.000Z</time>
      </trkpt>
      <trkpt lat="46.23782" lon="4.81045">
        <ele>173.60000610352</ele>
        <time>2024-05-20T10:41:11.000Z</time>
      </trkpt>
      <trkpt lat="46.23776" lon="4.81043">
        <ele>173.80000305176</ele>
        <time>2024-05-20T10:41:12.000Z</time>
      </trkpt>
      <trkpt lat="46.23771" lon="4.8104">
        <ele>173.80000305176</ele>
        <time>2024-05-20T10:41:13.000Z</time>
      </trkpt>
      <trkpt lat="46.23765" lon="4.81038">
        <ele>173.80000305176</ele>
        <time>2024-05-20T10:41:14.000Z</time>
      </trkpt>
      <trkpt lat="46.23759" lon="4.81036">
        <ele>173.80000305176</ele>
        <time>2024-05-20T10:41:15.000Z</time>
      </trkpt>
      <trkpt lat="46.23754" lon="4.81034">
        <ele>173.80000305176</ele>
        <time>2024-05-20T10:41:16.000Z</time>
      </trkpt>
      <trkpt lat="46.23748" lon="4.81031">
        <ele>173.80000305176</ele>
        <time>2024-05-20T10:41:17.000Z</time>
      </trkpt>
      <trkpt lat="46.23743" lon="4.81028">
        <ele>173.80000305176</ele>
        <time>2024-05-20T10:41:18.000Z</time>
      </trkpt>
      <trkpt lat="46.23737" lon="4.81025">
        <ele>173.80000305176</ele>
        <time>2024-05-20T10:41:19.000Z</time>
      </trkpt>
      <trkpt lat="46.23732" lon="4.81022">
        <ele>173.80000305176</ele>
        <time>2024-05-20T10:41:20.000Z</time>
      </trkpt>
      <trkpt lat="46.23726" lon="4.81019">
        <ele>173.80000305176</ele>
        <time>2024-05-20T10:41:21.000Z</time>
      </trkpt>
      <trkpt lat="46.23721" lon="4.81016">
        <ele>173.80000305176</ele>
        <time>2024-05-20T10:41:22.000Z</time>
      </trkpt>
      <trkpt lat="46.23715" lon="4.81013">
        <ele>173.80000305176</ele>
        <time>2024-05-20T10:41:23.000Z</time>
      </trkpt>
      <trkpt lat="46.23709" lon="4.81009">
        <ele>173.80000305176</ele>
        <time>2024-05-20T10:41:24.000Z</time>
      </trkpt>
      <trkpt lat="46.23704" lon="4.81006">
        <ele>173.80000305176</ele>
        <time>2024-05-20T10:41:25.000Z</time>
      </trkpt>
      <trkpt lat="46.23698" lon="4.81003">
        <ele>173.80000305176</ele>
        <time>2024-05-20T10:41:26.000Z</time>
      </trkpt>
      <trkpt lat="46.23693" lon="4.80999">
        <ele>173.80000305176</ele>
        <time>2024-05-20T10:41:27.000Z</time>
      </trkpt>
      <trkpt lat="46.23687" lon="4.80996">
        <ele>173.60000610352</ele>
        <time>2024-05-20T10:41:28.000Z</time>
      </trkpt>
      <trkpt lat="46.23682" lon="4.80992">
        <ele>173.60000610352</ele>
        <time>2024-05-20T10:41:29.000Z</time>
      </trkpt>
      <trkpt lat="46.23676" lon="4.80989">
        <ele>173.60000610352</ele>
        <time>2024-05-20T10:41:30.000Z</time>
      </trkpt>
      <trkpt lat="46.23671" lon="4.80985">
        <ele>173.60000610352</ele>
        <time>2024-05-20T10:41:31.000Z</time>
      </trkpt>
      <trkpt lat="46.23665" lon="4.80981">
        <ele>173.60000610352</ele>
        <time>2024-05-20T10:41:32.000Z</time>
      </trkpt>
      <trkpt lat="46.2366" lon="4.80978">
        <ele>173.60000610352</ele>
        <time>2024-05-20T10:41:33.000Z</time>
      </trkpt>
      <trkpt lat="46.23654" lon="4.80974">
        <ele>173.80000305176</ele>
        <time>2024-05-20T10:41:34.000Z</time>
      </trkpt>
      <trkpt lat="46.23649" lon="4.8097">
        <ele>173.80000305176</ele>
        <time>2024-05-20T10:41:35.000Z</time>
      </trkpt>
      <trkpt lat="46.23644" lon="4.80967">
        <ele>173.80000305176</ele>
        <time>2024-05-20T10:41:36.000Z</time>
      </trkpt>
      <trkpt lat="46.23639" lon="4.80963">
        <ele>173.80000305176</ele>
        <time>2024-05-20T10:41:37.000Z</time>
      </trkpt>
      <trkpt lat="46.23633" lon="4.80959">
        <ele>173.80000305176</ele>
        <time>2024-05-20T10:41:38.000Z</time>
      </trkpt>
      <trkpt lat="46.23628" lon="4.80955">
        <ele>173.80000305176</ele>
        <time>2024-05-20T10:41:39.000Z</time>
      </trkpt>
      <trkpt lat="46.23623" lon="4.80951">
        <ele>173.80000305176</ele>
        <time>2024-05-20T10:41:40.000Z</time>
      </trkpt>
      <trkpt lat="46.23617" lon="4.80948">
        <ele>173.60000610352</ele>
        <time>2024-05-20T10:41:41.000Z</time>
      </trkpt>
      <trkpt lat="46.23612" lon="4.80943">
        <ele>173.60000610352</ele>
        <time>2024-05-20T10:41:42.000Z</time>
      </trkpt>
      <trkpt lat="46.23607" lon="4.8094">
        <ele>173.60000610352</ele>
        <time>2024-05-20T10:41:43.000Z</time>
      </trkpt>
      <trkpt lat="46.23602" lon="4.80936">
        <ele>173.60000610352</ele>
        <time>2024-05-20T10:41:44.000Z</time>
      </trkpt>
      <trkpt lat="46.23596" lon="4.80931">
        <ele>173.60000610352</ele>
        <time>2024-05-20T10:41:45.000Z</time>
      </trkpt>
      <trkpt lat="46.23591" lon="4.80927">
        <ele>173.60000610352</ele>
        <time>2024-05-20T10:41:46.000Z</time>
      </trkpt>
      <trkpt lat="46.23586" lon="4.80923">
        <ele>173.39999389648</ele>
        <time>2024-05-20T10:41:47.000Z</time>
      </trkpt>
      <trkpt lat="46.23581" lon="4.80919">
        <ele>173.39999389648</ele>
        <time>2024-05-20T10:41:48.000Z</time>
      </trkpt>
      <trkpt lat="46.23576" lon="4.80915">
        <ele>173.39999389648</ele>
        <time>2024-05-20T10:41:49.000Z</time>
      </trkpt>
      <trkpt lat="46.23571" lon="4.80911">
        <ele>173.39999389648</ele>
        <time>2024-05-20T10:41:50.000Z</time>
      </trkpt>
      <trkpt lat="46.23566" lon="4.80907">
        <ele>173.60000610352</ele>
        <time>2024-05-20T10:41:51.000Z</time>
      </trkpt>
      <trkpt lat="46.23561" lon="4.80903">
        <ele>173.60000610352</ele>
        <time>2024-05-20T10:41:52.000Z</time>
      </trkpt>
      <trkpt lat="46.23556" lon="4.80899">
        <ele>173.60000610352</ele>
        <time>2024-05-20T10:41:53.000Z</time>
      </trkpt>
      <trkpt lat="46.23551" lon="4.80894">
        <ele>173.60000610352</ele>
        <time>2024-05-20T10:41:54.000Z</time>
      </trkpt>
      <trkpt lat="46.23546" lon="4.80891">
        <ele>173.39999389648</ele>
        <time>2024-05-20T10:41:55.000Z</time>
      </trkpt>
      <trkpt lat="46.23541" lon="4.80886">
        <ele>173.39999389648</ele>
        <time>2024-05-20T10:41:56.000Z</time>
      </trkpt>
      <trkpt lat="46.23536" lon="4.80882">
        <ele>173.19999694824</ele>
        <time>2024-05-20T10:41:57.000Z</time>
      </trkpt>
      <trkpt lat="46.23531" lon="4.80878">
        <ele>173.19999694824</ele>
        <time>2024-05-20T10:41:58.000Z</time>
      </trkpt>
      <trkpt lat="46.23526" lon="4.80874">
        <ele>173</ele>
        <time>2024-05-20T10:41:59.000Z</time>
      </trkpt>
      <trkpt lat="46.23521" lon="4.8087">
        <ele>173</ele>
        <time>2024-05-20T10:42:00.000Z</time>
      </trkpt>
      <trkpt lat="46.23517" lon="4.80866">
        <ele>173</ele>
        <time>2024-05-20T10:42:01.000Z</time>
      </trkpt>
      <trkpt lat="46.23513" lon="4.80863">
        <ele>173</ele>
        <time>2024-05-20T10:42:02.000Z</time>
      </trkpt>
      <trkpt lat="46.23509" lon="4.80859">
        <ele>173</ele>
        <time>2024-05-20T10:42:03.000Z</time>
      </trkpt>
      <trkpt lat="46.23505" lon="4.80856">
        <ele>173.19999694824</ele>
        <time>2024-05-20T10:42:04.000Z</time>
      </trkpt>
      <trkpt lat="46.23501" lon="4.80853">
        <ele>173.39999389648</ele>
        <time>2024-05-20T10:42:05.000Z</time>
      </trkpt>
      <trkpt lat="46.23498" lon="4.8085">
        <ele>173.39999389648</ele>
        <time>2024-05-20T10:42:06.000Z</time>
      </trkpt>
      <trkpt lat="46.23495" lon="4.80846">
        <ele>173.39999389648</ele>
        <time>2024-05-20T10:42:07.000Z</time>
      </trkpt>
      <trkpt lat="46.23492" lon="4.80843">
        <ele>173.60000610352</ele>
        <time>2024-05-20T10:42:08.000Z</time>
      </trkpt>
      <trkpt lat="46.23488" lon="4.80839">
        <ele>173.60000610352</ele>
        <time>2024-05-20T10:42:09.000Z</time>
      </trkpt>
      <trkpt lat="46.23485" lon="4.80835">
        <ele>173.60000610352</ele>
        <time>2024-05-20T10:42:10.000Z</time>
      </trkpt>
      <trkpt lat="46.23481" lon="4.8083">
        <ele>173.60000610352</ele>
        <time>2024-05-20T10:42:11.000Z</time>
      </trkpt>
      <trkpt lat="46.23477" lon="4.80826">
        <ele>173.39999389648</ele>
        <time>2024-05-20T10:42:12.000Z</time>
      </trkpt>
      <trkpt lat="46.23474" lon="4.80822">
        <ele>173.39999389648</ele>
        <time>2024-05-20T10:42:13.000Z</time>
      </trkpt>
      <trkpt lat="46.2347" lon="4.80818">
        <ele>173.39999389648</ele>
        <time>2024-05-20T10:42:14.000Z</time>
      </trkpt>
      <trkpt lat="46.23466" lon="4.80813">
        <ele>173.39999389648</ele>
        <time>2024-05-20T10:42:15.000Z</time>
      </trkpt>
      <trkpt lat="46.23461" lon="4.80809">
        <ele>173.39999389648</ele>
        <time>2024-05-20T10:42:16.000Z</time>
      </trkpt>
      <trkpt lat="46.23457" lon="4.80805">
        <ele>173.39999389648</ele>
        <time>2024-05-20T10:42:17.000Z</time>
      </trkpt>
      <trkpt lat="46.23452" lon="4.80801">
        <ele>173.39999389648</ele>
        <time>2024-05-20T10:42:18.000Z</time>
      </trkpt>
      <trkpt lat="46.23447" lon="4.80796">
        <ele>173.39999389648</ele>
        <time>2024-05-20T10:42:19.000Z</time>
      </trkpt>
      <trkpt lat="46.23442" lon="4.80792">
        <ele>173.39999389648</ele>
        <time>2024-05-20T10:42:20.000Z</time>
      </trkpt>
      <trkpt lat="46.23438" lon="4.80787">
        <ele>173.39999389648</ele>
        <time>2024-05-20T10:42:21.000Z</time>
      </trkpt>
      <trkpt lat="46.23433" lon="4.80782">
        <ele>173.39999389648</ele>
        <time>2024-05-20T10:42:22.000Z</time>
      </trkpt>
      <trkpt lat="46.23428" lon="4.80777">
        <ele>173.39999389648</ele>
        <time>2024-05-20T10:42:23.000Z</time>
      </trkpt>
      <trkpt lat="46.23423" lon="4.80772">
        <ele>173.39999389648</ele>
        <time>2024-05-20T10:42:24.000Z</time>
      </trkpt>
      <trkpt lat="46.23418" lon="4.80768">
        <ele>173.39999389648</ele>
        <time>2024-05-20T10:42:25.000Z</time>
      </trkpt>
      <trkpt lat="46.23414" lon="4.80764">
        <ele>173.39999389648</ele>
        <time>2024-05-20T10:42:26.000Z</time>
      </trkpt>
      <trkpt lat="46.23409" lon="4.80759">
        <ele>173.39999389648</ele>
        <time>2024-05-20T10:42:27.000Z</time>
      </trkpt>
      <trkpt lat="46.23404" lon="4.80754">
        <ele>173.39999389648</ele>
        <time>2024-05-20T10:42:28.000Z</time>
      </trkpt>
      <trkpt lat="46.23399" lon="4.80749">
        <ele>173.39999389648</ele>
        <time>2024-05-20T10:42:29.000Z</time>
      </trkpt>
      <trkpt lat="46.23394" lon="4.80744">
        <ele>173.39999389648</ele>
        <time>2024-05-20T10:42:30.000Z</time>
      </trkpt>
      <trkpt lat="46.23389" lon="4.80739">
        <ele>173.39999389648</ele>
        <time>2024-05-20T10:42:31.000Z</time>
      </trkpt>
      <trkpt lat="46.23384" lon="4.80733">
        <ele>173.39999389648</ele>
        <time>2024-05-20T10:42:32.000Z</time>
      </trkpt>
      <trkpt lat="46.23379" lon="4.80728">
        <ele>173.39999389648</ele>
        <time>2024-05-20T10:42:33.000Z</time>
      </trkpt>
      <trkpt lat="46.23374" lon="4.80722">
        <ele>173.39999389648</ele>
        <time>2024-05-20T10:42:34.000Z</time>
      </trkpt>
      <trkpt lat="46.23369" lon="4.80717">
        <ele>173.39999389648</ele>
        <time>2024-05-20T10:42:35.000Z</time>
      </trkpt>
      <trkpt lat="46.23364" lon="4.80712">
        <ele>173.39999389648</ele>
        <time>2024-05-20T10:42:36.000Z</time>
      </trkpt>
      <trkpt lat="46.23359" lon="4.80707">
        <ele>173.39999389648</ele>
        <time>2024-05-20T10:42:37.000Z</time>
      </trkpt>
      <trkpt lat="46.23355" lon="4.80701">
        <ele>173.39999389648</ele>
        <time>2024-05-20T10:42:38.000Z</time>
      </trkpt>
      <trkpt lat="46.2335" lon="4.80696">
        <ele>173.39999389648</ele>
        <time>2024-05-20T10:42:39.000Z</time>
      </trkpt>
      <trkpt lat="46.23345" lon="4.80691">
        <ele>173.39999389648</ele>
        <time>2024-05-20T10:42:40.000Z</time>
      </trkpt>
      <trkpt lat="46.23341" lon="4.80686">
        <ele>173.39999389648</ele>
        <time>2024-05-20T10:42:41.000Z</time>
      </trkpt>
      <trkpt lat="46.23336" lon="4.80681">
        <ele>173.39999389648</ele>
        <time>2024-05-20T10:42:42.000Z</time>
      </trkpt>
      <trkpt lat="46.23332" lon="4.80676">
        <ele>173.39999389648</ele>
        <time>2024-05-20T10:42:43.000Z</time>
      </trkpt>
      <trkpt lat="46.23327" lon="4.80671">
        <ele>173.39999389648</ele>
        <time>2024-05-20T10:42:44.000Z</time>
      </trkpt>
      <trkpt lat="46.23322" lon="4.80665">
        <ele>173.19999694824</ele>
        <time>2024-05-20T10:42:45.000Z</time>
      </trkpt>
      <trkpt lat="46.23317" lon="4.80659">
        <ele>173.19999694824</ele>
        <time>2024-05-20T10:42:46.000Z</time>
      </trkpt>
      <trkpt lat="46.23313" lon="4.80654">
        <ele>173.19999694824</ele>
        <time>2024-05-20T10:42:47.000Z</time>
      </trkpt>
      <trkpt lat="46.23308" lon="4.80649">
        <ele>173.19999694824</ele>
        <time>2024-05-20T10:42:48.000Z</time>
      </trkpt>
      <trkpt lat="46.23303" lon="4.80643">
        <ele>173.19999694824</ele>
        <time>2024-05-20T10:42:49.000Z</time>
      </trkpt>
      <trkpt lat="46.23298" lon="4.80638">
        <ele>173.19999694824</ele>
        <time>2024-05-20T10:42:50.000Z</time>
      </trkpt>
      <trkpt lat="46.23293" lon="4.80632">
        <ele>173.19999694824</ele>
        <time>2024-05-20T10:42:51.000Z</time>
      </trkpt>
      <trkpt lat="46.23288" lon="4.80627">
        <ele>173.19999694824</ele>
        <time>2024-05-20T10:42:52.000Z</time>
      </trkpt>
      <trkpt lat="46.23284" lon="4.80621">
        <ele>173.19999694824</ele>
        <time>2024-05-20T10:42:53.000Z</time>
      </trkpt>
      <trkpt lat="46.23279" lon="4.80616">
        <ele>173.19999694824</ele>
        <time>2024-05-20T10:42:54.000Z</time>
      </trkpt>
      <trkpt lat="46.23275" lon="4.8061">
        <ele>173.39999389648</ele>
        <time>2024-05-20T10:42:55.000Z</time>
      </trkpt>
      <trkpt lat="46.2327" lon="4.80605">
        <ele>173.39999389648</ele>
        <time>2024-05-20T10:42:56.000Z</time>
      </trkpt>
      <trkpt lat="46.23265" lon="4.80599">
        <ele>173.39999389648</ele>
        <time>2024-05-20T10:42:57.000Z</time>
      </trkpt>
      <trkpt lat="46.23261" lon="4.80594">
        <ele>173.39999389648</ele>
        <time>2024-05-20T10:42:58.000Z</time>
      </trkpt>
      <trkpt lat="46.23256" lon="4.80588">
        <ele>173.39999389648</ele>
        <time>2024-05-20T10:42:59.000Z</time>
      </trkpt>
      <trkpt lat="46.23251" lon="4.80582">
        <ele>173.39999389648</ele>
        <time>2024-05-20T10:43:00.000Z</time>
      </trkpt>
      <trkpt lat="46.23247" lon="4.80576">
        <ele>173.39999389648</ele>
        <time>2024-05-20T10:43:01.000Z</time>
      </trkpt>
      <trkpt lat="46.23243" lon="4.80571">
        <ele>173.39999389648</ele>
        <time>2024-05-20T10:43:02.000Z</time>
      </trkpt>
      <trkpt lat="46.23238" lon="4.80566">
        <ele>173.39999389648</ele>
        <time>2024-05-20T10:43:03.000Z</time>
      </trkpt>
      <trkpt lat="46.23234" lon="4.8056">
        <ele>173.39999389648</ele>
        <time>2024-05-20T10:43:04.000Z</time>
      </trkpt>
      <trkpt lat="46.23229" lon="4.80554">
        <ele>173.19999694824</ele>
        <time>2024-05-20T10:43:05.000Z</time>
      </trkpt>
      <trkpt lat="46.23225" lon="4.80549">
        <ele>173.19999694824</ele>
        <time>2024-05-20T10:43:06.000Z</time>
      </trkpt>
      <trkpt lat="46.2322" lon="4.80543">
        <ele>173.19999694824</ele>
        <time>2024-05-20T10:43:07.000Z</time>
      </trkpt>
      <trkpt lat="46.23216" lon="4.80537">
        <ele>173.19999694824</ele>
        <time>2024-05-20T10:43:08.000Z</time>
      </trkpt>
      <trkpt lat="46.23211" lon="4.80531">
        <ele>173.19999694824</ele>
        <time>2024-05-20T10:43:09.000Z</time>
      </trkpt>
      <trkpt lat="46.23207" lon="4.80525">
        <ele>173</ele>
        <time>2024-05-20T10:43:10.000Z</time>
      </trkpt>
      <trkpt lat="46.23202" lon="4.80519">
        <ele>173</ele>
        <time>2024-05-20T10:43:11.000Z</time>
      </trkpt>
      <trkpt lat="46.23197" lon="4.80514">
        <ele>173</ele>
        <time>2024-05-20T10:43:12.000Z</time>
      </trkpt>
      <trkpt lat="46.23193" lon="4.80508">
        <ele>172.80000305176</ele>
        <time>2024-05-20T10:43:13.000Z</time>
      </trkpt>
      <trkpt lat="46.23188" lon="4.80502">
        <ele>172.80000305176</ele>
        <time>2024-05-20T10:43:14.000Z</time>
      </trkpt>
      <trkpt lat="46.23184" lon="4.80497">
        <ele>172.80000305176</ele>
        <time>2024-05-20T10:43:15.000Z</time>
      </trkpt>
      <trkpt lat="46.23179" lon="4.80492">
        <ele>172.80000305176</ele>
        <time>2024-05-20T10:43:16.000Z</time>
      </trkpt>
      <trkpt lat="46.23175" lon="4.80486">
        <ele>172.80000305176</ele>
        <time>2024-05-20T10:43:17.000Z</time>
      </trkpt>
      <trkpt lat="46.2317" lon="4.80481">
        <ele>172.80000305176</ele>
        <time>2024-05-20T10:43:18.000Z</time>
      </trkpt>
      <trkpt lat="46.23166" lon="4.80475">
        <ele>172.80000305176</ele>
        <time>2024-05-20T10:43:19.000Z</time>
      </trkpt>
      <trkpt lat="46.23161" lon="4.8047">
        <ele>172.80000305176</ele>
        <time>2024-05-20T10:43:20.000Z</time>
      </trkpt>
      <trkpt lat="46.23156" lon="4.80465">
        <ele>172.80000305176</ele>
        <time>2024-05-20T10:43:21.000Z</time>
      </trkpt>
      <trkpt lat="46.23152" lon="4.8046">
        <ele>173</ele>
        <time>2024-05-20T10:43:22.000Z</time>
      </trkpt>
      <trkpt lat="46.23147" lon="4.80455">
        <ele>173</ele>
        <time>2024-05-20T10:43:23.000Z</time>
      </trkpt>
      <trkpt lat="46.23142" lon="4.8045">
        <ele>173</ele>
        <time>2024-05-20T10:43:24.000Z</time>
      </trkpt>
      <trkpt lat="46.23138" lon="4.80445">
        <ele>173</ele>
        <time>2024-05-20T10:43:25.000Z</time>
      </trkpt>
      <trkpt lat="46.23133" lon="4.8044">
        <ele>173</ele>
        <time>2024-05-20T10:43:26.000Z</time>
      </trkpt>
      <trkpt lat="46.23128" lon="4.80435">
        <ele>173</ele>
        <time>2024-05-20T10:43:27.000Z</time>
      </trkpt>
      <trkpt lat="46.23123" lon="4.8043">
        <ele>173</ele>
        <time>2024-05-20T10:43:28.000Z</time>
      </trkpt>
      <trkpt lat="46.23118" lon="4.80424">
        <ele>173</ele>
        <time>2024-05-20T10:43:29.000Z</time>
      </trkpt>
      <trkpt lat="46.23113" lon="4.80419">
        <ele>173</ele>
        <time>2024-05-20T10:43:30.000Z</time>
      </trkpt>
      <trkpt lat="46.23109" lon="4.80414">
        <ele>173</ele>
        <time>2024-05-20T10:43:31.000Z</time>
      </trkpt>
      <trkpt lat="46.23104" lon="4.80409">
        <ele>173</ele>
        <time>2024-05-20T10:43:32.000Z</time>
      </trkpt>
      <trkpt lat="46.23099" lon="4.80405">
        <ele>173</ele>
        <time>2024-05-20T10:43:33.000Z</time>
      </trkpt>
      <trkpt lat="46.23094" lon="4.804">
        <ele>173</ele>
        <time>2024-05-20T10:43:34.000Z</time>
      </trkpt>
      <trkpt lat="46.23089" lon="4.80394">
        <ele>173</ele>
        <time>2024-05-20T10:43:35.000Z</time>
      </trkpt>
      <trkpt lat="46.23084" lon="4.80389">
        <ele>172.80000305176</ele>
        <time>2024-05-20T10:43:36.000Z</time>
      </trkpt>
      <trkpt lat="46.23079" lon="4.80384">
        <ele>173</ele>
        <time>2024-05-20T10:43:37.000Z</time>
      </trkpt>
      <trkpt lat="46.23075" lon="4.80378">
        <ele>172.80000305176</ele>
        <time>2024-05-20T10:43:38.000Z</time>
      </trkpt>
      <trkpt lat="46.2307" lon="4.80373">
        <ele>172.80000305176</ele>
        <time>2024-05-20T10:43:39.000Z</time>
      </trkpt>
      <trkpt lat="46.23065" lon="4.80367">
        <ele>172.80000305176</ele>
        <time>2024-05-20T10:43:40.000Z</time>
      </trkpt>
      <trkpt lat="46.2306" lon="4.80362">
        <ele>172.80000305176</ele>
        <time>2024-05-20T10:43:41.000Z</time>
      </trkpt>
      <trkpt lat="46.23055" lon="4.80357">
        <ele>172.80000305176</ele>
        <time>2024-05-20T10:43:42.000Z</time>
      </trkpt>
      <trkpt lat="46.2305" lon="4.80351">
        <ele>172.80000305176</ele>
        <time>2024-05-20T10:43:43.000Z</time>
      </trkpt>
      <trkpt lat="46.23045" lon="4.80346">
        <ele>172.80000305176</ele>
        <time>2024-05-20T10:43:44.000Z</time>
      </trkpt>
      <trkpt lat="46.2304" lon="4.80341">
        <ele>172.80000305176</ele>
        <time>2024-05-20T10:43:45.000Z</time>
      </trkpt>
      <trkpt lat="46.23035" lon="4.80336">
        <ele>172.80000305176</ele>
        <time>2024-05-20T10:43:46.000Z</time>
      </trkpt>
      <trkpt lat="46.2303" lon="4.8033">
        <ele>172.80000305176</ele>
        <time>2024-05-20T10:43:47.000Z</time>
      </trkpt>
      <trkpt lat="46.23024" lon="4.80326">
        <ele>172.80000305176</ele>
        <time>2024-05-20T10:43:48.000Z</time>
      </trkpt>
      <trkpt lat="46.23019" lon="4.80321">
        <ele>172.80000305176</ele>
        <time>2024-05-20T10:43:49.000Z</time>
      </trkpt>
      <trkpt lat="46.23014" lon="4.80316">
        <ele>172.80000305176</ele>
        <time>2024-05-20T10:43:50.000Z</time>
      </trkpt>
      <trkpt lat="46.23009" lon="4.80312">
        <ele>172.60000610352</ele>
        <time>2024-05-20T10:43:51.000Z</time>
      </trkpt>
      <trkpt lat="46.23004" lon="4.80307">
        <ele>172.60000610352</ele>
        <time>2024-05-20T10:43:52.000Z</time>
      </trkpt>
      <trkpt lat="46.22999" lon="4.80303">
        <ele>172.60000610352</ele>
        <time>2024-05-20T10:43:53.000Z</time>
      </trkpt>
      <trkpt lat="46.22994" lon="4.803">
        <ele>172.60000610352</ele>
        <time>2024-05-20T10:43:54.000Z</time>
      </trkpt>
      <trkpt lat="46.22988" lon="4.80296">
        <ele>172.60000610352</ele>
        <time>2024-05-20T10:43:55.000Z</time>
      </trkpt>
      <trkpt lat="46.22983" lon="4.80292">
        <ele>172.60000610352</ele>
        <time>2024-05-20T10:43:56.000Z</time>
      </trkpt>
      <trkpt lat="46.22978" lon="4.80288">
        <ele>172.60000610352</ele>
        <time>2024-05-20T10:43:57.000Z</time>
      </trkpt>
      <trkpt lat="46.22973" lon="4.80284">
        <ele>172.60000610352</ele>
        <time>2024-05-20T10:43:58.000Z</time>
      </trkpt>
      <trkpt lat="46.22968" lon="4.80281">
        <ele>172.60000610352</ele>
        <time>2024-05-20T10:43:59.000Z</time>
      </trkpt>
      <trkpt lat="46.22963" lon="4.80278">
        <ele>172.60000610352</ele>
        <time>2024-05-20T10:44:00.000Z</time>
      </trkpt>
      <trkpt lat="46.22959" lon="4.80274">
        <ele>172.60000610352</ele>
        <time>2024-05-20T10:44:01.000Z</time>
      </trkpt>
      <trkpt lat="46.22955" lon="4.80271">
        <ele>172.60000610352</ele>
        <time>2024-05-20T10:44:02.000Z</time>
      </trkpt>
      <trkpt lat="46.22951" lon="4.80268">
        <ele>172.60000610352</ele>
        <time>2024-05-20T10:44:03.000Z</time>
      </trkpt>
      <trkpt lat="46.22947" lon="4.80265">
        <ele>172.80000305176</ele>
        <time>2024-05-20T10:44:04.000Z</time>
      </trkpt>
      <trkpt lat="46.22944" lon="4.80263">
        <ele>173</ele>
        <time>2024-05-20T10:44:05.000Z</time>
      </trkpt>
      <trkpt lat="46.22942" lon="4.80262">
        <ele>173</ele>
        <time>2024-05-20T10:44:06.000Z</time>
      </trkpt>
      <trkpt lat="46.22941" lon="4.80261">
        <ele>173.19999694824</ele>
        <time>2024-05-20T10:44:07.000Z</time>
      </trkpt>
      <trkpt lat="46.22941" lon="4.80261">
        <ele>173.39999389648</ele>
        <time>2024-05-20T10:44:08.000Z</time>
      </trkpt>
      <trkpt lat="46.22941" lon="4.8026">
        <ele>172.60000610352</ele>
        <time>2024-05-20T11:01:27.000Z</time>
      </trkpt>
      <trkpt lat="46.22939" lon="4.8026">
        <ele>172.60000610352</ele>
        <time>2024-05-20T11:01:28.000Z</time>
      </trkpt>
      <trkpt lat="46.22937" lon="4.80258">
        <ele>172.60000610352</ele>
        <time>2024-05-20T11:01:29.000Z</time>
      </trkpt>
      <trkpt lat="46.22935" lon="4.80257">
        <ele>172.60000610352</ele>
        <time>2024-05-20T11:01:30.000Z</time>
      </trkpt>
      <trkpt lat="46.22932" lon="4.80255">
        <ele>172.60000610352</ele>
        <time>2024-05-20T11:01:31.000Z</time>
      </trkpt>
      <trkpt lat="46.22929" lon="4.80252">
        <ele>172.39999389648</ele>
        <time>2024-05-20T11:01:32.000Z</time>
      </trkpt>
      <trkpt lat="46.22925" lon="4.80249">
        <ele>172.39999389648</ele>
        <time>2024-05-20T11:01:33.000Z</time>
      </trkpt>
      <trkpt lat="46.22921" lon="4.80247">
        <ele>172.39999389648</ele>
        <time>2024-05-20T11:01:34.000Z</time>
      </trkpt>
      <trkpt lat="46.22917" lon="4.80245">
        <ele>172.19999694824</ele>
        <time>2024-05-20T11:01:35.000Z</time>
      </trkpt>
      <trkpt lat="46.22913" lon="4.80242">
        <ele>172</ele>
        <time>2024-05-20T11:01:36.000Z</time>
      </trkpt>
      <trkpt lat="46.22908" lon="4.80239">
        <ele>171.80000305176</ele>
        <time>2024-05-20T11:01:37.000Z</time>
      </trkpt>
      <trkpt lat="46.22904" lon="4.80236">
        <ele>171.80000305176</ele>
        <time>2024-05-20T11:01:38.000Z</time>
      </trkpt>
      <trkpt lat="46.22899" lon="4.80232">
        <ele>171.80000305176</ele>
        <time>2024-05-20T11:01:39.000Z</time>
      </trkpt>
      <trkpt lat="46.22895" lon="4.80228">
        <ele>171.80000305176</ele>
        <time>2024-05-20T11:01:40.000Z</time>
      </trkpt>
      <trkpt lat="46.22891" lon="4.80224">
        <ele>171.80000305176</ele>
        <time>2024-05-20T11:01:41.000Z</time>
      </trkpt>
      <trkpt lat="46.22887" lon="4.8022">
        <ele>171.80000305176</ele>
        <time>2024-05-20T11:01:42.000Z</time>
      </trkpt>
      <trkpt lat="46.22883" lon="4.80216">
        <ele>171.80000305176</ele>
        <time>2024-05-20T11:01:43.000Z</time>
      </trkpt>
      <trkpt lat="46.22879" lon="4.80211">
        <ele>172</ele>
        <time>2024-05-20T11:01:44.000Z</time>
      </trkpt>
      <trkpt lat="46.22875" lon="4.80207">
        <ele>172</ele>
        <time>2024-05-20T11:01:45.000Z</time>
      </trkpt>
      <trkpt lat="46.22872" lon="4.80203">
        <ele>172</ele>
        <time>2024-05-20T11:01:46.000Z</time>
      </trkpt>
      <trkpt lat="46.22867" lon="4.80198">
        <ele>172</ele>
        <time>2024-05-20T11:01:47.000Z</time>
      </trkpt>
      <trkpt lat="46.22864" lon="4.80194">
        <ele>172</ele>
        <time>2024-05-20T11:01:48.000Z</time>
      </trkpt>
      <trkpt lat="46.2286" lon="4.8019">
        <ele>172</ele>
        <time>2024-05-20T11:01:49.000Z</time>
      </trkpt>
      <trkpt lat="46.22855" lon="4.80187">
        <ele>172.19999694824</ele>
        <time>2024-05-20T11:01:50.000Z</time>
      </trkpt>
      <trkpt lat="46.22851" lon="4.80183">
        <ele>172.19999694824</ele>
        <time>2024-05-20T11:01:51.000Z</time>
      </trkpt>
      <trkpt lat="46.22846" lon="4.80179">
        <ele>172.39999389648</ele>
        <time>2024-05-20T11:01:52.000Z</time>
      </trkpt>
      <trkpt lat="46.22842" lon="4.80176">
        <ele>172.39999389648</ele>
        <time>2024-05-20T11:01:53.000Z</time>
      </trkpt>
      <trkpt lat="46.22838" lon="4.80172">
        <ele>172.39999389648</ele>
        <time>2024-05-20T11:01:54.000Z</time>
      </trkpt>
      <trkpt lat="46.22833" lon="4.80169">
        <ele>172.60000610352</ele>
        <time>2024-05-20T11:01:55.000Z</time>
      </trkpt>
      <trkpt lat="46.22828" lon="4.80166">
        <ele>172.60000610352</ele>
        <time>2024-05-20T11:01:56.000Z</time>
      </trkpt>
      <trkpt lat="46.22823" lon="4.80162">
        <ele>172.60000610352</ele>
        <time>2024-05-20T11:01:57.000Z</time>
      </trkpt>
      <trkpt lat="46.22818" lon="4.80159">
        <ele>172.80000305176</ele>
        <time>2024-05-20T11:01:58.000Z</time>
      </trkpt>
      <trkpt lat="46.22813" lon="4.80156">
        <ele>172.80000305176</ele>
        <time>2024-05-20T11:01:59.000Z</time>
      </trkpt>
      <trkpt lat="46.22808" lon="4.80153">
        <ele>172.80000305176</ele>
        <time>2024-05-20T11:02:00.000Z</time>
      </trkpt>
      <trkpt lat="46.22803" lon="4.8015">
        <ele>172.80000305176</ele>
        <time>2024-05-20T11:02:01.000Z</time>
      </trkpt>
      <trkpt lat="46.22798" lon="4.80147">
        <ele>172.80000305176</ele>
        <time>2024-05-20T11:02:02.000Z</time>
      </trkpt>
      <trkpt lat="46.22792" lon="4.80144">
        <ele>172.80000305176</ele>
        <time>2024-05-20T11:02:03.000Z</time>
      </trkpt>
      <trkpt lat="46.22787" lon="4.80141">
        <ele>172.80000305176</ele>
        <time>2024-05-20T11:02:04.000Z</time>
      </trkpt>
      <trkpt lat="46.22782" lon="4.80138">
        <ele>172.80000305176</ele>
        <time>2024-05-20T11:02:05.000Z</time>
      </trkpt>
      <trkpt lat="46.22776" lon="4.80135">
        <ele>172.80000305176</ele>
        <time>2024-05-20T11:02:06.000Z</time>
      </trkpt>
      <trkpt lat="46.22771" lon="4.80132">
        <ele>172.80000305176</ele>
        <time>2024-05-20T11:02:07.000Z</time>
      </trkpt>
      <trkpt lat="46.22766" lon="4.80128">
        <ele>172.80000305176</ele>
        <time>2024-05-20T11:02:08.000Z</time>
      </trkpt>
      <trkpt lat="46.22761" lon="4.80125">
        <ele>172.80000305176</ele>
        <time>2024-05-20T11:02:09.000Z</time>
      </trkpt>
      <trkpt lat="46.22755" lon="4.80122">
        <ele>172.80000305176</ele>
        <time>2024-05-20T11:02:10.000Z</time>
      </trkpt>
      <trkpt lat="46.22751" lon="4.8012">
        <ele>172.80000305176</ele>
        <time>2024-05-20T11:02:11.000Z</time>
      </trkpt>
      <trkpt lat="46.22745" lon="4.80117">
        <ele>172.80000305176</ele>
        <time>2024-05-20T11:02:12.000Z</time>
      </trkpt>
      <trkpt lat="46.22739" lon="4.80114">
        <ele>173</ele>
        <time>2024-05-20T11:02:13.000Z</time>
      </trkpt>
      <trkpt lat="46.22734" lon="4.80111">
        <ele>173</ele>
        <time>2024-05-20T11:02:14.000Z</time>
      </trkpt>
      <trkpt lat="46.22729" lon="4.80107">
        <ele>173</ele>
        <time>2024-05-20T11:02:15.000Z</time>
      </trkpt>
      <trkpt lat="46.22724" lon="4.80104">
        <ele>173</ele>
        <time>2024-05-20T11:02:16.000Z</time>
      </trkpt>
      <trkpt lat="46.22719" lon="4.80101">
        <ele>173.19999694824</ele>
        <time>2024-05-20T11:02:17.000Z</time>
      </trkpt>
      <trkpt lat="46.22713" lon="4.80098">
        <ele>173.19999694824</ele>
        <time>2024-05-20T11:02:18.000Z</time>
      </trkpt>
      <trkpt lat="46.22708" lon="4.80096">
        <ele>173.19999694824</ele>
        <time>2024-05-20T11:02:19.000Z</time>
      </trkpt>
      <trkpt lat="46.22703" lon="4.80093">
        <ele>173.19999694824</ele>
        <time>2024-05-20T11:02:20.000Z</time>
      </trkpt>
      <trkpt lat="46.22698" lon="4.8009">
        <ele>173.39999389648</ele>
        <time>2024-05-20T11:02:21.000Z</time>
      </trkpt>
      <trkpt lat="46.22692" lon="4.80088">
        <ele>173.19999694824</ele>
        <time>2024-05-20T11:02:22.000Z</time>
      </trkpt>
      <trkpt lat="46.22687" lon="4.80085">
        <ele>173.19999694824</ele>
        <time>2024-05-20T11:02:23.000Z</time>
      </trkpt>
      <trkpt lat="46.22682" lon="4.80083">
        <ele>173.39999389648</ele>
        <time>2024-05-20T11:02:24.000Z</time>
      </trkpt>
      <trkpt lat="46.22676" lon="4.80081">
        <ele>173.19999694824</ele>
        <time>2024-05-20T11:02:25.000Z</time>
      </trkpt>
      <trkpt lat="46.22671" lon="4.80078">
        <ele>173.19999694824</ele>
        <time>2024-05-20T11:02:26.000Z</time>
      </trkpt>
      <trkpt lat="46.22666" lon="4.80076">
        <ele>173.39999389648</ele>
        <time>2024-05-20T11:02:27.000Z</time>
      </trkpt>
      <trkpt lat="46.22661" lon="4.80073">
        <ele>173.39999389648</ele>
        <time>2024-05-20T11:02:28.000Z</time>
      </trkpt>
      <trkpt lat="46.22655" lon="4.8007">
        <ele>173.39999389648</ele>
        <time>2024-05-20T11:02:29.000Z</time>
      </trkpt>
      <trkpt lat="46.2265" lon="4.80068">
        <ele>173.39999389648</ele>
        <time>2024-05-20T11:02:30.000Z</time>
      </trkpt>
      <trkpt lat="46.22644" lon="4.80066">
        <ele>173.39999389648</ele>
        <time>2024-05-20T11:02:31.000Z</time>
      </trkpt>
      <trkpt lat="46.22639" lon="4.80064">
        <ele>173.39999389648</ele>
        <time>2024-05-20T11:02:32.000Z</time>
      </trkpt>
      <trkpt lat="46.22634" lon="4.80061">
        <ele>173.39999389648</ele>
        <time>2024-05-20T11:02:33.000Z</time>
      </trkpt>
      <trkpt lat="46.22629" lon="4.80059">
        <ele>173.39999389648</ele>
        <time>2024-05-20T11:02:34.000Z</time>
      </trkpt>
      <trkpt lat="46.22623" lon="4.80056">
        <ele>173.39999389648</ele>
        <time>2024-05-20T11:02:35.000Z</time>
      </trkpt>
      <trkpt lat="46.22618" lon="4.80054">
        <ele>173.39999389648</ele>
        <time>2024-05-20T11:02:36.000Z</time>
      </trkpt>
      <trkpt lat="46.22612" lon="4.80052">
        <ele>173.60000610352</ele>
        <time>2024-05-20T11:02:37.000Z</time>
      </trkpt>
      <trkpt lat="46.22606" lon="4.8005">
        <ele>173.60000610352</ele>
        <time>2024-05-20T11:02:38.000Z</time>
      </trkpt>
      <trkpt lat="46.226" lon="4.80047">
        <ele>173.60000610352</ele>
        <time>2024-05-20T11:02:39.000Z</time>
      </trkpt>
      <trkpt lat="46.22595" lon="4.80045">
        <ele>173.60000610352</ele>
        <time>2024-05-20T11:02:40.000Z</time>
      </trkpt>
      <trkpt lat="46.22589" lon="4.80043">
        <ele>173.60000610352</ele>
        <time>2024-05-20T11:02:41.000Z</time>
      </trkpt>
      <trkpt lat="46.22583" lon="4.8004">
        <ele>173.60000610352</ele>
        <time>2024-05-20T11:02:42.000Z</time>
      </trkpt>
      <trkpt lat="46.22578" lon="4.80038">
        <ele>173.60000610352</ele>
        <time>2024-05-20T11:02:43.000Z</time>
      </trkpt>
      <trkpt lat="46.22572" lon="4.80036">
        <ele>173.39999389648</ele>
        <time>2024-05-20T11:02:44.000Z</time>
      </trkpt>
      <trkpt lat="46.22567" lon="4.80033">
        <ele>173.39999389648</ele>
        <time>2024-05-20T11:02:45.000Z</time>
      </trkpt>
      <trkpt lat="46.22561" lon="4.80031">
        <ele>173.39999389648</ele>
        <time>2024-05-20T11:02:46.000Z</time>
      </trkpt>
      <trkpt lat="46.22555" lon="4.80028">
        <ele>173.39999389648</ele>
        <time>2024-05-20T11:02:47.000Z</time>
      </trkpt>
      <trkpt lat="46.2255" lon="4.80026">
        <ele>173.39999389648</ele>
        <time>2024-05-20T11:02:48.000Z</time>
      </trkpt>
      <trkpt lat="46.22544" lon="4.80024">
        <ele>173.19999694824</ele>
        <time>2024-05-20T11:02:49.000Z</time>
      </trkpt>
      <trkpt lat="46.22539" lon="4.80022">
        <ele>173.19999694824</ele>
        <time>2024-05-20T11:02:50.000Z</time>
      </trkpt>
      <trkpt lat="46.22534" lon="4.8002">
        <ele>173.19999694824</ele>
        <time>2024-05-20T11:02:51.000Z</time>
      </trkpt>
      <trkpt lat="46.22528" lon="4.80018">
        <ele>173.39999389648</ele>
        <time>2024-05-20T11:02:52.000Z</time>
      </trkpt>
      <trkpt lat="46.22523" lon="4.80015">
        <ele>173.39999389648</ele>
        <time>2024-05-20T11:02:53.000Z</time>
      </trkpt>
      <trkpt lat="46.22517" lon="4.80014">
        <ele>173.60000610352</ele>
        <time>2024-05-20T11:02:54.000Z</time>
      </trkpt>
      <trkpt lat="46.22512" lon="4.80012">
        <ele>173.60000610352</ele>
        <time>2024-05-20T11:02:55.000Z</time>
      </trkpt>
      <trkpt lat="46.22507" lon="4.80009">
        <ele>173.60000610352</ele>
        <time>2024-05-20T11:02:56.000Z</time>
      </trkpt>
      <trkpt lat="46.22502" lon="4.80007">
        <ele>173.60000610352</ele>
        <time>2024-05-20T11:02:57.000Z</time>
      </trkpt>
      <trkpt lat="46.22497" lon="4.80005">
        <ele>173.60000610352</ele>
        <time>2024-05-20T11:02:58.000Z</time>
      </trkpt>
      <trkpt lat="46.22491" lon="4.80003">
        <ele>173.60000610352</ele>
        <time>2024-05-20T11:02:59.000Z</time>
      </trkpt>
      <trkpt lat="46.22486" lon="4.80001">
        <ele>173.60000610352</ele>
        <time>2024-05-20T11:03:00.000Z</time>
      </trkpt>
      <trkpt lat="46.22481" lon="4.79998">
        <ele>173.60000610352</ele>
        <time>2024-05-20T11:03:01.000Z</time>
      </trkpt>
      <trkpt lat="46.22476" lon="4.79995">
        <ele>173.60000610352</ele>
        <time>2024-05-20T11:03:02.000Z</time>
      </trkpt>
      <trkpt lat="46.2247" lon="4.79993">
        <ele>173.60000610352</ele>
        <time>2024-05-20T11:03:03.000Z</time>
      </trkpt>
      <trkpt lat="46.22465" lon="4.7999">
        <ele>173.60000610352</ele>
        <time>2024-05-20T11:03:04.000Z</time>
      </trkpt>
      <trkpt lat="46.2246" lon="4.79987">
        <ele>173.80000305176</ele>
        <time>2024-05-20T11:03:05.000Z</time>
      </trkpt>
      <trkpt lat="46.22455" lon="4.79985">
        <ele>173.80000305176</ele>
        <time>2024-05-20T11:03:06.000Z</time>
      </trkpt>
      <trkpt lat="46.22449" lon="4.79983">
        <ele>173.80000305176</ele>
        <time>2024-05-20T11:03:07.000Z</time>
      </trkpt>
      <trkpt lat="46.22444" lon="4.7998">
        <ele>173.80000305176</ele>
        <time>2024-05-20T11:03:08.000Z</time>
      </trkpt>
      <trkpt lat="46.22439" lon="4.79977">
        <ele>173.80000305176</ele>
        <time>2024-05-20T11:03:09.000Z</time>
      </trkpt>
      <trkpt lat="46.22433" lon="4.79974">
        <ele>173.80000305176</ele>
        <time>2024-05-20T11:03:10.000Z</time>
      </trkpt>
      <trkpt lat="46.22428" lon="4.79972">
        <ele>173.80000305176</ele>
        <time>2024-05-20T11:03:11.000Z</time>
      </trkpt>
      <trkpt lat="46.22422" lon="4.79969">
        <ele>173.60000610352</ele>
        <time>2024-05-20T11:03:12.000Z</time>
      </trkpt>
      <trkpt lat="46.22417" lon="4.79966">
        <ele>173.39999389648</ele>
        <time>2024-05-20T11:03:13.000Z</time>
      </trkpt>
      <trkpt lat="46.22411" lon="4.79964">
        <ele>173.19999694824</ele>
        <time>2024-05-20T11:03:14.000Z</time>
      </trkpt>
      <trkpt lat="46.22406" lon="4.79961">
        <ele>173.19999694824</ele>
        <time>2024-05-20T11:03:15.000Z</time>
      </trkpt>
      <trkpt lat="46.224" lon="4.79958">
        <ele>173.19999694824</ele>
        <time>2024-05-20T11:03:16.000Z</time>
      </trkpt>
      <trkpt lat="46.22394" lon="4.79956">
        <ele>173.19999694824</ele>
        <time>2024-05-20T11:03:17.000Z</time>
      </trkpt>
      <trkpt lat="46.22389" lon="4.79954">
        <ele>173.39999389648</ele>
        <time>2024-05-20T11:03:18.000Z</time>
      </trkpt>
      <trkpt lat="46.22383" lon="4.79951">
        <ele>173.39999389648</ele>
        <time>2024-05-20T11:03:19.000Z</time>
      </trkpt>
      <trkpt lat="46.22377" lon="4.79949">
        <ele>173.39999389648</ele>
        <time>2024-05-20T11:03:20.000Z</time>
      </trkpt>
      <trkpt lat="46.22372" lon="4.79947">
        <ele>173.39999389648</ele>
        <time>2024-05-20T11:03:21.000Z</time>
      </trkpt>
      <trkpt lat="46.22366" lon="4.79944">
        <ele>173.39999389648</ele>
        <time>2024-05-20T11:03:22.000Z</time>
      </trkpt>
      <trkpt lat="46.2236" lon="4.79941">
        <ele>173.19999694824</ele>
        <time>2024-05-20T11:03:23.000Z</time>
      </trkpt>
      <trkpt lat="46.22355" lon="4.79938">
        <ele>173.19999694824</ele>
        <time>2024-05-20T11:03:24.000Z</time>
      </trkpt>
      <trkpt lat="46.22349" lon="4.79935">
        <ele>173.19999694824</ele>
        <time>2024-05-20T11:03:25.000Z</time>
      </trkpt>
      <trkpt lat="46.22343" lon="4.79932">
        <ele>173.19999694824</ele>
        <time>2024-05-20T11:03:26.000Z</time>
      </trkpt>
      <trkpt lat="46.22338" lon="4.79928">
        <ele>173.19999694824</ele>
        <time>2024-05-20T11:03:27.000Z</time>
      </trkpt>
      <trkpt lat="46.22332" lon="4.79925">
        <ele>173</ele>
        <time>2024-05-20T11:03:28.000Z</time>
      </trkpt>
      <trkpt lat="46.22327" lon="4.79922">
        <ele>172.80000305176</ele>
        <time>2024-05-20T11:03:29.000Z</time>
      </trkpt>
      <trkpt lat="46.22321" lon="4.79919">
        <ele>172.80000305176</ele>
        <time>2024-05-20T11:03:30.000Z</time>
      </trkpt>
      <trkpt lat="46.22316" lon="4.79916">
        <ele>172.80000305176</ele>
        <time>2024-05-20T11:03:31.000Z</time>
      </trkpt>
      <trkpt lat="46.2231" lon="4.79914">
        <ele>172.80000305176</ele>
        <time>2024-05-20T11:03:32.000Z</time>
      </trkpt>
      <trkpt lat="46.22304" lon="4.79911">
        <ele>172.60000610352</ele>
        <time>2024-05-20T11:03:33.000Z</time>
      </trkpt>
      <trkpt lat="46.22299" lon="4.79908">
        <ele>172.60000610352</ele>
        <time>2024-05-20T11:03:34.000Z</time>
      </trkpt>
      <trkpt lat="46.22293" lon="4.79906">
        <ele>172.39999389648</ele>
        <time>2024-05-20T11:03:35.000Z</time>
      </trkpt>
      <trkpt lat="46.22287" lon="4.79903">
        <ele>172.39999389648</ele>
        <time>2024-05-20T11:03:36.000Z</time>
      </trkpt>
      <trkpt lat="46.22282" lon="4.79901">
        <ele>172.39999389648</ele>
        <time>2024-05-20T11:03:37.000Z</time>
      </trkpt>
      <trkpt lat="46.22276" lon="4.799">
        <ele>172.39999389648</ele>
        <time>2024-05-20T11:03:38.000Z</time>
      </trkpt>
      <trkpt lat="46.2227" lon="4.79898">
        <ele>172.39999389648</ele>
        <time>2024-05-20T11:03:39.000Z</time>
      </trkpt>
      <trkpt lat="46.22265" lon="4.79896">
        <ele>172.39999389648</ele>
        <time>2024-05-20T11:03:40.000Z</time>
      </trkpt>
      <trkpt lat="46.22259" lon="4.79895">
        <ele>172.39999389648</ele>
        <time>2024-05-20T11:03:41.000Z</time>
      </trkpt>
      <trkpt lat="46.22254" lon="4.79892">
        <ele>172.60000610352</ele>
        <time>2024-05-20T11:03:42.000Z</time>
      </trkpt>
      <trkpt lat="46.22248" lon="4.7989">
        <ele>172.60000610352</ele>
        <time>2024-05-20T11:03:43.000Z</time>
      </trkpt>
      <trkpt lat="46.22243" lon="4.79887">
        <ele>172.60000610352</ele>
        <time>2024-05-20T11:03:44.000Z</time>
      </trkpt>
      <trkpt lat="46.22237" lon="4.79884">
        <ele>172.60000610352</ele>
        <time>2024-05-20T11:03:45.000Z</time>
      </trkpt>
      <trkpt lat="46.22232" lon="4.79882">
        <ele>172.60000610352</ele>
        <time>2024-05-20T11:03:46.000Z</time>
      </trkpt>
      <trkpt lat="46.22226" lon="4.79879">
        <ele>172.39999389648</ele>
        <time>2024-05-20T11:03:47.000Z</time>
      </trkpt>
      <trkpt lat="46.22221" lon="4.79876">
        <ele>172.39999389648</ele>
        <time>2024-05-20T11:03:48.000Z</time>
      </trkpt>
      <trkpt lat="46.22215" lon="4.79874">
        <ele>172.39999389648</ele>
        <time>2024-05-20T11:03:49.000Z</time>
      </trkpt>
      <trkpt lat="46.2221" lon="4.7987">
        <ele>172.39999389648</ele>
        <time>2024-05-20T11:03:50.000Z</time>
      </trkpt>
      <trkpt lat="46.22205" lon="4.79867">
        <ele>172.39999389648</ele>
        <time>2024-05-20T11:03:51.000Z</time>
      </trkpt>
      <trkpt lat="46.222" lon="4.79864">
        <ele>172.39999389648</ele>
        <time>2024-05-20T11:03:52.000Z</time>
      </trkpt>
      <trkpt lat="46.22194" lon="4.79862">
        <ele>172.60000610352</ele>
        <time>2024-05-20T11:03:53.000Z</time>
      </trkpt>
      <trkpt lat="46.22189" lon="4.79859">
        <ele>172.60000610352</ele>
        <time>2024-05-20T11:03:54.000Z</time>
      </trkpt>
      <trkpt lat="46.22184" lon="4.79856">
        <ele>172.60000610352</ele>
        <time>2024-05-20T11:03:55.000Z</time>
      </trkpt>
      <trkpt lat="46.22179" lon="4.79853">
        <ele>172.60000610352</ele>
        <time>2024-05-20T11:03:56.000Z</time>
      </trkpt>
      <trkpt lat="46.22174" lon="4.7985">
        <ele>172.60000610352</ele>
        <time>2024-05-20T11:03:57.000Z</time>
      </trkpt>
      <trkpt lat="46.22168" lon="4.79846">
        <ele>172.60000610352</ele>
        <time>2024-05-20T11:03:58.000Z</time>
      </trkpt>
      <trkpt lat="46.22163" lon="4.79843">
        <ele>172.60000610352</ele>
        <time>2024-05-20T11:03:59.000Z</time>
      </trkpt>
      <trkpt lat="46.22158" lon="4.7984">
        <ele>172.60000610352</ele>
        <time>2024-05-20T11:04:00.000Z</time>
      </trkpt>
      <trkpt lat="46.22153" lon="4.79837">
        <ele>172.60000610352</ele>
        <time>2024-05-20T11:04:01.000Z</time>
      </trkpt>
      <trkpt lat="46.22148" lon="4.79834">
        <ele>172.60000610352</ele>
        <time>2024-05-20T11:04:02.000Z</time>
      </trkpt>
      <trkpt lat="46.22143" lon="4.79831">
        <ele>172.60000610352</ele>
        <time>2024-05-20T11:04:03.000Z</time>
      </trkpt>
      <trkpt lat="46.22138" lon="4.79828">
        <ele>172.60000610352</ele>
        <time>2024-05-20T11:04:04.000Z</time>
      </trkpt>
      <trkpt lat="46.22132" lon="4.79825">
        <ele>172.60000610352</ele>
        <time>2024-05-20T11:04:05.000Z</time>
      </trkpt>
      <trkpt lat="46.22127" lon="4.79821">
        <ele>172.60000610352</ele>
        <time>2024-05-20T11:04:06.000Z</time>
      </trkpt>
      <trkpt lat="46.22121" lon="4.79817">
        <ele>172.60000610352</ele>
        <time>2024-05-20T11:04:07.000Z</time>
      </trkpt>
      <trkpt lat="46.22116" lon="4.79814">
        <ele>172.60000610352</ele>
        <time>2024-05-20T11:04:08.000Z</time>
      </trkpt>
      <trkpt lat="46.22111" lon="4.7981">
        <ele>172.60000610352</ele>
        <time>2024-05-20T11:04:09.000Z</time>
      </trkpt>
      <trkpt lat="46.22105" lon="4.79807">
        <ele>172.60000610352</ele>
        <time>2024-05-20T11:04:10.000Z</time>
      </trkpt>
      <trkpt lat="46.22099" lon="4.79804">
        <ele>172.60000610352</ele>
        <time>2024-05-20T11:04:11.000Z</time>
      </trkpt>
      <trkpt lat="46.22094" lon="4.79801">
        <ele>172.60000610352</ele>
        <time>2024-05-20T11:04:12.000Z</time>
      </trkpt>
      <trkpt lat="46.22089" lon="4.79797">
        <ele>172.39999389648</ele>
        <time>2024-05-20T11:04:13.000Z</time>
      </trkpt>
      <trkpt lat="46.22083" lon="4.79794">
        <ele>172.39999389648</ele>
        <time>2024-05-20T11:04:14.000Z</time>
      </trkpt>
      <trkpt lat="46.22078" lon="4.7979">
        <ele>172.39999389648</ele>
        <time>2024-05-20T11:04:15.000Z</time>
      </trkpt>
      <trkpt lat="46.22073" lon="4.79786">
        <ele>172.39999389648</ele>
        <time>2024-05-20T11:04:16.000Z</time>
      </trkpt>
      <trkpt lat="46.22067" lon="4.79783">
        <ele>172.39999389648</ele>
        <time>2024-05-20T11:04:17.000Z</time>
      </trkpt>
      <trkpt lat="46.22063" lon="4.79779">
        <ele>172.39999389648</ele>
        <time>2024-05-20T11:04:18.000Z</time>
      </trkpt>
      <trkpt lat="46.22058" lon="4.79775">
        <ele>172.39999389648</ele>
        <time>2024-05-20T11:04:19.000Z</time>
      </trkpt>
      <trkpt lat="46.22053" lon="4.79772">
        <ele>172.60000610352</ele>
        <time>2024-05-20T11:04:20.000Z</time>
      </trkpt>
      <trkpt lat="46.22048" lon="4.79768">
        <ele>172.60000610352</ele>
        <time>2024-05-20T11:04:21.000Z</time>
      </trkpt>
      <trkpt lat="46.22043" lon="4.79765">
        <ele>172.60000610352</ele>
        <time>2024-05-20T11:04:22.000Z</time>
      </trkpt>
      <trkpt lat="46.22038" lon="4.79761">
        <ele>172.60000610352</ele>
        <time>2024-05-20T11:04:23.000Z</time>
      </trkpt>
      <trkpt lat="46.22033" lon="4.79758">
        <ele>172.60000610352</ele>
        <time>2024-05-20T11:04:24.000Z</time>
      </trkpt>
      <trkpt lat="46.22028" lon="4.79754">
        <ele>172.60000610352</ele>
        <time>2024-05-20T11:04:25.000Z</time>
      </trkpt>
      <trkpt lat="46.22023" lon="4.79751">
        <ele>172.60000610352</ele>
        <time>2024-05-20T11:04:26.000Z</time>
      </trkpt>
      <trkpt lat="46.22019" lon="4.79747">
        <ele>172.60000610352</ele>
        <time>2024-05-20T11:04:27.000Z</time>
      </trkpt>
      <trkpt lat="46.22013" lon="4.79744">
        <ele>172.60000610352</ele>
        <time>2024-05-20T11:04:28.000Z</time>
      </trkpt>
      <trkpt lat="46.22008" lon="4.79741">
        <ele>172.60000610352</ele>
        <time>2024-05-20T11:04:29.000Z</time>
      </trkpt>
      <trkpt lat="46.22003" lon="4.79737">
        <ele>172.60000610352</ele>
        <time>2024-05-20T11:04:30.000Z</time>
      </trkpt>
      <trkpt lat="46.21997" lon="4.79734">
        <ele>172.60000610352</ele>
        <time>2024-05-20T11:04:31.000Z</time>
      </trkpt>
      <trkpt lat="46.21992" lon="4.7973">
        <ele>172.60000610352</ele>
        <time>2024-05-20T11:04:32.000Z</time>
      </trkpt>
      <trkpt lat="46.21986" lon="4.79727">
        <ele>172.80000305176</ele>
        <time>2024-05-20T11:04:33.000Z</time>
      </trkpt>
      <trkpt lat="46.21981" lon="4.79722">
        <ele>172.60000610352</ele>
        <time>2024-05-20T11:04:34.000Z</time>
      </trkpt>
      <trkpt lat="46.21976" lon="4.79718">
        <ele>172.60000610352</ele>
        <time>2024-05-20T11:04:35.000Z</time>
      </trkpt>
      <trkpt lat="46.21971" lon="4.79714">
        <ele>172.60000610352</ele>
        <time>2024-05-20T11:04:36.000Z</time>
      </trkpt>
      <trkpt lat="46.21966" lon="4.79711">
        <ele>172.60000610352</ele>
        <time>2024-05-20T11:04:37.000Z</time>
      </trkpt>
      <trkpt lat="46.21961" lon="4.79708">
        <ele>172.60000610352</ele>
        <time>2024-05-20T11:04:38.000Z</time>
      </trkpt>
      <trkpt lat="46.21955" lon="4.79705">
        <ele>172.39999389648</ele>
        <time>2024-05-20T11:04:39.000Z</time>
      </trkpt>
      <trkpt lat="46.2195" lon="4.79702">
        <ele>172.39999389648</ele>
        <time>2024-05-20T11:04:40.000Z</time>
      </trkpt>
      <trkpt lat="46.21944" lon="4.79699">
        <ele>172.39999389648</ele>
        <time>2024-05-20T11:04:41.000Z</time>
      </trkpt>
      <trkpt lat="46.21938" lon="4.79696">
        <ele>172.39999389648</ele>
        <time>2024-05-20T11:04:42.000Z</time>
      </trkpt>
      <trkpt lat="46.21933" lon="4.79692">
        <ele>172.19999694824</ele>
        <time>2024-05-20T11:04:43.000Z</time>
      </trkpt>
      <trkpt lat="46.21927" lon="4.79688">
        <ele>172.39999389648</ele>
        <time>2024-05-20T11:04:44.000Z</time>
      </trkpt>
      <trkpt lat="46.21921" lon="4.79684">
        <ele>172.39999389648</ele>
        <time>2024-05-20T11:04:45.000Z</time>
      </trkpt>
      <trkpt lat="46.21916" lon="4.79681">
        <ele>172.39999389648</ele>
        <time>2024-05-20T11:04:46.000Z</time>
      </trkpt>
      <trkpt lat="46.2191" lon="4.79678">
        <ele>172.19999694824</ele>
        <time>2024-05-20T11:04:47.000Z</time>
      </trkpt>
      <trkpt lat="46.21905" lon="4.79675">
        <ele>172.19999694824</ele>
        <time>2024-05-20T11:04:48.000Z</time>
      </trkpt>
      <trkpt lat="46.21899" lon="4.79671">
        <ele>172.19999694824</ele>
        <time>2024-05-20T11:04:49.000Z</time>
      </trkpt>
      <trkpt lat="46.21894" lon="4.79668">
        <ele>172</ele>
        <time>2024-05-20T11:04:50.000Z</time>
      </trkpt>
      <trkpt lat="46.21888" lon="4.79665">
        <ele>172</ele>
        <time>2024-05-20T11:04:51.000Z</time>
      </trkpt>
      <trkpt lat="46.21882" lon="4.79662">
        <ele>172</ele>
        <time>2024-05-20T11:04:52.000Z</time>
      </trkpt>
      <trkpt lat="46.21876" lon="4.7966">
        <ele>172</ele>
        <time>2024-05-20T11:04:53.000Z</time>
      </trkpt>
      <trkpt lat="46.21871" lon="4.79658">
        <ele>172</ele>
        <time>2024-05-20T11:04:54.000Z</time>
      </trkpt>
      <trkpt lat="46.21865" lon="4.79655">
        <ele>172</ele>
        <time>2024-05-20T11:04:55.000Z</time>
      </trkpt>
      <trkpt lat="46.2186" lon="4.79652">
        <ele>172.19999694824</ele>
        <time>2024-05-20T11:04:56.000Z</time>
      </trkpt>
      <trkpt lat="46.21854" lon="4.79649">
        <ele>172.19999694824</ele>
        <time>2024-05-20T11:04:57.000Z</time>
      </trkpt>
      <trkpt lat="46.21848" lon="4.79646">
        <ele>172</ele>
        <time>2024-05-20T11:04:58.000Z</time>
      </trkpt>
      <trkpt lat="46.21843" lon="4.79643">
        <ele>172</ele>
        <time>2024-05-20T11:04:59.000Z</time>
      </trkpt>
      <trkpt lat="46.21837" lon="4.7964">
        <ele>172.19999694824</ele>
        <time>2024-05-20T11:05:00.000Z</time>
      </trkpt>
      <trkpt lat="46.21832" lon="4.79638">
        <ele>172.19999694824</ele>
        <time>2024-05-20T11:05:01.000Z</time>
      </trkpt>
      <trkpt lat="46.21826" lon="4.79635">
        <ele>172.19999694824</ele>
        <time>2024-05-20T11:05:02.000Z</time>
      </trkpt>
      <trkpt lat="46.21821" lon="4.79632">
        <ele>172.19999694824</ele>
        <time>2024-05-20T11:05:03.000Z</time>
      </trkpt>
      <trkpt lat="46.21815" lon="4.7963">
        <ele>172.19999694824</ele>
        <time>2024-05-20T11:05:04.000Z</time>
      </trkpt>
      <trkpt lat="46.2181" lon="4.79627">
        <ele>172.19999694824</ele>
        <time>2024-05-20T11:05:05.000Z</time>
      </trkpt>
      <trkpt lat="46.21805" lon="4.79623">
        <ele>172.19999694824</ele>
        <time>2024-05-20T11:05:06.000Z</time>
      </trkpt>
      <trkpt lat="46.21799" lon="4.7962">
        <ele>172.19999694824</ele>
        <time>2024-05-20T11:05:07.000Z</time>
      </trkpt>
      <trkpt lat="46.21794" lon="4.79617">
        <ele>172.19999694824</ele>
        <time>2024-05-20T11:05:08.000Z</time>
      </trkpt>
      <trkpt lat="46.21788" lon="4.79615">
        <ele>172.19999694824</ele>
        <time>2024-05-20T11:05:09.000Z</time>
      </trkpt>
      <trkpt lat="46.21782" lon="4.79613">
        <ele>172.19999694824</ele>
        <time>2024-05-20T11:05:10.000Z</time>
      </trkpt>
      <trkpt lat="46.21777" lon="4.7961">
        <ele>172</ele>
        <time>2024-05-20T11:05:11.000Z</time>
      </trkpt>
      <trkpt lat="46.21771" lon="4.79608">
        <ele>172</ele>
        <time>2024-05-20T11:05:12.000Z</time>
      </trkpt>
      <trkpt lat="46.21766" lon="4.79605">
        <ele>172</ele>
        <time>2024-05-20T11:05:13.000Z</time>
      </trkpt>
      <trkpt lat="46.21761" lon="4.79601">
        <ele>172</ele>
        <time>2024-05-20T11:05:14.000Z</time>
      </trkpt>
      <trkpt lat="46.21755" lon="4.79598">
        <ele>172</ele>
        <time>2024-05-20T11:05:15.000Z</time>
      </trkpt>
      <trkpt lat="46.2175" lon="4.79596">
        <ele>172</ele>
        <time>2024-05-20T11:05:16.000Z</time>
      </trkpt>
      <trkpt lat="46.21744" lon="4.79593">
        <ele>172</ele>
        <time>2024-05-20T11:05:17.000Z</time>
      </trkpt>
      <trkpt lat="46.21738" lon="4.79591">
        <ele>172</ele>
        <time>2024-05-20T11:05:18.000Z</time>
      </trkpt>
      <trkpt lat="46.21732" lon="4.79589">
        <ele>172</ele>
        <time>2024-05-20T11:05:19.000Z</time>
      </trkpt>
      <trkpt lat="46.21726" lon="4.79586">
        <ele>172</ele>
        <time>2024-05-20T11:05:20.000Z</time>
      </trkpt>
      <trkpt lat="46.2172" lon="4.79584">
        <ele>172</ele>
        <time>2024-05-20T11:05:21.000Z</time>
      </trkpt>
      <trkpt lat="46.21715" lon="4.79582">
        <ele>172</ele>
        <time>2024-05-20T11:05:22.000Z</time>
      </trkpt>
      <trkpt lat="46.2171" lon="4.79581">
        <ele>172</ele>
        <time>2024-05-20T11:05:23.000Z</time>
      </trkpt>
      <trkpt lat="46.21704" lon="4.7958">
        <ele>172</ele>
        <time>2024-05-20T11:05:24.000Z</time>
      </trkpt>
      <trkpt lat="46.21698" lon="4.79578">
        <ele>172</ele>
        <time>2024-05-20T11:05:25.000Z</time>
      </trkpt>
      <trkpt lat="46.21693" lon="4.79576">
        <ele>172</ele>
        <time>2024-05-20T11:05:26.000Z</time>
      </trkpt>
      <trkpt lat="46.21688" lon="4.79574">
        <ele>172</ele>
        <time>2024-05-20T11:05:27.000Z</time>
      </trkpt>
      <trkpt lat="46.21682" lon="4.79572">
        <ele>172.19999694824</ele>
        <time>2024-05-20T11:05:28.000Z</time>
      </trkpt>
      <trkpt lat="46.21676" lon="4.7957">
        <ele>172.19999694824</ele>
        <time>2024-05-20T11:05:29.000Z</time>
      </trkpt>
      <trkpt lat="46.21671" lon="4.79569">
        <ele>172.19999694824</ele>
        <time>2024-05-20T11:05:30.000Z</time>
      </trkpt>
      <trkpt lat="46.21665" lon="4.79566">
        <ele>172.19999694824</ele>
        <time>2024-05-20T11:05:31.000Z</time>
      </trkpt>
      <trkpt lat="46.2166" lon="4.79564">
        <ele>172.19999694824</ele>
        <time>2024-05-20T11:05:32.000Z</time>
      </trkpt>
      <trkpt lat="46.21655" lon="4.79561">
        <ele>172.19999694824</ele>
        <time>2024-05-20T11:05:33.000Z</time>
      </trkpt>
      <trkpt lat="46.21649" lon="4.79558">
        <ele>172.19999694824</ele>
        <time>2024-05-20T11:05:34.000Z</time>
      </trkpt>
      <trkpt lat="46.21644" lon="4.79556">
        <ele>172.19999694824</ele>
        <time>2024-05-20T11:05:35.000Z</time>
      </trkpt>
      <trkpt lat="46.21638" lon="4.79553">
        <ele>172.19999694824</ele>
        <time>2024-05-20T11:05:36.000Z</time>
      </trkpt>
      <trkpt lat="46.21632" lon="4.79552">
        <ele>172</ele>
        <time>2024-05-20T11:05:37.000Z</time>
      </trkpt>
      <trkpt lat="46.21625" lon="4.79551">
        <ele>172</ele>
        <time>2024-05-20T11:05:38.000Z</time>
      </trkpt>
      <trkpt lat="46.21619" lon="4.79549">
        <ele>172.19999694824</ele>
        <time>2024-05-20T11:05:39.000Z</time>
      </trkpt>
      <trkpt lat="46.21613" lon="4.79549">
        <ele>172.19999694824</ele>
        <time>2024-05-20T11:05:40.000Z</time>
      </trkpt>
      <trkpt lat="46.21607" lon="4.79547">
        <ele>172.19999694824</ele>
        <time>2024-05-20T11:05:41.000Z</time>
      </trkpt>
      <trkpt lat="46.21601" lon="4.79546">
        <ele>172.19999694824</ele>
        <time>2024-05-20T11:05:42.000Z</time>
      </trkpt>
      <trkpt lat="46.21595" lon="4.79545">
        <ele>172.19999694824</ele>
        <time>2024-05-20T11:05:43.000Z</time>
      </trkpt>
      <trkpt lat="46.21588" lon="4.79544">
        <ele>172.19999694824</ele>
        <time>2024-05-20T11:05:44.000Z</time>
      </trkpt>
      <trkpt lat="46.21582" lon="4.79542">
        <ele>172.19999694824</ele>
        <time>2024-05-20T11:05:45.000Z</time>
      </trkpt>
      <trkpt lat="46.21576" lon="4.79541">
        <ele>172.19999694824</ele>
        <time>2024-05-20T11:05:46.000Z</time>
      </trkpt>
      <trkpt lat="46.2157" lon="4.79539">
        <ele>172.19999694824</ele>
        <time>2024-05-20T11:05:47.000Z</time>
      </trkpt>
      <trkpt lat="46.21564" lon="4.79537">
        <ele>172</ele>
        <time>2024-05-20T11:05:48.000Z</time>
      </trkpt>
      <trkpt lat="46.21559" lon="4.79536">
        <ele>172</ele>
        <time>2024-05-20T11:05:49.000Z</time>
      </trkpt>
      <trkpt lat="46.21552" lon="4.79536">
        <ele>172</ele>
        <time>2024-05-20T11:05:50.000Z</time>
      </trkpt>
      <trkpt lat="46.21547" lon="4.79534">
        <ele>172</ele>
        <time>2024-05-20T11:05:51.000Z</time>
      </trkpt>
      <trkpt lat="46.21541" lon="4.79532">
        <ele>172</ele>
        <time>2024-05-20T11:05:52.000Z</time>
      </trkpt>
      <trkpt lat="46.21535" lon="4.7953">
        <ele>171.80000305176</ele>
        <time>2024-05-20T11:05:53.000Z</time>
      </trkpt>
      <trkpt lat="46.21529" lon="4.79528">
        <ele>172</ele>
        <time>2024-05-20T11:05:54.000Z</time>
      </trkpt>
      <trkpt lat="46.21523" lon="4.79526">
        <ele>172</ele>
        <time>2024-05-20T11:05:55.000Z</time>
      </trkpt>
      <trkpt lat="46.21518" lon="4.79525">
        <ele>172</ele>
        <time>2024-05-20T11:05:56.000Z</time>
      </trkpt>
      <trkpt lat="46.21512" lon="4.79523">
        <ele>172</ele>
        <time>2024-05-20T11:05:57.000Z</time>
      </trkpt>
      <trkpt lat="46.21506" lon="4.79521">
        <ele>171.80000305176</ele>
        <time>2024-05-20T11:05:58.000Z</time>
      </trkpt>
      <trkpt lat="46.215" lon="4.79519">
        <ele>171.80000305176</ele>
        <time>2024-05-20T11:05:59.000Z</time>
      </trkpt>
      <trkpt lat="46.21494" lon="4.79517">
        <ele>171.60000610352</ele>
        <time>2024-05-20T11:06:00.000Z</time>
      </trkpt>
      <trkpt lat="46.21488" lon="4.79515">
        <ele>171.60000610352</ele>
        <time>2024-05-20T11:06:01.000Z</time>
      </trkpt>
      <trkpt lat="46.21482" lon="4.79513">
        <ele>171.60000610352</ele>
        <time>2024-05-20T11:06:02.000Z</time>
      </trkpt>
      <trkpt lat="46.21476" lon="4.79512">
        <ele>171.60000610352</ele>
        <time>2024-05-20T11:06:03.000Z</time>
      </trkpt>
      <trkpt lat="46.2147" lon="4.7951">
        <ele>171.60000610352</ele>
        <time>2024-05-20T11:06:04.000Z</time>
      </trkpt>
      <trkpt lat="46.21464" lon="4.79509">
        <ele>171.60000610352</ele>
        <time>2024-05-20T11:06:05.000Z</time>
      </trkpt>
      <trkpt lat="46.21458" lon="4.79507">
        <ele>171.39999389648</ele>
        <time>2024-05-20T11:06:06.000Z</time>
      </trkpt>
      <trkpt lat="46.21452" lon="4.79506">
        <ele>171.39999389648</ele>
        <time>2024-05-20T11:06:07.000Z</time>
      </trkpt>
      <trkpt lat="46.21447" lon="4.79504">
        <ele>171.19999694824</ele>
        <time>2024-05-20T11:06:08.000Z</time>
      </trkpt>
      <trkpt lat="46.21441" lon="4.79503">
        <ele>171.19999694824</ele>
        <time>2024-05-20T11:06:09.000Z</time>
      </trkpt>
      <trkpt lat="46.21435" lon="4.79501">
        <ele>171.19999694824</ele>
        <time>2024-05-20T11:06:10.000Z</time>
      </trkpt>
      <trkpt lat="46.21429" lon="4.79499">
        <ele>171.19999694824</ele>
        <time>2024-05-20T11:06:11.000Z</time>
      </trkpt>
      <trkpt lat="46.21423" lon="4.79497">
        <ele>171.19999694824</ele>
        <time>2024-05-20T11:06:12.000Z</time>
      </trkpt>
      <trkpt lat="46.21418" lon="4.79495">
        <ele>171.19999694824</ele>
        <time>2024-05-20T11:06:13.000Z</time>
      </trkpt>
      <trkpt lat="46.21412" lon="4.79494">
        <ele>171.19999694824</ele>
        <time>2024-05-20T11:06:14.000Z</time>
      </trkpt>
      <trkpt lat="46.21406" lon="4.79492">
        <ele>171.19999694824</ele>
        <time>2024-05-20T11:06:15.000Z</time>
      </trkpt>
      <trkpt lat="46.214" lon="4.7949">
        <ele>171</ele>
        <time>2024-05-20T11:06:16.000Z</time>
      </trkpt>
      <trkpt lat="46.21394" lon="4.79489">
        <ele>171</ele>
        <time>2024-05-20T11:06:17.000Z</time>
      </trkpt>
      <trkpt lat="46.21389" lon="4.79488">
        <ele>171</ele>
        <time>2024-05-20T11:06:18.000Z</time>
      </trkpt>
      <trkpt lat="46.21383" lon="4.79486">
        <ele>171</ele>
        <time>2024-05-20T11:06:19.000Z</time>
      </trkpt>
      <trkpt lat="46.21377" lon="4.79485">
        <ele>171</ele>
        <time>2024-05-20T11:06:20.000Z</time>
      </trkpt>
      <trkpt lat="46.21371" lon="4.79484">
        <ele>171</ele>
        <time>2024-05-20T11:06:21.000Z</time>
      </trkpt>
      <trkpt lat="46.21365" lon="4.79484">
        <ele>170.80000305176</ele>
        <time>2024-05-20T11:06:22.000Z</time>
      </trkpt>
      <trkpt lat="46.21359" lon="4.79483">
        <ele>170.80000305176</ele>
        <time>2024-05-20T11:06:23.000Z</time>
      </trkpt>
      <trkpt lat="46.21353" lon="4.79482">
        <ele>170.80000305176</ele>
        <time>2024-05-20T11:06:24.000Z</time>
      </trkpt>
      <trkpt lat="46.21348" lon="4.79482">
        <ele>170.80000305176</ele>
        <time>2024-05-20T11:06:25.000Z</time>
      </trkpt>
      <trkpt lat="46.21342" lon="4.79481">
        <ele>170.80000305176</ele>
        <time>2024-05-20T11:06:26.000Z</time>
      </trkpt>
      <trkpt lat="46.21336" lon="4.7948">
        <ele>171</ele>
        <time>2024-05-20T11:06:27.000Z</time>
      </trkpt>
      <trkpt lat="46.2133" lon="4.79479">
        <ele>171</ele>
        <time>2024-05-20T11:06:28.000Z</time>
      </trkpt>
      <trkpt lat="46.21324" lon="4.79479">
        <ele>171</ele>
        <time>2024-05-20T11:06:29.000Z</time>
      </trkpt>
      <trkpt lat="46.21318" lon="4.79478">
        <ele>171</ele>
        <time>2024-05-20T11:06:30.000Z</time>
      </trkpt>
      <trkpt lat="46.21312" lon="4.79478">
        <ele>171</ele>
        <time>2024-05-20T11:06:31.000Z</time>
      </trkpt>
      <trkpt lat="46.21306" lon="4.79477">
        <ele>171</ele>
        <time>2024-05-20T11:06:32.000Z</time>
      </trkpt>
      <trkpt lat="46.213" lon="4.79476">
        <ele>171</ele>
        <time>2024-05-20T11:06:33.000Z</time>
      </trkpt>
      <trkpt lat="46.21294" lon="4.79476">
        <ele>171</ele>
        <time>2024-05-20T11:06:34.000Z</time>
      </trkpt>
      <trkpt lat="46.21289" lon="4.79475">
        <ele>171</ele>
        <time>2024-05-20T11:06:35.000Z</time>
      </trkpt>
      <trkpt lat="46.21283" lon="4.79474">
        <ele>171</ele>
        <time>2024-05-20T11:06:36.000Z</time>
      </trkpt>
      <trkpt lat="46.21277" lon="4.79474">
        <ele>171</ele>
        <time>2024-05-20T11:06:37.000Z</time>
      </trkpt>
      <trkpt lat="46.21271" lon="4.79473">
        <ele>171</ele>
        <time>2024-05-20T11:06:38.000Z</time>
      </trkpt>
      <trkpt lat="46.21266" lon="4.79472">
        <ele>171</ele>
        <time>2024-05-20T11:06:39.000Z</time>
      </trkpt>
      <trkpt lat="46.2126" lon="4.79472">
        <ele>171</ele>
        <time>2024-05-20T11:06:40.000Z</time>
      </trkpt>
      <trkpt lat="46.21255" lon="4.79472">
        <ele>171</ele>
        <time>2024-05-20T11:06:41.000Z</time>
      </trkpt>
      <trkpt lat="46.21249" lon="4.79472">
        <ele>171</ele>
        <time>2024-05-20T11:06:42.000Z</time>
      </trkpt>
      <trkpt lat="46.21244" lon="4.79471">
        <ele>171.19999694824</ele>
        <time>2024-05-20T11:06:43.000Z</time>
      </trkpt>
      <trkpt lat="46.21238" lon="4.7947">
        <ele>171.19999694824</ele>
        <time>2024-05-20T11:06:44.000Z</time>
      </trkpt>
      <trkpt lat="46.21232" lon="4.7947">
        <ele>171.19999694824</ele>
        <time>2024-05-20T11:06:45.000Z</time>
      </trkpt>
      <trkpt lat="46.21226" lon="4.79469">
        <ele>171.19999694824</ele>
        <time>2024-05-20T11:06:46.000Z</time>
      </trkpt>
      <trkpt lat="46.2122" lon="4.79469">
        <ele>171</ele>
        <time>2024-05-20T11:06:47.000Z</time>
      </trkpt>
      <trkpt lat="46.21215" lon="4.79469">
        <ele>171</ele>
        <time>2024-05-20T11:06:48.000Z</time>
      </trkpt>
      <trkpt lat="46.21209" lon="4.79468">
        <ele>171</ele>
        <time>2024-05-20T11:06:49.000Z</time>
      </trkpt>
      <trkpt lat="46.21204" lon="4.79467">
        <ele>171</ele>
        <time>2024-05-20T11:06:50.000Z</time>
      </trkpt>
      <trkpt lat="46.21199" lon="4.79466">
        <ele>171</ele>
        <time>2024-05-20T11:06:51.000Z</time>
      </trkpt>
      <trkpt lat="46.21194" lon="4.79466">
        <ele>171</ele>
        <time>2024-05-20T11:06:52.000Z</time>
      </trkpt>
      <trkpt lat="46.21189" lon="4.79465">
        <ele>171</ele>
        <time>2024-05-20T11:06:53.000Z</time>
      </trkpt>
      <trkpt lat="46.21183" lon="4.79465">
        <ele>171</ele>
        <time>2024-05-20T11:06:54.000Z</time>
      </trkpt>
      <trkpt lat="46.21178" lon="4.79464">
        <ele>171</ele>
        <time>2024-05-20T11:06:55.000Z</time>
      </trkpt>
      <trkpt lat="46.21172" lon="4.79464">
        <ele>171</ele>
        <time>2024-05-20T11:06:56.000Z</time>
      </trkpt>
      <trkpt lat="46.21167" lon="4.79464">
        <ele>171</ele>
        <time>2024-05-20T11:06:57.000Z</time>
      </trkpt>
      <trkpt lat="46.21162" lon="4.79463">
        <ele>171</ele>
        <time>2024-05-20T11:06:58.000Z</time>
      </trkpt>
      <trkpt lat="46.21156" lon="4.79463">
        <ele>171</ele>
        <time>2024-05-20T11:06:59.000Z</time>
      </trkpt>
      <trkpt lat="46.21151" lon="4.79462">
        <ele>171</ele>
        <time>2024-05-20T11:07:00.000Z</time>
      </trkpt>
      <trkpt lat="46.21145" lon="4.79461">
        <ele>171</ele>
        <time>2024-05-20T11:07:01.000Z</time>
      </trkpt>
      <trkpt lat="46.2114" lon="4.79461">
        <ele>171</ele>
        <time>2024-05-20T11:07:02.000Z</time>
      </trkpt>
      <trkpt lat="46.21134" lon="4.79461">
        <ele>171</ele>
        <time>2024-05-20T11:07:03.000Z</time>
      </trkpt>
      <trkpt lat="46.21128" lon="4.7946">
        <ele>171</ele>
        <time>2024-05-20T11:07:04.000Z</time>
      </trkpt>
      <trkpt lat="46.21123" lon="4.7946">
        <ele>171</ele>
        <time>2024-05-20T11:07:05.000Z</time>
      </trkpt>
      <trkpt lat="46.21117" lon="4.79459">
        <ele>171</ele>
        <time>2024-05-20T11:07:06.000Z</time>
      </trkpt>
      <trkpt lat="46.21111" lon="4.79458">
        <ele>171</ele>
        <time>2024-05-20T11:07:07.000Z</time>
      </trkpt>
      <trkpt lat="46.21106" lon="4.79458">
        <ele>171</ele>
        <time>2024-05-20T11:07:08.000Z</time>
      </trkpt>
      <trkpt lat="46.211" lon="4.79458">
        <ele>170.80000305176</ele>
        <time>2024-05-20T11:07:09.000Z</time>
      </trkpt>
      <trkpt lat="46.21094" lon="4.79458">
        <ele>170.80000305176</ele>
        <time>2024-05-20T11:07:10.000Z</time>
      </trkpt>
      <trkpt lat="46.21089" lon="4.79458">
        <ele>170.60000610352</ele>
        <time>2024-05-20T11:07:11.000Z</time>
      </trkpt>
      <trkpt lat="46.21083" lon="4.79458">
        <ele>170.60000610352</ele>
        <time>2024-05-20T11:07:12.000Z</time>
      </trkpt>
      <trkpt lat="46.21077" lon="4.79458">
        <ele>170.39999389648</ele>
        <time>2024-05-20T11:07:13.000Z</time>
      </trkpt>
      <trkpt lat="46.21071" lon="4.79458">
        <ele>170.19999694824</ele>
        <time>2024-05-20T11:07:14.000Z</time>
      </trkpt>
      <trkpt lat="46.21066" lon="4.79458">
        <ele>170.19999694824</ele>
        <time>2024-05-20T11:07:15.000Z</time>
      </trkpt>
      <trkpt lat="46.2106" lon="4.79457">
        <ele>170.19999694824</ele>
        <time>2024-05-20T11:07:16.000Z</time>
      </trkpt>
      <trkpt lat="46.21055" lon="4.79457">
        <ele>170.19999694824</ele>
        <time>2024-05-20T11:07:17.000Z</time>
      </trkpt>
      <trkpt lat="46.21049" lon="4.79457">
        <ele>170.19999694824</ele>
        <time>2024-05-20T11:07:18.000Z</time>
      </trkpt>
      <trkpt lat="46.21043" lon="4.79457">
        <ele>170.19999694824</ele>
        <time>2024-05-20T11:07:19.000Z</time>
      </trkpt>
      <trkpt lat="46.21038" lon="4.79457">
        <ele>170.19999694824</ele>
        <time>2024-05-20T11:07:20.000Z</time>
      </trkpt>
      <trkpt lat="46.21032" lon="4.79457">
        <ele>170.19999694824</ele>
        <time>2024-05-20T11:07:21.000Z</time>
      </trkpt>
      <trkpt lat="46.21027" lon="4.79457">
        <ele>170.19999694824</ele>
        <time>2024-05-20T11:07:22.000Z</time>
      </trkpt>
      <trkpt lat="46.21021" lon="4.79457">
        <ele>170.19999694824</ele>
        <time>2024-05-20T11:07:23.000Z</time>
      </trkpt>
      <trkpt lat="46.21016" lon="4.79457">
        <ele>170.19999694824</ele>
        <time>2024-05-20T11:07:24.000Z</time>
      </trkpt>
      <trkpt lat="46.2101" lon="4.79457">
        <ele>170.19999694824</ele>
        <time>2024-05-20T11:07:25.000Z</time>
      </trkpt>
      <trkpt lat="46.21004" lon="4.79457">
        <ele>170.39999389648</ele>
        <time>2024-05-20T11:07:26.000Z</time>
      </trkpt>
      <trkpt lat="46.20998" lon="4.79456">
        <ele>170.39999389648</ele>
        <time>2024-05-20T11:07:27.000Z</time>
      </trkpt>
      <trkpt lat="46.20993" lon="4.79456">
        <ele>170.39999389648</ele>
        <time>2024-05-20T11:07:28.000Z</time>
      </trkpt>
      <trkpt lat="46.20987" lon="4.79457">
        <ele>170.39999389648</ele>
        <time>2024-05-20T11:07:29.000Z</time>
      </trkpt>
      <trkpt lat="46.20982" lon="4.79457">
        <ele>170.60000610352</ele>
        <time>2024-05-20T11:07:30.000Z</time>
      </trkpt>
      <trkpt lat="46.20976" lon="4.79458">
        <ele>170.60000610352</ele>
        <time>2024-05-20T11:07:31.000Z</time>
      </trkpt>
      <trkpt lat="46.2097" lon="4.79458">
        <ele>170.60000610352</ele>
        <time>2024-05-20T11:07:32.000Z</time>
      </trkpt>
      <trkpt lat="46.20965" lon="4.79458">
        <ele>170.60000610352</ele>
        <time>2024-05-20T11:07:33.000Z</time>
      </trkpt>
      <trkpt lat="46.20959" lon="4.79459">
        <ele>170.60000610352</ele>
        <time>2024-05-20T11:07:34.000Z</time>
      </trkpt>
      <trkpt lat="46.20954" lon="4.79459">
        <ele>170.60000610352</ele>
        <time>2024-05-20T11:07:35.000Z</time>
      </trkpt>
      <trkpt lat="46.20948" lon="4.7946">
        <ele>170.60000610352</ele>
        <time>2024-05-20T11:07:36.000Z</time>
      </trkpt>
      <trkpt lat="46.20942" lon="4.7946">
        <ele>170.60000610352</ele>
        <time>2024-05-20T11:07:37.000Z</time>
      </trkpt>
      <trkpt lat="46.20937" lon="4.7946">
        <ele>170.60000610352</ele>
        <time>2024-05-20T11:07:38.000Z</time>
      </trkpt>
      <trkpt lat="46.20931" lon="4.79461">
        <ele>170.60000610352</ele>
        <time>2024-05-20T11:07:39.000Z</time>
      </trkpt>
      <trkpt lat="46.20926" lon="4.79462">
        <ele>170.80000305176</ele>
        <time>2024-05-20T11:07:40.000Z</time>
      </trkpt>
      <trkpt lat="46.2092" lon="4.79462">
        <ele>170.80000305176</ele>
        <time>2024-05-20T11:07:41.000Z</time>
      </trkpt>
      <trkpt lat="46.20914" lon="4.79463">
        <ele>170.80000305176</ele>
        <time>2024-05-20T11:07:42.000Z</time>
      </trkpt>
      <trkpt lat="46.20908" lon="4.79464">
        <ele>170.80000305176</ele>
        <time>2024-05-20T11:07:43.000Z</time>
      </trkpt>
      <trkpt lat="46.20903" lon="4.79464">
        <ele>170.80000305176</ele>
        <time>2024-05-20T11:07:44.000Z</time>
      </trkpt>
      <trkpt lat="46.20897" lon="4.79465">
        <ele>170.80000305176</ele>
        <time>2024-05-20T11:07:45.000Z</time>
      </trkpt>
      <trkpt lat="46.20891" lon="4.79466">
        <ele>170.80000305176</ele>
        <time>2024-05-20T11:07:46.000Z</time>
      </trkpt>
      <trkpt lat="46.20886" lon="4.79467">
        <ele>170.80000305176</ele>
        <time>2024-05-20T11:07:47.000Z</time>
      </trkpt>
      <trkpt lat="46.2088" lon="4.79468">
        <ele>170.80000305176</ele>
        <time>2024-05-20T11:07:48.000Z</time>
      </trkpt>
      <trkpt lat="46.20875" lon="4.79469">
        <ele>170.80000305176</ele>
        <time>2024-05-20T11:07:49.000Z</time>
      </trkpt>
      <trkpt lat="46.20869" lon="4.7947">
        <ele>170.80000305176</ele>
        <time>2024-05-20T11:07:50.000Z</time>
      </trkpt>
      <trkpt lat="46.20863" lon="4.79471">
        <ele>171</ele>
        <time>2024-05-20T11:07:51.000Z</time>
      </trkpt>
      <trkpt lat="46.20857" lon="4.79472">
        <ele>171</ele>
        <time>2024-05-20T11:07:52.000Z</time>
      </trkpt>
      <trkpt lat="46.20851" lon="4.79474">
        <ele>171</ele>
        <time>2024-05-20T11:07:53.000Z</time>
      </trkpt>
      <trkpt lat="46.20845" lon="4.79475">
        <ele>171</ele>
        <time>2024-05-20T11:07:54.000Z</time>
      </trkpt>
      <trkpt lat="46.20839" lon="4.79476">
        <ele>171</ele>
        <time>2024-05-20T11:07:55.000Z</time>
      </trkpt>
      <trkpt lat="46.20834" lon="4.79478">
        <ele>171</ele>
        <time>2024-05-20T11:07:56.000Z</time>
      </trkpt>
      <trkpt lat="46.20828" lon="4.79478">
        <ele>171</ele>
        <time>2024-05-20T11:07:57.000Z</time>
      </trkpt>
      <trkpt lat="46.20822" lon="4.7948">
        <ele>170.80000305176</ele>
        <time>2024-05-20T11:07:58.000Z</time>
      </trkpt>
      <trkpt lat="46.20817" lon="4.79481">
        <ele>170.80000305176</ele>
        <time>2024-05-20T11:07:59.000Z</time>
      </trkpt>
      <trkpt lat="46.20811" lon="4.79482">
        <ele>170.80000305176</ele>
        <time>2024-05-20T11:08:00.000Z</time>
      </trkpt>
      <trkpt lat="46.20805" lon="4.79483">
        <ele>170.80000305176</ele>
        <time>2024-05-20T11:08:01.000Z</time>
      </trkpt>
      <trkpt lat="46.20799" lon="4.79485">
        <ele>170.80000305176</ele>
        <time>2024-05-20T11:08:02.000Z</time>
      </trkpt>
      <trkpt lat="46.20793" lon="4.79486">
        <ele>170.80000305176</ele>
        <time>2024-05-20T11:08:03.000Z</time>
      </trkpt>
      <trkpt lat="46.20788" lon="4.79487">
        <ele>170.80000305176</ele>
        <time>2024-05-20T11:08:04.000Z</time>
      </trkpt>
      <trkpt lat="46.20782" lon="4.79488">
        <ele>170.80000305176</ele>
        <time>2024-05-20T11:08:05.000Z</time>
      </trkpt>
      <trkpt lat="46.20776" lon="4.79489">
        <ele>171</ele>
        <time>2024-05-20T11:08:06.000Z</time>
      </trkpt>
      <trkpt lat="46.2077" lon="4.79491">
        <ele>171</ele>
        <time>2024-05-20T11:08:07.000Z</time>
      </trkpt>
      <trkpt lat="46.20764" lon="4.79492">
        <ele>171</ele>
        <time>2024-05-20T11:08:08.000Z</time>
      </trkpt>
      <trkpt lat="46.20758" lon="4.79493">
        <ele>171</ele>
        <time>2024-05-20T11:08:09.000Z</time>
      </trkpt>
      <trkpt lat="46.20752" lon="4.79494">
        <ele>171</ele>
        <time>2024-05-20T11:08:10.000Z</time>
      </trkpt>
      <trkpt lat="46.20746" lon="4.79494">
        <ele>171</ele>
        <time>2024-05-20T11:08:11.000Z</time>
      </trkpt>
      <trkpt lat="46.2074" lon="4.79495">
        <ele>171</ele>
        <time>2024-05-20T11:08:12.000Z</time>
      </trkpt>
      <trkpt lat="46.20733" lon="4.79494">
        <ele>171</ele>
        <time>2024-05-20T11:08:13.000Z</time>
      </trkpt>
      <trkpt lat="46.20727" lon="4.79493">
        <ele>171</ele>
        <time>2024-05-20T11:08:14.000Z</time>
      </trkpt>
      <trkpt lat="46.20721" lon="4.79491">
        <ele>170.80000305176</ele>
        <time>2024-05-20T11:08:15.000Z</time>
      </trkpt>
      <trkpt lat="46.20715" lon="4.79488">
        <ele>170.80000305176</ele>
        <time>2024-05-20T11:08:16.000Z</time>
      </trkpt>
      <trkpt lat="46.20709" lon="4.79483">
        <ele>170.80000305176</ele>
        <time>2024-05-20T11:08:17.000Z</time>
      </trkpt>
      <trkpt lat="46.20705" lon="4.79478">
        <ele>170.39999389648</ele>
        <time>2024-05-20T11:08:18.000Z</time>
      </trkpt>
      <trkpt lat="46.207" lon="4.79474">
        <ele>170.39999389648</ele>
        <time>2024-05-20T11:08:19.000Z</time>
      </trkpt>
      <trkpt lat="46.20695" lon="4.7947">
        <ele>170.39999389648</ele>
        <time>2024-05-20T11:08:20.000Z</time>
      </trkpt>
      <trkpt lat="46.2069" lon="4.79469">
        <ele>170.39999389648</ele>
        <time>2024-05-20T11:08:21.000Z</time>
      </trkpt>
      <trkpt lat="46.20686" lon="4.79469">
        <ele>170.39999389648</ele>
        <time>2024-05-20T11:08:22.000Z</time>
      </trkpt>
      <trkpt lat="46.20681" lon="4.7947">
        <ele>170.60000610352</ele>
        <time>2024-05-20T11:08:23.000Z</time>
      </trkpt>
      <trkpt lat="46.20676" lon="4.79471">
        <ele>170.60000610352</ele>
        <time>2024-05-20T11:08:24.000Z</time>
      </trkpt>
      <trkpt lat="46.2067" lon="4.79472">
        <ele>170.60000610352</ele>
        <time>2024-05-20T11:08:25.000Z</time>
      </trkpt>
      <trkpt lat="46.20665" lon="4.79474">
        <ele>170.80000305176</ele>
        <time>2024-05-20T11:08:26.000Z</time>
      </trkpt>
      <trkpt lat="46.2066" lon="4.79476">
        <ele>170.80000305176</ele>
        <time>2024-05-20T11:08:27.000Z</time>
      </trkpt>
      <trkpt lat="46.20654" lon="4.79477">
        <ele>170.80000305176</ele>
        <time>2024-05-20T11:08:28.000Z</time>
      </trkpt>
      <trkpt lat="46.20649" lon="4.79479">
        <ele>170.80000305176</ele>
        <time>2024-05-20T11:08:29.000Z</time>
      </trkpt>
      <trkpt lat="46.20644" lon="4.79482">
        <ele>170.80000305176</ele>
        <time>2024-05-20T11:08:30.000Z</time>
      </trkpt>
      <trkpt lat="46.20639" lon="4.79485">
        <ele>170.80000305176</ele>
        <time>2024-05-20T11:08:31.000Z</time>
      </trkpt>
      <trkpt lat="46.20634" lon="4.7949">
        <ele>170.80000305176</ele>
        <time>2024-05-20T11:08:32.000Z</time>
      </trkpt>
      <trkpt lat="46.2063" lon="4.79495">
        <ele>170.80000305176</ele>
        <time>2024-05-20T11:08:33.000Z</time>
      </trkpt>
      <trkpt lat="46.20626" lon="4.79501">
        <ele>170.80000305176</ele>
        <time>2024-05-20T11:08:34.000Z</time>
      </trkpt>
      <trkpt lat="46.20622" lon="4.79507">
        <ele>170.60000610352</ele>
        <time>2024-05-20T11:08:35.000Z</time>
      </trkpt>
      <trkpt lat="46.20617" lon="4.79512">
        <ele>170.60000610352</ele>
        <time>2024-05-20T11:08:36.000Z</time>
      </trkpt>
      <trkpt lat="46.20613" lon="4.79517">
        <ele>170.60000610352</ele>
        <time>2024-05-20T11:08:37.000Z</time>
      </trkpt>
      <trkpt lat="46.20608" lon="4.79521">
        <ele>170.60000610352</ele>
        <time>2024-05-20T11:08:38.000Z</time>
      </trkpt>
      <trkpt lat="46.20603" lon="4.79524">
        <ele>170.60000610352</ele>
        <time>2024-05-20T11:08:39.000Z</time>
      </trkpt>
      <trkpt lat="46.20598" lon="4.79527">
        <ele>170.60000610352</ele>
        <time>2024-05-20T11:08:40.000Z</time>
      </trkpt>
      <trkpt lat="46.20592" lon="4.79531">
        <ele>170.80000305176</ele>
        <time>2024-05-20T11:08:41.000Z</time>
      </trkpt>
      <trkpt lat="46.20587" lon="4.79534">
        <ele>171</ele>
        <time>2024-05-20T11:08:42.000Z</time>
      </trkpt>
      <trkpt lat="46.20582" lon="4.79537">
        <ele>171</ele>
        <time>2024-05-20T11:08:43.000Z</time>
      </trkpt>
      <trkpt lat="46.20576" lon="4.79539">
        <ele>171</ele>
        <time>2024-05-20T11:08:44.000Z</time>
      </trkpt>
      <trkpt lat="46.20571" lon="4.79542">
        <ele>171</ele>
        <time>2024-05-20T11:08:45.000Z</time>
      </trkpt>
      <trkpt lat="46.20565" lon="4.79545">
        <ele>171</ele>
        <time>2024-05-20T11:08:46.000Z</time>
      </trkpt>
      <trkpt lat="46.20559" lon="4.79547">
        <ele>171</ele>
        <time>2024-05-20T11:08:47.000Z</time>
      </trkpt>
      <trkpt lat="46.20553" lon="4.7955">
        <ele>171</ele>
        <time>2024-05-20T11:08:48.000Z</time>
      </trkpt>
      <trkpt lat="46.20547" lon="4.79552">
        <ele>171</ele>
        <time>2024-05-20T11:08:49.000Z</time>
      </trkpt>
      <trkpt lat="46.20542" lon="4.79555">
        <ele>171</ele>
        <time>2024-05-20T11:08:50.000Z</time>
      </trkpt>
      <trkpt lat="46.20536" lon="4.79557">
        <ele>171</ele>
        <time>2024-05-20T11:08:51.000Z</time>
      </trkpt>
      <trkpt lat="46.2053" lon="4.79559">
        <ele>171</ele>
        <time>2024-05-20T11:08:52.000Z</time>
      </trkpt>
      <trkpt lat="46.20524" lon="4.79561">
        <ele>171</ele>
        <time>2024-05-20T11:08:53.000Z</time>
      </trkpt>
      <trkpt lat="46.20518" lon="4.79563">
        <ele>171</ele>
        <time>2024-05-20T11:08:54.000Z</time>
      </trkpt>
      <trkpt lat="46.20512" lon="4.79564">
        <ele>171</ele>
        <time>2024-05-20T11:08:55.000Z</time>
      </trkpt>
      <trkpt lat="46.20506" lon="4.79565">
        <ele>171</ele>
        <time>2024-05-20T11:08:56.000Z</time>
      </trkpt>
      <trkpt lat="46.205" lon="4.79566">
        <ele>171</ele>
        <time>2024-05-20T11:08:57.000Z</time>
      </trkpt>
      <trkpt lat="46.20494" lon="4.79568">
        <ele>171</ele>
        <time>2024-05-20T11:08:58.000Z</time>
      </trkpt>
      <trkpt lat="46.20488" lon="4.79569">
        <ele>171</ele>
        <time>2024-05-20T11:08:59.000Z</time>
      </trkpt>
      <trkpt lat="46.20482" lon="4.7957">
        <ele>171</ele>
        <time>2024-05-20T11:09:00.000Z</time>
      </trkpt>
      <trkpt lat="46.20476" lon="4.79571">
        <ele>171</ele>
        <time>2024-05-20T11:09:01.000Z</time>
      </trkpt>
      <trkpt lat="46.2047" lon="4.79572">
        <ele>171</ele>
        <time>2024-05-20T11:09:02.000Z</time>
      </trkpt>
      <trkpt lat="46.20464" lon="4.79573">
        <ele>171</ele>
        <time>2024-05-20T11:09:03.000Z</time>
      </trkpt>
      <trkpt lat="46.20457" lon="4.79575">
        <ele>170.80000305176</ele>
        <time>2024-05-20T11:09:04.000Z</time>
      </trkpt>
      <trkpt lat="46.20451" lon="4.79576">
        <ele>170.80000305176</ele>
        <time>2024-05-20T11:09:05.000Z</time>
      </trkpt>
      <trkpt lat="46.20446" lon="4.79578">
        <ele>170.80000305176</ele>
        <time>2024-05-20T11:09:06.000Z</time>
      </trkpt>
      <trkpt lat="46.2044" lon="4.79579">
        <ele>170.80000305176</ele>
        <time>2024-05-20T11:09:07.000Z</time>
      </trkpt>
      <trkpt lat="46.20434" lon="4.79581">
        <ele>170.80000305176</ele>
        <time>2024-05-20T11:09:08.000Z</time>
      </trkpt>
      <trkpt lat="46.20428" lon="4.79582">
        <ele>170.60000610352</ele>
        <time>2024-05-20T11:09:09.000Z</time>
      </trkpt>
      <trkpt lat="46.20422" lon="4.79584">
        <ele>170.80000305176</ele>
        <time>2024-05-20T11:09:10.000Z</time>
      </trkpt>
      <trkpt lat="46.20416" lon="4.79585">
        <ele>170.80000305176</ele>
        <time>2024-05-20T11:09:11.000Z</time>
      </trkpt>
      <trkpt lat="46.2041" lon="4.79587">
        <ele>170.80000305176</ele>
        <time>2024-05-20T11:09:12.000Z</time>
      </trkpt>
      <trkpt lat="46.20404" lon="4.79588">
        <ele>170.80000305176</ele>
        <time>2024-05-20T11:09:13.000Z</time>
      </trkpt>
      <trkpt lat="46.20399" lon="4.79589">
        <ele>170.80000305176</ele>
        <time>2024-05-20T11:09:14.000Z</time>
      </trkpt>
      <trkpt lat="46.20393" lon="4.7959">
        <ele>170.80000305176</ele>
        <time>2024-05-20T11:09:15.000Z</time>
      </trkpt>
      <trkpt lat="46.20387" lon="4.79591">
        <ele>170.80000305176</ele>
        <time>2024-05-20T11:09:16.000Z</time>
      </trkpt>
      <trkpt lat="46.20381" lon="4.79592">
        <ele>171</ele>
        <time>2024-05-20T11:09:17.000Z</time>
      </trkpt>
      <trkpt lat="46.20375" lon="4.79592">
        <ele>171</ele>
        <time>2024-05-20T11:09:18.000Z</time>
      </trkpt>
      <trkpt lat="46.20369" lon="4.79591">
        <ele>171</ele>
        <time>2024-05-20T11:09:19.000Z</time>
      </trkpt>
      <trkpt lat="46.20364" lon="4.79591">
        <ele>171</ele>
        <time>2024-05-20T11:09:20.000Z</time>
      </trkpt>
      <trkpt lat="46.20358" lon="4.7959">
        <ele>171</ele>
        <time>2024-05-20T11:09:21.000Z</time>
      </trkpt>
      <trkpt lat="46.20352" lon="4.79589">
        <ele>171</ele>
        <time>2024-05-20T11:09:22.000Z</time>
      </trkpt>
      <trkpt lat="46.20346" lon="4.79588">
        <ele>171</ele>
        <time>2024-05-20T11:09:23.000Z</time>
      </trkpt>
      <trkpt lat="46.2034" lon="4.79586">
        <ele>171</ele>
        <time>2024-05-20T11:09:24.000Z</time>
      </trkpt>
      <trkpt lat="46.20334" lon="4.79585">
        <ele>171</ele>
        <time>2024-05-20T11:09:25.000Z</time>
      </trkpt>
      <trkpt lat="46.20328" lon="4.79584">
        <ele>171</ele>
        <time>2024-05-20T11:09:26.000Z</time>
      </trkpt>
      <trkpt lat="46.20322" lon="4.79582">
        <ele>171</ele>
        <time>2024-05-20T11:09:27.000Z</time>
      </trkpt>
      <trkpt lat="46.20316" lon="4.79581">
        <ele>170.80000305176</ele>
        <time>2024-05-20T11:09:28.000Z</time>
      </trkpt>
      <trkpt lat="46.2031" lon="4.79581">
        <ele>170.80000305176</ele>
        <time>2024-05-20T11:09:29.000Z</time>
      </trkpt>
      <trkpt lat="46.20304" lon="4.7958">
        <ele>170.80000305176</ele>
        <time>2024-05-20T11:09:30.000Z</time>
      </trkpt>
      <trkpt lat="46.20298" lon="4.79579">
        <ele>170.80000305176</ele>
        <time>2024-05-20T11:09:31.000Z</time>
      </trkpt>
      <trkpt lat="46.20292" lon="4.79578">
        <ele>170.80000305176</ele>
        <time>2024-05-20T11:09:32.000Z</time>
      </trkpt>
      <trkpt lat="46.20286" lon="4.79577">
        <ele>170.80000305176</ele>
        <time>2024-05-20T11:09:33.000Z</time>
      </trkpt>
      <trkpt lat="46.2028" lon="4.79576">
        <ele>171</ele>
        <time>2024-05-20T11:09:34.000Z</time>
      </trkpt>
      <trkpt lat="46.20275" lon="4.79575">
        <ele>171.19999694824</ele>
        <time>2024-05-20T11:09:35.000Z</time>
      </trkpt>
      <trkpt lat="46.20269" lon="4.79574">
        <ele>171.19999694824</ele>
        <time>2024-05-20T11:09:36.000Z</time>
      </trkpt>
      <trkpt lat="46.20263" lon="4.79572">
        <ele>171.19999694824</ele>
        <time>2024-05-20T11:09:37.000Z</time>
      </trkpt>
      <trkpt lat="46.20257" lon="4.7957">
        <ele>171.19999694824</ele>
        <time>2024-05-20T11:09:38.000Z</time>
      </trkpt>
      <trkpt lat="46.20252" lon="4.79568">
        <ele>171.19999694824</ele>
        <time>2024-05-20T11:09:39.000Z</time>
      </trkpt>
      <trkpt lat="46.20246" lon="4.79566">
        <ele>171.19999694824</ele>
        <time>2024-05-20T11:09:40.000Z</time>
      </trkpt>
      <trkpt lat="46.2024" lon="4.79564">
        <ele>171.19999694824</ele>
        <time>2024-05-20T11:09:41.000Z</time>
      </trkpt>
      <trkpt lat="46.20235" lon="4.79561">
        <ele>171.39999389648</ele>
        <time>2024-05-20T11:09:42.000Z</time>
      </trkpt>
      <trkpt lat="46.2023" lon="4.79557">
        <ele>171.39999389648</ele>
        <time>2024-05-20T11:09:43.000Z</time>
      </trkpt>
      <trkpt lat="46.20225" lon="4.79552">
        <ele>171.39999389648</ele>
        <time>2024-05-20T11:09:44.000Z</time>
      </trkpt>
      <trkpt lat="46.2022" lon="4.79546">
        <ele>171.39999389648</ele>
        <time>2024-05-20T11:09:45.000Z</time>
      </trkpt>
      <trkpt lat="46.20216" lon="4.7954">
        <ele>171.39999389648</ele>
        <time>2024-05-20T11:09:46.000Z</time>
      </trkpt>
      <trkpt lat="46.20211" lon="4.79535">
        <ele>171.39999389648</ele>
        <time>2024-05-20T11:09:47.000Z</time>
      </trkpt>
      <trkpt lat="46.20206" lon="4.79529">
        <ele>171.39999389648</ele>
        <time>2024-05-20T11:09:48.000Z</time>
      </trkpt>
      <trkpt lat="46.20201" lon="4.79525">
        <ele>171.39999389648</ele>
        <time>2024-05-20T11:09:49.000Z</time>
      </trkpt>
      <trkpt lat="46.20196" lon="4.7952">
        <ele>171.39999389648</ele>
        <time>2024-05-20T11:09:50.000Z</time>
      </trkpt>
      <trkpt lat="46.20191" lon="4.79515">
        <ele>171.39999389648</ele>
        <time>2024-05-20T11:09:51.000Z</time>
      </trkpt>
      <trkpt lat="46.20186" lon="4.79511">
        <ele>171.39999389648</ele>
        <time>2024-05-20T11:09:52.000Z</time>
      </trkpt>
      <trkpt lat="46.20182" lon="4.79507">
        <ele>171.39999389648</ele>
        <time>2024-05-20T11:09:53.000Z</time>
      </trkpt>
      <trkpt lat="46.20177" lon="4.79503">
        <ele>171.39999389648</ele>
        <time>2024-05-20T11:09:54.000Z</time>
      </trkpt>
      <trkpt lat="46.20174" lon="4.79501">
        <ele>171.39999389648</ele>
        <time>2024-05-20T11:09:55.000Z</time>
      </trkpt>
      <trkpt lat="46.2017" lon="4.79498">
        <ele>171.80000305176</ele>
        <time>2024-05-20T11:09:56.000Z</time>
      </trkpt>
      <trkpt lat="46.20167" lon="4.79495">
        <ele>171.80000305176</ele>
        <time>2024-05-20T11:09:57.000Z</time>
      </trkpt>
      <trkpt lat="46.20163" lon="4.79492">
        <ele>171.80000305176</ele>
        <time>2024-05-20T11:09:58.000Z</time>
      </trkpt>
      <trkpt lat="46.20158" lon="4.79488">
        <ele>171.80000305176</ele>
        <time>2024-05-20T11:09:59.000Z</time>
      </trkpt>
      <trkpt lat="46.20154" lon="4.79484">
        <ele>171.80000305176</ele>
        <time>2024-05-20T11:10:00.000Z</time>
      </trkpt>
      <trkpt lat="46.2015" lon="4.79481">
        <ele>171.60000610352</ele>
        <time>2024-05-20T11:10:01.000Z</time>
      </trkpt>
      <trkpt lat="46.20145" lon="4.79477">
        <ele>171.19999694824</ele>
        <time>2024-05-20T11:10:02.000Z</time>
      </trkpt>
      <trkpt lat="46.20141" lon="4.79473">
        <ele>171.19999694824</ele>
        <time>2024-05-20T11:10:03.000Z</time>
      </trkpt>
      <trkpt lat="46.20137" lon="4.79468">
        <ele>171.19999694824</ele>
        <time>2024-05-20T11:10:04.000Z</time>
      </trkpt>
      <trkpt lat="46.20132" lon="4.79464">
        <ele>171.19999694824</ele>
        <time>2024-05-20T11:10:05.000Z</time>
      </trkpt>
      <trkpt lat="46.20127" lon="4.79459">
        <ele>171.19999694824</ele>
        <time>2024-05-20T11:10:06.000Z</time>
      </trkpt>
      <trkpt lat="46.20123" lon="4.79455">
        <ele>171.19999694824</ele>
        <time>2024-05-20T11:10:07.000Z</time>
      </trkpt>
      <trkpt lat="46.20118" lon="4.7945">
        <ele>171.19999694824</ele>
        <time>2024-05-20T11:10:08.000Z</time>
      </trkpt>
      <trkpt lat="46.20114" lon="4.79445">
        <ele>171.19999694824</ele>
        <time>2024-05-20T11:10:09.000Z</time>
      </trkpt>
      <trkpt lat="46.20109" lon="4.7944">
        <ele>171.19999694824</ele>
        <time>2024-05-20T11:10:10.000Z</time>
      </trkpt>
      <trkpt lat="46.20104" lon="4.79435">
        <ele>171.19999694824</ele>
        <time>2024-05-20T11:10:11.000Z</time>
      </trkpt>
      <trkpt lat="46.201" lon="4.7943">
        <ele>171.19999694824</ele>
        <time>2024-05-20T11:10:12.000Z</time>
      </trkpt>
      <trkpt lat="46.20095" lon="4.79425">
        <ele>171.19999694824</ele>
        <time>2024-05-20T11:10:13.000Z</time>
      </trkpt>
      <trkpt lat="46.2009" lon="4.79419">
        <ele>171.19999694824</ele>
        <time>2024-05-20T11:10:14.000Z</time>
      </trkpt>
      <trkpt lat="46.20086" lon="4.79414">
        <ele>171.19999694824</ele>
        <time>2024-05-20T11:10:15.000Z</time>
      </trkpt>
      <trkpt lat="46.20081" lon="4.79408">
        <ele>171.19999694824</ele>
        <time>2024-05-20T11:10:16.000Z</time>
      </trkpt>
      <trkpt lat="46.20077" lon="4.79403">
        <ele>171.19999694824</ele>
        <time>2024-05-20T11:10:17.000Z</time>
      </trkpt>
      <trkpt lat="46.20072" lon="4.79397">
        <ele>171.19999694824</ele>
        <time>2024-05-20T11:10:18.000Z</time>
      </trkpt>
      <trkpt lat="46.20068" lon="4.7939">
        <ele>171.19999694824</ele>
        <time>2024-05-20T11:10:19.000Z</time>
      </trkpt>
      <trkpt lat="46.20063" lon="4.79385">
        <ele>171.39999389648</ele>
        <time>2024-05-20T11:10:20.000Z</time>
      </trkpt>
      <trkpt lat="46.20059" lon="4.79379">
        <ele>171.39999389648</ele>
        <time>2024-05-20T11:10:21.000Z</time>
      </trkpt>
      <trkpt lat="46.20054" lon="4.79374">
        <ele>171.39999389648</ele>
        <time>2024-05-20T11:10:22.000Z</time>
      </trkpt>
      <trkpt lat="46.20049" lon="4.79369">
        <ele>171.39999389648</ele>
        <time>2024-05-20T11:10:23.000Z</time>
      </trkpt>
      <trkpt lat="46.20045" lon="4.79364">
        <ele>171.39999389648</ele>
        <time>2024-05-20T11:10:24.000Z</time>
      </trkpt>
      <trkpt lat="46.2004" lon="4.79358">
        <ele>171.39999389648</ele>
        <time>2024-05-20T11:10:25.000Z</time>
      </trkpt>
      <trkpt lat="46.20035" lon="4.79353">
        <ele>171.39999389648</ele>
        <time>2024-05-20T11:10:26.000Z</time>
      </trkpt>
      <trkpt lat="46.2003" lon="4.79347">
        <ele>171.39999389648</ele>
        <time>2024-05-20T11:10:27.000Z</time>
      </trkpt>
      <trkpt lat="46.20026" lon="4.79342">
        <ele>171.39999389648</ele>
        <time>2024-05-20T11:10:28.000Z</time>
      </trkpt>
      <trkpt lat="46.20021" lon="4.79336">
        <ele>171.39999389648</ele>
        <time>2024-05-20T11:10:29.000Z</time>
      </trkpt>
      <trkpt lat="46.20017" lon="4.79331">
        <ele>171.39999389648</ele>
        <time>2024-05-20T11:10:30.000Z</time>
      </trkpt>
      <trkpt lat="46.20012" lon="4.79326">
        <ele>171.39999389648</ele>
        <time>2024-05-20T11:10:31.000Z</time>
      </trkpt>
      <trkpt lat="46.20007" lon="4.7932">
        <ele>171.39999389648</ele>
        <time>2024-05-20T11:10:32.000Z</time>
      </trkpt>
      <trkpt lat="46.20003" lon="4.79314">
        <ele>171.39999389648</ele>
        <time>2024-05-20T11:10:33.000Z</time>
      </trkpt>
      <trkpt lat="46.19998" lon="4.79308">
        <ele>171.39999389648</ele>
        <time>2024-05-20T11:10:34.000Z</time>
      </trkpt>
      <trkpt lat="46.19993" lon="4.79303">
        <ele>171.39999389648</ele>
        <time>2024-05-20T11:10:35.000Z</time>
      </trkpt>
      <trkpt lat="46.19988" lon="4.79297">
        <ele>171.60000610352</ele>
        <time>2024-05-20T11:10:36.000Z</time>
      </trkpt>
      <trkpt lat="46.19983" lon="4.79291">
        <ele>171.60000610352</ele>
        <time>2024-05-20T11:10:37.000Z</time>
      </trkpt>
      <trkpt lat="46.19979" lon="4.79285">
        <ele>171.60000610352</ele>
        <time>2024-05-20T11:10:38.000Z</time>
      </trkpt>
      <trkpt lat="46.19974" lon="4.79279">
        <ele>171.60000610352</ele>
        <time>2024-05-20T11:10:39.000Z</time>
      </trkpt>
      <trkpt lat="46.19969" lon="4.79274">
        <ele>171.60000610352</ele>
        <time>2024-05-20T11:10:40.000Z</time>
      </trkpt>
      <trkpt lat="46.19965" lon="4.79268">
        <ele>171.60000610352</ele>
        <time>2024-05-20T11:10:41.000Z</time>
      </trkpt>
      <trkpt lat="46.1996" lon="4.79262">
        <ele>171.60000610352</ele>
        <time>2024-05-20T11:10:42.000Z</time>
      </trkpt>
      <trkpt lat="46.19955" lon="4.79256">
        <ele>171.60000610352</ele>
        <time>2024-05-20T11:10:43.000Z</time>
      </trkpt>
      <trkpt lat="46.19951" lon="4.7925">
        <ele>171.60000610352</ele>
        <time>2024-05-20T11:10:44.000Z</time>
      </trkpt>
      <trkpt lat="46.19946" lon="4.79244">
        <ele>171.60000610352</ele>
        <time>2024-05-20T11:10:45.000Z</time>
      </trkpt>
      <trkpt lat="46.19941" lon="4.79239">
        <ele>171.60000610352</ele>
        <time>2024-05-20T11:10:46.000Z</time>
      </trkpt>
      <trkpt lat="46.19937" lon="4.79233">
        <ele>171.60000610352</ele>
        <time>2024-05-20T11:10:47.000Z</time>
      </trkpt>
      <trkpt lat="46.19932" lon="4.79227">
        <ele>171.60000610352</ele>
        <time>2024-05-20T11:10:48.000Z</time>
      </trkpt>
      <trkpt lat="46.19927" lon="4.79222">
        <ele>171.60000610352</ele>
        <time>2024-05-20T11:10:49.000Z</time>
      </trkpt>
      <trkpt lat="46.19922" lon="4.79216">
        <ele>171.60000610352</ele>
        <time>2024-05-20T11:10:50.000Z</time>
      </trkpt>
      <trkpt lat="46.19918" lon="4.7921">
        <ele>171.60000610352</ele>
        <time>2024-05-20T11:10:51.000Z</time>
      </trkpt>
      <trkpt lat="46.19913" lon="4.79205">
        <ele>171.60000610352</ele>
        <time>2024-05-20T11:10:52.000Z</time>
      </trkpt>
      <trkpt lat="46.19908" lon="4.79199">
        <ele>171.39999389648</ele>
        <time>2024-05-20T11:10:53.000Z</time>
      </trkpt>
      <trkpt lat="46.19903" lon="4.79193">
        <ele>171.39999389648</ele>
        <time>2024-05-20T11:10:54.000Z</time>
      </trkpt>
      <trkpt lat="46.19899" lon="4.79188">
        <ele>171.39999389648</ele>
        <time>2024-05-20T11:10:55.000Z</time>
      </trkpt>
      <trkpt lat="46.19894" lon="4.79182">
        <ele>171.39999389648</ele>
        <time>2024-05-20T11:10:56.000Z</time>
      </trkpt>
      <trkpt lat="46.19889" lon="4.79177">
        <ele>171.39999389648</ele>
        <time>2024-05-20T11:10:57.000Z</time>
      </trkpt>
      <trkpt lat="46.19885" lon="4.79171">
        <ele>171.39999389648</ele>
        <time>2024-05-20T11:10:58.000Z</time>
      </trkpt>
      <trkpt lat="46.1988" lon="4.79165">
        <ele>171.39999389648</ele>
        <time>2024-05-20T11:10:59.000Z</time>
      </trkpt>
      <trkpt lat="46.19875" lon="4.7916">
        <ele>171.39999389648</ele>
        <time>2024-05-20T11:11:00.000Z</time>
      </trkpt>
      <trkpt lat="46.19871" lon="4.79154">
        <ele>171.39999389648</ele>
        <time>2024-05-20T11:11:01.000Z</time>
      </trkpt>
      <trkpt lat="46.19866" lon="4.79148">
        <ele>171.39999389648</ele>
        <time>2024-05-20T11:11:02.000Z</time>
      </trkpt>
      <trkpt lat="46.19862" lon="4.79143">
        <ele>171.39999389648</ele>
        <time>2024-05-20T11:11:03.000Z</time>
      </trkpt>
      <trkpt lat="46.19857" lon="4.79137">
        <ele>171.39999389648</ele>
        <time>2024-05-20T11:11:04.000Z</time>
      </trkpt>
      <trkpt lat="46.19852" lon="4.79131">
        <ele>171.39999389648</ele>
        <time>2024-05-20T11:11:05.000Z</time>
      </trkpt>
      <trkpt lat="46.19848" lon="4.79126">
        <ele>171.39999389648</ele>
        <time>2024-05-20T11:11:06.000Z</time>
      </trkpt>
      <trkpt lat="46.19843" lon="4.79121">
        <ele>171.39999389648</ele>
        <time>2024-05-20T11:11:07.000Z</time>
      </trkpt>
      <trkpt lat="46.19838" lon="4.79115">
        <ele>171.39999389648</ele>
        <time>2024-05-20T11:11:08.000Z</time>
      </trkpt>
      <trkpt lat="46.19834" lon="4.7911">
        <ele>171.39999389648</ele>
        <time>2024-05-20T11:11:09.000Z</time>
      </trkpt>
      <trkpt lat="46.19829" lon="4.79104">
        <ele>171.39999389648</ele>
        <time>2024-05-20T11:11:10.000Z</time>
      </trkpt>
      <trkpt lat="46.19825" lon="4.79099">
        <ele>171.60000610352</ele>
        <time>2024-05-20T11:11:11.000Z</time>
      </trkpt>
      <trkpt lat="46.1982" lon="4.79093">
        <ele>171.60000610352</ele>
        <time>2024-05-20T11:11:12.000Z</time>
      </trkpt>
      <trkpt lat="46.19815" lon="4.79088">
        <ele>171.60000610352</ele>
        <time>2024-05-20T11:11:13.000Z</time>
      </trkpt>
      <trkpt lat="46.19811" lon="4.79082">
        <ele>171.60000610352</ele>
        <time>2024-05-20T11:11:14.000Z</time>
      </trkpt>
      <trkpt lat="46.19806" lon="4.79076">
        <ele>171.60000610352</ele>
        <time>2024-05-20T11:11:15.000Z</time>
      </trkpt>
      <trkpt lat="46.19801" lon="4.79071">
        <ele>171.60000610352</ele>
        <time>2024-05-20T11:11:16.000Z</time>
      </trkpt>
      <trkpt lat="46.19797" lon="4.79065">
        <ele>171.39999389648</ele>
        <time>2024-05-20T11:11:17.000Z</time>
      </trkpt>
      <trkpt lat="46.19792" lon="4.79059">
        <ele>171.39999389648</ele>
        <time>2024-05-20T11:11:18.000Z</time>
      </trkpt>
      <trkpt lat="46.19787" lon="4.79054">
        <ele>171.39999389648</ele>
        <time>2024-05-20T11:11:19.000Z</time>
      </trkpt>
      <trkpt lat="46.19783" lon="4.79048">
        <ele>171.39999389648</ele>
        <time>2024-05-20T11:11:20.000Z</time>
      </trkpt>
      <trkpt lat="46.19778" lon="4.79043">
        <ele>171.39999389648</ele>
        <time>2024-05-20T11:11:21.000Z</time>
      </trkpt>
      <trkpt lat="46.19774" lon="4.79037">
        <ele>171.39999389648</ele>
        <time>2024-05-20T11:11:22.000Z</time>
      </trkpt>
      <trkpt lat="46.19769" lon="4.79032">
        <ele>171.39999389648</ele>
        <time>2024-05-20T11:11:23.000Z</time>
      </trkpt>
      <trkpt lat="46.19765" lon="4.79026">
        <ele>171.39999389648</ele>
        <time>2024-05-20T11:11:24.000Z</time>
      </trkpt>
      <trkpt lat="46.1976" lon="4.79021">
        <ele>171.39999389648</ele>
        <time>2024-05-20T11:11:25.000Z</time>
      </trkpt>
      <trkpt lat="46.19755" lon="4.79016">
        <ele>171.19999694824</ele>
        <time>2024-05-20T11:11:26.000Z</time>
      </trkpt>
      <trkpt lat="46.1975" lon="4.7901">
        <ele>171.19999694824</ele>
        <time>2024-05-20T11:11:27.000Z</time>
      </trkpt>
      <trkpt lat="46.19746" lon="4.79005">
        <ele>171.19999694824</ele>
        <time>2024-05-20T11:11:28.000Z</time>
      </trkpt>
      <trkpt lat="46.19742" lon="4.79">
        <ele>171.19999694824</ele>
        <time>2024-05-20T11:11:29.000Z</time>
      </trkpt>
      <trkpt lat="46.19737" lon="4.78995">
        <ele>171</ele>
        <time>2024-05-20T11:11:30.000Z</time>
      </trkpt>
      <trkpt lat="46.19733" lon="4.7899">
        <ele>171</ele>
        <time>2024-05-20T11:11:31.000Z</time>
      </trkpt>
      <trkpt lat="46.1973" lon="4.78985">
        <ele>170.80000305176</ele>
        <time>2024-05-20T11:11:32.000Z</time>
      </trkpt>
      <trkpt lat="46.19726" lon="4.78981">
        <ele>170.80000305176</ele>
        <time>2024-05-20T11:11:33.000Z</time>
      </trkpt>
      <trkpt lat="46.19722" lon="4.78977">
        <ele>170.80000305176</ele>
        <time>2024-05-20T11:11:34.000Z</time>
      </trkpt>
      <trkpt lat="46.19719" lon="4.78973">
        <ele>170.80000305176</ele>
        <time>2024-05-20T11:11:35.000Z</time>
      </trkpt>
      <trkpt lat="46.19715" lon="4.78969">
        <ele>170.80000305176</ele>
        <time>2024-05-20T11:11:36.000Z</time>
      </trkpt>
      <trkpt lat="46.19711" lon="4.78965">
        <ele>170.60000610352</ele>
        <time>2024-05-20T11:11:37.000Z</time>
      </trkpt>
      <trkpt lat="46.19707" lon="4.78961">
        <ele>170.39999389648</ele>
        <time>2024-05-20T11:11:38.000Z</time>
      </trkpt>
      <trkpt lat="46.19703" lon="4.78957">
        <ele>170.39999389648</ele>
        <time>2024-05-20T11:11:39.000Z</time>
      </trkpt>
      <trkpt lat="46.19699" lon="4.78952">
        <ele>170.39999389648</ele>
        <time>2024-05-20T11:11:40.000Z</time>
      </trkpt>
      <trkpt lat="46.19696" lon="4.78947">
        <ele>170.19999694824</ele>
        <time>2024-05-20T11:11:41.000Z</time>
      </trkpt>
      <trkpt lat="46.19691" lon="4.78942">
        <ele>170.19999694824</ele>
        <time>2024-05-20T11:11:42.000Z</time>
      </trkpt>
      <trkpt lat="46.19687" lon="4.78937">
        <ele>170.19999694824</ele>
        <time>2024-05-20T11:11:43.000Z</time>
      </trkpt>
      <trkpt lat="46.19683" lon="4.78932">
        <ele>170.19999694824</ele>
        <time>2024-05-20T11:11:44.000Z</time>
      </trkpt>
      <trkpt lat="46.19679" lon="4.78927">
        <ele>170.19999694824</ele>
        <time>2024-05-20T11:11:45.000Z</time>
      </trkpt>
      <trkpt lat="46.19675" lon="4.78921">
        <ele>170.19999694824</ele>
        <time>2024-05-20T11:11:46.000Z</time>
      </trkpt>
      <trkpt lat="46.19671" lon="4.78916">
        <ele>170.39999389648</ele>
        <time>2024-05-20T11:11:47.000Z</time>
      </trkpt>
      <trkpt lat="46.19666" lon="4.78911">
        <ele>170.39999389648</ele>
        <time>2024-05-20T11:11:48.000Z</time>
      </trkpt>
      <trkpt lat="46.19662" lon="4.78905">
        <ele>170.60000610352</ele>
        <time>2024-05-20T11:11:49.000Z</time>
      </trkpt>
      <trkpt lat="46.19658" lon="4.789">
        <ele>170.60000610352</ele>
        <time>2024-05-20T11:11:50.000Z</time>
      </trkpt>
      <trkpt lat="46.19653" lon="4.78895">
        <ele>170.60000610352</ele>
        <time>2024-05-20T11:11:51.000Z</time>
      </trkpt>
      <trkpt lat="46.19649" lon="4.78889">
        <ele>170.60000610352</ele>
        <time>2024-05-20T11:11:52.000Z</time>
      </trkpt>
      <trkpt lat="46.19645" lon="4.78884">
        <ele>170.60000610352</ele>
        <time>2024-05-20T11:11:53.000Z</time>
      </trkpt>
      <trkpt lat="46.1964" lon="4.78878">
        <ele>170.60000610352</ele>
        <time>2024-05-20T11:11:54.000Z</time>
      </trkpt>
      <trkpt lat="46.19636" lon="4.78873">
        <ele>170.60000610352</ele>
        <time>2024-05-20T11:11:55.000Z</time>
      </trkpt>
      <trkpt lat="46.19631" lon="4.78868">
        <ele>170.60000610352</ele>
        <time>2024-05-20T11:11:56.000Z</time>
      </trkpt>
      <trkpt lat="46.19627" lon="4.78862">
        <ele>170.60000610352</ele>
        <time>2024-05-20T11:11:57.000Z</time>
      </trkpt>
      <trkpt lat="46.19622" lon="4.78857">
        <ele>170.60000610352</ele>
        <time>2024-05-20T11:11:58.000Z</time>
      </trkpt>
      <trkpt lat="46.19618" lon="4.78852">
        <ele>170.60000610352</ele>
        <time>2024-05-20T11:11:59.000Z</time>
      </trkpt>
      <trkpt lat="46.19613" lon="4.78846">
        <ele>170.80000305176</ele>
        <time>2024-05-20T11:12:00.000Z</time>
      </trkpt>
      <trkpt lat="46.19609" lon="4.78841">
        <ele>170.80000305176</ele>
        <time>2024-05-20T11:12:01.000Z</time>
      </trkpt>
      <trkpt lat="46.19604" lon="4.78835">
        <ele>170.80000305176</ele>
        <time>2024-05-20T11:12:02.000Z</time>
      </trkpt>
      <trkpt lat="46.19599" lon="4.7883">
        <ele>170.80000305176</ele>
        <time>2024-05-20T11:12:03.000Z</time>
      </trkpt>
      <trkpt lat="46.19595" lon="4.78825">
        <ele>170.80000305176</ele>
        <time>2024-05-20T11:12:04.000Z</time>
      </trkpt>
      <trkpt lat="46.1959" lon="4.78819">
        <ele>170.80000305176</ele>
        <time>2024-05-20T11:12:05.000Z</time>
      </trkpt>
      <trkpt lat="46.19586" lon="4.78814">
        <ele>170.80000305176</ele>
        <time>2024-05-20T11:12:06.000Z</time>
      </trkpt>
      <trkpt lat="46.19581" lon="4.78808">
        <ele>170.80000305176</ele>
        <time>2024-05-20T11:12:07.000Z</time>
      </trkpt>
      <trkpt lat="46.19576" lon="4.78802">
        <ele>170.80000305176</ele>
        <time>2024-05-20T11:12:08.000Z</time>
      </trkpt>
      <trkpt lat="46.19572" lon="4.78797">
        <ele>170.80000305176</ele>
        <time>2024-05-20T11:12:09.000Z</time>
      </trkpt>
      <trkpt lat="46.19567" lon="4.78791">
        <ele>170.80000305176</ele>
        <time>2024-05-20T11:12:10.000Z</time>
      </trkpt>
      <trkpt lat="46.19562" lon="4.78786">
        <ele>170.80000305176</ele>
        <time>2024-05-20T11:12:11.000Z</time>
      </trkpt>
      <trkpt lat="46.19558" lon="4.7878">
        <ele>170.80000305176</ele>
        <time>2024-05-20T11:12:12.000Z</time>
      </trkpt>
      <trkpt lat="46.19553" lon="4.78774">
        <ele>170.80000305176</ele>
        <time>2024-05-20T11:12:13.000Z</time>
      </trkpt>
      <trkpt lat="46.19548" lon="4.78769">
        <ele>170.80000305176</ele>
        <time>2024-05-20T11:12:14.000Z</time>
      </trkpt>
      <trkpt lat="46.19544" lon="4.78763">
        <ele>170.80000305176</ele>
        <time>2024-05-20T11:12:15.000Z</time>
      </trkpt>
      <trkpt lat="46.19539" lon="4.78758">
        <ele>170.80000305176</ele>
        <time>2024-05-20T11:12:16.000Z</time>
      </trkpt>
      <trkpt lat="46.19534" lon="4.78752">
        <ele>170.80000305176</ele>
        <time>2024-05-20T11:12:17.000Z</time>
      </trkpt>
      <trkpt lat="46.1953" lon="4.78746">
        <ele>170.80000305176</ele>
        <time>2024-05-20T11:12:18.000Z</time>
      </trkpt>
      <trkpt lat="46.19525" lon="4.78741">
        <ele>170.80000305176</ele>
        <time>2024-05-20T11:12:19.000Z</time>
      </trkpt>
      <trkpt lat="46.1952" lon="4.78735">
        <ele>170.80000305176</ele>
        <time>2024-05-20T11:12:20.000Z</time>
      </trkpt>
      <trkpt lat="46.19515" lon="4.7873">
        <ele>170.80000305176</ele>
        <time>2024-05-20T11:12:21.000Z</time>
      </trkpt>
      <trkpt lat="46.19511" lon="4.78724">
        <ele>170.80000305176</ele>
        <time>2024-05-20T11:12:22.000Z</time>
      </trkpt>
      <trkpt lat="46.19506" lon="4.78719">
        <ele>170.80000305176</ele>
        <time>2024-05-20T11:12:23.000Z</time>
      </trkpt>
      <trkpt lat="46.19501" lon="4.78713">
        <ele>170.80000305176</ele>
        <time>2024-05-20T11:12:24.000Z</time>
      </trkpt>
      <trkpt lat="46.19496" lon="4.78707">
        <ele>170.80000305176</ele>
        <time>2024-05-20T11:12:25.000Z</time>
      </trkpt>
      <trkpt lat="46.19491" lon="4.78702">
        <ele>170.80000305176</ele>
        <time>2024-05-20T11:12:26.000Z</time>
      </trkpt>
      <trkpt lat="46.19486" lon="4.78696">
        <ele>170.80000305176</ele>
        <time>2024-05-20T11:12:27.000Z</time>
      </trkpt>
      <trkpt lat="46.19482" lon="4.7869">
        <ele>170.80000305176</ele>
        <time>2024-05-20T11:12:28.000Z</time>
      </trkpt>
      <trkpt lat="46.19477" lon="4.78684">
        <ele>170.80000305176</ele>
        <time>2024-05-20T11:12:29.000Z</time>
      </trkpt>
      <trkpt lat="46.19472" lon="4.78678">
        <ele>170.80000305176</ele>
        <time>2024-05-20T11:12:30.000Z</time>
      </trkpt>
      <trkpt lat="46.19468" lon="4.78673">
        <ele>171</ele>
        <time>2024-05-20T11:12:31.000Z</time>
      </trkpt>
      <trkpt lat="46.19463" lon="4.78667">
        <ele>171</ele>
        <time>2024-05-20T11:12:32.000Z</time>
      </trkpt>
      <trkpt lat="46.19458" lon="4.78662">
        <ele>171</ele>
        <time>2024-05-20T11:12:33.000Z</time>
      </trkpt>
      <trkpt lat="46.19453" lon="4.78656">
        <ele>171.19999694824</ele>
        <time>2024-05-20T11:12:34.000Z</time>
      </trkpt>
      <trkpt lat="46.19449" lon="4.7865">
        <ele>171.19999694824</ele>
        <time>2024-05-20T11:12:35.000Z</time>
      </trkpt>
      <trkpt lat="46.19444" lon="4.78645">
        <ele>171.19999694824</ele>
        <time>2024-05-20T11:12:36.000Z</time>
      </trkpt>
      <trkpt lat="46.19439" lon="4.78639">
        <ele>171.19999694824</ele>
        <time>2024-05-20T11:12:37.000Z</time>
      </trkpt>
      <trkpt lat="46.19435" lon="4.78634">
        <ele>171.19999694824</ele>
        <time>2024-05-20T11:12:38.000Z</time>
      </trkpt>
      <trkpt lat="46.1943" lon="4.78628">
        <ele>171.19999694824</ele>
        <time>2024-05-20T11:12:39.000Z</time>
      </trkpt>
      <trkpt lat="46.19425" lon="4.78623">
        <ele>171.19999694824</ele>
        <time>2024-05-20T11:12:40.000Z</time>
      </trkpt>
      <trkpt lat="46.1942" lon="4.78618">
        <ele>171.19999694824</ele>
        <time>2024-05-20T11:12:41.000Z</time>
      </trkpt>
      <trkpt lat="46.19415" lon="4.78612">
        <ele>171.19999694824</ele>
        <time>2024-05-20T11:12:42.000Z</time>
      </trkpt>
      <trkpt lat="46.19411" lon="4.78607">
        <ele>171.39999389648</ele>
        <time>2024-05-20T11:12:43.000Z</time>
      </trkpt>
      <trkpt lat="46.19406" lon="4.78602">
        <ele>171.39999389648</ele>
        <time>2024-05-20T11:12:44.000Z</time>
      </trkpt>
      <trkpt lat="46.19401" lon="4.78597">
        <ele>171.39999389648</ele>
        <time>2024-05-20T11:12:45.000Z</time>
      </trkpt>
      <trkpt lat="46.19396" lon="4.78592">
        <ele>171.39999389648</ele>
        <time>2024-05-20T11:12:46.000Z</time>
      </trkpt>
      <trkpt lat="46.19391" lon="4.78587">
        <ele>171.39999389648</ele>
        <time>2024-05-20T11:12:47.000Z</time>
      </trkpt>
      <trkpt lat="46.19386" lon="4.78582">
        <ele>171.39999389648</ele>
        <time>2024-05-20T11:12:48.000Z</time>
      </trkpt>
      <trkpt lat="46.19381" lon="4.78577">
        <ele>171.39999389648</ele>
        <time>2024-05-20T11:12:49.000Z</time>
      </trkpt>
      <trkpt lat="46.19376" lon="4.78573">
        <ele>171.39999389648</ele>
        <time>2024-05-20T11:12:50.000Z</time>
      </trkpt>
      <trkpt lat="46.19371" lon="4.78568">
        <ele>171.39999389648</ele>
        <time>2024-05-20T11:12:51.000Z</time>
      </trkpt>
      <trkpt lat="46.19366" lon="4.78563">
        <ele>171.39999389648</ele>
        <time>2024-05-20T11:12:52.000Z</time>
      </trkpt>
      <trkpt lat="46.19361" lon="4.78558">
        <ele>171.39999389648</ele>
        <time>2024-05-20T11:12:53.000Z</time>
      </trkpt>
      <trkpt lat="46.19356" lon="4.78553">
        <ele>171.39999389648</ele>
        <time>2024-05-20T11:12:54.000Z</time>
      </trkpt>
      <trkpt lat="46.19351" lon="4.78548">
        <ele>171.39999389648</ele>
        <time>2024-05-20T11:12:55.000Z</time>
      </trkpt>
      <trkpt lat="46.19346" lon="4.78543">
        <ele>171.39999389648</ele>
        <time>2024-05-20T11:12:56.000Z</time>
      </trkpt>
      <trkpt lat="46.19341" lon="4.78538">
        <ele>171.39999389648</ele>
        <time>2024-05-20T11:12:57.000Z</time>
      </trkpt>
      <trkpt lat="46.19336" lon="4.78533">
        <ele>171.39999389648</ele>
        <time>2024-05-20T11:12:58.000Z</time>
      </trkpt>
      <trkpt lat="46.19331" lon="4.78528">
        <ele>171.39999389648</ele>
        <time>2024-05-20T11:12:59.000Z</time>
      </trkpt>
      <trkpt lat="46.19326" lon="4.78523">
        <ele>171.39999389648</ele>
        <time>2024-05-20T11:13:00.000Z</time>
      </trkpt>
      <trkpt lat="46.19321" lon="4.78518">
        <ele>171.39999389648</ele>
        <time>2024-05-20T11:13:01.000Z</time>
      </trkpt>
      <trkpt lat="46.19316" lon="4.78513">
        <ele>171.39999389648</ele>
        <time>2024-05-20T11:13:02.000Z</time>
      </trkpt>
      <trkpt lat="46.19312" lon="4.78508">
        <ele>171.19999694824</ele>
        <time>2024-05-20T11:13:03.000Z</time>
      </trkpt>
      <trkpt lat="46.19307" lon="4.78503">
        <ele>171.19999694824</ele>
        <time>2024-05-20T11:13:04.000Z</time>
      </trkpt>
      <trkpt lat="46.19302" lon="4.78498">
        <ele>171.19999694824</ele>
        <time>2024-05-20T11:13:05.000Z</time>
      </trkpt>
      <trkpt lat="46.19297" lon="4.78493">
        <ele>171.19999694824</ele>
        <time>2024-05-20T11:13:06.000Z</time>
      </trkpt>
      <trkpt lat="46.19292" lon="4.78488">
        <ele>171.19999694824</ele>
        <time>2024-05-20T11:13:07.000Z</time>
      </trkpt>
      <trkpt lat="46.19287" lon="4.78484">
        <ele>171.19999694824</ele>
        <time>2024-05-20T11:13:08.000Z</time>
      </trkpt>
      <trkpt lat="46.19281" lon="4.78479">
        <ele>171.39999389648</ele>
        <time>2024-05-20T11:13:09.000Z</time>
      </trkpt>
      <trkpt lat="46.19276" lon="4.78474">
        <ele>171.39999389648</ele>
        <time>2024-05-20T11:13:10.000Z</time>
      </trkpt>
      <trkpt lat="46.19272" lon="4.78469">
        <ele>171.39999389648</ele>
        <time>2024-05-20T11:13:11.000Z</time>
      </trkpt>
      <trkpt lat="46.19267" lon="4.78464">
        <ele>171.39999389648</ele>
        <time>2024-05-20T11:13:12.000Z</time>
      </trkpt>
      <trkpt lat="46.19262" lon="4.78459">
        <ele>171.39999389648</ele>
        <time>2024-05-20T11:13:13.000Z</time>
      </trkpt>
      <trkpt lat="46.19257" lon="4.78454">
        <ele>171.19999694824</ele>
        <time>2024-05-20T11:13:14.000Z</time>
      </trkpt>
      <trkpt lat="46.19252" lon="4.78449">
        <ele>171.19999694824</ele>
        <time>2024-05-20T11:13:15.000Z</time>
      </trkpt>
      <trkpt lat="46.19247" lon="4.78444">
        <ele>171.19999694824</ele>
        <time>2024-05-20T11:13:16.000Z</time>
      </trkpt>
      <trkpt lat="46.19242" lon="4.78439">
        <ele>171.19999694824</ele>
        <time>2024-05-20T11:13:17.000Z</time>
      </trkpt>
      <trkpt lat="46.19237" lon="4.78434">
        <ele>171.19999694824</ele>
        <time>2024-05-20T11:13:18.000Z</time>
      </trkpt>
      <trkpt lat="46.19232" lon="4.78429">
        <ele>171.19999694824</ele>
        <time>2024-05-20T11:13:19.000Z</time>
      </trkpt>
      <trkpt lat="46.19227" lon="4.78424">
        <ele>171.60000610352</ele>
        <time>2024-05-20T11:13:20.000Z</time>
      </trkpt>
      <trkpt lat="46.19222" lon="4.78419">
        <ele>171.60000610352</ele>
        <time>2024-05-20T11:13:21.000Z</time>
      </trkpt>
      <trkpt lat="46.19218" lon="4.78414">
        <ele>171.60000610352</ele>
        <time>2024-05-20T11:13:22.000Z</time>
      </trkpt>
      <trkpt lat="46.19213" lon="4.78409">
        <ele>171.60000610352</ele>
        <time>2024-05-20T11:13:23.000Z</time>
      </trkpt>
      <trkpt lat="46.19207" lon="4.78404">
        <ele>171.39999389648</ele>
        <time>2024-05-20T11:13:24.000Z</time>
      </trkpt>
      <trkpt lat="46.19202" lon="4.784">
        <ele>171.39999389648</ele>
        <time>2024-05-20T11:13:25.000Z</time>
      </trkpt>
      <trkpt lat="46.19197" lon="4.78395">
        <ele>171.39999389648</ele>
        <time>2024-05-20T11:13:26.000Z</time>
      </trkpt>
      <trkpt lat="46.19192" lon="4.7839">
        <ele>171.19999694824</ele>
        <time>2024-05-20T11:13:27.000Z</time>
      </trkpt>
      <trkpt lat="46.19187" lon="4.78385">
        <ele>171.19999694824</ele>
        <time>2024-05-20T11:13:28.000Z</time>
      </trkpt>
      <trkpt lat="46.19182" lon="4.7838">
        <ele>171.19999694824</ele>
        <time>2024-05-20T11:13:29.000Z</time>
      </trkpt>
      <trkpt lat="46.19178" lon="4.78375">
        <ele>171.19999694824</ele>
        <time>2024-05-20T11:13:30.000Z</time>
      </trkpt>
      <trkpt lat="46.19173" lon="4.7837">
        <ele>171.19999694824</ele>
        <time>2024-05-20T11:13:31.000Z</time>
      </trkpt>
      <trkpt lat="46.19168" lon="4.78365">
        <ele>171.19999694824</ele>
        <time>2024-05-20T11:13:32.000Z</time>
      </trkpt>
      <trkpt lat="46.19163" lon="4.7836">
        <ele>171.19999694824</ele>
        <time>2024-05-20T11:13:33.000Z</time>
      </trkpt>
      <trkpt lat="46.19158" lon="4.78355">
        <ele>171.19999694824</ele>
        <time>2024-05-20T11:13:34.000Z</time>
      </trkpt>
      <trkpt lat="46.19153" lon="4.78351">
        <ele>171.19999694824</ele>
        <time>2024-05-20T11:13:35.000Z</time>
      </trkpt>
      <trkpt lat="46.19149" lon="4.78346">
        <ele>171.19999694824</ele>
        <time>2024-05-20T11:13:36.000Z</time>
      </trkpt>
      <trkpt lat="46.19144" lon="4.78341">
        <ele>171.39999389648</ele>
        <time>2024-05-20T11:13:37.000Z</time>
      </trkpt>
      <trkpt lat="46.19139" lon="4.78336">
        <ele>171.60000610352</ele>
        <time>2024-05-20T11:13:38.000Z</time>
      </trkpt>
      <trkpt lat="46.19134" lon="4.78332">
        <ele>171.60000610352</ele>
        <time>2024-05-20T11:13:39.000Z</time>
      </trkpt>
      <trkpt lat="46.19129" lon="4.78327">
        <ele>171.60000610352</ele>
        <time>2024-05-20T11:13:40.000Z</time>
      </trkpt>
      <trkpt lat="46.19124" lon="4.78322">
        <ele>171.60000610352</ele>
        <time>2024-05-20T11:13:41.000Z</time>
      </trkpt>
      <trkpt lat="46.19119" lon="4.78317">
        <ele>171.60000610352</ele>
        <time>2024-05-20T11:13:42.000Z</time>
      </trkpt>
      <trkpt lat="46.19114" lon="4.78313">
        <ele>171.60000610352</ele>
        <time>2024-05-20T11:13:43.000Z</time>
      </trkpt>
      <trkpt lat="46.19109" lon="4.78308">
        <ele>171.60000610352</ele>
        <time>2024-05-20T11:13:44.000Z</time>
      </trkpt>
      <trkpt lat="46.19104" lon="4.78303">
        <ele>171.60000610352</ele>
        <time>2024-05-20T11:13:45.000Z</time>
      </trkpt>
      <trkpt lat="46.19099" lon="4.78298">
        <ele>171.60000610352</ele>
        <time>2024-05-20T11:13:46.000Z</time>
      </trkpt>
      <trkpt lat="46.19094" lon="4.78293">
        <ele>171.60000610352</ele>
        <time>2024-05-20T11:13:47.000Z</time>
      </trkpt>
      <trkpt lat="46.19089" lon="4.78288">
        <ele>171.60000610352</ele>
        <time>2024-05-20T11:13:48.000Z</time>
      </trkpt>
      <trkpt lat="46.19084" lon="4.78283">
        <ele>171.39999389648</ele>
        <time>2024-05-20T11:13:49.000Z</time>
      </trkpt>
      <trkpt lat="46.19079" lon="4.78278">
        <ele>171.39999389648</ele>
        <time>2024-05-20T11:13:50.000Z</time>
      </trkpt>
      <trkpt lat="46.19074" lon="4.78273">
        <ele>171.60000610352</ele>
        <time>2024-05-20T11:13:51.000Z</time>
      </trkpt>
      <trkpt lat="46.19069" lon="4.78268">
        <ele>171.39999389648</ele>
        <time>2024-05-20T11:13:52.000Z</time>
      </trkpt>
      <trkpt lat="46.19064" lon="4.78263">
        <ele>171.39999389648</ele>
        <time>2024-05-20T11:13:53.000Z</time>
      </trkpt>
      <trkpt lat="46.19059" lon="4.78259">
        <ele>171.39999389648</ele>
        <time>2024-05-20T11:13:54.000Z</time>
      </trkpt>
      <trkpt lat="46.19054" lon="4.78254">
        <ele>171.39999389648</ele>
        <time>2024-05-20T11:13:55.000Z</time>
      </trkpt>
      <trkpt lat="46.19049" lon="4.78249">
        <ele>171.39999389648</ele>
        <time>2024-05-20T11:13:56.000Z</time>
      </trkpt>
      <trkpt lat="46.19043" lon="4.78244">
        <ele>171.39999389648</ele>
        <time>2024-05-20T11:13:57.000Z</time>
      </trkpt>
      <trkpt lat="46.19039" lon="4.78239">
        <ele>171.39999389648</ele>
        <time>2024-05-20T11:13:58.000Z</time>
      </trkpt>
      <trkpt lat="46.19034" lon="4.78234">
        <ele>171.60000610352</ele>
        <time>2024-05-20T11:13:59.000Z</time>
      </trkpt>
      <trkpt lat="46.19029" lon="4.78229">
        <ele>171.60000610352</ele>
        <time>2024-05-20T11:14:00.000Z</time>
      </trkpt>
      <trkpt lat="46.19024" lon="4.78224">
        <ele>171.60000610352</ele>
        <time>2024-05-20T11:14:01.000Z</time>
      </trkpt>
      <trkpt lat="46.19019" lon="4.78219">
        <ele>171.60000610352</ele>
        <time>2024-05-20T11:14:02.000Z</time>
      </trkpt>
      <trkpt lat="46.19014" lon="4.78214">
        <ele>171.60000610352</ele>
        <time>2024-05-20T11:14:03.000Z</time>
      </trkpt>
      <trkpt lat="46.19009" lon="4.78209">
        <ele>171.60000610352</ele>
        <time>2024-05-20T11:14:04.000Z</time>
      </trkpt>
      <trkpt lat="46.19004" lon="4.78204">
        <ele>171.60000610352</ele>
        <time>2024-05-20T11:14:05.000Z</time>
      </trkpt>
      <trkpt lat="46.18999" lon="4.782">
        <ele>171.39999389648</ele>
        <time>2024-05-20T11:14:06.000Z</time>
      </trkpt>
      <trkpt lat="46.18994" lon="4.78195">
        <ele>171.39999389648</ele>
        <time>2024-05-20T11:14:07.000Z</time>
      </trkpt>
      <trkpt lat="46.18989" lon="4.78191">
        <ele>171.39999389648</ele>
        <time>2024-05-20T11:14:08.000Z</time>
      </trkpt>
      <trkpt lat="46.18984" lon="4.78186">
        <ele>171.39999389648</ele>
        <time>2024-05-20T11:14:09.000Z</time>
      </trkpt>
      <trkpt lat="46.18979" lon="4.78182">
        <ele>171.19999694824</ele>
        <time>2024-05-20T11:14:10.000Z</time>
      </trkpt>
      <trkpt lat="46.18975" lon="4.78179">
        <ele>171.19999694824</ele>
        <time>2024-05-20T11:14:11.000Z</time>
      </trkpt>
      <trkpt lat="46.1897" lon="4.78175">
        <ele>171.39999389648</ele>
        <time>2024-05-20T11:14:12.000Z</time>
      </trkpt>
      <trkpt lat="46.18965" lon="4.78172">
        <ele>171.19999694824</ele>
        <time>2024-05-20T11:14:13.000Z</time>
      </trkpt>
      <trkpt lat="46.1896" lon="4.78169">
        <ele>171.19999694824</ele>
        <time>2024-05-20T11:14:14.000Z</time>
      </trkpt>
      <trkpt lat="46.18954" lon="4.78166">
        <ele>171.19999694824</ele>
        <time>2024-05-20T11:14:15.000Z</time>
      </trkpt>
      <trkpt lat="46.18949" lon="4.78163">
        <ele>171.19999694824</ele>
        <time>2024-05-20T11:14:16.000Z</time>
      </trkpt>
      <trkpt lat="46.18944" lon="4.78161">
        <ele>171.19999694824</ele>
        <time>2024-05-20T11:14:17.000Z</time>
      </trkpt>
      <trkpt lat="46.18939" lon="4.78158">
        <ele>171.19999694824</ele>
        <time>2024-05-20T11:14:18.000Z</time>
      </trkpt>
      <trkpt lat="46.18934" lon="4.78156">
        <ele>171.19999694824</ele>
        <time>2024-05-20T11:14:19.000Z</time>
      </trkpt>
      <trkpt lat="46.18928" lon="4.78154">
        <ele>171.19999694824</ele>
        <time>2024-05-20T11:14:20.000Z</time>
      </trkpt>
      <trkpt lat="46.18923" lon="4.78152">
        <ele>171.19999694824</ele>
        <time>2024-05-20T11:14:21.000Z</time>
      </trkpt>
      <trkpt lat="46.18918" lon="4.7815">
        <ele>171.19999694824</ele>
        <time>2024-05-20T11:14:22.000Z</time>
      </trkpt>
      <trkpt lat="46.18912" lon="4.78149">
        <ele>171.19999694824</ele>
        <time>2024-05-20T11:14:23.000Z</time>
      </trkpt>
      <trkpt lat="46.18907" lon="4.78147">
        <ele>171.19999694824</ele>
        <time>2024-05-20T11:14:24.000Z</time>
      </trkpt>
      <trkpt lat="46.18902" lon="4.78146">
        <ele>171.19999694824</ele>
        <time>2024-05-20T11:14:25.000Z</time>
      </trkpt>
      <trkpt lat="46.18896" lon="4.78144">
        <ele>171.19999694824</ele>
        <time>2024-05-20T11:14:26.000Z</time>
      </trkpt>
      <trkpt lat="46.18891" lon="4.78142">
        <ele>171.19999694824</ele>
        <time>2024-05-20T11:14:27.000Z</time>
      </trkpt>
      <trkpt lat="46.18887" lon="4.78141">
        <ele>171.19999694824</ele>
        <time>2024-05-20T11:14:28.000Z</time>
      </trkpt>
      <trkpt lat="46.18882" lon="4.78139">
        <ele>171.19999694824</ele>
        <time>2024-05-20T11:14:29.000Z</time>
      </trkpt>
      <trkpt lat="46.18877" lon="4.78138">
        <ele>171.19999694824</ele>
        <time>2024-05-20T11:14:30.000Z</time>
      </trkpt>
      <trkpt lat="46.18872" lon="4.78136">
        <ele>171.19999694824</ele>
        <time>2024-05-20T11:14:31.000Z</time>
      </trkpt>
      <trkpt lat="46.18868" lon="4.78135">
        <ele>171.19999694824</ele>
        <time>2024-05-20T11:14:32.000Z</time>
      </trkpt>
      <trkpt lat="46.18863" lon="4.78133">
        <ele>171.19999694824</ele>
        <time>2024-05-20T11:14:33.000Z</time>
      </trkpt>
      <trkpt lat="46.18858" lon="4.78132">
        <ele>171.19999694824</ele>
        <time>2024-05-20T11:14:34.000Z</time>
      </trkpt>
      <trkpt lat="46.18853" lon="4.7813">
        <ele>171.19999694824</ele>
        <time>2024-05-20T11:14:35.000Z</time>
      </trkpt>
      <trkpt lat="46.18848" lon="4.78129">
        <ele>171.19999694824</ele>
        <time>2024-05-20T11:14:36.000Z</time>
      </trkpt>
      <trkpt lat="46.18844" lon="4.78126">
        <ele>171.19999694824</ele>
        <time>2024-05-20T11:14:37.000Z</time>
      </trkpt>
      <trkpt lat="46.18839" lon="4.78122">
        <ele>171.19999694824</ele>
        <time>2024-05-20T11:14:38.000Z</time>
      </trkpt>
      <trkpt lat="46.18836" lon="4.78118">
        <ele>171.19999694824</ele>
        <time>2024-05-20T11:14:39.000Z</time>
      </trkpt>
      <trkpt lat="46.18832" lon="4.78115">
        <ele>171.19999694824</ele>
        <time>2024-05-20T11:14:40.000Z</time>
      </trkpt>
      <trkpt lat="46.18828" lon="4.78113">
        <ele>171.19999694824</ele>
        <time>2024-05-20T11:14:41.000Z</time>
      </trkpt>
      <trkpt lat="46.18824" lon="4.78112">
        <ele>171.19999694824</ele>
        <time>2024-05-20T11:14:42.000Z</time>
      </trkpt>
      <trkpt lat="46.18819" lon="4.78112">
        <ele>171.19999694824</ele>
        <time>2024-05-20T11:14:43.000Z</time>
      </trkpt>
      <trkpt lat="46.18815" lon="4.78114">
        <ele>171.19999694824</ele>
        <time>2024-05-20T11:14:44.000Z</time>
      </trkpt>
      <trkpt lat="46.18812" lon="4.78116">
        <ele>171.19999694824</ele>
        <time>2024-05-20T11:14:45.000Z</time>
      </trkpt>
      <trkpt lat="46.18807" lon="4.78119">
        <ele>171.19999694824</ele>
        <time>2024-05-20T11:14:46.000Z</time>
      </trkpt>
      <trkpt lat="46.18803" lon="4.78121">
        <ele>171.19999694824</ele>
        <time>2024-05-20T11:14:47.000Z</time>
      </trkpt>
      <trkpt lat="46.18799" lon="4.78124">
        <ele>171.19999694824</ele>
        <time>2024-05-20T11:14:48.000Z</time>
      </trkpt>
      <trkpt lat="46.18795" lon="4.78127">
        <ele>171.19999694824</ele>
        <time>2024-05-20T11:14:49.000Z</time>
      </trkpt>
      <trkpt lat="46.18792" lon="4.7813">
        <ele>171.39999389648</ele>
        <time>2024-05-20T11:14:50.000Z</time>
      </trkpt>
      <trkpt lat="46.18788" lon="4.78132">
        <ele>171.60000610352</ele>
        <time>2024-05-20T11:14:51.000Z</time>
      </trkpt>
      <trkpt lat="46.18784" lon="4.78134">
        <ele>171.60000610352</ele>
        <time>2024-05-20T11:14:52.000Z</time>
      </trkpt>
      <trkpt lat="46.18779" lon="4.78137">
        <ele>171.60000610352</ele>
        <time>2024-05-20T11:14:53.000Z</time>
      </trkpt>
      <trkpt lat="46.18775" lon="4.78138">
        <ele>171.60000610352</ele>
        <time>2024-05-20T11:14:54.000Z</time>
      </trkpt>
      <trkpt lat="46.1877" lon="4.78141">
        <ele>171.39999389648</ele>
        <time>2024-05-20T11:14:55.000Z</time>
      </trkpt>
      <trkpt lat="46.18766" lon="4.78143">
        <ele>171.39999389648</ele>
        <time>2024-05-20T11:14:56.000Z</time>
      </trkpt>
      <trkpt lat="46.18762" lon="4.78145">
        <ele>171.39999389648</ele>
        <time>2024-05-20T11:14:57.000Z</time>
      </trkpt>
      <trkpt lat="46.18757" lon="4.78148">
        <ele>171.39999389648</ele>
        <time>2024-05-20T11:14:58.000Z</time>
      </trkpt>
      <trkpt lat="46.18753" lon="4.78149">
        <ele>171.39999389648</ele>
        <time>2024-05-20T11:14:59.000Z</time>
      </trkpt>
      <trkpt lat="46.18748" lon="4.7815">
        <ele>171.39999389648</ele>
        <time>2024-05-20T11:15:00.000Z</time>
      </trkpt>
      <trkpt lat="46.18743" lon="4.78151">
        <ele>171.19999694824</ele>
        <time>2024-05-20T11:15:01.000Z</time>
      </trkpt>
      <trkpt lat="46.18739" lon="4.78152">
        <ele>171.19999694824</ele>
        <time>2024-05-20T11:15:02.000Z</time>
      </trkpt>
      <trkpt lat="46.18734" lon="4.78152">
        <ele>171.19999694824</ele>
        <time>2024-05-20T11:15:03.000Z</time>
      </trkpt>
      <trkpt lat="46.18729" lon="4.78152">
        <ele>171.19999694824</ele>
        <time>2024-05-20T11:15:04.000Z</time>
      </trkpt>
      <trkpt lat="46.18724" lon="4.78153">
        <ele>171.19999694824</ele>
        <time>2024-05-20T11:15:05.000Z</time>
      </trkpt>
      <trkpt lat="46.18719" lon="4.78153">
        <ele>171.19999694824</ele>
        <time>2024-05-20T11:15:06.000Z</time>
      </trkpt>
      <trkpt lat="46.18715" lon="4.78154">
        <ele>171.19999694824</ele>
        <time>2024-05-20T11:15:07.000Z</time>
      </trkpt>
      <trkpt lat="46.1871" lon="4.78154">
        <ele>171.19999694824</ele>
        <time>2024-05-20T11:15:08.000Z</time>
      </trkpt>
      <trkpt lat="46.18705" lon="4.78155">
        <ele>171.39999389648</ele>
        <time>2024-05-20T11:15:09.000Z</time>
      </trkpt>
      <trkpt lat="46.187" lon="4.78156">
        <ele>171.39999389648</ele>
        <time>2024-05-20T11:15:10.000Z</time>
      </trkpt>
      <trkpt lat="46.18694" lon="4.78157">
        <ele>171.60000610352</ele>
        <time>2024-05-20T11:15:11.000Z</time>
      </trkpt>
      <trkpt lat="46.18689" lon="4.78158">
        <ele>171.60000610352</ele>
        <time>2024-05-20T11:15:12.000Z</time>
      </trkpt>
      <trkpt lat="46.18684" lon="4.78158">
        <ele>171.60000610352</ele>
        <time>2024-05-20T11:15:13.000Z</time>
      </trkpt>
      <trkpt lat="46.18679" lon="4.78159">
        <ele>171.60000610352</ele>
        <time>2024-05-20T11:15:14.000Z</time>
      </trkpt>
      <trkpt lat="46.18674" lon="4.7816">
        <ele>171.60000610352</ele>
        <time>2024-05-20T11:15:15.000Z</time>
      </trkpt>
      <trkpt lat="46.18669" lon="4.7816">
        <ele>171.60000610352</ele>
        <time>2024-05-20T11:15:16.000Z</time>
      </trkpt>
      <trkpt lat="46.18663" lon="4.78161">
        <ele>171.60000610352</ele>
        <time>2024-05-20T11:15:17.000Z</time>
      </trkpt>
      <trkpt lat="46.18658" lon="4.78161">
        <ele>171.60000610352</ele>
        <time>2024-05-20T11:15:18.000Z</time>
      </trkpt>
      <trkpt lat="46.18653" lon="4.78162">
        <ele>171.60000610352</ele>
        <time>2024-05-20T11:15:19.000Z</time>
      </trkpt>
      <trkpt lat="46.18648" lon="4.78162">
        <ele>171.60000610352</ele>
        <time>2024-05-20T11:15:20.000Z</time>
      </trkpt>
      <trkpt lat="46.18643" lon="4.78162">
        <ele>171.60000610352</ele>
        <time>2024-05-20T11:15:21.000Z</time>
      </trkpt>
      <trkpt lat="46.18639" lon="4.78164">
        <ele>171.60000610352</ele>
        <time>2024-05-20T11:15:22.000Z</time>
      </trkpt>
      <trkpt lat="46.18634" lon="4.78165">
        <ele>171.60000610352</ele>
        <time>2024-05-20T11:15:23.000Z</time>
      </trkpt>
      <trkpt lat="46.18629" lon="4.78166">
        <ele>171.60000610352</ele>
        <time>2024-05-20T11:15:24.000Z</time>
      </trkpt>
      <trkpt lat="46.18624" lon="4.78168">
        <ele>171.80000305176</ele>
        <time>2024-05-20T11:15:25.000Z</time>
      </trkpt>
      <trkpt lat="46.18619" lon="4.78169">
        <ele>171.80000305176</ele>
        <time>2024-05-20T11:15:26.000Z</time>
      </trkpt>
      <trkpt lat="46.18613" lon="4.7817">
        <ele>172</ele>
        <time>2024-05-20T11:15:27.000Z</time>
      </trkpt>
      <trkpt lat="46.18608" lon="4.78172">
        <ele>172</ele>
        <time>2024-05-20T11:15:28.000Z</time>
      </trkpt>
      <trkpt lat="46.18602" lon="4.78173">
        <ele>172</ele>
        <time>2024-05-20T11:15:29.000Z</time>
      </trkpt>
      <trkpt lat="46.18596" lon="4.78174">
        <ele>172</ele>
        <time>2024-05-20T11:15:30.000Z</time>
      </trkpt>
      <trkpt lat="46.1859" lon="4.78174">
        <ele>172</ele>
        <time>2024-05-20T11:15:31.000Z</time>
      </trkpt>
      <trkpt lat="46.18584" lon="4.78175">
        <ele>171.80000305176</ele>
        <time>2024-05-20T11:15:32.000Z</time>
      </trkpt>
      <trkpt lat="46.18578" lon="4.78176">
        <ele>171.80000305176</ele>
        <time>2024-05-20T11:15:33.000Z</time>
      </trkpt>
      <trkpt lat="46.18573" lon="4.78177">
        <ele>171.80000305176</ele>
        <time>2024-05-20T11:15:34.000Z</time>
      </trkpt>
      <trkpt lat="46.18567" lon="4.78177">
        <ele>171.80000305176</ele>
        <time>2024-05-20T11:15:35.000Z</time>
      </trkpt>
      <trkpt lat="46.18561" lon="4.78178">
        <ele>171.60000610352</ele>
        <time>2024-05-20T11:15:36.000Z</time>
      </trkpt>
      <trkpt lat="46.18555" lon="4.78178">
        <ele>171.60000610352</ele>
        <time>2024-05-20T11:15:37.000Z</time>
      </trkpt>
      <trkpt lat="46.18549" lon="4.78179">
        <ele>171.60000610352</ele>
        <time>2024-05-20T11:15:38.000Z</time>
      </trkpt>
      <trkpt lat="46.18544" lon="4.78179">
        <ele>171.60000610352</ele>
        <time>2024-05-20T11:15:39.000Z</time>
      </trkpt>
      <trkpt lat="46.18538" lon="4.7818">
        <ele>171.80000305176</ele>
        <time>2024-05-20T11:15:40.000Z</time>
      </trkpt>
      <trkpt lat="46.18532" lon="4.78181">
        <ele>171.80000305176</ele>
        <time>2024-05-20T11:15:41.000Z</time>
      </trkpt>
      <trkpt lat="46.18526" lon="4.78182">
        <ele>171.80000305176</ele>
        <time>2024-05-20T11:15:42.000Z</time>
      </trkpt>
      <trkpt lat="46.18521" lon="4.78183">
        <ele>171.80000305176</ele>
        <time>2024-05-20T11:15:43.000Z</time>
      </trkpt>
      <trkpt lat="46.18515" lon="4.78184">
        <ele>171.80000305176</ele>
        <time>2024-05-20T11:15:44.000Z</time>
      </trkpt>
      <trkpt lat="46.1851" lon="4.78186">
        <ele>171.80000305176</ele>
        <time>2024-05-20T11:15:45.000Z</time>
      </trkpt>
      <trkpt lat="46.18504" lon="4.78187">
        <ele>171.80000305176</ele>
        <time>2024-05-20T11:15:46.000Z</time>
      </trkpt>
      <trkpt lat="46.18498" lon="4.78188">
        <ele>171.80000305176</ele>
        <time>2024-05-20T11:15:47.000Z</time>
      </trkpt>
      <trkpt lat="46.18493" lon="4.7819">
        <ele>172</ele>
        <time>2024-05-20T11:15:48.000Z</time>
      </trkpt>
      <trkpt lat="46.18487" lon="4.7819">
        <ele>172</ele>
        <time>2024-05-20T11:15:49.000Z</time>
      </trkpt>
      <trkpt lat="46.18481" lon="4.78191">
        <ele>172</ele>
        <time>2024-05-20T11:15:50.000Z</time>
      </trkpt>
      <trkpt lat="46.18475" lon="4.78191">
        <ele>172</ele>
        <time>2024-05-20T11:15:51.000Z</time>
      </trkpt>
      <trkpt lat="46.18469" lon="4.78191">
        <ele>172</ele>
        <time>2024-05-20T11:15:52.000Z</time>
      </trkpt>
      <trkpt lat="46.18462" lon="4.78191">
        <ele>172</ele>
        <time>2024-05-20T11:15:53.000Z</time>
      </trkpt>
      <trkpt lat="46.18457" lon="4.78191">
        <ele>172</ele>
        <time>2024-05-20T11:15:54.000Z</time>
      </trkpt>
      <trkpt lat="46.18451" lon="4.78192">
        <ele>172</ele>
        <time>2024-05-20T11:15:55.000Z</time>
      </trkpt>
      <trkpt lat="46.18446" lon="4.78192">
        <ele>172</ele>
        <time>2024-05-20T11:15:56.000Z</time>
      </trkpt>
      <trkpt lat="46.18439" lon="4.78192">
        <ele>172</ele>
        <time>2024-05-20T11:15:57.000Z</time>
      </trkpt>
      <trkpt lat="46.18432" lon="4.78192">
        <ele>172</ele>
        <time>2024-05-20T11:15:58.000Z</time>
      </trkpt>
      <trkpt lat="46.18426" lon="4.78192">
        <ele>172</ele>
        <time>2024-05-20T11:15:59.000Z</time>
      </trkpt>
      <trkpt lat="46.18419" lon="4.78192">
        <ele>172</ele>
        <time>2024-05-20T11:16:00.000Z</time>
      </trkpt>
      <trkpt lat="46.18412" lon="4.78192">
        <ele>171.80000305176</ele>
        <time>2024-05-20T11:16:01.000Z</time>
      </trkpt>
      <trkpt lat="46.18406" lon="4.78193">
        <ele>171.80000305176</ele>
        <time>2024-05-20T11:16:02.000Z</time>
      </trkpt>
      <trkpt lat="46.18399" lon="4.78194">
        <ele>171.60000610352</ele>
        <time>2024-05-20T11:16:03.000Z</time>
      </trkpt>
      <trkpt lat="46.18393" lon="4.78194">
        <ele>171.60000610352</ele>
        <time>2024-05-20T11:16:04.000Z</time>
      </trkpt>
      <trkpt lat="46.18387" lon="4.78196">
        <ele>171.60000610352</ele>
        <time>2024-05-20T11:16:05.000Z</time>
      </trkpt>
      <trkpt lat="46.18381" lon="4.78196">
        <ele>171.60000610352</ele>
        <time>2024-05-20T11:16:06.000Z</time>
      </trkpt>
      <trkpt lat="46.18375" lon="4.78196">
        <ele>171.80000305176</ele>
        <time>2024-05-20T11:16:07.000Z</time>
      </trkpt>
      <trkpt lat="46.1837" lon="4.78195">
        <ele>171.80000305176</ele>
        <time>2024-05-20T11:16:08.000Z</time>
      </trkpt>
      <trkpt lat="46.18364" lon="4.78195">
        <ele>171.80000305176</ele>
        <time>2024-05-20T11:16:09.000Z</time>
      </trkpt>
      <trkpt lat="46.18357" lon="4.78195">
        <ele>172</ele>
        <time>2024-05-20T11:16:10.000Z</time>
      </trkpt>
      <trkpt lat="46.18351" lon="4.78196">
        <ele>172</ele>
        <time>2024-05-20T11:16:11.000Z</time>
      </trkpt>
      <trkpt lat="46.18345" lon="4.78196">
        <ele>172</ele>
        <time>2024-05-20T11:16:12.000Z</time>
      </trkpt>
      <trkpt lat="46.18339" lon="4.78196">
        <ele>172</ele>
        <time>2024-05-20T11:16:13.000Z</time>
      </trkpt>
      <trkpt lat="46.18333" lon="4.78196">
        <ele>172.19999694824</ele>
        <time>2024-05-20T11:16:14.000Z</time>
      </trkpt>
      <trkpt lat="46.18328" lon="4.78196">
        <ele>172.19999694824</ele>
        <time>2024-05-20T11:16:15.000Z</time>
      </trkpt>
      <trkpt lat="46.18322" lon="4.78196">
        <ele>172.19999694824</ele>
        <time>2024-05-20T11:16:16.000Z</time>
      </trkpt>
      <trkpt lat="46.18316" lon="4.78196">
        <ele>172.19999694824</ele>
        <time>2024-05-20T11:16:17.000Z</time>
      </trkpt>
      <trkpt lat="46.1831" lon="4.78196">
        <ele>172.19999694824</ele>
        <time>2024-05-20T11:16:18.000Z</time>
      </trkpt>
      <trkpt lat="46.18304" lon="4.78196">
        <ele>172.19999694824</ele>
        <time>2024-05-20T11:16:19.000Z</time>
      </trkpt>
      <trkpt lat="46.18298" lon="4.78197">
        <ele>172.19999694824</ele>
        <time>2024-05-20T11:16:20.000Z</time>
      </trkpt>
      <trkpt lat="46.18292" lon="4.78197">
        <ele>172</ele>
        <time>2024-05-20T11:16:21.000Z</time>
      </trkpt>
      <trkpt lat="46.18287" lon="4.78198">
        <ele>172</ele>
        <time>2024-05-20T11:16:22.000Z</time>
      </trkpt>
      <trkpt lat="46.18281" lon="4.78199">
        <ele>172</ele>
        <time>2024-05-20T11:16:23.000Z</time>
      </trkpt>
      <trkpt lat="46.18275" lon="4.78199">
        <ele>172</ele>
        <time>2024-05-20T11:16:24.000Z</time>
      </trkpt>
      <trkpt lat="46.18269" lon="4.782">
        <ele>172</ele>
        <time>2024-05-20T11:16:25.000Z</time>
      </trkpt>
      <trkpt lat="46.18263" lon="4.782">
        <ele>172</ele>
        <time>2024-05-20T11:16:26.000Z</time>
      </trkpt>
      <trkpt lat="46.18257" lon="4.78201">
        <ele>172</ele>
        <time>2024-05-20T11:16:27.000Z</time>
      </trkpt>
      <trkpt lat="46.18251" lon="4.78201">
        <ele>172</ele>
        <time>2024-05-20T11:16:28.000Z</time>
      </trkpt>
      <trkpt lat="46.18245" lon="4.78201">
        <ele>172</ele>
        <time>2024-05-20T11:16:29.000Z</time>
      </trkpt>
      <trkpt lat="46.1824" lon="4.78201">
        <ele>172</ele>
        <time>2024-05-20T11:16:30.000Z</time>
      </trkpt>
      <trkpt lat="46.18234" lon="4.78201">
        <ele>172</ele>
        <time>2024-05-20T11:16:31.000Z</time>
      </trkpt>
      <trkpt lat="46.18228" lon="4.78201">
        <ele>172</ele>
        <time>2024-05-20T11:16:32.000Z</time>
      </trkpt>
      <trkpt lat="46.18222" lon="4.78201">
        <ele>172</ele>
        <time>2024-05-20T11:16:33.000Z</time>
      </trkpt>
      <trkpt lat="46.18216" lon="4.78202">
        <ele>172</ele>
        <time>2024-05-20T11:16:34.000Z</time>
      </trkpt>
      <trkpt lat="46.1821" lon="4.78202">
        <ele>172</ele>
        <time>2024-05-20T11:16:35.000Z</time>
      </trkpt>
      <trkpt lat="46.18205" lon="4.78203">
        <ele>172</ele>
        <time>2024-05-20T11:16:36.000Z</time>
      </trkpt>
      <trkpt lat="46.18199" lon="4.78203">
        <ele>172</ele>
        <time>2024-05-20T11:16:37.000Z</time>
      </trkpt>
      <trkpt lat="46.18193" lon="4.78204">
        <ele>172</ele>
        <time>2024-05-20T11:16:38.000Z</time>
      </trkpt>
      <trkpt lat="46.18188" lon="4.78204">
        <ele>172</ele>
        <time>2024-05-20T11:16:39.000Z</time>
      </trkpt>
      <trkpt lat="46.18182" lon="4.78204">
        <ele>172</ele>
        <time>2024-05-20T11:16:40.000Z</time>
      </trkpt>
      <trkpt lat="46.18175" lon="4.78204">
        <ele>172</ele>
        <time>2024-05-20T11:16:41.000Z</time>
      </trkpt>
      <trkpt lat="46.18169" lon="4.78204">
        <ele>172</ele>
        <time>2024-05-20T11:16:42.000Z</time>
      </trkpt>
      <trkpt lat="46.18163" lon="4.78205">
        <ele>172</ele>
        <time>2024-05-20T11:16:43.000Z</time>
      </trkpt>
      <trkpt lat="46.18158" lon="4.78205">
        <ele>172</ele>
        <time>2024-05-20T11:16:44.000Z</time>
      </trkpt>
      <trkpt lat="46.18152" lon="4.78205">
        <ele>172</ele>
        <time>2024-05-20T11:16:45.000Z</time>
      </trkpt>
      <trkpt lat="46.18147" lon="4.78204">
        <ele>172</ele>
        <time>2024-05-20T11:16:46.000Z</time>
      </trkpt>
      <trkpt lat="46.18141" lon="4.78204">
        <ele>172</ele>
        <time>2024-05-20T11:16:47.000Z</time>
      </trkpt>
      <trkpt lat="46.18134" lon="4.78204">
        <ele>172</ele>
        <time>2024-05-20T11:16:48.000Z</time>
      </trkpt>
      <trkpt lat="46.18128" lon="4.78203">
        <ele>172</ele>
        <time>2024-05-20T11:16:49.000Z</time>
      </trkpt>
      <trkpt lat="46.18122" lon="4.78204">
        <ele>172</ele>
        <time>2024-05-20T11:16:50.000Z</time>
      </trkpt>
      <trkpt lat="46.18116" lon="4.78204">
        <ele>172</ele>
        <time>2024-05-20T11:16:51.000Z</time>
      </trkpt>
      <trkpt lat="46.1811" lon="4.78205">
        <ele>172</ele>
        <time>2024-05-20T11:16:52.000Z</time>
      </trkpt>
      <trkpt lat="46.18104" lon="4.78205">
        <ele>171.80000305176</ele>
        <time>2024-05-20T11:16:53.000Z</time>
      </trkpt>
      <trkpt lat="46.18098" lon="4.78205">
        <ele>171.80000305176</ele>
        <time>2024-05-20T11:16:54.000Z</time>
      </trkpt>
      <trkpt lat="46.18092" lon="4.78205">
        <ele>171.80000305176</ele>
        <time>2024-05-20T11:16:55.000Z</time>
      </trkpt>
      <trkpt lat="46.18086" lon="4.78205">
        <ele>171.60000610352</ele>
        <time>2024-05-20T11:16:56.000Z</time>
      </trkpt>
      <trkpt lat="46.1808" lon="4.78205">
        <ele>171.60000610352</ele>
        <time>2024-05-20T11:16:57.000Z</time>
      </trkpt>
      <trkpt lat="46.18073" lon="4.78205">
        <ele>171.60000610352</ele>
        <time>2024-05-20T11:16:58.000Z</time>
      </trkpt>
      <trkpt lat="46.18066" lon="4.78205">
        <ele>171.60000610352</ele>
        <time>2024-05-20T11:16:59.000Z</time>
      </trkpt>
      <trkpt lat="46.1806" lon="4.78205">
        <ele>171.60000610352</ele>
        <time>2024-05-20T11:17:00.000Z</time>
      </trkpt>
      <trkpt lat="46.18053" lon="4.78205">
        <ele>171.60000610352</ele>
        <time>2024-05-20T11:17:01.000Z</time>
      </trkpt>
      <trkpt lat="46.18047" lon="4.78206">
        <ele>171.60000610352</ele>
        <time>2024-05-20T11:17:02.000Z</time>
      </trkpt>
      <trkpt lat="46.1804" lon="4.78206">
        <ele>171.60000610352</ele>
        <time>2024-05-20T11:17:03.000Z</time>
      </trkpt>
      <trkpt lat="46.18033" lon="4.78205">
        <ele>171.60000610352</ele>
        <time>2024-05-20T11:17:04.000Z</time>
      </trkpt>
      <trkpt lat="46.18026" lon="4.78205">
        <ele>171.60000610352</ele>
        <time>2024-05-20T11:17:05.000Z</time>
      </trkpt>
      <trkpt lat="46.1802" lon="4.78206">
        <ele>171.60000610352</ele>
        <time>2024-05-20T11:17:06.000Z</time>
      </trkpt>
      <trkpt lat="46.18013" lon="4.78208">
        <ele>171.80000305176</ele>
        <time>2024-05-20T11:17:07.000Z</time>
      </trkpt>
      <trkpt lat="46.18007" lon="4.78209">
        <ele>171.80000305176</ele>
        <time>2024-05-20T11:17:08.000Z</time>
      </trkpt>
      <trkpt lat="46.18002" lon="4.78209">
        <ele>171.80000305176</ele>
        <time>2024-05-20T11:17:09.000Z</time>
      </trkpt>
      <trkpt lat="46.17996" lon="4.78209">
        <ele>171.80000305176</ele>
        <time>2024-05-20T11:17:10.000Z</time>
      </trkpt>
      <trkpt lat="46.17991" lon="4.78209">
        <ele>171.80000305176</ele>
        <time>2024-05-20T11:17:11.000Z</time>
      </trkpt>
      <trkpt lat="46.17985" lon="4.78209">
        <ele>171.80000305176</ele>
        <time>2024-05-20T11:17:12.000Z</time>
      </trkpt>
      <trkpt lat="46.1798" lon="4.78209">
        <ele>171.80000305176</ele>
        <time>2024-05-20T11:17:13.000Z</time>
      </trkpt>
      <trkpt lat="46.17975" lon="4.78209">
        <ele>171.80000305176</ele>
        <time>2024-05-20T11:17:14.000Z</time>
      </trkpt>
      <trkpt lat="46.1797" lon="4.78209">
        <ele>172</ele>
        <time>2024-05-20T11:17:15.000Z</time>
      </trkpt>
      <trkpt lat="46.17965" lon="4.7821">
        <ele>172</ele>
        <time>2024-05-20T11:17:16.000Z</time>
      </trkpt>
      <trkpt lat="46.17959" lon="4.7821">
        <ele>172</ele>
        <time>2024-05-20T11:17:17.000Z</time>
      </trkpt>
      <trkpt lat="46.17954" lon="4.7821">
        <ele>171.80000305176</ele>
        <time>2024-05-20T11:17:18.000Z</time>
      </trkpt>
      <trkpt lat="46.17948" lon="4.7821">
        <ele>171.80000305176</ele>
        <time>2024-05-20T11:17:19.000Z</time>
      </trkpt>
      <trkpt lat="46.17942" lon="4.78211">
        <ele>171.80000305176</ele>
        <time>2024-05-20T11:17:20.000Z</time>
      </trkpt>
      <trkpt lat="46.17936" lon="4.78212">
        <ele>171.60000610352</ele>
        <time>2024-05-20T11:17:21.000Z</time>
      </trkpt>
      <trkpt lat="46.17931" lon="4.78213">
        <ele>171.60000610352</ele>
        <time>2024-05-20T11:17:22.000Z</time>
      </trkpt>
      <trkpt lat="46.17926" lon="4.78214">
        <ele>171.60000610352</ele>
        <time>2024-05-20T11:17:23.000Z</time>
      </trkpt>
      <trkpt lat="46.1792" lon="4.78215">
        <ele>171.60000610352</ele>
        <time>2024-05-20T11:17:24.000Z</time>
      </trkpt>
      <trkpt lat="46.17914" lon="4.78216">
        <ele>171.60000610352</ele>
        <time>2024-05-20T11:17:25.000Z</time>
      </trkpt>
      <trkpt lat="46.17908" lon="4.78217">
        <ele>171.39999389648</ele>
        <time>2024-05-20T11:17:26.000Z</time>
      </trkpt>
      <trkpt lat="46.17901" lon="4.78218">
        <ele>171.39999389648</ele>
        <time>2024-05-20T11:17:27.000Z</time>
      </trkpt>
      <trkpt lat="46.17895" lon="4.78219">
        <ele>171.39999389648</ele>
        <time>2024-05-20T11:17:28.000Z</time>
      </trkpt>
      <trkpt lat="46.17889" lon="4.78219">
        <ele>171.39999389648</ele>
        <time>2024-05-20T11:17:29.000Z</time>
      </trkpt>
      <trkpt lat="46.17883" lon="4.7822">
        <ele>171.39999389648</ele>
        <time>2024-05-20T11:17:30.000Z</time>
      </trkpt>
      <trkpt lat="46.17877" lon="4.7822">
        <ele>171.39999389648</ele>
        <time>2024-05-20T11:17:31.000Z</time>
      </trkpt>
      <trkpt lat="46.17871" lon="4.7822">
        <ele>171.39999389648</ele>
        <time>2024-05-20T11:17:32.000Z</time>
      </trkpt>
      <trkpt lat="46.17864" lon="4.7822">
        <ele>171.19999694824</ele>
        <time>2024-05-20T11:17:33.000Z</time>
      </trkpt>
      <trkpt lat="46.17857" lon="4.7822">
        <ele>171.19999694824</ele>
        <time>2024-05-20T11:17:34.000Z</time>
      </trkpt>
      <trkpt lat="46.17851" lon="4.7822">
        <ele>171.19999694824</ele>
        <time>2024-05-20T11:17:35.000Z</time>
      </trkpt>
      <trkpt lat="46.17845" lon="4.78221">
        <ele>171.19999694824</ele>
        <time>2024-05-20T11:17:36.000Z</time>
      </trkpt>
      <trkpt lat="46.17838" lon="4.78221">
        <ele>171</ele>
        <time>2024-05-20T11:17:37.000Z</time>
      </trkpt>
      <trkpt lat="46.17832" lon="4.78221">
        <ele>171</ele>
        <time>2024-05-20T11:17:38.000Z</time>
      </trkpt>
      <trkpt lat="46.17826" lon="4.78221">
        <ele>171</ele>
        <time>2024-05-20T11:17:39.000Z</time>
      </trkpt>
      <trkpt lat="46.1782" lon="4.7822">
        <ele>171</ele>
        <time>2024-05-20T11:17:40.000Z</time>
      </trkpt>
      <trkpt lat="46.17814" lon="4.7822">
        <ele>171</ele>
        <time>2024-05-20T11:17:41.000Z</time>
      </trkpt>
      <trkpt lat="46.17807" lon="4.7822">
        <ele>171</ele>
        <time>2024-05-20T11:17:42.000Z</time>
      </trkpt>
      <trkpt lat="46.17801" lon="4.7822">
        <ele>171.19999694824</ele>
        <time>2024-05-20T11:17:43.000Z</time>
      </trkpt>
      <trkpt lat="46.17794" lon="4.78221">
        <ele>171.39999389648</ele>
        <time>2024-05-20T11:17:44.000Z</time>
      </trkpt>
      <trkpt lat="46.17788" lon="4.78222">
        <ele>171.39999389648</ele>
        <time>2024-05-20T11:17:45.000Z</time>
      </trkpt>
      <trkpt lat="46.17782" lon="4.78223">
        <ele>171.39999389648</ele>
        <time>2024-05-20T11:17:46.000Z</time>
      </trkpt>
      <trkpt lat="46.17776" lon="4.78224">
        <ele>171.39999389648</ele>
        <time>2024-05-20T11:17:47.000Z</time>
      </trkpt>
      <trkpt lat="46.1777" lon="4.78224">
        <ele>171.39999389648</ele>
        <time>2024-05-20T11:17:48.000Z</time>
      </trkpt>
      <trkpt lat="46.17764" lon="4.78225">
        <ele>171.39999389648</ele>
        <time>2024-05-20T11:17:49.000Z</time>
      </trkpt>
      <trkpt lat="46.17758" lon="4.78226">
        <ele>171.39999389648</ele>
        <time>2024-05-20T11:17:50.000Z</time>
      </trkpt>
      <trkpt lat="46.17752" lon="4.78226">
        <ele>171.39999389648</ele>
        <time>2024-05-20T11:17:51.000Z</time>
      </trkpt>
      <trkpt lat="46.17745" lon="4.78227">
        <ele>171.39999389648</ele>
        <time>2024-05-20T11:17:52.000Z</time>
      </trkpt>
      <trkpt lat="46.1774" lon="4.78228">
        <ele>171.39999389648</ele>
        <time>2024-05-20T11:17:53.000Z</time>
      </trkpt>
      <trkpt lat="46.17734" lon="4.78228">
        <ele>171.39999389648</ele>
        <time>2024-05-20T11:17:54.000Z</time>
      </trkpt>
      <trkpt lat="46.17727" lon="4.78229">
        <ele>171.39999389648</ele>
        <time>2024-05-20T11:17:55.000Z</time>
      </trkpt>
      <trkpt lat="46.17722" lon="4.7823">
        <ele>171.39999389648</ele>
        <time>2024-05-20T11:17:56.000Z</time>
      </trkpt>
      <trkpt lat="46.17716" lon="4.7823">
        <ele>171.39999389648</ele>
        <time>2024-05-20T11:17:57.000Z</time>
      </trkpt>
      <trkpt lat="46.1771" lon="4.7823">
        <ele>171.60000610352</ele>
        <time>2024-05-20T11:17:58.000Z</time>
      </trkpt>
      <trkpt lat="46.17704" lon="4.78231">
        <ele>171.60000610352</ele>
        <time>2024-05-20T11:17:59.000Z</time>
      </trkpt>
      <trkpt lat="46.17698" lon="4.78232">
        <ele>171.60000610352</ele>
        <time>2024-05-20T11:18:00.000Z</time>
      </trkpt>
      <trkpt lat="46.17692" lon="4.78233">
        <ele>171.60000610352</ele>
        <time>2024-05-20T11:18:01.000Z</time>
      </trkpt>
      <trkpt lat="46.17685" lon="4.78235">
        <ele>171.60000610352</ele>
        <time>2024-05-20T11:18:02.000Z</time>
      </trkpt>
      <trkpt lat="46.17679" lon="4.78237">
        <ele>171.60000610352</ele>
        <time>2024-05-20T11:18:03.000Z</time>
      </trkpt>
      <trkpt lat="46.17673" lon="4.78239">
        <ele>171.60000610352</ele>
        <time>2024-05-20T11:18:04.000Z</time>
      </trkpt>
      <trkpt lat="46.17667" lon="4.7824">
        <ele>171.60000610352</ele>
        <time>2024-05-20T11:18:05.000Z</time>
      </trkpt>
      <trkpt lat="46.17661" lon="4.78241">
        <ele>171.60000610352</ele>
        <time>2024-05-20T11:18:06.000Z</time>
      </trkpt>
      <trkpt lat="46.17655" lon="4.78242">
        <ele>171.80000305176</ele>
        <time>2024-05-20T11:18:07.000Z</time>
      </trkpt>
      <trkpt lat="46.17648" lon="4.78243">
        <ele>171.80000305176</ele>
        <time>2024-05-20T11:18:08.000Z</time>
      </trkpt>
      <trkpt lat="46.17642" lon="4.78245">
        <ele>172</ele>
        <time>2024-05-20T11:18:09.000Z</time>
      </trkpt>
      <trkpt lat="46.17635" lon="4.78246">
        <ele>172</ele>
        <time>2024-05-20T11:18:10.000Z</time>
      </trkpt>
      <trkpt lat="46.17629" lon="4.78248">
        <ele>172</ele>
        <time>2024-05-20T11:18:11.000Z</time>
      </trkpt>
      <trkpt lat="46.17622" lon="4.78249">
        <ele>172</ele>
        <time>2024-05-20T11:18:12.000Z</time>
      </trkpt>
      <trkpt lat="46.17616" lon="4.7825">
        <ele>172</ele>
        <time>2024-05-20T11:18:13.000Z</time>
      </trkpt>
      <trkpt lat="46.1761" lon="4.7825">
        <ele>172</ele>
        <time>2024-05-20T11:18:14.000Z</time>
      </trkpt>
      <trkpt lat="46.17603" lon="4.7825">
        <ele>172</ele>
        <time>2024-05-20T11:18:15.000Z</time>
      </trkpt>
      <trkpt lat="46.17596" lon="4.78251">
        <ele>172</ele>
        <time>2024-05-20T11:18:16.000Z</time>
      </trkpt>
      <trkpt lat="46.17589" lon="4.78251">
        <ele>172</ele>
        <time>2024-05-20T11:18:17.000Z</time>
      </trkpt>
      <trkpt lat="46.17582" lon="4.78252">
        <ele>172</ele>
        <time>2024-05-20T11:18:18.000Z</time>
      </trkpt>
      <trkpt lat="46.17576" lon="4.78253">
        <ele>172</ele>
        <time>2024-05-20T11:18:19.000Z</time>
      </trkpt>
      <trkpt lat="46.17569" lon="4.78253">
        <ele>172</ele>
        <time>2024-05-20T11:18:20.000Z</time>
      </trkpt>
      <trkpt lat="46.17563" lon="4.78255">
        <ele>172</ele>
        <time>2024-05-20T11:18:21.000Z</time>
      </trkpt>
      <trkpt lat="46.17556" lon="4.78256">
        <ele>172</ele>
        <time>2024-05-20T11:18:22.000Z</time>
      </trkpt>
      <trkpt lat="46.17549" lon="4.78257">
        <ele>172</ele>
        <time>2024-05-20T11:18:23.000Z</time>
      </trkpt>
      <trkpt lat="46.17543" lon="4.78259">
        <ele>172</ele>
        <time>2024-05-20T11:18:24.000Z</time>
      </trkpt>
      <trkpt lat="46.17537" lon="4.78261">
        <ele>172</ele>
        <time>2024-05-20T11:18:25.000Z</time>
      </trkpt>
      <trkpt lat="46.17532" lon="4.78263">
        <ele>172</ele>
        <time>2024-05-20T11:18:26.000Z</time>
      </trkpt>
      <trkpt lat="46.17526" lon="4.78265">
        <ele>172</ele>
        <time>2024-05-20T11:18:27.000Z</time>
      </trkpt>
      <trkpt lat="46.17518" lon="4.78267">
        <ele>172</ele>
        <time>2024-05-20T11:18:28.000Z</time>
      </trkpt>
      <trkpt lat="46.17512" lon="4.78268">
        <ele>172</ele>
        <time>2024-05-20T11:18:29.000Z</time>
      </trkpt>
      <trkpt lat="46.17505" lon="4.7827">
        <ele>172</ele>
        <time>2024-05-20T11:18:30.000Z</time>
      </trkpt>
      <trkpt lat="46.17499" lon="4.78272">
        <ele>172</ele>
        <time>2024-05-20T11:18:31.000Z</time>
      </trkpt>
      <trkpt lat="46.17494" lon="4.78273">
        <ele>171.80000305176</ele>
        <time>2024-05-20T11:18:32.000Z</time>
      </trkpt>
      <trkpt lat="46.17488" lon="4.78274">
        <ele>171.80000305176</ele>
        <time>2024-05-20T11:18:33.000Z</time>
      </trkpt>
      <trkpt lat="46.17482" lon="4.78275">
        <ele>171.80000305176</ele>
        <time>2024-05-20T11:18:34.000Z</time>
      </trkpt>
      <trkpt lat="46.17476" lon="4.78277">
        <ele>171.80000305176</ele>
        <time>2024-05-20T11:18:35.000Z</time>
      </trkpt>
      <trkpt lat="46.1747" lon="4.78278">
        <ele>171.80000305176</ele>
        <time>2024-05-20T11:18:36.000Z</time>
      </trkpt>
      <trkpt lat="46.17464" lon="4.7828">
        <ele>171.80000305176</ele>
        <time>2024-05-20T11:18:37.000Z</time>
      </trkpt>
      <trkpt lat="46.17458" lon="4.78281">
        <ele>171.80000305176</ele>
        <time>2024-05-20T11:18:38.000Z</time>
      </trkpt>
      <trkpt lat="46.17452" lon="4.78283">
        <ele>171.80000305176</ele>
        <time>2024-05-20T11:18:39.000Z</time>
      </trkpt>
      <trkpt lat="46.17446" lon="4.78284">
        <ele>171.80000305176</ele>
        <time>2024-05-20T11:18:40.000Z</time>
      </trkpt>
      <trkpt lat="46.1744" lon="4.78286">
        <ele>171.80000305176</ele>
        <time>2024-05-20T11:18:41.000Z</time>
      </trkpt>
      <trkpt lat="46.17434" lon="4.78287">
        <ele>171.80000305176</ele>
        <time>2024-05-20T11:18:42.000Z</time>
      </trkpt>
      <trkpt lat="46.17428" lon="4.78288">
        <ele>171.80000305176</ele>
        <time>2024-05-20T11:18:43.000Z</time>
      </trkpt>
      <trkpt lat="46.17422" lon="4.78289">
        <ele>171.80000305176</ele>
        <time>2024-05-20T11:18:44.000Z</time>
      </trkpt>
      <trkpt lat="46.17416" lon="4.7829">
        <ele>172</ele>
        <time>2024-05-20T11:18:45.000Z</time>
      </trkpt>
      <trkpt lat="46.1741" lon="4.78291">
        <ele>172</ele>
        <time>2024-05-20T11:18:46.000Z</time>
      </trkpt>
      <trkpt lat="46.17404" lon="4.78292">
        <ele>172.19999694824</ele>
        <time>2024-05-20T11:18:47.000Z</time>
      </trkpt>
      <trkpt lat="46.17398" lon="4.78294">
        <ele>172.19999694824</ele>
        <time>2024-05-20T11:18:48.000Z</time>
      </trkpt>
      <trkpt lat="46.17392" lon="4.78296">
        <ele>172.19999694824</ele>
        <time>2024-05-20T11:18:49.000Z</time>
      </trkpt>
      <trkpt lat="46.17387" lon="4.78298">
        <ele>172.19999694824</ele>
        <time>2024-05-20T11:18:50.000Z</time>
      </trkpt>
      <trkpt lat="46.1738" lon="4.783">
        <ele>172.19999694824</ele>
        <time>2024-05-20T11:18:51.000Z</time>
      </trkpt>
      <trkpt lat="46.17374" lon="4.78301">
        <ele>172.19999694824</ele>
        <time>2024-05-20T11:18:52.000Z</time>
      </trkpt>
      <trkpt lat="46.17368" lon="4.78302">
        <ele>172.39999389648</ele>
        <time>2024-05-20T11:18:53.000Z</time>
      </trkpt>
      <trkpt lat="46.17362" lon="4.78303">
        <ele>172.39999389648</ele>
        <time>2024-05-20T11:18:54.000Z</time>
      </trkpt>
      <trkpt lat="46.17356" lon="4.78305">
        <ele>172.39999389648</ele>
        <time>2024-05-20T11:18:55.000Z</time>
      </trkpt>
      <trkpt lat="46.17351" lon="4.78307">
        <ele>172.39999389648</ele>
        <time>2024-05-20T11:18:56.000Z</time>
      </trkpt>
      <trkpt lat="46.17345" lon="4.7831">
        <ele>172.39999389648</ele>
        <time>2024-05-20T11:18:57.000Z</time>
      </trkpt>
      <trkpt lat="46.17339" lon="4.78312">
        <ele>172.19999694824</ele>
        <time>2024-05-20T11:18:58.000Z</time>
      </trkpt>
      <trkpt lat="46.17333" lon="4.78314">
        <ele>172.19999694824</ele>
        <time>2024-05-20T11:18:59.000Z</time>
      </trkpt>
      <trkpt lat="46.17326" lon="4.78317">
        <ele>172.19999694824</ele>
        <time>2024-05-20T11:19:00.000Z</time>
      </trkpt>
      <trkpt lat="46.1732" lon="4.78319">
        <ele>172.19999694824</ele>
        <time>2024-05-20T11:19:01.000Z</time>
      </trkpt>
      <trkpt lat="46.17314" lon="4.78323">
        <ele>172.19999694824</ele>
        <time>2024-05-20T11:19:02.000Z</time>
      </trkpt>
      <trkpt lat="46.17309" lon="4.78326">
        <ele>172.19999694824</ele>
        <time>2024-05-20T11:19:03.000Z</time>
      </trkpt>
      <trkpt lat="46.17303" lon="4.78329">
        <ele>172.19999694824</ele>
        <time>2024-05-20T11:19:04.000Z</time>
      </trkpt>
      <trkpt lat="46.17297" lon="4.78332">
        <ele>172.19999694824</ele>
        <time>2024-05-20T11:19:05.000Z</time>
      </trkpt>
      <trkpt lat="46.17291" lon="4.78335">
        <ele>172.19999694824</ele>
        <time>2024-05-20T11:19:06.000Z</time>
      </trkpt>
      <trkpt lat="46.17285" lon="4.78338">
        <ele>172.19999694824</ele>
        <time>2024-05-20T11:19:07.000Z</time>
      </trkpt>
      <trkpt lat="46.17279" lon="4.78342">
        <ele>172.19999694824</ele>
        <time>2024-05-20T11:19:08.000Z</time>
      </trkpt>
      <trkpt lat="46.17273" lon="4.78345">
        <ele>172.19999694824</ele>
        <time>2024-05-20T11:19:09.000Z</time>
      </trkpt>
      <trkpt lat="46.17267" lon="4.78348">
        <ele>172.19999694824</ele>
        <time>2024-05-20T11:19:10.000Z</time>
      </trkpt>
      <trkpt lat="46.17261" lon="4.78351">
        <ele>172.19999694824</ele>
        <time>2024-05-20T11:19:11.000Z</time>
      </trkpt>
      <trkpt lat="46.17256" lon="4.78355">
        <ele>172.19999694824</ele>
        <time>2024-05-20T11:19:12.000Z</time>
      </trkpt>
      <trkpt lat="46.1725" lon="4.78358">
        <ele>172.19999694824</ele>
        <time>2024-05-20T11:19:13.000Z</time>
      </trkpt>
      <trkpt lat="46.17244" lon="4.78362">
        <ele>172.19999694824</ele>
        <time>2024-05-20T11:19:14.000Z</time>
      </trkpt>
      <trkpt lat="46.17239" lon="4.78364">
        <ele>172.19999694824</ele>
        <time>2024-05-20T11:19:15.000Z</time>
      </trkpt>
      <trkpt lat="46.17233" lon="4.78367">
        <ele>172.19999694824</ele>
        <time>2024-05-20T11:19:16.000Z</time>
      </trkpt>
      <trkpt lat="46.17227" lon="4.7837">
        <ele>172.19999694824</ele>
        <time>2024-05-20T11:19:17.000Z</time>
      </trkpt>
      <trkpt lat="46.17221" lon="4.78373">
        <ele>172.19999694824</ele>
        <time>2024-05-20T11:19:18.000Z</time>
      </trkpt>
      <trkpt lat="46.17216" lon="4.78375">
        <ele>172.19999694824</ele>
        <time>2024-05-20T11:19:19.000Z</time>
      </trkpt>
      <trkpt lat="46.1721" lon="4.78378">
        <ele>172.19999694824</ele>
        <time>2024-05-20T11:19:20.000Z</time>
      </trkpt>
      <trkpt lat="46.17205" lon="4.78381">
        <ele>172.19999694824</ele>
        <time>2024-05-20T11:19:21.000Z</time>
      </trkpt>
      <trkpt lat="46.172" lon="4.78384">
        <ele>172.39999389648</ele>
        <time>2024-05-20T11:19:22.000Z</time>
      </trkpt>
      <trkpt lat="46.17195" lon="4.78387">
        <ele>172.39999389648</ele>
        <time>2024-05-20T11:19:23.000Z</time>
      </trkpt>
      <trkpt lat="46.17189" lon="4.7839">
        <ele>172.60000610352</ele>
        <time>2024-05-20T11:19:24.000Z</time>
      </trkpt>
      <trkpt lat="46.17184" lon="4.78393">
        <ele>172.60000610352</ele>
        <time>2024-05-20T11:19:25.000Z</time>
      </trkpt>
      <trkpt lat="46.17179" lon="4.78396">
        <ele>172.60000610352</ele>
        <time>2024-05-20T11:19:26.000Z</time>
      </trkpt>
      <trkpt lat="46.17173" lon="4.784">
        <ele>172.60000610352</ele>
        <time>2024-05-20T11:19:27.000Z</time>
      </trkpt>
      <trkpt lat="46.17168" lon="4.78403">
        <ele>172.60000610352</ele>
        <time>2024-05-20T11:19:28.000Z</time>
      </trkpt>
      <trkpt lat="46.17163" lon="4.78407">
        <ele>172.60000610352</ele>
        <time>2024-05-20T11:19:29.000Z</time>
      </trkpt>
      <trkpt lat="46.17157" lon="4.7841">
        <ele>172.60000610352</ele>
        <time>2024-05-20T11:19:30.000Z</time>
      </trkpt>
      <trkpt lat="46.1715" lon="4.78414">
        <ele>172.60000610352</ele>
        <time>2024-05-20T11:19:31.000Z</time>
      </trkpt>
      <trkpt lat="46.17145" lon="4.78418">
        <ele>172.60000610352</ele>
        <time>2024-05-20T11:19:32.000Z</time>
      </trkpt>
      <trkpt lat="46.17138" lon="4.78422">
        <ele>172.60000610352</ele>
        <time>2024-05-20T11:19:33.000Z</time>
      </trkpt>
      <trkpt lat="46.17132" lon="4.78425">
        <ele>172.60000610352</ele>
        <time>2024-05-20T11:19:34.000Z</time>
      </trkpt>
      <trkpt lat="46.17125" lon="4.78428">
        <ele>172.39999389648</ele>
        <time>2024-05-20T11:19:35.000Z</time>
      </trkpt>
      <trkpt lat="46.17119" lon="4.78432">
        <ele>172.39999389648</ele>
        <time>2024-05-20T11:19:36.000Z</time>
      </trkpt>
      <trkpt lat="46.17114" lon="4.78435">
        <ele>172.39999389648</ele>
        <time>2024-05-20T11:19:37.000Z</time>
      </trkpt>
      <trkpt lat="46.17108" lon="4.78439">
        <ele>172.39999389648</ele>
        <time>2024-05-20T11:19:38.000Z</time>
      </trkpt>
      <trkpt lat="46.17102" lon="4.78443">
        <ele>172.19999694824</ele>
        <time>2024-05-20T11:19:39.000Z</time>
      </trkpt>
      <trkpt lat="46.17095" lon="4.78447">
        <ele>172.19999694824</ele>
        <time>2024-05-20T11:19:40.000Z</time>
      </trkpt>
      <trkpt lat="46.17089" lon="4.7845">
        <ele>172.19999694824</ele>
        <time>2024-05-20T11:19:41.000Z</time>
      </trkpt>
      <trkpt lat="46.17083" lon="4.78454">
        <ele>172.19999694824</ele>
        <time>2024-05-20T11:19:42.000Z</time>
      </trkpt>
      <trkpt lat="46.17077" lon="4.78458">
        <ele>172.19999694824</ele>
        <time>2024-05-20T11:19:43.000Z</time>
      </trkpt>
      <trkpt lat="46.1707" lon="4.78461">
        <ele>172.19999694824</ele>
        <time>2024-05-20T11:19:44.000Z</time>
      </trkpt>
      <trkpt lat="46.17065" lon="4.78465">
        <ele>172.19999694824</ele>
        <time>2024-05-20T11:19:45.000Z</time>
      </trkpt>
      <trkpt lat="46.17059" lon="4.7847">
        <ele>172.19999694824</ele>
        <time>2024-05-20T11:19:46.000Z</time>
      </trkpt>
      <trkpt lat="46.17053" lon="4.78474">
        <ele>172.19999694824</ele>
        <time>2024-05-20T11:19:47.000Z</time>
      </trkpt>
      <trkpt lat="46.17046" lon="4.78478">
        <ele>172.19999694824</ele>
        <time>2024-05-20T11:19:48.000Z</time>
      </trkpt>
      <trkpt lat="46.17041" lon="4.78481">
        <ele>172.19999694824</ele>
        <time>2024-05-20T11:19:49.000Z</time>
      </trkpt>
      <trkpt lat="46.17035" lon="4.78484">
        <ele>172.19999694824</ele>
        <time>2024-05-20T11:19:50.000Z</time>
      </trkpt>
      <trkpt lat="46.17029" lon="4.78488">
        <ele>172.19999694824</ele>
        <time>2024-05-20T11:19:51.000Z</time>
      </trkpt>
      <trkpt lat="46.17023" lon="4.78491">
        <ele>172.19999694824</ele>
        <time>2024-05-20T11:19:52.000Z</time>
      </trkpt>
      <trkpt lat="46.17017" lon="4.78493">
        <ele>172.19999694824</ele>
        <time>2024-05-20T11:19:53.000Z</time>
      </trkpt>
      <trkpt lat="46.17011" lon="4.78496">
        <ele>172.19999694824</ele>
        <time>2024-05-20T11:19:54.000Z</time>
      </trkpt>
      <trkpt lat="46.17005" lon="4.78499">
        <ele>172.19999694824</ele>
        <time>2024-05-20T11:19:55.000Z</time>
      </trkpt>
      <trkpt lat="46.16999" lon="4.78501">
        <ele>172.19999694824</ele>
        <time>2024-05-20T11:19:56.000Z</time>
      </trkpt>
      <trkpt lat="46.16993" lon="4.78504">
        <ele>172.19999694824</ele>
        <time>2024-05-20T11:19:57.000Z</time>
      </trkpt>
      <trkpt lat="46.16986" lon="4.78507">
        <ele>172.19999694824</ele>
        <time>2024-05-20T11:19:58.000Z</time>
      </trkpt>
      <trkpt lat="46.16981" lon="4.78511">
        <ele>172.19999694824</ele>
        <time>2024-05-20T11:19:59.000Z</time>
      </trkpt>
      <trkpt lat="46.16975" lon="4.78516">
        <ele>172.19999694824</ele>
        <time>2024-05-20T11:20:00.000Z</time>
      </trkpt>
      <trkpt lat="46.16969" lon="4.7852">
        <ele>172.19999694824</ele>
        <time>2024-05-20T11:20:01.000Z</time>
      </trkpt>
      <trkpt lat="46.16963" lon="4.78525">
        <ele>172</ele>
        <time>2024-05-20T11:20:02.000Z</time>
      </trkpt>
      <trkpt lat="46.16958" lon="4.78529">
        <ele>172</ele>
        <time>2024-05-20T11:20:03.000Z</time>
      </trkpt>
      <trkpt lat="46.16952" lon="4.78533">
        <ele>172</ele>
        <time>2024-05-20T11:20:04.000Z</time>
      </trkpt>
      <trkpt lat="46.16946" lon="4.78538">
        <ele>172</ele>
        <time>2024-05-20T11:20:05.000Z</time>
      </trkpt>
      <trkpt lat="46.1694" lon="4.78542">
        <ele>172</ele>
        <time>2024-05-20T11:20:06.000Z</time>
      </trkpt>
      <trkpt lat="46.16935" lon="4.78547">
        <ele>172</ele>
        <time>2024-05-20T11:20:07.000Z</time>
      </trkpt>
      <trkpt lat="46.16929" lon="4.78551">
        <ele>171.80000305176</ele>
        <time>2024-05-20T11:20:08.000Z</time>
      </trkpt>
      <trkpt lat="46.16923" lon="4.78556">
        <ele>171.80000305176</ele>
        <time>2024-05-20T11:20:09.000Z</time>
      </trkpt>
      <trkpt lat="46.16918" lon="4.7856">
        <ele>171.80000305176</ele>
        <time>2024-05-20T11:20:10.000Z</time>
      </trkpt>
      <trkpt lat="46.16912" lon="4.78564">
        <ele>171.80000305176</ele>
        <time>2024-05-20T11:20:11.000Z</time>
      </trkpt>
      <trkpt lat="46.16906" lon="4.78568">
        <ele>171.80000305176</ele>
        <time>2024-05-20T11:20:12.000Z</time>
      </trkpt>
      <trkpt lat="46.169" lon="4.78572">
        <ele>171.80000305176</ele>
        <time>2024-05-20T11:20:13.000Z</time>
      </trkpt>
      <trkpt lat="46.16894" lon="4.78577">
        <ele>171.80000305176</ele>
        <time>2024-05-20T11:20:14.000Z</time>
      </trkpt>
      <trkpt lat="46.16889" lon="4.78581">
        <ele>171.80000305176</ele>
        <time>2024-05-20T11:20:15.000Z</time>
      </trkpt>
      <trkpt lat="46.16883" lon="4.78585">
        <ele>171.80000305176</ele>
        <time>2024-05-20T11:20:16.000Z</time>
      </trkpt>
      <trkpt lat="46.16877" lon="4.78589">
        <ele>171.80000305176</ele>
        <time>2024-05-20T11:20:17.000Z</time>
      </trkpt>
      <trkpt lat="46.16872" lon="4.78593">
        <ele>171.80000305176</ele>
        <time>2024-05-20T11:20:18.000Z</time>
      </trkpt>
      <trkpt lat="46.16866" lon="4.78596">
        <ele>172</ele>
        <time>2024-05-20T11:20:19.000Z</time>
      </trkpt>
      <trkpt lat="46.16859" lon="4.78599">
        <ele>172</ele>
        <time>2024-05-20T11:20:20.000Z</time>
      </trkpt>
      <trkpt lat="46.16853" lon="4.78602">
        <ele>172</ele>
        <time>2024-05-20T11:20:21.000Z</time>
      </trkpt>
      <trkpt lat="46.16847" lon="4.78604">
        <ele>172</ele>
        <time>2024-05-20T11:20:22.000Z</time>
      </trkpt>
      <trkpt lat="46.16841" lon="4.78606">
        <ele>172</ele>
        <time>2024-05-20T11:20:23.000Z</time>
      </trkpt>
      <trkpt lat="46.16835" lon="4.78608">
        <ele>171.80000305176</ele>
        <time>2024-05-20T11:20:24.000Z</time>
      </trkpt>
      <trkpt lat="46.1683" lon="4.78611">
        <ele>171.80000305176</ele>
        <time>2024-05-20T11:20:25.000Z</time>
      </trkpt>
      <trkpt lat="46.16824" lon="4.78615">
        <ele>171.80000305176</ele>
        <time>2024-05-20T11:20:26.000Z</time>
      </trkpt>
      <trkpt lat="46.16819" lon="4.78619">
        <ele>171.80000305176</ele>
        <time>2024-05-20T11:20:27.000Z</time>
      </trkpt>
      <trkpt lat="46.16815" lon="4.78624">
        <ele>171.80000305176</ele>
        <time>2024-05-20T11:20:28.000Z</time>
      </trkpt>
      <trkpt lat="46.1681" lon="4.78628">
        <ele>171.80000305176</ele>
        <time>2024-05-20T11:20:29.000Z</time>
      </trkpt>
      <trkpt lat="46.16806" lon="4.78633">
        <ele>171.80000305176</ele>
        <time>2024-05-20T11:20:30.000Z</time>
      </trkpt>
      <trkpt lat="46.16802" lon="4.78639">
        <ele>171.80000305176</ele>
        <time>2024-05-20T11:20:31.000Z</time>
      </trkpt>
      <trkpt lat="46.16797" lon="4.78644">
        <ele>171.80000305176</ele>
        <time>2024-05-20T11:20:32.000Z</time>
      </trkpt>
      <trkpt lat="46.16793" lon="4.78649">
        <ele>171.80000305176</ele>
        <time>2024-05-20T11:20:33.000Z</time>
      </trkpt>
      <trkpt lat="46.16789" lon="4.78654">
        <ele>171.80000305176</ele>
        <time>2024-05-20T11:20:34.000Z</time>
      </trkpt>
      <trkpt lat="46.16784" lon="4.78659">
        <ele>171.80000305176</ele>
        <time>2024-05-20T11:20:35.000Z</time>
      </trkpt>
      <trkpt lat="46.1678" lon="4.78664">
        <ele>171.80000305176</ele>
        <time>2024-05-20T11:20:36.000Z</time>
      </trkpt>
      <trkpt lat="46.16776" lon="4.78669">
        <ele>171.80000305176</ele>
        <time>2024-05-20T11:20:37.000Z</time>
      </trkpt>
      <trkpt lat="46.16772" lon="4.78674">
        <ele>171.80000305176</ele>
        <time>2024-05-20T11:20:38.000Z</time>
      </trkpt>
      <trkpt lat="46.16768" lon="4.78679">
        <ele>171.80000305176</ele>
        <time>2024-05-20T11:20:39.000Z</time>
      </trkpt>
      <trkpt lat="46.16765" lon="4.78683">
        <ele>171.80000305176</ele>
        <time>2024-05-20T11:20:40.000Z</time>
      </trkpt>
      <trkpt lat="46.16761" lon="4.78687">
        <ele>171.80000305176</ele>
        <time>2024-05-20T11:20:41.000Z</time>
      </trkpt>
      <trkpt lat="46.16757" lon="4.78691">
        <ele>171.80000305176</ele>
        <time>2024-05-20T11:20:42.000Z</time>
      </trkpt>
      <trkpt lat="46.16753" lon="4.78694">
        <ele>172</ele>
        <time>2024-05-20T11:20:43.000Z</time>
      </trkpt>
      <trkpt lat="46.16749" lon="4.78698">
        <ele>172</ele>
        <time>2024-05-20T11:20:44.000Z</time>
      </trkpt>
      <trkpt lat="46.16745" lon="4.78702">
        <ele>172</ele>
        <time>2024-05-20T11:20:45.000Z</time>
      </trkpt>
      <trkpt lat="46.1674" lon="4.78706">
        <ele>172.19999694824</ele>
        <time>2024-05-20T11:20:46.000Z</time>
      </trkpt>
      <trkpt lat="46.16736" lon="4.7871">
        <ele>172.19999694824</ele>
        <time>2024-05-20T11:20:47.000Z</time>
      </trkpt>
      <trkpt lat="46.16732" lon="4.78714">
        <ele>172.19999694824</ele>
        <time>2024-05-20T11:20:48.000Z</time>
      </trkpt>
      <trkpt lat="46.16727" lon="4.78719">
        <ele>172.19999694824</ele>
        <time>2024-05-20T11:20:49.000Z</time>
      </trkpt>
      <trkpt lat="46.16723" lon="4.78724">
        <ele>172.19999694824</ele>
        <time>2024-05-20T11:20:50.000Z</time>
      </trkpt>
      <trkpt lat="46.16719" lon="4.78729">
        <ele>172</ele>
        <time>2024-05-20T11:20:51.000Z</time>
      </trkpt>
      <trkpt lat="46.16716" lon="4.78735">
        <ele>172</ele>
        <time>2024-05-20T11:20:52.000Z</time>
      </trkpt>
      <trkpt lat="46.16712" lon="4.78741">
        <ele>171.80000305176</ele>
        <time>2024-05-20T11:20:53.000Z</time>
      </trkpt>
      <trkpt lat="46.16709" lon="4.78748">
        <ele>171.60000610352</ele>
        <time>2024-05-20T11:20:54.000Z</time>
      </trkpt>
      <trkpt lat="46.16706" lon="4.78754">
        <ele>171.60000610352</ele>
        <time>2024-05-20T11:20:55.000Z</time>
      </trkpt>
      <trkpt lat="46.16703" lon="4.7876">
        <ele>171.39999389648</ele>
        <time>2024-05-20T11:20:56.000Z</time>
      </trkpt>
      <trkpt lat="46.16699" lon="4.78766">
        <ele>171.19999694824</ele>
        <time>2024-05-20T11:20:57.000Z</time>
      </trkpt>
      <trkpt lat="46.16696" lon="4.78773">
        <ele>171</ele>
        <time>2024-05-20T11:20:58.000Z</time>
      </trkpt>
      <trkpt lat="46.16693" lon="4.78779">
        <ele>171</ele>
        <time>2024-05-20T11:20:59.000Z</time>
      </trkpt>
      <trkpt lat="46.1669" lon="4.78786">
        <ele>170.80000305176</ele>
        <time>2024-05-20T11:21:00.000Z</time>
      </trkpt>
      <trkpt lat="46.16687" lon="4.78792">
        <ele>170.80000305176</ele>
        <time>2024-05-20T11:21:01.000Z</time>
      </trkpt>
      <trkpt lat="46.16684" lon="4.78798">
        <ele>170.60000610352</ele>
        <time>2024-05-20T11:21:02.000Z</time>
      </trkpt>
      <trkpt lat="46.16681" lon="4.78804">
        <ele>170.60000610352</ele>
        <time>2024-05-20T11:21:03.000Z</time>
      </trkpt>
      <trkpt lat="46.16678" lon="4.7881">
        <ele>170.60000610352</ele>
        <time>2024-05-20T11:21:04.000Z</time>
      </trkpt>
      <trkpt lat="46.16674" lon="4.78817">
        <ele>170.60000610352</ele>
        <time>2024-05-20T11:21:05.000Z</time>
      </trkpt>
      <trkpt lat="46.16671" lon="4.78823">
        <ele>170.60000610352</ele>
        <time>2024-05-20T11:21:06.000Z</time>
      </trkpt>
      <trkpt lat="46.16668" lon="4.78829">
        <ele>170.60000610352</ele>
        <time>2024-05-20T11:21:07.000Z</time>
      </trkpt>
      <trkpt lat="46.16665" lon="4.78835">
        <ele>170.60000610352</ele>
        <time>2024-05-20T11:21:08.000Z</time>
      </trkpt>
      <trkpt lat="46.16662" lon="4.78842">
        <ele>170.80000305176</ele>
        <time>2024-05-20T11:21:09.000Z</time>
      </trkpt>
      <trkpt lat="46.16659" lon="4.78848">
        <ele>170.80000305176</ele>
        <time>2024-05-20T11:21:10.000Z</time>
      </trkpt>
      <trkpt lat="46.16656" lon="4.78855">
        <ele>170.80000305176</ele>
        <time>2024-05-20T11:21:11.000Z</time>
      </trkpt>
      <trkpt lat="46.16652" lon="4.78861">
        <ele>170.80000305176</ele>
        <time>2024-05-20T11:21:12.000Z</time>
      </trkpt>
      <trkpt lat="46.16649" lon="4.78867">
        <ele>170.80000305176</ele>
        <time>2024-05-20T11:21:13.000Z</time>
      </trkpt>
      <trkpt lat="46.16646" lon="4.78874">
        <ele>170.80000305176</ele>
        <time>2024-05-20T11:21:14.000Z</time>
      </trkpt>
      <trkpt lat="46.16643" lon="4.7888">
        <ele>170.80000305176</ele>
        <time>2024-05-20T11:21:15.000Z</time>
      </trkpt>
      <trkpt lat="46.16639" lon="4.78886">
        <ele>170.60000610352</ele>
        <time>2024-05-20T11:21:16.000Z</time>
      </trkpt>
      <trkpt lat="46.16636" lon="4.78892">
        <ele>170.60000610352</ele>
        <time>2024-05-20T11:21:17.000Z</time>
      </trkpt>
      <trkpt lat="46.16633" lon="4.78899">
        <ele>170.60000610352</ele>
        <time>2024-05-20T11:21:18.000Z</time>
      </trkpt>
      <trkpt lat="46.1663" lon="4.78905">
        <ele>170.39999389648</ele>
        <time>2024-05-20T11:21:19.000Z</time>
      </trkpt>
      <trkpt lat="46.16626" lon="4.78912">
        <ele>170.60000610352</ele>
        <time>2024-05-20T11:21:20.000Z</time>
      </trkpt>
      <trkpt lat="46.16623" lon="4.78918">
        <ele>170.60000610352</ele>
        <time>2024-05-20T11:21:21.000Z</time>
      </trkpt>
      <trkpt lat="46.1662" lon="4.78925">
        <ele>170.60000610352</ele>
        <time>2024-05-20T11:21:22.000Z</time>
      </trkpt>
      <trkpt lat="46.16616" lon="4.78931">
        <ele>170.60000610352</ele>
        <time>2024-05-20T11:21:23.000Z</time>
      </trkpt>
      <trkpt lat="46.16613" lon="4.78938">
        <ele>170.80000305176</ele>
        <time>2024-05-20T11:21:24.000Z</time>
      </trkpt>
      <trkpt lat="46.16609" lon="4.78944">
        <ele>170.80000305176</ele>
        <time>2024-05-20T11:21:25.000Z</time>
      </trkpt>
      <trkpt lat="46.16606" lon="4.78951">
        <ele>170.80000305176</ele>
        <time>2024-05-20T11:21:26.000Z</time>
      </trkpt>
      <trkpt lat="46.16603" lon="4.78957">
        <ele>170.80000305176</ele>
        <time>2024-05-20T11:21:27.000Z</time>
      </trkpt>
      <trkpt lat="46.16599" lon="4.78964">
        <ele>171</ele>
        <time>2024-05-20T11:21:28.000Z</time>
      </trkpt>
      <trkpt lat="46.16596" lon="4.7897">
        <ele>171</ele>
        <time>2024-05-20T11:21:29.000Z</time>
      </trkpt>
      <trkpt lat="46.16593" lon="4.78976">
        <ele>171</ele>
        <time>2024-05-20T11:21:30.000Z</time>
      </trkpt>
      <trkpt lat="46.1659" lon="4.78982">
        <ele>171</ele>
        <time>2024-05-20T11:21:31.000Z</time>
      </trkpt>
      <trkpt lat="46.16587" lon="4.78987">
        <ele>171</ele>
        <time>2024-05-20T11:21:32.000Z</time>
      </trkpt>
      <trkpt lat="46.16584" lon="4.78993">
        <ele>171</ele>
        <time>2024-05-20T11:21:33.000Z</time>
      </trkpt>
      <trkpt lat="46.16581" lon="4.78998">
        <ele>171</ele>
        <time>2024-05-20T11:21:34.000Z</time>
      </trkpt>
      <trkpt lat="46.16578" lon="4.79003">
        <ele>171</ele>
        <time>2024-05-20T11:21:35.000Z</time>
      </trkpt>
      <trkpt lat="46.16575" lon="4.79008">
        <ele>171</ele>
        <time>2024-05-20T11:21:36.000Z</time>
      </trkpt>
      <trkpt lat="46.16572" lon="4.79013">
        <ele>171.19999694824</ele>
        <time>2024-05-20T11:21:37.000Z</time>
      </trkpt>
      <trkpt lat="46.16569" lon="4.79019">
        <ele>171.19999694824</ele>
        <time>2024-05-20T11:21:38.000Z</time>
      </trkpt>
      <trkpt lat="46.16567" lon="4.79024">
        <ele>171.19999694824</ele>
        <time>2024-05-20T11:21:39.000Z</time>
      </trkpt>
      <trkpt lat="46.16564" lon="4.79029">
        <ele>171.19999694824</ele>
        <time>2024-05-20T11:21:40.000Z</time>
      </trkpt>
      <trkpt lat="46.16561" lon="4.79034">
        <ele>171.39999389648</ele>
        <time>2024-05-20T11:21:41.000Z</time>
      </trkpt>
      <trkpt lat="46.16557" lon="4.79039">
        <ele>171.60000610352</ele>
        <time>2024-05-20T11:21:42.000Z</time>
      </trkpt>
      <trkpt lat="46.16554" lon="4.79045">
        <ele>171.60000610352</ele>
        <time>2024-05-20T11:21:43.000Z</time>
      </trkpt>
      <trkpt lat="46.16551" lon="4.7905">
        <ele>171.60000610352</ele>
        <time>2024-05-20T11:21:44.000Z</time>
      </trkpt>
      <trkpt lat="46.16548" lon="4.79055">
        <ele>171.60000610352</ele>
        <time>2024-05-20T11:21:45.000Z</time>
      </trkpt>
      <trkpt lat="46.16545" lon="4.7906">
        <ele>171.39999389648</ele>
        <time>2024-05-20T11:21:46.000Z</time>
      </trkpt>
      <trkpt lat="46.16542" lon="4.79066">
        <ele>171.19999694824</ele>
        <time>2024-05-20T11:21:47.000Z</time>
      </trkpt>
      <trkpt lat="46.1654" lon="4.79072">
        <ele>171.19999694824</ele>
        <time>2024-05-20T11:21:48.000Z</time>
      </trkpt>
      <trkpt lat="46.16538" lon="4.79078">
        <ele>171.19999694824</ele>
        <time>2024-05-20T11:21:49.000Z</time>
      </trkpt>
      <trkpt lat="46.16535" lon="4.79084">
        <ele>171</ele>
        <time>2024-05-20T11:21:50.000Z</time>
      </trkpt>
      <trkpt lat="46.16533" lon="4.79091">
        <ele>170.80000305176</ele>
        <time>2024-05-20T11:21:51.000Z</time>
      </trkpt>
      <trkpt lat="46.16531" lon="4.79098">
        <ele>170.80000305176</ele>
        <time>2024-05-20T11:21:52.000Z</time>
      </trkpt>
      <trkpt lat="46.16529" lon="4.79104">
        <ele>170.80000305176</ele>
        <time>2024-05-20T11:21:53.000Z</time>
      </trkpt>
      <trkpt lat="46.16527" lon="4.79111">
        <ele>170.80000305176</ele>
        <time>2024-05-20T11:21:54.000Z</time>
      </trkpt>
      <trkpt lat="46.16525" lon="4.79118">
        <ele>171</ele>
        <time>2024-05-20T11:21:55.000Z</time>
      </trkpt>
      <trkpt lat="46.16523" lon="4.79125">
        <ele>170.80000305176</ele>
        <time>2024-05-20T11:21:56.000Z</time>
      </trkpt>
      <trkpt lat="46.16521" lon="4.79131">
        <ele>171</ele>
        <time>2024-05-20T11:21:57.000Z</time>
      </trkpt>
      <trkpt lat="46.16518" lon="4.79138">
        <ele>171</ele>
        <time>2024-05-20T11:21:58.000Z</time>
      </trkpt>
      <trkpt lat="46.16516" lon="4.79144">
        <ele>171</ele>
        <time>2024-05-20T11:21:59.000Z</time>
      </trkpt>
      <trkpt lat="46.16515" lon="4.79151">
        <ele>171</ele>
        <time>2024-05-20T11:22:00.000Z</time>
      </trkpt>
      <trkpt lat="46.16513" lon="4.79157">
        <ele>171.39999389648</ele>
        <time>2024-05-20T11:22:01.000Z</time>
      </trkpt>
      <trkpt lat="46.16513" lon="4.79163">
        <ele>171.80000305176</ele>
        <time>2024-05-20T11:22:02.000Z</time>
      </trkpt>
      <trkpt lat="46.16512" lon="4.79168">
        <ele>172.19999694824</ele>
        <time>2024-05-20T11:22:03.000Z</time>
      </trkpt>
      <trkpt lat="46.16513" lon="4.79174">
        <ele>172.60000610352</ele>
        <time>2024-05-20T11:22:04.000Z</time>
      </trkpt>
      <trkpt lat="46.16514" lon="4.79179">
        <ele>173.19999694824</ele>
        <time>2024-05-20T11:22:05.000Z</time>
      </trkpt>
      <trkpt lat="46.16515" lon="4.79184">
        <ele>173.80000305176</ele>
        <time>2024-05-20T11:22:06.000Z</time>
      </trkpt>
      <trkpt lat="46.16515" lon="4.7919">
        <ele>174.39999389648</ele>
        <time>2024-05-20T11:22:07.000Z</time>
      </trkpt>
      <trkpt lat="46.16516" lon="4.79195">
        <ele>174.60000610352</ele>
        <time>2024-05-20T11:22:08.000Z</time>
      </trkpt>
      <trkpt lat="46.16516" lon="4.792">
        <ele>174.60000610352</ele>
        <time>2024-05-20T11:22:09.000Z</time>
      </trkpt>
      <trkpt lat="46.16516" lon="4.79205">
        <ele>174.80000305176</ele>
        <time>2024-05-20T11:22:10.000Z</time>
      </trkpt>
      <trkpt lat="46.16516" lon="4.79211">
        <ele>174.80000305176</ele>
        <time>2024-05-20T11:22:11.000Z</time>
      </trkpt>
      <trkpt lat="46.16515" lon="4.79216">
        <ele>174.80000305176</ele>
        <time>2024-05-20T11:22:12.000Z</time>
      </trkpt>
      <trkpt lat="46.16513" lon="4.79221">
        <ele>174.80000305176</ele>
        <time>2024-05-20T11:22:13.000Z</time>
      </trkpt>
      <trkpt lat="46.1651" lon="4.79227">
        <ele>174.39999389648</ele>
        <time>2024-05-20T11:22:14.000Z</time>
      </trkpt>
      <trkpt lat="46.16507" lon="4.79233">
        <ele>174</ele>
        <time>2024-05-20T11:22:15.000Z</time>
      </trkpt>
      <trkpt lat="46.16503" lon="4.7924">
        <ele>173.60000610352</ele>
        <time>2024-05-20T11:22:16.000Z</time>
      </trkpt>
      <trkpt lat="46.165" lon="4.79247">
        <ele>173</ele>
        <time>2024-05-20T11:22:17.000Z</time>
      </trkpt>
      <trkpt lat="46.16496" lon="4.79254">
        <ele>172.39999389648</ele>
        <time>2024-05-20T11:22:18.000Z</time>
      </trkpt>
      <trkpt lat="46.16493" lon="4.79262">
        <ele>171.80000305176</ele>
        <time>2024-05-20T11:22:19.000Z</time>
      </trkpt>
      <trkpt lat="46.16489" lon="4.79269">
        <ele>171.39999389648</ele>
        <time>2024-05-20T11:22:20.000Z</time>
      </trkpt>
      <trkpt lat="46.16486" lon="4.79275">
        <ele>171</ele>
        <time>2024-05-20T11:22:21.000Z</time>
      </trkpt>
      <trkpt lat="46.16483" lon="4.79282">
        <ele>170.80000305176</ele>
        <time>2024-05-20T11:22:22.000Z</time>
      </trkpt>
      <trkpt lat="46.16481" lon="4.79288">
        <ele>170.80000305176</ele>
        <time>2024-05-20T11:22:23.000Z</time>
      </trkpt>
      <trkpt lat="46.16478" lon="4.79293">
        <ele>170.80000305176</ele>
        <time>2024-05-20T11:22:24.000Z</time>
      </trkpt>
      <trkpt lat="46.16476" lon="4.79297">
        <ele>170.80000305176</ele>
        <time>2024-05-20T11:22:25.000Z</time>
      </trkpt>
      <trkpt lat="46.16475" lon="4.79301">
        <ele>171</ele>
        <time>2024-05-20T11:22:26.000Z</time>
      </trkpt>
      <trkpt lat="46.16475" lon="4.79303">
        <ele>171</ele>
        <time>2024-05-20T11:22:27.000Z</time>
      </trkpt>
      <trkpt lat="46.16476" lon="4.79305">
        <ele>171</ele>
        <time>2024-05-20T11:22:28.000Z</time>
      </trkpt>
      <trkpt lat="46.16477" lon="4.79305">
        <ele>171.19999694824</ele>
        <time>2024-05-20T11:22:29.000Z</time>
      </trkpt>
      <trkpt lat="46.16478" lon="4.79305">
        <ele>171.80000305176</ele>
        <time>2024-05-20T11:22:30.000Z</time>
      </trkpt>
      <trkpt lat="46.16478" lon="4.79305">
        <ele>172</ele>
        <time>2024-05-20T11:22:31.000Z</time>
      </trkpt>
      <trkpt lat="46.16478" lon="4.79305">
        <ele>172.39999389648</ele>
        <time>2024-05-20T11:22:32.000Z</time>
      </trkpt>
      <trkpt lat="46.1647" lon="4.79308">
        <ele>172.80000305176</ele>
        <time>2024-05-20T11:34:25.000Z</time>
      </trkpt>
      <trkpt lat="46.16469" lon="4.7931">
        <ele>172.60000610352</ele>
        <time>2024-05-20T11:34:26.000Z</time>
      </trkpt>
      <trkpt lat="46.16467" lon="4.79313">
        <ele>172.39999389648</ele>
        <time>2024-05-20T11:34:27.000Z</time>
      </trkpt>
      <trkpt lat="46.16466" lon="4.79317">
        <ele>172.39999389648</ele>
        <time>2024-05-20T11:34:28.000Z</time>
      </trkpt>
      <trkpt lat="46.16464" lon="4.79321">
        <ele>172.19999694824</ele>
        <time>2024-05-20T11:34:29.000Z</time>
      </trkpt>
      <trkpt lat="46.16462" lon="4.79325">
        <ele>172.19999694824</ele>
        <time>2024-05-20T11:34:30.000Z</time>
      </trkpt>
      <trkpt lat="46.1646" lon="4.79328">
        <ele>172</ele>
        <time>2024-05-20T11:34:31.000Z</time>
      </trkpt>
      <trkpt lat="46.16458" lon="4.79332">
        <ele>172</ele>
        <time>2024-05-20T11:34:32.000Z</time>
      </trkpt>
      <trkpt lat="46.16456" lon="4.79337">
        <ele>171.80000305176</ele>
        <time>2024-05-20T11:34:33.000Z</time>
      </trkpt>
      <trkpt lat="46.16453" lon="4.79341">
        <ele>171.80000305176</ele>
        <time>2024-05-20T11:34:34.000Z</time>
      </trkpt>
      <trkpt lat="46.16451" lon="4.79345">
        <ele>171.80000305176</ele>
        <time>2024-05-20T11:34:35.000Z</time>
      </trkpt>
      <trkpt lat="46.16448" lon="4.7935">
        <ele>171.80000305176</ele>
        <time>2024-05-20T11:34:36.000Z</time>
      </trkpt>
      <trkpt lat="46.16446" lon="4.79354">
        <ele>171.80000305176</ele>
        <time>2024-05-20T11:34:37.000Z</time>
      </trkpt>
      <trkpt lat="46.16444" lon="4.79359">
        <ele>171.80000305176</ele>
        <time>2024-05-20T11:34:38.000Z</time>
      </trkpt>
      <trkpt lat="46.16441" lon="4.79363">
        <ele>171.60000610352</ele>
        <time>2024-05-20T11:34:39.000Z</time>
      </trkpt>
      <trkpt lat="46.16439" lon="4.79366">
        <ele>171.60000610352</ele>
        <time>2024-05-20T11:34:40.000Z</time>
      </trkpt>
      <trkpt lat="46.16437" lon="4.7937">
        <ele>171.60000610352</ele>
        <time>2024-05-20T11:34:41.000Z</time>
      </trkpt>
      <trkpt lat="46.16434" lon="4.79373">
        <ele>171.60000610352</ele>
        <time>2024-05-20T11:34:42.000Z</time>
      </trkpt>
      <trkpt lat="46.16432" lon="4.79377">
        <ele>171.60000610352</ele>
        <time>2024-05-20T11:34:43.000Z</time>
      </trkpt>
      <trkpt lat="46.1643" lon="4.79381">
        <ele>171.60000610352</ele>
        <time>2024-05-20T11:34:44.000Z</time>
      </trkpt>
      <trkpt lat="46.16428" lon="4.79386">
        <ele>171.60000610352</ele>
        <time>2024-05-20T11:34:45.000Z</time>
      </trkpt>
      <trkpt lat="46.16426" lon="4.7939">
        <ele>171.60000610352</ele>
        <time>2024-05-20T11:34:46.000Z</time>
      </trkpt>
      <trkpt lat="46.16424" lon="4.79395">
        <ele>171.60000610352</ele>
        <time>2024-05-20T11:34:47.000Z</time>
      </trkpt>
      <trkpt lat="46.16422" lon="4.79399">
        <ele>171.60000610352</ele>
        <time>2024-05-20T11:34:48.000Z</time>
      </trkpt>
      <trkpt lat="46.16419" lon="4.79404">
        <ele>171.60000610352</ele>
        <time>2024-05-20T11:34:49.000Z</time>
      </trkpt>
      <trkpt lat="46.16417" lon="4.79409">
        <ele>171.60000610352</ele>
        <time>2024-05-20T11:34:50.000Z</time>
      </trkpt>
      <trkpt lat="46.16414" lon="4.79414">
        <ele>171.60000610352</ele>
        <time>2024-05-20T11:34:51.000Z</time>
      </trkpt>
      <trkpt lat="46.16412" lon="4.79419">
        <ele>171.60000610352</ele>
        <time>2024-05-20T11:34:52.000Z</time>
      </trkpt>
      <trkpt lat="46.16409" lon="4.79424">
        <ele>171.60000610352</ele>
        <time>2024-05-20T11:34:53.000Z</time>
      </trkpt>
      <trkpt lat="46.16406" lon="4.79428">
        <ele>171.60000610352</ele>
        <time>2024-05-20T11:34:54.000Z</time>
      </trkpt>
      <trkpt lat="46.16404" lon="4.79434">
        <ele>171.39999389648</ele>
        <time>2024-05-20T11:34:55.000Z</time>
      </trkpt>
      <trkpt lat="46.16401" lon="4.79439">
        <ele>171.39999389648</ele>
        <time>2024-05-20T11:34:56.000Z</time>
      </trkpt>
      <trkpt lat="46.16399" lon="4.79444">
        <ele>171.39999389648</ele>
        <time>2024-05-20T11:34:57.000Z</time>
      </trkpt>
      <trkpt lat="46.16395" lon="4.79448">
        <ele>171.39999389648</ele>
        <time>2024-05-20T11:34:58.000Z</time>
      </trkpt>
      <trkpt lat="46.16392" lon="4.79453">
        <ele>171.39999389648</ele>
        <time>2024-05-20T11:34:59.000Z</time>
      </trkpt>
      <trkpt lat="46.16389" lon="4.79458">
        <ele>171.39999389648</ele>
        <time>2024-05-20T11:35:00.000Z</time>
      </trkpt>
      <trkpt lat="46.16386" lon="4.79463">
        <ele>171.39999389648</ele>
        <time>2024-05-20T11:35:01.000Z</time>
      </trkpt>
      <trkpt lat="46.16384" lon="4.79468">
        <ele>171.39999389648</ele>
        <time>2024-05-20T11:35:02.000Z</time>
      </trkpt>
      <trkpt lat="46.16381" lon="4.79474">
        <ele>171.39999389648</ele>
        <time>2024-05-20T11:35:03.000Z</time>
      </trkpt>
      <trkpt lat="46.16378" lon="4.79479">
        <ele>171.39999389648</ele>
        <time>2024-05-20T11:35:04.000Z</time>
      </trkpt>
      <trkpt lat="46.16375" lon="4.79485">
        <ele>171.39999389648</ele>
        <time>2024-05-20T11:35:05.000Z</time>
      </trkpt>
      <trkpt lat="46.16372" lon="4.79491">
        <ele>171.39999389648</ele>
        <time>2024-05-20T11:35:06.000Z</time>
      </trkpt>
      <trkpt lat="46.16369" lon="4.79496">
        <ele>171.60000610352</ele>
        <time>2024-05-20T11:35:07.000Z</time>
      </trkpt>
      <trkpt lat="46.16365" lon="4.79502">
        <ele>171.60000610352</ele>
        <time>2024-05-20T11:35:08.000Z</time>
      </trkpt>
      <trkpt lat="46.16362" lon="4.79508">
        <ele>171.60000610352</ele>
        <time>2024-05-20T11:35:09.000Z</time>
      </trkpt>
      <trkpt lat="46.16359" lon="4.79514">
        <ele>171.60000610352</ele>
        <time>2024-05-20T11:35:10.000Z</time>
      </trkpt>
      <trkpt lat="46.16356" lon="4.7952">
        <ele>171.60000610352</ele>
        <time>2024-05-20T11:35:11.000Z</time>
      </trkpt>
      <trkpt lat="46.16353" lon="4.79527">
        <ele>171.60000610352</ele>
        <time>2024-05-20T11:35:12.000Z</time>
      </trkpt>
      <trkpt lat="46.16351" lon="4.79533">
        <ele>171.60000610352</ele>
        <time>2024-05-20T11:35:13.000Z</time>
      </trkpt>
      <trkpt lat="46.16348" lon="4.7954">
        <ele>171.60000610352</ele>
        <time>2024-05-20T11:35:14.000Z</time>
      </trkpt>
      <trkpt lat="46.16346" lon="4.79546">
        <ele>171.39999389648</ele>
        <time>2024-05-20T11:35:15.000Z</time>
      </trkpt>
      <trkpt lat="46.16344" lon="4.79553">
        <ele>171.39999389648</ele>
        <time>2024-05-20T11:35:16.000Z</time>
      </trkpt>
      <trkpt lat="46.16343" lon="4.7956">
        <ele>171.39999389648</ele>
        <time>2024-05-20T11:35:17.000Z</time>
      </trkpt>
      <trkpt lat="46.16343" lon="4.79567">
        <ele>171.39999389648</ele>
        <time>2024-05-20T11:35:18.000Z</time>
      </trkpt>
      <trkpt lat="46.16342" lon="4.79574">
        <ele>171.39999389648</ele>
        <time>2024-05-20T11:35:19.000Z</time>
      </trkpt>
      <trkpt lat="46.1634" lon="4.79581">
        <ele>171.60000610352</ele>
        <time>2024-05-20T11:35:20.000Z</time>
      </trkpt>
      <trkpt lat="46.16338" lon="4.79587">
        <ele>171.60000610352</ele>
        <time>2024-05-20T11:35:21.000Z</time>
      </trkpt>
      <trkpt lat="46.16336" lon="4.79594">
        <ele>171.60000610352</ele>
        <time>2024-05-20T11:35:22.000Z</time>
      </trkpt>
      <trkpt lat="46.16334" lon="4.796">
        <ele>171.60000610352</ele>
        <time>2024-05-20T11:35:23.000Z</time>
      </trkpt>
      <trkpt lat="46.16331" lon="4.79606">
        <ele>171.60000610352</ele>
        <time>2024-05-20T11:35:24.000Z</time>
      </trkpt>
      <trkpt lat="46.16329" lon="4.79613">
        <ele>171.60000610352</ele>
        <time>2024-05-20T11:35:25.000Z</time>
      </trkpt>
      <trkpt lat="46.16326" lon="4.79619">
        <ele>171.60000610352</ele>
        <time>2024-05-20T11:35:26.000Z</time>
      </trkpt>
      <trkpt lat="46.16324" lon="4.79625">
        <ele>171.60000610352</ele>
        <time>2024-05-20T11:35:27.000Z</time>
      </trkpt>
      <trkpt lat="46.16321" lon="4.79632">
        <ele>171.60000610352</ele>
        <time>2024-05-20T11:35:28.000Z</time>
      </trkpt>
      <trkpt lat="46.16319" lon="4.79638">
        <ele>171.60000610352</ele>
        <time>2024-05-20T11:35:29.000Z</time>
      </trkpt>
      <trkpt lat="46.16316" lon="4.79644">
        <ele>171.60000610352</ele>
        <time>2024-05-20T11:35:30.000Z</time>
      </trkpt>
      <trkpt lat="46.16314" lon="4.7965">
        <ele>171.60000610352</ele>
        <time>2024-05-20T11:35:31.000Z</time>
      </trkpt>
      <trkpt lat="46.16311" lon="4.79656">
        <ele>171.80000305176</ele>
        <time>2024-05-20T11:35:32.000Z</time>
      </trkpt>
      <trkpt lat="46.16308" lon="4.79663">
        <ele>172</ele>
        <time>2024-05-20T11:35:33.000Z</time>
      </trkpt>
      <trkpt lat="46.16305" lon="4.79669">
        <ele>172.19999694824</ele>
        <time>2024-05-20T11:35:34.000Z</time>
      </trkpt>
      <trkpt lat="46.16302" lon="4.79675">
        <ele>172.19999694824</ele>
        <time>2024-05-20T11:35:35.000Z</time>
      </trkpt>
      <trkpt lat="46.16299" lon="4.79681">
        <ele>172.39999389648</ele>
        <time>2024-05-20T11:35:36.000Z</time>
      </trkpt>
      <trkpt lat="46.16296" lon="4.79688">
        <ele>172.39999389648</ele>
        <time>2024-05-20T11:35:37.000Z</time>
      </trkpt>
      <trkpt lat="46.16293" lon="4.79694">
        <ele>172.39999389648</ele>
        <time>2024-05-20T11:35:38.000Z</time>
      </trkpt>
      <trkpt lat="46.1629" lon="4.797">
        <ele>172.39999389648</ele>
        <time>2024-05-20T11:35:39.000Z</time>
      </trkpt>
      <trkpt lat="46.16287" lon="4.79706">
        <ele>172.39999389648</ele>
        <time>2024-05-20T11:35:40.000Z</time>
      </trkpt>
      <trkpt lat="46.16284" lon="4.79712">
        <ele>172.39999389648</ele>
        <time>2024-05-20T11:35:41.000Z</time>
      </trkpt>
      <trkpt lat="46.16281" lon="4.79718">
        <ele>172.39999389648</ele>
        <time>2024-05-20T11:35:42.000Z</time>
      </trkpt>
      <trkpt lat="46.16277" lon="4.79723">
        <ele>172.19999694824</ele>
        <time>2024-05-20T11:35:43.000Z</time>
      </trkpt>
      <trkpt lat="46.16274" lon="4.79729">
        <ele>172.19999694824</ele>
        <time>2024-05-20T11:35:44.000Z</time>
      </trkpt>
      <trkpt lat="46.1627" lon="4.79736">
        <ele>172.19999694824</ele>
        <time>2024-05-20T11:35:45.000Z</time>
      </trkpt>
      <trkpt lat="46.16268" lon="4.79742">
        <ele>172.19999694824</ele>
        <time>2024-05-20T11:35:46.000Z</time>
      </trkpt>
      <trkpt lat="46.16264" lon="4.79749">
        <ele>172.19999694824</ele>
        <time>2024-05-20T11:35:47.000Z</time>
      </trkpt>
      <trkpt lat="46.16261" lon="4.79755">
        <ele>172.19999694824</ele>
        <time>2024-05-20T11:35:48.000Z</time>
      </trkpt>
      <trkpt lat="46.16258" lon="4.79761">
        <ele>172.19999694824</ele>
        <time>2024-05-20T11:35:49.000Z</time>
      </trkpt>
      <trkpt lat="46.16254" lon="4.79768">
        <ele>172</ele>
        <time>2024-05-20T11:35:50.000Z</time>
      </trkpt>
      <trkpt lat="46.16251" lon="4.79774">
        <ele>172</ele>
        <time>2024-05-20T11:35:51.000Z</time>
      </trkpt>
      <trkpt lat="46.16247" lon="4.7978">
        <ele>172</ele>
        <time>2024-05-20T11:35:52.000Z</time>
      </trkpt>
      <trkpt lat="46.16244" lon="4.79787">
        <ele>172</ele>
        <time>2024-05-20T11:35:53.000Z</time>
      </trkpt>
      <trkpt lat="46.16241" lon="4.79793">
        <ele>172</ele>
        <time>2024-05-20T11:35:54.000Z</time>
      </trkpt>
      <trkpt lat="46.16237" lon="4.798">
        <ele>172</ele>
        <time>2024-05-20T11:35:55.000Z</time>
      </trkpt>
      <trkpt lat="46.16233" lon="4.79806">
        <ele>172.19999694824</ele>
        <time>2024-05-20T11:35:56.000Z</time>
      </trkpt>
      <trkpt lat="46.1623" lon="4.79813">
        <ele>172.19999694824</ele>
        <time>2024-05-20T11:35:57.000Z</time>
      </trkpt>
      <trkpt lat="46.16226" lon="4.79819">
        <ele>172.19999694824</ele>
        <time>2024-05-20T11:35:58.000Z</time>
      </trkpt>
      <trkpt lat="46.16223" lon="4.79826">
        <ele>172.19999694824</ele>
        <time>2024-05-20T11:35:59.000Z</time>
      </trkpt>
      <trkpt lat="46.16219" lon="4.79832">
        <ele>172.39999389648</ele>
        <time>2024-05-20T11:36:00.000Z</time>
      </trkpt>
      <trkpt lat="46.16216" lon="4.79839">
        <ele>172.39999389648</ele>
        <time>2024-05-20T11:36:01.000Z</time>
      </trkpt>
      <trkpt lat="46.16212" lon="4.79845">
        <ele>172.39999389648</ele>
        <time>2024-05-20T11:36:02.000Z</time>
      </trkpt>
      <trkpt lat="46.16208" lon="4.79852">
        <ele>172.39999389648</ele>
        <time>2024-05-20T11:36:03.000Z</time>
      </trkpt>
      <trkpt lat="46.16205" lon="4.79858">
        <ele>172.39999389648</ele>
        <time>2024-05-20T11:36:04.000Z</time>
      </trkpt>
      <trkpt lat="46.16201" lon="4.79865">
        <ele>172.39999389648</ele>
        <time>2024-05-20T11:36:05.000Z</time>
      </trkpt>
      <trkpt lat="46.16198" lon="4.79871">
        <ele>172.19999694824</ele>
        <time>2024-05-20T11:36:06.000Z</time>
      </trkpt>
      <trkpt lat="46.16194" lon="4.79877">
        <ele>172.19999694824</ele>
        <time>2024-05-20T11:36:07.000Z</time>
      </trkpt>
      <trkpt lat="46.1619" lon="4.79884">
        <ele>172</ele>
        <time>2024-05-20T11:36:08.000Z</time>
      </trkpt>
      <trkpt lat="46.16187" lon="4.7989">
        <ele>171.80000305176</ele>
        <time>2024-05-20T11:36:09.000Z</time>
      </trkpt>
      <trkpt lat="46.16183" lon="4.79897">
        <ele>171.80000305176</ele>
        <time>2024-05-20T11:36:10.000Z</time>
      </trkpt>
      <trkpt lat="46.1618" lon="4.79903">
        <ele>171.80000305176</ele>
        <time>2024-05-20T11:36:11.000Z</time>
      </trkpt>
      <trkpt lat="46.16176" lon="4.79909">
        <ele>171.80000305176</ele>
        <time>2024-05-20T11:36:12.000Z</time>
      </trkpt>
      <trkpt lat="46.16172" lon="4.79916">
        <ele>171.80000305176</ele>
        <time>2024-05-20T11:36:13.000Z</time>
      </trkpt>
      <trkpt lat="46.16169" lon="4.79923">
        <ele>171.60000610352</ele>
        <time>2024-05-20T11:36:14.000Z</time>
      </trkpt>
      <trkpt lat="46.16166" lon="4.79929">
        <ele>171.60000610352</ele>
        <time>2024-05-20T11:36:15.000Z</time>
      </trkpt>
      <trkpt lat="46.16162" lon="4.79936">
        <ele>171.60000610352</ele>
        <time>2024-05-20T11:36:16.000Z</time>
      </trkpt>
      <trkpt lat="46.16158" lon="4.79942">
        <ele>171.60000610352</ele>
        <time>2024-05-20T11:36:17.000Z</time>
      </trkpt>
      <trkpt lat="46.16154" lon="4.79949">
        <ele>171.60000610352</ele>
        <time>2024-05-20T11:36:18.000Z</time>
      </trkpt>
      <trkpt lat="46.16151" lon="4.79955">
        <ele>171.39999389648</ele>
        <time>2024-05-20T11:36:19.000Z</time>
      </trkpt>
      <trkpt lat="46.16147" lon="4.79962">
        <ele>171.39999389648</ele>
        <time>2024-05-20T11:36:20.000Z</time>
      </trkpt>
      <trkpt lat="46.16144" lon="4.79968">
        <ele>171.39999389648</ele>
        <time>2024-05-20T11:36:21.000Z</time>
      </trkpt>
      <trkpt lat="46.16141" lon="4.79974">
        <ele>171.39999389648</ele>
        <time>2024-05-20T11:36:22.000Z</time>
      </trkpt>
      <trkpt lat="46.16137" lon="4.7998">
        <ele>171.39999389648</ele>
        <time>2024-05-20T11:36:23.000Z</time>
      </trkpt>
      <trkpt lat="46.16134" lon="4.79987">
        <ele>171.39999389648</ele>
        <time>2024-05-20T11:36:24.000Z</time>
      </trkpt>
      <trkpt lat="46.1613" lon="4.79993">
        <ele>171.39999389648</ele>
        <time>2024-05-20T11:36:25.000Z</time>
      </trkpt>
      <trkpt lat="46.16127" lon="4.79999">
        <ele>171.39999389648</ele>
        <time>2024-05-20T11:36:26.000Z</time>
      </trkpt>
      <trkpt lat="46.16123" lon="4.80005">
        <ele>171.60000610352</ele>
        <time>2024-05-20T11:36:27.000Z</time>
      </trkpt>
      <trkpt lat="46.1612" lon="4.80012">
        <ele>171.60000610352</ele>
        <time>2024-05-20T11:36:28.000Z</time>
      </trkpt>
      <trkpt lat="46.16116" lon="4.80019">
        <ele>171.60000610352</ele>
        <time>2024-05-20T11:36:29.000Z</time>
      </trkpt>
      <trkpt lat="46.16113" lon="4.80025">
        <ele>172</ele>
        <time>2024-05-20T11:36:30.000Z</time>
      </trkpt>
      <trkpt lat="46.16109" lon="4.80032">
        <ele>172</ele>
        <time>2024-05-20T11:36:31.000Z</time>
      </trkpt>
      <trkpt lat="46.16106" lon="4.80038">
        <ele>172</ele>
        <time>2024-05-20T11:36:32.000Z</time>
      </trkpt>
      <trkpt lat="46.16102" lon="4.80044">
        <ele>172</ele>
        <time>2024-05-20T11:36:33.000Z</time>
      </trkpt>
      <trkpt lat="46.16098" lon="4.80051">
        <ele>172</ele>
        <time>2024-05-20T11:36:34.000Z</time>
      </trkpt>
      <trkpt lat="46.16095" lon="4.80057">
        <ele>172</ele>
        <time>2024-05-20T11:36:35.000Z</time>
      </trkpt>
      <trkpt lat="46.16092" lon="4.80063">
        <ele>171.80000305176</ele>
        <time>2024-05-20T11:36:36.000Z</time>
      </trkpt>
      <trkpt lat="46.16088" lon="4.80069">
        <ele>171.80000305176</ele>
        <time>2024-05-20T11:36:37.000Z</time>
      </trkpt>
      <trkpt lat="46.16085" lon="4.80075">
        <ele>171.80000305176</ele>
        <time>2024-05-20T11:36:38.000Z</time>
      </trkpt>
      <trkpt lat="46.16081" lon="4.80081">
        <ele>171.80000305176</ele>
        <time>2024-05-20T11:36:39.000Z</time>
      </trkpt>
      <trkpt lat="46.16078" lon="4.80087">
        <ele>171.80000305176</ele>
        <time>2024-05-20T11:36:40.000Z</time>
      </trkpt>
      <trkpt lat="46.16074" lon="4.80093">
        <ele>171.80000305176</ele>
        <time>2024-05-20T11:36:41.000Z</time>
      </trkpt>
      <trkpt lat="46.1607" lon="4.80098">
        <ele>171.80000305176</ele>
        <time>2024-05-20T11:36:42.000Z</time>
      </trkpt>
      <trkpt lat="46.16066" lon="4.80103">
        <ele>171.80000305176</ele>
        <time>2024-05-20T11:36:43.000Z</time>
      </trkpt>
      <trkpt lat="46.16062" lon="4.80108">
        <ele>171.60000610352</ele>
        <time>2024-05-20T11:36:44.000Z</time>
      </trkpt>
      <trkpt lat="46.16058" lon="4.80111">
        <ele>171.60000610352</ele>
        <time>2024-05-20T11:36:45.000Z</time>
      </trkpt>
      <trkpt lat="46.16054" lon="4.80115">
        <ele>171.60000610352</ele>
        <time>2024-05-20T11:36:46.000Z</time>
      </trkpt>
      <trkpt lat="46.1605" lon="4.80118">
        <ele>171.60000610352</ele>
        <time>2024-05-20T11:36:47.000Z</time>
      </trkpt>
      <trkpt lat="46.16046" lon="4.80123">
        <ele>171.60000610352</ele>
        <time>2024-05-20T11:36:48.000Z</time>
      </trkpt>
      <trkpt lat="46.16043" lon="4.80128">
        <ele>171.80000305176</ele>
        <time>2024-05-20T11:36:49.000Z</time>
      </trkpt>
      <trkpt lat="46.1604" lon="4.80133">
        <ele>171.80000305176</ele>
        <time>2024-05-20T11:36:50.000Z</time>
      </trkpt>
      <trkpt lat="46.16037" lon="4.80139">
        <ele>172</ele>
        <time>2024-05-20T11:36:51.000Z</time>
      </trkpt>
      <trkpt lat="46.16033" lon="4.80145">
        <ele>172</ele>
        <time>2024-05-20T11:36:52.000Z</time>
      </trkpt>
      <trkpt lat="46.1603" lon="4.8015">
        <ele>172</ele>
        <time>2024-05-20T11:36:53.000Z</time>
      </trkpt>
      <trkpt lat="46.16026" lon="4.80156">
        <ele>172</ele>
        <time>2024-05-20T11:36:54.000Z</time>
      </trkpt>
      <trkpt lat="46.16023" lon="4.80162">
        <ele>172</ele>
        <time>2024-05-20T11:36:55.000Z</time>
      </trkpt>
      <trkpt lat="46.16019" lon="4.80168">
        <ele>172</ele>
        <time>2024-05-20T11:36:56.000Z</time>
      </trkpt>
      <trkpt lat="46.16015" lon="4.80174">
        <ele>172</ele>
        <time>2024-05-20T11:36:57.000Z</time>
      </trkpt>
      <trkpt lat="46.16012" lon="4.8018">
        <ele>172</ele>
        <time>2024-05-20T11:36:58.000Z</time>
      </trkpt>
      <trkpt lat="46.16008" lon="4.80186">
        <ele>172</ele>
        <time>2024-05-20T11:36:59.000Z</time>
      </trkpt>
      <trkpt lat="46.16004" lon="4.80192">
        <ele>172</ele>
        <time>2024-05-20T11:37:00.000Z</time>
      </trkpt>
      <trkpt lat="46.16" lon="4.80199">
        <ele>172</ele>
        <time>2024-05-20T11:37:01.000Z</time>
      </trkpt>
      <trkpt lat="46.15996" lon="4.80205">
        <ele>172</ele>
        <time>2024-05-20T11:37:02.000Z</time>
      </trkpt>
      <trkpt lat="46.15992" lon="4.80211">
        <ele>172</ele>
        <time>2024-05-20T11:37:03.000Z</time>
      </trkpt>
      <trkpt lat="46.15988" lon="4.80217">
        <ele>172</ele>
        <time>2024-05-20T11:37:04.000Z</time>
      </trkpt>
      <trkpt lat="46.15984" lon="4.80223">
        <ele>172</ele>
        <time>2024-05-20T11:37:05.000Z</time>
      </trkpt>
      <trkpt lat="46.1598" lon="4.8023">
        <ele>172</ele>
        <time>2024-05-20T11:37:06.000Z</time>
      </trkpt>
      <trkpt lat="46.15976" lon="4.80236">
        <ele>172</ele>
        <time>2024-05-20T11:37:07.000Z</time>
      </trkpt>
      <trkpt lat="46.15972" lon="4.80241">
        <ele>172</ele>
        <time>2024-05-20T11:37:08.000Z</time>
      </trkpt>
      <trkpt lat="46.15968" lon="4.80247">
        <ele>172</ele>
        <time>2024-05-20T11:37:09.000Z</time>
      </trkpt>
      <trkpt lat="46.15964" lon="4.80254">
        <ele>171.80000305176</ele>
        <time>2024-05-20T11:37:10.000Z</time>
      </trkpt>
      <trkpt lat="46.1596" lon="4.80261">
        <ele>171.80000305176</ele>
        <time>2024-05-20T11:37:11.000Z</time>
      </trkpt>
      <trkpt lat="46.15955" lon="4.80267">
        <ele>171.80000305176</ele>
        <time>2024-05-20T11:37:12.000Z</time>
      </trkpt>
      <trkpt lat="46.15951" lon="4.80273">
        <ele>171.80000305176</ele>
        <time>2024-05-20T11:37:13.000Z</time>
      </trkpt>
      <trkpt lat="46.15946" lon="4.80279">
        <ele>171.60000610352</ele>
        <time>2024-05-20T11:37:14.000Z</time>
      </trkpt>
      <trkpt lat="46.15941" lon="4.80285">
        <ele>171.60000610352</ele>
        <time>2024-05-20T11:37:15.000Z</time>
      </trkpt>
      <trkpt lat="46.15937" lon="4.8029">
        <ele>171.60000610352</ele>
        <time>2024-05-20T11:37:16.000Z</time>
      </trkpt>
      <trkpt lat="46.15933" lon="4.80296">
        <ele>171.60000610352</ele>
        <time>2024-05-20T11:37:17.000Z</time>
      </trkpt>
      <trkpt lat="46.1593" lon="4.80301">
        <ele>171.60000610352</ele>
        <time>2024-05-20T11:37:18.000Z</time>
      </trkpt>
      <trkpt lat="46.15925" lon="4.80306">
        <ele>171.60000610352</ele>
        <time>2024-05-20T11:37:19.000Z</time>
      </trkpt>
      <trkpt lat="46.15921" lon="4.80312">
        <ele>171.80000305176</ele>
        <time>2024-05-20T11:37:20.000Z</time>
      </trkpt>
      <trkpt lat="46.15917" lon="4.80317">
        <ele>171.80000305176</ele>
        <time>2024-05-20T11:37:21.000Z</time>
      </trkpt>
      <trkpt lat="46.15912" lon="4.80323">
        <ele>171.80000305176</ele>
        <time>2024-05-20T11:37:22.000Z</time>
      </trkpt>
      <trkpt lat="46.15908" lon="4.80328">
        <ele>171.80000305176</ele>
        <time>2024-05-20T11:37:23.000Z</time>
      </trkpt>
      <trkpt lat="46.15903" lon="4.80334">
        <ele>171.80000305176</ele>
        <time>2024-05-20T11:37:24.000Z</time>
      </trkpt>
      <trkpt lat="46.15899" lon="4.80339">
        <ele>172</ele>
        <time>2024-05-20T11:37:25.000Z</time>
      </trkpt>
      <trkpt lat="46.15895" lon="4.80345">
        <ele>172</ele>
        <time>2024-05-20T11:37:26.000Z</time>
      </trkpt>
      <trkpt lat="46.1589" lon="4.8035">
        <ele>172</ele>
        <time>2024-05-20T11:37:27.000Z</time>
      </trkpt>
      <trkpt lat="46.15886" lon="4.80355">
        <ele>172</ele>
        <time>2024-05-20T11:37:28.000Z</time>
      </trkpt>
      <trkpt lat="46.15881" lon="4.80361">
        <ele>172</ele>
        <time>2024-05-20T11:37:29.000Z</time>
      </trkpt>
      <trkpt lat="46.15877" lon="4.80366">
        <ele>172</ele>
        <time>2024-05-20T11:37:30.000Z</time>
      </trkpt>
      <trkpt lat="46.15872" lon="4.80371">
        <ele>172</ele>
        <time>2024-05-20T11:37:31.000Z</time>
      </trkpt>
      <trkpt lat="46.15868" lon="4.80375">
        <ele>172</ele>
        <time>2024-05-20T11:37:32.000Z</time>
      </trkpt>
      <trkpt lat="46.15863" lon="4.8038">
        <ele>172</ele>
        <time>2024-05-20T11:37:33.000Z</time>
      </trkpt>
      <trkpt lat="46.15858" lon="4.80384">
        <ele>172.19999694824</ele>
        <time>2024-05-20T11:37:34.000Z</time>
      </trkpt>
      <trkpt lat="46.15854" lon="4.80389">
        <ele>172.19999694824</ele>
        <time>2024-05-20T11:37:35.000Z</time>
      </trkpt>
      <trkpt lat="46.15849" lon="4.80394">
        <ele>172.19999694824</ele>
        <time>2024-05-20T11:37:36.000Z</time>
      </trkpt>
      <trkpt lat="46.15844" lon="4.80399">
        <ele>172.39999389648</ele>
        <time>2024-05-20T11:37:37.000Z</time>
      </trkpt>
      <trkpt lat="46.15839" lon="4.80404">
        <ele>172.39999389648</ele>
        <time>2024-05-20T11:37:38.000Z</time>
      </trkpt>
      <trkpt lat="46.15834" lon="4.80409">
        <ele>172.39999389648</ele>
        <time>2024-05-20T11:37:39.000Z</time>
      </trkpt>
      <trkpt lat="46.15829" lon="4.80413">
        <ele>172.39999389648</ele>
        <time>2024-05-20T11:37:40.000Z</time>
      </trkpt>
      <trkpt lat="46.15824" lon="4.80418">
        <ele>172.39999389648</ele>
        <time>2024-05-20T11:37:41.000Z</time>
      </trkpt>
      <trkpt lat="46.15819" lon="4.80422">
        <ele>172.19999694824</ele>
        <time>2024-05-20T11:37:42.000Z</time>
      </trkpt>
      <trkpt lat="46.15813" lon="4.80426">
        <ele>172.19999694824</ele>
        <time>2024-05-20T11:37:43.000Z</time>
      </trkpt>
      <trkpt lat="46.15808" lon="4.8043">
        <ele>172.19999694824</ele>
        <time>2024-05-20T11:37:44.000Z</time>
      </trkpt>
      <trkpt lat="46.15802" lon="4.80433">
        <ele>172.19999694824</ele>
        <time>2024-05-20T11:37:45.000Z</time>
      </trkpt>
      <trkpt lat="46.15797" lon="4.80436">
        <ele>172.19999694824</ele>
        <time>2024-05-20T11:37:46.000Z</time>
      </trkpt>
      <trkpt lat="46.15791" lon="4.80439">
        <ele>172.19999694824</ele>
        <time>2024-05-20T11:37:47.000Z</time>
      </trkpt>
      <trkpt lat="46.15786" lon="4.80442">
        <ele>172.19999694824</ele>
        <time>2024-05-20T11:37:48.000Z</time>
      </trkpt>
      <trkpt lat="46.1578" lon="4.80444">
        <ele>172.19999694824</ele>
        <time>2024-05-20T11:37:49.000Z</time>
      </trkpt>
      <trkpt lat="46.15774" lon="4.80445">
        <ele>172.39999389648</ele>
        <time>2024-05-20T11:37:50.000Z</time>
      </trkpt>
      <trkpt lat="46.15768" lon="4.80446">
        <ele>172.39999389648</ele>
        <time>2024-05-20T11:37:51.000Z</time>
      </trkpt>
      <trkpt lat="46.15762" lon="4.80447">
        <ele>172.39999389648</ele>
        <time>2024-05-20T11:37:52.000Z</time>
      </trkpt>
      <trkpt lat="46.15756" lon="4.80448">
        <ele>172.39999389648</ele>
        <time>2024-05-20T11:37:53.000Z</time>
      </trkpt>
      <trkpt lat="46.1575" lon="4.80449">
        <ele>172.39999389648</ele>
        <time>2024-05-20T11:37:54.000Z</time>
      </trkpt>
      <trkpt lat="46.15744" lon="4.8045">
        <ele>172.39999389648</ele>
        <time>2024-05-20T11:37:55.000Z</time>
      </trkpt>
      <trkpt lat="46.15738" lon="4.80451">
        <ele>172.39999389648</ele>
        <time>2024-05-20T11:37:56.000Z</time>
      </trkpt>
      <trkpt lat="46.15732" lon="4.80452">
        <ele>172.39999389648</ele>
        <time>2024-05-20T11:37:57.000Z</time>
      </trkpt>
      <trkpt lat="46.15727" lon="4.80454">
        <ele>172.19999694824</ele>
        <time>2024-05-20T11:37:58.000Z</time>
      </trkpt>
      <trkpt lat="46.15722" lon="4.80455">
        <ele>172.19999694824</ele>
        <time>2024-05-20T11:37:59.000Z</time>
      </trkpt>
      <trkpt lat="46.15717" lon="4.80456">
        <ele>172.19999694824</ele>
        <time>2024-05-20T11:38:00.000Z</time>
      </trkpt>
      <trkpt lat="46.15711" lon="4.80458">
        <ele>172.19999694824</ele>
        <time>2024-05-20T11:38:01.000Z</time>
      </trkpt>
      <trkpt lat="46.15705" lon="4.8046">
        <ele>172.19999694824</ele>
        <time>2024-05-20T11:38:02.000Z</time>
      </trkpt>
      <trkpt lat="46.15699" lon="4.80461">
        <ele>172.19999694824</ele>
        <time>2024-05-20T11:38:03.000Z</time>
      </trkpt>
      <trkpt lat="46.15694" lon="4.80462">
        <ele>172.19999694824</ele>
        <time>2024-05-20T11:38:04.000Z</time>
      </trkpt>
      <trkpt lat="46.15689" lon="4.80463">
        <ele>172.19999694824</ele>
        <time>2024-05-20T11:38:05.000Z</time>
      </trkpt>
      <trkpt lat="46.15684" lon="4.80465">
        <ele>172.19999694824</ele>
        <time>2024-05-20T11:38:06.000Z</time>
      </trkpt>
      <trkpt lat="46.15678" lon="4.80467">
        <ele>172.39999389648</ele>
        <time>2024-05-20T11:38:07.000Z</time>
      </trkpt>
      <trkpt lat="46.15671" lon="4.80469">
        <ele>172.39999389648</ele>
        <time>2024-05-20T11:38:08.000Z</time>
      </trkpt>
      <trkpt lat="46.15666" lon="4.8047">
        <ele>172.39999389648</ele>
        <time>2024-05-20T11:38:09.000Z</time>
      </trkpt>
      <trkpt lat="46.15661" lon="4.80472">
        <ele>172.39999389648</ele>
        <time>2024-05-20T11:38:10.000Z</time>
      </trkpt>
      <trkpt lat="46.15656" lon="4.80474">
        <ele>172.39999389648</ele>
        <time>2024-05-20T11:38:11.000Z</time>
      </trkpt>
      <trkpt lat="46.15651" lon="4.80476">
        <ele>172.39999389648</ele>
        <time>2024-05-20T11:38:12.000Z</time>
      </trkpt>
      <trkpt lat="46.15645" lon="4.80478">
        <ele>172.39999389648</ele>
        <time>2024-05-20T11:38:13.000Z</time>
      </trkpt>
      <trkpt lat="46.15639" lon="4.80484">
        <ele>172.60000610352</ele>
        <time>2024-05-20T11:38:14.000Z</time>
      </trkpt>
      <trkpt lat="46.15634" lon="4.80487">
        <ele>172.60000610352</ele>
        <time>2024-05-20T11:38:15.000Z</time>
      </trkpt>
      <trkpt lat="46.15628" lon="4.80489">
        <ele>172.60000610352</ele>
        <time>2024-05-20T11:38:16.000Z</time>
      </trkpt>
      <trkpt lat="46.1562" lon="4.8049">
        <ele>172.60000610352</ele>
        <time>2024-05-20T11:38:17.000Z</time>
      </trkpt>
      <trkpt lat="46.15614" lon="4.80491">
        <ele>172.60000610352</ele>
        <time>2024-05-20T11:38:18.000Z</time>
      </trkpt>
      <trkpt lat="46.15608" lon="4.80492">
        <ele>172.60000610352</ele>
        <time>2024-05-20T11:38:19.000Z</time>
      </trkpt>
      <trkpt lat="46.15602" lon="4.80496">
        <ele>172.60000610352</ele>
        <time>2024-05-20T11:38:20.000Z</time>
      </trkpt>
      <trkpt lat="46.15596" lon="4.80498">
        <ele>172.60000610352</ele>
        <time>2024-05-20T11:38:21.000Z</time>
      </trkpt>
      <trkpt lat="46.15591" lon="4.805">
        <ele>172.60000610352</ele>
        <time>2024-05-20T11:38:22.000Z</time>
      </trkpt>
      <trkpt lat="46.15586" lon="4.80502">
        <ele>172.60000610352</ele>
        <time>2024-05-20T11:38:23.000Z</time>
      </trkpt>
      <trkpt lat="46.1558" lon="4.80504">
        <ele>172.60000610352</ele>
        <time>2024-05-20T11:38:24.000Z</time>
      </trkpt>
      <trkpt lat="46.15573" lon="4.80505">
        <ele>172.60000610352</ele>
        <time>2024-05-20T11:38:25.000Z</time>
      </trkpt>
      <trkpt lat="46.15568" lon="4.80507">
        <ele>172.60000610352</ele>
        <time>2024-05-20T11:38:26.000Z</time>
      </trkpt>
      <trkpt lat="46.15562" lon="4.8051">
        <ele>172.39999389648</ele>
        <time>2024-05-20T11:38:27.000Z</time>
      </trkpt>
      <trkpt lat="46.15557" lon="4.80511">
        <ele>172.39999389648</ele>
        <time>2024-05-20T11:38:28.000Z</time>
      </trkpt>
      <trkpt lat="46.15552" lon="4.80514">
        <ele>172.39999389648</ele>
        <time>2024-05-20T11:38:29.000Z</time>
      </trkpt>
      <trkpt lat="46.15547" lon="4.80517">
        <ele>172.39999389648</ele>
        <time>2024-05-20T11:38:30.000Z</time>
      </trkpt>
      <trkpt lat="46.15541" lon="4.80518">
        <ele>172.39999389648</ele>
        <time>2024-05-20T11:38:31.000Z</time>
      </trkpt>
      <trkpt lat="46.15535" lon="4.8052">
        <ele>172.39999389648</ele>
        <time>2024-05-20T11:38:32.000Z</time>
      </trkpt>
      <trkpt lat="46.1553" lon="4.80521">
        <ele>172.39999389648</ele>
        <time>2024-05-20T11:38:33.000Z</time>
      </trkpt>
      <trkpt lat="46.15525" lon="4.80523">
        <ele>172.39999389648</ele>
        <time>2024-05-20T11:38:34.000Z</time>
      </trkpt>
      <trkpt lat="46.15519" lon="4.80524">
        <ele>172.39999389648</ele>
        <time>2024-05-20T11:38:35.000Z</time>
      </trkpt>
      <trkpt lat="46.15514" lon="4.80526">
        <ele>172.39999389648</ele>
        <time>2024-05-20T11:38:36.000Z</time>
      </trkpt>
      <trkpt lat="46.15508" lon="4.80527">
        <ele>172.39999389648</ele>
        <time>2024-05-20T11:38:37.000Z</time>
      </trkpt>
      <trkpt lat="46.15503" lon="4.80527">
        <ele>172.19999694824</ele>
        <time>2024-05-20T11:38:38.000Z</time>
      </trkpt>
      <trkpt lat="46.15498" lon="4.80528">
        <ele>172.19999694824</ele>
        <time>2024-05-20T11:38:39.000Z</time>
      </trkpt>
      <trkpt lat="46.15492" lon="4.80528">
        <ele>172</ele>
        <time>2024-05-20T11:38:40.000Z</time>
      </trkpt>
      <trkpt lat="46.15487" lon="4.80528">
        <ele>171.80000305176</ele>
        <time>2024-05-20T11:38:41.000Z</time>
      </trkpt>
      <trkpt lat="46.15482" lon="4.80528">
        <ele>171.80000305176</ele>
        <time>2024-05-20T11:38:42.000Z</time>
      </trkpt>
      <trkpt lat="46.15477" lon="4.80528">
        <ele>171.80000305176</ele>
        <time>2024-05-20T11:38:43.000Z</time>
      </trkpt>
      <trkpt lat="46.15472" lon="4.80528">
        <ele>171.80000305176</ele>
        <time>2024-05-20T11:38:44.000Z</time>
      </trkpt>
      <trkpt lat="46.15467" lon="4.80528">
        <ele>171.80000305176</ele>
        <time>2024-05-20T11:38:45.000Z</time>
      </trkpt>
      <trkpt lat="46.15463" lon="4.80528">
        <ele>171.80000305176</ele>
        <time>2024-05-20T11:38:46.000Z</time>
      </trkpt>
      <trkpt lat="46.15457" lon="4.80528">
        <ele>171.80000305176</ele>
        <time>2024-05-20T11:38:47.000Z</time>
      </trkpt>
      <trkpt lat="46.15452" lon="4.80528">
        <ele>172</ele>
        <time>2024-05-20T11:38:48.000Z</time>
      </trkpt>
      <trkpt lat="46.15447" lon="4.80527">
        <ele>172.19999694824</ele>
        <time>2024-05-20T11:38:49.000Z</time>
      </trkpt>
      <trkpt lat="46.15441" lon="4.80526">
        <ele>172.19999694824</ele>
        <time>2024-05-20T11:38:50.000Z</time>
      </trkpt>
      <trkpt lat="46.15436" lon="4.80524">
        <ele>172.39999389648</ele>
        <time>2024-05-20T11:38:51.000Z</time>
      </trkpt>
      <trkpt lat="46.1543" lon="4.80523">
        <ele>172.39999389648</ele>
        <time>2024-05-20T11:38:52.000Z</time>
      </trkpt>
      <trkpt lat="46.15425" lon="4.80521">
        <ele>172.39999389648</ele>
        <time>2024-05-20T11:38:53.000Z</time>
      </trkpt>
      <trkpt lat="46.1542" lon="4.8052">
        <ele>172.39999389648</ele>
        <time>2024-05-20T11:38:54.000Z</time>
      </trkpt>
      <trkpt lat="46.15415" lon="4.80518">
        <ele>172.39999389648</ele>
        <time>2024-05-20T11:38:55.000Z</time>
      </trkpt>
      <trkpt lat="46.1541" lon="4.80517">
        <ele>172.39999389648</ele>
        <time>2024-05-20T11:38:56.000Z</time>
      </trkpt>
      <trkpt lat="46.15404" lon="4.80516">
        <ele>172.39999389648</ele>
        <time>2024-05-20T11:38:57.000Z</time>
      </trkpt>
      <trkpt lat="46.15399" lon="4.80515">
        <ele>172.80000305176</ele>
        <time>2024-05-20T11:38:58.000Z</time>
      </trkpt>
      <trkpt lat="46.15395" lon="4.80513">
        <ele>172.80000305176</ele>
        <time>2024-05-20T11:38:59.000Z</time>
      </trkpt>
      <trkpt lat="46.1539" lon="4.80512">
        <ele>172.80000305176</ele>
        <time>2024-05-20T11:39:00.000Z</time>
      </trkpt>
      <trkpt lat="46.15384" lon="4.8051">
        <ele>172.80000305176</ele>
        <time>2024-05-20T11:39:01.000Z</time>
      </trkpt>
      <trkpt lat="46.15379" lon="4.80509">
        <ele>172.80000305176</ele>
        <time>2024-05-20T11:39:02.000Z</time>
      </trkpt>
      <trkpt lat="46.15373" lon="4.80509">
        <ele>172.60000610352</ele>
        <time>2024-05-20T11:39:03.000Z</time>
      </trkpt>
      <trkpt lat="46.15366" lon="4.80508">
        <ele>172.60000610352</ele>
        <time>2024-05-20T11:39:04.000Z</time>
      </trkpt>
      <trkpt lat="46.1536" lon="4.80505">
        <ele>172.39999389648</ele>
        <time>2024-05-20T11:39:05.000Z</time>
      </trkpt>
      <trkpt lat="46.15355" lon="4.80504">
        <ele>172.39999389648</ele>
        <time>2024-05-20T11:39:06.000Z</time>
      </trkpt>
      <trkpt lat="46.1535" lon="4.80502">
        <ele>172.39999389648</ele>
        <time>2024-05-20T11:39:07.000Z</time>
      </trkpt>
      <trkpt lat="46.15344" lon="4.80501">
        <ele>172.39999389648</ele>
        <time>2024-05-20T11:39:08.000Z</time>
      </trkpt>
      <trkpt lat="46.15339" lon="4.80499">
        <ele>172.39999389648</ele>
        <time>2024-05-20T11:39:09.000Z</time>
      </trkpt>
      <trkpt lat="46.15334" lon="4.80498">
        <ele>172.39999389648</ele>
        <time>2024-05-20T11:39:10.000Z</time>
      </trkpt>
      <trkpt lat="46.15329" lon="4.80497">
        <ele>172.39999389648</ele>
        <time>2024-05-20T11:39:11.000Z</time>
      </trkpt>
      <trkpt lat="46.15324" lon="4.80495">
        <ele>172.39999389648</ele>
        <time>2024-05-20T11:39:12.000Z</time>
      </trkpt>
      <trkpt lat="46.15317" lon="4.80492">
        <ele>172.39999389648</ele>
        <time>2024-05-20T11:39:13.000Z</time>
      </trkpt>
      <trkpt lat="46.1531" lon="4.8049">
        <ele>172.39999389648</ele>
        <time>2024-05-20T11:39:14.000Z</time>
      </trkpt>
      <trkpt lat="46.15303" lon="4.80488">
        <ele>172.39999389648</ele>
        <time>2024-05-20T11:39:15.000Z</time>
      </trkpt>
      <trkpt lat="46.15297" lon="4.80487">
        <ele>172.39999389648</ele>
        <time>2024-05-20T11:39:16.000Z</time>
      </trkpt>
      <trkpt lat="46.15291" lon="4.80485">
        <ele>172.19999694824</ele>
        <time>2024-05-20T11:39:17.000Z</time>
      </trkpt>
      <trkpt lat="46.15286" lon="4.80484">
        <ele>172.19999694824</ele>
        <time>2024-05-20T11:39:18.000Z</time>
      </trkpt>
      <trkpt lat="46.1528" lon="4.80483">
        <ele>172.19999694824</ele>
        <time>2024-05-20T11:39:19.000Z</time>
      </trkpt>
      <trkpt lat="46.15273" lon="4.8048">
        <ele>172.19999694824</ele>
        <time>2024-05-20T11:39:20.000Z</time>
      </trkpt>
      <trkpt lat="46.15266" lon="4.80478">
        <ele>172.19999694824</ele>
        <time>2024-05-20T11:39:21.000Z</time>
      </trkpt>
      <trkpt lat="46.1526" lon="4.80476">
        <ele>172.19999694824</ele>
        <time>2024-05-20T11:39:22.000Z</time>
      </trkpt>
      <trkpt lat="46.15254" lon="4.80473">
        <ele>172.19999694824</ele>
        <time>2024-05-20T11:39:23.000Z</time>
      </trkpt>
      <trkpt lat="46.15247" lon="4.80471">
        <ele>172.19999694824</ele>
        <time>2024-05-20T11:39:24.000Z</time>
      </trkpt>
      <trkpt lat="46.15241" lon="4.80469">
        <ele>172.19999694824</ele>
        <time>2024-05-20T11:39:25.000Z</time>
      </trkpt>
      <trkpt lat="46.15235" lon="4.80467">
        <ele>172.39999389648</ele>
        <time>2024-05-20T11:39:26.000Z</time>
      </trkpt>
      <trkpt lat="46.15229" lon="4.80464">
        <ele>172.39999389648</ele>
        <time>2024-05-20T11:39:27.000Z</time>
      </trkpt>
      <trkpt lat="46.15222" lon="4.80463">
        <ele>172.39999389648</ele>
        <time>2024-05-20T11:39:28.000Z</time>
      </trkpt>
      <trkpt lat="46.15216" lon="4.80462">
        <ele>172.39999389648</ele>
        <time>2024-05-20T11:39:29.000Z</time>
      </trkpt>
      <trkpt lat="46.1521" lon="4.80461">
        <ele>172.39999389648</ele>
        <time>2024-05-20T11:39:30.000Z</time>
      </trkpt>
      <trkpt lat="46.15204" lon="4.80459">
        <ele>172.39999389648</ele>
        <time>2024-05-20T11:39:31.000Z</time>
      </trkpt>
      <trkpt lat="46.15198" lon="4.80458">
        <ele>172.39999389648</ele>
        <time>2024-05-20T11:39:32.000Z</time>
      </trkpt>
      <trkpt lat="46.15192" lon="4.80457">
        <ele>172.60000610352</ele>
        <time>2024-05-20T11:39:33.000Z</time>
      </trkpt>
      <trkpt lat="46.15187" lon="4.80456">
        <ele>172.60000610352</ele>
        <time>2024-05-20T11:39:34.000Z</time>
      </trkpt>
      <trkpt lat="46.15181" lon="4.80456">
        <ele>172.60000610352</ele>
        <time>2024-05-20T11:39:35.000Z</time>
      </trkpt>
      <trkpt lat="46.15175" lon="4.80455">
        <ele>172.60000610352</ele>
        <time>2024-05-20T11:39:36.000Z</time>
      </trkpt>
      <trkpt lat="46.1517" lon="4.80454">
        <ele>172.80000305176</ele>
        <time>2024-05-20T11:39:37.000Z</time>
      </trkpt>
      <trkpt lat="46.15164" lon="4.80453">
        <ele>172.80000305176</ele>
        <time>2024-05-20T11:39:38.000Z</time>
      </trkpt>
      <trkpt lat="46.15158" lon="4.8045">
        <ele>172.80000305176</ele>
        <time>2024-05-20T11:39:39.000Z</time>
      </trkpt>
      <trkpt lat="46.15152" lon="4.80448">
        <ele>172.80000305176</ele>
        <time>2024-05-20T11:39:40.000Z</time>
      </trkpt>
      <trkpt lat="46.15146" lon="4.80446">
        <ele>172.80000305176</ele>
        <time>2024-05-20T11:39:41.000Z</time>
      </trkpt>
      <trkpt lat="46.1514" lon="4.80444">
        <ele>172.80000305176</ele>
        <time>2024-05-20T11:39:42.000Z</time>
      </trkpt>
      <trkpt lat="46.15134" lon="4.80442">
        <ele>172.80000305176</ele>
        <time>2024-05-20T11:39:43.000Z</time>
      </trkpt>
      <trkpt lat="46.15128" lon="4.8044">
        <ele>172.80000305176</ele>
        <time>2024-05-20T11:39:44.000Z</time>
      </trkpt>
      <trkpt lat="46.15122" lon="4.80438">
        <ele>172.80000305176</ele>
        <time>2024-05-20T11:39:45.000Z</time>
      </trkpt>
      <trkpt lat="46.15116" lon="4.80436">
        <ele>172.60000610352</ele>
        <time>2024-05-20T11:39:46.000Z</time>
      </trkpt>
      <trkpt lat="46.15111" lon="4.80434">
        <ele>172.60000610352</ele>
        <time>2024-05-20T11:39:47.000Z</time>
      </trkpt>
      <trkpt lat="46.15105" lon="4.80432">
        <ele>172.60000610352</ele>
        <time>2024-05-20T11:39:48.000Z</time>
      </trkpt>
      <trkpt lat="46.151" lon="4.8043">
        <ele>172.39999389648</ele>
        <time>2024-05-20T11:39:49.000Z</time>
      </trkpt>
      <trkpt lat="46.15094" lon="4.80428">
        <ele>172.39999389648</ele>
        <time>2024-05-20T11:39:50.000Z</time>
      </trkpt>
      <trkpt lat="46.15088" lon="4.80425">
        <ele>172.39999389648</ele>
        <time>2024-05-20T11:39:51.000Z</time>
      </trkpt>
      <trkpt lat="46.15083" lon="4.80423">
        <ele>172.39999389648</ele>
        <time>2024-05-20T11:39:52.000Z</time>
      </trkpt>
      <trkpt lat="46.15077" lon="4.8042">
        <ele>172.39999389648</ele>
        <time>2024-05-20T11:39:53.000Z</time>
      </trkpt>
      <trkpt lat="46.15071" lon="4.80418">
        <ele>172.39999389648</ele>
        <time>2024-05-20T11:39:54.000Z</time>
      </trkpt>
      <trkpt lat="46.15066" lon="4.80416">
        <ele>172.39999389648</ele>
        <time>2024-05-20T11:39:55.000Z</time>
      </trkpt>
      <trkpt lat="46.1506" lon="4.80414">
        <ele>172.39999389648</ele>
        <time>2024-05-20T11:39:56.000Z</time>
      </trkpt>
      <trkpt lat="46.15054" lon="4.80412">
        <ele>172.39999389648</ele>
        <time>2024-05-20T11:39:57.000Z</time>
      </trkpt>
      <trkpt lat="46.15048" lon="4.8041">
        <ele>172.39999389648</ele>
        <time>2024-05-20T11:39:58.000Z</time>
      </trkpt>
      <trkpt lat="46.15042" lon="4.80408">
        <ele>172.39999389648</ele>
        <time>2024-05-20T11:39:59.000Z</time>
      </trkpt>
      <trkpt lat="46.15037" lon="4.80406">
        <ele>172.39999389648</ele>
        <time>2024-05-20T11:40:00.000Z</time>
      </trkpt>
      <trkpt lat="46.15031" lon="4.80404">
        <ele>172.39999389648</ele>
        <time>2024-05-20T11:40:01.000Z</time>
      </trkpt>
      <trkpt lat="46.15025" lon="4.80402">
        <ele>172.39999389648</ele>
        <time>2024-05-20T11:40:02.000Z</time>
      </trkpt>
      <trkpt lat="46.1502" lon="4.804">
        <ele>172.19999694824</ele>
        <time>2024-05-20T11:40:03.000Z</time>
      </trkpt>
      <trkpt lat="46.15014" lon="4.80397">
        <ele>172</ele>
        <time>2024-05-20T11:40:04.000Z</time>
      </trkpt>
      <trkpt lat="46.15008" lon="4.80394">
        <ele>172</ele>
        <time>2024-05-20T11:40:05.000Z</time>
      </trkpt>
      <trkpt lat="46.15002" lon="4.80392">
        <ele>171.80000305176</ele>
        <time>2024-05-20T11:40:06.000Z</time>
      </trkpt>
      <trkpt lat="46.14997" lon="4.8039">
        <ele>171.80000305176</ele>
        <time>2024-05-20T11:40:07.000Z</time>
      </trkpt>
      <trkpt lat="46.14991" lon="4.80387">
        <ele>171.80000305176</ele>
        <time>2024-05-20T11:40:08.000Z</time>
      </trkpt>
      <trkpt lat="46.14986" lon="4.80385">
        <ele>171.60000610352</ele>
        <time>2024-05-20T11:40:09.000Z</time>
      </trkpt>
      <trkpt lat="46.1498" lon="4.80383">
        <ele>171.60000610352</ele>
        <time>2024-05-20T11:40:10.000Z</time>
      </trkpt>
      <trkpt lat="46.14974" lon="4.80381">
        <ele>171.60000610352</ele>
        <time>2024-05-20T11:40:11.000Z</time>
      </trkpt>
      <trkpt lat="46.14968" lon="4.80379">
        <ele>171.60000610352</ele>
        <time>2024-05-20T11:40:12.000Z</time>
      </trkpt>
      <trkpt lat="46.14963" lon="4.80377">
        <ele>171.60000610352</ele>
        <time>2024-05-20T11:40:13.000Z</time>
      </trkpt>
      <trkpt lat="46.14957" lon="4.80375">
        <ele>171</ele>
        <time>2024-05-20T11:40:14.000Z</time>
      </trkpt>
      <trkpt lat="46.14951" lon="4.80374">
        <ele>171</ele>
        <time>2024-05-20T11:40:15.000Z</time>
      </trkpt>
      <trkpt lat="46.14945" lon="4.80372">
        <ele>170.80000305176</ele>
        <time>2024-05-20T11:40:16.000Z</time>
      </trkpt>
      <trkpt lat="46.1494" lon="4.8037">
        <ele>170.60000610352</ele>
        <time>2024-05-20T11:40:17.000Z</time>
      </trkpt>
      <trkpt lat="46.14934" lon="4.80368">
        <ele>170.39999389648</ele>
        <time>2024-05-20T11:40:18.000Z</time>
      </trkpt>
      <trkpt lat="46.14929" lon="4.80365">
        <ele>170.39999389648</ele>
        <time>2024-05-20T11:40:19.000Z</time>
      </trkpt>
      <trkpt lat="46.14923" lon="4.80363">
        <ele>170.39999389648</ele>
        <time>2024-05-20T11:40:20.000Z</time>
      </trkpt>
      <trkpt lat="46.14918" lon="4.80361">
        <ele>170.39999389648</ele>
        <time>2024-05-20T11:40:21.000Z</time>
      </trkpt>
      <trkpt lat="46.14912" lon="4.80359">
        <ele>170.39999389648</ele>
        <time>2024-05-20T11:40:22.000Z</time>
      </trkpt>
      <trkpt lat="46.14907" lon="4.80357">
        <ele>170.39999389648</ele>
        <time>2024-05-20T11:40:23.000Z</time>
      </trkpt>
      <trkpt lat="46.14901" lon="4.80355">
        <ele>170.39999389648</ele>
        <time>2024-05-20T11:40:24.000Z</time>
      </trkpt>
      <trkpt lat="46.14896" lon="4.80353">
        <ele>170.39999389648</ele>
        <time>2024-05-20T11:40:25.000Z</time>
      </trkpt>
      <trkpt lat="46.14891" lon="4.80351">
        <ele>170.39999389648</ele>
        <time>2024-05-20T11:40:26.000Z</time>
      </trkpt>
      <trkpt lat="46.14885" lon="4.80349">
        <ele>170.39999389648</ele>
        <time>2024-05-20T11:40:27.000Z</time>
      </trkpt>
      <trkpt lat="46.1488" lon="4.80347">
        <ele>170.39999389648</ele>
        <time>2024-05-20T11:40:28.000Z</time>
      </trkpt>
      <trkpt lat="46.14874" lon="4.80345">
        <ele>170.39999389648</ele>
        <time>2024-05-20T11:40:29.000Z</time>
      </trkpt>
      <trkpt lat="46.14869" lon="4.80343">
        <ele>170.60000610352</ele>
        <time>2024-05-20T11:40:30.000Z</time>
      </trkpt>
      <trkpt lat="46.14863" lon="4.80341">
        <ele>170.60000610352</ele>
        <time>2024-05-20T11:40:31.000Z</time>
      </trkpt>
      <trkpt lat="46.14858" lon="4.80338">
        <ele>170.80000305176</ele>
        <time>2024-05-20T11:40:32.000Z</time>
      </trkpt>
      <trkpt lat="46.14852" lon="4.80336">
        <ele>171.19999694824</ele>
        <time>2024-05-20T11:40:33.000Z</time>
      </trkpt>
      <trkpt lat="46.14847" lon="4.80334">
        <ele>171.19999694824</ele>
        <time>2024-05-20T11:40:34.000Z</time>
      </trkpt>
      <trkpt lat="46.14842" lon="4.80332">
        <ele>171.19999694824</ele>
        <time>2024-05-20T11:40:35.000Z</time>
      </trkpt>
      <trkpt lat="46.14836" lon="4.8033">
        <ele>171.19999694824</ele>
        <time>2024-05-20T11:40:36.000Z</time>
      </trkpt>
      <trkpt lat="46.14831" lon="4.80327">
        <ele>171.19999694824</ele>
        <time>2024-05-20T11:40:37.000Z</time>
      </trkpt>
      <trkpt lat="46.14826" lon="4.80324">
        <ele>171.19999694824</ele>
        <time>2024-05-20T11:40:38.000Z</time>
      </trkpt>
      <trkpt lat="46.14821" lon="4.80321">
        <ele>171.39999389648</ele>
        <time>2024-05-20T11:40:39.000Z</time>
      </trkpt>
      <trkpt lat="46.14816" lon="4.80318">
        <ele>171.39999389648</ele>
        <time>2024-05-20T11:40:40.000Z</time>
      </trkpt>
      <trkpt lat="46.1481" lon="4.80315">
        <ele>171.60000610352</ele>
        <time>2024-05-20T11:40:41.000Z</time>
      </trkpt>
      <trkpt lat="46.14805" lon="4.80313">
        <ele>171.80000305176</ele>
        <time>2024-05-20T11:40:42.000Z</time>
      </trkpt>
      <trkpt lat="46.14799" lon="4.80311">
        <ele>171.80000305176</ele>
        <time>2024-05-20T11:40:43.000Z</time>
      </trkpt>
      <trkpt lat="46.14794" lon="4.80308">
        <ele>171.80000305176</ele>
        <time>2024-05-20T11:40:44.000Z</time>
      </trkpt>
      <trkpt lat="46.14788" lon="4.80306">
        <ele>171.80000305176</ele>
        <time>2024-05-20T11:40:45.000Z</time>
      </trkpt>
      <trkpt lat="46.14783" lon="4.80304">
        <ele>171.80000305176</ele>
        <time>2024-05-20T11:40:46.000Z</time>
      </trkpt>
      <trkpt lat="46.14777" lon="4.80302">
        <ele>171.60000610352</ele>
        <time>2024-05-20T11:40:47.000Z</time>
      </trkpt>
      <trkpt lat="46.14771" lon="4.803">
        <ele>171.60000610352</ele>
        <time>2024-05-20T11:40:48.000Z</time>
      </trkpt>
      <trkpt lat="46.14765" lon="4.80298">
        <ele>171.60000610352</ele>
        <time>2024-05-20T11:40:49.000Z</time>
      </trkpt>
      <trkpt lat="46.1476" lon="4.80296">
        <ele>171.60000610352</ele>
        <time>2024-05-20T11:40:50.000Z</time>
      </trkpt>
      <trkpt lat="46.14755" lon="4.80294">
        <ele>171.60000610352</ele>
        <time>2024-05-20T11:40:51.000Z</time>
      </trkpt>
      <trkpt lat="46.14749" lon="4.80291">
        <ele>171.60000610352</ele>
        <time>2024-05-20T11:40:52.000Z</time>
      </trkpt>
      <trkpt lat="46.14743" lon="4.80289">
        <ele>171.80000305176</ele>
        <time>2024-05-20T11:40:53.000Z</time>
      </trkpt>
      <trkpt lat="46.14737" lon="4.80287">
        <ele>172</ele>
        <time>2024-05-20T11:40:54.000Z</time>
      </trkpt>
      <trkpt lat="46.14731" lon="4.80285">
        <ele>172</ele>
        <time>2024-05-20T11:40:55.000Z</time>
      </trkpt>
      <trkpt lat="46.14726" lon="4.80283">
        <ele>172</ele>
        <time>2024-05-20T11:40:56.000Z</time>
      </trkpt>
      <trkpt lat="46.1472" lon="4.8028">
        <ele>172</ele>
        <time>2024-05-20T11:40:57.000Z</time>
      </trkpt>
      <trkpt lat="46.14715" lon="4.80278">
        <ele>172</ele>
        <time>2024-05-20T11:40:58.000Z</time>
      </trkpt>
      <trkpt lat="46.14709" lon="4.80276">
        <ele>171.80000305176</ele>
        <time>2024-05-20T11:40:59.000Z</time>
      </trkpt>
      <trkpt lat="46.14704" lon="4.80273">
        <ele>171.80000305176</ele>
        <time>2024-05-20T11:41:00.000Z</time>
      </trkpt>
      <trkpt lat="46.14698" lon="4.80271">
        <ele>171.80000305176</ele>
        <time>2024-05-20T11:41:01.000Z</time>
      </trkpt>
      <trkpt lat="46.14692" lon="4.80269">
        <ele>171.80000305176</ele>
        <time>2024-05-20T11:41:02.000Z</time>
      </trkpt>
      <trkpt lat="46.14687" lon="4.80266">
        <ele>171.80000305176</ele>
        <time>2024-05-20T11:41:03.000Z</time>
      </trkpt>
      <trkpt lat="46.14681" lon="4.80264">
        <ele>171.80000305176</ele>
        <time>2024-05-20T11:41:04.000Z</time>
      </trkpt>
      <trkpt lat="46.14675" lon="4.80261">
        <ele>172</ele>
        <time>2024-05-20T11:41:05.000Z</time>
      </trkpt>
      <trkpt lat="46.1467" lon="4.80259">
        <ele>172</ele>
        <time>2024-05-20T11:41:06.000Z</time>
      </trkpt>
      <trkpt lat="46.14664" lon="4.80256">
        <ele>172.19999694824</ele>
        <time>2024-05-20T11:41:07.000Z</time>
      </trkpt>
      <trkpt lat="46.14659" lon="4.80253">
        <ele>172.19999694824</ele>
        <time>2024-05-20T11:41:08.000Z</time>
      </trkpt>
      <trkpt lat="46.14653" lon="4.8025">
        <ele>172.19999694824</ele>
        <time>2024-05-20T11:41:09.000Z</time>
      </trkpt>
      <trkpt lat="46.14648" lon="4.80246">
        <ele>172.19999694824</ele>
        <time>2024-05-20T11:41:10.000Z</time>
      </trkpt>
      <trkpt lat="46.14643" lon="4.80242">
        <ele>172.19999694824</ele>
        <time>2024-05-20T11:41:11.000Z</time>
      </trkpt>
      <trkpt lat="46.14637" lon="4.8024">
        <ele>172.19999694824</ele>
        <time>2024-05-20T11:41:12.000Z</time>
      </trkpt>
      <trkpt lat="46.14631" lon="4.80239">
        <ele>172.19999694824</ele>
        <time>2024-05-20T11:41:13.000Z</time>
      </trkpt>
      <trkpt lat="46.14625" lon="4.80241">
        <ele>172.19999694824</ele>
        <time>2024-05-20T11:41:14.000Z</time>
      </trkpt>
      <trkpt lat="46.14619" lon="4.80243">
        <ele>172</ele>
        <time>2024-05-20T11:41:15.000Z</time>
      </trkpt>
      <trkpt lat="46.14613" lon="4.80246">
        <ele>172</ele>
        <time>2024-05-20T11:41:16.000Z</time>
      </trkpt>
      <trkpt lat="46.14607" lon="4.80247">
        <ele>171.80000305176</ele>
        <time>2024-05-20T11:41:17.000Z</time>
      </trkpt>
      <trkpt lat="46.14601" lon="4.80248">
        <ele>171.80000305176</ele>
        <time>2024-05-20T11:41:18.000Z</time>
      </trkpt>
      <trkpt lat="46.14595" lon="4.80249">
        <ele>171.80000305176</ele>
        <time>2024-05-20T11:41:19.000Z</time>
      </trkpt>
      <trkpt lat="46.14589" lon="4.80248">
        <ele>171.80000305176</ele>
        <time>2024-05-20T11:41:20.000Z</time>
      </trkpt>
      <trkpt lat="46.14583" lon="4.80247">
        <ele>171.80000305176</ele>
        <time>2024-05-20T11:41:21.000Z</time>
      </trkpt>
      <trkpt lat="46.14578" lon="4.80245">
        <ele>171.80000305176</ele>
        <time>2024-05-20T11:41:22.000Z</time>
      </trkpt>
      <trkpt lat="46.14572" lon="4.80244">
        <ele>171.80000305176</ele>
        <time>2024-05-20T11:41:23.000Z</time>
      </trkpt>
      <trkpt lat="46.14566" lon="4.80242">
        <ele>172</ele>
        <time>2024-05-20T11:41:24.000Z</time>
      </trkpt>
      <trkpt lat="46.1456" lon="4.80241">
        <ele>172</ele>
        <time>2024-05-20T11:41:25.000Z</time>
      </trkpt>
      <trkpt lat="46.14555" lon="4.80239">
        <ele>172.19999694824</ele>
        <time>2024-05-20T11:41:26.000Z</time>
      </trkpt>
      <trkpt lat="46.14549" lon="4.80238">
        <ele>172.19999694824</ele>
        <time>2024-05-20T11:41:27.000Z</time>
      </trkpt>
      <trkpt lat="46.14543" lon="4.80236">
        <ele>172.19999694824</ele>
        <time>2024-05-20T11:41:28.000Z</time>
      </trkpt>
      <trkpt lat="46.14538" lon="4.80235">
        <ele>172.39999389648</ele>
        <time>2024-05-20T11:41:29.000Z</time>
      </trkpt>
      <trkpt lat="46.14532" lon="4.80233">
        <ele>172.39999389648</ele>
        <time>2024-05-20T11:41:30.000Z</time>
      </trkpt>
      <trkpt lat="46.14525" lon="4.80232">
        <ele>172.39999389648</ele>
        <time>2024-05-20T11:41:31.000Z</time>
      </trkpt>
      <trkpt lat="46.14519" lon="4.8023">
        <ele>172.39999389648</ele>
        <time>2024-05-20T11:41:32.000Z</time>
      </trkpt>
      <trkpt lat="46.14513" lon="4.80228">
        <ele>172.39999389648</ele>
        <time>2024-05-20T11:41:33.000Z</time>
      </trkpt>
      <trkpt lat="46.14507" lon="4.80227">
        <ele>172.39999389648</ele>
        <time>2024-05-20T11:41:34.000Z</time>
      </trkpt>
      <trkpt lat="46.14501" lon="4.80225">
        <ele>172.39999389648</ele>
        <time>2024-05-20T11:41:35.000Z</time>
      </trkpt>
      <trkpt lat="46.14494" lon="4.80224">
        <ele>172.19999694824</ele>
        <time>2024-05-20T11:41:36.000Z</time>
      </trkpt>
      <trkpt lat="46.14488" lon="4.80222">
        <ele>172.19999694824</ele>
        <time>2024-05-20T11:41:37.000Z</time>
      </trkpt>
      <trkpt lat="46.14482" lon="4.80221">
        <ele>172.19999694824</ele>
        <time>2024-05-20T11:41:38.000Z</time>
      </trkpt>
      <trkpt lat="46.14476" lon="4.8022">
        <ele>172.19999694824</ele>
        <time>2024-05-20T11:41:39.000Z</time>
      </trkpt>
      <trkpt lat="46.1447" lon="4.80218">
        <ele>172.39999389648</ele>
        <time>2024-05-20T11:41:40.000Z</time>
      </trkpt>
      <trkpt lat="46.14464" lon="4.80217">
        <ele>172.39999389648</ele>
        <time>2024-05-20T11:41:41.000Z</time>
      </trkpt>
      <trkpt lat="46.14458" lon="4.80216">
        <ele>172.39999389648</ele>
        <time>2024-05-20T11:41:42.000Z</time>
      </trkpt>
      <trkpt lat="46.14451" lon="4.80215">
        <ele>172.39999389648</ele>
        <time>2024-05-20T11:41:43.000Z</time>
      </trkpt>
      <trkpt lat="46.14445" lon="4.80213">
        <ele>172.39999389648</ele>
        <time>2024-05-20T11:41:44.000Z</time>
      </trkpt>
      <trkpt lat="46.14439" lon="4.80211">
        <ele>172.39999389648</ele>
        <time>2024-05-20T11:41:45.000Z</time>
      </trkpt>
      <trkpt lat="46.14433" lon="4.80209">
        <ele>172.39999389648</ele>
        <time>2024-05-20T11:41:46.000Z</time>
      </trkpt>
      <trkpt lat="46.14427" lon="4.80208">
        <ele>172.60000610352</ele>
        <time>2024-05-20T11:41:47.000Z</time>
      </trkpt>
      <trkpt lat="46.14421" lon="4.80206">
        <ele>172.60000610352</ele>
        <time>2024-05-20T11:41:48.000Z</time>
      </trkpt>
      <trkpt lat="46.14415" lon="4.80204">
        <ele>172.60000610352</ele>
        <time>2024-05-20T11:41:49.000Z</time>
      </trkpt>
      <trkpt lat="46.14409" lon="4.80202">
        <ele>172.60000610352</ele>
        <time>2024-05-20T11:41:50.000Z</time>
      </trkpt>
      <trkpt lat="46.14403" lon="4.802">
        <ele>172.39999389648</ele>
        <time>2024-05-20T11:41:51.000Z</time>
      </trkpt>
      <trkpt lat="46.14396" lon="4.80197">
        <ele>172.39999389648</ele>
        <time>2024-05-20T11:41:52.000Z</time>
      </trkpt>
      <trkpt lat="46.1439" lon="4.80195">
        <ele>172.39999389648</ele>
        <time>2024-05-20T11:41:53.000Z</time>
      </trkpt>
      <trkpt lat="46.14384" lon="4.80194">
        <ele>172.39999389648</ele>
        <time>2024-05-20T11:41:54.000Z</time>
      </trkpt>
      <trkpt lat="46.14379" lon="4.80192">
        <ele>172.39999389648</ele>
        <time>2024-05-20T11:41:55.000Z</time>
      </trkpt>
      <trkpt lat="46.14373" lon="4.80189">
        <ele>172.39999389648</ele>
        <time>2024-05-20T11:41:56.000Z</time>
      </trkpt>
      <trkpt lat="46.14367" lon="4.80186">
        <ele>172.39999389648</ele>
        <time>2024-05-20T11:41:57.000Z</time>
      </trkpt>
      <trkpt lat="46.14361" lon="4.80184">
        <ele>172.39999389648</ele>
        <time>2024-05-20T11:41:58.000Z</time>
      </trkpt>
      <trkpt lat="46.14355" lon="4.80182">
        <ele>172.39999389648</ele>
        <time>2024-05-20T11:41:59.000Z</time>
      </trkpt>
      <trkpt lat="46.1435" lon="4.80179">
        <ele>172.39999389648</ele>
        <time>2024-05-20T11:42:00.000Z</time>
      </trkpt>
      <trkpt lat="46.14344" lon="4.80177">
        <ele>172.39999389648</ele>
        <time>2024-05-20T11:42:01.000Z</time>
      </trkpt>
      <trkpt lat="46.14338" lon="4.80175">
        <ele>172.39999389648</ele>
        <time>2024-05-20T11:42:02.000Z</time>
      </trkpt>
      <trkpt lat="46.14333" lon="4.80172">
        <ele>172.39999389648</ele>
        <time>2024-05-20T11:42:03.000Z</time>
      </trkpt>
      <trkpt lat="46.14327" lon="4.80169">
        <ele>172.39999389648</ele>
        <time>2024-05-20T11:42:04.000Z</time>
      </trkpt>
      <trkpt lat="46.14321" lon="4.80166">
        <ele>172.39999389648</ele>
        <time>2024-05-20T11:42:05.000Z</time>
      </trkpt>
      <trkpt lat="46.14315" lon="4.80163">
        <ele>172.39999389648</ele>
        <time>2024-05-20T11:42:06.000Z</time>
      </trkpt>
      <trkpt lat="46.14309" lon="4.8016">
        <ele>172.39999389648</ele>
        <time>2024-05-20T11:42:07.000Z</time>
      </trkpt>
      <trkpt lat="46.14304" lon="4.80157">
        <ele>172.60000610352</ele>
        <time>2024-05-20T11:42:08.000Z</time>
      </trkpt>
      <trkpt lat="46.14298" lon="4.80153">
        <ele>172.39999389648</ele>
        <time>2024-05-20T11:42:09.000Z</time>
      </trkpt>
      <trkpt lat="46.14292" lon="4.8015">
        <ele>172.39999389648</ele>
        <time>2024-05-20T11:42:10.000Z</time>
      </trkpt>
      <trkpt lat="46.14287" lon="4.80147">
        <ele>172.39999389648</ele>
        <time>2024-05-20T11:42:11.000Z</time>
      </trkpt>
      <trkpt lat="46.14281" lon="4.80144">
        <ele>172.39999389648</ele>
        <time>2024-05-20T11:42:12.000Z</time>
      </trkpt>
      <trkpt lat="46.14275" lon="4.80141">
        <ele>172.60000610352</ele>
        <time>2024-05-20T11:42:13.000Z</time>
      </trkpt>
      <trkpt lat="46.1427" lon="4.80137">
        <ele>172.60000610352</ele>
        <time>2024-05-20T11:42:14.000Z</time>
      </trkpt>
      <trkpt lat="46.14264" lon="4.80134">
        <ele>172.60000610352</ele>
        <time>2024-05-20T11:42:15.000Z</time>
      </trkpt>
      <trkpt lat="46.14258" lon="4.80131">
        <ele>172.60000610352</ele>
        <time>2024-05-20T11:42:16.000Z</time>
      </trkpt>
      <trkpt lat="46.14252" lon="4.80128">
        <ele>172.60000610352</ele>
        <time>2024-05-20T11:42:17.000Z</time>
      </trkpt>
      <trkpt lat="46.14247" lon="4.80125">
        <ele>172.60000610352</ele>
        <time>2024-05-20T11:42:18.000Z</time>
      </trkpt>
      <trkpt lat="46.14241" lon="4.80122">
        <ele>172.60000610352</ele>
        <time>2024-05-20T11:42:19.000Z</time>
      </trkpt>
      <trkpt lat="46.14236" lon="4.80118">
        <ele>172.60000610352</ele>
        <time>2024-05-20T11:42:20.000Z</time>
      </trkpt>
      <trkpt lat="46.1423" lon="4.80115">
        <ele>172.60000610352</ele>
        <time>2024-05-20T11:42:21.000Z</time>
      </trkpt>
      <trkpt lat="46.14225" lon="4.80111">
        <ele>172.60000610352</ele>
        <time>2024-05-20T11:42:22.000Z</time>
      </trkpt>
      <trkpt lat="46.14219" lon="4.80107">
        <ele>172.60000610352</ele>
        <time>2024-05-20T11:42:23.000Z</time>
      </trkpt>
      <trkpt lat="46.14213" lon="4.80103">
        <ele>172.60000610352</ele>
        <time>2024-05-20T11:42:24.000Z</time>
      </trkpt>
      <trkpt lat="46.14208" lon="4.80099">
        <ele>172.39999389648</ele>
        <time>2024-05-20T11:42:25.000Z</time>
      </trkpt>
      <trkpt lat="46.14202" lon="4.80095">
        <ele>172.39999389648</ele>
        <time>2024-05-20T11:42:26.000Z</time>
      </trkpt>
      <trkpt lat="46.14197" lon="4.80091">
        <ele>172.39999389648</ele>
        <time>2024-05-20T11:42:27.000Z</time>
      </trkpt>
      <trkpt lat="46.14191" lon="4.80087">
        <ele>172.39999389648</ele>
        <time>2024-05-20T11:42:28.000Z</time>
      </trkpt>
      <trkpt lat="46.14186" lon="4.80083">
        <ele>172.39999389648</ele>
        <time>2024-05-20T11:42:29.000Z</time>
      </trkpt>
      <trkpt lat="46.1418" lon="4.80079">
        <ele>172.39999389648</ele>
        <time>2024-05-20T11:42:30.000Z</time>
      </trkpt>
      <trkpt lat="46.14175" lon="4.80075">
        <ele>172.39999389648</ele>
        <time>2024-05-20T11:42:31.000Z</time>
      </trkpt>
      <trkpt lat="46.14169" lon="4.8007">
        <ele>172.39999389648</ele>
        <time>2024-05-20T11:42:32.000Z</time>
      </trkpt>
      <trkpt lat="46.14164" lon="4.80066">
        <ele>172.39999389648</ele>
        <time>2024-05-20T11:42:33.000Z</time>
      </trkpt>
      <trkpt lat="46.14158" lon="4.80062">
        <ele>172.39999389648</ele>
        <time>2024-05-20T11:42:34.000Z</time>
      </trkpt>
      <trkpt lat="46.14152" lon="4.80057">
        <ele>172.39999389648</ele>
        <time>2024-05-20T11:42:35.000Z</time>
      </trkpt>
      <trkpt lat="46.14147" lon="4.80053">
        <ele>172.39999389648</ele>
        <time>2024-05-20T11:42:36.000Z</time>
      </trkpt>
      <trkpt lat="46.14142" lon="4.80049">
        <ele>172.60000610352</ele>
        <time>2024-05-20T11:42:37.000Z</time>
      </trkpt>
      <trkpt lat="46.14136" lon="4.80044">
        <ele>172.60000610352</ele>
        <time>2024-05-20T11:42:38.000Z</time>
      </trkpt>
      <trkpt lat="46.14131" lon="4.8004">
        <ele>172.60000610352</ele>
        <time>2024-05-20T11:42:39.000Z</time>
      </trkpt>
      <trkpt lat="46.14126" lon="4.80035">
        <ele>172.60000610352</ele>
        <time>2024-05-20T11:42:40.000Z</time>
      </trkpt>
      <trkpt lat="46.1412" lon="4.80031">
        <ele>172.80000305176</ele>
        <time>2024-05-20T11:42:41.000Z</time>
      </trkpt>
      <trkpt lat="46.14115" lon="4.80026">
        <ele>173</ele>
        <time>2024-05-20T11:42:42.000Z</time>
      </trkpt>
      <trkpt lat="46.1411" lon="4.80021">
        <ele>173</ele>
        <time>2024-05-20T11:42:43.000Z</time>
      </trkpt>
      <trkpt lat="46.14104" lon="4.80015">
        <ele>172.80000305176</ele>
        <time>2024-05-20T11:42:44.000Z</time>
      </trkpt>
      <trkpt lat="46.14099" lon="4.8001">
        <ele>172.80000305176</ele>
        <time>2024-05-20T11:42:45.000Z</time>
      </trkpt>
      <trkpt lat="46.14095" lon="4.80006">
        <ele>172.80000305176</ele>
        <time>2024-05-20T11:42:46.000Z</time>
      </trkpt>
      <trkpt lat="46.1409" lon="4.80001">
        <ele>172.80000305176</ele>
        <time>2024-05-20T11:42:47.000Z</time>
      </trkpt>
      <trkpt lat="46.14085" lon="4.79996">
        <ele>172.60000610352</ele>
        <time>2024-05-20T11:42:48.000Z</time>
      </trkpt>
      <trkpt lat="46.1408" lon="4.79991">
        <ele>172.60000610352</ele>
        <time>2024-05-20T11:42:49.000Z</time>
      </trkpt>
      <trkpt lat="46.14075" lon="4.79986">
        <ele>172.60000610352</ele>
        <time>2024-05-20T11:42:50.000Z</time>
      </trkpt>
      <trkpt lat="46.1407" lon="4.79981">
        <ele>172.60000610352</ele>
        <time>2024-05-20T11:42:51.000Z</time>
      </trkpt>
      <trkpt lat="46.14065" lon="4.79976">
        <ele>172.60000610352</ele>
        <time>2024-05-20T11:42:52.000Z</time>
      </trkpt>
      <trkpt lat="46.14059" lon="4.7997">
        <ele>172.80000305176</ele>
        <time>2024-05-20T11:42:53.000Z</time>
      </trkpt>
      <trkpt lat="46.14054" lon="4.79965">
        <ele>172.80000305176</ele>
        <time>2024-05-20T11:42:54.000Z</time>
      </trkpt>
      <trkpt lat="46.14049" lon="4.7996">
        <ele>172.80000305176</ele>
        <time>2024-05-20T11:42:55.000Z</time>
      </trkpt>
      <trkpt lat="46.14044" lon="4.79954">
        <ele>172.80000305176</ele>
        <time>2024-05-20T11:42:56.000Z</time>
      </trkpt>
      <trkpt lat="46.1404" lon="4.7995">
        <ele>172.80000305176</ele>
        <time>2024-05-20T11:42:57.000Z</time>
      </trkpt>
      <trkpt lat="46.14035" lon="4.79945">
        <ele>172.80000305176</ele>
        <time>2024-05-20T11:42:58.000Z</time>
      </trkpt>
      <trkpt lat="46.1403" lon="4.7994">
        <ele>172.80000305176</ele>
        <time>2024-05-20T11:42:59.000Z</time>
      </trkpt>
      <trkpt lat="46.14024" lon="4.79934">
        <ele>172.80000305176</ele>
        <time>2024-05-20T11:43:00.000Z</time>
      </trkpt>
      <trkpt lat="46.14019" lon="4.79928">
        <ele>172.80000305176</ele>
        <time>2024-05-20T11:43:01.000Z</time>
      </trkpt>
      <trkpt lat="46.14014" lon="4.79923">
        <ele>172.80000305176</ele>
        <time>2024-05-20T11:43:02.000Z</time>
      </trkpt>
      <trkpt lat="46.14009" lon="4.79916">
        <ele>173</ele>
        <time>2024-05-20T11:43:03.000Z</time>
      </trkpt>
      <trkpt lat="46.14004" lon="4.79911">
        <ele>173</ele>
        <time>2024-05-20T11:43:04.000Z</time>
      </trkpt>
      <trkpt lat="46.13998" lon="4.79904">
        <ele>173</ele>
        <time>2024-05-20T11:43:05.000Z</time>
      </trkpt>
      <trkpt lat="46.13993" lon="4.79899">
        <ele>173.19999694824</ele>
        <time>2024-05-20T11:43:06.000Z</time>
      </trkpt>
      <trkpt lat="46.13988" lon="4.79893">
        <ele>173.19999694824</ele>
        <time>2024-05-20T11:43:07.000Z</time>
      </trkpt>
      <trkpt lat="46.13983" lon="4.79888">
        <ele>173.19999694824</ele>
        <time>2024-05-20T11:43:08.000Z</time>
      </trkpt>
      <trkpt lat="46.13978" lon="4.79883">
        <ele>173</ele>
        <time>2024-05-20T11:43:09.000Z</time>
      </trkpt>
      <trkpt lat="46.13974" lon="4.79878">
        <ele>173</ele>
        <time>2024-05-20T11:43:10.000Z</time>
      </trkpt>
      <trkpt lat="46.13969" lon="4.79872">
        <ele>173</ele>
        <time>2024-05-20T11:43:11.000Z</time>
      </trkpt>
      <trkpt lat="46.13964" lon="4.79867">
        <ele>173</ele>
        <time>2024-05-20T11:43:12.000Z</time>
      </trkpt>
      <trkpt lat="46.13958" lon="4.7986">
        <ele>173</ele>
        <time>2024-05-20T11:43:13.000Z</time>
      </trkpt>
      <trkpt lat="46.13953" lon="4.79854">
        <ele>172.80000305176</ele>
        <time>2024-05-20T11:43:14.000Z</time>
      </trkpt>
      <trkpt lat="46.13948" lon="4.79849">
        <ele>172.80000305176</ele>
        <time>2024-05-20T11:43:15.000Z</time>
      </trkpt>
      <trkpt lat="46.13943" lon="4.79842">
        <ele>172.80000305176</ele>
        <time>2024-05-20T11:43:16.000Z</time>
      </trkpt>
      <trkpt lat="46.13938" lon="4.79837">
        <ele>172.80000305176</ele>
        <time>2024-05-20T11:43:17.000Z</time>
      </trkpt>
      <trkpt lat="46.13933" lon="4.79831">
        <ele>172.60000610352</ele>
        <time>2024-05-20T11:43:18.000Z</time>
      </trkpt>
      <trkpt lat="46.13929" lon="4.79828">
        <ele>172.60000610352</ele>
        <time>2024-05-20T11:43:19.000Z</time>
      </trkpt>
      <trkpt lat="46.13924" lon="4.79823">
        <ele>172.60000610352</ele>
        <time>2024-05-20T11:43:20.000Z</time>
      </trkpt>
      <trkpt lat="46.13919" lon="4.79818">
        <ele>172.60000610352</ele>
        <time>2024-05-20T11:43:21.000Z</time>
      </trkpt>
      <trkpt lat="46.13914" lon="4.79812">
        <ele>172.60000610352</ele>
        <time>2024-05-20T11:43:22.000Z</time>
      </trkpt>
      <trkpt lat="46.13909" lon="4.79807">
        <ele>172.60000610352</ele>
        <time>2024-05-20T11:43:23.000Z</time>
      </trkpt>
      <trkpt lat="46.13904" lon="4.79802">
        <ele>172.60000610352</ele>
        <time>2024-05-20T11:43:24.000Z</time>
      </trkpt>
      <trkpt lat="46.13899" lon="4.79797">
        <ele>172.60000610352</ele>
        <time>2024-05-20T11:43:25.000Z</time>
      </trkpt>
      <trkpt lat="46.13894" lon="4.79792">
        <ele>172.60000610352</ele>
        <time>2024-05-20T11:43:26.000Z</time>
      </trkpt>
      <trkpt lat="46.1389" lon="4.79787">
        <ele>172.60000610352</ele>
        <time>2024-05-20T11:43:27.000Z</time>
      </trkpt>
      <trkpt lat="46.13885" lon="4.79782">
        <ele>172.60000610352</ele>
        <time>2024-05-20T11:43:28.000Z</time>
      </trkpt>
      <trkpt lat="46.1388" lon="4.79777">
        <ele>172.60000610352</ele>
        <time>2024-05-20T11:43:29.000Z</time>
      </trkpt>
      <trkpt lat="46.13875" lon="4.79772">
        <ele>172.60000610352</ele>
        <time>2024-05-20T11:43:30.000Z</time>
      </trkpt>
      <trkpt lat="46.1387" lon="4.79766">
        <ele>172.80000305176</ele>
        <time>2024-05-20T11:43:31.000Z</time>
      </trkpt>
      <trkpt lat="46.13865" lon="4.79761">
        <ele>172.80000305176</ele>
        <time>2024-05-20T11:43:32.000Z</time>
      </trkpt>
      <trkpt lat="46.13861" lon="4.79756">
        <ele>172.80000305176</ele>
        <time>2024-05-20T11:43:33.000Z</time>
      </trkpt>
      <trkpt lat="46.13856" lon="4.79751">
        <ele>172.80000305176</ele>
        <time>2024-05-20T11:43:34.000Z</time>
      </trkpt>
      <trkpt lat="46.13852" lon="4.79746">
        <ele>172.80000305176</ele>
        <time>2024-05-20T11:43:35.000Z</time>
      </trkpt>
      <trkpt lat="46.13847" lon="4.7974">
        <ele>172.80000305176</ele>
        <time>2024-05-20T11:43:36.000Z</time>
      </trkpt>
      <trkpt lat="46.13843" lon="4.79734">
        <ele>172.80000305176</ele>
        <time>2024-05-20T11:43:37.000Z</time>
      </trkpt>
      <trkpt lat="46.13839" lon="4.79728">
        <ele>172.80000305176</ele>
        <time>2024-05-20T11:43:38.000Z</time>
      </trkpt>
      <trkpt lat="46.13835" lon="4.79724">
        <ele>172.80000305176</ele>
        <time>2024-05-20T11:43:39.000Z</time>
      </trkpt>
      <trkpt lat="46.1383" lon="4.79718">
        <ele>172.80000305176</ele>
        <time>2024-05-20T11:43:40.000Z</time>
      </trkpt>
      <trkpt lat="46.13826" lon="4.79713">
        <ele>173</ele>
        <time>2024-05-20T11:43:41.000Z</time>
      </trkpt>
      <trkpt lat="46.13821" lon="4.79707">
        <ele>173</ele>
        <time>2024-05-20T11:43:42.000Z</time>
      </trkpt>
      <trkpt lat="46.13816" lon="4.79701">
        <ele>173</ele>
        <time>2024-05-20T11:43:43.000Z</time>
      </trkpt>
      <trkpt lat="46.13811" lon="4.79695">
        <ele>173</ele>
        <time>2024-05-20T11:43:44.000Z</time>
      </trkpt>
      <trkpt lat="46.13806" lon="4.7969">
        <ele>172.80000305176</ele>
        <time>2024-05-20T11:43:45.000Z</time>
      </trkpt>
      <trkpt lat="46.13801" lon="4.79685">
        <ele>172.80000305176</ele>
        <time>2024-05-20T11:43:46.000Z</time>
      </trkpt>
      <trkpt lat="46.13796" lon="4.7968">
        <ele>172.80000305176</ele>
        <time>2024-05-20T11:43:47.000Z</time>
      </trkpt>
      <trkpt lat="46.13791" lon="4.79674">
        <ele>172.80000305176</ele>
        <time>2024-05-20T11:43:48.000Z</time>
      </trkpt>
      <trkpt lat="46.13786" lon="4.79668">
        <ele>172.80000305176</ele>
        <time>2024-05-20T11:43:49.000Z</time>
      </trkpt>
      <trkpt lat="46.13781" lon="4.79662">
        <ele>172.80000305176</ele>
        <time>2024-05-20T11:43:50.000Z</time>
      </trkpt>
      <trkpt lat="46.13776" lon="4.79657">
        <ele>172.80000305176</ele>
        <time>2024-05-20T11:43:51.000Z</time>
      </trkpt>
      <trkpt lat="46.13771" lon="4.79652">
        <ele>172.80000305176</ele>
        <time>2024-05-20T11:43:52.000Z</time>
      </trkpt>
      <trkpt lat="46.13766" lon="4.79647">
        <ele>172.80000305176</ele>
        <time>2024-05-20T11:43:53.000Z</time>
      </trkpt>
      <trkpt lat="46.13761" lon="4.79642">
        <ele>172.80000305176</ele>
        <time>2024-05-20T11:43:54.000Z</time>
      </trkpt>
      <trkpt lat="46.13756" lon="4.79636">
        <ele>172.60000610352</ele>
        <time>2024-05-20T11:43:55.000Z</time>
      </trkpt>
      <trkpt lat="46.13752" lon="4.7963">
        <ele>172.60000610352</ele>
        <time>2024-05-20T11:43:56.000Z</time>
      </trkpt>
      <trkpt lat="46.13747" lon="4.79625">
        <ele>172.60000610352</ele>
        <time>2024-05-20T11:43:57.000Z</time>
      </trkpt>
      <trkpt lat="46.13742" lon="4.79619">
        <ele>172.60000610352</ele>
        <time>2024-05-20T11:43:58.000Z</time>
      </trkpt>
      <trkpt lat="46.13737" lon="4.79614">
        <ele>172.60000610352</ele>
        <time>2024-05-20T11:43:59.000Z</time>
      </trkpt>
      <trkpt lat="46.13732" lon="4.79608">
        <ele>172.60000610352</ele>
        <time>2024-05-20T11:44:00.000Z</time>
      </trkpt>
      <trkpt lat="46.13727" lon="4.79603">
        <ele>172.60000610352</ele>
        <time>2024-05-20T11:44:01.000Z</time>
      </trkpt>
      <trkpt lat="46.13722" lon="4.79598">
        <ele>172.60000610352</ele>
        <time>2024-05-20T11:44:02.000Z</time>
      </trkpt>
      <trkpt lat="46.13717" lon="4.79593">
        <ele>172.60000610352</ele>
        <time>2024-05-20T11:44:03.000Z</time>
      </trkpt>
      <trkpt lat="46.13712" lon="4.79587">
        <ele>172.60000610352</ele>
        <time>2024-05-20T11:44:04.000Z</time>
      </trkpt>
      <trkpt lat="46.13707" lon="4.79582">
        <ele>172.60000610352</ele>
        <time>2024-05-20T11:44:05.000Z</time>
      </trkpt>
      <trkpt lat="46.13702" lon="4.79577">
        <ele>172.60000610352</ele>
        <time>2024-05-20T11:44:06.000Z</time>
      </trkpt>
      <trkpt lat="46.13697" lon="4.79571">
        <ele>172.60000610352</ele>
        <time>2024-05-20T11:44:07.000Z</time>
      </trkpt>
      <trkpt lat="46.13692" lon="4.79566">
        <ele>172.60000610352</ele>
        <time>2024-05-20T11:44:08.000Z</time>
      </trkpt>
      <trkpt lat="46.13687" lon="4.7956">
        <ele>172.60000610352</ele>
        <time>2024-05-20T11:44:09.000Z</time>
      </trkpt>
      <trkpt lat="46.13682" lon="4.79555">
        <ele>172.60000610352</ele>
        <time>2024-05-20T11:44:10.000Z</time>
      </trkpt>
      <trkpt lat="46.13677" lon="4.7955">
        <ele>172.60000610352</ele>
        <time>2024-05-20T11:44:11.000Z</time>
      </trkpt>
      <trkpt lat="46.13672" lon="4.79545">
        <ele>172.60000610352</ele>
        <time>2024-05-20T11:44:12.000Z</time>
      </trkpt>
      <trkpt lat="46.13667" lon="4.7954">
        <ele>172.60000610352</ele>
        <time>2024-05-20T11:44:13.000Z</time>
      </trkpt>
      <trkpt lat="46.13662" lon="4.79534">
        <ele>172.60000610352</ele>
        <time>2024-05-20T11:44:14.000Z</time>
      </trkpt>
      <trkpt lat="46.13656" lon="4.79529">
        <ele>172.60000610352</ele>
        <time>2024-05-20T11:44:15.000Z</time>
      </trkpt>
      <trkpt lat="46.13651" lon="4.79523">
        <ele>172.60000610352</ele>
        <time>2024-05-20T11:44:16.000Z</time>
      </trkpt>
      <trkpt lat="46.13646" lon="4.79518">
        <ele>172.60000610352</ele>
        <time>2024-05-20T11:44:17.000Z</time>
      </trkpt>
      <trkpt lat="46.13641" lon="4.79513">
        <ele>172.60000610352</ele>
        <time>2024-05-20T11:44:18.000Z</time>
      </trkpt>
      <trkpt lat="46.13636" lon="4.79507">
        <ele>172.60000610352</ele>
        <time>2024-05-20T11:44:19.000Z</time>
      </trkpt>
      <trkpt lat="46.13631" lon="4.79502">
        <ele>172.60000610352</ele>
        <time>2024-05-20T11:44:20.000Z</time>
      </trkpt>
      <trkpt lat="46.13625" lon="4.79496">
        <ele>172.60000610352</ele>
        <time>2024-05-20T11:44:21.000Z</time>
      </trkpt>
      <trkpt lat="46.1362" lon="4.79491">
        <ele>172.60000610352</ele>
        <time>2024-05-20T11:44:22.000Z</time>
      </trkpt>
      <trkpt lat="46.13615" lon="4.79486">
        <ele>172.60000610352</ele>
        <time>2024-05-20T11:44:23.000Z</time>
      </trkpt>
      <trkpt lat="46.13609" lon="4.79481">
        <ele>172.60000610352</ele>
        <time>2024-05-20T11:44:24.000Z</time>
      </trkpt>
      <trkpt lat="46.13604" lon="4.79475">
        <ele>172.60000610352</ele>
        <time>2024-05-20T11:44:25.000Z</time>
      </trkpt>
      <trkpt lat="46.13599" lon="4.7947">
        <ele>172.60000610352</ele>
        <time>2024-05-20T11:44:26.000Z</time>
      </trkpt>
      <trkpt lat="46.13593" lon="4.79465">
        <ele>172.60000610352</ele>
        <time>2024-05-20T11:44:27.000Z</time>
      </trkpt>
      <trkpt lat="46.13588" lon="4.7946">
        <ele>172.60000610352</ele>
        <time>2024-05-20T11:44:28.000Z</time>
      </trkpt>
      <trkpt lat="46.13582" lon="4.79455">
        <ele>172.60000610352</ele>
        <time>2024-05-20T11:44:29.000Z</time>
      </trkpt>
      <trkpt lat="46.13577" lon="4.79451">
        <ele>172.60000610352</ele>
        <time>2024-05-20T11:44:30.000Z</time>
      </trkpt>
      <trkpt lat="46.13572" lon="4.79446">
        <ele>172.60000610352</ele>
        <time>2024-05-20T11:44:31.000Z</time>
      </trkpt>
      <trkpt lat="46.13567" lon="4.79441">
        <ele>172.60000610352</ele>
        <time>2024-05-20T11:44:32.000Z</time>
      </trkpt>
      <trkpt lat="46.13562" lon="4.79436">
        <ele>172.60000610352</ele>
        <time>2024-05-20T11:44:33.000Z</time>
      </trkpt>
      <trkpt lat="46.13557" lon="4.79431">
        <ele>172.60000610352</ele>
        <time>2024-05-20T11:44:34.000Z</time>
      </trkpt>
      <trkpt lat="46.13551" lon="4.79426">
        <ele>172.60000610352</ele>
        <time>2024-05-20T11:44:35.000Z</time>
      </trkpt>
      <trkpt lat="46.13546" lon="4.79422">
        <ele>172.80000305176</ele>
        <time>2024-05-20T11:44:36.000Z</time>
      </trkpt>
      <trkpt lat="46.13542" lon="4.79417">
        <ele>172.80000305176</ele>
        <time>2024-05-20T11:44:37.000Z</time>
      </trkpt>
      <trkpt lat="46.13536" lon="4.79413">
        <ele>172.80000305176</ele>
        <time>2024-05-20T11:44:38.000Z</time>
      </trkpt>
      <trkpt lat="46.13531" lon="4.79408">
        <ele>173</ele>
        <time>2024-05-20T11:44:39.000Z</time>
      </trkpt>
      <trkpt lat="46.13526" lon="4.79403">
        <ele>173</ele>
        <time>2024-05-20T11:44:40.000Z</time>
      </trkpt>
      <trkpt lat="46.13521" lon="4.79397">
        <ele>173</ele>
        <time>2024-05-20T11:44:41.000Z</time>
      </trkpt>
      <trkpt lat="46.13516" lon="4.79392">
        <ele>173</ele>
        <time>2024-05-20T11:44:42.000Z</time>
      </trkpt>
      <trkpt lat="46.13511" lon="4.79387">
        <ele>173</ele>
        <time>2024-05-20T11:44:43.000Z</time>
      </trkpt>
      <trkpt lat="46.13506" lon="4.79382">
        <ele>172.80000305176</ele>
        <time>2024-05-20T11:44:44.000Z</time>
      </trkpt>
      <trkpt lat="46.135" lon="4.79377">
        <ele>172.80000305176</ele>
        <time>2024-05-20T11:44:45.000Z</time>
      </trkpt>
      <trkpt lat="46.13495" lon="4.79372">
        <ele>172.80000305176</ele>
        <time>2024-05-20T11:44:46.000Z</time>
      </trkpt>
      <trkpt lat="46.1349" lon="4.79367">
        <ele>172.80000305176</ele>
        <time>2024-05-20T11:44:47.000Z</time>
      </trkpt>
      <trkpt lat="46.13485" lon="4.79362">
        <ele>172.60000610352</ele>
        <time>2024-05-20T11:44:48.000Z</time>
      </trkpt>
      <trkpt lat="46.1348" lon="4.79357">
        <ele>172.60000610352</ele>
        <time>2024-05-20T11:44:49.000Z</time>
      </trkpt>
      <trkpt lat="46.13475" lon="4.79352">
        <ele>172.60000610352</ele>
        <time>2024-05-20T11:44:50.000Z</time>
      </trkpt>
      <trkpt lat="46.13469" lon="4.79347">
        <ele>172.60000610352</ele>
        <time>2024-05-20T11:44:51.000Z</time>
      </trkpt>
      <trkpt lat="46.13464" lon="4.79342">
        <ele>172.60000610352</ele>
        <time>2024-05-20T11:44:52.000Z</time>
      </trkpt>
      <trkpt lat="46.13459" lon="4.79337">
        <ele>172.60000610352</ele>
        <time>2024-05-20T11:44:53.000Z</time>
      </trkpt>
      <trkpt lat="46.13454" lon="4.79333">
        <ele>172.60000610352</ele>
        <time>2024-05-20T11:44:54.000Z</time>
      </trkpt>
      <trkpt lat="46.13449" lon="4.79328">
        <ele>172.60000610352</ele>
        <time>2024-05-20T11:44:55.000Z</time>
      </trkpt>
      <trkpt lat="46.13443" lon="4.79324">
        <ele>172.60000610352</ele>
        <time>2024-05-20T11:44:56.000Z</time>
      </trkpt>
      <trkpt lat="46.13438" lon="4.79319">
        <ele>172.60000610352</ele>
        <time>2024-05-20T11:44:57.000Z</time>
      </trkpt>
      <trkpt lat="46.13433" lon="4.79314">
        <ele>172.60000610352</ele>
        <time>2024-05-20T11:44:58.000Z</time>
      </trkpt>
      <trkpt lat="46.13428" lon="4.79309">
        <ele>172.39999389648</ele>
        <time>2024-05-20T11:44:59.000Z</time>
      </trkpt>
      <trkpt lat="46.13423" lon="4.79304">
        <ele>172.39999389648</ele>
        <time>2024-05-20T11:45:00.000Z</time>
      </trkpt>
      <trkpt lat="46.13417" lon="4.793">
        <ele>172.39999389648</ele>
        <time>2024-05-20T11:45:01.000Z</time>
      </trkpt>
      <trkpt lat="46.13412" lon="4.79295">
        <ele>172.39999389648</ele>
        <time>2024-05-20T11:45:02.000Z</time>
      </trkpt>
      <trkpt lat="46.13407" lon="4.7929">
        <ele>172.39999389648</ele>
        <time>2024-05-20T11:45:03.000Z</time>
      </trkpt>
      <trkpt lat="46.13401" lon="4.79285">
        <ele>172.39999389648</ele>
        <time>2024-05-20T11:45:04.000Z</time>
      </trkpt>
      <trkpt lat="46.13396" lon="4.7928">
        <ele>172.39999389648</ele>
        <time>2024-05-20T11:45:05.000Z</time>
      </trkpt>
      <trkpt lat="46.1339" lon="4.79275">
        <ele>172.39999389648</ele>
        <time>2024-05-20T11:45:06.000Z</time>
      </trkpt>
      <trkpt lat="46.13385" lon="4.79271">
        <ele>172.39999389648</ele>
        <time>2024-05-20T11:45:07.000Z</time>
      </trkpt>
      <trkpt lat="46.13379" lon="4.79266">
        <ele>172.39999389648</ele>
        <time>2024-05-20T11:45:08.000Z</time>
      </trkpt>
      <trkpt lat="46.13373" lon="4.79261">
        <ele>172.39999389648</ele>
        <time>2024-05-20T11:45:09.000Z</time>
      </trkpt>
      <trkpt lat="46.13368" lon="4.79256">
        <ele>172.39999389648</ele>
        <time>2024-05-20T11:45:10.000Z</time>
      </trkpt>
      <trkpt lat="46.13362" lon="4.79251">
        <ele>172.19999694824</ele>
        <time>2024-05-20T11:45:11.000Z</time>
      </trkpt>
      <trkpt lat="46.13357" lon="4.79246">
        <ele>171.80000305176</ele>
        <time>2024-05-20T11:45:12.000Z</time>
      </trkpt>
      <trkpt lat="46.13351" lon="4.79242">
        <ele>171.80000305176</ele>
        <time>2024-05-20T11:45:13.000Z</time>
      </trkpt>
      <trkpt lat="46.13346" lon="4.79237">
        <ele>171.80000305176</ele>
        <time>2024-05-20T11:45:14.000Z</time>
      </trkpt>
      <trkpt lat="46.1334" lon="4.79232">
        <ele>171.80000305176</ele>
        <time>2024-05-20T11:45:15.000Z</time>
      </trkpt>
      <trkpt lat="46.13335" lon="4.79227">
        <ele>172.60000610352</ele>
        <time>2024-05-20T11:45:16.000Z</time>
      </trkpt>
      <trkpt lat="46.13329" lon="4.79223">
        <ele>172.60000610352</ele>
        <time>2024-05-20T11:45:17.000Z</time>
      </trkpt>
      <trkpt lat="46.13324" lon="4.79218">
        <ele>172.60000610352</ele>
        <time>2024-05-20T11:45:18.000Z</time>
      </trkpt>
      <trkpt lat="46.13318" lon="4.79213">
        <ele>172.60000610352</ele>
        <time>2024-05-20T11:45:19.000Z</time>
      </trkpt>
      <trkpt lat="46.13313" lon="4.79209">
        <ele>172.39999389648</ele>
        <time>2024-05-20T11:45:20.000Z</time>
      </trkpt>
      <trkpt lat="46.13308" lon="4.79204">
        <ele>172.19999694824</ele>
        <time>2024-05-20T11:45:21.000Z</time>
      </trkpt>
      <trkpt lat="46.13303" lon="4.79199">
        <ele>172.19999694824</ele>
        <time>2024-05-20T11:45:22.000Z</time>
      </trkpt>
      <trkpt lat="46.13297" lon="4.79195">
        <ele>172.19999694824</ele>
        <time>2024-05-20T11:45:23.000Z</time>
      </trkpt>
      <trkpt lat="46.13292" lon="4.7919">
        <ele>172.19999694824</ele>
        <time>2024-05-20T11:45:24.000Z</time>
      </trkpt>
      <trkpt lat="46.13287" lon="4.79186">
        <ele>172.19999694824</ele>
        <time>2024-05-20T11:45:25.000Z</time>
      </trkpt>
      <trkpt lat="46.13282" lon="4.79181">
        <ele>172.19999694824</ele>
        <time>2024-05-20T11:45:26.000Z</time>
      </trkpt>
      <trkpt lat="46.13277" lon="4.79177">
        <ele>172.39999389648</ele>
        <time>2024-05-20T11:45:27.000Z</time>
      </trkpt>
      <trkpt lat="46.13271" lon="4.79172">
        <ele>172.39999389648</ele>
        <time>2024-05-20T11:45:28.000Z</time>
      </trkpt>
      <trkpt lat="46.13266" lon="4.79167">
        <ele>172.39999389648</ele>
        <time>2024-05-20T11:45:29.000Z</time>
      </trkpt>
      <trkpt lat="46.13261" lon="4.79162">
        <ele>172.39999389648</ele>
        <time>2024-05-20T11:45:30.000Z</time>
      </trkpt>
      <trkpt lat="46.13256" lon="4.79157">
        <ele>172.39999389648</ele>
        <time>2024-05-20T11:45:31.000Z</time>
      </trkpt>
      <trkpt lat="46.13251" lon="4.79152">
        <ele>172.39999389648</ele>
        <time>2024-05-20T11:45:32.000Z</time>
      </trkpt>
      <trkpt lat="46.13246" lon="4.79147">
        <ele>172.39999389648</ele>
        <time>2024-05-20T11:45:33.000Z</time>
      </trkpt>
      <trkpt lat="46.13241" lon="4.79141">
        <ele>172.39999389648</ele>
        <time>2024-05-20T11:45:34.000Z</time>
      </trkpt>
      <trkpt lat="46.13236" lon="4.79136">
        <ele>172.39999389648</ele>
        <time>2024-05-20T11:45:35.000Z</time>
      </trkpt>
      <trkpt lat="46.13232" lon="4.7913">
        <ele>172.39999389648</ele>
        <time>2024-05-20T11:45:36.000Z</time>
      </trkpt>
      <trkpt lat="46.13227" lon="4.79125">
        <ele>172.39999389648</ele>
        <time>2024-05-20T11:45:37.000Z</time>
      </trkpt>
      <trkpt lat="46.13222" lon="4.79119">
        <ele>172.39999389648</ele>
        <time>2024-05-20T11:45:38.000Z</time>
      </trkpt>
      <trkpt lat="46.13217" lon="4.79112">
        <ele>172.39999389648</ele>
        <time>2024-05-20T11:45:39.000Z</time>
      </trkpt>
      <trkpt lat="46.13213" lon="4.79106">
        <ele>172.39999389648</ele>
        <time>2024-05-20T11:45:40.000Z</time>
      </trkpt>
      <trkpt lat="46.13208" lon="4.791">
        <ele>172.39999389648</ele>
        <time>2024-05-20T11:45:41.000Z</time>
      </trkpt>
      <trkpt lat="46.13203" lon="4.79093">
        <ele>172.39999389648</ele>
        <time>2024-05-20T11:45:42.000Z</time>
      </trkpt>
      <trkpt lat="46.13198" lon="4.79087">
        <ele>172.39999389648</ele>
        <time>2024-05-20T11:45:43.000Z</time>
      </trkpt>
      <trkpt lat="46.13193" lon="4.7908">
        <ele>172.39999389648</ele>
        <time>2024-05-20T11:45:44.000Z</time>
      </trkpt>
      <trkpt lat="46.13188" lon="4.79074">
        <ele>172.39999389648</ele>
        <time>2024-05-20T11:45:45.000Z</time>
      </trkpt>
      <trkpt lat="46.13183" lon="4.79068">
        <ele>172.39999389648</ele>
        <time>2024-05-20T11:45:46.000Z</time>
      </trkpt>
      <trkpt lat="46.13179" lon="4.79063">
        <ele>172.39999389648</ele>
        <time>2024-05-20T11:45:47.000Z</time>
      </trkpt>
      <trkpt lat="46.13174" lon="4.79058">
        <ele>172.39999389648</ele>
        <time>2024-05-20T11:45:48.000Z</time>
      </trkpt>
      <trkpt lat="46.1317" lon="4.79052">
        <ele>172.19999694824</ele>
        <time>2024-05-20T11:45:49.000Z</time>
      </trkpt>
      <trkpt lat="46.13165" lon="4.79046">
        <ele>172.19999694824</ele>
        <time>2024-05-20T11:45:50.000Z</time>
      </trkpt>
      <trkpt lat="46.13161" lon="4.7904">
        <ele>172.19999694824</ele>
        <time>2024-05-20T11:45:51.000Z</time>
      </trkpt>
      <trkpt lat="46.13156" lon="4.79035">
        <ele>172.19999694824</ele>
        <time>2024-05-20T11:45:52.000Z</time>
      </trkpt>
      <trkpt lat="46.13151" lon="4.79029">
        <ele>172.19999694824</ele>
        <time>2024-05-20T11:45:53.000Z</time>
      </trkpt>
      <trkpt lat="46.13146" lon="4.79022">
        <ele>172.19999694824</ele>
        <time>2024-05-20T11:45:54.000Z</time>
      </trkpt>
      <trkpt lat="46.13141" lon="4.79016">
        <ele>172.19999694824</ele>
        <time>2024-05-20T11:45:55.000Z</time>
      </trkpt>
      <trkpt lat="46.13136" lon="4.79009">
        <ele>172.19999694824</ele>
        <time>2024-05-20T11:45:56.000Z</time>
      </trkpt>
      <trkpt lat="46.13131" lon="4.79003">
        <ele>172.19999694824</ele>
        <time>2024-05-20T11:45:57.000Z</time>
      </trkpt>
      <trkpt lat="46.13127" lon="4.78997">
        <ele>172.19999694824</ele>
        <time>2024-05-20T11:45:58.000Z</time>
      </trkpt>
      <trkpt lat="46.13122" lon="4.78991">
        <ele>172.19999694824</ele>
        <time>2024-05-20T11:45:59.000Z</time>
      </trkpt>
      <trkpt lat="46.13117" lon="4.78984">
        <ele>172.19999694824</ele>
        <time>2024-05-20T11:46:00.000Z</time>
      </trkpt>
      <trkpt lat="46.13112" lon="4.78978">
        <ele>172</ele>
        <time>2024-05-20T11:46:01.000Z</time>
      </trkpt>
      <trkpt lat="46.13107" lon="4.78972">
        <ele>172</ele>
        <time>2024-05-20T11:46:02.000Z</time>
      </trkpt>
      <trkpt lat="46.13103" lon="4.78965">
        <ele>171.80000305176</ele>
        <time>2024-05-20T11:46:03.000Z</time>
      </trkpt>
      <trkpt lat="46.13098" lon="4.7896">
        <ele>171.80000305176</ele>
        <time>2024-05-20T11:46:04.000Z</time>
      </trkpt>
      <trkpt lat="46.13094" lon="4.78953">
        <ele>171.80000305176</ele>
        <time>2024-05-20T11:46:05.000Z</time>
      </trkpt>
      <trkpt lat="46.13089" lon="4.78947">
        <ele>171.80000305176</ele>
        <time>2024-05-20T11:46:06.000Z</time>
      </trkpt>
      <trkpt lat="46.13085" lon="4.7894">
        <ele>171.80000305176</ele>
        <time>2024-05-20T11:46:07.000Z</time>
      </trkpt>
      <trkpt lat="46.13081" lon="4.78933">
        <ele>171.80000305176</ele>
        <time>2024-05-20T11:46:08.000Z</time>
      </trkpt>
      <trkpt lat="46.13077" lon="4.78927">
        <ele>171.80000305176</ele>
        <time>2024-05-20T11:46:09.000Z</time>
      </trkpt>
      <trkpt lat="46.13072" lon="4.78921">
        <ele>171.80000305176</ele>
        <time>2024-05-20T11:46:10.000Z</time>
      </trkpt>
      <trkpt lat="46.13067" lon="4.78915">
        <ele>171.80000305176</ele>
        <time>2024-05-20T11:46:11.000Z</time>
      </trkpt>
      <trkpt lat="46.13062" lon="4.78911">
        <ele>171.80000305176</ele>
        <time>2024-05-20T11:46:12.000Z</time>
      </trkpt>
      <trkpt lat="46.13056" lon="4.78907">
        <ele>171.80000305176</ele>
        <time>2024-05-20T11:46:13.000Z</time>
      </trkpt>
      <trkpt lat="46.13051" lon="4.78903">
        <ele>171.80000305176</ele>
        <time>2024-05-20T11:46:14.000Z</time>
      </trkpt>
      <trkpt lat="46.13045" lon="4.78899">
        <ele>171.80000305176</ele>
        <time>2024-05-20T11:46:15.000Z</time>
      </trkpt>
      <trkpt lat="46.13039" lon="4.78895">
        <ele>171.80000305176</ele>
        <time>2024-05-20T11:46:16.000Z</time>
      </trkpt>
      <trkpt lat="46.13034" lon="4.78892">
        <ele>171.80000305176</ele>
        <time>2024-05-20T11:46:17.000Z</time>
      </trkpt>
      <trkpt lat="46.13028" lon="4.78889">
        <ele>171.60000610352</ele>
        <time>2024-05-20T11:46:18.000Z</time>
      </trkpt>
      <trkpt lat="46.13022" lon="4.78885">
        <ele>171.60000610352</ele>
        <time>2024-05-20T11:46:19.000Z</time>
      </trkpt>
      <trkpt lat="46.13016" lon="4.78881">
        <ele>171.60000610352</ele>
        <time>2024-05-20T11:46:20.000Z</time>
      </trkpt>
      <trkpt lat="46.13011" lon="4.78877">
        <ele>171.60000610352</ele>
        <time>2024-05-20T11:46:21.000Z</time>
      </trkpt>
      <trkpt lat="46.13006" lon="4.78872">
        <ele>171.60000610352</ele>
        <time>2024-05-20T11:46:22.000Z</time>
      </trkpt>
      <trkpt lat="46.13001" lon="4.78867">
        <ele>171.60000610352</ele>
        <time>2024-05-20T11:46:23.000Z</time>
      </trkpt>
      <trkpt lat="46.12996" lon="4.78861">
        <ele>171.80000305176</ele>
        <time>2024-05-20T11:46:24.000Z</time>
      </trkpt>
      <trkpt lat="46.12991" lon="4.78856">
        <ele>171.80000305176</ele>
        <time>2024-05-20T11:46:25.000Z</time>
      </trkpt>
      <trkpt lat="46.12986" lon="4.7885">
        <ele>171.80000305176</ele>
        <time>2024-05-20T11:46:26.000Z</time>
      </trkpt>
      <trkpt lat="46.12981" lon="4.78845">
        <ele>172</ele>
        <time>2024-05-20T11:46:27.000Z</time>
      </trkpt>
      <trkpt lat="46.12976" lon="4.78839">
        <ele>172</ele>
        <time>2024-05-20T11:46:28.000Z</time>
      </trkpt>
      <trkpt lat="46.12971" lon="4.78833">
        <ele>172</ele>
        <time>2024-05-20T11:46:29.000Z</time>
      </trkpt>
      <trkpt lat="46.12967" lon="4.78827">
        <ele>172</ele>
        <time>2024-05-20T11:46:30.000Z</time>
      </trkpt>
      <trkpt lat="46.12962" lon="4.78821">
        <ele>172</ele>
        <time>2024-05-20T11:46:31.000Z</time>
      </trkpt>
      <trkpt lat="46.12957" lon="4.78815">
        <ele>172</ele>
        <time>2024-05-20T11:46:32.000Z</time>
      </trkpt>
      <trkpt lat="46.12952" lon="4.78809">
        <ele>172</ele>
        <time>2024-05-20T11:46:33.000Z</time>
      </trkpt>
      <trkpt lat="46.12948" lon="4.78803">
        <ele>172</ele>
        <time>2024-05-20T11:46:34.000Z</time>
      </trkpt>
      <trkpt lat="46.12943" lon="4.78797">
        <ele>172</ele>
        <time>2024-05-20T11:46:35.000Z</time>
      </trkpt>
      <trkpt lat="46.12938" lon="4.7879">
        <ele>172</ele>
        <time>2024-05-20T11:46:36.000Z</time>
      </trkpt>
      <trkpt lat="46.12933" lon="4.78784">
        <ele>171.80000305176</ele>
        <time>2024-05-20T11:46:37.000Z</time>
      </trkpt>
      <trkpt lat="46.12928" lon="4.78778">
        <ele>171.80000305176</ele>
        <time>2024-05-20T11:46:38.000Z</time>
      </trkpt>
      <trkpt lat="46.12923" lon="4.78772">
        <ele>171.80000305176</ele>
        <time>2024-05-20T11:46:39.000Z</time>
      </trkpt>
      <trkpt lat="46.12919" lon="4.78766">
        <ele>171.80000305176</ele>
        <time>2024-05-20T11:46:40.000Z</time>
      </trkpt>
      <trkpt lat="46.12914" lon="4.7876">
        <ele>171.80000305176</ele>
        <time>2024-05-20T11:46:41.000Z</time>
      </trkpt>
      <trkpt lat="46.1291" lon="4.78754">
        <ele>171.80000305176</ele>
        <time>2024-05-20T11:46:42.000Z</time>
      </trkpt>
      <trkpt lat="46.12905" lon="4.78748">
        <ele>171.80000305176</ele>
        <time>2024-05-20T11:46:43.000Z</time>
      </trkpt>
      <trkpt lat="46.129" lon="4.78742">
        <ele>171.80000305176</ele>
        <time>2024-05-20T11:46:44.000Z</time>
      </trkpt>
      <trkpt lat="46.12896" lon="4.78736">
        <ele>172</ele>
        <time>2024-05-20T11:46:45.000Z</time>
      </trkpt>
      <trkpt lat="46.12891" lon="4.7873">
        <ele>172</ele>
        <time>2024-05-20T11:46:46.000Z</time>
      </trkpt>
      <trkpt lat="46.12887" lon="4.78724">
        <ele>172</ele>
        <time>2024-05-20T11:46:47.000Z</time>
      </trkpt>
      <trkpt lat="46.12883" lon="4.78718">
        <ele>172</ele>
        <time>2024-05-20T11:46:48.000Z</time>
      </trkpt>
      <trkpt lat="46.12878" lon="4.78712">
        <ele>172</ele>
        <time>2024-05-20T11:46:49.000Z</time>
      </trkpt>
      <trkpt lat="46.12873" lon="4.78705">
        <ele>172</ele>
        <time>2024-05-20T11:46:50.000Z</time>
      </trkpt>
      <trkpt lat="46.12869" lon="4.78699">
        <ele>172</ele>
        <time>2024-05-20T11:46:51.000Z</time>
      </trkpt>
      <trkpt lat="46.12864" lon="4.78693">
        <ele>172</ele>
        <time>2024-05-20T11:46:52.000Z</time>
      </trkpt>
      <trkpt lat="46.1286" lon="4.78687">
        <ele>171.80000305176</ele>
        <time>2024-05-20T11:46:53.000Z</time>
      </trkpt>
      <trkpt lat="46.12855" lon="4.78681">
        <ele>171.80000305176</ele>
        <time>2024-05-20T11:46:54.000Z</time>
      </trkpt>
      <trkpt lat="46.12851" lon="4.78675">
        <ele>171.80000305176</ele>
        <time>2024-05-20T11:46:55.000Z</time>
      </trkpt>
      <trkpt lat="46.12846" lon="4.78669">
        <ele>171.80000305176</ele>
        <time>2024-05-20T11:46:56.000Z</time>
      </trkpt>
      <trkpt lat="46.12842" lon="4.78663">
        <ele>171.60000610352</ele>
        <time>2024-05-20T11:46:57.000Z</time>
      </trkpt>
      <trkpt lat="46.12837" lon="4.78657">
        <ele>171.39999389648</ele>
        <time>2024-05-20T11:46:58.000Z</time>
      </trkpt>
      <trkpt lat="46.12833" lon="4.78652">
        <ele>171.39999389648</ele>
        <time>2024-05-20T11:46:59.000Z</time>
      </trkpt>
      <trkpt lat="46.12828" lon="4.78646">
        <ele>171.39999389648</ele>
        <time>2024-05-20T11:47:00.000Z</time>
      </trkpt>
      <trkpt lat="46.12824" lon="4.7864">
        <ele>171.39999389648</ele>
        <time>2024-05-20T11:47:01.000Z</time>
      </trkpt>
      <trkpt lat="46.12819" lon="4.78634">
        <ele>171.39999389648</ele>
        <time>2024-05-20T11:47:02.000Z</time>
      </trkpt>
      <trkpt lat="46.12815" lon="4.78628">
        <ele>171.60000610352</ele>
        <time>2024-05-20T11:47:03.000Z</time>
      </trkpt>
      <trkpt lat="46.1281" lon="4.78622">
        <ele>171.39999389648</ele>
        <time>2024-05-20T11:47:04.000Z</time>
      </trkpt>
      <trkpt lat="46.12805" lon="4.78616">
        <ele>171.60000610352</ele>
        <time>2024-05-20T11:47:05.000Z</time>
      </trkpt>
      <trkpt lat="46.12801" lon="4.78611">
        <ele>171.60000610352</ele>
        <time>2024-05-20T11:47:06.000Z</time>
      </trkpt>
      <trkpt lat="46.12796" lon="4.78605">
        <ele>171.60000610352</ele>
        <time>2024-05-20T11:47:07.000Z</time>
      </trkpt>
      <trkpt lat="46.12792" lon="4.78599">
        <ele>171.60000610352</ele>
        <time>2024-05-20T11:47:08.000Z</time>
      </trkpt>
      <trkpt lat="46.12787" lon="4.78593">
        <ele>171.60000610352</ele>
        <time>2024-05-20T11:47:09.000Z</time>
      </trkpt>
      <trkpt lat="46.12783" lon="4.78587">
        <ele>171.60000610352</ele>
        <time>2024-05-20T11:47:10.000Z</time>
      </trkpt>
      <trkpt lat="46.12778" lon="4.78581">
        <ele>171.60000610352</ele>
        <time>2024-05-20T11:47:11.000Z</time>
      </trkpt>
      <trkpt lat="46.12773" lon="4.78575">
        <ele>171.39999389648</ele>
        <time>2024-05-20T11:47:12.000Z</time>
      </trkpt>
      <trkpt lat="46.12769" lon="4.78569">
        <ele>171.39999389648</ele>
        <time>2024-05-20T11:47:13.000Z</time>
      </trkpt>
      <trkpt lat="46.12764" lon="4.78563">
        <ele>171.39999389648</ele>
        <time>2024-05-20T11:47:14.000Z</time>
      </trkpt>
      <trkpt lat="46.1276" lon="4.78557">
        <ele>171.39999389648</ele>
        <time>2024-05-20T11:47:15.000Z</time>
      </trkpt>
      <trkpt lat="46.12755" lon="4.78552">
        <ele>171.39999389648</ele>
        <time>2024-05-20T11:47:16.000Z</time>
      </trkpt>
      <trkpt lat="46.12751" lon="4.78546">
        <ele>171.80000305176</ele>
        <time>2024-05-20T11:47:17.000Z</time>
      </trkpt>
      <trkpt lat="46.12746" lon="4.7854">
        <ele>172</ele>
        <time>2024-05-20T11:47:18.000Z</time>
      </trkpt>
      <trkpt lat="46.12742" lon="4.78535">
        <ele>172</ele>
        <time>2024-05-20T11:47:19.000Z</time>
      </trkpt>
      <trkpt lat="46.12737" lon="4.78529">
        <ele>172</ele>
        <time>2024-05-20T11:47:20.000Z</time>
      </trkpt>
      <trkpt lat="46.12733" lon="4.78523">
        <ele>172</ele>
        <time>2024-05-20T11:47:21.000Z</time>
      </trkpt>
      <trkpt lat="46.12728" lon="4.78517">
        <ele>172</ele>
        <time>2024-05-20T11:47:22.000Z</time>
      </trkpt>
      <trkpt lat="46.12723" lon="4.78511">
        <ele>172</ele>
        <time>2024-05-20T11:47:23.000Z</time>
      </trkpt>
      <trkpt lat="46.12719" lon="4.78505">
        <ele>172</ele>
        <time>2024-05-20T11:47:24.000Z</time>
      </trkpt>
      <trkpt lat="46.12714" lon="4.78499">
        <ele>172.19999694824</ele>
        <time>2024-05-20T11:47:25.000Z</time>
      </trkpt>
      <trkpt lat="46.12709" lon="4.78493">
        <ele>172.19999694824</ele>
        <time>2024-05-20T11:47:26.000Z</time>
      </trkpt>
      <trkpt lat="46.12705" lon="4.78487">
        <ele>172.19999694824</ele>
        <time>2024-05-20T11:47:27.000Z</time>
      </trkpt>
      <trkpt lat="46.127" lon="4.78481">
        <ele>172.19999694824</ele>
        <time>2024-05-20T11:47:28.000Z</time>
      </trkpt>
      <trkpt lat="46.12696" lon="4.78475">
        <ele>172.19999694824</ele>
        <time>2024-05-20T11:47:29.000Z</time>
      </trkpt>
      <trkpt lat="46.12691" lon="4.78469">
        <ele>172.19999694824</ele>
        <time>2024-05-20T11:47:30.000Z</time>
      </trkpt>
      <trkpt lat="46.12686" lon="4.78462">
        <ele>172.19999694824</ele>
        <time>2024-05-20T11:47:31.000Z</time>
      </trkpt>
      <trkpt lat="46.12681" lon="4.78456">
        <ele>172.19999694824</ele>
        <time>2024-05-20T11:47:32.000Z</time>
      </trkpt>
      <trkpt lat="46.12677" lon="4.7845">
        <ele>172.39999389648</ele>
        <time>2024-05-20T11:47:33.000Z</time>
      </trkpt>
      <trkpt lat="46.12672" lon="4.78444">
        <ele>172.39999389648</ele>
        <time>2024-05-20T11:47:34.000Z</time>
      </trkpt>
      <trkpt lat="46.12667" lon="4.78437">
        <ele>172.60000610352</ele>
        <time>2024-05-20T11:47:35.000Z</time>
      </trkpt>
      <trkpt lat="46.12663" lon="4.78431">
        <ele>172.60000610352</ele>
        <time>2024-05-20T11:47:36.000Z</time>
      </trkpt>
      <trkpt lat="46.12658" lon="4.78425">
        <ele>172.60000610352</ele>
        <time>2024-05-20T11:47:37.000Z</time>
      </trkpt>
      <trkpt lat="46.12654" lon="4.78419">
        <ele>172.60000610352</ele>
        <time>2024-05-20T11:47:38.000Z</time>
      </trkpt>
      <trkpt lat="46.12649" lon="4.78413">
        <ele>172.60000610352</ele>
        <time>2024-05-20T11:47:39.000Z</time>
      </trkpt>
      <trkpt lat="46.12645" lon="4.78407">
        <ele>172.60000610352</ele>
        <time>2024-05-20T11:47:40.000Z</time>
      </trkpt>
      <trkpt lat="46.1264" lon="4.784">
        <ele>172.60000610352</ele>
        <time>2024-05-20T11:47:41.000Z</time>
      </trkpt>
      <trkpt lat="46.12635" lon="4.78394">
        <ele>172.60000610352</ele>
        <time>2024-05-20T11:47:42.000Z</time>
      </trkpt>
      <trkpt lat="46.1263" lon="4.78388">
        <ele>172.60000610352</ele>
        <time>2024-05-20T11:47:43.000Z</time>
      </trkpt>
      <trkpt lat="46.12625" lon="4.78382">
        <ele>172.60000610352</ele>
        <time>2024-05-20T11:47:44.000Z</time>
      </trkpt>
      <trkpt lat="46.1262" lon="4.78375">
        <ele>172.60000610352</ele>
        <time>2024-05-20T11:47:45.000Z</time>
      </trkpt>
      <trkpt lat="46.12615" lon="4.78368">
        <ele>172.80000305176</ele>
        <time>2024-05-20T11:47:46.000Z</time>
      </trkpt>
      <trkpt lat="46.1261" lon="4.78362">
        <ele>172.80000305176</ele>
        <time>2024-05-20T11:47:47.000Z</time>
      </trkpt>
      <trkpt lat="46.12605" lon="4.78356">
        <ele>172.80000305176</ele>
        <time>2024-05-20T11:47:48.000Z</time>
      </trkpt>
      <trkpt lat="46.12601" lon="4.78349">
        <ele>172.80000305176</ele>
        <time>2024-05-20T11:47:49.000Z</time>
      </trkpt>
      <trkpt lat="46.12596" lon="4.78343">
        <ele>172.80000305176</ele>
        <time>2024-05-20T11:47:50.000Z</time>
      </trkpt>
      <trkpt lat="46.12591" lon="4.78336">
        <ele>172.60000610352</ele>
        <time>2024-05-20T11:47:51.000Z</time>
      </trkpt>
      <trkpt lat="46.12586" lon="4.7833">
        <ele>172.60000610352</ele>
        <time>2024-05-20T11:47:52.000Z</time>
      </trkpt>
      <trkpt lat="46.12582" lon="4.78324">
        <ele>172.60000610352</ele>
        <time>2024-05-20T11:47:53.000Z</time>
      </trkpt>
      <trkpt lat="46.12577" lon="4.78318">
        <ele>172.60000610352</ele>
        <time>2024-05-20T11:47:54.000Z</time>
      </trkpt>
      <trkpt lat="46.12571" lon="4.78311">
        <ele>172.60000610352</ele>
        <time>2024-05-20T11:47:55.000Z</time>
      </trkpt>
      <trkpt lat="46.12566" lon="4.78304">
        <ele>172.60000610352</ele>
        <time>2024-05-20T11:47:56.000Z</time>
      </trkpt>
      <trkpt lat="46.12562" lon="4.78299">
        <ele>172.60000610352</ele>
        <time>2024-05-20T11:47:57.000Z</time>
      </trkpt>
      <trkpt lat="46.12557" lon="4.78293">
        <ele>172.60000610352</ele>
        <time>2024-05-20T11:47:58.000Z</time>
      </trkpt>
      <trkpt lat="46.12552" lon="4.78287">
        <ele>172.60000610352</ele>
        <time>2024-05-20T11:47:59.000Z</time>
      </trkpt>
      <trkpt lat="46.12548" lon="4.78282">
        <ele>172.60000610352</ele>
        <time>2024-05-20T11:48:00.000Z</time>
      </trkpt>
      <trkpt lat="46.12544" lon="4.78274">
        <ele>172.60000610352</ele>
        <time>2024-05-20T11:48:01.000Z</time>
      </trkpt>
      <trkpt lat="46.12539" lon="4.78268">
        <ele>172.60000610352</ele>
        <time>2024-05-20T11:48:02.000Z</time>
      </trkpt>
      <trkpt lat="46.12534" lon="4.78262">
        <ele>172.60000610352</ele>
        <time>2024-05-20T11:48:03.000Z</time>
      </trkpt>
      <trkpt lat="46.12529" lon="4.78256">
        <ele>172.80000305176</ele>
        <time>2024-05-20T11:48:04.000Z</time>
      </trkpt>
      <trkpt lat="46.12524" lon="4.7825">
        <ele>172.80000305176</ele>
        <time>2024-05-20T11:48:05.000Z</time>
      </trkpt>
      <trkpt lat="46.1252" lon="4.78245">
        <ele>172.80000305176</ele>
        <time>2024-05-20T11:48:06.000Z</time>
      </trkpt>
      <trkpt lat="46.12516" lon="4.7824">
        <ele>172.80000305176</ele>
        <time>2024-05-20T11:48:07.000Z</time>
      </trkpt>
      <trkpt lat="46.12512" lon="4.78234">
        <ele>172.80000305176</ele>
        <time>2024-05-20T11:48:08.000Z</time>
      </trkpt>
      <trkpt lat="46.12508" lon="4.78229">
        <ele>172.80000305176</ele>
        <time>2024-05-20T11:48:09.000Z</time>
      </trkpt>
      <trkpt lat="46.12503" lon="4.78224">
        <ele>172.80000305176</ele>
        <time>2024-05-20T11:48:10.000Z</time>
      </trkpt>
      <trkpt lat="46.12498" lon="4.78219">
        <ele>172.80000305176</ele>
        <time>2024-05-20T11:48:11.000Z</time>
      </trkpt>
      <trkpt lat="46.12493" lon="4.78213">
        <ele>172.80000305176</ele>
        <time>2024-05-20T11:48:12.000Z</time>
      </trkpt>
      <trkpt lat="46.12488" lon="4.78207">
        <ele>172.80000305176</ele>
        <time>2024-05-20T11:48:13.000Z</time>
      </trkpt>
      <trkpt lat="46.12483" lon="4.78201">
        <ele>173</ele>
        <time>2024-05-20T11:48:14.000Z</time>
      </trkpt>
      <trkpt lat="46.12478" lon="4.78195">
        <ele>172.80000305176</ele>
        <time>2024-05-20T11:48:15.000Z</time>
      </trkpt>
      <trkpt lat="46.12474" lon="4.78189">
        <ele>172.80000305176</ele>
        <time>2024-05-20T11:48:16.000Z</time>
      </trkpt>
      <trkpt lat="46.12469" lon="4.78183">
        <ele>172.80000305176</ele>
        <time>2024-05-20T11:48:17.000Z</time>
      </trkpt>
      <trkpt lat="46.12464" lon="4.78178">
        <ele>172.80000305176</ele>
        <time>2024-05-20T11:48:18.000Z</time>
      </trkpt>
      <trkpt lat="46.1246" lon="4.78172">
        <ele>172.80000305176</ele>
        <time>2024-05-20T11:48:19.000Z</time>
      </trkpt>
      <trkpt lat="46.12455" lon="4.78167">
        <ele>172.80000305176</ele>
        <time>2024-05-20T11:48:20.000Z</time>
      </trkpt>
      <trkpt lat="46.12451" lon="4.7816">
        <ele>172.80000305176</ele>
        <time>2024-05-20T11:48:21.000Z</time>
      </trkpt>
      <trkpt lat="46.12446" lon="4.78154">
        <ele>172.80000305176</ele>
        <time>2024-05-20T11:48:22.000Z</time>
      </trkpt>
      <trkpt lat="46.12442" lon="4.78147">
        <ele>172.80000305176</ele>
        <time>2024-05-20T11:48:23.000Z</time>
      </trkpt>
      <trkpt lat="46.12437" lon="4.78141">
        <ele>172.80000305176</ele>
        <time>2024-05-20T11:48:24.000Z</time>
      </trkpt>
      <trkpt lat="46.12433" lon="4.78134">
        <ele>172.80000305176</ele>
        <time>2024-05-20T11:48:25.000Z</time>
      </trkpt>
      <trkpt lat="46.12428" lon="4.78128">
        <ele>172.80000305176</ele>
        <time>2024-05-20T11:48:26.000Z</time>
      </trkpt>
      <trkpt lat="46.12424" lon="4.78121">
        <ele>172.80000305176</ele>
        <time>2024-05-20T11:48:27.000Z</time>
      </trkpt>
      <trkpt lat="46.12419" lon="4.78115">
        <ele>172.80000305176</ele>
        <time>2024-05-20T11:48:28.000Z</time>
      </trkpt>
      <trkpt lat="46.12413" lon="4.78108">
        <ele>172.80000305176</ele>
        <time>2024-05-20T11:48:29.000Z</time>
      </trkpt>
      <trkpt lat="46.12409" lon="4.78102">
        <ele>172.80000305176</ele>
        <time>2024-05-20T11:48:30.000Z</time>
      </trkpt>
      <trkpt lat="46.12404" lon="4.78096">
        <ele>172.80000305176</ele>
        <time>2024-05-20T11:48:31.000Z</time>
      </trkpt>
      <trkpt lat="46.124" lon="4.7809">
        <ele>172.80000305176</ele>
        <time>2024-05-20T11:48:32.000Z</time>
      </trkpt>
      <trkpt lat="46.12395" lon="4.78084">
        <ele>172.80000305176</ele>
        <time>2024-05-20T11:48:33.000Z</time>
      </trkpt>
      <trkpt lat="46.1239" lon="4.78078">
        <ele>172.80000305176</ele>
        <time>2024-05-20T11:48:34.000Z</time>
      </trkpt>
      <trkpt lat="46.12386" lon="4.78071">
        <ele>172.80000305176</ele>
        <time>2024-05-20T11:48:35.000Z</time>
      </trkpt>
      <trkpt lat="46.12381" lon="4.78065">
        <ele>172.80000305176</ele>
        <time>2024-05-20T11:48:36.000Z</time>
      </trkpt>
      <trkpt lat="46.12376" lon="4.78059">
        <ele>172.60000610352</ele>
        <time>2024-05-20T11:48:37.000Z</time>
      </trkpt>
      <trkpt lat="46.12371" lon="4.78053">
        <ele>172.60000610352</ele>
        <time>2024-05-20T11:48:38.000Z</time>
      </trkpt>
      <trkpt lat="46.12367" lon="4.78047">
        <ele>172.60000610352</ele>
        <time>2024-05-20T11:48:39.000Z</time>
      </trkpt>
      <trkpt lat="46.12362" lon="4.78041">
        <ele>172.60000610352</ele>
        <time>2024-05-20T11:48:40.000Z</time>
      </trkpt>
      <trkpt lat="46.12357" lon="4.78035">
        <ele>172.60000610352</ele>
        <time>2024-05-20T11:48:41.000Z</time>
      </trkpt>
      <trkpt lat="46.12352" lon="4.78029">
        <ele>172.60000610352</ele>
        <time>2024-05-20T11:48:42.000Z</time>
      </trkpt>
      <trkpt lat="46.12348" lon="4.78023">
        <ele>172.60000610352</ele>
        <time>2024-05-20T11:48:43.000Z</time>
      </trkpt>
      <trkpt lat="46.12343" lon="4.78017">
        <ele>172.60000610352</ele>
        <time>2024-05-20T11:48:44.000Z</time>
      </trkpt>
      <trkpt lat="46.12338" lon="4.78011">
        <ele>172.39999389648</ele>
        <time>2024-05-20T11:48:45.000Z</time>
      </trkpt>
      <trkpt lat="46.12333" lon="4.78005">
        <ele>172.39999389648</ele>
        <time>2024-05-20T11:48:46.000Z</time>
      </trkpt>
      <trkpt lat="46.12328" lon="4.77999">
        <ele>172.39999389648</ele>
        <time>2024-05-20T11:48:47.000Z</time>
      </trkpt>
      <trkpt lat="46.12323" lon="4.77994">
        <ele>172.39999389648</ele>
        <time>2024-05-20T11:48:48.000Z</time>
      </trkpt>
      <trkpt lat="46.12318" lon="4.77988">
        <ele>172.39999389648</ele>
        <time>2024-05-20T11:48:49.000Z</time>
      </trkpt>
      <trkpt lat="46.12314" lon="4.77982">
        <ele>172.39999389648</ele>
        <time>2024-05-20T11:48:50.000Z</time>
      </trkpt>
      <trkpt lat="46.12309" lon="4.77977">
        <ele>172.19999694824</ele>
        <time>2024-05-20T11:48:51.000Z</time>
      </trkpt>
      <trkpt lat="46.12303" lon="4.77971">
        <ele>172.19999694824</ele>
        <time>2024-05-20T11:48:52.000Z</time>
      </trkpt>
      <trkpt lat="46.12298" lon="4.77966">
        <ele>172.19999694824</ele>
        <time>2024-05-20T11:48:53.000Z</time>
      </trkpt>
      <trkpt lat="46.12293" lon="4.77961">
        <ele>172</ele>
        <time>2024-05-20T11:48:54.000Z</time>
      </trkpt>
      <trkpt lat="46.12288" lon="4.77956">
        <ele>172</ele>
        <time>2024-05-20T11:48:55.000Z</time>
      </trkpt>
      <trkpt lat="46.12283" lon="4.77951">
        <ele>172</ele>
        <time>2024-05-20T11:48:56.000Z</time>
      </trkpt>
      <trkpt lat="46.12278" lon="4.77946">
        <ele>172.19999694824</ele>
        <time>2024-05-20T11:48:57.000Z</time>
      </trkpt>
      <trkpt lat="46.12273" lon="4.77941">
        <ele>172.19999694824</ele>
        <time>2024-05-20T11:48:58.000Z</time>
      </trkpt>
      <trkpt lat="46.12267" lon="4.77936">
        <ele>172.19999694824</ele>
        <time>2024-05-20T11:48:59.000Z</time>
      </trkpt>
      <trkpt lat="46.12262" lon="4.7793">
        <ele>172.39999389648</ele>
        <time>2024-05-20T11:49:00.000Z</time>
      </trkpt>
      <trkpt lat="46.12257" lon="4.77925">
        <ele>172.39999389648</ele>
        <time>2024-05-20T11:49:01.000Z</time>
      </trkpt>
      <trkpt lat="46.12252" lon="4.77919">
        <ele>172.39999389648</ele>
        <time>2024-05-20T11:49:02.000Z</time>
      </trkpt>
      <trkpt lat="46.12247" lon="4.77914">
        <ele>172.39999389648</ele>
        <time>2024-05-20T11:49:03.000Z</time>
      </trkpt>
      <trkpt lat="46.12242" lon="4.77908">
        <ele>172.39999389648</ele>
        <time>2024-05-20T11:49:04.000Z</time>
      </trkpt>
      <trkpt lat="46.12237" lon="4.77902">
        <ele>172.60000610352</ele>
        <time>2024-05-20T11:49:05.000Z</time>
      </trkpt>
      <trkpt lat="46.12232" lon="4.77896">
        <ele>172.60000610352</ele>
        <time>2024-05-20T11:49:06.000Z</time>
      </trkpt>
      <trkpt lat="46.12228" lon="4.77889">
        <ele>172.39999389648</ele>
        <time>2024-05-20T11:49:07.000Z</time>
      </trkpt>
      <trkpt lat="46.12223" lon="4.77883">
        <ele>172.39999389648</ele>
        <time>2024-05-20T11:49:08.000Z</time>
      </trkpt>
      <trkpt lat="46.12219" lon="4.77876">
        <ele>172.60000610352</ele>
        <time>2024-05-20T11:49:09.000Z</time>
      </trkpt>
      <trkpt lat="46.12214" lon="4.7787">
        <ele>172.60000610352</ele>
        <time>2024-05-20T11:49:10.000Z</time>
      </trkpt>
      <trkpt lat="46.1221" lon="4.77864">
        <ele>172.60000610352</ele>
        <time>2024-05-20T11:49:11.000Z</time>
      </trkpt>
      <trkpt lat="46.12205" lon="4.77858">
        <ele>172.60000610352</ele>
        <time>2024-05-20T11:49:12.000Z</time>
      </trkpt>
      <trkpt lat="46.122" lon="4.77852">
        <ele>172.60000610352</ele>
        <time>2024-05-20T11:49:13.000Z</time>
      </trkpt>
      <trkpt lat="46.12196" lon="4.77845">
        <ele>172.60000610352</ele>
        <time>2024-05-20T11:49:14.000Z</time>
      </trkpt>
      <trkpt lat="46.12192" lon="4.77838">
        <ele>172.80000305176</ele>
        <time>2024-05-20T11:49:15.000Z</time>
      </trkpt>
      <trkpt lat="46.12188" lon="4.77831">
        <ele>172.80000305176</ele>
        <time>2024-05-20T11:49:16.000Z</time>
      </trkpt>
      <trkpt lat="46.12184" lon="4.77823">
        <ele>172.80000305176</ele>
        <time>2024-05-20T11:49:17.000Z</time>
      </trkpt>
      <trkpt lat="46.1218" lon="4.77816">
        <ele>172.80000305176</ele>
        <time>2024-05-20T11:49:18.000Z</time>
      </trkpt>
      <trkpt lat="46.12176" lon="4.77809">
        <ele>172.60000610352</ele>
        <time>2024-05-20T11:49:19.000Z</time>
      </trkpt>
      <trkpt lat="46.12171" lon="4.77803">
        <ele>172.60000610352</ele>
        <time>2024-05-20T11:49:20.000Z</time>
      </trkpt>
      <trkpt lat="46.12166" lon="4.77799">
        <ele>172.60000610352</ele>
        <time>2024-05-20T11:49:21.000Z</time>
      </trkpt>
      <trkpt lat="46.1216" lon="4.77795">
        <ele>172.60000610352</ele>
        <time>2024-05-20T11:49:22.000Z</time>
      </trkpt>
      <trkpt lat="46.12155" lon="4.77792">
        <ele>172.39999389648</ele>
        <time>2024-05-20T11:49:23.000Z</time>
      </trkpt>
      <trkpt lat="46.1215" lon="4.77789">
        <ele>172.19999694824</ele>
        <time>2024-05-20T11:49:24.000Z</time>
      </trkpt>
      <trkpt lat="46.12145" lon="4.77785">
        <ele>172</ele>
        <time>2024-05-20T11:49:25.000Z</time>
      </trkpt>
      <trkpt lat="46.1214" lon="4.7778">
        <ele>172</ele>
        <time>2024-05-20T11:49:26.000Z</time>
      </trkpt>
      <trkpt lat="46.12136" lon="4.77775">
        <ele>172</ele>
        <time>2024-05-20T11:49:27.000Z</time>
      </trkpt>
      <trkpt lat="46.12131" lon="4.7777">
        <ele>172</ele>
        <time>2024-05-20T11:49:28.000Z</time>
      </trkpt>
      <trkpt lat="46.12127" lon="4.77765">
        <ele>172</ele>
        <time>2024-05-20T11:49:29.000Z</time>
      </trkpt>
      <trkpt lat="46.12122" lon="4.77761">
        <ele>172</ele>
        <time>2024-05-20T11:49:30.000Z</time>
      </trkpt>
      <trkpt lat="46.12117" lon="4.77756">
        <ele>172</ele>
        <time>2024-05-20T11:49:31.000Z</time>
      </trkpt>
      <trkpt lat="46.12113" lon="4.77751">
        <ele>172.19999694824</ele>
        <time>2024-05-20T11:49:32.000Z</time>
      </trkpt>
      <trkpt lat="46.12108" lon="4.77747">
        <ele>172</ele>
        <time>2024-05-20T11:49:33.000Z</time>
      </trkpt>
      <trkpt lat="46.12103" lon="4.77742">
        <ele>172</ele>
        <time>2024-05-20T11:49:34.000Z</time>
      </trkpt>
      <trkpt lat="46.12098" lon="4.77737">
        <ele>172</ele>
        <time>2024-05-20T11:49:35.000Z</time>
      </trkpt>
      <trkpt lat="46.12093" lon="4.77733">
        <ele>172</ele>
        <time>2024-05-20T11:49:36.000Z</time>
      </trkpt>
      <trkpt lat="46.12089" lon="4.77728">
        <ele>172</ele>
        <time>2024-05-20T11:49:37.000Z</time>
      </trkpt>
      <trkpt lat="46.12084" lon="4.77723">
        <ele>172</ele>
        <time>2024-05-20T11:49:38.000Z</time>
      </trkpt>
      <trkpt lat="46.12079" lon="4.77718">
        <ele>172</ele>
        <time>2024-05-20T11:49:39.000Z</time>
      </trkpt>
      <trkpt lat="46.12074" lon="4.77713">
        <ele>172</ele>
        <time>2024-05-20T11:49:40.000Z</time>
      </trkpt>
      <trkpt lat="46.12069" lon="4.77708">
        <ele>172</ele>
        <time>2024-05-20T11:49:41.000Z</time>
      </trkpt>
      <trkpt lat="46.12064" lon="4.77704">
        <ele>172</ele>
        <time>2024-05-20T11:49:42.000Z</time>
      </trkpt>
      <trkpt lat="46.12059" lon="4.77699">
        <ele>172</ele>
        <time>2024-05-20T11:49:43.000Z</time>
      </trkpt>
      <trkpt lat="46.12055" lon="4.77695">
        <ele>172</ele>
        <time>2024-05-20T11:49:44.000Z</time>
      </trkpt>
      <trkpt lat="46.1205" lon="4.7769">
        <ele>171.80000305176</ele>
        <time>2024-05-20T11:49:45.000Z</time>
      </trkpt>
      <trkpt lat="46.12045" lon="4.77686">
        <ele>171.80000305176</ele>
        <time>2024-05-20T11:49:46.000Z</time>
      </trkpt>
      <trkpt lat="46.1204" lon="4.77682">
        <ele>171.80000305176</ele>
        <time>2024-05-20T11:49:47.000Z</time>
      </trkpt>
      <trkpt lat="46.12036" lon="4.77679">
        <ele>172</ele>
        <time>2024-05-20T11:49:48.000Z</time>
      </trkpt>
      <trkpt lat="46.1203" lon="4.77675">
        <ele>172</ele>
        <time>2024-05-20T11:49:49.000Z</time>
      </trkpt>
      <trkpt lat="46.12025" lon="4.77672">
        <ele>172</ele>
        <time>2024-05-20T11:49:50.000Z</time>
      </trkpt>
      <trkpt lat="46.12019" lon="4.77669">
        <ele>172.19999694824</ele>
        <time>2024-05-20T11:49:51.000Z</time>
      </trkpt>
      <trkpt lat="46.12014" lon="4.77666">
        <ele>172.39999389648</ele>
        <time>2024-05-20T11:49:52.000Z</time>
      </trkpt>
      <trkpt lat="46.12008" lon="4.77663">
        <ele>172.39999389648</ele>
        <time>2024-05-20T11:49:53.000Z</time>
      </trkpt>
      <trkpt lat="46.12002" lon="4.7766">
        <ele>172.60000610352</ele>
        <time>2024-05-20T11:49:54.000Z</time>
      </trkpt>
      <trkpt lat="46.11997" lon="4.77657">
        <ele>172.60000610352</ele>
        <time>2024-05-20T11:49:55.000Z</time>
      </trkpt>
      <trkpt lat="46.11991" lon="4.77654">
        <ele>172.60000610352</ele>
        <time>2024-05-20T11:49:56.000Z</time>
      </trkpt>
      <trkpt lat="46.11985" lon="4.77651">
        <ele>172.60000610352</ele>
        <time>2024-05-20T11:49:57.000Z</time>
      </trkpt>
      <trkpt lat="46.1198" lon="4.77648">
        <ele>172.60000610352</ele>
        <time>2024-05-20T11:49:58.000Z</time>
      </trkpt>
      <trkpt lat="46.11974" lon="4.77645">
        <ele>172.39999389648</ele>
        <time>2024-05-20T11:49:59.000Z</time>
      </trkpt>
      <trkpt lat="46.11968" lon="4.77641">
        <ele>172.39999389648</ele>
        <time>2024-05-20T11:50:00.000Z</time>
      </trkpt>
      <trkpt lat="46.11962" lon="4.77638">
        <ele>172.39999389648</ele>
        <time>2024-05-20T11:50:01.000Z</time>
      </trkpt>
      <trkpt lat="46.11957" lon="4.77635">
        <ele>172.60000610352</ele>
        <time>2024-05-20T11:50:02.000Z</time>
      </trkpt>
      <trkpt lat="46.11951" lon="4.77632">
        <ele>172.60000610352</ele>
        <time>2024-05-20T11:50:03.000Z</time>
      </trkpt>
      <trkpt lat="46.11945" lon="4.77629">
        <ele>172.80000305176</ele>
        <time>2024-05-20T11:50:04.000Z</time>
      </trkpt>
      <trkpt lat="46.1194" lon="4.77627">
        <ele>172.80000305176</ele>
        <time>2024-05-20T11:50:05.000Z</time>
      </trkpt>
      <trkpt lat="46.11935" lon="4.77624">
        <ele>172.80000305176</ele>
        <time>2024-05-20T11:50:06.000Z</time>
      </trkpt>
      <trkpt lat="46.11929" lon="4.77621">
        <ele>172.80000305176</ele>
        <time>2024-05-20T11:50:07.000Z</time>
      </trkpt>
      <trkpt lat="46.11924" lon="4.77619">
        <ele>172.80000305176</ele>
        <time>2024-05-20T11:50:08.000Z</time>
      </trkpt>
      <trkpt lat="46.11918" lon="4.77617">
        <ele>172.80000305176</ele>
        <time>2024-05-20T11:50:09.000Z</time>
      </trkpt>
      <trkpt lat="46.11912" lon="4.77614">
        <ele>172.80000305176</ele>
        <time>2024-05-20T11:50:10.000Z</time>
      </trkpt>
      <trkpt lat="46.11907" lon="4.77611">
        <ele>172.80000305176</ele>
        <time>2024-05-20T11:50:11.000Z</time>
      </trkpt>
      <trkpt lat="46.11901" lon="4.77609">
        <ele>172.60000610352</ele>
        <time>2024-05-20T11:50:12.000Z</time>
      </trkpt>
      <trkpt lat="46.11896" lon="4.77606">
        <ele>172.60000610352</ele>
        <time>2024-05-20T11:50:13.000Z</time>
      </trkpt>
      <trkpt lat="46.1189" lon="4.77604">
        <ele>172.60000610352</ele>
        <time>2024-05-20T11:50:14.000Z</time>
      </trkpt>
      <trkpt lat="46.11885" lon="4.77601">
        <ele>172.39999389648</ele>
        <time>2024-05-20T11:50:15.000Z</time>
      </trkpt>
      <trkpt lat="46.11879" lon="4.77598">
        <ele>172.39999389648</ele>
        <time>2024-05-20T11:50:16.000Z</time>
      </trkpt>
      <trkpt lat="46.11874" lon="4.77594">
        <ele>172.39999389648</ele>
        <time>2024-05-20T11:50:17.000Z</time>
      </trkpt>
      <trkpt lat="46.11868" lon="4.77591">
        <ele>172.39999389648</ele>
        <time>2024-05-20T11:50:18.000Z</time>
      </trkpt>
      <trkpt lat="46.11863" lon="4.77587">
        <ele>172.39999389648</ele>
        <time>2024-05-20T11:50:19.000Z</time>
      </trkpt>
      <trkpt lat="46.11857" lon="4.77584">
        <ele>172.39999389648</ele>
        <time>2024-05-20T11:50:20.000Z</time>
      </trkpt>
      <trkpt lat="46.11851" lon="4.77581">
        <ele>172.60000610352</ele>
        <time>2024-05-20T11:50:21.000Z</time>
      </trkpt>
      <trkpt lat="46.11846" lon="4.77578">
        <ele>172.60000610352</ele>
        <time>2024-05-20T11:50:22.000Z</time>
      </trkpt>
      <trkpt lat="46.1184" lon="4.77574">
        <ele>172.60000610352</ele>
        <time>2024-05-20T11:50:23.000Z</time>
      </trkpt>
      <trkpt lat="46.11834" lon="4.77571">
        <ele>172.60000610352</ele>
        <time>2024-05-20T11:50:24.000Z</time>
      </trkpt>
      <trkpt lat="46.11829" lon="4.77567">
        <ele>172.60000610352</ele>
        <time>2024-05-20T11:50:25.000Z</time>
      </trkpt>
      <trkpt lat="46.11823" lon="4.77564">
        <ele>172.60000610352</ele>
        <time>2024-05-20T11:50:26.000Z</time>
      </trkpt>
      <trkpt lat="46.11817" lon="4.77561">
        <ele>172.60000610352</ele>
        <time>2024-05-20T11:50:27.000Z</time>
      </trkpt>
      <trkpt lat="46.11812" lon="4.77558">
        <ele>172.60000610352</ele>
        <time>2024-05-20T11:50:28.000Z</time>
      </trkpt>
      <trkpt lat="46.11806" lon="4.77554">
        <ele>172.60000610352</ele>
        <time>2024-05-20T11:50:29.000Z</time>
      </trkpt>
      <trkpt lat="46.118" lon="4.77551">
        <ele>172.60000610352</ele>
        <time>2024-05-20T11:50:30.000Z</time>
      </trkpt>
      <trkpt lat="46.11795" lon="4.77547">
        <ele>172.60000610352</ele>
        <time>2024-05-20T11:50:31.000Z</time>
      </trkpt>
      <trkpt lat="46.11789" lon="4.77544">
        <ele>172.60000610352</ele>
        <time>2024-05-20T11:50:32.000Z</time>
      </trkpt>
      <trkpt lat="46.11783" lon="4.77541">
        <ele>172.60000610352</ele>
        <time>2024-05-20T11:50:33.000Z</time>
      </trkpt>
      <trkpt lat="46.11778" lon="4.77537">
        <ele>172.60000610352</ele>
        <time>2024-05-20T11:50:34.000Z</time>
      </trkpt>
      <trkpt lat="46.11772" lon="4.77534">
        <ele>172.60000610352</ele>
        <time>2024-05-20T11:50:35.000Z</time>
      </trkpt>
      <trkpt lat="46.11767" lon="4.7753">
        <ele>172.60000610352</ele>
        <time>2024-05-20T11:50:36.000Z</time>
      </trkpt>
      <trkpt lat="46.11761" lon="4.77527">
        <ele>172.60000610352</ele>
        <time>2024-05-20T11:50:37.000Z</time>
      </trkpt>
      <trkpt lat="46.11755" lon="4.77523">
        <ele>172.60000610352</ele>
        <time>2024-05-20T11:50:38.000Z</time>
      </trkpt>
      <trkpt lat="46.1175" lon="4.7752">
        <ele>172.60000610352</ele>
        <time>2024-05-20T11:50:39.000Z</time>
      </trkpt>
      <trkpt lat="46.11744" lon="4.77516">
        <ele>172.60000610352</ele>
        <time>2024-05-20T11:50:40.000Z</time>
      </trkpt>
      <trkpt lat="46.11738" lon="4.77512">
        <ele>172.60000610352</ele>
        <time>2024-05-20T11:50:41.000Z</time>
      </trkpt>
      <trkpt lat="46.11733" lon="4.77508">
        <ele>172.60000610352</ele>
        <time>2024-05-20T11:50:42.000Z</time>
      </trkpt>
      <trkpt lat="46.11727" lon="4.77504">
        <ele>172.39999389648</ele>
        <time>2024-05-20T11:50:43.000Z</time>
      </trkpt>
      <trkpt lat="46.11722" lon="4.775">
        <ele>172.39999389648</ele>
        <time>2024-05-20T11:50:44.000Z</time>
      </trkpt>
      <trkpt lat="46.11716" lon="4.77495">
        <ele>172.19999694824</ele>
        <time>2024-05-20T11:50:45.000Z</time>
      </trkpt>
      <trkpt lat="46.11711" lon="4.77491">
        <ele>172</ele>
        <time>2024-05-20T11:50:46.000Z</time>
      </trkpt>
      <trkpt lat="46.11706" lon="4.77487">
        <ele>172</ele>
        <time>2024-05-20T11:50:47.000Z</time>
      </trkpt>
      <trkpt lat="46.117" lon="4.77483">
        <ele>172</ele>
        <time>2024-05-20T11:50:48.000Z</time>
      </trkpt>
      <trkpt lat="46.11695" lon="4.77479">
        <ele>172</ele>
        <time>2024-05-20T11:50:49.000Z</time>
      </trkpt>
      <trkpt lat="46.1169" lon="4.77475">
        <ele>171.80000305176</ele>
        <time>2024-05-20T11:50:50.000Z</time>
      </trkpt>
      <trkpt lat="46.11685" lon="4.77471">
        <ele>171.80000305176</ele>
        <time>2024-05-20T11:50:51.000Z</time>
      </trkpt>
      <trkpt lat="46.1168" lon="4.77467">
        <ele>171.80000305176</ele>
        <time>2024-05-20T11:50:52.000Z</time>
      </trkpt>
      <trkpt lat="46.11675" lon="4.77463">
        <ele>171.60000610352</ele>
        <time>2024-05-20T11:50:53.000Z</time>
      </trkpt>
      <trkpt lat="46.1167" lon="4.77459">
        <ele>171.60000610352</ele>
        <time>2024-05-20T11:50:54.000Z</time>
      </trkpt>
      <trkpt lat="46.11665" lon="4.77454">
        <ele>171.39999389648</ele>
        <time>2024-05-20T11:50:55.000Z</time>
      </trkpt>
      <trkpt lat="46.1166" lon="4.7745">
        <ele>171.39999389648</ele>
        <time>2024-05-20T11:50:56.000Z</time>
      </trkpt>
      <trkpt lat="46.11654" lon="4.77446">
        <ele>171.39999389648</ele>
        <time>2024-05-20T11:50:57.000Z</time>
      </trkpt>
      <trkpt lat="46.11649" lon="4.77442">
        <ele>171.39999389648</ele>
        <time>2024-05-20T11:50:58.000Z</time>
      </trkpt>
      <trkpt lat="46.11644" lon="4.77438">
        <ele>171.60000610352</ele>
        <time>2024-05-20T11:50:59.000Z</time>
      </trkpt>
      <trkpt lat="46.11638" lon="4.77434">
        <ele>171.60000610352</ele>
        <time>2024-05-20T11:51:00.000Z</time>
      </trkpt>
      <trkpt lat="46.11633" lon="4.7743">
        <ele>171.60000610352</ele>
        <time>2024-05-20T11:51:01.000Z</time>
      </trkpt>
      <trkpt lat="46.11627" lon="4.77427">
        <ele>172</ele>
        <time>2024-05-20T11:51:02.000Z</time>
      </trkpt>
      <trkpt lat="46.11622" lon="4.77423">
        <ele>172</ele>
        <time>2024-05-20T11:51:03.000Z</time>
      </trkpt>
      <trkpt lat="46.11616" lon="4.77421">
        <ele>172</ele>
        <time>2024-05-20T11:51:04.000Z</time>
      </trkpt>
      <trkpt lat="46.1161" lon="4.77418">
        <ele>172</ele>
        <time>2024-05-20T11:51:05.000Z</time>
      </trkpt>
      <trkpt lat="46.11604" lon="4.77415">
        <ele>171.80000305176</ele>
        <time>2024-05-20T11:51:06.000Z</time>
      </trkpt>
      <trkpt lat="46.11598" lon="4.77413">
        <ele>171.60000610352</ele>
        <time>2024-05-20T11:51:07.000Z</time>
      </trkpt>
      <trkpt lat="46.11593" lon="4.7741">
        <ele>171.19999694824</ele>
        <time>2024-05-20T11:51:08.000Z</time>
      </trkpt>
      <trkpt lat="46.11587" lon="4.77407">
        <ele>171.19999694824</ele>
        <time>2024-05-20T11:51:09.000Z</time>
      </trkpt>
      <trkpt lat="46.11582" lon="4.77403">
        <ele>171.19999694824</ele>
        <time>2024-05-20T11:51:10.000Z</time>
      </trkpt>
      <trkpt lat="46.11577" lon="4.774">
        <ele>171.19999694824</ele>
        <time>2024-05-20T11:51:11.000Z</time>
      </trkpt>
      <trkpt lat="46.11571" lon="4.77397">
        <ele>171.39999389648</ele>
        <time>2024-05-20T11:51:12.000Z</time>
      </trkpt>
      <trkpt lat="46.11565" lon="4.77395">
        <ele>171.60000610352</ele>
        <time>2024-05-20T11:51:13.000Z</time>
      </trkpt>
      <trkpt lat="46.11559" lon="4.77392">
        <ele>171.80000305176</ele>
        <time>2024-05-20T11:51:14.000Z</time>
      </trkpt>
      <trkpt lat="46.11554" lon="4.77389">
        <ele>171.80000305176</ele>
        <time>2024-05-20T11:51:15.000Z</time>
      </trkpt>
      <trkpt lat="46.11548" lon="4.77387">
        <ele>171.80000305176</ele>
        <time>2024-05-20T11:51:16.000Z</time>
      </trkpt>
      <trkpt lat="46.11543" lon="4.77384">
        <ele>172</ele>
        <time>2024-05-20T11:51:17.000Z</time>
      </trkpt>
      <trkpt lat="46.11537" lon="4.77381">
        <ele>172</ele>
        <time>2024-05-20T11:51:18.000Z</time>
      </trkpt>
      <trkpt lat="46.11531" lon="4.77379">
        <ele>172</ele>
        <time>2024-05-20T11:51:19.000Z</time>
      </trkpt>
      <trkpt lat="46.11526" lon="4.77377">
        <ele>172</ele>
        <time>2024-05-20T11:51:20.000Z</time>
      </trkpt>
      <trkpt lat="46.1152" lon="4.77375">
        <ele>172</ele>
        <time>2024-05-20T11:51:21.000Z</time>
      </trkpt>
      <trkpt lat="46.11515" lon="4.77373">
        <ele>172</ele>
        <time>2024-05-20T11:51:22.000Z</time>
      </trkpt>
      <trkpt lat="46.11509" lon="4.7737">
        <ele>172</ele>
        <time>2024-05-20T11:51:23.000Z</time>
      </trkpt>
      <trkpt lat="46.11503" lon="4.77368">
        <ele>172</ele>
        <time>2024-05-20T11:51:24.000Z</time>
      </trkpt>
      <trkpt lat="46.11497" lon="4.77366">
        <ele>172</ele>
        <time>2024-05-20T11:51:25.000Z</time>
      </trkpt>
      <trkpt lat="46.11491" lon="4.77364">
        <ele>172</ele>
        <time>2024-05-20T11:51:26.000Z</time>
      </trkpt>
      <trkpt lat="46.11485" lon="4.77362">
        <ele>172</ele>
        <time>2024-05-20T11:51:27.000Z</time>
      </trkpt>
      <trkpt lat="46.11479" lon="4.77361">
        <ele>172</ele>
        <time>2024-05-20T11:51:28.000Z</time>
      </trkpt>
      <trkpt lat="46.11473" lon="4.77359">
        <ele>172</ele>
        <time>2024-05-20T11:51:29.000Z</time>
      </trkpt>
      <trkpt lat="46.11467" lon="4.77358">
        <ele>171.80000305176</ele>
        <time>2024-05-20T11:51:30.000Z</time>
      </trkpt>
      <trkpt lat="46.11461" lon="4.77358">
        <ele>171.80000305176</ele>
        <time>2024-05-20T11:51:31.000Z</time>
      </trkpt>
      <trkpt lat="46.11456" lon="4.77357">
        <ele>171.80000305176</ele>
        <time>2024-05-20T11:51:32.000Z</time>
      </trkpt>
      <trkpt lat="46.1145" lon="4.77356">
        <ele>171.60000610352</ele>
        <time>2024-05-20T11:51:33.000Z</time>
      </trkpt>
      <trkpt lat="46.11444" lon="4.77355">
        <ele>171</ele>
        <time>2024-05-20T11:51:34.000Z</time>
      </trkpt>
      <trkpt lat="46.11438" lon="4.77354">
        <ele>171</ele>
        <time>2024-05-20T11:51:35.000Z</time>
      </trkpt>
      <trkpt lat="46.11432" lon="4.77352">
        <ele>171</ele>
        <time>2024-05-20T11:51:36.000Z</time>
      </trkpt>
      <trkpt lat="46.11426" lon="4.7735">
        <ele>171</ele>
        <time>2024-05-20T11:51:37.000Z</time>
      </trkpt>
      <trkpt lat="46.1142" lon="4.77348">
        <ele>171</ele>
        <time>2024-05-20T11:51:38.000Z</time>
      </trkpt>
      <trkpt lat="46.11415" lon="4.77347">
        <ele>171.60000610352</ele>
        <time>2024-05-20T11:51:39.000Z</time>
      </trkpt>
      <trkpt lat="46.11409" lon="4.77345">
        <ele>171.80000305176</ele>
        <time>2024-05-20T11:51:40.000Z</time>
      </trkpt>
      <trkpt lat="46.11403" lon="4.77343">
        <ele>171.80000305176</ele>
        <time>2024-05-20T11:51:41.000Z</time>
      </trkpt>
      <trkpt lat="46.11397" lon="4.77342">
        <ele>171.80000305176</ele>
        <time>2024-05-20T11:51:42.000Z</time>
      </trkpt>
      <trkpt lat="46.11391" lon="4.77341">
        <ele>171.80000305176</ele>
        <time>2024-05-20T11:51:43.000Z</time>
      </trkpt>
      <trkpt lat="46.11385" lon="4.7734">
        <ele>171.80000305176</ele>
        <time>2024-05-20T11:51:44.000Z</time>
      </trkpt>
      <trkpt lat="46.11379" lon="4.77338">
        <ele>171.80000305176</ele>
        <time>2024-05-20T11:51:45.000Z</time>
      </trkpt>
      <trkpt lat="46.11373" lon="4.77337">
        <ele>171.80000305176</ele>
        <time>2024-05-20T11:51:46.000Z</time>
      </trkpt>
      <trkpt lat="46.11367" lon="4.77337">
        <ele>171.80000305176</ele>
        <time>2024-05-20T11:51:47.000Z</time>
      </trkpt>
      <trkpt lat="46.1136" lon="4.77336">
        <ele>171.80000305176</ele>
        <time>2024-05-20T11:51:48.000Z</time>
      </trkpt>
      <trkpt lat="46.11354" lon="4.77335">
        <ele>171.80000305176</ele>
        <time>2024-05-20T11:51:49.000Z</time>
      </trkpt>
      <trkpt lat="46.11348" lon="4.77335">
        <ele>172</ele>
        <time>2024-05-20T11:51:50.000Z</time>
      </trkpt>
      <trkpt lat="46.11342" lon="4.77334">
        <ele>172.39999389648</ele>
        <time>2024-05-20T11:51:51.000Z</time>
      </trkpt>
      <trkpt lat="46.11336" lon="4.77333">
        <ele>172.39999389648</ele>
        <time>2024-05-20T11:51:52.000Z</time>
      </trkpt>
      <trkpt lat="46.11331" lon="4.77332">
        <ele>172.39999389648</ele>
        <time>2024-05-20T11:51:53.000Z</time>
      </trkpt>
      <trkpt lat="46.11324" lon="4.77331">
        <ele>172.39999389648</ele>
        <time>2024-05-20T11:51:54.000Z</time>
      </trkpt>
      <trkpt lat="46.11318" lon="4.7733">
        <ele>172.60000610352</ele>
        <time>2024-05-20T11:51:55.000Z</time>
      </trkpt>
      <trkpt lat="46.11312" lon="4.77329">
        <ele>172.60000610352</ele>
        <time>2024-05-20T11:51:56.000Z</time>
      </trkpt>
      <trkpt lat="46.11306" lon="4.77328">
        <ele>172.60000610352</ele>
        <time>2024-05-20T11:51:57.000Z</time>
      </trkpt>
      <trkpt lat="46.113" lon="4.77327">
        <ele>172.60000610352</ele>
        <time>2024-05-20T11:51:58.000Z</time>
      </trkpt>
      <trkpt lat="46.11293" lon="4.77326">
        <ele>172.60000610352</ele>
        <time>2024-05-20T11:51:59.000Z</time>
      </trkpt>
      <trkpt lat="46.11287" lon="4.77325">
        <ele>172.60000610352</ele>
        <time>2024-05-20T11:52:00.000Z</time>
      </trkpt>
      <trkpt lat="46.1128" lon="4.77324">
        <ele>172.60000610352</ele>
        <time>2024-05-20T11:52:01.000Z</time>
      </trkpt>
      <trkpt lat="46.11274" lon="4.77323">
        <ele>172.60000610352</ele>
        <time>2024-05-20T11:52:02.000Z</time>
      </trkpt>
      <trkpt lat="46.11268" lon="4.77322">
        <ele>172.60000610352</ele>
        <time>2024-05-20T11:52:03.000Z</time>
      </trkpt>
      <trkpt lat="46.11262" lon="4.77321">
        <ele>172.60000610352</ele>
        <time>2024-05-20T11:52:04.000Z</time>
      </trkpt>
      <trkpt lat="46.11255" lon="4.77321">
        <ele>172.60000610352</ele>
        <time>2024-05-20T11:52:05.000Z</time>
      </trkpt>
      <trkpt lat="46.11249" lon="4.7732">
        <ele>172.60000610352</ele>
        <time>2024-05-20T11:52:06.000Z</time>
      </trkpt>
      <trkpt lat="46.11243" lon="4.77319">
        <ele>172.80000305176</ele>
        <time>2024-05-20T11:52:07.000Z</time>
      </trkpt>
      <trkpt lat="46.11237" lon="4.77319">
        <ele>172.80000305176</ele>
        <time>2024-05-20T11:52:08.000Z</time>
      </trkpt>
      <trkpt lat="46.1123" lon="4.77318">
        <ele>172.80000305176</ele>
        <time>2024-05-20T11:52:09.000Z</time>
      </trkpt>
      <trkpt lat="46.11224" lon="4.77318">
        <ele>172.80000305176</ele>
        <time>2024-05-20T11:52:10.000Z</time>
      </trkpt>
      <trkpt lat="46.11218" lon="4.77317">
        <ele>172.80000305176</ele>
        <time>2024-05-20T11:52:11.000Z</time>
      </trkpt>
      <trkpt lat="46.11212" lon="4.77316">
        <ele>172.60000610352</ele>
        <time>2024-05-20T11:52:12.000Z</time>
      </trkpt>
      <trkpt lat="46.11205" lon="4.77315">
        <ele>172.60000610352</ele>
        <time>2024-05-20T11:52:13.000Z</time>
      </trkpt>
      <trkpt lat="46.11199" lon="4.77314">
        <ele>172.60000610352</ele>
        <time>2024-05-20T11:52:14.000Z</time>
      </trkpt>
      <trkpt lat="46.11193" lon="4.77313">
        <ele>172.60000610352</ele>
        <time>2024-05-20T11:52:15.000Z</time>
      </trkpt>
      <trkpt lat="46.11187" lon="4.77312">
        <ele>172.60000610352</ele>
        <time>2024-05-20T11:52:16.000Z</time>
      </trkpt>
      <trkpt lat="46.11181" lon="4.77311">
        <ele>172.80000305176</ele>
        <time>2024-05-20T11:52:17.000Z</time>
      </trkpt>
      <trkpt lat="46.11175" lon="4.77309">
        <ele>172.80000305176</ele>
        <time>2024-05-20T11:52:18.000Z</time>
      </trkpt>
      <trkpt lat="46.11168" lon="4.77307">
        <ele>172.80000305176</ele>
        <time>2024-05-20T11:52:19.000Z</time>
      </trkpt>
      <trkpt lat="46.11162" lon="4.77306">
        <ele>172.80000305176</ele>
        <time>2024-05-20T11:52:20.000Z</time>
      </trkpt>
      <trkpt lat="46.11156" lon="4.77304">
        <ele>172.80000305176</ele>
        <time>2024-05-20T11:52:21.000Z</time>
      </trkpt>
      <trkpt lat="46.1115" lon="4.77303">
        <ele>172.80000305176</ele>
        <time>2024-05-20T11:52:22.000Z</time>
      </trkpt>
      <trkpt lat="46.11144" lon="4.77302">
        <ele>172.80000305176</ele>
        <time>2024-05-20T11:52:23.000Z</time>
      </trkpt>
      <trkpt lat="46.11139" lon="4.773">
        <ele>172.80000305176</ele>
        <time>2024-05-20T11:52:24.000Z</time>
      </trkpt>
      <trkpt lat="46.11133" lon="4.77299">
        <ele>172.80000305176</ele>
        <time>2024-05-20T11:52:25.000Z</time>
      </trkpt>
      <trkpt lat="46.11127" lon="4.77298">
        <ele>172.80000305176</ele>
        <time>2024-05-20T11:52:26.000Z</time>
      </trkpt>
      <trkpt lat="46.11121" lon="4.77297">
        <ele>172.80000305176</ele>
        <time>2024-05-20T11:52:27.000Z</time>
      </trkpt>
      <trkpt lat="46.11116" lon="4.77294">
        <ele>172.80000305176</ele>
        <time>2024-05-20T11:52:28.000Z</time>
      </trkpt>
      <trkpt lat="46.1111" lon="4.77292">
        <ele>172.80000305176</ele>
        <time>2024-05-20T11:52:29.000Z</time>
      </trkpt>
      <trkpt lat="46.11104" lon="4.7729">
        <ele>172.60000610352</ele>
        <time>2024-05-20T11:52:30.000Z</time>
      </trkpt>
      <trkpt lat="46.11098" lon="4.77289">
        <ele>172.60000610352</ele>
        <time>2024-05-20T11:52:31.000Z</time>
      </trkpt>
      <trkpt lat="46.11093" lon="4.7729">
        <ele>172.60000610352</ele>
        <time>2024-05-20T11:52:32.000Z</time>
      </trkpt>
      <trkpt lat="46.11087" lon="4.77291">
        <ele>172.60000610352</ele>
        <time>2024-05-20T11:52:33.000Z</time>
      </trkpt>
      <trkpt lat="46.11081" lon="4.77292">
        <ele>172.60000610352</ele>
        <time>2024-05-20T11:52:34.000Z</time>
      </trkpt>
      <trkpt lat="46.11076" lon="4.77292">
        <ele>172.60000610352</ele>
        <time>2024-05-20T11:52:35.000Z</time>
      </trkpt>
      <trkpt lat="46.11071" lon="4.77291">
        <ele>172.60000610352</ele>
        <time>2024-05-20T11:52:36.000Z</time>
      </trkpt>
      <trkpt lat="46.11066" lon="4.77288">
        <ele>172.60000610352</ele>
        <time>2024-05-20T11:52:37.000Z</time>
      </trkpt>
      <trkpt lat="46.11061" lon="4.77284">
        <ele>172.80000305176</ele>
        <time>2024-05-20T11:52:38.000Z</time>
      </trkpt>
      <trkpt lat="46.11056" lon="4.77278">
        <ele>172.80000305176</ele>
        <time>2024-05-20T11:52:39.000Z</time>
      </trkpt>
      <trkpt lat="46.11052" lon="4.77272">
        <ele>172.80000305176</ele>
        <time>2024-05-20T11:52:40.000Z</time>
      </trkpt>
      <trkpt lat="46.11047" lon="4.77266">
        <ele>172.60000610352</ele>
        <time>2024-05-20T11:52:41.000Z</time>
      </trkpt>
      <trkpt lat="46.11043" lon="4.7726">
        <ele>172.60000610352</ele>
        <time>2024-05-20T11:52:42.000Z</time>
      </trkpt>
      <trkpt lat="46.11038" lon="4.77255">
        <ele>172.60000610352</ele>
        <time>2024-05-20T11:52:43.000Z</time>
      </trkpt>
      <trkpt lat="46.11032" lon="4.7725">
        <ele>172.60000610352</ele>
        <time>2024-05-20T11:52:44.000Z</time>
      </trkpt>
      <trkpt lat="46.11027" lon="4.77246">
        <ele>172.60000610352</ele>
        <time>2024-05-20T11:52:45.000Z</time>
      </trkpt>
      <trkpt lat="46.11022" lon="4.77241">
        <ele>172.60000610352</ele>
        <time>2024-05-20T11:52:46.000Z</time>
      </trkpt>
      <trkpt lat="46.11017" lon="4.77237">
        <ele>172.60000610352</ele>
        <time>2024-05-20T11:52:47.000Z</time>
      </trkpt>
      <trkpt lat="46.11012" lon="4.77232">
        <ele>172.60000610352</ele>
        <time>2024-05-20T11:52:48.000Z</time>
      </trkpt>
      <trkpt lat="46.11007" lon="4.77227">
        <ele>172.60000610352</ele>
        <time>2024-05-20T11:52:49.000Z</time>
      </trkpt>
      <trkpt lat="46.11001" lon="4.77223">
        <ele>172.60000610352</ele>
        <time>2024-05-20T11:52:50.000Z</time>
      </trkpt>
      <trkpt lat="46.10996" lon="4.77218">
        <ele>172.60000610352</ele>
        <time>2024-05-20T11:52:51.000Z</time>
      </trkpt>
      <trkpt lat="46.10991" lon="4.77213">
        <ele>172.80000305176</ele>
        <time>2024-05-20T11:52:52.000Z</time>
      </trkpt>
      <trkpt lat="46.10986" lon="4.77208">
        <ele>172.60000610352</ele>
        <time>2024-05-20T11:52:53.000Z</time>
      </trkpt>
      <trkpt lat="46.10981" lon="4.77204">
        <ele>172.60000610352</ele>
        <time>2024-05-20T11:52:54.000Z</time>
      </trkpt>
      <trkpt lat="46.10976" lon="4.77199">
        <ele>172.80000305176</ele>
        <time>2024-05-20T11:52:55.000Z</time>
      </trkpt>
      <trkpt lat="46.10971" lon="4.77193">
        <ele>172.80000305176</ele>
        <time>2024-05-20T11:52:56.000Z</time>
      </trkpt>
      <trkpt lat="46.10966" lon="4.77189">
        <ele>172.80000305176</ele>
        <time>2024-05-20T11:52:57.000Z</time>
      </trkpt>
      <trkpt lat="46.10961" lon="4.77184">
        <ele>172.80000305176</ele>
        <time>2024-05-20T11:52:58.000Z</time>
      </trkpt>
      <trkpt lat="46.10956" lon="4.77179">
        <ele>173</ele>
        <time>2024-05-20T11:52:59.000Z</time>
      </trkpt>
      <trkpt lat="46.10951" lon="4.77173">
        <ele>173</ele>
        <time>2024-05-20T11:53:00.000Z</time>
      </trkpt>
      <trkpt lat="46.10946" lon="4.77168">
        <ele>173</ele>
        <time>2024-05-20T11:53:01.000Z</time>
      </trkpt>
      <trkpt lat="46.10941" lon="4.77163">
        <ele>173</ele>
        <time>2024-05-20T11:53:02.000Z</time>
      </trkpt>
      <trkpt lat="46.10936" lon="4.77157">
        <ele>173.19999694824</ele>
        <time>2024-05-20T11:53:03.000Z</time>
      </trkpt>
      <trkpt lat="46.10931" lon="4.77152">
        <ele>173.39999389648</ele>
        <time>2024-05-20T11:53:04.000Z</time>
      </trkpt>
      <trkpt lat="46.10926" lon="4.77146">
        <ele>173.39999389648</ele>
        <time>2024-05-20T11:53:05.000Z</time>
      </trkpt>
      <trkpt lat="46.10921" lon="4.77141">
        <ele>173.39999389648</ele>
        <time>2024-05-20T11:53:06.000Z</time>
      </trkpt>
      <trkpt lat="46.10916" lon="4.77135">
        <ele>173.39999389648</ele>
        <time>2024-05-20T11:53:07.000Z</time>
      </trkpt>
      <trkpt lat="46.10912" lon="4.7713">
        <ele>173.39999389648</ele>
        <time>2024-05-20T11:53:08.000Z</time>
      </trkpt>
      <trkpt lat="46.10907" lon="4.77124">
        <ele>173.39999389648</ele>
        <time>2024-05-20T11:53:09.000Z</time>
      </trkpt>
      <trkpt lat="46.10903" lon="4.77119">
        <ele>173.39999389648</ele>
        <time>2024-05-20T11:53:10.000Z</time>
      </trkpt>
      <trkpt lat="46.10898" lon="4.77113">
        <ele>173.60000610352</ele>
        <time>2024-05-20T11:53:11.000Z</time>
      </trkpt>
      <trkpt lat="46.10893" lon="4.77106">
        <ele>173.60000610352</ele>
        <time>2024-05-20T11:53:12.000Z</time>
      </trkpt>
      <trkpt lat="46.10889" lon="4.77099">
        <ele>173.60000610352</ele>
        <time>2024-05-20T11:53:13.000Z</time>
      </trkpt>
      <trkpt lat="46.10884" lon="4.77092">
        <ele>173.60000610352</ele>
        <time>2024-05-20T11:53:14.000Z</time>
      </trkpt>
      <trkpt lat="46.1088" lon="4.77085">
        <ele>173.60000610352</ele>
        <time>2024-05-20T11:53:15.000Z</time>
      </trkpt>
      <trkpt lat="46.10875" lon="4.77078">
        <ele>173.60000610352</ele>
        <time>2024-05-20T11:53:16.000Z</time>
      </trkpt>
      <trkpt lat="46.10871" lon="4.77072">
        <ele>173.60000610352</ele>
        <time>2024-05-20T11:53:17.000Z</time>
      </trkpt>
      <trkpt lat="46.10867" lon="4.77065">
        <ele>173.60000610352</ele>
        <time>2024-05-20T11:53:18.000Z</time>
      </trkpt>
      <trkpt lat="46.10862" lon="4.77059">
        <ele>173.60000610352</ele>
        <time>2024-05-20T11:53:19.000Z</time>
      </trkpt>
      <trkpt lat="46.10858" lon="4.77052">
        <ele>173.60000610352</ele>
        <time>2024-05-20T11:53:20.000Z</time>
      </trkpt>
      <trkpt lat="46.10853" lon="4.77046">
        <ele>173.60000610352</ele>
        <time>2024-05-20T11:53:21.000Z</time>
      </trkpt>
      <trkpt lat="46.10848" lon="4.7704">
        <ele>173.80000305176</ele>
        <time>2024-05-20T11:53:22.000Z</time>
      </trkpt>
      <trkpt lat="46.10843" lon="4.77034">
        <ele>173.80000305176</ele>
        <time>2024-05-20T11:53:23.000Z</time>
      </trkpt>
      <trkpt lat="46.10838" lon="4.77028">
        <ele>173.80000305176</ele>
        <time>2024-05-20T11:53:24.000Z</time>
      </trkpt>
      <trkpt lat="46.10833" lon="4.77022">
        <ele>173.80000305176</ele>
        <time>2024-05-20T11:53:25.000Z</time>
      </trkpt>
      <trkpt lat="46.10828" lon="4.77016">
        <ele>173.80000305176</ele>
        <time>2024-05-20T11:53:26.000Z</time>
      </trkpt>
      <trkpt lat="46.10823" lon="4.77009">
        <ele>173.80000305176</ele>
        <time>2024-05-20T11:53:27.000Z</time>
      </trkpt>
      <trkpt lat="46.10818" lon="4.77003">
        <ele>173.60000610352</ele>
        <time>2024-05-20T11:53:28.000Z</time>
      </trkpt>
      <trkpt lat="46.10813" lon="4.76997">
        <ele>173.60000610352</ele>
        <time>2024-05-20T11:53:29.000Z</time>
      </trkpt>
      <trkpt lat="46.10808" lon="4.76991">
        <ele>173.60000610352</ele>
        <time>2024-05-20T11:53:30.000Z</time>
      </trkpt>
      <trkpt lat="46.10803" lon="4.76984">
        <ele>173.60000610352</ele>
        <time>2024-05-20T11:53:31.000Z</time>
      </trkpt>
      <trkpt lat="46.10797" lon="4.76979">
        <ele>173.60000610352</ele>
        <time>2024-05-20T11:53:32.000Z</time>
      </trkpt>
      <trkpt lat="46.10792" lon="4.76973">
        <ele>173.60000610352</ele>
        <time>2024-05-20T11:53:33.000Z</time>
      </trkpt>
      <trkpt lat="46.10787" lon="4.76967">
        <ele>173.80000305176</ele>
        <time>2024-05-20T11:53:34.000Z</time>
      </trkpt>
      <trkpt lat="46.10782" lon="4.76961">
        <ele>173.80000305176</ele>
        <time>2024-05-20T11:53:35.000Z</time>
      </trkpt>
      <trkpt lat="46.10777" lon="4.76956">
        <ele>173.80000305176</ele>
        <time>2024-05-20T11:53:36.000Z</time>
      </trkpt>
      <trkpt lat="46.10772" lon="4.7695">
        <ele>173.80000305176</ele>
        <time>2024-05-20T11:53:37.000Z</time>
      </trkpt>
      <trkpt lat="46.10768" lon="4.76944">
        <ele>173.80000305176</ele>
        <time>2024-05-20T11:53:38.000Z</time>
      </trkpt>
      <trkpt lat="46.10763" lon="4.76938">
        <ele>173.80000305176</ele>
        <time>2024-05-20T11:53:39.000Z</time>
      </trkpt>
      <trkpt lat="46.10757" lon="4.76932">
        <ele>173.80000305176</ele>
        <time>2024-05-20T11:53:40.000Z</time>
      </trkpt>
      <trkpt lat="46.10752" lon="4.76926">
        <ele>173.80000305176</ele>
        <time>2024-05-20T11:53:41.000Z</time>
      </trkpt>
      <trkpt lat="46.10747" lon="4.76921">
        <ele>174</ele>
        <time>2024-05-20T11:53:42.000Z</time>
      </trkpt>
      <trkpt lat="46.10742" lon="4.76915">
        <ele>174</ele>
        <time>2024-05-20T11:53:43.000Z</time>
      </trkpt>
      <trkpt lat="46.10737" lon="4.7691">
        <ele>174</ele>
        <time>2024-05-20T11:53:44.000Z</time>
      </trkpt>
      <trkpt lat="46.10731" lon="4.76904">
        <ele>174</ele>
        <time>2024-05-20T11:53:45.000Z</time>
      </trkpt>
      <trkpt lat="46.10725" lon="4.76898">
        <ele>174</ele>
        <time>2024-05-20T11:53:46.000Z</time>
      </trkpt>
      <trkpt lat="46.10719" lon="4.76893">
        <ele>174</ele>
        <time>2024-05-20T11:53:47.000Z</time>
      </trkpt>
      <trkpt lat="46.10713" lon="4.76887">
        <ele>174</ele>
        <time>2024-05-20T11:53:48.000Z</time>
      </trkpt>
      <trkpt lat="46.10708" lon="4.76882">
        <ele>174</ele>
        <time>2024-05-20T11:53:49.000Z</time>
      </trkpt>
      <trkpt lat="46.10703" lon="4.76877">
        <ele>173.80000305176</ele>
        <time>2024-05-20T11:53:50.000Z</time>
      </trkpt>
      <trkpt lat="46.10698" lon="4.76873">
        <ele>173.80000305176</ele>
        <time>2024-05-20T11:53:51.000Z</time>
      </trkpt>
      <trkpt lat="46.10692" lon="4.76867">
        <ele>173.60000610352</ele>
        <time>2024-05-20T11:53:52.000Z</time>
      </trkpt>
      <trkpt lat="46.10687" lon="4.7686">
        <ele>173.60000610352</ele>
        <time>2024-05-20T11:53:53.000Z</time>
      </trkpt>
      <trkpt lat="46.10681" lon="4.76855">
        <ele>173.60000610352</ele>
        <time>2024-05-20T11:53:54.000Z</time>
      </trkpt>
      <trkpt lat="46.10676" lon="4.7685">
        <ele>173.39999389648</ele>
        <time>2024-05-20T11:53:55.000Z</time>
      </trkpt>
      <trkpt lat="46.10671" lon="4.76844">
        <ele>173.39999389648</ele>
        <time>2024-05-20T11:53:56.000Z</time>
      </trkpt>
      <trkpt lat="46.10666" lon="4.76838">
        <ele>173.39999389648</ele>
        <time>2024-05-20T11:53:57.000Z</time>
      </trkpt>
      <trkpt lat="46.10661" lon="4.76833">
        <ele>173.19999694824</ele>
        <time>2024-05-20T11:53:58.000Z</time>
      </trkpt>
      <trkpt lat="46.10655" lon="4.76828">
        <ele>173.19999694824</ele>
        <time>2024-05-20T11:53:59.000Z</time>
      </trkpt>
      <trkpt lat="46.1065" lon="4.76822">
        <ele>173.19999694824</ele>
        <time>2024-05-20T11:54:00.000Z</time>
      </trkpt>
      <trkpt lat="46.10645" lon="4.76817">
        <ele>173.19999694824</ele>
        <time>2024-05-20T11:54:01.000Z</time>
      </trkpt>
      <trkpt lat="46.1064" lon="4.76812">
        <ele>173.19999694824</ele>
        <time>2024-05-20T11:54:02.000Z</time>
      </trkpt>
      <trkpt lat="46.10635" lon="4.76808">
        <ele>173.19999694824</ele>
        <time>2024-05-20T11:54:03.000Z</time>
      </trkpt>
      <trkpt lat="46.1063" lon="4.76803">
        <ele>173.60000610352</ele>
        <time>2024-05-20T11:54:04.000Z</time>
      </trkpt>
      <trkpt lat="46.10625" lon="4.76798">
        <ele>173.80000305176</ele>
        <time>2024-05-20T11:54:05.000Z</time>
      </trkpt>
      <trkpt lat="46.1062" lon="4.76793">
        <ele>173.80000305176</ele>
        <time>2024-05-20T11:54:06.000Z</time>
      </trkpt>
      <trkpt lat="46.10615" lon="4.76788">
        <ele>173.80000305176</ele>
        <time>2024-05-20T11:54:07.000Z</time>
      </trkpt>
      <trkpt lat="46.1061" lon="4.76783">
        <ele>173.80000305176</ele>
        <time>2024-05-20T11:54:08.000Z</time>
      </trkpt>
      <trkpt lat="46.10604" lon="4.76778">
        <ele>173.80000305176</ele>
        <time>2024-05-20T11:54:09.000Z</time>
      </trkpt>
      <trkpt lat="46.10599" lon="4.76774">
        <ele>173.80000305176</ele>
        <time>2024-05-20T11:54:10.000Z</time>
      </trkpt>
      <trkpt lat="46.10592" lon="4.76769">
        <ele>173.80000305176</ele>
        <time>2024-05-20T11:54:11.000Z</time>
      </trkpt>
      <trkpt lat="46.10587" lon="4.76764">
        <ele>173.80000305176</ele>
        <time>2024-05-20T11:54:12.000Z</time>
      </trkpt>
      <trkpt lat="46.10582" lon="4.76759">
        <ele>173.80000305176</ele>
        <time>2024-05-20T11:54:13.000Z</time>
      </trkpt>
      <trkpt lat="46.10576" lon="4.76754">
        <ele>173.80000305176</ele>
        <time>2024-05-20T11:54:14.000Z</time>
      </trkpt>
      <trkpt lat="46.10571" lon="4.76749">
        <ele>173.80000305176</ele>
        <time>2024-05-20T11:54:15.000Z</time>
      </trkpt>
      <trkpt lat="46.10566" lon="4.76744">
        <ele>173.80000305176</ele>
        <time>2024-05-20T11:54:16.000Z</time>
      </trkpt>
      <trkpt lat="46.1056" lon="4.76739">
        <ele>173.80000305176</ele>
        <time>2024-05-20T11:54:17.000Z</time>
      </trkpt>
      <trkpt lat="46.10555" lon="4.76734">
        <ele>173.80000305176</ele>
        <time>2024-05-20T11:54:18.000Z</time>
      </trkpt>
      <trkpt lat="46.10549" lon="4.76728">
        <ele>173.80000305176</ele>
        <time>2024-05-20T11:54:19.000Z</time>
      </trkpt>
      <trkpt lat="46.10544" lon="4.76722">
        <ele>173.80000305176</ele>
        <time>2024-05-20T11:54:20.000Z</time>
      </trkpt>
      <trkpt lat="46.10538" lon="4.76716">
        <ele>173.80000305176</ele>
        <time>2024-05-20T11:54:21.000Z</time>
      </trkpt>
      <trkpt lat="46.10533" lon="4.7671">
        <ele>173.80000305176</ele>
        <time>2024-05-20T11:54:22.000Z</time>
      </trkpt>
      <trkpt lat="46.10528" lon="4.76705">
        <ele>173.60000610352</ele>
        <time>2024-05-20T11:54:23.000Z</time>
      </trkpt>
      <trkpt lat="46.10523" lon="4.767">
        <ele>173.60000610352</ele>
        <time>2024-05-20T11:54:24.000Z</time>
      </trkpt>
      <trkpt lat="46.10518" lon="4.76694">
        <ele>173.60000610352</ele>
        <time>2024-05-20T11:54:25.000Z</time>
      </trkpt>
      <trkpt lat="46.10513" lon="4.76689">
        <ele>173.60000610352</ele>
        <time>2024-05-20T11:54:26.000Z</time>
      </trkpt>
      <trkpt lat="46.10507" lon="4.76683">
        <ele>173.60000610352</ele>
        <time>2024-05-20T11:54:27.000Z</time>
      </trkpt>
      <trkpt lat="46.10502" lon="4.76678">
        <ele>173.80000305176</ele>
        <time>2024-05-20T11:54:28.000Z</time>
      </trkpt>
      <trkpt lat="46.10498" lon="4.76673">
        <ele>173.80000305176</ele>
        <time>2024-05-20T11:54:29.000Z</time>
      </trkpt>
      <trkpt lat="46.10493" lon="4.76668">
        <ele>173.80000305176</ele>
        <time>2024-05-20T11:54:30.000Z</time>
      </trkpt>
      <trkpt lat="46.10488" lon="4.76663">
        <ele>173.80000305176</ele>
        <time>2024-05-20T11:54:31.000Z</time>
      </trkpt>
      <trkpt lat="46.10483" lon="4.76658">
        <ele>173.80000305176</ele>
        <time>2024-05-20T11:54:32.000Z</time>
      </trkpt>
      <trkpt lat="46.10479" lon="4.76654">
        <ele>173.80000305176</ele>
        <time>2024-05-20T11:54:33.000Z</time>
      </trkpt>
      <trkpt lat="46.10474" lon="4.76649">
        <ele>173.80000305176</ele>
        <time>2024-05-20T11:54:34.000Z</time>
      </trkpt>
      <trkpt lat="46.10469" lon="4.76644">
        <ele>173.80000305176</ele>
        <time>2024-05-20T11:54:35.000Z</time>
      </trkpt>
      <trkpt lat="46.10464" lon="4.76639">
        <ele>173.80000305176</ele>
        <time>2024-05-20T11:54:36.000Z</time>
      </trkpt>
      <trkpt lat="46.1046" lon="4.76633">
        <ele>174</ele>
        <time>2024-05-20T11:54:37.000Z</time>
      </trkpt>
      <trkpt lat="46.10454" lon="4.76627">
        <ele>174</ele>
        <time>2024-05-20T11:54:38.000Z</time>
      </trkpt>
      <trkpt lat="46.10448" lon="4.76622">
        <ele>174</ele>
        <time>2024-05-20T11:54:39.000Z</time>
      </trkpt>
      <trkpt lat="46.10443" lon="4.76616">
        <ele>174</ele>
        <time>2024-05-20T11:54:40.000Z</time>
      </trkpt>
      <trkpt lat="46.10437" lon="4.7661">
        <ele>174</ele>
        <time>2024-05-20T11:54:41.000Z</time>
      </trkpt>
      <trkpt lat="46.10432" lon="4.76604">
        <ele>174</ele>
        <time>2024-05-20T11:54:42.000Z</time>
      </trkpt>
      <trkpt lat="46.10427" lon="4.76599">
        <ele>174</ele>
        <time>2024-05-20T11:54:43.000Z</time>
      </trkpt>
      <trkpt lat="46.10423" lon="4.76593">
        <ele>174</ele>
        <time>2024-05-20T11:54:44.000Z</time>
      </trkpt>
      <trkpt lat="46.10418" lon="4.76587">
        <ele>174</ele>
        <time>2024-05-20T11:54:45.000Z</time>
      </trkpt>
      <trkpt lat="46.10412" lon="4.76582">
        <ele>174</ele>
        <time>2024-05-20T11:54:46.000Z</time>
      </trkpt>
      <trkpt lat="46.10407" lon="4.76578">
        <ele>174</ele>
        <time>2024-05-20T11:54:47.000Z</time>
      </trkpt>
      <trkpt lat="46.10402" lon="4.76573">
        <ele>174</ele>
        <time>2024-05-20T11:54:48.000Z</time>
      </trkpt>
      <trkpt lat="46.10396" lon="4.76568">
        <ele>174</ele>
        <time>2024-05-20T11:54:49.000Z</time>
      </trkpt>
      <trkpt lat="46.1039" lon="4.76563">
        <ele>174</ele>
        <time>2024-05-20T11:54:50.000Z</time>
      </trkpt>
      <trkpt lat="46.10385" lon="4.76558">
        <ele>174</ele>
        <time>2024-05-20T11:54:51.000Z</time>
      </trkpt>
      <trkpt lat="46.1038" lon="4.76553">
        <ele>173.80000305176</ele>
        <time>2024-05-20T11:54:52.000Z</time>
      </trkpt>
      <trkpt lat="46.10374" lon="4.76548">
        <ele>173.80000305176</ele>
        <time>2024-05-20T11:54:53.000Z</time>
      </trkpt>
      <trkpt lat="46.10369" lon="4.76543">
        <ele>173.80000305176</ele>
        <time>2024-05-20T11:54:54.000Z</time>
      </trkpt>
      <trkpt lat="46.10364" lon="4.76538">
        <ele>173.80000305176</ele>
        <time>2024-05-20T11:54:55.000Z</time>
      </trkpt>
      <trkpt lat="46.10359" lon="4.76533">
        <ele>173.60000610352</ele>
        <time>2024-05-20T11:54:56.000Z</time>
      </trkpt>
      <trkpt lat="46.10353" lon="4.76528">
        <ele>173.60000610352</ele>
        <time>2024-05-20T11:54:57.000Z</time>
      </trkpt>
      <trkpt lat="46.10349" lon="4.76523">
        <ele>173.60000610352</ele>
        <time>2024-05-20T11:54:58.000Z</time>
      </trkpt>
      <trkpt lat="46.10343" lon="4.76517">
        <ele>173.39999389648</ele>
        <time>2024-05-20T11:54:59.000Z</time>
      </trkpt>
      <trkpt lat="46.10338" lon="4.76512">
        <ele>173.39999389648</ele>
        <time>2024-05-20T11:55:00.000Z</time>
      </trkpt>
      <trkpt lat="46.10333" lon="4.76506">
        <ele>173.19999694824</ele>
        <time>2024-05-20T11:55:01.000Z</time>
      </trkpt>
      <trkpt lat="46.10327" lon="4.76501">
        <ele>173.19999694824</ele>
        <time>2024-05-20T11:55:02.000Z</time>
      </trkpt>
      <trkpt lat="46.10322" lon="4.76496">
        <ele>173.19999694824</ele>
        <time>2024-05-20T11:55:03.000Z</time>
      </trkpt>
      <trkpt lat="46.10317" lon="4.7649">
        <ele>173.19999694824</ele>
        <time>2024-05-20T11:55:04.000Z</time>
      </trkpt>
      <trkpt lat="46.10312" lon="4.76485">
        <ele>173.19999694824</ele>
        <time>2024-05-20T11:55:05.000Z</time>
      </trkpt>
      <trkpt lat="46.10307" lon="4.7648">
        <ele>173.19999694824</ele>
        <time>2024-05-20T11:55:06.000Z</time>
      </trkpt>
      <trkpt lat="46.10301" lon="4.76474">
        <ele>173.19999694824</ele>
        <time>2024-05-20T11:55:07.000Z</time>
      </trkpt>
      <trkpt lat="46.10296" lon="4.76468">
        <ele>173.19999694824</ele>
        <time>2024-05-20T11:55:08.000Z</time>
      </trkpt>
      <trkpt lat="46.10291" lon="4.76463">
        <ele>173.19999694824</ele>
        <time>2024-05-20T11:55:09.000Z</time>
      </trkpt>
      <trkpt lat="46.10286" lon="4.76457">
        <ele>173.19999694824</ele>
        <time>2024-05-20T11:55:10.000Z</time>
      </trkpt>
      <trkpt lat="46.10281" lon="4.76451">
        <ele>173.19999694824</ele>
        <time>2024-05-20T11:55:11.000Z</time>
      </trkpt>
      <trkpt lat="46.10277" lon="4.76444">
        <ele>173.19999694824</ele>
        <time>2024-05-20T11:55:12.000Z</time>
      </trkpt>
      <trkpt lat="46.10272" lon="4.76438">
        <ele>173.19999694824</ele>
        <time>2024-05-20T11:55:13.000Z</time>
      </trkpt>
      <trkpt lat="46.10268" lon="4.76431">
        <ele>173.19999694824</ele>
        <time>2024-05-20T11:55:14.000Z</time>
      </trkpt>
      <trkpt lat="46.10264" lon="4.76424">
        <ele>173.19999694824</ele>
        <time>2024-05-20T11:55:15.000Z</time>
      </trkpt>
      <trkpt lat="46.10261" lon="4.76416">
        <ele>173.19999694824</ele>
        <time>2024-05-20T11:55:16.000Z</time>
      </trkpt>
      <trkpt lat="46.10257" lon="4.76409">
        <ele>173.39999389648</ele>
        <time>2024-05-20T11:55:17.000Z</time>
      </trkpt>
      <trkpt lat="46.10253" lon="4.76401">
        <ele>173.39999389648</ele>
        <time>2024-05-20T11:55:18.000Z</time>
      </trkpt>
      <trkpt lat="46.10249" lon="4.76394">
        <ele>173.39999389648</ele>
        <time>2024-05-20T11:55:19.000Z</time>
      </trkpt>
      <trkpt lat="46.10246" lon="4.76386">
        <ele>173.39999389648</ele>
        <time>2024-05-20T11:55:20.000Z</time>
      </trkpt>
      <trkpt lat="46.10243" lon="4.76379">
        <ele>173.39999389648</ele>
        <time>2024-05-20T11:55:21.000Z</time>
      </trkpt>
      <trkpt lat="46.10239" lon="4.76373">
        <ele>173.39999389648</ele>
        <time>2024-05-20T11:55:22.000Z</time>
      </trkpt>
      <trkpt lat="46.10236" lon="4.76366">
        <ele>173.39999389648</ele>
        <time>2024-05-20T11:55:23.000Z</time>
      </trkpt>
      <trkpt lat="46.10233" lon="4.76359">
        <ele>173.39999389648</ele>
        <time>2024-05-20T11:55:24.000Z</time>
      </trkpt>
      <trkpt lat="46.1023" lon="4.76352">
        <ele>173.39999389648</ele>
        <time>2024-05-20T11:55:25.000Z</time>
      </trkpt>
      <trkpt lat="46.10227" lon="4.76344">
        <ele>173.60000610352</ele>
        <time>2024-05-20T11:55:26.000Z</time>
      </trkpt>
      <trkpt lat="46.10224" lon="4.76336">
        <ele>173.60000610352</ele>
        <time>2024-05-20T11:55:27.000Z</time>
      </trkpt>
      <trkpt lat="46.10221" lon="4.76327">
        <ele>173.60000610352</ele>
        <time>2024-05-20T11:55:28.000Z</time>
      </trkpt>
      <trkpt lat="46.10219" lon="4.76319">
        <ele>173.39999389648</ele>
        <time>2024-05-20T11:55:29.000Z</time>
      </trkpt>
      <trkpt lat="46.10216" lon="4.76311">
        <ele>173.39999389648</ele>
        <time>2024-05-20T11:55:30.000Z</time>
      </trkpt>
      <trkpt lat="46.10214" lon="4.76303">
        <ele>173.39999389648</ele>
        <time>2024-05-20T11:55:31.000Z</time>
      </trkpt>
      <trkpt lat="46.10211" lon="4.76296">
        <ele>173.19999694824</ele>
        <time>2024-05-20T11:55:32.000Z</time>
      </trkpt>
      <trkpt lat="46.10208" lon="4.76291">
        <ele>173</ele>
        <time>2024-05-20T11:55:33.000Z</time>
      </trkpt>
      <trkpt lat="46.10204" lon="4.76286">
        <ele>173</ele>
        <time>2024-05-20T11:55:34.000Z</time>
      </trkpt>
      <trkpt lat="46.10199" lon="4.76286">
        <ele>173</ele>
        <time>2024-05-20T11:55:35.000Z</time>
      </trkpt>
      <trkpt lat="46.10194" lon="4.76286">
        <ele>173</ele>
        <time>2024-05-20T11:55:36.000Z</time>
      </trkpt>
      <trkpt lat="46.10188" lon="4.76287">
        <ele>173.19999694824</ele>
        <time>2024-05-20T11:55:37.000Z</time>
      </trkpt>
      <trkpt lat="46.10183" lon="4.76287">
        <ele>173.39999389648</ele>
        <time>2024-05-20T11:55:38.000Z</time>
      </trkpt>
      <trkpt lat="46.10178" lon="4.76286">
        <ele>173.39999389648</ele>
        <time>2024-05-20T11:55:39.000Z</time>
      </trkpt>
      <trkpt lat="46.10173" lon="4.76283">
        <ele>173.39999389648</ele>
        <time>2024-05-20T11:55:40.000Z</time>
      </trkpt>
      <trkpt lat="46.10168" lon="4.76281">
        <ele>173.39999389648</ele>
        <time>2024-05-20T11:55:41.000Z</time>
      </trkpt>
      <trkpt lat="46.10163" lon="4.76278">
        <ele>173.39999389648</ele>
        <time>2024-05-20T11:55:42.000Z</time>
      </trkpt>
      <trkpt lat="46.10158" lon="4.76276">
        <ele>173.39999389648</ele>
        <time>2024-05-20T11:55:43.000Z</time>
      </trkpt>
      <trkpt lat="46.10153" lon="4.76275">
        <ele>173.39999389648</ele>
        <time>2024-05-20T11:55:44.000Z</time>
      </trkpt>
      <trkpt lat="46.10148" lon="4.76274">
        <ele>173.19999694824</ele>
        <time>2024-05-20T11:55:45.000Z</time>
      </trkpt>
      <trkpt lat="46.10143" lon="4.76273">
        <ele>173.19999694824</ele>
        <time>2024-05-20T11:55:46.000Z</time>
      </trkpt>
      <trkpt lat="46.10138" lon="4.76271">
        <ele>173.19999694824</ele>
        <time>2024-05-20T11:55:47.000Z</time>
      </trkpt>
      <trkpt lat="46.10132" lon="4.76269">
        <ele>173</ele>
        <time>2024-05-20T11:55:48.000Z</time>
      </trkpt>
      <trkpt lat="46.10127" lon="4.76266">
        <ele>173</ele>
        <time>2024-05-20T11:55:49.000Z</time>
      </trkpt>
      <trkpt lat="46.10122" lon="4.76262">
        <ele>172.80000305176</ele>
        <time>2024-05-20T11:55:50.000Z</time>
      </trkpt>
      <trkpt lat="46.10118" lon="4.76258">
        <ele>172.80000305176</ele>
        <time>2024-05-20T11:55:51.000Z</time>
      </trkpt>
      <trkpt lat="46.10113" lon="4.76253">
        <ele>172.60000610352</ele>
        <time>2024-05-20T11:55:52.000Z</time>
      </trkpt>
      <trkpt lat="46.10108" lon="4.76248">
        <ele>172.60000610352</ele>
        <time>2024-05-20T11:55:53.000Z</time>
      </trkpt>
      <trkpt lat="46.10104" lon="4.76243">
        <ele>172.39999389648</ele>
        <time>2024-05-20T11:55:54.000Z</time>
      </trkpt>
      <trkpt lat="46.10099" lon="4.76238">
        <ele>172.39999389648</ele>
        <time>2024-05-20T11:55:55.000Z</time>
      </trkpt>
      <trkpt lat="46.10095" lon="4.76233">
        <ele>172.39999389648</ele>
        <time>2024-05-20T11:55:56.000Z</time>
      </trkpt>
      <trkpt lat="46.1009" lon="4.76228">
        <ele>172.39999389648</ele>
        <time>2024-05-20T11:55:57.000Z</time>
      </trkpt>
      <trkpt lat="46.10086" lon="4.76223">
        <ele>172.60000610352</ele>
        <time>2024-05-20T11:55:58.000Z</time>
      </trkpt>
      <trkpt lat="46.10081" lon="4.76218">
        <ele>172.80000305176</ele>
        <time>2024-05-20T11:55:59.000Z</time>
      </trkpt>
      <trkpt lat="46.10077" lon="4.76213">
        <ele>172.80000305176</ele>
        <time>2024-05-20T11:56:00.000Z</time>
      </trkpt>
      <trkpt lat="46.10072" lon="4.76208">
        <ele>172.80000305176</ele>
        <time>2024-05-20T11:56:01.000Z</time>
      </trkpt>
      <trkpt lat="46.10068" lon="4.76203">
        <ele>172.80000305176</ele>
        <time>2024-05-20T11:56:02.000Z</time>
      </trkpt>
      <trkpt lat="46.10064" lon="4.76198">
        <ele>173</ele>
        <time>2024-05-20T11:56:03.000Z</time>
      </trkpt>
      <trkpt lat="46.10061" lon="4.76193">
        <ele>172.80000305176</ele>
        <time>2024-05-20T11:56:04.000Z</time>
      </trkpt>
      <trkpt lat="46.10056" lon="4.76188">
        <ele>172.80000305176</ele>
        <time>2024-05-20T11:56:05.000Z</time>
      </trkpt>
      <trkpt lat="46.10051" lon="4.76182">
        <ele>173</ele>
        <time>2024-05-20T11:56:06.000Z</time>
      </trkpt>
      <trkpt lat="46.10046" lon="4.76176">
        <ele>173</ele>
        <time>2024-05-20T11:56:07.000Z</time>
      </trkpt>
      <trkpt lat="46.1004" lon="4.7617">
        <ele>172.80000305176</ele>
        <time>2024-05-20T11:56:08.000Z</time>
      </trkpt>
      <trkpt lat="46.10035" lon="4.76164">
        <ele>172.80000305176</ele>
        <time>2024-05-20T11:56:09.000Z</time>
      </trkpt>
      <trkpt lat="46.1003" lon="4.76159">
        <ele>172.80000305176</ele>
        <time>2024-05-20T11:56:10.000Z</time>
      </trkpt>
      <trkpt lat="46.10026" lon="4.76153">
        <ele>172.80000305176</ele>
        <time>2024-05-20T11:56:11.000Z</time>
      </trkpt>
      <trkpt lat="46.10021" lon="4.76148">
        <ele>172.80000305176</ele>
        <time>2024-05-20T11:56:12.000Z</time>
      </trkpt>
      <trkpt lat="46.10016" lon="4.76142">
        <ele>172.80000305176</ele>
        <time>2024-05-20T11:56:13.000Z</time>
      </trkpt>
      <trkpt lat="46.10012" lon="4.76136">
        <ele>172.80000305176</ele>
        <time>2024-05-20T11:56:14.000Z</time>
      </trkpt>
      <trkpt lat="46.10007" lon="4.76131">
        <ele>172.80000305176</ele>
        <time>2024-05-20T11:56:15.000Z</time>
      </trkpt>
      <trkpt lat="46.10002" lon="4.76126">
        <ele>172.80000305176</ele>
        <time>2024-05-20T11:56:16.000Z</time>
      </trkpt>
      <trkpt lat="46.09998" lon="4.7612">
        <ele>172.80000305176</ele>
        <time>2024-05-20T11:56:17.000Z</time>
      </trkpt>
      <trkpt lat="46.09993" lon="4.76115">
        <ele>172.80000305176</ele>
        <time>2024-05-20T11:56:18.000Z</time>
      </trkpt>
      <trkpt lat="46.09988" lon="4.76109">
        <ele>172.80000305176</ele>
        <time>2024-05-20T11:56:19.000Z</time>
      </trkpt>
      <trkpt lat="46.09983" lon="4.76104">
        <ele>172.80000305176</ele>
        <time>2024-05-20T11:56:20.000Z</time>
      </trkpt>
      <trkpt lat="46.09978" lon="4.76099">
        <ele>172.80000305176</ele>
        <time>2024-05-20T11:56:21.000Z</time>
      </trkpt>
      <trkpt lat="46.09973" lon="4.76094">
        <ele>172.80000305176</ele>
        <time>2024-05-20T11:56:22.000Z</time>
      </trkpt>
      <trkpt lat="46.09968" lon="4.76087">
        <ele>173</ele>
        <time>2024-05-20T11:56:23.000Z</time>
      </trkpt>
      <trkpt lat="46.09963" lon="4.76082">
        <ele>173.19999694824</ele>
        <time>2024-05-20T11:56:24.000Z</time>
      </trkpt>
      <trkpt lat="46.09958" lon="4.76076">
        <ele>173.19999694824</ele>
        <time>2024-05-20T11:56:25.000Z</time>
      </trkpt>
      <trkpt lat="46.09953" lon="4.76071">
        <ele>173.19999694824</ele>
        <time>2024-05-20T11:56:26.000Z</time>
      </trkpt>
      <trkpt lat="46.09948" lon="4.76065">
        <ele>173.19999694824</ele>
        <time>2024-05-20T11:56:27.000Z</time>
      </trkpt>
      <trkpt lat="46.09943" lon="4.76059">
        <ele>173.19999694824</ele>
        <time>2024-05-20T11:56:28.000Z</time>
      </trkpt>
      <trkpt lat="46.09939" lon="4.76054">
        <ele>173.19999694824</ele>
        <time>2024-05-20T11:56:29.000Z</time>
      </trkpt>
      <trkpt lat="46.09935" lon="4.76048">
        <ele>173.19999694824</ele>
        <time>2024-05-20T11:56:30.000Z</time>
      </trkpt>
      <trkpt lat="46.09929" lon="4.76042">
        <ele>173</ele>
        <time>2024-05-20T11:56:31.000Z</time>
      </trkpt>
      <trkpt lat="46.09923" lon="4.76036">
        <ele>173</ele>
        <time>2024-05-20T11:56:32.000Z</time>
      </trkpt>
      <trkpt lat="46.09917" lon="4.76029">
        <ele>173.19999694824</ele>
        <time>2024-05-20T11:56:33.000Z</time>
      </trkpt>
      <trkpt lat="46.09912" lon="4.76023">
        <ele>173.19999694824</ele>
        <time>2024-05-20T11:56:34.000Z</time>
      </trkpt>
      <trkpt lat="46.09907" lon="4.76017">
        <ele>173.19999694824</ele>
        <time>2024-05-20T11:56:35.000Z</time>
      </trkpt>
      <trkpt lat="46.09902" lon="4.76011">
        <ele>173.39999389648</ele>
        <time>2024-05-20T11:56:36.000Z</time>
      </trkpt>
      <trkpt lat="46.09897" lon="4.76005">
        <ele>173.39999389648</ele>
        <time>2024-05-20T11:56:37.000Z</time>
      </trkpt>
      <trkpt lat="46.09891" lon="4.75999">
        <ele>173.39999389648</ele>
        <time>2024-05-20T11:56:38.000Z</time>
      </trkpt>
      <trkpt lat="46.09886" lon="4.75993">
        <ele>173.39999389648</ele>
        <time>2024-05-20T11:56:39.000Z</time>
      </trkpt>
      <trkpt lat="46.09881" lon="4.75987">
        <ele>173.39999389648</ele>
        <time>2024-05-20T11:56:40.000Z</time>
      </trkpt>
      <trkpt lat="46.09875" lon="4.75981">
        <ele>173.19999694824</ele>
        <time>2024-05-20T11:56:41.000Z</time>
      </trkpt>
      <trkpt lat="46.0987" lon="4.75975">
        <ele>173.19999694824</ele>
        <time>2024-05-20T11:56:42.000Z</time>
      </trkpt>
      <trkpt lat="46.09865" lon="4.75969">
        <ele>173.19999694824</ele>
        <time>2024-05-20T11:56:43.000Z</time>
      </trkpt>
      <trkpt lat="46.0986" lon="4.75963">
        <ele>173.19999694824</ele>
        <time>2024-05-20T11:56:44.000Z</time>
      </trkpt>
      <trkpt lat="46.09855" lon="4.75958">
        <ele>173.19999694824</ele>
        <time>2024-05-20T11:56:45.000Z</time>
      </trkpt>
      <trkpt lat="46.0985" lon="4.75953">
        <ele>173.19999694824</ele>
        <time>2024-05-20T11:56:46.000Z</time>
      </trkpt>
      <trkpt lat="46.09845" lon="4.75947">
        <ele>173.19999694824</ele>
        <time>2024-05-20T11:56:47.000Z</time>
      </trkpt>
      <trkpt lat="46.09841" lon="4.75942">
        <ele>173.19999694824</ele>
        <time>2024-05-20T11:56:48.000Z</time>
      </trkpt>
      <trkpt lat="46.09836" lon="4.75936">
        <ele>173.19999694824</ele>
        <time>2024-05-20T11:56:49.000Z</time>
      </trkpt>
      <trkpt lat="46.09832" lon="4.7593">
        <ele>173.19999694824</ele>
        <time>2024-05-20T11:56:50.000Z</time>
      </trkpt>
      <trkpt lat="46.09827" lon="4.75924">
        <ele>173.19999694824</ele>
        <time>2024-05-20T11:56:51.000Z</time>
      </trkpt>
      <trkpt lat="46.09822" lon="4.75918">
        <ele>173.19999694824</ele>
        <time>2024-05-20T11:56:52.000Z</time>
      </trkpt>
      <trkpt lat="46.09817" lon="4.75913">
        <ele>173</ele>
        <time>2024-05-20T11:56:53.000Z</time>
      </trkpt>
      <trkpt lat="46.09812" lon="4.75907">
        <ele>173</ele>
        <time>2024-05-20T11:56:54.000Z</time>
      </trkpt>
      <trkpt lat="46.09806" lon="4.75901">
        <ele>173</ele>
        <time>2024-05-20T11:56:55.000Z</time>
      </trkpt>
      <trkpt lat="46.09799" lon="4.75895">
        <ele>173</ele>
        <time>2024-05-20T11:56:56.000Z</time>
      </trkpt>
      <trkpt lat="46.09794" lon="4.7589">
        <ele>173</ele>
        <time>2024-05-20T11:56:57.000Z</time>
      </trkpt>
      <trkpt lat="46.09789" lon="4.75885">
        <ele>173</ele>
        <time>2024-05-20T11:56:58.000Z</time>
      </trkpt>
      <trkpt lat="46.09784" lon="4.7588">
        <ele>173</ele>
        <time>2024-05-20T11:56:59.000Z</time>
      </trkpt>
      <trkpt lat="46.0978" lon="4.75875">
        <ele>173</ele>
        <time>2024-05-20T11:57:00.000Z</time>
      </trkpt>
      <trkpt lat="46.09774" lon="4.75869">
        <ele>172.80000305176</ele>
        <time>2024-05-20T11:57:01.000Z</time>
      </trkpt>
      <trkpt lat="46.09768" lon="4.75865">
        <ele>173</ele>
        <time>2024-05-20T11:57:02.000Z</time>
      </trkpt>
      <trkpt lat="46.09763" lon="4.75861">
        <ele>173</ele>
        <time>2024-05-20T11:57:03.000Z</time>
      </trkpt>
      <trkpt lat="46.09758" lon="4.75856">
        <ele>173</ele>
        <time>2024-05-20T11:57:04.000Z</time>
      </trkpt>
      <trkpt lat="46.09754" lon="4.75851">
        <ele>172.80000305176</ele>
        <time>2024-05-20T11:57:05.000Z</time>
      </trkpt>
      <trkpt lat="46.09749" lon="4.75845">
        <ele>173</ele>
        <time>2024-05-20T11:57:06.000Z</time>
      </trkpt>
      <trkpt lat="46.09744" lon="4.7584">
        <ele>173</ele>
        <time>2024-05-20T11:57:07.000Z</time>
      </trkpt>
      <trkpt lat="46.09739" lon="4.75835">
        <ele>173</ele>
        <time>2024-05-20T11:57:08.000Z</time>
      </trkpt>
      <trkpt lat="46.09735" lon="4.75831">
        <ele>173</ele>
        <time>2024-05-20T11:57:09.000Z</time>
      </trkpt>
      <trkpt lat="46.0973" lon="4.75826">
        <ele>172.80000305176</ele>
        <time>2024-05-20T11:57:10.000Z</time>
      </trkpt>
      <trkpt lat="46.09725" lon="4.75822">
        <ele>172.80000305176</ele>
        <time>2024-05-20T11:57:11.000Z</time>
      </trkpt>
      <trkpt lat="46.0972" lon="4.75817">
        <ele>172.80000305176</ele>
        <time>2024-05-20T11:57:12.000Z</time>
      </trkpt>
      <trkpt lat="46.09714" lon="4.75812">
        <ele>172.39999389648</ele>
        <time>2024-05-20T11:57:13.000Z</time>
      </trkpt>
      <trkpt lat="46.09709" lon="4.75807">
        <ele>172.19999694824</ele>
        <time>2024-05-20T11:57:14.000Z</time>
      </trkpt>
      <trkpt lat="46.09703" lon="4.75801">
        <ele>172.19999694824</ele>
        <time>2024-05-20T11:57:15.000Z</time>
      </trkpt>
      <trkpt lat="46.09698" lon="4.75796">
        <ele>172.19999694824</ele>
        <time>2024-05-20T11:57:16.000Z</time>
      </trkpt>
      <trkpt lat="46.09692" lon="4.75791">
        <ele>172.19999694824</ele>
        <time>2024-05-20T11:57:17.000Z</time>
      </trkpt>
      <trkpt lat="46.09686" lon="4.75786">
        <ele>172.39999389648</ele>
        <time>2024-05-20T11:57:18.000Z</time>
      </trkpt>
      <trkpt lat="46.09681" lon="4.75782">
        <ele>172.39999389648</ele>
        <time>2024-05-20T11:57:19.000Z</time>
      </trkpt>
      <trkpt lat="46.09675" lon="4.75777">
        <ele>172.39999389648</ele>
        <time>2024-05-20T11:57:20.000Z</time>
      </trkpt>
      <trkpt lat="46.0967" lon="4.75773">
        <ele>172.60000610352</ele>
        <time>2024-05-20T11:57:21.000Z</time>
      </trkpt>
      <trkpt lat="46.09664" lon="4.75768">
        <ele>172.60000610352</ele>
        <time>2024-05-20T11:57:22.000Z</time>
      </trkpt>
      <trkpt lat="46.09658" lon="4.75764">
        <ele>172.60000610352</ele>
        <time>2024-05-20T11:57:23.000Z</time>
      </trkpt>
      <trkpt lat="46.09652" lon="4.7576">
        <ele>172.60000610352</ele>
        <time>2024-05-20T11:57:24.000Z</time>
      </trkpt>
      <trkpt lat="46.09647" lon="4.75756">
        <ele>172.60000610352</ele>
        <time>2024-05-20T11:57:25.000Z</time>
      </trkpt>
      <trkpt lat="46.09641" lon="4.75751">
        <ele>172.60000610352</ele>
        <time>2024-05-20T11:57:26.000Z</time>
      </trkpt>
      <trkpt lat="46.09636" lon="4.75747">
        <ele>172.60000610352</ele>
        <time>2024-05-20T11:57:27.000Z</time>
      </trkpt>
      <trkpt lat="46.0963" lon="4.75743">
        <ele>172.60000610352</ele>
        <time>2024-05-20T11:57:28.000Z</time>
      </trkpt>
      <trkpt lat="46.09624" lon="4.75739">
        <ele>172.60000610352</ele>
        <time>2024-05-20T11:57:29.000Z</time>
      </trkpt>
      <trkpt lat="46.09619" lon="4.75735">
        <ele>172.80000305176</ele>
        <time>2024-05-20T11:57:30.000Z</time>
      </trkpt>
      <trkpt lat="46.09613" lon="4.75731">
        <ele>172.80000305176</ele>
        <time>2024-05-20T11:57:31.000Z</time>
      </trkpt>
      <trkpt lat="46.09607" lon="4.75727">
        <ele>172.80000305176</ele>
        <time>2024-05-20T11:57:32.000Z</time>
      </trkpt>
      <trkpt lat="46.09601" lon="4.75723">
        <ele>172.80000305176</ele>
        <time>2024-05-20T11:57:33.000Z</time>
      </trkpt>
      <trkpt lat="46.09595" lon="4.75719">
        <ele>172.80000305176</ele>
        <time>2024-05-20T11:57:34.000Z</time>
      </trkpt>
      <trkpt lat="46.0959" lon="4.75716">
        <ele>172.80000305176</ele>
        <time>2024-05-20T11:57:35.000Z</time>
      </trkpt>
      <trkpt lat="46.09584" lon="4.75712">
        <ele>172.80000305176</ele>
        <time>2024-05-20T11:57:36.000Z</time>
      </trkpt>
      <trkpt lat="46.09578" lon="4.75708">
        <ele>172.80000305176</ele>
        <time>2024-05-20T11:57:37.000Z</time>
      </trkpt>
      <trkpt lat="46.09572" lon="4.75705">
        <ele>172.80000305176</ele>
        <time>2024-05-20T11:57:38.000Z</time>
      </trkpt>
      <trkpt lat="46.09566" lon="4.75701">
        <ele>172.80000305176</ele>
        <time>2024-05-20T11:57:39.000Z</time>
      </trkpt>
      <trkpt lat="46.09561" lon="4.75698">
        <ele>172.80000305176</ele>
        <time>2024-05-20T11:57:40.000Z</time>
      </trkpt>
      <trkpt lat="46.09555" lon="4.75694">
        <ele>172.80000305176</ele>
        <time>2024-05-20T11:57:41.000Z</time>
      </trkpt>
      <trkpt lat="46.09549" lon="4.75691">
        <ele>172.80000305176</ele>
        <time>2024-05-20T11:57:42.000Z</time>
      </trkpt>
      <trkpt lat="46.09543" lon="4.75688">
        <ele>172.80000305176</ele>
        <time>2024-05-20T11:57:43.000Z</time>
      </trkpt>
      <trkpt lat="46.09536" lon="4.75684">
        <ele>172.80000305176</ele>
        <time>2024-05-20T11:57:44.000Z</time>
      </trkpt>
      <trkpt lat="46.0953" lon="4.75681">
        <ele>172.80000305176</ele>
        <time>2024-05-20T11:57:45.000Z</time>
      </trkpt>
      <trkpt lat="46.09524" lon="4.75678">
        <ele>172.80000305176</ele>
        <time>2024-05-20T11:57:46.000Z</time>
      </trkpt>
      <trkpt lat="46.09519" lon="4.75674">
        <ele>172.80000305176</ele>
        <time>2024-05-20T11:57:47.000Z</time>
      </trkpt>
      <trkpt lat="46.09513" lon="4.75671">
        <ele>172.60000610352</ele>
        <time>2024-05-20T11:57:48.000Z</time>
      </trkpt>
      <trkpt lat="46.09507" lon="4.75668">
        <ele>172.60000610352</ele>
        <time>2024-05-20T11:57:49.000Z</time>
      </trkpt>
      <trkpt lat="46.09501" lon="4.75665">
        <ele>172.60000610352</ele>
        <time>2024-05-20T11:57:50.000Z</time>
      </trkpt>
      <trkpt lat="46.09496" lon="4.75662">
        <ele>172.60000610352</ele>
        <time>2024-05-20T11:57:51.000Z</time>
      </trkpt>
      <trkpt lat="46.0949" lon="4.75659">
        <ele>172.60000610352</ele>
        <time>2024-05-20T11:57:52.000Z</time>
      </trkpt>
      <trkpt lat="46.09484" lon="4.75656">
        <ele>172.39999389648</ele>
        <time>2024-05-20T11:57:53.000Z</time>
      </trkpt>
      <trkpt lat="46.09479" lon="4.75653">
        <ele>172.39999389648</ele>
        <time>2024-05-20T11:57:54.000Z</time>
      </trkpt>
      <trkpt lat="46.09473" lon="4.7565">
        <ele>172.39999389648</ele>
        <time>2024-05-20T11:57:55.000Z</time>
      </trkpt>
      <trkpt lat="46.09468" lon="4.75647">
        <ele>172.19999694824</ele>
        <time>2024-05-20T11:57:56.000Z</time>
      </trkpt>
      <trkpt lat="46.09463" lon="4.75643">
        <ele>172.19999694824</ele>
        <time>2024-05-20T11:57:57.000Z</time>
      </trkpt>
      <trkpt lat="46.09457" lon="4.7564">
        <ele>172.19999694824</ele>
        <time>2024-05-20T11:57:58.000Z</time>
      </trkpt>
      <trkpt lat="46.09451" lon="4.75637">
        <ele>172.19999694824</ele>
        <time>2024-05-20T11:57:59.000Z</time>
      </trkpt>
      <trkpt lat="46.09446" lon="4.75634">
        <ele>172.19999694824</ele>
        <time>2024-05-20T11:58:00.000Z</time>
      </trkpt>
      <trkpt lat="46.0944" lon="4.7563">
        <ele>172.19999694824</ele>
        <time>2024-05-20T11:58:01.000Z</time>
      </trkpt>
      <trkpt lat="46.09435" lon="4.75627">
        <ele>172.19999694824</ele>
        <time>2024-05-20T11:58:02.000Z</time>
      </trkpt>
      <trkpt lat="46.09429" lon="4.75624">
        <ele>172.19999694824</ele>
        <time>2024-05-20T11:58:03.000Z</time>
      </trkpt>
      <trkpt lat="46.09424" lon="4.75621">
        <ele>172.19999694824</ele>
        <time>2024-05-20T11:58:04.000Z</time>
      </trkpt>
      <trkpt lat="46.09418" lon="4.75618">
        <ele>172.39999389648</ele>
        <time>2024-05-20T11:58:05.000Z</time>
      </trkpt>
      <trkpt lat="46.09412" lon="4.75614">
        <ele>172.39999389648</ele>
        <time>2024-05-20T11:58:06.000Z</time>
      </trkpt>
      <trkpt lat="46.09407" lon="4.75611">
        <ele>172.39999389648</ele>
        <time>2024-05-20T11:58:07.000Z</time>
      </trkpt>
      <trkpt lat="46.09401" lon="4.75609">
        <ele>172.39999389648</ele>
        <time>2024-05-20T11:58:08.000Z</time>
      </trkpt>
      <trkpt lat="46.09396" lon="4.75606">
        <ele>172.39999389648</ele>
        <time>2024-05-20T11:58:09.000Z</time>
      </trkpt>
      <trkpt lat="46.0939" lon="4.75602">
        <ele>172.39999389648</ele>
        <time>2024-05-20T11:58:10.000Z</time>
      </trkpt>
      <trkpt lat="46.09384" lon="4.75599">
        <ele>172.39999389648</ele>
        <time>2024-05-20T11:58:11.000Z</time>
      </trkpt>
      <trkpt lat="46.09378" lon="4.75596">
        <ele>172.39999389648</ele>
        <time>2024-05-20T11:58:12.000Z</time>
      </trkpt>
      <trkpt lat="46.09373" lon="4.75593">
        <ele>172.60000610352</ele>
        <time>2024-05-20T11:58:13.000Z</time>
      </trkpt>
      <trkpt lat="46.09367" lon="4.7559">
        <ele>172.60000610352</ele>
        <time>2024-05-20T11:58:14.000Z</time>
      </trkpt>
      <trkpt lat="46.09361" lon="4.75587">
        <ele>172.60000610352</ele>
        <time>2024-05-20T11:58:15.000Z</time>
      </trkpt>
      <trkpt lat="46.09355" lon="4.75584">
        <ele>172.80000305176</ele>
        <time>2024-05-20T11:58:16.000Z</time>
      </trkpt>
      <trkpt lat="46.0935" lon="4.75581">
        <ele>172.80000305176</ele>
        <time>2024-05-20T11:58:17.000Z</time>
      </trkpt>
      <trkpt lat="46.09344" lon="4.75577">
        <ele>173</ele>
        <time>2024-05-20T11:58:18.000Z</time>
      </trkpt>
      <trkpt lat="46.09338" lon="4.75574">
        <ele>173</ele>
        <time>2024-05-20T11:58:19.000Z</time>
      </trkpt>
      <trkpt lat="46.09332" lon="4.75572">
        <ele>173</ele>
        <time>2024-05-20T11:58:20.000Z</time>
      </trkpt>
      <trkpt lat="46.09326" lon="4.75569">
        <ele>173.19999694824</ele>
        <time>2024-05-20T11:58:21.000Z</time>
      </trkpt>
      <trkpt lat="46.0932" lon="4.75566">
        <ele>173.19999694824</ele>
        <time>2024-05-20T11:58:22.000Z</time>
      </trkpt>
      <trkpt lat="46.09314" lon="4.75563">
        <ele>173.19999694824</ele>
        <time>2024-05-20T11:58:23.000Z</time>
      </trkpt>
      <trkpt lat="46.09308" lon="4.7556">
        <ele>173.19999694824</ele>
        <time>2024-05-20T11:58:24.000Z</time>
      </trkpt>
      <trkpt lat="46.09302" lon="4.75557">
        <ele>173.19999694824</ele>
        <time>2024-05-20T11:58:25.000Z</time>
      </trkpt>
      <trkpt lat="46.09296" lon="4.75555">
        <ele>173.39999389648</ele>
        <time>2024-05-20T11:58:26.000Z</time>
      </trkpt>
      <trkpt lat="46.0929" lon="4.75552">
        <ele>173.39999389648</ele>
        <time>2024-05-20T11:58:27.000Z</time>
      </trkpt>
      <trkpt lat="46.09284" lon="4.75549">
        <ele>173.39999389648</ele>
        <time>2024-05-20T11:58:28.000Z</time>
      </trkpt>
      <trkpt lat="46.09278" lon="4.75547">
        <ele>173.39999389648</ele>
        <time>2024-05-20T11:58:29.000Z</time>
      </trkpt>
      <trkpt lat="46.09272" lon="4.75544">
        <ele>173.39999389648</ele>
        <time>2024-05-20T11:58:30.000Z</time>
      </trkpt>
      <trkpt lat="46.09266" lon="4.75541">
        <ele>173.39999389648</ele>
        <time>2024-05-20T11:58:31.000Z</time>
      </trkpt>
      <trkpt lat="46.09259" lon="4.75539">
        <ele>173.39999389648</ele>
        <time>2024-05-20T11:58:32.000Z</time>
      </trkpt>
      <trkpt lat="46.09253" lon="4.75536">
        <ele>173.39999389648</ele>
        <time>2024-05-20T11:58:33.000Z</time>
      </trkpt>
      <trkpt lat="46.09247" lon="4.75534">
        <ele>173.39999389648</ele>
        <time>2024-05-20T11:58:34.000Z</time>
      </trkpt>
      <trkpt lat="46.0924" lon="4.75532">
        <ele>173.39999389648</ele>
        <time>2024-05-20T11:58:35.000Z</time>
      </trkpt>
      <trkpt lat="46.09234" lon="4.75529">
        <ele>173.39999389648</ele>
        <time>2024-05-20T11:58:36.000Z</time>
      </trkpt>
      <trkpt lat="46.09228" lon="4.75526">
        <ele>173.39999389648</ele>
        <time>2024-05-20T11:58:37.000Z</time>
      </trkpt>
      <trkpt lat="46.09222" lon="4.75524">
        <ele>173.39999389648</ele>
        <time>2024-05-20T11:58:38.000Z</time>
      </trkpt>
      <trkpt lat="46.09215" lon="4.75521">
        <ele>173.39999389648</ele>
        <time>2024-05-20T11:58:39.000Z</time>
      </trkpt>
      <trkpt lat="46.09209" lon="4.75518">
        <ele>173.39999389648</ele>
        <time>2024-05-20T11:58:40.000Z</time>
      </trkpt>
      <trkpt lat="46.09203" lon="4.75516">
        <ele>173.39999389648</ele>
        <time>2024-05-20T11:58:41.000Z</time>
      </trkpt>
      <trkpt lat="46.09197" lon="4.75513">
        <ele>173.39999389648</ele>
        <time>2024-05-20T11:58:42.000Z</time>
      </trkpt>
      <trkpt lat="46.09192" lon="4.7551">
        <ele>173.19999694824</ele>
        <time>2024-05-20T11:58:43.000Z</time>
      </trkpt>
      <trkpt lat="46.09186" lon="4.75507">
        <ele>173.19999694824</ele>
        <time>2024-05-20T11:58:44.000Z</time>
      </trkpt>
      <trkpt lat="46.0918" lon="4.75504">
        <ele>173.19999694824</ele>
        <time>2024-05-20T11:58:45.000Z</time>
      </trkpt>
      <trkpt lat="46.09174" lon="4.75502">
        <ele>173</ele>
        <time>2024-05-20T11:58:46.000Z</time>
      </trkpt>
      <trkpt lat="46.09168" lon="4.75499">
        <ele>173</ele>
        <time>2024-05-20T11:58:47.000Z</time>
      </trkpt>
      <trkpt lat="46.09162" lon="4.75496">
        <ele>173.19999694824</ele>
        <time>2024-05-20T11:58:48.000Z</time>
      </trkpt>
      <trkpt lat="46.09155" lon="4.75494">
        <ele>173.19999694824</ele>
        <time>2024-05-20T11:58:49.000Z</time>
      </trkpt>
      <trkpt lat="46.09149" lon="4.75492">
        <ele>173.19999694824</ele>
        <time>2024-05-20T11:58:50.000Z</time>
      </trkpt>
      <trkpt lat="46.09143" lon="4.7549">
        <ele>173.19999694824</ele>
        <time>2024-05-20T11:58:51.000Z</time>
      </trkpt>
      <trkpt lat="46.09137" lon="4.75488">
        <ele>173.39999389648</ele>
        <time>2024-05-20T11:58:52.000Z</time>
      </trkpt>
      <trkpt lat="46.09131" lon="4.75485">
        <ele>173.39999389648</ele>
        <time>2024-05-20T11:58:53.000Z</time>
      </trkpt>
      <trkpt lat="46.09125" lon="4.75483">
        <ele>173.39999389648</ele>
        <time>2024-05-20T11:58:54.000Z</time>
      </trkpt>
      <trkpt lat="46.09119" lon="4.75481">
        <ele>173.39999389648</ele>
        <time>2024-05-20T11:58:55.000Z</time>
      </trkpt>
      <trkpt lat="46.09112" lon="4.75478">
        <ele>173.39999389648</ele>
        <time>2024-05-20T11:58:56.000Z</time>
      </trkpt>
      <trkpt lat="46.09106" lon="4.75476">
        <ele>173.39999389648</ele>
        <time>2024-05-20T11:58:57.000Z</time>
      </trkpt>
      <trkpt lat="46.091" lon="4.75473">
        <ele>173.39999389648</ele>
        <time>2024-05-20T11:58:58.000Z</time>
      </trkpt>
      <trkpt lat="46.09094" lon="4.75471">
        <ele>173.39999389648</ele>
        <time>2024-05-20T11:58:59.000Z</time>
      </trkpt>
      <trkpt lat="46.09088" lon="4.75469">
        <ele>173.39999389648</ele>
        <time>2024-05-20T11:59:00.000Z</time>
      </trkpt>
      <trkpt lat="46.09081" lon="4.75467">
        <ele>173.39999389648</ele>
        <time>2024-05-20T11:59:01.000Z</time>
      </trkpt>
      <trkpt lat="46.09075" lon="4.75465">
        <ele>173.39999389648</ele>
        <time>2024-05-20T11:59:02.000Z</time>
      </trkpt>
      <trkpt lat="46.09069" lon="4.75462">
        <ele>173.39999389648</ele>
        <time>2024-05-20T11:59:03.000Z</time>
      </trkpt>
      <trkpt lat="46.09063" lon="4.75459">
        <ele>173.39999389648</ele>
        <time>2024-05-20T11:59:04.000Z</time>
      </trkpt>
      <trkpt lat="46.09057" lon="4.75457">
        <ele>173.39999389648</ele>
        <time>2024-05-20T11:59:05.000Z</time>
      </trkpt>
      <trkpt lat="46.09051" lon="4.75454">
        <ele>173.19999694824</ele>
        <time>2024-05-20T11:59:06.000Z</time>
      </trkpt>
      <trkpt lat="46.09045" lon="4.75451">
        <ele>173.19999694824</ele>
        <time>2024-05-20T11:59:07.000Z</time>
      </trkpt>
      <trkpt lat="46.09039" lon="4.75449">
        <ele>173.19999694824</ele>
        <time>2024-05-20T11:59:08.000Z</time>
      </trkpt>
      <trkpt lat="46.09033" lon="4.75447">
        <ele>173.19999694824</ele>
        <time>2024-05-20T11:59:09.000Z</time>
      </trkpt>
      <trkpt lat="46.09027" lon="4.75445">
        <ele>173.19999694824</ele>
        <time>2024-05-20T11:59:10.000Z</time>
      </trkpt>
      <trkpt lat="46.0902" lon="4.75442">
        <ele>173.19999694824</ele>
        <time>2024-05-20T11:59:11.000Z</time>
      </trkpt>
      <trkpt lat="46.09014" lon="4.7544">
        <ele>173.19999694824</ele>
        <time>2024-05-20T11:59:12.000Z</time>
      </trkpt>
      <trkpt lat="46.09008" lon="4.75438">
        <ele>173.19999694824</ele>
        <time>2024-05-20T11:59:13.000Z</time>
      </trkpt>
      <trkpt lat="46.09002" lon="4.75436">
        <ele>173.39999389648</ele>
        <time>2024-05-20T11:59:14.000Z</time>
      </trkpt>
      <trkpt lat="46.08996" lon="4.75434">
        <ele>173.39999389648</ele>
        <time>2024-05-20T11:59:15.000Z</time>
      </trkpt>
      <trkpt lat="46.0899" lon="4.75432">
        <ele>173.39999389648</ele>
        <time>2024-05-20T11:59:16.000Z</time>
      </trkpt>
      <trkpt lat="46.08984" lon="4.75429">
        <ele>173.39999389648</ele>
        <time>2024-05-20T11:59:17.000Z</time>
      </trkpt>
      <trkpt lat="46.08978" lon="4.75427">
        <ele>173.39999389648</ele>
        <time>2024-05-20T11:59:18.000Z</time>
      </trkpt>
      <trkpt lat="46.08971" lon="4.75425">
        <ele>173.39999389648</ele>
        <time>2024-05-20T11:59:19.000Z</time>
      </trkpt>
      <trkpt lat="46.08965" lon="4.75422">
        <ele>173.39999389648</ele>
        <time>2024-05-20T11:59:20.000Z</time>
      </trkpt>
      <trkpt lat="46.08959" lon="4.75419">
        <ele>173.39999389648</ele>
        <time>2024-05-20T11:59:21.000Z</time>
      </trkpt>
      <trkpt lat="46.08953" lon="4.75416">
        <ele>173.60000610352</ele>
        <time>2024-05-20T11:59:22.000Z</time>
      </trkpt>
      <trkpt lat="46.08947" lon="4.75414">
        <ele>173.60000610352</ele>
        <time>2024-05-20T11:59:23.000Z</time>
      </trkpt>
      <trkpt lat="46.08941" lon="4.75411">
        <ele>173.60000610352</ele>
        <time>2024-05-20T11:59:24.000Z</time>
      </trkpt>
      <trkpt lat="46.08935" lon="4.75408">
        <ele>173.60000610352</ele>
        <time>2024-05-20T11:59:25.000Z</time>
      </trkpt>
      <trkpt lat="46.08929" lon="4.75406">
        <ele>173.60000610352</ele>
        <time>2024-05-20T11:59:26.000Z</time>
      </trkpt>
      <trkpt lat="46.08923" lon="4.75402">
        <ele>173.60000610352</ele>
        <time>2024-05-20T11:59:27.000Z</time>
      </trkpt>
      <trkpt lat="46.08917" lon="4.75399">
        <ele>173.60000610352</ele>
        <time>2024-05-20T11:59:28.000Z</time>
      </trkpt>
      <trkpt lat="46.08911" lon="4.75396">
        <ele>173.60000610352</ele>
        <time>2024-05-20T11:59:29.000Z</time>
      </trkpt>
      <trkpt lat="46.08905" lon="4.75393">
        <ele>173.60000610352</ele>
        <time>2024-05-20T11:59:30.000Z</time>
      </trkpt>
      <trkpt lat="46.08899" lon="4.7539">
        <ele>173.60000610352</ele>
        <time>2024-05-20T11:59:31.000Z</time>
      </trkpt>
      <trkpt lat="46.08893" lon="4.75387">
        <ele>173.60000610352</ele>
        <time>2024-05-20T11:59:32.000Z</time>
      </trkpt>
      <trkpt lat="46.08888" lon="4.75384">
        <ele>173.60000610352</ele>
        <time>2024-05-20T11:59:33.000Z</time>
      </trkpt>
      <trkpt lat="46.08883" lon="4.75382">
        <ele>173.60000610352</ele>
        <time>2024-05-20T11:59:34.000Z</time>
      </trkpt>
      <trkpt lat="46.08877" lon="4.75379">
        <ele>173.60000610352</ele>
        <time>2024-05-20T11:59:35.000Z</time>
      </trkpt>
      <trkpt lat="46.08872" lon="4.75377">
        <ele>173.39999389648</ele>
        <time>2024-05-20T11:59:36.000Z</time>
      </trkpt>
      <trkpt lat="46.08866" lon="4.75374">
        <ele>173.39999389648</ele>
        <time>2024-05-20T11:59:37.000Z</time>
      </trkpt>
      <trkpt lat="46.08861" lon="4.75372">
        <ele>173.39999389648</ele>
        <time>2024-05-20T11:59:38.000Z</time>
      </trkpt>
      <trkpt lat="46.08855" lon="4.75369">
        <ele>173.39999389648</ele>
        <time>2024-05-20T11:59:39.000Z</time>
      </trkpt>
      <trkpt lat="46.08849" lon="4.75367">
        <ele>173.39999389648</ele>
        <time>2024-05-20T11:59:40.000Z</time>
      </trkpt>
      <trkpt lat="46.08843" lon="4.75365">
        <ele>173.39999389648</ele>
        <time>2024-05-20T11:59:41.000Z</time>
      </trkpt>
      <trkpt lat="46.08837" lon="4.75363">
        <ele>173.39999389648</ele>
        <time>2024-05-20T11:59:42.000Z</time>
      </trkpt>
      <trkpt lat="46.08831" lon="4.75361">
        <ele>173.39999389648</ele>
        <time>2024-05-20T11:59:43.000Z</time>
      </trkpt>
      <trkpt lat="46.08825" lon="4.75359">
        <ele>173.60000610352</ele>
        <time>2024-05-20T11:59:44.000Z</time>
      </trkpt>
      <trkpt lat="46.08819" lon="4.75357">
        <ele>173.60000610352</ele>
        <time>2024-05-20T11:59:45.000Z</time>
      </trkpt>
      <trkpt lat="46.08812" lon="4.75355">
        <ele>173.60000610352</ele>
        <time>2024-05-20T11:59:46.000Z</time>
      </trkpt>
      <trkpt lat="46.08806" lon="4.75354">
        <ele>173.60000610352</ele>
        <time>2024-05-20T11:59:47.000Z</time>
      </trkpt>
      <trkpt lat="46.088" lon="4.75352">
        <ele>173.60000610352</ele>
        <time>2024-05-20T11:59:48.000Z</time>
      </trkpt>
      <trkpt lat="46.08794" lon="4.7535">
        <ele>173.60000610352</ele>
        <time>2024-05-20T11:59:49.000Z</time>
      </trkpt>
      <trkpt lat="46.08788" lon="4.75348">
        <ele>173.60000610352</ele>
        <time>2024-05-20T11:59:50.000Z</time>
      </trkpt>
      <trkpt lat="46.08782" lon="4.75346">
        <ele>173.60000610352</ele>
        <time>2024-05-20T11:59:51.000Z</time>
      </trkpt>
      <trkpt lat="46.08776" lon="4.75344">
        <ele>173.60000610352</ele>
        <time>2024-05-20T11:59:52.000Z</time>
      </trkpt>
      <trkpt lat="46.0877" lon="4.75343">
        <ele>173.60000610352</ele>
        <time>2024-05-20T11:59:53.000Z</time>
      </trkpt>
      <trkpt lat="46.08764" lon="4.75342">
        <ele>173.39999389648</ele>
        <time>2024-05-20T11:59:54.000Z</time>
      </trkpt>
      <trkpt lat="46.08759" lon="4.7534">
        <ele>173.39999389648</ele>
        <time>2024-05-20T11:59:55.000Z</time>
      </trkpt>
      <trkpt lat="46.08753" lon="4.75339">
        <ele>173.39999389648</ele>
        <time>2024-05-20T11:59:56.000Z</time>
      </trkpt>
      <trkpt lat="46.08747" lon="4.75337">
        <ele>173.39999389648</ele>
        <time>2024-05-20T11:59:57.000Z</time>
      </trkpt>
      <trkpt lat="46.0874" lon="4.75335">
        <ele>173.60000610352</ele>
        <time>2024-05-20T11:59:58.000Z</time>
      </trkpt>
      <trkpt lat="46.08734" lon="4.75332">
        <ele>173.60000610352</ele>
        <time>2024-05-20T11:59:59.000Z</time>
      </trkpt>
      <trkpt lat="46.08728" lon="4.7533">
        <ele>173.80000305176</ele>
        <time>2024-05-20T12:00:00.000Z</time>
      </trkpt>
      <trkpt lat="46.08722" lon="4.75328">
        <ele>173.80000305176</ele>
        <time>2024-05-20T12:00:01.000Z</time>
      </trkpt>
      <trkpt lat="46.08716" lon="4.75326">
        <ele>173.80000305176</ele>
        <time>2024-05-20T12:00:02.000Z</time>
      </trkpt>
      <trkpt lat="46.0871" lon="4.75324">
        <ele>173.80000305176</ele>
        <time>2024-05-20T12:00:03.000Z</time>
      </trkpt>
      <trkpt lat="46.08703" lon="4.75322">
        <ele>173.60000610352</ele>
        <time>2024-05-20T12:00:04.000Z</time>
      </trkpt>
      <trkpt lat="46.08697" lon="4.75321">
        <ele>173.60000610352</ele>
        <time>2024-05-20T12:00:05.000Z</time>
      </trkpt>
      <trkpt lat="46.08691" lon="4.7532">
        <ele>173.60000610352</ele>
        <time>2024-05-20T12:00:06.000Z</time>
      </trkpt>
      <trkpt lat="46.08685" lon="4.75318">
        <ele>173.60000610352</ele>
        <time>2024-05-20T12:00:07.000Z</time>
      </trkpt>
      <trkpt lat="46.08679" lon="4.75317">
        <ele>173.60000610352</ele>
        <time>2024-05-20T12:00:08.000Z</time>
      </trkpt>
      <trkpt lat="46.08673" lon="4.75315">
        <ele>173.60000610352</ele>
        <time>2024-05-20T12:00:09.000Z</time>
      </trkpt>
      <trkpt lat="46.08666" lon="4.75314">
        <ele>173.60000610352</ele>
        <time>2024-05-20T12:00:10.000Z</time>
      </trkpt>
      <trkpt lat="46.0866" lon="4.75313">
        <ele>173.60000610352</ele>
        <time>2024-05-20T12:00:11.000Z</time>
      </trkpt>
      <trkpt lat="46.08654" lon="4.75312">
        <ele>173.60000610352</ele>
        <time>2024-05-20T12:00:12.000Z</time>
      </trkpt>
      <trkpt lat="46.08648" lon="4.7531">
        <ele>173.60000610352</ele>
        <time>2024-05-20T12:00:13.000Z</time>
      </trkpt>
      <trkpt lat="46.08641" lon="4.75309">
        <ele>173.60000610352</ele>
        <time>2024-05-20T12:00:14.000Z</time>
      </trkpt>
      <trkpt lat="46.08635" lon="4.75308">
        <ele>173.60000610352</ele>
        <time>2024-05-20T12:00:15.000Z</time>
      </trkpt>
      <trkpt lat="46.08629" lon="4.75307">
        <ele>173.60000610352</ele>
        <time>2024-05-20T12:00:16.000Z</time>
      </trkpt>
      <trkpt lat="46.08623" lon="4.75305">
        <ele>173.60000610352</ele>
        <time>2024-05-20T12:00:17.000Z</time>
      </trkpt>
      <trkpt lat="46.08617" lon="4.75304">
        <ele>173.80000305176</ele>
        <time>2024-05-20T12:00:18.000Z</time>
      </trkpt>
      <trkpt lat="46.08611" lon="4.75303">
        <ele>173.80000305176</ele>
        <time>2024-05-20T12:00:19.000Z</time>
      </trkpt>
      <trkpt lat="46.08606" lon="4.75303">
        <ele>173.60000610352</ele>
        <time>2024-05-20T12:00:20.000Z</time>
      </trkpt>
      <trkpt lat="46.08601" lon="4.75301">
        <ele>173.39999389648</ele>
        <time>2024-05-20T12:00:21.000Z</time>
      </trkpt>
      <trkpt lat="46.08595" lon="4.753">
        <ele>173.19999694824</ele>
        <time>2024-05-20T12:00:22.000Z</time>
      </trkpt>
      <trkpt lat="46.0859" lon="4.75299">
        <ele>173.19999694824</ele>
        <time>2024-05-20T12:00:23.000Z</time>
      </trkpt>
      <trkpt lat="46.08585" lon="4.75299">
        <ele>173.19999694824</ele>
        <time>2024-05-20T12:00:24.000Z</time>
      </trkpt>
      <trkpt lat="46.08579" lon="4.75299">
        <ele>173.19999694824</ele>
        <time>2024-05-20T12:00:25.000Z</time>
      </trkpt>
      <trkpt lat="46.08574" lon="4.75299">
        <ele>173.60000610352</ele>
        <time>2024-05-20T12:00:26.000Z</time>
      </trkpt>
      <trkpt lat="46.08568" lon="4.75298">
        <ele>173.60000610352</ele>
        <time>2024-05-20T12:00:27.000Z</time>
      </trkpt>
      <trkpt lat="46.08563" lon="4.75298">
        <ele>173.80000305176</ele>
        <time>2024-05-20T12:00:28.000Z</time>
      </trkpt>
      <trkpt lat="46.08557" lon="4.75297">
        <ele>174</ele>
        <time>2024-05-20T12:00:29.000Z</time>
      </trkpt>
      <trkpt lat="46.08552" lon="4.75297">
        <ele>174</ele>
        <time>2024-05-20T12:00:30.000Z</time>
      </trkpt>
      <trkpt lat="46.08547" lon="4.75296">
        <ele>174</ele>
        <time>2024-05-20T12:00:31.000Z</time>
      </trkpt>
      <trkpt lat="46.08541" lon="4.75296">
        <ele>174</ele>
        <time>2024-05-20T12:00:32.000Z</time>
      </trkpt>
      <trkpt lat="46.08536" lon="4.75296">
        <ele>173.80000305176</ele>
        <time>2024-05-20T12:00:33.000Z</time>
      </trkpt>
      <trkpt lat="46.08531" lon="4.75295">
        <ele>173.80000305176</ele>
        <time>2024-05-20T12:00:34.000Z</time>
      </trkpt>
      <trkpt lat="46.08526" lon="4.75295">
        <ele>173.80000305176</ele>
        <time>2024-05-20T12:00:35.000Z</time>
      </trkpt>
      <trkpt lat="46.0852" lon="4.75295">
        <ele>173.60000610352</ele>
        <time>2024-05-20T12:00:36.000Z</time>
      </trkpt>
      <trkpt lat="46.08515" lon="4.75294">
        <ele>173.60000610352</ele>
        <time>2024-05-20T12:00:37.000Z</time>
      </trkpt>
      <trkpt lat="46.08509" lon="4.75294">
        <ele>173.39999389648</ele>
        <time>2024-05-20T12:00:38.000Z</time>
      </trkpt>
      <trkpt lat="46.08504" lon="4.75294">
        <ele>173.39999389648</ele>
        <time>2024-05-20T12:00:39.000Z</time>
      </trkpt>
      <trkpt lat="46.08498" lon="4.75294">
        <ele>173.39999389648</ele>
        <time>2024-05-20T12:00:40.000Z</time>
      </trkpt>
      <trkpt lat="46.08492" lon="4.75295">
        <ele>173.39999389648</ele>
        <time>2024-05-20T12:00:41.000Z</time>
      </trkpt>
      <trkpt lat="46.08486" lon="4.75295">
        <ele>173.39999389648</ele>
        <time>2024-05-20T12:00:42.000Z</time>
      </trkpt>
      <trkpt lat="46.0848" lon="4.75295">
        <ele>173.39999389648</ele>
        <time>2024-05-20T12:00:43.000Z</time>
      </trkpt>
      <trkpt lat="46.08474" lon="4.75296">
        <ele>173.60000610352</ele>
        <time>2024-05-20T12:00:44.000Z</time>
      </trkpt>
      <trkpt lat="46.08468" lon="4.75296">
        <ele>173.60000610352</ele>
        <time>2024-05-20T12:00:45.000Z</time>
      </trkpt>
      <trkpt lat="46.08463" lon="4.75297">
        <ele>173.80000305176</ele>
        <time>2024-05-20T12:00:46.000Z</time>
      </trkpt>
      <trkpt lat="46.08457" lon="4.75298">
        <ele>173.80000305176</ele>
        <time>2024-05-20T12:00:47.000Z</time>
      </trkpt>
      <trkpt lat="46.08451" lon="4.75298">
        <ele>173.80000305176</ele>
        <time>2024-05-20T12:00:48.000Z</time>
      </trkpt>
      <trkpt lat="46.08445" lon="4.75298">
        <ele>173.80000305176</ele>
        <time>2024-05-20T12:00:49.000Z</time>
      </trkpt>
      <trkpt lat="46.08438" lon="4.75299">
        <ele>173.80000305176</ele>
        <time>2024-05-20T12:00:50.000Z</time>
      </trkpt>
      <trkpt lat="46.08432" lon="4.753">
        <ele>173.80000305176</ele>
        <time>2024-05-20T12:00:51.000Z</time>
      </trkpt>
      <trkpt lat="46.08426" lon="4.753">
        <ele>173.80000305176</ele>
        <time>2024-05-20T12:00:52.000Z</time>
      </trkpt>
      <trkpt lat="46.0842" lon="4.75301">
        <ele>173.80000305176</ele>
        <time>2024-05-20T12:00:53.000Z</time>
      </trkpt>
      <trkpt lat="46.08414" lon="4.75301">
        <ele>173.80000305176</ele>
        <time>2024-05-20T12:00:54.000Z</time>
      </trkpt>
      <trkpt lat="46.08408" lon="4.75302">
        <ele>173.80000305176</ele>
        <time>2024-05-20T12:00:55.000Z</time>
      </trkpt>
      <trkpt lat="46.08402" lon="4.75303">
        <ele>173.80000305176</ele>
        <time>2024-05-20T12:00:56.000Z</time>
      </trkpt>
      <trkpt lat="46.08395" lon="4.75303">
        <ele>174</ele>
        <time>2024-05-20T12:00:57.000Z</time>
      </trkpt>
      <trkpt lat="46.08389" lon="4.75304">
        <ele>174</ele>
        <time>2024-05-20T12:00:58.000Z</time>
      </trkpt>
      <trkpt lat="46.08383" lon="4.75304">
        <ele>174</ele>
        <time>2024-05-20T12:00:59.000Z</time>
      </trkpt>
      <trkpt lat="46.08377" lon="4.75305">
        <ele>174</ele>
        <time>2024-05-20T12:01:00.000Z</time>
      </trkpt>
      <trkpt lat="46.08371" lon="4.75305">
        <ele>173.80000305176</ele>
        <time>2024-05-20T12:01:01.000Z</time>
      </trkpt>
      <trkpt lat="46.08365" lon="4.75306">
        <ele>173.80000305176</ele>
        <time>2024-05-20T12:01:02.000Z</time>
      </trkpt>
      <trkpt lat="46.08359" lon="4.75306">
        <ele>173.80000305176</ele>
        <time>2024-05-20T12:01:03.000Z</time>
      </trkpt>
      <trkpt lat="46.08353" lon="4.75307">
        <ele>173.60000610352</ele>
        <time>2024-05-20T12:01:04.000Z</time>
      </trkpt>
      <trkpt lat="46.08346" lon="4.75308">
        <ele>173.60000610352</ele>
        <time>2024-05-20T12:01:05.000Z</time>
      </trkpt>
      <trkpt lat="46.0834" lon="4.75309">
        <ele>173.60000610352</ele>
        <time>2024-05-20T12:01:06.000Z</time>
      </trkpt>
      <trkpt lat="46.08334" lon="4.7531">
        <ele>173.60000610352</ele>
        <time>2024-05-20T12:01:07.000Z</time>
      </trkpt>
      <trkpt lat="46.08328" lon="4.75311">
        <ele>173.60000610352</ele>
        <time>2024-05-20T12:01:08.000Z</time>
      </trkpt>
      <trkpt lat="46.08322" lon="4.75312">
        <ele>173.80000305176</ele>
        <time>2024-05-20T12:01:09.000Z</time>
      </trkpt>
      <trkpt lat="46.08316" lon="4.75313">
        <ele>173.80000305176</ele>
        <time>2024-05-20T12:01:10.000Z</time>
      </trkpt>
      <trkpt lat="46.0831" lon="4.75315">
        <ele>173.80000305176</ele>
        <time>2024-05-20T12:01:11.000Z</time>
      </trkpt>
      <trkpt lat="46.08304" lon="4.75316">
        <ele>173.60000610352</ele>
        <time>2024-05-20T12:01:12.000Z</time>
      </trkpt>
      <trkpt lat="46.08298" lon="4.75318">
        <ele>173.60000610352</ele>
        <time>2024-05-20T12:01:13.000Z</time>
      </trkpt>
      <trkpt lat="46.08293" lon="4.7532">
        <ele>173.60000610352</ele>
        <time>2024-05-20T12:01:14.000Z</time>
      </trkpt>
      <trkpt lat="46.08287" lon="4.75322">
        <ele>173.60000610352</ele>
        <time>2024-05-20T12:01:15.000Z</time>
      </trkpt>
      <trkpt lat="46.08281" lon="4.75326">
        <ele>173.60000610352</ele>
        <time>2024-05-20T12:01:16.000Z</time>
      </trkpt>
      <trkpt lat="46.08276" lon="4.7533">
        <ele>173.60000610352</ele>
        <time>2024-05-20T12:01:17.000Z</time>
      </trkpt>
      <trkpt lat="46.08271" lon="4.75334">
        <ele>173.60000610352</ele>
        <time>2024-05-20T12:01:18.000Z</time>
      </trkpt>
      <trkpt lat="46.08266" lon="4.75339">
        <ele>173.60000610352</ele>
        <time>2024-05-20T12:01:19.000Z</time>
      </trkpt>
      <trkpt lat="46.08262" lon="4.75344">
        <ele>173.60000610352</ele>
        <time>2024-05-20T12:01:20.000Z</time>
      </trkpt>
      <trkpt lat="46.08257" lon="4.7535">
        <ele>173.60000610352</ele>
        <time>2024-05-20T12:01:21.000Z</time>
      </trkpt>
      <trkpt lat="46.08253" lon="4.75355">
        <ele>173.60000610352</ele>
        <time>2024-05-20T12:01:22.000Z</time>
      </trkpt>
      <trkpt lat="46.08249" lon="4.75361">
        <ele>173.60000610352</ele>
        <time>2024-05-20T12:01:23.000Z</time>
      </trkpt>
      <trkpt lat="46.08245" lon="4.75367">
        <ele>173.39999389648</ele>
        <time>2024-05-20T12:01:24.000Z</time>
      </trkpt>
      <trkpt lat="46.08241" lon="4.75373">
        <ele>173.39999389648</ele>
        <time>2024-05-20T12:01:25.000Z</time>
      </trkpt>
      <trkpt lat="46.08238" lon="4.75379">
        <ele>173.39999389648</ele>
        <time>2024-05-20T12:01:26.000Z</time>
      </trkpt>
      <trkpt lat="46.08234" lon="4.75385">
        <ele>173.39999389648</ele>
        <time>2024-05-20T12:01:27.000Z</time>
      </trkpt>
      <trkpt lat="46.0823" lon="4.75391">
        <ele>173.19999694824</ele>
        <time>2024-05-20T12:01:28.000Z</time>
      </trkpt>
      <trkpt lat="46.08227" lon="4.75397">
        <ele>173.19999694824</ele>
        <time>2024-05-20T12:01:29.000Z</time>
      </trkpt>
      <trkpt lat="46.08223" lon="4.75403">
        <ele>173</ele>
        <time>2024-05-20T12:01:30.000Z</time>
      </trkpt>
      <trkpt lat="46.08219" lon="4.75409">
        <ele>173</ele>
        <time>2024-05-20T12:01:31.000Z</time>
      </trkpt>
      <trkpt lat="46.08215" lon="4.75415">
        <ele>173</ele>
        <time>2024-05-20T12:01:32.000Z</time>
      </trkpt>
      <trkpt lat="46.08212" lon="4.75421">
        <ele>173</ele>
        <time>2024-05-20T12:01:33.000Z</time>
      </trkpt>
      <trkpt lat="46.08208" lon="4.75426">
        <ele>173</ele>
        <time>2024-05-20T12:01:34.000Z</time>
      </trkpt>
      <trkpt lat="46.08204" lon="4.75432">
        <ele>173</ele>
        <time>2024-05-20T12:01:35.000Z</time>
      </trkpt>
      <trkpt lat="46.08201" lon="4.75438">
        <ele>173</ele>
        <time>2024-05-20T12:01:36.000Z</time>
      </trkpt>
      <trkpt lat="46.08197" lon="4.75444">
        <ele>173</ele>
        <time>2024-05-20T12:01:37.000Z</time>
      </trkpt>
      <trkpt lat="46.08193" lon="4.7545">
        <ele>173</ele>
        <time>2024-05-20T12:01:38.000Z</time>
      </trkpt>
      <trkpt lat="46.08189" lon="4.75455">
        <ele>173</ele>
        <time>2024-05-20T12:01:39.000Z</time>
      </trkpt>
      <trkpt lat="46.08185" lon="4.7546">
        <ele>172.80000305176</ele>
        <time>2024-05-20T12:01:40.000Z</time>
      </trkpt>
      <trkpt lat="46.08181" lon="4.75465">
        <ele>172.80000305176</ele>
        <time>2024-05-20T12:01:41.000Z</time>
      </trkpt>
      <trkpt lat="46.08177" lon="4.75469">
        <ele>172.80000305176</ele>
        <time>2024-05-20T12:01:42.000Z</time>
      </trkpt>
      <trkpt lat="46.08172" lon="4.75473">
        <ele>172.80000305176</ele>
        <time>2024-05-20T12:01:43.000Z</time>
      </trkpt>
      <trkpt lat="46.08168" lon="4.75477">
        <ele>172.80000305176</ele>
        <time>2024-05-20T12:01:44.000Z</time>
      </trkpt>
      <trkpt lat="46.08164" lon="4.75481">
        <ele>172.80000305176</ele>
        <time>2024-05-20T12:01:45.000Z</time>
      </trkpt>
      <trkpt lat="46.0816" lon="4.75486">
        <ele>172.80000305176</ele>
        <time>2024-05-20T12:01:46.000Z</time>
      </trkpt>
      <trkpt lat="46.08155" lon="4.7549">
        <ele>172.60000610352</ele>
        <time>2024-05-20T12:01:47.000Z</time>
      </trkpt>
      <trkpt lat="46.0815" lon="4.75494">
        <ele>172.39999389648</ele>
        <time>2024-05-20T12:01:48.000Z</time>
      </trkpt>
      <trkpt lat="46.08145" lon="4.75499">
        <ele>172.39999389648</ele>
        <time>2024-05-20T12:01:49.000Z</time>
      </trkpt>
      <trkpt lat="46.08141" lon="4.75504">
        <ele>172.39999389648</ele>
        <time>2024-05-20T12:01:50.000Z</time>
      </trkpt>
      <trkpt lat="46.08136" lon="4.75508">
        <ele>172.39999389648</ele>
        <time>2024-05-20T12:01:51.000Z</time>
      </trkpt>
      <trkpt lat="46.08132" lon="4.75512">
        <ele>172.39999389648</ele>
        <time>2024-05-20T12:01:52.000Z</time>
      </trkpt>
      <trkpt lat="46.08127" lon="4.75516">
        <ele>172.60000610352</ele>
        <time>2024-05-20T12:01:53.000Z</time>
      </trkpt>
      <trkpt lat="46.08123" lon="4.7552">
        <ele>172.60000610352</ele>
        <time>2024-05-20T12:01:54.000Z</time>
      </trkpt>
      <trkpt lat="46.08119" lon="4.75524">
        <ele>172.60000610352</ele>
        <time>2024-05-20T12:01:55.000Z</time>
      </trkpt>
      <trkpt lat="46.08115" lon="4.75529">
        <ele>172.60000610352</ele>
        <time>2024-05-20T12:01:56.000Z</time>
      </trkpt>
      <trkpt lat="46.08111" lon="4.75533">
        <ele>172.60000610352</ele>
        <time>2024-05-20T12:01:57.000Z</time>
      </trkpt>
      <trkpt lat="46.08107" lon="4.75538">
        <ele>172.60000610352</ele>
        <time>2024-05-20T12:01:58.000Z</time>
      </trkpt>
      <trkpt lat="46.08102" lon="4.75542">
        <ele>172.39999389648</ele>
        <time>2024-05-20T12:01:59.000Z</time>
      </trkpt>
      <trkpt lat="46.08098" lon="4.75546">
        <ele>172.39999389648</ele>
        <time>2024-05-20T12:02:00.000Z</time>
      </trkpt>
      <trkpt lat="46.08094" lon="4.7555">
        <ele>172.39999389648</ele>
        <time>2024-05-20T12:02:01.000Z</time>
      </trkpt>
      <trkpt lat="46.0809" lon="4.75554">
        <ele>172.19999694824</ele>
        <time>2024-05-20T12:02:02.000Z</time>
      </trkpt>
      <trkpt lat="46.08086" lon="4.75559">
        <ele>172.19999694824</ele>
        <time>2024-05-20T12:02:03.000Z</time>
      </trkpt>
      <trkpt lat="46.08082" lon="4.75562">
        <ele>172</ele>
        <time>2024-05-20T12:02:04.000Z</time>
      </trkpt>
      <trkpt lat="46.08078" lon="4.75565">
        <ele>172</ele>
        <time>2024-05-20T12:02:05.000Z</time>
      </trkpt>
      <trkpt lat="46.08074" lon="4.75569">
        <ele>172</ele>
        <time>2024-05-20T12:02:06.000Z</time>
      </trkpt>
      <trkpt lat="46.0807" lon="4.75573">
        <ele>172</ele>
        <time>2024-05-20T12:02:07.000Z</time>
      </trkpt>
      <trkpt lat="46.08066" lon="4.75578">
        <ele>172</ele>
        <time>2024-05-20T12:02:08.000Z</time>
      </trkpt>
      <trkpt lat="46.08062" lon="4.75583">
        <ele>172</ele>
        <time>2024-05-20T12:02:09.000Z</time>
      </trkpt>
      <trkpt lat="46.08058" lon="4.75587">
        <ele>172</ele>
        <time>2024-05-20T12:02:10.000Z</time>
      </trkpt>
      <trkpt lat="46.08054" lon="4.75592">
        <ele>172</ele>
        <time>2024-05-20T12:02:11.000Z</time>
      </trkpt>
      <trkpt lat="46.0805" lon="4.75596">
        <ele>172</ele>
        <time>2024-05-20T12:02:12.000Z</time>
      </trkpt>
      <trkpt lat="46.08046" lon="4.756">
        <ele>172</ele>
        <time>2024-05-20T12:02:13.000Z</time>
      </trkpt>
      <trkpt lat="46.08042" lon="4.75604">
        <ele>172.19999694824</ele>
        <time>2024-05-20T12:02:14.000Z</time>
      </trkpt>
      <trkpt lat="46.08038" lon="4.75609">
        <ele>172.19999694824</ele>
        <time>2024-05-20T12:02:15.000Z</time>
      </trkpt>
      <trkpt lat="46.08034" lon="4.75613">
        <ele>172.19999694824</ele>
        <time>2024-05-20T12:02:16.000Z</time>
      </trkpt>
      <trkpt lat="46.0803" lon="4.75617">
        <ele>172.19999694824</ele>
        <time>2024-05-20T12:02:17.000Z</time>
      </trkpt>
      <trkpt lat="46.08026" lon="4.75622">
        <ele>172.19999694824</ele>
        <time>2024-05-20T12:02:18.000Z</time>
      </trkpt>
      <trkpt lat="46.08023" lon="4.75627">
        <ele>172.19999694824</ele>
        <time>2024-05-20T12:02:19.000Z</time>
      </trkpt>
      <trkpt lat="46.08019" lon="4.75632">
        <ele>172.39999389648</ele>
        <time>2024-05-20T12:02:20.000Z</time>
      </trkpt>
      <trkpt lat="46.08016" lon="4.75637">
        <ele>172.39999389648</ele>
        <time>2024-05-20T12:02:21.000Z</time>
      </trkpt>
      <trkpt lat="46.08013" lon="4.75642">
        <ele>172.39999389648</ele>
        <time>2024-05-20T12:02:22.000Z</time>
      </trkpt>
      <trkpt lat="46.0801" lon="4.75648">
        <ele>172.60000610352</ele>
        <time>2024-05-20T12:02:23.000Z</time>
      </trkpt>
      <trkpt lat="46.08006" lon="4.75652">
        <ele>172.60000610352</ele>
        <time>2024-05-20T12:02:24.000Z</time>
      </trkpt>
      <trkpt lat="46.08002" lon="4.75656">
        <ele>172.80000305176</ele>
        <time>2024-05-20T12:02:25.000Z</time>
      </trkpt>
      <trkpt lat="46.07998" lon="4.7566">
        <ele>173</ele>
        <time>2024-05-20T12:02:26.000Z</time>
      </trkpt>
      <trkpt lat="46.07994" lon="4.75664">
        <ele>173</ele>
        <time>2024-05-20T12:02:27.000Z</time>
      </trkpt>
      <trkpt lat="46.0799" lon="4.75668">
        <ele>173</ele>
        <time>2024-05-20T12:02:28.000Z</time>
      </trkpt>
      <trkpt lat="46.07986" lon="4.75671">
        <ele>173</ele>
        <time>2024-05-20T12:02:29.000Z</time>
      </trkpt>
      <trkpt lat="46.07982" lon="4.75676">
        <ele>172.80000305176</ele>
        <time>2024-05-20T12:02:30.000Z</time>
      </trkpt>
      <trkpt lat="46.07978" lon="4.7568">
        <ele>172.80000305176</ele>
        <time>2024-05-20T12:02:31.000Z</time>
      </trkpt>
      <trkpt lat="46.07973" lon="4.75684">
        <ele>172.80000305176</ele>
        <time>2024-05-20T12:02:32.000Z</time>
      </trkpt>
      <trkpt lat="46.07969" lon="4.75688">
        <ele>172.80000305176</ele>
        <time>2024-05-20T12:02:33.000Z</time>
      </trkpt>
      <trkpt lat="46.07965" lon="4.75692">
        <ele>172.80000305176</ele>
        <time>2024-05-20T12:02:34.000Z</time>
      </trkpt>
      <trkpt lat="46.07961" lon="4.75697">
        <ele>172.80000305176</ele>
        <time>2024-05-20T12:02:35.000Z</time>
      </trkpt>
      <trkpt lat="46.07956" lon="4.75701">
        <ele>172.80000305176</ele>
        <time>2024-05-20T12:02:36.000Z</time>
      </trkpt>
      <trkpt lat="46.07952" lon="4.75705">
        <ele>172.80000305176</ele>
        <time>2024-05-20T12:02:37.000Z</time>
      </trkpt>
      <trkpt lat="46.07948" lon="4.75709">
        <ele>172.80000305176</ele>
        <time>2024-05-20T12:02:38.000Z</time>
      </trkpt>
      <trkpt lat="46.07944" lon="4.75713">
        <ele>172.80000305176</ele>
        <time>2024-05-20T12:02:39.000Z</time>
      </trkpt>
      <trkpt lat="46.0794" lon="4.75717">
        <ele>172.80000305176</ele>
        <time>2024-05-20T12:02:40.000Z</time>
      </trkpt>
      <trkpt lat="46.07936" lon="4.75721">
        <ele>172.80000305176</ele>
        <time>2024-05-20T12:02:41.000Z</time>
      </trkpt>
      <trkpt lat="46.07932" lon="4.75725">
        <ele>172.80000305176</ele>
        <time>2024-05-20T12:02:42.000Z</time>
      </trkpt>
      <trkpt lat="46.07927" lon="4.75729">
        <ele>172.80000305176</ele>
        <time>2024-05-20T12:02:43.000Z</time>
      </trkpt>
      <trkpt lat="46.07923" lon="4.75734">
        <ele>173</ele>
        <time>2024-05-20T12:02:44.000Z</time>
      </trkpt>
      <trkpt lat="46.07919" lon="4.75738">
        <ele>173.19999694824</ele>
        <time>2024-05-20T12:02:45.000Z</time>
      </trkpt>
      <trkpt lat="46.07914" lon="4.75742">
        <ele>173.19999694824</ele>
        <time>2024-05-20T12:02:46.000Z</time>
      </trkpt>
      <trkpt lat="46.0791" lon="4.75747">
        <ele>173.19999694824</ele>
        <time>2024-05-20T12:02:47.000Z</time>
      </trkpt>
      <trkpt lat="46.07906" lon="4.75751">
        <ele>173.19999694824</ele>
        <time>2024-05-20T12:02:48.000Z</time>
      </trkpt>
      <trkpt lat="46.07901" lon="4.75755">
        <ele>173</ele>
        <time>2024-05-20T12:02:49.000Z</time>
      </trkpt>
      <trkpt lat="46.07897" lon="4.7576">
        <ele>173</ele>
        <time>2024-05-20T12:02:50.000Z</time>
      </trkpt>
      <trkpt lat="46.07893" lon="4.75764">
        <ele>173.19999694824</ele>
        <time>2024-05-20T12:02:51.000Z</time>
      </trkpt>
      <trkpt lat="46.07888" lon="4.75768">
        <ele>173.19999694824</ele>
        <time>2024-05-20T12:02:52.000Z</time>
      </trkpt>
      <trkpt lat="46.07884" lon="4.75773">
        <ele>173.19999694824</ele>
        <time>2024-05-20T12:02:53.000Z</time>
      </trkpt>
      <trkpt lat="46.07879" lon="4.75777">
        <ele>173.19999694824</ele>
        <time>2024-05-20T12:02:54.000Z</time>
      </trkpt>
      <trkpt lat="46.07874" lon="4.75781">
        <ele>173.39999389648</ele>
        <time>2024-05-20T12:02:55.000Z</time>
      </trkpt>
      <trkpt lat="46.0787" lon="4.75786">
        <ele>173.39999389648</ele>
        <time>2024-05-20T12:02:56.000Z</time>
      </trkpt>
      <trkpt lat="46.07865" lon="4.7579">
        <ele>173.39999389648</ele>
        <time>2024-05-20T12:02:57.000Z</time>
      </trkpt>
      <trkpt lat="46.07861" lon="4.75794">
        <ele>173.39999389648</ele>
        <time>2024-05-20T12:02:58.000Z</time>
      </trkpt>
      <trkpt lat="46.07856" lon="4.75799">
        <ele>173.60000610352</ele>
        <time>2024-05-20T12:02:59.000Z</time>
      </trkpt>
      <trkpt lat="46.07851" lon="4.75803">
        <ele>173.60000610352</ele>
        <time>2024-05-20T12:03:00.000Z</time>
      </trkpt>
      <trkpt lat="46.07847" lon="4.75807">
        <ele>173.60000610352</ele>
        <time>2024-05-20T12:03:01.000Z</time>
      </trkpt>
      <trkpt lat="46.07842" lon="4.75812">
        <ele>173.60000610352</ele>
        <time>2024-05-20T12:03:02.000Z</time>
      </trkpt>
      <trkpt lat="46.07838" lon="4.75816">
        <ele>173.60000610352</ele>
        <time>2024-05-20T12:03:03.000Z</time>
      </trkpt>
      <trkpt lat="46.07833" lon="4.75821">
        <ele>173.60000610352</ele>
        <time>2024-05-20T12:03:04.000Z</time>
      </trkpt>
      <trkpt lat="46.07829" lon="4.75826">
        <ele>173.60000610352</ele>
        <time>2024-05-20T12:03:05.000Z</time>
      </trkpt>
      <trkpt lat="46.07824" lon="4.75831">
        <ele>173.60000610352</ele>
        <time>2024-05-20T12:03:06.000Z</time>
      </trkpt>
      <trkpt lat="46.07821" lon="4.75836">
        <ele>173.60000610352</ele>
        <time>2024-05-20T12:03:07.000Z</time>
      </trkpt>
      <trkpt lat="46.07817" lon="4.75842">
        <ele>173.39999389648</ele>
        <time>2024-05-20T12:03:08.000Z</time>
      </trkpt>
      <trkpt lat="46.07813" lon="4.75846">
        <ele>173.39999389648</ele>
        <time>2024-05-20T12:03:09.000Z</time>
      </trkpt>
      <trkpt lat="46.07808" lon="4.75851">
        <ele>173.39999389648</ele>
        <time>2024-05-20T12:03:10.000Z</time>
      </trkpt>
      <trkpt lat="46.07804" lon="4.75855">
        <ele>173.39999389648</ele>
        <time>2024-05-20T12:03:11.000Z</time>
      </trkpt>
      <trkpt lat="46.07799" lon="4.7586">
        <ele>173.39999389648</ele>
        <time>2024-05-20T12:03:12.000Z</time>
      </trkpt>
      <trkpt lat="46.07795" lon="4.75864">
        <ele>173.39999389648</ele>
        <time>2024-05-20T12:03:13.000Z</time>
      </trkpt>
      <trkpt lat="46.0779" lon="4.75868">
        <ele>173.39999389648</ele>
        <time>2024-05-20T12:03:14.000Z</time>
      </trkpt>
      <trkpt lat="46.07785" lon="4.75872">
        <ele>173.39999389648</ele>
        <time>2024-05-20T12:03:15.000Z</time>
      </trkpt>
      <trkpt lat="46.0778" lon="4.75876">
        <ele>173.39999389648</ele>
        <time>2024-05-20T12:03:16.000Z</time>
      </trkpt>
      <trkpt lat="46.07776" lon="4.75881">
        <ele>173.60000610352</ele>
        <time>2024-05-20T12:03:17.000Z</time>
      </trkpt>
      <trkpt lat="46.07771" lon="4.75885">
        <ele>173.60000610352</ele>
        <time>2024-05-20T12:03:18.000Z</time>
      </trkpt>
      <trkpt lat="46.07767" lon="4.7589">
        <ele>173.60000610352</ele>
        <time>2024-05-20T12:03:19.000Z</time>
      </trkpt>
      <trkpt lat="46.07762" lon="4.75894">
        <ele>173.60000610352</ele>
        <time>2024-05-20T12:03:20.000Z</time>
      </trkpt>
      <trkpt lat="46.07758" lon="4.75899">
        <ele>173.80000305176</ele>
        <time>2024-05-20T12:03:21.000Z</time>
      </trkpt>
      <trkpt lat="46.07753" lon="4.75903">
        <ele>173.80000305176</ele>
        <time>2024-05-20T12:03:22.000Z</time>
      </trkpt>
      <trkpt lat="46.07748" lon="4.75907">
        <ele>173.80000305176</ele>
        <time>2024-05-20T12:03:23.000Z</time>
      </trkpt>
      <trkpt lat="46.07743" lon="4.75911">
        <ele>173.80000305176</ele>
        <time>2024-05-20T12:03:24.000Z</time>
      </trkpt>
      <trkpt lat="46.07738" lon="4.75915">
        <ele>173.80000305176</ele>
        <time>2024-05-20T12:03:25.000Z</time>
      </trkpt>
      <trkpt lat="46.07733" lon="4.75918">
        <ele>173.80000305176</ele>
        <time>2024-05-20T12:03:26.000Z</time>
      </trkpt>
      <trkpt lat="46.07728" lon="4.75922">
        <ele>173.60000610352</ele>
        <time>2024-05-20T12:03:27.000Z</time>
      </trkpt>
      <trkpt lat="46.07723" lon="4.75926">
        <ele>173.39999389648</ele>
        <time>2024-05-20T12:03:28.000Z</time>
      </trkpt>
      <trkpt lat="46.07718" lon="4.7593">
        <ele>173.39999389648</ele>
        <time>2024-05-20T12:03:29.000Z</time>
      </trkpt>
      <trkpt lat="46.07713" lon="4.75934">
        <ele>173.39999389648</ele>
        <time>2024-05-20T12:03:30.000Z</time>
      </trkpt>
      <trkpt lat="46.07708" lon="4.75938">
        <ele>173.60000610352</ele>
        <time>2024-05-20T12:03:31.000Z</time>
      </trkpt>
      <trkpt lat="46.07703" lon="4.75942">
        <ele>173.60000610352</ele>
        <time>2024-05-20T12:03:32.000Z</time>
      </trkpt>
      <trkpt lat="46.07698" lon="4.75946">
        <ele>173.80000305176</ele>
        <time>2024-05-20T12:03:33.000Z</time>
      </trkpt>
      <trkpt lat="46.07693" lon="4.75949">
        <ele>173.80000305176</ele>
        <time>2024-05-20T12:03:34.000Z</time>
      </trkpt>
      <trkpt lat="46.07688" lon="4.75953">
        <ele>174</ele>
        <time>2024-05-20T12:03:35.000Z</time>
      </trkpt>
      <trkpt lat="46.07683" lon="4.75957">
        <ele>174</ele>
        <time>2024-05-20T12:03:36.000Z</time>
      </trkpt>
      <trkpt lat="46.07677" lon="4.75961">
        <ele>174</ele>
        <time>2024-05-20T12:03:37.000Z</time>
      </trkpt>
      <trkpt lat="46.07672" lon="4.75964">
        <ele>174.19999694824</ele>
        <time>2024-05-20T12:03:38.000Z</time>
      </trkpt>
      <trkpt lat="46.07667" lon="4.75968">
        <ele>174.19999694824</ele>
        <time>2024-05-20T12:03:39.000Z</time>
      </trkpt>
      <trkpt lat="46.07661" lon="4.75972">
        <ele>174.19999694824</ele>
        <time>2024-05-20T12:03:40.000Z</time>
      </trkpt>
      <trkpt lat="46.07656" lon="4.75976">
        <ele>174.19999694824</ele>
        <time>2024-05-20T12:03:41.000Z</time>
      </trkpt>
      <trkpt lat="46.07651" lon="4.7598">
        <ele>174.19999694824</ele>
        <time>2024-05-20T12:03:42.000Z</time>
      </trkpt>
      <trkpt lat="46.07646" lon="4.75983">
        <ele>174.19999694824</ele>
        <time>2024-05-20T12:03:43.000Z</time>
      </trkpt>
      <trkpt lat="46.07641" lon="4.75987">
        <ele>174.19999694824</ele>
        <time>2024-05-20T12:03:44.000Z</time>
      </trkpt>
      <trkpt lat="46.07637" lon="4.75991">
        <ele>174.19999694824</ele>
        <time>2024-05-20T12:03:45.000Z</time>
      </trkpt>
      <trkpt lat="46.07633" lon="4.75994">
        <ele>174</ele>
        <time>2024-05-20T12:03:46.000Z</time>
      </trkpt>
      <trkpt lat="46.07629" lon="4.75997">
        <ele>174</ele>
        <time>2024-05-20T12:03:47.000Z</time>
      </trkpt>
      <trkpt lat="46.07625" lon="4.76">
        <ele>174.19999694824</ele>
        <time>2024-05-20T12:03:48.000Z</time>
      </trkpt>
      <trkpt lat="46.07621" lon="4.76003">
        <ele>174.39999389648</ele>
        <time>2024-05-20T12:03:49.000Z</time>
      </trkpt>
      <trkpt lat="46.07616" lon="4.76006">
        <ele>174.39999389648</ele>
        <time>2024-05-20T12:03:50.000Z</time>
      </trkpt>
      <trkpt lat="46.07612" lon="4.76009">
        <ele>174.60000610352</ele>
        <time>2024-05-20T12:03:51.000Z</time>
      </trkpt>
      <trkpt lat="46.07608" lon="4.76012">
        <ele>174.80000305176</ele>
        <time>2024-05-20T12:03:52.000Z</time>
      </trkpt>
      <trkpt lat="46.07603" lon="4.76015">
        <ele>174.80000305176</ele>
        <time>2024-05-20T12:03:53.000Z</time>
      </trkpt>
      <trkpt lat="46.07599" lon="4.76018">
        <ele>175.19999694824</ele>
        <time>2024-05-20T12:03:54.000Z</time>
      </trkpt>
      <trkpt lat="46.07595" lon="4.7602">
        <ele>175.19999694824</ele>
        <time>2024-05-20T12:03:55.000Z</time>
      </trkpt>
      <trkpt lat="46.0759" lon="4.76023">
        <ele>175.39999389648</ele>
        <time>2024-05-20T12:03:56.000Z</time>
      </trkpt>
      <trkpt lat="46.07586" lon="4.76026">
        <ele>175.60000610352</ele>
        <time>2024-05-20T12:03:57.000Z</time>
      </trkpt>
      <trkpt lat="46.07582" lon="4.76029">
        <ele>175.60000610352</ele>
        <time>2024-05-20T12:03:58.000Z</time>
      </trkpt>
      <trkpt lat="46.07578" lon="4.76032">
        <ele>175.80000305176</ele>
        <time>2024-05-20T12:03:59.000Z</time>
      </trkpt>
      <trkpt lat="46.07573" lon="4.76036">
        <ele>175.80000305176</ele>
        <time>2024-05-20T12:04:00.000Z</time>
      </trkpt>
      <trkpt lat="46.07568" lon="4.76039">
        <ele>176</ele>
        <time>2024-05-20T12:04:01.000Z</time>
      </trkpt>
      <trkpt lat="46.07563" lon="4.76042">
        <ele>176</ele>
        <time>2024-05-20T12:04:02.000Z</time>
      </trkpt>
      <trkpt lat="46.07558" lon="4.76045">
        <ele>176</ele>
        <time>2024-05-20T12:04:03.000Z</time>
      </trkpt>
      <trkpt lat="46.07552" lon="4.76048">
        <ele>176</ele>
        <time>2024-05-20T12:04:04.000Z</time>
      </trkpt>
      <trkpt lat="46.07547" lon="4.76051">
        <ele>176</ele>
        <time>2024-05-20T12:04:05.000Z</time>
      </trkpt>
      <trkpt lat="46.07542" lon="4.76053">
        <ele>176</ele>
        <time>2024-05-20T12:04:06.000Z</time>
      </trkpt>
      <trkpt lat="46.07536" lon="4.76056">
        <ele>175.80000305176</ele>
        <time>2024-05-20T12:04:07.000Z</time>
      </trkpt>
      <trkpt lat="46.07531" lon="4.76058">
        <ele>175.80000305176</ele>
        <time>2024-05-20T12:04:08.000Z</time>
      </trkpt>
      <trkpt lat="46.07526" lon="4.76059">
        <ele>175.80000305176</ele>
        <time>2024-05-20T12:04:09.000Z</time>
      </trkpt>
      <trkpt lat="46.07521" lon="4.76061">
        <ele>176</ele>
        <time>2024-05-20T12:04:10.000Z</time>
      </trkpt>
      <trkpt lat="46.07516" lon="4.76063">
        <ele>176</ele>
        <time>2024-05-20T12:04:11.000Z</time>
      </trkpt>
      <trkpt lat="46.07511" lon="4.76065">
        <ele>176</ele>
        <time>2024-05-20T12:04:12.000Z</time>
      </trkpt>
      <trkpt lat="46.07505" lon="4.76068">
        <ele>176</ele>
        <time>2024-05-20T12:04:13.000Z</time>
      </trkpt>
      <trkpt lat="46.075" lon="4.76069">
        <ele>176</ele>
        <time>2024-05-20T12:04:14.000Z</time>
      </trkpt>
      <trkpt lat="46.07495" lon="4.76071">
        <ele>176</ele>
        <time>2024-05-20T12:04:15.000Z</time>
      </trkpt>
      <trkpt lat="46.0749" lon="4.76073">
        <ele>176</ele>
        <time>2024-05-20T12:04:16.000Z</time>
      </trkpt>
      <trkpt lat="46.07484" lon="4.76075">
        <ele>176.19999694824</ele>
        <time>2024-05-20T12:04:17.000Z</time>
      </trkpt>
      <trkpt lat="46.07478" lon="4.76077">
        <ele>176.19999694824</ele>
        <time>2024-05-20T12:04:18.000Z</time>
      </trkpt>
      <trkpt lat="46.07471" lon="4.76079">
        <ele>176.19999694824</ele>
        <time>2024-05-20T12:04:19.000Z</time>
      </trkpt>
      <trkpt lat="46.07465" lon="4.7608">
        <ele>176.19999694824</ele>
        <time>2024-05-20T12:04:20.000Z</time>
      </trkpt>
      <trkpt lat="46.07459" lon="4.76082">
        <ele>176.19999694824</ele>
        <time>2024-05-20T12:04:21.000Z</time>
      </trkpt>
      <trkpt lat="46.07453" lon="4.76083">
        <ele>176.19999694824</ele>
        <time>2024-05-20T12:04:22.000Z</time>
      </trkpt>
      <trkpt lat="46.07447" lon="4.76085">
        <ele>176</ele>
        <time>2024-05-20T12:04:23.000Z</time>
      </trkpt>
      <trkpt lat="46.07442" lon="4.76088">
        <ele>176</ele>
        <time>2024-05-20T12:04:24.000Z</time>
      </trkpt>
      <trkpt lat="46.07436" lon="4.7609">
        <ele>176</ele>
        <time>2024-05-20T12:04:25.000Z</time>
      </trkpt>
      <trkpt lat="46.0743" lon="4.76093">
        <ele>176</ele>
        <time>2024-05-20T12:04:26.000Z</time>
      </trkpt>
      <trkpt lat="46.07424" lon="4.76096">
        <ele>176</ele>
        <time>2024-05-20T12:04:27.000Z</time>
      </trkpt>
      <trkpt lat="46.07418" lon="4.76098">
        <ele>176</ele>
        <time>2024-05-20T12:04:28.000Z</time>
      </trkpt>
      <trkpt lat="46.07412" lon="4.761">
        <ele>176</ele>
        <time>2024-05-20T12:04:29.000Z</time>
      </trkpt>
      <trkpt lat="46.07407" lon="4.76103">
        <ele>176.19999694824</ele>
        <time>2024-05-20T12:04:30.000Z</time>
      </trkpt>
      <trkpt lat="46.07401" lon="4.76105">
        <ele>176.19999694824</ele>
        <time>2024-05-20T12:04:31.000Z</time>
      </trkpt>
      <trkpt lat="46.07395" lon="4.76107">
        <ele>176.19999694824</ele>
        <time>2024-05-20T12:04:32.000Z</time>
      </trkpt>
      <trkpt lat="46.07389" lon="4.7611">
        <ele>176.19999694824</ele>
        <time>2024-05-20T12:04:33.000Z</time>
      </trkpt>
      <trkpt lat="46.07383" lon="4.76112">
        <ele>176.19999694824</ele>
        <time>2024-05-20T12:04:34.000Z</time>
      </trkpt>
      <trkpt lat="46.07377" lon="4.76115">
        <ele>176.39999389648</ele>
        <time>2024-05-20T12:04:35.000Z</time>
      </trkpt>
      <trkpt lat="46.0737" lon="4.76117">
        <ele>176.39999389648</ele>
        <time>2024-05-20T12:04:36.000Z</time>
      </trkpt>
      <trkpt lat="46.07364" lon="4.7612">
        <ele>176.19999694824</ele>
        <time>2024-05-20T12:04:37.000Z</time>
      </trkpt>
      <trkpt lat="46.07358" lon="4.76123">
        <ele>176.19999694824</ele>
        <time>2024-05-20T12:04:38.000Z</time>
      </trkpt>
      <trkpt lat="46.0735" lon="4.76126">
        <ele>176.19999694824</ele>
        <time>2024-05-20T12:04:39.000Z</time>
      </trkpt>
      <trkpt lat="46.07344" lon="4.76129">
        <ele>176.19999694824</ele>
        <time>2024-05-20T12:04:40.000Z</time>
      </trkpt>
      <trkpt lat="46.07337" lon="4.76131">
        <ele>176.19999694824</ele>
        <time>2024-05-20T12:04:41.000Z</time>
      </trkpt>
      <trkpt lat="46.07331" lon="4.76132">
        <ele>176</ele>
        <time>2024-05-20T12:04:42.000Z</time>
      </trkpt>
      <trkpt lat="46.07325" lon="4.76134">
        <ele>176</ele>
        <time>2024-05-20T12:04:43.000Z</time>
      </trkpt>
      <trkpt lat="46.07318" lon="4.76137">
        <ele>176</ele>
        <time>2024-05-20T12:04:44.000Z</time>
      </trkpt>
      <trkpt lat="46.07311" lon="4.76138">
        <ele>176</ele>
        <time>2024-05-20T12:04:45.000Z</time>
      </trkpt>
      <trkpt lat="46.07304" lon="4.76141">
        <ele>176</ele>
        <time>2024-05-20T12:04:46.000Z</time>
      </trkpt>
      <trkpt lat="46.07298" lon="4.76143">
        <ele>176</ele>
        <time>2024-05-20T12:04:47.000Z</time>
      </trkpt>
      <trkpt lat="46.07291" lon="4.76146">
        <ele>176</ele>
        <time>2024-05-20T12:04:48.000Z</time>
      </trkpt>
      <trkpt lat="46.07285" lon="4.76149">
        <ele>176</ele>
        <time>2024-05-20T12:04:49.000Z</time>
      </trkpt>
      <trkpt lat="46.07279" lon="4.76152">
        <ele>176</ele>
        <time>2024-05-20T12:04:50.000Z</time>
      </trkpt>
      <trkpt lat="46.07273" lon="4.76156">
        <ele>175.80000305176</ele>
        <time>2024-05-20T12:04:51.000Z</time>
      </trkpt>
      <trkpt lat="46.07267" lon="4.76159">
        <ele>175.80000305176</ele>
        <time>2024-05-20T12:04:52.000Z</time>
      </trkpt>
      <trkpt lat="46.07261" lon="4.76161">
        <ele>175.60000610352</ele>
        <time>2024-05-20T12:04:53.000Z</time>
      </trkpt>
      <trkpt lat="46.07255" lon="4.76164">
        <ele>175.60000610352</ele>
        <time>2024-05-20T12:04:54.000Z</time>
      </trkpt>
      <trkpt lat="46.07249" lon="4.76168">
        <ele>175.39999389648</ele>
        <time>2024-05-20T12:04:55.000Z</time>
      </trkpt>
      <trkpt lat="46.07243" lon="4.76171">
        <ele>175.39999389648</ele>
        <time>2024-05-20T12:04:56.000Z</time>
      </trkpt>
      <trkpt lat="46.07237" lon="4.76174">
        <ele>175.19999694824</ele>
        <time>2024-05-20T12:04:57.000Z</time>
      </trkpt>
      <trkpt lat="46.07231" lon="4.76176">
        <ele>175.19999694824</ele>
        <time>2024-05-20T12:04:58.000Z</time>
      </trkpt>
      <trkpt lat="46.07225" lon="4.7618">
        <ele>175.19999694824</ele>
        <time>2024-05-20T12:04:59.000Z</time>
      </trkpt>
      <trkpt lat="46.07219" lon="4.76182">
        <ele>175</ele>
        <time>2024-05-20T12:05:00.000Z</time>
      </trkpt>
      <trkpt lat="46.07213" lon="4.76185">
        <ele>175</ele>
        <time>2024-05-20T12:05:01.000Z</time>
      </trkpt>
      <trkpt lat="46.07207" lon="4.76188">
        <ele>174.80000305176</ele>
        <time>2024-05-20T12:05:02.000Z</time>
      </trkpt>
      <trkpt lat="46.07201" lon="4.76191">
        <ele>174.80000305176</ele>
        <time>2024-05-20T12:05:03.000Z</time>
      </trkpt>
      <trkpt lat="46.07195" lon="4.76194">
        <ele>174.80000305176</ele>
        <time>2024-05-20T12:05:04.000Z</time>
      </trkpt>
      <trkpt lat="46.07189" lon="4.76197">
        <ele>174.80000305176</ele>
        <time>2024-05-20T12:05:05.000Z</time>
      </trkpt>
      <trkpt lat="46.07184" lon="4.762">
        <ele>174.80000305176</ele>
        <time>2024-05-20T12:05:06.000Z</time>
      </trkpt>
      <trkpt lat="46.07178" lon="4.76203">
        <ele>174.80000305176</ele>
        <time>2024-05-20T12:05:07.000Z</time>
      </trkpt>
      <trkpt lat="46.07172" lon="4.76206">
        <ele>174.60000610352</ele>
        <time>2024-05-20T12:05:08.000Z</time>
      </trkpt>
      <trkpt lat="46.07166" lon="4.76209">
        <ele>174.60000610352</ele>
        <time>2024-05-20T12:05:09.000Z</time>
      </trkpt>
      <trkpt lat="46.07161" lon="4.76213">
        <ele>174.60000610352</ele>
        <time>2024-05-20T12:05:10.000Z</time>
      </trkpt>
      <trkpt lat="46.07155" lon="4.76216">
        <ele>174.60000610352</ele>
        <time>2024-05-20T12:05:11.000Z</time>
      </trkpt>
      <trkpt lat="46.0715" lon="4.7622">
        <ele>174.60000610352</ele>
        <time>2024-05-20T12:05:12.000Z</time>
      </trkpt>
      <trkpt lat="46.07144" lon="4.76223">
        <ele>174.60000610352</ele>
        <time>2024-05-20T12:05:13.000Z</time>
      </trkpt>
      <trkpt lat="46.07138" lon="4.76227">
        <ele>174.60000610352</ele>
        <time>2024-05-20T12:05:14.000Z</time>
      </trkpt>
      <trkpt lat="46.07132" lon="4.7623">
        <ele>174.60000610352</ele>
        <time>2024-05-20T12:05:15.000Z</time>
      </trkpt>
      <trkpt lat="46.07127" lon="4.76233">
        <ele>174.39999389648</ele>
        <time>2024-05-20T12:05:16.000Z</time>
      </trkpt>
      <trkpt lat="46.07121" lon="4.76235">
        <ele>174.39999389648</ele>
        <time>2024-05-20T12:05:17.000Z</time>
      </trkpt>
      <trkpt lat="46.07115" lon="4.76238">
        <ele>174.39999389648</ele>
        <time>2024-05-20T12:05:18.000Z</time>
      </trkpt>
      <trkpt lat="46.07109" lon="4.7624">
        <ele>174.39999389648</ele>
        <time>2024-05-20T12:05:19.000Z</time>
      </trkpt>
      <trkpt lat="46.07103" lon="4.76243">
        <ele>174.39999389648</ele>
        <time>2024-05-20T12:05:20.000Z</time>
      </trkpt>
      <trkpt lat="46.07097" lon="4.76246">
        <ele>174.39999389648</ele>
        <time>2024-05-20T12:05:21.000Z</time>
      </trkpt>
      <trkpt lat="46.07092" lon="4.76249">
        <ele>174.39999389648</ele>
        <time>2024-05-20T12:05:22.000Z</time>
      </trkpt>
      <trkpt lat="46.07085" lon="4.76251">
        <ele>174.39999389648</ele>
        <time>2024-05-20T12:05:23.000Z</time>
      </trkpt>
      <trkpt lat="46.07079" lon="4.76254">
        <ele>174.39999389648</ele>
        <time>2024-05-20T12:05:24.000Z</time>
      </trkpt>
      <trkpt lat="46.07073" lon="4.76256">
        <ele>174.19999694824</ele>
        <time>2024-05-20T12:05:25.000Z</time>
      </trkpt>
      <trkpt lat="46.07067" lon="4.76259">
        <ele>174.19999694824</ele>
        <time>2024-05-20T12:05:26.000Z</time>
      </trkpt>
      <trkpt lat="46.07061" lon="4.76262">
        <ele>174</ele>
        <time>2024-05-20T12:05:27.000Z</time>
      </trkpt>
      <trkpt lat="46.07055" lon="4.76265">
        <ele>174</ele>
        <time>2024-05-20T12:05:28.000Z</time>
      </trkpt>
      <trkpt lat="46.07049" lon="4.76268">
        <ele>174</ele>
        <time>2024-05-20T12:05:29.000Z</time>
      </trkpt>
      <trkpt lat="46.07043" lon="4.7627">
        <ele>174</ele>
        <time>2024-05-20T12:05:30.000Z</time>
      </trkpt>
      <trkpt lat="46.07037" lon="4.76273">
        <ele>174</ele>
        <time>2024-05-20T12:05:31.000Z</time>
      </trkpt>
      <trkpt lat="46.07031" lon="4.76276">
        <ele>174</ele>
        <time>2024-05-20T12:05:32.000Z</time>
      </trkpt>
      <trkpt lat="46.07025" lon="4.76279">
        <ele>174.19999694824</ele>
        <time>2024-05-20T12:05:33.000Z</time>
      </trkpt>
      <trkpt lat="46.07019" lon="4.76282">
        <ele>174.19999694824</ele>
        <time>2024-05-20T12:05:34.000Z</time>
      </trkpt>
      <trkpt lat="46.07014" lon="4.76285">
        <ele>174.39999389648</ele>
        <time>2024-05-20T12:05:35.000Z</time>
      </trkpt>
      <trkpt lat="46.07008" lon="4.76288">
        <ele>174.39999389648</ele>
        <time>2024-05-20T12:05:36.000Z</time>
      </trkpt>
      <trkpt lat="46.07002" lon="4.76291">
        <ele>174.39999389648</ele>
        <time>2024-05-20T12:05:37.000Z</time>
      </trkpt>
      <trkpt lat="46.06996" lon="4.76294">
        <ele>174.39999389648</ele>
        <time>2024-05-20T12:05:38.000Z</time>
      </trkpt>
      <trkpt lat="46.0699" lon="4.76297">
        <ele>174.39999389648</ele>
        <time>2024-05-20T12:05:39.000Z</time>
      </trkpt>
      <trkpt lat="46.06984" lon="4.763">
        <ele>174.39999389648</ele>
        <time>2024-05-20T12:05:40.000Z</time>
      </trkpt>
      <trkpt lat="46.06978" lon="4.76303">
        <ele>174.39999389648</ele>
        <time>2024-05-20T12:05:41.000Z</time>
      </trkpt>
      <trkpt lat="46.06972" lon="4.76306">
        <ele>174.39999389648</ele>
        <time>2024-05-20T12:05:42.000Z</time>
      </trkpt>
      <trkpt lat="46.06966" lon="4.76308">
        <ele>174</ele>
        <time>2024-05-20T12:05:43.000Z</time>
      </trkpt>
      <trkpt lat="46.0696" lon="4.7631">
        <ele>174</ele>
        <time>2024-05-20T12:05:44.000Z</time>
      </trkpt>
      <trkpt lat="46.06955" lon="4.76312">
        <ele>174</ele>
        <time>2024-05-20T12:05:45.000Z</time>
      </trkpt>
      <trkpt lat="46.06949" lon="4.76314">
        <ele>174</ele>
        <time>2024-05-20T12:05:46.000Z</time>
      </trkpt>
      <trkpt lat="46.06944" lon="4.76316">
        <ele>174</ele>
        <time>2024-05-20T12:05:47.000Z</time>
      </trkpt>
      <trkpt lat="46.06938" lon="4.76317">
        <ele>174</ele>
        <time>2024-05-20T12:05:48.000Z</time>
      </trkpt>
      <trkpt lat="46.06933" lon="4.76319">
        <ele>174.19999694824</ele>
        <time>2024-05-20T12:05:49.000Z</time>
      </trkpt>
      <trkpt lat="46.06927" lon="4.7632">
        <ele>174.19999694824</ele>
        <time>2024-05-20T12:05:50.000Z</time>
      </trkpt>
      <trkpt lat="46.06921" lon="4.76322">
        <ele>174.19999694824</ele>
        <time>2024-05-20T12:05:51.000Z</time>
      </trkpt>
      <trkpt lat="46.06915" lon="4.76324">
        <ele>174.19999694824</ele>
        <time>2024-05-20T12:05:52.000Z</time>
      </trkpt>
      <trkpt lat="46.06909" lon="4.76326">
        <ele>173.80000305176</ele>
        <time>2024-05-20T12:05:53.000Z</time>
      </trkpt>
      <trkpt lat="46.06903" lon="4.76328">
        <ele>173.80000305176</ele>
        <time>2024-05-20T12:05:54.000Z</time>
      </trkpt>
      <trkpt lat="46.06896" lon="4.7633">
        <ele>173.80000305176</ele>
        <time>2024-05-20T12:05:55.000Z</time>
      </trkpt>
      <trkpt lat="46.06889" lon="4.76332">
        <ele>173.80000305176</ele>
        <time>2024-05-20T12:05:56.000Z</time>
      </trkpt>
      <trkpt lat="46.06882" lon="4.76334">
        <ele>173.80000305176</ele>
        <time>2024-05-20T12:05:57.000Z</time>
      </trkpt>
      <trkpt lat="46.06875" lon="4.76336">
        <ele>173.80000305176</ele>
        <time>2024-05-20T12:05:58.000Z</time>
      </trkpt>
      <trkpt lat="46.06869" lon="4.76338">
        <ele>173.80000305176</ele>
        <time>2024-05-20T12:05:59.000Z</time>
      </trkpt>
      <trkpt lat="46.06862" lon="4.7634">
        <ele>173.80000305176</ele>
        <time>2024-05-20T12:06:00.000Z</time>
      </trkpt>
      <trkpt lat="46.06856" lon="4.76342">
        <ele>173.80000305176</ele>
        <time>2024-05-20T12:06:01.000Z</time>
      </trkpt>
      <trkpt lat="46.06849" lon="4.76345">
        <ele>173.60000610352</ele>
        <time>2024-05-20T12:06:02.000Z</time>
      </trkpt>
      <trkpt lat="46.06843" lon="4.76347">
        <ele>173.60000610352</ele>
        <time>2024-05-20T12:06:03.000Z</time>
      </trkpt>
      <trkpt lat="46.06836" lon="4.76349">
        <ele>173.39999389648</ele>
        <time>2024-05-20T12:06:04.000Z</time>
      </trkpt>
      <trkpt lat="46.0683" lon="4.76351">
        <ele>173.19999694824</ele>
        <time>2024-05-20T12:06:05.000Z</time>
      </trkpt>
      <trkpt lat="46.06824" lon="4.76353">
        <ele>173.19999694824</ele>
        <time>2024-05-20T12:06:06.000Z</time>
      </trkpt>
      <trkpt lat="46.06817" lon="4.76355">
        <ele>173.19999694824</ele>
        <time>2024-05-20T12:06:07.000Z</time>
      </trkpt>
      <trkpt lat="46.06811" lon="4.76357">
        <ele>173.19999694824</ele>
        <time>2024-05-20T12:06:08.000Z</time>
      </trkpt>
      <trkpt lat="46.06804" lon="4.76359">
        <ele>173.19999694824</ele>
        <time>2024-05-20T12:06:09.000Z</time>
      </trkpt>
      <trkpt lat="46.06798" lon="4.76362">
        <ele>173.19999694824</ele>
        <time>2024-05-20T12:06:10.000Z</time>
      </trkpt>
      <trkpt lat="46.06793" lon="4.76366">
        <ele>173.19999694824</ele>
        <time>2024-05-20T12:06:11.000Z</time>
      </trkpt>
      <trkpt lat="46.06787" lon="4.76371">
        <ele>173.39999389648</ele>
        <time>2024-05-20T12:06:12.000Z</time>
      </trkpt>
      <trkpt lat="46.06783" lon="4.76376">
        <ele>173.60000610352</ele>
        <time>2024-05-20T12:06:13.000Z</time>
      </trkpt>
      <trkpt lat="46.06779" lon="4.76381">
        <ele>173.80000305176</ele>
        <time>2024-05-20T12:06:14.000Z</time>
      </trkpt>
      <trkpt lat="46.06774" lon="4.76385">
        <ele>174.19999694824</ele>
        <time>2024-05-20T12:06:15.000Z</time>
      </trkpt>
      <trkpt lat="46.06769" lon="4.76387">
        <ele>174.19999694824</ele>
        <time>2024-05-20T12:06:16.000Z</time>
      </trkpt>
      <trkpt lat="46.06763" lon="4.76388">
        <ele>174.19999694824</ele>
        <time>2024-05-20T12:06:17.000Z</time>
      </trkpt>
      <trkpt lat="46.06758" lon="4.76387">
        <ele>174.19999694824</ele>
        <time>2024-05-20T12:06:18.000Z</time>
      </trkpt>
      <trkpt lat="46.06753" lon="4.76387">
        <ele>174.39999389648</ele>
        <time>2024-05-20T12:06:19.000Z</time>
      </trkpt>
      <trkpt lat="46.06747" lon="4.76387">
        <ele>174.39999389648</ele>
        <time>2024-05-20T12:06:20.000Z</time>
      </trkpt>
      <trkpt lat="46.06742" lon="4.76386">
        <ele>174.60000610352</ele>
        <time>2024-05-20T12:06:21.000Z</time>
      </trkpt>
      <trkpt lat="46.06736" lon="4.76386">
        <ele>174.80000305176</ele>
        <time>2024-05-20T12:06:22.000Z</time>
      </trkpt>
      <trkpt lat="46.06731" lon="4.76385">
        <ele>174.80000305176</ele>
        <time>2024-05-20T12:06:23.000Z</time>
      </trkpt>
      <trkpt lat="46.06726" lon="4.76385">
        <ele>174.80000305176</ele>
        <time>2024-05-20T12:06:24.000Z</time>
      </trkpt>
      <trkpt lat="46.0672" lon="4.76384">
        <ele>174.80000305176</ele>
        <time>2024-05-20T12:06:25.000Z</time>
      </trkpt>
      <trkpt lat="46.06715" lon="4.76383">
        <ele>174.80000305176</ele>
        <time>2024-05-20T12:06:26.000Z</time>
      </trkpt>
      <trkpt lat="46.06709" lon="4.76382">
        <ele>175</ele>
        <time>2024-05-20T12:06:27.000Z</time>
      </trkpt>
      <trkpt lat="46.06703" lon="4.76382">
        <ele>175</ele>
        <time>2024-05-20T12:06:28.000Z</time>
      </trkpt>
      <trkpt lat="46.06697" lon="4.76381">
        <ele>175</ele>
        <time>2024-05-20T12:06:29.000Z</time>
      </trkpt>
      <trkpt lat="46.06691" lon="4.76379">
        <ele>175</ele>
        <time>2024-05-20T12:06:30.000Z</time>
      </trkpt>
      <trkpt lat="46.06685" lon="4.76378">
        <ele>175</ele>
        <time>2024-05-20T12:06:31.000Z</time>
      </trkpt>
      <trkpt lat="46.06679" lon="4.76378">
        <ele>174.80000305176</ele>
        <time>2024-05-20T12:06:32.000Z</time>
      </trkpt>
      <trkpt lat="46.06674" lon="4.76378">
        <ele>174.80000305176</ele>
        <time>2024-05-20T12:06:33.000Z</time>
      </trkpt>
      <trkpt lat="46.06668" lon="4.76379">
        <ele>174.80000305176</ele>
        <time>2024-05-20T12:06:34.000Z</time>
      </trkpt>
      <trkpt lat="46.06662" lon="4.76379">
        <ele>174.80000305176</ele>
        <time>2024-05-20T12:06:35.000Z</time>
      </trkpt>
      <trkpt lat="46.06656" lon="4.76379">
        <ele>174.80000305176</ele>
        <time>2024-05-20T12:06:36.000Z</time>
      </trkpt>
      <trkpt lat="46.06649" lon="4.76379">
        <ele>174.80000305176</ele>
        <time>2024-05-20T12:06:37.000Z</time>
      </trkpt>
      <trkpt lat="46.06643" lon="4.76379">
        <ele>174.80000305176</ele>
        <time>2024-05-20T12:06:38.000Z</time>
      </trkpt>
      <trkpt lat="46.06637" lon="4.76379">
        <ele>174.80000305176</ele>
        <time>2024-05-20T12:06:39.000Z</time>
      </trkpt>
      <trkpt lat="46.06631" lon="4.76378">
        <ele>175</ele>
        <time>2024-05-20T12:06:40.000Z</time>
      </trkpt>
      <trkpt lat="46.06625" lon="4.76379">
        <ele>174.80000305176</ele>
        <time>2024-05-20T12:06:41.000Z</time>
      </trkpt>
      <trkpt lat="46.06618" lon="4.76378">
        <ele>174.80000305176</ele>
        <time>2024-05-20T12:06:42.000Z</time>
      </trkpt>
      <trkpt lat="46.06612" lon="4.76378">
        <ele>174.80000305176</ele>
        <time>2024-05-20T12:06:43.000Z</time>
      </trkpt>
      <trkpt lat="46.06607" lon="4.76377">
        <ele>174.80000305176</ele>
        <time>2024-05-20T12:06:44.000Z</time>
      </trkpt>
      <trkpt lat="46.06601" lon="4.76376">
        <ele>174.60000610352</ele>
        <time>2024-05-20T12:06:45.000Z</time>
      </trkpt>
      <trkpt lat="46.06595" lon="4.76375">
        <ele>174.60000610352</ele>
        <time>2024-05-20T12:06:46.000Z</time>
      </trkpt>
      <trkpt lat="46.06588" lon="4.76375">
        <ele>174.60000610352</ele>
        <time>2024-05-20T12:06:47.000Z</time>
      </trkpt>
      <trkpt lat="46.06582" lon="4.76375">
        <ele>174.60000610352</ele>
        <time>2024-05-20T12:06:48.000Z</time>
      </trkpt>
      <trkpt lat="46.06576" lon="4.76374">
        <ele>174.60000610352</ele>
        <time>2024-05-20T12:06:49.000Z</time>
      </trkpt>
      <trkpt lat="46.0657" lon="4.76373">
        <ele>174.60000610352</ele>
        <time>2024-05-20T12:06:50.000Z</time>
      </trkpt>
      <trkpt lat="46.06563" lon="4.76372">
        <ele>174.80000305176</ele>
        <time>2024-05-20T12:06:51.000Z</time>
      </trkpt>
      <trkpt lat="46.06557" lon="4.76372">
        <ele>174.80000305176</ele>
        <time>2024-05-20T12:06:52.000Z</time>
      </trkpt>
      <trkpt lat="46.06551" lon="4.76372">
        <ele>175</ele>
        <time>2024-05-20T12:06:53.000Z</time>
      </trkpt>
      <trkpt lat="46.06546" lon="4.76371">
        <ele>175</ele>
        <time>2024-05-20T12:06:54.000Z</time>
      </trkpt>
      <trkpt lat="46.06539" lon="4.7637">
        <ele>175.19999694824</ele>
        <time>2024-05-20T12:06:55.000Z</time>
      </trkpt>
      <trkpt lat="46.06534" lon="4.76369">
        <ele>175.19999694824</ele>
        <time>2024-05-20T12:06:56.000Z</time>
      </trkpt>
      <trkpt lat="46.06527" lon="4.76367">
        <ele>175.19999694824</ele>
        <time>2024-05-20T12:06:57.000Z</time>
      </trkpt>
      <trkpt lat="46.06522" lon="4.76365">
        <ele>175.19999694824</ele>
        <time>2024-05-20T12:06:58.000Z</time>
      </trkpt>
      <trkpt lat="46.06516" lon="4.76362">
        <ele>175.19999694824</ele>
        <time>2024-05-20T12:06:59.000Z</time>
      </trkpt>
      <trkpt lat="46.06511" lon="4.76359">
        <ele>175.39999389648</ele>
        <time>2024-05-20T12:07:00.000Z</time>
      </trkpt>
      <trkpt lat="46.06505" lon="4.76356">
        <ele>175.39999389648</ele>
        <time>2024-05-20T12:07:01.000Z</time>
      </trkpt>
      <trkpt lat="46.06499" lon="4.76353">
        <ele>175.39999389648</ele>
        <time>2024-05-20T12:07:02.000Z</time>
      </trkpt>
      <trkpt lat="46.06494" lon="4.7635">
        <ele>175.39999389648</ele>
        <time>2024-05-20T12:07:03.000Z</time>
      </trkpt>
      <trkpt lat="46.06487" lon="4.76347">
        <ele>175.39999389648</ele>
        <time>2024-05-20T12:07:04.000Z</time>
      </trkpt>
      <trkpt lat="46.06481" lon="4.76343">
        <ele>175.19999694824</ele>
        <time>2024-05-20T12:07:05.000Z</time>
      </trkpt>
      <trkpt lat="46.06475" lon="4.7634">
        <ele>175</ele>
        <time>2024-05-20T12:07:06.000Z</time>
      </trkpt>
      <trkpt lat="46.06469" lon="4.76337">
        <ele>175</ele>
        <time>2024-05-20T12:07:07.000Z</time>
      </trkpt>
      <trkpt lat="46.06463" lon="4.76335">
        <ele>175</ele>
        <time>2024-05-20T12:07:08.000Z</time>
      </trkpt>
      <trkpt lat="46.06457" lon="4.76333">
        <ele>174.80000305176</ele>
        <time>2024-05-20T12:07:09.000Z</time>
      </trkpt>
      <trkpt lat="46.0645" lon="4.76331">
        <ele>174.80000305176</ele>
        <time>2024-05-20T12:07:10.000Z</time>
      </trkpt>
      <trkpt lat="46.06444" lon="4.76329">
        <ele>174.80000305176</ele>
        <time>2024-05-20T12:07:11.000Z</time>
      </trkpt>
      <trkpt lat="46.06438" lon="4.76327">
        <ele>174.80000305176</ele>
        <time>2024-05-20T12:07:12.000Z</time>
      </trkpt>
      <trkpt lat="46.06432" lon="4.76325">
        <ele>174.80000305176</ele>
        <time>2024-05-20T12:07:13.000Z</time>
      </trkpt>
      <trkpt lat="46.06426" lon="4.76323">
        <ele>174.60000610352</ele>
        <time>2024-05-20T12:07:14.000Z</time>
      </trkpt>
      <trkpt lat="46.06419" lon="4.76322">
        <ele>174.39999389648</ele>
        <time>2024-05-20T12:07:15.000Z</time>
      </trkpt>
      <trkpt lat="46.06413" lon="4.7632">
        <ele>174.39999389648</ele>
        <time>2024-05-20T12:07:16.000Z</time>
      </trkpt>
      <trkpt lat="46.06407" lon="4.76319">
        <ele>174.19999694824</ele>
        <time>2024-05-20T12:07:17.000Z</time>
      </trkpt>
      <trkpt lat="46.06401" lon="4.76317">
        <ele>174.19999694824</ele>
        <time>2024-05-20T12:07:18.000Z</time>
      </trkpt>
      <trkpt lat="46.06395" lon="4.76316">
        <ele>174</ele>
        <time>2024-05-20T12:07:19.000Z</time>
      </trkpt>
      <trkpt lat="46.06389" lon="4.76314">
        <ele>174</ele>
        <time>2024-05-20T12:07:20.000Z</time>
      </trkpt>
      <trkpt lat="46.06383" lon="4.76312">
        <ele>174</ele>
        <time>2024-05-20T12:07:21.000Z</time>
      </trkpt>
      <trkpt lat="46.06378" lon="4.76309">
        <ele>174</ele>
        <time>2024-05-20T12:07:22.000Z</time>
      </trkpt>
      <trkpt lat="46.06373" lon="4.76307">
        <ele>174.19999694824</ele>
        <time>2024-05-20T12:07:23.000Z</time>
      </trkpt>
      <trkpt lat="46.06368" lon="4.76305">
        <ele>174.19999694824</ele>
        <time>2024-05-20T12:07:24.000Z</time>
      </trkpt>
      <trkpt lat="46.06362" lon="4.76302">
        <ele>174.19999694824</ele>
        <time>2024-05-20T12:07:25.000Z</time>
      </trkpt>
      <trkpt lat="46.06356" lon="4.76299">
        <ele>174.19999694824</ele>
        <time>2024-05-20T12:07:26.000Z</time>
      </trkpt>
      <trkpt lat="46.06351" lon="4.76296">
        <ele>174.19999694824</ele>
        <time>2024-05-20T12:07:27.000Z</time>
      </trkpt>
      <trkpt lat="46.06346" lon="4.76293">
        <ele>174.19999694824</ele>
        <time>2024-05-20T12:07:28.000Z</time>
      </trkpt>
      <trkpt lat="46.0634" lon="4.76291">
        <ele>174.19999694824</ele>
        <time>2024-05-20T12:07:29.000Z</time>
      </trkpt>
      <trkpt lat="46.06335" lon="4.76287">
        <ele>174.19999694824</ele>
        <time>2024-05-20T12:07:30.000Z</time>
      </trkpt>
      <trkpt lat="46.06329" lon="4.76284">
        <ele>174.19999694824</ele>
        <time>2024-05-20T12:07:31.000Z</time>
      </trkpt>
      <trkpt lat="46.06324" lon="4.76281">
        <ele>174</ele>
        <time>2024-05-20T12:07:32.000Z</time>
      </trkpt>
      <trkpt lat="46.06318" lon="4.76277">
        <ele>174</ele>
        <time>2024-05-20T12:07:33.000Z</time>
      </trkpt>
      <trkpt lat="46.06312" lon="4.76274">
        <ele>174.19999694824</ele>
        <time>2024-05-20T12:07:34.000Z</time>
      </trkpt>
      <trkpt lat="46.06307" lon="4.76271">
        <ele>174.19999694824</ele>
        <time>2024-05-20T12:07:35.000Z</time>
      </trkpt>
      <trkpt lat="46.06301" lon="4.76267">
        <ele>174.19999694824</ele>
        <time>2024-05-20T12:07:36.000Z</time>
      </trkpt>
      <trkpt lat="46.06295" lon="4.76264">
        <ele>174.19999694824</ele>
        <time>2024-05-20T12:07:37.000Z</time>
      </trkpt>
      <trkpt lat="46.0629" lon="4.7626">
        <ele>174.19999694824</ele>
        <time>2024-05-20T12:07:38.000Z</time>
      </trkpt>
      <trkpt lat="46.06284" lon="4.76257">
        <ele>174.19999694824</ele>
        <time>2024-05-20T12:07:39.000Z</time>
      </trkpt>
      <trkpt lat="46.06278" lon="4.76253">
        <ele>174.19999694824</ele>
        <time>2024-05-20T12:07:40.000Z</time>
      </trkpt>
      <trkpt lat="46.06273" lon="4.7625">
        <ele>174.19999694824</ele>
        <time>2024-05-20T12:07:41.000Z</time>
      </trkpt>
      <trkpt lat="46.06267" lon="4.76247">
        <ele>174.39999389648</ele>
        <time>2024-05-20T12:07:42.000Z</time>
      </trkpt>
      <trkpt lat="46.06261" lon="4.76243">
        <ele>174.39999389648</ele>
        <time>2024-05-20T12:07:43.000Z</time>
      </trkpt>
      <trkpt lat="46.06256" lon="4.7624">
        <ele>174.19999694824</ele>
        <time>2024-05-20T12:07:44.000Z</time>
      </trkpt>
      <trkpt lat="46.0625" lon="4.76236">
        <ele>174.19999694824</ele>
        <time>2024-05-20T12:07:45.000Z</time>
      </trkpt>
      <trkpt lat="46.06244" lon="4.76232">
        <ele>174.19999694824</ele>
        <time>2024-05-20T12:07:46.000Z</time>
      </trkpt>
      <trkpt lat="46.06238" lon="4.76228">
        <ele>174</ele>
        <time>2024-05-20T12:07:47.000Z</time>
      </trkpt>
      <trkpt lat="46.06233" lon="4.76225">
        <ele>174</ele>
        <time>2024-05-20T12:07:48.000Z</time>
      </trkpt>
      <trkpt lat="46.06228" lon="4.76222">
        <ele>174</ele>
        <time>2024-05-20T12:07:49.000Z</time>
      </trkpt>
      <trkpt lat="46.06222" lon="4.76218">
        <ele>174</ele>
        <time>2024-05-20T12:07:50.000Z</time>
      </trkpt>
      <trkpt lat="46.06217" lon="4.76214">
        <ele>174</ele>
        <time>2024-05-20T12:07:51.000Z</time>
      </trkpt>
      <trkpt lat="46.06212" lon="4.7621">
        <ele>174.19999694824</ele>
        <time>2024-05-20T12:07:52.000Z</time>
      </trkpt>
      <trkpt lat="46.06207" lon="4.76206">
        <ele>174.60000610352</ele>
        <time>2024-05-20T12:07:53.000Z</time>
      </trkpt>
      <trkpt lat="46.06202" lon="4.76202">
        <ele>174.60000610352</ele>
        <time>2024-05-20T12:07:54.000Z</time>
      </trkpt>
      <trkpt lat="46.06197" lon="4.76198">
        <ele>174.60000610352</ele>
        <time>2024-05-20T12:07:55.000Z</time>
      </trkpt>
      <trkpt lat="46.06192" lon="4.76194">
        <ele>174.80000305176</ele>
        <time>2024-05-20T12:07:56.000Z</time>
      </trkpt>
      <trkpt lat="46.06187" lon="4.76191">
        <ele>175</ele>
        <time>2024-05-20T12:07:57.000Z</time>
      </trkpt>
      <trkpt lat="46.06182" lon="4.76187">
        <ele>175</ele>
        <time>2024-05-20T12:07:58.000Z</time>
      </trkpt>
      <trkpt lat="46.06177" lon="4.76183">
        <ele>175</ele>
        <time>2024-05-20T12:07:59.000Z</time>
      </trkpt>
      <trkpt lat="46.06172" lon="4.76179">
        <ele>175</ele>
        <time>2024-05-20T12:08:00.000Z</time>
      </trkpt>
      <trkpt lat="46.06167" lon="4.76174">
        <ele>174.80000305176</ele>
        <time>2024-05-20T12:08:01.000Z</time>
      </trkpt>
      <trkpt lat="46.06162" lon="4.76169">
        <ele>174.80000305176</ele>
        <time>2024-05-20T12:08:02.000Z</time>
      </trkpt>
      <trkpt lat="46.06157" lon="4.76165">
        <ele>174.80000305176</ele>
        <time>2024-05-20T12:08:03.000Z</time>
      </trkpt>
      <trkpt lat="46.06152" lon="4.7616">
        <ele>174.80000305176</ele>
        <time>2024-05-20T12:08:04.000Z</time>
      </trkpt>
      <trkpt lat="46.06146" lon="4.76156">
        <ele>174.80000305176</ele>
        <time>2024-05-20T12:08:05.000Z</time>
      </trkpt>
      <trkpt lat="46.06141" lon="4.76151">
        <ele>174.80000305176</ele>
        <time>2024-05-20T12:08:06.000Z</time>
      </trkpt>
      <trkpt lat="46.06136" lon="4.76147">
        <ele>174.60000610352</ele>
        <time>2024-05-20T12:08:07.000Z</time>
      </trkpt>
      <trkpt lat="46.0613" lon="4.76142">
        <ele>174.39999389648</ele>
        <time>2024-05-20T12:08:08.000Z</time>
      </trkpt>
      <trkpt lat="46.06125" lon="4.76137">
        <ele>174.39999389648</ele>
        <time>2024-05-20T12:08:09.000Z</time>
      </trkpt>
      <trkpt lat="46.06119" lon="4.76132">
        <ele>174.39999389648</ele>
        <time>2024-05-20T12:08:10.000Z</time>
      </trkpt>
      <trkpt lat="46.06114" lon="4.76127">
        <ele>174.39999389648</ele>
        <time>2024-05-20T12:08:11.000Z</time>
      </trkpt>
      <trkpt lat="46.06108" lon="4.76122">
        <ele>174.19999694824</ele>
        <time>2024-05-20T12:08:12.000Z</time>
      </trkpt>
      <trkpt lat="46.06103" lon="4.76118">
        <ele>174</ele>
        <time>2024-05-20T12:08:13.000Z</time>
      </trkpt>
      <trkpt lat="46.06097" lon="4.76113">
        <ele>173.80000305176</ele>
        <time>2024-05-20T12:08:14.000Z</time>
      </trkpt>
      <trkpt lat="46.06092" lon="4.76108">
        <ele>173.80000305176</ele>
        <time>2024-05-20T12:08:15.000Z</time>
      </trkpt>
      <trkpt lat="46.06086" lon="4.76104">
        <ele>173.80000305176</ele>
        <time>2024-05-20T12:08:16.000Z</time>
      </trkpt>
      <trkpt lat="46.06081" lon="4.761">
        <ele>173.80000305176</ele>
        <time>2024-05-20T12:08:17.000Z</time>
      </trkpt>
      <trkpt lat="46.06076" lon="4.76097">
        <ele>173.80000305176</ele>
        <time>2024-05-20T12:08:18.000Z</time>
      </trkpt>
      <trkpt lat="46.06071" lon="4.76093">
        <ele>174</ele>
        <time>2024-05-20T12:08:19.000Z</time>
      </trkpt>
      <trkpt lat="46.06067" lon="4.76088">
        <ele>174.39999389648</ele>
        <time>2024-05-20T12:08:20.000Z</time>
      </trkpt>
      <trkpt lat="46.06062" lon="4.76084">
        <ele>174.60000610352</ele>
        <time>2024-05-20T12:08:21.000Z</time>
      </trkpt>
      <trkpt lat="46.06057" lon="4.76079">
        <ele>174.60000610352</ele>
        <time>2024-05-20T12:08:22.000Z</time>
      </trkpt>
      <trkpt lat="46.06051" lon="4.76074">
        <ele>174.60000610352</ele>
        <time>2024-05-20T12:08:23.000Z</time>
      </trkpt>
      <trkpt lat="46.06046" lon="4.76069">
        <ele>174.60000610352</ele>
        <time>2024-05-20T12:08:24.000Z</time>
      </trkpt>
      <trkpt lat="46.0604" lon="4.76064">
        <ele>174.19999694824</ele>
        <time>2024-05-20T12:08:25.000Z</time>
      </trkpt>
      <trkpt lat="46.06035" lon="4.76059">
        <ele>174</ele>
        <time>2024-05-20T12:08:26.000Z</time>
      </trkpt>
      <trkpt lat="46.06029" lon="4.76054">
        <ele>173.80000305176</ele>
        <time>2024-05-20T12:08:27.000Z</time>
      </trkpt>
      <trkpt lat="46.06024" lon="4.76049">
        <ele>173.80000305176</ele>
        <time>2024-05-20T12:08:28.000Z</time>
      </trkpt>
      <trkpt lat="46.06018" lon="4.76044">
        <ele>173.60000610352</ele>
        <time>2024-05-20T12:08:29.000Z</time>
      </trkpt>
      <trkpt lat="46.06012" lon="4.76039">
        <ele>173.60000610352</ele>
        <time>2024-05-20T12:08:30.000Z</time>
      </trkpt>
      <trkpt lat="46.06006" lon="4.76034">
        <ele>173.60000610352</ele>
        <time>2024-05-20T12:08:31.000Z</time>
      </trkpt>
      <trkpt lat="46.06001" lon="4.76029">
        <ele>173.39999389648</ele>
        <time>2024-05-20T12:08:32.000Z</time>
      </trkpt>
      <trkpt lat="46.05995" lon="4.76024">
        <ele>173.39999389648</ele>
        <time>2024-05-20T12:08:33.000Z</time>
      </trkpt>
      <trkpt lat="46.0599" lon="4.76019">
        <ele>173.39999389648</ele>
        <time>2024-05-20T12:08:34.000Z</time>
      </trkpt>
      <trkpt lat="46.05985" lon="4.76014">
        <ele>173.39999389648</ele>
        <time>2024-05-20T12:08:35.000Z</time>
      </trkpt>
      <trkpt lat="46.05979" lon="4.76009">
        <ele>173.60000610352</ele>
        <time>2024-05-20T12:08:36.000Z</time>
      </trkpt>
      <trkpt lat="46.05974" lon="4.76003">
        <ele>173.80000305176</ele>
        <time>2024-05-20T12:08:37.000Z</time>
      </trkpt>
      <trkpt lat="46.05969" lon="4.75997">
        <ele>173.80000305176</ele>
        <time>2024-05-20T12:08:38.000Z</time>
      </trkpt>
      <trkpt lat="46.05964" lon="4.75991">
        <ele>173.80000305176</ele>
        <time>2024-05-20T12:08:39.000Z</time>
      </trkpt>
      <trkpt lat="46.05958" lon="4.75986">
        <ele>173.80000305176</ele>
        <time>2024-05-20T12:08:40.000Z</time>
      </trkpt>
      <trkpt lat="46.05953" lon="4.7598">
        <ele>173.80000305176</ele>
        <time>2024-05-20T12:08:41.000Z</time>
      </trkpt>
      <trkpt lat="46.05948" lon="4.75975">
        <ele>173.80000305176</ele>
        <time>2024-05-20T12:08:42.000Z</time>
      </trkpt>
      <trkpt lat="46.05942" lon="4.75969">
        <ele>173.60000610352</ele>
        <time>2024-05-20T12:08:43.000Z</time>
      </trkpt>
      <trkpt lat="46.05936" lon="4.75964">
        <ele>173.60000610352</ele>
        <time>2024-05-20T12:08:44.000Z</time>
      </trkpt>
      <trkpt lat="46.05931" lon="4.75958">
        <ele>173.60000610352</ele>
        <time>2024-05-20T12:08:45.000Z</time>
      </trkpt>
      <trkpt lat="46.05926" lon="4.75952">
        <ele>173.39999389648</ele>
        <time>2024-05-20T12:08:46.000Z</time>
      </trkpt>
      <trkpt lat="46.05921" lon="4.75946">
        <ele>173.19999694824</ele>
        <time>2024-05-20T12:08:47.000Z</time>
      </trkpt>
      <trkpt lat="46.05916" lon="4.7594">
        <ele>173.19999694824</ele>
        <time>2024-05-20T12:08:48.000Z</time>
      </trkpt>
      <trkpt lat="46.05911" lon="4.75935">
        <ele>173.19999694824</ele>
        <time>2024-05-20T12:08:49.000Z</time>
      </trkpt>
      <trkpt lat="46.05906" lon="4.75929">
        <ele>173.19999694824</ele>
        <time>2024-05-20T12:08:50.000Z</time>
      </trkpt>
      <trkpt lat="46.05902" lon="4.75923">
        <ele>173.39999389648</ele>
        <time>2024-05-20T12:08:51.000Z</time>
      </trkpt>
      <trkpt lat="46.05897" lon="4.75916">
        <ele>173.39999389648</ele>
        <time>2024-05-20T12:08:52.000Z</time>
      </trkpt>
      <trkpt lat="46.05892" lon="4.75911">
        <ele>173.60000610352</ele>
        <time>2024-05-20T12:08:53.000Z</time>
      </trkpt>
      <trkpt lat="46.05887" lon="4.75905">
        <ele>173.60000610352</ele>
        <time>2024-05-20T12:08:54.000Z</time>
      </trkpt>
      <trkpt lat="46.05882" lon="4.75899">
        <ele>173.60000610352</ele>
        <time>2024-05-20T12:08:55.000Z</time>
      </trkpt>
      <trkpt lat="46.05878" lon="4.75893">
        <ele>173.60000610352</ele>
        <time>2024-05-20T12:08:56.000Z</time>
      </trkpt>
      <trkpt lat="46.05873" lon="4.75887">
        <ele>173.60000610352</ele>
        <time>2024-05-20T12:08:57.000Z</time>
      </trkpt>
      <trkpt lat="46.05868" lon="4.75881">
        <ele>173.60000610352</ele>
        <time>2024-05-20T12:08:58.000Z</time>
      </trkpt>
      <trkpt lat="46.05863" lon="4.75875">
        <ele>173.60000610352</ele>
        <time>2024-05-20T12:08:59.000Z</time>
      </trkpt>
      <trkpt lat="46.05859" lon="4.75868">
        <ele>173.39999389648</ele>
        <time>2024-05-20T12:09:00.000Z</time>
      </trkpt>
      <trkpt lat="46.05854" lon="4.75862">
        <ele>173.39999389648</ele>
        <time>2024-05-20T12:09:01.000Z</time>
      </trkpt>
      <trkpt lat="46.05849" lon="4.75856">
        <ele>173.39999389648</ele>
        <time>2024-05-20T12:09:02.000Z</time>
      </trkpt>
      <trkpt lat="46.05845" lon="4.75849">
        <ele>173.19999694824</ele>
        <time>2024-05-20T12:09:03.000Z</time>
      </trkpt>
      <trkpt lat="46.0584" lon="4.75843">
        <ele>173.19999694824</ele>
        <time>2024-05-20T12:09:04.000Z</time>
      </trkpt>
      <trkpt lat="46.05835" lon="4.75837">
        <ele>173.19999694824</ele>
        <time>2024-05-20T12:09:05.000Z</time>
      </trkpt>
      <trkpt lat="46.05831" lon="4.7583">
        <ele>173.19999694824</ele>
        <time>2024-05-20T12:09:06.000Z</time>
      </trkpt>
      <trkpt lat="46.05826" lon="4.75824">
        <ele>172.80000305176</ele>
        <time>2024-05-20T12:09:07.000Z</time>
      </trkpt>
      <trkpt lat="46.05821" lon="4.75817">
        <ele>172.80000305176</ele>
        <time>2024-05-20T12:09:08.000Z</time>
      </trkpt>
      <trkpt lat="46.05817" lon="4.75811">
        <ele>172.80000305176</ele>
        <time>2024-05-20T12:09:09.000Z</time>
      </trkpt>
      <trkpt lat="46.05812" lon="4.75804">
        <ele>172.80000305176</ele>
        <time>2024-05-20T12:09:10.000Z</time>
      </trkpt>
      <trkpt lat="46.05808" lon="4.75798">
        <ele>172.80000305176</ele>
        <time>2024-05-20T12:09:11.000Z</time>
      </trkpt>
      <trkpt lat="46.05803" lon="4.75791">
        <ele>172.60000610352</ele>
        <time>2024-05-20T12:09:12.000Z</time>
      </trkpt>
      <trkpt lat="46.05798" lon="4.75785">
        <ele>172.60000610352</ele>
        <time>2024-05-20T12:09:13.000Z</time>
      </trkpt>
      <trkpt lat="46.05793" lon="4.75778">
        <ele>172.39999389648</ele>
        <time>2024-05-20T12:09:14.000Z</time>
      </trkpt>
      <trkpt lat="46.05788" lon="4.75772">
        <ele>172.39999389648</ele>
        <time>2024-05-20T12:09:15.000Z</time>
      </trkpt>
      <trkpt lat="46.05783" lon="4.75765">
        <ele>172.39999389648</ele>
        <time>2024-05-20T12:09:16.000Z</time>
      </trkpt>
      <trkpt lat="46.05778" lon="4.75759">
        <ele>172.39999389648</ele>
        <time>2024-05-20T12:09:17.000Z</time>
      </trkpt>
      <trkpt lat="46.05774" lon="4.75753">
        <ele>172.39999389648</ele>
        <time>2024-05-20T12:09:18.000Z</time>
      </trkpt>
      <trkpt lat="46.05769" lon="4.75747">
        <ele>172.19999694824</ele>
        <time>2024-05-20T12:09:19.000Z</time>
      </trkpt>
      <trkpt lat="46.05764" lon="4.75741">
        <ele>172.19999694824</ele>
        <time>2024-05-20T12:09:20.000Z</time>
      </trkpt>
      <trkpt lat="46.05759" lon="4.75735">
        <ele>172.19999694824</ele>
        <time>2024-05-20T12:09:21.000Z</time>
      </trkpt>
      <trkpt lat="46.05754" lon="4.75729">
        <ele>172</ele>
        <time>2024-05-20T12:09:22.000Z</time>
      </trkpt>
      <trkpt lat="46.05749" lon="4.75723">
        <ele>172</ele>
        <time>2024-05-20T12:09:23.000Z</time>
      </trkpt>
      <trkpt lat="46.05744" lon="4.75717">
        <ele>172</ele>
        <time>2024-05-20T12:09:24.000Z</time>
      </trkpt>
      <trkpt lat="46.0574" lon="4.75711">
        <ele>172</ele>
        <time>2024-05-20T12:09:25.000Z</time>
      </trkpt>
      <trkpt lat="46.05735" lon="4.75705">
        <ele>172</ele>
        <time>2024-05-20T12:09:26.000Z</time>
      </trkpt>
      <trkpt lat="46.05731" lon="4.757">
        <ele>172.19999694824</ele>
        <time>2024-05-20T12:09:27.000Z</time>
      </trkpt>
      <trkpt lat="46.05726" lon="4.75694">
        <ele>172.19999694824</ele>
        <time>2024-05-20T12:09:28.000Z</time>
      </trkpt>
      <trkpt lat="46.05721" lon="4.75688">
        <ele>172.19999694824</ele>
        <time>2024-05-20T12:09:29.000Z</time>
      </trkpt>
      <trkpt lat="46.05716" lon="4.75682">
        <ele>172.19999694824</ele>
        <time>2024-05-20T12:09:30.000Z</time>
      </trkpt>
      <trkpt lat="46.05711" lon="4.75676">
        <ele>172.19999694824</ele>
        <time>2024-05-20T12:09:31.000Z</time>
      </trkpt>
      <trkpt lat="46.05706" lon="4.7567">
        <ele>172.19999694824</ele>
        <time>2024-05-20T12:09:32.000Z</time>
      </trkpt>
      <trkpt lat="46.05701" lon="4.75664">
        <ele>172.19999694824</ele>
        <time>2024-05-20T12:09:33.000Z</time>
      </trkpt>
      <trkpt lat="46.05696" lon="4.75658">
        <ele>172.19999694824</ele>
        <time>2024-05-20T12:09:34.000Z</time>
      </trkpt>
      <trkpt lat="46.05691" lon="4.75653">
        <ele>172.39999389648</ele>
        <time>2024-05-20T12:09:35.000Z</time>
      </trkpt>
      <trkpt lat="46.05686" lon="4.75647">
        <ele>172.60000610352</ele>
        <time>2024-05-20T12:09:36.000Z</time>
      </trkpt>
      <trkpt lat="46.05681" lon="4.75642">
        <ele>172.60000610352</ele>
        <time>2024-05-20T12:09:37.000Z</time>
      </trkpt>
      <trkpt lat="46.05675" lon="4.75637">
        <ele>172.60000610352</ele>
        <time>2024-05-20T12:09:38.000Z</time>
      </trkpt>
      <trkpt lat="46.0567" lon="4.75632">
        <ele>172.60000610352</ele>
        <time>2024-05-20T12:09:39.000Z</time>
      </trkpt>
      <trkpt lat="46.05665" lon="4.75627">
        <ele>172.60000610352</ele>
        <time>2024-05-20T12:09:40.000Z</time>
      </trkpt>
      <trkpt lat="46.05661" lon="4.75621">
        <ele>172.80000305176</ele>
        <time>2024-05-20T12:09:41.000Z</time>
      </trkpt>
      <trkpt lat="46.05657" lon="4.75616">
        <ele>172.80000305176</ele>
        <time>2024-05-20T12:09:42.000Z</time>
      </trkpt>
      <trkpt lat="46.05653" lon="4.7561">
        <ele>172.80000305176</ele>
        <time>2024-05-20T12:09:43.000Z</time>
      </trkpt>
      <trkpt lat="46.05648" lon="4.75604">
        <ele>173</ele>
        <time>2024-05-20T12:09:44.000Z</time>
      </trkpt>
      <trkpt lat="46.05644" lon="4.75597">
        <ele>173.19999694824</ele>
        <time>2024-05-20T12:09:45.000Z</time>
      </trkpt>
      <trkpt lat="46.0564" lon="4.75591">
        <ele>173.19999694824</ele>
        <time>2024-05-20T12:09:46.000Z</time>
      </trkpt>
      <trkpt lat="46.05636" lon="4.75585">
        <ele>173.39999389648</ele>
        <time>2024-05-20T12:09:47.000Z</time>
      </trkpt>
      <trkpt lat="46.05632" lon="4.75579">
        <ele>173.39999389648</ele>
        <time>2024-05-20T12:09:48.000Z</time>
      </trkpt>
      <trkpt lat="46.05627" lon="4.75573">
        <ele>173.39999389648</ele>
        <time>2024-05-20T12:09:49.000Z</time>
      </trkpt>
      <trkpt lat="46.05623" lon="4.75566">
        <ele>173.39999389648</ele>
        <time>2024-05-20T12:09:50.000Z</time>
      </trkpt>
      <trkpt lat="46.05619" lon="4.75561">
        <ele>173.60000610352</ele>
        <time>2024-05-20T12:09:51.000Z</time>
      </trkpt>
      <trkpt lat="46.05614" lon="4.75554">
        <ele>173.60000610352</ele>
        <time>2024-05-20T12:09:52.000Z</time>
      </trkpt>
      <trkpt lat="46.0561" lon="4.75548">
        <ele>173.60000610352</ele>
        <time>2024-05-20T12:09:53.000Z</time>
      </trkpt>
      <trkpt lat="46.05605" lon="4.75542">
        <ele>173.60000610352</ele>
        <time>2024-05-20T12:09:54.000Z</time>
      </trkpt>
      <trkpt lat="46.05601" lon="4.75536">
        <ele>173.60000610352</ele>
        <time>2024-05-20T12:09:55.000Z</time>
      </trkpt>
      <trkpt lat="46.05597" lon="4.75529">
        <ele>173.60000610352</ele>
        <time>2024-05-20T12:09:56.000Z</time>
      </trkpt>
      <trkpt lat="46.05593" lon="4.75523">
        <ele>173.60000610352</ele>
        <time>2024-05-20T12:09:57.000Z</time>
      </trkpt>
      <trkpt lat="46.05588" lon="4.75516">
        <ele>173.60000610352</ele>
        <time>2024-05-20T12:09:58.000Z</time>
      </trkpt>
      <trkpt lat="46.05584" lon="4.75509">
        <ele>173.60000610352</ele>
        <time>2024-05-20T12:09:59.000Z</time>
      </trkpt>
      <trkpt lat="46.0558" lon="4.75503">
        <ele>173.60000610352</ele>
        <time>2024-05-20T12:10:00.000Z</time>
      </trkpt>
      <trkpt lat="46.05576" lon="4.75497">
        <ele>173.60000610352</ele>
        <time>2024-05-20T12:10:01.000Z</time>
      </trkpt>
      <trkpt lat="46.05571" lon="4.7549">
        <ele>173.60000610352</ele>
        <time>2024-05-20T12:10:02.000Z</time>
      </trkpt>
      <trkpt lat="46.05567" lon="4.75483">
        <ele>173.80000305176</ele>
        <time>2024-05-20T12:10:03.000Z</time>
      </trkpt>
      <trkpt lat="46.05563" lon="4.75476">
        <ele>173.80000305176</ele>
        <time>2024-05-20T12:10:04.000Z</time>
      </trkpt>
      <trkpt lat="46.05559" lon="4.7547">
        <ele>173.80000305176</ele>
        <time>2024-05-20T12:10:05.000Z</time>
      </trkpt>
      <trkpt lat="46.05555" lon="4.75463">
        <ele>173.80000305176</ele>
        <time>2024-05-20T12:10:06.000Z</time>
      </trkpt>
      <trkpt lat="46.0555" lon="4.75457">
        <ele>173.80000305176</ele>
        <time>2024-05-20T12:10:07.000Z</time>
      </trkpt>
      <trkpt lat="46.05546" lon="4.7545">
        <ele>173.80000305176</ele>
        <time>2024-05-20T12:10:08.000Z</time>
      </trkpt>
      <trkpt lat="46.05542" lon="4.75443">
        <ele>173.80000305176</ele>
        <time>2024-05-20T12:10:09.000Z</time>
      </trkpt>
      <trkpt lat="46.05537" lon="4.75437">
        <ele>173.80000305176</ele>
        <time>2024-05-20T12:10:10.000Z</time>
      </trkpt>
      <trkpt lat="46.05533" lon="4.7543">
        <ele>173.80000305176</ele>
        <time>2024-05-20T12:10:11.000Z</time>
      </trkpt>
      <trkpt lat="46.05528" lon="4.75424">
        <ele>173.80000305176</ele>
        <time>2024-05-20T12:10:12.000Z</time>
      </trkpt>
      <trkpt lat="46.05524" lon="4.75417">
        <ele>173.80000305176</ele>
        <time>2024-05-20T12:10:13.000Z</time>
      </trkpt>
      <trkpt lat="46.0552" lon="4.75411">
        <ele>173.60000610352</ele>
        <time>2024-05-20T12:10:14.000Z</time>
      </trkpt>
      <trkpt lat="46.05516" lon="4.75404">
        <ele>173.60000610352</ele>
        <time>2024-05-20T12:10:15.000Z</time>
      </trkpt>
      <trkpt lat="46.05511" lon="4.75398">
        <ele>173.60000610352</ele>
        <time>2024-05-20T12:10:16.000Z</time>
      </trkpt>
      <trkpt lat="46.05507" lon="4.75391">
        <ele>173.60000610352</ele>
        <time>2024-05-20T12:10:17.000Z</time>
      </trkpt>
      <trkpt lat="46.05502" lon="4.75385">
        <ele>173.39999389648</ele>
        <time>2024-05-20T12:10:18.000Z</time>
      </trkpt>
      <trkpt lat="46.05498" lon="4.75379">
        <ele>173.39999389648</ele>
        <time>2024-05-20T12:10:19.000Z</time>
      </trkpt>
      <trkpt lat="46.05493" lon="4.75373">
        <ele>173.39999389648</ele>
        <time>2024-05-20T12:10:20.000Z</time>
      </trkpt>
      <trkpt lat="46.05488" lon="4.75368">
        <ele>173.39999389648</ele>
        <time>2024-05-20T12:10:21.000Z</time>
      </trkpt>
      <trkpt lat="46.05483" lon="4.75362">
        <ele>173.39999389648</ele>
        <time>2024-05-20T12:10:22.000Z</time>
      </trkpt>
      <trkpt lat="46.05478" lon="4.75357">
        <ele>173.39999389648</ele>
        <time>2024-05-20T12:10:23.000Z</time>
      </trkpt>
      <trkpt lat="46.05473" lon="4.75351">
        <ele>173.39999389648</ele>
        <time>2024-05-20T12:10:24.000Z</time>
      </trkpt>
      <trkpt lat="46.05468" lon="4.75345">
        <ele>173.39999389648</ele>
        <time>2024-05-20T12:10:25.000Z</time>
      </trkpt>
      <trkpt lat="46.05463" lon="4.7534">
        <ele>173.39999389648</ele>
        <time>2024-05-20T12:10:26.000Z</time>
      </trkpt>
      <trkpt lat="46.05458" lon="4.75335">
        <ele>173.39999389648</ele>
        <time>2024-05-20T12:10:27.000Z</time>
      </trkpt>
      <trkpt lat="46.05453" lon="4.7533">
        <ele>173.39999389648</ele>
        <time>2024-05-20T12:10:28.000Z</time>
      </trkpt>
      <trkpt lat="46.05448" lon="4.75325">
        <ele>173.19999694824</ele>
        <time>2024-05-20T12:10:29.000Z</time>
      </trkpt>
      <trkpt lat="46.05442" lon="4.75321">
        <ele>173.19999694824</ele>
        <time>2024-05-20T12:10:30.000Z</time>
      </trkpt>
      <trkpt lat="46.05437" lon="4.75316">
        <ele>173.39999389648</ele>
        <time>2024-05-20T12:10:31.000Z</time>
      </trkpt>
      <trkpt lat="46.05432" lon="4.75311">
        <ele>173.39999389648</ele>
        <time>2024-05-20T12:10:32.000Z</time>
      </trkpt>
      <trkpt lat="46.05427" lon="4.75306">
        <ele>173.39999389648</ele>
        <time>2024-05-20T12:10:33.000Z</time>
      </trkpt>
      <trkpt lat="46.05422" lon="4.753">
        <ele>173.39999389648</ele>
        <time>2024-05-20T12:10:34.000Z</time>
      </trkpt>
      <trkpt lat="46.05417" lon="4.75292">
        <ele>173.39999389648</ele>
        <time>2024-05-20T12:10:35.000Z</time>
      </trkpt>
      <trkpt lat="46.05413" lon="4.75284">
        <ele>173.39999389648</ele>
        <time>2024-05-20T12:10:36.000Z</time>
      </trkpt>
      <trkpt lat="46.05411" lon="4.75276">
        <ele>173.39999389648</ele>
        <time>2024-05-20T12:10:37.000Z</time>
      </trkpt>
      <trkpt lat="46.05409" lon="4.75266">
        <ele>173.39999389648</ele>
        <time>2024-05-20T12:10:38.000Z</time>
      </trkpt>
      <trkpt lat="46.05407" lon="4.75257">
        <ele>173.39999389648</ele>
        <time>2024-05-20T12:10:39.000Z</time>
      </trkpt>
      <trkpt lat="46.05404" lon="4.75248">
        <ele>173.39999389648</ele>
        <time>2024-05-20T12:10:40.000Z</time>
      </trkpt>
      <trkpt lat="46.05401" lon="4.75239">
        <ele>173.39999389648</ele>
        <time>2024-05-20T12:10:41.000Z</time>
      </trkpt>
      <trkpt lat="46.05397" lon="4.75229">
        <ele>173.39999389648</ele>
        <time>2024-05-20T12:10:42.000Z</time>
      </trkpt>
      <trkpt lat="46.05394" lon="4.7522">
        <ele>173.39999389648</ele>
        <time>2024-05-20T12:10:43.000Z</time>
      </trkpt>
      <trkpt lat="46.05392" lon="4.75211">
        <ele>173.39999389648</ele>
        <time>2024-05-20T12:10:44.000Z</time>
      </trkpt>
      <trkpt lat="46.05389" lon="4.75202">
        <ele>173.19999694824</ele>
        <time>2024-05-20T12:10:45.000Z</time>
      </trkpt>
      <trkpt lat="46.05386" lon="4.75193">
        <ele>173.19999694824</ele>
        <time>2024-05-20T12:10:46.000Z</time>
      </trkpt>
      <trkpt lat="46.05383" lon="4.75184">
        <ele>173.19999694824</ele>
        <time>2024-05-20T12:10:47.000Z</time>
      </trkpt>
      <trkpt lat="46.0538" lon="4.75175">
        <ele>173.19999694824</ele>
        <time>2024-05-20T12:10:48.000Z</time>
      </trkpt>
      <trkpt lat="46.05378" lon="4.75166">
        <ele>173</ele>
        <time>2024-05-20T12:10:49.000Z</time>
      </trkpt>
      <trkpt lat="46.05375" lon="4.75157">
        <ele>173</ele>
        <time>2024-05-20T12:10:50.000Z</time>
      </trkpt>
      <trkpt lat="46.05373" lon="4.75148">
        <ele>173</ele>
        <time>2024-05-20T12:10:51.000Z</time>
      </trkpt>
      <trkpt lat="46.0537" lon="4.75139">
        <ele>173</ele>
        <time>2024-05-20T12:10:52.000Z</time>
      </trkpt>
      <trkpt lat="46.05367" lon="4.75131">
        <ele>173</ele>
        <time>2024-05-20T12:10:53.000Z</time>
      </trkpt>
      <trkpt lat="46.05365" lon="4.75122">
        <ele>173</ele>
        <time>2024-05-20T12:10:54.000Z</time>
      </trkpt>
      <trkpt lat="46.05362" lon="4.75114">
        <ele>173</ele>
        <time>2024-05-20T12:10:55.000Z</time>
      </trkpt>
      <trkpt lat="46.05359" lon="4.75105">
        <ele>173</ele>
        <time>2024-05-20T12:10:56.000Z</time>
      </trkpt>
      <trkpt lat="46.05356" lon="4.75096">
        <ele>173</ele>
        <time>2024-05-20T12:10:57.000Z</time>
      </trkpt>
      <trkpt lat="46.05353" lon="4.75086">
        <ele>173</ele>
        <time>2024-05-20T12:10:58.000Z</time>
      </trkpt>
      <trkpt lat="46.0535" lon="4.75078">
        <ele>173</ele>
        <time>2024-05-20T12:10:59.000Z</time>
      </trkpt>
      <trkpt lat="46.05348" lon="4.7507">
        <ele>173</ele>
        <time>2024-05-20T12:11:00.000Z</time>
      </trkpt>
      <trkpt lat="46.05345" lon="4.75063">
        <ele>173</ele>
        <time>2024-05-20T12:11:01.000Z</time>
      </trkpt>
      <trkpt lat="46.05342" lon="4.75055">
        <ele>173</ele>
        <time>2024-05-20T12:11:02.000Z</time>
      </trkpt>
      <trkpt lat="46.05339" lon="4.75047">
        <ele>173</ele>
        <time>2024-05-20T12:11:03.000Z</time>
      </trkpt>
      <trkpt lat="46.05337" lon="4.75038">
        <ele>173</ele>
        <time>2024-05-20T12:11:04.000Z</time>
      </trkpt>
      <trkpt lat="46.05334" lon="4.7503">
        <ele>172.80000305176</ele>
        <time>2024-05-20T12:11:05.000Z</time>
      </trkpt>
      <trkpt lat="46.05331" lon="4.75022">
        <ele>173</ele>
        <time>2024-05-20T12:11:06.000Z</time>
      </trkpt>
      <trkpt lat="46.05329" lon="4.75014">
        <ele>172.80000305176</ele>
        <time>2024-05-20T12:11:07.000Z</time>
      </trkpt>
      <trkpt lat="46.05326" lon="4.75006">
        <ele>172.80000305176</ele>
        <time>2024-05-20T12:11:08.000Z</time>
      </trkpt>
      <trkpt lat="46.05324" lon="4.74997">
        <ele>172.80000305176</ele>
        <time>2024-05-20T12:11:09.000Z</time>
      </trkpt>
      <trkpt lat="46.05322" lon="4.74988">
        <ele>172.80000305176</ele>
        <time>2024-05-20T12:11:10.000Z</time>
      </trkpt>
      <trkpt lat="46.0532" lon="4.74979">
        <ele>172.80000305176</ele>
        <time>2024-05-20T12:11:11.000Z</time>
      </trkpt>
      <trkpt lat="46.05317" lon="4.7497">
        <ele>172.80000305176</ele>
        <time>2024-05-20T12:11:12.000Z</time>
      </trkpt>
      <trkpt lat="46.05315" lon="4.74961">
        <ele>172.80000305176</ele>
        <time>2024-05-20T12:11:13.000Z</time>
      </trkpt>
      <trkpt lat="46.05312" lon="4.74952">
        <ele>172.80000305176</ele>
        <time>2024-05-20T12:11:14.000Z</time>
      </trkpt>
      <trkpt lat="46.05309" lon="4.74944">
        <ele>172.80000305176</ele>
        <time>2024-05-20T12:11:15.000Z</time>
      </trkpt>
      <trkpt lat="46.05306" lon="4.74935">
        <ele>172.60000610352</ele>
        <time>2024-05-20T12:11:16.000Z</time>
      </trkpt>
      <trkpt lat="46.05303" lon="4.74927">
        <ele>172.60000610352</ele>
        <time>2024-05-20T12:11:17.000Z</time>
      </trkpt>
      <trkpt lat="46.053" lon="4.74919">
        <ele>172.60000610352</ele>
        <time>2024-05-20T12:11:18.000Z</time>
      </trkpt>
      <trkpt lat="46.05297" lon="4.74911">
        <ele>172.60000610352</ele>
        <time>2024-05-20T12:11:19.000Z</time>
      </trkpt>
      <trkpt lat="46.05294" lon="4.74903">
        <ele>172.60000610352</ele>
        <time>2024-05-20T12:11:20.000Z</time>
      </trkpt>
      <trkpt lat="46.05291" lon="4.74895">
        <ele>172.60000610352</ele>
        <time>2024-05-20T12:11:21.000Z</time>
      </trkpt>
      <trkpt lat="46.05288" lon="4.74887">
        <ele>172.60000610352</ele>
        <time>2024-05-20T12:11:22.000Z</time>
      </trkpt>
      <trkpt lat="46.05285" lon="4.74878">
        <ele>172.60000610352</ele>
        <time>2024-05-20T12:11:23.000Z</time>
      </trkpt>
      <trkpt lat="46.05281" lon="4.7487">
        <ele>172.39999389648</ele>
        <time>2024-05-20T12:11:24.000Z</time>
      </trkpt>
      <trkpt lat="46.05278" lon="4.74862">
        <ele>172.39999389648</ele>
        <time>2024-05-20T12:11:25.000Z</time>
      </trkpt>
      <trkpt lat="46.05275" lon="4.74854">
        <ele>172.39999389648</ele>
        <time>2024-05-20T12:11:26.000Z</time>
      </trkpt>
      <trkpt lat="46.05271" lon="4.74846">
        <ele>172.39999389648</ele>
        <time>2024-05-20T12:11:27.000Z</time>
      </trkpt>
      <trkpt lat="46.05268" lon="4.74838">
        <ele>172.39999389648</ele>
        <time>2024-05-20T12:11:28.000Z</time>
      </trkpt>
      <trkpt lat="46.05264" lon="4.7483">
        <ele>172.39999389648</ele>
        <time>2024-05-20T12:11:29.000Z</time>
      </trkpt>
      <trkpt lat="46.05261" lon="4.74822">
        <ele>172.39999389648</ele>
        <time>2024-05-20T12:11:30.000Z</time>
      </trkpt>
      <trkpt lat="46.05257" lon="4.74814">
        <ele>172.39999389648</ele>
        <time>2024-05-20T12:11:31.000Z</time>
      </trkpt>
      <trkpt lat="46.05254" lon="4.74806">
        <ele>172.39999389648</ele>
        <time>2024-05-20T12:11:32.000Z</time>
      </trkpt>
      <trkpt lat="46.05251" lon="4.74798">
        <ele>172.39999389648</ele>
        <time>2024-05-20T12:11:33.000Z</time>
      </trkpt>
      <trkpt lat="46.05247" lon="4.7479">
        <ele>172.39999389648</ele>
        <time>2024-05-20T12:11:34.000Z</time>
      </trkpt>
      <trkpt lat="46.05244" lon="4.74782">
        <ele>172.39999389648</ele>
        <time>2024-05-20T12:11:35.000Z</time>
      </trkpt>
      <trkpt lat="46.05241" lon="4.74774">
        <ele>172.39999389648</ele>
        <time>2024-05-20T12:11:36.000Z</time>
      </trkpt>
      <trkpt lat="46.05237" lon="4.74766">
        <ele>172.39999389648</ele>
        <time>2024-05-20T12:11:37.000Z</time>
      </trkpt>
      <trkpt lat="46.05234" lon="4.74758">
        <ele>172.39999389648</ele>
        <time>2024-05-20T12:11:38.000Z</time>
      </trkpt>
      <trkpt lat="46.0523" lon="4.7475">
        <ele>172.39999389648</ele>
        <time>2024-05-20T12:11:39.000Z</time>
      </trkpt>
      <trkpt lat="46.05227" lon="4.74742">
        <ele>172.39999389648</ele>
        <time>2024-05-20T12:11:40.000Z</time>
      </trkpt>
      <trkpt lat="46.05224" lon="4.74734">
        <ele>172.39999389648</ele>
        <time>2024-05-20T12:11:41.000Z</time>
      </trkpt>
      <trkpt lat="46.0522" lon="4.74726">
        <ele>172.60000610352</ele>
        <time>2024-05-20T12:11:42.000Z</time>
      </trkpt>
      <trkpt lat="46.05217" lon="4.74718">
        <ele>172.60000610352</ele>
        <time>2024-05-20T12:11:43.000Z</time>
      </trkpt>
      <trkpt lat="46.05214" lon="4.7471">
        <ele>172.60000610352</ele>
        <time>2024-05-20T12:11:44.000Z</time>
      </trkpt>
      <trkpt lat="46.0521" lon="4.74702">
        <ele>172.39999389648</ele>
        <time>2024-05-20T12:11:45.000Z</time>
      </trkpt>
      <trkpt lat="46.05207" lon="4.74693">
        <ele>172.39999389648</ele>
        <time>2024-05-20T12:11:46.000Z</time>
      </trkpt>
      <trkpt lat="46.05203" lon="4.74685">
        <ele>172.39999389648</ele>
        <time>2024-05-20T12:11:47.000Z</time>
      </trkpt>
      <trkpt lat="46.052" lon="4.74677">
        <ele>172.39999389648</ele>
        <time>2024-05-20T12:11:48.000Z</time>
      </trkpt>
      <trkpt lat="46.05197" lon="4.7467">
        <ele>172.39999389648</ele>
        <time>2024-05-20T12:11:49.000Z</time>
      </trkpt>
      <trkpt lat="46.05193" lon="4.74662">
        <ele>172.39999389648</ele>
        <time>2024-05-20T12:11:50.000Z</time>
      </trkpt>
      <trkpt lat="46.0519" lon="4.74654">
        <ele>172.39999389648</ele>
        <time>2024-05-20T12:11:51.000Z</time>
      </trkpt>
      <trkpt lat="46.05187" lon="4.74646">
        <ele>172.39999389648</ele>
        <time>2024-05-20T12:11:52.000Z</time>
      </trkpt>
      <trkpt lat="46.05183" lon="4.74637">
        <ele>172.39999389648</ele>
        <time>2024-05-20T12:11:53.000Z</time>
      </trkpt>
      <trkpt lat="46.0518" lon="4.74629">
        <ele>172.39999389648</ele>
        <time>2024-05-20T12:11:54.000Z</time>
      </trkpt>
      <trkpt lat="46.05177" lon="4.74621">
        <ele>172.39999389648</ele>
        <time>2024-05-20T12:11:55.000Z</time>
      </trkpt>
      <trkpt lat="46.05173" lon="4.74613">
        <ele>172.39999389648</ele>
        <time>2024-05-20T12:11:56.000Z</time>
      </trkpt>
      <trkpt lat="46.0517" lon="4.74605">
        <ele>172.39999389648</ele>
        <time>2024-05-20T12:11:57.000Z</time>
      </trkpt>
      <trkpt lat="46.05167" lon="4.74597">
        <ele>172.39999389648</ele>
        <time>2024-05-20T12:11:58.000Z</time>
      </trkpt>
      <trkpt lat="46.05163" lon="4.74589">
        <ele>172.39999389648</ele>
        <time>2024-05-20T12:11:59.000Z</time>
      </trkpt>
      <trkpt lat="46.0516" lon="4.74581">
        <ele>172.39999389648</ele>
        <time>2024-05-20T12:12:00.000Z</time>
      </trkpt>
      <trkpt lat="46.05157" lon="4.74573">
        <ele>172.39999389648</ele>
        <time>2024-05-20T12:12:01.000Z</time>
      </trkpt>
      <trkpt lat="46.05153" lon="4.74565">
        <ele>172.39999389648</ele>
        <time>2024-05-20T12:12:02.000Z</time>
      </trkpt>
      <trkpt lat="46.05149" lon="4.74558">
        <ele>172.39999389648</ele>
        <time>2024-05-20T12:12:03.000Z</time>
      </trkpt>
      <trkpt lat="46.05146" lon="4.7455">
        <ele>172.19999694824</ele>
        <time>2024-05-20T12:12:04.000Z</time>
      </trkpt>
      <trkpt lat="46.05142" lon="4.74542">
        <ele>172.19999694824</ele>
        <time>2024-05-20T12:12:05.000Z</time>
      </trkpt>
      <trkpt lat="46.05139" lon="4.74534">
        <ele>172.19999694824</ele>
        <time>2024-05-20T12:12:06.000Z</time>
      </trkpt>
      <trkpt lat="46.05135" lon="4.74526">
        <ele>172.19999694824</ele>
        <time>2024-05-20T12:12:07.000Z</time>
      </trkpt>
      <trkpt lat="46.05132" lon="4.74518">
        <ele>172.19999694824</ele>
        <time>2024-05-20T12:12:08.000Z</time>
      </trkpt>
      <trkpt lat="46.05128" lon="4.7451">
        <ele>172.19999694824</ele>
        <time>2024-05-20T12:12:09.000Z</time>
      </trkpt>
      <trkpt lat="46.05124" lon="4.74503">
        <ele>172.19999694824</ele>
        <time>2024-05-20T12:12:10.000Z</time>
      </trkpt>
      <trkpt lat="46.0512" lon="4.74495">
        <ele>172.19999694824</ele>
        <time>2024-05-20T12:12:11.000Z</time>
      </trkpt>
      <trkpt lat="46.05116" lon="4.74487">
        <ele>172.19999694824</ele>
        <time>2024-05-20T12:12:12.000Z</time>
      </trkpt>
      <trkpt lat="46.05112" lon="4.7448">
        <ele>172.19999694824</ele>
        <time>2024-05-20T12:12:13.000Z</time>
      </trkpt>
      <trkpt lat="46.05108" lon="4.74472">
        <ele>172.19999694824</ele>
        <time>2024-05-20T12:12:14.000Z</time>
      </trkpt>
      <trkpt lat="46.05104" lon="4.74464">
        <ele>172.19999694824</ele>
        <time>2024-05-20T12:12:15.000Z</time>
      </trkpt>
      <trkpt lat="46.051" lon="4.74457">
        <ele>172.19999694824</ele>
        <time>2024-05-20T12:12:16.000Z</time>
      </trkpt>
      <trkpt lat="46.05096" lon="4.74449">
        <ele>172.19999694824</ele>
        <time>2024-05-20T12:12:17.000Z</time>
      </trkpt>
      <trkpt lat="46.05093" lon="4.74442">
        <ele>172.19999694824</ele>
        <time>2024-05-20T12:12:18.000Z</time>
      </trkpt>
      <trkpt lat="46.05089" lon="4.74434">
        <ele>172.19999694824</ele>
        <time>2024-05-20T12:12:19.000Z</time>
      </trkpt>
      <trkpt lat="46.05085" lon="4.74427">
        <ele>172.19999694824</ele>
        <time>2024-05-20T12:12:20.000Z</time>
      </trkpt>
      <trkpt lat="46.05081" lon="4.74419">
        <ele>172.19999694824</ele>
        <time>2024-05-20T12:12:21.000Z</time>
      </trkpt>
      <trkpt lat="46.05077" lon="4.74412">
        <ele>172.39999389648</ele>
        <time>2024-05-20T12:12:22.000Z</time>
      </trkpt>
      <trkpt lat="46.05073" lon="4.74404">
        <ele>172.39999389648</ele>
        <time>2024-05-20T12:12:23.000Z</time>
      </trkpt>
      <trkpt lat="46.05069" lon="4.74397">
        <ele>172.39999389648</ele>
        <time>2024-05-20T12:12:24.000Z</time>
      </trkpt>
      <trkpt lat="46.05065" lon="4.7439">
        <ele>172.39999389648</ele>
        <time>2024-05-20T12:12:25.000Z</time>
      </trkpt>
      <trkpt lat="46.05061" lon="4.74383">
        <ele>172.60000610352</ele>
        <time>2024-05-20T12:12:26.000Z</time>
      </trkpt>
      <trkpt lat="46.05057" lon="4.74375">
        <ele>172.60000610352</ele>
        <time>2024-05-20T12:12:27.000Z</time>
      </trkpt>
      <trkpt lat="46.05053" lon="4.74368">
        <ele>172.60000610352</ele>
        <time>2024-05-20T12:12:28.000Z</time>
      </trkpt>
      <trkpt lat="46.0505" lon="4.74361">
        <ele>172.60000610352</ele>
        <time>2024-05-20T12:12:29.000Z</time>
      </trkpt>
      <trkpt lat="46.05046" lon="4.74354">
        <ele>172.60000610352</ele>
        <time>2024-05-20T12:12:30.000Z</time>
      </trkpt>
      <trkpt lat="46.05041" lon="4.74348">
        <ele>172.60000610352</ele>
        <time>2024-05-20T12:12:31.000Z</time>
      </trkpt>
      <trkpt lat="46.05037" lon="4.74341">
        <ele>172.60000610352</ele>
        <time>2024-05-20T12:12:32.000Z</time>
      </trkpt>
      <trkpt lat="46.05032" lon="4.74334">
        <ele>172.60000610352</ele>
        <time>2024-05-20T12:12:33.000Z</time>
      </trkpt>
      <trkpt lat="46.05028" lon="4.74328">
        <ele>172.60000610352</ele>
        <time>2024-05-20T12:12:34.000Z</time>
      </trkpt>
      <trkpt lat="46.05023" lon="4.74323">
        <ele>172.19999694824</ele>
        <time>2024-05-20T12:12:35.000Z</time>
      </trkpt>
      <trkpt lat="46.05018" lon="4.74317">
        <ele>172.19999694824</ele>
        <time>2024-05-20T12:12:36.000Z</time>
      </trkpt>
      <trkpt lat="46.05013" lon="4.74311">
        <ele>172.19999694824</ele>
        <time>2024-05-20T12:12:37.000Z</time>
      </trkpt>
      <trkpt lat="46.05008" lon="4.74305">
        <ele>172.19999694824</ele>
        <time>2024-05-20T12:12:38.000Z</time>
      </trkpt>
      <trkpt lat="46.05003" lon="4.74299">
        <ele>172.19999694824</ele>
        <time>2024-05-20T12:12:39.000Z</time>
      </trkpt>
      <trkpt lat="46.04999" lon="4.74294">
        <ele>172.19999694824</ele>
        <time>2024-05-20T12:12:40.000Z</time>
      </trkpt>
      <trkpt lat="46.04994" lon="4.74287">
        <ele>172.19999694824</ele>
        <time>2024-05-20T12:12:41.000Z</time>
      </trkpt>
      <trkpt lat="46.04989" lon="4.74281">
        <ele>172.19999694824</ele>
        <time>2024-05-20T12:12:42.000Z</time>
      </trkpt>
      <trkpt lat="46.04983" lon="4.74276">
        <ele>172.19999694824</ele>
        <time>2024-05-20T12:12:43.000Z</time>
      </trkpt>
      <trkpt lat="46.04978" lon="4.74271">
        <ele>171.80000305176</ele>
        <time>2024-05-20T12:12:44.000Z</time>
      </trkpt>
      <trkpt lat="46.04973" lon="4.74266">
        <ele>171.80000305176</ele>
        <time>2024-05-20T12:12:45.000Z</time>
      </trkpt>
      <trkpt lat="46.04968" lon="4.74261">
        <ele>171.80000305176</ele>
        <time>2024-05-20T12:12:46.000Z</time>
      </trkpt>
      <trkpt lat="46.04963" lon="4.74256">
        <ele>171.80000305176</ele>
        <time>2024-05-20T12:12:47.000Z</time>
      </trkpt>
      <trkpt lat="46.04957" lon="4.7425">
        <ele>171.80000305176</ele>
        <time>2024-05-20T12:12:48.000Z</time>
      </trkpt>
      <trkpt lat="46.04952" lon="4.74246">
        <ele>171.80000305176</ele>
        <time>2024-05-20T12:12:49.000Z</time>
      </trkpt>
      <trkpt lat="46.04947" lon="4.74241">
        <ele>172</ele>
        <time>2024-05-20T12:12:50.000Z</time>
      </trkpt>
      <trkpt lat="46.04942" lon="4.74236">
        <ele>172</ele>
        <time>2024-05-20T12:12:51.000Z</time>
      </trkpt>
      <trkpt lat="46.04937" lon="4.74232">
        <ele>172</ele>
        <time>2024-05-20T12:12:52.000Z</time>
      </trkpt>
      <trkpt lat="46.04932" lon="4.74227">
        <ele>172</ele>
        <time>2024-05-20T12:12:53.000Z</time>
      </trkpt>
      <trkpt lat="46.04927" lon="4.74222">
        <ele>172</ele>
        <time>2024-05-20T12:12:54.000Z</time>
      </trkpt>
      <trkpt lat="46.04922" lon="4.74217">
        <ele>172</ele>
        <time>2024-05-20T12:12:55.000Z</time>
      </trkpt>
      <trkpt lat="46.04917" lon="4.74212">
        <ele>172</ele>
        <time>2024-05-20T12:12:56.000Z</time>
      </trkpt>
      <trkpt lat="46.04911" lon="4.74207">
        <ele>172</ele>
        <time>2024-05-20T12:12:57.000Z</time>
      </trkpt>
      <trkpt lat="46.04906" lon="4.74202">
        <ele>172</ele>
        <time>2024-05-20T12:12:58.000Z</time>
      </trkpt>
      <trkpt lat="46.049" lon="4.74197">
        <ele>172</ele>
        <time>2024-05-20T12:12:59.000Z</time>
      </trkpt>
      <trkpt lat="46.04895" lon="4.74192">
        <ele>172</ele>
        <time>2024-05-20T12:13:00.000Z</time>
      </trkpt>
      <trkpt lat="46.0489" lon="4.74188">
        <ele>172</ele>
        <time>2024-05-20T12:13:01.000Z</time>
      </trkpt>
      <trkpt lat="46.04885" lon="4.74183">
        <ele>172</ele>
        <time>2024-05-20T12:13:02.000Z</time>
      </trkpt>
      <trkpt lat="46.04879" lon="4.74178">
        <ele>172</ele>
        <time>2024-05-20T12:13:03.000Z</time>
      </trkpt>
      <trkpt lat="46.04873" lon="4.74173">
        <ele>172</ele>
        <time>2024-05-20T12:13:04.000Z</time>
      </trkpt>
      <trkpt lat="46.04867" lon="4.74168">
        <ele>172</ele>
        <time>2024-05-20T12:13:05.000Z</time>
      </trkpt>
      <trkpt lat="46.04862" lon="4.74163">
        <ele>172</ele>
        <time>2024-05-20T12:13:06.000Z</time>
      </trkpt>
      <trkpt lat="46.04856" lon="4.74158">
        <ele>172</ele>
        <time>2024-05-20T12:13:07.000Z</time>
      </trkpt>
      <trkpt lat="46.04851" lon="4.74153">
        <ele>172</ele>
        <time>2024-05-20T12:13:08.000Z</time>
      </trkpt>
      <trkpt lat="46.04845" lon="4.74149">
        <ele>171.80000305176</ele>
        <time>2024-05-20T12:13:09.000Z</time>
      </trkpt>
      <trkpt lat="46.0484" lon="4.74144">
        <ele>171.80000305176</ele>
        <time>2024-05-20T12:13:10.000Z</time>
      </trkpt>
      <trkpt lat="46.04834" lon="4.7414">
        <ele>171.80000305176</ele>
        <time>2024-05-20T12:13:11.000Z</time>
      </trkpt>
      <trkpt lat="46.04828" lon="4.74137">
        <ele>171.80000305176</ele>
        <time>2024-05-20T12:13:12.000Z</time>
      </trkpt>
      <trkpt lat="46.04822" lon="4.74133">
        <ele>171.80000305176</ele>
        <time>2024-05-20T12:13:13.000Z</time>
      </trkpt>
      <trkpt lat="46.04816" lon="4.7413">
        <ele>171.80000305176</ele>
        <time>2024-05-20T12:13:14.000Z</time>
      </trkpt>
      <trkpt lat="46.0481" lon="4.74127">
        <ele>171.80000305176</ele>
        <time>2024-05-20T12:13:15.000Z</time>
      </trkpt>
      <trkpt lat="46.04805" lon="4.74123">
        <ele>172</ele>
        <time>2024-05-20T12:13:16.000Z</time>
      </trkpt>
      <trkpt lat="46.04799" lon="4.7412">
        <ele>172</ele>
        <time>2024-05-20T12:13:17.000Z</time>
      </trkpt>
      <trkpt lat="46.04793" lon="4.74117">
        <ele>172</ele>
        <time>2024-05-20T12:13:18.000Z</time>
      </trkpt>
      <trkpt lat="46.04788" lon="4.74114">
        <ele>171.80000305176</ele>
        <time>2024-05-20T12:13:19.000Z</time>
      </trkpt>
      <trkpt lat="46.04782" lon="4.7411">
        <ele>171.80000305176</ele>
        <time>2024-05-20T12:13:20.000Z</time>
      </trkpt>
      <trkpt lat="46.04776" lon="4.74106">
        <ele>171.60000610352</ele>
        <time>2024-05-20T12:13:21.000Z</time>
      </trkpt>
      <trkpt lat="46.0477" lon="4.74103">
        <ele>171.39999389648</ele>
        <time>2024-05-20T12:13:22.000Z</time>
      </trkpt>
      <trkpt lat="46.04764" lon="4.74099">
        <ele>171.39999389648</ele>
        <time>2024-05-20T12:13:23.000Z</time>
      </trkpt>
      <trkpt lat="46.04758" lon="4.74096">
        <ele>171.39999389648</ele>
        <time>2024-05-20T12:13:24.000Z</time>
      </trkpt>
      <trkpt lat="46.04753" lon="4.74093">
        <ele>171.39999389648</ele>
        <time>2024-05-20T12:13:25.000Z</time>
      </trkpt>
      <trkpt lat="46.04747" lon="4.74091">
        <ele>171.39999389648</ele>
        <time>2024-05-20T12:13:26.000Z</time>
      </trkpt>
      <trkpt lat="46.04741" lon="4.74089">
        <ele>171.60000610352</ele>
        <time>2024-05-20T12:13:27.000Z</time>
      </trkpt>
      <trkpt lat="46.04735" lon="4.74087">
        <ele>171.80000305176</ele>
        <time>2024-05-20T12:13:28.000Z</time>
      </trkpt>
      <trkpt lat="46.04728" lon="4.74086">
        <ele>171.80000305176</ele>
        <time>2024-05-20T12:13:29.000Z</time>
      </trkpt>
      <trkpt lat="46.04722" lon="4.74086">
        <ele>171.80000305176</ele>
        <time>2024-05-20T12:13:30.000Z</time>
      </trkpt>
      <trkpt lat="46.04717" lon="4.74086">
        <ele>171.80000305176</ele>
        <time>2024-05-20T12:13:31.000Z</time>
      </trkpt>
      <trkpt lat="46.04711" lon="4.74085">
        <ele>171.80000305176</ele>
        <time>2024-05-20T12:13:32.000Z</time>
      </trkpt>
      <trkpt lat="46.04706" lon="4.74085">
        <ele>171.80000305176</ele>
        <time>2024-05-20T12:13:33.000Z</time>
      </trkpt>
      <trkpt lat="46.047" lon="4.74084">
        <ele>171.80000305176</ele>
        <time>2024-05-20T12:13:34.000Z</time>
      </trkpt>
      <trkpt lat="46.04693" lon="4.74084">
        <ele>172</ele>
        <time>2024-05-20T12:13:35.000Z</time>
      </trkpt>
      <trkpt lat="46.04687" lon="4.74083">
        <ele>172</ele>
        <time>2024-05-20T12:13:36.000Z</time>
      </trkpt>
      <trkpt lat="46.04681" lon="4.74082">
        <ele>172.39999389648</ele>
        <time>2024-05-20T12:13:37.000Z</time>
      </trkpt>
      <trkpt lat="46.04675" lon="4.74081">
        <ele>172.39999389648</ele>
        <time>2024-05-20T12:13:38.000Z</time>
      </trkpt>
      <trkpt lat="46.04669" lon="4.74081">
        <ele>172.39999389648</ele>
        <time>2024-05-20T12:13:39.000Z</time>
      </trkpt>
      <trkpt lat="46.04662" lon="4.7408">
        <ele>172.39999389648</ele>
        <time>2024-05-20T12:13:40.000Z</time>
      </trkpt>
      <trkpt lat="46.04657" lon="4.7408">
        <ele>172</ele>
        <time>2024-05-20T12:13:41.000Z</time>
      </trkpt>
      <trkpt lat="46.04651" lon="4.74079">
        <ele>172</ele>
        <time>2024-05-20T12:13:42.000Z</time>
      </trkpt>
      <trkpt lat="46.04645" lon="4.7408">
        <ele>172</ele>
        <time>2024-05-20T12:13:43.000Z</time>
      </trkpt>
      <trkpt lat="46.04638" lon="4.7408">
        <ele>172</ele>
        <time>2024-05-20T12:13:44.000Z</time>
      </trkpt>
      <trkpt lat="46.04633" lon="4.74081">
        <ele>172</ele>
        <time>2024-05-20T12:13:45.000Z</time>
      </trkpt>
      <trkpt lat="46.04626" lon="4.74082">
        <ele>172.19999694824</ele>
        <time>2024-05-20T12:13:46.000Z</time>
      </trkpt>
      <trkpt lat="46.0462" lon="4.74083">
        <ele>172.19999694824</ele>
        <time>2024-05-20T12:13:47.000Z</time>
      </trkpt>
      <trkpt lat="46.04614" lon="4.74084">
        <ele>172.19999694824</ele>
        <time>2024-05-20T12:13:48.000Z</time>
      </trkpt>
      <trkpt lat="46.04609" lon="4.74086">
        <ele>172.19999694824</ele>
        <time>2024-05-20T12:13:49.000Z</time>
      </trkpt>
      <trkpt lat="46.04603" lon="4.74088">
        <ele>172.39999389648</ele>
        <time>2024-05-20T12:13:50.000Z</time>
      </trkpt>
      <trkpt lat="46.04597" lon="4.7409">
        <ele>172.39999389648</ele>
        <time>2024-05-20T12:13:51.000Z</time>
      </trkpt>
      <trkpt lat="46.04591" lon="4.74092">
        <ele>172.39999389648</ele>
        <time>2024-05-20T12:13:52.000Z</time>
      </trkpt>
      <trkpt lat="46.04585" lon="4.74094">
        <ele>172.39999389648</ele>
        <time>2024-05-20T12:13:53.000Z</time>
      </trkpt>
      <trkpt lat="46.0458" lon="4.74096">
        <ele>172.39999389648</ele>
        <time>2024-05-20T12:13:54.000Z</time>
      </trkpt>
      <trkpt lat="46.04574" lon="4.74098">
        <ele>172.39999389648</ele>
        <time>2024-05-20T12:13:55.000Z</time>
      </trkpt>
      <trkpt lat="46.04568" lon="4.741">
        <ele>172.39999389648</ele>
        <time>2024-05-20T12:13:56.000Z</time>
      </trkpt>
      <trkpt lat="46.04562" lon="4.74102">
        <ele>172.39999389648</ele>
        <time>2024-05-20T12:13:57.000Z</time>
      </trkpt>
      <trkpt lat="46.04556" lon="4.74103">
        <ele>172.39999389648</ele>
        <time>2024-05-20T12:13:58.000Z</time>
      </trkpt>
      <trkpt lat="46.0455" lon="4.74105">
        <ele>172</ele>
        <time>2024-05-20T12:13:59.000Z</time>
      </trkpt>
      <trkpt lat="46.04543" lon="4.74107">
        <ele>172</ele>
        <time>2024-05-20T12:14:00.000Z</time>
      </trkpt>
      <trkpt lat="46.04537" lon="4.74109">
        <ele>172</ele>
        <time>2024-05-20T12:14:01.000Z</time>
      </trkpt>
      <trkpt lat="46.0453" lon="4.7411">
        <ele>172</ele>
        <time>2024-05-20T12:14:02.000Z</time>
      </trkpt>
      <trkpt lat="46.04523" lon="4.74112">
        <ele>171.80000305176</ele>
        <time>2024-05-20T12:14:03.000Z</time>
      </trkpt>
      <trkpt lat="46.04517" lon="4.74114">
        <ele>172</ele>
        <time>2024-05-20T12:14:04.000Z</time>
      </trkpt>
      <trkpt lat="46.04511" lon="4.74117">
        <ele>172</ele>
        <time>2024-05-20T12:14:05.000Z</time>
      </trkpt>
      <trkpt lat="46.04505" lon="4.7412">
        <ele>172</ele>
        <time>2024-05-20T12:14:06.000Z</time>
      </trkpt>
      <trkpt lat="46.04499" lon="4.74123">
        <ele>172</ele>
        <time>2024-05-20T12:14:07.000Z</time>
      </trkpt>
      <trkpt lat="46.04494" lon="4.74126">
        <ele>172</ele>
        <time>2024-05-20T12:14:08.000Z</time>
      </trkpt>
      <trkpt lat="46.04488" lon="4.74129">
        <ele>172</ele>
        <time>2024-05-20T12:14:09.000Z</time>
      </trkpt>
      <trkpt lat="46.04483" lon="4.74132">
        <ele>172.19999694824</ele>
        <time>2024-05-20T12:14:10.000Z</time>
      </trkpt>
      <trkpt lat="46.04477" lon="4.74136">
        <ele>172.19999694824</ele>
        <time>2024-05-20T12:14:11.000Z</time>
      </trkpt>
      <trkpt lat="46.04471" lon="4.74139">
        <ele>172.19999694824</ele>
        <time>2024-05-20T12:14:12.000Z</time>
      </trkpt>
      <trkpt lat="46.04465" lon="4.74142">
        <ele>172.19999694824</ele>
        <time>2024-05-20T12:14:13.000Z</time>
      </trkpt>
      <trkpt lat="46.0446" lon="4.74145">
        <ele>172.19999694824</ele>
        <time>2024-05-20T12:14:14.000Z</time>
      </trkpt>
      <trkpt lat="46.04455" lon="4.74148">
        <ele>172.19999694824</ele>
        <time>2024-05-20T12:14:15.000Z</time>
      </trkpt>
      <trkpt lat="46.0445" lon="4.74152">
        <ele>172.39999389648</ele>
        <time>2024-05-20T12:14:16.000Z</time>
      </trkpt>
      <trkpt lat="46.04444" lon="4.74155">
        <ele>172.39999389648</ele>
        <time>2024-05-20T12:14:17.000Z</time>
      </trkpt>
      <trkpt lat="46.04439" lon="4.74158">
        <ele>172.39999389648</ele>
        <time>2024-05-20T12:14:18.000Z</time>
      </trkpt>
      <trkpt lat="46.04433" lon="4.74162">
        <ele>172.60000610352</ele>
        <time>2024-05-20T12:14:19.000Z</time>
      </trkpt>
      <trkpt lat="46.04428" lon="4.74165">
        <ele>172.60000610352</ele>
        <time>2024-05-20T12:14:20.000Z</time>
      </trkpt>
      <trkpt lat="46.04423" lon="4.74168">
        <ele>172.60000610352</ele>
        <time>2024-05-20T12:14:21.000Z</time>
      </trkpt>
      <trkpt lat="46.04417" lon="4.74171">
        <ele>172.60000610352</ele>
        <time>2024-05-20T12:14:22.000Z</time>
      </trkpt>
      <trkpt lat="46.04412" lon="4.74175">
        <ele>172.80000305176</ele>
        <time>2024-05-20T12:14:23.000Z</time>
      </trkpt>
      <trkpt lat="46.04407" lon="4.74178">
        <ele>172.80000305176</ele>
        <time>2024-05-20T12:14:24.000Z</time>
      </trkpt>
      <trkpt lat="46.04401" lon="4.74182">
        <ele>172.80000305176</ele>
        <time>2024-05-20T12:14:25.000Z</time>
      </trkpt>
      <trkpt lat="46.04396" lon="4.74185">
        <ele>172.80000305176</ele>
        <time>2024-05-20T12:14:26.000Z</time>
      </trkpt>
      <trkpt lat="46.04391" lon="4.74189">
        <ele>172.80000305176</ele>
        <time>2024-05-20T12:14:27.000Z</time>
      </trkpt>
      <trkpt lat="46.04385" lon="4.74192">
        <ele>172.80000305176</ele>
        <time>2024-05-20T12:14:28.000Z</time>
      </trkpt>
      <trkpt lat="46.04379" lon="4.74196">
        <ele>172.80000305176</ele>
        <time>2024-05-20T12:14:29.000Z</time>
      </trkpt>
      <trkpt lat="46.04374" lon="4.74199">
        <ele>172.80000305176</ele>
        <time>2024-05-20T12:14:30.000Z</time>
      </trkpt>
      <trkpt lat="46.04369" lon="4.74203">
        <ele>172.80000305176</ele>
        <time>2024-05-20T12:14:31.000Z</time>
      </trkpt>
      <trkpt lat="46.04363" lon="4.74206">
        <ele>173</ele>
        <time>2024-05-20T12:14:32.000Z</time>
      </trkpt>
      <trkpt lat="46.04358" lon="4.74209">
        <ele>173</ele>
        <time>2024-05-20T12:14:33.000Z</time>
      </trkpt>
      <trkpt lat="46.04352" lon="4.74213">
        <ele>173</ele>
        <time>2024-05-20T12:14:34.000Z</time>
      </trkpt>
      <trkpt lat="46.04347" lon="4.74217">
        <ele>173</ele>
        <time>2024-05-20T12:14:35.000Z</time>
      </trkpt>
      <trkpt lat="46.04341" lon="4.74221">
        <ele>173</ele>
        <time>2024-05-20T12:14:36.000Z</time>
      </trkpt>
      <trkpt lat="46.04336" lon="4.74225">
        <ele>173</ele>
        <time>2024-05-20T12:14:37.000Z</time>
      </trkpt>
      <trkpt lat="46.0433" lon="4.7423">
        <ele>173</ele>
        <time>2024-05-20T12:14:38.000Z</time>
      </trkpt>
      <trkpt lat="46.04324" lon="4.74234">
        <ele>173</ele>
        <time>2024-05-20T12:14:39.000Z</time>
      </trkpt>
      <trkpt lat="46.04319" lon="4.74238">
        <ele>173</ele>
        <time>2024-05-20T12:14:40.000Z</time>
      </trkpt>
      <trkpt lat="46.04313" lon="4.74242">
        <ele>173.19999694824</ele>
        <time>2024-05-20T12:14:41.000Z</time>
      </trkpt>
      <trkpt lat="46.04308" lon="4.74247">
        <ele>173.19999694824</ele>
        <time>2024-05-20T12:14:42.000Z</time>
      </trkpt>
      <trkpt lat="46.04302" lon="4.74252">
        <ele>173.19999694824</ele>
        <time>2024-05-20T12:14:43.000Z</time>
      </trkpt>
      <trkpt lat="46.04297" lon="4.74257">
        <ele>173.19999694824</ele>
        <time>2024-05-20T12:14:44.000Z</time>
      </trkpt>
      <trkpt lat="46.04291" lon="4.74261">
        <ele>173.19999694824</ele>
        <time>2024-05-20T12:14:45.000Z</time>
      </trkpt>
      <trkpt lat="46.04286" lon="4.74266">
        <ele>173.19999694824</ele>
        <time>2024-05-20T12:14:46.000Z</time>
      </trkpt>
      <trkpt lat="46.04281" lon="4.74269">
        <ele>173.19999694824</ele>
        <time>2024-05-20T12:14:47.000Z</time>
      </trkpt>
      <trkpt lat="46.04275" lon="4.74273">
        <ele>173.19999694824</ele>
        <time>2024-05-20T12:14:48.000Z</time>
      </trkpt>
      <trkpt lat="46.0427" lon="4.74278">
        <ele>173.19999694824</ele>
        <time>2024-05-20T12:14:49.000Z</time>
      </trkpt>
      <trkpt lat="46.04264" lon="4.74283">
        <ele>173.19999694824</ele>
        <time>2024-05-20T12:14:50.000Z</time>
      </trkpt>
      <trkpt lat="46.04259" lon="4.74287">
        <ele>173.19999694824</ele>
        <time>2024-05-20T12:14:51.000Z</time>
      </trkpt>
      <trkpt lat="46.04254" lon="4.74292">
        <ele>173.19999694824</ele>
        <time>2024-05-20T12:14:52.000Z</time>
      </trkpt>
      <trkpt lat="46.04248" lon="4.74297">
        <ele>173.19999694824</ele>
        <time>2024-05-20T12:14:53.000Z</time>
      </trkpt>
      <trkpt lat="46.04243" lon="4.74302">
        <ele>173.19999694824</ele>
        <time>2024-05-20T12:14:54.000Z</time>
      </trkpt>
      <trkpt lat="46.04238" lon="4.74307">
        <ele>173.19999694824</ele>
        <time>2024-05-20T12:14:55.000Z</time>
      </trkpt>
      <trkpt lat="46.04232" lon="4.74311">
        <ele>173.19999694824</ele>
        <time>2024-05-20T12:14:56.000Z</time>
      </trkpt>
      <trkpt lat="46.04227" lon="4.74316">
        <ele>173.19999694824</ele>
        <time>2024-05-20T12:14:57.000Z</time>
      </trkpt>
      <trkpt lat="46.04222" lon="4.74321">
        <ele>173.19999694824</ele>
        <time>2024-05-20T12:14:58.000Z</time>
      </trkpt>
      <trkpt lat="46.04216" lon="4.74326">
        <ele>173.19999694824</ele>
        <time>2024-05-20T12:14:59.000Z</time>
      </trkpt>
      <trkpt lat="46.04211" lon="4.74331">
        <ele>173.19999694824</ele>
        <time>2024-05-20T12:15:00.000Z</time>
      </trkpt>
      <trkpt lat="46.04206" lon="4.74337">
        <ele>173.19999694824</ele>
        <time>2024-05-20T12:15:01.000Z</time>
      </trkpt>
      <trkpt lat="46.042" lon="4.74342">
        <ele>173.19999694824</ele>
        <time>2024-05-20T12:15:02.000Z</time>
      </trkpt>
      <trkpt lat="46.04194" lon="4.74348">
        <ele>173</ele>
        <time>2024-05-20T12:15:03.000Z</time>
      </trkpt>
      <trkpt lat="46.04189" lon="4.74355">
        <ele>173</ele>
        <time>2024-05-20T12:15:04.000Z</time>
      </trkpt>
      <trkpt lat="46.04185" lon="4.74363">
        <ele>173</ele>
        <time>2024-05-20T12:15:05.000Z</time>
      </trkpt>
      <trkpt lat="46.04181" lon="4.74371">
        <ele>173</ele>
        <time>2024-05-20T12:15:06.000Z</time>
      </trkpt>
      <trkpt lat="46.04178" lon="4.74379">
        <ele>173</ele>
        <time>2024-05-20T12:15:07.000Z</time>
      </trkpt>
      <trkpt lat="46.04175" lon="4.74386">
        <ele>172.80000305176</ele>
        <time>2024-05-20T12:15:08.000Z</time>
      </trkpt>
      <trkpt lat="46.04171" lon="4.74391">
        <ele>172.80000305176</ele>
        <time>2024-05-20T12:15:09.000Z</time>
      </trkpt>
      <trkpt lat="46.04165" lon="4.74394">
        <ele>172.80000305176</ele>
        <time>2024-05-20T12:15:10.000Z</time>
      </trkpt>
      <trkpt lat="46.0416" lon="4.74396">
        <ele>172.80000305176</ele>
        <time>2024-05-20T12:15:11.000Z</time>
      </trkpt>
      <trkpt lat="46.04154" lon="4.74399">
        <ele>172.80000305176</ele>
        <time>2024-05-20T12:15:12.000Z</time>
      </trkpt>
      <trkpt lat="46.04148" lon="4.74402">
        <ele>172.60000610352</ele>
        <time>2024-05-20T12:15:13.000Z</time>
      </trkpt>
      <trkpt lat="46.04142" lon="4.74406">
        <ele>172.60000610352</ele>
        <time>2024-05-20T12:15:14.000Z</time>
      </trkpt>
      <trkpt lat="46.04137" lon="4.7441">
        <ele>172.39999389648</ele>
        <time>2024-05-20T12:15:15.000Z</time>
      </trkpt>
      <trkpt lat="46.04132" lon="4.74414">
        <ele>172.39999389648</ele>
        <time>2024-05-20T12:15:16.000Z</time>
      </trkpt>
      <trkpt lat="46.04126" lon="4.74419">
        <ele>172.39999389648</ele>
        <time>2024-05-20T12:15:17.000Z</time>
      </trkpt>
      <trkpt lat="46.04121" lon="4.74423">
        <ele>172.19999694824</ele>
        <time>2024-05-20T12:15:18.000Z</time>
      </trkpt>
      <trkpt lat="46.04116" lon="4.74427">
        <ele>172.19999694824</ele>
        <time>2024-05-20T12:15:19.000Z</time>
      </trkpt>
      <trkpt lat="46.04111" lon="4.74432">
        <ele>172.39999389648</ele>
        <time>2024-05-20T12:15:20.000Z</time>
      </trkpt>
      <trkpt lat="46.04106" lon="4.74436">
        <ele>172.39999389648</ele>
        <time>2024-05-20T12:15:21.000Z</time>
      </trkpt>
      <trkpt lat="46.04101" lon="4.74441">
        <ele>172.39999389648</ele>
        <time>2024-05-20T12:15:22.000Z</time>
      </trkpt>
      <trkpt lat="46.04096" lon="4.74446">
        <ele>172.39999389648</ele>
        <time>2024-05-20T12:15:23.000Z</time>
      </trkpt>
      <trkpt lat="46.04091" lon="4.7445">
        <ele>172.39999389648</ele>
        <time>2024-05-20T12:15:24.000Z</time>
      </trkpt>
      <trkpt lat="46.04086" lon="4.74455">
        <ele>172.39999389648</ele>
        <time>2024-05-20T12:15:25.000Z</time>
      </trkpt>
      <trkpt lat="46.0408" lon="4.74459">
        <ele>172.39999389648</ele>
        <time>2024-05-20T12:15:26.000Z</time>
      </trkpt>
      <trkpt lat="46.04075" lon="4.74463">
        <ele>172.39999389648</ele>
        <time>2024-05-20T12:15:27.000Z</time>
      </trkpt>
      <trkpt lat="46.0407" lon="4.74467">
        <ele>172.39999389648</ele>
        <time>2024-05-20T12:15:28.000Z</time>
      </trkpt>
      <trkpt lat="46.04064" lon="4.74472">
        <ele>172.60000610352</ele>
        <time>2024-05-20T12:15:29.000Z</time>
      </trkpt>
      <trkpt lat="46.04059" lon="4.74476">
        <ele>172.60000610352</ele>
        <time>2024-05-20T12:15:30.000Z</time>
      </trkpt>
      <trkpt lat="46.04053" lon="4.7448">
        <ele>172.60000610352</ele>
        <time>2024-05-20T12:15:31.000Z</time>
      </trkpt>
      <trkpt lat="46.04048" lon="4.74484">
        <ele>172.60000610352</ele>
        <time>2024-05-20T12:15:32.000Z</time>
      </trkpt>
      <trkpt lat="46.04042" lon="4.74488">
        <ele>172.60000610352</ele>
        <time>2024-05-20T12:15:33.000Z</time>
      </trkpt>
      <trkpt lat="46.04037" lon="4.74493">
        <ele>172.39999389648</ele>
        <time>2024-05-20T12:15:34.000Z</time>
      </trkpt>
      <trkpt lat="46.04032" lon="4.74497">
        <ele>172.39999389648</ele>
        <time>2024-05-20T12:15:35.000Z</time>
      </trkpt>
      <trkpt lat="46.04027" lon="4.74501">
        <ele>172.39999389648</ele>
        <time>2024-05-20T12:15:36.000Z</time>
      </trkpt>
      <trkpt lat="46.04022" lon="4.74504">
        <ele>172.39999389648</ele>
        <time>2024-05-20T12:15:37.000Z</time>
      </trkpt>
      <trkpt lat="46.04017" lon="4.74507">
        <ele>172.39999389648</ele>
        <time>2024-05-20T12:15:38.000Z</time>
      </trkpt>
      <trkpt lat="46.04013" lon="4.7451">
        <ele>172.39999389648</ele>
        <time>2024-05-20T12:15:39.000Z</time>
      </trkpt>
      <trkpt lat="46.04007" lon="4.74512">
        <ele>172.60000610352</ele>
        <time>2024-05-20T12:15:40.000Z</time>
      </trkpt>
      <trkpt lat="46.04002" lon="4.74515">
        <ele>172.60000610352</ele>
        <time>2024-05-20T12:15:41.000Z</time>
      </trkpt>
      <trkpt lat="46.03997" lon="4.74518">
        <ele>172.60000610352</ele>
        <time>2024-05-20T12:15:42.000Z</time>
      </trkpt>
      <trkpt lat="46.03991" lon="4.74522">
        <ele>172.80000305176</ele>
        <time>2024-05-20T12:15:43.000Z</time>
      </trkpt>
      <trkpt lat="46.03985" lon="4.74524">
        <ele>172.80000305176</ele>
        <time>2024-05-20T12:15:44.000Z</time>
      </trkpt>
      <trkpt lat="46.0398" lon="4.74526">
        <ele>172.80000305176</ele>
        <time>2024-05-20T12:15:45.000Z</time>
      </trkpt>
      <trkpt lat="46.03974" lon="4.74528">
        <ele>172.80000305176</ele>
        <time>2024-05-20T12:15:46.000Z</time>
      </trkpt>
      <trkpt lat="46.03969" lon="4.74529">
        <ele>173</ele>
        <time>2024-05-20T12:15:47.000Z</time>
      </trkpt>
      <trkpt lat="46.03963" lon="4.7453">
        <ele>173</ele>
        <time>2024-05-20T12:15:48.000Z</time>
      </trkpt>
      <trkpt lat="46.03957" lon="4.74532">
        <ele>173</ele>
        <time>2024-05-20T12:15:49.000Z</time>
      </trkpt>
      <trkpt lat="46.03951" lon="4.74536">
        <ele>173</ele>
        <time>2024-05-20T12:15:50.000Z</time>
      </trkpt>
      <trkpt lat="46.03946" lon="4.74541">
        <ele>173</ele>
        <time>2024-05-20T12:15:51.000Z</time>
      </trkpt>
      <trkpt lat="46.0394" lon="4.74545">
        <ele>173</ele>
        <time>2024-05-20T12:15:52.000Z</time>
      </trkpt>
      <trkpt lat="46.03935" lon="4.74549">
        <ele>173</ele>
        <time>2024-05-20T12:15:53.000Z</time>
      </trkpt>
      <trkpt lat="46.03929" lon="4.74552">
        <ele>172.80000305176</ele>
        <time>2024-05-20T12:15:54.000Z</time>
      </trkpt>
      <trkpt lat="46.03921" lon="4.74556">
        <ele>172.80000305176</ele>
        <time>2024-05-20T12:15:55.000Z</time>
      </trkpt>
      <trkpt lat="46.03914" lon="4.7456">
        <ele>172.80000305176</ele>
        <time>2024-05-20T12:15:56.000Z</time>
      </trkpt>
      <trkpt lat="46.03907" lon="4.74563">
        <ele>172.80000305176</ele>
        <time>2024-05-20T12:15:57.000Z</time>
      </trkpt>
      <trkpt lat="46.03901" lon="4.74566">
        <ele>172.80000305176</ele>
        <time>2024-05-20T12:15:58.000Z</time>
      </trkpt>
      <trkpt lat="46.03894" lon="4.7457">
        <ele>172.80000305176</ele>
        <time>2024-05-20T12:15:59.000Z</time>
      </trkpt>
      <trkpt lat="46.03887" lon="4.74574">
        <ele>172.80000305176</ele>
        <time>2024-05-20T12:16:00.000Z</time>
      </trkpt>
      <trkpt lat="46.03881" lon="4.74577">
        <ele>173</ele>
        <time>2024-05-20T12:16:01.000Z</time>
      </trkpt>
      <trkpt lat="46.03874" lon="4.7458">
        <ele>173</ele>
        <time>2024-05-20T12:16:02.000Z</time>
      </trkpt>
      <trkpt lat="46.03868" lon="4.74583">
        <ele>173</ele>
        <time>2024-05-20T12:16:03.000Z</time>
      </trkpt>
      <trkpt lat="46.03862" lon="4.74586">
        <ele>173</ele>
        <time>2024-05-20T12:16:04.000Z</time>
      </trkpt>
      <trkpt lat="46.03857" lon="4.74589">
        <ele>173</ele>
        <time>2024-05-20T12:16:05.000Z</time>
      </trkpt>
      <trkpt lat="46.03852" lon="4.74591">
        <ele>172.80000305176</ele>
        <time>2024-05-20T12:16:06.000Z</time>
      </trkpt>
      <trkpt lat="46.03848" lon="4.74594">
        <ele>172.60000610352</ele>
        <time>2024-05-20T12:16:07.000Z</time>
      </trkpt>
      <trkpt lat="46.03841" lon="4.74597">
        <ele>172.60000610352</ele>
        <time>2024-05-20T12:16:08.000Z</time>
      </trkpt>
      <trkpt lat="46.03836" lon="4.746">
        <ele>172.39999389648</ele>
        <time>2024-05-20T12:16:09.000Z</time>
      </trkpt>
      <trkpt lat="46.0383" lon="4.74603">
        <ele>172.19999694824</ele>
        <time>2024-05-20T12:16:10.000Z</time>
      </trkpt>
      <trkpt lat="46.03824" lon="4.74605">
        <ele>172.19999694824</ele>
        <time>2024-05-20T12:16:11.000Z</time>
      </trkpt>
      <trkpt lat="46.03818" lon="4.74608">
        <ele>172.19999694824</ele>
        <time>2024-05-20T12:16:12.000Z</time>
      </trkpt>
      <trkpt lat="46.03811" lon="4.74611">
        <ele>172.19999694824</ele>
        <time>2024-05-20T12:16:13.000Z</time>
      </trkpt>
      <trkpt lat="46.03804" lon="4.74613">
        <ele>172.39999389648</ele>
        <time>2024-05-20T12:16:14.000Z</time>
      </trkpt>
      <trkpt lat="46.03797" lon="4.74617">
        <ele>172.39999389648</ele>
        <time>2024-05-20T12:16:15.000Z</time>
      </trkpt>
      <trkpt lat="46.03791" lon="4.7462">
        <ele>172.60000610352</ele>
        <time>2024-05-20T12:16:16.000Z</time>
      </trkpt>
      <trkpt lat="46.03785" lon="4.74623">
        <ele>172.60000610352</ele>
        <time>2024-05-20T12:16:17.000Z</time>
      </trkpt>
      <trkpt lat="46.0378" lon="4.74625">
        <ele>172.60000610352</ele>
        <time>2024-05-20T12:16:18.000Z</time>
      </trkpt>
      <trkpt lat="46.03774" lon="4.74627">
        <ele>172.60000610352</ele>
        <time>2024-05-20T12:16:19.000Z</time>
      </trkpt>
      <trkpt lat="46.03769" lon="4.74628">
        <ele>172.80000305176</ele>
        <time>2024-05-20T12:16:20.000Z</time>
      </trkpt>
      <trkpt lat="46.03763" lon="4.74629">
        <ele>172.80000305176</ele>
        <time>2024-05-20T12:16:21.000Z</time>
      </trkpt>
      <trkpt lat="46.03757" lon="4.74632">
        <ele>172.80000305176</ele>
        <time>2024-05-20T12:16:22.000Z</time>
      </trkpt>
      <trkpt lat="46.03751" lon="4.74636">
        <ele>172.60000610352</ele>
        <time>2024-05-20T12:16:23.000Z</time>
      </trkpt>
      <trkpt lat="46.03746" lon="4.74642">
        <ele>172.39999389648</ele>
        <time>2024-05-20T12:16:24.000Z</time>
      </trkpt>
      <trkpt lat="46.03743" lon="4.74645">
        <ele>172.39999389648</ele>
        <time>2024-05-20T12:16:25.000Z</time>
      </trkpt>
      <trkpt lat="46.0374" lon="4.74649">
        <ele>172.39999389648</ele>
        <time>2024-05-20T12:16:26.000Z</time>
      </trkpt>
      <trkpt lat="46.03735" lon="4.74653">
        <ele>172.39999389648</ele>
        <time>2024-05-20T12:16:27.000Z</time>
      </trkpt>
      <trkpt lat="46.03732" lon="4.74656">
        <ele>172.39999389648</ele>
        <time>2024-05-20T12:16:28.000Z</time>
      </trkpt>
      <trkpt lat="46.03729" lon="4.74659">
        <ele>172.60000610352</ele>
        <time>2024-05-20T12:16:29.000Z</time>
      </trkpt>
      <trkpt lat="46.03726" lon="4.74661">
        <ele>172.80000305176</ele>
        <time>2024-05-20T12:16:30.000Z</time>
      </trkpt>
      <trkpt lat="46.03721" lon="4.74664">
        <ele>172.80000305176</ele>
        <time>2024-05-20T12:16:31.000Z</time>
      </trkpt>
      <trkpt lat="46.03717" lon="4.74667">
        <ele>172.80000305176</ele>
        <time>2024-05-20T12:16:32.000Z</time>
      </trkpt>
      <trkpt lat="46.03714" lon="4.74669">
        <ele>173</ele>
        <time>2024-05-20T12:16:33.000Z</time>
      </trkpt>
      <trkpt lat="46.0371" lon="4.74672">
        <ele>173</ele>
        <time>2024-05-20T12:16:34.000Z</time>
      </trkpt>
      <trkpt lat="46.03707" lon="4.74674">
        <ele>173.19999694824</ele>
        <time>2024-05-20T12:16:35.000Z</time>
      </trkpt>
      <trkpt lat="46.03704" lon="4.74676">
        <ele>173.19999694824</ele>
        <time>2024-05-20T12:16:36.000Z</time>
      </trkpt>
      <trkpt lat="46.037" lon="4.74678">
        <ele>173.19999694824</ele>
        <time>2024-05-20T12:16:37.000Z</time>
      </trkpt>
      <trkpt lat="46.03697" lon="4.74679">
        <ele>173.19999694824</ele>
        <time>2024-05-20T12:16:38.000Z</time>
      </trkpt>
      <trkpt lat="46.03695" lon="4.74681">
        <ele>173.19999694824</ele>
        <time>2024-05-20T12:16:39.000Z</time>
      </trkpt>
      <trkpt lat="46.03691" lon="4.74683">
        <ele>173.19999694824</ele>
        <time>2024-05-20T12:16:40.000Z</time>
      </trkpt>
      <trkpt lat="46.03689" lon="4.74685">
        <ele>173.19999694824</ele>
        <time>2024-05-20T12:16:41.000Z</time>
      </trkpt>
      <trkpt lat="46.03687" lon="4.74686">
        <ele>173.19999694824</ele>
        <time>2024-05-20T12:16:42.000Z</time>
      </trkpt>
      <trkpt lat="46.03684" lon="4.74687">
        <ele>173.19999694824</ele>
        <time>2024-05-20T12:16:43.000Z</time>
      </trkpt>
      <trkpt lat="46.03681" lon="4.74688">
        <ele>173.19999694824</ele>
        <time>2024-05-20T12:16:44.000Z</time>
      </trkpt>
      <trkpt lat="46.03678" lon="4.74689">
        <ele>173.19999694824</ele>
        <time>2024-05-20T12:16:45.000Z</time>
      </trkpt>
      <trkpt lat="46.03674" lon="4.7469">
        <ele>173</ele>
        <time>2024-05-20T12:16:46.000Z</time>
      </trkpt>
      <trkpt lat="46.0367" lon="4.74691">
        <ele>173</ele>
        <time>2024-05-20T12:16:47.000Z</time>
      </trkpt>
      <trkpt lat="46.03665" lon="4.74692">
        <ele>173</ele>
        <time>2024-05-20T12:16:48.000Z</time>
      </trkpt>
      <trkpt lat="46.0366" lon="4.74694">
        <ele>173</ele>
        <time>2024-05-20T12:16:49.000Z</time>
      </trkpt>
      <trkpt lat="46.03655" lon="4.74696">
        <ele>173</ele>
        <time>2024-05-20T12:16:50.000Z</time>
      </trkpt>
      <trkpt lat="46.03649" lon="4.74698">
        <ele>173</ele>
        <time>2024-05-20T12:16:51.000Z</time>
      </trkpt>
      <trkpt lat="46.03644" lon="4.747">
        <ele>173</ele>
        <time>2024-05-20T12:16:52.000Z</time>
      </trkpt>
      <trkpt lat="46.03638" lon="4.74702">
        <ele>173</ele>
        <time>2024-05-20T12:16:53.000Z</time>
      </trkpt>
      <trkpt lat="46.03632" lon="4.74704">
        <ele>173</ele>
        <time>2024-05-20T12:16:54.000Z</time>
      </trkpt>
      <trkpt lat="46.03626" lon="4.74707">
        <ele>172.80000305176</ele>
        <time>2024-05-20T12:16:55.000Z</time>
      </trkpt>
      <trkpt lat="46.03621" lon="4.74711">
        <ele>172.80000305176</ele>
        <time>2024-05-20T12:16:56.000Z</time>
      </trkpt>
      <trkpt lat="46.03615" lon="4.74714">
        <ele>172.80000305176</ele>
        <time>2024-05-20T12:16:57.000Z</time>
      </trkpt>
      <trkpt lat="46.03609" lon="4.74717">
        <ele>172.60000610352</ele>
        <time>2024-05-20T12:16:58.000Z</time>
      </trkpt>
      <trkpt lat="46.03604" lon="4.74721">
        <ele>172.39999389648</ele>
        <time>2024-05-20T12:16:59.000Z</time>
      </trkpt>
      <trkpt lat="46.03599" lon="4.74725">
        <ele>172.39999389648</ele>
        <time>2024-05-20T12:17:00.000Z</time>
      </trkpt>
      <trkpt lat="46.03593" lon="4.74729">
        <ele>172.39999389648</ele>
        <time>2024-05-20T12:17:01.000Z</time>
      </trkpt>
      <trkpt lat="46.03588" lon="4.74732">
        <ele>172.39999389648</ele>
        <time>2024-05-20T12:17:02.000Z</time>
      </trkpt>
      <trkpt lat="46.03583" lon="4.74735">
        <ele>172.39999389648</ele>
        <time>2024-05-20T12:17:03.000Z</time>
      </trkpt>
      <trkpt lat="46.03578" lon="4.74738">
        <ele>172.19999694824</ele>
        <time>2024-05-20T12:17:04.000Z</time>
      </trkpt>
      <trkpt lat="46.03571" lon="4.74741">
        <ele>172</ele>
        <time>2024-05-20T12:17:05.000Z</time>
      </trkpt>
      <trkpt lat="46.03565" lon="4.74744">
        <ele>172</ele>
        <time>2024-05-20T12:17:06.000Z</time>
      </trkpt>
      <trkpt lat="46.0356" lon="4.74747">
        <ele>171.80000305176</ele>
        <time>2024-05-20T12:17:07.000Z</time>
      </trkpt>
      <trkpt lat="46.03554" lon="4.74749">
        <ele>171.80000305176</ele>
        <time>2024-05-20T12:17:08.000Z</time>
      </trkpt>
      <trkpt lat="46.03549" lon="4.74753">
        <ele>171.60000610352</ele>
        <time>2024-05-20T12:17:09.000Z</time>
      </trkpt>
      <trkpt lat="46.03545" lon="4.74755">
        <ele>171.39999389648</ele>
        <time>2024-05-20T12:17:10.000Z</time>
      </trkpt>
      <trkpt lat="46.03538" lon="4.74758">
        <ele>171.39999389648</ele>
        <time>2024-05-20T12:17:11.000Z</time>
      </trkpt>
      <trkpt lat="46.03533" lon="4.74761">
        <ele>171.39999389648</ele>
        <time>2024-05-20T12:17:12.000Z</time>
      </trkpt>
      <trkpt lat="46.03527" lon="4.74763">
        <ele>171.60000610352</ele>
        <time>2024-05-20T12:17:13.000Z</time>
      </trkpt>
      <trkpt lat="46.03522" lon="4.74766">
        <ele>171.60000610352</ele>
        <time>2024-05-20T12:17:14.000Z</time>
      </trkpt>
      <trkpt lat="46.03516" lon="4.74769">
        <ele>171.60000610352</ele>
        <time>2024-05-20T12:17:15.000Z</time>
      </trkpt>
      <trkpt lat="46.03511" lon="4.74772">
        <ele>171.80000305176</ele>
        <time>2024-05-20T12:17:16.000Z</time>
      </trkpt>
      <trkpt lat="46.03506" lon="4.74775">
        <ele>171.80000305176</ele>
        <time>2024-05-20T12:17:17.000Z</time>
      </trkpt>
      <trkpt lat="46.035" lon="4.74777">
        <ele>172</ele>
        <time>2024-05-20T12:17:18.000Z</time>
      </trkpt>
      <trkpt lat="46.03495" lon="4.7478">
        <ele>172</ele>
        <time>2024-05-20T12:17:19.000Z</time>
      </trkpt>
      <trkpt lat="46.03489" lon="4.74782">
        <ele>172</ele>
        <time>2024-05-20T12:17:20.000Z</time>
      </trkpt>
      <trkpt lat="46.03483" lon="4.74785">
        <ele>171.80000305176</ele>
        <time>2024-05-20T12:17:21.000Z</time>
      </trkpt>
      <trkpt lat="46.03478" lon="4.74787">
        <ele>171.80000305176</ele>
        <time>2024-05-20T12:17:22.000Z</time>
      </trkpt>
      <trkpt lat="46.03472" lon="4.74788">
        <ele>171.80000305176</ele>
        <time>2024-05-20T12:17:23.000Z</time>
      </trkpt>
      <trkpt lat="46.03467" lon="4.7479">
        <ele>171.80000305176</ele>
        <time>2024-05-20T12:17:24.000Z</time>
      </trkpt>
      <trkpt lat="46.03461" lon="4.74793">
        <ele>171.80000305176</ele>
        <time>2024-05-20T12:17:25.000Z</time>
      </trkpt>
      <trkpt lat="46.03455" lon="4.74795">
        <ele>172</ele>
        <time>2024-05-20T12:17:26.000Z</time>
      </trkpt>
      <trkpt lat="46.03449" lon="4.74797">
        <ele>172</ele>
        <time>2024-05-20T12:17:27.000Z</time>
      </trkpt>
      <trkpt lat="46.03444" lon="4.74799">
        <ele>172.19999694824</ele>
        <time>2024-05-20T12:17:28.000Z</time>
      </trkpt>
      <trkpt lat="46.03438" lon="4.74801">
        <ele>172.19999694824</ele>
        <time>2024-05-20T12:17:29.000Z</time>
      </trkpt>
      <trkpt lat="46.03432" lon="4.74803">
        <ele>172.19999694824</ele>
        <time>2024-05-20T12:17:30.000Z</time>
      </trkpt>
      <trkpt lat="46.03426" lon="4.74805">
        <ele>172.19999694824</ele>
        <time>2024-05-20T12:17:31.000Z</time>
      </trkpt>
      <trkpt lat="46.03421" lon="4.74807">
        <ele>172.19999694824</ele>
        <time>2024-05-20T12:17:32.000Z</time>
      </trkpt>
      <trkpt lat="46.03415" lon="4.7481">
        <ele>172.19999694824</ele>
        <time>2024-05-20T12:17:33.000Z</time>
      </trkpt>
      <trkpt lat="46.03409" lon="4.74812">
        <ele>172.19999694824</ele>
        <time>2024-05-20T12:17:34.000Z</time>
      </trkpt>
      <trkpt lat="46.03404" lon="4.74814">
        <ele>172.19999694824</ele>
        <time>2024-05-20T12:17:35.000Z</time>
      </trkpt>
      <trkpt lat="46.03398" lon="4.74816">
        <ele>172.19999694824</ele>
        <time>2024-05-20T12:17:36.000Z</time>
      </trkpt>
      <trkpt lat="46.03392" lon="4.74818">
        <ele>172.19999694824</ele>
        <time>2024-05-20T12:17:37.000Z</time>
      </trkpt>
      <trkpt lat="46.03386" lon="4.7482">
        <ele>172.19999694824</ele>
        <time>2024-05-20T12:17:38.000Z</time>
      </trkpt>
      <trkpt lat="46.0338" lon="4.74822">
        <ele>172.19999694824</ele>
        <time>2024-05-20T12:17:39.000Z</time>
      </trkpt>
      <trkpt lat="46.03375" lon="4.74824">
        <ele>172.19999694824</ele>
        <time>2024-05-20T12:17:40.000Z</time>
      </trkpt>
      <trkpt lat="46.03369" lon="4.74825">
        <ele>172.39999389648</ele>
        <time>2024-05-20T12:17:41.000Z</time>
      </trkpt>
      <trkpt lat="46.03363" lon="4.74826">
        <ele>172.39999389648</ele>
        <time>2024-05-20T12:17:42.000Z</time>
      </trkpt>
      <trkpt lat="46.03358" lon="4.74827">
        <ele>172.39999389648</ele>
        <time>2024-05-20T12:17:43.000Z</time>
      </trkpt>
      <trkpt lat="46.03352" lon="4.74829">
        <ele>172.39999389648</ele>
        <time>2024-05-20T12:17:44.000Z</time>
      </trkpt>
      <trkpt lat="46.03346" lon="4.7483">
        <ele>172.39999389648</ele>
        <time>2024-05-20T12:17:45.000Z</time>
      </trkpt>
      <trkpt lat="46.03339" lon="4.74831">
        <ele>172.39999389648</ele>
        <time>2024-05-20T12:17:46.000Z</time>
      </trkpt>
      <trkpt lat="46.03333" lon="4.74831">
        <ele>172.39999389648</ele>
        <time>2024-05-20T12:17:47.000Z</time>
      </trkpt>
      <trkpt lat="46.03327" lon="4.74831">
        <ele>172.39999389648</ele>
        <time>2024-05-20T12:17:48.000Z</time>
      </trkpt>
      <trkpt lat="46.0332" lon="4.74829">
        <ele>172.39999389648</ele>
        <time>2024-05-20T12:17:49.000Z</time>
      </trkpt>
      <trkpt lat="46.03314" lon="4.74827">
        <ele>172.39999389648</ele>
        <time>2024-05-20T12:17:50.000Z</time>
      </trkpt>
      <trkpt lat="46.03307" lon="4.74825">
        <ele>172.60000610352</ele>
        <time>2024-05-20T12:17:51.000Z</time>
      </trkpt>
      <trkpt lat="46.03301" lon="4.74823">
        <ele>172.60000610352</ele>
        <time>2024-05-20T12:17:52.000Z</time>
      </trkpt>
      <trkpt lat="46.03295" lon="4.74822">
        <ele>172.60000610352</ele>
        <time>2024-05-20T12:17:53.000Z</time>
      </trkpt>
      <trkpt lat="46.03289" lon="4.7482">
        <ele>172.60000610352</ele>
        <time>2024-05-20T12:17:54.000Z</time>
      </trkpt>
      <trkpt lat="46.03283" lon="4.74817">
        <ele>172.60000610352</ele>
        <time>2024-05-20T12:17:55.000Z</time>
      </trkpt>
      <trkpt lat="46.03277" lon="4.74815">
        <ele>172.60000610352</ele>
        <time>2024-05-20T12:17:56.000Z</time>
      </trkpt>
      <trkpt lat="46.03271" lon="4.74813">
        <ele>172.80000305176</ele>
        <time>2024-05-20T12:17:57.000Z</time>
      </trkpt>
      <trkpt lat="46.03265" lon="4.74812">
        <ele>172.80000305176</ele>
        <time>2024-05-20T12:17:58.000Z</time>
      </trkpt>
      <trkpt lat="46.03259" lon="4.74811">
        <ele>173</ele>
        <time>2024-05-20T12:17:59.000Z</time>
      </trkpt>
      <trkpt lat="46.03254" lon="4.74812">
        <ele>173.19999694824</ele>
        <time>2024-05-20T12:18:00.000Z</time>
      </trkpt>
      <trkpt lat="46.03249" lon="4.74813">
        <ele>173.39999389648</ele>
        <time>2024-05-20T12:18:01.000Z</time>
      </trkpt>
      <trkpt lat="46.03244" lon="4.74815">
        <ele>173.39999389648</ele>
        <time>2024-05-20T12:18:02.000Z</time>
      </trkpt>
      <trkpt lat="46.03238" lon="4.74818">
        <ele>173.39999389648</ele>
        <time>2024-05-20T12:18:03.000Z</time>
      </trkpt>
      <trkpt lat="46.03232" lon="4.74822">
        <ele>173.39999389648</ele>
        <time>2024-05-20T12:18:04.000Z</time>
      </trkpt>
      <trkpt lat="46.03225" lon="4.74826">
        <ele>173</ele>
        <time>2024-05-20T12:18:05.000Z</time>
      </trkpt>
      <trkpt lat="46.03218" lon="4.7483">
        <ele>172.80000305176</ele>
        <time>2024-05-20T12:18:06.000Z</time>
      </trkpt>
      <trkpt lat="46.03212" lon="4.74834">
        <ele>172.39999389648</ele>
        <time>2024-05-20T12:18:07.000Z</time>
      </trkpt>
      <trkpt lat="46.03206" lon="4.74838">
        <ele>172</ele>
        <time>2024-05-20T12:18:08.000Z</time>
      </trkpt>
      <trkpt lat="46.03199" lon="4.74842">
        <ele>171.80000305176</ele>
        <time>2024-05-20T12:18:09.000Z</time>
      </trkpt>
      <trkpt lat="46.03193" lon="4.74845">
        <ele>171.60000610352</ele>
        <time>2024-05-20T12:18:10.000Z</time>
      </trkpt>
      <trkpt lat="46.03187" lon="4.74848">
        <ele>171.60000610352</ele>
        <time>2024-05-20T12:18:11.000Z</time>
      </trkpt>
      <trkpt lat="46.03181" lon="4.74852">
        <ele>171.60000610352</ele>
        <time>2024-05-20T12:18:12.000Z</time>
      </trkpt>
      <trkpt lat="46.03175" lon="4.74855">
        <ele>171.60000610352</ele>
        <time>2024-05-20T12:18:13.000Z</time>
      </trkpt>
      <trkpt lat="46.03169" lon="4.74858">
        <ele>171.60000610352</ele>
        <time>2024-05-20T12:18:14.000Z</time>
      </trkpt>
      <trkpt lat="46.03163" lon="4.7486">
        <ele>171.60000610352</ele>
        <time>2024-05-20T12:18:15.000Z</time>
      </trkpt>
      <trkpt lat="46.03157" lon="4.74862">
        <ele>171.39999389648</ele>
        <time>2024-05-20T12:18:16.000Z</time>
      </trkpt>
      <trkpt lat="46.03151" lon="4.74863">
        <ele>171.19999694824</ele>
        <time>2024-05-20T12:18:17.000Z</time>
      </trkpt>
      <trkpt lat="46.03145" lon="4.74865">
        <ele>171.19999694824</ele>
        <time>2024-05-20T12:18:18.000Z</time>
      </trkpt>
      <trkpt lat="46.03139" lon="4.74866">
        <ele>171.19999694824</ele>
        <time>2024-05-20T12:18:19.000Z</time>
      </trkpt>
      <trkpt lat="46.03132" lon="4.74867">
        <ele>171.19999694824</ele>
        <time>2024-05-20T12:18:20.000Z</time>
      </trkpt>
      <trkpt lat="46.03126" lon="4.74868">
        <ele>171.19999694824</ele>
        <time>2024-05-20T12:18:21.000Z</time>
      </trkpt>
      <trkpt lat="46.0312" lon="4.74869">
        <ele>171.39999389648</ele>
        <time>2024-05-20T12:18:22.000Z</time>
      </trkpt>
      <trkpt lat="46.03114" lon="4.7487">
        <ele>171.39999389648</ele>
        <time>2024-05-20T12:18:23.000Z</time>
      </trkpt>
      <trkpt lat="46.03108" lon="4.74871">
        <ele>171.39999389648</ele>
        <time>2024-05-20T12:18:24.000Z</time>
      </trkpt>
      <trkpt lat="46.03102" lon="4.74872">
        <ele>171.39999389648</ele>
        <time>2024-05-20T12:18:25.000Z</time>
      </trkpt>
      <trkpt lat="46.03096" lon="4.74874">
        <ele>171.39999389648</ele>
        <time>2024-05-20T12:18:26.000Z</time>
      </trkpt>
      <trkpt lat="46.0309" lon="4.74875">
        <ele>171.39999389648</ele>
        <time>2024-05-20T12:18:27.000Z</time>
      </trkpt>
      <trkpt lat="46.03084" lon="4.74876">
        <ele>171.39999389648</ele>
        <time>2024-05-20T12:18:28.000Z</time>
      </trkpt>
      <trkpt lat="46.03078" lon="4.74877">
        <ele>171.39999389648</ele>
        <time>2024-05-20T12:18:29.000Z</time>
      </trkpt>
      <trkpt lat="46.03072" lon="4.74877">
        <ele>171.39999389648</ele>
        <time>2024-05-20T12:18:30.000Z</time>
      </trkpt>
      <trkpt lat="46.03066" lon="4.74878">
        <ele>171.39999389648</ele>
        <time>2024-05-20T12:18:31.000Z</time>
      </trkpt>
      <trkpt lat="46.0306" lon="4.74879">
        <ele>171.39999389648</ele>
        <time>2024-05-20T12:18:32.000Z</time>
      </trkpt>
      <trkpt lat="46.03054" lon="4.7488">
        <ele>171.19999694824</ele>
        <time>2024-05-20T12:18:33.000Z</time>
      </trkpt>
      <trkpt lat="46.03048" lon="4.74881">
        <ele>171.19999694824</ele>
        <time>2024-05-20T12:18:34.000Z</time>
      </trkpt>
      <trkpt lat="46.03042" lon="4.74881">
        <ele>171.19999694824</ele>
        <time>2024-05-20T12:18:35.000Z</time>
      </trkpt>
      <trkpt lat="46.03036" lon="4.74882">
        <ele>171.19999694824</ele>
        <time>2024-05-20T12:18:36.000Z</time>
      </trkpt>
      <trkpt lat="46.0303" lon="4.74883">
        <ele>171.19999694824</ele>
        <time>2024-05-20T12:18:37.000Z</time>
      </trkpt>
      <trkpt lat="46.03024" lon="4.74885">
        <ele>171.19999694824</ele>
        <time>2024-05-20T12:18:38.000Z</time>
      </trkpt>
      <trkpt lat="46.03018" lon="4.74886">
        <ele>171.19999694824</ele>
        <time>2024-05-20T12:18:39.000Z</time>
      </trkpt>
      <trkpt lat="46.03012" lon="4.74887">
        <ele>171.39999389648</ele>
        <time>2024-05-20T12:18:40.000Z</time>
      </trkpt>
      <trkpt lat="46.03006" lon="4.74889">
        <ele>171.39999389648</ele>
        <time>2024-05-20T12:18:41.000Z</time>
      </trkpt>
      <trkpt lat="46.03001" lon="4.74889">
        <ele>171.39999389648</ele>
        <time>2024-05-20T12:18:42.000Z</time>
      </trkpt>
      <trkpt lat="46.02995" lon="4.7489">
        <ele>171.39999389648</ele>
        <time>2024-05-20T12:18:43.000Z</time>
      </trkpt>
      <trkpt lat="46.02989" lon="4.74891">
        <ele>171.39999389648</ele>
        <time>2024-05-20T12:18:44.000Z</time>
      </trkpt>
      <trkpt lat="46.02983" lon="4.74892">
        <ele>171.60000610352</ele>
        <time>2024-05-20T12:18:45.000Z</time>
      </trkpt>
      <trkpt lat="46.02977" lon="4.74893">
        <ele>171.60000610352</ele>
        <time>2024-05-20T12:18:46.000Z</time>
      </trkpt>
      <trkpt lat="46.02971" lon="4.74893">
        <ele>171.60000610352</ele>
        <time>2024-05-20T12:18:47.000Z</time>
      </trkpt>
      <trkpt lat="46.02966" lon="4.74893">
        <ele>171.60000610352</ele>
        <time>2024-05-20T12:18:48.000Z</time>
      </trkpt>
      <trkpt lat="46.0296" lon="4.74893">
        <ele>171.60000610352</ele>
        <time>2024-05-20T12:18:49.000Z</time>
      </trkpt>
      <trkpt lat="46.02954" lon="4.74894">
        <ele>171.60000610352</ele>
        <time>2024-05-20T12:18:50.000Z</time>
      </trkpt>
      <trkpt lat="46.02948" lon="4.74896">
        <ele>171.19999694824</ele>
        <time>2024-05-20T12:18:51.000Z</time>
      </trkpt>
      <trkpt lat="46.02942" lon="4.74898">
        <ele>171.19999694824</ele>
        <time>2024-05-20T12:18:52.000Z</time>
      </trkpt>
      <trkpt lat="46.02936" lon="4.749">
        <ele>171.19999694824</ele>
        <time>2024-05-20T12:18:53.000Z</time>
      </trkpt>
      <trkpt lat="46.0293" lon="4.74901">
        <ele>171.19999694824</ele>
        <time>2024-05-20T12:18:54.000Z</time>
      </trkpt>
      <trkpt lat="46.02925" lon="4.74902">
        <ele>171.39999389648</ele>
        <time>2024-05-20T12:18:55.000Z</time>
      </trkpt>
      <trkpt lat="46.02919" lon="4.74903">
        <ele>171.39999389648</ele>
        <time>2024-05-20T12:18:56.000Z</time>
      </trkpt>
      <trkpt lat="46.02913" lon="4.74905">
        <ele>171.39999389648</ele>
        <time>2024-05-20T12:18:57.000Z</time>
      </trkpt>
      <trkpt lat="46.02908" lon="4.74906">
        <ele>171.39999389648</ele>
        <time>2024-05-20T12:18:58.000Z</time>
      </trkpt>
      <trkpt lat="46.02902" lon="4.74906">
        <ele>171.39999389648</ele>
        <time>2024-05-20T12:18:59.000Z</time>
      </trkpt>
      <trkpt lat="46.02896" lon="4.74907">
        <ele>171.60000610352</ele>
        <time>2024-05-20T12:19:00.000Z</time>
      </trkpt>
      <trkpt lat="46.0289" lon="4.74907">
        <ele>171.60000610352</ele>
        <time>2024-05-20T12:19:01.000Z</time>
      </trkpt>
      <trkpt lat="46.02884" lon="4.74907">
        <ele>171.60000610352</ele>
        <time>2024-05-20T12:19:02.000Z</time>
      </trkpt>
      <trkpt lat="46.02878" lon="4.74906">
        <ele>171.60000610352</ele>
        <time>2024-05-20T12:19:03.000Z</time>
      </trkpt>
      <trkpt lat="46.02873" lon="4.74906">
        <ele>171.80000305176</ele>
        <time>2024-05-20T12:19:04.000Z</time>
      </trkpt>
      <trkpt lat="46.02867" lon="4.74906">
        <ele>171.80000305176</ele>
        <time>2024-05-20T12:19:05.000Z</time>
      </trkpt>
      <trkpt lat="46.02861" lon="4.74906">
        <ele>171.80000305176</ele>
        <time>2024-05-20T12:19:06.000Z</time>
      </trkpt>
      <trkpt lat="46.02854" lon="4.74905">
        <ele>171.60000610352</ele>
        <time>2024-05-20T12:19:07.000Z</time>
      </trkpt>
      <trkpt lat="46.02848" lon="4.74905">
        <ele>171.39999389648</ele>
        <time>2024-05-20T12:19:08.000Z</time>
      </trkpt>
      <trkpt lat="46.02842" lon="4.74906">
        <ele>171.19999694824</ele>
        <time>2024-05-20T12:19:09.000Z</time>
      </trkpt>
      <trkpt lat="46.02836" lon="4.74906">
        <ele>171.19999694824</ele>
        <time>2024-05-20T12:19:10.000Z</time>
      </trkpt>
      <trkpt lat="46.02829" lon="4.74906">
        <ele>171.19999694824</ele>
        <time>2024-05-20T12:19:11.000Z</time>
      </trkpt>
      <trkpt lat="46.02824" lon="4.74907">
        <ele>171.19999694824</ele>
        <time>2024-05-20T12:19:12.000Z</time>
      </trkpt>
      <trkpt lat="46.02817" lon="4.74906">
        <ele>171.19999694824</ele>
        <time>2024-05-20T12:19:13.000Z</time>
      </trkpt>
      <trkpt lat="46.02812" lon="4.74906">
        <ele>171</ele>
        <time>2024-05-20T12:19:14.000Z</time>
      </trkpt>
      <trkpt lat="46.02806" lon="4.74905">
        <ele>170.80000305176</ele>
        <time>2024-05-20T12:19:15.000Z</time>
      </trkpt>
      <trkpt lat="46.028" lon="4.74905">
        <ele>170.80000305176</ele>
        <time>2024-05-20T12:19:16.000Z</time>
      </trkpt>
      <trkpt lat="46.02795" lon="4.74905">
        <ele>170.80000305176</ele>
        <time>2024-05-20T12:19:17.000Z</time>
      </trkpt>
      <trkpt lat="46.0279" lon="4.74904">
        <ele>170.80000305176</ele>
        <time>2024-05-20T12:19:18.000Z</time>
      </trkpt>
      <trkpt lat="46.02786" lon="4.74903">
        <ele>170.80000305176</ele>
        <time>2024-05-20T12:19:19.000Z</time>
      </trkpt>
      <trkpt lat="46.02782" lon="4.74902">
        <ele>171</ele>
        <time>2024-05-20T12:19:20.000Z</time>
      </trkpt>
      <trkpt lat="46.02777" lon="4.74901">
        <ele>171.19999694824</ele>
        <time>2024-05-20T12:19:21.000Z</time>
      </trkpt>
      <trkpt lat="46.02772" lon="4.74899">
        <ele>171.60000610352</ele>
        <time>2024-05-20T12:19:22.000Z</time>
      </trkpt>
      <trkpt lat="46.02767" lon="4.74896">
        <ele>171.80000305176</ele>
        <time>2024-05-20T12:19:23.000Z</time>
      </trkpt>
      <trkpt lat="46.02762" lon="4.74893">
        <ele>171.80000305176</ele>
        <time>2024-05-20T12:19:24.000Z</time>
      </trkpt>
      <trkpt lat="46.02757" lon="4.74889">
        <ele>171.80000305176</ele>
        <time>2024-05-20T12:19:25.000Z</time>
      </trkpt>
      <trkpt lat="46.02752" lon="4.74886">
        <ele>171.80000305176</ele>
        <time>2024-05-20T12:19:26.000Z</time>
      </trkpt>
      <trkpt lat="46.02747" lon="4.74883">
        <ele>171.80000305176</ele>
        <time>2024-05-20T12:19:27.000Z</time>
      </trkpt>
      <trkpt lat="46.02742" lon="4.74879">
        <ele>171.80000305176</ele>
        <time>2024-05-20T12:19:28.000Z</time>
      </trkpt>
      <trkpt lat="46.02737" lon="4.74876">
        <ele>171.80000305176</ele>
        <time>2024-05-20T12:19:29.000Z</time>
      </trkpt>
      <trkpt lat="46.02732" lon="4.74873">
        <ele>171.60000610352</ele>
        <time>2024-05-20T12:19:30.000Z</time>
      </trkpt>
      <trkpt lat="46.02726" lon="4.7487">
        <ele>171.60000610352</ele>
        <time>2024-05-20T12:19:31.000Z</time>
      </trkpt>
      <trkpt lat="46.02721" lon="4.74867">
        <ele>171.60000610352</ele>
        <time>2024-05-20T12:19:32.000Z</time>
      </trkpt>
      <trkpt lat="46.02715" lon="4.74864">
        <ele>171.19999694824</ele>
        <time>2024-05-20T12:19:33.000Z</time>
      </trkpt>
      <trkpt lat="46.0271" lon="4.7486">
        <ele>171</ele>
        <time>2024-05-20T12:19:34.000Z</time>
      </trkpt>
      <trkpt lat="46.02704" lon="4.74857">
        <ele>171</ele>
        <time>2024-05-20T12:19:35.000Z</time>
      </trkpt>
      <trkpt lat="46.02699" lon="4.74854">
        <ele>171</ele>
        <time>2024-05-20T12:19:36.000Z</time>
      </trkpt>
      <trkpt lat="46.02694" lon="4.74852">
        <ele>171</ele>
        <time>2024-05-20T12:19:37.000Z</time>
      </trkpt>
      <trkpt lat="46.02688" lon="4.74849">
        <ele>171</ele>
        <time>2024-05-20T12:19:38.000Z</time>
      </trkpt>
      <trkpt lat="46.02683" lon="4.74847">
        <ele>171</ele>
        <time>2024-05-20T12:19:39.000Z</time>
      </trkpt>
      <trkpt lat="46.02677" lon="4.74845">
        <ele>171.19999694824</ele>
        <time>2024-05-20T12:19:40.000Z</time>
      </trkpt>
      <trkpt lat="46.02671" lon="4.74843">
        <ele>171.19999694824</ele>
        <time>2024-05-20T12:19:41.000Z</time>
      </trkpt>
      <trkpt lat="46.02666" lon="4.74841">
        <ele>171.19999694824</ele>
        <time>2024-05-20T12:19:42.000Z</time>
      </trkpt>
      <trkpt lat="46.0266" lon="4.74838">
        <ele>171</ele>
        <time>2024-05-20T12:19:43.000Z</time>
      </trkpt>
      <trkpt lat="46.02654" lon="4.74835">
        <ele>171</ele>
        <time>2024-05-20T12:19:44.000Z</time>
      </trkpt>
      <trkpt lat="46.02649" lon="4.74833">
        <ele>171</ele>
        <time>2024-05-20T12:19:45.000Z</time>
      </trkpt>
      <trkpt lat="46.02643" lon="4.7483">
        <ele>170.60000610352</ele>
        <time>2024-05-20T12:19:46.000Z</time>
      </trkpt>
      <trkpt lat="46.02637" lon="4.74828">
        <ele>170.60000610352</ele>
        <time>2024-05-20T12:19:47.000Z</time>
      </trkpt>
      <trkpt lat="46.02632" lon="4.74825">
        <ele>170.60000610352</ele>
        <time>2024-05-20T12:19:48.000Z</time>
      </trkpt>
      <trkpt lat="46.02627" lon="4.74822">
        <ele>170.60000610352</ele>
        <time>2024-05-20T12:19:49.000Z</time>
      </trkpt>
      <trkpt lat="46.02621" lon="4.7482">
        <ele>170.60000610352</ele>
        <time>2024-05-20T12:19:50.000Z</time>
      </trkpt>
      <trkpt lat="46.02615" lon="4.74818">
        <ele>170.80000305176</ele>
        <time>2024-05-20T12:19:51.000Z</time>
      </trkpt>
      <trkpt lat="46.02609" lon="4.74816">
        <ele>170.80000305176</ele>
        <time>2024-05-20T12:19:52.000Z</time>
      </trkpt>
      <trkpt lat="46.02604" lon="4.74814">
        <ele>170.80000305176</ele>
        <time>2024-05-20T12:19:53.000Z</time>
      </trkpt>
      <trkpt lat="46.02598" lon="4.74813">
        <ele>170.80000305176</ele>
        <time>2024-05-20T12:19:54.000Z</time>
      </trkpt>
      <trkpt lat="46.02592" lon="4.74811">
        <ele>170.80000305176</ele>
        <time>2024-05-20T12:19:55.000Z</time>
      </trkpt>
      <trkpt lat="46.02586" lon="4.74809">
        <ele>170.80000305176</ele>
        <time>2024-05-20T12:19:56.000Z</time>
      </trkpt>
      <trkpt lat="46.02581" lon="4.74807">
        <ele>170.80000305176</ele>
        <time>2024-05-20T12:19:57.000Z</time>
      </trkpt>
      <trkpt lat="46.02575" lon="4.74806">
        <ele>170.80000305176</ele>
        <time>2024-05-20T12:19:58.000Z</time>
      </trkpt>
      <trkpt lat="46.02569" lon="4.74804">
        <ele>170.80000305176</ele>
        <time>2024-05-20T12:19:59.000Z</time>
      </trkpt>
      <trkpt lat="46.02564" lon="4.74802">
        <ele>170.39999389648</ele>
        <time>2024-05-20T12:20:00.000Z</time>
      </trkpt>
      <trkpt lat="46.02559" lon="4.748">
        <ele>170.39999389648</ele>
        <time>2024-05-20T12:20:01.000Z</time>
      </trkpt>
      <trkpt lat="46.02553" lon="4.74798">
        <ele>170.39999389648</ele>
        <time>2024-05-20T12:20:02.000Z</time>
      </trkpt>
      <trkpt lat="46.02548" lon="4.74796">
        <ele>170.39999389648</ele>
        <time>2024-05-20T12:20:03.000Z</time>
      </trkpt>
      <trkpt lat="46.02542" lon="4.74795">
        <ele>170.39999389648</ele>
        <time>2024-05-20T12:20:04.000Z</time>
      </trkpt>
      <trkpt lat="46.02537" lon="4.74793">
        <ele>170.39999389648</ele>
        <time>2024-05-20T12:20:05.000Z</time>
      </trkpt>
      <trkpt lat="46.02532" lon="4.74791">
        <ele>170.39999389648</ele>
        <time>2024-05-20T12:20:06.000Z</time>
      </trkpt>
      <trkpt lat="46.02526" lon="4.7479">
        <ele>170.39999389648</ele>
        <time>2024-05-20T12:20:07.000Z</time>
      </trkpt>
      <trkpt lat="46.02521" lon="4.74788">
        <ele>170.39999389648</ele>
        <time>2024-05-20T12:20:08.000Z</time>
      </trkpt>
      <trkpt lat="46.02516" lon="4.74786">
        <ele>170.39999389648</ele>
        <time>2024-05-20T12:20:09.000Z</time>
      </trkpt>
      <trkpt lat="46.0251" lon="4.74784">
        <ele>170.39999389648</ele>
        <time>2024-05-20T12:20:10.000Z</time>
      </trkpt>
      <trkpt lat="46.02505" lon="4.74782">
        <ele>170.19999694824</ele>
        <time>2024-05-20T12:20:11.000Z</time>
      </trkpt>
      <trkpt lat="46.025" lon="4.74779">
        <ele>170.19999694824</ele>
        <time>2024-05-20T12:20:12.000Z</time>
      </trkpt>
      <trkpt lat="46.02495" lon="4.74777">
        <ele>170.19999694824</ele>
        <time>2024-05-20T12:20:13.000Z</time>
      </trkpt>
      <trkpt lat="46.0249" lon="4.74775">
        <ele>170.19999694824</ele>
        <time>2024-05-20T12:20:14.000Z</time>
      </trkpt>
      <trkpt lat="46.02484" lon="4.74773">
        <ele>170.19999694824</ele>
        <time>2024-05-20T12:20:15.000Z</time>
      </trkpt>
      <trkpt lat="46.02479" lon="4.7477">
        <ele>170.19999694824</ele>
        <time>2024-05-20T12:20:16.000Z</time>
      </trkpt>
      <trkpt lat="46.02474" lon="4.74767">
        <ele>170.19999694824</ele>
        <time>2024-05-20T12:20:17.000Z</time>
      </trkpt>
      <trkpt lat="46.02469" lon="4.74763">
        <ele>170.19999694824</ele>
        <time>2024-05-20T12:20:18.000Z</time>
      </trkpt>
      <trkpt lat="46.02464" lon="4.7476">
        <ele>170.19999694824</ele>
        <time>2024-05-20T12:20:19.000Z</time>
      </trkpt>
      <trkpt lat="46.02459" lon="4.74757">
        <ele>170.39999389648</ele>
        <time>2024-05-20T12:20:20.000Z</time>
      </trkpt>
      <trkpt lat="46.02453" lon="4.74754">
        <ele>170.39999389648</ele>
        <time>2024-05-20T12:20:21.000Z</time>
      </trkpt>
      <trkpt lat="46.02447" lon="4.74752">
        <ele>170.60000610352</ele>
        <time>2024-05-20T12:20:22.000Z</time>
      </trkpt>
      <trkpt lat="46.02441" lon="4.74751">
        <ele>170.60000610352</ele>
        <time>2024-05-20T12:20:23.000Z</time>
      </trkpt>
      <trkpt lat="46.02436" lon="4.7475">
        <ele>170.60000610352</ele>
        <time>2024-05-20T12:20:24.000Z</time>
      </trkpt>
      <trkpt lat="46.0243" lon="4.74748">
        <ele>170.60000610352</ele>
        <time>2024-05-20T12:20:25.000Z</time>
      </trkpt>
      <trkpt lat="46.02425" lon="4.74746">
        <ele>170.39999389648</ele>
        <time>2024-05-20T12:20:26.000Z</time>
      </trkpt>
      <trkpt lat="46.0242" lon="4.74744">
        <ele>170.19999694824</ele>
        <time>2024-05-20T12:20:27.000Z</time>
      </trkpt>
      <trkpt lat="46.02415" lon="4.74743">
        <ele>170.19999694824</ele>
        <time>2024-05-20T12:20:28.000Z</time>
      </trkpt>
      <trkpt lat="46.0241" lon="4.74741">
        <ele>170</ele>
        <time>2024-05-20T12:20:29.000Z</time>
      </trkpt>
      <trkpt lat="46.02405" lon="4.7474">
        <ele>169.80000305176</ele>
        <time>2024-05-20T12:20:30.000Z</time>
      </trkpt>
      <trkpt lat="46.024" lon="4.74738">
        <ele>169.80000305176</ele>
        <time>2024-05-20T12:20:31.000Z</time>
      </trkpt>
      <trkpt lat="46.02395" lon="4.74737">
        <ele>169.80000305176</ele>
        <time>2024-05-20T12:20:32.000Z</time>
      </trkpt>
      <trkpt lat="46.0239" lon="4.74735">
        <ele>169.80000305176</ele>
        <time>2024-05-20T12:20:33.000Z</time>
      </trkpt>
      <trkpt lat="46.02385" lon="4.74734">
        <ele>170</ele>
        <time>2024-05-20T12:20:34.000Z</time>
      </trkpt>
      <trkpt lat="46.0238" lon="4.74732">
        <ele>170.39999389648</ele>
        <time>2024-05-20T12:20:35.000Z</time>
      </trkpt>
      <trkpt lat="46.02375" lon="4.74729">
        <ele>170.60000610352</ele>
        <time>2024-05-20T12:20:36.000Z</time>
      </trkpt>
      <trkpt lat="46.0237" lon="4.74727">
        <ele>170.60000610352</ele>
        <time>2024-05-20T12:20:37.000Z</time>
      </trkpt>
      <trkpt lat="46.02365" lon="4.74725">
        <ele>170.80000305176</ele>
        <time>2024-05-20T12:20:38.000Z</time>
      </trkpt>
      <trkpt lat="46.0236" lon="4.74722">
        <ele>170.80000305176</ele>
        <time>2024-05-20T12:20:39.000Z</time>
      </trkpt>
      <trkpt lat="46.02355" lon="4.7472">
        <ele>170.80000305176</ele>
        <time>2024-05-20T12:20:40.000Z</time>
      </trkpt>
      <trkpt lat="46.0235" lon="4.74718">
        <ele>170.80000305176</ele>
        <time>2024-05-20T12:20:41.000Z</time>
      </trkpt>
      <trkpt lat="46.02344" lon="4.74715">
        <ele>170.80000305176</ele>
        <time>2024-05-20T12:20:42.000Z</time>
      </trkpt>
      <trkpt lat="46.02339" lon="4.74713">
        <ele>170.80000305176</ele>
        <time>2024-05-20T12:20:43.000Z</time>
      </trkpt>
      <trkpt lat="46.02334" lon="4.7471">
        <ele>170.80000305176</ele>
        <time>2024-05-20T12:20:44.000Z</time>
      </trkpt>
      <trkpt lat="46.02328" lon="4.74708">
        <ele>170.80000305176</ele>
        <time>2024-05-20T12:20:45.000Z</time>
      </trkpt>
      <trkpt lat="46.02323" lon="4.74705">
        <ele>170.80000305176</ele>
        <time>2024-05-20T12:20:46.000Z</time>
      </trkpt>
      <trkpt lat="46.02318" lon="4.74703">
        <ele>170.80000305176</ele>
        <time>2024-05-20T12:20:47.000Z</time>
      </trkpt>
      <trkpt lat="46.02313" lon="4.74701">
        <ele>170.80000305176</ele>
        <time>2024-05-20T12:20:48.000Z</time>
      </trkpt>
      <trkpt lat="46.02307" lon="4.74698">
        <ele>171.19999694824</ele>
        <time>2024-05-20T12:20:49.000Z</time>
      </trkpt>
      <trkpt lat="46.02302" lon="4.74695">
        <ele>171.39999389648</ele>
        <time>2024-05-20T12:20:50.000Z</time>
      </trkpt>
      <trkpt lat="46.02296" lon="4.74692">
        <ele>171.39999389648</ele>
        <time>2024-05-20T12:20:51.000Z</time>
      </trkpt>
      <trkpt lat="46.02291" lon="4.74689">
        <ele>171.80000305176</ele>
        <time>2024-05-20T12:20:52.000Z</time>
      </trkpt>
      <trkpt lat="46.02285" lon="4.74687">
        <ele>171.80000305176</ele>
        <time>2024-05-20T12:20:53.000Z</time>
      </trkpt>
      <trkpt lat="46.02279" lon="4.74684">
        <ele>171.80000305176</ele>
        <time>2024-05-20T12:20:54.000Z</time>
      </trkpt>
      <trkpt lat="46.02274" lon="4.74681">
        <ele>171.80000305176</ele>
        <time>2024-05-20T12:20:55.000Z</time>
      </trkpt>
      <trkpt lat="46.02268" lon="4.74679">
        <ele>171.60000610352</ele>
        <time>2024-05-20T12:20:56.000Z</time>
      </trkpt>
      <trkpt lat="46.02262" lon="4.74676">
        <ele>171.60000610352</ele>
        <time>2024-05-20T12:20:57.000Z</time>
      </trkpt>
      <trkpt lat="46.02256" lon="4.74673">
        <ele>171.60000610352</ele>
        <time>2024-05-20T12:20:58.000Z</time>
      </trkpt>
      <trkpt lat="46.0225" lon="4.74671">
        <ele>171.60000610352</ele>
        <time>2024-05-20T12:20:59.000Z</time>
      </trkpt>
      <trkpt lat="46.02245" lon="4.74667">
        <ele>171.39999389648</ele>
        <time>2024-05-20T12:21:00.000Z</time>
      </trkpt>
      <trkpt lat="46.02239" lon="4.74664">
        <ele>171.39999389648</ele>
        <time>2024-05-20T12:21:01.000Z</time>
      </trkpt>
      <trkpt lat="46.02234" lon="4.74661">
        <ele>171.39999389648</ele>
        <time>2024-05-20T12:21:02.000Z</time>
      </trkpt>
      <trkpt lat="46.02229" lon="4.74657">
        <ele>171.39999389648</ele>
        <time>2024-05-20T12:21:03.000Z</time>
      </trkpt>
      <trkpt lat="46.02223" lon="4.74654">
        <ele>171.60000610352</ele>
        <time>2024-05-20T12:21:04.000Z</time>
      </trkpt>
      <trkpt lat="46.02217" lon="4.74652">
        <ele>171.60000610352</ele>
        <time>2024-05-20T12:21:05.000Z</time>
      </trkpt>
      <trkpt lat="46.02212" lon="4.74649">
        <ele>171.60000610352</ele>
        <time>2024-05-20T12:21:06.000Z</time>
      </trkpt>
      <trkpt lat="46.02206" lon="4.74646">
        <ele>171.60000610352</ele>
        <time>2024-05-20T12:21:07.000Z</time>
      </trkpt>
      <trkpt lat="46.022" lon="4.74644">
        <ele>171.60000610352</ele>
        <time>2024-05-20T12:21:08.000Z</time>
      </trkpt>
      <trkpt lat="46.02194" lon="4.74641">
        <ele>171.80000305176</ele>
        <time>2024-05-20T12:21:09.000Z</time>
      </trkpt>
      <trkpt lat="46.02188" lon="4.74638">
        <ele>171.80000305176</ele>
        <time>2024-05-20T12:21:10.000Z</time>
      </trkpt>
      <trkpt lat="46.02182" lon="4.74636">
        <ele>171.80000305176</ele>
        <time>2024-05-20T12:21:11.000Z</time>
      </trkpt>
      <trkpt lat="46.02176" lon="4.74633">
        <ele>171.80000305176</ele>
        <time>2024-05-20T12:21:12.000Z</time>
      </trkpt>
      <trkpt lat="46.0217" lon="4.74631">
        <ele>171.80000305176</ele>
        <time>2024-05-20T12:21:13.000Z</time>
      </trkpt>
      <trkpt lat="46.02164" lon="4.74628">
        <ele>171.80000305176</ele>
        <time>2024-05-20T12:21:14.000Z</time>
      </trkpt>
      <trkpt lat="46.02158" lon="4.74625">
        <ele>171.80000305176</ele>
        <time>2024-05-20T12:21:15.000Z</time>
      </trkpt>
      <trkpt lat="46.02152" lon="4.74623">
        <ele>171.80000305176</ele>
        <time>2024-05-20T12:21:16.000Z</time>
      </trkpt>
      <trkpt lat="46.02145" lon="4.7462">
        <ele>171.60000610352</ele>
        <time>2024-05-20T12:21:17.000Z</time>
      </trkpt>
      <trkpt lat="46.02139" lon="4.74617">
        <ele>171.39999389648</ele>
        <time>2024-05-20T12:21:18.000Z</time>
      </trkpt>
      <trkpt lat="46.02133" lon="4.74615">
        <ele>171.39999389648</ele>
        <time>2024-05-20T12:21:19.000Z</time>
      </trkpt>
      <trkpt lat="46.02127" lon="4.74612">
        <ele>171</ele>
        <time>2024-05-20T12:21:20.000Z</time>
      </trkpt>
      <trkpt lat="46.02121" lon="4.7461">
        <ele>171</ele>
        <time>2024-05-20T12:21:21.000Z</time>
      </trkpt>
      <trkpt lat="46.02114" lon="4.74607">
        <ele>171</ele>
        <time>2024-05-20T12:21:22.000Z</time>
      </trkpt>
      <trkpt lat="46.02108" lon="4.74605">
        <ele>171</ele>
        <time>2024-05-20T12:21:23.000Z</time>
      </trkpt>
      <trkpt lat="46.02102" lon="4.74603">
        <ele>171</ele>
        <time>2024-05-20T12:21:24.000Z</time>
      </trkpt>
      <trkpt lat="46.02096" lon="4.74601">
        <ele>171.19999694824</ele>
        <time>2024-05-20T12:21:25.000Z</time>
      </trkpt>
      <trkpt lat="46.0209" lon="4.74599">
        <ele>171.39999389648</ele>
        <time>2024-05-20T12:21:26.000Z</time>
      </trkpt>
      <trkpt lat="46.02083" lon="4.74597">
        <ele>171.39999389648</ele>
        <time>2024-05-20T12:21:27.000Z</time>
      </trkpt>
      <trkpt lat="46.02077" lon="4.74596">
        <ele>171.39999389648</ele>
        <time>2024-05-20T12:21:28.000Z</time>
      </trkpt>
      <trkpt lat="46.02071" lon="4.74594">
        <ele>171.39999389648</ele>
        <time>2024-05-20T12:21:29.000Z</time>
      </trkpt>
      <trkpt lat="46.02065" lon="4.74592">
        <ele>171.39999389648</ele>
        <time>2024-05-20T12:21:30.000Z</time>
      </trkpt>
      <trkpt lat="46.02059" lon="4.7459">
        <ele>171.19999694824</ele>
        <time>2024-05-20T12:21:31.000Z</time>
      </trkpt>
      <trkpt lat="46.02053" lon="4.74588">
        <ele>171.19999694824</ele>
        <time>2024-05-20T12:21:32.000Z</time>
      </trkpt>
      <trkpt lat="46.02047" lon="4.74587">
        <ele>171.19999694824</ele>
        <time>2024-05-20T12:21:33.000Z</time>
      </trkpt>
      <trkpt lat="46.02041" lon="4.74585">
        <ele>171.19999694824</ele>
        <time>2024-05-20T12:21:34.000Z</time>
      </trkpt>
      <trkpt lat="46.02035" lon="4.74583">
        <ele>171</ele>
        <time>2024-05-20T12:21:35.000Z</time>
      </trkpt>
      <trkpt lat="46.02029" lon="4.74582">
        <ele>171</ele>
        <time>2024-05-20T12:21:36.000Z</time>
      </trkpt>
      <trkpt lat="46.02023" lon="4.74581">
        <ele>171</ele>
        <time>2024-05-20T12:21:37.000Z</time>
      </trkpt>
      <trkpt lat="46.02017" lon="4.7458">
        <ele>171</ele>
        <time>2024-05-20T12:21:38.000Z</time>
      </trkpt>
      <trkpt lat="46.0201" lon="4.7458">
        <ele>171</ele>
        <time>2024-05-20T12:21:39.000Z</time>
      </trkpt>
      <trkpt lat="46.02004" lon="4.74579">
        <ele>171</ele>
        <time>2024-05-20T12:21:40.000Z</time>
      </trkpt>
      <trkpt lat="46.01998" lon="4.74579">
        <ele>171</ele>
        <time>2024-05-20T12:21:41.000Z</time>
      </trkpt>
      <trkpt lat="46.01992" lon="4.74579">
        <ele>171</ele>
        <time>2024-05-20T12:21:42.000Z</time>
      </trkpt>
      <trkpt lat="46.01985" lon="4.74578">
        <ele>171</ele>
        <time>2024-05-20T12:21:43.000Z</time>
      </trkpt>
      <trkpt lat="46.01979" lon="4.74578">
        <ele>170.80000305176</ele>
        <time>2024-05-20T12:21:44.000Z</time>
      </trkpt>
      <trkpt lat="46.01973" lon="4.74577">
        <ele>170.80000305176</ele>
        <time>2024-05-20T12:21:45.000Z</time>
      </trkpt>
      <trkpt lat="46.01967" lon="4.74577">
        <ele>170.80000305176</ele>
        <time>2024-05-20T12:21:46.000Z</time>
      </trkpt>
      <trkpt lat="46.0196" lon="4.74577">
        <ele>170.60000610352</ele>
        <time>2024-05-20T12:21:47.000Z</time>
      </trkpt>
      <trkpt lat="46.01954" lon="4.74576">
        <ele>170.60000610352</ele>
        <time>2024-05-20T12:21:48.000Z</time>
      </trkpt>
      <trkpt lat="46.01948" lon="4.74576">
        <ele>170.60000610352</ele>
        <time>2024-05-20T12:21:49.000Z</time>
      </trkpt>
      <trkpt lat="46.01942" lon="4.74576">
        <ele>170.60000610352</ele>
        <time>2024-05-20T12:21:50.000Z</time>
      </trkpt>
      <trkpt lat="46.01936" lon="4.74576">
        <ele>170.60000610352</ele>
        <time>2024-05-20T12:21:51.000Z</time>
      </trkpt>
      <trkpt lat="46.01931" lon="4.74577">
        <ele>170.60000610352</ele>
        <time>2024-05-20T12:21:52.000Z</time>
      </trkpt>
      <trkpt lat="46.01926" lon="4.74577">
        <ele>170.60000610352</ele>
        <time>2024-05-20T12:21:53.000Z</time>
      </trkpt>
      <trkpt lat="46.0192" lon="4.74576">
        <ele>170.80000305176</ele>
        <time>2024-05-20T12:21:54.000Z</time>
      </trkpt>
      <trkpt lat="46.01915" lon="4.74576">
        <ele>171</ele>
        <time>2024-05-20T12:21:55.000Z</time>
      </trkpt>
      <trkpt lat="46.01909" lon="4.74575">
        <ele>171.19999694824</ele>
        <time>2024-05-20T12:21:56.000Z</time>
      </trkpt>
      <trkpt lat="46.01904" lon="4.74574">
        <ele>171.19999694824</ele>
        <time>2024-05-20T12:21:57.000Z</time>
      </trkpt>
      <trkpt lat="46.01898" lon="4.74574">
        <ele>171.39999389648</ele>
        <time>2024-05-20T12:21:58.000Z</time>
      </trkpt>
      <trkpt lat="46.01893" lon="4.74574">
        <ele>171.39999389648</ele>
        <time>2024-05-20T12:21:59.000Z</time>
      </trkpt>
      <trkpt lat="46.01886" lon="4.74574">
        <ele>171.39999389648</ele>
        <time>2024-05-20T12:22:00.000Z</time>
      </trkpt>
      <trkpt lat="46.0188" lon="4.74574">
        <ele>171.39999389648</ele>
        <time>2024-05-20T12:22:01.000Z</time>
      </trkpt>
      <trkpt lat="46.01874" lon="4.74574">
        <ele>171.19999694824</ele>
        <time>2024-05-20T12:22:02.000Z</time>
      </trkpt>
      <trkpt lat="46.01868" lon="4.74575">
        <ele>171.19999694824</ele>
        <time>2024-05-20T12:22:03.000Z</time>
      </trkpt>
      <trkpt lat="46.01862" lon="4.74575">
        <ele>171.19999694824</ele>
        <time>2024-05-20T12:22:04.000Z</time>
      </trkpt>
      <trkpt lat="46.01855" lon="4.74575">
        <ele>171.19999694824</ele>
        <time>2024-05-20T12:22:05.000Z</time>
      </trkpt>
      <trkpt lat="46.01849" lon="4.74575">
        <ele>171.19999694824</ele>
        <time>2024-05-20T12:22:06.000Z</time>
      </trkpt>
      <trkpt lat="46.01843" lon="4.74577">
        <ele>171.39999389648</ele>
        <time>2024-05-20T12:22:07.000Z</time>
      </trkpt>
      <trkpt lat="46.01837" lon="4.74578">
        <ele>171.39999389648</ele>
        <time>2024-05-20T12:22:08.000Z</time>
      </trkpt>
      <trkpt lat="46.01832" lon="4.7458">
        <ele>171.60000610352</ele>
        <time>2024-05-20T12:22:09.000Z</time>
      </trkpt>
      <trkpt lat="46.01826" lon="4.74581">
        <ele>171.60000610352</ele>
        <time>2024-05-20T12:22:10.000Z</time>
      </trkpt>
      <trkpt lat="46.0182" lon="4.74583">
        <ele>171.60000610352</ele>
        <time>2024-05-20T12:22:11.000Z</time>
      </trkpt>
      <trkpt lat="46.01815" lon="4.74584">
        <ele>172</ele>
        <time>2024-05-20T12:22:12.000Z</time>
      </trkpt>
      <trkpt lat="46.01809" lon="4.74586">
        <ele>172.39999389648</ele>
        <time>2024-05-20T12:22:13.000Z</time>
      </trkpt>
      <trkpt lat="46.01803" lon="4.74588">
        <ele>172.39999389648</ele>
        <time>2024-05-20T12:22:14.000Z</time>
      </trkpt>
      <trkpt lat="46.01797" lon="4.74589">
        <ele>172.60000610352</ele>
        <time>2024-05-20T12:22:15.000Z</time>
      </trkpt>
      <trkpt lat="46.01792" lon="4.7459">
        <ele>172.60000610352</ele>
        <time>2024-05-20T12:22:16.000Z</time>
      </trkpt>
      <trkpt lat="46.01786" lon="4.74592">
        <ele>172.60000610352</ele>
        <time>2024-05-20T12:22:17.000Z</time>
      </trkpt>
      <trkpt lat="46.0178" lon="4.74593">
        <ele>172.60000610352</ele>
        <time>2024-05-20T12:22:18.000Z</time>
      </trkpt>
      <trkpt lat="46.01774" lon="4.74595">
        <ele>172.60000610352</ele>
        <time>2024-05-20T12:22:19.000Z</time>
      </trkpt>
      <trkpt lat="46.01768" lon="4.74596">
        <ele>172.60000610352</ele>
        <time>2024-05-20T12:22:20.000Z</time>
      </trkpt>
      <trkpt lat="46.01762" lon="4.74598">
        <ele>172.60000610352</ele>
        <time>2024-05-20T12:22:21.000Z</time>
      </trkpt>
      <trkpt lat="46.01756" lon="4.746">
        <ele>172.60000610352</ele>
        <time>2024-05-20T12:22:22.000Z</time>
      </trkpt>
      <trkpt lat="46.0175" lon="4.74601">
        <ele>172.60000610352</ele>
        <time>2024-05-20T12:22:23.000Z</time>
      </trkpt>
      <trkpt lat="46.01744" lon="4.74603">
        <ele>172.39999389648</ele>
        <time>2024-05-20T12:22:24.000Z</time>
      </trkpt>
      <trkpt lat="46.01738" lon="4.74605">
        <ele>172.19999694824</ele>
        <time>2024-05-20T12:22:25.000Z</time>
      </trkpt>
      <trkpt lat="46.01732" lon="4.74606">
        <ele>172</ele>
        <time>2024-05-20T12:22:26.000Z</time>
      </trkpt>
      <trkpt lat="46.01726" lon="4.74608">
        <ele>172</ele>
        <time>2024-05-20T12:22:27.000Z</time>
      </trkpt>
      <trkpt lat="46.0172" lon="4.74611">
        <ele>172</ele>
        <time>2024-05-20T12:22:28.000Z</time>
      </trkpt>
      <trkpt lat="46.01714" lon="4.74613">
        <ele>172</ele>
        <time>2024-05-20T12:22:29.000Z</time>
      </trkpt>
      <trkpt lat="46.01709" lon="4.74616">
        <ele>172</ele>
        <time>2024-05-20T12:22:30.000Z</time>
      </trkpt>
      <trkpt lat="46.01703" lon="4.74619">
        <ele>171.60000610352</ele>
        <time>2024-05-20T12:22:31.000Z</time>
      </trkpt>
      <trkpt lat="46.01697" lon="4.74622">
        <ele>171.39999389648</ele>
        <time>2024-05-20T12:22:32.000Z</time>
      </trkpt>
      <trkpt lat="46.01691" lon="4.74626">
        <ele>171</ele>
        <time>2024-05-20T12:22:33.000Z</time>
      </trkpt>
      <trkpt lat="46.01686" lon="4.74629">
        <ele>171</ele>
        <time>2024-05-20T12:22:34.000Z</time>
      </trkpt>
      <trkpt lat="46.0168" lon="4.74632">
        <ele>171</ele>
        <time>2024-05-20T12:22:35.000Z</time>
      </trkpt>
      <trkpt lat="46.01674" lon="4.74635">
        <ele>170.80000305176</ele>
        <time>2024-05-20T12:22:36.000Z</time>
      </trkpt>
      <trkpt lat="46.01669" lon="4.74638">
        <ele>170.60000610352</ele>
        <time>2024-05-20T12:22:37.000Z</time>
      </trkpt>
      <trkpt lat="46.01663" lon="4.74641">
        <ele>170.60000610352</ele>
        <time>2024-05-20T12:22:38.000Z</time>
      </trkpt>
      <trkpt lat="46.01657" lon="4.74644">
        <ele>170.60000610352</ele>
        <time>2024-05-20T12:22:39.000Z</time>
      </trkpt>
      <trkpt lat="46.01651" lon="4.74647">
        <ele>170.60000610352</ele>
        <time>2024-05-20T12:22:40.000Z</time>
      </trkpt>
      <trkpt lat="46.01645" lon="4.7465">
        <ele>170.60000610352</ele>
        <time>2024-05-20T12:22:41.000Z</time>
      </trkpt>
      <trkpt lat="46.0164" lon="4.74653">
        <ele>170.60000610352</ele>
        <time>2024-05-20T12:22:42.000Z</time>
      </trkpt>
      <trkpt lat="46.01634" lon="4.74656">
        <ele>170.60000610352</ele>
        <time>2024-05-20T12:22:43.000Z</time>
      </trkpt>
      <trkpt lat="46.01628" lon="4.74659">
        <ele>170.80000305176</ele>
        <time>2024-05-20T12:22:44.000Z</time>
      </trkpt>
      <trkpt lat="46.01622" lon="4.74662">
        <ele>170.80000305176</ele>
        <time>2024-05-20T12:22:45.000Z</time>
      </trkpt>
      <trkpt lat="46.01616" lon="4.74666">
        <ele>170.80000305176</ele>
        <time>2024-05-20T12:22:46.000Z</time>
      </trkpt>
      <trkpt lat="46.01611" lon="4.74669">
        <ele>170.80000305176</ele>
        <time>2024-05-20T12:22:47.000Z</time>
      </trkpt>
      <trkpt lat="46.01605" lon="4.74672">
        <ele>170.80000305176</ele>
        <time>2024-05-20T12:22:48.000Z</time>
      </trkpt>
      <trkpt lat="46.01599" lon="4.74676">
        <ele>170.80000305176</ele>
        <time>2024-05-20T12:22:49.000Z</time>
      </trkpt>
      <trkpt lat="46.01593" lon="4.74679">
        <ele>170.80000305176</ele>
        <time>2024-05-20T12:22:50.000Z</time>
      </trkpt>
      <trkpt lat="46.01588" lon="4.74682">
        <ele>170.80000305176</ele>
        <time>2024-05-20T12:22:51.000Z</time>
      </trkpt>
      <trkpt lat="46.01582" lon="4.74686">
        <ele>171</ele>
        <time>2024-05-20T12:22:52.000Z</time>
      </trkpt>
      <trkpt lat="46.01577" lon="4.74689">
        <ele>171</ele>
        <time>2024-05-20T12:22:53.000Z</time>
      </trkpt>
      <trkpt lat="46.01572" lon="4.74692">
        <ele>171</ele>
        <time>2024-05-20T12:22:54.000Z</time>
      </trkpt>
      <trkpt lat="46.01566" lon="4.74696">
        <ele>171</ele>
        <time>2024-05-20T12:22:55.000Z</time>
      </trkpt>
      <trkpt lat="46.01561" lon="4.74699">
        <ele>171</ele>
        <time>2024-05-20T12:22:56.000Z</time>
      </trkpt>
      <trkpt lat="46.01555" lon="4.74703">
        <ele>171</ele>
        <time>2024-05-20T12:22:57.000Z</time>
      </trkpt>
      <trkpt lat="46.01549" lon="4.74706">
        <ele>171</ele>
        <time>2024-05-20T12:22:58.000Z</time>
      </trkpt>
      <trkpt lat="46.01544" lon="4.7471">
        <ele>171</ele>
        <time>2024-05-20T12:22:59.000Z</time>
      </trkpt>
      <trkpt lat="46.01538" lon="4.74713">
        <ele>171</ele>
        <time>2024-05-20T12:23:00.000Z</time>
      </trkpt>
      <trkpt lat="46.01532" lon="4.74716">
        <ele>171</ele>
        <time>2024-05-20T12:23:01.000Z</time>
      </trkpt>
      <trkpt lat="46.01527" lon="4.7472">
        <ele>171</ele>
        <time>2024-05-20T12:23:02.000Z</time>
      </trkpt>
      <trkpt lat="46.01521" lon="4.74724">
        <ele>171</ele>
        <time>2024-05-20T12:23:03.000Z</time>
      </trkpt>
      <trkpt lat="46.01516" lon="4.74728">
        <ele>171</ele>
        <time>2024-05-20T12:23:04.000Z</time>
      </trkpt>
      <trkpt lat="46.0151" lon="4.74732">
        <ele>171</ele>
        <time>2024-05-20T12:23:05.000Z</time>
      </trkpt>
      <trkpt lat="46.01504" lon="4.74735">
        <ele>170.80000305176</ele>
        <time>2024-05-20T12:23:06.000Z</time>
      </trkpt>
      <trkpt lat="46.01499" lon="4.74739">
        <ele>170.80000305176</ele>
        <time>2024-05-20T12:23:07.000Z</time>
      </trkpt>
      <trkpt lat="46.01493" lon="4.74743">
        <ele>170.60000610352</ele>
        <time>2024-05-20T12:23:08.000Z</time>
      </trkpt>
      <trkpt lat="46.01488" lon="4.74747">
        <ele>170.60000610352</ele>
        <time>2024-05-20T12:23:09.000Z</time>
      </trkpt>
      <trkpt lat="46.01482" lon="4.74751">
        <ele>170.60000610352</ele>
        <time>2024-05-20T12:23:10.000Z</time>
      </trkpt>
      <trkpt lat="46.01476" lon="4.74755">
        <ele>170.60000610352</ele>
        <time>2024-05-20T12:23:11.000Z</time>
      </trkpt>
      <trkpt lat="46.01471" lon="4.74759">
        <ele>170.60000610352</ele>
        <time>2024-05-20T12:23:12.000Z</time>
      </trkpt>
      <trkpt lat="46.01465" lon="4.74764">
        <ele>170.60000610352</ele>
        <time>2024-05-20T12:23:13.000Z</time>
      </trkpt>
      <trkpt lat="46.0146" lon="4.74768">
        <ele>170.60000610352</ele>
        <time>2024-05-20T12:23:14.000Z</time>
      </trkpt>
      <trkpt lat="46.01454" lon="4.74772">
        <ele>170.80000305176</ele>
        <time>2024-05-20T12:23:15.000Z</time>
      </trkpt>
      <trkpt lat="46.01449" lon="4.74777">
        <ele>170.80000305176</ele>
        <time>2024-05-20T12:23:16.000Z</time>
      </trkpt>
      <trkpt lat="46.01443" lon="4.74781">
        <ele>170.80000305176</ele>
        <time>2024-05-20T12:23:17.000Z</time>
      </trkpt>
      <trkpt lat="46.01438" lon="4.74786">
        <ele>170.80000305176</ele>
        <time>2024-05-20T12:23:18.000Z</time>
      </trkpt>
      <trkpt lat="46.01432" lon="4.74792">
        <ele>170.80000305176</ele>
        <time>2024-05-20T12:23:19.000Z</time>
      </trkpt>
      <trkpt lat="46.01427" lon="4.74797">
        <ele>170.80000305176</ele>
        <time>2024-05-20T12:23:20.000Z</time>
      </trkpt>
      <trkpt lat="46.01422" lon="4.74802">
        <ele>170.80000305176</ele>
        <time>2024-05-20T12:23:21.000Z</time>
      </trkpt>
      <trkpt lat="46.01417" lon="4.74808">
        <ele>170.80000305176</ele>
        <time>2024-05-20T12:23:22.000Z</time>
      </trkpt>
      <trkpt lat="46.01412" lon="4.74813">
        <ele>170.80000305176</ele>
        <time>2024-05-20T12:23:23.000Z</time>
      </trkpt>
      <trkpt lat="46.01407" lon="4.74818">
        <ele>170.80000305176</ele>
        <time>2024-05-20T12:23:24.000Z</time>
      </trkpt>
      <trkpt lat="46.01401" lon="4.74824">
        <ele>171</ele>
        <time>2024-05-20T12:23:25.000Z</time>
      </trkpt>
      <trkpt lat="46.01397" lon="4.7483">
        <ele>171</ele>
        <time>2024-05-20T12:23:26.000Z</time>
      </trkpt>
      <trkpt lat="46.01392" lon="4.74836">
        <ele>171</ele>
        <time>2024-05-20T12:23:27.000Z</time>
      </trkpt>
      <trkpt lat="46.01388" lon="4.74842">
        <ele>171.19999694824</ele>
        <time>2024-05-20T12:23:28.000Z</time>
      </trkpt>
      <trkpt lat="46.01384" lon="4.74847">
        <ele>171</ele>
        <time>2024-05-20T12:23:29.000Z</time>
      </trkpt>
      <trkpt lat="46.0138" lon="4.74852">
        <ele>171</ele>
        <time>2024-05-20T12:23:30.000Z</time>
      </trkpt>
      <trkpt lat="46.01376" lon="4.74857">
        <ele>171</ele>
        <time>2024-05-20T12:23:31.000Z</time>
      </trkpt>
      <trkpt lat="46.01373" lon="4.74862">
        <ele>171.19999694824</ele>
        <time>2024-05-20T12:23:32.000Z</time>
      </trkpt>
      <trkpt lat="46.01369" lon="4.74866">
        <ele>171.19999694824</ele>
        <time>2024-05-20T12:23:33.000Z</time>
      </trkpt>
      <trkpt lat="46.01365" lon="4.74871">
        <ele>171.39999389648</ele>
        <time>2024-05-20T12:23:34.000Z</time>
      </trkpt>
      <trkpt lat="46.01362" lon="4.74875">
        <ele>171.39999389648</ele>
        <time>2024-05-20T12:23:35.000Z</time>
      </trkpt>
      <trkpt lat="46.01358" lon="4.7488">
        <ele>171.60000610352</ele>
        <time>2024-05-20T12:23:36.000Z</time>
      </trkpt>
      <trkpt lat="46.01353" lon="4.74885">
        <ele>171.60000610352</ele>
        <time>2024-05-20T12:23:37.000Z</time>
      </trkpt>
      <trkpt lat="46.0135" lon="4.74887">
        <ele>171.80000305176</ele>
        <time>2024-05-20T12:23:38.000Z</time>
      </trkpt>
      <trkpt lat="46.01345" lon="4.7489">
        <ele>172</ele>
        <time>2024-05-20T12:23:39.000Z</time>
      </trkpt>
      <trkpt lat="46.01341" lon="4.74892">
        <ele>172</ele>
        <time>2024-05-20T12:23:40.000Z</time>
      </trkpt>
      <trkpt lat="46.01336" lon="4.74894">
        <ele>172</ele>
        <time>2024-05-20T12:23:41.000Z</time>
      </trkpt>
      <trkpt lat="46.01331" lon="4.74896">
        <ele>172</ele>
        <time>2024-05-20T12:23:42.000Z</time>
      </trkpt>
      <trkpt lat="46.01326" lon="4.74899">
        <ele>172</ele>
        <time>2024-05-20T12:23:43.000Z</time>
      </trkpt>
      <trkpt lat="46.0132" lon="4.74902">
        <ele>171.80000305176</ele>
        <time>2024-05-20T12:23:44.000Z</time>
      </trkpt>
      <trkpt lat="46.01315" lon="4.74905">
        <ele>171.80000305176</ele>
        <time>2024-05-20T12:23:45.000Z</time>
      </trkpt>
      <trkpt lat="46.01309" lon="4.74909">
        <ele>171.80000305176</ele>
        <time>2024-05-20T12:23:46.000Z</time>
      </trkpt>
      <trkpt lat="46.01303" lon="4.74913">
        <ele>171.80000305176</ele>
        <time>2024-05-20T12:23:47.000Z</time>
      </trkpt>
      <trkpt lat="46.01297" lon="4.74917">
        <ele>171.80000305176</ele>
        <time>2024-05-20T12:23:48.000Z</time>
      </trkpt>
      <trkpt lat="46.01292" lon="4.74921">
        <ele>171.60000610352</ele>
        <time>2024-05-20T12:23:49.000Z</time>
      </trkpt>
      <trkpt lat="46.01286" lon="4.74923">
        <ele>171.60000610352</ele>
        <time>2024-05-20T12:23:50.000Z</time>
      </trkpt>
      <trkpt lat="46.0128" lon="4.74927">
        <ele>171.60000610352</ele>
        <time>2024-05-20T12:23:51.000Z</time>
      </trkpt>
      <trkpt lat="46.01274" lon="4.74931">
        <ele>171.39999389648</ele>
        <time>2024-05-20T12:23:52.000Z</time>
      </trkpt>
      <trkpt lat="46.01268" lon="4.74935">
        <ele>171.60000610352</ele>
        <time>2024-05-20T12:23:53.000Z</time>
      </trkpt>
      <trkpt lat="46.01263" lon="4.74939">
        <ele>171.60000610352</ele>
        <time>2024-05-20T12:23:54.000Z</time>
      </trkpt>
      <trkpt lat="46.01257" lon="4.74943">
        <ele>171.39999389648</ele>
        <time>2024-05-20T12:23:55.000Z</time>
      </trkpt>
      <trkpt lat="46.01252" lon="4.74947">
        <ele>171.39999389648</ele>
        <time>2024-05-20T12:23:56.000Z</time>
      </trkpt>
      <trkpt lat="46.01246" lon="4.74951">
        <ele>171.60000610352</ele>
        <time>2024-05-20T12:23:57.000Z</time>
      </trkpt>
      <trkpt lat="46.01241" lon="4.74955">
        <ele>171.60000610352</ele>
        <time>2024-05-20T12:23:58.000Z</time>
      </trkpt>
      <trkpt lat="46.01234" lon="4.7496">
        <ele>171.60000610352</ele>
        <time>2024-05-20T12:23:59.000Z</time>
      </trkpt>
      <trkpt lat="46.01229" lon="4.74964">
        <ele>171.60000610352</ele>
        <time>2024-05-20T12:24:00.000Z</time>
      </trkpt>
      <trkpt lat="46.01223" lon="4.74967">
        <ele>171.39999389648</ele>
        <time>2024-05-20T12:24:01.000Z</time>
      </trkpt>
      <trkpt lat="46.01219" lon="4.74971">
        <ele>171.60000610352</ele>
        <time>2024-05-20T12:24:02.000Z</time>
      </trkpt>
      <trkpt lat="46.01216" lon="4.74975">
        <ele>171.60000610352</ele>
        <time>2024-05-20T12:24:03.000Z</time>
      </trkpt>
      <trkpt lat="46.01213" lon="4.74977">
        <ele>171.60000610352</ele>
        <time>2024-05-20T12:24:04.000Z</time>
      </trkpt>
      <trkpt lat="46.0121" lon="4.7498">
        <ele>171.60000610352</ele>
        <time>2024-05-20T12:24:05.000Z</time>
      </trkpt>
      <trkpt lat="46.01208" lon="4.74981">
        <ele>171.80000305176</ele>
        <time>2024-05-20T12:24:06.000Z</time>
      </trkpt>
      <trkpt lat="46.01206" lon="4.74983">
        <ele>171.80000305176</ele>
        <time>2024-05-20T12:24:07.000Z</time>
      </trkpt>
      <trkpt lat="46.01206" lon="4.74984">
        <ele>172</ele>
        <time>2024-05-20T12:24:08.000Z</time>
      </trkpt>
      <trkpt lat="46.01206" lon="4.74984">
        <ele>172</ele>
        <time>2024-05-20T12:24:09.000Z</time>
      </trkpt>
      <trkpt lat="46.01206" lon="4.74984">
        <ele>172</ele>
        <time>2024-05-20T12:24:10.000Z</time>
      </trkpt>
      <trkpt lat="46.01201" lon="4.74983">
        <ele>171.60000610352</ele>
        <time>2024-05-20T12:25:38.000Z</time>
      </trkpt>
      <trkpt lat="46.01199" lon="4.74984">
        <ele>171.39999389648</ele>
        <time>2024-05-20T12:25:39.000Z</time>
      </trkpt>
      <trkpt lat="46.01197" lon="4.74985">
        <ele>171.39999389648</ele>
        <time>2024-05-20T12:25:40.000Z</time>
      </trkpt>
      <trkpt lat="46.01195" lon="4.74985">
        <ele>171.39999389648</ele>
        <time>2024-05-20T12:25:41.000Z</time>
      </trkpt>
      <trkpt lat="46.01193" lon="4.74986">
        <ele>171.39999389648</ele>
        <time>2024-05-20T12:25:42.000Z</time>
      </trkpt>
      <trkpt lat="46.01191" lon="4.74988">
        <ele>171.39999389648</ele>
        <time>2024-05-20T12:25:43.000Z</time>
      </trkpt>
      <trkpt lat="46.0119" lon="4.74988">
        <ele>171.39999389648</ele>
        <time>2024-05-20T12:25:44.000Z</time>
      </trkpt>
      <trkpt lat="46.01187" lon="4.74989">
        <ele>171.39999389648</ele>
        <time>2024-05-20T12:25:45.000Z</time>
      </trkpt>
      <trkpt lat="46.01185" lon="4.7499">
        <ele>171.39999389648</ele>
        <time>2024-05-20T12:25:46.000Z</time>
      </trkpt>
      <trkpt lat="46.01182" lon="4.74991">
        <ele>171.39999389648</ele>
        <time>2024-05-20T12:25:47.000Z</time>
      </trkpt>
      <trkpt lat="46.01178" lon="4.74993">
        <ele>171.39999389648</ele>
        <time>2024-05-20T12:25:48.000Z</time>
      </trkpt>
      <trkpt lat="46.01175" lon="4.74995">
        <ele>171.39999389648</ele>
        <time>2024-05-20T12:25:49.000Z</time>
      </trkpt>
      <trkpt lat="46.01171" lon="4.74997">
        <ele>171.39999389648</ele>
        <time>2024-05-20T12:25:50.000Z</time>
      </trkpt>
      <trkpt lat="46.01167" lon="4.74999">
        <ele>171.39999389648</ele>
        <time>2024-05-20T12:25:51.000Z</time>
      </trkpt>
      <trkpt lat="46.01163" lon="4.75">
        <ele>171.39999389648</ele>
        <time>2024-05-20T12:25:52.000Z</time>
      </trkpt>
      <trkpt lat="46.0116" lon="4.75002">
        <ele>171.60000610352</ele>
        <time>2024-05-20T12:25:53.000Z</time>
      </trkpt>
      <trkpt lat="46.01156" lon="4.75004">
        <ele>171.60000610352</ele>
        <time>2024-05-20T12:25:54.000Z</time>
      </trkpt>
      <trkpt lat="46.01152" lon="4.75006">
        <ele>171.60000610352</ele>
        <time>2024-05-20T12:25:55.000Z</time>
      </trkpt>
      <trkpt lat="46.01148" lon="4.75007">
        <ele>171.60000610352</ele>
        <time>2024-05-20T12:25:56.000Z</time>
      </trkpt>
      <trkpt lat="46.01143" lon="4.75008">
        <ele>171.60000610352</ele>
        <time>2024-05-20T12:25:57.000Z</time>
      </trkpt>
      <trkpt lat="46.01138" lon="4.75009">
        <ele>171.39999389648</ele>
        <time>2024-05-20T12:25:58.000Z</time>
      </trkpt>
      <trkpt lat="46.01133" lon="4.75011">
        <ele>171.39999389648</ele>
        <time>2024-05-20T12:25:59.000Z</time>
      </trkpt>
      <trkpt lat="46.01127" lon="4.75013">
        <ele>171.39999389648</ele>
        <time>2024-05-20T12:26:00.000Z</time>
      </trkpt>
      <trkpt lat="46.01122" lon="4.75015">
        <ele>171.19999694824</ele>
        <time>2024-05-20T12:26:01.000Z</time>
      </trkpt>
      <trkpt lat="46.01117" lon="4.75016">
        <ele>171</ele>
        <time>2024-05-20T12:26:02.000Z</time>
      </trkpt>
      <trkpt lat="46.01112" lon="4.75018">
        <ele>171</ele>
        <time>2024-05-20T12:26:03.000Z</time>
      </trkpt>
      <trkpt lat="46.01106" lon="4.7502">
        <ele>171</ele>
        <time>2024-05-20T12:26:04.000Z</time>
      </trkpt>
      <trkpt lat="46.01101" lon="4.75022">
        <ele>171</ele>
        <time>2024-05-20T12:26:05.000Z</time>
      </trkpt>
      <trkpt lat="46.01096" lon="4.75024">
        <ele>171</ele>
        <time>2024-05-20T12:26:06.000Z</time>
      </trkpt>
      <trkpt lat="46.01091" lon="4.75026">
        <ele>171</ele>
        <time>2024-05-20T12:26:07.000Z</time>
      </trkpt>
      <trkpt lat="46.01087" lon="4.75027">
        <ele>170.80000305176</ele>
        <time>2024-05-20T12:26:08.000Z</time>
      </trkpt>
      <trkpt lat="46.01081" lon="4.75029">
        <ele>170.80000305176</ele>
        <time>2024-05-20T12:26:09.000Z</time>
      </trkpt>
      <trkpt lat="46.01076" lon="4.75031">
        <ele>170.80000305176</ele>
        <time>2024-05-20T12:26:10.000Z</time>
      </trkpt>
      <trkpt lat="46.0107" lon="4.75033">
        <ele>170.80000305176</ele>
        <time>2024-05-20T12:26:11.000Z</time>
      </trkpt>
      <trkpt lat="46.01065" lon="4.75035">
        <ele>170.39999389648</ele>
        <time>2024-05-20T12:26:12.000Z</time>
      </trkpt>
      <trkpt lat="46.0106" lon="4.75037">
        <ele>170.19999694824</ele>
        <time>2024-05-20T12:26:13.000Z</time>
      </trkpt>
      <trkpt lat="46.01054" lon="4.75039">
        <ele>170.19999694824</ele>
        <time>2024-05-20T12:26:14.000Z</time>
      </trkpt>
      <trkpt lat="46.01049" lon="4.75042">
        <ele>170</ele>
        <time>2024-05-20T12:26:15.000Z</time>
      </trkpt>
      <trkpt lat="46.01044" lon="4.75044">
        <ele>170</ele>
        <time>2024-05-20T12:26:16.000Z</time>
      </trkpt>
      <trkpt lat="46.01039" lon="4.75046">
        <ele>170</ele>
        <time>2024-05-20T12:26:17.000Z</time>
      </trkpt>
      <trkpt lat="46.01033" lon="4.75048">
        <ele>170.19999694824</ele>
        <time>2024-05-20T12:26:18.000Z</time>
      </trkpt>
      <trkpt lat="46.01028" lon="4.75049">
        <ele>170.19999694824</ele>
        <time>2024-05-20T12:26:19.000Z</time>
      </trkpt>
      <trkpt lat="46.01023" lon="4.75051">
        <ele>170.19999694824</ele>
        <time>2024-05-20T12:26:20.000Z</time>
      </trkpt>
      <trkpt lat="46.01018" lon="4.75052">
        <ele>170.39999389648</ele>
        <time>2024-05-20T12:26:21.000Z</time>
      </trkpt>
      <trkpt lat="46.01014" lon="4.75054">
        <ele>170.80000305176</ele>
        <time>2024-05-20T12:26:22.000Z</time>
      </trkpt>
      <trkpt lat="46.01009" lon="4.75055">
        <ele>170.80000305176</ele>
        <time>2024-05-20T12:26:23.000Z</time>
      </trkpt>
      <trkpt lat="46.01004" lon="4.75057">
        <ele>171.19999694824</ele>
        <time>2024-05-20T12:26:24.000Z</time>
      </trkpt>
      <trkpt lat="46.01" lon="4.75059">
        <ele>171.39999389648</ele>
        <time>2024-05-20T12:26:25.000Z</time>
      </trkpt>
      <trkpt lat="46.00996" lon="4.75061">
        <ele>171.39999389648</ele>
        <time>2024-05-20T12:26:26.000Z</time>
      </trkpt>
      <trkpt lat="46.00992" lon="4.75062">
        <ele>171.39999389648</ele>
        <time>2024-05-20T12:26:27.000Z</time>
      </trkpt>
      <trkpt lat="46.00988" lon="4.75064">
        <ele>171.60000610352</ele>
        <time>2024-05-20T12:26:28.000Z</time>
      </trkpt>
      <trkpt lat="46.00985" lon="4.75068">
        <ele>171.80000305176</ele>
        <time>2024-05-20T12:26:29.000Z</time>
      </trkpt>
      <trkpt lat="46.00983" lon="4.75072">
        <ele>172</ele>
        <time>2024-05-20T12:26:30.000Z</time>
      </trkpt>
      <trkpt lat="46.00982" lon="4.75076">
        <ele>172</ele>
        <time>2024-05-20T12:26:31.000Z</time>
      </trkpt>
      <trkpt lat="46.00982" lon="4.7508">
        <ele>172</ele>
        <time>2024-05-20T12:26:32.000Z</time>
      </trkpt>
      <trkpt lat="46.00982" lon="4.75084">
        <ele>172</ele>
        <time>2024-05-20T12:26:33.000Z</time>
      </trkpt>
      <trkpt lat="46.00982" lon="4.75088">
        <ele>172</ele>
        <time>2024-05-20T12:26:34.000Z</time>
      </trkpt>
      <trkpt lat="46.00982" lon="4.75092">
        <ele>172.19999694824</ele>
        <time>2024-05-20T12:26:35.000Z</time>
      </trkpt>
      <trkpt lat="46.00982" lon="4.75096">
        <ele>172.60000610352</ele>
        <time>2024-05-20T12:26:36.000Z</time>
      </trkpt>
      <trkpt lat="46.00983" lon="4.751">
        <ele>172.80000305176</ele>
        <time>2024-05-20T12:26:37.000Z</time>
      </trkpt>
      <trkpt lat="46.00983" lon="4.75103">
        <ele>172.80000305176</ele>
        <time>2024-05-20T12:26:38.000Z</time>
      </trkpt>
      <trkpt lat="46.00983" lon="4.75106">
        <ele>173.19999694824</ele>
        <time>2024-05-20T12:26:39.000Z</time>
      </trkpt>
      <trkpt lat="46.00983" lon="4.7511">
        <ele>173.39999389648</ele>
        <time>2024-05-20T12:26:40.000Z</time>
      </trkpt>
      <trkpt lat="46.00982" lon="4.75115">
        <ele>173.80000305176</ele>
        <time>2024-05-20T12:26:41.000Z</time>
      </trkpt>
      <trkpt lat="46.00982" lon="4.7512">
        <ele>174</ele>
        <time>2024-05-20T12:26:42.000Z</time>
      </trkpt>
      <trkpt lat="46.00981" lon="4.75125">
        <ele>174.19999694824</ele>
        <time>2024-05-20T12:26:43.000Z</time>
      </trkpt>
      <trkpt lat="46.00981" lon="4.75129">
        <ele>174.39999389648</ele>
        <time>2024-05-20T12:26:44.000Z</time>
      </trkpt>
      <trkpt lat="46.0098" lon="4.75134">
        <ele>174.60000610352</ele>
        <time>2024-05-20T12:26:45.000Z</time>
      </trkpt>
      <trkpt lat="46.0098" lon="4.75139">
        <ele>174.60000610352</ele>
        <time>2024-05-20T12:26:46.000Z</time>
      </trkpt>
      <trkpt lat="46.0098" lon="4.75144">
        <ele>175</ele>
        <time>2024-05-20T12:26:47.000Z</time>
      </trkpt>
      <trkpt lat="46.0098" lon="4.75147">
        <ele>175</ele>
        <time>2024-05-20T12:26:48.000Z</time>
      </trkpt>
      <trkpt lat="46.00979" lon="4.7515">
        <ele>175.19999694824</ele>
        <time>2024-05-20T12:26:49.000Z</time>
      </trkpt>
      <trkpt lat="46.00978" lon="4.75153">
        <ele>175.60000610352</ele>
        <time>2024-05-20T12:26:50.000Z</time>
      </trkpt>
      <trkpt lat="46.00976" lon="4.75154">
        <ele>176</ele>
        <time>2024-05-20T12:26:51.000Z</time>
      </trkpt>
      <trkpt lat="46.00973" lon="4.75154">
        <ele>176.19999694824</ele>
        <time>2024-05-20T12:26:52.000Z</time>
      </trkpt>
      <trkpt lat="46.00969" lon="4.75153">
        <ele>176.19999694824</ele>
        <time>2024-05-20T12:26:53.000Z</time>
      </trkpt>
      <trkpt lat="46.00966" lon="4.75151">
        <ele>176.19999694824</ele>
        <time>2024-05-20T12:26:54.000Z</time>
      </trkpt>
      <trkpt lat="46.00962" lon="4.7515">
        <ele>176.19999694824</ele>
        <time>2024-05-20T12:26:55.000Z</time>
      </trkpt>
      <trkpt lat="46.00958" lon="4.75149">
        <ele>176.19999694824</ele>
        <time>2024-05-20T12:26:56.000Z</time>
      </trkpt>
      <trkpt lat="46.00954" lon="4.75148">
        <ele>176.19999694824</ele>
        <time>2024-05-20T12:26:57.000Z</time>
      </trkpt>
      <trkpt lat="46.00949" lon="4.75147">
        <ele>176</ele>
        <time>2024-05-20T12:26:58.000Z</time>
      </trkpt>
      <trkpt lat="46.00944" lon="4.75146">
        <ele>176</ele>
        <time>2024-05-20T12:26:59.000Z</time>
      </trkpt>
      <trkpt lat="46.00939" lon="4.75144">
        <ele>175.80000305176</ele>
        <time>2024-05-20T12:27:00.000Z</time>
      </trkpt>
      <trkpt lat="46.00934" lon="4.75142">
        <ele>175.60000610352</ele>
        <time>2024-05-20T12:27:01.000Z</time>
      </trkpt>
      <trkpt lat="46.00929" lon="4.7514">
        <ele>175.39999389648</ele>
        <time>2024-05-20T12:27:02.000Z</time>
      </trkpt>
      <trkpt lat="46.00924" lon="4.75139">
        <ele>175.19999694824</ele>
        <time>2024-05-20T12:27:03.000Z</time>
      </trkpt>
      <trkpt lat="46.00919" lon="4.75137">
        <ele>175</ele>
        <time>2024-05-20T12:27:04.000Z</time>
      </trkpt>
      <trkpt lat="46.00913" lon="4.75136">
        <ele>174.60000610352</ele>
        <time>2024-05-20T12:27:05.000Z</time>
      </trkpt>
      <trkpt lat="46.00908" lon="4.75134">
        <ele>174.60000610352</ele>
        <time>2024-05-20T12:27:06.000Z</time>
      </trkpt>
      <trkpt lat="46.00903" lon="4.75133">
        <ele>174.60000610352</ele>
        <time>2024-05-20T12:27:07.000Z</time>
      </trkpt>
      <trkpt lat="46.00897" lon="4.75131">
        <ele>174.60000610352</ele>
        <time>2024-05-20T12:27:08.000Z</time>
      </trkpt>
      <trkpt lat="46.00891" lon="4.75129">
        <ele>174.39999389648</ele>
        <time>2024-05-20T12:27:09.000Z</time>
      </trkpt>
      <trkpt lat="46.00886" lon="4.75128">
        <ele>174.39999389648</ele>
        <time>2024-05-20T12:27:10.000Z</time>
      </trkpt>
      <trkpt lat="46.0088" lon="4.75126">
        <ele>174.39999389648</ele>
        <time>2024-05-20T12:27:11.000Z</time>
      </trkpt>
      <trkpt lat="46.00874" lon="4.75124">
        <ele>174.39999389648</ele>
        <time>2024-05-20T12:27:12.000Z</time>
      </trkpt>
      <trkpt lat="46.00868" lon="4.75122">
        <ele>174.19999694824</ele>
        <time>2024-05-20T12:27:13.000Z</time>
      </trkpt>
      <trkpt lat="46.00862" lon="4.7512">
        <ele>174</ele>
        <time>2024-05-20T12:27:14.000Z</time>
      </trkpt>
      <trkpt lat="46.00856" lon="4.75118">
        <ele>174</ele>
        <time>2024-05-20T12:27:15.000Z</time>
      </trkpt>
      <trkpt lat="46.00849" lon="4.75116">
        <ele>174</ele>
        <time>2024-05-20T12:27:16.000Z</time>
      </trkpt>
      <trkpt lat="46.00843" lon="4.75114">
        <ele>174</ele>
        <time>2024-05-20T12:27:17.000Z</time>
      </trkpt>
      <trkpt lat="46.00837" lon="4.75112">
        <ele>174</ele>
        <time>2024-05-20T12:27:18.000Z</time>
      </trkpt>
      <trkpt lat="46.00831" lon="4.7511">
        <ele>174</ele>
        <time>2024-05-20T12:27:19.000Z</time>
      </trkpt>
      <trkpt lat="46.00824" lon="4.75108">
        <ele>174</ele>
        <time>2024-05-20T12:27:20.000Z</time>
      </trkpt>
      <trkpt lat="46.00818" lon="4.75107">
        <ele>174</ele>
        <time>2024-05-20T12:27:21.000Z</time>
      </trkpt>
      <trkpt lat="46.00812" lon="4.75105">
        <ele>174</ele>
        <time>2024-05-20T12:27:22.000Z</time>
      </trkpt>
      <trkpt lat="46.00806" lon="4.75103">
        <ele>174.19999694824</ele>
        <time>2024-05-20T12:27:23.000Z</time>
      </trkpt>
      <trkpt lat="46.00799" lon="4.75101">
        <ele>174.19999694824</ele>
        <time>2024-05-20T12:27:24.000Z</time>
      </trkpt>
      <trkpt lat="46.00793" lon="4.75099">
        <ele>174.19999694824</ele>
        <time>2024-05-20T12:27:25.000Z</time>
      </trkpt>
      <trkpt lat="46.00787" lon="4.75097">
        <ele>174.19999694824</ele>
        <time>2024-05-20T12:27:26.000Z</time>
      </trkpt>
      <trkpt lat="46.0078" lon="4.75095">
        <ele>174.19999694824</ele>
        <time>2024-05-20T12:27:27.000Z</time>
      </trkpt>
      <trkpt lat="46.00774" lon="4.75093">
        <ele>173.80000305176</ele>
        <time>2024-05-20T12:27:28.000Z</time>
      </trkpt>
      <trkpt lat="46.00768" lon="4.75091">
        <ele>173.60000610352</ele>
        <time>2024-05-20T12:27:29.000Z</time>
      </trkpt>
      <trkpt lat="46.00762" lon="4.75088">
        <ele>173.39999389648</ele>
        <time>2024-05-20T12:27:30.000Z</time>
      </trkpt>
      <trkpt lat="46.00756" lon="4.75086">
        <ele>173.39999389648</ele>
        <time>2024-05-20T12:27:31.000Z</time>
      </trkpt>
      <trkpt lat="46.0075" lon="4.75085">
        <ele>173.39999389648</ele>
        <time>2024-05-20T12:27:32.000Z</time>
      </trkpt>
      <trkpt lat="46.00744" lon="4.75083">
        <ele>173.39999389648</ele>
        <time>2024-05-20T12:27:33.000Z</time>
      </trkpt>
      <trkpt lat="46.00738" lon="4.75081">
        <ele>173.39999389648</ele>
        <time>2024-05-20T12:27:34.000Z</time>
      </trkpt>
      <trkpt lat="46.00732" lon="4.75079">
        <ele>173.60000610352</ele>
        <time>2024-05-20T12:27:35.000Z</time>
      </trkpt>
      <trkpt lat="46.00726" lon="4.75077">
        <ele>173.60000610352</ele>
        <time>2024-05-20T12:27:36.000Z</time>
      </trkpt>
      <trkpt lat="46.00721" lon="4.75076">
        <ele>173.60000610352</ele>
        <time>2024-05-20T12:27:37.000Z</time>
      </trkpt>
      <trkpt lat="46.00715" lon="4.75075">
        <ele>173.60000610352</ele>
        <time>2024-05-20T12:27:38.000Z</time>
      </trkpt>
      <trkpt lat="46.00708" lon="4.75075">
        <ele>173.60000610352</ele>
        <time>2024-05-20T12:27:39.000Z</time>
      </trkpt>
      <trkpt lat="46.00702" lon="4.75075">
        <ele>173.60000610352</ele>
        <time>2024-05-20T12:27:40.000Z</time>
      </trkpt>
      <trkpt lat="46.00696" lon="4.75075">
        <ele>173.60000610352</ele>
        <time>2024-05-20T12:27:41.000Z</time>
      </trkpt>
      <trkpt lat="46.00689" lon="4.75076">
        <ele>173.60000610352</ele>
        <time>2024-05-20T12:27:42.000Z</time>
      </trkpt>
      <trkpt lat="46.00682" lon="4.75076">
        <ele>173.60000610352</ele>
        <time>2024-05-20T12:27:43.000Z</time>
      </trkpt>
      <trkpt lat="46.00676" lon="4.75077">
        <ele>173.60000610352</ele>
        <time>2024-05-20T12:27:44.000Z</time>
      </trkpt>
      <trkpt lat="46.00669" lon="4.75077">
        <ele>173.60000610352</ele>
        <time>2024-05-20T12:27:45.000Z</time>
      </trkpt>
      <trkpt lat="46.00663" lon="4.75077">
        <ele>173.39999389648</ele>
        <time>2024-05-20T12:27:46.000Z</time>
      </trkpt>
      <trkpt lat="46.00656" lon="4.75077">
        <ele>173.39999389648</ele>
        <time>2024-05-20T12:27:47.000Z</time>
      </trkpt>
      <trkpt lat="46.0065" lon="4.75077">
        <ele>173.39999389648</ele>
        <time>2024-05-20T12:27:48.000Z</time>
      </trkpt>
      <trkpt lat="46.00643" lon="4.75077">
        <ele>173.39999389648</ele>
        <time>2024-05-20T12:27:49.000Z</time>
      </trkpt>
      <trkpt lat="46.00637" lon="4.75078">
        <ele>173.39999389648</ele>
        <time>2024-05-20T12:27:50.000Z</time>
      </trkpt>
      <trkpt lat="46.00631" lon="4.75078">
        <ele>173.39999389648</ele>
        <time>2024-05-20T12:27:51.000Z</time>
      </trkpt>
      <trkpt lat="46.00624" lon="4.75078">
        <ele>173.39999389648</ele>
        <time>2024-05-20T12:27:52.000Z</time>
      </trkpt>
      <trkpt lat="46.00618" lon="4.75079">
        <ele>173.39999389648</ele>
        <time>2024-05-20T12:27:53.000Z</time>
      </trkpt>
      <trkpt lat="46.00612" lon="4.75079">
        <ele>173.60000610352</ele>
        <time>2024-05-20T12:27:54.000Z</time>
      </trkpt>
      <trkpt lat="46.00605" lon="4.75079">
        <ele>173.60000610352</ele>
        <time>2024-05-20T12:27:55.000Z</time>
      </trkpt>
      <trkpt lat="46.00599" lon="4.7508">
        <ele>173.80000305176</ele>
        <time>2024-05-20T12:27:56.000Z</time>
      </trkpt>
      <trkpt lat="46.00593" lon="4.7508">
        <ele>173.80000305176</ele>
        <time>2024-05-20T12:27:57.000Z</time>
      </trkpt>
      <trkpt lat="46.00587" lon="4.7508">
        <ele>173.80000305176</ele>
        <time>2024-05-20T12:27:58.000Z</time>
      </trkpt>
      <trkpt lat="46.00581" lon="4.7508">
        <ele>173.60000610352</ele>
        <time>2024-05-20T12:27:59.000Z</time>
      </trkpt>
      <trkpt lat="46.00574" lon="4.75081">
        <ele>173.60000610352</ele>
        <time>2024-05-20T12:28:00.000Z</time>
      </trkpt>
      <trkpt lat="46.00568" lon="4.75081">
        <ele>173.60000610352</ele>
        <time>2024-05-20T12:28:01.000Z</time>
      </trkpt>
      <trkpt lat="46.00562" lon="4.75081">
        <ele>173.39999389648</ele>
        <time>2024-05-20T12:28:02.000Z</time>
      </trkpt>
      <trkpt lat="46.00556" lon="4.75081">
        <ele>173.19999694824</ele>
        <time>2024-05-20T12:28:03.000Z</time>
      </trkpt>
      <trkpt lat="46.0055" lon="4.75082">
        <ele>173</ele>
        <time>2024-05-20T12:28:04.000Z</time>
      </trkpt>
      <trkpt lat="46.00544" lon="4.75082">
        <ele>172.80000305176</ele>
        <time>2024-05-20T12:28:05.000Z</time>
      </trkpt>
      <trkpt lat="46.00537" lon="4.75083">
        <ele>172.80000305176</ele>
        <time>2024-05-20T12:28:06.000Z</time>
      </trkpt>
      <trkpt lat="46.00531" lon="4.75083">
        <ele>172.80000305176</ele>
        <time>2024-05-20T12:28:07.000Z</time>
      </trkpt>
      <trkpt lat="46.00525" lon="4.75083">
        <ele>172.80000305176</ele>
        <time>2024-05-20T12:28:08.000Z</time>
      </trkpt>
      <trkpt lat="46.0052" lon="4.75083">
        <ele>172.80000305176</ele>
        <time>2024-05-20T12:28:09.000Z</time>
      </trkpt>
      <trkpt lat="46.00514" lon="4.75084">
        <ele>173</ele>
        <time>2024-05-20T12:28:10.000Z</time>
      </trkpt>
      <trkpt lat="46.00508" lon="4.75084">
        <ele>173</ele>
        <time>2024-05-20T12:28:11.000Z</time>
      </trkpt>
      <trkpt lat="46.00502" lon="4.75084">
        <ele>173</ele>
        <time>2024-05-20T12:28:12.000Z</time>
      </trkpt>
      <trkpt lat="46.00496" lon="4.75084">
        <ele>173.19999694824</ele>
        <time>2024-05-20T12:28:13.000Z</time>
      </trkpt>
      <trkpt lat="46.0049" lon="4.75085">
        <ele>173.19999694824</ele>
        <time>2024-05-20T12:28:14.000Z</time>
      </trkpt>
      <trkpt lat="46.00485" lon="4.75085">
        <ele>173.19999694824</ele>
        <time>2024-05-20T12:28:15.000Z</time>
      </trkpt>
      <trkpt lat="46.00479" lon="4.75085">
        <ele>173.19999694824</ele>
        <time>2024-05-20T12:28:16.000Z</time>
      </trkpt>
      <trkpt lat="46.00473" lon="4.75086">
        <ele>173.19999694824</ele>
        <time>2024-05-20T12:28:17.000Z</time>
      </trkpt>
      <trkpt lat="46.00467" lon="4.75086">
        <ele>173.19999694824</ele>
        <time>2024-05-20T12:28:18.000Z</time>
      </trkpt>
      <trkpt lat="46.00462" lon="4.75086">
        <ele>173</ele>
        <time>2024-05-20T12:28:19.000Z</time>
      </trkpt>
      <trkpt lat="46.00456" lon="4.75086">
        <ele>173</ele>
        <time>2024-05-20T12:28:20.000Z</time>
      </trkpt>
      <trkpt lat="46.0045" lon="4.75087">
        <ele>173.19999694824</ele>
        <time>2024-05-20T12:28:21.000Z</time>
      </trkpt>
      <trkpt lat="46.00444" lon="4.75086">
        <ele>173.19999694824</ele>
        <time>2024-05-20T12:28:22.000Z</time>
      </trkpt>
      <trkpt lat="46.00439" lon="4.75086">
        <ele>173.19999694824</ele>
        <time>2024-05-20T12:28:23.000Z</time>
      </trkpt>
      <trkpt lat="46.00433" lon="4.75086">
        <ele>173.19999694824</ele>
        <time>2024-05-20T12:28:24.000Z</time>
      </trkpt>
      <trkpt lat="46.00427" lon="4.75085">
        <ele>173.19999694824</ele>
        <time>2024-05-20T12:28:25.000Z</time>
      </trkpt>
      <trkpt lat="46.00421" lon="4.75085">
        <ele>173.39999389648</ele>
        <time>2024-05-20T12:28:26.000Z</time>
      </trkpt>
      <trkpt lat="46.00416" lon="4.75085">
        <ele>173.39999389648</ele>
        <time>2024-05-20T12:28:27.000Z</time>
      </trkpt>
      <trkpt lat="46.0041" lon="4.75086">
        <ele>173.60000610352</ele>
        <time>2024-05-20T12:28:28.000Z</time>
      </trkpt>
      <trkpt lat="46.00405" lon="4.75087">
        <ele>173.60000610352</ele>
        <time>2024-05-20T12:28:29.000Z</time>
      </trkpt>
      <trkpt lat="46.00399" lon="4.75087">
        <ele>173.60000610352</ele>
        <time>2024-05-20T12:28:30.000Z</time>
      </trkpt>
      <trkpt lat="46.00393" lon="4.75088">
        <ele>173.60000610352</ele>
        <time>2024-05-20T12:28:31.000Z</time>
      </trkpt>
      <trkpt lat="46.00388" lon="4.75089">
        <ele>173.60000610352</ele>
        <time>2024-05-20T12:28:32.000Z</time>
      </trkpt>
      <trkpt lat="46.00384" lon="4.75089">
        <ele>173.60000610352</ele>
        <time>2024-05-20T12:28:33.000Z</time>
      </trkpt>
      <trkpt lat="46.00379" lon="4.75089">
        <ele>173.60000610352</ele>
        <time>2024-05-20T12:28:34.000Z</time>
      </trkpt>
      <trkpt lat="46.00375" lon="4.75089">
        <ele>173.60000610352</ele>
        <time>2024-05-20T12:28:35.000Z</time>
      </trkpt>
      <trkpt lat="46.00371" lon="4.75088">
        <ele>173.60000610352</ele>
        <time>2024-05-20T12:28:36.000Z</time>
      </trkpt>
      <trkpt lat="46.00369" lon="4.75086">
        <ele>173.80000305176</ele>
        <time>2024-05-20T12:28:37.000Z</time>
      </trkpt>
      <trkpt lat="46.00368" lon="4.75081">
        <ele>174</ele>
        <time>2024-05-20T12:28:38.000Z</time>
      </trkpt>
      <trkpt lat="46.00368" lon="4.75077">
        <ele>174</ele>
        <time>2024-05-20T12:28:39.000Z</time>
      </trkpt>
      <trkpt lat="46.00366" lon="4.75072">
        <ele>174</ele>
        <time>2024-05-20T12:28:40.000Z</time>
      </trkpt>
      <trkpt lat="46.00362" lon="4.75067">
        <ele>174</ele>
        <time>2024-05-20T12:28:41.000Z</time>
      </trkpt>
      <trkpt lat="46.00358" lon="4.75064">
        <ele>174</ele>
        <time>2024-05-20T12:28:42.000Z</time>
      </trkpt>
      <trkpt lat="46.00354" lon="4.75061">
        <ele>173.39999389648</ele>
        <time>2024-05-20T12:28:43.000Z</time>
      </trkpt>
      <trkpt lat="46.00349" lon="4.75058">
        <ele>172.80000305176</ele>
        <time>2024-05-20T12:28:44.000Z</time>
      </trkpt>
      <trkpt lat="46.00344" lon="4.75056">
        <ele>172.60000610352</ele>
        <time>2024-05-20T12:28:45.000Z</time>
      </trkpt>
      <trkpt lat="46.00339" lon="4.75053">
        <ele>172.60000610352</ele>
        <time>2024-05-20T12:28:46.000Z</time>
      </trkpt>
      <trkpt lat="46.00334" lon="4.75051">
        <ele>172.60000610352</ele>
        <time>2024-05-20T12:28:47.000Z</time>
      </trkpt>
      <trkpt lat="46.00328" lon="4.75049">
        <ele>172.39999389648</ele>
        <time>2024-05-20T12:28:48.000Z</time>
      </trkpt>
      <trkpt lat="46.00323" lon="4.75046">
        <ele>172.39999389648</ele>
        <time>2024-05-20T12:28:49.000Z</time>
      </trkpt>
      <trkpt lat="46.00318" lon="4.75043">
        <ele>172.39999389648</ele>
        <time>2024-05-20T12:28:50.000Z</time>
      </trkpt>
      <trkpt lat="46.00313" lon="4.75041">
        <ele>172.39999389648</ele>
        <time>2024-05-20T12:28:51.000Z</time>
      </trkpt>
      <trkpt lat="46.00308" lon="4.75038">
        <ele>172.39999389648</ele>
        <time>2024-05-20T12:28:52.000Z</time>
      </trkpt>
      <trkpt lat="46.00303" lon="4.75034">
        <ele>172.39999389648</ele>
        <time>2024-05-20T12:28:53.000Z</time>
      </trkpt>
      <trkpt lat="46.00298" lon="4.75031">
        <ele>172.39999389648</ele>
        <time>2024-05-20T12:28:54.000Z</time>
      </trkpt>
      <trkpt lat="46.00293" lon="4.75027">
        <ele>172.39999389648</ele>
        <time>2024-05-20T12:28:55.000Z</time>
      </trkpt>
      <trkpt lat="46.00288" lon="4.75023">
        <ele>172.60000610352</ele>
        <time>2024-05-20T12:28:56.000Z</time>
      </trkpt>
      <trkpt lat="46.00283" lon="4.7502">
        <ele>172.60000610352</ele>
        <time>2024-05-20T12:28:57.000Z</time>
      </trkpt>
      <trkpt lat="46.00278" lon="4.75017">
        <ele>172.60000610352</ele>
        <time>2024-05-20T12:28:58.000Z</time>
      </trkpt>
      <trkpt lat="46.00272" lon="4.75013">
        <ele>172.60000610352</ele>
        <time>2024-05-20T12:28:59.000Z</time>
      </trkpt>
      <trkpt lat="46.00267" lon="4.75011">
        <ele>172.60000610352</ele>
        <time>2024-05-20T12:29:00.000Z</time>
      </trkpt>
      <trkpt lat="46.00262" lon="4.75008">
        <ele>172.39999389648</ele>
        <time>2024-05-20T12:29:01.000Z</time>
      </trkpt>
      <trkpt lat="46.00256" lon="4.75005">
        <ele>172.39999389648</ele>
        <time>2024-05-20T12:29:02.000Z</time>
      </trkpt>
      <trkpt lat="46.00251" lon="4.75003">
        <ele>172.39999389648</ele>
        <time>2024-05-20T12:29:03.000Z</time>
      </trkpt>
      <trkpt lat="46.00246" lon="4.75001">
        <ele>172.39999389648</ele>
        <time>2024-05-20T12:29:04.000Z</time>
      </trkpt>
      <trkpt lat="46.00241" lon="4.75">
        <ele>172.39999389648</ele>
        <time>2024-05-20T12:29:05.000Z</time>
      </trkpt>
      <trkpt lat="46.00236" lon="4.74998">
        <ele>172.60000610352</ele>
        <time>2024-05-20T12:29:06.000Z</time>
      </trkpt>
      <trkpt lat="46.00231" lon="4.74996">
        <ele>172.60000610352</ele>
        <time>2024-05-20T12:29:07.000Z</time>
      </trkpt>
      <trkpt lat="46.00227" lon="4.74994">
        <ele>172.60000610352</ele>
        <time>2024-05-20T12:29:08.000Z</time>
      </trkpt>
      <trkpt lat="46.00223" lon="4.74992">
        <ele>172.60000610352</ele>
        <time>2024-05-20T12:29:09.000Z</time>
      </trkpt>
      <trkpt lat="46.0022" lon="4.7499">
        <ele>172.60000610352</ele>
        <time>2024-05-20T12:29:10.000Z</time>
      </trkpt>
      <trkpt lat="46.00217" lon="4.74987">
        <ele>172.60000610352</ele>
        <time>2024-05-20T12:29:11.000Z</time>
      </trkpt>
      <trkpt lat="46.00215" lon="4.74983">
        <ele>172.80000305176</ele>
        <time>2024-05-20T12:29:12.000Z</time>
      </trkpt>
      <trkpt lat="46.00212" lon="4.74979">
        <ele>173</ele>
        <time>2024-05-20T12:29:13.000Z</time>
      </trkpt>
      <trkpt lat="46.00208" lon="4.74977">
        <ele>173</ele>
        <time>2024-05-20T12:29:14.000Z</time>
      </trkpt>
      <trkpt lat="46.00204" lon="4.74977">
        <ele>173</ele>
        <time>2024-05-20T12:29:15.000Z</time>
      </trkpt>
      <trkpt lat="46.00201" lon="4.74977">
        <ele>173</ele>
        <time>2024-05-20T12:29:16.000Z</time>
      </trkpt>
      <trkpt lat="46.00197" lon="4.74979">
        <ele>173</ele>
        <time>2024-05-20T12:29:17.000Z</time>
      </trkpt>
      <trkpt lat="46.00194" lon="4.74982">
        <ele>173</ele>
        <time>2024-05-20T12:29:18.000Z</time>
      </trkpt>
      <trkpt lat="46.00191" lon="4.74985">
        <ele>172.80000305176</ele>
        <time>2024-05-20T12:29:19.000Z</time>
      </trkpt>
      <trkpt lat="46.00188" lon="4.74988">
        <ele>172.60000610352</ele>
        <time>2024-05-20T12:29:20.000Z</time>
      </trkpt>
      <trkpt lat="46.00186" lon="4.74991">
        <ele>172.60000610352</ele>
        <time>2024-05-20T12:29:21.000Z</time>
      </trkpt>
      <trkpt lat="46.00185" lon="4.74993">
        <ele>172.60000610352</ele>
        <time>2024-05-20T12:29:22.000Z</time>
      </trkpt>
      <trkpt lat="46.00184" lon="4.74995">
        <ele>172.60000610352</ele>
        <time>2024-05-20T12:29:23.000Z</time>
      </trkpt>
      <trkpt lat="46.00181" lon="4.74997">
        <ele>172.60000610352</ele>
        <time>2024-05-20T12:29:24.000Z</time>
      </trkpt>
      <trkpt lat="46.00178" lon="4.74998">
        <ele>172.80000305176</ele>
        <time>2024-05-20T12:29:25.000Z</time>
      </trkpt>
      <trkpt lat="46.00174" lon="4.74998">
        <ele>172.80000305176</ele>
        <time>2024-05-20T12:29:26.000Z</time>
      </trkpt>
      <trkpt lat="46.00169" lon="4.74999">
        <ele>172.80000305176</ele>
        <time>2024-05-20T12:29:27.000Z</time>
      </trkpt>
      <trkpt lat="46.00164" lon="4.75001">
        <ele>172.80000305176</ele>
        <time>2024-05-20T12:29:28.000Z</time>
      </trkpt>
      <trkpt lat="46.00159" lon="4.75002">
        <ele>172.60000610352</ele>
        <time>2024-05-20T12:29:29.000Z</time>
      </trkpt>
      <trkpt lat="46.00154" lon="4.75003">
        <ele>172.19999694824</ele>
        <time>2024-05-20T12:29:30.000Z</time>
      </trkpt>
      <trkpt lat="46.00149" lon="4.75004">
        <ele>172.19999694824</ele>
        <time>2024-05-20T12:29:31.000Z</time>
      </trkpt>
      <trkpt lat="46.00144" lon="4.75005">
        <ele>172</ele>
        <time>2024-05-20T12:29:32.000Z</time>
      </trkpt>
      <trkpt lat="46.00139" lon="4.75007">
        <ele>172</ele>
        <time>2024-05-20T12:29:33.000Z</time>
      </trkpt>
      <trkpt lat="46.00133" lon="4.75008">
        <ele>172</ele>
        <time>2024-05-20T12:29:34.000Z</time>
      </trkpt>
      <trkpt lat="46.00128" lon="4.75009">
        <ele>172</ele>
        <time>2024-05-20T12:29:35.000Z</time>
      </trkpt>
      <trkpt lat="46.00122" lon="4.75011">
        <ele>172.19999694824</ele>
        <time>2024-05-20T12:29:36.000Z</time>
      </trkpt>
      <trkpt lat="46.00117" lon="4.75012">
        <ele>172.39999389648</ele>
        <time>2024-05-20T12:29:37.000Z</time>
      </trkpt>
      <trkpt lat="46.00112" lon="4.75013">
        <ele>172.39999389648</ele>
        <time>2024-05-20T12:29:38.000Z</time>
      </trkpt>
      <trkpt lat="46.00107" lon="4.75014">
        <ele>172.39999389648</ele>
        <time>2024-05-20T12:29:39.000Z</time>
      </trkpt>
      <trkpt lat="46.00102" lon="4.75015">
        <ele>172.60000610352</ele>
        <time>2024-05-20T12:29:40.000Z</time>
      </trkpt>
      <trkpt lat="46.00097" lon="4.75016">
        <ele>173</ele>
        <time>2024-05-20T12:29:41.000Z</time>
      </trkpt>
      <trkpt lat="46.00091" lon="4.75017">
        <ele>173</ele>
        <time>2024-05-20T12:29:42.000Z</time>
      </trkpt>
      <trkpt lat="46.00086" lon="4.75017">
        <ele>173.19999694824</ele>
        <time>2024-05-20T12:29:43.000Z</time>
      </trkpt>
      <trkpt lat="46.00081" lon="4.75018">
        <ele>173.19999694824</ele>
        <time>2024-05-20T12:29:44.000Z</time>
      </trkpt>
      <trkpt lat="46.00075" lon="4.75018">
        <ele>173.19999694824</ele>
        <time>2024-05-20T12:29:45.000Z</time>
      </trkpt>
      <trkpt lat="46.00069" lon="4.75019">
        <ele>173.19999694824</ele>
        <time>2024-05-20T12:29:46.000Z</time>
      </trkpt>
      <trkpt lat="46.00063" lon="4.75019">
        <ele>173</ele>
        <time>2024-05-20T12:29:47.000Z</time>
      </trkpt>
      <trkpt lat="46.00057" lon="4.7502">
        <ele>172.80000305176</ele>
        <time>2024-05-20T12:29:48.000Z</time>
      </trkpt>
      <trkpt lat="46.00051" lon="4.7502">
        <ele>172.39999389648</ele>
        <time>2024-05-20T12:29:49.000Z</time>
      </trkpt>
      <trkpt lat="46.00044" lon="4.75021">
        <ele>172.39999389648</ele>
        <time>2024-05-20T12:29:50.000Z</time>
      </trkpt>
      <trkpt lat="46.00038" lon="4.75021">
        <ele>172</ele>
        <time>2024-05-20T12:29:51.000Z</time>
      </trkpt>
      <trkpt lat="46.00032" lon="4.75022">
        <ele>171.80000305176</ele>
        <time>2024-05-20T12:29:52.000Z</time>
      </trkpt>
      <trkpt lat="46.00025" lon="4.75024">
        <ele>171.80000305176</ele>
        <time>2024-05-20T12:29:53.000Z</time>
      </trkpt>
      <trkpt lat="46.00019" lon="4.75026">
        <ele>171.80000305176</ele>
        <time>2024-05-20T12:29:54.000Z</time>
      </trkpt>
      <trkpt lat="46.00013" lon="4.75029">
        <ele>171.80000305176</ele>
        <time>2024-05-20T12:29:55.000Z</time>
      </trkpt>
      <trkpt lat="46.00007" lon="4.75031">
        <ele>172</ele>
        <time>2024-05-20T12:29:56.000Z</time>
      </trkpt>
      <trkpt lat="46.00001" lon="4.75033">
        <ele>172</ele>
        <time>2024-05-20T12:29:57.000Z</time>
      </trkpt>
      <trkpt lat="45.99994" lon="4.75036">
        <ele>172</ele>
        <time>2024-05-20T12:29:58.000Z</time>
      </trkpt>
      <trkpt lat="45.99988" lon="4.75039">
        <ele>172</ele>
        <time>2024-05-20T12:29:59.000Z</time>
      </trkpt>
      <trkpt lat="45.99982" lon="4.75041">
        <ele>172</ele>
        <time>2024-05-20T12:30:00.000Z</time>
      </trkpt>
      <trkpt lat="45.99977" lon="4.75044">
        <ele>172</ele>
        <time>2024-05-20T12:30:01.000Z</time>
      </trkpt>
      <trkpt lat="45.99971" lon="4.75046">
        <ele>172</ele>
        <time>2024-05-20T12:30:02.000Z</time>
      </trkpt>
      <trkpt lat="45.99965" lon="4.75047">
        <ele>172.19999694824</ele>
        <time>2024-05-20T12:30:03.000Z</time>
      </trkpt>
      <trkpt lat="45.99959" lon="4.75049">
        <ele>172.19999694824</ele>
        <time>2024-05-20T12:30:04.000Z</time>
      </trkpt>
      <trkpt lat="45.99953" lon="4.75052">
        <ele>172.60000610352</ele>
        <time>2024-05-20T12:30:05.000Z</time>
      </trkpt>
      <trkpt lat="45.99947" lon="4.75054">
        <ele>172.60000610352</ele>
        <time>2024-05-20T12:30:06.000Z</time>
      </trkpt>
      <trkpt lat="45.99941" lon="4.75056">
        <ele>172.60000610352</ele>
        <time>2024-05-20T12:30:07.000Z</time>
      </trkpt>
      <trkpt lat="45.99935" lon="4.75059">
        <ele>172.80000305176</ele>
        <time>2024-05-20T12:30:08.000Z</time>
      </trkpt>
      <trkpt lat="45.9993" lon="4.75061">
        <ele>172.80000305176</ele>
        <time>2024-05-20T12:30:09.000Z</time>
      </trkpt>
      <trkpt lat="45.99924" lon="4.75063">
        <ele>172.80000305176</ele>
        <time>2024-05-20T12:30:10.000Z</time>
      </trkpt>
      <trkpt lat="45.99918" lon="4.75065">
        <ele>172.80000305176</ele>
        <time>2024-05-20T12:30:11.000Z</time>
      </trkpt>
      <trkpt lat="45.99912" lon="4.75067">
        <ele>172.80000305176</ele>
        <time>2024-05-20T12:30:12.000Z</time>
      </trkpt>
      <trkpt lat="45.99906" lon="4.75069">
        <ele>172.80000305176</ele>
        <time>2024-05-20T12:30:13.000Z</time>
      </trkpt>
      <trkpt lat="45.99901" lon="4.75071">
        <ele>172.80000305176</ele>
        <time>2024-05-20T12:30:14.000Z</time>
      </trkpt>
      <trkpt lat="45.99895" lon="4.75074">
        <ele>172.80000305176</ele>
        <time>2024-05-20T12:30:15.000Z</time>
      </trkpt>
      <trkpt lat="45.99889" lon="4.75077">
        <ele>172.80000305176</ele>
        <time>2024-05-20T12:30:16.000Z</time>
      </trkpt>
      <trkpt lat="45.99884" lon="4.75082">
        <ele>172.80000305176</ele>
        <time>2024-05-20T12:30:17.000Z</time>
      </trkpt>
      <trkpt lat="45.99879" lon="4.75087">
        <ele>172.80000305176</ele>
        <time>2024-05-20T12:30:18.000Z</time>
      </trkpt>
      <trkpt lat="45.99875" lon="4.75093">
        <ele>172.80000305176</ele>
        <time>2024-05-20T12:30:19.000Z</time>
      </trkpt>
      <trkpt lat="45.99872" lon="4.75098">
        <ele>172.80000305176</ele>
        <time>2024-05-20T12:30:20.000Z</time>
      </trkpt>
      <trkpt lat="45.99868" lon="4.75102">
        <ele>172.80000305176</ele>
        <time>2024-05-20T12:30:21.000Z</time>
      </trkpt>
      <trkpt lat="45.99864" lon="4.75105">
        <ele>172.80000305176</ele>
        <time>2024-05-20T12:30:22.000Z</time>
      </trkpt>
      <trkpt lat="45.99859" lon="4.75106">
        <ele>173</ele>
        <time>2024-05-20T12:30:23.000Z</time>
      </trkpt>
      <trkpt lat="45.99854" lon="4.75108">
        <ele>173</ele>
        <time>2024-05-20T12:30:24.000Z</time>
      </trkpt>
      <trkpt lat="45.99849" lon="4.7511">
        <ele>173</ele>
        <time>2024-05-20T12:30:25.000Z</time>
      </trkpt>
      <trkpt lat="45.99844" lon="4.75111">
        <ele>173</ele>
        <time>2024-05-20T12:30:26.000Z</time>
      </trkpt>
      <trkpt lat="45.99839" lon="4.75113">
        <ele>173</ele>
        <time>2024-05-20T12:30:27.000Z</time>
      </trkpt>
      <trkpt lat="45.99834" lon="4.75114">
        <ele>173</ele>
        <time>2024-05-20T12:30:28.000Z</time>
      </trkpt>
      <trkpt lat="45.99829" lon="4.75115">
        <ele>173</ele>
        <time>2024-05-20T12:30:29.000Z</time>
      </trkpt>
      <trkpt lat="45.99824" lon="4.75117">
        <ele>173</ele>
        <time>2024-05-20T12:30:30.000Z</time>
      </trkpt>
      <trkpt lat="45.99819" lon="4.75118">
        <ele>173</ele>
        <time>2024-05-20T12:30:31.000Z</time>
      </trkpt>
      <trkpt lat="45.99813" lon="4.7512">
        <ele>173</ele>
        <time>2024-05-20T12:30:32.000Z</time>
      </trkpt>
      <trkpt lat="45.99808" lon="4.75121">
        <ele>173</ele>
        <time>2024-05-20T12:30:33.000Z</time>
      </trkpt>
      <trkpt lat="45.99803" lon="4.75122">
        <ele>173</ele>
        <time>2024-05-20T12:30:34.000Z</time>
      </trkpt>
      <trkpt lat="45.99798" lon="4.75123">
        <ele>173</ele>
        <time>2024-05-20T12:30:35.000Z</time>
      </trkpt>
      <trkpt lat="45.99793" lon="4.75125">
        <ele>173</ele>
        <time>2024-05-20T12:30:36.000Z</time>
      </trkpt>
      <trkpt lat="45.99788" lon="4.75126">
        <ele>172.80000305176</ele>
        <time>2024-05-20T12:30:37.000Z</time>
      </trkpt>
      <trkpt lat="45.99782" lon="4.75127">
        <ele>172.80000305176</ele>
        <time>2024-05-20T12:30:38.000Z</time>
      </trkpt>
      <trkpt lat="45.99777" lon="4.75129">
        <ele>172.80000305176</ele>
        <time>2024-05-20T12:30:39.000Z</time>
      </trkpt>
      <trkpt lat="45.99771" lon="4.75131">
        <ele>172.80000305176</ele>
        <time>2024-05-20T12:30:40.000Z</time>
      </trkpt>
      <trkpt lat="45.99765" lon="4.75132">
        <ele>172.80000305176</ele>
        <time>2024-05-20T12:30:41.000Z</time>
      </trkpt>
      <trkpt lat="45.99759" lon="4.75134">
        <ele>172.80000305176</ele>
        <time>2024-05-20T12:30:42.000Z</time>
      </trkpt>
      <trkpt lat="45.99754" lon="4.75135">
        <ele>172.80000305176</ele>
        <time>2024-05-20T12:30:43.000Z</time>
      </trkpt>
      <trkpt lat="45.99748" lon="4.75137">
        <ele>172.80000305176</ele>
        <time>2024-05-20T12:30:44.000Z</time>
      </trkpt>
      <trkpt lat="45.99742" lon="4.7514">
        <ele>172.80000305176</ele>
        <time>2024-05-20T12:30:45.000Z</time>
      </trkpt>
      <trkpt lat="45.99737" lon="4.75141">
        <ele>172.80000305176</ele>
        <time>2024-05-20T12:30:46.000Z</time>
      </trkpt>
      <trkpt lat="45.99731" lon="4.75143">
        <ele>172.80000305176</ele>
        <time>2024-05-20T12:30:47.000Z</time>
      </trkpt>
      <trkpt lat="45.99725" lon="4.75145">
        <ele>172.80000305176</ele>
        <time>2024-05-20T12:30:48.000Z</time>
      </trkpt>
      <trkpt lat="45.9972" lon="4.75146">
        <ele>172.80000305176</ele>
        <time>2024-05-20T12:30:49.000Z</time>
      </trkpt>
      <trkpt lat="45.99714" lon="4.75148">
        <ele>173</ele>
        <time>2024-05-20T12:30:50.000Z</time>
      </trkpt>
      <trkpt lat="45.99709" lon="4.75149">
        <ele>173</ele>
        <time>2024-05-20T12:30:51.000Z</time>
      </trkpt>
      <trkpt lat="45.99703" lon="4.7515">
        <ele>173</ele>
        <time>2024-05-20T12:30:52.000Z</time>
      </trkpt>
      <trkpt lat="45.99698" lon="4.75151">
        <ele>173</ele>
        <time>2024-05-20T12:30:53.000Z</time>
      </trkpt>
      <trkpt lat="45.99693" lon="4.75153">
        <ele>173</ele>
        <time>2024-05-20T12:30:54.000Z</time>
      </trkpt>
      <trkpt lat="45.99689" lon="4.75154">
        <ele>173</ele>
        <time>2024-05-20T12:30:55.000Z</time>
      </trkpt>
      <trkpt lat="45.99686" lon="4.75154">
        <ele>173</ele>
        <time>2024-05-20T12:30:56.000Z</time>
      </trkpt>
      <trkpt lat="45.99683" lon="4.75154">
        <ele>173</ele>
        <time>2024-05-20T12:30:57.000Z</time>
      </trkpt>
      <trkpt lat="45.99681" lon="4.75154">
        <ele>173</ele>
        <time>2024-05-20T12:30:58.000Z</time>
      </trkpt>
      <trkpt lat="45.9968" lon="4.75154">
        <ele>173</ele>
        <time>2024-05-20T12:30:59.000Z</time>
      </trkpt>
      <trkpt lat="45.99679" lon="4.75155">
        <ele>173.19999694824</ele>
        <time>2024-05-20T12:31:00.000Z</time>
      </trkpt>
      <trkpt lat="45.99678" lon="4.75155">
        <ele>173.39999389648</ele>
        <time>2024-05-20T12:31:01.000Z</time>
      </trkpt>
      <trkpt lat="45.99676" lon="4.75156">
        <ele>173.39999389648</ele>
        <time>2024-05-20T12:31:02.000Z</time>
      </trkpt>
      <trkpt lat="45.99673" lon="4.75156">
        <ele>173.39999389648</ele>
        <time>2024-05-20T12:31:03.000Z</time>
      </trkpt>
      <trkpt lat="45.9967" lon="4.75158">
        <ele>173.39999389648</ele>
        <time>2024-05-20T12:31:04.000Z</time>
      </trkpt>
      <trkpt lat="45.99666" lon="4.75159">
        <ele>173.39999389648</ele>
        <time>2024-05-20T12:31:05.000Z</time>
      </trkpt>
      <trkpt lat="45.99662" lon="4.7516">
        <ele>173.19999694824</ele>
        <time>2024-05-20T12:31:06.000Z</time>
      </trkpt>
      <trkpt lat="45.99658" lon="4.7516">
        <ele>173.19999694824</ele>
        <time>2024-05-20T12:31:07.000Z</time>
      </trkpt>
      <trkpt lat="45.99653" lon="4.75161">
        <ele>173.19999694824</ele>
        <time>2024-05-20T12:31:08.000Z</time>
      </trkpt>
      <trkpt lat="45.99649" lon="4.7516">
        <ele>173.19999694824</ele>
        <time>2024-05-20T12:31:09.000Z</time>
      </trkpt>
      <trkpt lat="45.99646" lon="4.7516">
        <ele>173.19999694824</ele>
        <time>2024-05-20T12:31:10.000Z</time>
      </trkpt>
      <trkpt lat="45.99644" lon="4.75159">
        <ele>173.19999694824</ele>
        <time>2024-05-20T12:31:11.000Z</time>
      </trkpt>
      <trkpt lat="45.99641" lon="4.75157">
        <ele>173.39999389648</ele>
        <time>2024-05-20T12:31:12.000Z</time>
      </trkpt>
      <trkpt lat="45.99639" lon="4.75156">
        <ele>173.60000610352</ele>
        <time>2024-05-20T12:31:13.000Z</time>
      </trkpt>
      <trkpt lat="45.99636" lon="4.75154">
        <ele>173.60000610352</ele>
        <time>2024-05-20T12:31:14.000Z</time>
      </trkpt>
      <trkpt lat="45.99632" lon="4.75152">
        <ele>173.60000610352</ele>
        <time>2024-05-20T12:31:15.000Z</time>
      </trkpt>
      <trkpt lat="45.99628" lon="4.75149">
        <ele>173.60000610352</ele>
        <time>2024-05-20T12:31:16.000Z</time>
      </trkpt>
      <trkpt lat="45.99623" lon="4.75146">
        <ele>173.39999389648</ele>
        <time>2024-05-20T12:31:17.000Z</time>
      </trkpt>
      <trkpt lat="45.99619" lon="4.75143">
        <ele>173</ele>
        <time>2024-05-20T12:31:18.000Z</time>
      </trkpt>
      <trkpt lat="45.99614" lon="4.75141">
        <ele>172.80000305176</ele>
        <time>2024-05-20T12:31:19.000Z</time>
      </trkpt>
      <trkpt lat="45.99609" lon="4.75141">
        <ele>172.39999389648</ele>
        <time>2024-05-20T12:31:20.000Z</time>
      </trkpt>
      <trkpt lat="45.99604" lon="4.7514">
        <ele>172.19999694824</ele>
        <time>2024-05-20T12:31:21.000Z</time>
      </trkpt>
      <trkpt lat="45.99598" lon="4.7514">
        <ele>172.19999694824</ele>
        <time>2024-05-20T12:31:22.000Z</time>
      </trkpt>
      <trkpt lat="45.99593" lon="4.7514">
        <ele>172.19999694824</ele>
        <time>2024-05-20T12:31:23.000Z</time>
      </trkpt>
      <trkpt lat="45.99588" lon="4.75141">
        <ele>172.19999694824</ele>
        <time>2024-05-20T12:31:24.000Z</time>
      </trkpt>
      <trkpt lat="45.99582" lon="4.75143">
        <ele>172.19999694824</ele>
        <time>2024-05-20T12:31:25.000Z</time>
      </trkpt>
      <trkpt lat="45.99577" lon="4.75146">
        <ele>172.19999694824</ele>
        <time>2024-05-20T12:31:26.000Z</time>
      </trkpt>
      <trkpt lat="45.99573" lon="4.75151">
        <ele>172.19999694824</ele>
        <time>2024-05-20T12:31:27.000Z</time>
      </trkpt>
      <trkpt lat="45.9957" lon="4.75157">
        <ele>172.39999389648</ele>
        <time>2024-05-20T12:31:28.000Z</time>
      </trkpt>
      <trkpt lat="45.99568" lon="4.75164">
        <ele>172.39999389648</ele>
        <time>2024-05-20T12:31:29.000Z</time>
      </trkpt>
      <trkpt lat="45.99566" lon="4.7517">
        <ele>172.60000610352</ele>
        <time>2024-05-20T12:31:30.000Z</time>
      </trkpt>
      <trkpt lat="45.99564" lon="4.75176">
        <ele>172.80000305176</ele>
        <time>2024-05-20T12:31:31.000Z</time>
      </trkpt>
      <trkpt lat="45.9956" lon="4.75181">
        <ele>173</ele>
        <time>2024-05-20T12:31:32.000Z</time>
      </trkpt>
      <trkpt lat="45.99557" lon="4.75185">
        <ele>173</ele>
        <time>2024-05-20T12:31:33.000Z</time>
      </trkpt>
      <trkpt lat="45.99552" lon="4.75187">
        <ele>173</ele>
        <time>2024-05-20T12:31:34.000Z</time>
      </trkpt>
      <trkpt lat="45.99548" lon="4.75188">
        <ele>173</ele>
        <time>2024-05-20T12:31:35.000Z</time>
      </trkpt>
      <trkpt lat="45.99542" lon="4.7519">
        <ele>172.80000305176</ele>
        <time>2024-05-20T12:31:36.000Z</time>
      </trkpt>
      <trkpt lat="45.99537" lon="4.75191">
        <ele>172.80000305176</ele>
        <time>2024-05-20T12:31:37.000Z</time>
      </trkpt>
      <trkpt lat="45.99532" lon="4.75193">
        <ele>172.60000610352</ele>
        <time>2024-05-20T12:31:38.000Z</time>
      </trkpt>
      <trkpt lat="45.99528" lon="4.75193">
        <ele>172.60000610352</ele>
        <time>2024-05-20T12:31:39.000Z</time>
      </trkpt>
      <trkpt lat="45.99523" lon="4.75195">
        <ele>172.39999389648</ele>
        <time>2024-05-20T12:31:40.000Z</time>
      </trkpt>
      <trkpt lat="45.99518" lon="4.75196">
        <ele>172.39999389648</ele>
        <time>2024-05-20T12:31:41.000Z</time>
      </trkpt>
      <trkpt lat="45.99513" lon="4.75197">
        <ele>172.39999389648</ele>
        <time>2024-05-20T12:31:42.000Z</time>
      </trkpt>
      <trkpt lat="45.99508" lon="4.75198">
        <ele>172.39999389648</ele>
        <time>2024-05-20T12:31:43.000Z</time>
      </trkpt>
      <trkpt lat="45.99503" lon="4.75198">
        <ele>172.39999389648</ele>
        <time>2024-05-20T12:31:44.000Z</time>
      </trkpt>
      <trkpt lat="45.99499" lon="4.75199">
        <ele>172.39999389648</ele>
        <time>2024-05-20T12:31:45.000Z</time>
      </trkpt>
      <trkpt lat="45.99494" lon="4.75201">
        <ele>172.39999389648</ele>
        <time>2024-05-20T12:31:46.000Z</time>
      </trkpt>
      <trkpt lat="45.99489" lon="4.75202">
        <ele>172.39999389648</ele>
        <time>2024-05-20T12:31:47.000Z</time>
      </trkpt>
      <trkpt lat="45.99483" lon="4.75204">
        <ele>172.60000610352</ele>
        <time>2024-05-20T12:31:48.000Z</time>
      </trkpt>
      <trkpt lat="45.99478" lon="4.75205">
        <ele>172.60000610352</ele>
        <time>2024-05-20T12:31:49.000Z</time>
      </trkpt>
      <trkpt lat="45.99472" lon="4.75205">
        <ele>172.60000610352</ele>
        <time>2024-05-20T12:31:50.000Z</time>
      </trkpt>
      <trkpt lat="45.99467" lon="4.75206">
        <ele>172.80000305176</ele>
        <time>2024-05-20T12:31:51.000Z</time>
      </trkpt>
      <trkpt lat="45.99462" lon="4.75206">
        <ele>172.80000305176</ele>
        <time>2024-05-20T12:31:52.000Z</time>
      </trkpt>
      <trkpt lat="45.99457" lon="4.75207">
        <ele>173</ele>
        <time>2024-05-20T12:31:53.000Z</time>
      </trkpt>
      <trkpt lat="45.99451" lon="4.75208">
        <ele>173</ele>
        <time>2024-05-20T12:31:54.000Z</time>
      </trkpt>
      <trkpt lat="45.99446" lon="4.75209">
        <ele>173</ele>
        <time>2024-05-20T12:31:55.000Z</time>
      </trkpt>
      <trkpt lat="45.99441" lon="4.7521">
        <ele>173</ele>
        <time>2024-05-20T12:31:56.000Z</time>
      </trkpt>
      <trkpt lat="45.99436" lon="4.75211">
        <ele>173</ele>
        <time>2024-05-20T12:31:57.000Z</time>
      </trkpt>
      <trkpt lat="45.99432" lon="4.75213">
        <ele>173</ele>
        <time>2024-05-20T12:31:58.000Z</time>
      </trkpt>
      <trkpt lat="45.99427" lon="4.75214">
        <ele>173</ele>
        <time>2024-05-20T12:31:59.000Z</time>
      </trkpt>
      <trkpt lat="45.99422" lon="4.75217">
        <ele>173</ele>
        <time>2024-05-20T12:32:00.000Z</time>
      </trkpt>
      <trkpt lat="45.99417" lon="4.75218">
        <ele>173.19999694824</ele>
        <time>2024-05-20T12:32:01.000Z</time>
      </trkpt>
      <trkpt lat="45.99413" lon="4.75219">
        <ele>173.19999694824</ele>
        <time>2024-05-20T12:32:02.000Z</time>
      </trkpt>
      <trkpt lat="45.99409" lon="4.7522">
        <ele>173.39999389648</ele>
        <time>2024-05-20T12:32:03.000Z</time>
      </trkpt>
      <trkpt lat="45.99405" lon="4.75221">
        <ele>173.39999389648</ele>
        <time>2024-05-20T12:32:04.000Z</time>
      </trkpt>
      <trkpt lat="45.99401" lon="4.75221">
        <ele>173.39999389648</ele>
        <time>2024-05-20T12:32:05.000Z</time>
      </trkpt>
      <trkpt lat="45.99396" lon="4.75221">
        <ele>173.39999389648</ele>
        <time>2024-05-20T12:32:06.000Z</time>
      </trkpt>
      <trkpt lat="45.99391" lon="4.75222">
        <ele>173.60000610352</ele>
        <time>2024-05-20T12:32:07.000Z</time>
      </trkpt>
      <trkpt lat="45.99386" lon="4.75222">
        <ele>173.60000610352</ele>
        <time>2024-05-20T12:32:08.000Z</time>
      </trkpt>
      <trkpt lat="45.99381" lon="4.75222">
        <ele>173.60000610352</ele>
        <time>2024-05-20T12:32:09.000Z</time>
      </trkpt>
      <trkpt lat="45.99375" lon="4.75223">
        <ele>173.39999389648</ele>
        <time>2024-05-20T12:32:10.000Z</time>
      </trkpt>
      <trkpt lat="45.9937" lon="4.75223">
        <ele>173.39999389648</ele>
        <time>2024-05-20T12:32:11.000Z</time>
      </trkpt>
      <trkpt lat="45.99364" lon="4.75224">
        <ele>173.39999389648</ele>
        <time>2024-05-20T12:32:12.000Z</time>
      </trkpt>
      <trkpt lat="45.99357" lon="4.75224">
        <ele>173.39999389648</ele>
        <time>2024-05-20T12:32:13.000Z</time>
      </trkpt>
      <trkpt lat="45.99351" lon="4.75224">
        <ele>173.39999389648</ele>
        <time>2024-05-20T12:32:14.000Z</time>
      </trkpt>
      <trkpt lat="45.99344" lon="4.75223">
        <ele>173.39999389648</ele>
        <time>2024-05-20T12:32:15.000Z</time>
      </trkpt>
      <trkpt lat="45.99339" lon="4.75223">
        <ele>173.19999694824</ele>
        <time>2024-05-20T12:32:16.000Z</time>
      </trkpt>
      <trkpt lat="45.99332" lon="4.75221">
        <ele>173</ele>
        <time>2024-05-20T12:32:17.000Z</time>
      </trkpt>
      <trkpt lat="45.99327" lon="4.7522">
        <ele>172.80000305176</ele>
        <time>2024-05-20T12:32:18.000Z</time>
      </trkpt>
      <trkpt lat="45.99321" lon="4.75218">
        <ele>172.80000305176</ele>
        <time>2024-05-20T12:32:19.000Z</time>
      </trkpt>
      <trkpt lat="45.99315" lon="4.75217">
        <ele>172.60000610352</ele>
        <time>2024-05-20T12:32:20.000Z</time>
      </trkpt>
      <trkpt lat="45.99309" lon="4.75217">
        <ele>172.39999389648</ele>
        <time>2024-05-20T12:32:21.000Z</time>
      </trkpt>
      <trkpt lat="45.99303" lon="4.75217">
        <ele>172.39999389648</ele>
        <time>2024-05-20T12:32:22.000Z</time>
      </trkpt>
      <trkpt lat="45.99297" lon="4.75217">
        <ele>172.39999389648</ele>
        <time>2024-05-20T12:32:23.000Z</time>
      </trkpt>
      <trkpt lat="45.99291" lon="4.75217">
        <ele>172.19999694824</ele>
        <time>2024-05-20T12:32:24.000Z</time>
      </trkpt>
      <trkpt lat="45.99285" lon="4.75217">
        <ele>172.19999694824</ele>
        <time>2024-05-20T12:32:25.000Z</time>
      </trkpt>
      <trkpt lat="45.99278" lon="4.75217">
        <ele>172.19999694824</ele>
        <time>2024-05-20T12:32:26.000Z</time>
      </trkpt>
      <trkpt lat="45.99272" lon="4.75218">
        <ele>172.39999389648</ele>
        <time>2024-05-20T12:32:27.000Z</time>
      </trkpt>
      <trkpt lat="45.99266" lon="4.75218">
        <ele>172.39999389648</ele>
        <time>2024-05-20T12:32:28.000Z</time>
      </trkpt>
      <trkpt lat="45.9926" lon="4.75217">
        <ele>172.39999389648</ele>
        <time>2024-05-20T12:32:29.000Z</time>
      </trkpt>
      <trkpt lat="45.99254" lon="4.75216">
        <ele>172.80000305176</ele>
        <time>2024-05-20T12:32:30.000Z</time>
      </trkpt>
      <trkpt lat="45.99249" lon="4.75215">
        <ele>172.80000305176</ele>
        <time>2024-05-20T12:32:31.000Z</time>
      </trkpt>
      <trkpt lat="45.99242" lon="4.75214">
        <ele>172.39999389648</ele>
        <time>2024-05-20T12:32:32.000Z</time>
      </trkpt>
      <trkpt lat="45.99236" lon="4.75213">
        <ele>172.39999389648</ele>
        <time>2024-05-20T12:32:33.000Z</time>
      </trkpt>
      <trkpt lat="45.99229" lon="4.75212">
        <ele>172.39999389648</ele>
        <time>2024-05-20T12:32:34.000Z</time>
      </trkpt>
      <trkpt lat="45.99223" lon="4.7521">
        <ele>172.39999389648</ele>
        <time>2024-05-20T12:32:35.000Z</time>
      </trkpt>
      <trkpt lat="45.99217" lon="4.75208">
        <ele>172.39999389648</ele>
        <time>2024-05-20T12:32:36.000Z</time>
      </trkpt>
      <trkpt lat="45.9921" lon="4.75206">
        <ele>172.39999389648</ele>
        <time>2024-05-20T12:32:37.000Z</time>
      </trkpt>
      <trkpt lat="45.99203" lon="4.75205">
        <ele>172.80000305176</ele>
        <time>2024-05-20T12:32:38.000Z</time>
      </trkpt>
      <trkpt lat="45.99197" lon="4.75204">
        <ele>172.80000305176</ele>
        <time>2024-05-20T12:32:39.000Z</time>
      </trkpt>
      <trkpt lat="45.99192" lon="4.75202">
        <ele>172.80000305176</ele>
        <time>2024-05-20T12:32:40.000Z</time>
      </trkpt>
      <trkpt lat="45.99187" lon="4.752">
        <ele>172.80000305176</ele>
        <time>2024-05-20T12:32:41.000Z</time>
      </trkpt>
      <trkpt lat="45.99182" lon="4.75199">
        <ele>173</ele>
        <time>2024-05-20T12:32:42.000Z</time>
      </trkpt>
      <trkpt lat="45.99178" lon="4.75197">
        <ele>173</ele>
        <time>2024-05-20T12:32:43.000Z</time>
      </trkpt>
      <trkpt lat="45.99174" lon="4.75197">
        <ele>173</ele>
        <time>2024-05-20T12:32:44.000Z</time>
      </trkpt>
      <trkpt lat="45.99168" lon="4.75196">
        <ele>173.19999694824</ele>
        <time>2024-05-20T12:32:45.000Z</time>
      </trkpt>
      <trkpt lat="45.99164" lon="4.75195">
        <ele>173</ele>
        <time>2024-05-20T12:32:46.000Z</time>
      </trkpt>
      <trkpt lat="45.99159" lon="4.75194">
        <ele>173</ele>
        <time>2024-05-20T12:32:47.000Z</time>
      </trkpt>
      <trkpt lat="45.99154" lon="4.75194">
        <ele>173</ele>
        <time>2024-05-20T12:32:48.000Z</time>
      </trkpt>
      <trkpt lat="45.99149" lon="4.75193">
        <ele>173</ele>
        <time>2024-05-20T12:32:49.000Z</time>
      </trkpt>
      <trkpt lat="45.99144" lon="4.75193">
        <ele>172.80000305176</ele>
        <time>2024-05-20T12:32:50.000Z</time>
      </trkpt>
      <trkpt lat="45.99139" lon="4.75193">
        <ele>172.39999389648</ele>
        <time>2024-05-20T12:32:51.000Z</time>
      </trkpt>
      <trkpt lat="45.99134" lon="4.75192">
        <ele>172.39999389648</ele>
        <time>2024-05-20T12:32:52.000Z</time>
      </trkpt>
      <trkpt lat="45.99129" lon="4.75192">
        <ele>172.39999389648</ele>
        <time>2024-05-20T12:32:53.000Z</time>
      </trkpt>
      <trkpt lat="45.99123" lon="4.75191">
        <ele>172.39999389648</ele>
        <time>2024-05-20T12:32:54.000Z</time>
      </trkpt>
      <trkpt lat="45.99118" lon="4.75191">
        <ele>172.39999389648</ele>
        <time>2024-05-20T12:32:55.000Z</time>
      </trkpt>
      <trkpt lat="45.99112" lon="4.7519">
        <ele>172.39999389648</ele>
        <time>2024-05-20T12:32:56.000Z</time>
      </trkpt>
      <trkpt lat="45.99107" lon="4.7519">
        <ele>172.80000305176</ele>
        <time>2024-05-20T12:32:57.000Z</time>
      </trkpt>
      <trkpt lat="45.99102" lon="4.7519">
        <ele>172.80000305176</ele>
        <time>2024-05-20T12:32:58.000Z</time>
      </trkpt>
      <trkpt lat="45.99096" lon="4.7519">
        <ele>173</ele>
        <time>2024-05-20T12:32:59.000Z</time>
      </trkpt>
      <trkpt lat="45.99091" lon="4.7519">
        <ele>173</ele>
        <time>2024-05-20T12:33:00.000Z</time>
      </trkpt>
      <trkpt lat="45.99085" lon="4.7519">
        <ele>173</ele>
        <time>2024-05-20T12:33:01.000Z</time>
      </trkpt>
      <trkpt lat="45.9908" lon="4.75191">
        <ele>173</ele>
        <time>2024-05-20T12:33:02.000Z</time>
      </trkpt>
      <trkpt lat="45.99075" lon="4.75191">
        <ele>173.19999694824</ele>
        <time>2024-05-20T12:33:03.000Z</time>
      </trkpt>
      <trkpt lat="45.99069" lon="4.7519">
        <ele>173.19999694824</ele>
        <time>2024-05-20T12:33:04.000Z</time>
      </trkpt>
      <trkpt lat="45.99063" lon="4.7519">
        <ele>173.19999694824</ele>
        <time>2024-05-20T12:33:05.000Z</time>
      </trkpt>
      <trkpt lat="45.99057" lon="4.7519">
        <ele>173.19999694824</ele>
        <time>2024-05-20T12:33:06.000Z</time>
      </trkpt>
      <trkpt lat="45.99051" lon="4.75189">
        <ele>173</ele>
        <time>2024-05-20T12:33:07.000Z</time>
      </trkpt>
      <trkpt lat="45.99046" lon="4.75188">
        <ele>173</ele>
        <time>2024-05-20T12:33:08.000Z</time>
      </trkpt>
      <trkpt lat="45.9904" lon="4.75188">
        <ele>173</ele>
        <time>2024-05-20T12:33:09.000Z</time>
      </trkpt>
      <trkpt lat="45.99034" lon="4.75188">
        <ele>173</ele>
        <time>2024-05-20T12:33:10.000Z</time>
      </trkpt>
      <trkpt lat="45.99028" lon="4.75188">
        <ele>173</ele>
        <time>2024-05-20T12:33:11.000Z</time>
      </trkpt>
      <trkpt lat="45.99022" lon="4.75189">
        <ele>172.80000305176</ele>
        <time>2024-05-20T12:33:12.000Z</time>
      </trkpt>
      <trkpt lat="45.99016" lon="4.75189">
        <ele>172.80000305176</ele>
        <time>2024-05-20T12:33:13.000Z</time>
      </trkpt>
      <trkpt lat="45.9901" lon="4.75189">
        <ele>172.80000305176</ele>
        <time>2024-05-20T12:33:14.000Z</time>
      </trkpt>
      <trkpt lat="45.99004" lon="4.7519">
        <ele>172.80000305176</ele>
        <time>2024-05-20T12:33:15.000Z</time>
      </trkpt>
      <trkpt lat="45.98999" lon="4.7519">
        <ele>172.60000610352</ele>
        <time>2024-05-20T12:33:16.000Z</time>
      </trkpt>
      <trkpt lat="45.98993" lon="4.75191">
        <ele>172.60000610352</ele>
        <time>2024-05-20T12:33:17.000Z</time>
      </trkpt>
      <trkpt lat="45.98986" lon="4.75191">
        <ele>172.39999389648</ele>
        <time>2024-05-20T12:33:18.000Z</time>
      </trkpt>
      <trkpt lat="45.9898" lon="4.75191">
        <ele>172</ele>
        <time>2024-05-20T12:33:19.000Z</time>
      </trkpt>
      <trkpt lat="45.98975" lon="4.75192">
        <ele>171.80000305176</ele>
        <time>2024-05-20T12:33:20.000Z</time>
      </trkpt>
      <trkpt lat="45.98969" lon="4.75192">
        <ele>171.60000610352</ele>
        <time>2024-05-20T12:33:21.000Z</time>
      </trkpt>
      <trkpt lat="45.98963" lon="4.75192">
        <ele>171.19999694824</ele>
        <time>2024-05-20T12:33:22.000Z</time>
      </trkpt>
      <trkpt lat="45.98957" lon="4.75192">
        <ele>171.19999694824</ele>
        <time>2024-05-20T12:33:23.000Z</time>
      </trkpt>
      <trkpt lat="45.98951" lon="4.75192">
        <ele>171.19999694824</ele>
        <time>2024-05-20T12:33:24.000Z</time>
      </trkpt>
      <trkpt lat="45.98945" lon="4.75193">
        <ele>171.19999694824</ele>
        <time>2024-05-20T12:33:25.000Z</time>
      </trkpt>
      <trkpt lat="45.9894" lon="4.75193">
        <ele>171.19999694824</ele>
        <time>2024-05-20T12:33:26.000Z</time>
      </trkpt>
      <trkpt lat="45.98934" lon="4.75193">
        <ele>171.39999389648</ele>
        <time>2024-05-20T12:33:27.000Z</time>
      </trkpt>
      <trkpt lat="45.98928" lon="4.75194">
        <ele>171.60000610352</ele>
        <time>2024-05-20T12:33:28.000Z</time>
      </trkpt>
      <trkpt lat="45.98922" lon="4.75195">
        <ele>171.80000305176</ele>
        <time>2024-05-20T12:33:29.000Z</time>
      </trkpt>
      <trkpt lat="45.98916" lon="4.75197">
        <ele>172</ele>
        <time>2024-05-20T12:33:30.000Z</time>
      </trkpt>
      <trkpt lat="45.9891" lon="4.752">
        <ele>172</ele>
        <time>2024-05-20T12:33:31.000Z</time>
      </trkpt>
      <trkpt lat="45.98905" lon="4.75202">
        <ele>172</ele>
        <time>2024-05-20T12:33:32.000Z</time>
      </trkpt>
      <trkpt lat="45.98899" lon="4.75204">
        <ele>172</ele>
        <time>2024-05-20T12:33:33.000Z</time>
      </trkpt>
      <trkpt lat="45.98893" lon="4.75205">
        <ele>172</ele>
        <time>2024-05-20T12:33:34.000Z</time>
      </trkpt>
      <trkpt lat="45.98887" lon="4.75206">
        <ele>172</ele>
        <time>2024-05-20T12:33:35.000Z</time>
      </trkpt>
      <trkpt lat="45.98882" lon="4.75207">
        <ele>172</ele>
        <time>2024-05-20T12:33:36.000Z</time>
      </trkpt>
      <trkpt lat="45.98876" lon="4.75208">
        <ele>172</ele>
        <time>2024-05-20T12:33:37.000Z</time>
      </trkpt>
      <trkpt lat="45.9887" lon="4.75209">
        <ele>172.19999694824</ele>
        <time>2024-05-20T12:33:38.000Z</time>
      </trkpt>
      <trkpt lat="45.98864" lon="4.7521">
        <ele>172.19999694824</ele>
        <time>2024-05-20T12:33:39.000Z</time>
      </trkpt>
      <trkpt lat="45.98858" lon="4.75211">
        <ele>172.19999694824</ele>
        <time>2024-05-20T12:33:40.000Z</time>
      </trkpt>
      <trkpt lat="45.98852" lon="4.75212">
        <ele>172</ele>
        <time>2024-05-20T12:33:41.000Z</time>
      </trkpt>
      <trkpt lat="45.98846" lon="4.75212">
        <ele>171.80000305176</ele>
        <time>2024-05-20T12:33:42.000Z</time>
      </trkpt>
      <trkpt lat="45.9884" lon="4.75213">
        <ele>171.80000305176</ele>
        <time>2024-05-20T12:33:43.000Z</time>
      </trkpt>
      <trkpt lat="45.98834" lon="4.75214">
        <ele>171.60000610352</ele>
        <time>2024-05-20T12:33:44.000Z</time>
      </trkpt>
      <trkpt lat="45.98828" lon="4.75215">
        <ele>171.60000610352</ele>
        <time>2024-05-20T12:33:45.000Z</time>
      </trkpt>
      <trkpt lat="45.98823" lon="4.75215">
        <ele>171.39999389648</ele>
        <time>2024-05-20T12:33:46.000Z</time>
      </trkpt>
      <trkpt lat="45.98817" lon="4.75216">
        <ele>171.39999389648</ele>
        <time>2024-05-20T12:33:47.000Z</time>
      </trkpt>
      <trkpt lat="45.98811" lon="4.75217">
        <ele>171.60000610352</ele>
        <time>2024-05-20T12:33:48.000Z</time>
      </trkpt>
      <trkpt lat="45.98806" lon="4.75217">
        <ele>171.60000610352</ele>
        <time>2024-05-20T12:33:49.000Z</time>
      </trkpt>
      <trkpt lat="45.988" lon="4.75218">
        <ele>171.60000610352</ele>
        <time>2024-05-20T12:33:50.000Z</time>
      </trkpt>
      <trkpt lat="45.98794" lon="4.75218">
        <ele>172</ele>
        <time>2024-05-20T12:33:51.000Z</time>
      </trkpt>
      <trkpt lat="45.98789" lon="4.75218">
        <ele>172.19999694824</ele>
        <time>2024-05-20T12:33:52.000Z</time>
      </trkpt>
      <trkpt lat="45.98783" lon="4.75218">
        <ele>172.19999694824</ele>
        <time>2024-05-20T12:33:53.000Z</time>
      </trkpt>
      <trkpt lat="45.98777" lon="4.75217">
        <ele>172.19999694824</ele>
        <time>2024-05-20T12:33:54.000Z</time>
      </trkpt>
      <trkpt lat="45.98772" lon="4.75215">
        <ele>172.19999694824</ele>
        <time>2024-05-20T12:33:55.000Z</time>
      </trkpt>
      <trkpt lat="45.98766" lon="4.75212">
        <ele>172.19999694824</ele>
        <time>2024-05-20T12:33:56.000Z</time>
      </trkpt>
      <trkpt lat="45.98761" lon="4.7521">
        <ele>172.19999694824</ele>
        <time>2024-05-20T12:33:57.000Z</time>
      </trkpt>
      <trkpt lat="45.98755" lon="4.75207">
        <ele>172.19999694824</ele>
        <time>2024-05-20T12:33:58.000Z</time>
      </trkpt>
      <trkpt lat="45.9875" lon="4.75204">
        <ele>172</ele>
        <time>2024-05-20T12:33:59.000Z</time>
      </trkpt>
      <trkpt lat="45.98744" lon="4.75202">
        <ele>172</ele>
        <time>2024-05-20T12:34:00.000Z</time>
      </trkpt>
      <trkpt lat="45.98739" lon="4.75199">
        <ele>172</ele>
        <time>2024-05-20T12:34:01.000Z</time>
      </trkpt>
      <trkpt lat="45.98733" lon="4.75197">
        <ele>171.80000305176</ele>
        <time>2024-05-20T12:34:02.000Z</time>
      </trkpt>
      <trkpt lat="45.98728" lon="4.75195">
        <ele>171.80000305176</ele>
        <time>2024-05-20T12:34:03.000Z</time>
      </trkpt>
      <trkpt lat="45.98722" lon="4.75192">
        <ele>171.80000305176</ele>
        <time>2024-05-20T12:34:04.000Z</time>
      </trkpt>
      <trkpt lat="45.98716" lon="4.75191">
        <ele>171.80000305176</ele>
        <time>2024-05-20T12:34:05.000Z</time>
      </trkpt>
      <trkpt lat="45.98711" lon="4.7519">
        <ele>171.60000610352</ele>
        <time>2024-05-20T12:34:06.000Z</time>
      </trkpt>
      <trkpt lat="45.98705" lon="4.75189">
        <ele>171.19999694824</ele>
        <time>2024-05-20T12:34:07.000Z</time>
      </trkpt>
      <trkpt lat="45.98699" lon="4.75189">
        <ele>171.19999694824</ele>
        <time>2024-05-20T12:34:08.000Z</time>
      </trkpt>
      <trkpt lat="45.98693" lon="4.75188">
        <ele>171</ele>
        <time>2024-05-20T12:34:09.000Z</time>
      </trkpt>
      <trkpt lat="45.98688" lon="4.75188">
        <ele>171</ele>
        <time>2024-05-20T12:34:10.000Z</time>
      </trkpt>
      <trkpt lat="45.98682" lon="4.75188">
        <ele>171</ele>
        <time>2024-05-20T12:34:11.000Z</time>
      </trkpt>
      <trkpt lat="45.98677" lon="4.75188">
        <ele>171</ele>
        <time>2024-05-20T12:34:12.000Z</time>
      </trkpt>
      <trkpt lat="45.98671" lon="4.75189">
        <ele>171</ele>
        <time>2024-05-20T12:34:13.000Z</time>
      </trkpt>
      <trkpt lat="45.98666" lon="4.75189">
        <ele>171</ele>
        <time>2024-05-20T12:34:14.000Z</time>
      </trkpt>
      <trkpt lat="45.98661" lon="4.7519">
        <ele>171</ele>
        <time>2024-05-20T12:34:15.000Z</time>
      </trkpt>
      <trkpt lat="45.98655" lon="4.75191">
        <ele>171.39999389648</ele>
        <time>2024-05-20T12:34:16.000Z</time>
      </trkpt>
      <trkpt lat="45.9865" lon="4.75192">
        <ele>171.39999389648</ele>
        <time>2024-05-20T12:34:17.000Z</time>
      </trkpt>
      <trkpt lat="45.98645" lon="4.75192">
        <ele>171.39999389648</ele>
        <time>2024-05-20T12:34:18.000Z</time>
      </trkpt>
      <trkpt lat="45.9864" lon="4.75192">
        <ele>171.80000305176</ele>
        <time>2024-05-20T12:34:19.000Z</time>
      </trkpt>
      <trkpt lat="45.98634" lon="4.75192">
        <ele>171.80000305176</ele>
        <time>2024-05-20T12:34:20.000Z</time>
      </trkpt>
      <trkpt lat="45.98629" lon="4.75192">
        <ele>172</ele>
        <time>2024-05-20T12:34:21.000Z</time>
      </trkpt>
      <trkpt lat="45.98624" lon="4.75192">
        <ele>172</ele>
        <time>2024-05-20T12:34:22.000Z</time>
      </trkpt>
      <trkpt lat="45.98619" lon="4.75191">
        <ele>172</ele>
        <time>2024-05-20T12:34:23.000Z</time>
      </trkpt>
      <trkpt lat="45.98614" lon="4.75189">
        <ele>172.19999694824</ele>
        <time>2024-05-20T12:34:24.000Z</time>
      </trkpt>
      <trkpt lat="45.98609" lon="4.75188">
        <ele>172.19999694824</ele>
        <time>2024-05-20T12:34:25.000Z</time>
      </trkpt>
      <trkpt lat="45.98605" lon="4.75185">
        <ele>172.19999694824</ele>
        <time>2024-05-20T12:34:26.000Z</time>
      </trkpt>
      <trkpt lat="45.98602" lon="4.75184">
        <ele>172.19999694824</ele>
        <time>2024-05-20T12:34:27.000Z</time>
      </trkpt>
      <trkpt lat="45.98599" lon="4.75183">
        <ele>172.19999694824</ele>
        <time>2024-05-20T12:34:28.000Z</time>
      </trkpt>
      <trkpt lat="45.98597" lon="4.75185">
        <ele>172.19999694824</ele>
        <time>2024-05-20T12:34:29.000Z</time>
      </trkpt>
      <trkpt lat="45.98596" lon="4.75187">
        <ele>172.19999694824</ele>
        <time>2024-05-20T12:34:30.000Z</time>
      </trkpt>
      <trkpt lat="45.98597" lon="4.75189">
        <ele>172.39999389648</ele>
        <time>2024-05-20T12:34:31.000Z</time>
      </trkpt>
      <trkpt lat="45.98598" lon="4.75191">
        <ele>172.60000610352</ele>
        <time>2024-05-20T12:34:32.000Z</time>
      </trkpt>
      <trkpt lat="45.986" lon="4.75193">
        <ele>172.80000305176</ele>
        <time>2024-05-20T12:34:33.000Z</time>
      </trkpt>
      <trkpt lat="45.98602" lon="4.75195">
        <ele>173</ele>
        <time>2024-05-20T12:34:34.000Z</time>
      </trkpt>
      <trkpt lat="45.98604" lon="4.75198">
        <ele>173</ele>
        <time>2024-05-20T12:34:35.000Z</time>
      </trkpt>
      <trkpt lat="45.98607" lon="4.752">
        <ele>173.19999694824</ele>
        <time>2024-05-20T12:34:36.000Z</time>
      </trkpt>
      <trkpt lat="45.9861" lon="4.75203">
        <ele>173.39999389648</ele>
        <time>2024-05-20T12:34:37.000Z</time>
      </trkpt>
      <trkpt lat="45.98613" lon="4.75207">
        <ele>173.39999389648</ele>
        <time>2024-05-20T12:34:38.000Z</time>
      </trkpt>
      <trkpt lat="45.98616" lon="4.7521">
        <ele>173.80000305176</ele>
        <time>2024-05-20T12:34:39.000Z</time>
      </trkpt>
      <trkpt lat="45.98619" lon="4.75213">
        <ele>173.80000305176</ele>
        <time>2024-05-20T12:34:40.000Z</time>
      </trkpt>
      <trkpt lat="45.98622" lon="4.75215">
        <ele>174</ele>
        <time>2024-05-20T12:34:41.000Z</time>
      </trkpt>
      <trkpt lat="45.98624" lon="4.75217">
        <ele>174.19999694824</ele>
        <time>2024-05-20T12:34:42.000Z</time>
      </trkpt>
      <trkpt lat="45.98626" lon="4.7522">
        <ele>174.39999389648</ele>
        <time>2024-05-20T12:34:43.000Z</time>
      </trkpt>
      <trkpt lat="45.98625" lon="4.75222">
        <ele>174.39999389648</ele>
        <time>2024-05-20T12:34:44.000Z</time>
      </trkpt>
      <trkpt lat="45.98624" lon="4.75223">
        <ele>174.60000610352</ele>
        <time>2024-05-20T12:34:45.000Z</time>
      </trkpt>
      <trkpt lat="45.98622" lon="4.75223">
        <ele>174.80000305176</ele>
        <time>2024-05-20T12:34:46.000Z</time>
      </trkpt>
      <trkpt lat="45.9862" lon="4.75223">
        <ele>174.80000305176</ele>
        <time>2024-05-20T12:34:47.000Z</time>
      </trkpt>
      <trkpt lat="45.98617" lon="4.75222">
        <ele>174.80000305176</ele>
        <time>2024-05-20T12:34:48.000Z</time>
      </trkpt>
      <trkpt lat="45.98614" lon="4.75222">
        <ele>174.80000305176</ele>
        <time>2024-05-20T12:34:49.000Z</time>
      </trkpt>
      <trkpt lat="45.9861" lon="4.75223">
        <ele>174.80000305176</ele>
        <time>2024-05-20T12:34:50.000Z</time>
      </trkpt>
      <trkpt lat="45.98607" lon="4.75223">
        <ele>174.80000305176</ele>
        <time>2024-05-20T12:34:51.000Z</time>
      </trkpt>
      <trkpt lat="45.98604" lon="4.75224">
        <ele>175</ele>
        <time>2024-05-20T12:34:52.000Z</time>
      </trkpt>
      <trkpt lat="45.986" lon="4.75224">
        <ele>175</ele>
        <time>2024-05-20T12:34:53.000Z</time>
      </trkpt>
      <trkpt lat="45.98597" lon="4.75224">
        <ele>175</ele>
        <time>2024-05-20T12:34:54.000Z</time>
      </trkpt>
      <trkpt lat="45.98593" lon="4.75224">
        <ele>175</ele>
        <time>2024-05-20T12:34:55.000Z</time>
      </trkpt>
      <trkpt lat="45.98589" lon="4.75225">
        <ele>175</ele>
        <time>2024-05-20T12:34:56.000Z</time>
      </trkpt>
      <trkpt lat="45.98585" lon="4.75225">
        <ele>175</ele>
        <time>2024-05-20T12:34:57.000Z</time>
      </trkpt>
      <trkpt lat="45.98581" lon="4.75225">
        <ele>175.19999694824</ele>
        <time>2024-05-20T12:34:58.000Z</time>
      </trkpt>
      <trkpt lat="45.98577" lon="4.75226">
        <ele>175.39999389648</ele>
        <time>2024-05-20T12:34:59.000Z</time>
      </trkpt>
      <trkpt lat="45.98573" lon="4.75227">
        <ele>175.39999389648</ele>
        <time>2024-05-20T12:35:00.000Z</time>
      </trkpt>
      <trkpt lat="45.98568" lon="4.75227">
        <ele>175.39999389648</ele>
        <time>2024-05-20T12:35:01.000Z</time>
      </trkpt>
      <trkpt lat="45.98564" lon="4.75228">
        <ele>175.39999389648</ele>
        <time>2024-05-20T12:35:02.000Z</time>
      </trkpt>
      <trkpt lat="45.9856" lon="4.75228">
        <ele>175.60000610352</ele>
        <time>2024-05-20T12:35:03.000Z</time>
      </trkpt>
      <trkpt lat="45.98555" lon="4.75228">
        <ele>175.60000610352</ele>
        <time>2024-05-20T12:35:04.000Z</time>
      </trkpt>
      <trkpt lat="45.98551" lon="4.75228">
        <ele>175.60000610352</ele>
        <time>2024-05-20T12:35:05.000Z</time>
      </trkpt>
      <trkpt lat="45.98547" lon="4.75228">
        <ele>175.60000610352</ele>
        <time>2024-05-20T12:35:06.000Z</time>
      </trkpt>
      <trkpt lat="45.98543" lon="4.75228">
        <ele>175.60000610352</ele>
        <time>2024-05-20T12:35:07.000Z</time>
      </trkpt>
      <trkpt lat="45.98539" lon="4.75228">
        <ele>175.60000610352</ele>
        <time>2024-05-20T12:35:08.000Z</time>
      </trkpt>
      <trkpt lat="45.98535" lon="4.75229">
        <ele>175.39999389648</ele>
        <time>2024-05-20T12:35:09.000Z</time>
      </trkpt>
      <trkpt lat="45.98533" lon="4.7523">
        <ele>175.39999389648</ele>
        <time>2024-05-20T12:35:10.000Z</time>
      </trkpt>
      <trkpt lat="45.98531" lon="4.7523">
        <ele>175.39999389648</ele>
        <time>2024-05-20T12:35:11.000Z</time>
      </trkpt>
      <trkpt lat="45.98529" lon="4.75232">
        <ele>175.39999389648</ele>
        <time>2024-05-20T12:35:12.000Z</time>
      </trkpt>
      <trkpt lat="45.98529" lon="4.75234">
        <ele>175.39999389648</ele>
        <time>2024-05-20T12:35:13.000Z</time>
      </trkpt>
      <trkpt lat="45.98528" lon="4.75235">
        <ele>175.39999389648</ele>
        <time>2024-05-20T12:35:14.000Z</time>
      </trkpt>
      <trkpt lat="45.98528" lon="4.75235">
        <ele>175.39999389648</ele>
        <time>2024-05-20T12:35:15.000Z</time>
      </trkpt>
      <trkpt lat="45.98528" lon="4.75235">
        <ele>175.39999389648</ele>
        <time>2024-05-20T12:35:16.000Z</time>
      </trkpt>
      <trkpt lat="45.98524" lon="4.75237">
        <ele>175.60000610352</ele>
        <time>2024-05-20T12:35:21.000Z</time>
      </trkpt>
      <trkpt lat="45.98523" lon="4.7524">
        <ele>175.60000610352</ele>
        <time>2024-05-20T12:35:22.000Z</time>
      </trkpt>
      <trkpt lat="45.98523" lon="4.75244">
        <ele>175.39999389648</ele>
        <time>2024-05-20T12:35:23.000Z</time>
      </trkpt>
      <trkpt lat="45.98524" lon="4.75249">
        <ele>175.39999389648</ele>
        <time>2024-05-20T12:35:24.000Z</time>
      </trkpt>
      <trkpt lat="45.98526" lon="4.75254">
        <ele>175.39999389648</ele>
        <time>2024-05-20T12:35:25.000Z</time>
      </trkpt>
      <trkpt lat="45.98527" lon="4.75259">
        <ele>175.39999389648</ele>
        <time>2024-05-20T12:35:26.000Z</time>
      </trkpt>
      <trkpt lat="45.98528" lon="4.75265">
        <ele>175.39999389648</ele>
        <time>2024-05-20T12:35:27.000Z</time>
      </trkpt>
      <trkpt lat="45.98529" lon="4.75271">
        <ele>175.19999694824</ele>
        <time>2024-05-20T12:35:28.000Z</time>
      </trkpt>
      <trkpt lat="45.9853" lon="4.75278">
        <ele>175.19999694824</ele>
        <time>2024-05-20T12:35:29.000Z</time>
      </trkpt>
      <trkpt lat="45.9853" lon="4.75284">
        <ele>175.19999694824</ele>
        <time>2024-05-20T12:35:30.000Z</time>
      </trkpt>
      <trkpt lat="45.98528" lon="4.7529">
        <ele>175.19999694824</ele>
        <time>2024-05-20T12:35:31.000Z</time>
      </trkpt>
      <trkpt lat="45.98524" lon="4.75295">
        <ele>175.19999694824</ele>
        <time>2024-05-20T12:35:32.000Z</time>
      </trkpt>
      <trkpt lat="45.98521" lon="4.75299">
        <ele>175.19999694824</ele>
        <time>2024-05-20T12:35:33.000Z</time>
      </trkpt>
      <trkpt lat="45.98517" lon="4.75303">
        <ele>175</ele>
        <time>2024-05-20T12:35:34.000Z</time>
      </trkpt>
      <trkpt lat="45.98514" lon="4.75306">
        <ele>175</ele>
        <time>2024-05-20T12:35:35.000Z</time>
      </trkpt>
      <trkpt lat="45.98511" lon="4.75309">
        <ele>175</ele>
        <time>2024-05-20T12:35:36.000Z</time>
      </trkpt>
      <trkpt lat="45.98507" lon="4.75311">
        <ele>174.80000305176</ele>
        <time>2024-05-20T12:35:37.000Z</time>
      </trkpt>
      <trkpt lat="45.98502" lon="4.75311">
        <ele>174.60000610352</ele>
        <time>2024-05-20T12:35:38.000Z</time>
      </trkpt>
      <trkpt lat="45.98498" lon="4.75311">
        <ele>174.39999389648</ele>
        <time>2024-05-20T12:35:39.000Z</time>
      </trkpt>
      <trkpt lat="45.98493" lon="4.7531">
        <ele>174.39999389648</ele>
        <time>2024-05-20T12:35:40.000Z</time>
      </trkpt>
      <trkpt lat="45.98488" lon="4.75309">
        <ele>174.39999389648</ele>
        <time>2024-05-20T12:35:41.000Z</time>
      </trkpt>
      <trkpt lat="45.98483" lon="4.75308">
        <ele>174.39999389648</ele>
        <time>2024-05-20T12:35:42.000Z</time>
      </trkpt>
      <trkpt lat="45.98478" lon="4.75308">
        <ele>174.60000610352</ele>
        <time>2024-05-20T12:35:43.000Z</time>
      </trkpt>
      <trkpt lat="45.98473" lon="4.75307">
        <ele>174.60000610352</ele>
        <time>2024-05-20T12:35:44.000Z</time>
      </trkpt>
      <trkpt lat="45.98468" lon="4.75306">
        <ele>174.60000610352</ele>
        <time>2024-05-20T12:35:45.000Z</time>
      </trkpt>
      <trkpt lat="45.98463" lon="4.75306">
        <ele>174.60000610352</ele>
        <time>2024-05-20T12:35:46.000Z</time>
      </trkpt>
      <trkpt lat="45.98458" lon="4.75305">
        <ele>174.60000610352</ele>
        <time>2024-05-20T12:35:47.000Z</time>
      </trkpt>
      <trkpt lat="45.98454" lon="4.75305">
        <ele>174.60000610352</ele>
        <time>2024-05-20T12:35:48.000Z</time>
      </trkpt>
      <trkpt lat="45.9845" lon="4.75303">
        <ele>174.80000305176</ele>
        <time>2024-05-20T12:35:49.000Z</time>
      </trkpt>
      <trkpt lat="45.98447" lon="4.75301">
        <ele>174.80000305176</ele>
        <time>2024-05-20T12:35:50.000Z</time>
      </trkpt>
      <trkpt lat="45.98444" lon="4.75299">
        <ele>174.80000305176</ele>
        <time>2024-05-20T12:35:51.000Z</time>
      </trkpt>
      <trkpt lat="45.98443" lon="4.75297">
        <ele>175</ele>
        <time>2024-05-20T12:35:52.000Z</time>
      </trkpt>
      <trkpt lat="45.98442" lon="4.75294">
        <ele>175</ele>
        <time>2024-05-20T12:35:53.000Z</time>
      </trkpt>
      <trkpt lat="45.9844" lon="4.75293">
        <ele>175.19999694824</ele>
        <time>2024-05-20T12:35:54.000Z</time>
      </trkpt>
      <trkpt lat="45.98438" lon="4.75294">
        <ele>175.60000610352</ele>
        <time>2024-05-20T12:35:55.000Z</time>
      </trkpt>
      <trkpt lat="45.98436" lon="4.75297">
        <ele>175.60000610352</ele>
        <time>2024-05-20T12:35:56.000Z</time>
      </trkpt>
      <trkpt lat="45.98434" lon="4.753">
        <ele>175.60000610352</ele>
        <time>2024-05-20T12:35:57.000Z</time>
      </trkpt>
      <trkpt lat="45.98431" lon="4.75301">
        <ele>175.60000610352</ele>
        <time>2024-05-20T12:35:58.000Z</time>
      </trkpt>
      <trkpt lat="45.98426" lon="4.753">
        <ele>175.60000610352</ele>
        <time>2024-05-20T12:35:59.000Z</time>
      </trkpt>
      <trkpt lat="45.98422" lon="4.753">
        <ele>175.60000610352</ele>
        <time>2024-05-20T12:36:00.000Z</time>
      </trkpt>
      <trkpt lat="45.98417" lon="4.75299">
        <ele>175.60000610352</ele>
        <time>2024-05-20T12:36:01.000Z</time>
      </trkpt>
      <trkpt lat="45.98412" lon="4.75299">
        <ele>175.60000610352</ele>
        <time>2024-05-20T12:36:02.000Z</time>
      </trkpt>
      <trkpt lat="45.98406" lon="4.753">
        <ele>175.39999389648</ele>
        <time>2024-05-20T12:36:03.000Z</time>
      </trkpt>
      <trkpt lat="45.98401" lon="4.753">
        <ele>175.39999389648</ele>
        <time>2024-05-20T12:36:04.000Z</time>
      </trkpt>
      <trkpt lat="45.98396" lon="4.753">
        <ele>175.39999389648</ele>
        <time>2024-05-20T12:36:05.000Z</time>
      </trkpt>
      <trkpt lat="45.9839" lon="4.75301">
        <ele>175.39999389648</ele>
        <time>2024-05-20T12:36:06.000Z</time>
      </trkpt>
      <trkpt lat="45.98384" lon="4.75303">
        <ele>175.19999694824</ele>
        <time>2024-05-20T12:36:07.000Z</time>
      </trkpt>
      <trkpt lat="45.98378" lon="4.75304">
        <ele>175.19999694824</ele>
        <time>2024-05-20T12:36:08.000Z</time>
      </trkpt>
      <trkpt lat="45.98373" lon="4.75306">
        <ele>175.19999694824</ele>
        <time>2024-05-20T12:36:09.000Z</time>
      </trkpt>
      <trkpt lat="45.98367" lon="4.75308">
        <ele>175.39999389648</ele>
        <time>2024-05-20T12:36:10.000Z</time>
      </trkpt>
      <trkpt lat="45.98361" lon="4.75309">
        <ele>175.39999389648</ele>
        <time>2024-05-20T12:36:11.000Z</time>
      </trkpt>
      <trkpt lat="45.98355" lon="4.75311">
        <ele>175.19999694824</ele>
        <time>2024-05-20T12:36:12.000Z</time>
      </trkpt>
      <trkpt lat="45.98349" lon="4.75313">
        <ele>175.19999694824</ele>
        <time>2024-05-20T12:36:13.000Z</time>
      </trkpt>
      <trkpt lat="45.98343" lon="4.75314">
        <ele>175.19999694824</ele>
        <time>2024-05-20T12:36:14.000Z</time>
      </trkpt>
      <trkpt lat="45.98337" lon="4.75316">
        <ele>175.39999389648</ele>
        <time>2024-05-20T12:36:15.000Z</time>
      </trkpt>
      <trkpt lat="45.98331" lon="4.75317">
        <ele>175.39999389648</ele>
        <time>2024-05-20T12:36:16.000Z</time>
      </trkpt>
      <trkpt lat="45.98325" lon="4.75319">
        <ele>175.39999389648</ele>
        <time>2024-05-20T12:36:17.000Z</time>
      </trkpt>
      <trkpt lat="45.98319" lon="4.7532">
        <ele>175.19999694824</ele>
        <time>2024-05-20T12:36:18.000Z</time>
      </trkpt>
      <trkpt lat="45.98313" lon="4.75322">
        <ele>175.39999389648</ele>
        <time>2024-05-20T12:36:19.000Z</time>
      </trkpt>
      <trkpt lat="45.98307" lon="4.75324">
        <ele>175.39999389648</ele>
        <time>2024-05-20T12:36:20.000Z</time>
      </trkpt>
      <trkpt lat="45.98301" lon="4.75326">
        <ele>175.39999389648</ele>
        <time>2024-05-20T12:36:21.000Z</time>
      </trkpt>
      <trkpt lat="45.98295" lon="4.75327">
        <ele>175.19999694824</ele>
        <time>2024-05-20T12:36:22.000Z</time>
      </trkpt>
      <trkpt lat="45.98288" lon="4.75329">
        <ele>175.19999694824</ele>
        <time>2024-05-20T12:36:23.000Z</time>
      </trkpt>
      <trkpt lat="45.98282" lon="4.7533">
        <ele>175</ele>
        <time>2024-05-20T12:36:24.000Z</time>
      </trkpt>
      <trkpt lat="45.98276" lon="4.75331">
        <ele>175</ele>
        <time>2024-05-20T12:36:25.000Z</time>
      </trkpt>
      <trkpt lat="45.9827" lon="4.75331">
        <ele>175</ele>
        <time>2024-05-20T12:36:26.000Z</time>
      </trkpt>
      <trkpt lat="45.98264" lon="4.7533">
        <ele>175</ele>
        <time>2024-05-20T12:36:27.000Z</time>
      </trkpt>
      <trkpt lat="45.98258" lon="4.75328">
        <ele>175</ele>
        <time>2024-05-20T12:36:28.000Z</time>
      </trkpt>
      <trkpt lat="45.98252" lon="4.75326">
        <ele>175</ele>
        <time>2024-05-20T12:36:29.000Z</time>
      </trkpt>
      <trkpt lat="45.98246" lon="4.75324">
        <ele>175</ele>
        <time>2024-05-20T12:36:30.000Z</time>
      </trkpt>
      <trkpt lat="45.9824" lon="4.75322">
        <ele>175</ele>
        <time>2024-05-20T12:36:31.000Z</time>
      </trkpt>
      <trkpt lat="45.98234" lon="4.75319">
        <ele>175</ele>
        <time>2024-05-20T12:36:32.000Z</time>
      </trkpt>
      <trkpt lat="45.98228" lon="4.75318">
        <ele>174.80000305176</ele>
        <time>2024-05-20T12:36:33.000Z</time>
      </trkpt>
      <trkpt lat="45.98221" lon="4.75315">
        <ele>174.60000610352</ele>
        <time>2024-05-20T12:36:34.000Z</time>
      </trkpt>
      <trkpt lat="45.98215" lon="4.75313">
        <ele>174.39999389648</ele>
        <time>2024-05-20T12:36:35.000Z</time>
      </trkpt>
      <trkpt lat="45.9821" lon="4.75311">
        <ele>174.39999389648</ele>
        <time>2024-05-20T12:36:36.000Z</time>
      </trkpt>
      <trkpt lat="45.98204" lon="4.7531">
        <ele>174.39999389648</ele>
        <time>2024-05-20T12:36:37.000Z</time>
      </trkpt>
      <trkpt lat="45.98198" lon="4.7531">
        <ele>174.19999694824</ele>
        <time>2024-05-20T12:36:38.000Z</time>
      </trkpt>
      <trkpt lat="45.98193" lon="4.75311">
        <ele>174.19999694824</ele>
        <time>2024-05-20T12:36:39.000Z</time>
      </trkpt>
      <trkpt lat="45.98187" lon="4.75313">
        <ele>174.19999694824</ele>
        <time>2024-05-20T12:36:40.000Z</time>
      </trkpt>
      <trkpt lat="45.98181" lon="4.75315">
        <ele>174.19999694824</ele>
        <time>2024-05-20T12:36:41.000Z</time>
      </trkpt>
      <trkpt lat="45.98176" lon="4.75318">
        <ele>174.19999694824</ele>
        <time>2024-05-20T12:36:42.000Z</time>
      </trkpt>
      <trkpt lat="45.98171" lon="4.75321">
        <ele>174</ele>
        <time>2024-05-20T12:36:43.000Z</time>
      </trkpt>
      <trkpt lat="45.98165" lon="4.75324">
        <ele>174</ele>
        <time>2024-05-20T12:36:44.000Z</time>
      </trkpt>
      <trkpt lat="45.98159" lon="4.75328">
        <ele>174</ele>
        <time>2024-05-20T12:36:45.000Z</time>
      </trkpt>
      <trkpt lat="45.98154" lon="4.75331">
        <ele>174</ele>
        <time>2024-05-20T12:36:46.000Z</time>
      </trkpt>
      <trkpt lat="45.98149" lon="4.75334">
        <ele>174</ele>
        <time>2024-05-20T12:36:47.000Z</time>
      </trkpt>
      <trkpt lat="45.98144" lon="4.75336">
        <ele>174</ele>
        <time>2024-05-20T12:36:48.000Z</time>
      </trkpt>
      <trkpt lat="45.98139" lon="4.75336">
        <ele>173.80000305176</ele>
        <time>2024-05-20T12:36:49.000Z</time>
      </trkpt>
      <trkpt lat="45.98135" lon="4.75335">
        <ele>173.80000305176</ele>
        <time>2024-05-20T12:36:50.000Z</time>
      </trkpt>
      <trkpt lat="45.98132" lon="4.75334">
        <ele>173.60000610352</ele>
        <time>2024-05-20T12:36:51.000Z</time>
      </trkpt>
      <trkpt lat="45.9813" lon="4.75334">
        <ele>173.60000610352</ele>
        <time>2024-05-20T12:36:52.000Z</time>
      </trkpt>
      <trkpt lat="45.98127" lon="4.75333">
        <ele>173.60000610352</ele>
        <time>2024-05-20T12:36:53.000Z</time>
      </trkpt>
      <trkpt lat="45.98124" lon="4.75334">
        <ele>173.60000610352</ele>
        <time>2024-05-20T12:36:54.000Z</time>
      </trkpt>
      <trkpt lat="45.98121" lon="4.75335">
        <ele>173.60000610352</ele>
        <time>2024-05-20T12:36:55.000Z</time>
      </trkpt>
      <trkpt lat="45.98117" lon="4.75337">
        <ele>173.60000610352</ele>
        <time>2024-05-20T12:36:56.000Z</time>
      </trkpt>
      <trkpt lat="45.98112" lon="4.7534">
        <ele>173.39999389648</ele>
        <time>2024-05-20T12:36:57.000Z</time>
      </trkpt>
      <trkpt lat="45.98107" lon="4.75343">
        <ele>173.19999694824</ele>
        <time>2024-05-20T12:36:58.000Z</time>
      </trkpt>
      <trkpt lat="45.98102" lon="4.75346">
        <ele>173</ele>
        <time>2024-05-20T12:36:59.000Z</time>
      </trkpt>
      <trkpt lat="45.98096" lon="4.7535">
        <ele>173</ele>
        <time>2024-05-20T12:37:00.000Z</time>
      </trkpt>
      <trkpt lat="45.9809" lon="4.75353">
        <ele>173</ele>
        <time>2024-05-20T12:37:01.000Z</time>
      </trkpt>
      <trkpt lat="45.98084" lon="4.75357">
        <ele>172.80000305176</ele>
        <time>2024-05-20T12:37:02.000Z</time>
      </trkpt>
      <trkpt lat="45.98079" lon="4.7536">
        <ele>172.80000305176</ele>
        <time>2024-05-20T12:37:03.000Z</time>
      </trkpt>
      <trkpt lat="45.98073" lon="4.75363">
        <ele>172.80000305176</ele>
        <time>2024-05-20T12:37:04.000Z</time>
      </trkpt>
      <trkpt lat="45.98067" lon="4.75366">
        <ele>172.80000305176</ele>
        <time>2024-05-20T12:37:05.000Z</time>
      </trkpt>
      <trkpt lat="45.98061" lon="4.75369">
        <ele>173</ele>
        <time>2024-05-20T12:37:06.000Z</time>
      </trkpt>
      <trkpt lat="45.98055" lon="4.75372">
        <ele>173</ele>
        <time>2024-05-20T12:37:07.000Z</time>
      </trkpt>
      <trkpt lat="45.98048" lon="4.75375">
        <ele>172.80000305176</ele>
        <time>2024-05-20T12:37:08.000Z</time>
      </trkpt>
      <trkpt lat="45.98042" lon="4.75379">
        <ele>172.80000305176</ele>
        <time>2024-05-20T12:37:09.000Z</time>
      </trkpt>
      <trkpt lat="45.98035" lon="4.75383">
        <ele>172.80000305176</ele>
        <time>2024-05-20T12:37:10.000Z</time>
      </trkpt>
      <trkpt lat="45.98029" lon="4.75386">
        <ele>173</ele>
        <time>2024-05-20T12:37:11.000Z</time>
      </trkpt>
      <trkpt lat="45.98022" lon="4.7539">
        <ele>173</ele>
        <time>2024-05-20T12:37:12.000Z</time>
      </trkpt>
      <trkpt lat="45.98016" lon="4.75394">
        <ele>173</ele>
        <time>2024-05-20T12:37:13.000Z</time>
      </trkpt>
      <trkpt lat="45.98009" lon="4.75398">
        <ele>173</ele>
        <time>2024-05-20T12:37:14.000Z</time>
      </trkpt>
      <trkpt lat="45.98003" lon="4.75401">
        <ele>173</ele>
        <time>2024-05-20T12:37:15.000Z</time>
      </trkpt>
      <trkpt lat="45.97997" lon="4.75405">
        <ele>173</ele>
        <time>2024-05-20T12:37:16.000Z</time>
      </trkpt>
      <trkpt lat="45.97991" lon="4.75408">
        <ele>173</ele>
        <time>2024-05-20T12:37:17.000Z</time>
      </trkpt>
      <trkpt lat="45.97985" lon="4.75412">
        <ele>173</ele>
        <time>2024-05-20T12:37:18.000Z</time>
      </trkpt>
      <trkpt lat="45.97979" lon="4.75415">
        <ele>173</ele>
        <time>2024-05-20T12:37:19.000Z</time>
      </trkpt>
      <trkpt lat="45.97973" lon="4.75418">
        <ele>173</ele>
        <time>2024-05-20T12:37:20.000Z</time>
      </trkpt>
      <trkpt lat="45.97967" lon="4.75422">
        <ele>173</ele>
        <time>2024-05-20T12:37:21.000Z</time>
      </trkpt>
      <trkpt lat="45.97961" lon="4.75425">
        <ele>173</ele>
        <time>2024-05-20T12:37:22.000Z</time>
      </trkpt>
      <trkpt lat="45.97955" lon="4.75429">
        <ele>173</ele>
        <time>2024-05-20T12:37:23.000Z</time>
      </trkpt>
      <trkpt lat="45.97949" lon="4.75433">
        <ele>173</ele>
        <time>2024-05-20T12:37:24.000Z</time>
      </trkpt>
      <trkpt lat="45.97943" lon="4.75437">
        <ele>173</ele>
        <time>2024-05-20T12:37:25.000Z</time>
      </trkpt>
      <trkpt lat="45.97937" lon="4.7544">
        <ele>173</ele>
        <time>2024-05-20T12:37:26.000Z</time>
      </trkpt>
      <trkpt lat="45.97932" lon="4.75444">
        <ele>172.80000305176</ele>
        <time>2024-05-20T12:37:27.000Z</time>
      </trkpt>
      <trkpt lat="45.97926" lon="4.75447">
        <ele>172.80000305176</ele>
        <time>2024-05-20T12:37:28.000Z</time>
      </trkpt>
      <trkpt lat="45.97921" lon="4.75451">
        <ele>172.60000610352</ele>
        <time>2024-05-20T12:37:29.000Z</time>
      </trkpt>
      <trkpt lat="45.97915" lon="4.75454">
        <ele>172.60000610352</ele>
        <time>2024-05-20T12:37:30.000Z</time>
      </trkpt>
      <trkpt lat="45.9791" lon="4.75457">
        <ele>172.60000610352</ele>
        <time>2024-05-20T12:37:31.000Z</time>
      </trkpt>
      <trkpt lat="45.97904" lon="4.75461">
        <ele>172.60000610352</ele>
        <time>2024-05-20T12:37:32.000Z</time>
      </trkpt>
      <trkpt lat="45.97899" lon="4.75464">
        <ele>172.60000610352</ele>
        <time>2024-05-20T12:37:33.000Z</time>
      </trkpt>
      <trkpt lat="45.97893" lon="4.75468">
        <ele>172.80000305176</ele>
        <time>2024-05-20T12:37:34.000Z</time>
      </trkpt>
      <trkpt lat="45.97888" lon="4.75471">
        <ele>172.80000305176</ele>
        <time>2024-05-20T12:37:35.000Z</time>
      </trkpt>
      <trkpt lat="45.97883" lon="4.75475">
        <ele>172.80000305176</ele>
        <time>2024-05-20T12:37:36.000Z</time>
      </trkpt>
      <trkpt lat="45.97877" lon="4.75478">
        <ele>172.80000305176</ele>
        <time>2024-05-20T12:37:37.000Z</time>
      </trkpt>
      <trkpt lat="45.97872" lon="4.75481">
        <ele>172.80000305176</ele>
        <time>2024-05-20T12:37:38.000Z</time>
      </trkpt>
      <trkpt lat="45.97866" lon="4.75484">
        <ele>172.80000305176</ele>
        <time>2024-05-20T12:37:39.000Z</time>
      </trkpt>
      <trkpt lat="45.97859" lon="4.75489">
        <ele>172.80000305176</ele>
        <time>2024-05-20T12:37:40.000Z</time>
      </trkpt>
      <trkpt lat="45.97852" lon="4.75493">
        <ele>172.80000305176</ele>
        <time>2024-05-20T12:37:41.000Z</time>
      </trkpt>
      <trkpt lat="45.97846" lon="4.75497">
        <ele>172.60000610352</ele>
        <time>2024-05-20T12:37:42.000Z</time>
      </trkpt>
      <trkpt lat="45.9784" lon="4.755">
        <ele>172.60000610352</ele>
        <time>2024-05-20T12:37:43.000Z</time>
      </trkpt>
      <trkpt lat="45.97835" lon="4.75504">
        <ele>172.39999389648</ele>
        <time>2024-05-20T12:37:44.000Z</time>
      </trkpt>
      <trkpt lat="45.97829" lon="4.75508">
        <ele>172.39999389648</ele>
        <time>2024-05-20T12:37:45.000Z</time>
      </trkpt>
      <trkpt lat="45.97823" lon="4.75512">
        <ele>172.39999389648</ele>
        <time>2024-05-20T12:37:46.000Z</time>
      </trkpt>
      <trkpt lat="45.97817" lon="4.75515">
        <ele>172.19999694824</ele>
        <time>2024-05-20T12:37:47.000Z</time>
      </trkpt>
      <trkpt lat="45.97811" lon="4.75518">
        <ele>172</ele>
        <time>2024-05-20T12:37:48.000Z</time>
      </trkpt>
      <trkpt lat="45.97805" lon="4.75522">
        <ele>172</ele>
        <time>2024-05-20T12:37:49.000Z</time>
      </trkpt>
      <trkpt lat="45.97799" lon="4.75525">
        <ele>172</ele>
        <time>2024-05-20T12:37:50.000Z</time>
      </trkpt>
      <trkpt lat="45.97792" lon="4.75529">
        <ele>172</ele>
        <time>2024-05-20T12:37:51.000Z</time>
      </trkpt>
      <trkpt lat="45.97787" lon="4.75533">
        <ele>172</ele>
        <time>2024-05-20T12:37:52.000Z</time>
      </trkpt>
      <trkpt lat="45.97781" lon="4.75536">
        <ele>172</ele>
        <time>2024-05-20T12:37:53.000Z</time>
      </trkpt>
      <trkpt lat="45.97774" lon="4.7554">
        <ele>172</ele>
        <time>2024-05-20T12:37:54.000Z</time>
      </trkpt>
      <trkpt lat="45.97769" lon="4.75544">
        <ele>172</ele>
        <time>2024-05-20T12:37:55.000Z</time>
      </trkpt>
      <trkpt lat="45.97763" lon="4.75547">
        <ele>172</ele>
        <time>2024-05-20T12:37:56.000Z</time>
      </trkpt>
      <trkpt lat="45.97756" lon="4.75552">
        <ele>172</ele>
        <time>2024-05-20T12:37:57.000Z</time>
      </trkpt>
      <trkpt lat="45.97751" lon="4.75556">
        <ele>172</ele>
        <time>2024-05-20T12:37:58.000Z</time>
      </trkpt>
      <trkpt lat="45.97744" lon="4.75559">
        <ele>172</ele>
        <time>2024-05-20T12:37:59.000Z</time>
      </trkpt>
      <trkpt lat="45.97737" lon="4.75562">
        <ele>172</ele>
        <time>2024-05-20T12:38:00.000Z</time>
      </trkpt>
      <trkpt lat="45.97731" lon="4.75565">
        <ele>172</ele>
        <time>2024-05-20T12:38:01.000Z</time>
      </trkpt>
      <trkpt lat="45.97726" lon="4.75568">
        <ele>172</ele>
        <time>2024-05-20T12:38:02.000Z</time>
      </trkpt>
      <trkpt lat="45.9772" lon="4.7557">
        <ele>172</ele>
        <time>2024-05-20T12:38:03.000Z</time>
      </trkpt>
      <trkpt lat="45.97714" lon="4.75573">
        <ele>172</ele>
        <time>2024-05-20T12:38:04.000Z</time>
      </trkpt>
      <trkpt lat="45.97708" lon="4.75576">
        <ele>172</ele>
        <time>2024-05-20T12:38:05.000Z</time>
      </trkpt>
      <trkpt lat="45.97702" lon="4.75579">
        <ele>172</ele>
        <time>2024-05-20T12:38:06.000Z</time>
      </trkpt>
      <trkpt lat="45.97696" lon="4.75581">
        <ele>172</ele>
        <time>2024-05-20T12:38:07.000Z</time>
      </trkpt>
      <trkpt lat="45.9769" lon="4.75583">
        <ele>172</ele>
        <time>2024-05-20T12:38:08.000Z</time>
      </trkpt>
      <trkpt lat="45.97684" lon="4.75586">
        <ele>172</ele>
        <time>2024-05-20T12:38:09.000Z</time>
      </trkpt>
      <trkpt lat="45.97677" lon="4.75588">
        <ele>172</ele>
        <time>2024-05-20T12:38:10.000Z</time>
      </trkpt>
      <trkpt lat="45.97671" lon="4.7559">
        <ele>172</ele>
        <time>2024-05-20T12:38:11.000Z</time>
      </trkpt>
      <trkpt lat="45.97665" lon="4.75593">
        <ele>172</ele>
        <time>2024-05-20T12:38:12.000Z</time>
      </trkpt>
      <trkpt lat="45.97659" lon="4.75595">
        <ele>172</ele>
        <time>2024-05-20T12:38:13.000Z</time>
      </trkpt>
      <trkpt lat="45.97654" lon="4.75597">
        <ele>171.60000610352</ele>
        <time>2024-05-20T12:38:14.000Z</time>
      </trkpt>
      <trkpt lat="45.97649" lon="4.756">
        <ele>171.39999389648</ele>
        <time>2024-05-20T12:38:15.000Z</time>
      </trkpt>
      <trkpt lat="45.97643" lon="4.75602">
        <ele>171.19999694824</ele>
        <time>2024-05-20T12:38:16.000Z</time>
      </trkpt>
      <trkpt lat="45.97637" lon="4.75604">
        <ele>171</ele>
        <time>2024-05-20T12:38:17.000Z</time>
      </trkpt>
      <trkpt lat="45.97631" lon="4.75606">
        <ele>171</ele>
        <time>2024-05-20T12:38:18.000Z</time>
      </trkpt>
      <trkpt lat="45.97625" lon="4.75608">
        <ele>171</ele>
        <time>2024-05-20T12:38:19.000Z</time>
      </trkpt>
      <trkpt lat="45.97618" lon="4.75611">
        <ele>171</ele>
        <time>2024-05-20T12:38:20.000Z</time>
      </trkpt>
      <trkpt lat="45.97612" lon="4.75614">
        <ele>170.80000305176</ele>
        <time>2024-05-20T12:38:21.000Z</time>
      </trkpt>
      <trkpt lat="45.97606" lon="4.75618">
        <ele>170.80000305176</ele>
        <time>2024-05-20T12:38:22.000Z</time>
      </trkpt>
      <trkpt lat="45.97601" lon="4.7562">
        <ele>170.80000305176</ele>
        <time>2024-05-20T12:38:23.000Z</time>
      </trkpt>
      <trkpt lat="45.97595" lon="4.75623">
        <ele>170.80000305176</ele>
        <time>2024-05-20T12:38:24.000Z</time>
      </trkpt>
      <trkpt lat="45.9759" lon="4.75625">
        <ele>170.80000305176</ele>
        <time>2024-05-20T12:38:25.000Z</time>
      </trkpt>
      <trkpt lat="45.97586" lon="4.75627">
        <ele>170.80000305176</ele>
        <time>2024-05-20T12:38:26.000Z</time>
      </trkpt>
      <trkpt lat="45.97581" lon="4.7563">
        <ele>171.19999694824</ele>
        <time>2024-05-20T12:38:27.000Z</time>
      </trkpt>
      <trkpt lat="45.97578" lon="4.75632">
        <ele>171.60000610352</ele>
        <time>2024-05-20T12:38:28.000Z</time>
      </trkpt>
      <trkpt lat="45.97574" lon="4.75635">
        <ele>172</ele>
        <time>2024-05-20T12:38:29.000Z</time>
      </trkpt>
      <trkpt lat="45.9757" lon="4.75637">
        <ele>172</ele>
        <time>2024-05-20T12:38:30.000Z</time>
      </trkpt>
      <trkpt lat="45.97567" lon="4.75638">
        <ele>172.39999389648</ele>
        <time>2024-05-20T12:38:31.000Z</time>
      </trkpt>
      <trkpt lat="45.97563" lon="4.75639">
        <ele>172.39999389648</ele>
        <time>2024-05-20T12:38:32.000Z</time>
      </trkpt>
      <trkpt lat="45.97559" lon="4.75641">
        <ele>172.60000610352</ele>
        <time>2024-05-20T12:38:33.000Z</time>
      </trkpt>
      <trkpt lat="45.97554" lon="4.75642">
        <ele>172.80000305176</ele>
        <time>2024-05-20T12:38:34.000Z</time>
      </trkpt>
      <trkpt lat="45.97549" lon="4.75642">
        <ele>172.80000305176</ele>
        <time>2024-05-20T12:38:35.000Z</time>
      </trkpt>
      <trkpt lat="45.97544" lon="4.75643">
        <ele>172.80000305176</ele>
        <time>2024-05-20T12:38:36.000Z</time>
      </trkpt>
      <trkpt lat="45.97538" lon="4.75643">
        <ele>172.80000305176</ele>
        <time>2024-05-20T12:38:37.000Z</time>
      </trkpt>
      <trkpt lat="45.97533" lon="4.75644">
        <ele>172.80000305176</ele>
        <time>2024-05-20T12:38:38.000Z</time>
      </trkpt>
      <trkpt lat="45.97527" lon="4.75646">
        <ele>172.80000305176</ele>
        <time>2024-05-20T12:38:39.000Z</time>
      </trkpt>
      <trkpt lat="45.97522" lon="4.75648">
        <ele>172.80000305176</ele>
        <time>2024-05-20T12:38:40.000Z</time>
      </trkpt>
      <trkpt lat="45.97517" lon="4.75651">
        <ele>172.80000305176</ele>
        <time>2024-05-20T12:38:41.000Z</time>
      </trkpt>
      <trkpt lat="45.97512" lon="4.75653">
        <ele>172.80000305176</ele>
        <time>2024-05-20T12:38:42.000Z</time>
      </trkpt>
      <trkpt lat="45.97506" lon="4.75655">
        <ele>172.80000305176</ele>
        <time>2024-05-20T12:38:43.000Z</time>
      </trkpt>
      <trkpt lat="45.97501" lon="4.75657">
        <ele>173</ele>
        <time>2024-05-20T12:38:44.000Z</time>
      </trkpt>
      <trkpt lat="45.97496" lon="4.75658">
        <ele>173</ele>
        <time>2024-05-20T12:38:45.000Z</time>
      </trkpt>
      <trkpt lat="45.9749" lon="4.7566">
        <ele>173</ele>
        <time>2024-05-20T12:38:46.000Z</time>
      </trkpt>
      <trkpt lat="45.97485" lon="4.75661">
        <ele>173</ele>
        <time>2024-05-20T12:38:47.000Z</time>
      </trkpt>
      <trkpt lat="45.97479" lon="4.75662">
        <ele>173</ele>
        <time>2024-05-20T12:38:48.000Z</time>
      </trkpt>
      <trkpt lat="45.97473" lon="4.75663">
        <ele>173</ele>
        <time>2024-05-20T12:38:49.000Z</time>
      </trkpt>
      <trkpt lat="45.97468" lon="4.75663">
        <ele>172.80000305176</ele>
        <time>2024-05-20T12:38:50.000Z</time>
      </trkpt>
      <trkpt lat="45.97462" lon="4.75664">
        <ele>172.80000305176</ele>
        <time>2024-05-20T12:38:51.000Z</time>
      </trkpt>
      <trkpt lat="45.97457" lon="4.75664">
        <ele>172.80000305176</ele>
        <time>2024-05-20T12:38:52.000Z</time>
      </trkpt>
      <trkpt lat="45.97451" lon="4.75665">
        <ele>172.80000305176</ele>
        <time>2024-05-20T12:38:53.000Z</time>
      </trkpt>
      <trkpt lat="45.97446" lon="4.75665">
        <ele>172.80000305176</ele>
        <time>2024-05-20T12:38:54.000Z</time>
      </trkpt>
      <trkpt lat="45.9744" lon="4.75666">
        <ele>173.19999694824</ele>
        <time>2024-05-20T12:38:55.000Z</time>
      </trkpt>
      <trkpt lat="45.97434" lon="4.75666">
        <ele>173.19999694824</ele>
        <time>2024-05-20T12:38:56.000Z</time>
      </trkpt>
      <trkpt lat="45.97429" lon="4.75667">
        <ele>173.39999389648</ele>
        <time>2024-05-20T12:38:57.000Z</time>
      </trkpt>
      <trkpt lat="45.97423" lon="4.75667">
        <ele>173.39999389648</ele>
        <time>2024-05-20T12:38:58.000Z</time>
      </trkpt>
      <trkpt lat="45.97417" lon="4.75667">
        <ele>173.39999389648</ele>
        <time>2024-05-20T12:38:59.000Z</time>
      </trkpt>
      <trkpt lat="45.97411" lon="4.75667">
        <ele>173.39999389648</ele>
        <time>2024-05-20T12:39:00.000Z</time>
      </trkpt>
      <trkpt lat="45.97405" lon="4.75667">
        <ele>173.39999389648</ele>
        <time>2024-05-20T12:39:01.000Z</time>
      </trkpt>
      <trkpt lat="45.97399" lon="4.75668">
        <ele>173.39999389648</ele>
        <time>2024-05-20T12:39:02.000Z</time>
      </trkpt>
      <trkpt lat="45.97394" lon="4.75668">
        <ele>173.39999389648</ele>
        <time>2024-05-20T12:39:03.000Z</time>
      </trkpt>
      <trkpt lat="45.97388" lon="4.75669">
        <ele>173.39999389648</ele>
        <time>2024-05-20T12:39:04.000Z</time>
      </trkpt>
      <trkpt lat="45.97382" lon="4.75669">
        <ele>173.39999389648</ele>
        <time>2024-05-20T12:39:05.000Z</time>
      </trkpt>
      <trkpt lat="45.97376" lon="4.7567">
        <ele>173.39999389648</ele>
        <time>2024-05-20T12:39:06.000Z</time>
      </trkpt>
      <trkpt lat="45.9737" lon="4.7567">
        <ele>173.39999389648</ele>
        <time>2024-05-20T12:39:07.000Z</time>
      </trkpt>
      <trkpt lat="45.97365" lon="4.7567">
        <ele>173.19999694824</ele>
        <time>2024-05-20T12:39:08.000Z</time>
      </trkpt>
      <trkpt lat="45.97359" lon="4.7567">
        <ele>173.19999694824</ele>
        <time>2024-05-20T12:39:09.000Z</time>
      </trkpt>
      <trkpt lat="45.97353" lon="4.7567">
        <ele>173.19999694824</ele>
        <time>2024-05-20T12:39:10.000Z</time>
      </trkpt>
      <trkpt lat="45.97347" lon="4.7567">
        <ele>173.19999694824</ele>
        <time>2024-05-20T12:39:11.000Z</time>
      </trkpt>
      <trkpt lat="45.97341" lon="4.75669">
        <ele>173</ele>
        <time>2024-05-20T12:39:12.000Z</time>
      </trkpt>
      <trkpt lat="45.97334" lon="4.75669">
        <ele>173</ele>
        <time>2024-05-20T12:39:13.000Z</time>
      </trkpt>
      <trkpt lat="45.97328" lon="4.75668">
        <ele>173</ele>
        <time>2024-05-20T12:39:14.000Z</time>
      </trkpt>
      <trkpt lat="45.97322" lon="4.75667">
        <ele>173</ele>
        <time>2024-05-20T12:39:15.000Z</time>
      </trkpt>
      <trkpt lat="45.97315" lon="4.75666">
        <ele>172.80000305176</ele>
        <time>2024-05-20T12:39:16.000Z</time>
      </trkpt>
      <trkpt lat="45.97309" lon="4.75665">
        <ele>172.80000305176</ele>
        <time>2024-05-20T12:39:17.000Z</time>
      </trkpt>
      <trkpt lat="45.97303" lon="4.75664">
        <ele>172.80000305176</ele>
        <time>2024-05-20T12:39:18.000Z</time>
      </trkpt>
      <trkpt lat="45.97297" lon="4.75662">
        <ele>172.80000305176</ele>
        <time>2024-05-20T12:39:19.000Z</time>
      </trkpt>
      <trkpt lat="45.97291" lon="4.75661">
        <ele>172.80000305176</ele>
        <time>2024-05-20T12:39:20.000Z</time>
      </trkpt>
      <trkpt lat="45.97285" lon="4.75659">
        <ele>172.80000305176</ele>
        <time>2024-05-20T12:39:21.000Z</time>
      </trkpt>
      <trkpt lat="45.97279" lon="4.75658">
        <ele>172.80000305176</ele>
        <time>2024-05-20T12:39:22.000Z</time>
      </trkpt>
      <trkpt lat="45.97273" lon="4.75656">
        <ele>172.80000305176</ele>
        <time>2024-05-20T12:39:23.000Z</time>
      </trkpt>
      <trkpt lat="45.97267" lon="4.75654">
        <ele>172.80000305176</ele>
        <time>2024-05-20T12:39:24.000Z</time>
      </trkpt>
      <trkpt lat="45.97261" lon="4.75653">
        <ele>172.80000305176</ele>
        <time>2024-05-20T12:39:25.000Z</time>
      </trkpt>
      <trkpt lat="45.97255" lon="4.75651">
        <ele>172.80000305176</ele>
        <time>2024-05-20T12:39:26.000Z</time>
      </trkpt>
      <trkpt lat="45.97249" lon="4.7565">
        <ele>172.80000305176</ele>
        <time>2024-05-20T12:39:27.000Z</time>
      </trkpt>
      <trkpt lat="45.97243" lon="4.75648">
        <ele>173</ele>
        <time>2024-05-20T12:39:28.000Z</time>
      </trkpt>
      <trkpt lat="45.97237" lon="4.75647">
        <ele>172.80000305176</ele>
        <time>2024-05-20T12:39:29.000Z</time>
      </trkpt>
      <trkpt lat="45.97231" lon="4.75645">
        <ele>172.80000305176</ele>
        <time>2024-05-20T12:39:30.000Z</time>
      </trkpt>
      <trkpt lat="45.97225" lon="4.75643">
        <ele>172.80000305176</ele>
        <time>2024-05-20T12:39:31.000Z</time>
      </trkpt>
      <trkpt lat="45.97219" lon="4.75642">
        <ele>172.80000305176</ele>
        <time>2024-05-20T12:39:32.000Z</time>
      </trkpt>
      <trkpt lat="45.97213" lon="4.7564">
        <ele>172.80000305176</ele>
        <time>2024-05-20T12:39:33.000Z</time>
      </trkpt>
      <trkpt lat="45.97207" lon="4.75638">
        <ele>172.80000305176</ele>
        <time>2024-05-20T12:39:34.000Z</time>
      </trkpt>
      <trkpt lat="45.97201" lon="4.75636">
        <ele>172.80000305176</ele>
        <time>2024-05-20T12:39:35.000Z</time>
      </trkpt>
      <trkpt lat="45.97196" lon="4.75633">
        <ele>172.80000305176</ele>
        <time>2024-05-20T12:39:36.000Z</time>
      </trkpt>
      <trkpt lat="45.9719" lon="4.75631">
        <ele>172.80000305176</ele>
        <time>2024-05-20T12:39:37.000Z</time>
      </trkpt>
      <trkpt lat="45.97185" lon="4.75628">
        <ele>172.80000305176</ele>
        <time>2024-05-20T12:39:38.000Z</time>
      </trkpt>
      <trkpt lat="45.97179" lon="4.75626">
        <ele>172.80000305176</ele>
        <time>2024-05-20T12:39:39.000Z</time>
      </trkpt>
      <trkpt lat="45.97173" lon="4.75624">
        <ele>173</ele>
        <time>2024-05-20T12:39:40.000Z</time>
      </trkpt>
      <trkpt lat="45.97167" lon="4.75621">
        <ele>173</ele>
        <time>2024-05-20T12:39:41.000Z</time>
      </trkpt>
      <trkpt lat="45.97162" lon="4.75619">
        <ele>173</ele>
        <time>2024-05-20T12:39:42.000Z</time>
      </trkpt>
      <trkpt lat="45.97156" lon="4.75616">
        <ele>173</ele>
        <time>2024-05-20T12:39:43.000Z</time>
      </trkpt>
      <trkpt lat="45.9715" lon="4.75613">
        <ele>173</ele>
        <time>2024-05-20T12:39:44.000Z</time>
      </trkpt>
      <trkpt lat="45.97145" lon="4.7561">
        <ele>173</ele>
        <time>2024-05-20T12:39:45.000Z</time>
      </trkpt>
      <trkpt lat="45.97139" lon="4.75607">
        <ele>173.19999694824</ele>
        <time>2024-05-20T12:39:46.000Z</time>
      </trkpt>
      <trkpt lat="45.97134" lon="4.75603">
        <ele>173.19999694824</ele>
        <time>2024-05-20T12:39:47.000Z</time>
      </trkpt>
      <trkpt lat="45.97128" lon="4.75599">
        <ele>173</ele>
        <time>2024-05-20T12:39:48.000Z</time>
      </trkpt>
      <trkpt lat="45.97123" lon="4.75595">
        <ele>173</ele>
        <time>2024-05-20T12:39:49.000Z</time>
      </trkpt>
      <trkpt lat="45.97117" lon="4.75591">
        <ele>173</ele>
        <time>2024-05-20T12:39:50.000Z</time>
      </trkpt>
      <trkpt lat="45.97112" lon="4.75587">
        <ele>173</ele>
        <time>2024-05-20T12:39:51.000Z</time>
      </trkpt>
      <trkpt lat="45.97106" lon="4.75583">
        <ele>172.80000305176</ele>
        <time>2024-05-20T12:39:52.000Z</time>
      </trkpt>
      <trkpt lat="45.97101" lon="4.75578">
        <ele>172.80000305176</ele>
        <time>2024-05-20T12:39:53.000Z</time>
      </trkpt>
      <trkpt lat="45.97095" lon="4.75574">
        <ele>172.60000610352</ele>
        <time>2024-05-20T12:39:54.000Z</time>
      </trkpt>
      <trkpt lat="45.97089" lon="4.7557">
        <ele>172.39999389648</ele>
        <time>2024-05-20T12:39:55.000Z</time>
      </trkpt>
      <trkpt lat="45.97084" lon="4.75566">
        <ele>172.19999694824</ele>
        <time>2024-05-20T12:39:56.000Z</time>
      </trkpt>
      <trkpt lat="45.97078" lon="4.75564">
        <ele>172.19999694824</ele>
        <time>2024-05-20T12:39:57.000Z</time>
      </trkpt>
      <trkpt lat="45.97072" lon="4.75562">
        <ele>172.19999694824</ele>
        <time>2024-05-20T12:39:58.000Z</time>
      </trkpt>
      <trkpt lat="45.97066" lon="4.75561">
        <ele>172.19999694824</ele>
        <time>2024-05-20T12:39:59.000Z</time>
      </trkpt>
      <trkpt lat="45.97059" lon="4.7556">
        <ele>172.39999389648</ele>
        <time>2024-05-20T12:40:00.000Z</time>
      </trkpt>
      <trkpt lat="45.97053" lon="4.75559">
        <ele>172.60000610352</ele>
        <time>2024-05-20T12:40:01.000Z</time>
      </trkpt>
      <trkpt lat="45.97047" lon="4.75558">
        <ele>172.60000610352</ele>
        <time>2024-05-20T12:40:02.000Z</time>
      </trkpt>
      <trkpt lat="45.97042" lon="4.75556">
        <ele>172.60000610352</ele>
        <time>2024-05-20T12:40:03.000Z</time>
      </trkpt>
      <trkpt lat="45.97036" lon="4.75554">
        <ele>172.60000610352</ele>
        <time>2024-05-20T12:40:04.000Z</time>
      </trkpt>
      <trkpt lat="45.9703" lon="4.75551">
        <ele>172.60000610352</ele>
        <time>2024-05-20T12:40:05.000Z</time>
      </trkpt>
      <trkpt lat="45.97024" lon="4.75546">
        <ele>172.39999389648</ele>
        <time>2024-05-20T12:40:06.000Z</time>
      </trkpt>
      <trkpt lat="45.97018" lon="4.75541">
        <ele>172.19999694824</ele>
        <time>2024-05-20T12:40:07.000Z</time>
      </trkpt>
      <trkpt lat="45.97011" lon="4.75538">
        <ele>171.60000610352</ele>
        <time>2024-05-20T12:40:08.000Z</time>
      </trkpt>
      <trkpt lat="45.97003" lon="4.75536">
        <ele>170.60000610352</ele>
        <time>2024-05-20T12:40:09.000Z</time>
      </trkpt>
      <trkpt lat="45.96996" lon="4.75534">
        <ele>170.60000610352</ele>
        <time>2024-05-20T12:40:10.000Z</time>
      </trkpt>
      <trkpt lat="45.96989" lon="4.75532">
        <ele>170.60000610352</ele>
        <time>2024-05-20T12:40:11.000Z</time>
      </trkpt>
      <trkpt lat="45.96983" lon="4.75531">
        <ele>170.60000610352</ele>
        <time>2024-05-20T12:40:12.000Z</time>
      </trkpt>
      <trkpt lat="45.96977" lon="4.75529">
        <ele>170.60000610352</ele>
        <time>2024-05-20T12:40:13.000Z</time>
      </trkpt>
      <trkpt lat="45.9697" lon="4.75527">
        <ele>170.60000610352</ele>
        <time>2024-05-20T12:40:14.000Z</time>
      </trkpt>
      <trkpt lat="45.96964" lon="4.75525">
        <ele>170.60000610352</ele>
        <time>2024-05-20T12:40:15.000Z</time>
      </trkpt>
      <trkpt lat="45.96958" lon="4.75522">
        <ele>170.60000610352</ele>
        <time>2024-05-20T12:40:16.000Z</time>
      </trkpt>
      <trkpt lat="45.96951" lon="4.7552">
        <ele>170.80000305176</ele>
        <time>2024-05-20T12:40:17.000Z</time>
      </trkpt>
      <trkpt lat="45.96945" lon="4.75517">
        <ele>170.80000305176</ele>
        <time>2024-05-20T12:40:18.000Z</time>
      </trkpt>
      <trkpt lat="45.96939" lon="4.75515">
        <ele>171</ele>
        <time>2024-05-20T12:40:19.000Z</time>
      </trkpt>
      <trkpt lat="45.96932" lon="4.75513">
        <ele>171.19999694824</ele>
        <time>2024-05-20T12:40:20.000Z</time>
      </trkpt>
      <trkpt lat="45.96926" lon="4.7551">
        <ele>171.19999694824</ele>
        <time>2024-05-20T12:40:21.000Z</time>
      </trkpt>
      <trkpt lat="45.96919" lon="4.75508">
        <ele>171.19999694824</ele>
        <time>2024-05-20T12:40:22.000Z</time>
      </trkpt>
      <trkpt lat="45.96912" lon="4.75506">
        <ele>171.19999694824</ele>
        <time>2024-05-20T12:40:23.000Z</time>
      </trkpt>
      <trkpt lat="45.96905" lon="4.75503">
        <ele>171</ele>
        <time>2024-05-20T12:40:24.000Z</time>
      </trkpt>
      <trkpt lat="45.96897" lon="4.755">
        <ele>170.80000305176</ele>
        <time>2024-05-20T12:40:25.000Z</time>
      </trkpt>
      <trkpt lat="45.96891" lon="4.75498">
        <ele>170.80000305176</ele>
        <time>2024-05-20T12:40:26.000Z</time>
      </trkpt>
      <trkpt lat="45.96884" lon="4.75495">
        <ele>170.80000305176</ele>
        <time>2024-05-20T12:40:27.000Z</time>
      </trkpt>
      <trkpt lat="45.96877" lon="4.75492">
        <ele>170.80000305176</ele>
        <time>2024-05-20T12:40:28.000Z</time>
      </trkpt>
      <trkpt lat="45.96871" lon="4.7549">
        <ele>170.80000305176</ele>
        <time>2024-05-20T12:40:29.000Z</time>
      </trkpt>
      <trkpt lat="45.96865" lon="4.75487">
        <ele>170.80000305176</ele>
        <time>2024-05-20T12:40:30.000Z</time>
      </trkpt>
      <trkpt lat="45.96858" lon="4.75484">
        <ele>170.80000305176</ele>
        <time>2024-05-20T12:40:31.000Z</time>
      </trkpt>
      <trkpt lat="45.96852" lon="4.75482">
        <ele>171</ele>
        <time>2024-05-20T12:40:32.000Z</time>
      </trkpt>
      <trkpt lat="45.96846" lon="4.7548">
        <ele>170.80000305176</ele>
        <time>2024-05-20T12:40:33.000Z</time>
      </trkpt>
      <trkpt lat="45.96839" lon="4.75477">
        <ele>170.80000305176</ele>
        <time>2024-05-20T12:40:34.000Z</time>
      </trkpt>
      <trkpt lat="45.96833" lon="4.75475">
        <ele>170.80000305176</ele>
        <time>2024-05-20T12:40:35.000Z</time>
      </trkpt>
      <trkpt lat="45.96827" lon="4.75472">
        <ele>170.80000305176</ele>
        <time>2024-05-20T12:40:36.000Z</time>
      </trkpt>
      <trkpt lat="45.9682" lon="4.7547">
        <ele>170.80000305176</ele>
        <time>2024-05-20T12:40:37.000Z</time>
      </trkpt>
      <trkpt lat="45.96814" lon="4.75467">
        <ele>170.80000305176</ele>
        <time>2024-05-20T12:40:38.000Z</time>
      </trkpt>
      <trkpt lat="45.96808" lon="4.75464">
        <ele>170.80000305176</ele>
        <time>2024-05-20T12:40:39.000Z</time>
      </trkpt>
      <trkpt lat="45.96802" lon="4.75461">
        <ele>170.80000305176</ele>
        <time>2024-05-20T12:40:40.000Z</time>
      </trkpt>
      <trkpt lat="45.96796" lon="4.75458">
        <ele>171</ele>
        <time>2024-05-20T12:40:41.000Z</time>
      </trkpt>
      <trkpt lat="45.9679" lon="4.75456">
        <ele>171</ele>
        <time>2024-05-20T12:40:42.000Z</time>
      </trkpt>
      <trkpt lat="45.96783" lon="4.75453">
        <ele>171</ele>
        <time>2024-05-20T12:40:43.000Z</time>
      </trkpt>
      <trkpt lat="45.96777" lon="4.7545">
        <ele>171</ele>
        <time>2024-05-20T12:40:44.000Z</time>
      </trkpt>
      <trkpt lat="45.96771" lon="4.75448">
        <ele>170.80000305176</ele>
        <time>2024-05-20T12:40:45.000Z</time>
      </trkpt>
      <trkpt lat="45.96765" lon="4.75444">
        <ele>170.80000305176</ele>
        <time>2024-05-20T12:40:46.000Z</time>
      </trkpt>
      <trkpt lat="45.96759" lon="4.75441">
        <ele>170.80000305176</ele>
        <time>2024-05-20T12:40:47.000Z</time>
      </trkpt>
      <trkpt lat="45.96753" lon="4.75438">
        <ele>170.80000305176</ele>
        <time>2024-05-20T12:40:48.000Z</time>
      </trkpt>
      <trkpt lat="45.96748" lon="4.75434">
        <ele>171.19999694824</ele>
        <time>2024-05-20T12:40:49.000Z</time>
      </trkpt>
      <trkpt lat="45.96741" lon="4.75431">
        <ele>171.19999694824</ele>
        <time>2024-05-20T12:40:50.000Z</time>
      </trkpt>
      <trkpt lat="45.96736" lon="4.75428">
        <ele>171.39999389648</ele>
        <time>2024-05-20T12:40:51.000Z</time>
      </trkpt>
      <trkpt lat="45.9673" lon="4.75425">
        <ele>171.80000305176</ele>
        <time>2024-05-20T12:40:52.000Z</time>
      </trkpt>
      <trkpt lat="45.96724" lon="4.75421">
        <ele>171.80000305176</ele>
        <time>2024-05-20T12:40:53.000Z</time>
      </trkpt>
      <trkpt lat="45.96718" lon="4.75417">
        <ele>172</ele>
        <time>2024-05-20T12:40:54.000Z</time>
      </trkpt>
      <trkpt lat="45.96713" lon="4.75414">
        <ele>172</ele>
        <time>2024-05-20T12:40:55.000Z</time>
      </trkpt>
      <trkpt lat="45.96707" lon="4.75409">
        <ele>172</ele>
        <time>2024-05-20T12:40:56.000Z</time>
      </trkpt>
      <trkpt lat="45.96702" lon="4.75405">
        <ele>172</ele>
        <time>2024-05-20T12:40:57.000Z</time>
      </trkpt>
      <trkpt lat="45.96696" lon="4.75401">
        <ele>172</ele>
        <time>2024-05-20T12:40:58.000Z</time>
      </trkpt>
      <trkpt lat="45.9669" lon="4.75397">
        <ele>171.80000305176</ele>
        <time>2024-05-20T12:40:59.000Z</time>
      </trkpt>
      <trkpt lat="45.96685" lon="4.75392">
        <ele>171.60000610352</ele>
        <time>2024-05-20T12:41:00.000Z</time>
      </trkpt>
      <trkpt lat="45.96679" lon="4.75388">
        <ele>171.60000610352</ele>
        <time>2024-05-20T12:41:01.000Z</time>
      </trkpt>
      <trkpt lat="45.96673" lon="4.75383">
        <ele>171.60000610352</ele>
        <time>2024-05-20T12:41:02.000Z</time>
      </trkpt>
      <trkpt lat="45.96668" lon="4.75379">
        <ele>171.60000610352</ele>
        <time>2024-05-20T12:41:03.000Z</time>
      </trkpt>
      <trkpt lat="45.96662" lon="4.75375">
        <ele>171.60000610352</ele>
        <time>2024-05-20T12:41:04.000Z</time>
      </trkpt>
      <trkpt lat="45.96657" lon="4.75371">
        <ele>171.60000610352</ele>
        <time>2024-05-20T12:41:05.000Z</time>
      </trkpt>
      <trkpt lat="45.96651" lon="4.75367">
        <ele>171.60000610352</ele>
        <time>2024-05-20T12:41:06.000Z</time>
      </trkpt>
      <trkpt lat="45.96645" lon="4.75363">
        <ele>171.80000305176</ele>
        <time>2024-05-20T12:41:07.000Z</time>
      </trkpt>
      <trkpt lat="45.9664" lon="4.75359">
        <ele>171.80000305176</ele>
        <time>2024-05-20T12:41:08.000Z</time>
      </trkpt>
      <trkpt lat="45.96634" lon="4.75355">
        <ele>171.80000305176</ele>
        <time>2024-05-20T12:41:09.000Z</time>
      </trkpt>
      <trkpt lat="45.96628" lon="4.75351">
        <ele>171.80000305176</ele>
        <time>2024-05-20T12:41:10.000Z</time>
      </trkpt>
      <trkpt lat="45.96622" lon="4.75346">
        <ele>172</ele>
        <time>2024-05-20T12:41:11.000Z</time>
      </trkpt>
      <trkpt lat="45.96616" lon="4.75341">
        <ele>172</ele>
        <time>2024-05-20T12:41:12.000Z</time>
      </trkpt>
      <trkpt lat="45.96611" lon="4.75337">
        <ele>172</ele>
        <time>2024-05-20T12:41:13.000Z</time>
      </trkpt>
      <trkpt lat="45.96605" lon="4.75332">
        <ele>172</ele>
        <time>2024-05-20T12:41:14.000Z</time>
      </trkpt>
      <trkpt lat="45.96599" lon="4.75327">
        <ele>172</ele>
        <time>2024-05-20T12:41:15.000Z</time>
      </trkpt>
      <trkpt lat="45.96593" lon="4.75322">
        <ele>172</ele>
        <time>2024-05-20T12:41:16.000Z</time>
      </trkpt>
      <trkpt lat="45.96587" lon="4.75317">
        <ele>172</ele>
        <time>2024-05-20T12:41:17.000Z</time>
      </trkpt>
      <trkpt lat="45.96581" lon="4.75312">
        <ele>172</ele>
        <time>2024-05-20T12:41:18.000Z</time>
      </trkpt>
      <trkpt lat="45.96575" lon="4.75307">
        <ele>172</ele>
        <time>2024-05-20T12:41:19.000Z</time>
      </trkpt>
      <trkpt lat="45.96569" lon="4.75302">
        <ele>172</ele>
        <time>2024-05-20T12:41:20.000Z</time>
      </trkpt>
      <trkpt lat="45.96563" lon="4.75297">
        <ele>172</ele>
        <time>2024-05-20T12:41:21.000Z</time>
      </trkpt>
      <trkpt lat="45.96557" lon="4.75292">
        <ele>172</ele>
        <time>2024-05-20T12:41:22.000Z</time>
      </trkpt>
      <trkpt lat="45.96551" lon="4.75287">
        <ele>172</ele>
        <time>2024-05-20T12:41:23.000Z</time>
      </trkpt>
      <trkpt lat="45.96546" lon="4.75282">
        <ele>172</ele>
        <time>2024-05-20T12:41:24.000Z</time>
      </trkpt>
      <trkpt lat="45.9654" lon="4.75277">
        <ele>172</ele>
        <time>2024-05-20T12:41:25.000Z</time>
      </trkpt>
      <trkpt lat="45.96533" lon="4.75272">
        <ele>172</ele>
        <time>2024-05-20T12:41:26.000Z</time>
      </trkpt>
      <trkpt lat="45.96528" lon="4.75268">
        <ele>172</ele>
        <time>2024-05-20T12:41:27.000Z</time>
      </trkpt>
      <trkpt lat="45.96522" lon="4.75263">
        <ele>172</ele>
        <time>2024-05-20T12:41:28.000Z</time>
      </trkpt>
      <trkpt lat="45.96516" lon="4.75258">
        <ele>172</ele>
        <time>2024-05-20T12:41:29.000Z</time>
      </trkpt>
      <trkpt lat="45.9651" lon="4.75253">
        <ele>172</ele>
        <time>2024-05-20T12:41:30.000Z</time>
      </trkpt>
      <trkpt lat="45.96504" lon="4.75248">
        <ele>172.19999694824</ele>
        <time>2024-05-20T12:41:31.000Z</time>
      </trkpt>
      <trkpt lat="45.96499" lon="4.75243">
        <ele>172.19999694824</ele>
        <time>2024-05-20T12:41:32.000Z</time>
      </trkpt>
      <trkpt lat="45.96493" lon="4.75238">
        <ele>172.19999694824</ele>
        <time>2024-05-20T12:41:33.000Z</time>
      </trkpt>
      <trkpt lat="45.96487" lon="4.75233">
        <ele>172.19999694824</ele>
        <time>2024-05-20T12:41:34.000Z</time>
      </trkpt>
      <trkpt lat="45.96481" lon="4.75229">
        <ele>172.19999694824</ele>
        <time>2024-05-20T12:41:35.000Z</time>
      </trkpt>
      <trkpt lat="45.96475" lon="4.75224">
        <ele>172</ele>
        <time>2024-05-20T12:41:36.000Z</time>
      </trkpt>
      <trkpt lat="45.9647" lon="4.75219">
        <ele>172</ele>
        <time>2024-05-20T12:41:37.000Z</time>
      </trkpt>
      <trkpt lat="45.96464" lon="4.75214">
        <ele>171.80000305176</ele>
        <time>2024-05-20T12:41:38.000Z</time>
      </trkpt>
      <trkpt lat="45.96458" lon="4.75209">
        <ele>171.80000305176</ele>
        <time>2024-05-20T12:41:39.000Z</time>
      </trkpt>
      <trkpt lat="45.96453" lon="4.75205">
        <ele>171.80000305176</ele>
        <time>2024-05-20T12:41:40.000Z</time>
      </trkpt>
      <trkpt lat="45.96448" lon="4.752">
        <ele>171.80000305176</ele>
        <time>2024-05-20T12:41:41.000Z</time>
      </trkpt>
      <trkpt lat="45.96442" lon="4.75195">
        <ele>171.80000305176</ele>
        <time>2024-05-20T12:41:42.000Z</time>
      </trkpt>
      <trkpt lat="45.96437" lon="4.7519">
        <ele>171.60000610352</ele>
        <time>2024-05-20T12:41:43.000Z</time>
      </trkpt>
      <trkpt lat="45.96431" lon="4.75186">
        <ele>171.80000305176</ele>
        <time>2024-05-20T12:41:44.000Z</time>
      </trkpt>
      <trkpt lat="45.96425" lon="4.75182">
        <ele>171.80000305176</ele>
        <time>2024-05-20T12:41:45.000Z</time>
      </trkpt>
      <trkpt lat="45.9642" lon="4.75178">
        <ele>171.80000305176</ele>
        <time>2024-05-20T12:41:46.000Z</time>
      </trkpt>
      <trkpt lat="45.96415" lon="4.75174">
        <ele>171.80000305176</ele>
        <time>2024-05-20T12:41:47.000Z</time>
      </trkpt>
      <trkpt lat="45.96409" lon="4.75169">
        <ele>171.80000305176</ele>
        <time>2024-05-20T12:41:48.000Z</time>
      </trkpt>
      <trkpt lat="45.96403" lon="4.75164">
        <ele>171.80000305176</ele>
        <time>2024-05-20T12:41:49.000Z</time>
      </trkpt>
      <trkpt lat="45.96398" lon="4.75159">
        <ele>171.80000305176</ele>
        <time>2024-05-20T12:41:50.000Z</time>
      </trkpt>
      <trkpt lat="45.96393" lon="4.75155">
        <ele>171.60000610352</ele>
        <time>2024-05-20T12:41:51.000Z</time>
      </trkpt>
      <trkpt lat="45.96388" lon="4.75151">
        <ele>171.60000610352</ele>
        <time>2024-05-20T12:41:52.000Z</time>
      </trkpt>
      <trkpt lat="45.96382" lon="4.75146">
        <ele>171.60000610352</ele>
        <time>2024-05-20T12:41:53.000Z</time>
      </trkpt>
      <trkpt lat="45.96377" lon="4.75142">
        <ele>171.60000610352</ele>
        <time>2024-05-20T12:41:54.000Z</time>
      </trkpt>
      <trkpt lat="45.96371" lon="4.75137">
        <ele>171.60000610352</ele>
        <time>2024-05-20T12:41:55.000Z</time>
      </trkpt>
      <trkpt lat="45.96365" lon="4.75132">
        <ele>171.60000610352</ele>
        <time>2024-05-20T12:41:56.000Z</time>
      </trkpt>
      <trkpt lat="45.9636" lon="4.75126">
        <ele>171.39999389648</ele>
        <time>2024-05-20T12:41:57.000Z</time>
      </trkpt>
      <trkpt lat="45.96354" lon="4.75121">
        <ele>171.39999389648</ele>
        <time>2024-05-20T12:41:58.000Z</time>
      </trkpt>
      <trkpt lat="45.96349" lon="4.75115">
        <ele>171.39999389648</ele>
        <time>2024-05-20T12:41:59.000Z</time>
      </trkpt>
      <trkpt lat="45.96343" lon="4.75109">
        <ele>171.39999389648</ele>
        <time>2024-05-20T12:42:00.000Z</time>
      </trkpt>
      <trkpt lat="45.96338" lon="4.75103">
        <ele>171.39999389648</ele>
        <time>2024-05-20T12:42:01.000Z</time>
      </trkpt>
      <trkpt lat="45.96332" lon="4.75097">
        <ele>171.39999389648</ele>
        <time>2024-05-20T12:42:02.000Z</time>
      </trkpt>
      <trkpt lat="45.96327" lon="4.75092">
        <ele>171.39999389648</ele>
        <time>2024-05-20T12:42:03.000Z</time>
      </trkpt>
      <trkpt lat="45.96321" lon="4.75087">
        <ele>171.39999389648</ele>
        <time>2024-05-20T12:42:04.000Z</time>
      </trkpt>
      <trkpt lat="45.96315" lon="4.75083">
        <ele>171.39999389648</ele>
        <time>2024-05-20T12:42:05.000Z</time>
      </trkpt>
      <trkpt lat="45.9631" lon="4.75079">
        <ele>171.39999389648</ele>
        <time>2024-05-20T12:42:06.000Z</time>
      </trkpt>
      <trkpt lat="45.96304" lon="4.75075">
        <ele>171.39999389648</ele>
        <time>2024-05-20T12:42:07.000Z</time>
      </trkpt>
      <trkpt lat="45.96297" lon="4.75071">
        <ele>171.60000610352</ele>
        <time>2024-05-20T12:42:08.000Z</time>
      </trkpt>
      <trkpt lat="45.96291" lon="4.75068">
        <ele>171.60000610352</ele>
        <time>2024-05-20T12:42:09.000Z</time>
      </trkpt>
      <trkpt lat="45.96285" lon="4.75064">
        <ele>171.60000610352</ele>
        <time>2024-05-20T12:42:10.000Z</time>
      </trkpt>
      <trkpt lat="45.9628" lon="4.7506">
        <ele>171.39999389648</ele>
        <time>2024-05-20T12:42:11.000Z</time>
      </trkpt>
      <trkpt lat="45.96274" lon="4.75055">
        <ele>171.39999389648</ele>
        <time>2024-05-20T12:42:12.000Z</time>
      </trkpt>
      <trkpt lat="45.96269" lon="4.75051">
        <ele>171.39999389648</ele>
        <time>2024-05-20T12:42:13.000Z</time>
      </trkpt>
      <trkpt lat="45.96263" lon="4.75046">
        <ele>171.39999389648</ele>
        <time>2024-05-20T12:42:14.000Z</time>
      </trkpt>
      <trkpt lat="45.96258" lon="4.75041">
        <ele>171.39999389648</ele>
        <time>2024-05-20T12:42:15.000Z</time>
      </trkpt>
      <trkpt lat="45.96253" lon="4.75035">
        <ele>171.39999389648</ele>
        <time>2024-05-20T12:42:16.000Z</time>
      </trkpt>
      <trkpt lat="45.96248" lon="4.7503">
        <ele>171.39999389648</ele>
        <time>2024-05-20T12:42:17.000Z</time>
      </trkpt>
      <trkpt lat="45.96242" lon="4.75025">
        <ele>171.19999694824</ele>
        <time>2024-05-20T12:42:18.000Z</time>
      </trkpt>
      <trkpt lat="45.96237" lon="4.7502">
        <ele>171</ele>
        <time>2024-05-20T12:42:19.000Z</time>
      </trkpt>
      <trkpt lat="45.96232" lon="4.75014">
        <ele>171</ele>
        <time>2024-05-20T12:42:20.000Z</time>
      </trkpt>
      <trkpt lat="45.96227" lon="4.75009">
        <ele>171</ele>
        <time>2024-05-20T12:42:21.000Z</time>
      </trkpt>
      <trkpt lat="45.96222" lon="4.75004">
        <ele>171</ele>
        <time>2024-05-20T12:42:22.000Z</time>
      </trkpt>
      <trkpt lat="45.96217" lon="4.74999">
        <ele>171</ele>
        <time>2024-05-20T12:42:23.000Z</time>
      </trkpt>
      <trkpt lat="45.96211" lon="4.74995">
        <ele>171</ele>
        <time>2024-05-20T12:42:24.000Z</time>
      </trkpt>
      <trkpt lat="45.96206" lon="4.7499">
        <ele>171</ele>
        <time>2024-05-20T12:42:25.000Z</time>
      </trkpt>
      <trkpt lat="45.962" lon="4.74986">
        <ele>171</ele>
        <time>2024-05-20T12:42:26.000Z</time>
      </trkpt>
      <trkpt lat="45.96194" lon="4.74982">
        <ele>171</ele>
        <time>2024-05-20T12:42:27.000Z</time>
      </trkpt>
      <trkpt lat="45.96189" lon="4.74978">
        <ele>171</ele>
        <time>2024-05-20T12:42:28.000Z</time>
      </trkpt>
      <trkpt lat="45.96183" lon="4.74974">
        <ele>171</ele>
        <time>2024-05-20T12:42:29.000Z</time>
      </trkpt>
      <trkpt lat="45.96177" lon="4.7497">
        <ele>171.19999694824</ele>
        <time>2024-05-20T12:42:30.000Z</time>
      </trkpt>
      <trkpt lat="45.96172" lon="4.74965">
        <ele>171.60000610352</ele>
        <time>2024-05-20T12:42:31.000Z</time>
      </trkpt>
      <trkpt lat="45.96167" lon="4.7496">
        <ele>171.60000610352</ele>
        <time>2024-05-20T12:42:32.000Z</time>
      </trkpt>
      <trkpt lat="45.96162" lon="4.74955">
        <ele>171.60000610352</ele>
        <time>2024-05-20T12:42:33.000Z</time>
      </trkpt>
      <trkpt lat="45.96157" lon="4.74951">
        <ele>171.60000610352</ele>
        <time>2024-05-20T12:42:34.000Z</time>
      </trkpt>
      <trkpt lat="45.96152" lon="4.74947">
        <ele>171.60000610352</ele>
        <time>2024-05-20T12:42:35.000Z</time>
      </trkpt>
      <trkpt lat="45.96147" lon="4.74943">
        <ele>171.60000610352</ele>
        <time>2024-05-20T12:42:36.000Z</time>
      </trkpt>
      <trkpt lat="45.96143" lon="4.74939">
        <ele>171.39999389648</ele>
        <time>2024-05-20T12:42:37.000Z</time>
      </trkpt>
      <trkpt lat="45.9614" lon="4.74937">
        <ele>171.39999389648</ele>
        <time>2024-05-20T12:42:38.000Z</time>
      </trkpt>
      <trkpt lat="45.96136" lon="4.74935">
        <ele>171.39999389648</ele>
        <time>2024-05-20T12:42:39.000Z</time>
      </trkpt>
      <trkpt lat="45.96132" lon="4.74932">
        <ele>171.39999389648</ele>
        <time>2024-05-20T12:42:40.000Z</time>
      </trkpt>
      <trkpt lat="45.96129" lon="4.74928">
        <ele>171.39999389648</ele>
        <time>2024-05-20T12:42:41.000Z</time>
      </trkpt>
      <trkpt lat="45.96126" lon="4.74923">
        <ele>171.39999389648</ele>
        <time>2024-05-20T12:42:42.000Z</time>
      </trkpt>
      <trkpt lat="45.96123" lon="4.74917">
        <ele>171.39999389648</ele>
        <time>2024-05-20T12:42:43.000Z</time>
      </trkpt>
      <trkpt lat="45.96119" lon="4.74912">
        <ele>171.39999389648</ele>
        <time>2024-05-20T12:42:44.000Z</time>
      </trkpt>
      <trkpt lat="45.96115" lon="4.74906">
        <ele>171.39999389648</ele>
        <time>2024-05-20T12:42:45.000Z</time>
      </trkpt>
      <trkpt lat="45.96112" lon="4.74901">
        <ele>171.39999389648</ele>
        <time>2024-05-20T12:42:46.000Z</time>
      </trkpt>
      <trkpt lat="45.96108" lon="4.74895">
        <ele>171.19999694824</ele>
        <time>2024-05-20T12:42:47.000Z</time>
      </trkpt>
      <trkpt lat="45.96104" lon="4.74888">
        <ele>171.19999694824</ele>
        <time>2024-05-20T12:42:48.000Z</time>
      </trkpt>
      <trkpt lat="45.96099" lon="4.74881">
        <ele>171.19999694824</ele>
        <time>2024-05-20T12:42:49.000Z</time>
      </trkpt>
      <trkpt lat="45.96095" lon="4.74875">
        <ele>171.19999694824</ele>
        <time>2024-05-20T12:42:50.000Z</time>
      </trkpt>
      <trkpt lat="45.96091" lon="4.7487">
        <ele>171.19999694824</ele>
        <time>2024-05-20T12:42:51.000Z</time>
      </trkpt>
      <trkpt lat="45.96086" lon="4.74864">
        <ele>171</ele>
        <time>2024-05-20T12:42:52.000Z</time>
      </trkpt>
      <trkpt lat="45.96081" lon="4.7486">
        <ele>171</ele>
        <time>2024-05-20T12:42:53.000Z</time>
      </trkpt>
      <trkpt lat="45.96077" lon="4.74855">
        <ele>171</ele>
        <time>2024-05-20T12:42:54.000Z</time>
      </trkpt>
      <trkpt lat="45.96072" lon="4.74851">
        <ele>171</ele>
        <time>2024-05-20T12:42:55.000Z</time>
      </trkpt>
      <trkpt lat="45.96067" lon="4.74845">
        <ele>171</ele>
        <time>2024-05-20T12:42:56.000Z</time>
      </trkpt>
      <trkpt lat="45.96062" lon="4.74839">
        <ele>171.39999389648</ele>
        <time>2024-05-20T12:42:57.000Z</time>
      </trkpt>
      <trkpt lat="45.96057" lon="4.74834">
        <ele>171.39999389648</ele>
        <time>2024-05-20T12:42:58.000Z</time>
      </trkpt>
      <trkpt lat="45.96052" lon="4.74828">
        <ele>171.60000610352</ele>
        <time>2024-05-20T12:42:59.000Z</time>
      </trkpt>
      <trkpt lat="45.96047" lon="4.74822">
        <ele>171.80000305176</ele>
        <time>2024-05-20T12:43:00.000Z</time>
      </trkpt>
      <trkpt lat="45.96042" lon="4.74816">
        <ele>171.80000305176</ele>
        <time>2024-05-20T12:43:01.000Z</time>
      </trkpt>
      <trkpt lat="45.96036" lon="4.7481">
        <ele>171.80000305176</ele>
        <time>2024-05-20T12:43:02.000Z</time>
      </trkpt>
      <trkpt lat="45.96031" lon="4.74804">
        <ele>171.80000305176</ele>
        <time>2024-05-20T12:43:03.000Z</time>
      </trkpt>
      <trkpt lat="45.96025" lon="4.74798">
        <ele>171.80000305176</ele>
        <time>2024-05-20T12:43:04.000Z</time>
      </trkpt>
      <trkpt lat="45.9602" lon="4.74792">
        <ele>171.80000305176</ele>
        <time>2024-05-20T12:43:05.000Z</time>
      </trkpt>
      <trkpt lat="45.96016" lon="4.74786">
        <ele>171.80000305176</ele>
        <time>2024-05-20T12:43:06.000Z</time>
      </trkpt>
      <trkpt lat="45.96013" lon="4.7478">
        <ele>171.80000305176</ele>
        <time>2024-05-20T12:43:07.000Z</time>
      </trkpt>
      <trkpt lat="45.96009" lon="4.74773">
        <ele>171.80000305176</ele>
        <time>2024-05-20T12:43:08.000Z</time>
      </trkpt>
      <trkpt lat="45.96005" lon="4.74767">
        <ele>172</ele>
        <time>2024-05-20T12:43:09.000Z</time>
      </trkpt>
      <trkpt lat="45.96" lon="4.7476">
        <ele>172.19999694824</ele>
        <time>2024-05-20T12:43:10.000Z</time>
      </trkpt>
      <trkpt lat="45.95996" lon="4.74753">
        <ele>172.39999389648</ele>
        <time>2024-05-20T12:43:11.000Z</time>
      </trkpt>
      <trkpt lat="45.95992" lon="4.74747">
        <ele>172.60000610352</ele>
        <time>2024-05-20T12:43:12.000Z</time>
      </trkpt>
      <trkpt lat="45.95988" lon="4.74742">
        <ele>172.60000610352</ele>
        <time>2024-05-20T12:43:13.000Z</time>
      </trkpt>
      <trkpt lat="45.95983" lon="4.74737">
        <ele>172.60000610352</ele>
        <time>2024-05-20T12:43:14.000Z</time>
      </trkpt>
      <trkpt lat="45.95979" lon="4.74732">
        <ele>172.60000610352</ele>
        <time>2024-05-20T12:43:15.000Z</time>
      </trkpt>
      <trkpt lat="45.95975" lon="4.74725">
        <ele>172.60000610352</ele>
        <time>2024-05-20T12:43:16.000Z</time>
      </trkpt>
      <trkpt lat="45.95972" lon="4.74719">
        <ele>172.60000610352</ele>
        <time>2024-05-20T12:43:17.000Z</time>
      </trkpt>
      <trkpt lat="45.95968" lon="4.74713">
        <ele>172.19999694824</ele>
        <time>2024-05-20T12:43:18.000Z</time>
      </trkpt>
      <trkpt lat="45.95964" lon="4.74708">
        <ele>171.39999389648</ele>
        <time>2024-05-20T12:43:19.000Z</time>
      </trkpt>
      <trkpt lat="45.9596" lon="4.74702">
        <ele>171.39999389648</ele>
        <time>2024-05-20T12:43:20.000Z</time>
      </trkpt>
      <trkpt lat="45.95957" lon="4.74696">
        <ele>171.39999389648</ele>
        <time>2024-05-20T12:43:21.000Z</time>
      </trkpt>
      <trkpt lat="45.95953" lon="4.74691">
        <ele>171.39999389648</ele>
        <time>2024-05-20T12:43:22.000Z</time>
      </trkpt>
      <trkpt lat="45.95949" lon="4.74685">
        <ele>171.39999389648</ele>
        <time>2024-05-20T12:43:23.000Z</time>
      </trkpt>
      <trkpt lat="45.95945" lon="4.74679">
        <ele>171.39999389648</ele>
        <time>2024-05-20T12:43:24.000Z</time>
      </trkpt>
      <trkpt lat="45.95941" lon="4.74673">
        <ele>171.60000610352</ele>
        <time>2024-05-20T12:43:25.000Z</time>
      </trkpt>
      <trkpt lat="45.95937" lon="4.74667">
        <ele>171.60000610352</ele>
        <time>2024-05-20T12:43:26.000Z</time>
      </trkpt>
      <trkpt lat="45.95934" lon="4.7466">
        <ele>171.60000610352</ele>
        <time>2024-05-20T12:43:27.000Z</time>
      </trkpt>
      <trkpt lat="45.9593" lon="4.74654">
        <ele>171.80000305176</ele>
        <time>2024-05-20T12:43:28.000Z</time>
      </trkpt>
      <trkpt lat="45.95926" lon="4.74649">
        <ele>171.80000305176</ele>
        <time>2024-05-20T12:43:29.000Z</time>
      </trkpt>
      <trkpt lat="45.95923" lon="4.74643">
        <ele>171.80000305176</ele>
        <time>2024-05-20T12:43:30.000Z</time>
      </trkpt>
      <trkpt lat="45.9592" lon="4.74637">
        <ele>171.80000305176</ele>
        <time>2024-05-20T12:43:31.000Z</time>
      </trkpt>
      <trkpt lat="45.95916" lon="4.74631">
        <ele>171.60000610352</ele>
        <time>2024-05-20T12:43:32.000Z</time>
      </trkpt>
      <trkpt lat="45.95913" lon="4.74625">
        <ele>171.39999389648</ele>
        <time>2024-05-20T12:43:33.000Z</time>
      </trkpt>
      <trkpt lat="45.9591" lon="4.74618">
        <ele>171.19999694824</ele>
        <time>2024-05-20T12:43:34.000Z</time>
      </trkpt>
      <trkpt lat="45.95906" lon="4.74612">
        <ele>171.19999694824</ele>
        <time>2024-05-20T12:43:35.000Z</time>
      </trkpt>
      <trkpt lat="45.95903" lon="4.74606">
        <ele>171</ele>
        <time>2024-05-20T12:43:36.000Z</time>
      </trkpt>
      <trkpt lat="45.95899" lon="4.746">
        <ele>170.60000610352</ele>
        <time>2024-05-20T12:43:37.000Z</time>
      </trkpt>
      <trkpt lat="45.95896" lon="4.74594">
        <ele>170.60000610352</ele>
        <time>2024-05-20T12:43:38.000Z</time>
      </trkpt>
      <trkpt lat="45.95893" lon="4.74588">
        <ele>170.60000610352</ele>
        <time>2024-05-20T12:43:39.000Z</time>
      </trkpt>
      <trkpt lat="45.9589" lon="4.74582">
        <ele>170.60000610352</ele>
        <time>2024-05-20T12:43:40.000Z</time>
      </trkpt>
      <trkpt lat="45.95886" lon="4.74575">
        <ele>171</ele>
        <time>2024-05-20T12:43:41.000Z</time>
      </trkpt>
      <trkpt lat="45.95883" lon="4.74568">
        <ele>171</ele>
        <time>2024-05-20T12:43:42.000Z</time>
      </trkpt>
      <trkpt lat="45.95879" lon="4.74562">
        <ele>171</ele>
        <time>2024-05-20T12:43:43.000Z</time>
      </trkpt>
      <trkpt lat="45.95876" lon="4.74555">
        <ele>171.19999694824</ele>
        <time>2024-05-20T12:43:44.000Z</time>
      </trkpt>
      <trkpt lat="45.95872" lon="4.74549">
        <ele>171.19999694824</ele>
        <time>2024-05-20T12:43:45.000Z</time>
      </trkpt>
      <trkpt lat="45.95868" lon="4.74543">
        <ele>171.19999694824</ele>
        <time>2024-05-20T12:43:46.000Z</time>
      </trkpt>
      <trkpt lat="45.95865" lon="4.74536">
        <ele>171.19999694824</ele>
        <time>2024-05-20T12:43:47.000Z</time>
      </trkpt>
      <trkpt lat="45.95861" lon="4.74529">
        <ele>171.19999694824</ele>
        <time>2024-05-20T12:43:48.000Z</time>
      </trkpt>
      <trkpt lat="45.95857" lon="4.74522">
        <ele>171.39999389648</ele>
        <time>2024-05-20T12:43:49.000Z</time>
      </trkpt>
      <trkpt lat="45.95853" lon="4.74515">
        <ele>171.39999389648</ele>
        <time>2024-05-20T12:43:50.000Z</time>
      </trkpt>
      <trkpt lat="45.95849" lon="4.74508">
        <ele>171.39999389648</ele>
        <time>2024-05-20T12:43:51.000Z</time>
      </trkpt>
      <trkpt lat="45.95845" lon="4.74501">
        <ele>171.39999389648</ele>
        <time>2024-05-20T12:43:52.000Z</time>
      </trkpt>
      <trkpt lat="45.95842" lon="4.74494">
        <ele>171.19999694824</ele>
        <time>2024-05-20T12:43:53.000Z</time>
      </trkpt>
      <trkpt lat="45.95839" lon="4.74486">
        <ele>171.19999694824</ele>
        <time>2024-05-20T12:43:54.000Z</time>
      </trkpt>
      <trkpt lat="45.95835" lon="4.74479">
        <ele>171.19999694824</ele>
        <time>2024-05-20T12:43:55.000Z</time>
      </trkpt>
      <trkpt lat="45.95831" lon="4.74471">
        <ele>171.19999694824</ele>
        <time>2024-05-20T12:43:56.000Z</time>
      </trkpt>
      <trkpt lat="45.95827" lon="4.74464">
        <ele>171.19999694824</ele>
        <time>2024-05-20T12:43:57.000Z</time>
      </trkpt>
      <trkpt lat="45.95823" lon="4.74458">
        <ele>171.19999694824</ele>
        <time>2024-05-20T12:43:58.000Z</time>
      </trkpt>
      <trkpt lat="45.9582" lon="4.74451">
        <ele>171.19999694824</ele>
        <time>2024-05-20T12:43:59.000Z</time>
      </trkpt>
      <trkpt lat="45.95816" lon="4.74444">
        <ele>171.19999694824</ele>
        <time>2024-05-20T12:44:00.000Z</time>
      </trkpt>
      <trkpt lat="45.95812" lon="4.74438">
        <ele>171.19999694824</ele>
        <time>2024-05-20T12:44:01.000Z</time>
      </trkpt>
      <trkpt lat="45.95808" lon="4.74431">
        <ele>171.19999694824</ele>
        <time>2024-05-20T12:44:02.000Z</time>
      </trkpt>
      <trkpt lat="45.95804" lon="4.74424">
        <ele>171.39999389648</ele>
        <time>2024-05-20T12:44:03.000Z</time>
      </trkpt>
      <trkpt lat="45.95801" lon="4.74417">
        <ele>171.19999694824</ele>
        <time>2024-05-20T12:44:04.000Z</time>
      </trkpt>
      <trkpt lat="45.95797" lon="4.7441">
        <ele>171.39999389648</ele>
        <time>2024-05-20T12:44:05.000Z</time>
      </trkpt>
      <trkpt lat="45.95793" lon="4.74403">
        <ele>171.19999694824</ele>
        <time>2024-05-20T12:44:06.000Z</time>
      </trkpt>
      <trkpt lat="45.95789" lon="4.74396">
        <ele>171.39999389648</ele>
        <time>2024-05-20T12:44:07.000Z</time>
      </trkpt>
      <trkpt lat="45.95785" lon="4.74389">
        <ele>171.39999389648</ele>
        <time>2024-05-20T12:44:08.000Z</time>
      </trkpt>
      <trkpt lat="45.95781" lon="4.74382">
        <ele>171.39999389648</ele>
        <time>2024-05-20T12:44:09.000Z</time>
      </trkpt>
      <trkpt lat="45.95777" lon="4.74375">
        <ele>171.39999389648</ele>
        <time>2024-05-20T12:44:10.000Z</time>
      </trkpt>
      <trkpt lat="45.95773" lon="4.74368">
        <ele>171.39999389648</ele>
        <time>2024-05-20T12:44:11.000Z</time>
      </trkpt>
      <trkpt lat="45.95769" lon="4.7436">
        <ele>171.39999389648</ele>
        <time>2024-05-20T12:44:12.000Z</time>
      </trkpt>
      <trkpt lat="45.95765" lon="4.74353">
        <ele>171.39999389648</ele>
        <time>2024-05-20T12:44:13.000Z</time>
      </trkpt>
      <trkpt lat="45.95761" lon="4.74346">
        <ele>171.39999389648</ele>
        <time>2024-05-20T12:44:14.000Z</time>
      </trkpt>
      <trkpt lat="45.95757" lon="4.74339">
        <ele>171.39999389648</ele>
        <time>2024-05-20T12:44:15.000Z</time>
      </trkpt>
      <trkpt lat="45.95753" lon="4.74331">
        <ele>171.39999389648</ele>
        <time>2024-05-20T12:44:16.000Z</time>
      </trkpt>
      <trkpt lat="45.95749" lon="4.74324">
        <ele>171.39999389648</ele>
        <time>2024-05-20T12:44:17.000Z</time>
      </trkpt>
      <trkpt lat="45.95746" lon="4.74317">
        <ele>171.39999389648</ele>
        <time>2024-05-20T12:44:18.000Z</time>
      </trkpt>
      <trkpt lat="45.95742" lon="4.7431">
        <ele>171.39999389648</ele>
        <time>2024-05-20T12:44:19.000Z</time>
      </trkpt>
      <trkpt lat="45.95738" lon="4.74304">
        <ele>171.39999389648</ele>
        <time>2024-05-20T12:44:20.000Z</time>
      </trkpt>
      <trkpt lat="45.95734" lon="4.74297">
        <ele>171.60000610352</ele>
        <time>2024-05-20T12:44:21.000Z</time>
      </trkpt>
      <trkpt lat="45.9573" lon="4.74289">
        <ele>171.60000610352</ele>
        <time>2024-05-20T12:44:22.000Z</time>
      </trkpt>
      <trkpt lat="45.95726" lon="4.74282">
        <ele>171.60000610352</ele>
        <time>2024-05-20T12:44:23.000Z</time>
      </trkpt>
      <trkpt lat="45.95722" lon="4.74275">
        <ele>171.60000610352</ele>
        <time>2024-05-20T12:44:24.000Z</time>
      </trkpt>
      <trkpt lat="45.95718" lon="4.74268">
        <ele>171.60000610352</ele>
        <time>2024-05-20T12:44:25.000Z</time>
      </trkpt>
      <trkpt lat="45.95714" lon="4.74261">
        <ele>171.60000610352</ele>
        <time>2024-05-20T12:44:26.000Z</time>
      </trkpt>
      <trkpt lat="45.9571" lon="4.74254">
        <ele>171.60000610352</ele>
        <time>2024-05-20T12:44:27.000Z</time>
      </trkpt>
      <trkpt lat="45.95706" lon="4.74247">
        <ele>171.60000610352</ele>
        <time>2024-05-20T12:44:28.000Z</time>
      </trkpt>
      <trkpt lat="45.95702" lon="4.7424">
        <ele>171.60000610352</ele>
        <time>2024-05-20T12:44:29.000Z</time>
      </trkpt>
      <trkpt lat="45.95698" lon="4.74233">
        <ele>171.39999389648</ele>
        <time>2024-05-20T12:44:30.000Z</time>
      </trkpt>
      <trkpt lat="45.95695" lon="4.74226">
        <ele>171.39999389648</ele>
        <time>2024-05-20T12:44:31.000Z</time>
      </trkpt>
      <trkpt lat="45.95691" lon="4.74219">
        <ele>171.39999389648</ele>
        <time>2024-05-20T12:44:32.000Z</time>
      </trkpt>
      <trkpt lat="45.95687" lon="4.74212">
        <ele>171.39999389648</ele>
        <time>2024-05-20T12:44:33.000Z</time>
      </trkpt>
      <trkpt lat="45.95682" lon="4.74205">
        <ele>171.39999389648</ele>
        <time>2024-05-20T12:44:34.000Z</time>
      </trkpt>
      <trkpt lat="45.95678" lon="4.74198">
        <ele>171.39999389648</ele>
        <time>2024-05-20T12:44:35.000Z</time>
      </trkpt>
      <trkpt lat="45.95674" lon="4.7419">
        <ele>171.39999389648</ele>
        <time>2024-05-20T12:44:36.000Z</time>
      </trkpt>
      <trkpt lat="45.9567" lon="4.74183">
        <ele>171.39999389648</ele>
        <time>2024-05-20T12:44:37.000Z</time>
      </trkpt>
      <trkpt lat="45.95666" lon="4.74177">
        <ele>171.39999389648</ele>
        <time>2024-05-20T12:44:38.000Z</time>
      </trkpt>
      <trkpt lat="45.95662" lon="4.7417">
        <ele>171.19999694824</ele>
        <time>2024-05-20T12:44:39.000Z</time>
      </trkpt>
      <trkpt lat="45.95658" lon="4.74164">
        <ele>171.19999694824</ele>
        <time>2024-05-20T12:44:40.000Z</time>
      </trkpt>
      <trkpt lat="45.95654" lon="4.74157">
        <ele>171.19999694824</ele>
        <time>2024-05-20T12:44:41.000Z</time>
      </trkpt>
      <trkpt lat="45.9565" lon="4.7415">
        <ele>171</ele>
        <time>2024-05-20T12:44:42.000Z</time>
      </trkpt>
      <trkpt lat="45.95646" lon="4.74144">
        <ele>171</ele>
        <time>2024-05-20T12:44:43.000Z</time>
      </trkpt>
      <trkpt lat="45.95642" lon="4.74137">
        <ele>171</ele>
        <time>2024-05-20T12:44:44.000Z</time>
      </trkpt>
      <trkpt lat="45.95637" lon="4.7413">
        <ele>171</ele>
        <time>2024-05-20T12:44:45.000Z</time>
      </trkpt>
      <trkpt lat="45.95633" lon="4.74123">
        <ele>171</ele>
        <time>2024-05-20T12:44:46.000Z</time>
      </trkpt>
      <trkpt lat="45.95629" lon="4.74117">
        <ele>171</ele>
        <time>2024-05-20T12:44:47.000Z</time>
      </trkpt>
      <trkpt lat="45.95625" lon="4.7411">
        <ele>171.19999694824</ele>
        <time>2024-05-20T12:44:48.000Z</time>
      </trkpt>
      <trkpt lat="45.95621" lon="4.74103">
        <ele>171.19999694824</ele>
        <time>2024-05-20T12:44:49.000Z</time>
      </trkpt>
      <trkpt lat="45.95616" lon="4.74097">
        <ele>171.19999694824</ele>
        <time>2024-05-20T12:44:50.000Z</time>
      </trkpt>
      <trkpt lat="45.95612" lon="4.7409">
        <ele>171.39999389648</ele>
        <time>2024-05-20T12:44:51.000Z</time>
      </trkpt>
      <trkpt lat="45.95607" lon="4.74083">
        <ele>171.39999389648</ele>
        <time>2024-05-20T12:44:52.000Z</time>
      </trkpt>
      <trkpt lat="45.95603" lon="4.74076">
        <ele>171.39999389648</ele>
        <time>2024-05-20T12:44:53.000Z</time>
      </trkpt>
      <trkpt lat="45.95599" lon="4.7407">
        <ele>171.39999389648</ele>
        <time>2024-05-20T12:44:54.000Z</time>
      </trkpt>
      <trkpt lat="45.95595" lon="4.74063">
        <ele>171.60000610352</ele>
        <time>2024-05-20T12:44:55.000Z</time>
      </trkpt>
      <trkpt lat="45.95591" lon="4.74055">
        <ele>171.60000610352</ele>
        <time>2024-05-20T12:44:56.000Z</time>
      </trkpt>
      <trkpt lat="45.95588" lon="4.74048">
        <ele>171.60000610352</ele>
        <time>2024-05-20T12:44:57.000Z</time>
      </trkpt>
      <trkpt lat="45.95584" lon="4.7404">
        <ele>171.60000610352</ele>
        <time>2024-05-20T12:44:58.000Z</time>
      </trkpt>
      <trkpt lat="45.9558" lon="4.74034">
        <ele>171.39999389648</ele>
        <time>2024-05-20T12:44:59.000Z</time>
      </trkpt>
      <trkpt lat="45.95575" lon="4.74027">
        <ele>171.39999389648</ele>
        <time>2024-05-20T12:45:00.000Z</time>
      </trkpt>
      <trkpt lat="45.95571" lon="4.7402">
        <ele>171.39999389648</ele>
        <time>2024-05-20T12:45:01.000Z</time>
      </trkpt>
      <trkpt lat="45.95566" lon="4.74012">
        <ele>171.39999389648</ele>
        <time>2024-05-20T12:45:02.000Z</time>
      </trkpt>
      <trkpt lat="45.95561" lon="4.74006">
        <ele>171.19999694824</ele>
        <time>2024-05-20T12:45:03.000Z</time>
      </trkpt>
      <trkpt lat="45.95557" lon="4.73999">
        <ele>171.19999694824</ele>
        <time>2024-05-20T12:45:04.000Z</time>
      </trkpt>
      <trkpt lat="45.95552" lon="4.73993">
        <ele>171</ele>
        <time>2024-05-20T12:45:05.000Z</time>
      </trkpt>
      <trkpt lat="45.95547" lon="4.73985">
        <ele>171</ele>
        <time>2024-05-20T12:45:06.000Z</time>
      </trkpt>
      <trkpt lat="45.95543" lon="4.73978">
        <ele>170.80000305176</ele>
        <time>2024-05-20T12:45:07.000Z</time>
      </trkpt>
      <trkpt lat="45.95539" lon="4.7397">
        <ele>170.80000305176</ele>
        <time>2024-05-20T12:45:08.000Z</time>
      </trkpt>
      <trkpt lat="45.95534" lon="4.73963">
        <ele>170.60000610352</ele>
        <time>2024-05-20T12:45:09.000Z</time>
      </trkpt>
      <trkpt lat="45.9553" lon="4.73956">
        <ele>170.60000610352</ele>
        <time>2024-05-20T12:45:10.000Z</time>
      </trkpt>
      <trkpt lat="45.95525" lon="4.73949">
        <ele>170.60000610352</ele>
        <time>2024-05-20T12:45:11.000Z</time>
      </trkpt>
      <trkpt lat="45.9552" lon="4.73942">
        <ele>170.60000610352</ele>
        <time>2024-05-20T12:45:12.000Z</time>
      </trkpt>
      <trkpt lat="45.95515" lon="4.73936">
        <ele>170.80000305176</ele>
        <time>2024-05-20T12:45:13.000Z</time>
      </trkpt>
      <trkpt lat="45.9551" lon="4.7393">
        <ele>170.80000305176</ele>
        <time>2024-05-20T12:45:14.000Z</time>
      </trkpt>
      <trkpt lat="45.95505" lon="4.73923">
        <ele>170.80000305176</ele>
        <time>2024-05-20T12:45:15.000Z</time>
      </trkpt>
      <trkpt lat="45.95501" lon="4.73917">
        <ele>170.80000305176</ele>
        <time>2024-05-20T12:45:16.000Z</time>
      </trkpt>
      <trkpt lat="45.95496" lon="4.7391">
        <ele>170.80000305176</ele>
        <time>2024-05-20T12:45:17.000Z</time>
      </trkpt>
      <trkpt lat="45.95492" lon="4.73904">
        <ele>170.80000305176</ele>
        <time>2024-05-20T12:45:18.000Z</time>
      </trkpt>
      <trkpt lat="45.95487" lon="4.73898">
        <ele>170.80000305176</ele>
        <time>2024-05-20T12:45:19.000Z</time>
      </trkpt>
      <trkpt lat="45.95482" lon="4.73892">
        <ele>170.80000305176</ele>
        <time>2024-05-20T12:45:20.000Z</time>
      </trkpt>
      <trkpt lat="45.95478" lon="4.73885">
        <ele>170.80000305176</ele>
        <time>2024-05-20T12:45:21.000Z</time>
      </trkpt>
      <trkpt lat="45.95473" lon="4.73879">
        <ele>170.80000305176</ele>
        <time>2024-05-20T12:45:22.000Z</time>
      </trkpt>
      <trkpt lat="45.95469" lon="4.73872">
        <ele>170.80000305176</ele>
        <time>2024-05-20T12:45:23.000Z</time>
      </trkpt>
      <trkpt lat="45.95464" lon="4.73865">
        <ele>170.80000305176</ele>
        <time>2024-05-20T12:45:24.000Z</time>
      </trkpt>
      <trkpt lat="45.95459" lon="4.73859">
        <ele>171</ele>
        <time>2024-05-20T12:45:25.000Z</time>
      </trkpt>
      <trkpt lat="45.95455" lon="4.73852">
        <ele>171</ele>
        <time>2024-05-20T12:45:26.000Z</time>
      </trkpt>
      <trkpt lat="45.9545" lon="4.73846">
        <ele>171</ele>
        <time>2024-05-20T12:45:27.000Z</time>
      </trkpt>
      <trkpt lat="45.95445" lon="4.73839">
        <ele>171</ele>
        <time>2024-05-20T12:45:28.000Z</time>
      </trkpt>
      <trkpt lat="45.95441" lon="4.73832">
        <ele>170.80000305176</ele>
        <time>2024-05-20T12:45:29.000Z</time>
      </trkpt>
      <trkpt lat="45.95436" lon="4.73825">
        <ele>170.80000305176</ele>
        <time>2024-05-20T12:45:30.000Z</time>
      </trkpt>
      <trkpt lat="45.95432" lon="4.73819">
        <ele>170.80000305176</ele>
        <time>2024-05-20T12:45:31.000Z</time>
      </trkpt>
      <trkpt lat="45.95428" lon="4.73812">
        <ele>170.80000305176</ele>
        <time>2024-05-20T12:45:32.000Z</time>
      </trkpt>
      <trkpt lat="45.95423" lon="4.73805">
        <ele>170.80000305176</ele>
        <time>2024-05-20T12:45:33.000Z</time>
      </trkpt>
      <trkpt lat="45.95419" lon="4.73798">
        <ele>170.80000305176</ele>
        <time>2024-05-20T12:45:34.000Z</time>
      </trkpt>
      <trkpt lat="45.95415" lon="4.73792">
        <ele>170.60000610352</ele>
        <time>2024-05-20T12:45:35.000Z</time>
      </trkpt>
      <trkpt lat="45.9541" lon="4.73785">
        <ele>170.60000610352</ele>
        <time>2024-05-20T12:45:36.000Z</time>
      </trkpt>
      <trkpt lat="45.95406" lon="4.73779">
        <ele>170.60000610352</ele>
        <time>2024-05-20T12:45:37.000Z</time>
      </trkpt>
      <trkpt lat="45.95401" lon="4.73772">
        <ele>170.60000610352</ele>
        <time>2024-05-20T12:45:38.000Z</time>
      </trkpt>
      <trkpt lat="45.95397" lon="4.73765">
        <ele>170.60000610352</ele>
        <time>2024-05-20T12:45:39.000Z</time>
      </trkpt>
      <trkpt lat="45.95392" lon="4.73759">
        <ele>170.60000610352</ele>
        <time>2024-05-20T12:45:40.000Z</time>
      </trkpt>
      <trkpt lat="45.95388" lon="4.73752">
        <ele>170.60000610352</ele>
        <time>2024-05-20T12:45:41.000Z</time>
      </trkpt>
      <trkpt lat="45.95383" lon="4.73745">
        <ele>170.80000305176</ele>
        <time>2024-05-20T12:45:42.000Z</time>
      </trkpt>
      <trkpt lat="45.95379" lon="4.73738">
        <ele>170.80000305176</ele>
        <time>2024-05-20T12:45:43.000Z</time>
      </trkpt>
      <trkpt lat="45.95374" lon="4.73732">
        <ele>170.80000305176</ele>
        <time>2024-05-20T12:45:44.000Z</time>
      </trkpt>
      <trkpt lat="45.9537" lon="4.73725">
        <ele>170.80000305176</ele>
        <time>2024-05-20T12:45:45.000Z</time>
      </trkpt>
      <trkpt lat="45.95366" lon="4.73719">
        <ele>171</ele>
        <time>2024-05-20T12:45:46.000Z</time>
      </trkpt>
      <trkpt lat="45.95361" lon="4.73712">
        <ele>171</ele>
        <time>2024-05-20T12:45:47.000Z</time>
      </trkpt>
      <trkpt lat="45.95357" lon="4.73706">
        <ele>171.19999694824</ele>
        <time>2024-05-20T12:45:48.000Z</time>
      </trkpt>
      <trkpt lat="45.95353" lon="4.737">
        <ele>171.19999694824</ele>
        <time>2024-05-20T12:45:49.000Z</time>
      </trkpt>
      <trkpt lat="45.95348" lon="4.73694">
        <ele>171.19999694824</ele>
        <time>2024-05-20T12:45:50.000Z</time>
      </trkpt>
      <trkpt lat="45.95345" lon="4.73688">
        <ele>171.39999389648</ele>
        <time>2024-05-20T12:45:51.000Z</time>
      </trkpt>
      <trkpt lat="45.95341" lon="4.73682">
        <ele>171.39999389648</ele>
        <time>2024-05-20T12:45:52.000Z</time>
      </trkpt>
      <trkpt lat="45.95337" lon="4.73676">
        <ele>171.39999389648</ele>
        <time>2024-05-20T12:45:53.000Z</time>
      </trkpt>
      <trkpt lat="45.95333" lon="4.7367">
        <ele>171.60000610352</ele>
        <time>2024-05-20T12:45:54.000Z</time>
      </trkpt>
      <trkpt lat="45.95328" lon="4.73663">
        <ele>171.60000610352</ele>
        <time>2024-05-20T12:45:55.000Z</time>
      </trkpt>
      <trkpt lat="45.95324" lon="4.73656">
        <ele>171.60000610352</ele>
        <time>2024-05-20T12:45:56.000Z</time>
      </trkpt>
      <trkpt lat="45.95319" lon="4.73649">
        <ele>171.60000610352</ele>
        <time>2024-05-20T12:45:57.000Z</time>
      </trkpt>
      <trkpt lat="45.95314" lon="4.73642">
        <ele>171.60000610352</ele>
        <time>2024-05-20T12:45:58.000Z</time>
      </trkpt>
      <trkpt lat="45.9531" lon="4.73635">
        <ele>171.60000610352</ele>
        <time>2024-05-20T12:45:59.000Z</time>
      </trkpt>
      <trkpt lat="45.95305" lon="4.73628">
        <ele>171.80000305176</ele>
        <time>2024-05-20T12:46:00.000Z</time>
      </trkpt>
      <trkpt lat="45.953" lon="4.73622">
        <ele>171.80000305176</ele>
        <time>2024-05-20T12:46:01.000Z</time>
      </trkpt>
      <trkpt lat="45.95295" lon="4.73615">
        <ele>171.80000305176</ele>
        <time>2024-05-20T12:46:02.000Z</time>
      </trkpt>
      <trkpt lat="45.95289" lon="4.73609">
        <ele>171.60000610352</ele>
        <time>2024-05-20T12:46:03.000Z</time>
      </trkpt>
      <trkpt lat="45.95284" lon="4.73603">
        <ele>171.60000610352</ele>
        <time>2024-05-20T12:46:04.000Z</time>
      </trkpt>
      <trkpt lat="45.95279" lon="4.73597">
        <ele>171.80000305176</ele>
        <time>2024-05-20T12:46:05.000Z</time>
      </trkpt>
      <trkpt lat="45.95273" lon="4.73592">
        <ele>171.80000305176</ele>
        <time>2024-05-20T12:46:06.000Z</time>
      </trkpt>
      <trkpt lat="45.95268" lon="4.73586">
        <ele>171.80000305176</ele>
        <time>2024-05-20T12:46:07.000Z</time>
      </trkpt>
      <trkpt lat="45.95262" lon="4.7358">
        <ele>171.80000305176</ele>
        <time>2024-05-20T12:46:08.000Z</time>
      </trkpt>
      <trkpt lat="45.95257" lon="4.73575">
        <ele>171.80000305176</ele>
        <time>2024-05-20T12:46:09.000Z</time>
      </trkpt>
      <trkpt lat="45.95252" lon="4.73568">
        <ele>171.80000305176</ele>
        <time>2024-05-20T12:46:10.000Z</time>
      </trkpt>
      <trkpt lat="45.95247" lon="4.73562">
        <ele>171.80000305176</ele>
        <time>2024-05-20T12:46:11.000Z</time>
      </trkpt>
      <trkpt lat="45.95242" lon="4.73556">
        <ele>171.80000305176</ele>
        <time>2024-05-20T12:46:12.000Z</time>
      </trkpt>
      <trkpt lat="45.95237" lon="4.7355">
        <ele>171.80000305176</ele>
        <time>2024-05-20T12:46:13.000Z</time>
      </trkpt>
      <trkpt lat="45.95233" lon="4.73543">
        <ele>171.80000305176</ele>
        <time>2024-05-20T12:46:14.000Z</time>
      </trkpt>
      <trkpt lat="45.95228" lon="4.73536">
        <ele>171.80000305176</ele>
        <time>2024-05-20T12:46:15.000Z</time>
      </trkpt>
      <trkpt lat="45.95224" lon="4.73529">
        <ele>171.80000305176</ele>
        <time>2024-05-20T12:46:16.000Z</time>
      </trkpt>
      <trkpt lat="45.95219" lon="4.73522">
        <ele>171.80000305176</ele>
        <time>2024-05-20T12:46:17.000Z</time>
      </trkpt>
      <trkpt lat="45.95214" lon="4.73515">
        <ele>171.80000305176</ele>
        <time>2024-05-20T12:46:18.000Z</time>
      </trkpt>
      <trkpt lat="45.9521" lon="4.73508">
        <ele>171.60000610352</ele>
        <time>2024-05-20T12:46:19.000Z</time>
      </trkpt>
      <trkpt lat="45.95205" lon="4.73501">
        <ele>171.39999389648</ele>
        <time>2024-05-20T12:46:20.000Z</time>
      </trkpt>
      <trkpt lat="45.952" lon="4.73494">
        <ele>171.19999694824</ele>
        <time>2024-05-20T12:46:21.000Z</time>
      </trkpt>
      <trkpt lat="45.95196" lon="4.73487">
        <ele>171.19999694824</ele>
        <time>2024-05-20T12:46:22.000Z</time>
      </trkpt>
      <trkpt lat="45.95191" lon="4.7348">
        <ele>171</ele>
        <time>2024-05-20T12:46:23.000Z</time>
      </trkpt>
      <trkpt lat="45.95187" lon="4.73473">
        <ele>171</ele>
        <time>2024-05-20T12:46:24.000Z</time>
      </trkpt>
      <trkpt lat="45.95183" lon="4.73466">
        <ele>171</ele>
        <time>2024-05-20T12:46:25.000Z</time>
      </trkpt>
      <trkpt lat="45.95179" lon="4.73458">
        <ele>171</ele>
        <time>2024-05-20T12:46:26.000Z</time>
      </trkpt>
      <trkpt lat="45.95174" lon="4.73451">
        <ele>171</ele>
        <time>2024-05-20T12:46:27.000Z</time>
      </trkpt>
      <trkpt lat="45.95169" lon="4.73444">
        <ele>171</ele>
        <time>2024-05-20T12:46:28.000Z</time>
      </trkpt>
      <trkpt lat="45.95165" lon="4.73437">
        <ele>171.19999694824</ele>
        <time>2024-05-20T12:46:29.000Z</time>
      </trkpt>
      <trkpt lat="45.95161" lon="4.73429">
        <ele>171.19999694824</ele>
        <time>2024-05-20T12:46:30.000Z</time>
      </trkpt>
      <trkpt lat="45.95156" lon="4.73422">
        <ele>171.19999694824</ele>
        <time>2024-05-20T12:46:31.000Z</time>
      </trkpt>
      <trkpt lat="45.95151" lon="4.73415">
        <ele>171.19999694824</ele>
        <time>2024-05-20T12:46:32.000Z</time>
      </trkpt>
      <trkpt lat="45.95147" lon="4.73409">
        <ele>171.19999694824</ele>
        <time>2024-05-20T12:46:33.000Z</time>
      </trkpt>
      <trkpt lat="45.95142" lon="4.73402">
        <ele>171.19999694824</ele>
        <time>2024-05-20T12:46:34.000Z</time>
      </trkpt>
      <trkpt lat="45.95137" lon="4.73396">
        <ele>171</ele>
        <time>2024-05-20T12:46:35.000Z</time>
      </trkpt>
      <trkpt lat="45.95132" lon="4.73389">
        <ele>171</ele>
        <time>2024-05-20T12:46:36.000Z</time>
      </trkpt>
      <trkpt lat="45.95127" lon="4.73383">
        <ele>171</ele>
        <time>2024-05-20T12:46:37.000Z</time>
      </trkpt>
      <trkpt lat="45.95122" lon="4.73377">
        <ele>171</ele>
        <time>2024-05-20T12:46:38.000Z</time>
      </trkpt>
      <trkpt lat="45.95117" lon="4.73371">
        <ele>170.80000305176</ele>
        <time>2024-05-20T12:46:39.000Z</time>
      </trkpt>
      <trkpt lat="45.95112" lon="4.73365">
        <ele>170.80000305176</ele>
        <time>2024-05-20T12:46:40.000Z</time>
      </trkpt>
      <trkpt lat="45.95107" lon="4.7336">
        <ele>170.60000610352</ele>
        <time>2024-05-20T12:46:41.000Z</time>
      </trkpt>
      <trkpt lat="45.95101" lon="4.73354">
        <ele>170.39999389648</ele>
        <time>2024-05-20T12:46:42.000Z</time>
      </trkpt>
      <trkpt lat="45.95096" lon="4.73348">
        <ele>170.39999389648</ele>
        <time>2024-05-20T12:46:43.000Z</time>
      </trkpt>
      <trkpt lat="45.95091" lon="4.73342">
        <ele>170.39999389648</ele>
        <time>2024-05-20T12:46:44.000Z</time>
      </trkpt>
      <trkpt lat="45.95086" lon="4.73336">
        <ele>170.39999389648</ele>
        <time>2024-05-20T12:46:45.000Z</time>
      </trkpt>
      <trkpt lat="45.95081" lon="4.7333">
        <ele>170.39999389648</ele>
        <time>2024-05-20T12:46:46.000Z</time>
      </trkpt>
      <trkpt lat="45.95076" lon="4.73325">
        <ele>170.60000610352</ele>
        <time>2024-05-20T12:46:47.000Z</time>
      </trkpt>
      <trkpt lat="45.95071" lon="4.73319">
        <ele>171</ele>
        <time>2024-05-20T12:46:48.000Z</time>
      </trkpt>
      <trkpt lat="45.95066" lon="4.73313">
        <ele>171</ele>
        <time>2024-05-20T12:46:49.000Z</time>
      </trkpt>
      <trkpt lat="45.95061" lon="4.73308">
        <ele>171</ele>
        <time>2024-05-20T12:46:50.000Z</time>
      </trkpt>
      <trkpt lat="45.95056" lon="4.73302">
        <ele>171</ele>
        <time>2024-05-20T12:46:51.000Z</time>
      </trkpt>
      <trkpt lat="45.95051" lon="4.73296">
        <ele>171</ele>
        <time>2024-05-20T12:46:52.000Z</time>
      </trkpt>
      <trkpt lat="45.95046" lon="4.73291">
        <ele>171</ele>
        <time>2024-05-20T12:46:53.000Z</time>
      </trkpt>
      <trkpt lat="45.95041" lon="4.73285">
        <ele>170.80000305176</ele>
        <time>2024-05-20T12:46:54.000Z</time>
      </trkpt>
      <trkpt lat="45.95036" lon="4.73279">
        <ele>170.80000305176</ele>
        <time>2024-05-20T12:46:55.000Z</time>
      </trkpt>
      <trkpt lat="45.95031" lon="4.73274">
        <ele>170.80000305176</ele>
        <time>2024-05-20T12:46:56.000Z</time>
      </trkpt>
      <trkpt lat="45.95026" lon="4.73269">
        <ele>170.80000305176</ele>
        <time>2024-05-20T12:46:57.000Z</time>
      </trkpt>
      <trkpt lat="45.95021" lon="4.73263">
        <ele>171</ele>
        <time>2024-05-20T12:46:58.000Z</time>
      </trkpt>
      <trkpt lat="45.95016" lon="4.73258">
        <ele>171.39999389648</ele>
        <time>2024-05-20T12:46:59.000Z</time>
      </trkpt>
      <trkpt lat="45.9501" lon="4.73253">
        <ele>171.39999389648</ele>
        <time>2024-05-20T12:47:00.000Z</time>
      </trkpt>
      <trkpt lat="45.95005" lon="4.73248">
        <ele>171.39999389648</ele>
        <time>2024-05-20T12:47:01.000Z</time>
      </trkpt>
      <trkpt lat="45.95" lon="4.73243">
        <ele>171.19999694824</ele>
        <time>2024-05-20T12:47:02.000Z</time>
      </trkpt>
      <trkpt lat="45.94994" lon="4.73238">
        <ele>171.19999694824</ele>
        <time>2024-05-20T12:47:03.000Z</time>
      </trkpt>
      <trkpt lat="45.94988" lon="4.73233">
        <ele>171</ele>
        <time>2024-05-20T12:47:04.000Z</time>
      </trkpt>
      <trkpt lat="45.94983" lon="4.73229">
        <ele>170.80000305176</ele>
        <time>2024-05-20T12:47:05.000Z</time>
      </trkpt>
      <trkpt lat="45.94978" lon="4.73226">
        <ele>170.60000610352</ele>
        <time>2024-05-20T12:47:06.000Z</time>
      </trkpt>
      <trkpt lat="45.94973" lon="4.73222">
        <ele>170.60000610352</ele>
        <time>2024-05-20T12:47:07.000Z</time>
      </trkpt>
      <trkpt lat="45.94968" lon="4.73218">
        <ele>170.60000610352</ele>
        <time>2024-05-20T12:47:08.000Z</time>
      </trkpt>
      <trkpt lat="45.94964" lon="4.73213">
        <ele>170.60000610352</ele>
        <time>2024-05-20T12:47:09.000Z</time>
      </trkpt>
      <trkpt lat="45.9496" lon="4.73207">
        <ele>170.60000610352</ele>
        <time>2024-05-20T12:47:10.000Z</time>
      </trkpt>
      <trkpt lat="45.94956" lon="4.73202">
        <ele>170.60000610352</ele>
        <time>2024-05-20T12:47:11.000Z</time>
      </trkpt>
      <trkpt lat="45.94951" lon="4.73198">
        <ele>170.80000305176</ele>
        <time>2024-05-20T12:47:12.000Z</time>
      </trkpt>
      <trkpt lat="45.94947" lon="4.73194">
        <ele>171</ele>
        <time>2024-05-20T12:47:13.000Z</time>
      </trkpt>
      <trkpt lat="45.94942" lon="4.7319">
        <ele>171</ele>
        <time>2024-05-20T12:47:14.000Z</time>
      </trkpt>
      <trkpt lat="45.94938" lon="4.73186">
        <ele>171</ele>
        <time>2024-05-20T12:47:15.000Z</time>
      </trkpt>
      <trkpt lat="45.94933" lon="4.73182">
        <ele>171.19999694824</ele>
        <time>2024-05-20T12:47:16.000Z</time>
      </trkpt>
      <trkpt lat="45.94928" lon="4.73177">
        <ele>171.39999389648</ele>
        <time>2024-05-20T12:47:17.000Z</time>
      </trkpt>
      <trkpt lat="45.94923" lon="4.73173">
        <ele>171.60000610352</ele>
        <time>2024-05-20T12:47:18.000Z</time>
      </trkpt>
      <trkpt lat="45.94918" lon="4.73169">
        <ele>171.60000610352</ele>
        <time>2024-05-20T12:47:19.000Z</time>
      </trkpt>
      <trkpt lat="45.94914" lon="4.73165">
        <ele>171.60000610352</ele>
        <time>2024-05-20T12:47:20.000Z</time>
      </trkpt>
      <trkpt lat="45.94909" lon="4.73162">
        <ele>171.60000610352</ele>
        <time>2024-05-20T12:47:21.000Z</time>
      </trkpt>
      <trkpt lat="45.94903" lon="4.73157">
        <ele>171.80000305176</ele>
        <time>2024-05-20T12:47:22.000Z</time>
      </trkpt>
      <trkpt lat="45.94898" lon="4.73154">
        <ele>171.80000305176</ele>
        <time>2024-05-20T12:47:23.000Z</time>
      </trkpt>
      <trkpt lat="45.94893" lon="4.73151">
        <ele>171.80000305176</ele>
        <time>2024-05-20T12:47:24.000Z</time>
      </trkpt>
      <trkpt lat="45.94888" lon="4.73147">
        <ele>171.80000305176</ele>
        <time>2024-05-20T12:47:25.000Z</time>
      </trkpt>
      <trkpt lat="45.94883" lon="4.73143">
        <ele>171.39999389648</ele>
        <time>2024-05-20T12:47:26.000Z</time>
      </trkpt>
      <trkpt lat="45.94877" lon="4.73138">
        <ele>171.39999389648</ele>
        <time>2024-05-20T12:47:27.000Z</time>
      </trkpt>
      <trkpt lat="45.94872" lon="4.73135">
        <ele>171.39999389648</ele>
        <time>2024-05-20T12:47:28.000Z</time>
      </trkpt>
      <trkpt lat="45.94866" lon="4.73131">
        <ele>171.39999389648</ele>
        <time>2024-05-20T12:47:29.000Z</time>
      </trkpt>
      <trkpt lat="45.9486" lon="4.73127">
        <ele>171.39999389648</ele>
        <time>2024-05-20T12:47:30.000Z</time>
      </trkpt>
      <trkpt lat="45.94854" lon="4.73123">
        <ele>171.39999389648</ele>
        <time>2024-05-20T12:47:31.000Z</time>
      </trkpt>
      <trkpt lat="45.94848" lon="4.7312">
        <ele>171.39999389648</ele>
        <time>2024-05-20T12:47:32.000Z</time>
      </trkpt>
      <trkpt lat="45.94842" lon="4.73116">
        <ele>171.19999694824</ele>
        <time>2024-05-20T12:47:33.000Z</time>
      </trkpt>
      <trkpt lat="45.94837" lon="4.73113">
        <ele>171.19999694824</ele>
        <time>2024-05-20T12:47:34.000Z</time>
      </trkpt>
      <trkpt lat="45.94831" lon="4.73109">
        <ele>171.19999694824</ele>
        <time>2024-05-20T12:47:35.000Z</time>
      </trkpt>
      <trkpt lat="45.94825" lon="4.73106">
        <ele>171.19999694824</ele>
        <time>2024-05-20T12:47:36.000Z</time>
      </trkpt>
      <trkpt lat="45.94819" lon="4.73103">
        <ele>171.19999694824</ele>
        <time>2024-05-20T12:47:37.000Z</time>
      </trkpt>
      <trkpt lat="45.94813" lon="4.731">
        <ele>171.19999694824</ele>
        <time>2024-05-20T12:47:38.000Z</time>
      </trkpt>
      <trkpt lat="45.94806" lon="4.73096">
        <ele>171.39999389648</ele>
        <time>2024-05-20T12:47:39.000Z</time>
      </trkpt>
      <trkpt lat="45.948" lon="4.73093">
        <ele>171.39999389648</ele>
        <time>2024-05-20T12:47:40.000Z</time>
      </trkpt>
      <trkpt lat="45.94793" lon="4.73089">
        <ele>171.39999389648</ele>
        <time>2024-05-20T12:47:41.000Z</time>
      </trkpt>
      <trkpt lat="45.94788" lon="4.73085">
        <ele>171.39999389648</ele>
        <time>2024-05-20T12:47:42.000Z</time>
      </trkpt>
      <trkpt lat="45.94781" lon="4.73082">
        <ele>171.19999694824</ele>
        <time>2024-05-20T12:47:43.000Z</time>
      </trkpt>
      <trkpt lat="45.94776" lon="4.73078">
        <ele>171.19999694824</ele>
        <time>2024-05-20T12:47:44.000Z</time>
      </trkpt>
      <trkpt lat="45.94769" lon="4.73075">
        <ele>171.19999694824</ele>
        <time>2024-05-20T12:47:45.000Z</time>
      </trkpt>
      <trkpt lat="45.94763" lon="4.73072">
        <ele>171.19999694824</ele>
        <time>2024-05-20T12:47:46.000Z</time>
      </trkpt>
      <trkpt lat="45.94756" lon="4.73068">
        <ele>171.19999694824</ele>
        <time>2024-05-20T12:47:47.000Z</time>
      </trkpt>
      <trkpt lat="45.94749" lon="4.73064">
        <ele>171.19999694824</ele>
        <time>2024-05-20T12:47:48.000Z</time>
      </trkpt>
      <trkpt lat="45.94743" lon="4.73061">
        <ele>171.39999389648</ele>
        <time>2024-05-20T12:47:49.000Z</time>
      </trkpt>
      <trkpt lat="45.94736" lon="4.73058">
        <ele>171.39999389648</ele>
        <time>2024-05-20T12:47:50.000Z</time>
      </trkpt>
      <trkpt lat="45.9473" lon="4.73055">
        <ele>171.39999389648</ele>
        <time>2024-05-20T12:47:51.000Z</time>
      </trkpt>
      <trkpt lat="45.94724" lon="4.73053">
        <ele>171.39999389648</ele>
        <time>2024-05-20T12:47:52.000Z</time>
      </trkpt>
      <trkpt lat="45.94718" lon="4.7305">
        <ele>171.39999389648</ele>
        <time>2024-05-20T12:47:53.000Z</time>
      </trkpt>
      <trkpt lat="45.94712" lon="4.73047">
        <ele>171.39999389648</ele>
        <time>2024-05-20T12:47:54.000Z</time>
      </trkpt>
      <trkpt lat="45.94706" lon="4.73044">
        <ele>171.39999389648</ele>
        <time>2024-05-20T12:47:55.000Z</time>
      </trkpt>
      <trkpt lat="45.947" lon="4.73042">
        <ele>171.39999389648</ele>
        <time>2024-05-20T12:47:56.000Z</time>
      </trkpt>
      <trkpt lat="45.94693" lon="4.73039">
        <ele>171.39999389648</ele>
        <time>2024-05-20T12:47:57.000Z</time>
      </trkpt>
      <trkpt lat="45.94687" lon="4.73037">
        <ele>171.39999389648</ele>
        <time>2024-05-20T12:47:58.000Z</time>
      </trkpt>
      <trkpt lat="45.94681" lon="4.73034">
        <ele>171.39999389648</ele>
        <time>2024-05-20T12:47:59.000Z</time>
      </trkpt>
      <trkpt lat="45.94675" lon="4.73031">
        <ele>171.39999389648</ele>
        <time>2024-05-20T12:48:00.000Z</time>
      </trkpt>
      <trkpt lat="45.94669" lon="4.73029">
        <ele>171.39999389648</ele>
        <time>2024-05-20T12:48:01.000Z</time>
      </trkpt>
      <trkpt lat="45.94662" lon="4.73027">
        <ele>171.39999389648</ele>
        <time>2024-05-20T12:48:02.000Z</time>
      </trkpt>
      <trkpt lat="45.94656" lon="4.73025">
        <ele>171.39999389648</ele>
        <time>2024-05-20T12:48:03.000Z</time>
      </trkpt>
      <trkpt lat="45.9465" lon="4.73023">
        <ele>171.39999389648</ele>
        <time>2024-05-20T12:48:04.000Z</time>
      </trkpt>
      <trkpt lat="45.94644" lon="4.73022">
        <ele>171.39999389648</ele>
        <time>2024-05-20T12:48:05.000Z</time>
      </trkpt>
      <trkpt lat="45.94637" lon="4.7302">
        <ele>171.39999389648</ele>
        <time>2024-05-20T12:48:06.000Z</time>
      </trkpt>
      <trkpt lat="45.9463" lon="4.73019">
        <ele>171.39999389648</ele>
        <time>2024-05-20T12:48:07.000Z</time>
      </trkpt>
      <trkpt lat="45.94624" lon="4.73018">
        <ele>171.39999389648</ele>
        <time>2024-05-20T12:48:08.000Z</time>
      </trkpt>
      <trkpt lat="45.94617" lon="4.73017">
        <ele>171.39999389648</ele>
        <time>2024-05-20T12:48:09.000Z</time>
      </trkpt>
      <trkpt lat="45.94611" lon="4.73016">
        <ele>171.39999389648</ele>
        <time>2024-05-20T12:48:10.000Z</time>
      </trkpt>
      <trkpt lat="45.94604" lon="4.73015">
        <ele>171.39999389648</ele>
        <time>2024-05-20T12:48:11.000Z</time>
      </trkpt>
      <trkpt lat="45.94597" lon="4.73015">
        <ele>171.60000610352</ele>
        <time>2024-05-20T12:48:12.000Z</time>
      </trkpt>
      <trkpt lat="45.9459" lon="4.73014">
        <ele>171.60000610352</ele>
        <time>2024-05-20T12:48:13.000Z</time>
      </trkpt>
      <trkpt lat="45.94584" lon="4.73012">
        <ele>171.80000305176</ele>
        <time>2024-05-20T12:48:14.000Z</time>
      </trkpt>
      <trkpt lat="45.94577" lon="4.73011">
        <ele>171.80000305176</ele>
        <time>2024-05-20T12:48:15.000Z</time>
      </trkpt>
      <trkpt lat="45.94571" lon="4.7301">
        <ele>171.80000305176</ele>
        <time>2024-05-20T12:48:16.000Z</time>
      </trkpt>
      <trkpt lat="45.94564" lon="4.7301">
        <ele>171.80000305176</ele>
        <time>2024-05-20T12:48:17.000Z</time>
      </trkpt>
      <trkpt lat="45.94557" lon="4.73009">
        <ele>171.80000305176</ele>
        <time>2024-05-20T12:48:18.000Z</time>
      </trkpt>
      <trkpt lat="45.94551" lon="4.73009">
        <ele>171.80000305176</ele>
        <time>2024-05-20T12:48:19.000Z</time>
      </trkpt>
      <trkpt lat="45.94544" lon="4.73009">
        <ele>171.60000610352</ele>
        <time>2024-05-20T12:48:20.000Z</time>
      </trkpt>
      <trkpt lat="45.94537" lon="4.73009">
        <ele>171.39999389648</ele>
        <time>2024-05-20T12:48:21.000Z</time>
      </trkpt>
      <trkpt lat="45.94531" lon="4.73009">
        <ele>171</ele>
        <time>2024-05-20T12:48:22.000Z</time>
      </trkpt>
      <trkpt lat="45.94524" lon="4.7301">
        <ele>171</ele>
        <time>2024-05-20T12:48:23.000Z</time>
      </trkpt>
      <trkpt lat="45.94518" lon="4.7301">
        <ele>171</ele>
        <time>2024-05-20T12:48:24.000Z</time>
      </trkpt>
      <trkpt lat="45.94511" lon="4.7301">
        <ele>170.80000305176</ele>
        <time>2024-05-20T12:48:25.000Z</time>
      </trkpt>
      <trkpt lat="45.94505" lon="4.7301">
        <ele>170.60000610352</ele>
        <time>2024-05-20T12:48:26.000Z</time>
      </trkpt>
      <trkpt lat="45.94499" lon="4.73011">
        <ele>170.60000610352</ele>
        <time>2024-05-20T12:48:27.000Z</time>
      </trkpt>
      <trkpt lat="45.94492" lon="4.73011">
        <ele>170.60000610352</ele>
        <time>2024-05-20T12:48:28.000Z</time>
      </trkpt>
      <trkpt lat="45.94486" lon="4.73012">
        <ele>170.60000610352</ele>
        <time>2024-05-20T12:48:29.000Z</time>
      </trkpt>
      <trkpt lat="45.94479" lon="4.73013">
        <ele>170.60000610352</ele>
        <time>2024-05-20T12:48:30.000Z</time>
      </trkpt>
      <trkpt lat="45.94473" lon="4.73013">
        <ele>170.80000305176</ele>
        <time>2024-05-20T12:48:31.000Z</time>
      </trkpt>
      <trkpt lat="45.94467" lon="4.73014">
        <ele>170.80000305176</ele>
        <time>2024-05-20T12:48:32.000Z</time>
      </trkpt>
      <trkpt lat="45.94461" lon="4.73014">
        <ele>170.80000305176</ele>
        <time>2024-05-20T12:48:33.000Z</time>
      </trkpt>
      <trkpt lat="45.94455" lon="4.73015">
        <ele>170.80000305176</ele>
        <time>2024-05-20T12:48:34.000Z</time>
      </trkpt>
      <trkpt lat="45.9445" lon="4.73016">
        <ele>170.80000305176</ele>
        <time>2024-05-20T12:48:35.000Z</time>
      </trkpt>
      <trkpt lat="45.94444" lon="4.73018">
        <ele>170.80000305176</ele>
        <time>2024-05-20T12:48:36.000Z</time>
      </trkpt>
      <trkpt lat="45.9444" lon="4.73022">
        <ele>171</ele>
        <time>2024-05-20T12:48:37.000Z</time>
      </trkpt>
      <trkpt lat="45.94435" lon="4.73028">
        <ele>171.19999694824</ele>
        <time>2024-05-20T12:48:38.000Z</time>
      </trkpt>
      <trkpt lat="45.94431" lon="4.73033">
        <ele>171.19999694824</ele>
        <time>2024-05-20T12:48:39.000Z</time>
      </trkpt>
      <trkpt lat="45.94426" lon="4.73039">
        <ele>171.19999694824</ele>
        <time>2024-05-20T12:48:40.000Z</time>
      </trkpt>
      <trkpt lat="45.94422" lon="4.73044">
        <ele>171.39999389648</ele>
        <time>2024-05-20T12:48:41.000Z</time>
      </trkpt>
      <trkpt lat="45.94417" lon="4.7305">
        <ele>171.39999389648</ele>
        <time>2024-05-20T12:48:42.000Z</time>
      </trkpt>
      <trkpt lat="45.94412" lon="4.73056">
        <ele>171.60000610352</ele>
        <time>2024-05-20T12:48:43.000Z</time>
      </trkpt>
      <trkpt lat="45.94407" lon="4.73062">
        <ele>171.60000610352</ele>
        <time>2024-05-20T12:48:44.000Z</time>
      </trkpt>
      <trkpt lat="45.94402" lon="4.73068">
        <ele>171.60000610352</ele>
        <time>2024-05-20T12:48:45.000Z</time>
      </trkpt>
      <trkpt lat="45.94397" lon="4.73073">
        <ele>171.60000610352</ele>
        <time>2024-05-20T12:48:46.000Z</time>
      </trkpt>
      <trkpt lat="45.94392" lon="4.73078">
        <ele>171.39999389648</ele>
        <time>2024-05-20T12:48:47.000Z</time>
      </trkpt>
      <trkpt lat="45.94387" lon="4.73083">
        <ele>171.39999389648</ele>
        <time>2024-05-20T12:48:48.000Z</time>
      </trkpt>
      <trkpt lat="45.94381" lon="4.73088">
        <ele>171.39999389648</ele>
        <time>2024-05-20T12:48:49.000Z</time>
      </trkpt>
      <trkpt lat="45.94375" lon="4.73093">
        <ele>171.39999389648</ele>
        <time>2024-05-20T12:48:50.000Z</time>
      </trkpt>
      <trkpt lat="45.94369" lon="4.73097">
        <ele>171.39999389648</ele>
        <time>2024-05-20T12:48:51.000Z</time>
      </trkpt>
      <trkpt lat="45.94363" lon="4.73103">
        <ele>171.60000610352</ele>
        <time>2024-05-20T12:48:52.000Z</time>
      </trkpt>
      <trkpt lat="45.94357" lon="4.73108">
        <ele>171.60000610352</ele>
        <time>2024-05-20T12:48:53.000Z</time>
      </trkpt>
      <trkpt lat="45.94352" lon="4.73113">
        <ele>171.80000305176</ele>
        <time>2024-05-20T12:48:54.000Z</time>
      </trkpt>
      <trkpt lat="45.94346" lon="4.73118">
        <ele>171.80000305176</ele>
        <time>2024-05-20T12:48:55.000Z</time>
      </trkpt>
      <trkpt lat="45.9434" lon="4.73122">
        <ele>171.80000305176</ele>
        <time>2024-05-20T12:48:56.000Z</time>
      </trkpt>
      <trkpt lat="45.94335" lon="4.73127">
        <ele>171.80000305176</ele>
        <time>2024-05-20T12:48:57.000Z</time>
      </trkpt>
      <trkpt lat="45.94329" lon="4.73132">
        <ele>171.60000610352</ele>
        <time>2024-05-20T12:48:58.000Z</time>
      </trkpt>
      <trkpt lat="45.94323" lon="4.73137">
        <ele>171.60000610352</ele>
        <time>2024-05-20T12:48:59.000Z</time>
      </trkpt>
      <trkpt lat="45.94318" lon="4.73142">
        <ele>171.60000610352</ele>
        <time>2024-05-20T12:49:00.000Z</time>
      </trkpt>
      <trkpt lat="45.94312" lon="4.73146">
        <ele>171.60000610352</ele>
        <time>2024-05-20T12:49:01.000Z</time>
      </trkpt>
      <trkpt lat="45.94306" lon="4.73151">
        <ele>171.60000610352</ele>
        <time>2024-05-20T12:49:02.000Z</time>
      </trkpt>
      <trkpt lat="45.943" lon="4.73156">
        <ele>171.39999389648</ele>
        <time>2024-05-20T12:49:03.000Z</time>
      </trkpt>
      <trkpt lat="45.94294" lon="4.73161">
        <ele>171.39999389648</ele>
        <time>2024-05-20T12:49:04.000Z</time>
      </trkpt>
      <trkpt lat="45.94289" lon="4.73165">
        <ele>171.39999389648</ele>
        <time>2024-05-20T12:49:05.000Z</time>
      </trkpt>
      <trkpt lat="45.94283" lon="4.7317">
        <ele>171</ele>
        <time>2024-05-20T12:49:06.000Z</time>
      </trkpt>
      <trkpt lat="45.94277" lon="4.73175">
        <ele>170.80000305176</ele>
        <time>2024-05-20T12:49:07.000Z</time>
      </trkpt>
      <trkpt lat="45.94272" lon="4.73179">
        <ele>170.60000610352</ele>
        <time>2024-05-20T12:49:08.000Z</time>
      </trkpt>
      <trkpt lat="45.94266" lon="4.73184">
        <ele>170.39999389648</ele>
        <time>2024-05-20T12:49:09.000Z</time>
      </trkpt>
      <trkpt lat="45.9426" lon="4.73188">
        <ele>170.19999694824</ele>
        <time>2024-05-20T12:49:10.000Z</time>
      </trkpt>
      <trkpt lat="45.94255" lon="4.73192">
        <ele>170.19999694824</ele>
        <time>2024-05-20T12:49:11.000Z</time>
      </trkpt>
      <trkpt lat="45.9425" lon="4.73197">
        <ele>170.19999694824</ele>
        <time>2024-05-20T12:49:12.000Z</time>
      </trkpt>
      <trkpt lat="45.94244" lon="4.73202">
        <ele>170.19999694824</ele>
        <time>2024-05-20T12:49:13.000Z</time>
      </trkpt>
      <trkpt lat="45.94239" lon="4.73207">
        <ele>170.19999694824</ele>
        <time>2024-05-20T12:49:14.000Z</time>
      </trkpt>
      <trkpt lat="45.94234" lon="4.73213">
        <ele>170.19999694824</ele>
        <time>2024-05-20T12:49:15.000Z</time>
      </trkpt>
      <trkpt lat="45.94228" lon="4.73217">
        <ele>170.39999389648</ele>
        <time>2024-05-20T12:49:16.000Z</time>
      </trkpt>
      <trkpt lat="45.94222" lon="4.73221">
        <ele>170.80000305176</ele>
        <time>2024-05-20T12:49:17.000Z</time>
      </trkpt>
      <trkpt lat="45.94216" lon="4.73225">
        <ele>171</ele>
        <time>2024-05-20T12:49:18.000Z</time>
      </trkpt>
      <trkpt lat="45.9421" lon="4.7323">
        <ele>171</ele>
        <time>2024-05-20T12:49:19.000Z</time>
      </trkpt>
      <trkpt lat="45.94204" lon="4.73234">
        <ele>171</ele>
        <time>2024-05-20T12:49:20.000Z</time>
      </trkpt>
      <trkpt lat="45.94199" lon="4.73239">
        <ele>171</ele>
        <time>2024-05-20T12:49:21.000Z</time>
      </trkpt>
      <trkpt lat="45.94193" lon="4.73244">
        <ele>171</ele>
        <time>2024-05-20T12:49:22.000Z</time>
      </trkpt>
      <trkpt lat="45.94188" lon="4.73249">
        <ele>171</ele>
        <time>2024-05-20T12:49:23.000Z</time>
      </trkpt>
      <trkpt lat="45.94182" lon="4.73254">
        <ele>171</ele>
        <time>2024-05-20T12:49:24.000Z</time>
      </trkpt>
      <trkpt lat="45.94177" lon="4.73259">
        <ele>171</ele>
        <time>2024-05-20T12:49:25.000Z</time>
      </trkpt>
      <trkpt lat="45.94171" lon="4.73264">
        <ele>171</ele>
        <time>2024-05-20T12:49:26.000Z</time>
      </trkpt>
      <trkpt lat="45.94165" lon="4.7327">
        <ele>171</ele>
        <time>2024-05-20T12:49:27.000Z</time>
      </trkpt>
      <trkpt lat="45.9416" lon="4.73275">
        <ele>171.19999694824</ele>
        <time>2024-05-20T12:49:28.000Z</time>
      </trkpt>
      <trkpt lat="45.94155" lon="4.73281">
        <ele>171.19999694824</ele>
        <time>2024-05-20T12:49:29.000Z</time>
      </trkpt>
      <trkpt lat="45.9415" lon="4.73287">
        <ele>171.19999694824</ele>
        <time>2024-05-20T12:49:30.000Z</time>
      </trkpt>
      <trkpt lat="45.94145" lon="4.73293">
        <ele>171.19999694824</ele>
        <time>2024-05-20T12:49:31.000Z</time>
      </trkpt>
      <trkpt lat="45.9414" lon="4.733">
        <ele>171</ele>
        <time>2024-05-20T12:49:32.000Z</time>
      </trkpt>
      <trkpt lat="45.94135" lon="4.73307">
        <ele>171</ele>
        <time>2024-05-20T12:49:33.000Z</time>
      </trkpt>
      <trkpt lat="45.9413" lon="4.73313">
        <ele>171</ele>
        <time>2024-05-20T12:49:34.000Z</time>
      </trkpt>
      <trkpt lat="45.94126" lon="4.7332">
        <ele>171</ele>
        <time>2024-05-20T12:49:35.000Z</time>
      </trkpt>
      <trkpt lat="45.94122" lon="4.73326">
        <ele>171</ele>
        <time>2024-05-20T12:49:36.000Z</time>
      </trkpt>
      <trkpt lat="45.94118" lon="4.73333">
        <ele>171.19999694824</ele>
        <time>2024-05-20T12:49:37.000Z</time>
      </trkpt>
      <trkpt lat="45.94114" lon="4.7334">
        <ele>171.39999389648</ele>
        <time>2024-05-20T12:49:38.000Z</time>
      </trkpt>
      <trkpt lat="45.94109" lon="4.73347">
        <ele>171.39999389648</ele>
        <time>2024-05-20T12:49:39.000Z</time>
      </trkpt>
      <trkpt lat="45.94105" lon="4.73354">
        <ele>171.39999389648</ele>
        <time>2024-05-20T12:49:40.000Z</time>
      </trkpt>
      <trkpt lat="45.941" lon="4.73361">
        <ele>171.39999389648</ele>
        <time>2024-05-20T12:49:41.000Z</time>
      </trkpt>
      <trkpt lat="45.94095" lon="4.73368">
        <ele>171.39999389648</ele>
        <time>2024-05-20T12:49:42.000Z</time>
      </trkpt>
      <trkpt lat="45.94091" lon="4.73375">
        <ele>171.39999389648</ele>
        <time>2024-05-20T12:49:43.000Z</time>
      </trkpt>
      <trkpt lat="45.94086" lon="4.73382">
        <ele>171.39999389648</ele>
        <time>2024-05-20T12:49:44.000Z</time>
      </trkpt>
      <trkpt lat="45.94082" lon="4.73389">
        <ele>171.39999389648</ele>
        <time>2024-05-20T12:49:45.000Z</time>
      </trkpt>
      <trkpt lat="45.94077" lon="4.73396">
        <ele>171.39999389648</ele>
        <time>2024-05-20T12:49:46.000Z</time>
      </trkpt>
      <trkpt lat="45.94073" lon="4.73403">
        <ele>171.39999389648</ele>
        <time>2024-05-20T12:49:47.000Z</time>
      </trkpt>
      <trkpt lat="45.94069" lon="4.73411">
        <ele>171.39999389648</ele>
        <time>2024-05-20T12:49:48.000Z</time>
      </trkpt>
      <trkpt lat="45.94065" lon="4.73418">
        <ele>171.39999389648</ele>
        <time>2024-05-20T12:49:49.000Z</time>
      </trkpt>
      <trkpt lat="45.9406" lon="4.73425">
        <ele>171.39999389648</ele>
        <time>2024-05-20T12:49:50.000Z</time>
      </trkpt>
      <trkpt lat="45.94056" lon="4.73433">
        <ele>171.19999694824</ele>
        <time>2024-05-20T12:49:51.000Z</time>
      </trkpt>
      <trkpt lat="45.94052" lon="4.7344">
        <ele>171</ele>
        <time>2024-05-20T12:49:52.000Z</time>
      </trkpt>
      <trkpt lat="45.94048" lon="4.73447">
        <ele>171</ele>
        <time>2024-05-20T12:49:53.000Z</time>
      </trkpt>
      <trkpt lat="45.94043" lon="4.73455">
        <ele>171</ele>
        <time>2024-05-20T12:49:54.000Z</time>
      </trkpt>
      <trkpt lat="45.94039" lon="4.73462">
        <ele>171</ele>
        <time>2024-05-20T12:49:55.000Z</time>
      </trkpt>
      <trkpt lat="45.94036" lon="4.7347">
        <ele>171</ele>
        <time>2024-05-20T12:49:56.000Z</time>
      </trkpt>
      <trkpt lat="45.94032" lon="4.73477">
        <ele>171</ele>
        <time>2024-05-20T12:49:57.000Z</time>
      </trkpt>
      <trkpt lat="45.94028" lon="4.73485">
        <ele>170.80000305176</ele>
        <time>2024-05-20T12:49:58.000Z</time>
      </trkpt>
      <trkpt lat="45.94024" lon="4.73492">
        <ele>170.80000305176</ele>
        <time>2024-05-20T12:49:59.000Z</time>
      </trkpt>
      <trkpt lat="45.9402" lon="4.73499">
        <ele>170.39999389648</ele>
        <time>2024-05-20T12:50:00.000Z</time>
      </trkpt>
      <trkpt lat="45.94016" lon="4.73506">
        <ele>170.39999389648</ele>
        <time>2024-05-20T12:50:01.000Z</time>
      </trkpt>
      <trkpt lat="45.94012" lon="4.73513">
        <ele>170.39999389648</ele>
        <time>2024-05-20T12:50:02.000Z</time>
      </trkpt>
      <trkpt lat="45.94008" lon="4.73521">
        <ele>170.39999389648</ele>
        <time>2024-05-20T12:50:03.000Z</time>
      </trkpt>
      <trkpt lat="45.94005" lon="4.73528">
        <ele>170.60000610352</ele>
        <time>2024-05-20T12:50:04.000Z</time>
      </trkpt>
      <trkpt lat="45.94001" lon="4.73536">
        <ele>170.80000305176</ele>
        <time>2024-05-20T12:50:05.000Z</time>
      </trkpt>
      <trkpt lat="45.93998" lon="4.73545">
        <ele>171</ele>
        <time>2024-05-20T12:50:06.000Z</time>
      </trkpt>
      <trkpt lat="45.93995" lon="4.73553">
        <ele>171</ele>
        <time>2024-05-20T12:50:07.000Z</time>
      </trkpt>
      <trkpt lat="45.93992" lon="4.73562">
        <ele>171.39999389648</ele>
        <time>2024-05-20T12:50:08.000Z</time>
      </trkpt>
      <trkpt lat="45.93989" lon="4.7357">
        <ele>171.39999389648</ele>
        <time>2024-05-20T12:50:09.000Z</time>
      </trkpt>
      <trkpt lat="45.93987" lon="4.73579">
        <ele>171.39999389648</ele>
        <time>2024-05-20T12:50:10.000Z</time>
      </trkpt>
      <trkpt lat="45.93984" lon="4.73587">
        <ele>171.39999389648</ele>
        <time>2024-05-20T12:50:11.000Z</time>
      </trkpt>
      <trkpt lat="45.93982" lon="4.73595">
        <ele>171.39999389648</ele>
        <time>2024-05-20T12:50:12.000Z</time>
      </trkpt>
      <trkpt lat="45.93979" lon="4.73603">
        <ele>171.39999389648</ele>
        <time>2024-05-20T12:50:13.000Z</time>
      </trkpt>
      <trkpt lat="45.93976" lon="4.73611">
        <ele>171.19999694824</ele>
        <time>2024-05-20T12:50:14.000Z</time>
      </trkpt>
      <trkpt lat="45.93974" lon="4.7362">
        <ele>171.19999694824</ele>
        <time>2024-05-20T12:50:15.000Z</time>
      </trkpt>
      <trkpt lat="45.93972" lon="4.73628">
        <ele>170.80000305176</ele>
        <time>2024-05-20T12:50:16.000Z</time>
      </trkpt>
      <trkpt lat="45.9397" lon="4.73637">
        <ele>170.80000305176</ele>
        <time>2024-05-20T12:50:17.000Z</time>
      </trkpt>
      <trkpt lat="45.93968" lon="4.73645">
        <ele>170.80000305176</ele>
        <time>2024-05-20T12:50:18.000Z</time>
      </trkpt>
      <trkpt lat="45.93967" lon="4.73654">
        <ele>170.80000305176</ele>
        <time>2024-05-20T12:50:19.000Z</time>
      </trkpt>
      <trkpt lat="45.93965" lon="4.73663">
        <ele>171</ele>
        <time>2024-05-20T12:50:20.000Z</time>
      </trkpt>
      <trkpt lat="45.93963" lon="4.73672">
        <ele>171.19999694824</ele>
        <time>2024-05-20T12:50:21.000Z</time>
      </trkpt>
      <trkpt lat="45.93962" lon="4.7368">
        <ele>171.39999389648</ele>
        <time>2024-05-20T12:50:22.000Z</time>
      </trkpt>
      <trkpt lat="45.9396" lon="4.73689">
        <ele>171.39999389648</ele>
        <time>2024-05-20T12:50:23.000Z</time>
      </trkpt>
      <trkpt lat="45.93959" lon="4.73698">
        <ele>171.39999389648</ele>
        <time>2024-05-20T12:50:24.000Z</time>
      </trkpt>
      <trkpt lat="45.93958" lon="4.73707">
        <ele>171.39999389648</ele>
        <time>2024-05-20T12:50:25.000Z</time>
      </trkpt>
      <trkpt lat="45.93957" lon="4.73717">
        <ele>171.39999389648</ele>
        <time>2024-05-20T12:50:26.000Z</time>
      </trkpt>
      <trkpt lat="45.93956" lon="4.73726">
        <ele>171.39999389648</ele>
        <time>2024-05-20T12:50:27.000Z</time>
      </trkpt>
      <trkpt lat="45.93955" lon="4.73735">
        <ele>171.19999694824</ele>
        <time>2024-05-20T12:50:28.000Z</time>
      </trkpt>
      <trkpt lat="45.93954" lon="4.73744">
        <ele>171</ele>
        <time>2024-05-20T12:50:29.000Z</time>
      </trkpt>
      <trkpt lat="45.93953" lon="4.73753">
        <ele>171</ele>
        <time>2024-05-20T12:50:30.000Z</time>
      </trkpt>
      <trkpt lat="45.93952" lon="4.73762">
        <ele>170.80000305176</ele>
        <time>2024-05-20T12:50:31.000Z</time>
      </trkpt>
      <trkpt lat="45.93952" lon="4.73771">
        <ele>170.80000305176</ele>
        <time>2024-05-20T12:50:32.000Z</time>
      </trkpt>
      <trkpt lat="45.93951" lon="4.7378">
        <ele>170.80000305176</ele>
        <time>2024-05-20T12:50:33.000Z</time>
      </trkpt>
      <trkpt lat="45.9395" lon="4.73789">
        <ele>170.80000305176</ele>
        <time>2024-05-20T12:50:34.000Z</time>
      </trkpt>
      <trkpt lat="45.93949" lon="4.73798">
        <ele>170.80000305176</ele>
        <time>2024-05-20T12:50:35.000Z</time>
      </trkpt>
      <trkpt lat="45.93948" lon="4.73807">
        <ele>170.80000305176</ele>
        <time>2024-05-20T12:50:36.000Z</time>
      </trkpt>
      <trkpt lat="45.93947" lon="4.73816">
        <ele>170.80000305176</ele>
        <time>2024-05-20T12:50:37.000Z</time>
      </trkpt>
      <trkpt lat="45.93946" lon="4.73825">
        <ele>171</ele>
        <time>2024-05-20T12:50:38.000Z</time>
      </trkpt>
      <trkpt lat="45.93945" lon="4.73834">
        <ele>171</ele>
        <time>2024-05-20T12:50:39.000Z</time>
      </trkpt>
      <trkpt lat="45.93944" lon="4.73844">
        <ele>171.19999694824</ele>
        <time>2024-05-20T12:50:40.000Z</time>
      </trkpt>
      <trkpt lat="45.93943" lon="4.73853">
        <ele>171.19999694824</ele>
        <time>2024-05-20T12:50:41.000Z</time>
      </trkpt>
      <trkpt lat="45.93942" lon="4.73862">
        <ele>171.19999694824</ele>
        <time>2024-05-20T12:50:42.000Z</time>
      </trkpt>
      <trkpt lat="45.93941" lon="4.73872">
        <ele>171.19999694824</ele>
        <time>2024-05-20T12:50:43.000Z</time>
      </trkpt>
      <trkpt lat="45.9394" lon="4.73881">
        <ele>171.19999694824</ele>
        <time>2024-05-20T12:50:44.000Z</time>
      </trkpt>
      <trkpt lat="45.93939" lon="4.73891">
        <ele>171.19999694824</ele>
        <time>2024-05-20T12:50:45.000Z</time>
      </trkpt>
      <trkpt lat="45.93938" lon="4.739">
        <ele>171.19999694824</ele>
        <time>2024-05-20T12:50:46.000Z</time>
      </trkpt>
      <trkpt lat="45.93937" lon="4.73909">
        <ele>171.19999694824</ele>
        <time>2024-05-20T12:50:47.000Z</time>
      </trkpt>
      <trkpt lat="45.93936" lon="4.73919">
        <ele>171.19999694824</ele>
        <time>2024-05-20T12:50:48.000Z</time>
      </trkpt>
      <trkpt lat="45.93934" lon="4.73928">
        <ele>171.19999694824</ele>
        <time>2024-05-20T12:50:49.000Z</time>
      </trkpt>
      <trkpt lat="45.93934" lon="4.73937">
        <ele>171</ele>
        <time>2024-05-20T12:50:50.000Z</time>
      </trkpt>
      <trkpt lat="45.93933" lon="4.73946">
        <ele>170.80000305176</ele>
        <time>2024-05-20T12:50:51.000Z</time>
      </trkpt>
      <trkpt lat="45.93932" lon="4.73955">
        <ele>170.60000610352</ele>
        <time>2024-05-20T12:50:52.000Z</time>
      </trkpt>
      <trkpt lat="45.9393" lon="4.73963">
        <ele>170.19999694824</ele>
        <time>2024-05-20T12:50:53.000Z</time>
      </trkpt>
      <trkpt lat="45.93929" lon="4.73972">
        <ele>170</ele>
        <time>2024-05-20T12:50:54.000Z</time>
      </trkpt>
      <trkpt lat="45.93928" lon="4.73981">
        <ele>170</ele>
        <time>2024-05-20T12:50:55.000Z</time>
      </trkpt>
      <trkpt lat="45.93927" lon="4.7399">
        <ele>170</ele>
        <time>2024-05-20T12:50:56.000Z</time>
      </trkpt>
      <trkpt lat="45.93926" lon="4.73999">
        <ele>170</ele>
        <time>2024-05-20T12:50:57.000Z</time>
      </trkpt>
      <trkpt lat="45.93925" lon="4.74008">
        <ele>170.19999694824</ele>
        <time>2024-05-20T12:50:58.000Z</time>
      </trkpt>
      <trkpt lat="45.93924" lon="4.74017">
        <ele>170.39999389648</ele>
        <time>2024-05-20T12:50:59.000Z</time>
      </trkpt>
      <trkpt lat="45.93924" lon="4.74027">
        <ele>170.39999389648</ele>
        <time>2024-05-20T12:51:00.000Z</time>
      </trkpt>
      <trkpt lat="45.93923" lon="4.74036">
        <ele>170.60000610352</ele>
        <time>2024-05-20T12:51:01.000Z</time>
      </trkpt>
      <trkpt lat="45.93922" lon="4.74045">
        <ele>170.60000610352</ele>
        <time>2024-05-20T12:51:02.000Z</time>
      </trkpt>
      <trkpt lat="45.93921" lon="4.74054">
        <ele>171</ele>
        <time>2024-05-20T12:51:03.000Z</time>
      </trkpt>
      <trkpt lat="45.9392" lon="4.74063">
        <ele>171</ele>
        <time>2024-05-20T12:51:04.000Z</time>
      </trkpt>
      <trkpt lat="45.93919" lon="4.74073">
        <ele>171</ele>
        <time>2024-05-20T12:51:05.000Z</time>
      </trkpt>
      <trkpt lat="45.93919" lon="4.74082">
        <ele>171.19999694824</ele>
        <time>2024-05-20T12:51:06.000Z</time>
      </trkpt>
      <trkpt lat="45.93918" lon="4.74091">
        <ele>171.19999694824</ele>
        <time>2024-05-20T12:51:07.000Z</time>
      </trkpt>
      <trkpt lat="45.93917" lon="4.74101">
        <ele>171.19999694824</ele>
        <time>2024-05-20T12:51:08.000Z</time>
      </trkpt>
      <trkpt lat="45.93917" lon="4.7411">
        <ele>171.19999694824</ele>
        <time>2024-05-20T12:51:09.000Z</time>
      </trkpt>
      <trkpt lat="45.93916" lon="4.7412">
        <ele>171.19999694824</ele>
        <time>2024-05-20T12:51:10.000Z</time>
      </trkpt>
      <trkpt lat="45.93915" lon="4.7413">
        <ele>171.19999694824</ele>
        <time>2024-05-20T12:51:11.000Z</time>
      </trkpt>
      <trkpt lat="45.93914" lon="4.74139">
        <ele>171.19999694824</ele>
        <time>2024-05-20T12:51:12.000Z</time>
      </trkpt>
      <trkpt lat="45.93913" lon="4.74149">
        <ele>171.19999694824</ele>
        <time>2024-05-20T12:51:13.000Z</time>
      </trkpt>
      <trkpt lat="45.93912" lon="4.74158">
        <ele>171.19999694824</ele>
        <time>2024-05-20T12:51:14.000Z</time>
      </trkpt>
      <trkpt lat="45.93912" lon="4.74168">
        <ele>171.19999694824</ele>
        <time>2024-05-20T12:51:15.000Z</time>
      </trkpt>
      <trkpt lat="45.93911" lon="4.74178">
        <ele>171.19999694824</ele>
        <time>2024-05-20T12:51:16.000Z</time>
      </trkpt>
      <trkpt lat="45.9391" lon="4.74187">
        <ele>171.19999694824</ele>
        <time>2024-05-20T12:51:17.000Z</time>
      </trkpt>
      <trkpt lat="45.9391" lon="4.74197">
        <ele>171.19999694824</ele>
        <time>2024-05-20T12:51:18.000Z</time>
      </trkpt>
      <trkpt lat="45.93909" lon="4.74207">
        <ele>171.19999694824</ele>
        <time>2024-05-20T12:51:19.000Z</time>
      </trkpt>
      <trkpt lat="45.93909" lon="4.74216">
        <ele>171.19999694824</ele>
        <time>2024-05-20T12:51:20.000Z</time>
      </trkpt>
      <trkpt lat="45.93908" lon="4.74226">
        <ele>171.19999694824</ele>
        <time>2024-05-20T12:51:21.000Z</time>
      </trkpt>
      <trkpt lat="45.93907" lon="4.74236">
        <ele>171.19999694824</ele>
        <time>2024-05-20T12:51:22.000Z</time>
      </trkpt>
      <trkpt lat="45.93907" lon="4.74245">
        <ele>171</ele>
        <time>2024-05-20T12:51:23.000Z</time>
      </trkpt>
      <trkpt lat="45.93906" lon="4.74255">
        <ele>171</ele>
        <time>2024-05-20T12:51:24.000Z</time>
      </trkpt>
      <trkpt lat="45.93906" lon="4.74264">
        <ele>170.80000305176</ele>
        <time>2024-05-20T12:51:25.000Z</time>
      </trkpt>
      <trkpt lat="45.93905" lon="4.74273">
        <ele>170.80000305176</ele>
        <time>2024-05-20T12:51:26.000Z</time>
      </trkpt>
      <trkpt lat="45.93905" lon="4.74283">
        <ele>170.80000305176</ele>
        <time>2024-05-20T12:51:27.000Z</time>
      </trkpt>
      <trkpt lat="45.93905" lon="4.74292">
        <ele>170.80000305176</ele>
        <time>2024-05-20T12:51:28.000Z</time>
      </trkpt>
      <trkpt lat="45.93905" lon="4.74301">
        <ele>171</ele>
        <time>2024-05-20T12:51:29.000Z</time>
      </trkpt>
      <trkpt lat="45.93905" lon="4.74311">
        <ele>171</ele>
        <time>2024-05-20T12:51:30.000Z</time>
      </trkpt>
      <trkpt lat="45.93905" lon="4.7432">
        <ele>171</ele>
        <time>2024-05-20T12:51:31.000Z</time>
      </trkpt>
      <trkpt lat="45.93905" lon="4.74329">
        <ele>171</ele>
        <time>2024-05-20T12:51:32.000Z</time>
      </trkpt>
      <trkpt lat="45.93905" lon="4.74339">
        <ele>171</ele>
        <time>2024-05-20T12:51:33.000Z</time>
      </trkpt>
      <trkpt lat="45.93905" lon="4.74348">
        <ele>171</ele>
        <time>2024-05-20T12:51:34.000Z</time>
      </trkpt>
      <trkpt lat="45.93905" lon="4.74357">
        <ele>171.19999694824</ele>
        <time>2024-05-20T12:51:35.000Z</time>
      </trkpt>
      <trkpt lat="45.93905" lon="4.74367">
        <ele>171.19999694824</ele>
        <time>2024-05-20T12:51:36.000Z</time>
      </trkpt>
      <trkpt lat="45.93906" lon="4.74376">
        <ele>171.19999694824</ele>
        <time>2024-05-20T12:51:37.000Z</time>
      </trkpt>
      <trkpt lat="45.93906" lon="4.74385">
        <ele>171.19999694824</ele>
        <time>2024-05-20T12:51:38.000Z</time>
      </trkpt>
      <trkpt lat="45.93907" lon="4.74394">
        <ele>171.19999694824</ele>
        <time>2024-05-20T12:51:39.000Z</time>
      </trkpt>
      <trkpt lat="45.93908" lon="4.74403">
        <ele>171</ele>
        <time>2024-05-20T12:51:40.000Z</time>
      </trkpt>
      <trkpt lat="45.93909" lon="4.74412">
        <ele>170.80000305176</ele>
        <time>2024-05-20T12:51:41.000Z</time>
      </trkpt>
      <trkpt lat="45.9391" lon="4.74422">
        <ele>170.80000305176</ele>
        <time>2024-05-20T12:51:42.000Z</time>
      </trkpt>
      <trkpt lat="45.9391" lon="4.74431">
        <ele>170.80000305176</ele>
        <time>2024-05-20T12:51:43.000Z</time>
      </trkpt>
      <trkpt lat="45.9391" lon="4.7444">
        <ele>171</ele>
        <time>2024-05-20T12:51:44.000Z</time>
      </trkpt>
      <trkpt lat="45.93911" lon="4.7445">
        <ele>171</ele>
        <time>2024-05-20T12:51:45.000Z</time>
      </trkpt>
      <trkpt lat="45.93911" lon="4.74459">
        <ele>171</ele>
        <time>2024-05-20T12:51:46.000Z</time>
      </trkpt>
      <trkpt lat="45.93911" lon="4.74468">
        <ele>171</ele>
        <time>2024-05-20T12:51:47.000Z</time>
      </trkpt>
      <trkpt lat="45.93911" lon="4.74478">
        <ele>171.19999694824</ele>
        <time>2024-05-20T12:51:48.000Z</time>
      </trkpt>
      <trkpt lat="45.93911" lon="4.74488">
        <ele>171.19999694824</ele>
        <time>2024-05-20T12:51:49.000Z</time>
      </trkpt>
      <trkpt lat="45.93911" lon="4.74498">
        <ele>171.19999694824</ele>
        <time>2024-05-20T12:51:50.000Z</time>
      </trkpt>
      <trkpt lat="45.9391" lon="4.74507">
        <ele>171.39999389648</ele>
        <time>2024-05-20T12:51:51.000Z</time>
      </trkpt>
      <trkpt lat="45.93909" lon="4.74517">
        <ele>171.39999389648</ele>
        <time>2024-05-20T12:51:52.000Z</time>
      </trkpt>
      <trkpt lat="45.93908" lon="4.74527">
        <ele>171.39999389648</ele>
        <time>2024-05-20T12:51:53.000Z</time>
      </trkpt>
      <trkpt lat="45.93907" lon="4.74537">
        <ele>171.39999389648</ele>
        <time>2024-05-20T12:51:54.000Z</time>
      </trkpt>
      <trkpt lat="45.93906" lon="4.74547">
        <ele>171.39999389648</ele>
        <time>2024-05-20T12:51:55.000Z</time>
      </trkpt>
      <trkpt lat="45.93905" lon="4.74556">
        <ele>171.39999389648</ele>
        <time>2024-05-20T12:51:56.000Z</time>
      </trkpt>
      <trkpt lat="45.93903" lon="4.74566">
        <ele>171.39999389648</ele>
        <time>2024-05-20T12:51:57.000Z</time>
      </trkpt>
      <trkpt lat="45.93901" lon="4.74575">
        <ele>171.19999694824</ele>
        <time>2024-05-20T12:51:58.000Z</time>
      </trkpt>
      <trkpt lat="45.93898" lon="4.74585">
        <ele>171.19999694824</ele>
        <time>2024-05-20T12:51:59.000Z</time>
      </trkpt>
      <trkpt lat="45.93896" lon="4.74594">
        <ele>171.19999694824</ele>
        <time>2024-05-20T12:52:00.000Z</time>
      </trkpt>
      <trkpt lat="45.93894" lon="4.74604">
        <ele>171.19999694824</ele>
        <time>2024-05-20T12:52:01.000Z</time>
      </trkpt>
      <trkpt lat="45.93891" lon="4.74613">
        <ele>171.19999694824</ele>
        <time>2024-05-20T12:52:02.000Z</time>
      </trkpt>
      <trkpt lat="45.93889" lon="4.74622">
        <ele>171.19999694824</ele>
        <time>2024-05-20T12:52:03.000Z</time>
      </trkpt>
      <trkpt lat="45.93886" lon="4.74631">
        <ele>171.19999694824</ele>
        <time>2024-05-20T12:52:04.000Z</time>
      </trkpt>
      <trkpt lat="45.93883" lon="4.7464">
        <ele>171.19999694824</ele>
        <time>2024-05-20T12:52:05.000Z</time>
      </trkpt>
      <trkpt lat="45.9388" lon="4.74649">
        <ele>171.19999694824</ele>
        <time>2024-05-20T12:52:06.000Z</time>
      </trkpt>
      <trkpt lat="45.93877" lon="4.74658">
        <ele>171.19999694824</ele>
        <time>2024-05-20T12:52:07.000Z</time>
      </trkpt>
      <trkpt lat="45.93874" lon="4.74667">
        <ele>171.19999694824</ele>
        <time>2024-05-20T12:52:08.000Z</time>
      </trkpt>
      <trkpt lat="45.93872" lon="4.74676">
        <ele>171.19999694824</ele>
        <time>2024-05-20T12:52:09.000Z</time>
      </trkpt>
      <trkpt lat="45.93869" lon="4.74685">
        <ele>171.19999694824</ele>
        <time>2024-05-20T12:52:10.000Z</time>
      </trkpt>
      <trkpt lat="45.93865" lon="4.74694">
        <ele>171.19999694824</ele>
        <time>2024-05-20T12:52:11.000Z</time>
      </trkpt>
      <trkpt lat="45.93862" lon="4.74702">
        <ele>171</ele>
        <time>2024-05-20T12:52:12.000Z</time>
      </trkpt>
      <trkpt lat="45.93859" lon="4.74711">
        <ele>171</ele>
        <time>2024-05-20T12:52:13.000Z</time>
      </trkpt>
      <trkpt lat="45.93855" lon="4.7472">
        <ele>171</ele>
        <time>2024-05-20T12:52:14.000Z</time>
      </trkpt>
      <trkpt lat="45.93852" lon="4.74729">
        <ele>171</ele>
        <time>2024-05-20T12:52:15.000Z</time>
      </trkpt>
      <trkpt lat="45.93849" lon="4.74737">
        <ele>171</ele>
        <time>2024-05-20T12:52:16.000Z</time>
      </trkpt>
      <trkpt lat="45.93845" lon="4.74745">
        <ele>171</ele>
        <time>2024-05-20T12:52:17.000Z</time>
      </trkpt>
      <trkpt lat="45.93841" lon="4.74752">
        <ele>170.80000305176</ele>
        <time>2024-05-20T12:52:18.000Z</time>
      </trkpt>
      <trkpt lat="45.93837" lon="4.7476">
        <ele>170.80000305176</ele>
        <time>2024-05-20T12:52:19.000Z</time>
      </trkpt>
      <trkpt lat="45.93834" lon="4.74768">
        <ele>170.80000305176</ele>
        <time>2024-05-20T12:52:20.000Z</time>
      </trkpt>
      <trkpt lat="45.9383" lon="4.74775">
        <ele>170.80000305176</ele>
        <time>2024-05-20T12:52:21.000Z</time>
      </trkpt>
      <trkpt lat="45.93827" lon="4.74783">
        <ele>170.80000305176</ele>
        <time>2024-05-20T12:52:22.000Z</time>
      </trkpt>
      <trkpt lat="45.93822" lon="4.74791">
        <ele>170.80000305176</ele>
        <time>2024-05-20T12:52:23.000Z</time>
      </trkpt>
      <trkpt lat="45.93818" lon="4.74798">
        <ele>171</ele>
        <time>2024-05-20T12:52:24.000Z</time>
      </trkpt>
      <trkpt lat="45.93814" lon="4.74806">
        <ele>171.19999694824</ele>
        <time>2024-05-20T12:52:25.000Z</time>
      </trkpt>
      <trkpt lat="45.93811" lon="4.74813">
        <ele>171.19999694824</ele>
        <time>2024-05-20T12:52:26.000Z</time>
      </trkpt>
      <trkpt lat="45.93806" lon="4.74821">
        <ele>171.19999694824</ele>
        <time>2024-05-20T12:52:27.000Z</time>
      </trkpt>
      <trkpt lat="45.93802" lon="4.74829">
        <ele>171.19999694824</ele>
        <time>2024-05-20T12:52:28.000Z</time>
      </trkpt>
      <trkpt lat="45.93798" lon="4.74837">
        <ele>171</ele>
        <time>2024-05-20T12:52:29.000Z</time>
      </trkpt>
      <trkpt lat="45.93794" lon="4.74844">
        <ele>171</ele>
        <time>2024-05-20T12:52:30.000Z</time>
      </trkpt>
      <trkpt lat="45.9379" lon="4.74852">
        <ele>171</ele>
        <time>2024-05-20T12:52:31.000Z</time>
      </trkpt>
      <trkpt lat="45.93786" lon="4.74859">
        <ele>171</ele>
        <time>2024-05-20T12:52:32.000Z</time>
      </trkpt>
      <trkpt lat="45.93781" lon="4.74866">
        <ele>170.80000305176</ele>
        <time>2024-05-20T12:52:33.000Z</time>
      </trkpt>
      <trkpt lat="45.93776" lon="4.74874">
        <ele>170.80000305176</ele>
        <time>2024-05-20T12:52:34.000Z</time>
      </trkpt>
      <trkpt lat="45.93772" lon="4.74882">
        <ele>170.80000305176</ele>
        <time>2024-05-20T12:52:35.000Z</time>
      </trkpt>
      <trkpt lat="45.93768" lon="4.7489">
        <ele>170.80000305176</ele>
        <time>2024-05-20T12:52:36.000Z</time>
      </trkpt>
      <trkpt lat="45.93764" lon="4.74897">
        <ele>170.80000305176</ele>
        <time>2024-05-20T12:52:37.000Z</time>
      </trkpt>
      <trkpt lat="45.93759" lon="4.74905">
        <ele>170.80000305176</ele>
        <time>2024-05-20T12:52:38.000Z</time>
      </trkpt>
      <trkpt lat="45.93755" lon="4.74913">
        <ele>170.80000305176</ele>
        <time>2024-05-20T12:52:39.000Z</time>
      </trkpt>
      <trkpt lat="45.93751" lon="4.74921">
        <ele>170.80000305176</ele>
        <time>2024-05-20T12:52:40.000Z</time>
      </trkpt>
      <trkpt lat="45.93748" lon="4.74929">
        <ele>170.80000305176</ele>
        <time>2024-05-20T12:52:41.000Z</time>
      </trkpt>
      <trkpt lat="45.93745" lon="4.74937">
        <ele>170.80000305176</ele>
        <time>2024-05-20T12:52:42.000Z</time>
      </trkpt>
      <trkpt lat="45.93741" lon="4.74944">
        <ele>170.19999694824</ele>
        <time>2024-05-20T12:52:43.000Z</time>
      </trkpt>
      <trkpt lat="45.93737" lon="4.74952">
        <ele>170.19999694824</ele>
        <time>2024-05-20T12:52:44.000Z</time>
      </trkpt>
      <trkpt lat="45.93734" lon="4.74959">
        <ele>170.19999694824</ele>
        <time>2024-05-20T12:52:45.000Z</time>
      </trkpt>
      <trkpt lat="45.9373" lon="4.74967">
        <ele>170</ele>
        <time>2024-05-20T12:52:46.000Z</time>
      </trkpt>
      <trkpt lat="45.93728" lon="4.74975">
        <ele>170</ele>
        <time>2024-05-20T12:52:47.000Z</time>
      </trkpt>
      <trkpt lat="45.93725" lon="4.74983">
        <ele>170</ele>
        <time>2024-05-20T12:52:48.000Z</time>
      </trkpt>
      <trkpt lat="45.93722" lon="4.74991">
        <ele>170</ele>
        <time>2024-05-20T12:52:49.000Z</time>
      </trkpt>
      <trkpt lat="45.93719" lon="4.74999">
        <ele>170.39999389648</ele>
        <time>2024-05-20T12:52:50.000Z</time>
      </trkpt>
      <trkpt lat="45.93715" lon="4.75006">
        <ele>170.39999389648</ele>
        <time>2024-05-20T12:52:51.000Z</time>
      </trkpt>
      <trkpt lat="45.93711" lon="4.75014">
        <ele>170.80000305176</ele>
        <time>2024-05-20T12:52:52.000Z</time>
      </trkpt>
      <trkpt lat="45.93707" lon="4.75022">
        <ele>170.80000305176</ele>
        <time>2024-05-20T12:52:53.000Z</time>
      </trkpt>
      <trkpt lat="45.93703" lon="4.75029">
        <ele>170.80000305176</ele>
        <time>2024-05-20T12:52:54.000Z</time>
      </trkpt>
      <trkpt lat="45.937" lon="4.75037">
        <ele>170.80000305176</ele>
        <time>2024-05-20T12:52:55.000Z</time>
      </trkpt>
      <trkpt lat="45.93696" lon="4.75045">
        <ele>170.80000305176</ele>
        <time>2024-05-20T12:52:56.000Z</time>
      </trkpt>
      <trkpt lat="45.93692" lon="4.75052">
        <ele>170.80000305176</ele>
        <time>2024-05-20T12:52:57.000Z</time>
      </trkpt>
      <trkpt lat="45.93689" lon="4.75059">
        <ele>170.60000610352</ele>
        <time>2024-05-20T12:52:58.000Z</time>
      </trkpt>
      <trkpt lat="45.93686" lon="4.75066">
        <ele>170.60000610352</ele>
        <time>2024-05-20T12:52:59.000Z</time>
      </trkpt>
      <trkpt lat="45.93682" lon="4.75074">
        <ele>170.60000610352</ele>
        <time>2024-05-20T12:53:00.000Z</time>
      </trkpt>
      <trkpt lat="45.93679" lon="4.75082">
        <ele>170.60000610352</ele>
        <time>2024-05-20T12:53:01.000Z</time>
      </trkpt>
      <trkpt lat="45.93675" lon="4.7509">
        <ele>170.60000610352</ele>
        <time>2024-05-20T12:53:02.000Z</time>
      </trkpt>
      <trkpt lat="45.93672" lon="4.75098">
        <ele>170.60000610352</ele>
        <time>2024-05-20T12:53:03.000Z</time>
      </trkpt>
      <trkpt lat="45.93669" lon="4.75106">
        <ele>170.60000610352</ele>
        <time>2024-05-20T12:53:04.000Z</time>
      </trkpt>
      <trkpt lat="45.93666" lon="4.75114">
        <ele>170.60000610352</ele>
        <time>2024-05-20T12:53:05.000Z</time>
      </trkpt>
      <trkpt lat="45.93662" lon="4.75121">
        <ele>170.60000610352</ele>
        <time>2024-05-20T12:53:06.000Z</time>
      </trkpt>
      <trkpt lat="45.93659" lon="4.75129">
        <ele>170.60000610352</ele>
        <time>2024-05-20T12:53:07.000Z</time>
      </trkpt>
      <trkpt lat="45.93655" lon="4.75138">
        <ele>170.39999389648</ele>
        <time>2024-05-20T12:53:08.000Z</time>
      </trkpt>
      <trkpt lat="45.93652" lon="4.75145">
        <ele>170.19999694824</ele>
        <time>2024-05-20T12:53:09.000Z</time>
      </trkpt>
      <trkpt lat="45.93648" lon="4.75153">
        <ele>170.19999694824</ele>
        <time>2024-05-20T12:53:10.000Z</time>
      </trkpt>
      <trkpt lat="45.93645" lon="4.75161">
        <ele>170.19999694824</ele>
        <time>2024-05-20T12:53:11.000Z</time>
      </trkpt>
      <trkpt lat="45.93642" lon="4.75169">
        <ele>170.19999694824</ele>
        <time>2024-05-20T12:53:12.000Z</time>
      </trkpt>
      <trkpt lat="45.93638" lon="4.75177">
        <ele>170.19999694824</ele>
        <time>2024-05-20T12:53:13.000Z</time>
      </trkpt>
      <trkpt lat="45.93636" lon="4.75184">
        <ele>170.19999694824</ele>
        <time>2024-05-20T12:53:14.000Z</time>
      </trkpt>
      <trkpt lat="45.93633" lon="4.75192">
        <ele>170.19999694824</ele>
        <time>2024-05-20T12:53:15.000Z</time>
      </trkpt>
      <trkpt lat="45.9363" lon="4.752">
        <ele>170.19999694824</ele>
        <time>2024-05-20T12:53:16.000Z</time>
      </trkpt>
      <trkpt lat="45.93627" lon="4.75209">
        <ele>170.39999389648</ele>
        <time>2024-05-20T12:53:17.000Z</time>
      </trkpt>
      <trkpt lat="45.93625" lon="4.75217">
        <ele>170.39999389648</ele>
        <time>2024-05-20T12:53:18.000Z</time>
      </trkpt>
      <trkpt lat="45.93622" lon="4.75226">
        <ele>170.60000610352</ele>
        <time>2024-05-20T12:53:19.000Z</time>
      </trkpt>
      <trkpt lat="45.9362" lon="4.75234">
        <ele>170.80000305176</ele>
        <time>2024-05-20T12:53:20.000Z</time>
      </trkpt>
      <trkpt lat="45.93618" lon="4.75242">
        <ele>170.80000305176</ele>
        <time>2024-05-20T12:53:21.000Z</time>
      </trkpt>
      <trkpt lat="45.93616" lon="4.7525">
        <ele>170.80000305176</ele>
        <time>2024-05-20T12:53:22.000Z</time>
      </trkpt>
      <trkpt lat="45.93614" lon="4.75259">
        <ele>170.80000305176</ele>
        <time>2024-05-20T12:53:23.000Z</time>
      </trkpt>
      <trkpt lat="45.93612" lon="4.75268">
        <ele>170.80000305176</ele>
        <time>2024-05-20T12:53:24.000Z</time>
      </trkpt>
      <trkpt lat="45.93611" lon="4.75276">
        <ele>170.80000305176</ele>
        <time>2024-05-20T12:53:25.000Z</time>
      </trkpt>
      <trkpt lat="45.93609" lon="4.75284">
        <ele>170.80000305176</ele>
        <time>2024-05-20T12:53:26.000Z</time>
      </trkpt>
      <trkpt lat="45.93608" lon="4.75292">
        <ele>170.80000305176</ele>
        <time>2024-05-20T12:53:27.000Z</time>
      </trkpt>
      <trkpt lat="45.93607" lon="4.753">
        <ele>171</ele>
        <time>2024-05-20T12:53:28.000Z</time>
      </trkpt>
      <trkpt lat="45.93605" lon="4.75307">
        <ele>171</ele>
        <time>2024-05-20T12:53:29.000Z</time>
      </trkpt>
      <trkpt lat="45.93604" lon="4.75315">
        <ele>171</ele>
        <time>2024-05-20T12:53:30.000Z</time>
      </trkpt>
      <trkpt lat="45.93603" lon="4.75323">
        <ele>171.19999694824</ele>
        <time>2024-05-20T12:53:31.000Z</time>
      </trkpt>
      <trkpt lat="45.93601" lon="4.75331">
        <ele>171.39999389648</ele>
        <time>2024-05-20T12:53:32.000Z</time>
      </trkpt>
      <trkpt lat="45.936" lon="4.75339">
        <ele>171.39999389648</ele>
        <time>2024-05-20T12:53:33.000Z</time>
      </trkpt>
      <trkpt lat="45.93598" lon="4.75348">
        <ele>171.39999389648</ele>
        <time>2024-05-20T12:53:34.000Z</time>
      </trkpt>
      <trkpt lat="45.93596" lon="4.75356">
        <ele>171.39999389648</ele>
        <time>2024-05-20T12:53:35.000Z</time>
      </trkpt>
      <trkpt lat="45.93594" lon="4.75364">
        <ele>171</ele>
        <time>2024-05-20T12:53:36.000Z</time>
      </trkpt>
      <trkpt lat="45.93592" lon="4.75372">
        <ele>171</ele>
        <time>2024-05-20T12:53:37.000Z</time>
      </trkpt>
      <trkpt lat="45.93591" lon="4.75379">
        <ele>171</ele>
        <time>2024-05-20T12:53:38.000Z</time>
      </trkpt>
      <trkpt lat="45.9359" lon="4.75388">
        <ele>171</ele>
        <time>2024-05-20T12:53:39.000Z</time>
      </trkpt>
      <trkpt lat="45.93588" lon="4.75396">
        <ele>170.80000305176</ele>
        <time>2024-05-20T12:53:40.000Z</time>
      </trkpt>
      <trkpt lat="45.93586" lon="4.75405">
        <ele>170.80000305176</ele>
        <time>2024-05-20T12:53:41.000Z</time>
      </trkpt>
      <trkpt lat="45.93585" lon="4.75414">
        <ele>170.80000305176</ele>
        <time>2024-05-20T12:53:42.000Z</time>
      </trkpt>
      <trkpt lat="45.93584" lon="4.75423">
        <ele>170.60000610352</ele>
        <time>2024-05-20T12:53:43.000Z</time>
      </trkpt>
      <trkpt lat="45.93582" lon="4.75431">
        <ele>170.60000610352</ele>
        <time>2024-05-20T12:53:44.000Z</time>
      </trkpt>
      <trkpt lat="45.93581" lon="4.7544">
        <ele>170.80000305176</ele>
        <time>2024-05-20T12:53:45.000Z</time>
      </trkpt>
      <trkpt lat="45.93579" lon="4.75449">
        <ele>170.80000305176</ele>
        <time>2024-05-20T12:53:46.000Z</time>
      </trkpt>
      <trkpt lat="45.93578" lon="4.75458">
        <ele>170.80000305176</ele>
        <time>2024-05-20T12:53:47.000Z</time>
      </trkpt>
      <trkpt lat="45.93577" lon="4.75467">
        <ele>170.80000305176</ele>
        <time>2024-05-20T12:53:48.000Z</time>
      </trkpt>
      <trkpt lat="45.93576" lon="4.75476">
        <ele>170.80000305176</ele>
        <time>2024-05-20T12:53:49.000Z</time>
      </trkpt>
      <trkpt lat="45.93575" lon="4.75485">
        <ele>170.80000305176</ele>
        <time>2024-05-20T12:53:50.000Z</time>
      </trkpt>
      <trkpt lat="45.93574" lon="4.75494">
        <ele>170.80000305176</ele>
        <time>2024-05-20T12:53:51.000Z</time>
      </trkpt>
      <trkpt lat="45.93572" lon="4.75503">
        <ele>170.80000305176</ele>
        <time>2024-05-20T12:53:52.000Z</time>
      </trkpt>
      <trkpt lat="45.93571" lon="4.75511">
        <ele>170.80000305176</ele>
        <time>2024-05-20T12:53:53.000Z</time>
      </trkpt>
      <trkpt lat="45.9357" lon="4.7552">
        <ele>170.80000305176</ele>
        <time>2024-05-20T12:53:54.000Z</time>
      </trkpt>
      <trkpt lat="45.93568" lon="4.75529">
        <ele>170.80000305176</ele>
        <time>2024-05-20T12:53:55.000Z</time>
      </trkpt>
      <trkpt lat="45.93566" lon="4.75538">
        <ele>170.80000305176</ele>
        <time>2024-05-20T12:53:56.000Z</time>
      </trkpt>
      <trkpt lat="45.93564" lon="4.75547">
        <ele>170.80000305176</ele>
        <time>2024-05-20T12:53:57.000Z</time>
      </trkpt>
      <trkpt lat="45.93562" lon="4.75555">
        <ele>170.80000305176</ele>
        <time>2024-05-20T12:53:58.000Z</time>
      </trkpt>
      <trkpt lat="45.93561" lon="4.75564">
        <ele>170.80000305176</ele>
        <time>2024-05-20T12:53:59.000Z</time>
      </trkpt>
      <trkpt lat="45.93559" lon="4.75573">
        <ele>170.80000305176</ele>
        <time>2024-05-20T12:54:00.000Z</time>
      </trkpt>
      <trkpt lat="45.93558" lon="4.75581">
        <ele>170.80000305176</ele>
        <time>2024-05-20T12:54:01.000Z</time>
      </trkpt>
      <trkpt lat="45.93557" lon="4.7559">
        <ele>170.80000305176</ele>
        <time>2024-05-20T12:54:02.000Z</time>
      </trkpt>
      <trkpt lat="45.93555" lon="4.75599">
        <ele>170.60000610352</ele>
        <time>2024-05-20T12:54:03.000Z</time>
      </trkpt>
      <trkpt lat="45.93554" lon="4.75607">
        <ele>170.60000610352</ele>
        <time>2024-05-20T12:54:04.000Z</time>
      </trkpt>
      <trkpt lat="45.93553" lon="4.75616">
        <ele>170.39999389648</ele>
        <time>2024-05-20T12:54:05.000Z</time>
      </trkpt>
      <trkpt lat="45.93551" lon="4.75625">
        <ele>170.39999389648</ele>
        <time>2024-05-20T12:54:06.000Z</time>
      </trkpt>
      <trkpt lat="45.9355" lon="4.75633">
        <ele>170.39999389648</ele>
        <time>2024-05-20T12:54:07.000Z</time>
      </trkpt>
      <trkpt lat="45.93548" lon="4.75642">
        <ele>169.80000305176</ele>
        <time>2024-05-20T12:54:08.000Z</time>
      </trkpt>
      <trkpt lat="45.93547" lon="4.7565">
        <ele>169.39999389648</ele>
        <time>2024-05-20T12:54:09.000Z</time>
      </trkpt>
      <trkpt lat="45.93546" lon="4.75658">
        <ele>169</ele>
        <time>2024-05-20T12:54:10.000Z</time>
      </trkpt>
      <trkpt lat="45.93544" lon="4.75666">
        <ele>169</ele>
        <time>2024-05-20T12:54:11.000Z</time>
      </trkpt>
      <trkpt lat="45.93541" lon="4.75675">
        <ele>169</ele>
        <time>2024-05-20T12:54:12.000Z</time>
      </trkpt>
      <trkpt lat="45.93539" lon="4.75683">
        <ele>169</ele>
        <time>2024-05-20T12:54:13.000Z</time>
      </trkpt>
      <trkpt lat="45.93538" lon="4.75692">
        <ele>169.19999694824</ele>
        <time>2024-05-20T12:54:14.000Z</time>
      </trkpt>
      <trkpt lat="45.93536" lon="4.757">
        <ele>169.60000610352</ele>
        <time>2024-05-20T12:54:15.000Z</time>
      </trkpt>
      <trkpt lat="45.93535" lon="4.7571">
        <ele>169.80000305176</ele>
        <time>2024-05-20T12:54:16.000Z</time>
      </trkpt>
      <trkpt lat="45.93534" lon="4.75719">
        <ele>170</ele>
        <time>2024-05-20T12:54:17.000Z</time>
      </trkpt>
      <trkpt lat="45.93533" lon="4.75728">
        <ele>170.19999694824</ele>
        <time>2024-05-20T12:54:18.000Z</time>
      </trkpt>
      <trkpt lat="45.93532" lon="4.75737">
        <ele>170.39999389648</ele>
        <time>2024-05-20T12:54:19.000Z</time>
      </trkpt>
      <trkpt lat="45.93532" lon="4.75746">
        <ele>170.60000610352</ele>
        <time>2024-05-20T12:54:20.000Z</time>
      </trkpt>
      <trkpt lat="45.93531" lon="4.75755">
        <ele>170.80000305176</ele>
        <time>2024-05-20T12:54:21.000Z</time>
      </trkpt>
      <trkpt lat="45.93529" lon="4.75764">
        <ele>170.80000305176</ele>
        <time>2024-05-20T12:54:22.000Z</time>
      </trkpt>
      <trkpt lat="45.93528" lon="4.75773">
        <ele>170.80000305176</ele>
        <time>2024-05-20T12:54:23.000Z</time>
      </trkpt>
      <trkpt lat="45.93528" lon="4.75781">
        <ele>170.80000305176</ele>
        <time>2024-05-20T12:54:24.000Z</time>
      </trkpt>
      <trkpt lat="45.93528" lon="4.7579">
        <ele>170.80000305176</ele>
        <time>2024-05-20T12:54:25.000Z</time>
      </trkpt>
      <trkpt lat="45.93528" lon="4.75799">
        <ele>170.80000305176</ele>
        <time>2024-05-20T12:54:26.000Z</time>
      </trkpt>
      <trkpt lat="45.93529" lon="4.75807">
        <ele>170.60000610352</ele>
        <time>2024-05-20T12:54:27.000Z</time>
      </trkpt>
      <trkpt lat="45.93529" lon="4.75816">
        <ele>170.60000610352</ele>
        <time>2024-05-20T12:54:28.000Z</time>
      </trkpt>
      <trkpt lat="45.93529" lon="4.75825">
        <ele>170.39999389648</ele>
        <time>2024-05-20T12:54:29.000Z</time>
      </trkpt>
      <trkpt lat="45.9353" lon="4.75834">
        <ele>170.19999694824</ele>
        <time>2024-05-20T12:54:30.000Z</time>
      </trkpt>
      <trkpt lat="45.9353" lon="4.75843">
        <ele>170.19999694824</ele>
        <time>2024-05-20T12:54:31.000Z</time>
      </trkpt>
      <trkpt lat="45.93532" lon="4.75852">
        <ele>170.19999694824</ele>
        <time>2024-05-20T12:54:32.000Z</time>
      </trkpt>
      <trkpt lat="45.93533" lon="4.7586">
        <ele>170.19999694824</ele>
        <time>2024-05-20T12:54:33.000Z</time>
      </trkpt>
      <trkpt lat="45.93535" lon="4.75869">
        <ele>170.19999694824</ele>
        <time>2024-05-20T12:54:34.000Z</time>
      </trkpt>
      <trkpt lat="45.93538" lon="4.75878">
        <ele>170.39999389648</ele>
        <time>2024-05-20T12:54:35.000Z</time>
      </trkpt>
      <trkpt lat="45.93541" lon="4.75887">
        <ele>170.39999389648</ele>
        <time>2024-05-20T12:54:36.000Z</time>
      </trkpt>
      <trkpt lat="45.93544" lon="4.75895">
        <ele>170.39999389648</ele>
        <time>2024-05-20T12:54:37.000Z</time>
      </trkpt>
      <trkpt lat="45.93547" lon="4.75904">
        <ele>170.39999389648</ele>
        <time>2024-05-20T12:54:38.000Z</time>
      </trkpt>
      <trkpt lat="45.9355" lon="4.75914">
        <ele>170.39999389648</ele>
        <time>2024-05-20T12:54:39.000Z</time>
      </trkpt>
      <trkpt lat="45.93553" lon="4.75923">
        <ele>170.39999389648</ele>
        <time>2024-05-20T12:54:40.000Z</time>
      </trkpt>
      <trkpt lat="45.93556" lon="4.75932">
        <ele>170.39999389648</ele>
        <time>2024-05-20T12:54:41.000Z</time>
      </trkpt>
      <trkpt lat="45.93559" lon="4.75941">
        <ele>170.39999389648</ele>
        <time>2024-05-20T12:54:42.000Z</time>
      </trkpt>
      <trkpt lat="45.93562" lon="4.7595">
        <ele>170.19999694824</ele>
        <time>2024-05-20T12:54:43.000Z</time>
      </trkpt>
      <trkpt lat="45.93565" lon="4.7596">
        <ele>170.19999694824</ele>
        <time>2024-05-20T12:54:44.000Z</time>
      </trkpt>
      <trkpt lat="45.93567" lon="4.75969">
        <ele>170.19999694824</ele>
        <time>2024-05-20T12:54:45.000Z</time>
      </trkpt>
      <trkpt lat="45.9357" lon="4.75978">
        <ele>170.19999694824</ele>
        <time>2024-05-20T12:54:46.000Z</time>
      </trkpt>
      <trkpt lat="45.93574" lon="4.75987">
        <ele>170.39999389648</ele>
        <time>2024-05-20T12:54:47.000Z</time>
      </trkpt>
      <trkpt lat="45.93577" lon="4.75996">
        <ele>170.39999389648</ele>
        <time>2024-05-20T12:54:48.000Z</time>
      </trkpt>
      <trkpt lat="45.9358" lon="4.76005">
        <ele>170.60000610352</ele>
        <time>2024-05-20T12:54:49.000Z</time>
      </trkpt>
      <trkpt lat="45.93583" lon="4.76015">
        <ele>170.60000610352</ele>
        <time>2024-05-20T12:54:50.000Z</time>
      </trkpt>
      <trkpt lat="45.93585" lon="4.76024">
        <ele>170.60000610352</ele>
        <time>2024-05-20T12:54:51.000Z</time>
      </trkpt>
      <trkpt lat="45.93589" lon="4.76034">
        <ele>170.60000610352</ele>
        <time>2024-05-20T12:54:52.000Z</time>
      </trkpt>
      <trkpt lat="45.93592" lon="4.76043">
        <ele>170.60000610352</ele>
        <time>2024-05-20T12:54:53.000Z</time>
      </trkpt>
      <trkpt lat="45.93595" lon="4.76052">
        <ele>170.60000610352</ele>
        <time>2024-05-20T12:54:54.000Z</time>
      </trkpt>
      <trkpt lat="45.93597" lon="4.76062">
        <ele>170.60000610352</ele>
        <time>2024-05-20T12:54:55.000Z</time>
      </trkpt>
      <trkpt lat="45.93601" lon="4.7607">
        <ele>170.60000610352</ele>
        <time>2024-05-20T12:54:56.000Z</time>
      </trkpt>
      <trkpt lat="45.93604" lon="4.76079">
        <ele>170.60000610352</ele>
        <time>2024-05-20T12:54:57.000Z</time>
      </trkpt>
      <trkpt lat="45.93607" lon="4.76088">
        <ele>170.60000610352</ele>
        <time>2024-05-20T12:54:58.000Z</time>
      </trkpt>
      <trkpt lat="45.9361" lon="4.76097">
        <ele>170.80000305176</ele>
        <time>2024-05-20T12:54:59.000Z</time>
      </trkpt>
      <trkpt lat="45.93613" lon="4.76105">
        <ele>170.80000305176</ele>
        <time>2024-05-20T12:55:00.000Z</time>
      </trkpt>
      <trkpt lat="45.93617" lon="4.76113">
        <ele>170.80000305176</ele>
        <time>2024-05-20T12:55:01.000Z</time>
      </trkpt>
      <trkpt lat="45.9362" lon="4.76122">
        <ele>171</ele>
        <time>2024-05-20T12:55:02.000Z</time>
      </trkpt>
      <trkpt lat="45.93623" lon="4.76132">
        <ele>171</ele>
        <time>2024-05-20T12:55:03.000Z</time>
      </trkpt>
      <trkpt lat="45.93626" lon="4.76141">
        <ele>171</ele>
        <time>2024-05-20T12:55:04.000Z</time>
      </trkpt>
      <trkpt lat="45.93628" lon="4.7615">
        <ele>171</ele>
        <time>2024-05-20T12:55:05.000Z</time>
      </trkpt>
      <trkpt lat="45.93631" lon="4.76159">
        <ele>171</ele>
        <time>2024-05-20T12:55:06.000Z</time>
      </trkpt>
      <trkpt lat="45.93634" lon="4.76167">
        <ele>171</ele>
        <time>2024-05-20T12:55:07.000Z</time>
      </trkpt>
      <trkpt lat="45.93637" lon="4.76176">
        <ele>171</ele>
        <time>2024-05-20T12:55:08.000Z</time>
      </trkpt>
      <trkpt lat="45.93641" lon="4.76184">
        <ele>171</ele>
        <time>2024-05-20T12:55:09.000Z</time>
      </trkpt>
      <trkpt lat="45.93644" lon="4.76193">
        <ele>171</ele>
        <time>2024-05-20T12:55:10.000Z</time>
      </trkpt>
      <trkpt lat="45.93647" lon="4.76202">
        <ele>171</ele>
        <time>2024-05-20T12:55:11.000Z</time>
      </trkpt>
      <trkpt lat="45.9365" lon="4.76211">
        <ele>171</ele>
        <time>2024-05-20T12:55:12.000Z</time>
      </trkpt>
      <trkpt lat="45.93653" lon="4.7622">
        <ele>171</ele>
        <time>2024-05-20T12:55:13.000Z</time>
      </trkpt>
      <trkpt lat="45.93656" lon="4.76228">
        <ele>170.80000305176</ele>
        <time>2024-05-20T12:55:14.000Z</time>
      </trkpt>
      <trkpt lat="45.93659" lon="4.76237">
        <ele>170.80000305176</ele>
        <time>2024-05-20T12:55:15.000Z</time>
      </trkpt>
      <trkpt lat="45.93662" lon="4.76246">
        <ele>170.80000305176</ele>
        <time>2024-05-20T12:55:16.000Z</time>
      </trkpt>
      <trkpt lat="45.93665" lon="4.76255">
        <ele>170.80000305176</ele>
        <time>2024-05-20T12:55:17.000Z</time>
      </trkpt>
      <trkpt lat="45.93668" lon="4.76264">
        <ele>170.80000305176</ele>
        <time>2024-05-20T12:55:18.000Z</time>
      </trkpt>
      <trkpt lat="45.93671" lon="4.76273">
        <ele>170.60000610352</ele>
        <time>2024-05-20T12:55:19.000Z</time>
      </trkpt>
      <trkpt lat="45.93674" lon="4.76282">
        <ele>170.60000610352</ele>
        <time>2024-05-20T12:55:20.000Z</time>
      </trkpt>
      <trkpt lat="45.93677" lon="4.76292">
        <ele>170.60000610352</ele>
        <time>2024-05-20T12:55:21.000Z</time>
      </trkpt>
      <trkpt lat="45.93681" lon="4.763">
        <ele>170.60000610352</ele>
        <time>2024-05-20T12:55:22.000Z</time>
      </trkpt>
      <trkpt lat="45.93684" lon="4.76309">
        <ele>170.60000610352</ele>
        <time>2024-05-20T12:55:23.000Z</time>
      </trkpt>
      <trkpt lat="45.93687" lon="4.76318">
        <ele>170.60000610352</ele>
        <time>2024-05-20T12:55:24.000Z</time>
      </trkpt>
      <trkpt lat="45.9369" lon="4.76327">
        <ele>170.60000610352</ele>
        <time>2024-05-20T12:55:25.000Z</time>
      </trkpt>
      <trkpt lat="45.93693" lon="4.76336">
        <ele>170.60000610352</ele>
        <time>2024-05-20T12:55:26.000Z</time>
      </trkpt>
      <trkpt lat="45.93696" lon="4.76344">
        <ele>170.39999389648</ele>
        <time>2024-05-20T12:55:27.000Z</time>
      </trkpt>
      <trkpt lat="45.93698" lon="4.76353">
        <ele>170.39999389648</ele>
        <time>2024-05-20T12:55:28.000Z</time>
      </trkpt>
      <trkpt lat="45.93701" lon="4.76361">
        <ele>170.39999389648</ele>
        <time>2024-05-20T12:55:29.000Z</time>
      </trkpt>
      <trkpt lat="45.93703" lon="4.76369">
        <ele>170.39999389648</ele>
        <time>2024-05-20T12:55:30.000Z</time>
      </trkpt>
      <trkpt lat="45.93706" lon="4.76376">
        <ele>170.39999389648</ele>
        <time>2024-05-20T12:55:31.000Z</time>
      </trkpt>
      <trkpt lat="45.93709" lon="4.76383">
        <ele>170.39999389648</ele>
        <time>2024-05-20T12:55:32.000Z</time>
      </trkpt>
      <trkpt lat="45.93711" lon="4.76391">
        <ele>170.39999389648</ele>
        <time>2024-05-20T12:55:33.000Z</time>
      </trkpt>
      <trkpt lat="45.93713" lon="4.76398">
        <ele>170.60000610352</ele>
        <time>2024-05-20T12:55:34.000Z</time>
      </trkpt>
      <trkpt lat="45.93715" lon="4.76406">
        <ele>170.80000305176</ele>
        <time>2024-05-20T12:55:35.000Z</time>
      </trkpt>
      <trkpt lat="45.93718" lon="4.76413">
        <ele>170.80000305176</ele>
        <time>2024-05-20T12:55:36.000Z</time>
      </trkpt>
      <trkpt lat="45.9372" lon="4.7642">
        <ele>170.80000305176</ele>
        <time>2024-05-20T12:55:37.000Z</time>
      </trkpt>
      <trkpt lat="45.93722" lon="4.76427">
        <ele>170.80000305176</ele>
        <time>2024-05-20T12:55:38.000Z</time>
      </trkpt>
      <trkpt lat="45.93724" lon="4.76435">
        <ele>170.80000305176</ele>
        <time>2024-05-20T12:55:39.000Z</time>
      </trkpt>
      <trkpt lat="45.93726" lon="4.76442">
        <ele>170.80000305176</ele>
        <time>2024-05-20T12:55:40.000Z</time>
      </trkpt>
      <trkpt lat="45.93728" lon="4.76449">
        <ele>170.60000610352</ele>
        <time>2024-05-20T12:55:41.000Z</time>
      </trkpt>
      <trkpt lat="45.93731" lon="4.76456">
        <ele>170.39999389648</ele>
        <time>2024-05-20T12:55:42.000Z</time>
      </trkpt>
      <trkpt lat="45.93734" lon="4.76463">
        <ele>170.39999389648</ele>
        <time>2024-05-20T12:55:43.000Z</time>
      </trkpt>
      <trkpt lat="45.93737" lon="4.76471">
        <ele>170.39999389648</ele>
        <time>2024-05-20T12:55:44.000Z</time>
      </trkpt>
      <trkpt lat="45.93739" lon="4.76479">
        <ele>170.19999694824</ele>
        <time>2024-05-20T12:55:45.000Z</time>
      </trkpt>
      <trkpt lat="45.93742" lon="4.76486">
        <ele>170.19999694824</ele>
        <time>2024-05-20T12:55:46.000Z</time>
      </trkpt>
      <trkpt lat="45.93744" lon="4.76494">
        <ele>170.19999694824</ele>
        <time>2024-05-20T12:55:47.000Z</time>
      </trkpt>
      <trkpt lat="45.93747" lon="4.76502">
        <ele>170.19999694824</ele>
        <time>2024-05-20T12:55:48.000Z</time>
      </trkpt>
      <trkpt lat="45.93749" lon="4.7651">
        <ele>170.19999694824</ele>
        <time>2024-05-20T12:55:49.000Z</time>
      </trkpt>
      <trkpt lat="45.93752" lon="4.76518">
        <ele>170.19999694824</ele>
        <time>2024-05-20T12:55:50.000Z</time>
      </trkpt>
      <trkpt lat="45.93754" lon="4.76525">
        <ele>170.19999694824</ele>
        <time>2024-05-20T12:55:51.000Z</time>
      </trkpt>
      <trkpt lat="45.93757" lon="4.76533">
        <ele>170.39999389648</ele>
        <time>2024-05-20T12:55:52.000Z</time>
      </trkpt>
      <trkpt lat="45.9376" lon="4.7654">
        <ele>170.19999694824</ele>
        <time>2024-05-20T12:55:53.000Z</time>
      </trkpt>
      <trkpt lat="45.93762" lon="4.76548">
        <ele>170.19999694824</ele>
        <time>2024-05-20T12:55:54.000Z</time>
      </trkpt>
      <trkpt lat="45.93765" lon="4.76556">
        <ele>170.19999694824</ele>
        <time>2024-05-20T12:55:55.000Z</time>
      </trkpt>
      <trkpt lat="45.93768" lon="4.76563">
        <ele>170.39999389648</ele>
        <time>2024-05-20T12:55:56.000Z</time>
      </trkpt>
      <trkpt lat="45.9377" lon="4.76571">
        <ele>170.19999694824</ele>
        <time>2024-05-20T12:55:57.000Z</time>
      </trkpt>
      <trkpt lat="45.93773" lon="4.76578">
        <ele>170.19999694824</ele>
        <time>2024-05-20T12:55:58.000Z</time>
      </trkpt>
      <trkpt lat="45.93776" lon="4.76586">
        <ele>170</ele>
        <time>2024-05-20T12:55:59.000Z</time>
      </trkpt>
      <trkpt lat="45.93779" lon="4.76594">
        <ele>170</ele>
        <time>2024-05-20T12:56:00.000Z</time>
      </trkpt>
      <trkpt lat="45.93781" lon="4.76602">
        <ele>170</ele>
        <time>2024-05-20T12:56:01.000Z</time>
      </trkpt>
      <trkpt lat="45.93784" lon="4.7661">
        <ele>169.80000305176</ele>
        <time>2024-05-20T12:56:02.000Z</time>
      </trkpt>
      <trkpt lat="45.93786" lon="4.76618">
        <ele>169.80000305176</ele>
        <time>2024-05-20T12:56:03.000Z</time>
      </trkpt>
      <trkpt lat="45.93789" lon="4.76625">
        <ele>169.60000610352</ele>
        <time>2024-05-20T12:56:04.000Z</time>
      </trkpt>
      <trkpt lat="45.93792" lon="4.76633">
        <ele>169.60000610352</ele>
        <time>2024-05-20T12:56:05.000Z</time>
      </trkpt>
      <trkpt lat="45.93795" lon="4.7664">
        <ele>169.60000610352</ele>
        <time>2024-05-20T12:56:06.000Z</time>
      </trkpt>
      <trkpt lat="45.93799" lon="4.76648">
        <ele>169.60000610352</ele>
        <time>2024-05-20T12:56:07.000Z</time>
      </trkpt>
      <trkpt lat="45.93802" lon="4.76655">
        <ele>169.60000610352</ele>
        <time>2024-05-20T12:56:08.000Z</time>
      </trkpt>
      <trkpt lat="45.93805" lon="4.76662">
        <ele>169.60000610352</ele>
        <time>2024-05-20T12:56:09.000Z</time>
      </trkpt>
      <trkpt lat="45.93809" lon="4.7667">
        <ele>169.60000610352</ele>
        <time>2024-05-20T12:56:10.000Z</time>
      </trkpt>
      <trkpt lat="45.93812" lon="4.76677">
        <ele>169.60000610352</ele>
        <time>2024-05-20T12:56:11.000Z</time>
      </trkpt>
      <trkpt lat="45.93816" lon="4.76684">
        <ele>169.60000610352</ele>
        <time>2024-05-20T12:56:12.000Z</time>
      </trkpt>
      <trkpt lat="45.93819" lon="4.76691">
        <ele>169.60000610352</ele>
        <time>2024-05-20T12:56:13.000Z</time>
      </trkpt>
      <trkpt lat="45.93823" lon="4.76698">
        <ele>169.60000610352</ele>
        <time>2024-05-20T12:56:14.000Z</time>
      </trkpt>
      <trkpt lat="45.93827" lon="4.76705">
        <ele>169.60000610352</ele>
        <time>2024-05-20T12:56:15.000Z</time>
      </trkpt>
      <trkpt lat="45.93831" lon="4.76712">
        <ele>169.60000610352</ele>
        <time>2024-05-20T12:56:16.000Z</time>
      </trkpt>
      <trkpt lat="45.93836" lon="4.76719">
        <ele>169.60000610352</ele>
        <time>2024-05-20T12:56:17.000Z</time>
      </trkpt>
      <trkpt lat="45.9384" lon="4.76726">
        <ele>169.60000610352</ele>
        <time>2024-05-20T12:56:18.000Z</time>
      </trkpt>
      <trkpt lat="45.93844" lon="4.76733">
        <ele>169.60000610352</ele>
        <time>2024-05-20T12:56:19.000Z</time>
      </trkpt>
      <trkpt lat="45.93848" lon="4.76739">
        <ele>169.60000610352</ele>
        <time>2024-05-20T12:56:20.000Z</time>
      </trkpt>
      <trkpt lat="45.93852" lon="4.76746">
        <ele>169.60000610352</ele>
        <time>2024-05-20T12:56:21.000Z</time>
      </trkpt>
      <trkpt lat="45.93856" lon="4.76752">
        <ele>169.39999389648</ele>
        <time>2024-05-20T12:56:22.000Z</time>
      </trkpt>
      <trkpt lat="45.9386" lon="4.76759">
        <ele>169.39999389648</ele>
        <time>2024-05-20T12:56:23.000Z</time>
      </trkpt>
      <trkpt lat="45.93864" lon="4.76765">
        <ele>169.60000610352</ele>
        <time>2024-05-20T12:56:24.000Z</time>
      </trkpt>
      <trkpt lat="45.93868" lon="4.76772">
        <ele>169.60000610352</ele>
        <time>2024-05-20T12:56:25.000Z</time>
      </trkpt>
      <trkpt lat="45.93872" lon="4.76778">
        <ele>169.60000610352</ele>
        <time>2024-05-20T12:56:26.000Z</time>
      </trkpt>
      <trkpt lat="45.93876" lon="4.76784">
        <ele>169.60000610352</ele>
        <time>2024-05-20T12:56:27.000Z</time>
      </trkpt>
      <trkpt lat="45.9388" lon="4.7679">
        <ele>169.80000305176</ele>
        <time>2024-05-20T12:56:28.000Z</time>
      </trkpt>
      <trkpt lat="45.93884" lon="4.76796">
        <ele>169.80000305176</ele>
        <time>2024-05-20T12:56:29.000Z</time>
      </trkpt>
      <trkpt lat="45.93887" lon="4.76801">
        <ele>169.80000305176</ele>
        <time>2024-05-20T12:56:30.000Z</time>
      </trkpt>
      <trkpt lat="45.9389" lon="4.76807">
        <ele>169.60000610352</ele>
        <time>2024-05-20T12:56:31.000Z</time>
      </trkpt>
      <trkpt lat="45.93894" lon="4.76812">
        <ele>169.60000610352</ele>
        <time>2024-05-20T12:56:32.000Z</time>
      </trkpt>
      <trkpt lat="45.93897" lon="4.76817">
        <ele>169.60000610352</ele>
        <time>2024-05-20T12:56:33.000Z</time>
      </trkpt>
      <trkpt lat="45.93901" lon="4.76822">
        <ele>169.60000610352</ele>
        <time>2024-05-20T12:56:34.000Z</time>
      </trkpt>
      <trkpt lat="45.93904" lon="4.76827">
        <ele>169.60000610352</ele>
        <time>2024-05-20T12:56:35.000Z</time>
      </trkpt>
      <trkpt lat="45.93908" lon="4.76833">
        <ele>169.60000610352</ele>
        <time>2024-05-20T12:56:36.000Z</time>
      </trkpt>
      <trkpt lat="45.93911" lon="4.76838">
        <ele>169.60000610352</ele>
        <time>2024-05-20T12:56:37.000Z</time>
      </trkpt>
      <trkpt lat="45.93915" lon="4.76844">
        <ele>169.60000610352</ele>
        <time>2024-05-20T12:56:38.000Z</time>
      </trkpt>
      <trkpt lat="45.93919" lon="4.76849">
        <ele>169.60000610352</ele>
        <time>2024-05-20T12:56:39.000Z</time>
      </trkpt>
      <trkpt lat="45.93922" lon="4.76855">
        <ele>169.39999389648</ele>
        <time>2024-05-20T12:56:40.000Z</time>
      </trkpt>
      <trkpt lat="45.93926" lon="4.7686">
        <ele>169.39999389648</ele>
        <time>2024-05-20T12:56:41.000Z</time>
      </trkpt>
      <trkpt lat="45.93929" lon="4.76866">
        <ele>169.19999694824</ele>
        <time>2024-05-20T12:56:42.000Z</time>
      </trkpt>
      <trkpt lat="45.93933" lon="4.76871">
        <ele>169.19999694824</ele>
        <time>2024-05-20T12:56:43.000Z</time>
      </trkpt>
      <trkpt lat="45.93936" lon="4.76877">
        <ele>169.19999694824</ele>
        <time>2024-05-20T12:56:44.000Z</time>
      </trkpt>
      <trkpt lat="45.93938" lon="4.76884">
        <ele>169.19999694824</ele>
        <time>2024-05-20T12:56:45.000Z</time>
      </trkpt>
      <trkpt lat="45.93941" lon="4.7689">
        <ele>169.19999694824</ele>
        <time>2024-05-20T12:56:46.000Z</time>
      </trkpt>
      <trkpt lat="45.93942" lon="4.76897">
        <ele>169.19999694824</ele>
        <time>2024-05-20T12:56:47.000Z</time>
      </trkpt>
      <trkpt lat="45.93944" lon="4.76904">
        <ele>169.19999694824</ele>
        <time>2024-05-20T12:56:48.000Z</time>
      </trkpt>
      <trkpt lat="45.93945" lon="4.76912">
        <ele>169.19999694824</ele>
        <time>2024-05-20T12:56:49.000Z</time>
      </trkpt>
      <trkpt lat="45.93945" lon="4.7692">
        <ele>169</ele>
        <time>2024-05-20T12:56:50.000Z</time>
      </trkpt>
      <trkpt lat="45.93946" lon="4.76928">
        <ele>169</ele>
        <time>2024-05-20T12:56:51.000Z</time>
      </trkpt>
      <trkpt lat="45.93947" lon="4.76935">
        <ele>168.60000610352</ele>
        <time>2024-05-20T12:56:52.000Z</time>
      </trkpt>
      <trkpt lat="45.93948" lon="4.76943">
        <ele>168.60000610352</ele>
        <time>2024-05-20T12:56:53.000Z</time>
      </trkpt>
      <trkpt lat="45.93949" lon="4.7695">
        <ele>168.39999389648</ele>
        <time>2024-05-20T12:56:54.000Z</time>
      </trkpt>
      <trkpt lat="45.93951" lon="4.76958">
        <ele>168.39999389648</ele>
        <time>2024-05-20T12:56:55.000Z</time>
      </trkpt>
      <trkpt lat="45.93952" lon="4.76966">
        <ele>168.39999389648</ele>
        <time>2024-05-20T12:56:56.000Z</time>
      </trkpt>
      <trkpt lat="45.93954" lon="4.76973">
        <ele>168.60000610352</ele>
        <time>2024-05-20T12:56:57.000Z</time>
      </trkpt>
      <trkpt lat="45.93956" lon="4.76981">
        <ele>168.60000610352</ele>
        <time>2024-05-20T12:56:58.000Z</time>
      </trkpt>
      <trkpt lat="45.93959" lon="4.76988">
        <ele>168.80000305176</ele>
        <time>2024-05-20T12:56:59.000Z</time>
      </trkpt>
      <trkpt lat="45.93961" lon="4.76995">
        <ele>168.80000305176</ele>
        <time>2024-05-20T12:57:00.000Z</time>
      </trkpt>
      <trkpt lat="45.93964" lon="4.77003">
        <ele>168.80000305176</ele>
        <time>2024-05-20T12:57:01.000Z</time>
      </trkpt>
      <trkpt lat="45.93966" lon="4.7701">
        <ele>168.80000305176</ele>
        <time>2024-05-20T12:57:02.000Z</time>
      </trkpt>
      <trkpt lat="45.93968" lon="4.77018">
        <ele>169</ele>
        <time>2024-05-20T12:57:03.000Z</time>
      </trkpt>
      <trkpt lat="45.9397" lon="4.77026">
        <ele>169</ele>
        <time>2024-05-20T12:57:04.000Z</time>
      </trkpt>
      <trkpt lat="45.93972" lon="4.77034">
        <ele>169</ele>
        <time>2024-05-20T12:57:05.000Z</time>
      </trkpt>
      <trkpt lat="45.93974" lon="4.77042">
        <ele>169.19999694824</ele>
        <time>2024-05-20T12:57:06.000Z</time>
      </trkpt>
      <trkpt lat="45.93976" lon="4.77049">
        <ele>169.19999694824</ele>
        <time>2024-05-20T12:57:07.000Z</time>
      </trkpt>
      <trkpt lat="45.93978" lon="4.77057">
        <ele>169.19999694824</ele>
        <time>2024-05-20T12:57:08.000Z</time>
      </trkpt>
      <trkpt lat="45.93981" lon="4.77065">
        <ele>169.19999694824</ele>
        <time>2024-05-20T12:57:09.000Z</time>
      </trkpt>
      <trkpt lat="45.93983" lon="4.77073">
        <ele>169</ele>
        <time>2024-05-20T12:57:10.000Z</time>
      </trkpt>
      <trkpt lat="45.93985" lon="4.77081">
        <ele>169</ele>
        <time>2024-05-20T12:57:11.000Z</time>
      </trkpt>
      <trkpt lat="45.93986" lon="4.77089">
        <ele>168.80000305176</ele>
        <time>2024-05-20T12:57:12.000Z</time>
      </trkpt>
      <trkpt lat="45.93988" lon="4.77097">
        <ele>168.80000305176</ele>
        <time>2024-05-20T12:57:13.000Z</time>
      </trkpt>
      <trkpt lat="45.9399" lon="4.77105">
        <ele>168.60000610352</ele>
        <time>2024-05-20T12:57:14.000Z</time>
      </trkpt>
      <trkpt lat="45.93992" lon="4.77113">
        <ele>168.39999389648</ele>
        <time>2024-05-20T12:57:15.000Z</time>
      </trkpt>
      <trkpt lat="45.93994" lon="4.7712">
        <ele>168.39999389648</ele>
        <time>2024-05-20T12:57:16.000Z</time>
      </trkpt>
      <trkpt lat="45.93996" lon="4.77127">
        <ele>168.39999389648</ele>
        <time>2024-05-20T12:57:17.000Z</time>
      </trkpt>
      <trkpt lat="45.93997" lon="4.77135">
        <ele>168.39999389648</ele>
        <time>2024-05-20T12:57:18.000Z</time>
      </trkpt>
      <trkpt lat="45.93998" lon="4.77142">
        <ele>168.39999389648</ele>
        <time>2024-05-20T12:57:19.000Z</time>
      </trkpt>
      <trkpt lat="45.93999" lon="4.7715">
        <ele>168.39999389648</ele>
        <time>2024-05-20T12:57:20.000Z</time>
      </trkpt>
      <trkpt lat="45.94" lon="4.77157">
        <ele>168.39999389648</ele>
        <time>2024-05-20T12:57:21.000Z</time>
      </trkpt>
      <trkpt lat="45.94" lon="4.77164">
        <ele>168.39999389648</ele>
        <time>2024-05-20T12:57:22.000Z</time>
      </trkpt>
      <trkpt lat="45.94001" lon="4.77171">
        <ele>168.19999694824</ele>
        <time>2024-05-20T12:57:23.000Z</time>
      </trkpt>
      <trkpt lat="45.94" lon="4.77178">
        <ele>168.19999694824</ele>
        <time>2024-05-20T12:57:24.000Z</time>
      </trkpt>
      <trkpt lat="45.94" lon="4.77186">
        <ele>168</ele>
        <time>2024-05-20T12:57:25.000Z</time>
      </trkpt>
      <trkpt lat="45.94001" lon="4.77193">
        <ele>168</ele>
        <time>2024-05-20T12:57:26.000Z</time>
      </trkpt>
      <trkpt lat="45.94001" lon="4.772">
        <ele>168</ele>
        <time>2024-05-20T12:57:27.000Z</time>
      </trkpt>
      <trkpt lat="45.94003" lon="4.77207">
        <ele>168</ele>
        <time>2024-05-20T12:57:28.000Z</time>
      </trkpt>
      <trkpt lat="45.94003" lon="4.77214">
        <ele>168</ele>
        <time>2024-05-20T12:57:29.000Z</time>
      </trkpt>
      <trkpt lat="45.94004" lon="4.77221">
        <ele>168</ele>
        <time>2024-05-20T12:57:30.000Z</time>
      </trkpt>
      <trkpt lat="45.94003" lon="4.77228">
        <ele>168.19999694824</ele>
        <time>2024-05-20T12:57:31.000Z</time>
      </trkpt>
      <trkpt lat="45.94002" lon="4.77234">
        <ele>168.39999389648</ele>
        <time>2024-05-20T12:57:32.000Z</time>
      </trkpt>
      <trkpt lat="45.94001" lon="4.77241">
        <ele>168.39999389648</ele>
        <time>2024-05-20T12:57:33.000Z</time>
      </trkpt>
      <trkpt lat="45.94001" lon="4.77247">
        <ele>168.39999389648</ele>
        <time>2024-05-20T12:57:34.000Z</time>
      </trkpt>
      <trkpt lat="45.94" lon="4.77253">
        <ele>168.60000610352</ele>
        <time>2024-05-20T12:57:35.000Z</time>
      </trkpt>
      <trkpt lat="45.93999" lon="4.77258">
        <ele>168.60000610352</ele>
        <time>2024-05-20T12:57:36.000Z</time>
      </trkpt>
      <trkpt lat="45.94" lon="4.77264">
        <ele>168.60000610352</ele>
        <time>2024-05-20T12:57:37.000Z</time>
      </trkpt>
      <trkpt lat="45.94001" lon="4.77271">
        <ele>168.60000610352</ele>
        <time>2024-05-20T12:57:38.000Z</time>
      </trkpt>
      <trkpt lat="45.94002" lon="4.77278">
        <ele>168.80000305176</ele>
        <time>2024-05-20T12:57:39.000Z</time>
      </trkpt>
      <trkpt lat="45.94002" lon="4.77284">
        <ele>169</ele>
        <time>2024-05-20T12:57:40.000Z</time>
      </trkpt>
      <trkpt lat="45.94001" lon="4.77291">
        <ele>169</ele>
        <time>2024-05-20T12:57:41.000Z</time>
      </trkpt>
      <trkpt lat="45.94001" lon="4.77297">
        <ele>169</ele>
        <time>2024-05-20T12:57:42.000Z</time>
      </trkpt>
      <trkpt lat="45.94" lon="4.77303">
        <ele>169.39999389648</ele>
        <time>2024-05-20T12:57:43.000Z</time>
      </trkpt>
      <trkpt lat="45.94001" lon="4.77308">
        <ele>170</ele>
        <time>2024-05-20T12:57:44.000Z</time>
      </trkpt>
      <trkpt lat="45.94003" lon="4.77313">
        <ele>170.60000610352</ele>
        <time>2024-05-20T12:57:45.000Z</time>
      </trkpt>
      <trkpt lat="45.94003" lon="4.77319">
        <ele>170.80000305176</ele>
        <time>2024-05-20T12:57:46.000Z</time>
      </trkpt>
      <trkpt lat="45.94003" lon="4.77325">
        <ele>170.80000305176</ele>
        <time>2024-05-20T12:57:47.000Z</time>
      </trkpt>
      <trkpt lat="45.94002" lon="4.77332">
        <ele>170.80000305176</ele>
        <time>2024-05-20T12:57:48.000Z</time>
      </trkpt>
      <trkpt lat="45.94001" lon="4.77339">
        <ele>170.80000305176</ele>
        <time>2024-05-20T12:57:49.000Z</time>
      </trkpt>
      <trkpt lat="45.94" lon="4.77345">
        <ele>170.80000305176</ele>
        <time>2024-05-20T12:57:50.000Z</time>
      </trkpt>
      <trkpt lat="45.94" lon="4.77352">
        <ele>170.80000305176</ele>
        <time>2024-05-20T12:57:51.000Z</time>
      </trkpt>
      <trkpt lat="45.93999" lon="4.77359">
        <ele>170.60000610352</ele>
        <time>2024-05-20T12:57:52.000Z</time>
      </trkpt>
      <trkpt lat="45.93999" lon="4.77366">
        <ele>170.60000610352</ele>
        <time>2024-05-20T12:57:53.000Z</time>
      </trkpt>
      <trkpt lat="45.93999" lon="4.77372">
        <ele>170.60000610352</ele>
        <time>2024-05-20T12:57:54.000Z</time>
      </trkpt>
      <trkpt lat="45.94001" lon="4.77377">
        <ele>170.60000610352</ele>
        <time>2024-05-20T12:57:55.000Z</time>
      </trkpt>
      <trkpt lat="45.94003" lon="4.77381">
        <ele>170.60000610352</ele>
        <time>2024-05-20T12:57:56.000Z</time>
      </trkpt>
      <trkpt lat="45.94005" lon="4.77385">
        <ele>170.60000610352</ele>
        <time>2024-05-20T12:57:57.000Z</time>
      </trkpt>
      <trkpt lat="45.94005" lon="4.7739">
        <ele>171</ele>
        <time>2024-05-20T12:57:58.000Z</time>
      </trkpt>
      <trkpt lat="45.94004" lon="4.77395">
        <ele>171.39999389648</ele>
        <time>2024-05-20T12:57:59.000Z</time>
      </trkpt>
      <trkpt lat="45.94003" lon="4.77401">
        <ele>171.60000610352</ele>
        <time>2024-05-20T12:58:00.000Z</time>
      </trkpt>
      <trkpt lat="45.94002" lon="4.77407">
        <ele>171.60000610352</ele>
        <time>2024-05-20T12:58:01.000Z</time>
      </trkpt>
      <trkpt lat="45.94001" lon="4.77414">
        <ele>171.60000610352</ele>
        <time>2024-05-20T12:58:02.000Z</time>
      </trkpt>
      <trkpt lat="45.94001" lon="4.77421">
        <ele>171.60000610352</ele>
        <time>2024-05-20T12:58:03.000Z</time>
      </trkpt>
      <trkpt lat="45.94" lon="4.77428">
        <ele>171.39999389648</ele>
        <time>2024-05-20T12:58:04.000Z</time>
      </trkpt>
      <trkpt lat="45.93999" lon="4.77435">
        <ele>171.39999389648</ele>
        <time>2024-05-20T12:58:05.000Z</time>
      </trkpt>
      <trkpt lat="45.93998" lon="4.77443">
        <ele>171.19999694824</ele>
        <time>2024-05-20T12:58:06.000Z</time>
      </trkpt>
      <trkpt lat="45.93997" lon="4.7745">
        <ele>171</ele>
        <time>2024-05-20T12:58:07.000Z</time>
      </trkpt>
      <trkpt lat="45.93996" lon="4.77458">
        <ele>171</ele>
        <time>2024-05-20T12:58:08.000Z</time>
      </trkpt>
      <trkpt lat="45.93995" lon="4.77466">
        <ele>171</ele>
        <time>2024-05-20T12:58:09.000Z</time>
      </trkpt>
      <trkpt lat="45.93993" lon="4.77473">
        <ele>171</ele>
        <time>2024-05-20T12:58:10.000Z</time>
      </trkpt>
      <trkpt lat="45.93992" lon="4.77481">
        <ele>171</ele>
        <time>2024-05-20T12:58:11.000Z</time>
      </trkpt>
      <trkpt lat="45.93991" lon="4.77489">
        <ele>171</ele>
        <time>2024-05-20T12:58:12.000Z</time>
      </trkpt>
      <trkpt lat="45.93989" lon="4.77497">
        <ele>171</ele>
        <time>2024-05-20T12:58:13.000Z</time>
      </trkpt>
      <trkpt lat="45.93988" lon="4.77505">
        <ele>171</ele>
        <time>2024-05-20T12:58:14.000Z</time>
      </trkpt>
      <trkpt lat="45.93987" lon="4.77513">
        <ele>171</ele>
        <time>2024-05-20T12:58:15.000Z</time>
      </trkpt>
      <trkpt lat="45.93986" lon="4.77521">
        <ele>171</ele>
        <time>2024-05-20T12:58:16.000Z</time>
      </trkpt>
      <trkpt lat="45.93985" lon="4.7753">
        <ele>170.80000305176</ele>
        <time>2024-05-20T12:58:17.000Z</time>
      </trkpt>
      <trkpt lat="45.93983" lon="4.77537">
        <ele>170.80000305176</ele>
        <time>2024-05-20T12:58:18.000Z</time>
      </trkpt>
      <trkpt lat="45.93982" lon="4.77546">
        <ele>170.80000305176</ele>
        <time>2024-05-20T12:58:19.000Z</time>
      </trkpt>
      <trkpt lat="45.93981" lon="4.77554">
        <ele>170.80000305176</ele>
        <time>2024-05-20T12:58:20.000Z</time>
      </trkpt>
      <trkpt lat="45.93979" lon="4.77562">
        <ele>170.80000305176</ele>
        <time>2024-05-20T12:58:21.000Z</time>
      </trkpt>
      <trkpt lat="45.93978" lon="4.7757">
        <ele>170.80000305176</ele>
        <time>2024-05-20T12:58:22.000Z</time>
      </trkpt>
      <trkpt lat="45.93977" lon="4.77578">
        <ele>170.80000305176</ele>
        <time>2024-05-20T12:58:23.000Z</time>
      </trkpt>
      <trkpt lat="45.93975" lon="4.77586">
        <ele>170.80000305176</ele>
        <time>2024-05-20T12:58:24.000Z</time>
      </trkpt>
      <trkpt lat="45.93974" lon="4.77594">
        <ele>170.80000305176</ele>
        <time>2024-05-20T12:58:25.000Z</time>
      </trkpt>
      <trkpt lat="45.93973" lon="4.77602">
        <ele>170.60000610352</ele>
        <time>2024-05-20T12:58:26.000Z</time>
      </trkpt>
      <trkpt lat="45.93972" lon="4.7761">
        <ele>170.39999389648</ele>
        <time>2024-05-20T12:58:27.000Z</time>
      </trkpt>
      <trkpt lat="45.93971" lon="4.77618">
        <ele>170.39999389648</ele>
        <time>2024-05-20T12:58:28.000Z</time>
      </trkpt>
      <trkpt lat="45.93969" lon="4.77625">
        <ele>170.39999389648</ele>
        <time>2024-05-20T12:58:29.000Z</time>
      </trkpt>
      <trkpt lat="45.93967" lon="4.77633">
        <ele>170.39999389648</ele>
        <time>2024-05-20T12:58:30.000Z</time>
      </trkpt>
      <trkpt lat="45.93965" lon="4.7764">
        <ele>170.39999389648</ele>
        <time>2024-05-20T12:58:31.000Z</time>
      </trkpt>
      <trkpt lat="45.93963" lon="4.77648">
        <ele>170.39999389648</ele>
        <time>2024-05-20T12:58:32.000Z</time>
      </trkpt>
      <trkpt lat="45.93962" lon="4.77656">
        <ele>170.39999389648</ele>
        <time>2024-05-20T12:58:33.000Z</time>
      </trkpt>
      <trkpt lat="45.9396" lon="4.77664">
        <ele>170.39999389648</ele>
        <time>2024-05-20T12:58:34.000Z</time>
      </trkpt>
      <trkpt lat="45.93957" lon="4.77672">
        <ele>170.39999389648</ele>
        <time>2024-05-20T12:58:35.000Z</time>
      </trkpt>
      <trkpt lat="45.93955" lon="4.7768">
        <ele>170.60000610352</ele>
        <time>2024-05-20T12:58:36.000Z</time>
      </trkpt>
      <trkpt lat="45.93953" lon="4.77687">
        <ele>170.60000610352</ele>
        <time>2024-05-20T12:58:37.000Z</time>
      </trkpt>
      <trkpt lat="45.9395" lon="4.77694">
        <ele>170.39999389648</ele>
        <time>2024-05-20T12:58:38.000Z</time>
      </trkpt>
      <trkpt lat="45.93948" lon="4.77702">
        <ele>170.39999389648</ele>
        <time>2024-05-20T12:58:39.000Z</time>
      </trkpt>
      <trkpt lat="45.93945" lon="4.77709">
        <ele>170.39999389648</ele>
        <time>2024-05-20T12:58:40.000Z</time>
      </trkpt>
      <trkpt lat="45.93942" lon="4.77716">
        <ele>170.39999389648</ele>
        <time>2024-05-20T12:58:41.000Z</time>
      </trkpt>
      <trkpt lat="45.93939" lon="4.77723">
        <ele>170.60000610352</ele>
        <time>2024-05-20T12:58:42.000Z</time>
      </trkpt>
      <trkpt lat="45.93936" lon="4.7773">
        <ele>170.60000610352</ele>
        <time>2024-05-20T12:58:43.000Z</time>
      </trkpt>
      <trkpt lat="45.93933" lon="4.77737">
        <ele>170.80000305176</ele>
        <time>2024-05-20T12:58:44.000Z</time>
      </trkpt>
      <trkpt lat="45.9393" lon="4.77744">
        <ele>171</ele>
        <time>2024-05-20T12:58:45.000Z</time>
      </trkpt>
      <trkpt lat="45.93927" lon="4.77751">
        <ele>171</ele>
        <time>2024-05-20T12:58:46.000Z</time>
      </trkpt>
      <trkpt lat="45.93924" lon="4.77758">
        <ele>171</ele>
        <time>2024-05-20T12:58:47.000Z</time>
      </trkpt>
      <trkpt lat="45.93921" lon="4.77765">
        <ele>171</ele>
        <time>2024-05-20T12:58:48.000Z</time>
      </trkpt>
      <trkpt lat="45.93918" lon="4.77771">
        <ele>171</ele>
        <time>2024-05-20T12:58:49.000Z</time>
      </trkpt>
      <trkpt lat="45.93915" lon="4.77778">
        <ele>171</ele>
        <time>2024-05-20T12:58:50.000Z</time>
      </trkpt>
      <trkpt lat="45.93912" lon="4.77785">
        <ele>171</ele>
        <time>2024-05-20T12:58:51.000Z</time>
      </trkpt>
      <trkpt lat="45.9391" lon="4.77791">
        <ele>171</ele>
        <time>2024-05-20T12:58:52.000Z</time>
      </trkpt>
      <trkpt lat="45.93908" lon="4.77798">
        <ele>171</ele>
        <time>2024-05-20T12:58:53.000Z</time>
      </trkpt>
      <trkpt lat="45.93906" lon="4.77804">
        <ele>171.19999694824</ele>
        <time>2024-05-20T12:58:54.000Z</time>
      </trkpt>
      <trkpt lat="45.93904" lon="4.7781">
        <ele>171.19999694824</ele>
        <time>2024-05-20T12:58:55.000Z</time>
      </trkpt>
      <trkpt lat="45.93902" lon="4.77816">
        <ele>171.39999389648</ele>
        <time>2024-05-20T12:58:56.000Z</time>
      </trkpt>
      <trkpt lat="45.939" lon="4.77822">
        <ele>171.39999389648</ele>
        <time>2024-05-20T12:58:57.000Z</time>
      </trkpt>
      <trkpt lat="45.93899" lon="4.77828">
        <ele>171.39999389648</ele>
        <time>2024-05-20T12:58:58.000Z</time>
      </trkpt>
      <trkpt lat="45.93897" lon="4.77834">
        <ele>171.80000305176</ele>
        <time>2024-05-20T12:58:59.000Z</time>
      </trkpt>
      <trkpt lat="45.93896" lon="4.7784">
        <ele>172</ele>
        <time>2024-05-20T12:59:00.000Z</time>
      </trkpt>
      <trkpt lat="45.93893" lon="4.77847">
        <ele>172.19999694824</ele>
        <time>2024-05-20T12:59:01.000Z</time>
      </trkpt>
      <trkpt lat="45.93891" lon="4.77853">
        <ele>172.19999694824</ele>
        <time>2024-05-20T12:59:02.000Z</time>
      </trkpt>
      <trkpt lat="45.9389" lon="4.7786">
        <ele>172.19999694824</ele>
        <time>2024-05-20T12:59:03.000Z</time>
      </trkpt>
      <trkpt lat="45.93888" lon="4.77866">
        <ele>172.39999389648</ele>
        <time>2024-05-20T12:59:04.000Z</time>
      </trkpt>
      <trkpt lat="45.93885" lon="4.77872">
        <ele>172.60000610352</ele>
        <time>2024-05-20T12:59:05.000Z</time>
      </trkpt>
      <trkpt lat="45.93882" lon="4.77878">
        <ele>172.60000610352</ele>
        <time>2024-05-20T12:59:06.000Z</time>
      </trkpt>
      <trkpt lat="45.93877" lon="4.77884">
        <ele>172.60000610352</ele>
        <time>2024-05-20T12:59:07.000Z</time>
      </trkpt>
      <trkpt lat="45.93873" lon="4.77891">
        <ele>172.60000610352</ele>
        <time>2024-05-20T12:59:08.000Z</time>
      </trkpt>
      <trkpt lat="45.93868" lon="4.77898">
        <ele>172.39999389648</ele>
        <time>2024-05-20T12:59:09.000Z</time>
      </trkpt>
      <trkpt lat="45.93863" lon="4.77906">
        <ele>171.80000305176</ele>
        <time>2024-05-20T12:59:10.000Z</time>
      </trkpt>
      <trkpt lat="45.93858" lon="4.77913">
        <ele>170.80000305176</ele>
        <time>2024-05-20T12:59:11.000Z</time>
      </trkpt>
      <trkpt lat="45.93853" lon="4.7792">
        <ele>170.19999694824</ele>
        <time>2024-05-20T12:59:12.000Z</time>
      </trkpt>
      <trkpt lat="45.93848" lon="4.77927">
        <ele>169.80000305176</ele>
        <time>2024-05-20T12:59:13.000Z</time>
      </trkpt>
      <trkpt lat="45.93844" lon="4.77933">
        <ele>169.39999389648</ele>
        <time>2024-05-20T12:59:14.000Z</time>
      </trkpt>
      <trkpt lat="45.93839" lon="4.7794">
        <ele>169.19999694824</ele>
        <time>2024-05-20T12:59:15.000Z</time>
      </trkpt>
      <trkpt lat="45.93835" lon="4.77946">
        <ele>169</ele>
        <time>2024-05-20T12:59:16.000Z</time>
      </trkpt>
      <trkpt lat="45.9383" lon="4.77951">
        <ele>169</ele>
        <time>2024-05-20T12:59:17.000Z</time>
      </trkpt>
      <trkpt lat="45.93826" lon="4.77957">
        <ele>169</ele>
        <time>2024-05-20T12:59:18.000Z</time>
      </trkpt>
      <trkpt lat="45.93821" lon="4.77963">
        <ele>169</ele>
        <time>2024-05-20T12:59:19.000Z</time>
      </trkpt>
      <trkpt lat="45.93816" lon="4.77969">
        <ele>169</ele>
        <time>2024-05-20T12:59:20.000Z</time>
      </trkpt>
      <trkpt lat="45.93812" lon="4.77974">
        <ele>169</ele>
        <time>2024-05-20T12:59:21.000Z</time>
      </trkpt>
      <trkpt lat="45.93808" lon="4.7798">
        <ele>169</ele>
        <time>2024-05-20T12:59:22.000Z</time>
      </trkpt>
      <trkpt lat="45.93803" lon="4.77986">
        <ele>169.39999389648</ele>
        <time>2024-05-20T12:59:23.000Z</time>
      </trkpt>
      <trkpt lat="45.93798" lon="4.77992">
        <ele>169.39999389648</ele>
        <time>2024-05-20T12:59:24.000Z</time>
      </trkpt>
      <trkpt lat="45.93794" lon="4.77998">
        <ele>169.60000610352</ele>
        <time>2024-05-20T12:59:25.000Z</time>
      </trkpt>
      <trkpt lat="45.93789" lon="4.78004">
        <ele>169.60000610352</ele>
        <time>2024-05-20T12:59:26.000Z</time>
      </trkpt>
      <trkpt lat="45.93784" lon="4.7801">
        <ele>169.60000610352</ele>
        <time>2024-05-20T12:59:27.000Z</time>
      </trkpt>
      <trkpt lat="45.9378" lon="4.78016">
        <ele>169.60000610352</ele>
        <time>2024-05-20T12:59:28.000Z</time>
      </trkpt>
      <trkpt lat="45.93776" lon="4.78022">
        <ele>169.60000610352</ele>
        <time>2024-05-20T12:59:29.000Z</time>
      </trkpt>
      <trkpt lat="45.93771" lon="4.78029">
        <ele>169.60000610352</ele>
        <time>2024-05-20T12:59:30.000Z</time>
      </trkpt>
      <trkpt lat="45.93766" lon="4.78034">
        <ele>169.60000610352</ele>
        <time>2024-05-20T12:59:31.000Z</time>
      </trkpt>
      <trkpt lat="45.93762" lon="4.7804">
        <ele>169.39999389648</ele>
        <time>2024-05-20T12:59:32.000Z</time>
      </trkpt>
      <trkpt lat="45.93757" lon="4.78046">
        <ele>169.39999389648</ele>
        <time>2024-05-20T12:59:33.000Z</time>
      </trkpt>
      <trkpt lat="45.93752" lon="4.78052">
        <ele>169.39999389648</ele>
        <time>2024-05-20T12:59:34.000Z</time>
      </trkpt>
      <trkpt lat="45.93747" lon="4.78058">
        <ele>169.39999389648</ele>
        <time>2024-05-20T12:59:35.000Z</time>
      </trkpt>
      <trkpt lat="45.93742" lon="4.78065">
        <ele>169.39999389648</ele>
        <time>2024-05-20T12:59:36.000Z</time>
      </trkpt>
      <trkpt lat="45.93737" lon="4.78071">
        <ele>169.39999389648</ele>
        <time>2024-05-20T12:59:37.000Z</time>
      </trkpt>
      <trkpt lat="45.93733" lon="4.78076">
        <ele>169.39999389648</ele>
        <time>2024-05-20T12:59:38.000Z</time>
      </trkpt>
      <trkpt lat="45.93728" lon="4.78083">
        <ele>169.39999389648</ele>
        <time>2024-05-20T12:59:39.000Z</time>
      </trkpt>
      <trkpt lat="45.93724" lon="4.78089">
        <ele>169.39999389648</ele>
        <time>2024-05-20T12:59:40.000Z</time>
      </trkpt>
      <trkpt lat="45.93719" lon="4.78095">
        <ele>169.39999389648</ele>
        <time>2024-05-20T12:59:41.000Z</time>
      </trkpt>
      <trkpt lat="45.93715" lon="4.78101">
        <ele>169.39999389648</ele>
        <time>2024-05-20T12:59:42.000Z</time>
      </trkpt>
      <trkpt lat="45.9371" lon="4.78106">
        <ele>169.39999389648</ele>
        <time>2024-05-20T12:59:43.000Z</time>
      </trkpt>
      <trkpt lat="45.93706" lon="4.78111">
        <ele>169.39999389648</ele>
        <time>2024-05-20T12:59:44.000Z</time>
      </trkpt>
      <trkpt lat="45.93701" lon="4.78116">
        <ele>169.39999389648</ele>
        <time>2024-05-20T12:59:45.000Z</time>
      </trkpt>
      <trkpt lat="45.93696" lon="4.78121">
        <ele>169.39999389648</ele>
        <time>2024-05-20T12:59:46.000Z</time>
      </trkpt>
      <trkpt lat="45.93691" lon="4.78125">
        <ele>169.60000610352</ele>
        <time>2024-05-20T12:59:47.000Z</time>
      </trkpt>
      <trkpt lat="45.93686" lon="4.7813">
        <ele>169.60000610352</ele>
        <time>2024-05-20T12:59:48.000Z</time>
      </trkpt>
      <trkpt lat="45.93681" lon="4.78134">
        <ele>169.60000610352</ele>
        <time>2024-05-20T12:59:49.000Z</time>
      </trkpt>
      <trkpt lat="45.93675" lon="4.78138">
        <ele>169.60000610352</ele>
        <time>2024-05-20T12:59:50.000Z</time>
      </trkpt>
      <trkpt lat="45.93669" lon="4.78141">
        <ele>169.60000610352</ele>
        <time>2024-05-20T12:59:51.000Z</time>
      </trkpt>
      <trkpt lat="45.93663" lon="4.78145">
        <ele>169.80000305176</ele>
        <time>2024-05-20T12:59:52.000Z</time>
      </trkpt>
      <trkpt lat="45.93658" lon="4.78148">
        <ele>169.80000305176</ele>
        <time>2024-05-20T12:59:53.000Z</time>
      </trkpt>
      <trkpt lat="45.93652" lon="4.78151">
        <ele>170</ele>
        <time>2024-05-20T12:59:54.000Z</time>
      </trkpt>
      <trkpt lat="45.93646" lon="4.78155">
        <ele>170</ele>
        <time>2024-05-20T12:59:55.000Z</time>
      </trkpt>
      <trkpt lat="45.93641" lon="4.78158">
        <ele>170</ele>
        <time>2024-05-20T12:59:56.000Z</time>
      </trkpt>
      <trkpt lat="45.93635" lon="4.78161">
        <ele>170</ele>
        <time>2024-05-20T12:59:57.000Z</time>
      </trkpt>
      <trkpt lat="45.93629" lon="4.78164">
        <ele>170</ele>
        <time>2024-05-20T12:59:58.000Z</time>
      </trkpt>
      <trkpt lat="45.93623" lon="4.78167">
        <ele>170</ele>
        <time>2024-05-20T12:59:59.000Z</time>
      </trkpt>
      <trkpt lat="45.93617" lon="4.78171">
        <ele>169.80000305176</ele>
        <time>2024-05-20T13:00:00.000Z</time>
      </trkpt>
      <trkpt lat="45.93611" lon="4.78174">
        <ele>169.60000610352</ele>
        <time>2024-05-20T13:00:01.000Z</time>
      </trkpt>
      <trkpt lat="45.93605" lon="4.78177">
        <ele>169.60000610352</ele>
        <time>2024-05-20T13:00:02.000Z</time>
      </trkpt>
      <trkpt lat="45.93599" lon="4.7818">
        <ele>169.60000610352</ele>
        <time>2024-05-20T13:00:03.000Z</time>
      </trkpt>
      <trkpt lat="45.93594" lon="4.78183">
        <ele>169.60000610352</ele>
        <time>2024-05-20T13:00:04.000Z</time>
      </trkpt>
      <trkpt lat="45.93588" lon="4.78187">
        <ele>169.60000610352</ele>
        <time>2024-05-20T13:00:05.000Z</time>
      </trkpt>
      <trkpt lat="45.93582" lon="4.78191">
        <ele>169.60000610352</ele>
        <time>2024-05-20T13:00:06.000Z</time>
      </trkpt>
      <trkpt lat="45.93577" lon="4.78195">
        <ele>169.60000610352</ele>
        <time>2024-05-20T13:00:07.000Z</time>
      </trkpt>
      <trkpt lat="45.93572" lon="4.78199">
        <ele>169.60000610352</ele>
        <time>2024-05-20T13:00:08.000Z</time>
      </trkpt>
      <trkpt lat="45.93566" lon="4.78202">
        <ele>169.60000610352</ele>
        <time>2024-05-20T13:00:09.000Z</time>
      </trkpt>
      <trkpt lat="45.9356" lon="4.78205">
        <ele>169.80000305176</ele>
        <time>2024-05-20T13:00:10.000Z</time>
      </trkpt>
      <trkpt lat="45.93555" lon="4.78208">
        <ele>169.80000305176</ele>
        <time>2024-05-20T13:00:11.000Z</time>
      </trkpt>
      <trkpt lat="45.9355" lon="4.78212">
        <ele>169.80000305176</ele>
        <time>2024-05-20T13:00:12.000Z</time>
      </trkpt>
      <trkpt lat="45.93544" lon="4.78217">
        <ele>169.80000305176</ele>
        <time>2024-05-20T13:00:13.000Z</time>
      </trkpt>
      <trkpt lat="45.93539" lon="4.78221">
        <ele>169.80000305176</ele>
        <time>2024-05-20T13:00:14.000Z</time>
      </trkpt>
      <trkpt lat="45.93534" lon="4.78226">
        <ele>169.80000305176</ele>
        <time>2024-05-20T13:00:15.000Z</time>
      </trkpt>
      <trkpt lat="45.93529" lon="4.7823">
        <ele>169.80000305176</ele>
        <time>2024-05-20T13:00:16.000Z</time>
      </trkpt>
      <trkpt lat="45.93524" lon="4.78234">
        <ele>169.80000305176</ele>
        <time>2024-05-20T13:00:17.000Z</time>
      </trkpt>
      <trkpt lat="45.93519" lon="4.78239">
        <ele>169.80000305176</ele>
        <time>2024-05-20T13:00:18.000Z</time>
      </trkpt>
      <trkpt lat="45.93514" lon="4.78244">
        <ele>169.80000305176</ele>
        <time>2024-05-20T13:00:19.000Z</time>
      </trkpt>
      <trkpt lat="45.9351" lon="4.7825">
        <ele>169.80000305176</ele>
        <time>2024-05-20T13:00:20.000Z</time>
      </trkpt>
      <trkpt lat="45.93505" lon="4.78255">
        <ele>169.80000305176</ele>
        <time>2024-05-20T13:00:21.000Z</time>
      </trkpt>
      <trkpt lat="45.935" lon="4.7826">
        <ele>169.80000305176</ele>
        <time>2024-05-20T13:00:22.000Z</time>
      </trkpt>
      <trkpt lat="45.93495" lon="4.78265">
        <ele>169.80000305176</ele>
        <time>2024-05-20T13:00:23.000Z</time>
      </trkpt>
      <trkpt lat="45.93491" lon="4.7827">
        <ele>170</ele>
        <time>2024-05-20T13:00:24.000Z</time>
      </trkpt>
      <trkpt lat="45.93485" lon="4.78275">
        <ele>170</ele>
        <time>2024-05-20T13:00:25.000Z</time>
      </trkpt>
      <trkpt lat="45.9348" lon="4.7828">
        <ele>170</ele>
        <time>2024-05-20T13:00:26.000Z</time>
      </trkpt>
      <trkpt lat="45.93475" lon="4.78285">
        <ele>170</ele>
        <time>2024-05-20T13:00:27.000Z</time>
      </trkpt>
      <trkpt lat="45.93469" lon="4.7829">
        <ele>170</ele>
        <time>2024-05-20T13:00:28.000Z</time>
      </trkpt>
      <trkpt lat="45.93464" lon="4.78295">
        <ele>170</ele>
        <time>2024-05-20T13:00:29.000Z</time>
      </trkpt>
      <trkpt lat="45.93458" lon="4.783">
        <ele>170</ele>
        <time>2024-05-20T13:00:30.000Z</time>
      </trkpt>
      <trkpt lat="45.93453" lon="4.78305">
        <ele>170</ele>
        <time>2024-05-20T13:00:31.000Z</time>
      </trkpt>
      <trkpt lat="45.93447" lon="4.78309">
        <ele>170</ele>
        <time>2024-05-20T13:00:32.000Z</time>
      </trkpt>
      <trkpt lat="45.93442" lon="4.78313">
        <ele>170</ele>
        <time>2024-05-20T13:00:33.000Z</time>
      </trkpt>
      <trkpt lat="45.93436" lon="4.78317">
        <ele>169.80000305176</ele>
        <time>2024-05-20T13:00:34.000Z</time>
      </trkpt>
      <trkpt lat="45.9343" lon="4.78321">
        <ele>169.60000610352</ele>
        <time>2024-05-20T13:00:35.000Z</time>
      </trkpt>
      <trkpt lat="45.93424" lon="4.78325">
        <ele>169.60000610352</ele>
        <time>2024-05-20T13:00:36.000Z</time>
      </trkpt>
      <trkpt lat="45.93418" lon="4.78329">
        <ele>169.39999389648</ele>
        <time>2024-05-20T13:00:37.000Z</time>
      </trkpt>
      <trkpt lat="45.93413" lon="4.78333">
        <ele>169.39999389648</ele>
        <time>2024-05-20T13:00:38.000Z</time>
      </trkpt>
      <trkpt lat="45.93407" lon="4.78336">
        <ele>169.19999694824</ele>
        <time>2024-05-20T13:00:39.000Z</time>
      </trkpt>
      <trkpt lat="45.93401" lon="4.7834">
        <ele>169</ele>
        <time>2024-05-20T13:00:40.000Z</time>
      </trkpt>
      <trkpt lat="45.93395" lon="4.78343">
        <ele>169</ele>
        <time>2024-05-20T13:00:41.000Z</time>
      </trkpt>
      <trkpt lat="45.9339" lon="4.78347">
        <ele>169</ele>
        <time>2024-05-20T13:00:42.000Z</time>
      </trkpt>
      <trkpt lat="45.93384" lon="4.78351">
        <ele>169</ele>
        <time>2024-05-20T13:00:43.000Z</time>
      </trkpt>
      <trkpt lat="45.93378" lon="4.78355">
        <ele>169</ele>
        <time>2024-05-20T13:00:44.000Z</time>
      </trkpt>
      <trkpt lat="45.93373" lon="4.78358">
        <ele>168.80000305176</ele>
        <time>2024-05-20T13:00:45.000Z</time>
      </trkpt>
      <trkpt lat="45.93368" lon="4.78362">
        <ele>168.80000305176</ele>
        <time>2024-05-20T13:00:46.000Z</time>
      </trkpt>
      <trkpt lat="45.93362" lon="4.78366">
        <ele>168.80000305176</ele>
        <time>2024-05-20T13:00:47.000Z</time>
      </trkpt>
      <trkpt lat="45.93357" lon="4.78369">
        <ele>168.80000305176</ele>
        <time>2024-05-20T13:00:48.000Z</time>
      </trkpt>
      <trkpt lat="45.93351" lon="4.78373">
        <ele>168.80000305176</ele>
        <time>2024-05-20T13:00:49.000Z</time>
      </trkpt>
      <trkpt lat="45.93345" lon="4.78377">
        <ele>168.80000305176</ele>
        <time>2024-05-20T13:00:50.000Z</time>
      </trkpt>
      <trkpt lat="45.9334" lon="4.78381">
        <ele>168.80000305176</ele>
        <time>2024-05-20T13:00:51.000Z</time>
      </trkpt>
      <trkpt lat="45.93335" lon="4.78385">
        <ele>168.80000305176</ele>
        <time>2024-05-20T13:00:52.000Z</time>
      </trkpt>
      <trkpt lat="45.93329" lon="4.78388">
        <ele>168.80000305176</ele>
        <time>2024-05-20T13:00:53.000Z</time>
      </trkpt>
      <trkpt lat="45.93324" lon="4.78392">
        <ele>168.60000610352</ele>
        <time>2024-05-20T13:00:54.000Z</time>
      </trkpt>
      <trkpt lat="45.93319" lon="4.78395">
        <ele>168.60000610352</ele>
        <time>2024-05-20T13:00:55.000Z</time>
      </trkpt>
      <trkpt lat="45.93315" lon="4.78399">
        <ele>168.60000610352</ele>
        <time>2024-05-20T13:00:56.000Z</time>
      </trkpt>
      <trkpt lat="45.9331" lon="4.78402">
        <ele>168.60000610352</ele>
        <time>2024-05-20T13:00:57.000Z</time>
      </trkpt>
      <trkpt lat="45.93306" lon="4.78406">
        <ele>168.60000610352</ele>
        <time>2024-05-20T13:00:58.000Z</time>
      </trkpt>
      <trkpt lat="45.93301" lon="4.78409">
        <ele>168.80000305176</ele>
        <time>2024-05-20T13:00:59.000Z</time>
      </trkpt>
      <trkpt lat="45.93296" lon="4.78412">
        <ele>168.80000305176</ele>
        <time>2024-05-20T13:01:00.000Z</time>
      </trkpt>
      <trkpt lat="45.93292" lon="4.78415">
        <ele>168.80000305176</ele>
        <time>2024-05-20T13:01:01.000Z</time>
      </trkpt>
      <trkpt lat="45.93287" lon="4.78418">
        <ele>168.80000305176</ele>
        <time>2024-05-20T13:01:02.000Z</time>
      </trkpt>
      <trkpt lat="45.93283" lon="4.78422">
        <ele>169</ele>
        <time>2024-05-20T13:01:03.000Z</time>
      </trkpt>
      <trkpt lat="45.93278" lon="4.78425">
        <ele>169</ele>
        <time>2024-05-20T13:01:04.000Z</time>
      </trkpt>
      <trkpt lat="45.93273" lon="4.78428">
        <ele>168.80000305176</ele>
        <time>2024-05-20T13:01:05.000Z</time>
      </trkpt>
      <trkpt lat="45.93269" lon="4.78431">
        <ele>168.80000305176</ele>
        <time>2024-05-20T13:01:06.000Z</time>
      </trkpt>
      <trkpt lat="45.93264" lon="4.78434">
        <ele>168.80000305176</ele>
        <time>2024-05-20T13:01:07.000Z</time>
      </trkpt>
      <trkpt lat="45.93259" lon="4.78437">
        <ele>168.80000305176</ele>
        <time>2024-05-20T13:01:08.000Z</time>
      </trkpt>
      <trkpt lat="45.93254" lon="4.78441">
        <ele>168.80000305176</ele>
        <time>2024-05-20T13:01:09.000Z</time>
      </trkpt>
      <trkpt lat="45.9325" lon="4.78444">
        <ele>168.80000305176</ele>
        <time>2024-05-20T13:01:10.000Z</time>
      </trkpt>
      <trkpt lat="45.93245" lon="4.78447">
        <ele>169</ele>
        <time>2024-05-20T13:01:11.000Z</time>
      </trkpt>
      <trkpt lat="45.9324" lon="4.78451">
        <ele>169.19999694824</ele>
        <time>2024-05-20T13:01:12.000Z</time>
      </trkpt>
      <trkpt lat="45.93235" lon="4.78454">
        <ele>169.19999694824</ele>
        <time>2024-05-20T13:01:13.000Z</time>
      </trkpt>
      <trkpt lat="45.9323" lon="4.78457">
        <ele>169.39999389648</ele>
        <time>2024-05-20T13:01:14.000Z</time>
      </trkpt>
      <trkpt lat="45.93226" lon="4.78461">
        <ele>169.39999389648</ele>
        <time>2024-05-20T13:01:15.000Z</time>
      </trkpt>
      <trkpt lat="45.93221" lon="4.78465">
        <ele>169.39999389648</ele>
        <time>2024-05-20T13:01:16.000Z</time>
      </trkpt>
      <trkpt lat="45.93216" lon="4.78468">
        <ele>169.39999389648</ele>
        <time>2024-05-20T13:01:17.000Z</time>
      </trkpt>
      <trkpt lat="45.93211" lon="4.78472">
        <ele>169.39999389648</ele>
        <time>2024-05-20T13:01:18.000Z</time>
      </trkpt>
      <trkpt lat="45.93206" lon="4.78475">
        <ele>169.39999389648</ele>
        <time>2024-05-20T13:01:19.000Z</time>
      </trkpt>
      <trkpt lat="45.93202" lon="4.78479">
        <ele>169.39999389648</ele>
        <time>2024-05-20T13:01:20.000Z</time>
      </trkpt>
      <trkpt lat="45.93197" lon="4.78483">
        <ele>169.19999694824</ele>
        <time>2024-05-20T13:01:21.000Z</time>
      </trkpt>
      <trkpt lat="45.93192" lon="4.78486">
        <ele>169.19999694824</ele>
        <time>2024-05-20T13:01:22.000Z</time>
      </trkpt>
      <trkpt lat="45.93187" lon="4.78488">
        <ele>169</ele>
        <time>2024-05-20T13:01:23.000Z</time>
      </trkpt>
      <trkpt lat="45.93182" lon="4.78491">
        <ele>168.39999389648</ele>
        <time>2024-05-20T13:01:24.000Z</time>
      </trkpt>
      <trkpt lat="45.93178" lon="4.78494">
        <ele>168.19999694824</ele>
        <time>2024-05-20T13:01:25.000Z</time>
      </trkpt>
      <trkpt lat="45.93173" lon="4.78498">
        <ele>168.19999694824</ele>
        <time>2024-05-20T13:01:26.000Z</time>
      </trkpt>
      <trkpt lat="45.93169" lon="4.78501">
        <ele>168.19999694824</ele>
        <time>2024-05-20T13:01:27.000Z</time>
      </trkpt>
      <trkpt lat="45.93164" lon="4.78505">
        <ele>168.19999694824</ele>
        <time>2024-05-20T13:01:28.000Z</time>
      </trkpt>
      <trkpt lat="45.9316" lon="4.78508">
        <ele>168.19999694824</ele>
        <time>2024-05-20T13:01:29.000Z</time>
      </trkpt>
      <trkpt lat="45.93155" lon="4.78512">
        <ele>168.39999389648</ele>
        <time>2024-05-20T13:01:30.000Z</time>
      </trkpt>
      <trkpt lat="45.93151" lon="4.78515">
        <ele>168.60000610352</ele>
        <time>2024-05-20T13:01:31.000Z</time>
      </trkpt>
      <trkpt lat="45.93146" lon="4.78519">
        <ele>169</ele>
        <time>2024-05-20T13:01:32.000Z</time>
      </trkpt>
      <trkpt lat="45.93142" lon="4.78522">
        <ele>169</ele>
        <time>2024-05-20T13:01:33.000Z</time>
      </trkpt>
      <trkpt lat="45.93137" lon="4.78525">
        <ele>169</ele>
        <time>2024-05-20T13:01:34.000Z</time>
      </trkpt>
      <trkpt lat="45.93132" lon="4.78528">
        <ele>169</ele>
        <time>2024-05-20T13:01:35.000Z</time>
      </trkpt>
      <trkpt lat="45.93127" lon="4.78532">
        <ele>169</ele>
        <time>2024-05-20T13:01:36.000Z</time>
      </trkpt>
      <trkpt lat="45.93123" lon="4.78535">
        <ele>168.80000305176</ele>
        <time>2024-05-20T13:01:37.000Z</time>
      </trkpt>
      <trkpt lat="45.93118" lon="4.78538">
        <ele>168.80000305176</ele>
        <time>2024-05-20T13:01:38.000Z</time>
      </trkpt>
      <trkpt lat="45.93113" lon="4.78542">
        <ele>168.60000610352</ele>
        <time>2024-05-20T13:01:39.000Z</time>
      </trkpt>
      <trkpt lat="45.93109" lon="4.78546">
        <ele>168.60000610352</ele>
        <time>2024-05-20T13:01:40.000Z</time>
      </trkpt>
      <trkpt lat="45.93104" lon="4.78549">
        <ele>168.60000610352</ele>
        <time>2024-05-20T13:01:41.000Z</time>
      </trkpt>
      <trkpt lat="45.93099" lon="4.78553">
        <ele>168.60000610352</ele>
        <time>2024-05-20T13:01:42.000Z</time>
      </trkpt>
      <trkpt lat="45.93094" lon="4.78556">
        <ele>168.60000610352</ele>
        <time>2024-05-20T13:01:43.000Z</time>
      </trkpt>
      <trkpt lat="45.93089" lon="4.78559">
        <ele>168.60000610352</ele>
        <time>2024-05-20T13:01:44.000Z</time>
      </trkpt>
      <trkpt lat="45.93084" lon="4.78562">
        <ele>168.60000610352</ele>
        <time>2024-05-20T13:01:45.000Z</time>
      </trkpt>
      <trkpt lat="45.9308" lon="4.78565">
        <ele>168.60000610352</ele>
        <time>2024-05-20T13:01:46.000Z</time>
      </trkpt>
      <trkpt lat="45.93075" lon="4.78568">
        <ele>168.60000610352</ele>
        <time>2024-05-20T13:01:47.000Z</time>
      </trkpt>
      <trkpt lat="45.9307" lon="4.78571">
        <ele>168.60000610352</ele>
        <time>2024-05-20T13:01:48.000Z</time>
      </trkpt>
      <trkpt lat="45.93065" lon="4.78575">
        <ele>168.60000610352</ele>
        <time>2024-05-20T13:01:49.000Z</time>
      </trkpt>
      <trkpt lat="45.9306" lon="4.78579">
        <ele>168.60000610352</ele>
        <time>2024-05-20T13:01:50.000Z</time>
      </trkpt>
      <trkpt lat="45.93056" lon="4.78583">
        <ele>168.80000305176</ele>
        <time>2024-05-20T13:01:51.000Z</time>
      </trkpt>
      <trkpt lat="45.93051" lon="4.78587">
        <ele>168.80000305176</ele>
        <time>2024-05-20T13:01:52.000Z</time>
      </trkpt>
      <trkpt lat="45.93046" lon="4.7859">
        <ele>168.80000305176</ele>
        <time>2024-05-20T13:01:53.000Z</time>
      </trkpt>
      <trkpt lat="45.93041" lon="4.78593">
        <ele>168.80000305176</ele>
        <time>2024-05-20T13:01:54.000Z</time>
      </trkpt>
      <trkpt lat="45.93036" lon="4.78596">
        <ele>168.80000305176</ele>
        <time>2024-05-20T13:01:55.000Z</time>
      </trkpt>
      <trkpt lat="45.93031" lon="4.78599">
        <ele>168.80000305176</ele>
        <time>2024-05-20T13:01:56.000Z</time>
      </trkpt>
      <trkpt lat="45.93026" lon="4.78602">
        <ele>168.80000305176</ele>
        <time>2024-05-20T13:01:57.000Z</time>
      </trkpt>
      <trkpt lat="45.93021" lon="4.78606">
        <ele>168.80000305176</ele>
        <time>2024-05-20T13:01:58.000Z</time>
      </trkpt>
      <trkpt lat="45.93016" lon="4.7861">
        <ele>168.80000305176</ele>
        <time>2024-05-20T13:01:59.000Z</time>
      </trkpt>
      <trkpt lat="45.93011" lon="4.78613">
        <ele>168.80000305176</ele>
        <time>2024-05-20T13:02:00.000Z</time>
      </trkpt>
      <trkpt lat="45.93006" lon="4.78617">
        <ele>168.80000305176</ele>
        <time>2024-05-20T13:02:01.000Z</time>
      </trkpt>
      <trkpt lat="45.93001" lon="4.78621">
        <ele>168.80000305176</ele>
        <time>2024-05-20T13:02:02.000Z</time>
      </trkpt>
      <trkpt lat="45.92996" lon="4.78625">
        <ele>168.80000305176</ele>
        <time>2024-05-20T13:02:03.000Z</time>
      </trkpt>
      <trkpt lat="45.92992" lon="4.78629">
        <ele>168.80000305176</ele>
        <time>2024-05-20T13:02:04.000Z</time>
      </trkpt>
      <trkpt lat="45.92987" lon="4.78633">
        <ele>168.60000610352</ele>
        <time>2024-05-20T13:02:05.000Z</time>
      </trkpt>
      <trkpt lat="45.92982" lon="4.78637">
        <ele>168.60000610352</ele>
        <time>2024-05-20T13:02:06.000Z</time>
      </trkpt>
      <trkpt lat="45.92977" lon="4.78641">
        <ele>168.39999389648</ele>
        <time>2024-05-20T13:02:07.000Z</time>
      </trkpt>
      <trkpt lat="45.92972" lon="4.78645">
        <ele>168.39999389648</ele>
        <time>2024-05-20T13:02:08.000Z</time>
      </trkpt>
      <trkpt lat="45.92968" lon="4.78649">
        <ele>168.39999389648</ele>
        <time>2024-05-20T13:02:09.000Z</time>
      </trkpt>
      <trkpt lat="45.92963" lon="4.78653">
        <ele>168.39999389648</ele>
        <time>2024-05-20T13:02:10.000Z</time>
      </trkpt>
      <trkpt lat="45.92958" lon="4.78656">
        <ele>168.39999389648</ele>
        <time>2024-05-20T13:02:11.000Z</time>
      </trkpt>
      <trkpt lat="45.92954" lon="4.7866">
        <ele>168.39999389648</ele>
        <time>2024-05-20T13:02:12.000Z</time>
      </trkpt>
      <trkpt lat="45.92949" lon="4.78664">
        <ele>168.19999694824</ele>
        <time>2024-05-20T13:02:13.000Z</time>
      </trkpt>
      <trkpt lat="45.92944" lon="4.78667">
        <ele>168.19999694824</ele>
        <time>2024-05-20T13:02:14.000Z</time>
      </trkpt>
      <trkpt lat="45.9294" lon="4.7867">
        <ele>168.19999694824</ele>
        <time>2024-05-20T13:02:15.000Z</time>
      </trkpt>
      <trkpt lat="45.92935" lon="4.78673">
        <ele>168.19999694824</ele>
        <time>2024-05-20T13:02:16.000Z</time>
      </trkpt>
      <trkpt lat="45.9293" lon="4.78677">
        <ele>168.19999694824</ele>
        <time>2024-05-20T13:02:17.000Z</time>
      </trkpt>
      <trkpt lat="45.92925" lon="4.7868">
        <ele>168.19999694824</ele>
        <time>2024-05-20T13:02:18.000Z</time>
      </trkpt>
      <trkpt lat="45.92921" lon="4.78683">
        <ele>168.19999694824</ele>
        <time>2024-05-20T13:02:19.000Z</time>
      </trkpt>
      <trkpt lat="45.92916" lon="4.78686">
        <ele>168.60000610352</ele>
        <time>2024-05-20T13:02:20.000Z</time>
      </trkpt>
      <trkpt lat="45.92911" lon="4.7869">
        <ele>168.80000305176</ele>
        <time>2024-05-20T13:02:21.000Z</time>
      </trkpt>
      <trkpt lat="45.92907" lon="4.78693">
        <ele>168.80000305176</ele>
        <time>2024-05-20T13:02:22.000Z</time>
      </trkpt>
      <trkpt lat="45.92902" lon="4.78696">
        <ele>169</ele>
        <time>2024-05-20T13:02:23.000Z</time>
      </trkpt>
      <trkpt lat="45.92897" lon="4.787">
        <ele>169</ele>
        <time>2024-05-20T13:02:24.000Z</time>
      </trkpt>
      <trkpt lat="45.92892" lon="4.78703">
        <ele>169</ele>
        <time>2024-05-20T13:02:25.000Z</time>
      </trkpt>
      <trkpt lat="45.92887" lon="4.78707">
        <ele>169.19999694824</ele>
        <time>2024-05-20T13:02:26.000Z</time>
      </trkpt>
      <trkpt lat="45.92883" lon="4.7871">
        <ele>169.19999694824</ele>
        <time>2024-05-20T13:02:27.000Z</time>
      </trkpt>
      <trkpt lat="45.92878" lon="4.78714">
        <ele>169.19999694824</ele>
        <time>2024-05-20T13:02:28.000Z</time>
      </trkpt>
      <trkpt lat="45.92873" lon="4.78717">
        <ele>169.19999694824</ele>
        <time>2024-05-20T13:02:29.000Z</time>
      </trkpt>
      <trkpt lat="45.92869" lon="4.78721">
        <ele>169</ele>
        <time>2024-05-20T13:02:30.000Z</time>
      </trkpt>
      <trkpt lat="45.92864" lon="4.78724">
        <ele>169</ele>
        <time>2024-05-20T13:02:31.000Z</time>
      </trkpt>
      <trkpt lat="45.9286" lon="4.78728">
        <ele>169</ele>
        <time>2024-05-20T13:02:32.000Z</time>
      </trkpt>
      <trkpt lat="45.92855" lon="4.78731">
        <ele>169</ele>
        <time>2024-05-20T13:02:33.000Z</time>
      </trkpt>
      <trkpt lat="45.9285" lon="4.78734">
        <ele>169.19999694824</ele>
        <time>2024-05-20T13:02:34.000Z</time>
      </trkpt>
      <trkpt lat="45.92845" lon="4.78738">
        <ele>169.19999694824</ele>
        <time>2024-05-20T13:02:35.000Z</time>
      </trkpt>
      <trkpt lat="45.9284" lon="4.78741">
        <ele>169.19999694824</ele>
        <time>2024-05-20T13:02:36.000Z</time>
      </trkpt>
      <trkpt lat="45.92835" lon="4.78745">
        <ele>169.19999694824</ele>
        <time>2024-05-20T13:02:37.000Z</time>
      </trkpt>
      <trkpt lat="45.92831" lon="4.78749">
        <ele>168.80000305176</ele>
        <time>2024-05-20T13:02:38.000Z</time>
      </trkpt>
      <trkpt lat="45.92826" lon="4.78752">
        <ele>168.80000305176</ele>
        <time>2024-05-20T13:02:39.000Z</time>
      </trkpt>
      <trkpt lat="45.92821" lon="4.78756">
        <ele>168.80000305176</ele>
        <time>2024-05-20T13:02:40.000Z</time>
      </trkpt>
      <trkpt lat="45.92816" lon="4.78759">
        <ele>168.80000305176</ele>
        <time>2024-05-20T13:02:41.000Z</time>
      </trkpt>
      <trkpt lat="45.92811" lon="4.78762">
        <ele>168.80000305176</ele>
        <time>2024-05-20T13:02:42.000Z</time>
      </trkpt>
      <trkpt lat="45.92806" lon="4.78765">
        <ele>168.80000305176</ele>
        <time>2024-05-20T13:02:43.000Z</time>
      </trkpt>
      <trkpt lat="45.92801" lon="4.78768">
        <ele>169</ele>
        <time>2024-05-20T13:02:44.000Z</time>
      </trkpt>
      <trkpt lat="45.92797" lon="4.78772">
        <ele>169</ele>
        <time>2024-05-20T13:02:45.000Z</time>
      </trkpt>
      <trkpt lat="45.92792" lon="4.78776">
        <ele>169.39999389648</ele>
        <time>2024-05-20T13:02:46.000Z</time>
      </trkpt>
      <trkpt lat="45.92788" lon="4.78779">
        <ele>169.80000305176</ele>
        <time>2024-05-20T13:02:47.000Z</time>
      </trkpt>
      <trkpt lat="45.92783" lon="4.78783">
        <ele>169.80000305176</ele>
        <time>2024-05-20T13:02:48.000Z</time>
      </trkpt>
      <trkpt lat="45.92778" lon="4.78786">
        <ele>169.80000305176</ele>
        <time>2024-05-20T13:02:49.000Z</time>
      </trkpt>
      <trkpt lat="45.92773" lon="4.7879">
        <ele>169.80000305176</ele>
        <time>2024-05-20T13:02:50.000Z</time>
      </trkpt>
      <trkpt lat="45.92768" lon="4.78793">
        <ele>169.60000610352</ele>
        <time>2024-05-20T13:02:51.000Z</time>
      </trkpt>
      <trkpt lat="45.92763" lon="4.78797">
        <ele>169.60000610352</ele>
        <time>2024-05-20T13:02:52.000Z</time>
      </trkpt>
      <trkpt lat="45.92758" lon="4.78801">
        <ele>169.60000610352</ele>
        <time>2024-05-20T13:02:53.000Z</time>
      </trkpt>
      <trkpt lat="45.92754" lon="4.78804">
        <ele>169.60000610352</ele>
        <time>2024-05-20T13:02:54.000Z</time>
      </trkpt>
      <trkpt lat="45.92748" lon="4.78808">
        <ele>169.60000610352</ele>
        <time>2024-05-20T13:02:55.000Z</time>
      </trkpt>
      <trkpt lat="45.92743" lon="4.78811">
        <ele>169.39999389648</ele>
        <time>2024-05-20T13:02:56.000Z</time>
      </trkpt>
      <trkpt lat="45.92738" lon="4.78815">
        <ele>169.39999389648</ele>
        <time>2024-05-20T13:02:57.000Z</time>
      </trkpt>
      <trkpt lat="45.92733" lon="4.78818">
        <ele>169.39999389648</ele>
        <time>2024-05-20T13:02:58.000Z</time>
      </trkpt>
      <trkpt lat="45.92728" lon="4.78822">
        <ele>169.19999694824</ele>
        <time>2024-05-20T13:02:59.000Z</time>
      </trkpt>
      <trkpt lat="45.92723" lon="4.78825">
        <ele>169.19999694824</ele>
        <time>2024-05-20T13:03:00.000Z</time>
      </trkpt>
      <trkpt lat="45.92718" lon="4.78828">
        <ele>169.19999694824</ele>
        <time>2024-05-20T13:03:01.000Z</time>
      </trkpt>
      <trkpt lat="45.92712" lon="4.78831">
        <ele>169.19999694824</ele>
        <time>2024-05-20T13:03:02.000Z</time>
      </trkpt>
      <trkpt lat="45.92707" lon="4.78835">
        <ele>169.19999694824</ele>
        <time>2024-05-20T13:03:03.000Z</time>
      </trkpt>
      <trkpt lat="45.92702" lon="4.78838">
        <ele>169.19999694824</ele>
        <time>2024-05-20T13:03:04.000Z</time>
      </trkpt>
      <trkpt lat="45.92697" lon="4.78841">
        <ele>169.19999694824</ele>
        <time>2024-05-20T13:03:05.000Z</time>
      </trkpt>
      <trkpt lat="45.92692" lon="4.78844">
        <ele>169.19999694824</ele>
        <time>2024-05-20T13:03:06.000Z</time>
      </trkpt>
      <trkpt lat="45.92687" lon="4.78848">
        <ele>169.19999694824</ele>
        <time>2024-05-20T13:03:07.000Z</time>
      </trkpt>
      <trkpt lat="45.92682" lon="4.7885">
        <ele>168.80000305176</ele>
        <time>2024-05-20T13:03:08.000Z</time>
      </trkpt>
      <trkpt lat="45.92677" lon="4.78853">
        <ele>168.60000610352</ele>
        <time>2024-05-20T13:03:09.000Z</time>
      </trkpt>
      <trkpt lat="45.92672" lon="4.78856">
        <ele>168.60000610352</ele>
        <time>2024-05-20T13:03:10.000Z</time>
      </trkpt>
      <trkpt lat="45.92667" lon="4.78859">
        <ele>168.60000610352</ele>
        <time>2024-05-20T13:03:11.000Z</time>
      </trkpt>
      <trkpt lat="45.92662" lon="4.78862">
        <ele>168.60000610352</ele>
        <time>2024-05-20T13:03:12.000Z</time>
      </trkpt>
      <trkpt lat="45.92657" lon="4.78865">
        <ele>168.80000305176</ele>
        <time>2024-05-20T13:03:13.000Z</time>
      </trkpt>
      <trkpt lat="45.92651" lon="4.78868">
        <ele>169</ele>
        <time>2024-05-20T13:03:14.000Z</time>
      </trkpt>
      <trkpt lat="45.92646" lon="4.78871">
        <ele>169.39999389648</ele>
        <time>2024-05-20T13:03:15.000Z</time>
      </trkpt>
      <trkpt lat="45.92641" lon="4.78874">
        <ele>169.39999389648</ele>
        <time>2024-05-20T13:03:16.000Z</time>
      </trkpt>
      <trkpt lat="45.92636" lon="4.78877">
        <ele>169.39999389648</ele>
        <time>2024-05-20T13:03:17.000Z</time>
      </trkpt>
      <trkpt lat="45.92631" lon="4.7888">
        <ele>169.39999389648</ele>
        <time>2024-05-20T13:03:18.000Z</time>
      </trkpt>
      <trkpt lat="45.92626" lon="4.78883">
        <ele>169.39999389648</ele>
        <time>2024-05-20T13:03:19.000Z</time>
      </trkpt>
      <trkpt lat="45.92621" lon="4.78886">
        <ele>169.39999389648</ele>
        <time>2024-05-20T13:03:20.000Z</time>
      </trkpt>
      <trkpt lat="45.92616" lon="4.78889">
        <ele>169.39999389648</ele>
        <time>2024-05-20T13:03:21.000Z</time>
      </trkpt>
      <trkpt lat="45.92611" lon="4.78892">
        <ele>169.60000610352</ele>
        <time>2024-05-20T13:03:22.000Z</time>
      </trkpt>
      <trkpt lat="45.92606" lon="4.78895">
        <ele>169.60000610352</ele>
        <time>2024-05-20T13:03:23.000Z</time>
      </trkpt>
      <trkpt lat="45.92601" lon="4.78898">
        <ele>169.60000610352</ele>
        <time>2024-05-20T13:03:24.000Z</time>
      </trkpt>
      <trkpt lat="45.92596" lon="4.789">
        <ele>169.60000610352</ele>
        <time>2024-05-20T13:03:25.000Z</time>
      </trkpt>
      <trkpt lat="45.92591" lon="4.78903">
        <ele>169.60000610352</ele>
        <time>2024-05-20T13:03:26.000Z</time>
      </trkpt>
      <trkpt lat="45.92586" lon="4.78905">
        <ele>169.60000610352</ele>
        <time>2024-05-20T13:03:27.000Z</time>
      </trkpt>
      <trkpt lat="45.9258" lon="4.78908">
        <ele>169.39999389648</ele>
        <time>2024-05-20T13:03:28.000Z</time>
      </trkpt>
      <trkpt lat="45.92575" lon="4.78909">
        <ele>169.39999389648</ele>
        <time>2024-05-20T13:03:29.000Z</time>
      </trkpt>
      <trkpt lat="45.9257" lon="4.78911">
        <ele>169.19999694824</ele>
        <time>2024-05-20T13:03:30.000Z</time>
      </trkpt>
      <trkpt lat="45.92565" lon="4.78913">
        <ele>169.19999694824</ele>
        <time>2024-05-20T13:03:31.000Z</time>
      </trkpt>
      <trkpt lat="45.92559" lon="4.78915">
        <ele>169.39999389648</ele>
        <time>2024-05-20T13:03:32.000Z</time>
      </trkpt>
      <trkpt lat="45.92554" lon="4.78918">
        <ele>169.39999389648</ele>
        <time>2024-05-20T13:03:33.000Z</time>
      </trkpt>
      <trkpt lat="45.9255" lon="4.78921">
        <ele>169.39999389648</ele>
        <time>2024-05-20T13:03:34.000Z</time>
      </trkpt>
      <trkpt lat="45.92545" lon="4.78924">
        <ele>169.39999389648</ele>
        <time>2024-05-20T13:03:35.000Z</time>
      </trkpt>
      <trkpt lat="45.92541" lon="4.78927">
        <ele>169.39999389648</ele>
        <time>2024-05-20T13:03:36.000Z</time>
      </trkpt>
      <trkpt lat="45.92536" lon="4.7893">
        <ele>169.39999389648</ele>
        <time>2024-05-20T13:03:37.000Z</time>
      </trkpt>
      <trkpt lat="45.92531" lon="4.78933">
        <ele>169.60000610352</ele>
        <time>2024-05-20T13:03:38.000Z</time>
      </trkpt>
      <trkpt lat="45.92527" lon="4.78937">
        <ele>169.60000610352</ele>
        <time>2024-05-20T13:03:39.000Z</time>
      </trkpt>
      <trkpt lat="45.92522" lon="4.7894">
        <ele>169.60000610352</ele>
        <time>2024-05-20T13:03:40.000Z</time>
      </trkpt>
      <trkpt lat="45.92517" lon="4.78943">
        <ele>169.60000610352</ele>
        <time>2024-05-20T13:03:41.000Z</time>
      </trkpt>
      <trkpt lat="45.92512" lon="4.78947">
        <ele>169.80000305176</ele>
        <time>2024-05-20T13:03:42.000Z</time>
      </trkpt>
      <trkpt lat="45.92508" lon="4.78951">
        <ele>169.80000305176</ele>
        <time>2024-05-20T13:03:43.000Z</time>
      </trkpt>
      <trkpt lat="45.92503" lon="4.78955">
        <ele>169.80000305176</ele>
        <time>2024-05-20T13:03:44.000Z</time>
      </trkpt>
      <trkpt lat="45.92498" lon="4.78959">
        <ele>169.80000305176</ele>
        <time>2024-05-20T13:03:45.000Z</time>
      </trkpt>
      <trkpt lat="45.92494" lon="4.78963">
        <ele>169.80000305176</ele>
        <time>2024-05-20T13:03:46.000Z</time>
      </trkpt>
      <trkpt lat="45.92489" lon="4.78967">
        <ele>169.80000305176</ele>
        <time>2024-05-20T13:03:47.000Z</time>
      </trkpt>
      <trkpt lat="45.92485" lon="4.78971">
        <ele>169.80000305176</ele>
        <time>2024-05-20T13:03:48.000Z</time>
      </trkpt>
      <trkpt lat="45.9248" lon="4.78976">
        <ele>169.60000610352</ele>
        <time>2024-05-20T13:03:49.000Z</time>
      </trkpt>
      <trkpt lat="45.92476" lon="4.7898">
        <ele>169.60000610352</ele>
        <time>2024-05-20T13:03:50.000Z</time>
      </trkpt>
      <trkpt lat="45.92472" lon="4.78984">
        <ele>169.60000610352</ele>
        <time>2024-05-20T13:03:51.000Z</time>
      </trkpt>
      <trkpt lat="45.92468" lon="4.78989">
        <ele>169.60000610352</ele>
        <time>2024-05-20T13:03:52.000Z</time>
      </trkpt>
      <trkpt lat="45.92463" lon="4.78993">
        <ele>169.80000305176</ele>
        <time>2024-05-20T13:03:53.000Z</time>
      </trkpt>
      <trkpt lat="45.92459" lon="4.78998">
        <ele>169.80000305176</ele>
        <time>2024-05-20T13:03:54.000Z</time>
      </trkpt>
      <trkpt lat="45.92455" lon="4.79002">
        <ele>169.80000305176</ele>
        <time>2024-05-20T13:03:55.000Z</time>
      </trkpt>
      <trkpt lat="45.92451" lon="4.79006">
        <ele>169.80000305176</ele>
        <time>2024-05-20T13:03:56.000Z</time>
      </trkpt>
      <trkpt lat="45.92447" lon="4.7901">
        <ele>169.80000305176</ele>
        <time>2024-05-20T13:03:57.000Z</time>
      </trkpt>
      <trkpt lat="45.92443" lon="4.79015">
        <ele>169.80000305176</ele>
        <time>2024-05-20T13:03:58.000Z</time>
      </trkpt>
      <trkpt lat="45.9244" lon="4.79019">
        <ele>169.19999694824</ele>
        <time>2024-05-20T13:03:59.000Z</time>
      </trkpt>
      <trkpt lat="45.92438" lon="4.79024">
        <ele>169.19999694824</ele>
        <time>2024-05-20T13:04:00.000Z</time>
      </trkpt>
      <trkpt lat="45.92435" lon="4.79029">
        <ele>169.19999694824</ele>
        <time>2024-05-20T13:04:01.000Z</time>
      </trkpt>
      <trkpt lat="45.92432" lon="4.79034">
        <ele>169.19999694824</ele>
        <time>2024-05-20T13:04:02.000Z</time>
      </trkpt>
      <trkpt lat="45.92428" lon="4.79038">
        <ele>169.39999389648</ele>
        <time>2024-05-20T13:04:03.000Z</time>
      </trkpt>
      <trkpt lat="45.92424" lon="4.79043">
        <ele>169.39999389648</ele>
        <time>2024-05-20T13:04:04.000Z</time>
      </trkpt>
      <trkpt lat="45.92421" lon="4.79048">
        <ele>169.39999389648</ele>
        <time>2024-05-20T13:04:05.000Z</time>
      </trkpt>
      <trkpt lat="45.92418" lon="4.79053">
        <ele>169.39999389648</ele>
        <time>2024-05-20T13:04:06.000Z</time>
      </trkpt>
      <trkpt lat="45.92414" lon="4.79058">
        <ele>169.39999389648</ele>
        <time>2024-05-20T13:04:07.000Z</time>
      </trkpt>
      <trkpt lat="45.92411" lon="4.79064">
        <ele>169.39999389648</ele>
        <time>2024-05-20T13:04:08.000Z</time>
      </trkpt>
      <trkpt lat="45.92407" lon="4.79069">
        <ele>169.19999694824</ele>
        <time>2024-05-20T13:04:09.000Z</time>
      </trkpt>
      <trkpt lat="45.92404" lon="4.79074">
        <ele>169.19999694824</ele>
        <time>2024-05-20T13:04:10.000Z</time>
      </trkpt>
      <trkpt lat="45.92401" lon="4.79079">
        <ele>169</ele>
        <time>2024-05-20T13:04:11.000Z</time>
      </trkpt>
      <trkpt lat="45.92397" lon="4.79084">
        <ele>169</ele>
        <time>2024-05-20T13:04:12.000Z</time>
      </trkpt>
      <trkpt lat="45.92394" lon="4.7909">
        <ele>169</ele>
        <time>2024-05-20T13:04:13.000Z</time>
      </trkpt>
      <trkpt lat="45.9239" lon="4.79095">
        <ele>169</ele>
        <time>2024-05-20T13:04:14.000Z</time>
      </trkpt>
      <trkpt lat="45.92387" lon="4.791">
        <ele>169.19999694824</ele>
        <time>2024-05-20T13:04:15.000Z</time>
      </trkpt>
      <trkpt lat="45.92384" lon="4.79105">
        <ele>169.60000610352</ele>
        <time>2024-05-20T13:04:16.000Z</time>
      </trkpt>
      <trkpt lat="45.9238" lon="4.79111">
        <ele>169.80000305176</ele>
        <time>2024-05-20T13:04:17.000Z</time>
      </trkpt>
      <trkpt lat="45.92377" lon="4.79117">
        <ele>169.80000305176</ele>
        <time>2024-05-20T13:04:18.000Z</time>
      </trkpt>
      <trkpt lat="45.92374" lon="4.79123">
        <ele>169.80000305176</ele>
        <time>2024-05-20T13:04:19.000Z</time>
      </trkpt>
      <trkpt lat="45.92371" lon="4.79128">
        <ele>169.80000305176</ele>
        <time>2024-05-20T13:04:20.000Z</time>
      </trkpt>
      <trkpt lat="45.92367" lon="4.79134">
        <ele>169.60000610352</ele>
        <time>2024-05-20T13:04:21.000Z</time>
      </trkpt>
      <trkpt lat="45.92364" lon="4.7914">
        <ele>169.39999389648</ele>
        <time>2024-05-20T13:04:22.000Z</time>
      </trkpt>
      <trkpt lat="45.92361" lon="4.79146">
        <ele>169.39999389648</ele>
        <time>2024-05-20T13:04:23.000Z</time>
      </trkpt>
      <trkpt lat="45.92358" lon="4.79152">
        <ele>169.39999389648</ele>
        <time>2024-05-20T13:04:24.000Z</time>
      </trkpt>
      <trkpt lat="45.92355" lon="4.79158">
        <ele>169.39999389648</ele>
        <time>2024-05-20T13:04:25.000Z</time>
      </trkpt>
      <trkpt lat="45.92352" lon="4.79164">
        <ele>169.39999389648</ele>
        <time>2024-05-20T13:04:26.000Z</time>
      </trkpt>
      <trkpt lat="45.92349" lon="4.7917">
        <ele>169.39999389648</ele>
        <time>2024-05-20T13:04:27.000Z</time>
      </trkpt>
      <trkpt lat="45.92346" lon="4.79177">
        <ele>169.39999389648</ele>
        <time>2024-05-20T13:04:28.000Z</time>
      </trkpt>
      <trkpt lat="45.92343" lon="4.79183">
        <ele>169.60000610352</ele>
        <time>2024-05-20T13:04:29.000Z</time>
      </trkpt>
      <trkpt lat="45.9234" lon="4.7919">
        <ele>169.80000305176</ele>
        <time>2024-05-20T13:04:30.000Z</time>
      </trkpt>
      <trkpt lat="45.92338" lon="4.79197">
        <ele>170</ele>
        <time>2024-05-20T13:04:31.000Z</time>
      </trkpt>
      <trkpt lat="45.92336" lon="4.79205">
        <ele>170.19999694824</ele>
        <time>2024-05-20T13:04:32.000Z</time>
      </trkpt>
      <trkpt lat="45.92334" lon="4.79212">
        <ele>170.19999694824</ele>
        <time>2024-05-20T13:04:33.000Z</time>
      </trkpt>
      <trkpt lat="45.92332" lon="4.79219">
        <ele>170.19999694824</ele>
        <time>2024-05-20T13:04:34.000Z</time>
      </trkpt>
      <trkpt lat="45.9233" lon="4.79227">
        <ele>170.19999694824</ele>
        <time>2024-05-20T13:04:35.000Z</time>
      </trkpt>
      <trkpt lat="45.92328" lon="4.79234">
        <ele>170.19999694824</ele>
        <time>2024-05-20T13:04:36.000Z</time>
      </trkpt>
      <trkpt lat="45.92326" lon="4.79241">
        <ele>170.19999694824</ele>
        <time>2024-05-20T13:04:37.000Z</time>
      </trkpt>
      <trkpt lat="45.92324" lon="4.79248">
        <ele>170.19999694824</ele>
        <time>2024-05-20T13:04:38.000Z</time>
      </trkpt>
      <trkpt lat="45.92323" lon="4.79256">
        <ele>170.19999694824</ele>
        <time>2024-05-20T13:04:39.000Z</time>
      </trkpt>
      <trkpt lat="45.92322" lon="4.79264">
        <ele>170.19999694824</ele>
        <time>2024-05-20T13:04:40.000Z</time>
      </trkpt>
      <trkpt lat="45.9232" lon="4.79271">
        <ele>170.39999389648</ele>
        <time>2024-05-20T13:04:41.000Z</time>
      </trkpt>
      <trkpt lat="45.92319" lon="4.79278">
        <ele>170.39999389648</ele>
        <time>2024-05-20T13:04:42.000Z</time>
      </trkpt>
      <trkpt lat="45.92318" lon="4.79286">
        <ele>170.60000610352</ele>
        <time>2024-05-20T13:04:43.000Z</time>
      </trkpt>
      <trkpt lat="45.92318" lon="4.79293">
        <ele>170.80000305176</ele>
        <time>2024-05-20T13:04:44.000Z</time>
      </trkpt>
      <trkpt lat="45.92318" lon="4.79301">
        <ele>170.80000305176</ele>
        <time>2024-05-20T13:04:45.000Z</time>
      </trkpt>
      <trkpt lat="45.92318" lon="4.79309">
        <ele>170.80000305176</ele>
        <time>2024-05-20T13:04:46.000Z</time>
      </trkpt>
      <trkpt lat="45.92318" lon="4.79317">
        <ele>170.80000305176</ele>
        <time>2024-05-20T13:04:47.000Z</time>
      </trkpt>
      <trkpt lat="45.92318" lon="4.79326">
        <ele>170.39999389648</ele>
        <time>2024-05-20T13:04:48.000Z</time>
      </trkpt>
      <trkpt lat="45.92318" lon="4.79334">
        <ele>170.39999389648</ele>
        <time>2024-05-20T13:04:49.000Z</time>
      </trkpt>
      <trkpt lat="45.92317" lon="4.79342">
        <ele>170.39999389648</ele>
        <time>2024-05-20T13:04:50.000Z</time>
      </trkpt>
      <trkpt lat="45.92318" lon="4.7935">
        <ele>170.39999389648</ele>
        <time>2024-05-20T13:04:51.000Z</time>
      </trkpt>
      <trkpt lat="45.92317" lon="4.79357">
        <ele>170.39999389648</ele>
        <time>2024-05-20T13:04:52.000Z</time>
      </trkpt>
      <trkpt lat="45.92317" lon="4.79365">
        <ele>170.39999389648</ele>
        <time>2024-05-20T13:04:53.000Z</time>
      </trkpt>
      <trkpt lat="45.92318" lon="4.79374">
        <ele>170.39999389648</ele>
        <time>2024-05-20T13:04:54.000Z</time>
      </trkpt>
      <trkpt lat="45.92317" lon="4.79382">
        <ele>170.19999694824</ele>
        <time>2024-05-20T13:04:55.000Z</time>
      </trkpt>
      <trkpt lat="45.92316" lon="4.7939">
        <ele>170.19999694824</ele>
        <time>2024-05-20T13:04:56.000Z</time>
      </trkpt>
      <trkpt lat="45.92316" lon="4.79398">
        <ele>170</ele>
        <time>2024-05-20T13:04:57.000Z</time>
      </trkpt>
      <trkpt lat="45.92316" lon="4.79406">
        <ele>169.80000305176</ele>
        <time>2024-05-20T13:04:58.000Z</time>
      </trkpt>
      <trkpt lat="45.92317" lon="4.79414">
        <ele>169.80000305176</ele>
        <time>2024-05-20T13:04:59.000Z</time>
      </trkpt>
      <trkpt lat="45.92317" lon="4.79422">
        <ele>169.80000305176</ele>
        <time>2024-05-20T13:05:00.000Z</time>
      </trkpt>
      <trkpt lat="45.92318" lon="4.79431">
        <ele>169.80000305176</ele>
        <time>2024-05-20T13:05:01.000Z</time>
      </trkpt>
      <trkpt lat="45.9232" lon="4.79439">
        <ele>170</ele>
        <time>2024-05-20T13:05:02.000Z</time>
      </trkpt>
      <trkpt lat="45.9232" lon="4.79446">
        <ele>170.19999694824</ele>
        <time>2024-05-20T13:05:03.000Z</time>
      </trkpt>
      <trkpt lat="45.92321" lon="4.79454">
        <ele>170.19999694824</ele>
        <time>2024-05-20T13:05:04.000Z</time>
      </trkpt>
      <trkpt lat="45.92323" lon="4.79462">
        <ele>170.39999389648</ele>
        <time>2024-05-20T13:05:05.000Z</time>
      </trkpt>
      <trkpt lat="45.92323" lon="4.7947">
        <ele>170.39999389648</ele>
        <time>2024-05-20T13:05:06.000Z</time>
      </trkpt>
      <trkpt lat="45.92325" lon="4.79479">
        <ele>170.39999389648</ele>
        <time>2024-05-20T13:05:07.000Z</time>
      </trkpt>
      <trkpt lat="45.92327" lon="4.79486">
        <ele>170.60000610352</ele>
        <time>2024-05-20T13:05:08.000Z</time>
      </trkpt>
      <trkpt lat="45.92328" lon="4.79494">
        <ele>170.60000610352</ele>
        <time>2024-05-20T13:05:09.000Z</time>
      </trkpt>
      <trkpt lat="45.92329" lon="4.79502">
        <ele>170.60000610352</ele>
        <time>2024-05-20T13:05:10.000Z</time>
      </trkpt>
      <trkpt lat="45.92331" lon="4.79511">
        <ele>170.60000610352</ele>
        <time>2024-05-20T13:05:11.000Z</time>
      </trkpt>
      <trkpt lat="45.92332" lon="4.79519">
        <ele>170.60000610352</ele>
        <time>2024-05-20T13:05:12.000Z</time>
      </trkpt>
      <trkpt lat="45.92334" lon="4.79526">
        <ele>170.80000305176</ele>
        <time>2024-05-20T13:05:13.000Z</time>
      </trkpt>
      <trkpt lat="45.92335" lon="4.79535">
        <ele>170.80000305176</ele>
        <time>2024-05-20T13:05:14.000Z</time>
      </trkpt>
      <trkpt lat="45.92335" lon="4.79544">
        <ele>170.80000305176</ele>
        <time>2024-05-20T13:05:15.000Z</time>
      </trkpt>
      <trkpt lat="45.92336" lon="4.79554">
        <ele>170.80000305176</ele>
        <time>2024-05-20T13:05:16.000Z</time>
      </trkpt>
      <trkpt lat="45.92336" lon="4.79562">
        <ele>170.80000305176</ele>
        <time>2024-05-20T13:05:17.000Z</time>
      </trkpt>
      <trkpt lat="45.92337" lon="4.79571">
        <ele>170.80000305176</ele>
        <time>2024-05-20T13:05:18.000Z</time>
      </trkpt>
      <trkpt lat="45.92337" lon="4.79579">
        <ele>171</ele>
        <time>2024-05-20T13:05:19.000Z</time>
      </trkpt>
      <trkpt lat="45.92338" lon="4.79588">
        <ele>171</ele>
        <time>2024-05-20T13:05:20.000Z</time>
      </trkpt>
      <trkpt lat="45.92339" lon="4.79597">
        <ele>171</ele>
        <time>2024-05-20T13:05:21.000Z</time>
      </trkpt>
      <trkpt lat="45.9234" lon="4.79605">
        <ele>171</ele>
        <time>2024-05-20T13:05:22.000Z</time>
      </trkpt>
      <trkpt lat="45.92341" lon="4.79614">
        <ele>171</ele>
        <time>2024-05-20T13:05:23.000Z</time>
      </trkpt>
      <trkpt lat="45.92342" lon="4.79622">
        <ele>171</ele>
        <time>2024-05-20T13:05:24.000Z</time>
      </trkpt>
      <trkpt lat="45.92342" lon="4.79631">
        <ele>171</ele>
        <time>2024-05-20T13:05:25.000Z</time>
      </trkpt>
      <trkpt lat="45.92344" lon="4.79639">
        <ele>171</ele>
        <time>2024-05-20T13:05:26.000Z</time>
      </trkpt>
      <trkpt lat="45.92345" lon="4.79647">
        <ele>171</ele>
        <time>2024-05-20T13:05:27.000Z</time>
      </trkpt>
      <trkpt lat="45.92347" lon="4.79656">
        <ele>170.80000305176</ele>
        <time>2024-05-20T13:05:28.000Z</time>
      </trkpt>
      <trkpt lat="45.92347" lon="4.79664">
        <ele>170.80000305176</ele>
        <time>2024-05-20T13:05:29.000Z</time>
      </trkpt>
      <trkpt lat="45.92349" lon="4.79672">
        <ele>170.80000305176</ele>
        <time>2024-05-20T13:05:30.000Z</time>
      </trkpt>
      <trkpt lat="45.9235" lon="4.79681">
        <ele>170.80000305176</ele>
        <time>2024-05-20T13:05:31.000Z</time>
      </trkpt>
      <trkpt lat="45.92351" lon="4.79689">
        <ele>170.80000305176</ele>
        <time>2024-05-20T13:05:32.000Z</time>
      </trkpt>
      <trkpt lat="45.92352" lon="4.79698">
        <ele>170.80000305176</ele>
        <time>2024-05-20T13:05:33.000Z</time>
      </trkpt>
      <trkpt lat="45.92354" lon="4.79706">
        <ele>170.80000305176</ele>
        <time>2024-05-20T13:05:34.000Z</time>
      </trkpt>
      <trkpt lat="45.92354" lon="4.79714">
        <ele>170.80000305176</ele>
        <time>2024-05-20T13:05:35.000Z</time>
      </trkpt>
      <trkpt lat="45.92354" lon="4.79723">
        <ele>171</ele>
        <time>2024-05-20T13:05:36.000Z</time>
      </trkpt>
      <trkpt lat="45.92355" lon="4.79732">
        <ele>170.80000305176</ele>
        <time>2024-05-20T13:05:37.000Z</time>
      </trkpt>
      <trkpt lat="45.92356" lon="4.7974">
        <ele>171</ele>
        <time>2024-05-20T13:05:38.000Z</time>
      </trkpt>
      <trkpt lat="45.92356" lon="4.7975">
        <ele>171</ele>
        <time>2024-05-20T13:05:39.000Z</time>
      </trkpt>
      <trkpt lat="45.92356" lon="4.79759">
        <ele>171</ele>
        <time>2024-05-20T13:05:40.000Z</time>
      </trkpt>
      <trkpt lat="45.92357" lon="4.79768">
        <ele>171</ele>
        <time>2024-05-20T13:05:41.000Z</time>
      </trkpt>
      <trkpt lat="45.92357" lon="4.79778">
        <ele>171</ele>
        <time>2024-05-20T13:05:42.000Z</time>
      </trkpt>
      <trkpt lat="45.92358" lon="4.79786">
        <ele>170.80000305176</ele>
        <time>2024-05-20T13:05:43.000Z</time>
      </trkpt>
      <trkpt lat="45.92359" lon="4.79795">
        <ele>170.80000305176</ele>
        <time>2024-05-20T13:05:44.000Z</time>
      </trkpt>
      <trkpt lat="45.92359" lon="4.79804">
        <ele>170.80000305176</ele>
        <time>2024-05-20T13:05:45.000Z</time>
      </trkpt>
      <trkpt lat="45.92359" lon="4.79813">
        <ele>170.80000305176</ele>
        <time>2024-05-20T13:05:46.000Z</time>
      </trkpt>
      <trkpt lat="45.92359" lon="4.79822">
        <ele>170.80000305176</ele>
        <time>2024-05-20T13:05:47.000Z</time>
      </trkpt>
      <trkpt lat="45.92359" lon="4.79831">
        <ele>170.80000305176</ele>
        <time>2024-05-20T13:05:48.000Z</time>
      </trkpt>
      <trkpt lat="45.9236" lon="4.7984">
        <ele>170.80000305176</ele>
        <time>2024-05-20T13:05:49.000Z</time>
      </trkpt>
      <trkpt lat="45.92361" lon="4.79848">
        <ele>170.80000305176</ele>
        <time>2024-05-20T13:05:50.000Z</time>
      </trkpt>
      <trkpt lat="45.92362" lon="4.79856">
        <ele>170.80000305176</ele>
        <time>2024-05-20T13:05:51.000Z</time>
      </trkpt>
      <trkpt lat="45.92362" lon="4.79864">
        <ele>170.80000305176</ele>
        <time>2024-05-20T13:05:52.000Z</time>
      </trkpt>
      <trkpt lat="45.92363" lon="4.79872">
        <ele>171</ele>
        <time>2024-05-20T13:05:53.000Z</time>
      </trkpt>
      <trkpt lat="45.92363" lon="4.79881">
        <ele>171.19999694824</ele>
        <time>2024-05-20T13:05:54.000Z</time>
      </trkpt>
      <trkpt lat="45.92363" lon="4.79888">
        <ele>171.39999389648</ele>
        <time>2024-05-20T13:05:55.000Z</time>
      </trkpt>
      <trkpt lat="45.92364" lon="4.79897">
        <ele>171.60000610352</ele>
        <time>2024-05-20T13:05:56.000Z</time>
      </trkpt>
      <trkpt lat="45.92364" lon="4.79905">
        <ele>171.80000305176</ele>
        <time>2024-05-20T13:05:57.000Z</time>
      </trkpt>
      <trkpt lat="45.92364" lon="4.79912">
        <ele>171.80000305176</ele>
        <time>2024-05-20T13:05:58.000Z</time>
      </trkpt>
      <trkpt lat="45.92365" lon="4.7992">
        <ele>171.80000305176</ele>
        <time>2024-05-20T13:05:59.000Z</time>
      </trkpt>
      <trkpt lat="45.92366" lon="4.79928">
        <ele>171.80000305176</ele>
        <time>2024-05-20T13:06:00.000Z</time>
      </trkpt>
      <trkpt lat="45.92367" lon="4.79936">
        <ele>171.80000305176</ele>
        <time>2024-05-20T13:06:01.000Z</time>
      </trkpt>
      <trkpt lat="45.92368" lon="4.79944">
        <ele>171.80000305176</ele>
        <time>2024-05-20T13:06:02.000Z</time>
      </trkpt>
      <trkpt lat="45.92368" lon="4.79952">
        <ele>171.80000305176</ele>
        <time>2024-05-20T13:06:03.000Z</time>
      </trkpt>
      <trkpt lat="45.92369" lon="4.79961">
        <ele>171.80000305176</ele>
        <time>2024-05-20T13:06:04.000Z</time>
      </trkpt>
      <trkpt lat="45.92369" lon="4.7997">
        <ele>171.80000305176</ele>
        <time>2024-05-20T13:06:05.000Z</time>
      </trkpt>
      <trkpt lat="45.9237" lon="4.79978">
        <ele>171.60000610352</ele>
        <time>2024-05-20T13:06:06.000Z</time>
      </trkpt>
      <trkpt lat="45.92371" lon="4.79987">
        <ele>171.60000610352</ele>
        <time>2024-05-20T13:06:07.000Z</time>
      </trkpt>
      <trkpt lat="45.92372" lon="4.79996">
        <ele>171.60000610352</ele>
        <time>2024-05-20T13:06:08.000Z</time>
      </trkpt>
      <trkpt lat="45.92373" lon="4.80004">
        <ele>171.60000610352</ele>
        <time>2024-05-20T13:06:09.000Z</time>
      </trkpt>
      <trkpt lat="45.92374" lon="4.80013">
        <ele>171.60000610352</ele>
        <time>2024-05-20T13:06:10.000Z</time>
      </trkpt>
      <trkpt lat="45.92375" lon="4.80022">
        <ele>171.60000610352</ele>
        <time>2024-05-20T13:06:11.000Z</time>
      </trkpt>
      <trkpt lat="45.92376" lon="4.80031">
        <ele>171.60000610352</ele>
        <time>2024-05-20T13:06:12.000Z</time>
      </trkpt>
      <trkpt lat="45.92376" lon="4.8004">
        <ele>171.60000610352</ele>
        <time>2024-05-20T13:06:13.000Z</time>
      </trkpt>
      <trkpt lat="45.92377" lon="4.80049">
        <ele>171.60000610352</ele>
        <time>2024-05-20T13:06:14.000Z</time>
      </trkpt>
      <trkpt lat="45.92377" lon="4.80057">
        <ele>171.60000610352</ele>
        <time>2024-05-20T13:06:15.000Z</time>
      </trkpt>
      <trkpt lat="45.92378" lon="4.80066">
        <ele>171.60000610352</ele>
        <time>2024-05-20T13:06:16.000Z</time>
      </trkpt>
      <trkpt lat="45.92378" lon="4.80075">
        <ele>171.60000610352</ele>
        <time>2024-05-20T13:06:17.000Z</time>
      </trkpt>
      <trkpt lat="45.92379" lon="4.80084">
        <ele>171.60000610352</ele>
        <time>2024-05-20T13:06:18.000Z</time>
      </trkpt>
      <trkpt lat="45.92379" lon="4.80093">
        <ele>171.39999389648</ele>
        <time>2024-05-20T13:06:19.000Z</time>
      </trkpt>
      <trkpt lat="45.92379" lon="4.80102">
        <ele>171.39999389648</ele>
        <time>2024-05-20T13:06:20.000Z</time>
      </trkpt>
      <trkpt lat="45.92378" lon="4.80111">
        <ele>171.19999694824</ele>
        <time>2024-05-20T13:06:21.000Z</time>
      </trkpt>
      <trkpt lat="45.92378" lon="4.80121">
        <ele>171.19999694824</ele>
        <time>2024-05-20T13:06:22.000Z</time>
      </trkpt>
      <trkpt lat="45.92377" lon="4.80129">
        <ele>171.19999694824</ele>
        <time>2024-05-20T13:06:23.000Z</time>
      </trkpt>
      <trkpt lat="45.92377" lon="4.80138">
        <ele>171.19999694824</ele>
        <time>2024-05-20T13:06:24.000Z</time>
      </trkpt>
      <trkpt lat="45.92376" lon="4.80148">
        <ele>171</ele>
        <time>2024-05-20T13:06:25.000Z</time>
      </trkpt>
      <trkpt lat="45.92375" lon="4.80157">
        <ele>170.80000305176</ele>
        <time>2024-05-20T13:06:26.000Z</time>
      </trkpt>
      <trkpt lat="45.92375" lon="4.80166">
        <ele>170.80000305176</ele>
        <time>2024-05-20T13:06:27.000Z</time>
      </trkpt>
      <trkpt lat="45.92374" lon="4.80175">
        <ele>170.80000305176</ele>
        <time>2024-05-20T13:06:28.000Z</time>
      </trkpt>
      <trkpt lat="45.92373" lon="4.80184">
        <ele>170.80000305176</ele>
        <time>2024-05-20T13:06:29.000Z</time>
      </trkpt>
      <trkpt lat="45.92372" lon="4.80193">
        <ele>170.80000305176</ele>
        <time>2024-05-20T13:06:30.000Z</time>
      </trkpt>
      <trkpt lat="45.9237" lon="4.80202">
        <ele>170.80000305176</ele>
        <time>2024-05-20T13:06:31.000Z</time>
      </trkpt>
      <trkpt lat="45.92369" lon="4.80211">
        <ele>170.80000305176</ele>
        <time>2024-05-20T13:06:32.000Z</time>
      </trkpt>
      <trkpt lat="45.92368" lon="4.8022">
        <ele>170.80000305176</ele>
        <time>2024-05-20T13:06:33.000Z</time>
      </trkpt>
      <trkpt lat="45.92367" lon="4.80229">
        <ele>170.80000305176</ele>
        <time>2024-05-20T13:06:34.000Z</time>
      </trkpt>
      <trkpt lat="45.92365" lon="4.80237">
        <ele>170.80000305176</ele>
        <time>2024-05-20T13:06:35.000Z</time>
      </trkpt>
      <trkpt lat="45.92363" lon="4.80246">
        <ele>170.80000305176</ele>
        <time>2024-05-20T13:06:36.000Z</time>
      </trkpt>
      <trkpt lat="45.92362" lon="4.80254">
        <ele>170.80000305176</ele>
        <time>2024-05-20T13:06:37.000Z</time>
      </trkpt>
      <trkpt lat="45.92361" lon="4.80263">
        <ele>170.80000305176</ele>
        <time>2024-05-20T13:06:38.000Z</time>
      </trkpt>
      <trkpt lat="45.92359" lon="4.80271">
        <ele>170.80000305176</ele>
        <time>2024-05-20T13:06:39.000Z</time>
      </trkpt>
      <trkpt lat="45.92358" lon="4.8028">
        <ele>170.80000305176</ele>
        <time>2024-05-20T13:06:40.000Z</time>
      </trkpt>
      <trkpt lat="45.92356" lon="4.80288">
        <ele>170.60000610352</ele>
        <time>2024-05-20T13:06:41.000Z</time>
      </trkpt>
      <trkpt lat="45.92355" lon="4.80297">
        <ele>170.60000610352</ele>
        <time>2024-05-20T13:06:42.000Z</time>
      </trkpt>
      <trkpt lat="45.92353" lon="4.80306">
        <ele>170.39999389648</ele>
        <time>2024-05-20T13:06:43.000Z</time>
      </trkpt>
      <trkpt lat="45.92352" lon="4.80314">
        <ele>170.39999389648</ele>
        <time>2024-05-20T13:06:44.000Z</time>
      </trkpt>
      <trkpt lat="45.9235" lon="4.80322">
        <ele>170.39999389648</ele>
        <time>2024-05-20T13:06:45.000Z</time>
      </trkpt>
      <trkpt lat="45.92348" lon="4.8033">
        <ele>170.39999389648</ele>
        <time>2024-05-20T13:06:46.000Z</time>
      </trkpt>
      <trkpt lat="45.92347" lon="4.80339">
        <ele>170.39999389648</ele>
        <time>2024-05-20T13:06:47.000Z</time>
      </trkpt>
      <trkpt lat="45.92345" lon="4.80348">
        <ele>170.39999389648</ele>
        <time>2024-05-20T13:06:48.000Z</time>
      </trkpt>
      <trkpt lat="45.92344" lon="4.80356">
        <ele>170.80000305176</ele>
        <time>2024-05-20T13:06:49.000Z</time>
      </trkpt>
      <trkpt lat="45.92342" lon="4.80365">
        <ele>170.80000305176</ele>
        <time>2024-05-20T13:06:50.000Z</time>
      </trkpt>
      <trkpt lat="45.9234" lon="4.80373">
        <ele>170.80000305176</ele>
        <time>2024-05-20T13:06:51.000Z</time>
      </trkpt>
      <trkpt lat="45.92339" lon="4.80381">
        <ele>170.80000305176</ele>
        <time>2024-05-20T13:06:52.000Z</time>
      </trkpt>
      <trkpt lat="45.92337" lon="4.8039">
        <ele>170.60000610352</ele>
        <time>2024-05-20T13:06:53.000Z</time>
      </trkpt>
      <trkpt lat="45.92336" lon="4.80398">
        <ele>170.60000610352</ele>
        <time>2024-05-20T13:06:54.000Z</time>
      </trkpt>
      <trkpt lat="45.92335" lon="4.80407">
        <ele>170.60000610352</ele>
        <time>2024-05-20T13:06:55.000Z</time>
      </trkpt>
      <trkpt lat="45.92333" lon="4.80415">
        <ele>170.60000610352</ele>
        <time>2024-05-20T13:06:56.000Z</time>
      </trkpt>
      <trkpt lat="45.92332" lon="4.80424">
        <ele>170.60000610352</ele>
        <time>2024-05-20T13:06:57.000Z</time>
      </trkpt>
      <trkpt lat="45.9233" lon="4.80432">
        <ele>170.60000610352</ele>
        <time>2024-05-20T13:06:58.000Z</time>
      </trkpt>
      <trkpt lat="45.92329" lon="4.80441">
        <ele>170.80000305176</ele>
        <time>2024-05-20T13:06:59.000Z</time>
      </trkpt>
      <trkpt lat="45.92327" lon="4.80449">
        <ele>171</ele>
        <time>2024-05-20T13:07:00.000Z</time>
      </trkpt>
      <trkpt lat="45.92326" lon="4.80457">
        <ele>171</ele>
        <time>2024-05-20T13:07:01.000Z</time>
      </trkpt>
      <trkpt lat="45.92325" lon="4.80466">
        <ele>171</ele>
        <time>2024-05-20T13:07:02.000Z</time>
      </trkpt>
      <trkpt lat="45.92324" lon="4.80474">
        <ele>171</ele>
        <time>2024-05-20T13:07:03.000Z</time>
      </trkpt>
      <trkpt lat="45.92322" lon="4.80483">
        <ele>171</ele>
        <time>2024-05-20T13:07:04.000Z</time>
      </trkpt>
      <trkpt lat="45.92321" lon="4.80492">
        <ele>171</ele>
        <time>2024-05-20T13:07:05.000Z</time>
      </trkpt>
      <trkpt lat="45.92319" lon="4.80501">
        <ele>171</ele>
        <time>2024-05-20T13:07:06.000Z</time>
      </trkpt>
      <trkpt lat="45.92318" lon="4.8051">
        <ele>171</ele>
        <time>2024-05-20T13:07:07.000Z</time>
      </trkpt>
      <trkpt lat="45.92317" lon="4.80518">
        <ele>171</ele>
        <time>2024-05-20T13:07:08.000Z</time>
      </trkpt>
      <trkpt lat="45.92315" lon="4.80527">
        <ele>171</ele>
        <time>2024-05-20T13:07:09.000Z</time>
      </trkpt>
      <trkpt lat="45.92313" lon="4.80536">
        <ele>171</ele>
        <time>2024-05-20T13:07:10.000Z</time>
      </trkpt>
      <trkpt lat="45.92312" lon="4.80544">
        <ele>171</ele>
        <time>2024-05-20T13:07:11.000Z</time>
      </trkpt>
      <trkpt lat="45.9231" lon="4.80553">
        <ele>171</ele>
        <time>2024-05-20T13:07:12.000Z</time>
      </trkpt>
      <trkpt lat="45.92309" lon="4.80562">
        <ele>171</ele>
        <time>2024-05-20T13:07:13.000Z</time>
      </trkpt>
      <trkpt lat="45.92308" lon="4.8057">
        <ele>171</ele>
        <time>2024-05-20T13:07:14.000Z</time>
      </trkpt>
      <trkpt lat="45.92307" lon="4.80579">
        <ele>170.80000305176</ele>
        <time>2024-05-20T13:07:15.000Z</time>
      </trkpt>
      <trkpt lat="45.92306" lon="4.80588">
        <ele>170.80000305176</ele>
        <time>2024-05-20T13:07:16.000Z</time>
      </trkpt>
      <trkpt lat="45.92304" lon="4.80596">
        <ele>170.80000305176</ele>
        <time>2024-05-20T13:07:17.000Z</time>
      </trkpt>
      <trkpt lat="45.92302" lon="4.80605">
        <ele>170.80000305176</ele>
        <time>2024-05-20T13:07:18.000Z</time>
      </trkpt>
      <trkpt lat="45.92299" lon="4.80613">
        <ele>170.80000305176</ele>
        <time>2024-05-20T13:07:19.000Z</time>
      </trkpt>
      <trkpt lat="45.92297" lon="4.80621">
        <ele>170.60000610352</ele>
        <time>2024-05-20T13:07:20.000Z</time>
      </trkpt>
      <trkpt lat="45.92295" lon="4.80629">
        <ele>170.60000610352</ele>
        <time>2024-05-20T13:07:21.000Z</time>
      </trkpt>
      <trkpt lat="45.92293" lon="4.80637">
        <ele>170.60000610352</ele>
        <time>2024-05-20T13:07:22.000Z</time>
      </trkpt>
      <trkpt lat="45.92291" lon="4.80646">
        <ele>170.60000610352</ele>
        <time>2024-05-20T13:07:23.000Z</time>
      </trkpt>
      <trkpt lat="45.92289" lon="4.80654">
        <ele>170.60000610352</ele>
        <time>2024-05-20T13:07:24.000Z</time>
      </trkpt>
      <trkpt lat="45.92287" lon="4.80663">
        <ele>170.60000610352</ele>
        <time>2024-05-20T13:07:25.000Z</time>
      </trkpt>
      <trkpt lat="45.92285" lon="4.80672">
        <ele>170.60000610352</ele>
        <time>2024-05-20T13:07:26.000Z</time>
      </trkpt>
      <trkpt lat="45.92283" lon="4.80681">
        <ele>170.60000610352</ele>
        <time>2024-05-20T13:07:27.000Z</time>
      </trkpt>
      <trkpt lat="45.92282" lon="4.8069">
        <ele>170.60000610352</ele>
        <time>2024-05-20T13:07:28.000Z</time>
      </trkpt>
      <trkpt lat="45.92279" lon="4.80698">
        <ele>170.39999389648</ele>
        <time>2024-05-20T13:07:29.000Z</time>
      </trkpt>
      <trkpt lat="45.92277" lon="4.80706">
        <ele>170.39999389648</ele>
        <time>2024-05-20T13:07:30.000Z</time>
      </trkpt>
      <trkpt lat="45.92275" lon="4.80714">
        <ele>170.19999694824</ele>
        <time>2024-05-20T13:07:31.000Z</time>
      </trkpt>
      <trkpt lat="45.92272" lon="4.80723">
        <ele>170.19999694824</ele>
        <time>2024-05-20T13:07:32.000Z</time>
      </trkpt>
      <trkpt lat="45.9227" lon="4.80731">
        <ele>170.19999694824</ele>
        <time>2024-05-20T13:07:33.000Z</time>
      </trkpt>
      <trkpt lat="45.92267" lon="4.80738">
        <ele>170.19999694824</ele>
        <time>2024-05-20T13:07:34.000Z</time>
      </trkpt>
      <trkpt lat="45.92265" lon="4.80746">
        <ele>170.19999694824</ele>
        <time>2024-05-20T13:07:35.000Z</time>
      </trkpt>
      <trkpt lat="45.92262" lon="4.80754">
        <ele>170.39999389648</ele>
        <time>2024-05-20T13:07:36.000Z</time>
      </trkpt>
      <trkpt lat="45.92259" lon="4.80762">
        <ele>170.39999389648</ele>
        <time>2024-05-20T13:07:37.000Z</time>
      </trkpt>
      <trkpt lat="45.92256" lon="4.8077">
        <ele>170.60000610352</ele>
        <time>2024-05-20T13:07:38.000Z</time>
      </trkpt>
      <trkpt lat="45.92253" lon="4.80778">
        <ele>170.60000610352</ele>
        <time>2024-05-20T13:07:39.000Z</time>
      </trkpt>
      <trkpt lat="45.9225" lon="4.80786">
        <ele>170.60000610352</ele>
        <time>2024-05-20T13:07:40.000Z</time>
      </trkpt>
      <trkpt lat="45.92248" lon="4.80794">
        <ele>170.60000610352</ele>
        <time>2024-05-20T13:07:41.000Z</time>
      </trkpt>
      <trkpt lat="45.92245" lon="4.80801">
        <ele>170.60000610352</ele>
        <time>2024-05-20T13:07:42.000Z</time>
      </trkpt>
      <trkpt lat="45.92241" lon="4.80809">
        <ele>170.60000610352</ele>
        <time>2024-05-20T13:07:43.000Z</time>
      </trkpt>
      <trkpt lat="45.92238" lon="4.80816">
        <ele>170.60000610352</ele>
        <time>2024-05-20T13:07:44.000Z</time>
      </trkpt>
      <trkpt lat="45.92235" lon="4.80823">
        <ele>170.60000610352</ele>
        <time>2024-05-20T13:07:45.000Z</time>
      </trkpt>
      <trkpt lat="45.92231" lon="4.80831">
        <ele>170.60000610352</ele>
        <time>2024-05-20T13:07:46.000Z</time>
      </trkpt>
      <trkpt lat="45.92228" lon="4.80838">
        <ele>170.60000610352</ele>
        <time>2024-05-20T13:07:47.000Z</time>
      </trkpt>
      <trkpt lat="45.92224" lon="4.80845">
        <ele>170.60000610352</ele>
        <time>2024-05-20T13:07:48.000Z</time>
      </trkpt>
      <trkpt lat="45.92221" lon="4.80852">
        <ele>170.60000610352</ele>
        <time>2024-05-20T13:07:49.000Z</time>
      </trkpt>
      <trkpt lat="45.92217" lon="4.80859">
        <ele>170.60000610352</ele>
        <time>2024-05-20T13:07:50.000Z</time>
      </trkpt>
      <trkpt lat="45.92213" lon="4.80865">
        <ele>170.60000610352</ele>
        <time>2024-05-20T13:07:51.000Z</time>
      </trkpt>
      <trkpt lat="45.92209" lon="4.80872">
        <ele>170.60000610352</ele>
        <time>2024-05-20T13:07:52.000Z</time>
      </trkpt>
      <trkpt lat="45.92206" lon="4.80879">
        <ele>170.60000610352</ele>
        <time>2024-05-20T13:07:53.000Z</time>
      </trkpt>
      <trkpt lat="45.92202" lon="4.80885">
        <ele>170.60000610352</ele>
        <time>2024-05-20T13:07:54.000Z</time>
      </trkpt>
      <trkpt lat="45.92199" lon="4.80892">
        <ele>170.60000610352</ele>
        <time>2024-05-20T13:07:55.000Z</time>
      </trkpt>
      <trkpt lat="45.92195" lon="4.80898">
        <ele>170.60000610352</ele>
        <time>2024-05-20T13:07:56.000Z</time>
      </trkpt>
      <trkpt lat="45.92191" lon="4.80905">
        <ele>170.39999389648</ele>
        <time>2024-05-20T13:07:57.000Z</time>
      </trkpt>
      <trkpt lat="45.92188" lon="4.80911">
        <ele>170.39999389648</ele>
        <time>2024-05-20T13:07:58.000Z</time>
      </trkpt>
      <trkpt lat="45.92184" lon="4.80918">
        <ele>170.39999389648</ele>
        <time>2024-05-20T13:07:59.000Z</time>
      </trkpt>
      <trkpt lat="45.9218" lon="4.80924">
        <ele>170.39999389648</ele>
        <time>2024-05-20T13:08:00.000Z</time>
      </trkpt>
      <trkpt lat="45.92177" lon="4.8093">
        <ele>170.60000610352</ele>
        <time>2024-05-20T13:08:01.000Z</time>
      </trkpt>
      <trkpt lat="45.92172" lon="4.80936">
        <ele>170.60000610352</ele>
        <time>2024-05-20T13:08:02.000Z</time>
      </trkpt>
      <trkpt lat="45.92168" lon="4.80942">
        <ele>170.60000610352</ele>
        <time>2024-05-20T13:08:03.000Z</time>
      </trkpt>
      <trkpt lat="45.92164" lon="4.80947">
        <ele>170.80000305176</ele>
        <time>2024-05-20T13:08:04.000Z</time>
      </trkpt>
      <trkpt lat="45.92159" lon="4.80953">
        <ele>170.80000305176</ele>
        <time>2024-05-20T13:08:05.000Z</time>
      </trkpt>
      <trkpt lat="45.92155" lon="4.80957">
        <ele>171</ele>
        <time>2024-05-20T13:08:06.000Z</time>
      </trkpt>
      <trkpt lat="45.9215" lon="4.80962">
        <ele>171</ele>
        <time>2024-05-20T13:08:07.000Z</time>
      </trkpt>
      <trkpt lat="45.92144" lon="4.80966">
        <ele>171</ele>
        <time>2024-05-20T13:08:08.000Z</time>
      </trkpt>
      <trkpt lat="45.92139" lon="4.80971">
        <ele>171</ele>
        <time>2024-05-20T13:08:09.000Z</time>
      </trkpt>
      <trkpt lat="45.92134" lon="4.80975">
        <ele>171</ele>
        <time>2024-05-20T13:08:10.000Z</time>
      </trkpt>
      <trkpt lat="45.92128" lon="4.80979">
        <ele>171</ele>
        <time>2024-05-20T13:08:11.000Z</time>
      </trkpt>
      <trkpt lat="45.92123" lon="4.80983">
        <ele>171</ele>
        <time>2024-05-20T13:08:12.000Z</time>
      </trkpt>
      <trkpt lat="45.92118" lon="4.80989">
        <ele>171</ele>
        <time>2024-05-20T13:08:13.000Z</time>
      </trkpt>
      <trkpt lat="45.92114" lon="4.80994">
        <ele>171</ele>
        <time>2024-05-20T13:08:14.000Z</time>
      </trkpt>
      <trkpt lat="45.92109" lon="4.81">
        <ele>171</ele>
        <time>2024-05-20T13:08:15.000Z</time>
      </trkpt>
      <trkpt lat="45.92104" lon="4.81005">
        <ele>171</ele>
        <time>2024-05-20T13:08:16.000Z</time>
      </trkpt>
      <trkpt lat="45.921" lon="4.81011">
        <ele>171</ele>
        <time>2024-05-20T13:08:17.000Z</time>
      </trkpt>
      <trkpt lat="45.92095" lon="4.81016">
        <ele>171</ele>
        <time>2024-05-20T13:08:18.000Z</time>
      </trkpt>
      <trkpt lat="45.92091" lon="4.81021">
        <ele>171</ele>
        <time>2024-05-20T13:08:19.000Z</time>
      </trkpt>
      <trkpt lat="45.92086" lon="4.81026">
        <ele>171</ele>
        <time>2024-05-20T13:08:20.000Z</time>
      </trkpt>
      <trkpt lat="45.9208" lon="4.8103">
        <ele>171</ele>
        <time>2024-05-20T13:08:21.000Z</time>
      </trkpt>
      <trkpt lat="45.92075" lon="4.81034">
        <ele>170.39999389648</ele>
        <time>2024-05-20T13:08:22.000Z</time>
      </trkpt>
      <trkpt lat="45.92071" lon="4.81039">
        <ele>170.39999389648</ele>
        <time>2024-05-20T13:08:23.000Z</time>
      </trkpt>
      <trkpt lat="45.92066" lon="4.81043">
        <ele>170.39999389648</ele>
        <time>2024-05-20T13:08:24.000Z</time>
      </trkpt>
      <trkpt lat="45.92062" lon="4.81047">
        <ele>170.39999389648</ele>
        <time>2024-05-20T13:08:25.000Z</time>
      </trkpt>
      <trkpt lat="45.92059" lon="4.81051">
        <ele>170.39999389648</ele>
        <time>2024-05-20T13:08:26.000Z</time>
      </trkpt>
      <trkpt lat="45.92055" lon="4.81056">
        <ele>170.60000610352</ele>
        <time>2024-05-20T13:08:27.000Z</time>
      </trkpt>
      <trkpt lat="45.92052" lon="4.81059">
        <ele>170.60000610352</ele>
        <time>2024-05-20T13:08:28.000Z</time>
      </trkpt>
      <trkpt lat="45.92049" lon="4.81063">
        <ele>170.60000610352</ele>
        <time>2024-05-20T13:08:29.000Z</time>
      </trkpt>
      <trkpt lat="45.92046" lon="4.81066">
        <ele>170.60000610352</ele>
        <time>2024-05-20T13:08:30.000Z</time>
      </trkpt>
      <trkpt lat="45.92044" lon="4.81069">
        <ele>170.80000305176</ele>
        <time>2024-05-20T13:08:31.000Z</time>
      </trkpt>
      <trkpt lat="45.92041" lon="4.81071">
        <ele>170.80000305176</ele>
        <time>2024-05-20T13:08:32.000Z</time>
      </trkpt>
      <trkpt lat="45.92039" lon="4.81073">
        <ele>171</ele>
        <time>2024-05-20T13:08:33.000Z</time>
      </trkpt>
      <trkpt lat="45.92036" lon="4.81075">
        <ele>171</ele>
        <time>2024-05-20T13:08:34.000Z</time>
      </trkpt>
      <trkpt lat="45.92034" lon="4.81078">
        <ele>171.19999694824</ele>
        <time>2024-05-20T13:08:35.000Z</time>
      </trkpt>
      <trkpt lat="45.92031" lon="4.81081">
        <ele>171.39999389648</ele>
        <time>2024-05-20T13:08:36.000Z</time>
      </trkpt>
      <trkpt lat="45.92029" lon="4.81083">
        <ele>171.39999389648</ele>
        <time>2024-05-20T13:08:37.000Z</time>
      </trkpt>
      <trkpt lat="45.92025" lon="4.81086">
        <ele>171.39999389648</ele>
        <time>2024-05-20T13:08:38.000Z</time>
      </trkpt>
      <trkpt lat="45.92022" lon="4.81086">
        <ele>171.39999389648</ele>
        <time>2024-05-20T13:08:39.000Z</time>
      </trkpt>
      <trkpt lat="45.92018" lon="4.81085">
        <ele>171.39999389648</ele>
        <time>2024-05-20T13:08:40.000Z</time>
      </trkpt>
      <trkpt lat="45.92014" lon="4.81085">
        <ele>171.39999389648</ele>
        <time>2024-05-20T13:08:41.000Z</time>
      </trkpt>
      <trkpt lat="45.9201" lon="4.81087">
        <ele>171.19999694824</ele>
        <time>2024-05-20T13:08:42.000Z</time>
      </trkpt>
      <trkpt lat="45.92005" lon="4.8109">
        <ele>171</ele>
        <time>2024-05-20T13:08:43.000Z</time>
      </trkpt>
      <trkpt lat="45.92001" lon="4.81094">
        <ele>170.80000305176</ele>
        <time>2024-05-20T13:08:44.000Z</time>
      </trkpt>
      <trkpt lat="45.91997" lon="4.81098">
        <ele>170.60000610352</ele>
        <time>2024-05-20T13:08:45.000Z</time>
      </trkpt>
      <trkpt lat="45.91993" lon="4.81102">
        <ele>170.39999389648</ele>
        <time>2024-05-20T13:08:46.000Z</time>
      </trkpt>
      <trkpt lat="45.91988" lon="4.81106">
        <ele>170.39999389648</ele>
        <time>2024-05-20T13:08:47.000Z</time>
      </trkpt>
      <trkpt lat="45.91984" lon="4.8111">
        <ele>170.39999389648</ele>
        <time>2024-05-20T13:08:48.000Z</time>
      </trkpt>
      <trkpt lat="45.91979" lon="4.81113">
        <ele>170.19999694824</ele>
        <time>2024-05-20T13:08:49.000Z</time>
      </trkpt>
      <trkpt lat="45.91973" lon="4.81116">
        <ele>170.19999694824</ele>
        <time>2024-05-20T13:08:50.000Z</time>
      </trkpt>
      <trkpt lat="45.91969" lon="4.81119">
        <ele>170.19999694824</ele>
        <time>2024-05-20T13:08:51.000Z</time>
      </trkpt>
      <trkpt lat="45.91964" lon="4.81123">
        <ele>170.19999694824</ele>
        <time>2024-05-20T13:08:52.000Z</time>
      </trkpt>
      <trkpt lat="45.91959" lon="4.81125">
        <ele>170.19999694824</ele>
        <time>2024-05-20T13:08:53.000Z</time>
      </trkpt>
      <trkpt lat="45.91954" lon="4.81128">
        <ele>170</ele>
        <time>2024-05-20T13:08:54.000Z</time>
      </trkpt>
      <trkpt lat="45.91948" lon="4.8113">
        <ele>170.19999694824</ele>
        <time>2024-05-20T13:08:55.000Z</time>
      </trkpt>
      <trkpt lat="45.91943" lon="4.81133">
        <ele>170.19999694824</ele>
        <time>2024-05-20T13:08:56.000Z</time>
      </trkpt>
      <trkpt lat="45.91938" lon="4.81135">
        <ele>170.19999694824</ele>
        <time>2024-05-20T13:08:57.000Z</time>
      </trkpt>
      <trkpt lat="45.91933" lon="4.81137">
        <ele>170.19999694824</ele>
        <time>2024-05-20T13:08:58.000Z</time>
      </trkpt>
      <trkpt lat="45.91928" lon="4.8114">
        <ele>170.19999694824</ele>
        <time>2024-05-20T13:08:59.000Z</time>
      </trkpt>
      <trkpt lat="45.91923" lon="4.81142">
        <ele>170.19999694824</ele>
        <time>2024-05-20T13:09:00.000Z</time>
      </trkpt>
      <trkpt lat="45.9192" lon="4.81144">
        <ele>170.19999694824</ele>
        <time>2024-05-20T13:09:01.000Z</time>
      </trkpt>
      <trkpt lat="45.91916" lon="4.81146">
        <ele>170.19999694824</ele>
        <time>2024-05-20T13:09:02.000Z</time>
      </trkpt>
      <trkpt lat="45.91913" lon="4.81148">
        <ele>170.39999389648</ele>
        <time>2024-05-20T13:09:03.000Z</time>
      </trkpt>
      <trkpt lat="45.91911" lon="4.81149">
        <ele>170.39999389648</ele>
        <time>2024-05-20T13:09:04.000Z</time>
      </trkpt>
      <trkpt lat="45.91909" lon="4.81151">
        <ele>170.39999389648</ele>
        <time>2024-05-20T13:09:05.000Z</time>
      </trkpt>
      <trkpt lat="45.91907" lon="4.81152">
        <ele>170.60000610352</ele>
        <time>2024-05-20T13:09:06.000Z</time>
      </trkpt>
      <trkpt lat="45.91905" lon="4.81155">
        <ele>170.80000305176</ele>
        <time>2024-05-20T13:09:07.000Z</time>
      </trkpt>
      <trkpt lat="45.91904" lon="4.81158">
        <ele>171</ele>
        <time>2024-05-20T13:09:08.000Z</time>
      </trkpt>
      <trkpt lat="45.91902" lon="4.8116">
        <ele>171</ele>
        <time>2024-05-20T13:09:09.000Z</time>
      </trkpt>
      <trkpt lat="45.919" lon="4.81161">
        <ele>171</ele>
        <time>2024-05-20T13:09:10.000Z</time>
      </trkpt>
      <trkpt lat="45.91898" lon="4.81161">
        <ele>171</ele>
        <time>2024-05-20T13:09:11.000Z</time>
      </trkpt>
      <trkpt lat="45.91895" lon="4.81161">
        <ele>171</ele>
        <time>2024-05-20T13:09:12.000Z</time>
      </trkpt>
      <trkpt lat="45.91892" lon="4.81162">
        <ele>171</ele>
        <time>2024-05-20T13:09:13.000Z</time>
      </trkpt>
      <trkpt lat="45.91888" lon="4.81163">
        <ele>171</ele>
        <time>2024-05-20T13:09:14.000Z</time>
      </trkpt>
      <trkpt lat="45.91884" lon="4.81164">
        <ele>171</ele>
        <time>2024-05-20T13:09:15.000Z</time>
      </trkpt>
      <trkpt lat="45.91879" lon="4.81166">
        <ele>171</ele>
        <time>2024-05-20T13:09:16.000Z</time>
      </trkpt>
      <trkpt lat="45.91874" lon="4.81167">
        <ele>170.80000305176</ele>
        <time>2024-05-20T13:09:17.000Z</time>
      </trkpt>
      <trkpt lat="45.91869" lon="4.81169">
        <ele>170.80000305176</ele>
        <time>2024-05-20T13:09:18.000Z</time>
      </trkpt>
      <trkpt lat="45.91864" lon="4.8117">
        <ele>170.60000610352</ele>
        <time>2024-05-20T13:09:19.000Z</time>
      </trkpt>
      <trkpt lat="45.91859" lon="4.81171">
        <ele>170.60000610352</ele>
        <time>2024-05-20T13:09:20.000Z</time>
      </trkpt>
      <trkpt lat="45.91854" lon="4.81172">
        <ele>170.60000610352</ele>
        <time>2024-05-20T13:09:21.000Z</time>
      </trkpt>
      <trkpt lat="45.91848" lon="4.81173">
        <ele>170.39999389648</ele>
        <time>2024-05-20T13:09:22.000Z</time>
      </trkpt>
      <trkpt lat="45.91843" lon="4.81174">
        <ele>170.39999389648</ele>
        <time>2024-05-20T13:09:23.000Z</time>
      </trkpt>
      <trkpt lat="45.91837" lon="4.81175">
        <ele>170.39999389648</ele>
        <time>2024-05-20T13:09:24.000Z</time>
      </trkpt>
      <trkpt lat="45.91832" lon="4.81176">
        <ele>170.39999389648</ele>
        <time>2024-05-20T13:09:25.000Z</time>
      </trkpt>
      <trkpt lat="45.91827" lon="4.81177">
        <ele>170.39999389648</ele>
        <time>2024-05-20T13:09:26.000Z</time>
      </trkpt>
      <trkpt lat="45.91821" lon="4.81178">
        <ele>170.39999389648</ele>
        <time>2024-05-20T13:09:27.000Z</time>
      </trkpt>
      <trkpt lat="45.91816" lon="4.81179">
        <ele>170.39999389648</ele>
        <time>2024-05-20T13:09:28.000Z</time>
      </trkpt>
      <trkpt lat="45.9181" lon="4.8118">
        <ele>170.39999389648</ele>
        <time>2024-05-20T13:09:29.000Z</time>
      </trkpt>
      <trkpt lat="45.91804" lon="4.81181">
        <ele>170.39999389648</ele>
        <time>2024-05-20T13:09:30.000Z</time>
      </trkpt>
      <trkpt lat="45.91799" lon="4.81182">
        <ele>170.39999389648</ele>
        <time>2024-05-20T13:09:31.000Z</time>
      </trkpt>
      <trkpt lat="45.91793" lon="4.81182">
        <ele>170.39999389648</ele>
        <time>2024-05-20T13:09:32.000Z</time>
      </trkpt>
      <trkpt lat="45.91788" lon="4.81183">
        <ele>170.39999389648</ele>
        <time>2024-05-20T13:09:33.000Z</time>
      </trkpt>
      <trkpt lat="45.91782" lon="4.81184">
        <ele>170.39999389648</ele>
        <time>2024-05-20T13:09:34.000Z</time>
      </trkpt>
      <trkpt lat="45.91777" lon="4.81186">
        <ele>170.39999389648</ele>
        <time>2024-05-20T13:09:35.000Z</time>
      </trkpt>
      <trkpt lat="45.91772" lon="4.81187">
        <ele>170.39999389648</ele>
        <time>2024-05-20T13:09:36.000Z</time>
      </trkpt>
      <trkpt lat="45.91766" lon="4.81189">
        <ele>170.39999389648</ele>
        <time>2024-05-20T13:09:37.000Z</time>
      </trkpt>
      <trkpt lat="45.91761" lon="4.8119">
        <ele>170.39999389648</ele>
        <time>2024-05-20T13:09:38.000Z</time>
      </trkpt>
      <trkpt lat="45.91756" lon="4.81191">
        <ele>170.19999694824</ele>
        <time>2024-05-20T13:09:39.000Z</time>
      </trkpt>
      <trkpt lat="45.9175" lon="4.81192">
        <ele>170</ele>
        <time>2024-05-20T13:09:40.000Z</time>
      </trkpt>
      <trkpt lat="45.91745" lon="4.81193">
        <ele>169.80000305176</ele>
        <time>2024-05-20T13:09:41.000Z</time>
      </trkpt>
      <trkpt lat="45.91739" lon="4.81194">
        <ele>169.80000305176</ele>
        <time>2024-05-20T13:09:42.000Z</time>
      </trkpt>
      <trkpt lat="45.91734" lon="4.81195">
        <ele>169.80000305176</ele>
        <time>2024-05-20T13:09:43.000Z</time>
      </trkpt>
      <trkpt lat="45.91728" lon="4.81196">
        <ele>169.60000610352</ele>
        <time>2024-05-20T13:09:44.000Z</time>
      </trkpt>
      <trkpt lat="45.91722" lon="4.81197">
        <ele>169.60000610352</ele>
        <time>2024-05-20T13:09:45.000Z</time>
      </trkpt>
      <trkpt lat="45.91717" lon="4.81198">
        <ele>169.60000610352</ele>
        <time>2024-05-20T13:09:46.000Z</time>
      </trkpt>
      <trkpt lat="45.91711" lon="4.81198">
        <ele>169.60000610352</ele>
        <time>2024-05-20T13:09:47.000Z</time>
      </trkpt>
      <trkpt lat="45.91706" lon="4.81199">
        <ele>169.60000610352</ele>
        <time>2024-05-20T13:09:48.000Z</time>
      </trkpt>
      <trkpt lat="45.91701" lon="4.812">
        <ele>169.60000610352</ele>
        <time>2024-05-20T13:09:49.000Z</time>
      </trkpt>
      <trkpt lat="45.91696" lon="4.81201">
        <ele>169.60000610352</ele>
        <time>2024-05-20T13:09:50.000Z</time>
      </trkpt>
      <trkpt lat="45.91691" lon="4.81201">
        <ele>169.80000305176</ele>
        <time>2024-05-20T13:09:51.000Z</time>
      </trkpt>
      <trkpt lat="45.91686" lon="4.81202">
        <ele>169.80000305176</ele>
        <time>2024-05-20T13:09:52.000Z</time>
      </trkpt>
      <trkpt lat="45.91681" lon="4.81202">
        <ele>170</ele>
        <time>2024-05-20T13:09:53.000Z</time>
      </trkpt>
      <trkpt lat="45.91675" lon="4.81203">
        <ele>170</ele>
        <time>2024-05-20T13:09:54.000Z</time>
      </trkpt>
      <trkpt lat="45.9167" lon="4.81204">
        <ele>170</ele>
        <time>2024-05-20T13:09:55.000Z</time>
      </trkpt>
      <trkpt lat="45.91665" lon="4.81204">
        <ele>170</ele>
        <time>2024-05-20T13:09:56.000Z</time>
      </trkpt>
      <trkpt lat="45.91659" lon="4.81205">
        <ele>170</ele>
        <time>2024-05-20T13:09:57.000Z</time>
      </trkpt>
      <trkpt lat="45.91654" lon="4.81205">
        <ele>169.80000305176</ele>
        <time>2024-05-20T13:09:58.000Z</time>
      </trkpt>
      <trkpt lat="45.91648" lon="4.81206">
        <ele>169.39999389648</ele>
        <time>2024-05-20T13:09:59.000Z</time>
      </trkpt>
      <trkpt lat="45.91643" lon="4.81206">
        <ele>169.39999389648</ele>
        <time>2024-05-20T13:10:00.000Z</time>
      </trkpt>
      <trkpt lat="45.91637" lon="4.81206">
        <ele>169.39999389648</ele>
        <time>2024-05-20T13:10:01.000Z</time>
      </trkpt>
      <trkpt lat="45.91632" lon="4.81206">
        <ele>169.39999389648</ele>
        <time>2024-05-20T13:10:02.000Z</time>
      </trkpt>
      <trkpt lat="45.91627" lon="4.81207">
        <ele>169.39999389648</ele>
        <time>2024-05-20T13:10:03.000Z</time>
      </trkpt>
      <trkpt lat="45.91622" lon="4.81207">
        <ele>169.39999389648</ele>
        <time>2024-05-20T13:10:04.000Z</time>
      </trkpt>
      <trkpt lat="45.91616" lon="4.81207">
        <ele>169.39999389648</ele>
        <time>2024-05-20T13:10:05.000Z</time>
      </trkpt>
      <trkpt lat="45.91611" lon="4.81208">
        <ele>169.39999389648</ele>
        <time>2024-05-20T13:10:06.000Z</time>
      </trkpt>
      <trkpt lat="45.91606" lon="4.81209">
        <ele>169.39999389648</ele>
        <time>2024-05-20T13:10:07.000Z</time>
      </trkpt>
      <trkpt lat="45.916" lon="4.8121">
        <ele>169.39999389648</ele>
        <time>2024-05-20T13:10:08.000Z</time>
      </trkpt>
      <trkpt lat="45.91594" lon="4.8121">
        <ele>169.39999389648</ele>
        <time>2024-05-20T13:10:09.000Z</time>
      </trkpt>
      <trkpt lat="45.91589" lon="4.8121">
        <ele>169.39999389648</ele>
        <time>2024-05-20T13:10:10.000Z</time>
      </trkpt>
      <trkpt lat="45.91583" lon="4.8121">
        <ele>169.39999389648</ele>
        <time>2024-05-20T13:10:11.000Z</time>
      </trkpt>
      <trkpt lat="45.91578" lon="4.8121">
        <ele>169.39999389648</ele>
        <time>2024-05-20T13:10:12.000Z</time>
      </trkpt>
      <trkpt lat="45.91572" lon="4.8121">
        <ele>169.39999389648</ele>
        <time>2024-05-20T13:10:13.000Z</time>
      </trkpt>
      <trkpt lat="45.91567" lon="4.8121">
        <ele>169.39999389648</ele>
        <time>2024-05-20T13:10:14.000Z</time>
      </trkpt>
      <trkpt lat="45.91561" lon="4.8121">
        <ele>169.39999389648</ele>
        <time>2024-05-20T13:10:15.000Z</time>
      </trkpt>
      <trkpt lat="45.91556" lon="4.8121">
        <ele>169.19999694824</ele>
        <time>2024-05-20T13:10:16.000Z</time>
      </trkpt>
      <trkpt lat="45.91551" lon="4.81211">
        <ele>169.19999694824</ele>
        <time>2024-05-20T13:10:17.000Z</time>
      </trkpt>
      <trkpt lat="45.91545" lon="4.81211">
        <ele>169.19999694824</ele>
        <time>2024-05-20T13:10:18.000Z</time>
      </trkpt>
      <trkpt lat="45.9154" lon="4.81211">
        <ele>169.19999694824</ele>
        <time>2024-05-20T13:10:19.000Z</time>
      </trkpt>
      <trkpt lat="45.91535" lon="4.81211">
        <ele>169.39999389648</ele>
        <time>2024-05-20T13:10:20.000Z</time>
      </trkpt>
      <trkpt lat="45.9153" lon="4.81212">
        <ele>169.39999389648</ele>
        <time>2024-05-20T13:10:21.000Z</time>
      </trkpt>
      <trkpt lat="45.91524" lon="4.81212">
        <ele>169.39999389648</ele>
        <time>2024-05-20T13:10:22.000Z</time>
      </trkpt>
      <trkpt lat="45.91519" lon="4.81213">
        <ele>169.39999389648</ele>
        <time>2024-05-20T13:10:23.000Z</time>
      </trkpt>
      <trkpt lat="45.91514" lon="4.81214">
        <ele>169.39999389648</ele>
        <time>2024-05-20T13:10:24.000Z</time>
      </trkpt>
      <trkpt lat="45.91508" lon="4.81215">
        <ele>169.39999389648</ele>
        <time>2024-05-20T13:10:25.000Z</time>
      </trkpt>
      <trkpt lat="45.91503" lon="4.81215">
        <ele>169.19999694824</ele>
        <time>2024-05-20T13:10:26.000Z</time>
      </trkpt>
      <trkpt lat="45.91498" lon="4.81216">
        <ele>169.19999694824</ele>
        <time>2024-05-20T13:10:27.000Z</time>
      </trkpt>
      <trkpt lat="45.91493" lon="4.81216">
        <ele>169.19999694824</ele>
        <time>2024-05-20T13:10:28.000Z</time>
      </trkpt>
      <trkpt lat="45.91487" lon="4.81216">
        <ele>169.19999694824</ele>
        <time>2024-05-20T13:10:29.000Z</time>
      </trkpt>
      <trkpt lat="45.91482" lon="4.81216">
        <ele>169.19999694824</ele>
        <time>2024-05-20T13:10:30.000Z</time>
      </trkpt>
      <trkpt lat="45.91476" lon="4.81216">
        <ele>169.19999694824</ele>
        <time>2024-05-20T13:10:31.000Z</time>
      </trkpt>
      <trkpt lat="45.91472" lon="4.81216">
        <ele>169.19999694824</ele>
        <time>2024-05-20T13:10:32.000Z</time>
      </trkpt>
      <trkpt lat="45.91466" lon="4.81215">
        <ele>169.19999694824</ele>
        <time>2024-05-20T13:10:33.000Z</time>
      </trkpt>
      <trkpt lat="45.91461" lon="4.81215">
        <ele>169.60000610352</ele>
        <time>2024-05-20T13:10:34.000Z</time>
      </trkpt>
      <trkpt lat="45.91456" lon="4.81214">
        <ele>169.80000305176</ele>
        <time>2024-05-20T13:10:35.000Z</time>
      </trkpt>
      <trkpt lat="45.91451" lon="4.81212">
        <ele>169.80000305176</ele>
        <time>2024-05-20T13:10:36.000Z</time>
      </trkpt>
      <trkpt lat="45.91446" lon="4.81209">
        <ele>169.80000305176</ele>
        <time>2024-05-20T13:10:37.000Z</time>
      </trkpt>
      <trkpt lat="45.91441" lon="4.81206">
        <ele>169.80000305176</ele>
        <time>2024-05-20T13:10:38.000Z</time>
      </trkpt>
      <trkpt lat="45.91436" lon="4.81202">
        <ele>169.80000305176</ele>
        <time>2024-05-20T13:10:39.000Z</time>
      </trkpt>
      <trkpt lat="45.91432" lon="4.81199">
        <ele>170</ele>
        <time>2024-05-20T13:10:40.000Z</time>
      </trkpt>
      <trkpt lat="45.91427" lon="4.81195">
        <ele>169.80000305176</ele>
        <time>2024-05-20T13:10:41.000Z</time>
      </trkpt>
      <trkpt lat="45.91423" lon="4.81191">
        <ele>169.80000305176</ele>
        <time>2024-05-20T13:10:42.000Z</time>
      </trkpt>
      <trkpt lat="45.91418" lon="4.81187">
        <ele>169.80000305176</ele>
        <time>2024-05-20T13:10:43.000Z</time>
      </trkpt>
      <trkpt lat="45.91414" lon="4.81183">
        <ele>170</ele>
        <time>2024-05-20T13:10:44.000Z</time>
      </trkpt>
      <trkpt lat="45.91409" lon="4.8118">
        <ele>169.80000305176</ele>
        <time>2024-05-20T13:10:45.000Z</time>
      </trkpt>
      <trkpt lat="45.91404" lon="4.81177">
        <ele>169.80000305176</ele>
        <time>2024-05-20T13:10:46.000Z</time>
      </trkpt>
      <trkpt lat="45.91399" lon="4.81174">
        <ele>169.80000305176</ele>
        <time>2024-05-20T13:10:47.000Z</time>
      </trkpt>
      <trkpt lat="45.91393" lon="4.81171">
        <ele>169.80000305176</ele>
        <time>2024-05-20T13:10:48.000Z</time>
      </trkpt>
      <trkpt lat="45.91388" lon="4.81169">
        <ele>169.80000305176</ele>
        <time>2024-05-20T13:10:49.000Z</time>
      </trkpt>
      <trkpt lat="45.91383" lon="4.81166">
        <ele>169.80000305176</ele>
        <time>2024-05-20T13:10:50.000Z</time>
      </trkpt>
      <trkpt lat="45.91378" lon="4.81165">
        <ele>169.60000610352</ele>
        <time>2024-05-20T13:10:51.000Z</time>
      </trkpt>
      <trkpt lat="45.91373" lon="4.81163">
        <ele>168.80000305176</ele>
        <time>2024-05-20T13:10:52.000Z</time>
      </trkpt>
      <trkpt lat="45.91368" lon="4.81162">
        <ele>168.80000305176</ele>
        <time>2024-05-20T13:10:53.000Z</time>
      </trkpt>
      <trkpt lat="45.91363" lon="4.81161">
        <ele>168.80000305176</ele>
        <time>2024-05-20T13:10:54.000Z</time>
      </trkpt>
      <trkpt lat="45.91358" lon="4.81161">
        <ele>168.80000305176</ele>
        <time>2024-05-20T13:10:55.000Z</time>
      </trkpt>
      <trkpt lat="45.91353" lon="4.81161">
        <ele>168.80000305176</ele>
        <time>2024-05-20T13:10:56.000Z</time>
      </trkpt>
      <trkpt lat="45.91348" lon="4.8116">
        <ele>169</ele>
        <time>2024-05-20T13:10:57.000Z</time>
      </trkpt>
      <trkpt lat="45.91343" lon="4.8116">
        <ele>169</ele>
        <time>2024-05-20T13:10:58.000Z</time>
      </trkpt>
      <trkpt lat="45.91338" lon="4.8116">
        <ele>169</ele>
        <time>2024-05-20T13:10:59.000Z</time>
      </trkpt>
      <trkpt lat="45.91334" lon="4.81161">
        <ele>169</ele>
        <time>2024-05-20T13:11:00.000Z</time>
      </trkpt>
      <trkpt lat="45.91329" lon="4.81162">
        <ele>169</ele>
        <time>2024-05-20T13:11:01.000Z</time>
      </trkpt>
      <trkpt lat="45.91325" lon="4.81163">
        <ele>169</ele>
        <time>2024-05-20T13:11:02.000Z</time>
      </trkpt>
      <trkpt lat="45.9132" lon="4.81163">
        <ele>169</ele>
        <time>2024-05-20T13:11:03.000Z</time>
      </trkpt>
      <trkpt lat="45.91316" lon="4.81162">
        <ele>168.80000305176</ele>
        <time>2024-05-20T13:11:04.000Z</time>
      </trkpt>
      <trkpt lat="45.91312" lon="4.81162">
        <ele>168.80000305176</ele>
        <time>2024-05-20T13:11:05.000Z</time>
      </trkpt>
      <trkpt lat="45.91307" lon="4.81161">
        <ele>168.80000305176</ele>
        <time>2024-05-20T13:11:06.000Z</time>
      </trkpt>
      <trkpt lat="45.91302" lon="4.81161">
        <ele>169</ele>
        <time>2024-05-20T13:11:07.000Z</time>
      </trkpt>
      <trkpt lat="45.91298" lon="4.8116">
        <ele>169</ele>
        <time>2024-05-20T13:11:08.000Z</time>
      </trkpt>
      <trkpt lat="45.91293" lon="4.8116">
        <ele>169</ele>
        <time>2024-05-20T13:11:09.000Z</time>
      </trkpt>
      <trkpt lat="45.91287" lon="4.8116">
        <ele>169.19999694824</ele>
        <time>2024-05-20T13:11:10.000Z</time>
      </trkpt>
      <trkpt lat="45.91282" lon="4.81159">
        <ele>169.19999694824</ele>
        <time>2024-05-20T13:11:11.000Z</time>
      </trkpt>
      <trkpt lat="45.91277" lon="4.81159">
        <ele>169.19999694824</ele>
        <time>2024-05-20T13:11:12.000Z</time>
      </trkpt>
      <trkpt lat="45.91272" lon="4.81159">
        <ele>169.19999694824</ele>
        <time>2024-05-20T13:11:13.000Z</time>
      </trkpt>
      <trkpt lat="45.91267" lon="4.81158">
        <ele>169.19999694824</ele>
        <time>2024-05-20T13:11:14.000Z</time>
      </trkpt>
      <trkpt lat="45.91262" lon="4.81158">
        <ele>169.19999694824</ele>
        <time>2024-05-20T13:11:15.000Z</time>
      </trkpt>
      <trkpt lat="45.91257" lon="4.81158">
        <ele>169.19999694824</ele>
        <time>2024-05-20T13:11:16.000Z</time>
      </trkpt>
      <trkpt lat="45.91252" lon="4.81158">
        <ele>169.19999694824</ele>
        <time>2024-05-20T13:11:17.000Z</time>
      </trkpt>
      <trkpt lat="45.91247" lon="4.81158">
        <ele>169.39999389648</ele>
        <time>2024-05-20T13:11:18.000Z</time>
      </trkpt>
      <trkpt lat="45.91242" lon="4.81159">
        <ele>169.39999389648</ele>
        <time>2024-05-20T13:11:19.000Z</time>
      </trkpt>
      <trkpt lat="45.91238" lon="4.81158">
        <ele>169.39999389648</ele>
        <time>2024-05-20T13:11:20.000Z</time>
      </trkpt>
      <trkpt lat="45.91233" lon="4.81158">
        <ele>169.60000610352</ele>
        <time>2024-05-20T13:11:21.000Z</time>
      </trkpt>
      <trkpt lat="45.91229" lon="4.81158">
        <ele>169.80000305176</ele>
        <time>2024-05-20T13:11:22.000Z</time>
      </trkpt>
      <trkpt lat="45.91224" lon="4.81158">
        <ele>169.80000305176</ele>
        <time>2024-05-20T13:11:23.000Z</time>
      </trkpt>
      <trkpt lat="45.91219" lon="4.81159">
        <ele>169.80000305176</ele>
        <time>2024-05-20T13:11:24.000Z</time>
      </trkpt>
      <trkpt lat="45.91215" lon="4.81159">
        <ele>169.60000610352</ele>
        <time>2024-05-20T13:11:25.000Z</time>
      </trkpt>
      <trkpt lat="45.9121" lon="4.81159">
        <ele>169.60000610352</ele>
        <time>2024-05-20T13:11:26.000Z</time>
      </trkpt>
      <trkpt lat="45.91206" lon="4.81159">
        <ele>169.39999389648</ele>
        <time>2024-05-20T13:11:27.000Z</time>
      </trkpt>
      <trkpt lat="45.91201" lon="4.8116">
        <ele>169.39999389648</ele>
        <time>2024-05-20T13:11:28.000Z</time>
      </trkpt>
      <trkpt lat="45.91196" lon="4.8116">
        <ele>169.39999389648</ele>
        <time>2024-05-20T13:11:29.000Z</time>
      </trkpt>
      <trkpt lat="45.91191" lon="4.81161">
        <ele>169.39999389648</ele>
        <time>2024-05-20T13:11:30.000Z</time>
      </trkpt>
      <trkpt lat="45.91187" lon="4.81161">
        <ele>169.39999389648</ele>
        <time>2024-05-20T13:11:31.000Z</time>
      </trkpt>
      <trkpt lat="45.91182" lon="4.81162">
        <ele>169.39999389648</ele>
        <time>2024-05-20T13:11:32.000Z</time>
      </trkpt>
      <trkpt lat="45.91177" lon="4.81162">
        <ele>169.39999389648</ele>
        <time>2024-05-20T13:11:33.000Z</time>
      </trkpt>
      <trkpt lat="45.91172" lon="4.81163">
        <ele>169.60000610352</ele>
        <time>2024-05-20T13:11:34.000Z</time>
      </trkpt>
      <trkpt lat="45.91167" lon="4.81163">
        <ele>169.60000610352</ele>
        <time>2024-05-20T13:11:35.000Z</time>
      </trkpt>
      <trkpt lat="45.91162" lon="4.81164">
        <ele>169.60000610352</ele>
        <time>2024-05-20T13:11:36.000Z</time>
      </trkpt>
      <trkpt lat="45.91157" lon="4.81164">
        <ele>169.60000610352</ele>
        <time>2024-05-20T13:11:37.000Z</time>
      </trkpt>
      <trkpt lat="45.91152" lon="4.81165">
        <ele>169.60000610352</ele>
        <time>2024-05-20T13:11:38.000Z</time>
      </trkpt>
      <trkpt lat="45.91146" lon="4.81166">
        <ele>169.60000610352</ele>
        <time>2024-05-20T13:11:39.000Z</time>
      </trkpt>
      <trkpt lat="45.91141" lon="4.81167">
        <ele>169.60000610352</ele>
        <time>2024-05-20T13:11:40.000Z</time>
      </trkpt>
      <trkpt lat="45.91136" lon="4.81169">
        <ele>169.60000610352</ele>
        <time>2024-05-20T13:11:41.000Z</time>
      </trkpt>
      <trkpt lat="45.91131" lon="4.8117">
        <ele>169.60000610352</ele>
        <time>2024-05-20T13:11:42.000Z</time>
      </trkpt>
      <trkpt lat="45.91125" lon="4.81171">
        <ele>169.80000305176</ele>
        <time>2024-05-20T13:11:43.000Z</time>
      </trkpt>
      <trkpt lat="45.9112" lon="4.81172">
        <ele>170</ele>
        <time>2024-05-20T13:11:44.000Z</time>
      </trkpt>
      <trkpt lat="45.91115" lon="4.81172">
        <ele>170</ele>
        <time>2024-05-20T13:11:45.000Z</time>
      </trkpt>
      <trkpt lat="45.9111" lon="4.81172">
        <ele>170</ele>
        <time>2024-05-20T13:11:46.000Z</time>
      </trkpt>
      <trkpt lat="45.91105" lon="4.81172">
        <ele>170</ele>
        <time>2024-05-20T13:11:47.000Z</time>
      </trkpt>
      <trkpt lat="45.91099" lon="4.81172">
        <ele>170</ele>
        <time>2024-05-20T13:11:48.000Z</time>
      </trkpt>
      <trkpt lat="45.91094" lon="4.81173">
        <ele>170</ele>
        <time>2024-05-20T13:11:49.000Z</time>
      </trkpt>
      <trkpt lat="45.91089" lon="4.81174">
        <ele>169.80000305176</ele>
        <time>2024-05-20T13:11:50.000Z</time>
      </trkpt>
      <trkpt lat="45.91083" lon="4.81174">
        <ele>169.80000305176</ele>
        <time>2024-05-20T13:11:51.000Z</time>
      </trkpt>
      <trkpt lat="45.91078" lon="4.81175">
        <ele>169.80000305176</ele>
        <time>2024-05-20T13:11:52.000Z</time>
      </trkpt>
      <trkpt lat="45.91073" lon="4.81177">
        <ele>169.80000305176</ele>
        <time>2024-05-20T13:11:53.000Z</time>
      </trkpt>
      <trkpt lat="45.91068" lon="4.81179">
        <ele>169.80000305176</ele>
        <time>2024-05-20T13:11:54.000Z</time>
      </trkpt>
      <trkpt lat="45.91063" lon="4.81181">
        <ele>169.80000305176</ele>
        <time>2024-05-20T13:11:55.000Z</time>
      </trkpt>
      <trkpt lat="45.91058" lon="4.81184">
        <ele>169.60000610352</ele>
        <time>2024-05-20T13:11:56.000Z</time>
      </trkpt>
      <trkpt lat="45.91053" lon="4.81187">
        <ele>169.60000610352</ele>
        <time>2024-05-20T13:11:57.000Z</time>
      </trkpt>
      <trkpt lat="45.91048" lon="4.8119">
        <ele>169.60000610352</ele>
        <time>2024-05-20T13:11:58.000Z</time>
      </trkpt>
      <trkpt lat="45.91043" lon="4.81193">
        <ele>169.60000610352</ele>
        <time>2024-05-20T13:11:59.000Z</time>
      </trkpt>
      <trkpt lat="45.91039" lon="4.81198">
        <ele>169.39999389648</ele>
        <time>2024-05-20T13:12:00.000Z</time>
      </trkpt>
      <trkpt lat="45.91035" lon="4.81202">
        <ele>169.39999389648</ele>
        <time>2024-05-20T13:12:01.000Z</time>
      </trkpt>
      <trkpt lat="45.91032" lon="4.81208">
        <ele>169.39999389648</ele>
        <time>2024-05-20T13:12:02.000Z</time>
      </trkpt>
      <trkpt lat="45.91029" lon="4.81214">
        <ele>169.39999389648</ele>
        <time>2024-05-20T13:12:03.000Z</time>
      </trkpt>
      <trkpt lat="45.91026" lon="4.8122">
        <ele>169.39999389648</ele>
        <time>2024-05-20T13:12:04.000Z</time>
      </trkpt>
      <trkpt lat="45.91023" lon="4.81225">
        <ele>169.60000610352</ele>
        <time>2024-05-20T13:12:05.000Z</time>
      </trkpt>
      <trkpt lat="45.9102" lon="4.81231">
        <ele>169.60000610352</ele>
        <time>2024-05-20T13:12:06.000Z</time>
      </trkpt>
      <trkpt lat="45.91016" lon="4.81235">
        <ele>169.60000610352</ele>
        <time>2024-05-20T13:12:07.000Z</time>
      </trkpt>
      <trkpt lat="45.91012" lon="4.81239">
        <ele>169.60000610352</ele>
        <time>2024-05-20T13:12:08.000Z</time>
      </trkpt>
      <trkpt lat="45.91008" lon="4.81242">
        <ele>169.60000610352</ele>
        <time>2024-05-20T13:12:09.000Z</time>
      </trkpt>
      <trkpt lat="45.91004" lon="4.81244">
        <ele>169.39999389648</ele>
        <time>2024-05-20T13:12:10.000Z</time>
      </trkpt>
      <trkpt lat="45.91" lon="4.81245">
        <ele>169.39999389648</ele>
        <time>2024-05-20T13:12:11.000Z</time>
      </trkpt>
      <trkpt lat="45.90996" lon="4.81245">
        <ele>169.39999389648</ele>
        <time>2024-05-20T13:12:12.000Z</time>
      </trkpt>
      <trkpt lat="45.90991" lon="4.81245">
        <ele>169.39999389648</ele>
        <time>2024-05-20T13:12:13.000Z</time>
      </trkpt>
      <trkpt lat="45.90987" lon="4.81245">
        <ele>169.39999389648</ele>
        <time>2024-05-20T13:12:14.000Z</time>
      </trkpt>
      <trkpt lat="45.90982" lon="4.81245">
        <ele>169.39999389648</ele>
        <time>2024-05-20T13:12:15.000Z</time>
      </trkpt>
      <trkpt lat="45.90977" lon="4.81243">
        <ele>169.39999389648</ele>
        <time>2024-05-20T13:12:16.000Z</time>
      </trkpt>
      <trkpt lat="45.90971" lon="4.81242">
        <ele>169.19999694824</ele>
        <time>2024-05-20T13:12:17.000Z</time>
      </trkpt>
      <trkpt lat="45.90966" lon="4.81241">
        <ele>169.19999694824</ele>
        <time>2024-05-20T13:12:18.000Z</time>
      </trkpt>
      <trkpt lat="45.9096" lon="4.8124">
        <ele>169.19999694824</ele>
        <time>2024-05-20T13:12:19.000Z</time>
      </trkpt>
      <trkpt lat="45.90955" lon="4.81238">
        <ele>169.19999694824</ele>
        <time>2024-05-20T13:12:20.000Z</time>
      </trkpt>
      <trkpt lat="45.90949" lon="4.81237">
        <ele>169.19999694824</ele>
        <time>2024-05-20T13:12:21.000Z</time>
      </trkpt>
      <trkpt lat="45.90944" lon="4.81235">
        <ele>169.19999694824</ele>
        <time>2024-05-20T13:12:22.000Z</time>
      </trkpt>
      <trkpt lat="45.90939" lon="4.81234">
        <ele>169.19999694824</ele>
        <time>2024-05-20T13:12:23.000Z</time>
      </trkpt>
      <trkpt lat="45.90933" lon="4.81233">
        <ele>169.19999694824</ele>
        <time>2024-05-20T13:12:24.000Z</time>
      </trkpt>
      <trkpt lat="45.90928" lon="4.81232">
        <ele>169.39999389648</ele>
        <time>2024-05-20T13:12:25.000Z</time>
      </trkpt>
      <trkpt lat="45.90923" lon="4.81231">
        <ele>169.39999389648</ele>
        <time>2024-05-20T13:12:26.000Z</time>
      </trkpt>
      <trkpt lat="45.90917" lon="4.81229">
        <ele>169.60000610352</ele>
        <time>2024-05-20T13:12:27.000Z</time>
      </trkpt>
      <trkpt lat="45.90912" lon="4.81228">
        <ele>169.80000305176</ele>
        <time>2024-05-20T13:12:28.000Z</time>
      </trkpt>
      <trkpt lat="45.90906" lon="4.81226">
        <ele>170</ele>
        <time>2024-05-20T13:12:29.000Z</time>
      </trkpt>
      <trkpt lat="45.90901" lon="4.81224">
        <ele>170</ele>
        <time>2024-05-20T13:12:30.000Z</time>
      </trkpt>
      <trkpt lat="45.90895" lon="4.81222">
        <ele>170</ele>
        <time>2024-05-20T13:12:31.000Z</time>
      </trkpt>
      <trkpt lat="45.90889" lon="4.81221">
        <ele>170.19999694824</ele>
        <time>2024-05-20T13:12:32.000Z</time>
      </trkpt>
      <trkpt lat="45.90884" lon="4.8122">
        <ele>170.19999694824</ele>
        <time>2024-05-20T13:12:33.000Z</time>
      </trkpt>
      <trkpt lat="45.90878" lon="4.81218">
        <ele>170.19999694824</ele>
        <time>2024-05-20T13:12:34.000Z</time>
      </trkpt>
      <trkpt lat="45.90872" lon="4.81216">
        <ele>170.19999694824</ele>
        <time>2024-05-20T13:12:35.000Z</time>
      </trkpt>
      <trkpt lat="45.90866" lon="4.81214">
        <ele>170.19999694824</ele>
        <time>2024-05-20T13:12:36.000Z</time>
      </trkpt>
      <trkpt lat="45.90861" lon="4.81213">
        <ele>170.19999694824</ele>
        <time>2024-05-20T13:12:37.000Z</time>
      </trkpt>
      <trkpt lat="45.90855" lon="4.81211">
        <ele>170.19999694824</ele>
        <time>2024-05-20T13:12:38.000Z</time>
      </trkpt>
      <trkpt lat="45.90849" lon="4.81209">
        <ele>170.19999694824</ele>
        <time>2024-05-20T13:12:39.000Z</time>
      </trkpt>
      <trkpt lat="45.90843" lon="4.81207">
        <ele>170.19999694824</ele>
        <time>2024-05-20T13:12:40.000Z</time>
      </trkpt>
      <trkpt lat="45.90837" lon="4.81206">
        <ele>170.19999694824</ele>
        <time>2024-05-20T13:12:41.000Z</time>
      </trkpt>
      <trkpt lat="45.90831" lon="4.81204">
        <ele>170.19999694824</ele>
        <time>2024-05-20T13:12:42.000Z</time>
      </trkpt>
      <trkpt lat="45.90825" lon="4.81202">
        <ele>170</ele>
        <time>2024-05-20T13:12:43.000Z</time>
      </trkpt>
      <trkpt lat="45.90819" lon="4.812">
        <ele>170</ele>
        <time>2024-05-20T13:12:44.000Z</time>
      </trkpt>
      <trkpt lat="45.90813" lon="4.81199">
        <ele>170</ele>
        <time>2024-05-20T13:12:45.000Z</time>
      </trkpt>
      <trkpt lat="45.90807" lon="4.81197">
        <ele>169.80000305176</ele>
        <time>2024-05-20T13:12:46.000Z</time>
      </trkpt>
      <trkpt lat="45.90801" lon="4.81195">
        <ele>169.80000305176</ele>
        <time>2024-05-20T13:12:47.000Z</time>
      </trkpt>
      <trkpt lat="45.90795" lon="4.81193">
        <ele>169.80000305176</ele>
        <time>2024-05-20T13:12:48.000Z</time>
      </trkpt>
      <trkpt lat="45.90789" lon="4.81191">
        <ele>169.60000610352</ele>
        <time>2024-05-20T13:12:49.000Z</time>
      </trkpt>
      <trkpt lat="45.90783" lon="4.8119">
        <ele>169.60000610352</ele>
        <time>2024-05-20T13:12:50.000Z</time>
      </trkpt>
      <trkpt lat="45.90778" lon="4.81188">
        <ele>169.60000610352</ele>
        <time>2024-05-20T13:12:51.000Z</time>
      </trkpt>
      <trkpt lat="45.90772" lon="4.81187">
        <ele>169.60000610352</ele>
        <time>2024-05-20T13:12:52.000Z</time>
      </trkpt>
      <trkpt lat="45.90766" lon="4.81185">
        <ele>169.60000610352</ele>
        <time>2024-05-20T13:12:53.000Z</time>
      </trkpt>
      <trkpt lat="45.90761" lon="4.81183">
        <ele>169.60000610352</ele>
        <time>2024-05-20T13:12:54.000Z</time>
      </trkpt>
      <trkpt lat="45.90755" lon="4.8118">
        <ele>169.60000610352</ele>
        <time>2024-05-20T13:12:55.000Z</time>
      </trkpt>
      <trkpt lat="45.90749" lon="4.81178">
        <ele>170</ele>
        <time>2024-05-20T13:12:56.000Z</time>
      </trkpt>
      <trkpt lat="45.90743" lon="4.81175">
        <ele>170.19999694824</ele>
        <time>2024-05-20T13:12:57.000Z</time>
      </trkpt>
      <trkpt lat="45.90737" lon="4.81173">
        <ele>170.39999389648</ele>
        <time>2024-05-20T13:12:58.000Z</time>
      </trkpt>
      <trkpt lat="45.90731" lon="4.8117">
        <ele>170.39999389648</ele>
        <time>2024-05-20T13:12:59.000Z</time>
      </trkpt>
      <trkpt lat="45.90726" lon="4.81167">
        <ele>170.39999389648</ele>
        <time>2024-05-20T13:13:00.000Z</time>
      </trkpt>
      <trkpt lat="45.9072" lon="4.81164">
        <ele>170.39999389648</ele>
        <time>2024-05-20T13:13:01.000Z</time>
      </trkpt>
      <trkpt lat="45.90714" lon="4.8116">
        <ele>170.39999389648</ele>
        <time>2024-05-20T13:13:02.000Z</time>
      </trkpt>
      <trkpt lat="45.90708" lon="4.81157">
        <ele>170.39999389648</ele>
        <time>2024-05-20T13:13:03.000Z</time>
      </trkpt>
      <trkpt lat="45.90703" lon="4.81154">
        <ele>170.39999389648</ele>
        <time>2024-05-20T13:13:04.000Z</time>
      </trkpt>
      <trkpt lat="45.90698" lon="4.8115">
        <ele>170.39999389648</ele>
        <time>2024-05-20T13:13:05.000Z</time>
      </trkpt>
      <trkpt lat="45.90692" lon="4.81147">
        <ele>170.39999389648</ele>
        <time>2024-05-20T13:13:06.000Z</time>
      </trkpt>
      <trkpt lat="45.90686" lon="4.81144">
        <ele>170.39999389648</ele>
        <time>2024-05-20T13:13:07.000Z</time>
      </trkpt>
      <trkpt lat="45.90681" lon="4.8114">
        <ele>170.39999389648</ele>
        <time>2024-05-20T13:13:08.000Z</time>
      </trkpt>
      <trkpt lat="45.90675" lon="4.81136">
        <ele>170.19999694824</ele>
        <time>2024-05-20T13:13:09.000Z</time>
      </trkpt>
      <trkpt lat="45.90669" lon="4.81132">
        <ele>170.19999694824</ele>
        <time>2024-05-20T13:13:10.000Z</time>
      </trkpt>
      <trkpt lat="45.90664" lon="4.81128">
        <ele>170</ele>
        <time>2024-05-20T13:13:11.000Z</time>
      </trkpt>
      <trkpt lat="45.90659" lon="4.81124">
        <ele>170</ele>
        <time>2024-05-20T13:13:12.000Z</time>
      </trkpt>
      <trkpt lat="45.90653" lon="4.8112">
        <ele>170</ele>
        <time>2024-05-20T13:13:13.000Z</time>
      </trkpt>
      <trkpt lat="45.90648" lon="4.81115">
        <ele>170</ele>
        <time>2024-05-20T13:13:14.000Z</time>
      </trkpt>
      <trkpt lat="45.90643" lon="4.81111">
        <ele>170.19999694824</ele>
        <time>2024-05-20T13:13:15.000Z</time>
      </trkpt>
      <trkpt lat="45.90638" lon="4.81107">
        <ele>170.19999694824</ele>
        <time>2024-05-20T13:13:16.000Z</time>
      </trkpt>
      <trkpt lat="45.90633" lon="4.81102">
        <ele>170.19999694824</ele>
        <time>2024-05-20T13:13:17.000Z</time>
      </trkpt>
      <trkpt lat="45.90628" lon="4.81097">
        <ele>170.19999694824</ele>
        <time>2024-05-20T13:13:18.000Z</time>
      </trkpt>
      <trkpt lat="45.90623" lon="4.81092">
        <ele>170.19999694824</ele>
        <time>2024-05-20T13:13:19.000Z</time>
      </trkpt>
      <trkpt lat="45.90618" lon="4.81087">
        <ele>170</ele>
        <time>2024-05-20T13:13:20.000Z</time>
      </trkpt>
      <trkpt lat="45.90613" lon="4.81082">
        <ele>170</ele>
        <time>2024-05-20T13:13:21.000Z</time>
      </trkpt>
      <trkpt lat="45.90609" lon="4.81077">
        <ele>170</ele>
        <time>2024-05-20T13:13:22.000Z</time>
      </trkpt>
      <trkpt lat="45.90604" lon="4.81072">
        <ele>170</ele>
        <time>2024-05-20T13:13:23.000Z</time>
      </trkpt>
      <trkpt lat="45.90599" lon="4.81067">
        <ele>170</ele>
        <time>2024-05-20T13:13:24.000Z</time>
      </trkpt>
      <trkpt lat="45.90594" lon="4.81062">
        <ele>170</ele>
        <time>2024-05-20T13:13:25.000Z</time>
      </trkpt>
      <trkpt lat="45.9059" lon="4.81057">
        <ele>169.80000305176</ele>
        <time>2024-05-20T13:13:26.000Z</time>
      </trkpt>
      <trkpt lat="45.90586" lon="4.81052">
        <ele>169.80000305176</ele>
        <time>2024-05-20T13:13:27.000Z</time>
      </trkpt>
      <trkpt lat="45.90581" lon="4.81047">
        <ele>169.80000305176</ele>
        <time>2024-05-20T13:13:28.000Z</time>
      </trkpt>
      <trkpt lat="45.90577" lon="4.81042">
        <ele>170</ele>
        <time>2024-05-20T13:13:29.000Z</time>
      </trkpt>
      <trkpt lat="45.90573" lon="4.81037">
        <ele>170</ele>
        <time>2024-05-20T13:13:30.000Z</time>
      </trkpt>
      <trkpt lat="45.90569" lon="4.81032">
        <ele>170</ele>
        <time>2024-05-20T13:13:31.000Z</time>
      </trkpt>
      <trkpt lat="45.90564" lon="4.81027">
        <ele>170</ele>
        <time>2024-05-20T13:13:32.000Z</time>
      </trkpt>
      <trkpt lat="45.9056" lon="4.81022">
        <ele>170</ele>
        <time>2024-05-20T13:13:33.000Z</time>
      </trkpt>
      <trkpt lat="45.90556" lon="4.81016">
        <ele>170</ele>
        <time>2024-05-20T13:13:34.000Z</time>
      </trkpt>
      <trkpt lat="45.90552" lon="4.81011">
        <ele>170</ele>
        <time>2024-05-20T13:13:35.000Z</time>
      </trkpt>
      <trkpt lat="45.90547" lon="4.81005">
        <ele>169.80000305176</ele>
        <time>2024-05-20T13:13:36.000Z</time>
      </trkpt>
      <trkpt lat="45.90542" lon="4.80999">
        <ele>169.80000305176</ele>
        <time>2024-05-20T13:13:37.000Z</time>
      </trkpt>
      <trkpt lat="45.90538" lon="4.80994">
        <ele>169.80000305176</ele>
        <time>2024-05-20T13:13:38.000Z</time>
      </trkpt>
      <trkpt lat="45.90533" lon="4.80989">
        <ele>169.80000305176</ele>
        <time>2024-05-20T13:13:39.000Z</time>
      </trkpt>
      <trkpt lat="45.90528" lon="4.80983">
        <ele>169.80000305176</ele>
        <time>2024-05-20T13:13:40.000Z</time>
      </trkpt>
      <trkpt lat="45.90523" lon="4.80978">
        <ele>169.60000610352</ele>
        <time>2024-05-20T13:13:41.000Z</time>
      </trkpt>
      <trkpt lat="45.90518" lon="4.80973">
        <ele>169.60000610352</ele>
        <time>2024-05-20T13:13:42.000Z</time>
      </trkpt>
      <trkpt lat="45.90514" lon="4.80968">
        <ele>169.60000610352</ele>
        <time>2024-05-20T13:13:43.000Z</time>
      </trkpt>
      <trkpt lat="45.90509" lon="4.80962">
        <ele>169.60000610352</ele>
        <time>2024-05-20T13:13:44.000Z</time>
      </trkpt>
      <trkpt lat="45.90505" lon="4.80956">
        <ele>169.60000610352</ele>
        <time>2024-05-20T13:13:45.000Z</time>
      </trkpt>
      <trkpt lat="45.90501" lon="4.8095">
        <ele>169.80000305176</ele>
        <time>2024-05-20T13:13:46.000Z</time>
      </trkpt>
      <trkpt lat="45.90496" lon="4.80944">
        <ele>169.80000305176</ele>
        <time>2024-05-20T13:13:47.000Z</time>
      </trkpt>
      <trkpt lat="45.90492" lon="4.80939">
        <ele>169.80000305176</ele>
        <time>2024-05-20T13:13:48.000Z</time>
      </trkpt>
      <trkpt lat="45.90488" lon="4.80932">
        <ele>169.80000305176</ele>
        <time>2024-05-20T13:13:49.000Z</time>
      </trkpt>
      <trkpt lat="45.90484" lon="4.80925">
        <ele>169.80000305176</ele>
        <time>2024-05-20T13:13:50.000Z</time>
      </trkpt>
      <trkpt lat="45.9048" lon="4.80919">
        <ele>169.80000305176</ele>
        <time>2024-05-20T13:13:51.000Z</time>
      </trkpt>
      <trkpt lat="45.90476" lon="4.80912">
        <ele>169.80000305176</ele>
        <time>2024-05-20T13:13:52.000Z</time>
      </trkpt>
      <trkpt lat="45.90472" lon="4.80905">
        <ele>169.80000305176</ele>
        <time>2024-05-20T13:13:53.000Z</time>
      </trkpt>
      <trkpt lat="45.90469" lon="4.80897">
        <ele>169.80000305176</ele>
        <time>2024-05-20T13:13:54.000Z</time>
      </trkpt>
      <trkpt lat="45.90465" lon="4.8089">
        <ele>169.80000305176</ele>
        <time>2024-05-20T13:13:55.000Z</time>
      </trkpt>
      <trkpt lat="45.90462" lon="4.80883">
        <ele>169.80000305176</ele>
        <time>2024-05-20T13:13:56.000Z</time>
      </trkpt>
      <trkpt lat="45.90458" lon="4.80875">
        <ele>169.80000305176</ele>
        <time>2024-05-20T13:13:57.000Z</time>
      </trkpt>
      <trkpt lat="45.90455" lon="4.80867">
        <ele>169.80000305176</ele>
        <time>2024-05-20T13:13:58.000Z</time>
      </trkpt>
      <trkpt lat="45.90451" lon="4.8086">
        <ele>170</ele>
        <time>2024-05-20T13:13:59.000Z</time>
      </trkpt>
      <trkpt lat="45.90447" lon="4.80854">
        <ele>170</ele>
        <time>2024-05-20T13:14:00.000Z</time>
      </trkpt>
      <trkpt lat="45.90444" lon="4.80848">
        <ele>170.19999694824</ele>
        <time>2024-05-20T13:14:01.000Z</time>
      </trkpt>
      <trkpt lat="45.90441" lon="4.80842">
        <ele>170.19999694824</ele>
        <time>2024-05-20T13:14:02.000Z</time>
      </trkpt>
      <trkpt lat="45.90439" lon="4.80836">
        <ele>170.19999694824</ele>
        <time>2024-05-20T13:14:03.000Z</time>
      </trkpt>
      <trkpt lat="45.90435" lon="4.80829">
        <ele>170.60000610352</ele>
        <time>2024-05-20T13:14:04.000Z</time>
      </trkpt>
      <trkpt lat="45.90432" lon="4.80824">
        <ele>170.80000305176</ele>
        <time>2024-05-20T13:14:05.000Z</time>
      </trkpt>
      <trkpt lat="45.90429" lon="4.80818">
        <ele>170.80000305176</ele>
        <time>2024-05-20T13:14:06.000Z</time>
      </trkpt>
      <trkpt lat="45.90426" lon="4.80811">
        <ele>170.80000305176</ele>
        <time>2024-05-20T13:14:07.000Z</time>
      </trkpt>
      <trkpt lat="45.90423" lon="4.80805">
        <ele>170.80000305176</ele>
        <time>2024-05-20T13:14:08.000Z</time>
      </trkpt>
      <trkpt lat="45.90419" lon="4.80798">
        <ele>170.80000305176</ele>
        <time>2024-05-20T13:14:09.000Z</time>
      </trkpt>
      <trkpt lat="45.90415" lon="4.80791">
        <ele>170.80000305176</ele>
        <time>2024-05-20T13:14:10.000Z</time>
      </trkpt>
      <trkpt lat="45.90411" lon="4.80784">
        <ele>170.60000610352</ele>
        <time>2024-05-20T13:14:11.000Z</time>
      </trkpt>
      <trkpt lat="45.90406" lon="4.80776">
        <ele>170.60000610352</ele>
        <time>2024-05-20T13:14:12.000Z</time>
      </trkpt>
      <trkpt lat="45.90402" lon="4.80769">
        <ele>170.60000610352</ele>
        <time>2024-05-20T13:14:13.000Z</time>
      </trkpt>
      <trkpt lat="45.90398" lon="4.80762">
        <ele>170.60000610352</ele>
        <time>2024-05-20T13:14:14.000Z</time>
      </trkpt>
      <trkpt lat="45.90394" lon="4.80755">
        <ele>170.60000610352</ele>
        <time>2024-05-20T13:14:15.000Z</time>
      </trkpt>
      <trkpt lat="45.9039" lon="4.80749">
        <ele>170.60000610352</ele>
        <time>2024-05-20T13:14:16.000Z</time>
      </trkpt>
      <trkpt lat="45.90386" lon="4.80742">
        <ele>170.80000305176</ele>
        <time>2024-05-20T13:14:17.000Z</time>
      </trkpt>
      <trkpt lat="45.90382" lon="4.80735">
        <ele>170.60000610352</ele>
        <time>2024-05-20T13:14:18.000Z</time>
      </trkpt>
      <trkpt lat="45.90378" lon="4.80727">
        <ele>170.80000305176</ele>
        <time>2024-05-20T13:14:19.000Z</time>
      </trkpt>
      <trkpt lat="45.90373" lon="4.8072">
        <ele>170.60000610352</ele>
        <time>2024-05-20T13:14:20.000Z</time>
      </trkpt>
      <trkpt lat="45.90369" lon="4.80714">
        <ele>170.60000610352</ele>
        <time>2024-05-20T13:14:21.000Z</time>
      </trkpt>
      <trkpt lat="45.90364" lon="4.80708">
        <ele>170.60000610352</ele>
        <time>2024-05-20T13:14:22.000Z</time>
      </trkpt>
      <trkpt lat="45.90359" lon="4.80702">
        <ele>170.60000610352</ele>
        <time>2024-05-20T13:14:23.000Z</time>
      </trkpt>
      <trkpt lat="45.90355" lon="4.80697">
        <ele>170.60000610352</ele>
        <time>2024-05-20T13:14:24.000Z</time>
      </trkpt>
      <trkpt lat="45.90351" lon="4.80691">
        <ele>170.60000610352</ele>
        <time>2024-05-20T13:14:25.000Z</time>
      </trkpt>
      <trkpt lat="45.90346" lon="4.80686">
        <ele>170.60000610352</ele>
        <time>2024-05-20T13:14:26.000Z</time>
      </trkpt>
      <trkpt lat="45.90341" lon="4.80681">
        <ele>170.80000305176</ele>
        <time>2024-05-20T13:14:27.000Z</time>
      </trkpt>
      <trkpt lat="45.90336" lon="4.80676">
        <ele>170.80000305176</ele>
        <time>2024-05-20T13:14:28.000Z</time>
      </trkpt>
      <trkpt lat="45.9033" lon="4.8067">
        <ele>170.80000305176</ele>
        <time>2024-05-20T13:14:29.000Z</time>
      </trkpt>
      <trkpt lat="45.90326" lon="4.80664">
        <ele>171</ele>
        <time>2024-05-20T13:14:30.000Z</time>
      </trkpt>
      <trkpt lat="45.90322" lon="4.80658">
        <ele>171</ele>
        <time>2024-05-20T13:14:31.000Z</time>
      </trkpt>
      <trkpt lat="45.90317" lon="4.80653">
        <ele>171</ele>
        <time>2024-05-20T13:14:32.000Z</time>
      </trkpt>
      <trkpt lat="45.90313" lon="4.80649">
        <ele>171</ele>
        <time>2024-05-20T13:14:33.000Z</time>
      </trkpt>
      <trkpt lat="45.90308" lon="4.80643">
        <ele>171</ele>
        <time>2024-05-20T13:14:34.000Z</time>
      </trkpt>
      <trkpt lat="45.90304" lon="4.80638">
        <ele>171</ele>
        <time>2024-05-20T13:14:35.000Z</time>
      </trkpt>
      <trkpt lat="45.90299" lon="4.80633">
        <ele>170.80000305176</ele>
        <time>2024-05-20T13:14:36.000Z</time>
      </trkpt>
      <trkpt lat="45.90294" lon="4.80628">
        <ele>170.80000305176</ele>
        <time>2024-05-20T13:14:37.000Z</time>
      </trkpt>
      <trkpt lat="45.90288" lon="4.80624">
        <ele>170.60000610352</ele>
        <time>2024-05-20T13:14:38.000Z</time>
      </trkpt>
      <trkpt lat="45.90283" lon="4.8062">
        <ele>170.60000610352</ele>
        <time>2024-05-20T13:14:39.000Z</time>
      </trkpt>
      <trkpt lat="45.90277" lon="4.80616">
        <ele>170.60000610352</ele>
        <time>2024-05-20T13:14:40.000Z</time>
      </trkpt>
      <trkpt lat="45.90272" lon="4.80612">
        <ele>170.60000610352</ele>
        <time>2024-05-20T13:14:41.000Z</time>
      </trkpt>
      <trkpt lat="45.90266" lon="4.80608">
        <ele>170.60000610352</ele>
        <time>2024-05-20T13:14:42.000Z</time>
      </trkpt>
      <trkpt lat="45.9026" lon="4.80604">
        <ele>170.60000610352</ele>
        <time>2024-05-20T13:14:43.000Z</time>
      </trkpt>
      <trkpt lat="45.90255" lon="4.80599">
        <ele>170.60000610352</ele>
        <time>2024-05-20T13:14:44.000Z</time>
      </trkpt>
      <trkpt lat="45.9025" lon="4.80595">
        <ele>170.60000610352</ele>
        <time>2024-05-20T13:14:45.000Z</time>
      </trkpt>
      <trkpt lat="45.90245" lon="4.80591">
        <ele>170.39999389648</ele>
        <time>2024-05-20T13:14:46.000Z</time>
      </trkpt>
      <trkpt lat="45.90239" lon="4.80587">
        <ele>170.39999389648</ele>
        <time>2024-05-20T13:14:47.000Z</time>
      </trkpt>
      <trkpt lat="45.90234" lon="4.80582">
        <ele>170.39999389648</ele>
        <time>2024-05-20T13:14:48.000Z</time>
      </trkpt>
      <trkpt lat="45.90228" lon="4.80578">
        <ele>170.19999694824</ele>
        <time>2024-05-20T13:14:49.000Z</time>
      </trkpt>
      <trkpt lat="45.90223" lon="4.80575">
        <ele>170.19999694824</ele>
        <time>2024-05-20T13:14:50.000Z</time>
      </trkpt>
      <trkpt lat="45.90218" lon="4.80571">
        <ele>170.19999694824</ele>
        <time>2024-05-20T13:14:51.000Z</time>
      </trkpt>
      <trkpt lat="45.90212" lon="4.80568">
        <ele>170.19999694824</ele>
        <time>2024-05-20T13:14:52.000Z</time>
      </trkpt>
      <trkpt lat="45.90207" lon="4.80564">
        <ele>170.19999694824</ele>
        <time>2024-05-20T13:14:53.000Z</time>
      </trkpt>
      <trkpt lat="45.90201" lon="4.80561">
        <ele>170.39999389648</ele>
        <time>2024-05-20T13:14:54.000Z</time>
      </trkpt>
      <trkpt lat="45.90195" lon="4.80558">
        <ele>170.60000610352</ele>
        <time>2024-05-20T13:14:55.000Z</time>
      </trkpt>
      <trkpt lat="45.9019" lon="4.80555">
        <ele>171</ele>
        <time>2024-05-20T13:14:56.000Z</time>
      </trkpt>
      <trkpt lat="45.90184" lon="4.80552">
        <ele>171</ele>
        <time>2024-05-20T13:14:57.000Z</time>
      </trkpt>
      <trkpt lat="45.90179" lon="4.80549">
        <ele>171</ele>
        <time>2024-05-20T13:14:58.000Z</time>
      </trkpt>
      <trkpt lat="45.90173" lon="4.80546">
        <ele>171</ele>
        <time>2024-05-20T13:14:59.000Z</time>
      </trkpt>
      <trkpt lat="45.90167" lon="4.80544">
        <ele>170.80000305176</ele>
        <time>2024-05-20T13:15:00.000Z</time>
      </trkpt>
      <trkpt lat="45.90161" lon="4.80541">
        <ele>170.60000610352</ele>
        <time>2024-05-20T13:15:01.000Z</time>
      </trkpt>
      <trkpt lat="45.90155" lon="4.80538">
        <ele>170.60000610352</ele>
        <time>2024-05-20T13:15:02.000Z</time>
      </trkpt>
      <trkpt lat="45.90149" lon="4.80536">
        <ele>170.60000610352</ele>
        <time>2024-05-20T13:15:03.000Z</time>
      </trkpt>
      <trkpt lat="45.90143" lon="4.80534">
        <ele>170.60000610352</ele>
        <time>2024-05-20T13:15:04.000Z</time>
      </trkpt>
      <trkpt lat="45.90136" lon="4.80532">
        <ele>170.39999389648</ele>
        <time>2024-05-20T13:15:05.000Z</time>
      </trkpt>
      <trkpt lat="45.90131" lon="4.80531">
        <ele>170.39999389648</ele>
        <time>2024-05-20T13:15:06.000Z</time>
      </trkpt>
      <trkpt lat="45.90125" lon="4.8053">
        <ele>170.19999694824</ele>
        <time>2024-05-20T13:15:07.000Z</time>
      </trkpt>
      <trkpt lat="45.90119" lon="4.80528">
        <ele>170.19999694824</ele>
        <time>2024-05-20T13:15:08.000Z</time>
      </trkpt>
      <trkpt lat="45.90113" lon="4.80527">
        <ele>170.19999694824</ele>
        <time>2024-05-20T13:15:09.000Z</time>
      </trkpt>
      <trkpt lat="45.90108" lon="4.80526">
        <ele>170.19999694824</ele>
        <time>2024-05-20T13:15:10.000Z</time>
      </trkpt>
      <trkpt lat="45.90102" lon="4.80525">
        <ele>170</ele>
        <time>2024-05-20T13:15:11.000Z</time>
      </trkpt>
      <trkpt lat="45.90096" lon="4.80524">
        <ele>170</ele>
        <time>2024-05-20T13:15:12.000Z</time>
      </trkpt>
      <trkpt lat="45.90091" lon="4.80523">
        <ele>170</ele>
        <time>2024-05-20T13:15:13.000Z</time>
      </trkpt>
      <trkpt lat="45.90085" lon="4.80522">
        <ele>170</ele>
        <time>2024-05-20T13:15:14.000Z</time>
      </trkpt>
      <trkpt lat="45.90079" lon="4.80521">
        <ele>170</ele>
        <time>2024-05-20T13:15:15.000Z</time>
      </trkpt>
      <trkpt lat="45.90073" lon="4.80521">
        <ele>170</ele>
        <time>2024-05-20T13:15:16.000Z</time>
      </trkpt>
      <trkpt lat="45.90068" lon="4.8052">
        <ele>170</ele>
        <time>2024-05-20T13:15:17.000Z</time>
      </trkpt>
      <trkpt lat="45.90062" lon="4.80519">
        <ele>170</ele>
        <time>2024-05-20T13:15:18.000Z</time>
      </trkpt>
      <trkpt lat="45.90055" lon="4.80518">
        <ele>170.19999694824</ele>
        <time>2024-05-20T13:15:19.000Z</time>
      </trkpt>
      <trkpt lat="45.90049" lon="4.80517">
        <ele>170.19999694824</ele>
        <time>2024-05-20T13:15:20.000Z</time>
      </trkpt>
      <trkpt lat="45.90043" lon="4.80516">
        <ele>170.19999694824</ele>
        <time>2024-05-20T13:15:21.000Z</time>
      </trkpt>
      <trkpt lat="45.90037" lon="4.80515">
        <ele>170.19999694824</ele>
        <time>2024-05-20T13:15:22.000Z</time>
      </trkpt>
      <trkpt lat="45.90031" lon="4.80514">
        <ele>170.19999694824</ele>
        <time>2024-05-20T13:15:23.000Z</time>
      </trkpt>
      <trkpt lat="45.90025" lon="4.80513">
        <ele>170.19999694824</ele>
        <time>2024-05-20T13:15:24.000Z</time>
      </trkpt>
      <trkpt lat="45.90019" lon="4.80513">
        <ele>170.19999694824</ele>
        <time>2024-05-20T13:15:25.000Z</time>
      </trkpt>
      <trkpt lat="45.90013" lon="4.80513">
        <ele>170.19999694824</ele>
        <time>2024-05-20T13:15:26.000Z</time>
      </trkpt>
      <trkpt lat="45.90006" lon="4.80512">
        <ele>170.19999694824</ele>
        <time>2024-05-20T13:15:27.000Z</time>
      </trkpt>
      <trkpt lat="45.9" lon="4.8051">
        <ele>170.19999694824</ele>
        <time>2024-05-20T13:15:28.000Z</time>
      </trkpt>
      <trkpt lat="45.89993" lon="4.8051">
        <ele>170.19999694824</ele>
        <time>2024-05-20T13:15:29.000Z</time>
      </trkpt>
      <trkpt lat="45.89987" lon="4.80511">
        <ele>170.19999694824</ele>
        <time>2024-05-20T13:15:30.000Z</time>
      </trkpt>
      <trkpt lat="45.89981" lon="4.80511">
        <ele>170.19999694824</ele>
        <time>2024-05-20T13:15:31.000Z</time>
      </trkpt>
      <trkpt lat="45.89975" lon="4.80512">
        <ele>170.19999694824</ele>
        <time>2024-05-20T13:15:32.000Z</time>
      </trkpt>
      <trkpt lat="45.89968" lon="4.80512">
        <ele>170</ele>
        <time>2024-05-20T13:15:33.000Z</time>
      </trkpt>
      <trkpt lat="45.89962" lon="4.80512">
        <ele>170</ele>
        <time>2024-05-20T13:15:34.000Z</time>
      </trkpt>
      <trkpt lat="45.89955" lon="4.80512">
        <ele>170</ele>
        <time>2024-05-20T13:15:35.000Z</time>
      </trkpt>
      <trkpt lat="45.89949" lon="4.80514">
        <ele>170</ele>
        <time>2024-05-20T13:15:36.000Z</time>
      </trkpt>
      <trkpt lat="45.89943" lon="4.80516">
        <ele>170</ele>
        <time>2024-05-20T13:15:37.000Z</time>
      </trkpt>
      <trkpt lat="45.89937" lon="4.80517">
        <ele>170</ele>
        <time>2024-05-20T13:15:38.000Z</time>
      </trkpt>
      <trkpt lat="45.89932" lon="4.80519">
        <ele>170</ele>
        <time>2024-05-20T13:15:39.000Z</time>
      </trkpt>
      <trkpt lat="45.89926" lon="4.80522">
        <ele>170</ele>
        <time>2024-05-20T13:15:40.000Z</time>
      </trkpt>
      <trkpt lat="45.89921" lon="4.80525">
        <ele>169.60000610352</ele>
        <time>2024-05-20T13:15:41.000Z</time>
      </trkpt>
      <trkpt lat="45.89915" lon="4.80528">
        <ele>169.60000610352</ele>
        <time>2024-05-20T13:15:42.000Z</time>
      </trkpt>
      <trkpt lat="45.8991" lon="4.80531">
        <ele>169.60000610352</ele>
        <time>2024-05-20T13:15:43.000Z</time>
      </trkpt>
      <trkpt lat="45.89905" lon="4.80535">
        <ele>169.60000610352</ele>
        <time>2024-05-20T13:15:44.000Z</time>
      </trkpt>
      <trkpt lat="45.899" lon="4.80538">
        <ele>169.80000305176</ele>
        <time>2024-05-20T13:15:45.000Z</time>
      </trkpt>
      <trkpt lat="45.89895" lon="4.80542">
        <ele>170</ele>
        <time>2024-05-20T13:15:46.000Z</time>
      </trkpt>
      <trkpt lat="45.8989" lon="4.80545">
        <ele>170</ele>
        <time>2024-05-20T13:15:47.000Z</time>
      </trkpt>
      <trkpt lat="45.89885" lon="4.80549">
        <ele>170.19999694824</ele>
        <time>2024-05-20T13:15:48.000Z</time>
      </trkpt>
      <trkpt lat="45.8988" lon="4.80552">
        <ele>170.19999694824</ele>
        <time>2024-05-20T13:15:49.000Z</time>
      </trkpt>
      <trkpt lat="45.89875" lon="4.80555">
        <ele>170.19999694824</ele>
        <time>2024-05-20T13:15:50.000Z</time>
      </trkpt>
      <trkpt lat="45.89871" lon="4.80559">
        <ele>170.19999694824</ele>
        <time>2024-05-20T13:15:51.000Z</time>
      </trkpt>
      <trkpt lat="45.89866" lon="4.80562">
        <ele>170.19999694824</ele>
        <time>2024-05-20T13:15:52.000Z</time>
      </trkpt>
      <trkpt lat="45.89862" lon="4.80565">
        <ele>170.19999694824</ele>
        <time>2024-05-20T13:15:53.000Z</time>
      </trkpt>
      <trkpt lat="45.89857" lon="4.80568">
        <ele>170.19999694824</ele>
        <time>2024-05-20T13:15:54.000Z</time>
      </trkpt>
      <trkpt lat="45.89853" lon="4.80571">
        <ele>170.19999694824</ele>
        <time>2024-05-20T13:15:55.000Z</time>
      </trkpt>
      <trkpt lat="45.89848" lon="4.80574">
        <ele>170.19999694824</ele>
        <time>2024-05-20T13:15:56.000Z</time>
      </trkpt>
      <trkpt lat="45.89843" lon="4.80577">
        <ele>170.19999694824</ele>
        <time>2024-05-20T13:15:57.000Z</time>
      </trkpt>
      <trkpt lat="45.89838" lon="4.8058">
        <ele>170.19999694824</ele>
        <time>2024-05-20T13:15:58.000Z</time>
      </trkpt>
      <trkpt lat="45.89832" lon="4.80584">
        <ele>170</ele>
        <time>2024-05-20T13:15:59.000Z</time>
      </trkpt>
      <trkpt lat="45.89827" lon="4.80587">
        <ele>170</ele>
        <time>2024-05-20T13:16:00.000Z</time>
      </trkpt>
      <trkpt lat="45.89821" lon="4.8059">
        <ele>170</ele>
        <time>2024-05-20T13:16:01.000Z</time>
      </trkpt>
      <trkpt lat="45.89816" lon="4.80594">
        <ele>169.60000610352</ele>
        <time>2024-05-20T13:16:02.000Z</time>
      </trkpt>
      <trkpt lat="45.8981" lon="4.80598">
        <ele>169.39999389648</ele>
        <time>2024-05-20T13:16:03.000Z</time>
      </trkpt>
      <trkpt lat="45.89804" lon="4.80602">
        <ele>169.19999694824</ele>
        <time>2024-05-20T13:16:04.000Z</time>
      </trkpt>
      <trkpt lat="45.89799" lon="4.80606">
        <ele>169.19999694824</ele>
        <time>2024-05-20T13:16:05.000Z</time>
      </trkpt>
      <trkpt lat="45.89793" lon="4.8061">
        <ele>169.19999694824</ele>
        <time>2024-05-20T13:16:06.000Z</time>
      </trkpt>
      <trkpt lat="45.89788" lon="4.80614">
        <ele>169.19999694824</ele>
        <time>2024-05-20T13:16:07.000Z</time>
      </trkpt>
      <trkpt lat="45.89782" lon="4.80618">
        <ele>169.19999694824</ele>
        <time>2024-05-20T13:16:08.000Z</time>
      </trkpt>
      <trkpt lat="45.89776" lon="4.80622">
        <ele>169.19999694824</ele>
        <time>2024-05-20T13:16:09.000Z</time>
      </trkpt>
      <trkpt lat="45.89771" lon="4.80627">
        <ele>169.19999694824</ele>
        <time>2024-05-20T13:16:10.000Z</time>
      </trkpt>
      <trkpt lat="45.89765" lon="4.80631">
        <ele>169.19999694824</ele>
        <time>2024-05-20T13:16:11.000Z</time>
      </trkpt>
      <trkpt lat="45.8976" lon="4.80636">
        <ele>169.19999694824</ele>
        <time>2024-05-20T13:16:12.000Z</time>
      </trkpt>
      <trkpt lat="45.89755" lon="4.8064">
        <ele>169.39999389648</ele>
        <time>2024-05-20T13:16:13.000Z</time>
      </trkpt>
      <trkpt lat="45.8975" lon="4.80646">
        <ele>169.39999389648</ele>
        <time>2024-05-20T13:16:14.000Z</time>
      </trkpt>
      <trkpt lat="45.89744" lon="4.8065">
        <ele>169.60000610352</ele>
        <time>2024-05-20T13:16:15.000Z</time>
      </trkpt>
      <trkpt lat="45.89739" lon="4.80654">
        <ele>169.60000610352</ele>
        <time>2024-05-20T13:16:16.000Z</time>
      </trkpt>
      <trkpt lat="45.89734" lon="4.80659">
        <ele>169.60000610352</ele>
        <time>2024-05-20T13:16:17.000Z</time>
      </trkpt>
      <trkpt lat="45.89729" lon="4.80663">
        <ele>169.80000305176</ele>
        <time>2024-05-20T13:16:18.000Z</time>
      </trkpt>
      <trkpt lat="45.89724" lon="4.80667">
        <ele>169.80000305176</ele>
        <time>2024-05-20T13:16:19.000Z</time>
      </trkpt>
      <trkpt lat="45.89718" lon="4.80671">
        <ele>170</ele>
        <time>2024-05-20T13:16:20.000Z</time>
      </trkpt>
      <trkpt lat="45.89713" lon="4.80674">
        <ele>170</ele>
        <time>2024-05-20T13:16:21.000Z</time>
      </trkpt>
      <trkpt lat="45.89708" lon="4.80678">
        <ele>170</ele>
        <time>2024-05-20T13:16:22.000Z</time>
      </trkpt>
      <trkpt lat="45.89703" lon="4.80682">
        <ele>170</ele>
        <time>2024-05-20T13:16:23.000Z</time>
      </trkpt>
      <trkpt lat="45.89698" lon="4.80686">
        <ele>170</ele>
        <time>2024-05-20T13:16:24.000Z</time>
      </trkpt>
      <trkpt lat="45.89693" lon="4.80688">
        <ele>170</ele>
        <time>2024-05-20T13:16:25.000Z</time>
      </trkpt>
      <trkpt lat="45.89687" lon="4.80691">
        <ele>170.19999694824</ele>
        <time>2024-05-20T13:16:26.000Z</time>
      </trkpt>
      <trkpt lat="45.89682" lon="4.80695">
        <ele>170.19999694824</ele>
        <time>2024-05-20T13:16:27.000Z</time>
      </trkpt>
      <trkpt lat="45.89677" lon="4.80698">
        <ele>170.19999694824</ele>
        <time>2024-05-20T13:16:28.000Z</time>
      </trkpt>
      <trkpt lat="45.89671" lon="4.80701">
        <ele>170.19999694824</ele>
        <time>2024-05-20T13:16:29.000Z</time>
      </trkpt>
      <trkpt lat="45.89665" lon="4.80703">
        <ele>170.19999694824</ele>
        <time>2024-05-20T13:16:30.000Z</time>
      </trkpt>
      <trkpt lat="45.89659" lon="4.80705">
        <ele>170.19999694824</ele>
        <time>2024-05-20T13:16:31.000Z</time>
      </trkpt>
      <trkpt lat="45.89652" lon="4.80707">
        <ele>170.19999694824</ele>
        <time>2024-05-20T13:16:32.000Z</time>
      </trkpt>
      <trkpt lat="45.89646" lon="4.80709">
        <ele>170.19999694824</ele>
        <time>2024-05-20T13:16:33.000Z</time>
      </trkpt>
      <trkpt lat="45.8964" lon="4.8071">
        <ele>170</ele>
        <time>2024-05-20T13:16:34.000Z</time>
      </trkpt>
      <trkpt lat="45.89634" lon="4.80711">
        <ele>169.80000305176</ele>
        <time>2024-05-20T13:16:35.000Z</time>
      </trkpt>
      <trkpt lat="45.89629" lon="4.80711">
        <ele>169.80000305176</ele>
        <time>2024-05-20T13:16:36.000Z</time>
      </trkpt>
      <trkpt lat="45.89623" lon="4.80712">
        <ele>169.80000305176</ele>
        <time>2024-05-20T13:16:37.000Z</time>
      </trkpt>
      <trkpt lat="45.89617" lon="4.80713">
        <ele>169.60000610352</ele>
        <time>2024-05-20T13:16:38.000Z</time>
      </trkpt>
      <trkpt lat="45.89611" lon="4.80714">
        <ele>169.60000610352</ele>
        <time>2024-05-20T13:16:39.000Z</time>
      </trkpt>
      <trkpt lat="45.89605" lon="4.80714">
        <ele>169.60000610352</ele>
        <time>2024-05-20T13:16:40.000Z</time>
      </trkpt>
      <trkpt lat="45.89598" lon="4.80716">
        <ele>169.60000610352</ele>
        <time>2024-05-20T13:16:41.000Z</time>
      </trkpt>
      <trkpt lat="45.89591" lon="4.80718">
        <ele>169.60000610352</ele>
        <time>2024-05-20T13:16:42.000Z</time>
      </trkpt>
      <trkpt lat="45.89584" lon="4.8072">
        <ele>169.60000610352</ele>
        <time>2024-05-20T13:16:43.000Z</time>
      </trkpt>
      <trkpt lat="45.89577" lon="4.80722">
        <ele>170</ele>
        <time>2024-05-20T13:16:44.000Z</time>
      </trkpt>
      <trkpt lat="45.89571" lon="4.80725">
        <ele>170</ele>
        <time>2024-05-20T13:16:45.000Z</time>
      </trkpt>
      <trkpt lat="45.89565" lon="4.80728">
        <ele>170.19999694824</ele>
        <time>2024-05-20T13:16:46.000Z</time>
      </trkpt>
      <trkpt lat="45.89559" lon="4.80729">
        <ele>170.39999389648</ele>
        <time>2024-05-20T13:16:47.000Z</time>
      </trkpt>
      <trkpt lat="45.89552" lon="4.8073">
        <ele>170.39999389648</ele>
        <time>2024-05-20T13:16:48.000Z</time>
      </trkpt>
      <trkpt lat="45.89546" lon="4.80732">
        <ele>170.39999389648</ele>
        <time>2024-05-20T13:16:49.000Z</time>
      </trkpt>
      <trkpt lat="45.8954" lon="4.80734">
        <ele>170.39999389648</ele>
        <time>2024-05-20T13:16:50.000Z</time>
      </trkpt>
      <trkpt lat="45.89533" lon="4.80736">
        <ele>170.19999694824</ele>
        <time>2024-05-20T13:16:51.000Z</time>
      </trkpt>
      <trkpt lat="45.89526" lon="4.80741">
        <ele>170.19999694824</ele>
        <time>2024-05-20T13:16:52.000Z</time>
      </trkpt>
      <trkpt lat="45.89519" lon="4.80744">
        <ele>170.19999694824</ele>
        <time>2024-05-20T13:16:53.000Z</time>
      </trkpt>
      <trkpt lat="45.89512" lon="4.80746">
        <ele>170.19999694824</ele>
        <time>2024-05-20T13:16:54.000Z</time>
      </trkpt>
      <trkpt lat="45.89505" lon="4.80749">
        <ele>170</ele>
        <time>2024-05-20T13:16:55.000Z</time>
      </trkpt>
      <trkpt lat="45.89499" lon="4.80753">
        <ele>170</ele>
        <time>2024-05-20T13:16:56.000Z</time>
      </trkpt>
      <trkpt lat="45.89494" lon="4.80757">
        <ele>169.80000305176</ele>
        <time>2024-05-20T13:16:57.000Z</time>
      </trkpt>
      <trkpt lat="45.89489" lon="4.8076">
        <ele>169.80000305176</ele>
        <time>2024-05-20T13:16:58.000Z</time>
      </trkpt>
      <trkpt lat="45.89483" lon="4.80764">
        <ele>169.80000305176</ele>
        <time>2024-05-20T13:16:59.000Z</time>
      </trkpt>
      <trkpt lat="45.89478" lon="4.80767">
        <ele>169.80000305176</ele>
        <time>2024-05-20T13:17:00.000Z</time>
      </trkpt>
      <trkpt lat="45.89473" lon="4.8077">
        <ele>169.60000610352</ele>
        <time>2024-05-20T13:17:01.000Z</time>
      </trkpt>
      <trkpt lat="45.89467" lon="4.80774">
        <ele>169.60000610352</ele>
        <time>2024-05-20T13:17:02.000Z</time>
      </trkpt>
      <trkpt lat="45.89462" lon="4.80776">
        <ele>169.19999694824</ele>
        <time>2024-05-20T13:17:03.000Z</time>
      </trkpt>
      <trkpt lat="45.89458" lon="4.8078">
        <ele>168.60000610352</ele>
        <time>2024-05-20T13:17:04.000Z</time>
      </trkpt>
      <trkpt lat="45.89453" lon="4.80783">
        <ele>168.39999389648</ele>
        <time>2024-05-20T13:17:05.000Z</time>
      </trkpt>
      <trkpt lat="45.89448" lon="4.80785">
        <ele>168.39999389648</ele>
        <time>2024-05-20T13:17:06.000Z</time>
      </trkpt>
      <trkpt lat="45.89443" lon="4.80789">
        <ele>168.39999389648</ele>
        <time>2024-05-20T13:17:07.000Z</time>
      </trkpt>
      <trkpt lat="45.89438" lon="4.80792">
        <ele>168.39999389648</ele>
        <time>2024-05-20T13:17:08.000Z</time>
      </trkpt>
      <trkpt lat="45.89434" lon="4.80795">
        <ele>168.39999389648</ele>
        <time>2024-05-20T13:17:09.000Z</time>
      </trkpt>
      <trkpt lat="45.8943" lon="4.80798">
        <ele>168.39999389648</ele>
        <time>2024-05-20T13:17:10.000Z</time>
      </trkpt>
      <trkpt lat="45.89425" lon="4.808">
        <ele>168.39999389648</ele>
        <time>2024-05-20T13:17:11.000Z</time>
      </trkpt>
      <trkpt lat="45.89421" lon="4.80803">
        <ele>168.39999389648</ele>
        <time>2024-05-20T13:17:12.000Z</time>
      </trkpt>
      <trkpt lat="45.89416" lon="4.80806">
        <ele>168.39999389648</ele>
        <time>2024-05-20T13:17:13.000Z</time>
      </trkpt>
      <trkpt lat="45.89412" lon="4.80808">
        <ele>168.39999389648</ele>
        <time>2024-05-20T13:17:14.000Z</time>
      </trkpt>
      <trkpt lat="45.89407" lon="4.80811">
        <ele>168.39999389648</ele>
        <time>2024-05-20T13:17:15.000Z</time>
      </trkpt>
      <trkpt lat="45.89403" lon="4.80814">
        <ele>168.39999389648</ele>
        <time>2024-05-20T13:17:16.000Z</time>
      </trkpt>
      <trkpt lat="45.89398" lon="4.80816">
        <ele>168.19999694824</ele>
        <time>2024-05-20T13:17:17.000Z</time>
      </trkpt>
      <trkpt lat="45.89394" lon="4.80819">
        <ele>168.19999694824</ele>
        <time>2024-05-20T13:17:18.000Z</time>
      </trkpt>
      <trkpt lat="45.89389" lon="4.80822">
        <ele>168.19999694824</ele>
        <time>2024-05-20T13:17:19.000Z</time>
      </trkpt>
      <trkpt lat="45.89385" lon="4.80824">
        <ele>168.19999694824</ele>
        <time>2024-05-20T13:17:20.000Z</time>
      </trkpt>
      <trkpt lat="45.8938" lon="4.80827">
        <ele>168.19999694824</ele>
        <time>2024-05-20T13:17:21.000Z</time>
      </trkpt>
      <trkpt lat="45.89376" lon="4.80829">
        <ele>168.19999694824</ele>
        <time>2024-05-20T13:17:22.000Z</time>
      </trkpt>
      <trkpt lat="45.89372" lon="4.80832">
        <ele>168.39999389648</ele>
        <time>2024-05-20T13:17:23.000Z</time>
      </trkpt>
      <trkpt lat="45.89367" lon="4.80834">
        <ele>168.39999389648</ele>
        <time>2024-05-20T13:17:24.000Z</time>
      </trkpt>
      <trkpt lat="45.89362" lon="4.80837">
        <ele>168.39999389648</ele>
        <time>2024-05-20T13:17:25.000Z</time>
      </trkpt>
      <trkpt lat="45.89358" lon="4.80839">
        <ele>168.39999389648</ele>
        <time>2024-05-20T13:17:26.000Z</time>
      </trkpt>
      <trkpt lat="45.89353" lon="4.80841">
        <ele>168.39999389648</ele>
        <time>2024-05-20T13:17:27.000Z</time>
      </trkpt>
      <trkpt lat="45.89349" lon="4.80844">
        <ele>168.39999389648</ele>
        <time>2024-05-20T13:17:28.000Z</time>
      </trkpt>
      <trkpt lat="45.89344" lon="4.80847">
        <ele>168.39999389648</ele>
        <time>2024-05-20T13:17:29.000Z</time>
      </trkpt>
      <trkpt lat="45.8934" lon="4.8085">
        <ele>168.39999389648</ele>
        <time>2024-05-20T13:17:30.000Z</time>
      </trkpt>
      <trkpt lat="45.89335" lon="4.80852">
        <ele>168.39999389648</ele>
        <time>2024-05-20T13:17:31.000Z</time>
      </trkpt>
      <trkpt lat="45.89331" lon="4.80855">
        <ele>168.39999389648</ele>
        <time>2024-05-20T13:17:32.000Z</time>
      </trkpt>
      <trkpt lat="45.89326" lon="4.80857">
        <ele>168.39999389648</ele>
        <time>2024-05-20T13:17:33.000Z</time>
      </trkpt>
      <trkpt lat="45.89322" lon="4.8086">
        <ele>168.19999694824</ele>
        <time>2024-05-20T13:17:34.000Z</time>
      </trkpt>
      <trkpt lat="45.89317" lon="4.80863">
        <ele>168.19999694824</ele>
        <time>2024-05-20T13:17:35.000Z</time>
      </trkpt>
      <trkpt lat="45.89312" lon="4.80866">
        <ele>168.39999389648</ele>
        <time>2024-05-20T13:17:36.000Z</time>
      </trkpt>
      <trkpt lat="45.89308" lon="4.80868">
        <ele>168.39999389648</ele>
        <time>2024-05-20T13:17:37.000Z</time>
      </trkpt>
      <trkpt lat="45.89303" lon="4.80871">
        <ele>168.39999389648</ele>
        <time>2024-05-20T13:17:38.000Z</time>
      </trkpt>
      <trkpt lat="45.89298" lon="4.80874">
        <ele>168.60000610352</ele>
        <time>2024-05-20T13:17:39.000Z</time>
      </trkpt>
      <trkpt lat="45.89294" lon="4.80877">
        <ele>168.60000610352</ele>
        <time>2024-05-20T13:17:40.000Z</time>
      </trkpt>
      <trkpt lat="45.89289" lon="4.8088">
        <ele>168.60000610352</ele>
        <time>2024-05-20T13:17:41.000Z</time>
      </trkpt>
      <trkpt lat="45.89284" lon="4.80882">
        <ele>168.60000610352</ele>
        <time>2024-05-20T13:17:42.000Z</time>
      </trkpt>
      <trkpt lat="45.89279" lon="4.80885">
        <ele>168.60000610352</ele>
        <time>2024-05-20T13:17:43.000Z</time>
      </trkpt>
      <trkpt lat="45.89275" lon="4.80888">
        <ele>168.80000305176</ele>
        <time>2024-05-20T13:17:44.000Z</time>
      </trkpt>
      <trkpt lat="45.89271" lon="4.80892">
        <ele>168.80000305176</ele>
        <time>2024-05-20T13:17:45.000Z</time>
      </trkpt>
      <trkpt lat="45.89266" lon="4.80895">
        <ele>168.80000305176</ele>
        <time>2024-05-20T13:17:46.000Z</time>
      </trkpt>
      <trkpt lat="45.89262" lon="4.80898">
        <ele>168.80000305176</ele>
        <time>2024-05-20T13:17:47.000Z</time>
      </trkpt>
      <trkpt lat="45.89257" lon="4.80901">
        <ele>169</ele>
        <time>2024-05-20T13:17:48.000Z</time>
      </trkpt>
      <trkpt lat="45.89253" lon="4.80904">
        <ele>169</ele>
        <time>2024-05-20T13:17:49.000Z</time>
      </trkpt>
      <trkpt lat="45.89249" lon="4.80907">
        <ele>169</ele>
        <time>2024-05-20T13:17:50.000Z</time>
      </trkpt>
      <trkpt lat="45.89245" lon="4.8091">
        <ele>169.19999694824</ele>
        <time>2024-05-20T13:17:51.000Z</time>
      </trkpt>
      <trkpt lat="45.89241" lon="4.80914">
        <ele>169.19999694824</ele>
        <time>2024-05-20T13:17:52.000Z</time>
      </trkpt>
      <trkpt lat="45.89239" lon="4.80919">
        <ele>169.19999694824</ele>
        <time>2024-05-20T13:17:53.000Z</time>
      </trkpt>
      <trkpt lat="45.89237" lon="4.80924">
        <ele>169.39999389648</ele>
        <time>2024-05-20T13:17:54.000Z</time>
      </trkpt>
      <trkpt lat="45.89235" lon="4.80928">
        <ele>169.39999389648</ele>
        <time>2024-05-20T13:17:55.000Z</time>
      </trkpt>
      <trkpt lat="45.89232" lon="4.80932">
        <ele>169.60000610352</ele>
        <time>2024-05-20T13:17:56.000Z</time>
      </trkpt>
      <trkpt lat="45.89229" lon="4.80935">
        <ele>169.60000610352</ele>
        <time>2024-05-20T13:17:57.000Z</time>
      </trkpt>
      <trkpt lat="45.89225" lon="4.80937">
        <ele>169.60000610352</ele>
        <time>2024-05-20T13:17:58.000Z</time>
      </trkpt>
      <trkpt lat="45.89221" lon="4.80938">
        <ele>169.80000305176</ele>
        <time>2024-05-20T13:17:59.000Z</time>
      </trkpt>
      <trkpt lat="45.89217" lon="4.8094">
        <ele>170</ele>
        <time>2024-05-20T13:18:00.000Z</time>
      </trkpt>
      <trkpt lat="45.89213" lon="4.80942">
        <ele>170.39999389648</ele>
        <time>2024-05-20T13:18:01.000Z</time>
      </trkpt>
      <trkpt lat="45.89208" lon="4.80944">
        <ele>170.39999389648</ele>
        <time>2024-05-20T13:18:02.000Z</time>
      </trkpt>
      <trkpt lat="45.89204" lon="4.80947">
        <ele>170.39999389648</ele>
        <time>2024-05-20T13:18:03.000Z</time>
      </trkpt>
      <trkpt lat="45.89199" lon="4.80949">
        <ele>170.39999389648</ele>
        <time>2024-05-20T13:18:04.000Z</time>
      </trkpt>
      <trkpt lat="45.89194" lon="4.80953">
        <ele>170.39999389648</ele>
        <time>2024-05-20T13:18:05.000Z</time>
      </trkpt>
      <trkpt lat="45.8919" lon="4.80956">
        <ele>170.39999389648</ele>
        <time>2024-05-20T13:18:06.000Z</time>
      </trkpt>
      <trkpt lat="45.89185" lon="4.80959">
        <ele>170.60000610352</ele>
        <time>2024-05-20T13:18:07.000Z</time>
      </trkpt>
      <trkpt lat="45.89181" lon="4.80963">
        <ele>170.60000610352</ele>
        <time>2024-05-20T13:18:08.000Z</time>
      </trkpt>
      <trkpt lat="45.89176" lon="4.80967">
        <ele>170.60000610352</ele>
        <time>2024-05-20T13:18:09.000Z</time>
      </trkpt>
      <trkpt lat="45.89171" lon="4.8097">
        <ele>170.60000610352</ele>
        <time>2024-05-20T13:18:10.000Z</time>
      </trkpt>
      <trkpt lat="45.89166" lon="4.80974">
        <ele>170.60000610352</ele>
        <time>2024-05-20T13:18:11.000Z</time>
      </trkpt>
      <trkpt lat="45.8916" lon="4.80978">
        <ele>170.80000305176</ele>
        <time>2024-05-20T13:18:12.000Z</time>
      </trkpt>
      <trkpt lat="45.89155" lon="4.80982">
        <ele>171</ele>
        <time>2024-05-20T13:18:13.000Z</time>
      </trkpt>
      <trkpt lat="45.8915" lon="4.80985">
        <ele>171.19999694824</ele>
        <time>2024-05-20T13:18:14.000Z</time>
      </trkpt>
      <trkpt lat="45.89145" lon="4.80989">
        <ele>171.19999694824</ele>
        <time>2024-05-20T13:18:15.000Z</time>
      </trkpt>
      <trkpt lat="45.8914" lon="4.80993">
        <ele>171.19999694824</ele>
        <time>2024-05-20T13:18:16.000Z</time>
      </trkpt>
      <trkpt lat="45.89134" lon="4.80996">
        <ele>171.19999694824</ele>
        <time>2024-05-20T13:18:17.000Z</time>
      </trkpt>
      <trkpt lat="45.89129" lon="4.81001">
        <ele>171.19999694824</ele>
        <time>2024-05-20T13:18:18.000Z</time>
      </trkpt>
      <trkpt lat="45.89124" lon="4.81005">
        <ele>171.19999694824</ele>
        <time>2024-05-20T13:18:19.000Z</time>
      </trkpt>
      <trkpt lat="45.89119" lon="4.81009">
        <ele>171.19999694824</ele>
        <time>2024-05-20T13:18:20.000Z</time>
      </trkpt>
      <trkpt lat="45.89114" lon="4.81013">
        <ele>171.19999694824</ele>
        <time>2024-05-20T13:18:21.000Z</time>
      </trkpt>
      <trkpt lat="45.89108" lon="4.81017">
        <ele>171.39999389648</ele>
        <time>2024-05-20T13:18:22.000Z</time>
      </trkpt>
      <trkpt lat="45.89102" lon="4.81021">
        <ele>171.39999389648</ele>
        <time>2024-05-20T13:18:23.000Z</time>
      </trkpt>
      <trkpt lat="45.89097" lon="4.81025">
        <ele>171.39999389648</ele>
        <time>2024-05-20T13:18:24.000Z</time>
      </trkpt>
      <trkpt lat="45.89091" lon="4.81029">
        <ele>171.39999389648</ele>
        <time>2024-05-20T13:18:25.000Z</time>
      </trkpt>
      <trkpt lat="45.89085" lon="4.81032">
        <ele>171.39999389648</ele>
        <time>2024-05-20T13:18:26.000Z</time>
      </trkpt>
      <trkpt lat="45.89079" lon="4.81036">
        <ele>171.39999389648</ele>
        <time>2024-05-20T13:18:27.000Z</time>
      </trkpt>
      <trkpt lat="45.89073" lon="4.8104">
        <ele>171.39999389648</ele>
        <time>2024-05-20T13:18:28.000Z</time>
      </trkpt>
      <trkpt lat="45.89067" lon="4.81044">
        <ele>171.19999694824</ele>
        <time>2024-05-20T13:18:29.000Z</time>
      </trkpt>
      <trkpt lat="45.89062" lon="4.81048">
        <ele>171.19999694824</ele>
        <time>2024-05-20T13:18:30.000Z</time>
      </trkpt>
      <trkpt lat="45.89056" lon="4.81053">
        <ele>171.19999694824</ele>
        <time>2024-05-20T13:18:31.000Z</time>
      </trkpt>
      <trkpt lat="45.89051" lon="4.81058">
        <ele>171.19999694824</ele>
        <time>2024-05-20T13:18:32.000Z</time>
      </trkpt>
      <trkpt lat="45.89046" lon="4.81062">
        <ele>171.19999694824</ele>
        <time>2024-05-20T13:18:33.000Z</time>
      </trkpt>
      <trkpt lat="45.8904" lon="4.81066">
        <ele>171.19999694824</ele>
        <time>2024-05-20T13:18:34.000Z</time>
      </trkpt>
      <trkpt lat="45.89034" lon="4.8107">
        <ele>171.19999694824</ele>
        <time>2024-05-20T13:18:35.000Z</time>
      </trkpt>
      <trkpt lat="45.89028" lon="4.81074">
        <ele>171.39999389648</ele>
        <time>2024-05-20T13:18:36.000Z</time>
      </trkpt>
      <trkpt lat="45.89023" lon="4.81078">
        <ele>171.39999389648</ele>
        <time>2024-05-20T13:18:37.000Z</time>
      </trkpt>
      <trkpt lat="45.89017" lon="4.81082">
        <ele>171.39999389648</ele>
        <time>2024-05-20T13:18:38.000Z</time>
      </trkpt>
      <trkpt lat="45.89011" lon="4.81086">
        <ele>171.39999389648</ele>
        <time>2024-05-20T13:18:39.000Z</time>
      </trkpt>
      <trkpt lat="45.89005" lon="4.8109">
        <ele>171.39999389648</ele>
        <time>2024-05-20T13:18:40.000Z</time>
      </trkpt>
      <trkpt lat="45.88999" lon="4.81094">
        <ele>171.39999389648</ele>
        <time>2024-05-20T13:18:41.000Z</time>
      </trkpt>
      <trkpt lat="45.88994" lon="4.81098">
        <ele>171.39999389648</ele>
        <time>2024-05-20T13:18:42.000Z</time>
      </trkpt>
      <trkpt lat="45.88988" lon="4.81103">
        <ele>171.39999389648</ele>
        <time>2024-05-20T13:18:43.000Z</time>
      </trkpt>
      <trkpt lat="45.88982" lon="4.81107">
        <ele>171.39999389648</ele>
        <time>2024-05-20T13:18:44.000Z</time>
      </trkpt>
      <trkpt lat="45.88977" lon="4.81111">
        <ele>171.39999389648</ele>
        <time>2024-05-20T13:18:45.000Z</time>
      </trkpt>
      <trkpt lat="45.88971" lon="4.81115">
        <ele>171.39999389648</ele>
        <time>2024-05-20T13:18:46.000Z</time>
      </trkpt>
      <trkpt lat="45.88965" lon="4.81119">
        <ele>171.39999389648</ele>
        <time>2024-05-20T13:18:47.000Z</time>
      </trkpt>
      <trkpt lat="45.88959" lon="4.81123">
        <ele>171.39999389648</ele>
        <time>2024-05-20T13:18:48.000Z</time>
      </trkpt>
      <trkpt lat="45.88954" lon="4.81127">
        <ele>171.39999389648</ele>
        <time>2024-05-20T13:18:49.000Z</time>
      </trkpt>
      <trkpt lat="45.88948" lon="4.81131">
        <ele>171.39999389648</ele>
        <time>2024-05-20T13:18:50.000Z</time>
      </trkpt>
      <trkpt lat="45.88942" lon="4.81135">
        <ele>171.39999389648</ele>
        <time>2024-05-20T13:18:51.000Z</time>
      </trkpt>
      <trkpt lat="45.88936" lon="4.81139">
        <ele>171.39999389648</ele>
        <time>2024-05-20T13:18:52.000Z</time>
      </trkpt>
      <trkpt lat="45.8893" lon="4.81144">
        <ele>171.39999389648</ele>
        <time>2024-05-20T13:18:53.000Z</time>
      </trkpt>
      <trkpt lat="45.88924" lon="4.81148">
        <ele>171.39999389648</ele>
        <time>2024-05-20T13:18:54.000Z</time>
      </trkpt>
      <trkpt lat="45.88919" lon="4.81152">
        <ele>171.39999389648</ele>
        <time>2024-05-20T13:18:55.000Z</time>
      </trkpt>
      <trkpt lat="45.88913" lon="4.81156">
        <ele>171.39999389648</ele>
        <time>2024-05-20T13:18:56.000Z</time>
      </trkpt>
      <trkpt lat="45.88907" lon="4.81161">
        <ele>171.39999389648</ele>
        <time>2024-05-20T13:18:57.000Z</time>
      </trkpt>
      <trkpt lat="45.88901" lon="4.81165">
        <ele>171.39999389648</ele>
        <time>2024-05-20T13:18:58.000Z</time>
      </trkpt>
      <trkpt lat="45.88896" lon="4.81169">
        <ele>171.39999389648</ele>
        <time>2024-05-20T13:18:59.000Z</time>
      </trkpt>
      <trkpt lat="45.8889" lon="4.81174">
        <ele>171.60000610352</ele>
        <time>2024-05-20T13:19:00.000Z</time>
      </trkpt>
      <trkpt lat="45.88885" lon="4.81179">
        <ele>171.60000610352</ele>
        <time>2024-05-20T13:19:01.000Z</time>
      </trkpt>
      <trkpt lat="45.88879" lon="4.81183">
        <ele>171.60000610352</ele>
        <time>2024-05-20T13:19:02.000Z</time>
      </trkpt>
      <trkpt lat="45.88874" lon="4.81187">
        <ele>171.60000610352</ele>
        <time>2024-05-20T13:19:03.000Z</time>
      </trkpt>
      <trkpt lat="45.88868" lon="4.81191">
        <ele>171.60000610352</ele>
        <time>2024-05-20T13:19:04.000Z</time>
      </trkpt>
      <trkpt lat="45.88863" lon="4.81196">
        <ele>171.60000610352</ele>
        <time>2024-05-20T13:19:05.000Z</time>
      </trkpt>
      <trkpt lat="45.88857" lon="4.81201">
        <ele>171.60000610352</ele>
        <time>2024-05-20T13:19:06.000Z</time>
      </trkpt>
      <trkpt lat="45.88852" lon="4.81205">
        <ele>171.60000610352</ele>
        <time>2024-05-20T13:19:07.000Z</time>
      </trkpt>
      <trkpt lat="45.88846" lon="4.8121">
        <ele>171.60000610352</ele>
        <time>2024-05-20T13:19:08.000Z</time>
      </trkpt>
      <trkpt lat="45.88841" lon="4.81216">
        <ele>171.60000610352</ele>
        <time>2024-05-20T13:19:09.000Z</time>
      </trkpt>
      <trkpt lat="45.88836" lon="4.81221">
        <ele>171.60000610352</ele>
        <time>2024-05-20T13:19:10.000Z</time>
      </trkpt>
      <trkpt lat="45.8883" lon="4.81226">
        <ele>171.60000610352</ele>
        <time>2024-05-20T13:19:11.000Z</time>
      </trkpt>
      <trkpt lat="45.88825" lon="4.81231">
        <ele>171.39999389648</ele>
        <time>2024-05-20T13:19:12.000Z</time>
      </trkpt>
      <trkpt lat="45.8882" lon="4.81236">
        <ele>171.39999389648</ele>
        <time>2024-05-20T13:19:13.000Z</time>
      </trkpt>
      <trkpt lat="45.88815" lon="4.81242">
        <ele>171.39999389648</ele>
        <time>2024-05-20T13:19:14.000Z</time>
      </trkpt>
      <trkpt lat="45.8881" lon="4.81248">
        <ele>171.39999389648</ele>
        <time>2024-05-20T13:19:15.000Z</time>
      </trkpt>
      <trkpt lat="45.88804" lon="4.81253">
        <ele>171.39999389648</ele>
        <time>2024-05-20T13:19:16.000Z</time>
      </trkpt>
      <trkpt lat="45.88799" lon="4.81259">
        <ele>171.60000610352</ele>
        <time>2024-05-20T13:19:17.000Z</time>
      </trkpt>
      <trkpt lat="45.88794" lon="4.81265">
        <ele>171.39999389648</ele>
        <time>2024-05-20T13:19:18.000Z</time>
      </trkpt>
      <trkpt lat="45.88789" lon="4.81271">
        <ele>171.39999389648</ele>
        <time>2024-05-20T13:19:19.000Z</time>
      </trkpt>
      <trkpt lat="45.88783" lon="4.81277">
        <ele>171.39999389648</ele>
        <time>2024-05-20T13:19:20.000Z</time>
      </trkpt>
      <trkpt lat="45.88778" lon="4.81283">
        <ele>171.19999694824</ele>
        <time>2024-05-20T13:19:21.000Z</time>
      </trkpt>
      <trkpt lat="45.88773" lon="4.81289">
        <ele>171</ele>
        <time>2024-05-20T13:19:22.000Z</time>
      </trkpt>
      <trkpt lat="45.88767" lon="4.81295">
        <ele>171</ele>
        <time>2024-05-20T13:19:23.000Z</time>
      </trkpt>
      <trkpt lat="45.88762" lon="4.81301">
        <ele>171</ele>
        <time>2024-05-20T13:19:24.000Z</time>
      </trkpt>
      <trkpt lat="45.88758" lon="4.81307">
        <ele>171</ele>
        <time>2024-05-20T13:19:25.000Z</time>
      </trkpt>
      <trkpt lat="45.88753" lon="4.81313">
        <ele>171</ele>
        <time>2024-05-20T13:19:26.000Z</time>
      </trkpt>
      <trkpt lat="45.88747" lon="4.8132">
        <ele>171.39999389648</ele>
        <time>2024-05-20T13:19:27.000Z</time>
      </trkpt>
      <trkpt lat="45.88743" lon="4.81327">
        <ele>171.39999389648</ele>
        <time>2024-05-20T13:19:28.000Z</time>
      </trkpt>
      <trkpt lat="45.88738" lon="4.81334">
        <ele>171.39999389648</ele>
        <time>2024-05-20T13:19:29.000Z</time>
      </trkpt>
      <trkpt lat="45.88732" lon="4.81341">
        <ele>171.39999389648</ele>
        <time>2024-05-20T13:19:30.000Z</time>
      </trkpt>
      <trkpt lat="45.88727" lon="4.81348">
        <ele>171.19999694824</ele>
        <time>2024-05-20T13:19:31.000Z</time>
      </trkpt>
      <trkpt lat="45.88722" lon="4.81354">
        <ele>171.19999694824</ele>
        <time>2024-05-20T13:19:32.000Z</time>
      </trkpt>
      <trkpt lat="45.88717" lon="4.81361">
        <ele>171.19999694824</ele>
        <time>2024-05-20T13:19:33.000Z</time>
      </trkpt>
      <trkpt lat="45.88712" lon="4.81368">
        <ele>171.19999694824</ele>
        <time>2024-05-20T13:19:34.000Z</time>
      </trkpt>
      <trkpt lat="45.88707" lon="4.81374">
        <ele>171</ele>
        <time>2024-05-20T13:19:35.000Z</time>
      </trkpt>
      <trkpt lat="45.88702" lon="4.8138">
        <ele>171.19999694824</ele>
        <time>2024-05-20T13:19:36.000Z</time>
      </trkpt>
      <trkpt lat="45.88697" lon="4.81387">
        <ele>171.19999694824</ele>
        <time>2024-05-20T13:19:37.000Z</time>
      </trkpt>
      <trkpt lat="45.88692" lon="4.81394">
        <ele>171.19999694824</ele>
        <time>2024-05-20T13:19:38.000Z</time>
      </trkpt>
      <trkpt lat="45.88687" lon="4.814">
        <ele>171.19999694824</ele>
        <time>2024-05-20T13:19:39.000Z</time>
      </trkpt>
      <trkpt lat="45.88682" lon="4.81406">
        <ele>171.39999389648</ele>
        <time>2024-05-20T13:19:40.000Z</time>
      </trkpt>
      <trkpt lat="45.88677" lon="4.81413">
        <ele>171.39999389648</ele>
        <time>2024-05-20T13:19:41.000Z</time>
      </trkpt>
      <trkpt lat="45.88672" lon="4.8142">
        <ele>171.39999389648</ele>
        <time>2024-05-20T13:19:42.000Z</time>
      </trkpt>
      <trkpt lat="45.88667" lon="4.81426">
        <ele>171.39999389648</ele>
        <time>2024-05-20T13:19:43.000Z</time>
      </trkpt>
      <trkpt lat="45.88662" lon="4.81433">
        <ele>171.39999389648</ele>
        <time>2024-05-20T13:19:44.000Z</time>
      </trkpt>
      <trkpt lat="45.88656" lon="4.8144">
        <ele>171.39999389648</ele>
        <time>2024-05-20T13:19:45.000Z</time>
      </trkpt>
      <trkpt lat="45.88651" lon="4.81447">
        <ele>171.39999389648</ele>
        <time>2024-05-20T13:19:46.000Z</time>
      </trkpt>
      <trkpt lat="45.88646" lon="4.81453">
        <ele>171.39999389648</ele>
        <time>2024-05-20T13:19:47.000Z</time>
      </trkpt>
      <trkpt lat="45.8864" lon="4.81459">
        <ele>171.39999389648</ele>
        <time>2024-05-20T13:19:48.000Z</time>
      </trkpt>
      <trkpt lat="45.88635" lon="4.81466">
        <ele>171.39999389648</ele>
        <time>2024-05-20T13:19:49.000Z</time>
      </trkpt>
      <trkpt lat="45.88629" lon="4.81473">
        <ele>171.39999389648</ele>
        <time>2024-05-20T13:19:50.000Z</time>
      </trkpt>
      <trkpt lat="45.88624" lon="4.8148">
        <ele>171.39999389648</ele>
        <time>2024-05-20T13:19:51.000Z</time>
      </trkpt>
      <trkpt lat="45.88619" lon="4.81487">
        <ele>171.39999389648</ele>
        <time>2024-05-20T13:19:52.000Z</time>
      </trkpt>
      <trkpt lat="45.88614" lon="4.81493">
        <ele>171.60000610352</ele>
        <time>2024-05-20T13:19:53.000Z</time>
      </trkpt>
      <trkpt lat="45.88608" lon="4.815">
        <ele>171.60000610352</ele>
        <time>2024-05-20T13:19:54.000Z</time>
      </trkpt>
      <trkpt lat="45.88603" lon="4.81507">
        <ele>171.60000610352</ele>
        <time>2024-05-20T13:19:55.000Z</time>
      </trkpt>
      <trkpt lat="45.88598" lon="4.81514">
        <ele>171.60000610352</ele>
        <time>2024-05-20T13:19:56.000Z</time>
      </trkpt>
      <trkpt lat="45.88593" lon="4.8152">
        <ele>171.60000610352</ele>
        <time>2024-05-20T13:19:57.000Z</time>
      </trkpt>
      <trkpt lat="45.88587" lon="4.81528">
        <ele>171.80000305176</ele>
        <time>2024-05-20T13:19:58.000Z</time>
      </trkpt>
      <trkpt lat="45.88582" lon="4.81534">
        <ele>171.80000305176</ele>
        <time>2024-05-20T13:19:59.000Z</time>
      </trkpt>
      <trkpt lat="45.88577" lon="4.81541">
        <ele>171.80000305176</ele>
        <time>2024-05-20T13:20:00.000Z</time>
      </trkpt>
      <trkpt lat="45.88572" lon="4.81548">
        <ele>171.80000305176</ele>
        <time>2024-05-20T13:20:01.000Z</time>
      </trkpt>
      <trkpt lat="45.88567" lon="4.81554">
        <ele>171.19999694824</ele>
        <time>2024-05-20T13:20:02.000Z</time>
      </trkpt>
      <trkpt lat="45.88561" lon="4.81561">
        <ele>171</ele>
        <time>2024-05-20T13:20:03.000Z</time>
      </trkpt>
      <trkpt lat="45.88556" lon="4.81567">
        <ele>170.80000305176</ele>
        <time>2024-05-20T13:20:04.000Z</time>
      </trkpt>
      <trkpt lat="45.88551" lon="4.81574">
        <ele>170.80000305176</ele>
        <time>2024-05-20T13:20:05.000Z</time>
      </trkpt>
      <trkpt lat="45.88546" lon="4.81581">
        <ele>170.80000305176</ele>
        <time>2024-05-20T13:20:06.000Z</time>
      </trkpt>
      <trkpt lat="45.88541" lon="4.81587">
        <ele>170.80000305176</ele>
        <time>2024-05-20T13:20:07.000Z</time>
      </trkpt>
      <trkpt lat="45.88535" lon="4.81594">
        <ele>171</ele>
        <time>2024-05-20T13:20:08.000Z</time>
      </trkpt>
      <trkpt lat="45.8853" lon="4.816">
        <ele>171.19999694824</ele>
        <time>2024-05-20T13:20:09.000Z</time>
      </trkpt>
      <trkpt lat="45.88525" lon="4.81607">
        <ele>171.19999694824</ele>
        <time>2024-05-20T13:20:10.000Z</time>
      </trkpt>
      <trkpt lat="45.88519" lon="4.81613">
        <ele>171.39999389648</ele>
        <time>2024-05-20T13:20:11.000Z</time>
      </trkpt>
      <trkpt lat="45.88514" lon="4.8162">
        <ele>171.39999389648</ele>
        <time>2024-05-20T13:20:12.000Z</time>
      </trkpt>
      <trkpt lat="45.88509" lon="4.81627">
        <ele>171.60000610352</ele>
        <time>2024-05-20T13:20:13.000Z</time>
      </trkpt>
      <trkpt lat="45.88504" lon="4.81634">
        <ele>171.60000610352</ele>
        <time>2024-05-20T13:20:14.000Z</time>
      </trkpt>
      <trkpt lat="45.88499" lon="4.81641">
        <ele>171.60000610352</ele>
        <time>2024-05-20T13:20:15.000Z</time>
      </trkpt>
      <trkpt lat="45.88493" lon="4.81648">
        <ele>171.60000610352</ele>
        <time>2024-05-20T13:20:16.000Z</time>
      </trkpt>
      <trkpt lat="45.88488" lon="4.81655">
        <ele>171.60000610352</ele>
        <time>2024-05-20T13:20:17.000Z</time>
      </trkpt>
      <trkpt lat="45.88483" lon="4.81661">
        <ele>171.60000610352</ele>
        <time>2024-05-20T13:20:18.000Z</time>
      </trkpt>
      <trkpt lat="45.88477" lon="4.81667">
        <ele>171.60000610352</ele>
        <time>2024-05-20T13:20:19.000Z</time>
      </trkpt>
      <trkpt lat="45.88471" lon="4.81673">
        <ele>171.39999389648</ele>
        <time>2024-05-20T13:20:20.000Z</time>
      </trkpt>
      <trkpt lat="45.88466" lon="4.81679">
        <ele>171.39999389648</ele>
        <time>2024-05-20T13:20:21.000Z</time>
      </trkpt>
      <trkpt lat="45.8846" lon="4.81686">
        <ele>171.19999694824</ele>
        <time>2024-05-20T13:20:22.000Z</time>
      </trkpt>
      <trkpt lat="45.88455" lon="4.81693">
        <ele>171.19999694824</ele>
        <time>2024-05-20T13:20:23.000Z</time>
      </trkpt>
      <trkpt lat="45.8845" lon="4.81699">
        <ele>171.19999694824</ele>
        <time>2024-05-20T13:20:24.000Z</time>
      </trkpt>
      <trkpt lat="45.88445" lon="4.81707">
        <ele>171.19999694824</ele>
        <time>2024-05-20T13:20:25.000Z</time>
      </trkpt>
      <trkpt lat="45.88441" lon="4.81714">
        <ele>171.19999694824</ele>
        <time>2024-05-20T13:20:26.000Z</time>
      </trkpt>
      <trkpt lat="45.88436" lon="4.81721">
        <ele>171</ele>
        <time>2024-05-20T13:20:27.000Z</time>
      </trkpt>
      <trkpt lat="45.88432" lon="4.81727">
        <ele>171.19999694824</ele>
        <time>2024-05-20T13:20:28.000Z</time>
      </trkpt>
      <trkpt lat="45.88428" lon="4.81734">
        <ele>171</ele>
        <time>2024-05-20T13:20:29.000Z</time>
      </trkpt>
      <trkpt lat="45.88424" lon="4.81741">
        <ele>171.19999694824</ele>
        <time>2024-05-20T13:20:30.000Z</time>
      </trkpt>
      <trkpt lat="45.8842" lon="4.81748">
        <ele>171.19999694824</ele>
        <time>2024-05-20T13:20:31.000Z</time>
      </trkpt>
      <trkpt lat="45.88416" lon="4.81754">
        <ele>171.19999694824</ele>
        <time>2024-05-20T13:20:32.000Z</time>
      </trkpt>
      <trkpt lat="45.88412" lon="4.81761">
        <ele>171.19999694824</ele>
        <time>2024-05-20T13:20:33.000Z</time>
      </trkpt>
      <trkpt lat="45.88408" lon="4.81768">
        <ele>171.19999694824</ele>
        <time>2024-05-20T13:20:34.000Z</time>
      </trkpt>
      <trkpt lat="45.88404" lon="4.81775">
        <ele>171</ele>
        <time>2024-05-20T13:20:35.000Z</time>
      </trkpt>
      <trkpt lat="45.884" lon="4.81783">
        <ele>171</ele>
        <time>2024-05-20T13:20:36.000Z</time>
      </trkpt>
      <trkpt lat="45.88397" lon="4.8179">
        <ele>170.80000305176</ele>
        <time>2024-05-20T13:20:37.000Z</time>
      </trkpt>
      <trkpt lat="45.88393" lon="4.81797">
        <ele>170.80000305176</ele>
        <time>2024-05-20T13:20:38.000Z</time>
      </trkpt>
      <trkpt lat="45.88389" lon="4.81804">
        <ele>170.80000305176</ele>
        <time>2024-05-20T13:20:39.000Z</time>
      </trkpt>
      <trkpt lat="45.88385" lon="4.81812">
        <ele>170.80000305176</ele>
        <time>2024-05-20T13:20:40.000Z</time>
      </trkpt>
      <trkpt lat="45.88382" lon="4.8182">
        <ele>170.60000610352</ele>
        <time>2024-05-20T13:20:41.000Z</time>
      </trkpt>
      <trkpt lat="45.88378" lon="4.81827">
        <ele>170.80000305176</ele>
        <time>2024-05-20T13:20:42.000Z</time>
      </trkpt>
      <trkpt lat="45.88374" lon="4.81835">
        <ele>170.80000305176</ele>
        <time>2024-05-20T13:20:43.000Z</time>
      </trkpt>
      <trkpt lat="45.88371" lon="4.81842">
        <ele>170.80000305176</ele>
        <time>2024-05-20T13:20:44.000Z</time>
      </trkpt>
      <trkpt lat="45.88367" lon="4.8185">
        <ele>170.80000305176</ele>
        <time>2024-05-20T13:20:45.000Z</time>
      </trkpt>
      <trkpt lat="45.88363" lon="4.81858">
        <ele>170.80000305176</ele>
        <time>2024-05-20T13:20:46.000Z</time>
      </trkpt>
      <trkpt lat="45.88359" lon="4.81866">
        <ele>170.80000305176</ele>
        <time>2024-05-20T13:20:47.000Z</time>
      </trkpt>
      <trkpt lat="45.88356" lon="4.81874">
        <ele>170.80000305176</ele>
        <time>2024-05-20T13:20:48.000Z</time>
      </trkpt>
      <trkpt lat="45.88352" lon="4.81881">
        <ele>171</ele>
        <time>2024-05-20T13:20:49.000Z</time>
      </trkpt>
      <trkpt lat="45.88349" lon="4.81889">
        <ele>171</ele>
        <time>2024-05-20T13:20:50.000Z</time>
      </trkpt>
      <trkpt lat="45.88345" lon="4.81897">
        <ele>171.19999694824</ele>
        <time>2024-05-20T13:20:51.000Z</time>
      </trkpt>
      <trkpt lat="45.88341" lon="4.81905">
        <ele>171.19999694824</ele>
        <time>2024-05-20T13:20:52.000Z</time>
      </trkpt>
      <trkpt lat="45.88338" lon="4.81912">
        <ele>171.19999694824</ele>
        <time>2024-05-20T13:20:53.000Z</time>
      </trkpt>
      <trkpt lat="45.88335" lon="4.8192">
        <ele>171.19999694824</ele>
        <time>2024-05-20T13:20:54.000Z</time>
      </trkpt>
      <trkpt lat="45.88331" lon="4.81928">
        <ele>171.19999694824</ele>
        <time>2024-05-20T13:20:55.000Z</time>
      </trkpt>
      <trkpt lat="45.88328" lon="4.81935">
        <ele>171.39999389648</ele>
        <time>2024-05-20T13:20:56.000Z</time>
      </trkpt>
      <trkpt lat="45.88325" lon="4.81943">
        <ele>171.39999389648</ele>
        <time>2024-05-20T13:20:57.000Z</time>
      </trkpt>
      <trkpt lat="45.88321" lon="4.8195">
        <ele>171.39999389648</ele>
        <time>2024-05-20T13:20:58.000Z</time>
      </trkpt>
      <trkpt lat="45.88318" lon="4.81958">
        <ele>171.39999389648</ele>
        <time>2024-05-20T13:20:59.000Z</time>
      </trkpt>
      <trkpt lat="45.88315" lon="4.81966">
        <ele>171.39999389648</ele>
        <time>2024-05-20T13:21:00.000Z</time>
      </trkpt>
      <trkpt lat="45.88312" lon="4.81974">
        <ele>171.39999389648</ele>
        <time>2024-05-20T13:21:01.000Z</time>
      </trkpt>
      <trkpt lat="45.88309" lon="4.81982">
        <ele>171.39999389648</ele>
        <time>2024-05-20T13:21:02.000Z</time>
      </trkpt>
      <trkpt lat="45.88306" lon="4.8199">
        <ele>171.39999389648</ele>
        <time>2024-05-20T13:21:03.000Z</time>
      </trkpt>
      <trkpt lat="45.88303" lon="4.81998">
        <ele>171.39999389648</ele>
        <time>2024-05-20T13:21:04.000Z</time>
      </trkpt>
      <trkpt lat="45.883" lon="4.82006">
        <ele>171.39999389648</ele>
        <time>2024-05-20T13:21:05.000Z</time>
      </trkpt>
      <trkpt lat="45.88296" lon="4.82014">
        <ele>171.39999389648</ele>
        <time>2024-05-20T13:21:06.000Z</time>
      </trkpt>
      <trkpt lat="45.88293" lon="4.82023">
        <ele>171.39999389648</ele>
        <time>2024-05-20T13:21:07.000Z</time>
      </trkpt>
      <trkpt lat="45.8829" lon="4.82031">
        <ele>171.19999694824</ele>
        <time>2024-05-20T13:21:08.000Z</time>
      </trkpt>
      <trkpt lat="45.88286" lon="4.8204">
        <ele>171.19999694824</ele>
        <time>2024-05-20T13:21:09.000Z</time>
      </trkpt>
      <trkpt lat="45.88283" lon="4.82048">
        <ele>171.19999694824</ele>
        <time>2024-05-20T13:21:10.000Z</time>
      </trkpt>
      <trkpt lat="45.8828" lon="4.82057">
        <ele>171</ele>
        <time>2024-05-20T13:21:11.000Z</time>
      </trkpt>
      <trkpt lat="45.88277" lon="4.82065">
        <ele>171</ele>
        <time>2024-05-20T13:21:12.000Z</time>
      </trkpt>
      <trkpt lat="45.88274" lon="4.82073">
        <ele>171</ele>
        <time>2024-05-20T13:21:13.000Z</time>
      </trkpt>
      <trkpt lat="45.88272" lon="4.82082">
        <ele>170.80000305176</ele>
        <time>2024-05-20T13:21:14.000Z</time>
      </trkpt>
      <trkpt lat="45.88269" lon="4.8209">
        <ele>170.80000305176</ele>
        <time>2024-05-20T13:21:15.000Z</time>
      </trkpt>
      <trkpt lat="45.88265" lon="4.82098">
        <ele>170.80000305176</ele>
        <time>2024-05-20T13:21:16.000Z</time>
      </trkpt>
      <trkpt lat="45.88262" lon="4.82106">
        <ele>170.80000305176</ele>
        <time>2024-05-20T13:21:17.000Z</time>
      </trkpt>
      <trkpt lat="45.88259" lon="4.82115">
        <ele>170.80000305176</ele>
        <time>2024-05-20T13:21:18.000Z</time>
      </trkpt>
      <trkpt lat="45.88257" lon="4.82123">
        <ele>170.80000305176</ele>
        <time>2024-05-20T13:21:19.000Z</time>
      </trkpt>
      <trkpt lat="45.88254" lon="4.82131">
        <ele>170.80000305176</ele>
        <time>2024-05-20T13:21:20.000Z</time>
      </trkpt>
      <trkpt lat="45.88251" lon="4.82139">
        <ele>170.80000305176</ele>
        <time>2024-05-20T13:21:21.000Z</time>
      </trkpt>
      <trkpt lat="45.88249" lon="4.82147">
        <ele>170.80000305176</ele>
        <time>2024-05-20T13:21:22.000Z</time>
      </trkpt>
      <trkpt lat="45.88245" lon="4.82154">
        <ele>170.80000305176</ele>
        <time>2024-05-20T13:21:23.000Z</time>
      </trkpt>
      <trkpt lat="45.88242" lon="4.82162">
        <ele>170.80000305176</ele>
        <time>2024-05-20T13:21:24.000Z</time>
      </trkpt>
      <trkpt lat="45.88238" lon="4.82169">
        <ele>170.80000305176</ele>
        <time>2024-05-20T13:21:25.000Z</time>
      </trkpt>
      <trkpt lat="45.88235" lon="4.82177">
        <ele>171.19999694824</ele>
        <time>2024-05-20T13:21:26.000Z</time>
      </trkpt>
      <trkpt lat="45.88233" lon="4.82185">
        <ele>171.39999389648</ele>
        <time>2024-05-20T13:21:27.000Z</time>
      </trkpt>
      <trkpt lat="45.8823" lon="4.82193">
        <ele>171.39999389648</ele>
        <time>2024-05-20T13:21:28.000Z</time>
      </trkpt>
      <trkpt lat="45.88228" lon="4.82202">
        <ele>171.60000610352</ele>
        <time>2024-05-20T13:21:29.000Z</time>
      </trkpt>
      <trkpt lat="45.88225" lon="4.8221">
        <ele>171.60000610352</ele>
        <time>2024-05-20T13:21:30.000Z</time>
      </trkpt>
      <trkpt lat="45.88223" lon="4.82218">
        <ele>171.60000610352</ele>
        <time>2024-05-20T13:21:31.000Z</time>
      </trkpt>
      <trkpt lat="45.88221" lon="4.82227">
        <ele>171.60000610352</ele>
        <time>2024-05-20T13:21:32.000Z</time>
      </trkpt>
      <trkpt lat="45.88219" lon="4.82235">
        <ele>171.60000610352</ele>
        <time>2024-05-20T13:21:33.000Z</time>
      </trkpt>
      <trkpt lat="45.88216" lon="4.82244">
        <ele>171.60000610352</ele>
        <time>2024-05-20T13:21:34.000Z</time>
      </trkpt>
      <trkpt lat="45.88214" lon="4.82253">
        <ele>171.60000610352</ele>
        <time>2024-05-20T13:21:35.000Z</time>
      </trkpt>
      <trkpt lat="45.88211" lon="4.82261">
        <ele>171.60000610352</ele>
        <time>2024-05-20T13:21:36.000Z</time>
      </trkpt>
      <trkpt lat="45.88209" lon="4.8227">
        <ele>171.60000610352</ele>
        <time>2024-05-20T13:21:37.000Z</time>
      </trkpt>
      <trkpt lat="45.88207" lon="4.82279">
        <ele>171.60000610352</ele>
        <time>2024-05-20T13:21:38.000Z</time>
      </trkpt>
      <trkpt lat="45.88204" lon="4.82288">
        <ele>171.39999389648</ele>
        <time>2024-05-20T13:21:39.000Z</time>
      </trkpt>
      <trkpt lat="45.88201" lon="4.82297">
        <ele>171.60000610352</ele>
        <time>2024-05-20T13:21:40.000Z</time>
      </trkpt>
      <trkpt lat="45.88198" lon="4.82305">
        <ele>171.60000610352</ele>
        <time>2024-05-20T13:21:41.000Z</time>
      </trkpt>
      <trkpt lat="45.88196" lon="4.82314">
        <ele>171.60000610352</ele>
        <time>2024-05-20T13:21:42.000Z</time>
      </trkpt>
      <trkpt lat="45.88193" lon="4.82323">
        <ele>171.39999389648</ele>
        <time>2024-05-20T13:21:43.000Z</time>
      </trkpt>
      <trkpt lat="45.88191" lon="4.82332">
        <ele>171.39999389648</ele>
        <time>2024-05-20T13:21:44.000Z</time>
      </trkpt>
      <trkpt lat="45.88189" lon="4.82341">
        <ele>171.39999389648</ele>
        <time>2024-05-20T13:21:45.000Z</time>
      </trkpt>
      <trkpt lat="45.88187" lon="4.8235">
        <ele>171.39999389648</ele>
        <time>2024-05-20T13:21:46.000Z</time>
      </trkpt>
      <trkpt lat="45.88184" lon="4.82359">
        <ele>171.39999389648</ele>
        <time>2024-05-20T13:21:47.000Z</time>
      </trkpt>
      <trkpt lat="45.88182" lon="4.82368">
        <ele>171.39999389648</ele>
        <time>2024-05-20T13:21:48.000Z</time>
      </trkpt>
      <trkpt lat="45.8818" lon="4.82377">
        <ele>171.39999389648</ele>
        <time>2024-05-20T13:21:49.000Z</time>
      </trkpt>
      <trkpt lat="45.88177" lon="4.82386">
        <ele>171.39999389648</ele>
        <time>2024-05-20T13:21:50.000Z</time>
      </trkpt>
      <trkpt lat="45.88175" lon="4.82395">
        <ele>171.39999389648</ele>
        <time>2024-05-20T13:21:51.000Z</time>
      </trkpt>
      <trkpt lat="45.88173" lon="4.82404">
        <ele>171.39999389648</ele>
        <time>2024-05-20T13:21:52.000Z</time>
      </trkpt>
      <trkpt lat="45.8817" lon="4.82413">
        <ele>171.60000610352</ele>
        <time>2024-05-20T13:21:53.000Z</time>
      </trkpt>
      <trkpt lat="45.88168" lon="4.82422">
        <ele>171.60000610352</ele>
        <time>2024-05-20T13:21:54.000Z</time>
      </trkpt>
      <trkpt lat="45.88166" lon="4.82432">
        <ele>171.60000610352</ele>
        <time>2024-05-20T13:21:55.000Z</time>
      </trkpt>
      <trkpt lat="45.88164" lon="4.82441">
        <ele>171.60000610352</ele>
        <time>2024-05-20T13:21:56.000Z</time>
      </trkpt>
      <trkpt lat="45.88162" lon="4.8245">
        <ele>171.60000610352</ele>
        <time>2024-05-20T13:21:57.000Z</time>
      </trkpt>
      <trkpt lat="45.88159" lon="4.82459">
        <ele>171.60000610352</ele>
        <time>2024-05-20T13:21:58.000Z</time>
      </trkpt>
      <trkpt lat="45.88157" lon="4.82468">
        <ele>171.60000610352</ele>
        <time>2024-05-20T13:21:59.000Z</time>
      </trkpt>
      <trkpt lat="45.88155" lon="4.82477">
        <ele>171.60000610352</ele>
        <time>2024-05-20T13:22:00.000Z</time>
      </trkpt>
      <trkpt lat="45.88153" lon="4.82486">
        <ele>171.60000610352</ele>
        <time>2024-05-20T13:22:01.000Z</time>
      </trkpt>
      <trkpt lat="45.88151" lon="4.82495">
        <ele>171.60000610352</ele>
        <time>2024-05-20T13:22:02.000Z</time>
      </trkpt>
      <trkpt lat="45.88148" lon="4.82504">
        <ele>171.60000610352</ele>
        <time>2024-05-20T13:22:03.000Z</time>
      </trkpt>
      <trkpt lat="45.88146" lon="4.82513">
        <ele>171.60000610352</ele>
        <time>2024-05-20T13:22:04.000Z</time>
      </trkpt>
      <trkpt lat="45.88143" lon="4.82522">
        <ele>171.60000610352</ele>
        <time>2024-05-20T13:22:05.000Z</time>
      </trkpt>
      <trkpt lat="45.8814" lon="4.82531">
        <ele>171.39999389648</ele>
        <time>2024-05-20T13:22:06.000Z</time>
      </trkpt>
      <trkpt lat="45.88138" lon="4.8254">
        <ele>171.39999389648</ele>
        <time>2024-05-20T13:22:07.000Z</time>
      </trkpt>
      <trkpt lat="45.88135" lon="4.82549">
        <ele>171.39999389648</ele>
        <time>2024-05-20T13:22:08.000Z</time>
      </trkpt>
      <trkpt lat="45.88133" lon="4.82558">
        <ele>171.60000610352</ele>
        <time>2024-05-20T13:22:09.000Z</time>
      </trkpt>
      <trkpt lat="45.88131" lon="4.82567">
        <ele>171.60000610352</ele>
        <time>2024-05-20T13:22:10.000Z</time>
      </trkpt>
      <trkpt lat="45.88129" lon="4.82577">
        <ele>171.60000610352</ele>
        <time>2024-05-20T13:22:11.000Z</time>
      </trkpt>
      <trkpt lat="45.88127" lon="4.82586">
        <ele>171.60000610352</ele>
        <time>2024-05-20T13:22:12.000Z</time>
      </trkpt>
      <trkpt lat="45.88126" lon="4.82596">
        <ele>171.39999389648</ele>
        <time>2024-05-20T13:22:13.000Z</time>
      </trkpt>
      <trkpt lat="45.88124" lon="4.82606">
        <ele>171.39999389648</ele>
        <time>2024-05-20T13:22:14.000Z</time>
      </trkpt>
      <trkpt lat="45.88121" lon="4.82614">
        <ele>171.39999389648</ele>
        <time>2024-05-20T13:22:15.000Z</time>
      </trkpt>
      <trkpt lat="45.88119" lon="4.82623">
        <ele>171.39999389648</ele>
        <time>2024-05-20T13:22:16.000Z</time>
      </trkpt>
      <trkpt lat="45.88116" lon="4.82631">
        <ele>171.39999389648</ele>
        <time>2024-05-20T13:22:17.000Z</time>
      </trkpt>
      <trkpt lat="45.88114" lon="4.8264">
        <ele>171.39999389648</ele>
        <time>2024-05-20T13:22:18.000Z</time>
      </trkpt>
      <trkpt lat="45.88111" lon="4.82648">
        <ele>171.39999389648</ele>
        <time>2024-05-20T13:22:19.000Z</time>
      </trkpt>
      <trkpt lat="45.88109" lon="4.82657">
        <ele>171.19999694824</ele>
        <time>2024-05-20T13:22:20.000Z</time>
      </trkpt>
      <trkpt lat="45.88108" lon="4.82665">
        <ele>171.19999694824</ele>
        <time>2024-05-20T13:22:21.000Z</time>
      </trkpt>
      <trkpt lat="45.88106" lon="4.82673">
        <ele>171.19999694824</ele>
        <time>2024-05-20T13:22:22.000Z</time>
      </trkpt>
      <trkpt lat="45.88105" lon="4.8268">
        <ele>171.19999694824</ele>
        <time>2024-05-20T13:22:23.000Z</time>
      </trkpt>
      <trkpt lat="45.88103" lon="4.82687">
        <ele>171.19999694824</ele>
        <time>2024-05-20T13:22:24.000Z</time>
      </trkpt>
      <trkpt lat="45.88102" lon="4.82694">
        <ele>171.19999694824</ele>
        <time>2024-05-20T13:22:25.000Z</time>
      </trkpt>
      <trkpt lat="45.881" lon="4.82701">
        <ele>171.19999694824</ele>
        <time>2024-05-20T13:22:26.000Z</time>
      </trkpt>
      <trkpt lat="45.88098" lon="4.82707">
        <ele>171.19999694824</ele>
        <time>2024-05-20T13:22:27.000Z</time>
      </trkpt>
      <trkpt lat="45.88096" lon="4.82714">
        <ele>171.39999389648</ele>
        <time>2024-05-20T13:22:28.000Z</time>
      </trkpt>
      <trkpt lat="45.88096" lon="4.8272">
        <ele>171.60000610352</ele>
        <time>2024-05-20T13:22:29.000Z</time>
      </trkpt>
      <trkpt lat="45.88094" lon="4.82726">
        <ele>171.60000610352</ele>
        <time>2024-05-20T13:22:30.000Z</time>
      </trkpt>
      <trkpt lat="45.88093" lon="4.82733">
        <ele>171.60000610352</ele>
        <time>2024-05-20T13:22:31.000Z</time>
      </trkpt>
      <trkpt lat="45.88092" lon="4.82739">
        <ele>171.60000610352</ele>
        <time>2024-05-20T13:22:32.000Z</time>
      </trkpt>
      <trkpt lat="45.88091" lon="4.82746">
        <ele>171.60000610352</ele>
        <time>2024-05-20T13:22:33.000Z</time>
      </trkpt>
      <trkpt lat="45.8809" lon="4.82753">
        <ele>171.39999389648</ele>
        <time>2024-05-20T13:22:34.000Z</time>
      </trkpt>
      <trkpt lat="45.8809" lon="4.82761">
        <ele>171.39999389648</ele>
        <time>2024-05-20T13:22:35.000Z</time>
      </trkpt>
      <trkpt lat="45.88088" lon="4.82769">
        <ele>171.39999389648</ele>
        <time>2024-05-20T13:22:36.000Z</time>
      </trkpt>
      <trkpt lat="45.88087" lon="4.82777">
        <ele>171.19999694824</ele>
        <time>2024-05-20T13:22:37.000Z</time>
      </trkpt>
      <trkpt lat="45.88085" lon="4.82785">
        <ele>171</ele>
        <time>2024-05-20T13:22:38.000Z</time>
      </trkpt>
      <trkpt lat="45.88085" lon="4.82794">
        <ele>170.80000305176</ele>
        <time>2024-05-20T13:22:39.000Z</time>
      </trkpt>
      <trkpt lat="45.88083" lon="4.82803">
        <ele>170.60000610352</ele>
        <time>2024-05-20T13:22:40.000Z</time>
      </trkpt>
      <trkpt lat="45.88081" lon="4.82811">
        <ele>170.39999389648</ele>
        <time>2024-05-20T13:22:41.000Z</time>
      </trkpt>
      <trkpt lat="45.88079" lon="4.82819">
        <ele>170.19999694824</ele>
        <time>2024-05-20T13:22:42.000Z</time>
      </trkpt>
      <trkpt lat="45.88076" lon="4.82828">
        <ele>170.19999694824</ele>
        <time>2024-05-20T13:22:43.000Z</time>
      </trkpt>
      <trkpt lat="45.88075" lon="4.82837">
        <ele>170.19999694824</ele>
        <time>2024-05-20T13:22:44.000Z</time>
      </trkpt>
      <trkpt lat="45.88074" lon="4.82846">
        <ele>170.19999694824</ele>
        <time>2024-05-20T13:22:45.000Z</time>
      </trkpt>
      <trkpt lat="45.88072" lon="4.82855">
        <ele>170.19999694824</ele>
        <time>2024-05-20T13:22:46.000Z</time>
      </trkpt>
      <trkpt lat="45.88071" lon="4.82865">
        <ele>170.19999694824</ele>
        <time>2024-05-20T13:22:47.000Z</time>
      </trkpt>
      <trkpt lat="45.88069" lon="4.82874">
        <ele>170.19999694824</ele>
        <time>2024-05-20T13:22:48.000Z</time>
      </trkpt>
      <trkpt lat="45.88068" lon="4.82884">
        <ele>170</ele>
        <time>2024-05-20T13:22:49.000Z</time>
      </trkpt>
      <trkpt lat="45.88067" lon="4.82893">
        <ele>170</ele>
        <time>2024-05-20T13:22:50.000Z</time>
      </trkpt>
      <trkpt lat="45.88066" lon="4.82903">
        <ele>170</ele>
        <time>2024-05-20T13:22:51.000Z</time>
      </trkpt>
      <trkpt lat="45.88065" lon="4.82913">
        <ele>169.80000305176</ele>
        <time>2024-05-20T13:22:52.000Z</time>
      </trkpt>
      <trkpt lat="45.88064" lon="4.82923">
        <ele>169.80000305176</ele>
        <time>2024-05-20T13:22:53.000Z</time>
      </trkpt>
      <trkpt lat="45.88063" lon="4.82933">
        <ele>169.80000305176</ele>
        <time>2024-05-20T13:22:54.000Z</time>
      </trkpt>
      <trkpt lat="45.88062" lon="4.82943">
        <ele>169.80000305176</ele>
        <time>2024-05-20T13:22:55.000Z</time>
      </trkpt>
      <trkpt lat="45.8806" lon="4.82953">
        <ele>169.80000305176</ele>
        <time>2024-05-20T13:22:56.000Z</time>
      </trkpt>
      <trkpt lat="45.88058" lon="4.82962">
        <ele>169.80000305176</ele>
        <time>2024-05-20T13:22:57.000Z</time>
      </trkpt>
      <trkpt lat="45.88057" lon="4.82972">
        <ele>169.80000305176</ele>
        <time>2024-05-20T13:22:58.000Z</time>
      </trkpt>
      <trkpt lat="45.88055" lon="4.82981">
        <ele>169.80000305176</ele>
        <time>2024-05-20T13:22:59.000Z</time>
      </trkpt>
      <trkpt lat="45.88054" lon="4.8299">
        <ele>169.80000305176</ele>
        <time>2024-05-20T13:23:00.000Z</time>
      </trkpt>
      <trkpt lat="45.88053" lon="4.82999">
        <ele>169.80000305176</ele>
        <time>2024-05-20T13:23:01.000Z</time>
      </trkpt>
      <trkpt lat="45.88052" lon="4.83009">
        <ele>169.80000305176</ele>
        <time>2024-05-20T13:23:02.000Z</time>
      </trkpt>
      <trkpt lat="45.88051" lon="4.83018">
        <ele>169.80000305176</ele>
        <time>2024-05-20T13:23:03.000Z</time>
      </trkpt>
      <trkpt lat="45.88049" lon="4.83028">
        <ele>169.60000610352</ele>
        <time>2024-05-20T13:23:04.000Z</time>
      </trkpt>
      <trkpt lat="45.88049" lon="4.83038">
        <ele>169.60000610352</ele>
        <time>2024-05-20T13:23:05.000Z</time>
      </trkpt>
      <trkpt lat="45.88048" lon="4.83048">
        <ele>169.60000610352</ele>
        <time>2024-05-20T13:23:06.000Z</time>
      </trkpt>
      <trkpt lat="45.88047" lon="4.83058">
        <ele>169.39999389648</ele>
        <time>2024-05-20T13:23:07.000Z</time>
      </trkpt>
      <trkpt lat="45.88046" lon="4.83067">
        <ele>169.39999389648</ele>
        <time>2024-05-20T13:23:08.000Z</time>
      </trkpt>
      <trkpt lat="45.88044" lon="4.83075">
        <ele>169.39999389648</ele>
        <time>2024-05-20T13:23:09.000Z</time>
      </trkpt>
      <trkpt lat="45.88043" lon="4.83084">
        <ele>169.39999389648</ele>
        <time>2024-05-20T13:23:10.000Z</time>
      </trkpt>
      <trkpt lat="45.88041" lon="4.83092">
        <ele>169.39999389648</ele>
        <time>2024-05-20T13:23:11.000Z</time>
      </trkpt>
      <trkpt lat="45.8804" lon="4.83102">
        <ele>169.39999389648</ele>
        <time>2024-05-20T13:23:12.000Z</time>
      </trkpt>
      <trkpt lat="45.88039" lon="4.83111">
        <ele>169.39999389648</ele>
        <time>2024-05-20T13:23:13.000Z</time>
      </trkpt>
      <trkpt lat="45.88038" lon="4.8312">
        <ele>169.39999389648</ele>
        <time>2024-05-20T13:23:14.000Z</time>
      </trkpt>
      <trkpt lat="45.88038" lon="4.8313">
        <ele>169.39999389648</ele>
        <time>2024-05-20T13:23:15.000Z</time>
      </trkpt>
      <trkpt lat="45.88036" lon="4.83139">
        <ele>169.19999694824</ele>
        <time>2024-05-20T13:23:16.000Z</time>
      </trkpt>
      <trkpt lat="45.88035" lon="4.83147">
        <ele>169.19999694824</ele>
        <time>2024-05-20T13:23:17.000Z</time>
      </trkpt>
      <trkpt lat="45.88034" lon="4.83156">
        <ele>169</ele>
        <time>2024-05-20T13:23:18.000Z</time>
      </trkpt>
      <trkpt lat="45.88033" lon="4.83164">
        <ele>168.80000305176</ele>
        <time>2024-05-20T13:23:19.000Z</time>
      </trkpt>
      <trkpt lat="45.88031" lon="4.83172">
        <ele>168.80000305176</ele>
        <time>2024-05-20T13:23:20.000Z</time>
      </trkpt>
      <trkpt lat="45.8803" lon="4.83181">
        <ele>168.80000305176</ele>
        <time>2024-05-20T13:23:21.000Z</time>
      </trkpt>
      <trkpt lat="45.88029" lon="4.8319">
        <ele>168.80000305176</ele>
        <time>2024-05-20T13:23:22.000Z</time>
      </trkpt>
      <trkpt lat="45.88028" lon="4.83198">
        <ele>168.60000610352</ele>
        <time>2024-05-20T13:23:23.000Z</time>
      </trkpt>
      <trkpt lat="45.88028" lon="4.83206">
        <ele>168.80000305176</ele>
        <time>2024-05-20T13:23:24.000Z</time>
      </trkpt>
      <trkpt lat="45.88027" lon="4.83215">
        <ele>168.80000305176</ele>
        <time>2024-05-20T13:23:25.000Z</time>
      </trkpt>
      <trkpt lat="45.88026" lon="4.83223">
        <ele>168.80000305176</ele>
        <time>2024-05-20T13:23:26.000Z</time>
      </trkpt>
      <trkpt lat="45.88025" lon="4.83233">
        <ele>168.80000305176</ele>
        <time>2024-05-20T13:23:27.000Z</time>
      </trkpt>
      <trkpt lat="45.88026" lon="4.83242">
        <ele>169</ele>
        <time>2024-05-20T13:23:28.000Z</time>
      </trkpt>
      <trkpt lat="45.88025" lon="4.83251">
        <ele>169</ele>
        <time>2024-05-20T13:23:29.000Z</time>
      </trkpt>
      <trkpt lat="45.88024" lon="4.83259">
        <ele>169.19999694824</ele>
        <time>2024-05-20T13:23:30.000Z</time>
      </trkpt>
      <trkpt lat="45.88023" lon="4.83268">
        <ele>169.19999694824</ele>
        <time>2024-05-20T13:23:31.000Z</time>
      </trkpt>
      <trkpt lat="45.88021" lon="4.83278">
        <ele>169.19999694824</ele>
        <time>2024-05-20T13:23:32.000Z</time>
      </trkpt>
      <trkpt lat="45.8802" lon="4.83288">
        <ele>169.19999694824</ele>
        <time>2024-05-20T13:23:33.000Z</time>
      </trkpt>
      <trkpt lat="45.88019" lon="4.83299">
        <ele>169</ele>
        <time>2024-05-20T13:23:34.000Z</time>
      </trkpt>
      <trkpt lat="45.88018" lon="4.83311">
        <ele>169</ele>
        <time>2024-05-20T13:23:35.000Z</time>
      </trkpt>
      <trkpt lat="45.88016" lon="4.83321">
        <ele>168.80000305176</ele>
        <time>2024-05-20T13:23:36.000Z</time>
      </trkpt>
      <trkpt lat="45.88015" lon="4.83331">
        <ele>168.80000305176</ele>
        <time>2024-05-20T13:23:37.000Z</time>
      </trkpt>
      <trkpt lat="45.88014" lon="4.83342">
        <ele>168.80000305176</ele>
        <time>2024-05-20T13:23:38.000Z</time>
      </trkpt>
      <trkpt lat="45.88013" lon="4.83352">
        <ele>169</ele>
        <time>2024-05-20T13:23:39.000Z</time>
      </trkpt>
      <trkpt lat="45.88011" lon="4.83362">
        <ele>169</ele>
        <time>2024-05-20T13:23:40.000Z</time>
      </trkpt>
      <trkpt lat="45.88009" lon="4.83371">
        <ele>169</ele>
        <time>2024-05-20T13:23:41.000Z</time>
      </trkpt>
      <trkpt lat="45.88007" lon="4.8338">
        <ele>169</ele>
        <time>2024-05-20T13:23:42.000Z</time>
      </trkpt>
      <trkpt lat="45.88005" lon="4.8339">
        <ele>169</ele>
        <time>2024-05-20T13:23:43.000Z</time>
      </trkpt>
      <trkpt lat="45.88003" lon="4.83399">
        <ele>169</ele>
        <time>2024-05-20T13:23:44.000Z</time>
      </trkpt>
      <trkpt lat="45.88001" lon="4.83407">
        <ele>169.19999694824</ele>
        <time>2024-05-20T13:23:45.000Z</time>
      </trkpt>
      <trkpt lat="45.87998" lon="4.83417">
        <ele>169.19999694824</ele>
        <time>2024-05-20T13:23:46.000Z</time>
      </trkpt>
      <trkpt lat="45.87996" lon="4.83425">
        <ele>169.39999389648</ele>
        <time>2024-05-20T13:23:47.000Z</time>
      </trkpt>
      <trkpt lat="45.87994" lon="4.83434">
        <ele>169.39999389648</ele>
        <time>2024-05-20T13:23:48.000Z</time>
      </trkpt>
      <trkpt lat="45.87991" lon="4.83442">
        <ele>169.39999389648</ele>
        <time>2024-05-20T13:23:49.000Z</time>
      </trkpt>
      <trkpt lat="45.8799" lon="4.8345">
        <ele>169.39999389648</ele>
        <time>2024-05-20T13:23:50.000Z</time>
      </trkpt>
      <trkpt lat="45.87988" lon="4.83458">
        <ele>169.39999389648</ele>
        <time>2024-05-20T13:23:51.000Z</time>
      </trkpt>
      <trkpt lat="45.87986" lon="4.83467">
        <ele>169.39999389648</ele>
        <time>2024-05-20T13:23:52.000Z</time>
      </trkpt>
      <trkpt lat="45.87984" lon="4.83475">
        <ele>169.19999694824</ele>
        <time>2024-05-20T13:23:53.000Z</time>
      </trkpt>
      <trkpt lat="45.87982" lon="4.83484">
        <ele>169.19999694824</ele>
        <time>2024-05-20T13:23:54.000Z</time>
      </trkpt>
      <trkpt lat="45.87981" lon="4.83492">
        <ele>169.19999694824</ele>
        <time>2024-05-20T13:23:55.000Z</time>
      </trkpt>
      <trkpt lat="45.87979" lon="4.83501">
        <ele>169.19999694824</ele>
        <time>2024-05-20T13:23:56.000Z</time>
      </trkpt>
      <trkpt lat="45.87977" lon="4.83509">
        <ele>169</ele>
        <time>2024-05-20T13:23:57.000Z</time>
      </trkpt>
      <trkpt lat="45.87975" lon="4.83517">
        <ele>169</ele>
        <time>2024-05-20T13:23:58.000Z</time>
      </trkpt>
      <trkpt lat="45.87973" lon="4.83525">
        <ele>169</ele>
        <time>2024-05-20T13:23:59.000Z</time>
      </trkpt>
      <trkpt lat="45.87971" lon="4.83533">
        <ele>169</ele>
        <time>2024-05-20T13:24:00.000Z</time>
      </trkpt>
      <trkpt lat="45.87969" lon="4.83541">
        <ele>169</ele>
        <time>2024-05-20T13:24:01.000Z</time>
      </trkpt>
      <trkpt lat="45.87968" lon="4.83549">
        <ele>169</ele>
        <time>2024-05-20T13:24:02.000Z</time>
      </trkpt>
      <trkpt lat="45.87965" lon="4.83557">
        <ele>169.19999694824</ele>
        <time>2024-05-20T13:24:03.000Z</time>
      </trkpt>
      <trkpt lat="45.87961" lon="4.83565">
        <ele>169.39999389648</ele>
        <time>2024-05-20T13:24:04.000Z</time>
      </trkpt>
      <trkpt lat="45.87959" lon="4.83572">
        <ele>169.39999389648</ele>
        <time>2024-05-20T13:24:05.000Z</time>
      </trkpt>
      <trkpt lat="45.87956" lon="4.8358">
        <ele>169.60000610352</ele>
        <time>2024-05-20T13:24:06.000Z</time>
      </trkpt>
      <trkpt lat="45.87954" lon="4.83587">
        <ele>169.60000610352</ele>
        <time>2024-05-20T13:24:07.000Z</time>
      </trkpt>
      <trkpt lat="45.87952" lon="4.83594">
        <ele>169.60000610352</ele>
        <time>2024-05-20T13:24:08.000Z</time>
      </trkpt>
      <trkpt lat="45.87951" lon="4.83599">
        <ele>169.60000610352</ele>
        <time>2024-05-20T13:24:09.000Z</time>
      </trkpt>
      <trkpt lat="45.87949" lon="4.83603">
        <ele>169.60000610352</ele>
        <time>2024-05-20T13:24:10.000Z</time>
      </trkpt>
      <trkpt lat="45.87947" lon="4.83605">
        <ele>169.80000305176</ele>
        <time>2024-05-20T13:24:11.000Z</time>
      </trkpt>
      <trkpt lat="45.87945" lon="4.83606">
        <ele>169.80000305176</ele>
        <time>2024-05-20T13:24:12.000Z</time>
      </trkpt>
      <trkpt lat="45.87942" lon="4.83607">
        <ele>169.80000305176</ele>
        <time>2024-05-20T13:24:13.000Z</time>
      </trkpt>
      <trkpt lat="45.8794" lon="4.8361">
        <ele>169.80000305176</ele>
        <time>2024-05-20T13:24:14.000Z</time>
      </trkpt>
      <trkpt lat="45.87938" lon="4.83613">
        <ele>170</ele>
        <time>2024-05-20T13:24:15.000Z</time>
      </trkpt>
      <trkpt lat="45.87935" lon="4.83617">
        <ele>169.80000305176</ele>
        <time>2024-05-20T13:24:16.000Z</time>
      </trkpt>
      <trkpt lat="45.87933" lon="4.83621">
        <ele>169.80000305176</ele>
        <time>2024-05-20T13:24:17.000Z</time>
      </trkpt>
      <trkpt lat="45.8793" lon="4.83625">
        <ele>169.80000305176</ele>
        <time>2024-05-20T13:24:18.000Z</time>
      </trkpt>
      <trkpt lat="45.87928" lon="4.8363">
        <ele>169.80000305176</ele>
        <time>2024-05-20T13:24:19.000Z</time>
      </trkpt>
      <trkpt lat="45.87926" lon="4.83634">
        <ele>169.80000305176</ele>
        <time>2024-05-20T13:24:20.000Z</time>
      </trkpt>
      <trkpt lat="45.87923" lon="4.83638">
        <ele>169.80000305176</ele>
        <time>2024-05-20T13:24:21.000Z</time>
      </trkpt>
      <trkpt lat="45.8792" lon="4.83642">
        <ele>169.80000305176</ele>
        <time>2024-05-20T13:24:22.000Z</time>
      </trkpt>
      <trkpt lat="45.87917" lon="4.83647">
        <ele>169.80000305176</ele>
        <time>2024-05-20T13:24:23.000Z</time>
      </trkpt>
      <trkpt lat="45.87914" lon="4.83652">
        <ele>169.80000305176</ele>
        <time>2024-05-20T13:24:24.000Z</time>
      </trkpt>
      <trkpt lat="45.87911" lon="4.83657">
        <ele>169.80000305176</ele>
        <time>2024-05-20T13:24:25.000Z</time>
      </trkpt>
      <trkpt lat="45.87907" lon="4.83661">
        <ele>169.80000305176</ele>
        <time>2024-05-20T13:24:26.000Z</time>
      </trkpt>
      <trkpt lat="45.87903" lon="4.83666">
        <ele>169.80000305176</ele>
        <time>2024-05-20T13:24:27.000Z</time>
      </trkpt>
      <trkpt lat="45.87899" lon="4.83671">
        <ele>169.80000305176</ele>
        <time>2024-05-20T13:24:28.000Z</time>
      </trkpt>
      <trkpt lat="45.87895" lon="4.83677">
        <ele>169.80000305176</ele>
        <time>2024-05-20T13:24:29.000Z</time>
      </trkpt>
      <trkpt lat="45.87891" lon="4.83683">
        <ele>169.80000305176</ele>
        <time>2024-05-20T13:24:30.000Z</time>
      </trkpt>
      <trkpt lat="45.87886" lon="4.83688">
        <ele>169.80000305176</ele>
        <time>2024-05-20T13:24:31.000Z</time>
      </trkpt>
      <trkpt lat="45.87882" lon="4.83694">
        <ele>169.80000305176</ele>
        <time>2024-05-20T13:24:32.000Z</time>
      </trkpt>
      <trkpt lat="45.87877" lon="4.83699">
        <ele>169.80000305176</ele>
        <time>2024-05-20T13:24:33.000Z</time>
      </trkpt>
      <trkpt lat="45.87873" lon="4.83705">
        <ele>169.60000610352</ele>
        <time>2024-05-20T13:24:34.000Z</time>
      </trkpt>
      <trkpt lat="45.87868" lon="4.8371">
        <ele>169.60000610352</ele>
        <time>2024-05-20T13:24:35.000Z</time>
      </trkpt>
      <trkpt lat="45.87863" lon="4.83715">
        <ele>169.60000610352</ele>
        <time>2024-05-20T13:24:36.000Z</time>
      </trkpt>
      <trkpt lat="45.87858" lon="4.8372">
        <ele>169.60000610352</ele>
        <time>2024-05-20T13:24:37.000Z</time>
      </trkpt>
      <trkpt lat="45.87854" lon="4.83725">
        <ele>169.60000610352</ele>
        <time>2024-05-20T13:24:38.000Z</time>
      </trkpt>
      <trkpt lat="45.87849" lon="4.8373">
        <ele>169.60000610352</ele>
        <time>2024-05-20T13:24:39.000Z</time>
      </trkpt>
      <trkpt lat="45.87844" lon="4.83735">
        <ele>169.39999389648</ele>
        <time>2024-05-20T13:24:40.000Z</time>
      </trkpt>
      <trkpt lat="45.87839" lon="4.83739">
        <ele>169.39999389648</ele>
        <time>2024-05-20T13:24:41.000Z</time>
      </trkpt>
      <trkpt lat="45.87834" lon="4.83743">
        <ele>169.39999389648</ele>
        <time>2024-05-20T13:24:42.000Z</time>
      </trkpt>
      <trkpt lat="45.87829" lon="4.83747">
        <ele>169.39999389648</ele>
        <time>2024-05-20T13:24:43.000Z</time>
      </trkpt>
      <trkpt lat="45.87824" lon="4.83751">
        <ele>169.39999389648</ele>
        <time>2024-05-20T13:24:44.000Z</time>
      </trkpt>
      <trkpt lat="45.8782" lon="4.83754">
        <ele>169.19999694824</ele>
        <time>2024-05-20T13:24:45.000Z</time>
      </trkpt>
      <trkpt lat="45.87815" lon="4.83757">
        <ele>169.19999694824</ele>
        <time>2024-05-20T13:24:46.000Z</time>
      </trkpt>
      <trkpt lat="45.8781" lon="4.8376">
        <ele>169.19999694824</ele>
        <time>2024-05-20T13:24:47.000Z</time>
      </trkpt>
      <trkpt lat="45.87806" lon="4.83763">
        <ele>169</ele>
        <time>2024-05-20T13:24:48.000Z</time>
      </trkpt>
      <trkpt lat="45.87801" lon="4.83767">
        <ele>169</ele>
        <time>2024-05-20T13:24:49.000Z</time>
      </trkpt>
      <trkpt lat="45.87796" lon="4.8377">
        <ele>169</ele>
        <time>2024-05-20T13:24:50.000Z</time>
      </trkpt>
      <trkpt lat="45.87791" lon="4.83773">
        <ele>168.80000305176</ele>
        <time>2024-05-20T13:24:51.000Z</time>
      </trkpt>
      <trkpt lat="45.87787" lon="4.83776">
        <ele>168.80000305176</ele>
        <time>2024-05-20T13:24:52.000Z</time>
      </trkpt>
      <trkpt lat="45.87782" lon="4.83778">
        <ele>168.80000305176</ele>
        <time>2024-05-20T13:24:53.000Z</time>
      </trkpt>
      <trkpt lat="45.87777" lon="4.8378">
        <ele>168.80000305176</ele>
        <time>2024-05-20T13:24:54.000Z</time>
      </trkpt>
      <trkpt lat="45.87772" lon="4.83783">
        <ele>168.80000305176</ele>
        <time>2024-05-20T13:24:55.000Z</time>
      </trkpt>
      <trkpt lat="45.87767" lon="4.83785">
        <ele>168.80000305176</ele>
        <time>2024-05-20T13:24:56.000Z</time>
      </trkpt>
      <trkpt lat="45.87761" lon="4.83787">
        <ele>168.60000610352</ele>
        <time>2024-05-20T13:24:57.000Z</time>
      </trkpt>
      <trkpt lat="45.87756" lon="4.83789">
        <ele>168.60000610352</ele>
        <time>2024-05-20T13:24:58.000Z</time>
      </trkpt>
      <trkpt lat="45.87751" lon="4.83791">
        <ele>168.60000610352</ele>
        <time>2024-05-20T13:24:59.000Z</time>
      </trkpt>
      <trkpt lat="45.87746" lon="4.83793">
        <ele>168.60000610352</ele>
        <time>2024-05-20T13:25:00.000Z</time>
      </trkpt>
      <trkpt lat="45.87741" lon="4.83794">
        <ele>168.60000610352</ele>
        <time>2024-05-20T13:25:01.000Z</time>
      </trkpt>
      <trkpt lat="45.87736" lon="4.83795">
        <ele>168.60000610352</ele>
        <time>2024-05-20T13:25:02.000Z</time>
      </trkpt>
      <trkpt lat="45.8773" lon="4.83795">
        <ele>168.60000610352</ele>
        <time>2024-05-20T13:25:03.000Z</time>
      </trkpt>
      <trkpt lat="45.87725" lon="4.83795">
        <ele>168.60000610352</ele>
        <time>2024-05-20T13:25:04.000Z</time>
      </trkpt>
      <trkpt lat="45.8772" lon="4.83796">
        <ele>168.60000610352</ele>
        <time>2024-05-20T13:25:05.000Z</time>
      </trkpt>
      <trkpt lat="45.87716" lon="4.83797">
        <ele>168.60000610352</ele>
        <time>2024-05-20T13:25:06.000Z</time>
      </trkpt>
      <trkpt lat="45.87711" lon="4.83799">
        <ele>168.60000610352</ele>
        <time>2024-05-20T13:25:07.000Z</time>
      </trkpt>
      <trkpt lat="45.87706" lon="4.838">
        <ele>168.39999389648</ele>
        <time>2024-05-20T13:25:08.000Z</time>
      </trkpt>
      <trkpt lat="45.87701" lon="4.83801">
        <ele>168.39999389648</ele>
        <time>2024-05-20T13:25:09.000Z</time>
      </trkpt>
      <trkpt lat="45.87696" lon="4.83801">
        <ele>168.19999694824</ele>
        <time>2024-05-20T13:25:10.000Z</time>
      </trkpt>
      <trkpt lat="45.87691" lon="4.83801">
        <ele>168.19999694824</ele>
        <time>2024-05-20T13:25:11.000Z</time>
      </trkpt>
      <trkpt lat="45.87688" lon="4.83799">
        <ele>168.39999389648</ele>
        <time>2024-05-20T13:25:12.000Z</time>
      </trkpt>
      <trkpt lat="45.87684" lon="4.83796">
        <ele>168.39999389648</ele>
        <time>2024-05-20T13:25:13.000Z</time>
      </trkpt>
      <trkpt lat="45.87679" lon="4.83795">
        <ele>168.39999389648</ele>
        <time>2024-05-20T13:25:14.000Z</time>
      </trkpt>
      <trkpt lat="45.87674" lon="4.83794">
        <ele>168.39999389648</ele>
        <time>2024-05-20T13:25:15.000Z</time>
      </trkpt>
      <trkpt lat="45.87668" lon="4.83793">
        <ele>168.39999389648</ele>
        <time>2024-05-20T13:25:16.000Z</time>
      </trkpt>
      <trkpt lat="45.87662" lon="4.83793">
        <ele>168.39999389648</ele>
        <time>2024-05-20T13:25:17.000Z</time>
      </trkpt>
      <trkpt lat="45.87656" lon="4.83793">
        <ele>168.39999389648</ele>
        <time>2024-05-20T13:25:18.000Z</time>
      </trkpt>
      <trkpt lat="45.87651" lon="4.83792">
        <ele>168.19999694824</ele>
        <time>2024-05-20T13:25:19.000Z</time>
      </trkpt>
      <trkpt lat="45.87645" lon="4.83792">
        <ele>168</ele>
        <time>2024-05-20T13:25:20.000Z</time>
      </trkpt>
      <trkpt lat="45.87639" lon="4.83792">
        <ele>168</ele>
        <time>2024-05-20T13:25:21.000Z</time>
      </trkpt>
      <trkpt lat="45.87634" lon="4.83791">
        <ele>168</ele>
        <time>2024-05-20T13:25:22.000Z</time>
      </trkpt>
      <trkpt lat="45.87629" lon="4.8379">
        <ele>168</ele>
        <time>2024-05-20T13:25:23.000Z</time>
      </trkpt>
      <trkpt lat="45.87624" lon="4.8379">
        <ele>168</ele>
        <time>2024-05-20T13:25:24.000Z</time>
      </trkpt>
      <trkpt lat="45.8762" lon="4.83789">
        <ele>168</ele>
        <time>2024-05-20T13:25:25.000Z</time>
      </trkpt>
      <trkpt lat="45.87616" lon="4.83789">
        <ele>168.19999694824</ele>
        <time>2024-05-20T13:25:26.000Z</time>
      </trkpt>
      <trkpt lat="45.87612" lon="4.83788">
        <ele>168.19999694824</ele>
        <time>2024-05-20T13:25:27.000Z</time>
      </trkpt>
      <trkpt lat="45.87609" lon="4.83788">
        <ele>168.19999694824</ele>
        <time>2024-05-20T13:25:28.000Z</time>
      </trkpt>
      <trkpt lat="45.87607" lon="4.83788">
        <ele>168.39999389648</ele>
        <time>2024-05-20T13:25:29.000Z</time>
      </trkpt>
      <trkpt lat="45.87604" lon="4.83788">
        <ele>168.60000610352</ele>
        <time>2024-05-20T13:25:30.000Z</time>
      </trkpt>
      <trkpt lat="45.87602" lon="4.83787">
        <ele>168.80000305176</ele>
        <time>2024-05-20T13:25:31.000Z</time>
      </trkpt>
      <trkpt lat="45.87599" lon="4.83787">
        <ele>169</ele>
        <time>2024-05-20T13:25:32.000Z</time>
      </trkpt>
      <trkpt lat="45.87596" lon="4.83786">
        <ele>169</ele>
        <time>2024-05-20T13:25:33.000Z</time>
      </trkpt>
      <trkpt lat="45.87593" lon="4.83785">
        <ele>169</ele>
        <time>2024-05-20T13:25:34.000Z</time>
      </trkpt>
      <trkpt lat="45.87589" lon="4.83784">
        <ele>169</ele>
        <time>2024-05-20T13:25:35.000Z</time>
      </trkpt>
      <trkpt lat="45.87585" lon="4.83783">
        <ele>169</ele>
        <time>2024-05-20T13:25:36.000Z</time>
      </trkpt>
      <trkpt lat="45.87581" lon="4.83782">
        <ele>168.80000305176</ele>
        <time>2024-05-20T13:25:37.000Z</time>
      </trkpt>
      <trkpt lat="45.87577" lon="4.83782">
        <ele>168.60000610352</ele>
        <time>2024-05-20T13:25:38.000Z</time>
      </trkpt>
      <trkpt lat="45.87573" lon="4.83782">
        <ele>168.39999389648</ele>
        <time>2024-05-20T13:25:39.000Z</time>
      </trkpt>
      <trkpt lat="45.87568" lon="4.83783">
        <ele>168.39999389648</ele>
        <time>2024-05-20T13:25:40.000Z</time>
      </trkpt>
      <trkpt lat="45.87564" lon="4.83783">
        <ele>168.39999389648</ele>
        <time>2024-05-20T13:25:41.000Z</time>
      </trkpt>
      <trkpt lat="45.87559" lon="4.83783">
        <ele>168.39999389648</ele>
        <time>2024-05-20T13:25:42.000Z</time>
      </trkpt>
      <trkpt lat="45.87555" lon="4.83782">
        <ele>168.39999389648</ele>
        <time>2024-05-20T13:25:43.000Z</time>
      </trkpt>
      <trkpt lat="45.8755" lon="4.8378">
        <ele>168.39999389648</ele>
        <time>2024-05-20T13:25:44.000Z</time>
      </trkpt>
      <trkpt lat="45.87545" lon="4.83779">
        <ele>168.39999389648</ele>
        <time>2024-05-20T13:25:45.000Z</time>
      </trkpt>
      <trkpt lat="45.8754" lon="4.83778">
        <ele>168.39999389648</ele>
        <time>2024-05-20T13:25:46.000Z</time>
      </trkpt>
      <trkpt lat="45.87534" lon="4.83777">
        <ele>168.39999389648</ele>
        <time>2024-05-20T13:25:47.000Z</time>
      </trkpt>
      <trkpt lat="45.87529" lon="4.83776">
        <ele>168.39999389648</ele>
        <time>2024-05-20T13:25:48.000Z</time>
      </trkpt>
      <trkpt lat="45.87523" lon="4.83775">
        <ele>168.39999389648</ele>
        <time>2024-05-20T13:25:49.000Z</time>
      </trkpt>
      <trkpt lat="45.87517" lon="4.83774">
        <ele>168.39999389648</ele>
        <time>2024-05-20T13:25:50.000Z</time>
      </trkpt>
      <trkpt lat="45.87512" lon="4.83773">
        <ele>168.39999389648</ele>
        <time>2024-05-20T13:25:51.000Z</time>
      </trkpt>
      <trkpt lat="45.87506" lon="4.83772">
        <ele>168.19999694824</ele>
        <time>2024-05-20T13:25:52.000Z</time>
      </trkpt>
      <trkpt lat="45.875" lon="4.83771">
        <ele>168.19999694824</ele>
        <time>2024-05-20T13:25:53.000Z</time>
      </trkpt>
      <trkpt lat="45.87494" lon="4.83771">
        <ele>168.19999694824</ele>
        <time>2024-05-20T13:25:54.000Z</time>
      </trkpt>
      <trkpt lat="45.87488" lon="4.8377">
        <ele>168.39999389648</ele>
        <time>2024-05-20T13:25:55.000Z</time>
      </trkpt>
      <trkpt lat="45.87482" lon="4.8377">
        <ele>168.39999389648</ele>
        <time>2024-05-20T13:25:56.000Z</time>
      </trkpt>
      <trkpt lat="45.87476" lon="4.83769">
        <ele>168.60000610352</ele>
        <time>2024-05-20T13:25:57.000Z</time>
      </trkpt>
      <trkpt lat="45.8747" lon="4.83768">
        <ele>168.60000610352</ele>
        <time>2024-05-20T13:25:58.000Z</time>
      </trkpt>
      <trkpt lat="45.87464" lon="4.83766">
        <ele>168.80000305176</ele>
        <time>2024-05-20T13:25:59.000Z</time>
      </trkpt>
      <trkpt lat="45.87459" lon="4.83764">
        <ele>168.80000305176</ele>
        <time>2024-05-20T13:26:00.000Z</time>
      </trkpt>
      <trkpt lat="45.87453" lon="4.83762">
        <ele>168.80000305176</ele>
        <time>2024-05-20T13:26:01.000Z</time>
      </trkpt>
      <trkpt lat="45.87447" lon="4.83761">
        <ele>168.80000305176</ele>
        <time>2024-05-20T13:26:02.000Z</time>
      </trkpt>
      <trkpt lat="45.87442" lon="4.8376">
        <ele>168.80000305176</ele>
        <time>2024-05-20T13:26:03.000Z</time>
      </trkpt>
      <trkpt lat="45.87437" lon="4.8376">
        <ele>168.80000305176</ele>
        <time>2024-05-20T13:26:04.000Z</time>
      </trkpt>
      <trkpt lat="45.87431" lon="4.83759">
        <ele>168.80000305176</ele>
        <time>2024-05-20T13:26:05.000Z</time>
      </trkpt>
      <trkpt lat="45.87426" lon="4.83759">
        <ele>168.60000610352</ele>
        <time>2024-05-20T13:26:06.000Z</time>
      </trkpt>
      <trkpt lat="45.8742" lon="4.83758">
        <ele>168.39999389648</ele>
        <time>2024-05-20T13:26:07.000Z</time>
      </trkpt>
      <trkpt lat="45.87415" lon="4.83758">
        <ele>168.39999389648</ele>
        <time>2024-05-20T13:26:08.000Z</time>
      </trkpt>
      <trkpt lat="45.8741" lon="4.83757">
        <ele>168.39999389648</ele>
        <time>2024-05-20T13:26:09.000Z</time>
      </trkpt>
      <trkpt lat="45.87404" lon="4.83756">
        <ele>168.19999694824</ele>
        <time>2024-05-20T13:26:10.000Z</time>
      </trkpt>
      <trkpt lat="45.87399" lon="4.83756">
        <ele>168.19999694824</ele>
        <time>2024-05-20T13:26:11.000Z</time>
      </trkpt>
      <trkpt lat="45.87393" lon="4.83754">
        <ele>168.19999694824</ele>
        <time>2024-05-20T13:26:12.000Z</time>
      </trkpt>
      <trkpt lat="45.87387" lon="4.83753">
        <ele>168.19999694824</ele>
        <time>2024-05-20T13:26:13.000Z</time>
      </trkpt>
      <trkpt lat="45.87382" lon="4.83751">
        <ele>168.19999694824</ele>
        <time>2024-05-20T13:26:14.000Z</time>
      </trkpt>
      <trkpt lat="45.87376" lon="4.83749">
        <ele>168.19999694824</ele>
        <time>2024-05-20T13:26:15.000Z</time>
      </trkpt>
      <trkpt lat="45.8737" lon="4.83748">
        <ele>168.19999694824</ele>
        <time>2024-05-20T13:26:16.000Z</time>
      </trkpt>
      <trkpt lat="45.87364" lon="4.83746">
        <ele>168.19999694824</ele>
        <time>2024-05-20T13:26:17.000Z</time>
      </trkpt>
      <trkpt lat="45.87358" lon="4.83745">
        <ele>168.19999694824</ele>
        <time>2024-05-20T13:26:18.000Z</time>
      </trkpt>
      <trkpt lat="45.87352" lon="4.83744">
        <ele>168.19999694824</ele>
        <time>2024-05-20T13:26:19.000Z</time>
      </trkpt>
      <trkpt lat="45.87346" lon="4.83744">
        <ele>168.39999389648</ele>
        <time>2024-05-20T13:26:20.000Z</time>
      </trkpt>
      <trkpt lat="45.8734" lon="4.83743">
        <ele>168.39999389648</ele>
        <time>2024-05-20T13:26:21.000Z</time>
      </trkpt>
      <trkpt lat="45.87334" lon="4.83742">
        <ele>168.60000610352</ele>
        <time>2024-05-20T13:26:22.000Z</time>
      </trkpt>
      <trkpt lat="45.87328" lon="4.83741">
        <ele>168.60000610352</ele>
        <time>2024-05-20T13:26:23.000Z</time>
      </trkpt>
      <trkpt lat="45.87322" lon="4.8374">
        <ele>168.60000610352</ele>
        <time>2024-05-20T13:26:24.000Z</time>
      </trkpt>
      <trkpt lat="45.87316" lon="4.83738">
        <ele>168.60000610352</ele>
        <time>2024-05-20T13:26:25.000Z</time>
      </trkpt>
      <trkpt lat="45.8731" lon="4.83737">
        <ele>168.39999389648</ele>
        <time>2024-05-20T13:26:26.000Z</time>
      </trkpt>
      <trkpt lat="45.87304" lon="4.83736">
        <ele>168.39999389648</ele>
        <time>2024-05-20T13:26:27.000Z</time>
      </trkpt>
      <trkpt lat="45.87298" lon="4.83735">
        <ele>168.39999389648</ele>
        <time>2024-05-20T13:26:28.000Z</time>
      </trkpt>
      <trkpt lat="45.87292" lon="4.83735">
        <ele>168.39999389648</ele>
        <time>2024-05-20T13:26:29.000Z</time>
      </trkpt>
      <trkpt lat="45.87286" lon="4.83734">
        <ele>168.60000610352</ele>
        <time>2024-05-20T13:26:30.000Z</time>
      </trkpt>
      <trkpt lat="45.8728" lon="4.83733">
        <ele>168.60000610352</ele>
        <time>2024-05-20T13:26:31.000Z</time>
      </trkpt>
      <trkpt lat="45.87274" lon="4.83732">
        <ele>168.80000305176</ele>
        <time>2024-05-20T13:26:32.000Z</time>
      </trkpt>
      <trkpt lat="45.87268" lon="4.83731">
        <ele>168.80000305176</ele>
        <time>2024-05-20T13:26:33.000Z</time>
      </trkpt>
      <trkpt lat="45.87261" lon="4.8373">
        <ele>168.80000305176</ele>
        <time>2024-05-20T13:26:34.000Z</time>
      </trkpt>
      <trkpt lat="45.87255" lon="4.83728">
        <ele>168.80000305176</ele>
        <time>2024-05-20T13:26:35.000Z</time>
      </trkpt>
      <trkpt lat="45.87249" lon="4.83727">
        <ele>168.80000305176</ele>
        <time>2024-05-20T13:26:36.000Z</time>
      </trkpt>
      <trkpt lat="45.87243" lon="4.83727">
        <ele>168.80000305176</ele>
        <time>2024-05-20T13:26:37.000Z</time>
      </trkpt>
      <trkpt lat="45.87237" lon="4.83726">
        <ele>168.80000305176</ele>
        <time>2024-05-20T13:26:38.000Z</time>
      </trkpt>
      <trkpt lat="45.87231" lon="4.83726">
        <ele>168.80000305176</ele>
        <time>2024-05-20T13:26:39.000Z</time>
      </trkpt>
      <trkpt lat="45.87225" lon="4.83727">
        <ele>168.60000610352</ele>
        <time>2024-05-20T13:26:40.000Z</time>
      </trkpt>
      <trkpt lat="45.87219" lon="4.83727">
        <ele>168.60000610352</ele>
        <time>2024-05-20T13:26:41.000Z</time>
      </trkpt>
      <trkpt lat="45.87213" lon="4.83727">
        <ele>168.60000610352</ele>
        <time>2024-05-20T13:26:42.000Z</time>
      </trkpt>
      <trkpt lat="45.87207" lon="4.83727">
        <ele>168.60000610352</ele>
        <time>2024-05-20T13:26:43.000Z</time>
      </trkpt>
      <trkpt lat="45.87201" lon="4.83727">
        <ele>168.80000305176</ele>
        <time>2024-05-20T13:26:44.000Z</time>
      </trkpt>
      <trkpt lat="45.87195" lon="4.83726">
        <ele>168.80000305176</ele>
        <time>2024-05-20T13:26:45.000Z</time>
      </trkpt>
      <trkpt lat="45.87189" lon="4.83725">
        <ele>169</ele>
        <time>2024-05-20T13:26:46.000Z</time>
      </trkpt>
      <trkpt lat="45.87183" lon="4.83724">
        <ele>169</ele>
        <time>2024-05-20T13:26:47.000Z</time>
      </trkpt>
      <trkpt lat="45.87178" lon="4.83723">
        <ele>169</ele>
        <time>2024-05-20T13:26:48.000Z</time>
      </trkpt>
      <trkpt lat="45.87172" lon="4.83722">
        <ele>169.19999694824</ele>
        <time>2024-05-20T13:26:49.000Z</time>
      </trkpt>
      <trkpt lat="45.87166" lon="4.83721">
        <ele>169.19999694824</ele>
        <time>2024-05-20T13:26:50.000Z</time>
      </trkpt>
      <trkpt lat="45.8716" lon="4.8372">
        <ele>169.19999694824</ele>
        <time>2024-05-20T13:26:51.000Z</time>
      </trkpt>
      <trkpt lat="45.87155" lon="4.83719">
        <ele>169.19999694824</ele>
        <time>2024-05-20T13:26:52.000Z</time>
      </trkpt>
      <trkpt lat="45.87149" lon="4.83718">
        <ele>169.19999694824</ele>
        <time>2024-05-20T13:26:53.000Z</time>
      </trkpt>
      <trkpt lat="45.87143" lon="4.83717">
        <ele>169.19999694824</ele>
        <time>2024-05-20T13:26:54.000Z</time>
      </trkpt>
      <trkpt lat="45.87137" lon="4.83715">
        <ele>169.19999694824</ele>
        <time>2024-05-20T13:26:55.000Z</time>
      </trkpt>
      <trkpt lat="45.87131" lon="4.83714">
        <ele>169.19999694824</ele>
        <time>2024-05-20T13:26:56.000Z</time>
      </trkpt>
      <trkpt lat="45.87125" lon="4.83712">
        <ele>169.19999694824</ele>
        <time>2024-05-20T13:26:57.000Z</time>
      </trkpt>
      <trkpt lat="45.87119" lon="4.8371">
        <ele>169.19999694824</ele>
        <time>2024-05-20T13:26:58.000Z</time>
      </trkpt>
      <trkpt lat="45.87113" lon="4.83709">
        <ele>169.19999694824</ele>
        <time>2024-05-20T13:26:59.000Z</time>
      </trkpt>
      <trkpt lat="45.87106" lon="4.83709">
        <ele>169.19999694824</ele>
        <time>2024-05-20T13:27:00.000Z</time>
      </trkpt>
      <trkpt lat="45.871" lon="4.83708">
        <ele>169.39999389648</ele>
        <time>2024-05-20T13:27:01.000Z</time>
      </trkpt>
      <trkpt lat="45.87095" lon="4.83708">
        <ele>169.39999389648</ele>
        <time>2024-05-20T13:27:02.000Z</time>
      </trkpt>
      <trkpt lat="45.87089" lon="4.83708">
        <ele>169.39999389648</ele>
        <time>2024-05-20T13:27:03.000Z</time>
      </trkpt>
      <trkpt lat="45.87084" lon="4.83708">
        <ele>169.39999389648</ele>
        <time>2024-05-20T13:27:04.000Z</time>
      </trkpt>
      <trkpt lat="45.87079" lon="4.83707">
        <ele>169.39999389648</ele>
        <time>2024-05-20T13:27:05.000Z</time>
      </trkpt>
      <trkpt lat="45.87073" lon="4.83707">
        <ele>169.39999389648</ele>
        <time>2024-05-20T13:27:06.000Z</time>
      </trkpt>
      <trkpt lat="45.87067" lon="4.83705">
        <ele>169.39999389648</ele>
        <time>2024-05-20T13:27:07.000Z</time>
      </trkpt>
      <trkpt lat="45.87061" lon="4.83704">
        <ele>169.39999389648</ele>
        <time>2024-05-20T13:27:08.000Z</time>
      </trkpt>
      <trkpt lat="45.87054" lon="4.83704">
        <ele>169.39999389648</ele>
        <time>2024-05-20T13:27:09.000Z</time>
      </trkpt>
      <trkpt lat="45.87048" lon="4.83704">
        <ele>169.39999389648</ele>
        <time>2024-05-20T13:27:10.000Z</time>
      </trkpt>
      <trkpt lat="45.87042" lon="4.83704">
        <ele>169.39999389648</ele>
        <time>2024-05-20T13:27:11.000Z</time>
      </trkpt>
      <trkpt lat="45.87036" lon="4.83704">
        <ele>169.39999389648</ele>
        <time>2024-05-20T13:27:12.000Z</time>
      </trkpt>
      <trkpt lat="45.87029" lon="4.83704">
        <ele>169.39999389648</ele>
        <time>2024-05-20T13:27:13.000Z</time>
      </trkpt>
      <trkpt lat="45.87023" lon="4.83703">
        <ele>169.19999694824</ele>
        <time>2024-05-20T13:27:14.000Z</time>
      </trkpt>
      <trkpt lat="45.87016" lon="4.83703">
        <ele>169.19999694824</ele>
        <time>2024-05-20T13:27:15.000Z</time>
      </trkpt>
      <trkpt lat="45.8701" lon="4.83703">
        <ele>169</ele>
        <time>2024-05-20T13:27:16.000Z</time>
      </trkpt>
      <trkpt lat="45.87004" lon="4.83702">
        <ele>169</ele>
        <time>2024-05-20T13:27:17.000Z</time>
      </trkpt>
      <trkpt lat="45.86997" lon="4.83702">
        <ele>169</ele>
        <time>2024-05-20T13:27:18.000Z</time>
      </trkpt>
      <trkpt lat="45.86991" lon="4.83702">
        <ele>168.80000305176</ele>
        <time>2024-05-20T13:27:19.000Z</time>
      </trkpt>
      <trkpt lat="45.86985" lon="4.83703">
        <ele>168.80000305176</ele>
        <time>2024-05-20T13:27:20.000Z</time>
      </trkpt>
      <trkpt lat="45.86979" lon="4.83703">
        <ele>168.80000305176</ele>
        <time>2024-05-20T13:27:21.000Z</time>
      </trkpt>
      <trkpt lat="45.86973" lon="4.83704">
        <ele>168.80000305176</ele>
        <time>2024-05-20T13:27:22.000Z</time>
      </trkpt>
      <trkpt lat="45.86968" lon="4.83704">
        <ele>168.80000305176</ele>
        <time>2024-05-20T13:27:23.000Z</time>
      </trkpt>
      <trkpt lat="45.86962" lon="4.83704">
        <ele>168.80000305176</ele>
        <time>2024-05-20T13:27:24.000Z</time>
      </trkpt>
      <trkpt lat="45.86956" lon="4.83704">
        <ele>168.60000610352</ele>
        <time>2024-05-20T13:27:25.000Z</time>
      </trkpt>
      <trkpt lat="45.8695" lon="4.83704">
        <ele>168.60000610352</ele>
        <time>2024-05-20T13:27:26.000Z</time>
      </trkpt>
      <trkpt lat="45.86945" lon="4.83704">
        <ele>168.60000610352</ele>
        <time>2024-05-20T13:27:27.000Z</time>
      </trkpt>
      <trkpt lat="45.86939" lon="4.83706">
        <ele>168.60000610352</ele>
        <time>2024-05-20T13:27:28.000Z</time>
      </trkpt>
      <trkpt lat="45.86933" lon="4.83707">
        <ele>168.60000610352</ele>
        <time>2024-05-20T13:27:29.000Z</time>
      </trkpt>
      <trkpt lat="45.86928" lon="4.83709">
        <ele>168.80000305176</ele>
        <time>2024-05-20T13:27:30.000Z</time>
      </trkpt>
      <trkpt lat="45.86922" lon="4.8371">
        <ele>168.80000305176</ele>
        <time>2024-05-20T13:27:31.000Z</time>
      </trkpt>
      <trkpt lat="45.86917" lon="4.83712">
        <ele>168.80000305176</ele>
        <time>2024-05-20T13:27:32.000Z</time>
      </trkpt>
      <trkpt lat="45.86912" lon="4.83713">
        <ele>168.80000305176</ele>
        <time>2024-05-20T13:27:33.000Z</time>
      </trkpt>
      <trkpt lat="45.86906" lon="4.83714">
        <ele>168.80000305176</ele>
        <time>2024-05-20T13:27:34.000Z</time>
      </trkpt>
      <trkpt lat="45.869" lon="4.83714">
        <ele>168.80000305176</ele>
        <time>2024-05-20T13:27:35.000Z</time>
      </trkpt>
      <trkpt lat="45.86894" lon="4.83714">
        <ele>168.80000305176</ele>
        <time>2024-05-20T13:27:36.000Z</time>
      </trkpt>
      <trkpt lat="45.86889" lon="4.83716">
        <ele>168.80000305176</ele>
        <time>2024-05-20T13:27:37.000Z</time>
      </trkpt>
      <trkpt lat="45.86883" lon="4.83717">
        <ele>168.80000305176</ele>
        <time>2024-05-20T13:27:38.000Z</time>
      </trkpt>
      <trkpt lat="45.86878" lon="4.8372">
        <ele>169</ele>
        <time>2024-05-20T13:27:39.000Z</time>
      </trkpt>
      <trkpt lat="45.86872" lon="4.83722">
        <ele>169</ele>
        <time>2024-05-20T13:27:40.000Z</time>
      </trkpt>
      <trkpt lat="45.86866" lon="4.83724">
        <ele>169</ele>
        <time>2024-05-20T13:27:41.000Z</time>
      </trkpt>
      <trkpt lat="45.86861" lon="4.83727">
        <ele>169</ele>
        <time>2024-05-20T13:27:42.000Z</time>
      </trkpt>
      <trkpt lat="45.86855" lon="4.8373">
        <ele>169</ele>
        <time>2024-05-20T13:27:43.000Z</time>
      </trkpt>
      <trkpt lat="45.8685" lon="4.83733">
        <ele>169</ele>
        <time>2024-05-20T13:27:44.000Z</time>
      </trkpt>
      <trkpt lat="45.86844" lon="4.83737">
        <ele>169</ele>
        <time>2024-05-20T13:27:45.000Z</time>
      </trkpt>
      <trkpt lat="45.86839" lon="4.83741">
        <ele>169</ele>
        <time>2024-05-20T13:27:46.000Z</time>
      </trkpt>
      <trkpt lat="45.86833" lon="4.83745">
        <ele>169</ele>
        <time>2024-05-20T13:27:47.000Z</time>
      </trkpt>
      <trkpt lat="45.86828" lon="4.83749">
        <ele>169</ele>
        <time>2024-05-20T13:27:48.000Z</time>
      </trkpt>
      <trkpt lat="45.86822" lon="4.83752">
        <ele>169</ele>
        <time>2024-05-20T13:27:49.000Z</time>
      </trkpt>
      <trkpt lat="45.86817" lon="4.83756">
        <ele>169</ele>
        <time>2024-05-20T13:27:50.000Z</time>
      </trkpt>
      <trkpt lat="45.86812" lon="4.83759">
        <ele>169</ele>
        <time>2024-05-20T13:27:51.000Z</time>
      </trkpt>
      <trkpt lat="45.86806" lon="4.83763">
        <ele>169</ele>
        <time>2024-05-20T13:27:52.000Z</time>
      </trkpt>
      <trkpt lat="45.86801" lon="4.83767">
        <ele>169.19999694824</ele>
        <time>2024-05-20T13:27:53.000Z</time>
      </trkpt>
      <trkpt lat="45.86796" lon="4.83771">
        <ele>169.19999694824</ele>
        <time>2024-05-20T13:27:54.000Z</time>
      </trkpt>
      <trkpt lat="45.86792" lon="4.83773">
        <ele>169.39999389648</ele>
        <time>2024-05-20T13:27:55.000Z</time>
      </trkpt>
      <trkpt lat="45.86787" lon="4.83776">
        <ele>169.39999389648</ele>
        <time>2024-05-20T13:27:56.000Z</time>
      </trkpt>
      <trkpt lat="45.86784" lon="4.83779">
        <ele>169.60000610352</ele>
        <time>2024-05-20T13:27:57.000Z</time>
      </trkpt>
      <trkpt lat="45.8678" lon="4.83783">
        <ele>169.80000305176</ele>
        <time>2024-05-20T13:27:58.000Z</time>
      </trkpt>
      <trkpt lat="45.86776" lon="4.83785">
        <ele>169.80000305176</ele>
        <time>2024-05-20T13:27:59.000Z</time>
      </trkpt>
      <trkpt lat="45.86771" lon="4.83788">
        <ele>169.80000305176</ele>
        <time>2024-05-20T13:28:00.000Z</time>
      </trkpt>
      <trkpt lat="45.86766" lon="4.83792">
        <ele>169.80000305176</ele>
        <time>2024-05-20T13:28:01.000Z</time>
      </trkpt>
      <trkpt lat="45.86761" lon="4.83796">
        <ele>169.60000610352</ele>
        <time>2024-05-20T13:28:02.000Z</time>
      </trkpt>
      <trkpt lat="45.86756" lon="4.83801">
        <ele>169.39999389648</ele>
        <time>2024-05-20T13:28:03.000Z</time>
      </trkpt>
      <trkpt lat="45.86751" lon="4.83806">
        <ele>169.39999389648</ele>
        <time>2024-05-20T13:28:04.000Z</time>
      </trkpt>
      <trkpt lat="45.86746" lon="4.8381">
        <ele>169.19999694824</ele>
        <time>2024-05-20T13:28:05.000Z</time>
      </trkpt>
      <trkpt lat="45.86741" lon="4.83815">
        <ele>169.19999694824</ele>
        <time>2024-05-20T13:28:06.000Z</time>
      </trkpt>
      <trkpt lat="45.86736" lon="4.83821">
        <ele>169.19999694824</ele>
        <time>2024-05-20T13:28:07.000Z</time>
      </trkpt>
      <trkpt lat="45.86732" lon="4.83826">
        <ele>169.19999694824</ele>
        <time>2024-05-20T13:28:08.000Z</time>
      </trkpt>
      <trkpt lat="45.86727" lon="4.83831">
        <ele>169.19999694824</ele>
        <time>2024-05-20T13:28:09.000Z</time>
      </trkpt>
      <trkpt lat="45.86722" lon="4.83835">
        <ele>169.19999694824</ele>
        <time>2024-05-20T13:28:10.000Z</time>
      </trkpt>
      <trkpt lat="45.86717" lon="4.83839">
        <ele>169.19999694824</ele>
        <time>2024-05-20T13:28:11.000Z</time>
      </trkpt>
      <trkpt lat="45.86712" lon="4.83844">
        <ele>169.19999694824</ele>
        <time>2024-05-20T13:28:12.000Z</time>
      </trkpt>
      <trkpt lat="45.86708" lon="4.83849">
        <ele>169.19999694824</ele>
        <time>2024-05-20T13:28:13.000Z</time>
      </trkpt>
      <trkpt lat="45.86703" lon="4.83854">
        <ele>169.19999694824</ele>
        <time>2024-05-20T13:28:14.000Z</time>
      </trkpt>
      <trkpt lat="45.86699" lon="4.83859">
        <ele>169.19999694824</ele>
        <time>2024-05-20T13:28:15.000Z</time>
      </trkpt>
      <trkpt lat="45.86695" lon="4.83864">
        <ele>169.19999694824</ele>
        <time>2024-05-20T13:28:16.000Z</time>
      </trkpt>
      <trkpt lat="45.86691" lon="4.83868">
        <ele>169.39999389648</ele>
        <time>2024-05-20T13:28:17.000Z</time>
      </trkpt>
      <trkpt lat="45.86687" lon="4.83872">
        <ele>169.39999389648</ele>
        <time>2024-05-20T13:28:18.000Z</time>
      </trkpt>
      <trkpt lat="45.86683" lon="4.83876">
        <ele>169.39999389648</ele>
        <time>2024-05-20T13:28:19.000Z</time>
      </trkpt>
      <trkpt lat="45.86679" lon="4.83881">
        <ele>169.39999389648</ele>
        <time>2024-05-20T13:28:20.000Z</time>
      </trkpt>
      <trkpt lat="45.86676" lon="4.83885">
        <ele>169.39999389648</ele>
        <time>2024-05-20T13:28:21.000Z</time>
      </trkpt>
      <trkpt lat="45.86673" lon="4.8389">
        <ele>169.60000610352</ele>
        <time>2024-05-20T13:28:22.000Z</time>
      </trkpt>
      <trkpt lat="45.8667" lon="4.83894">
        <ele>169.60000610352</ele>
        <time>2024-05-20T13:28:23.000Z</time>
      </trkpt>
      <trkpt lat="45.86666" lon="4.83898">
        <ele>169.39999389648</ele>
        <time>2024-05-20T13:28:24.000Z</time>
      </trkpt>
      <trkpt lat="45.86661" lon="4.83902">
        <ele>169.39999389648</ele>
        <time>2024-05-20T13:28:25.000Z</time>
      </trkpt>
      <trkpt lat="45.86656" lon="4.83907">
        <ele>169.39999389648</ele>
        <time>2024-05-20T13:28:26.000Z</time>
      </trkpt>
      <trkpt lat="45.86651" lon="4.83912">
        <ele>169.39999389648</ele>
        <time>2024-05-20T13:28:27.000Z</time>
      </trkpt>
      <trkpt lat="45.86647" lon="4.83918">
        <ele>169.39999389648</ele>
        <time>2024-05-20T13:28:28.000Z</time>
      </trkpt>
      <trkpt lat="45.86643" lon="4.83922">
        <ele>169.39999389648</ele>
        <time>2024-05-20T13:28:29.000Z</time>
      </trkpt>
      <trkpt lat="45.86639" lon="4.83927">
        <ele>169.39999389648</ele>
        <time>2024-05-20T13:28:30.000Z</time>
      </trkpt>
      <trkpt lat="45.86634" lon="4.83933">
        <ele>169.39999389648</ele>
        <time>2024-05-20T13:28:31.000Z</time>
      </trkpt>
      <trkpt lat="45.86628" lon="4.83938">
        <ele>169.39999389648</ele>
        <time>2024-05-20T13:28:32.000Z</time>
      </trkpt>
      <trkpt lat="45.86623" lon="4.83942">
        <ele>169.39999389648</ele>
        <time>2024-05-20T13:28:33.000Z</time>
      </trkpt>
      <trkpt lat="45.86618" lon="4.83946">
        <ele>169.39999389648</ele>
        <time>2024-05-20T13:28:34.000Z</time>
      </trkpt>
      <trkpt lat="45.86613" lon="4.8395">
        <ele>169.60000610352</ele>
        <time>2024-05-20T13:28:35.000Z</time>
      </trkpt>
      <trkpt lat="45.86608" lon="4.83953">
        <ele>170</ele>
        <time>2024-05-20T13:28:36.000Z</time>
      </trkpt>
      <trkpt lat="45.86603" lon="4.83956">
        <ele>170.19999694824</ele>
        <time>2024-05-20T13:28:37.000Z</time>
      </trkpt>
      <trkpt lat="45.86598" lon="4.83958">
        <ele>170.60000610352</ele>
        <time>2024-05-20T13:28:38.000Z</time>
      </trkpt>
      <trkpt lat="45.86593" lon="4.83958">
        <ele>171</ele>
        <time>2024-05-20T13:28:39.000Z</time>
      </trkpt>
      <trkpt lat="45.86588" lon="4.83959">
        <ele>171</ele>
        <time>2024-05-20T13:28:40.000Z</time>
      </trkpt>
      <trkpt lat="45.86582" lon="4.8396">
        <ele>171</ele>
        <time>2024-05-20T13:28:41.000Z</time>
      </trkpt>
      <trkpt lat="45.86577" lon="4.83962">
        <ele>171</ele>
        <time>2024-05-20T13:28:42.000Z</time>
      </trkpt>
      <trkpt lat="45.86571" lon="4.83964">
        <ele>171</ele>
        <time>2024-05-20T13:28:43.000Z</time>
      </trkpt>
      <trkpt lat="45.86565" lon="4.83965">
        <ele>171</ele>
        <time>2024-05-20T13:28:44.000Z</time>
      </trkpt>
      <trkpt lat="45.86559" lon="4.83967">
        <ele>170.80000305176</ele>
        <time>2024-05-20T13:28:45.000Z</time>
      </trkpt>
      <trkpt lat="45.86554" lon="4.83968">
        <ele>170.80000305176</ele>
        <time>2024-05-20T13:28:46.000Z</time>
      </trkpt>
      <trkpt lat="45.86548" lon="4.8397">
        <ele>170.80000305176</ele>
        <time>2024-05-20T13:28:47.000Z</time>
      </trkpt>
      <trkpt lat="45.86542" lon="4.83972">
        <ele>170.80000305176</ele>
        <time>2024-05-20T13:28:48.000Z</time>
      </trkpt>
      <trkpt lat="45.86536" lon="4.83973">
        <ele>170.80000305176</ele>
        <time>2024-05-20T13:28:49.000Z</time>
      </trkpt>
      <trkpt lat="45.8653" lon="4.83975">
        <ele>170.80000305176</ele>
        <time>2024-05-20T13:28:50.000Z</time>
      </trkpt>
      <trkpt lat="45.86524" lon="4.83977">
        <ele>170.60000610352</ele>
        <time>2024-05-20T13:28:51.000Z</time>
      </trkpt>
      <trkpt lat="45.86518" lon="4.83979">
        <ele>170.39999389648</ele>
        <time>2024-05-20T13:28:52.000Z</time>
      </trkpt>
      <trkpt lat="45.86512" lon="4.8398">
        <ele>170.39999389648</ele>
        <time>2024-05-20T13:28:53.000Z</time>
      </trkpt>
      <trkpt lat="45.86506" lon="4.83982">
        <ele>170.39999389648</ele>
        <time>2024-05-20T13:28:54.000Z</time>
      </trkpt>
      <trkpt lat="45.865" lon="4.83984">
        <ele>170.19999694824</ele>
        <time>2024-05-20T13:28:55.000Z</time>
      </trkpt>
      <trkpt lat="45.86494" lon="4.83985">
        <ele>170.19999694824</ele>
        <time>2024-05-20T13:28:56.000Z</time>
      </trkpt>
      <trkpt lat="45.86487" lon="4.83987">
        <ele>170.19999694824</ele>
        <time>2024-05-20T13:28:57.000Z</time>
      </trkpt>
      <trkpt lat="45.86481" lon="4.83989">
        <ele>170.19999694824</ele>
        <time>2024-05-20T13:28:58.000Z</time>
      </trkpt>
      <trkpt lat="45.86475" lon="4.83992">
        <ele>170.19999694824</ele>
        <time>2024-05-20T13:28:59.000Z</time>
      </trkpt>
      <trkpt lat="45.86469" lon="4.83994">
        <ele>170.19999694824</ele>
        <time>2024-05-20T13:29:00.000Z</time>
      </trkpt>
      <trkpt lat="45.86463" lon="4.83997">
        <ele>170.19999694824</ele>
        <time>2024-05-20T13:29:01.000Z</time>
      </trkpt>
      <trkpt lat="45.86457" lon="4.83999">
        <ele>170.19999694824</ele>
        <time>2024-05-20T13:29:02.000Z</time>
      </trkpt>
      <trkpt lat="45.8645" lon="4.84002">
        <ele>170.19999694824</ele>
        <time>2024-05-20T13:29:03.000Z</time>
      </trkpt>
      <trkpt lat="45.86444" lon="4.84004">
        <ele>170.19999694824</ele>
        <time>2024-05-20T13:29:04.000Z</time>
      </trkpt>
      <trkpt lat="45.86438" lon="4.84006">
        <ele>170.19999694824</ele>
        <time>2024-05-20T13:29:05.000Z</time>
      </trkpt>
      <trkpt lat="45.86431" lon="4.84008">
        <ele>170.19999694824</ele>
        <time>2024-05-20T13:29:06.000Z</time>
      </trkpt>
      <trkpt lat="45.86425" lon="4.8401">
        <ele>170</ele>
        <time>2024-05-20T13:29:07.000Z</time>
      </trkpt>
      <trkpt lat="45.86419" lon="4.84012">
        <ele>170</ele>
        <time>2024-05-20T13:29:08.000Z</time>
      </trkpt>
      <trkpt lat="45.86413" lon="4.84014">
        <ele>170</ele>
        <time>2024-05-20T13:29:09.000Z</time>
      </trkpt>
      <trkpt lat="45.86406" lon="4.84016">
        <ele>170</ele>
        <time>2024-05-20T13:29:10.000Z</time>
      </trkpt>
      <trkpt lat="45.864" lon="4.84018">
        <ele>170</ele>
        <time>2024-05-20T13:29:11.000Z</time>
      </trkpt>
      <trkpt lat="45.86394" lon="4.8402">
        <ele>170</ele>
        <time>2024-05-20T13:29:12.000Z</time>
      </trkpt>
      <trkpt lat="45.86387" lon="4.84021">
        <ele>170</ele>
        <time>2024-05-20T13:29:13.000Z</time>
      </trkpt>
      <trkpt lat="45.86381" lon="4.84023">
        <ele>170</ele>
        <time>2024-05-20T13:29:14.000Z</time>
      </trkpt>
      <trkpt lat="45.86375" lon="4.84025">
        <ele>170</ele>
        <time>2024-05-20T13:29:15.000Z</time>
      </trkpt>
      <trkpt lat="45.86369" lon="4.84026">
        <ele>170</ele>
        <time>2024-05-20T13:29:16.000Z</time>
      </trkpt>
      <trkpt lat="45.86362" lon="4.84027">
        <ele>170.19999694824</ele>
        <time>2024-05-20T13:29:17.000Z</time>
      </trkpt>
      <trkpt lat="45.86356" lon="4.84029">
        <ele>170.19999694824</ele>
        <time>2024-05-20T13:29:18.000Z</time>
      </trkpt>
      <trkpt lat="45.8635" lon="4.84031">
        <ele>170.19999694824</ele>
        <time>2024-05-20T13:29:19.000Z</time>
      </trkpt>
      <trkpt lat="45.86344" lon="4.84032">
        <ele>170.19999694824</ele>
        <time>2024-05-20T13:29:20.000Z</time>
      </trkpt>
      <trkpt lat="45.86338" lon="4.84034">
        <ele>170.19999694824</ele>
        <time>2024-05-20T13:29:21.000Z</time>
      </trkpt>
      <trkpt lat="45.86331" lon="4.84035">
        <ele>170</ele>
        <time>2024-05-20T13:29:22.000Z</time>
      </trkpt>
      <trkpt lat="45.86325" lon="4.84037">
        <ele>170</ele>
        <time>2024-05-20T13:29:23.000Z</time>
      </trkpt>
      <trkpt lat="45.86319" lon="4.84038">
        <ele>169.80000305176</ele>
        <time>2024-05-20T13:29:24.000Z</time>
      </trkpt>
      <trkpt lat="45.86313" lon="4.8404">
        <ele>169.39999389648</ele>
        <time>2024-05-20T13:29:25.000Z</time>
      </trkpt>
      <trkpt lat="45.86307" lon="4.84041">
        <ele>169.39999389648</ele>
        <time>2024-05-20T13:29:26.000Z</time>
      </trkpt>
      <trkpt lat="45.86301" lon="4.84043">
        <ele>169.39999389648</ele>
        <time>2024-05-20T13:29:27.000Z</time>
      </trkpt>
      <trkpt lat="45.86295" lon="4.84044">
        <ele>169.39999389648</ele>
        <time>2024-05-20T13:29:28.000Z</time>
      </trkpt>
      <trkpt lat="45.86289" lon="4.84045">
        <ele>169.39999389648</ele>
        <time>2024-05-20T13:29:29.000Z</time>
      </trkpt>
      <trkpt lat="45.86283" lon="4.84047">
        <ele>169.39999389648</ele>
        <time>2024-05-20T13:29:30.000Z</time>
      </trkpt>
      <trkpt lat="45.86277" lon="4.84048">
        <ele>169.39999389648</ele>
        <time>2024-05-20T13:29:31.000Z</time>
      </trkpt>
      <trkpt lat="45.86271" lon="4.8405">
        <ele>169.60000610352</ele>
        <time>2024-05-20T13:29:32.000Z</time>
      </trkpt>
      <trkpt lat="45.86265" lon="4.84052">
        <ele>169.80000305176</ele>
        <time>2024-05-20T13:29:33.000Z</time>
      </trkpt>
      <trkpt lat="45.86259" lon="4.84053">
        <ele>169.80000305176</ele>
        <time>2024-05-20T13:29:34.000Z</time>
      </trkpt>
      <trkpt lat="45.86252" lon="4.84054">
        <ele>169.80000305176</ele>
        <time>2024-05-20T13:29:35.000Z</time>
      </trkpt>
      <trkpt lat="45.86246" lon="4.84056">
        <ele>169.80000305176</ele>
        <time>2024-05-20T13:29:36.000Z</time>
      </trkpt>
      <trkpt lat="45.8624" lon="4.84057">
        <ele>169.80000305176</ele>
        <time>2024-05-20T13:29:37.000Z</time>
      </trkpt>
      <trkpt lat="45.86234" lon="4.84059">
        <ele>169.80000305176</ele>
        <time>2024-05-20T13:29:38.000Z</time>
      </trkpt>
      <trkpt lat="45.86227" lon="4.8406">
        <ele>169.80000305176</ele>
        <time>2024-05-20T13:29:39.000Z</time>
      </trkpt>
      <trkpt lat="45.86221" lon="4.84062">
        <ele>169.80000305176</ele>
        <time>2024-05-20T13:29:40.000Z</time>
      </trkpt>
      <trkpt lat="45.86215" lon="4.84063">
        <ele>169.80000305176</ele>
        <time>2024-05-20T13:29:41.000Z</time>
      </trkpt>
      <trkpt lat="45.86209" lon="4.84065">
        <ele>169.80000305176</ele>
        <time>2024-05-20T13:29:42.000Z</time>
      </trkpt>
      <trkpt lat="45.86203" lon="4.84066">
        <ele>169.80000305176</ele>
        <time>2024-05-20T13:29:43.000Z</time>
      </trkpt>
      <trkpt lat="45.86197" lon="4.84068">
        <ele>169.60000610352</ele>
        <time>2024-05-20T13:29:44.000Z</time>
      </trkpt>
      <trkpt lat="45.8619" lon="4.84069">
        <ele>169.60000610352</ele>
        <time>2024-05-20T13:29:45.000Z</time>
      </trkpt>
      <trkpt lat="45.86185" lon="4.84071">
        <ele>169.60000610352</ele>
        <time>2024-05-20T13:29:46.000Z</time>
      </trkpt>
      <trkpt lat="45.86178" lon="4.84073">
        <ele>169.60000610352</ele>
        <time>2024-05-20T13:29:47.000Z</time>
      </trkpt>
      <trkpt lat="45.86172" lon="4.84074">
        <ele>169.80000305176</ele>
        <time>2024-05-20T13:29:48.000Z</time>
      </trkpt>
      <trkpt lat="45.86166" lon="4.84076">
        <ele>169.80000305176</ele>
        <time>2024-05-20T13:29:49.000Z</time>
      </trkpt>
      <trkpt lat="45.8616" lon="4.84077">
        <ele>169.80000305176</ele>
        <time>2024-05-20T13:29:50.000Z</time>
      </trkpt>
      <trkpt lat="45.86154" lon="4.84079">
        <ele>169.80000305176</ele>
        <time>2024-05-20T13:29:51.000Z</time>
      </trkpt>
      <trkpt lat="45.86148" lon="4.84081">
        <ele>169.80000305176</ele>
        <time>2024-05-20T13:29:52.000Z</time>
      </trkpt>
      <trkpt lat="45.86142" lon="4.84082">
        <ele>169.80000305176</ele>
        <time>2024-05-20T13:29:53.000Z</time>
      </trkpt>
      <trkpt lat="45.86135" lon="4.84084">
        <ele>169.80000305176</ele>
        <time>2024-05-20T13:29:54.000Z</time>
      </trkpt>
      <trkpt lat="45.86129" lon="4.84085">
        <ele>169.80000305176</ele>
        <time>2024-05-20T13:29:55.000Z</time>
      </trkpt>
      <trkpt lat="45.86123" lon="4.84086">
        <ele>169.60000610352</ele>
        <time>2024-05-20T13:29:56.000Z</time>
      </trkpt>
      <trkpt lat="45.86117" lon="4.84088">
        <ele>169.60000610352</ele>
        <time>2024-05-20T13:29:57.000Z</time>
      </trkpt>
      <trkpt lat="45.8611" lon="4.84089">
        <ele>169.60000610352</ele>
        <time>2024-05-20T13:29:58.000Z</time>
      </trkpt>
      <trkpt lat="45.86104" lon="4.8409">
        <ele>169.19999694824</ele>
        <time>2024-05-20T13:29:59.000Z</time>
      </trkpt>
      <trkpt lat="45.86098" lon="4.84092">
        <ele>169.19999694824</ele>
        <time>2024-05-20T13:30:00.000Z</time>
      </trkpt>
      <trkpt lat="45.86092" lon="4.84094">
        <ele>169.19999694824</ele>
        <time>2024-05-20T13:30:01.000Z</time>
      </trkpt>
      <trkpt lat="45.86086" lon="4.84095">
        <ele>169.19999694824</ele>
        <time>2024-05-20T13:30:02.000Z</time>
      </trkpt>
      <trkpt lat="45.8608" lon="4.84096">
        <ele>169.19999694824</ele>
        <time>2024-05-20T13:30:03.000Z</time>
      </trkpt>
      <trkpt lat="45.86074" lon="4.84098">
        <ele>169.19999694824</ele>
        <time>2024-05-20T13:30:04.000Z</time>
      </trkpt>
      <trkpt lat="45.86068" lon="4.84099">
        <ele>169.19999694824</ele>
        <time>2024-05-20T13:30:05.000Z</time>
      </trkpt>
      <trkpt lat="45.86062" lon="4.84101">
        <ele>169.39999389648</ele>
        <time>2024-05-20T13:30:06.000Z</time>
      </trkpt>
      <trkpt lat="45.86056" lon="4.84103">
        <ele>169.39999389648</ele>
        <time>2024-05-20T13:30:07.000Z</time>
      </trkpt>
      <trkpt lat="45.8605" lon="4.84105">
        <ele>169.39999389648</ele>
        <time>2024-05-20T13:30:08.000Z</time>
      </trkpt>
      <trkpt lat="45.86044" lon="4.84106">
        <ele>169.39999389648</ele>
        <time>2024-05-20T13:30:09.000Z</time>
      </trkpt>
      <trkpt lat="45.86038" lon="4.84108">
        <ele>169.39999389648</ele>
        <time>2024-05-20T13:30:10.000Z</time>
      </trkpt>
      <trkpt lat="45.86032" lon="4.84109">
        <ele>169.39999389648</ele>
        <time>2024-05-20T13:30:11.000Z</time>
      </trkpt>
      <trkpt lat="45.86026" lon="4.84111">
        <ele>169.39999389648</ele>
        <time>2024-05-20T13:30:12.000Z</time>
      </trkpt>
      <trkpt lat="45.8602" lon="4.84112">
        <ele>169.39999389648</ele>
        <time>2024-05-20T13:30:13.000Z</time>
      </trkpt>
      <trkpt lat="45.86014" lon="4.84114">
        <ele>169.39999389648</ele>
        <time>2024-05-20T13:30:14.000Z</time>
      </trkpt>
      <trkpt lat="45.86007" lon="4.84116">
        <ele>169.39999389648</ele>
        <time>2024-05-20T13:30:15.000Z</time>
      </trkpt>
      <trkpt lat="45.86001" lon="4.84117">
        <ele>169.39999389648</ele>
        <time>2024-05-20T13:30:16.000Z</time>
      </trkpt>
      <trkpt lat="45.85995" lon="4.84119">
        <ele>169.39999389648</ele>
        <time>2024-05-20T13:30:17.000Z</time>
      </trkpt>
      <trkpt lat="45.85988" lon="4.84121">
        <ele>169.19999694824</ele>
        <time>2024-05-20T13:30:18.000Z</time>
      </trkpt>
      <trkpt lat="45.85981" lon="4.84122">
        <ele>169</ele>
        <time>2024-05-20T13:30:19.000Z</time>
      </trkpt>
      <trkpt lat="45.85975" lon="4.84123">
        <ele>169</ele>
        <time>2024-05-20T13:30:20.000Z</time>
      </trkpt>
      <trkpt lat="45.85969" lon="4.84124">
        <ele>169</ele>
        <time>2024-05-20T13:30:21.000Z</time>
      </trkpt>
      <trkpt lat="45.85962" lon="4.84125">
        <ele>169</ele>
        <time>2024-05-20T13:30:22.000Z</time>
      </trkpt>
      <trkpt lat="45.85955" lon="4.84126">
        <ele>169</ele>
        <time>2024-05-20T13:30:23.000Z</time>
      </trkpt>
      <trkpt lat="45.85949" lon="4.84127">
        <ele>169.19999694824</ele>
        <time>2024-05-20T13:30:24.000Z</time>
      </trkpt>
      <trkpt lat="45.85942" lon="4.84128">
        <ele>169.39999389648</ele>
        <time>2024-05-20T13:30:25.000Z</time>
      </trkpt>
      <trkpt lat="45.85936" lon="4.84128">
        <ele>169.39999389648</ele>
        <time>2024-05-20T13:30:26.000Z</time>
      </trkpt>
      <trkpt lat="45.85929" lon="4.84129">
        <ele>169.39999389648</ele>
        <time>2024-05-20T13:30:27.000Z</time>
      </trkpt>
      <trkpt lat="45.85923" lon="4.84128">
        <ele>169.39999389648</ele>
        <time>2024-05-20T13:30:28.000Z</time>
      </trkpt>
      <trkpt lat="45.85916" lon="4.84128">
        <ele>169.39999389648</ele>
        <time>2024-05-20T13:30:29.000Z</time>
      </trkpt>
      <trkpt lat="45.8591" lon="4.84127">
        <ele>169.39999389648</ele>
        <time>2024-05-20T13:30:30.000Z</time>
      </trkpt>
      <trkpt lat="45.85903" lon="4.84127">
        <ele>169.19999694824</ele>
        <time>2024-05-20T13:30:31.000Z</time>
      </trkpt>
      <trkpt lat="45.85897" lon="4.84126">
        <ele>169</ele>
        <time>2024-05-20T13:30:32.000Z</time>
      </trkpt>
      <trkpt lat="45.85891" lon="4.84125">
        <ele>168.80000305176</ele>
        <time>2024-05-20T13:30:33.000Z</time>
      </trkpt>
      <trkpt lat="45.85884" lon="4.84124">
        <ele>168.39999389648</ele>
        <time>2024-05-20T13:30:34.000Z</time>
      </trkpt>
      <trkpt lat="45.85878" lon="4.84122">
        <ele>168.39999389648</ele>
        <time>2024-05-20T13:30:35.000Z</time>
      </trkpt>
      <trkpt lat="45.85872" lon="4.8412">
        <ele>168.39999389648</ele>
        <time>2024-05-20T13:30:36.000Z</time>
      </trkpt>
      <trkpt lat="45.85866" lon="4.84118">
        <ele>168.39999389648</ele>
        <time>2024-05-20T13:30:37.000Z</time>
      </trkpt>
      <trkpt lat="45.8586" lon="4.84116">
        <ele>168.39999389648</ele>
        <time>2024-05-20T13:30:38.000Z</time>
      </trkpt>
      <trkpt lat="45.85854" lon="4.84114">
        <ele>168.39999389648</ele>
        <time>2024-05-20T13:30:39.000Z</time>
      </trkpt>
      <trkpt lat="45.85848" lon="4.84112">
        <ele>168.80000305176</ele>
        <time>2024-05-20T13:30:40.000Z</time>
      </trkpt>
      <trkpt lat="45.85842" lon="4.84109">
        <ele>168.80000305176</ele>
        <time>2024-05-20T13:30:41.000Z</time>
      </trkpt>
      <trkpt lat="45.85836" lon="4.84106">
        <ele>168.80000305176</ele>
        <time>2024-05-20T13:30:42.000Z</time>
      </trkpt>
      <trkpt lat="45.8583" lon="4.84103">
        <ele>169</ele>
        <time>2024-05-20T13:30:43.000Z</time>
      </trkpt>
      <trkpt lat="45.85824" lon="4.841">
        <ele>169.19999694824</ele>
        <time>2024-05-20T13:30:44.000Z</time>
      </trkpt>
      <trkpt lat="45.85819" lon="4.84098">
        <ele>169.19999694824</ele>
        <time>2024-05-20T13:30:45.000Z</time>
      </trkpt>
      <trkpt lat="45.85813" lon="4.84095">
        <ele>169.19999694824</ele>
        <time>2024-05-20T13:30:46.000Z</time>
      </trkpt>
      <trkpt lat="45.85807" lon="4.84092">
        <ele>169.19999694824</ele>
        <time>2024-05-20T13:30:47.000Z</time>
      </trkpt>
      <trkpt lat="45.85801" lon="4.84089">
        <ele>169.19999694824</ele>
        <time>2024-05-20T13:30:48.000Z</time>
      </trkpt>
      <trkpt lat="45.85795" lon="4.84086">
        <ele>169.19999694824</ele>
        <time>2024-05-20T13:30:49.000Z</time>
      </trkpt>
      <trkpt lat="45.85789" lon="4.84083">
        <ele>169.19999694824</ele>
        <time>2024-05-20T13:30:50.000Z</time>
      </trkpt>
      <trkpt lat="45.85784" lon="4.8408">
        <ele>169.19999694824</ele>
        <time>2024-05-20T13:30:51.000Z</time>
      </trkpt>
      <trkpt lat="45.85778" lon="4.84077">
        <ele>169.19999694824</ele>
        <time>2024-05-20T13:30:52.000Z</time>
      </trkpt>
      <trkpt lat="45.85772" lon="4.84074">
        <ele>169.19999694824</ele>
        <time>2024-05-20T13:30:53.000Z</time>
      </trkpt>
      <trkpt lat="45.85766" lon="4.84071">
        <ele>169.19999694824</ele>
        <time>2024-05-20T13:30:54.000Z</time>
      </trkpt>
      <trkpt lat="45.8576" lon="4.84069">
        <ele>169.19999694824</ele>
        <time>2024-05-20T13:30:55.000Z</time>
      </trkpt>
      <trkpt lat="45.85753" lon="4.84066">
        <ele>169.39999389648</ele>
        <time>2024-05-20T13:30:56.000Z</time>
      </trkpt>
      <trkpt lat="45.85748" lon="4.84064">
        <ele>169.60000610352</ele>
        <time>2024-05-20T13:30:57.000Z</time>
      </trkpt>
      <trkpt lat="45.85742" lon="4.84061">
        <ele>169.80000305176</ele>
        <time>2024-05-20T13:30:58.000Z</time>
      </trkpt>
      <trkpt lat="45.85736" lon="4.84059">
        <ele>169.80000305176</ele>
        <time>2024-05-20T13:30:59.000Z</time>
      </trkpt>
      <trkpt lat="45.8573" lon="4.84056">
        <ele>169.80000305176</ele>
        <time>2024-05-20T13:31:00.000Z</time>
      </trkpt>
      <trkpt lat="45.85724" lon="4.84053">
        <ele>169.80000305176</ele>
        <time>2024-05-20T13:31:01.000Z</time>
      </trkpt>
      <trkpt lat="45.85717" lon="4.8405">
        <ele>169.80000305176</ele>
        <time>2024-05-20T13:31:02.000Z</time>
      </trkpt>
      <trkpt lat="45.85711" lon="4.84047">
        <ele>169.80000305176</ele>
        <time>2024-05-20T13:31:03.000Z</time>
      </trkpt>
      <trkpt lat="45.85705" lon="4.84044">
        <ele>169.80000305176</ele>
        <time>2024-05-20T13:31:04.000Z</time>
      </trkpt>
      <trkpt lat="45.85699" lon="4.84042">
        <ele>169.80000305176</ele>
        <time>2024-05-20T13:31:05.000Z</time>
      </trkpt>
      <trkpt lat="45.85692" lon="4.84038">
        <ele>169.80000305176</ele>
        <time>2024-05-20T13:31:06.000Z</time>
      </trkpt>
      <trkpt lat="45.85686" lon="4.84035">
        <ele>169.80000305176</ele>
        <time>2024-05-20T13:31:07.000Z</time>
      </trkpt>
      <trkpt lat="45.8568" lon="4.84032">
        <ele>169.80000305176</ele>
        <time>2024-05-20T13:31:08.000Z</time>
      </trkpt>
      <trkpt lat="45.85673" lon="4.84029">
        <ele>169.80000305176</ele>
        <time>2024-05-20T13:31:09.000Z</time>
      </trkpt>
      <trkpt lat="45.85666" lon="4.84026">
        <ele>169.80000305176</ele>
        <time>2024-05-20T13:31:10.000Z</time>
      </trkpt>
      <trkpt lat="45.8566" lon="4.84023">
        <ele>169.80000305176</ele>
        <time>2024-05-20T13:31:11.000Z</time>
      </trkpt>
      <trkpt lat="45.85653" lon="4.84019">
        <ele>169.80000305176</ele>
        <time>2024-05-20T13:31:12.000Z</time>
      </trkpt>
      <trkpt lat="45.85647" lon="4.84016">
        <ele>169.80000305176</ele>
        <time>2024-05-20T13:31:13.000Z</time>
      </trkpt>
      <trkpt lat="45.85641" lon="4.84014">
        <ele>169.60000610352</ele>
        <time>2024-05-20T13:31:14.000Z</time>
      </trkpt>
      <trkpt lat="45.85635" lon="4.84011">
        <ele>169.60000610352</ele>
        <time>2024-05-20T13:31:15.000Z</time>
      </trkpt>
      <trkpt lat="45.85629" lon="4.84007">
        <ele>169.60000610352</ele>
        <time>2024-05-20T13:31:16.000Z</time>
      </trkpt>
      <trkpt lat="45.85623" lon="4.84004">
        <ele>169.39999389648</ele>
        <time>2024-05-20T13:31:17.000Z</time>
      </trkpt>
      <trkpt lat="45.85616" lon="4.84001">
        <ele>169.39999389648</ele>
        <time>2024-05-20T13:31:18.000Z</time>
      </trkpt>
      <trkpt lat="45.8561" lon="4.83998">
        <ele>169.39999389648</ele>
        <time>2024-05-20T13:31:19.000Z</time>
      </trkpt>
      <trkpt lat="45.85603" lon="4.83994">
        <ele>169.39999389648</ele>
        <time>2024-05-20T13:31:20.000Z</time>
      </trkpt>
      <trkpt lat="45.85597" lon="4.83991">
        <ele>169.39999389648</ele>
        <time>2024-05-20T13:31:21.000Z</time>
      </trkpt>
      <trkpt lat="45.8559" lon="4.83987">
        <ele>169.39999389648</ele>
        <time>2024-05-20T13:31:22.000Z</time>
      </trkpt>
      <trkpt lat="45.85584" lon="4.83984">
        <ele>169.39999389648</ele>
        <time>2024-05-20T13:31:23.000Z</time>
      </trkpt>
      <trkpt lat="45.85577" lon="4.8398">
        <ele>169.39999389648</ele>
        <time>2024-05-20T13:31:24.000Z</time>
      </trkpt>
      <trkpt lat="45.85571" lon="4.83976">
        <ele>169.39999389648</ele>
        <time>2024-05-20T13:31:25.000Z</time>
      </trkpt>
      <trkpt lat="45.85564" lon="4.83973">
        <ele>169.39999389648</ele>
        <time>2024-05-20T13:31:26.000Z</time>
      </trkpt>
      <trkpt lat="45.85558" lon="4.8397">
        <ele>169.39999389648</ele>
        <time>2024-05-20T13:31:27.000Z</time>
      </trkpt>
      <trkpt lat="45.85551" lon="4.83967">
        <ele>169.39999389648</ele>
        <time>2024-05-20T13:31:28.000Z</time>
      </trkpt>
      <trkpt lat="45.85545" lon="4.83963">
        <ele>169.39999389648</ele>
        <time>2024-05-20T13:31:29.000Z</time>
      </trkpt>
      <trkpt lat="45.85538" lon="4.8396">
        <ele>169.39999389648</ele>
        <time>2024-05-20T13:31:30.000Z</time>
      </trkpt>
      <trkpt lat="45.85531" lon="4.83957">
        <ele>169.39999389648</ele>
        <time>2024-05-20T13:31:31.000Z</time>
      </trkpt>
      <trkpt lat="45.85525" lon="4.83954">
        <ele>169.39999389648</ele>
        <time>2024-05-20T13:31:32.000Z</time>
      </trkpt>
      <trkpt lat="45.85519" lon="4.8395">
        <ele>169.60000610352</ele>
        <time>2024-05-20T13:31:33.000Z</time>
      </trkpt>
      <trkpt lat="45.85512" lon="4.83947">
        <ele>169.60000610352</ele>
        <time>2024-05-20T13:31:34.000Z</time>
      </trkpt>
      <trkpt lat="45.85506" lon="4.83943">
        <ele>169.60000610352</ele>
        <time>2024-05-20T13:31:35.000Z</time>
      </trkpt>
      <trkpt lat="45.85499" lon="4.8394">
        <ele>169.60000610352</ele>
        <time>2024-05-20T13:31:36.000Z</time>
      </trkpt>
      <trkpt lat="45.85493" lon="4.83937">
        <ele>169.60000610352</ele>
        <time>2024-05-20T13:31:37.000Z</time>
      </trkpt>
      <trkpt lat="45.85487" lon="4.83934">
        <ele>169.80000305176</ele>
        <time>2024-05-20T13:31:38.000Z</time>
      </trkpt>
      <trkpt lat="45.85481" lon="4.83931">
        <ele>169.80000305176</ele>
        <time>2024-05-20T13:31:39.000Z</time>
      </trkpt>
      <trkpt lat="45.85475" lon="4.83928">
        <ele>169.80000305176</ele>
        <time>2024-05-20T13:31:40.000Z</time>
      </trkpt>
      <trkpt lat="45.85469" lon="4.83925">
        <ele>169.80000305176</ele>
        <time>2024-05-20T13:31:41.000Z</time>
      </trkpt>
      <trkpt lat="45.85463" lon="4.83922">
        <ele>169.80000305176</ele>
        <time>2024-05-20T13:31:42.000Z</time>
      </trkpt>
      <trkpt lat="45.85458" lon="4.83919">
        <ele>170</ele>
        <time>2024-05-20T13:31:43.000Z</time>
      </trkpt>
      <trkpt lat="45.85452" lon="4.83915">
        <ele>170</ele>
        <time>2024-05-20T13:31:44.000Z</time>
      </trkpt>
      <trkpt lat="45.85447" lon="4.83912">
        <ele>170</ele>
        <time>2024-05-20T13:31:45.000Z</time>
      </trkpt>
      <trkpt lat="45.85441" lon="4.83909">
        <ele>170.19999694824</ele>
        <time>2024-05-20T13:31:46.000Z</time>
      </trkpt>
      <trkpt lat="45.85435" lon="4.83907">
        <ele>170.19999694824</ele>
        <time>2024-05-20T13:31:47.000Z</time>
      </trkpt>
      <trkpt lat="45.85429" lon="4.83904">
        <ele>170</ele>
        <time>2024-05-20T13:31:48.000Z</time>
      </trkpt>
      <trkpt lat="45.85423" lon="4.83901">
        <ele>170</ele>
        <time>2024-05-20T13:31:49.000Z</time>
      </trkpt>
      <trkpt lat="45.85417" lon="4.83898">
        <ele>170</ele>
        <time>2024-05-20T13:31:50.000Z</time>
      </trkpt>
      <trkpt lat="45.8541" lon="4.83896">
        <ele>169.80000305176</ele>
        <time>2024-05-20T13:31:51.000Z</time>
      </trkpt>
      <trkpt lat="45.85404" lon="4.83893">
        <ele>169.80000305176</ele>
        <time>2024-05-20T13:31:52.000Z</time>
      </trkpt>
      <trkpt lat="45.85398" lon="4.8389">
        <ele>169.80000305176</ele>
        <time>2024-05-20T13:31:53.000Z</time>
      </trkpt>
      <trkpt lat="45.85392" lon="4.83887">
        <ele>169.80000305176</ele>
        <time>2024-05-20T13:31:54.000Z</time>
      </trkpt>
      <trkpt lat="45.85387" lon="4.83884">
        <ele>169.80000305176</ele>
        <time>2024-05-20T13:31:55.000Z</time>
      </trkpt>
      <trkpt lat="45.85381" lon="4.83882">
        <ele>169.60000610352</ele>
        <time>2024-05-20T13:31:56.000Z</time>
      </trkpt>
      <trkpt lat="45.85375" lon="4.83879">
        <ele>169.60000610352</ele>
        <time>2024-05-20T13:31:57.000Z</time>
      </trkpt>
      <trkpt lat="45.85369" lon="4.83876">
        <ele>169.60000610352</ele>
        <time>2024-05-20T13:31:58.000Z</time>
      </trkpt>
      <trkpt lat="45.85363" lon="4.83873">
        <ele>169.60000610352</ele>
        <time>2024-05-20T13:31:59.000Z</time>
      </trkpt>
      <trkpt lat="45.85357" lon="4.8387">
        <ele>169.39999389648</ele>
        <time>2024-05-20T13:32:00.000Z</time>
      </trkpt>
      <trkpt lat="45.85351" lon="4.83867">
        <ele>169.39999389648</ele>
        <time>2024-05-20T13:32:01.000Z</time>
      </trkpt>
      <trkpt lat="45.85345" lon="4.83864">
        <ele>169.60000610352</ele>
        <time>2024-05-20T13:32:02.000Z</time>
      </trkpt>
      <trkpt lat="45.85339" lon="4.83861">
        <ele>169.60000610352</ele>
        <time>2024-05-20T13:32:03.000Z</time>
      </trkpt>
      <trkpt lat="45.85333" lon="4.83858">
        <ele>169.39999389648</ele>
        <time>2024-05-20T13:32:04.000Z</time>
      </trkpt>
      <trkpt lat="45.85327" lon="4.83856">
        <ele>169.39999389648</ele>
        <time>2024-05-20T13:32:05.000Z</time>
      </trkpt>
      <trkpt lat="45.85322" lon="4.83853">
        <ele>169.39999389648</ele>
        <time>2024-05-20T13:32:06.000Z</time>
      </trkpt>
      <trkpt lat="45.85315" lon="4.8385">
        <ele>169.39999389648</ele>
        <time>2024-05-20T13:32:07.000Z</time>
      </trkpt>
      <trkpt lat="45.85309" lon="4.83848">
        <ele>169.39999389648</ele>
        <time>2024-05-20T13:32:08.000Z</time>
      </trkpt>
      <trkpt lat="45.85303" lon="4.83845">
        <ele>169.39999389648</ele>
        <time>2024-05-20T13:32:09.000Z</time>
      </trkpt>
      <trkpt lat="45.85297" lon="4.83843">
        <ele>169.39999389648</ele>
        <time>2024-05-20T13:32:10.000Z</time>
      </trkpt>
      <trkpt lat="45.85291" lon="4.83841">
        <ele>169.39999389648</ele>
        <time>2024-05-20T13:32:11.000Z</time>
      </trkpt>
      <trkpt lat="45.85285" lon="4.83839">
        <ele>169.60000610352</ele>
        <time>2024-05-20T13:32:12.000Z</time>
      </trkpt>
      <trkpt lat="45.85279" lon="4.83837">
        <ele>169.60000610352</ele>
        <time>2024-05-20T13:32:13.000Z</time>
      </trkpt>
      <trkpt lat="45.85273" lon="4.83836">
        <ele>169.60000610352</ele>
        <time>2024-05-20T13:32:14.000Z</time>
      </trkpt>
      <trkpt lat="45.85266" lon="4.83834">
        <ele>169.60000610352</ele>
        <time>2024-05-20T13:32:15.000Z</time>
      </trkpt>
      <trkpt lat="45.8526" lon="4.83832">
        <ele>169.80000305176</ele>
        <time>2024-05-20T13:32:16.000Z</time>
      </trkpt>
      <trkpt lat="45.85253" lon="4.8383">
        <ele>169.80000305176</ele>
        <time>2024-05-20T13:32:17.000Z</time>
      </trkpt>
      <trkpt lat="45.85247" lon="4.83828">
        <ele>169.80000305176</ele>
        <time>2024-05-20T13:32:18.000Z</time>
      </trkpt>
      <trkpt lat="45.85241" lon="4.83826">
        <ele>170</ele>
        <time>2024-05-20T13:32:19.000Z</time>
      </trkpt>
      <trkpt lat="45.85235" lon="4.83825">
        <ele>170</ele>
        <time>2024-05-20T13:32:20.000Z</time>
      </trkpt>
      <trkpt lat="45.85228" lon="4.83823">
        <ele>170</ele>
        <time>2024-05-20T13:32:21.000Z</time>
      </trkpt>
      <trkpt lat="45.85221" lon="4.83821">
        <ele>170</ele>
        <time>2024-05-20T13:32:22.000Z</time>
      </trkpt>
      <trkpt lat="45.85214" lon="4.83819">
        <ele>170</ele>
        <time>2024-05-20T13:32:23.000Z</time>
      </trkpt>
      <trkpt lat="45.85208" lon="4.83818">
        <ele>170.19999694824</ele>
        <time>2024-05-20T13:32:24.000Z</time>
      </trkpt>
      <trkpt lat="45.85201" lon="4.83815">
        <ele>170.19999694824</ele>
        <time>2024-05-20T13:32:25.000Z</time>
      </trkpt>
      <trkpt lat="45.85194" lon="4.83814">
        <ele>170.19999694824</ele>
        <time>2024-05-20T13:32:26.000Z</time>
      </trkpt>
      <trkpt lat="45.85188" lon="4.83812">
        <ele>170.19999694824</ele>
        <time>2024-05-20T13:32:27.000Z</time>
      </trkpt>
      <trkpt lat="45.85181" lon="4.8381">
        <ele>170.19999694824</ele>
        <time>2024-05-20T13:32:28.000Z</time>
      </trkpt>
      <trkpt lat="45.85174" lon="4.83808">
        <ele>170.19999694824</ele>
        <time>2024-05-20T13:32:29.000Z</time>
      </trkpt>
      <trkpt lat="45.85168" lon="4.83806">
        <ele>170.19999694824</ele>
        <time>2024-05-20T13:32:30.000Z</time>
      </trkpt>
      <trkpt lat="45.85161" lon="4.83805">
        <ele>170.19999694824</ele>
        <time>2024-05-20T13:32:31.000Z</time>
      </trkpt>
      <trkpt lat="45.85155" lon="4.83803">
        <ele>170.19999694824</ele>
        <time>2024-05-20T13:32:32.000Z</time>
      </trkpt>
      <trkpt lat="45.85148" lon="4.83802">
        <ele>170.19999694824</ele>
        <time>2024-05-20T13:32:33.000Z</time>
      </trkpt>
      <trkpt lat="45.85142" lon="4.838">
        <ele>170.19999694824</ele>
        <time>2024-05-20T13:32:34.000Z</time>
      </trkpt>
      <trkpt lat="45.85135" lon="4.83798">
        <ele>170.19999694824</ele>
        <time>2024-05-20T13:32:35.000Z</time>
      </trkpt>
      <trkpt lat="45.85129" lon="4.83797">
        <ele>170.19999694824</ele>
        <time>2024-05-20T13:32:36.000Z</time>
      </trkpt>
      <trkpt lat="45.85123" lon="4.83795">
        <ele>170.19999694824</ele>
        <time>2024-05-20T13:32:37.000Z</time>
      </trkpt>
      <trkpt lat="45.85116" lon="4.83793">
        <ele>170</ele>
        <time>2024-05-20T13:32:38.000Z</time>
      </trkpt>
      <trkpt lat="45.8511" lon="4.83791">
        <ele>169.80000305176</ele>
        <time>2024-05-20T13:32:39.000Z</time>
      </trkpt>
      <trkpt lat="45.85103" lon="4.83789">
        <ele>169.60000610352</ele>
        <time>2024-05-20T13:32:40.000Z</time>
      </trkpt>
      <trkpt lat="45.85097" lon="4.83787">
        <ele>169.60000610352</ele>
        <time>2024-05-20T13:32:41.000Z</time>
      </trkpt>
      <trkpt lat="45.8509" lon="4.83785">
        <ele>169.60000610352</ele>
        <time>2024-05-20T13:32:42.000Z</time>
      </trkpt>
      <trkpt lat="45.85084" lon="4.83783">
        <ele>169.60000610352</ele>
        <time>2024-05-20T13:32:43.000Z</time>
      </trkpt>
      <trkpt lat="45.85078" lon="4.83781">
        <ele>169.80000305176</ele>
        <time>2024-05-20T13:32:44.000Z</time>
      </trkpt>
      <trkpt lat="45.85072" lon="4.83779">
        <ele>170</ele>
        <time>2024-05-20T13:32:45.000Z</time>
      </trkpt>
      <trkpt lat="45.85066" lon="4.83776">
        <ele>169.80000305176</ele>
        <time>2024-05-20T13:32:46.000Z</time>
      </trkpt>
      <trkpt lat="45.8506" lon="4.83774">
        <ele>169.80000305176</ele>
        <time>2024-05-20T13:32:47.000Z</time>
      </trkpt>
      <trkpt lat="45.85054" lon="4.83772">
        <ele>169.80000305176</ele>
        <time>2024-05-20T13:32:48.000Z</time>
      </trkpt>
      <trkpt lat="45.85048" lon="4.8377">
        <ele>169.60000610352</ele>
        <time>2024-05-20T13:32:49.000Z</time>
      </trkpt>
      <trkpt lat="45.85043" lon="4.83768">
        <ele>169.60000610352</ele>
        <time>2024-05-20T13:32:50.000Z</time>
      </trkpt>
      <trkpt lat="45.85037" lon="4.83766">
        <ele>169.60000610352</ele>
        <time>2024-05-20T13:32:51.000Z</time>
      </trkpt>
      <trkpt lat="45.85031" lon="4.83764">
        <ele>169.60000610352</ele>
        <time>2024-05-20T13:32:52.000Z</time>
      </trkpt>
      <trkpt lat="45.85025" lon="4.83762">
        <ele>169.60000610352</ele>
        <time>2024-05-20T13:32:53.000Z</time>
      </trkpt>
      <trkpt lat="45.8502" lon="4.8376">
        <ele>169.60000610352</ele>
        <time>2024-05-20T13:32:54.000Z</time>
      </trkpt>
      <trkpt lat="45.85015" lon="4.83757">
        <ele>169.60000610352</ele>
        <time>2024-05-20T13:32:55.000Z</time>
      </trkpt>
      <trkpt lat="45.85011" lon="4.83755">
        <ele>169.60000610352</ele>
        <time>2024-05-20T13:32:56.000Z</time>
      </trkpt>
      <trkpt lat="45.85006" lon="4.83752">
        <ele>169.60000610352</ele>
        <time>2024-05-20T13:32:57.000Z</time>
      </trkpt>
      <trkpt lat="45.85001" lon="4.8375">
        <ele>169.60000610352</ele>
        <time>2024-05-20T13:32:58.000Z</time>
      </trkpt>
      <trkpt lat="45.84996" lon="4.83747">
        <ele>169.60000610352</ele>
        <time>2024-05-20T13:32:59.000Z</time>
      </trkpt>
      <trkpt lat="45.84992" lon="4.83744">
        <ele>169.60000610352</ele>
        <time>2024-05-20T13:33:00.000Z</time>
      </trkpt>
      <trkpt lat="45.84987" lon="4.8374">
        <ele>169.80000305176</ele>
        <time>2024-05-20T13:33:01.000Z</time>
      </trkpt>
      <trkpt lat="45.84984" lon="4.83735">
        <ele>169.80000305176</ele>
        <time>2024-05-20T13:33:02.000Z</time>
      </trkpt>
      <trkpt lat="45.8498" lon="4.83729">
        <ele>170.19999694824</ele>
        <time>2024-05-20T13:33:03.000Z</time>
      </trkpt>
      <trkpt lat="45.84975" lon="4.83725">
        <ele>170.19999694824</ele>
        <time>2024-05-20T13:33:04.000Z</time>
      </trkpt>
      <trkpt lat="45.8497" lon="4.83724">
        <ele>170.39999389648</ele>
        <time>2024-05-20T13:33:05.000Z</time>
      </trkpt>
      <trkpt lat="45.84964" lon="4.83725">
        <ele>170.39999389648</ele>
        <time>2024-05-20T13:33:06.000Z</time>
      </trkpt>
      <trkpt lat="45.8496" lon="4.83727">
        <ele>170.39999389648</ele>
        <time>2024-05-20T13:33:07.000Z</time>
      </trkpt>
      <trkpt lat="45.84955" lon="4.83729">
        <ele>170.39999389648</ele>
        <time>2024-05-20T13:33:08.000Z</time>
      </trkpt>
      <trkpt lat="45.84949" lon="4.83728">
        <ele>170.39999389648</ele>
        <time>2024-05-20T13:33:09.000Z</time>
      </trkpt>
      <trkpt lat="45.84944" lon="4.83726">
        <ele>170.39999389648</ele>
        <time>2024-05-20T13:33:10.000Z</time>
      </trkpt>
      <trkpt lat="45.84939" lon="4.83724">
        <ele>170.39999389648</ele>
        <time>2024-05-20T13:33:11.000Z</time>
      </trkpt>
      <trkpt lat="45.84934" lon="4.83722">
        <ele>170.39999389648</ele>
        <time>2024-05-20T13:33:12.000Z</time>
      </trkpt>
      <trkpt lat="45.84928" lon="4.83719">
        <ele>170.39999389648</ele>
        <time>2024-05-20T13:33:13.000Z</time>
      </trkpt>
      <trkpt lat="45.84923" lon="4.83716">
        <ele>170.39999389648</ele>
        <time>2024-05-20T13:33:14.000Z</time>
      </trkpt>
      <trkpt lat="45.84918" lon="4.83713">
        <ele>170.39999389648</ele>
        <time>2024-05-20T13:33:15.000Z</time>
      </trkpt>
      <trkpt lat="45.84912" lon="4.83711">
        <ele>170.39999389648</ele>
        <time>2024-05-20T13:33:16.000Z</time>
      </trkpt>
      <trkpt lat="45.84906" lon="4.83707">
        <ele>170.39999389648</ele>
        <time>2024-05-20T13:33:17.000Z</time>
      </trkpt>
      <trkpt lat="45.84901" lon="4.83704">
        <ele>170.39999389648</ele>
        <time>2024-05-20T13:33:18.000Z</time>
      </trkpt>
      <trkpt lat="45.84895" lon="4.83702">
        <ele>170.19999694824</ele>
        <time>2024-05-20T13:33:19.000Z</time>
      </trkpt>
      <trkpt lat="45.84889" lon="4.83699">
        <ele>170</ele>
        <time>2024-05-20T13:33:20.000Z</time>
      </trkpt>
      <trkpt lat="45.84884" lon="4.83696">
        <ele>169.80000305176</ele>
        <time>2024-05-20T13:33:21.000Z</time>
      </trkpt>
      <trkpt lat="45.84878" lon="4.83692">
        <ele>169.80000305176</ele>
        <time>2024-05-20T13:33:22.000Z</time>
      </trkpt>
      <trkpt lat="45.84872" lon="4.83689">
        <ele>169.60000610352</ele>
        <time>2024-05-20T13:33:23.000Z</time>
      </trkpt>
      <trkpt lat="45.84866" lon="4.83685">
        <ele>169.60000610352</ele>
        <time>2024-05-20T13:33:24.000Z</time>
      </trkpt>
      <trkpt lat="45.8486" lon="4.83682">
        <ele>169.60000610352</ele>
        <time>2024-05-20T13:33:25.000Z</time>
      </trkpt>
      <trkpt lat="45.84854" lon="4.83679">
        <ele>169.60000610352</ele>
        <time>2024-05-20T13:33:26.000Z</time>
      </trkpt>
      <trkpt lat="45.84848" lon="4.83676">
        <ele>169.60000610352</ele>
        <time>2024-05-20T13:33:27.000Z</time>
      </trkpt>
      <trkpt lat="45.84842" lon="4.83673">
        <ele>169.80000305176</ele>
        <time>2024-05-20T13:33:28.000Z</time>
      </trkpt>
      <trkpt lat="45.84836" lon="4.83669">
        <ele>170</ele>
        <time>2024-05-20T13:33:29.000Z</time>
      </trkpt>
      <trkpt lat="45.8483" lon="4.83666">
        <ele>170.19999694824</ele>
        <time>2024-05-20T13:33:30.000Z</time>
      </trkpt>
      <trkpt lat="45.84824" lon="4.83662">
        <ele>170.19999694824</ele>
        <time>2024-05-20T13:33:31.000Z</time>
      </trkpt>
      <trkpt lat="45.84818" lon="4.83659">
        <ele>170.19999694824</ele>
        <time>2024-05-20T13:33:32.000Z</time>
      </trkpt>
      <trkpt lat="45.84812" lon="4.83656">
        <ele>170.19999694824</ele>
        <time>2024-05-20T13:33:33.000Z</time>
      </trkpt>
      <trkpt lat="45.84806" lon="4.83653">
        <ele>170.19999694824</ele>
        <time>2024-05-20T13:33:34.000Z</time>
      </trkpt>
      <trkpt lat="45.848" lon="4.8365">
        <ele>170</ele>
        <time>2024-05-20T13:33:35.000Z</time>
      </trkpt>
      <trkpt lat="45.84795" lon="4.83648">
        <ele>170</ele>
        <time>2024-05-20T13:33:36.000Z</time>
      </trkpt>
      <trkpt lat="45.84789" lon="4.83645">
        <ele>170</ele>
        <time>2024-05-20T13:33:37.000Z</time>
      </trkpt>
      <trkpt lat="45.84784" lon="4.83642">
        <ele>170</ele>
        <time>2024-05-20T13:33:38.000Z</time>
      </trkpt>
      <trkpt lat="45.84778" lon="4.83639">
        <ele>170</ele>
        <time>2024-05-20T13:33:39.000Z</time>
      </trkpt>
      <trkpt lat="45.84773" lon="4.83636">
        <ele>170</ele>
        <time>2024-05-20T13:33:40.000Z</time>
      </trkpt>
      <trkpt lat="45.84768" lon="4.83634">
        <ele>170</ele>
        <time>2024-05-20T13:33:41.000Z</time>
      </trkpt>
      <trkpt lat="45.84762" lon="4.83631">
        <ele>170</ele>
        <time>2024-05-20T13:33:42.000Z</time>
      </trkpt>
      <trkpt lat="45.84757" lon="4.83628">
        <ele>170</ele>
        <time>2024-05-20T13:33:43.000Z</time>
      </trkpt>
      <trkpt lat="45.84751" lon="4.83625">
        <ele>170</ele>
        <time>2024-05-20T13:33:44.000Z</time>
      </trkpt>
      <trkpt lat="45.84746" lon="4.83622">
        <ele>169.80000305176</ele>
        <time>2024-05-20T13:33:45.000Z</time>
      </trkpt>
      <trkpt lat="45.84741" lon="4.8362">
        <ele>169.60000610352</ele>
        <time>2024-05-20T13:33:46.000Z</time>
      </trkpt>
      <trkpt lat="45.84736" lon="4.83617">
        <ele>169.60000610352</ele>
        <time>2024-05-20T13:33:47.000Z</time>
      </trkpt>
      <trkpt lat="45.84731" lon="4.83615">
        <ele>169.60000610352</ele>
        <time>2024-05-20T13:33:48.000Z</time>
      </trkpt>
      <trkpt lat="45.84725" lon="4.83612">
        <ele>169.60000610352</ele>
        <time>2024-05-20T13:33:49.000Z</time>
      </trkpt>
      <trkpt lat="45.8472" lon="4.83609">
        <ele>169.60000610352</ele>
        <time>2024-05-20T13:33:50.000Z</time>
      </trkpt>
      <trkpt lat="45.84714" lon="4.83607">
        <ele>169.60000610352</ele>
        <time>2024-05-20T13:33:51.000Z</time>
      </trkpt>
      <trkpt lat="45.84708" lon="4.83604">
        <ele>169.60000610352</ele>
        <time>2024-05-20T13:33:52.000Z</time>
      </trkpt>
      <trkpt lat="45.84703" lon="4.83601">
        <ele>169.60000610352</ele>
        <time>2024-05-20T13:33:53.000Z</time>
      </trkpt>
      <trkpt lat="45.84697" lon="4.83598">
        <ele>169.60000610352</ele>
        <time>2024-05-20T13:33:54.000Z</time>
      </trkpt>
      <trkpt lat="45.84691" lon="4.83595">
        <ele>169.39999389648</ele>
        <time>2024-05-20T13:33:55.000Z</time>
      </trkpt>
      <trkpt lat="45.84685" lon="4.83592">
        <ele>169.39999389648</ele>
        <time>2024-05-20T13:33:56.000Z</time>
      </trkpt>
      <trkpt lat="45.84679" lon="4.8359">
        <ele>169.39999389648</ele>
        <time>2024-05-20T13:33:57.000Z</time>
      </trkpt>
      <trkpt lat="45.84673" lon="4.83587">
        <ele>169.39999389648</ele>
        <time>2024-05-20T13:33:58.000Z</time>
      </trkpt>
      <trkpt lat="45.84666" lon="4.83584">
        <ele>169.19999694824</ele>
        <time>2024-05-20T13:33:59.000Z</time>
      </trkpt>
      <trkpt lat="45.8466" lon="4.83581">
        <ele>169.19999694824</ele>
        <time>2024-05-20T13:34:00.000Z</time>
      </trkpt>
      <trkpt lat="45.84654" lon="4.83577">
        <ele>169</ele>
        <time>2024-05-20T13:34:01.000Z</time>
      </trkpt>
      <trkpt lat="45.84648" lon="4.83574">
        <ele>169</ele>
        <time>2024-05-20T13:34:02.000Z</time>
      </trkpt>
      <trkpt lat="45.84642" lon="4.8357">
        <ele>169</ele>
        <time>2024-05-20T13:34:03.000Z</time>
      </trkpt>
      <trkpt lat="45.84636" lon="4.83567">
        <ele>169</ele>
        <time>2024-05-20T13:34:04.000Z</time>
      </trkpt>
      <trkpt lat="45.8463" lon="4.83564">
        <ele>169.19999694824</ele>
        <time>2024-05-20T13:34:05.000Z</time>
      </trkpt>
      <trkpt lat="45.84624" lon="4.83561">
        <ele>169.19999694824</ele>
        <time>2024-05-20T13:34:06.000Z</time>
      </trkpt>
      <trkpt lat="45.84618" lon="4.83558">
        <ele>169.19999694824</ele>
        <time>2024-05-20T13:34:07.000Z</time>
      </trkpt>
      <trkpt lat="45.84612" lon="4.83555">
        <ele>169.19999694824</ele>
        <time>2024-05-20T13:34:08.000Z</time>
      </trkpt>
      <trkpt lat="45.84606" lon="4.83552">
        <ele>168.80000305176</ele>
        <time>2024-05-20T13:34:09.000Z</time>
      </trkpt>
      <trkpt lat="45.846" lon="4.83549">
        <ele>168.60000610352</ele>
        <time>2024-05-20T13:34:10.000Z</time>
      </trkpt>
      <trkpt lat="45.84594" lon="4.83546">
        <ele>168.60000610352</ele>
        <time>2024-05-20T13:34:11.000Z</time>
      </trkpt>
      <trkpt lat="45.84588" lon="4.83543">
        <ele>168.39999389648</ele>
        <time>2024-05-20T13:34:12.000Z</time>
      </trkpt>
      <trkpt lat="45.84582" lon="4.83541">
        <ele>168.39999389648</ele>
        <time>2024-05-20T13:34:13.000Z</time>
      </trkpt>
      <trkpt lat="45.84577" lon="4.83538">
        <ele>168.39999389648</ele>
        <time>2024-05-20T13:34:14.000Z</time>
      </trkpt>
      <trkpt lat="45.84571" lon="4.83535">
        <ele>168.39999389648</ele>
        <time>2024-05-20T13:34:15.000Z</time>
      </trkpt>
      <trkpt lat="45.84566" lon="4.83533">
        <ele>168.60000610352</ele>
        <time>2024-05-20T13:34:16.000Z</time>
      </trkpt>
      <trkpt lat="45.84562" lon="4.83529">
        <ele>168.80000305176</ele>
        <time>2024-05-20T13:34:17.000Z</time>
      </trkpt>
      <trkpt lat="45.84557" lon="4.83526">
        <ele>168.80000305176</ele>
        <time>2024-05-20T13:34:18.000Z</time>
      </trkpt>
      <trkpt lat="45.84552" lon="4.83522">
        <ele>168.80000305176</ele>
        <time>2024-05-20T13:34:19.000Z</time>
      </trkpt>
      <trkpt lat="45.84547" lon="4.83518">
        <ele>169</ele>
        <time>2024-05-20T13:34:20.000Z</time>
      </trkpt>
      <trkpt lat="45.84542" lon="4.83515">
        <ele>169</ele>
        <time>2024-05-20T13:34:21.000Z</time>
      </trkpt>
      <trkpt lat="45.84537" lon="4.83512">
        <ele>169</ele>
        <time>2024-05-20T13:34:22.000Z</time>
      </trkpt>
      <trkpt lat="45.84532" lon="4.83509">
        <ele>169.19999694824</ele>
        <time>2024-05-20T13:34:23.000Z</time>
      </trkpt>
      <trkpt lat="45.84527" lon="4.83507">
        <ele>169.60000610352</ele>
        <time>2024-05-20T13:34:24.000Z</time>
      </trkpt>
      <trkpt lat="45.84522" lon="4.83505">
        <ele>169.60000610352</ele>
        <time>2024-05-20T13:34:25.000Z</time>
      </trkpt>
      <trkpt lat="45.84518" lon="4.83503">
        <ele>170.19999694824</ele>
        <time>2024-05-20T13:34:26.000Z</time>
      </trkpt>
      <trkpt lat="45.84513" lon="4.83502">
        <ele>170.39999389648</ele>
        <time>2024-05-20T13:34:27.000Z</time>
      </trkpt>
      <trkpt lat="45.84509" lon="4.83501">
        <ele>170.60000610352</ele>
        <time>2024-05-20T13:34:28.000Z</time>
      </trkpt>
      <trkpt lat="45.84504" lon="4.835">
        <ele>170.80000305176</ele>
        <time>2024-05-20T13:34:29.000Z</time>
      </trkpt>
      <trkpt lat="45.84499" lon="4.835">
        <ele>170.80000305176</ele>
        <time>2024-05-20T13:34:30.000Z</time>
      </trkpt>
      <trkpt lat="45.84495" lon="4.835">
        <ele>171</ele>
        <time>2024-05-20T13:34:31.000Z</time>
      </trkpt>
      <trkpt lat="45.84491" lon="4.835">
        <ele>171.19999694824</ele>
        <time>2024-05-20T13:34:32.000Z</time>
      </trkpt>
      <trkpt lat="45.84488" lon="4.83499">
        <ele>171.19999694824</ele>
        <time>2024-05-20T13:34:33.000Z</time>
      </trkpt>
      <trkpt lat="45.84485" lon="4.83499">
        <ele>171.19999694824</ele>
        <time>2024-05-20T13:34:34.000Z</time>
      </trkpt>
      <trkpt lat="45.84481" lon="4.83498">
        <ele>171.39999389648</ele>
        <time>2024-05-20T13:34:35.000Z</time>
      </trkpt>
      <trkpt lat="45.84478" lon="4.83498">
        <ele>171.39999389648</ele>
        <time>2024-05-20T13:34:36.000Z</time>
      </trkpt>
      <trkpt lat="45.84474" lon="4.83498">
        <ele>171.60000610352</ele>
        <time>2024-05-20T13:34:37.000Z</time>
      </trkpt>
      <trkpt lat="45.8447" lon="4.83496">
        <ele>171.60000610352</ele>
        <time>2024-05-20T13:34:38.000Z</time>
      </trkpt>
      <trkpt lat="45.84465" lon="4.83495">
        <ele>171.60000610352</ele>
        <time>2024-05-20T13:34:39.000Z</time>
      </trkpt>
      <trkpt lat="45.8446" lon="4.83493">
        <ele>171.60000610352</ele>
        <time>2024-05-20T13:34:40.000Z</time>
      </trkpt>
      <trkpt lat="45.84455" lon="4.8349">
        <ele>171.60000610352</ele>
        <time>2024-05-20T13:34:41.000Z</time>
      </trkpt>
      <trkpt lat="45.8445" lon="4.83488">
        <ele>171.60000610352</ele>
        <time>2024-05-20T13:34:42.000Z</time>
      </trkpt>
      <trkpt lat="45.84445" lon="4.83486">
        <ele>171.60000610352</ele>
        <time>2024-05-20T13:34:43.000Z</time>
      </trkpt>
      <trkpt lat="45.8444" lon="4.83484">
        <ele>171.60000610352</ele>
        <time>2024-05-20T13:34:44.000Z</time>
      </trkpt>
      <trkpt lat="45.84435" lon="4.83482">
        <ele>171.60000610352</ele>
        <time>2024-05-20T13:34:45.000Z</time>
      </trkpt>
      <trkpt lat="45.84429" lon="4.8348">
        <ele>171.60000610352</ele>
        <time>2024-05-20T13:34:46.000Z</time>
      </trkpt>
      <trkpt lat="45.84424" lon="4.83478">
        <ele>171.60000610352</ele>
        <time>2024-05-20T13:34:47.000Z</time>
      </trkpt>
      <trkpt lat="45.84419" lon="4.83476">
        <ele>171.39999389648</ele>
        <time>2024-05-20T13:34:48.000Z</time>
      </trkpt>
      <trkpt lat="45.84413" lon="4.83474">
        <ele>171.19999694824</ele>
        <time>2024-05-20T13:34:49.000Z</time>
      </trkpt>
      <trkpt lat="45.84408" lon="4.83471">
        <ele>171.19999694824</ele>
        <time>2024-05-20T13:34:50.000Z</time>
      </trkpt>
      <trkpt lat="45.84402" lon="4.83469">
        <ele>171.19999694824</ele>
        <time>2024-05-20T13:34:51.000Z</time>
      </trkpt>
      <trkpt lat="45.84397" lon="4.83467">
        <ele>171.19999694824</ele>
        <time>2024-05-20T13:34:52.000Z</time>
      </trkpt>
      <trkpt lat="45.84391" lon="4.83465">
        <ele>171</ele>
        <time>2024-05-20T13:34:53.000Z</time>
      </trkpt>
      <trkpt lat="45.84386" lon="4.83463">
        <ele>171</ele>
        <time>2024-05-20T13:34:54.000Z</time>
      </trkpt>
      <trkpt lat="45.8438" lon="4.83461">
        <ele>171</ele>
        <time>2024-05-20T13:34:55.000Z</time>
      </trkpt>
      <trkpt lat="45.84375" lon="4.83459">
        <ele>171</ele>
        <time>2024-05-20T13:34:56.000Z</time>
      </trkpt>
      <trkpt lat="45.84369" lon="4.83457">
        <ele>171.19999694824</ele>
        <time>2024-05-20T13:34:57.000Z</time>
      </trkpt>
      <trkpt lat="45.84364" lon="4.83454">
        <ele>171.19999694824</ele>
        <time>2024-05-20T13:34:58.000Z</time>
      </trkpt>
      <trkpt lat="45.84358" lon="4.83452">
        <ele>171.19999694824</ele>
        <time>2024-05-20T13:34:59.000Z</time>
      </trkpt>
      <trkpt lat="45.84352" lon="4.8345">
        <ele>171.19999694824</ele>
        <time>2024-05-20T13:35:00.000Z</time>
      </trkpt>
      <trkpt lat="45.84347" lon="4.83447">
        <ele>171.19999694824</ele>
        <time>2024-05-20T13:35:01.000Z</time>
      </trkpt>
      <trkpt lat="45.84342" lon="4.83445">
        <ele>171.19999694824</ele>
        <time>2024-05-20T13:35:02.000Z</time>
      </trkpt>
      <trkpt lat="45.84336" lon="4.83442">
        <ele>171.19999694824</ele>
        <time>2024-05-20T13:35:03.000Z</time>
      </trkpt>
      <trkpt lat="45.84331" lon="4.8344">
        <ele>171.19999694824</ele>
        <time>2024-05-20T13:35:04.000Z</time>
      </trkpt>
      <trkpt lat="45.84326" lon="4.83438">
        <ele>171.19999694824</ele>
        <time>2024-05-20T13:35:05.000Z</time>
      </trkpt>
      <trkpt lat="45.8432" lon="4.83435">
        <ele>171.39999389648</ele>
        <time>2024-05-20T13:35:06.000Z</time>
      </trkpt>
      <trkpt lat="45.84314" lon="4.83433">
        <ele>171.39999389648</ele>
        <time>2024-05-20T13:35:07.000Z</time>
      </trkpt>
      <trkpt lat="45.84309" lon="4.8343">
        <ele>171.60000610352</ele>
        <time>2024-05-20T13:35:08.000Z</time>
      </trkpt>
      <trkpt lat="45.84303" lon="4.83427">
        <ele>171.60000610352</ele>
        <time>2024-05-20T13:35:09.000Z</time>
      </trkpt>
      <trkpt lat="45.84297" lon="4.83425">
        <ele>171.60000610352</ele>
        <time>2024-05-20T13:35:10.000Z</time>
      </trkpt>
      <trkpt lat="45.84292" lon="4.83422">
        <ele>171.60000610352</ele>
        <time>2024-05-20T13:35:11.000Z</time>
      </trkpt>
      <trkpt lat="45.84286" lon="4.8342">
        <ele>171.80000305176</ele>
        <time>2024-05-20T13:35:12.000Z</time>
      </trkpt>
      <trkpt lat="45.84281" lon="4.83418">
        <ele>171.80000305176</ele>
        <time>2024-05-20T13:35:13.000Z</time>
      </trkpt>
      <trkpt lat="45.84275" lon="4.83415">
        <ele>172</ele>
        <time>2024-05-20T13:35:14.000Z</time>
      </trkpt>
      <trkpt lat="45.84269" lon="4.83413">
        <ele>172</ele>
        <time>2024-05-20T13:35:15.000Z</time>
      </trkpt>
      <trkpt lat="45.84263" lon="4.8341">
        <ele>172</ele>
        <time>2024-05-20T13:35:16.000Z</time>
      </trkpt>
      <trkpt lat="45.84257" lon="4.83408">
        <ele>172</ele>
        <time>2024-05-20T13:35:17.000Z</time>
      </trkpt>
      <trkpt lat="45.84251" lon="4.83406">
        <ele>172</ele>
        <time>2024-05-20T13:35:18.000Z</time>
      </trkpt>
      <trkpt lat="45.84246" lon="4.83403">
        <ele>172</ele>
        <time>2024-05-20T13:35:19.000Z</time>
      </trkpt>
      <trkpt lat="45.8424" lon="4.83401">
        <ele>172</ele>
        <time>2024-05-20T13:35:20.000Z</time>
      </trkpt>
      <trkpt lat="45.84234" lon="4.83398">
        <ele>172</ele>
        <time>2024-05-20T13:35:21.000Z</time>
      </trkpt>
      <trkpt lat="45.84228" lon="4.83396">
        <ele>171.80000305176</ele>
        <time>2024-05-20T13:35:22.000Z</time>
      </trkpt>
      <trkpt lat="45.84222" lon="4.83394">
        <ele>171.80000305176</ele>
        <time>2024-05-20T13:35:23.000Z</time>
      </trkpt>
      <trkpt lat="45.84217" lon="4.83392">
        <ele>171.60000610352</ele>
        <time>2024-05-20T13:35:24.000Z</time>
      </trkpt>
      <trkpt lat="45.84211" lon="4.8339">
        <ele>171.60000610352</ele>
        <time>2024-05-20T13:35:25.000Z</time>
      </trkpt>
      <trkpt lat="45.84205" lon="4.83388">
        <ele>171.60000610352</ele>
        <time>2024-05-20T13:35:26.000Z</time>
      </trkpt>
      <trkpt lat="45.842" lon="4.83386">
        <ele>171.39999389648</ele>
        <time>2024-05-20T13:35:27.000Z</time>
      </trkpt>
      <trkpt lat="45.84194" lon="4.83384">
        <ele>171.39999389648</ele>
        <time>2024-05-20T13:35:28.000Z</time>
      </trkpt>
      <trkpt lat="45.84188" lon="4.83382">
        <ele>171.39999389648</ele>
        <time>2024-05-20T13:35:29.000Z</time>
      </trkpt>
      <trkpt lat="45.84182" lon="4.83381">
        <ele>171.39999389648</ele>
        <time>2024-05-20T13:35:30.000Z</time>
      </trkpt>
      <trkpt lat="45.84177" lon="4.83379">
        <ele>171.60000610352</ele>
        <time>2024-05-20T13:35:31.000Z</time>
      </trkpt>
      <trkpt lat="45.84171" lon="4.83378">
        <ele>171.60000610352</ele>
        <time>2024-05-20T13:35:32.000Z</time>
      </trkpt>
      <trkpt lat="45.84165" lon="4.83377">
        <ele>171.80000305176</ele>
        <time>2024-05-20T13:35:33.000Z</time>
      </trkpt>
      <trkpt lat="45.84159" lon="4.83376">
        <ele>171.80000305176</ele>
        <time>2024-05-20T13:35:34.000Z</time>
      </trkpt>
      <trkpt lat="45.84153" lon="4.83375">
        <ele>171.80000305176</ele>
        <time>2024-05-20T13:35:35.000Z</time>
      </trkpt>
      <trkpt lat="45.84147" lon="4.83374">
        <ele>171.80000305176</ele>
        <time>2024-05-20T13:35:36.000Z</time>
      </trkpt>
      <trkpt lat="45.84141" lon="4.83373">
        <ele>171.80000305176</ele>
        <time>2024-05-20T13:35:37.000Z</time>
      </trkpt>
      <trkpt lat="45.84136" lon="4.83372">
        <ele>171.80000305176</ele>
        <time>2024-05-20T13:35:38.000Z</time>
      </trkpt>
      <trkpt lat="45.8413" lon="4.83372">
        <ele>171.80000305176</ele>
        <time>2024-05-20T13:35:39.000Z</time>
      </trkpt>
      <trkpt lat="45.84124" lon="4.83372">
        <ele>171.80000305176</ele>
        <time>2024-05-20T13:35:40.000Z</time>
      </trkpt>
      <trkpt lat="45.84118" lon="4.83372">
        <ele>171.80000305176</ele>
        <time>2024-05-20T13:35:41.000Z</time>
      </trkpt>
      <trkpt lat="45.84112" lon="4.83371">
        <ele>171.80000305176</ele>
        <time>2024-05-20T13:35:42.000Z</time>
      </trkpt>
      <trkpt lat="45.84106" lon="4.83371">
        <ele>171.80000305176</ele>
        <time>2024-05-20T13:35:43.000Z</time>
      </trkpt>
      <trkpt lat="45.841" lon="4.83371">
        <ele>171.80000305176</ele>
        <time>2024-05-20T13:35:44.000Z</time>
      </trkpt>
      <trkpt lat="45.84094" lon="4.83371">
        <ele>171.80000305176</ele>
        <time>2024-05-20T13:35:45.000Z</time>
      </trkpt>
      <trkpt lat="45.84088" lon="4.83371">
        <ele>171.80000305176</ele>
        <time>2024-05-20T13:35:46.000Z</time>
      </trkpt>
      <trkpt lat="45.84083" lon="4.83371">
        <ele>172</ele>
        <time>2024-05-20T13:35:47.000Z</time>
      </trkpt>
      <trkpt lat="45.84078" lon="4.83371">
        <ele>172</ele>
        <time>2024-05-20T13:35:48.000Z</time>
      </trkpt>
      <trkpt lat="45.84072" lon="4.83372">
        <ele>172</ele>
        <time>2024-05-20T13:35:49.000Z</time>
      </trkpt>
      <trkpt lat="45.84067" lon="4.83372">
        <ele>172</ele>
        <time>2024-05-20T13:35:50.000Z</time>
      </trkpt>
      <trkpt lat="45.84062" lon="4.83372">
        <ele>172.19999694824</ele>
        <time>2024-05-20T13:35:51.000Z</time>
      </trkpt>
      <trkpt lat="45.84057" lon="4.83372">
        <ele>172.19999694824</ele>
        <time>2024-05-20T13:35:52.000Z</time>
      </trkpt>
      <trkpt lat="45.84051" lon="4.83373">
        <ele>172.19999694824</ele>
        <time>2024-05-20T13:35:53.000Z</time>
      </trkpt>
      <trkpt lat="45.84046" lon="4.83373">
        <ele>172.39999389648</ele>
        <time>2024-05-20T13:35:54.000Z</time>
      </trkpt>
      <trkpt lat="45.84041" lon="4.83372">
        <ele>172.39999389648</ele>
        <time>2024-05-20T13:35:55.000Z</time>
      </trkpt>
      <trkpt lat="45.84035" lon="4.83371">
        <ele>172.39999389648</ele>
        <time>2024-05-20T13:35:56.000Z</time>
      </trkpt>
      <trkpt lat="45.8403" lon="4.83371">
        <ele>172.39999389648</ele>
        <time>2024-05-20T13:35:57.000Z</time>
      </trkpt>
      <trkpt lat="45.84025" lon="4.8337">
        <ele>172.39999389648</ele>
        <time>2024-05-20T13:35:58.000Z</time>
      </trkpt>
      <trkpt lat="45.8402" lon="4.8337">
        <ele>172.39999389648</ele>
        <time>2024-05-20T13:35:59.000Z</time>
      </trkpt>
      <trkpt lat="45.84015" lon="4.83369">
        <ele>172.39999389648</ele>
        <time>2024-05-20T13:36:00.000Z</time>
      </trkpt>
      <trkpt lat="45.8401" lon="4.83369">
        <ele>172.39999389648</ele>
        <time>2024-05-20T13:36:01.000Z</time>
      </trkpt>
      <trkpt lat="45.84005" lon="4.83369">
        <ele>172.19999694824</ele>
        <time>2024-05-20T13:36:02.000Z</time>
      </trkpt>
      <trkpt lat="45.84" lon="4.83369">
        <ele>172.19999694824</ele>
        <time>2024-05-20T13:36:03.000Z</time>
      </trkpt>
      <trkpt lat="45.83995" lon="4.83369">
        <ele>172</ele>
        <time>2024-05-20T13:36:04.000Z</time>
      </trkpt>
      <trkpt lat="45.83991" lon="4.83369">
        <ele>172</ele>
        <time>2024-05-20T13:36:05.000Z</time>
      </trkpt>
      <trkpt lat="45.83986" lon="4.83369">
        <ele>172</ele>
        <time>2024-05-20T13:36:06.000Z</time>
      </trkpt>
      <trkpt lat="45.83982" lon="4.83368">
        <ele>171.80000305176</ele>
        <time>2024-05-20T13:36:07.000Z</time>
      </trkpt>
      <trkpt lat="45.83978" lon="4.83368">
        <ele>171.80000305176</ele>
        <time>2024-05-20T13:36:08.000Z</time>
      </trkpt>
      <trkpt lat="45.83974" lon="4.83368">
        <ele>171.60000610352</ele>
        <time>2024-05-20T13:36:09.000Z</time>
      </trkpt>
      <trkpt lat="45.83969" lon="4.83368">
        <ele>171.39999389648</ele>
        <time>2024-05-20T13:36:10.000Z</time>
      </trkpt>
      <trkpt lat="45.83964" lon="4.83367">
        <ele>171.19999694824</ele>
        <time>2024-05-20T13:36:11.000Z</time>
      </trkpt>
      <trkpt lat="45.83959" lon="4.83367">
        <ele>171</ele>
        <time>2024-05-20T13:36:12.000Z</time>
      </trkpt>
      <trkpt lat="45.83954" lon="4.83367">
        <ele>170.80000305176</ele>
        <time>2024-05-20T13:36:13.000Z</time>
      </trkpt>
      <trkpt lat="45.83949" lon="4.83367">
        <ele>170.39999389648</ele>
        <time>2024-05-20T13:36:14.000Z</time>
      </trkpt>
      <trkpt lat="45.83943" lon="4.83367">
        <ele>170</ele>
        <time>2024-05-20T13:36:15.000Z</time>
      </trkpt>
      <trkpt lat="45.83937" lon="4.83366">
        <ele>169.60000610352</ele>
        <time>2024-05-20T13:36:16.000Z</time>
      </trkpt>
      <trkpt lat="45.83931" lon="4.83366">
        <ele>169</ele>
        <time>2024-05-20T13:36:17.000Z</time>
      </trkpt>
      <trkpt lat="45.83926" lon="4.83366">
        <ele>168.60000610352</ele>
        <time>2024-05-20T13:36:18.000Z</time>
      </trkpt>
      <trkpt lat="45.8392" lon="4.83365">
        <ele>168.39999389648</ele>
        <time>2024-05-20T13:36:19.000Z</time>
      </trkpt>
      <trkpt lat="45.83915" lon="4.83364">
        <ele>168.39999389648</ele>
        <time>2024-05-20T13:36:20.000Z</time>
      </trkpt>
      <trkpt lat="45.8391" lon="4.83364">
        <ele>168.39999389648</ele>
        <time>2024-05-20T13:36:21.000Z</time>
      </trkpt>
      <trkpt lat="45.83904" lon="4.83364">
        <ele>168.39999389648</ele>
        <time>2024-05-20T13:36:22.000Z</time>
      </trkpt>
      <trkpt lat="45.83899" lon="4.83364">
        <ele>168.39999389648</ele>
        <time>2024-05-20T13:36:23.000Z</time>
      </trkpt>
      <trkpt lat="45.83894" lon="4.83364">
        <ele>168.39999389648</ele>
        <time>2024-05-20T13:36:24.000Z</time>
      </trkpt>
      <trkpt lat="45.83888" lon="4.83364">
        <ele>168.39999389648</ele>
        <time>2024-05-20T13:36:25.000Z</time>
      </trkpt>
      <trkpt lat="45.83883" lon="4.83364">
        <ele>168.39999389648</ele>
        <time>2024-05-20T13:36:26.000Z</time>
      </trkpt>
      <trkpt lat="45.83877" lon="4.83364">
        <ele>168.39999389648</ele>
        <time>2024-05-20T13:36:27.000Z</time>
      </trkpt>
      <trkpt lat="45.83871" lon="4.83365">
        <ele>168.39999389648</ele>
        <time>2024-05-20T13:36:28.000Z</time>
      </trkpt>
      <trkpt lat="45.83865" lon="4.83365">
        <ele>168.39999389648</ele>
        <time>2024-05-20T13:36:29.000Z</time>
      </trkpt>
      <trkpt lat="45.83859" lon="4.83366">
        <ele>168.39999389648</ele>
        <time>2024-05-20T13:36:30.000Z</time>
      </trkpt>
      <trkpt lat="45.83853" lon="4.83367">
        <ele>168.39999389648</ele>
        <time>2024-05-20T13:36:31.000Z</time>
      </trkpt>
      <trkpt lat="45.83848" lon="4.83368">
        <ele>168.39999389648</ele>
        <time>2024-05-20T13:36:32.000Z</time>
      </trkpt>
      <trkpt lat="45.83842" lon="4.83369">
        <ele>168.19999694824</ele>
        <time>2024-05-20T13:36:33.000Z</time>
      </trkpt>
      <trkpt lat="45.83837" lon="4.8337">
        <ele>168.19999694824</ele>
        <time>2024-05-20T13:36:34.000Z</time>
      </trkpt>
      <trkpt lat="45.83831" lon="4.83371">
        <ele>168.19999694824</ele>
        <time>2024-05-20T13:36:35.000Z</time>
      </trkpt>
      <trkpt lat="45.83826" lon="4.83372">
        <ele>168.19999694824</ele>
        <time>2024-05-20T13:36:36.000Z</time>
      </trkpt>
      <trkpt lat="45.83821" lon="4.83373">
        <ele>168.19999694824</ele>
        <time>2024-05-20T13:36:37.000Z</time>
      </trkpt>
      <trkpt lat="45.83817" lon="4.83373">
        <ele>168.19999694824</ele>
        <time>2024-05-20T13:36:38.000Z</time>
      </trkpt>
      <trkpt lat="45.83814" lon="4.83376">
        <ele>168.19999694824</ele>
        <time>2024-05-20T13:36:39.000Z</time>
      </trkpt>
      <trkpt lat="45.83812" lon="4.83378">
        <ele>168.39999389648</ele>
        <time>2024-05-20T13:36:40.000Z</time>
      </trkpt>
      <trkpt lat="45.83809" lon="4.83379">
        <ele>168.39999389648</ele>
        <time>2024-05-20T13:36:41.000Z</time>
      </trkpt>
      <trkpt lat="45.83806" lon="4.83381">
        <ele>168.60000610352</ele>
        <time>2024-05-20T13:36:42.000Z</time>
      </trkpt>
      <trkpt lat="45.83802" lon="4.83382">
        <ele>168.60000610352</ele>
        <time>2024-05-20T13:36:43.000Z</time>
      </trkpt>
      <trkpt lat="45.83798" lon="4.83383">
        <ele>168.60000610352</ele>
        <time>2024-05-20T13:36:44.000Z</time>
      </trkpt>
      <trkpt lat="45.83794" lon="4.83385">
        <ele>168.60000610352</ele>
        <time>2024-05-20T13:36:45.000Z</time>
      </trkpt>
      <trkpt lat="45.8379" lon="4.83387">
        <ele>168.60000610352</ele>
        <time>2024-05-20T13:36:46.000Z</time>
      </trkpt>
      <trkpt lat="45.83787" lon="4.83389">
        <ele>168.80000305176</ele>
        <time>2024-05-20T13:36:47.000Z</time>
      </trkpt>
      <trkpt lat="45.83783" lon="4.83391">
        <ele>168.80000305176</ele>
        <time>2024-05-20T13:36:48.000Z</time>
      </trkpt>
      <trkpt lat="45.8378" lon="4.83392">
        <ele>168.80000305176</ele>
        <time>2024-05-20T13:36:49.000Z</time>
      </trkpt>
      <trkpt lat="45.83776" lon="4.83394">
        <ele>168.80000305176</ele>
        <time>2024-05-20T13:36:50.000Z</time>
      </trkpt>
      <trkpt lat="45.83773" lon="4.83396">
        <ele>168.80000305176</ele>
        <time>2024-05-20T13:36:51.000Z</time>
      </trkpt>
      <trkpt lat="45.8377" lon="4.83398">
        <ele>168.80000305176</ele>
        <time>2024-05-20T13:36:52.000Z</time>
      </trkpt>
      <trkpt lat="45.83768" lon="4.83399">
        <ele>168.80000305176</ele>
        <time>2024-05-20T13:36:53.000Z</time>
      </trkpt>
      <trkpt lat="45.83765" lon="4.83401">
        <ele>168.80000305176</ele>
        <time>2024-05-20T13:36:54.000Z</time>
      </trkpt>
      <trkpt lat="45.83763" lon="4.83402">
        <ele>168.80000305176</ele>
        <time>2024-05-20T13:36:55.000Z</time>
      </trkpt>
      <trkpt lat="45.83761" lon="4.83404">
        <ele>168.80000305176</ele>
        <time>2024-05-20T13:36:56.000Z</time>
      </trkpt>
      <trkpt lat="45.83758" lon="4.83405">
        <ele>168.80000305176</ele>
        <time>2024-05-20T13:36:57.000Z</time>
      </trkpt>
      <trkpt lat="45.83756" lon="4.83407">
        <ele>168.80000305176</ele>
        <time>2024-05-20T13:36:58.000Z</time>
      </trkpt>
      <trkpt lat="45.83753" lon="4.83409">
        <ele>168.80000305176</ele>
        <time>2024-05-20T13:36:59.000Z</time>
      </trkpt>
      <trkpt lat="45.83751" lon="4.8341">
        <ele>168.80000305176</ele>
        <time>2024-05-20T13:37:00.000Z</time>
      </trkpt>
      <trkpt lat="45.83749" lon="4.83411">
        <ele>168.80000305176</ele>
        <time>2024-05-20T13:37:01.000Z</time>
      </trkpt>
      <trkpt lat="45.83747" lon="4.83412">
        <ele>168.60000610352</ele>
        <time>2024-05-20T13:37:02.000Z</time>
      </trkpt>
      <trkpt lat="45.83745" lon="4.83414">
        <ele>168.60000610352</ele>
        <time>2024-05-20T13:37:03.000Z</time>
      </trkpt>
      <trkpt lat="45.83743" lon="4.83415">
        <ele>168.60000610352</ele>
        <time>2024-05-20T13:37:04.000Z</time>
      </trkpt>
      <trkpt lat="45.83742" lon="4.83416">
        <ele>168.60000610352</ele>
        <time>2024-05-20T13:37:05.000Z</time>
      </trkpt>
      <trkpt lat="45.83741" lon="4.83417">
        <ele>168.80000305176</ele>
        <time>2024-05-20T13:37:06.000Z</time>
      </trkpt>
      <trkpt lat="45.83739" lon="4.83419">
        <ele>168.60000610352</ele>
        <time>2024-05-20T13:37:07.000Z</time>
      </trkpt>
      <trkpt lat="45.83738" lon="4.8342">
        <ele>168.60000610352</ele>
        <time>2024-05-20T13:37:08.000Z</time>
      </trkpt>
      <trkpt lat="45.83736" lon="4.83422">
        <ele>168.60000610352</ele>
        <time>2024-05-20T13:37:09.000Z</time>
      </trkpt>
      <trkpt lat="45.83735" lon="4.83423">
        <ele>168.60000610352</ele>
        <time>2024-05-20T13:37:10.000Z</time>
      </trkpt>
      <trkpt lat="45.83733" lon="4.83425">
        <ele>168.60000610352</ele>
        <time>2024-05-20T13:37:11.000Z</time>
      </trkpt>
      <trkpt lat="45.83732" lon="4.83427">
        <ele>168.39999389648</ele>
        <time>2024-05-20T13:37:12.000Z</time>
      </trkpt>
      <trkpt lat="45.8373" lon="4.83429">
        <ele>168.39999389648</ele>
        <time>2024-05-20T13:37:13.000Z</time>
      </trkpt>
      <trkpt lat="45.83728" lon="4.83431">
        <ele>168.39999389648</ele>
        <time>2024-05-20T13:37:14.000Z</time>
      </trkpt>
      <trkpt lat="45.83726" lon="4.83432">
        <ele>168.19999694824</ele>
        <time>2024-05-20T13:37:15.000Z</time>
      </trkpt>
      <trkpt lat="45.83723" lon="4.83434">
        <ele>168.19999694824</ele>
        <time>2024-05-20T13:37:16.000Z</time>
      </trkpt>
      <trkpt lat="45.83721" lon="4.83436">
        <ele>168.19999694824</ele>
        <time>2024-05-20T13:37:17.000Z</time>
      </trkpt>
      <trkpt lat="45.83718" lon="4.83438">
        <ele>168.19999694824</ele>
        <time>2024-05-20T13:37:18.000Z</time>
      </trkpt>
      <trkpt lat="45.83714" lon="4.83442">
        <ele>168.19999694824</ele>
        <time>2024-05-20T13:37:19.000Z</time>
      </trkpt>
      <trkpt lat="45.8371" lon="4.83446">
        <ele>168</ele>
        <time>2024-05-20T13:37:20.000Z</time>
      </trkpt>
      <trkpt lat="45.83706" lon="4.8345">
        <ele>167.80000305176</ele>
        <time>2024-05-20T13:37:21.000Z</time>
      </trkpt>
      <trkpt lat="45.83702" lon="4.83455">
        <ele>167.80000305176</ele>
        <time>2024-05-20T13:37:22.000Z</time>
      </trkpt>
      <trkpt lat="45.83698" lon="4.8346">
        <ele>167.80000305176</ele>
        <time>2024-05-20T13:37:23.000Z</time>
      </trkpt>
      <trkpt lat="45.83694" lon="4.83464">
        <ele>167.60000610352</ele>
        <time>2024-05-20T13:37:24.000Z</time>
      </trkpt>
      <trkpt lat="45.8369" lon="4.83469">
        <ele>167.39999389648</ele>
        <time>2024-05-20T13:37:25.000Z</time>
      </trkpt>
      <trkpt lat="45.83686" lon="4.83473">
        <ele>167.39999389648</ele>
        <time>2024-05-20T13:37:26.000Z</time>
      </trkpt>
      <trkpt lat="45.83682" lon="4.83477">
        <ele>167</ele>
        <time>2024-05-20T13:37:27.000Z</time>
      </trkpt>
      <trkpt lat="45.83678" lon="4.83482">
        <ele>167</ele>
        <time>2024-05-20T13:37:28.000Z</time>
      </trkpt>
      <trkpt lat="45.83674" lon="4.83487">
        <ele>167</ele>
        <time>2024-05-20T13:37:29.000Z</time>
      </trkpt>
      <trkpt lat="45.8367" lon="4.83491">
        <ele>167</ele>
        <time>2024-05-20T13:37:30.000Z</time>
      </trkpt>
      <trkpt lat="45.83666" lon="4.83497">
        <ele>167.19999694824</ele>
        <time>2024-05-20T13:37:31.000Z</time>
      </trkpt>
      <trkpt lat="45.83662" lon="4.83502">
        <ele>167.19999694824</ele>
        <time>2024-05-20T13:37:32.000Z</time>
      </trkpt>
      <trkpt lat="45.83658" lon="4.83507">
        <ele>167.60000610352</ele>
        <time>2024-05-20T13:37:33.000Z</time>
      </trkpt>
      <trkpt lat="45.83654" lon="4.83513">
        <ele>167.80000305176</ele>
        <time>2024-05-20T13:37:34.000Z</time>
      </trkpt>
      <trkpt lat="45.8365" lon="4.83518">
        <ele>168</ele>
        <time>2024-05-20T13:37:35.000Z</time>
      </trkpt>
      <trkpt lat="45.83646" lon="4.83523">
        <ele>168</ele>
        <time>2024-05-20T13:37:36.000Z</time>
      </trkpt>
      <trkpt lat="45.83643" lon="4.83529">
        <ele>168</ele>
        <time>2024-05-20T13:37:37.000Z</time>
      </trkpt>
      <trkpt lat="45.83639" lon="4.83534">
        <ele>168</ele>
        <time>2024-05-20T13:37:38.000Z</time>
      </trkpt>
      <trkpt lat="45.83635" lon="4.8354">
        <ele>168</ele>
        <time>2024-05-20T13:37:39.000Z</time>
      </trkpt>
      <trkpt lat="45.83632" lon="4.83546">
        <ele>168</ele>
        <time>2024-05-20T13:37:40.000Z</time>
      </trkpt>
      <trkpt lat="45.83629" lon="4.83552">
        <ele>168</ele>
        <time>2024-05-20T13:37:41.000Z</time>
      </trkpt>
      <trkpt lat="45.83625" lon="4.83558">
        <ele>168.19999694824</ele>
        <time>2024-05-20T13:37:42.000Z</time>
      </trkpt>
      <trkpt lat="45.83622" lon="4.83564">
        <ele>168.19999694824</ele>
        <time>2024-05-20T13:37:43.000Z</time>
      </trkpt>
      <trkpt lat="45.83619" lon="4.8357">
        <ele>168.19999694824</ele>
        <time>2024-05-20T13:37:44.000Z</time>
      </trkpt>
      <trkpt lat="45.83615" lon="4.83576">
        <ele>168.39999389648</ele>
        <time>2024-05-20T13:37:45.000Z</time>
      </trkpt>
      <trkpt lat="45.83612" lon="4.83582">
        <ele>168.39999389648</ele>
        <time>2024-05-20T13:37:46.000Z</time>
      </trkpt>
      <trkpt lat="45.83609" lon="4.83588">
        <ele>168.39999389648</ele>
        <time>2024-05-20T13:37:47.000Z</time>
      </trkpt>
      <trkpt lat="45.83606" lon="4.83595">
        <ele>168.39999389648</ele>
        <time>2024-05-20T13:37:48.000Z</time>
      </trkpt>
      <trkpt lat="45.83603" lon="4.83601">
        <ele>168.39999389648</ele>
        <time>2024-05-20T13:37:49.000Z</time>
      </trkpt>
      <trkpt lat="45.836" lon="4.83607">
        <ele>168.39999389648</ele>
        <time>2024-05-20T13:37:50.000Z</time>
      </trkpt>
      <trkpt lat="45.83597" lon="4.83613">
        <ele>168</ele>
        <time>2024-05-20T13:37:51.000Z</time>
      </trkpt>
      <trkpt lat="45.83595" lon="4.83619">
        <ele>168</ele>
        <time>2024-05-20T13:37:52.000Z</time>
      </trkpt>
      <trkpt lat="45.83592" lon="4.83625">
        <ele>168</ele>
        <time>2024-05-20T13:37:53.000Z</time>
      </trkpt>
      <trkpt lat="45.83589" lon="4.83631">
        <ele>167.80000305176</ele>
        <time>2024-05-20T13:37:54.000Z</time>
      </trkpt>
      <trkpt lat="45.83586" lon="4.83637">
        <ele>167.60000610352</ele>
        <time>2024-05-20T13:37:55.000Z</time>
      </trkpt>
      <trkpt lat="45.83584" lon="4.83642">
        <ele>167.60000610352</ele>
        <time>2024-05-20T13:37:56.000Z</time>
      </trkpt>
      <trkpt lat="45.83582" lon="4.83648">
        <ele>167.60000610352</ele>
        <time>2024-05-20T13:37:57.000Z</time>
      </trkpt>
      <trkpt lat="45.83579" lon="4.83653">
        <ele>167.60000610352</ele>
        <time>2024-05-20T13:37:58.000Z</time>
      </trkpt>
      <trkpt lat="45.83577" lon="4.83658">
        <ele>167.60000610352</ele>
        <time>2024-05-20T13:37:59.000Z</time>
      </trkpt>
      <trkpt lat="45.83575" lon="4.83664">
        <ele>167.80000305176</ele>
        <time>2024-05-20T13:38:00.000Z</time>
      </trkpt>
      <trkpt lat="45.83573" lon="4.83668">
        <ele>168</ele>
        <time>2024-05-20T13:38:01.000Z</time>
      </trkpt>
      <trkpt lat="45.83571" lon="4.83673">
        <ele>168.19999694824</ele>
        <time>2024-05-20T13:38:02.000Z</time>
      </trkpt>
      <trkpt lat="45.83569" lon="4.83677">
        <ele>168.39999389648</ele>
        <time>2024-05-20T13:38:03.000Z</time>
      </trkpt>
      <trkpt lat="45.83566" lon="4.83682">
        <ele>168.60000610352</ele>
        <time>2024-05-20T13:38:04.000Z</time>
      </trkpt>
      <trkpt lat="45.83564" lon="4.83687">
        <ele>168.80000305176</ele>
        <time>2024-05-20T13:38:05.000Z</time>
      </trkpt>
      <trkpt lat="45.83562" lon="4.83693">
        <ele>169</ele>
        <time>2024-05-20T13:38:06.000Z</time>
      </trkpt>
      <trkpt lat="45.8356" lon="4.83698">
        <ele>169.19999694824</ele>
        <time>2024-05-20T13:38:07.000Z</time>
      </trkpt>
      <trkpt lat="45.83558" lon="4.83703">
        <ele>169.19999694824</ele>
        <time>2024-05-20T13:38:08.000Z</time>
      </trkpt>
      <trkpt lat="45.83556" lon="4.83708">
        <ele>169.19999694824</ele>
        <time>2024-05-20T13:38:09.000Z</time>
      </trkpt>
      <trkpt lat="45.83554" lon="4.83712">
        <ele>169.19999694824</ele>
        <time>2024-05-20T13:38:10.000Z</time>
      </trkpt>
      <trkpt lat="45.83553" lon="4.83714">
        <ele>169.39999389648</ele>
        <time>2024-05-20T13:38:11.000Z</time>
      </trkpt>
      <trkpt lat="45.83554" lon="4.83716">
        <ele>169.39999389648</ele>
        <time>2024-05-20T13:38:12.000Z</time>
      </trkpt>
      <trkpt lat="45.83554" lon="4.83716">
        <ele>169.80000305176</ele>
        <time>2024-05-20T13:38:13.000Z</time>
      </trkpt>
      <trkpt lat="45.83554" lon="4.83716">
        <ele>170</ele>
        <time>2024-05-20T13:38:14.000Z</time>
      </trkpt>
      <trkpt lat="45.8355" lon="4.83718">
        <ele>169.80000305176</ele>
        <time>2024-05-20T13:43:43.000Z</time>
      </trkpt>
      <trkpt lat="45.83549" lon="4.83721">
        <ele>169.80000305176</ele>
        <time>2024-05-20T13:43:44.000Z</time>
      </trkpt>
      <trkpt lat="45.83548" lon="4.83723">
        <ele>169.80000305176</ele>
        <time>2024-05-20T13:43:45.000Z</time>
      </trkpt>
      <trkpt lat="45.83548" lon="4.83725">
        <ele>169.60000610352</ele>
        <time>2024-05-20T13:43:46.000Z</time>
      </trkpt>
      <trkpt lat="45.83546" lon="4.83728">
        <ele>169.60000610352</ele>
        <time>2024-05-20T13:43:47.000Z</time>
      </trkpt>
      <trkpt lat="45.83544" lon="4.83731">
        <ele>169.60000610352</ele>
        <time>2024-05-20T13:43:48.000Z</time>
      </trkpt>
      <trkpt lat="45.83542" lon="4.83734">
        <ele>169.60000610352</ele>
        <time>2024-05-20T13:43:49.000Z</time>
      </trkpt>
      <trkpt lat="45.83541" lon="4.83738">
        <ele>169.60000610352</ele>
        <time>2024-05-20T13:43:50.000Z</time>
      </trkpt>
      <trkpt lat="45.83539" lon="4.83742">
        <ele>169.60000610352</ele>
        <time>2024-05-20T13:43:51.000Z</time>
      </trkpt>
      <trkpt lat="45.83538" lon="4.83746">
        <ele>169.60000610352</ele>
        <time>2024-05-20T13:43:52.000Z</time>
      </trkpt>
      <trkpt lat="45.83536" lon="4.8375">
        <ele>169.60000610352</ele>
        <time>2024-05-20T13:43:53.000Z</time>
      </trkpt>
      <trkpt lat="45.83534" lon="4.83755">
        <ele>169.60000610352</ele>
        <time>2024-05-20T13:43:54.000Z</time>
      </trkpt>
      <trkpt lat="45.83532" lon="4.83759">
        <ele>169.60000610352</ele>
        <time>2024-05-20T13:43:55.000Z</time>
      </trkpt>
      <trkpt lat="45.8353" lon="4.83764">
        <ele>169.60000610352</ele>
        <time>2024-05-20T13:43:56.000Z</time>
      </trkpt>
      <trkpt lat="45.83528" lon="4.83769">
        <ele>169.60000610352</ele>
        <time>2024-05-20T13:43:57.000Z</time>
      </trkpt>
      <trkpt lat="45.83525" lon="4.83775">
        <ele>169.60000610352</ele>
        <time>2024-05-20T13:43:58.000Z</time>
      </trkpt>
      <trkpt lat="45.83523" lon="4.83781">
        <ele>169.60000610352</ele>
        <time>2024-05-20T13:43:59.000Z</time>
      </trkpt>
      <trkpt lat="45.83521" lon="4.83786">
        <ele>169.60000610352</ele>
        <time>2024-05-20T13:44:00.000Z</time>
      </trkpt>
      <trkpt lat="45.83519" lon="4.83792">
        <ele>169.60000610352</ele>
        <time>2024-05-20T13:44:01.000Z</time>
      </trkpt>
      <trkpt lat="45.83517" lon="4.83797">
        <ele>169.60000610352</ele>
        <time>2024-05-20T13:44:02.000Z</time>
      </trkpt>
      <trkpt lat="45.83515" lon="4.83803">
        <ele>169.60000610352</ele>
        <time>2024-05-20T13:44:03.000Z</time>
      </trkpt>
      <trkpt lat="45.83513" lon="4.83808">
        <ele>169.60000610352</ele>
        <time>2024-05-20T13:44:04.000Z</time>
      </trkpt>
      <trkpt lat="45.83512" lon="4.83814">
        <ele>169.60000610352</ele>
        <time>2024-05-20T13:44:05.000Z</time>
      </trkpt>
      <trkpt lat="45.8351" lon="4.83819">
        <ele>169.60000610352</ele>
        <time>2024-05-20T13:44:06.000Z</time>
      </trkpt>
      <trkpt lat="45.83508" lon="4.83824">
        <ele>169.60000610352</ele>
        <time>2024-05-20T13:44:07.000Z</time>
      </trkpt>
      <trkpt lat="45.83507" lon="4.83829">
        <ele>169.60000610352</ele>
        <time>2024-05-20T13:44:08.000Z</time>
      </trkpt>
      <trkpt lat="45.83505" lon="4.83834">
        <ele>169.60000610352</ele>
        <time>2024-05-20T13:44:09.000Z</time>
      </trkpt>
      <trkpt lat="45.83504" lon="4.83838">
        <ele>169.60000610352</ele>
        <time>2024-05-20T13:44:10.000Z</time>
      </trkpt>
      <trkpt lat="45.83503" lon="4.83843">
        <ele>169.60000610352</ele>
        <time>2024-05-20T13:44:11.000Z</time>
      </trkpt>
      <trkpt lat="45.83502" lon="4.83848">
        <ele>170</ele>
        <time>2024-05-20T13:44:12.000Z</time>
      </trkpt>
      <trkpt lat="45.83501" lon="4.83853">
        <ele>170</ele>
        <time>2024-05-20T13:44:13.000Z</time>
      </trkpt>
      <trkpt lat="45.83499" lon="4.83858">
        <ele>170</ele>
        <time>2024-05-20T13:44:14.000Z</time>
      </trkpt>
      <trkpt lat="45.83498" lon="4.83864">
        <ele>170</ele>
        <time>2024-05-20T13:44:15.000Z</time>
      </trkpt>
      <trkpt lat="45.83496" lon="4.8387">
        <ele>170</ele>
        <time>2024-05-20T13:44:16.000Z</time>
      </trkpt>
      <trkpt lat="45.83495" lon="4.83876">
        <ele>170</ele>
        <time>2024-05-20T13:44:17.000Z</time>
      </trkpt>
      <trkpt lat="45.83493" lon="4.83882">
        <ele>170</ele>
        <time>2024-05-20T13:44:18.000Z</time>
      </trkpt>
      <trkpt lat="45.83491" lon="4.83888">
        <ele>170</ele>
        <time>2024-05-20T13:44:19.000Z</time>
      </trkpt>
      <trkpt lat="45.8349" lon="4.83894">
        <ele>170</ele>
        <time>2024-05-20T13:44:20.000Z</time>
      </trkpt>
      <trkpt lat="45.83488" lon="4.83901">
        <ele>170</ele>
        <time>2024-05-20T13:44:21.000Z</time>
      </trkpt>
      <trkpt lat="45.83486" lon="4.83907">
        <ele>170</ele>
        <time>2024-05-20T13:44:22.000Z</time>
      </trkpt>
      <trkpt lat="45.83485" lon="4.83914">
        <ele>170</ele>
        <time>2024-05-20T13:44:23.000Z</time>
      </trkpt>
      <trkpt lat="45.83483" lon="4.83921">
        <ele>169.80000305176</ele>
        <time>2024-05-20T13:44:24.000Z</time>
      </trkpt>
      <trkpt lat="45.83482" lon="4.83927">
        <ele>169.60000610352</ele>
        <time>2024-05-20T13:44:25.000Z</time>
      </trkpt>
      <trkpt lat="45.8348" lon="4.83934">
        <ele>169.60000610352</ele>
        <time>2024-05-20T13:44:26.000Z</time>
      </trkpt>
      <trkpt lat="45.83479" lon="4.8394">
        <ele>169.60000610352</ele>
        <time>2024-05-20T13:44:27.000Z</time>
      </trkpt>
      <trkpt lat="45.83478" lon="4.83947">
        <ele>169.60000610352</ele>
        <time>2024-05-20T13:44:28.000Z</time>
      </trkpt>
      <trkpt lat="45.83476" lon="4.83954">
        <ele>169.60000610352</ele>
        <time>2024-05-20T13:44:29.000Z</time>
      </trkpt>
      <trkpt lat="45.83475" lon="4.83961">
        <ele>169.60000610352</ele>
        <time>2024-05-20T13:44:30.000Z</time>
      </trkpt>
      <trkpt lat="45.83474" lon="4.83968">
        <ele>169.60000610352</ele>
        <time>2024-05-20T13:44:31.000Z</time>
      </trkpt>
      <trkpt lat="45.83472" lon="4.83975">
        <ele>169.60000610352</ele>
        <time>2024-05-20T13:44:32.000Z</time>
      </trkpt>
      <trkpt lat="45.8347" lon="4.83982">
        <ele>169.60000610352</ele>
        <time>2024-05-20T13:44:33.000Z</time>
      </trkpt>
      <trkpt lat="45.83469" lon="4.8399">
        <ele>169.60000610352</ele>
        <time>2024-05-20T13:44:34.000Z</time>
      </trkpt>
      <trkpt lat="45.83467" lon="4.83997">
        <ele>169.60000610352</ele>
        <time>2024-05-20T13:44:35.000Z</time>
      </trkpt>
      <trkpt lat="45.83466" lon="4.84004">
        <ele>169.80000305176</ele>
        <time>2024-05-20T13:44:36.000Z</time>
      </trkpt>
      <trkpt lat="45.83464" lon="4.84011">
        <ele>169.80000305176</ele>
        <time>2024-05-20T13:44:37.000Z</time>
      </trkpt>
      <trkpt lat="45.83463" lon="4.84018">
        <ele>169.80000305176</ele>
        <time>2024-05-20T13:44:38.000Z</time>
      </trkpt>
      <trkpt lat="45.83461" lon="4.84025">
        <ele>169.80000305176</ele>
        <time>2024-05-20T13:44:39.000Z</time>
      </trkpt>
      <trkpt lat="45.83459" lon="4.84032">
        <ele>169.60000610352</ele>
        <time>2024-05-20T13:44:40.000Z</time>
      </trkpt>
      <trkpt lat="45.83458" lon="4.84039">
        <ele>169.60000610352</ele>
        <time>2024-05-20T13:44:41.000Z</time>
      </trkpt>
      <trkpt lat="45.83456" lon="4.84046">
        <ele>169.80000305176</ele>
        <time>2024-05-20T13:44:42.000Z</time>
      </trkpt>
      <trkpt lat="45.83455" lon="4.84053">
        <ele>169.60000610352</ele>
        <time>2024-05-20T13:44:43.000Z</time>
      </trkpt>
      <trkpt lat="45.83453" lon="4.8406">
        <ele>169.60000610352</ele>
        <time>2024-05-20T13:44:44.000Z</time>
      </trkpt>
      <trkpt lat="45.83451" lon="4.84066">
        <ele>169.60000610352</ele>
        <time>2024-05-20T13:44:45.000Z</time>
      </trkpt>
      <trkpt lat="45.8345" lon="4.84073">
        <ele>169.60000610352</ele>
        <time>2024-05-20T13:44:46.000Z</time>
      </trkpt>
      <trkpt lat="45.83449" lon="4.84078">
        <ele>169.80000305176</ele>
        <time>2024-05-20T13:44:47.000Z</time>
      </trkpt>
      <trkpt lat="45.83447" lon="4.84084">
        <ele>169.80000305176</ele>
        <time>2024-05-20T13:44:48.000Z</time>
      </trkpt>
      <trkpt lat="45.83446" lon="4.84089">
        <ele>169.80000305176</ele>
        <time>2024-05-20T13:44:49.000Z</time>
      </trkpt>
      <trkpt lat="45.83444" lon="4.84093">
        <ele>169.80000305176</ele>
        <time>2024-05-20T13:44:50.000Z</time>
      </trkpt>
      <trkpt lat="45.83443" lon="4.84096">
        <ele>170</ele>
        <time>2024-05-20T13:44:51.000Z</time>
      </trkpt>
      <trkpt lat="45.83441" lon="4.84099">
        <ele>170</ele>
        <time>2024-05-20T13:44:52.000Z</time>
      </trkpt>
      <trkpt lat="45.8344" lon="4.84101">
        <ele>170</ele>
        <time>2024-05-20T13:44:53.000Z</time>
      </trkpt>
      <trkpt lat="45.8344" lon="4.84103">
        <ele>170.19999694824</ele>
        <time>2024-05-20T13:44:54.000Z</time>
      </trkpt>
      <trkpt lat="45.83439" lon="4.84104">
        <ele>170.19999694824</ele>
        <time>2024-05-20T13:44:55.000Z</time>
      </trkpt>
      <trkpt lat="45.83439" lon="4.84105">
        <ele>170.19999694824</ele>
        <time>2024-05-20T13:44:56.000Z</time>
      </trkpt>
      <trkpt lat="45.83438" lon="4.84107">
        <ele>170.19999694824</ele>
        <time>2024-05-20T13:44:57.000Z</time>
      </trkpt>
      <trkpt lat="45.83438" lon="4.8411">
        <ele>170.19999694824</ele>
        <time>2024-05-20T13:44:58.000Z</time>
      </trkpt>
      <trkpt lat="45.83437" lon="4.84114">
        <ele>170.19999694824</ele>
        <time>2024-05-20T13:44:59.000Z</time>
      </trkpt>
      <trkpt lat="45.83436" lon="4.84117">
        <ele>170.19999694824</ele>
        <time>2024-05-20T13:45:00.000Z</time>
      </trkpt>
      <trkpt lat="45.83435" lon="4.84122">
        <ele>170.19999694824</ele>
        <time>2024-05-20T13:45:01.000Z</time>
      </trkpt>
      <trkpt lat="45.83435" lon="4.84126">
        <ele>170.19999694824</ele>
        <time>2024-05-20T13:45:02.000Z</time>
      </trkpt>
      <trkpt lat="45.83434" lon="4.84131">
        <ele>170.19999694824</ele>
        <time>2024-05-20T13:45:03.000Z</time>
      </trkpt>
      <trkpt lat="45.83433" lon="4.84135">
        <ele>170.19999694824</ele>
        <time>2024-05-20T13:45:04.000Z</time>
      </trkpt>
      <trkpt lat="45.83432" lon="4.84139">
        <ele>170.39999389648</ele>
        <time>2024-05-20T13:45:05.000Z</time>
      </trkpt>
      <trkpt lat="45.83431" lon="4.84143">
        <ele>170.60000610352</ele>
        <time>2024-05-20T13:45:06.000Z</time>
      </trkpt>
      <trkpt lat="45.83431" lon="4.84148">
        <ele>170.80000305176</ele>
        <time>2024-05-20T13:45:07.000Z</time>
      </trkpt>
      <trkpt lat="45.83431" lon="4.84153">
        <ele>171</ele>
        <time>2024-05-20T13:45:08.000Z</time>
      </trkpt>
      <trkpt lat="45.8343" lon="4.84158">
        <ele>171.19999694824</ele>
        <time>2024-05-20T13:45:09.000Z</time>
      </trkpt>
      <trkpt lat="45.83429" lon="4.84163">
        <ele>171.39999389648</ele>
        <time>2024-05-20T13:45:10.000Z</time>
      </trkpt>
      <trkpt lat="45.83428" lon="4.84168">
        <ele>171.39999389648</ele>
        <time>2024-05-20T13:45:11.000Z</time>
      </trkpt>
      <trkpt lat="45.83427" lon="4.84174">
        <ele>171.60000610352</ele>
        <time>2024-05-20T13:45:12.000Z</time>
      </trkpt>
      <trkpt lat="45.83426" lon="4.8418">
        <ele>171.60000610352</ele>
        <time>2024-05-20T13:45:13.000Z</time>
      </trkpt>
      <trkpt lat="45.83425" lon="4.84186">
        <ele>171.80000305176</ele>
        <time>2024-05-20T13:45:14.000Z</time>
      </trkpt>
      <trkpt lat="45.83424" lon="4.84192">
        <ele>171.80000305176</ele>
        <time>2024-05-20T13:45:15.000Z</time>
      </trkpt>
      <trkpt lat="45.83423" lon="4.84198">
        <ele>172</ele>
        <time>2024-05-20T13:45:16.000Z</time>
      </trkpt>
      <trkpt lat="45.83422" lon="4.84204">
        <ele>172</ele>
        <time>2024-05-20T13:45:17.000Z</time>
      </trkpt>
      <trkpt lat="45.83421" lon="4.84209">
        <ele>172.19999694824</ele>
        <time>2024-05-20T13:45:18.000Z</time>
      </trkpt>
      <trkpt lat="45.83421" lon="4.84213">
        <ele>172.60000610352</ele>
        <time>2024-05-20T13:45:19.000Z</time>
      </trkpt>
      <trkpt lat="45.8342" lon="4.84218">
        <ele>173</ele>
        <time>2024-05-20T13:45:20.000Z</time>
      </trkpt>
      <trkpt lat="45.8342" lon="4.84223">
        <ele>173.39999389648</ele>
        <time>2024-05-20T13:45:21.000Z</time>
      </trkpt>
      <trkpt lat="45.83419" lon="4.84228">
        <ele>173.80000305176</ele>
        <time>2024-05-20T13:45:22.000Z</time>
      </trkpt>
      <trkpt lat="45.83417" lon="4.84234">
        <ele>174</ele>
        <time>2024-05-20T13:45:23.000Z</time>
      </trkpt>
      <trkpt lat="45.83416" lon="4.8424">
        <ele>174</ele>
        <time>2024-05-20T13:45:24.000Z</time>
      </trkpt>
      <trkpt lat="45.83415" lon="4.84245">
        <ele>174</ele>
        <time>2024-05-20T13:45:25.000Z</time>
      </trkpt>
      <trkpt lat="45.83414" lon="4.84251">
        <ele>174</ele>
        <time>2024-05-20T13:45:26.000Z</time>
      </trkpt>
      <trkpt lat="45.83412" lon="4.84256">
        <ele>174.19999694824</ele>
        <time>2024-05-20T13:45:27.000Z</time>
      </trkpt>
      <trkpt lat="45.83411" lon="4.84262">
        <ele>174.19999694824</ele>
        <time>2024-05-20T13:45:28.000Z</time>
      </trkpt>
      <trkpt lat="45.83409" lon="4.84268">
        <ele>174.19999694824</ele>
        <time>2024-05-20T13:45:29.000Z</time>
      </trkpt>
      <trkpt lat="45.83407" lon="4.84274">
        <ele>174.19999694824</ele>
        <time>2024-05-20T13:45:30.000Z</time>
      </trkpt>
      <trkpt lat="45.83406" lon="4.84279">
        <ele>174.19999694824</ele>
        <time>2024-05-20T13:45:31.000Z</time>
      </trkpt>
      <trkpt lat="45.83404" lon="4.84285">
        <ele>174</ele>
        <time>2024-05-20T13:45:32.000Z</time>
      </trkpt>
      <trkpt lat="45.83402" lon="4.84292">
        <ele>174</ele>
        <time>2024-05-20T13:45:33.000Z</time>
      </trkpt>
      <trkpt lat="45.834" lon="4.84298">
        <ele>174</ele>
        <time>2024-05-20T13:45:34.000Z</time>
      </trkpt>
      <trkpt lat="45.83397" lon="4.84304">
        <ele>174</ele>
        <time>2024-05-20T13:45:35.000Z</time>
      </trkpt>
      <trkpt lat="45.83395" lon="4.84311">
        <ele>173.80000305176</ele>
        <time>2024-05-20T13:45:36.000Z</time>
      </trkpt>
      <trkpt lat="45.83393" lon="4.84317">
        <ele>173.80000305176</ele>
        <time>2024-05-20T13:45:37.000Z</time>
      </trkpt>
      <trkpt lat="45.83391" lon="4.84324">
        <ele>173.80000305176</ele>
        <time>2024-05-20T13:45:38.000Z</time>
      </trkpt>
      <trkpt lat="45.83389" lon="4.8433">
        <ele>173.80000305176</ele>
        <time>2024-05-20T13:45:39.000Z</time>
      </trkpt>
      <trkpt lat="45.83386" lon="4.84337">
        <ele>173.80000305176</ele>
        <time>2024-05-20T13:45:40.000Z</time>
      </trkpt>
      <trkpt lat="45.83384" lon="4.84344">
        <ele>173.60000610352</ele>
        <time>2024-05-20T13:45:41.000Z</time>
      </trkpt>
      <trkpt lat="45.83382" lon="4.84351">
        <ele>173.60000610352</ele>
        <time>2024-05-20T13:45:42.000Z</time>
      </trkpt>
      <trkpt lat="45.8338" lon="4.84358">
        <ele>173.60000610352</ele>
        <time>2024-05-20T13:45:43.000Z</time>
      </trkpt>
      <trkpt lat="45.83378" lon="4.84365">
        <ele>173.39999389648</ele>
        <time>2024-05-20T13:45:44.000Z</time>
      </trkpt>
      <trkpt lat="45.83376" lon="4.84372">
        <ele>173.19999694824</ele>
        <time>2024-05-20T13:45:45.000Z</time>
      </trkpt>
      <trkpt lat="45.83374" lon="4.84379">
        <ele>173.19999694824</ele>
        <time>2024-05-20T13:45:46.000Z</time>
      </trkpt>
      <trkpt lat="45.83372" lon="4.84386">
        <ele>173.19999694824</ele>
        <time>2024-05-20T13:45:47.000Z</time>
      </trkpt>
      <trkpt lat="45.8337" lon="4.84393">
        <ele>173.19999694824</ele>
        <time>2024-05-20T13:45:48.000Z</time>
      </trkpt>
      <trkpt lat="45.83368" lon="4.844">
        <ele>173.19999694824</ele>
        <time>2024-05-20T13:45:49.000Z</time>
      </trkpt>
      <trkpt lat="45.83366" lon="4.84407">
        <ele>173.19999694824</ele>
        <time>2024-05-20T13:45:50.000Z</time>
      </trkpt>
      <trkpt lat="45.83364" lon="4.84414">
        <ele>173.19999694824</ele>
        <time>2024-05-20T13:45:51.000Z</time>
      </trkpt>
      <trkpt lat="45.83362" lon="4.84422">
        <ele>172.80000305176</ele>
        <time>2024-05-20T13:45:52.000Z</time>
      </trkpt>
      <trkpt lat="45.8336" lon="4.84429">
        <ele>172.80000305176</ele>
        <time>2024-05-20T13:45:53.000Z</time>
      </trkpt>
      <trkpt lat="45.83358" lon="4.84436">
        <ele>172.80000305176</ele>
        <time>2024-05-20T13:45:54.000Z</time>
      </trkpt>
      <trkpt lat="45.83356" lon="4.84444">
        <ele>172.60000610352</ele>
        <time>2024-05-20T13:45:55.000Z</time>
      </trkpt>
      <trkpt lat="45.83354" lon="4.84451">
        <ele>172.60000610352</ele>
        <time>2024-05-20T13:45:56.000Z</time>
      </trkpt>
      <trkpt lat="45.83352" lon="4.84458">
        <ele>172.60000610352</ele>
        <time>2024-05-20T13:45:57.000Z</time>
      </trkpt>
      <trkpt lat="45.8335" lon="4.84466">
        <ele>172.60000610352</ele>
        <time>2024-05-20T13:45:58.000Z</time>
      </trkpt>
      <trkpt lat="45.83348" lon="4.84473">
        <ele>172.60000610352</ele>
        <time>2024-05-20T13:45:59.000Z</time>
      </trkpt>
      <trkpt lat="45.83346" lon="4.84481">
        <ele>172.80000305176</ele>
        <time>2024-05-20T13:46:00.000Z</time>
      </trkpt>
      <trkpt lat="45.83344" lon="4.84488">
        <ele>172.80000305176</ele>
        <time>2024-05-20T13:46:01.000Z</time>
      </trkpt>
      <trkpt lat="45.83342" lon="4.84496">
        <ele>172.80000305176</ele>
        <time>2024-05-20T13:46:02.000Z</time>
      </trkpt>
      <trkpt lat="45.8334" lon="4.84503">
        <ele>172.80000305176</ele>
        <time>2024-05-20T13:46:03.000Z</time>
      </trkpt>
      <trkpt lat="45.83338" lon="4.84511">
        <ele>172.80000305176</ele>
        <time>2024-05-20T13:46:04.000Z</time>
      </trkpt>
      <trkpt lat="45.83336" lon="4.84519">
        <ele>172.80000305176</ele>
        <time>2024-05-20T13:46:05.000Z</time>
      </trkpt>
      <trkpt lat="45.83334" lon="4.84526">
        <ele>172.80000305176</ele>
        <time>2024-05-20T13:46:06.000Z</time>
      </trkpt>
      <trkpt lat="45.83332" lon="4.84534">
        <ele>172.60000610352</ele>
        <time>2024-05-20T13:46:07.000Z</time>
      </trkpt>
      <trkpt lat="45.8333" lon="4.84541">
        <ele>172.60000610352</ele>
        <time>2024-05-20T13:46:08.000Z</time>
      </trkpt>
      <trkpt lat="45.83328" lon="4.84548">
        <ele>172.39999389648</ele>
        <time>2024-05-20T13:46:09.000Z</time>
      </trkpt>
      <trkpt lat="45.83326" lon="4.84556">
        <ele>172.39999389648</ele>
        <time>2024-05-20T13:46:10.000Z</time>
      </trkpt>
      <trkpt lat="45.83324" lon="4.84563">
        <ele>172.19999694824</ele>
        <time>2024-05-20T13:46:11.000Z</time>
      </trkpt>
      <trkpt lat="45.83322" lon="4.84571">
        <ele>172</ele>
        <time>2024-05-20T13:46:12.000Z</time>
      </trkpt>
      <trkpt lat="45.8332" lon="4.84578">
        <ele>172</ele>
        <time>2024-05-20T13:46:13.000Z</time>
      </trkpt>
      <trkpt lat="45.83318" lon="4.84585">
        <ele>172</ele>
        <time>2024-05-20T13:46:14.000Z</time>
      </trkpt>
      <trkpt lat="45.83316" lon="4.84593">
        <ele>172</ele>
        <time>2024-05-20T13:46:15.000Z</time>
      </trkpt>
      <trkpt lat="45.83314" lon="4.846">
        <ele>171.80000305176</ele>
        <time>2024-05-20T13:46:16.000Z</time>
      </trkpt>
      <trkpt lat="45.83312" lon="4.84607">
        <ele>171.80000305176</ele>
        <time>2024-05-20T13:46:17.000Z</time>
      </trkpt>
      <trkpt lat="45.8331" lon="4.84615">
        <ele>171.60000610352</ele>
        <time>2024-05-20T13:46:18.000Z</time>
      </trkpt>
      <trkpt lat="45.83308" lon="4.84622">
        <ele>171.60000610352</ele>
        <time>2024-05-20T13:46:19.000Z</time>
      </trkpt>
      <trkpt lat="45.83306" lon="4.84629">
        <ele>171.39999389648</ele>
        <time>2024-05-20T13:46:20.000Z</time>
      </trkpt>
      <trkpt lat="45.83304" lon="4.84635">
        <ele>171</ele>
        <time>2024-05-20T13:46:21.000Z</time>
      </trkpt>
      <trkpt lat="45.83302" lon="4.84642">
        <ele>171</ele>
        <time>2024-05-20T13:46:22.000Z</time>
      </trkpt>
      <trkpt lat="45.83301" lon="4.84648">
        <ele>171</ele>
        <time>2024-05-20T13:46:23.000Z</time>
      </trkpt>
      <trkpt lat="45.83299" lon="4.84655">
        <ele>171</ele>
        <time>2024-05-20T13:46:24.000Z</time>
      </trkpt>
      <trkpt lat="45.83297" lon="4.84661">
        <ele>171</ele>
        <time>2024-05-20T13:46:25.000Z</time>
      </trkpt>
      <trkpt lat="45.83295" lon="4.84668">
        <ele>170.80000305176</ele>
        <time>2024-05-20T13:46:26.000Z</time>
      </trkpt>
      <trkpt lat="45.83293" lon="4.84675">
        <ele>170.80000305176</ele>
        <time>2024-05-20T13:46:27.000Z</time>
      </trkpt>
      <trkpt lat="45.83291" lon="4.84683">
        <ele>170.80000305176</ele>
        <time>2024-05-20T13:46:28.000Z</time>
      </trkpt>
      <trkpt lat="45.83288" lon="4.84691">
        <ele>170.60000610352</ele>
        <time>2024-05-20T13:46:29.000Z</time>
      </trkpt>
      <trkpt lat="45.83286" lon="4.84698">
        <ele>170.39999389648</ele>
        <time>2024-05-20T13:46:30.000Z</time>
      </trkpt>
      <trkpt lat="45.83284" lon="4.84706">
        <ele>170.19999694824</ele>
        <time>2024-05-20T13:46:31.000Z</time>
      </trkpt>
      <trkpt lat="45.83282" lon="4.84714">
        <ele>170.19999694824</ele>
        <time>2024-05-20T13:46:32.000Z</time>
      </trkpt>
      <trkpt lat="45.8328" lon="4.84721">
        <ele>170.19999694824</ele>
        <time>2024-05-20T13:46:33.000Z</time>
      </trkpt>
      <trkpt lat="45.83278" lon="4.84729">
        <ele>170.19999694824</ele>
        <time>2024-05-20T13:46:34.000Z</time>
      </trkpt>
      <trkpt lat="45.83276" lon="4.84736">
        <ele>170.19999694824</ele>
        <time>2024-05-20T13:46:35.000Z</time>
      </trkpt>
      <trkpt lat="45.83274" lon="4.84744">
        <ele>170.39999389648</ele>
        <time>2024-05-20T13:46:36.000Z</time>
      </trkpt>
      <trkpt lat="45.83272" lon="4.84751">
        <ele>170.39999389648</ele>
        <time>2024-05-20T13:46:37.000Z</time>
      </trkpt>
      <trkpt lat="45.8327" lon="4.84757">
        <ele>170.39999389648</ele>
        <time>2024-05-20T13:46:38.000Z</time>
      </trkpt>
      <trkpt lat="45.83268" lon="4.84764">
        <ele>170.39999389648</ele>
        <time>2024-05-20T13:46:39.000Z</time>
      </trkpt>
      <trkpt lat="45.83266" lon="4.84771">
        <ele>170.39999389648</ele>
        <time>2024-05-20T13:46:40.000Z</time>
      </trkpt>
      <trkpt lat="45.83264" lon="4.84777">
        <ele>170.60000610352</ele>
        <time>2024-05-20T13:46:41.000Z</time>
      </trkpt>
      <trkpt lat="45.83263" lon="4.84784">
        <ele>170.60000610352</ele>
        <time>2024-05-20T13:46:42.000Z</time>
      </trkpt>
      <trkpt lat="45.83261" lon="4.8479">
        <ele>170.80000305176</ele>
        <time>2024-05-20T13:46:43.000Z</time>
      </trkpt>
      <trkpt lat="45.83259" lon="4.84795">
        <ele>170.80000305176</ele>
        <time>2024-05-20T13:46:44.000Z</time>
      </trkpt>
      <trkpt lat="45.83257" lon="4.84801">
        <ele>171.19999694824</ele>
        <time>2024-05-20T13:46:45.000Z</time>
      </trkpt>
      <trkpt lat="45.83254" lon="4.84807">
        <ele>171.19999694824</ele>
        <time>2024-05-20T13:46:46.000Z</time>
      </trkpt>
      <trkpt lat="45.83252" lon="4.84812">
        <ele>171.19999694824</ele>
        <time>2024-05-20T13:46:47.000Z</time>
      </trkpt>
      <trkpt lat="45.8325" lon="4.84818">
        <ele>171.39999389648</ele>
        <time>2024-05-20T13:46:48.000Z</time>
      </trkpt>
      <trkpt lat="45.83248" lon="4.84824">
        <ele>171.80000305176</ele>
        <time>2024-05-20T13:46:49.000Z</time>
      </trkpt>
      <trkpt lat="45.83246" lon="4.84829">
        <ele>171.80000305176</ele>
        <time>2024-05-20T13:46:50.000Z</time>
      </trkpt>
      <trkpt lat="45.83244" lon="4.84835">
        <ele>172</ele>
        <time>2024-05-20T13:46:51.000Z</time>
      </trkpt>
      <trkpt lat="45.83242" lon="4.8484">
        <ele>172.39999389648</ele>
        <time>2024-05-20T13:46:52.000Z</time>
      </trkpt>
      <trkpt lat="45.8324" lon="4.84845">
        <ele>172.39999389648</ele>
        <time>2024-05-20T13:46:53.000Z</time>
      </trkpt>
      <trkpt lat="45.83238" lon="4.84851">
        <ele>172.60000610352</ele>
        <time>2024-05-20T13:46:54.000Z</time>
      </trkpt>
      <trkpt lat="45.83236" lon="4.84855">
        <ele>172.60000610352</ele>
        <time>2024-05-20T13:46:55.000Z</time>
      </trkpt>
      <trkpt lat="45.83234" lon="4.8486">
        <ele>172.80000305176</ele>
        <time>2024-05-20T13:46:56.000Z</time>
      </trkpt>
      <trkpt lat="45.83232" lon="4.84864">
        <ele>173</ele>
        <time>2024-05-20T13:46:57.000Z</time>
      </trkpt>
      <trkpt lat="45.83231" lon="4.84868">
        <ele>173.19999694824</ele>
        <time>2024-05-20T13:46:58.000Z</time>
      </trkpt>
      <trkpt lat="45.83229" lon="4.84872">
        <ele>173.39999389648</ele>
        <time>2024-05-20T13:46:59.000Z</time>
      </trkpt>
      <trkpt lat="45.83227" lon="4.84877">
        <ele>173.39999389648</ele>
        <time>2024-05-20T13:47:00.000Z</time>
      </trkpt>
      <trkpt lat="45.83225" lon="4.84882">
        <ele>173.39999389648</ele>
        <time>2024-05-20T13:47:01.000Z</time>
      </trkpt>
      <trkpt lat="45.83223" lon="4.84888">
        <ele>173.39999389648</ele>
        <time>2024-05-20T13:47:02.000Z</time>
      </trkpt>
      <trkpt lat="45.83222" lon="4.84894">
        <ele>173</ele>
        <time>2024-05-20T13:47:03.000Z</time>
      </trkpt>
      <trkpt lat="45.83219" lon="4.849">
        <ele>173</ele>
        <time>2024-05-20T13:47:04.000Z</time>
      </trkpt>
      <trkpt lat="45.83217" lon="4.84907">
        <ele>172.80000305176</ele>
        <time>2024-05-20T13:47:05.000Z</time>
      </trkpt>
      <trkpt lat="45.83215" lon="4.84913">
        <ele>172.80000305176</ele>
        <time>2024-05-20T13:47:06.000Z</time>
      </trkpt>
      <trkpt lat="45.83212" lon="4.84919">
        <ele>172.19999694824</ele>
        <time>2024-05-20T13:47:07.000Z</time>
      </trkpt>
      <trkpt lat="45.83209" lon="4.84926">
        <ele>172.19999694824</ele>
        <time>2024-05-20T13:47:08.000Z</time>
      </trkpt>
      <trkpt lat="45.83206" lon="4.84932">
        <ele>171.80000305176</ele>
        <time>2024-05-20T13:47:09.000Z</time>
      </trkpt>
      <trkpt lat="45.83203" lon="4.84938">
        <ele>171.60000610352</ele>
        <time>2024-05-20T13:47:10.000Z</time>
      </trkpt>
      <trkpt lat="45.832" lon="4.84945">
        <ele>171.60000610352</ele>
        <time>2024-05-20T13:47:11.000Z</time>
      </trkpt>
      <trkpt lat="45.83196" lon="4.84951">
        <ele>171.39999389648</ele>
        <time>2024-05-20T13:47:12.000Z</time>
      </trkpt>
      <trkpt lat="45.83192" lon="4.84958">
        <ele>171</ele>
        <time>2024-05-20T13:47:13.000Z</time>
      </trkpt>
      <trkpt lat="45.83188" lon="4.84965">
        <ele>171</ele>
        <time>2024-05-20T13:47:14.000Z</time>
      </trkpt>
      <trkpt lat="45.83184" lon="4.84972">
        <ele>170.60000610352</ele>
        <time>2024-05-20T13:47:15.000Z</time>
      </trkpt>
      <trkpt lat="45.8318" lon="4.84979">
        <ele>170.39999389648</ele>
        <time>2024-05-20T13:47:16.000Z</time>
      </trkpt>
      <trkpt lat="45.83176" lon="4.84986">
        <ele>170.39999389648</ele>
        <time>2024-05-20T13:47:17.000Z</time>
      </trkpt>
      <trkpt lat="45.83172" lon="4.84993">
        <ele>169.80000305176</ele>
        <time>2024-05-20T13:47:18.000Z</time>
      </trkpt>
      <trkpt lat="45.83169" lon="4.85">
        <ele>169.80000305176</ele>
        <time>2024-05-20T13:47:19.000Z</time>
      </trkpt>
      <trkpt lat="45.83165" lon="4.85007">
        <ele>169.80000305176</ele>
        <time>2024-05-20T13:47:20.000Z</time>
      </trkpt>
      <trkpt lat="45.83161" lon="4.85013">
        <ele>169.80000305176</ele>
        <time>2024-05-20T13:47:21.000Z</time>
      </trkpt>
      <trkpt lat="45.83157" lon="4.8502">
        <ele>170</ele>
        <time>2024-05-20T13:47:22.000Z</time>
      </trkpt>
      <trkpt lat="45.83153" lon="4.85026">
        <ele>170.19999694824</ele>
        <time>2024-05-20T13:47:23.000Z</time>
      </trkpt>
      <trkpt lat="45.83149" lon="4.85033">
        <ele>170.19999694824</ele>
        <time>2024-05-20T13:47:24.000Z</time>
      </trkpt>
      <trkpt lat="45.83145" lon="4.85039">
        <ele>170.19999694824</ele>
        <time>2024-05-20T13:47:25.000Z</time>
      </trkpt>
      <trkpt lat="45.83141" lon="4.85045">
        <ele>170.19999694824</ele>
        <time>2024-05-20T13:47:26.000Z</time>
      </trkpt>
      <trkpt lat="45.83137" lon="4.85051">
        <ele>170.19999694824</ele>
        <time>2024-05-20T13:47:27.000Z</time>
      </trkpt>
      <trkpt lat="45.83133" lon="4.85057">
        <ele>170.19999694824</ele>
        <time>2024-05-20T13:47:28.000Z</time>
      </trkpt>
      <trkpt lat="45.83128" lon="4.85062">
        <ele>170.19999694824</ele>
        <time>2024-05-20T13:47:29.000Z</time>
      </trkpt>
      <trkpt lat="45.83124" lon="4.85067">
        <ele>170.19999694824</ele>
        <time>2024-05-20T13:47:30.000Z</time>
      </trkpt>
      <trkpt lat="45.8312" lon="4.85073">
        <ele>170.19999694824</ele>
        <time>2024-05-20T13:47:31.000Z</time>
      </trkpt>
      <trkpt lat="45.83115" lon="4.85078">
        <ele>170.19999694824</ele>
        <time>2024-05-20T13:47:32.000Z</time>
      </trkpt>
      <trkpt lat="45.83111" lon="4.85083">
        <ele>170</ele>
        <time>2024-05-20T13:47:33.000Z</time>
      </trkpt>
      <trkpt lat="45.83106" lon="4.85088">
        <ele>170</ele>
        <time>2024-05-20T13:47:34.000Z</time>
      </trkpt>
      <trkpt lat="45.83102" lon="4.85093">
        <ele>170</ele>
        <time>2024-05-20T13:47:35.000Z</time>
      </trkpt>
      <trkpt lat="45.83098" lon="4.85098">
        <ele>170</ele>
        <time>2024-05-20T13:47:36.000Z</time>
      </trkpt>
      <trkpt lat="45.83094" lon="4.85103">
        <ele>170.19999694824</ele>
        <time>2024-05-20T13:47:37.000Z</time>
      </trkpt>
      <trkpt lat="45.83089" lon="4.85108">
        <ele>170.19999694824</ele>
        <time>2024-05-20T13:47:38.000Z</time>
      </trkpt>
      <trkpt lat="45.83085" lon="4.85113">
        <ele>170.39999389648</ele>
        <time>2024-05-20T13:47:39.000Z</time>
      </trkpt>
      <trkpt lat="45.83081" lon="4.85118">
        <ele>170.39999389648</ele>
        <time>2024-05-20T13:47:40.000Z</time>
      </trkpt>
      <trkpt lat="45.83077" lon="4.85122">
        <ele>170.39999389648</ele>
        <time>2024-05-20T13:47:41.000Z</time>
      </trkpt>
      <trkpt lat="45.83073" lon="4.85126">
        <ele>170.39999389648</ele>
        <time>2024-05-20T13:47:42.000Z</time>
      </trkpt>
      <trkpt lat="45.83068" lon="4.8513">
        <ele>170.39999389648</ele>
        <time>2024-05-20T13:47:43.000Z</time>
      </trkpt>
      <trkpt lat="45.83064" lon="4.85135">
        <ele>170.39999389648</ele>
        <time>2024-05-20T13:47:44.000Z</time>
      </trkpt>
      <trkpt lat="45.8306" lon="4.8514">
        <ele>170.39999389648</ele>
        <time>2024-05-20T13:47:45.000Z</time>
      </trkpt>
      <trkpt lat="45.83056" lon="4.85144">
        <ele>170.39999389648</ele>
        <time>2024-05-20T13:47:46.000Z</time>
      </trkpt>
      <trkpt lat="45.83053" lon="4.85149">
        <ele>170.39999389648</ele>
        <time>2024-05-20T13:47:47.000Z</time>
      </trkpt>
      <trkpt lat="45.83049" lon="4.85153">
        <ele>170.39999389648</ele>
        <time>2024-05-20T13:47:48.000Z</time>
      </trkpt>
      <trkpt lat="45.83045" lon="4.85157">
        <ele>170.39999389648</ele>
        <time>2024-05-20T13:47:49.000Z</time>
      </trkpt>
      <trkpt lat="45.83041" lon="4.85162">
        <ele>170.60000610352</ele>
        <time>2024-05-20T13:47:50.000Z</time>
      </trkpt>
      <trkpt lat="45.83037" lon="4.85167">
        <ele>170.60000610352</ele>
        <time>2024-05-20T13:47:51.000Z</time>
      </trkpt>
      <trkpt lat="45.83033" lon="4.85171">
        <ele>170.60000610352</ele>
        <time>2024-05-20T13:47:52.000Z</time>
      </trkpt>
      <trkpt lat="45.83029" lon="4.85177">
        <ele>170.60000610352</ele>
        <time>2024-05-20T13:47:53.000Z</time>
      </trkpt>
      <trkpt lat="45.83025" lon="4.85182">
        <ele>170.39999389648</ele>
        <time>2024-05-20T13:47:54.000Z</time>
      </trkpt>
      <trkpt lat="45.8302" lon="4.85186">
        <ele>170.19999694824</ele>
        <time>2024-05-20T13:47:55.000Z</time>
      </trkpt>
      <trkpt lat="45.83016" lon="4.85191">
        <ele>170.19999694824</ele>
        <time>2024-05-20T13:47:56.000Z</time>
      </trkpt>
      <trkpt lat="45.83012" lon="4.85196">
        <ele>170</ele>
        <time>2024-05-20T13:47:57.000Z</time>
      </trkpt>
      <trkpt lat="45.83008" lon="4.852">
        <ele>170</ele>
        <time>2024-05-20T13:47:58.000Z</time>
      </trkpt>
      <trkpt lat="45.83004" lon="4.85205">
        <ele>170</ele>
        <time>2024-05-20T13:47:59.000Z</time>
      </trkpt>
      <trkpt lat="45.83" lon="4.8521">
        <ele>170</ele>
        <time>2024-05-20T13:48:00.000Z</time>
      </trkpt>
      <trkpt lat="45.82996" lon="4.85215">
        <ele>170</ele>
        <time>2024-05-20T13:48:01.000Z</time>
      </trkpt>
      <trkpt lat="45.82991" lon="4.8522">
        <ele>170</ele>
        <time>2024-05-20T13:48:02.000Z</time>
      </trkpt>
      <trkpt lat="45.82987" lon="4.85224">
        <ele>170</ele>
        <time>2024-05-20T13:48:03.000Z</time>
      </trkpt>
      <trkpt lat="45.82983" lon="4.85229">
        <ele>170</ele>
        <time>2024-05-20T13:48:04.000Z</time>
      </trkpt>
      <trkpt lat="45.82978" lon="4.85234">
        <ele>170</ele>
        <time>2024-05-20T13:48:05.000Z</time>
      </trkpt>
      <trkpt lat="45.82974" lon="4.8524">
        <ele>170</ele>
        <time>2024-05-20T13:48:06.000Z</time>
      </trkpt>
      <trkpt lat="45.82969" lon="4.85245">
        <ele>170</ele>
        <time>2024-05-20T13:48:07.000Z</time>
      </trkpt>
      <trkpt lat="45.82965" lon="4.85249">
        <ele>170</ele>
        <time>2024-05-20T13:48:08.000Z</time>
      </trkpt>
      <trkpt lat="45.82961" lon="4.85255">
        <ele>170</ele>
        <time>2024-05-20T13:48:09.000Z</time>
      </trkpt>
      <trkpt lat="45.82957" lon="4.8526">
        <ele>170</ele>
        <time>2024-05-20T13:48:10.000Z</time>
      </trkpt>
      <trkpt lat="45.82953" lon="4.85265">
        <ele>170</ele>
        <time>2024-05-20T13:48:11.000Z</time>
      </trkpt>
      <trkpt lat="45.82949" lon="4.8527">
        <ele>170</ele>
        <time>2024-05-20T13:48:12.000Z</time>
      </trkpt>
      <trkpt lat="45.82945" lon="4.85275">
        <ele>169.80000305176</ele>
        <time>2024-05-20T13:48:13.000Z</time>
      </trkpt>
      <trkpt lat="45.82941" lon="4.8528">
        <ele>169.80000305176</ele>
        <time>2024-05-20T13:48:14.000Z</time>
      </trkpt>
      <trkpt lat="45.82937" lon="4.85285">
        <ele>169.80000305176</ele>
        <time>2024-05-20T13:48:15.000Z</time>
      </trkpt>
      <trkpt lat="45.82932" lon="4.8529">
        <ele>169.80000305176</ele>
        <time>2024-05-20T13:48:16.000Z</time>
      </trkpt>
      <trkpt lat="45.82928" lon="4.85295">
        <ele>169.80000305176</ele>
        <time>2024-05-20T13:48:17.000Z</time>
      </trkpt>
      <trkpt lat="45.82924" lon="4.853">
        <ele>170</ele>
        <time>2024-05-20T13:48:18.000Z</time>
      </trkpt>
      <trkpt lat="45.8292" lon="4.85305">
        <ele>170</ele>
        <time>2024-05-20T13:48:19.000Z</time>
      </trkpt>
      <trkpt lat="45.82916" lon="4.85309">
        <ele>170</ele>
        <time>2024-05-20T13:48:20.000Z</time>
      </trkpt>
      <trkpt lat="45.82912" lon="4.85314">
        <ele>170</ele>
        <time>2024-05-20T13:48:21.000Z</time>
      </trkpt>
      <trkpt lat="45.82908" lon="4.85319">
        <ele>170</ele>
        <time>2024-05-20T13:48:22.000Z</time>
      </trkpt>
      <trkpt lat="45.82904" lon="4.85324">
        <ele>170</ele>
        <time>2024-05-20T13:48:23.000Z</time>
      </trkpt>
      <trkpt lat="45.829" lon="4.85329">
        <ele>170</ele>
        <time>2024-05-20T13:48:24.000Z</time>
      </trkpt>
      <trkpt lat="45.82896" lon="4.85334">
        <ele>170</ele>
        <time>2024-05-20T13:48:25.000Z</time>
      </trkpt>
      <trkpt lat="45.82892" lon="4.85339">
        <ele>170</ele>
        <time>2024-05-20T13:48:26.000Z</time>
      </trkpt>
      <trkpt lat="45.82888" lon="4.85344">
        <ele>170</ele>
        <time>2024-05-20T13:48:27.000Z</time>
      </trkpt>
      <trkpt lat="45.82884" lon="4.85348">
        <ele>170</ele>
        <time>2024-05-20T13:48:28.000Z</time>
      </trkpt>
      <trkpt lat="45.8288" lon="4.85353">
        <ele>170</ele>
        <time>2024-05-20T13:48:29.000Z</time>
      </trkpt>
      <trkpt lat="45.82876" lon="4.85358">
        <ele>170</ele>
        <time>2024-05-20T13:48:30.000Z</time>
      </trkpt>
      <trkpt lat="45.82871" lon="4.85363">
        <ele>170</ele>
        <time>2024-05-20T13:48:31.000Z</time>
      </trkpt>
      <trkpt lat="45.82867" lon="4.85367">
        <ele>170.19999694824</ele>
        <time>2024-05-20T13:48:32.000Z</time>
      </trkpt>
      <trkpt lat="45.82863" lon="4.85372">
        <ele>170.19999694824</ele>
        <time>2024-05-20T13:48:33.000Z</time>
      </trkpt>
      <trkpt lat="45.8286" lon="4.85378">
        <ele>170.19999694824</ele>
        <time>2024-05-20T13:48:34.000Z</time>
      </trkpt>
      <trkpt lat="45.82856" lon="4.85383">
        <ele>170.19999694824</ele>
        <time>2024-05-20T13:48:35.000Z</time>
      </trkpt>
      <trkpt lat="45.82853" lon="4.8539">
        <ele>170.19999694824</ele>
        <time>2024-05-20T13:48:36.000Z</time>
      </trkpt>
      <trkpt lat="45.8285" lon="4.85396">
        <ele>170.19999694824</ele>
        <time>2024-05-20T13:48:37.000Z</time>
      </trkpt>
      <trkpt lat="45.82848" lon="4.85402">
        <ele>170.19999694824</ele>
        <time>2024-05-20T13:48:38.000Z</time>
      </trkpt>
      <trkpt lat="45.82845" lon="4.85408">
        <ele>170.19999694824</ele>
        <time>2024-05-20T13:48:39.000Z</time>
      </trkpt>
      <trkpt lat="45.82842" lon="4.85414">
        <ele>170.39999389648</ele>
        <time>2024-05-20T13:48:40.000Z</time>
      </trkpt>
      <trkpt lat="45.82839" lon="4.85419">
        <ele>170.39999389648</ele>
        <time>2024-05-20T13:48:41.000Z</time>
      </trkpt>
      <trkpt lat="45.82836" lon="4.85424">
        <ele>170.39999389648</ele>
        <time>2024-05-20T13:48:42.000Z</time>
      </trkpt>
      <trkpt lat="45.82833" lon="4.8543">
        <ele>170.39999389648</ele>
        <time>2024-05-20T13:48:43.000Z</time>
      </trkpt>
      <trkpt lat="45.8283" lon="4.85435">
        <ele>170.39999389648</ele>
        <time>2024-05-20T13:48:44.000Z</time>
      </trkpt>
      <trkpt lat="45.82828" lon="4.8544">
        <ele>170.39999389648</ele>
        <time>2024-05-20T13:48:45.000Z</time>
      </trkpt>
      <trkpt lat="45.82825" lon="4.85445">
        <ele>170.39999389648</ele>
        <time>2024-05-20T13:48:46.000Z</time>
      </trkpt>
      <trkpt lat="45.82822" lon="4.8545">
        <ele>170.39999389648</ele>
        <time>2024-05-20T13:48:47.000Z</time>
      </trkpt>
      <trkpt lat="45.82819" lon="4.85454">
        <ele>170.39999389648</ele>
        <time>2024-05-20T13:48:48.000Z</time>
      </trkpt>
      <trkpt lat="45.82815" lon="4.85459">
        <ele>170.39999389648</ele>
        <time>2024-05-20T13:48:49.000Z</time>
      </trkpt>
      <trkpt lat="45.82811" lon="4.85464">
        <ele>170.39999389648</ele>
        <time>2024-05-20T13:48:50.000Z</time>
      </trkpt>
      <trkpt lat="45.82807" lon="4.8547">
        <ele>170.39999389648</ele>
        <time>2024-05-20T13:48:51.000Z</time>
      </trkpt>
      <trkpt lat="45.82803" lon="4.85475">
        <ele>170.19999694824</ele>
        <time>2024-05-20T13:48:52.000Z</time>
      </trkpt>
      <trkpt lat="45.82799" lon="4.85481">
        <ele>170</ele>
        <time>2024-05-20T13:48:53.000Z</time>
      </trkpt>
      <trkpt lat="45.82795" lon="4.85487">
        <ele>169.60000610352</ele>
        <time>2024-05-20T13:48:54.000Z</time>
      </trkpt>
      <trkpt lat="45.8279" lon="4.85492">
        <ele>169.60000610352</ele>
        <time>2024-05-20T13:48:55.000Z</time>
      </trkpt>
      <trkpt lat="45.82786" lon="4.85498">
        <ele>169.60000610352</ele>
        <time>2024-05-20T13:48:56.000Z</time>
      </trkpt>
      <trkpt lat="45.82781" lon="4.85503">
        <ele>169.60000610352</ele>
        <time>2024-05-20T13:48:57.000Z</time>
      </trkpt>
      <trkpt lat="45.82777" lon="4.85509">
        <ele>169.39999389648</ele>
        <time>2024-05-20T13:48:58.000Z</time>
      </trkpt>
      <trkpt lat="45.82772" lon="4.85515">
        <ele>169.60000610352</ele>
        <time>2024-05-20T13:48:59.000Z</time>
      </trkpt>
      <trkpt lat="45.82768" lon="4.85522">
        <ele>169.60000610352</ele>
        <time>2024-05-20T13:49:00.000Z</time>
      </trkpt>
      <trkpt lat="45.82763" lon="4.85528">
        <ele>169.60000610352</ele>
        <time>2024-05-20T13:49:01.000Z</time>
      </trkpt>
      <trkpt lat="45.82758" lon="4.85534">
        <ele>169.60000610352</ele>
        <time>2024-05-20T13:49:02.000Z</time>
      </trkpt>
      <trkpt lat="45.82753" lon="4.8554">
        <ele>169.80000305176</ele>
        <time>2024-05-20T13:49:03.000Z</time>
      </trkpt>
      <trkpt lat="45.82748" lon="4.85546">
        <ele>169.80000305176</ele>
        <time>2024-05-20T13:49:04.000Z</time>
      </trkpt>
      <trkpt lat="45.82743" lon="4.85552">
        <ele>170</ele>
        <time>2024-05-20T13:49:05.000Z</time>
      </trkpt>
      <trkpt lat="45.82738" lon="4.85559">
        <ele>170.19999694824</ele>
        <time>2024-05-20T13:49:06.000Z</time>
      </trkpt>
      <trkpt lat="45.82733" lon="4.85565">
        <ele>170.19999694824</ele>
        <time>2024-05-20T13:49:07.000Z</time>
      </trkpt>
      <trkpt lat="45.82728" lon="4.85572">
        <ele>170.19999694824</ele>
        <time>2024-05-20T13:49:08.000Z</time>
      </trkpt>
      <trkpt lat="45.82723" lon="4.85578">
        <ele>170.19999694824</ele>
        <time>2024-05-20T13:49:09.000Z</time>
      </trkpt>
      <trkpt lat="45.82718" lon="4.85584">
        <ele>170.19999694824</ele>
        <time>2024-05-20T13:49:10.000Z</time>
      </trkpt>
      <trkpt lat="45.82713" lon="4.8559">
        <ele>170.19999694824</ele>
        <time>2024-05-20T13:49:11.000Z</time>
      </trkpt>
      <trkpt lat="45.82709" lon="4.85597">
        <ele>170.19999694824</ele>
        <time>2024-05-20T13:49:12.000Z</time>
      </trkpt>
      <trkpt lat="45.82704" lon="4.85603">
        <ele>170.19999694824</ele>
        <time>2024-05-20T13:49:13.000Z</time>
      </trkpt>
      <trkpt lat="45.82699" lon="4.8561">
        <ele>170.39999389648</ele>
        <time>2024-05-20T13:49:14.000Z</time>
      </trkpt>
      <trkpt lat="45.82694" lon="4.85617">
        <ele>170.39999389648</ele>
        <time>2024-05-20T13:49:15.000Z</time>
      </trkpt>
      <trkpt lat="45.82689" lon="4.85623">
        <ele>170.39999389648</ele>
        <time>2024-05-20T13:49:16.000Z</time>
      </trkpt>
      <trkpt lat="45.82684" lon="4.8563">
        <ele>170.39999389648</ele>
        <time>2024-05-20T13:49:17.000Z</time>
      </trkpt>
      <trkpt lat="45.82679" lon="4.85637">
        <ele>170.39999389648</ele>
        <time>2024-05-20T13:49:18.000Z</time>
      </trkpt>
      <trkpt lat="45.82674" lon="4.85643">
        <ele>170.39999389648</ele>
        <time>2024-05-20T13:49:19.000Z</time>
      </trkpt>
      <trkpt lat="45.8267" lon="4.85649">
        <ele>170.39999389648</ele>
        <time>2024-05-20T13:49:20.000Z</time>
      </trkpt>
      <trkpt lat="45.82665" lon="4.85656">
        <ele>170.39999389648</ele>
        <time>2024-05-20T13:49:21.000Z</time>
      </trkpt>
      <trkpt lat="45.8266" lon="4.85662">
        <ele>170.39999389648</ele>
        <time>2024-05-20T13:49:22.000Z</time>
      </trkpt>
      <trkpt lat="45.82655" lon="4.85669">
        <ele>170.39999389648</ele>
        <time>2024-05-20T13:49:23.000Z</time>
      </trkpt>
      <trkpt lat="45.8265" lon="4.85675">
        <ele>170.39999389648</ele>
        <time>2024-05-20T13:49:24.000Z</time>
      </trkpt>
      <trkpt lat="45.82645" lon="4.85682">
        <ele>170.39999389648</ele>
        <time>2024-05-20T13:49:25.000Z</time>
      </trkpt>
      <trkpt lat="45.8264" lon="4.85689">
        <ele>170.19999694824</ele>
        <time>2024-05-20T13:49:26.000Z</time>
      </trkpt>
      <trkpt lat="45.82635" lon="4.85695">
        <ele>170.19999694824</ele>
        <time>2024-05-20T13:49:27.000Z</time>
      </trkpt>
      <trkpt lat="45.8263" lon="4.85702">
        <ele>170.19999694824</ele>
        <time>2024-05-20T13:49:28.000Z</time>
      </trkpt>
      <trkpt lat="45.82625" lon="4.85709">
        <ele>170.19999694824</ele>
        <time>2024-05-20T13:49:29.000Z</time>
      </trkpt>
      <trkpt lat="45.8262" lon="4.85716">
        <ele>170.39999389648</ele>
        <time>2024-05-20T13:49:30.000Z</time>
      </trkpt>
      <trkpt lat="45.82615" lon="4.85723">
        <ele>170.39999389648</ele>
        <time>2024-05-20T13:49:31.000Z</time>
      </trkpt>
      <trkpt lat="45.8261" lon="4.8573">
        <ele>170.39999389648</ele>
        <time>2024-05-20T13:49:32.000Z</time>
      </trkpt>
      <trkpt lat="45.82605" lon="4.85737">
        <ele>170.39999389648</ele>
        <time>2024-05-20T13:49:33.000Z</time>
      </trkpt>
      <trkpt lat="45.826" lon="4.85744">
        <ele>170.39999389648</ele>
        <time>2024-05-20T13:49:34.000Z</time>
      </trkpt>
      <trkpt lat="45.82595" lon="4.85751">
        <ele>170.39999389648</ele>
        <time>2024-05-20T13:49:35.000Z</time>
      </trkpt>
      <trkpt lat="45.8259" lon="4.85757">
        <ele>170.39999389648</ele>
        <time>2024-05-20T13:49:36.000Z</time>
      </trkpt>
      <trkpt lat="45.82585" lon="4.85764">
        <ele>170.39999389648</ele>
        <time>2024-05-20T13:49:37.000Z</time>
      </trkpt>
      <trkpt lat="45.8258" lon="4.85771">
        <ele>170.80000305176</ele>
        <time>2024-05-20T13:49:38.000Z</time>
      </trkpt>
      <trkpt lat="45.82575" lon="4.85778">
        <ele>170.80000305176</ele>
        <time>2024-05-20T13:49:39.000Z</time>
      </trkpt>
      <trkpt lat="45.8257" lon="4.85784">
        <ele>170.80000305176</ele>
        <time>2024-05-20T13:49:40.000Z</time>
      </trkpt>
      <trkpt lat="45.82565" lon="4.85791">
        <ele>170.80000305176</ele>
        <time>2024-05-20T13:49:41.000Z</time>
      </trkpt>
      <trkpt lat="45.8256" lon="4.85798">
        <ele>170.80000305176</ele>
        <time>2024-05-20T13:49:42.000Z</time>
      </trkpt>
      <trkpt lat="45.82555" lon="4.85804">
        <ele>170.80000305176</ele>
        <time>2024-05-20T13:49:43.000Z</time>
      </trkpt>
      <trkpt lat="45.8255" lon="4.85811">
        <ele>170.80000305176</ele>
        <time>2024-05-20T13:49:44.000Z</time>
      </trkpt>
      <trkpt lat="45.82545" lon="4.85817">
        <ele>170.80000305176</ele>
        <time>2024-05-20T13:49:45.000Z</time>
      </trkpt>
      <trkpt lat="45.8254" lon="4.85824">
        <ele>171</ele>
        <time>2024-05-20T13:49:46.000Z</time>
      </trkpt>
      <trkpt lat="45.82535" lon="4.8583">
        <ele>171</ele>
        <time>2024-05-20T13:49:47.000Z</time>
      </trkpt>
      <trkpt lat="45.82531" lon="4.85836">
        <ele>170.80000305176</ele>
        <time>2024-05-20T13:49:48.000Z</time>
      </trkpt>
      <trkpt lat="45.82525" lon="4.85841">
        <ele>170.80000305176</ele>
        <time>2024-05-20T13:49:49.000Z</time>
      </trkpt>
      <trkpt lat="45.8252" lon="4.85846">
        <ele>170.80000305176</ele>
        <time>2024-05-20T13:49:50.000Z</time>
      </trkpt>
      <trkpt lat="45.82514" lon="4.8585">
        <ele>170.80000305176</ele>
        <time>2024-05-20T13:49:51.000Z</time>
      </trkpt>
      <trkpt lat="45.82508" lon="4.85854">
        <ele>170.80000305176</ele>
        <time>2024-05-20T13:49:52.000Z</time>
      </trkpt>
      <trkpt lat="45.82503" lon="4.85857">
        <ele>170.80000305176</ele>
        <time>2024-05-20T13:49:53.000Z</time>
      </trkpt>
      <trkpt lat="45.82497" lon="4.85859">
        <ele>170.80000305176</ele>
        <time>2024-05-20T13:49:54.000Z</time>
      </trkpt>
      <trkpt lat="45.8249" lon="4.85862">
        <ele>170.80000305176</ele>
        <time>2024-05-20T13:49:55.000Z</time>
      </trkpt>
      <trkpt lat="45.82484" lon="4.85863">
        <ele>171</ele>
        <time>2024-05-20T13:49:56.000Z</time>
      </trkpt>
      <trkpt lat="45.82478" lon="4.85865">
        <ele>171</ele>
        <time>2024-05-20T13:49:57.000Z</time>
      </trkpt>
      <trkpt lat="45.82472" lon="4.85867">
        <ele>171</ele>
        <time>2024-05-20T13:49:58.000Z</time>
      </trkpt>
      <trkpt lat="45.82466" lon="4.85868">
        <ele>171.19999694824</ele>
        <time>2024-05-20T13:49:59.000Z</time>
      </trkpt>
      <trkpt lat="45.8246" lon="4.8587">
        <ele>171.19999694824</ele>
        <time>2024-05-20T13:50:00.000Z</time>
      </trkpt>
      <trkpt lat="45.82453" lon="4.85871">
        <ele>171.19999694824</ele>
        <time>2024-05-20T13:50:01.000Z</time>
      </trkpt>
      <trkpt lat="45.82447" lon="4.85872">
        <ele>171.19999694824</ele>
        <time>2024-05-20T13:50:02.000Z</time>
      </trkpt>
      <trkpt lat="45.82441" lon="4.85874">
        <ele>171.39999389648</ele>
        <time>2024-05-20T13:50:03.000Z</time>
      </trkpt>
      <trkpt lat="45.82435" lon="4.85876">
        <ele>171.39999389648</ele>
        <time>2024-05-20T13:50:04.000Z</time>
      </trkpt>
      <trkpt lat="45.82428" lon="4.85878">
        <ele>171.60000610352</ele>
        <time>2024-05-20T13:50:05.000Z</time>
      </trkpt>
      <trkpt lat="45.82422" lon="4.85879">
        <ele>171.60000610352</ele>
        <time>2024-05-20T13:50:06.000Z</time>
      </trkpt>
      <trkpt lat="45.82416" lon="4.85881">
        <ele>171.60000610352</ele>
        <time>2024-05-20T13:50:07.000Z</time>
      </trkpt>
      <trkpt lat="45.82409" lon="4.85882">
        <ele>171.60000610352</ele>
        <time>2024-05-20T13:50:08.000Z</time>
      </trkpt>
      <trkpt lat="45.82403" lon="4.85884">
        <ele>171.60000610352</ele>
        <time>2024-05-20T13:50:09.000Z</time>
      </trkpt>
      <trkpt lat="45.82397" lon="4.85886">
        <ele>171.60000610352</ele>
        <time>2024-05-20T13:50:10.000Z</time>
      </trkpt>
      <trkpt lat="45.8239" lon="4.85887">
        <ele>171.60000610352</ele>
        <time>2024-05-20T13:50:11.000Z</time>
      </trkpt>
      <trkpt lat="45.82384" lon="4.85889">
        <ele>171.60000610352</ele>
        <time>2024-05-20T13:50:12.000Z</time>
      </trkpt>
      <trkpt lat="45.82378" lon="4.8589">
        <ele>171.60000610352</ele>
        <time>2024-05-20T13:50:13.000Z</time>
      </trkpt>
      <trkpt lat="45.82372" lon="4.85892">
        <ele>171.39999389648</ele>
        <time>2024-05-20T13:50:14.000Z</time>
      </trkpt>
      <trkpt lat="45.82365" lon="4.85893">
        <ele>171.39999389648</ele>
        <time>2024-05-20T13:50:15.000Z</time>
      </trkpt>
      <trkpt lat="45.82359" lon="4.85894">
        <ele>171.39999389648</ele>
        <time>2024-05-20T13:50:16.000Z</time>
      </trkpt>
      <trkpt lat="45.82353" lon="4.85895">
        <ele>171.19999694824</ele>
        <time>2024-05-20T13:50:17.000Z</time>
      </trkpt>
      <trkpt lat="45.82346" lon="4.85896">
        <ele>171.19999694824</ele>
        <time>2024-05-20T13:50:18.000Z</time>
      </trkpt>
      <trkpt lat="45.8234" lon="4.85897">
        <ele>171.19999694824</ele>
        <time>2024-05-20T13:50:19.000Z</time>
      </trkpt>
      <trkpt lat="45.82333" lon="4.85897">
        <ele>171.19999694824</ele>
        <time>2024-05-20T13:50:20.000Z</time>
      </trkpt>
      <trkpt lat="45.82327" lon="4.85898">
        <ele>171.19999694824</ele>
        <time>2024-05-20T13:50:21.000Z</time>
      </trkpt>
      <trkpt lat="45.82321" lon="4.85898">
        <ele>171.19999694824</ele>
        <time>2024-05-20T13:50:22.000Z</time>
      </trkpt>
      <trkpt lat="45.82314" lon="4.85898">
        <ele>171.19999694824</ele>
        <time>2024-05-20T13:50:23.000Z</time>
      </trkpt>
      <trkpt lat="45.82307" lon="4.85898">
        <ele>171.60000610352</ele>
        <time>2024-05-20T13:50:24.000Z</time>
      </trkpt>
      <trkpt lat="45.82301" lon="4.85898">
        <ele>171.80000305176</ele>
        <time>2024-05-20T13:50:25.000Z</time>
      </trkpt>
      <trkpt lat="45.82294" lon="4.85898">
        <ele>171.80000305176</ele>
        <time>2024-05-20T13:50:26.000Z</time>
      </trkpt>
      <trkpt lat="45.82287" lon="4.85897">
        <ele>171.80000305176</ele>
        <time>2024-05-20T13:50:27.000Z</time>
      </trkpt>
      <trkpt lat="45.82281" lon="4.85897">
        <ele>171.80000305176</ele>
        <time>2024-05-20T13:50:28.000Z</time>
      </trkpt>
      <trkpt lat="45.82274" lon="4.85898">
        <ele>171.80000305176</ele>
        <time>2024-05-20T13:50:29.000Z</time>
      </trkpt>
      <trkpt lat="45.82267" lon="4.85898">
        <ele>171.60000610352</ele>
        <time>2024-05-20T13:50:30.000Z</time>
      </trkpt>
      <trkpt lat="45.82261" lon="4.85898">
        <ele>171.60000610352</ele>
        <time>2024-05-20T13:50:31.000Z</time>
      </trkpt>
      <trkpt lat="45.82254" lon="4.85897">
        <ele>171.60000610352</ele>
        <time>2024-05-20T13:50:32.000Z</time>
      </trkpt>
      <trkpt lat="45.82247" lon="4.85896">
        <ele>171.60000610352</ele>
        <time>2024-05-20T13:50:33.000Z</time>
      </trkpt>
      <trkpt lat="45.8224" lon="4.85895">
        <ele>171.60000610352</ele>
        <time>2024-05-20T13:50:34.000Z</time>
      </trkpt>
      <trkpt lat="45.82234" lon="4.85894">
        <ele>171.60000610352</ele>
        <time>2024-05-20T13:50:35.000Z</time>
      </trkpt>
      <trkpt lat="45.82227" lon="4.85892">
        <ele>171.60000610352</ele>
        <time>2024-05-20T13:50:36.000Z</time>
      </trkpt>
      <trkpt lat="45.82221" lon="4.85891">
        <ele>171.39999389648</ele>
        <time>2024-05-20T13:50:37.000Z</time>
      </trkpt>
      <trkpt lat="45.82214" lon="4.85889">
        <ele>171.39999389648</ele>
        <time>2024-05-20T13:50:38.000Z</time>
      </trkpt>
      <trkpt lat="45.82207" lon="4.85887">
        <ele>171.39999389648</ele>
        <time>2024-05-20T13:50:39.000Z</time>
      </trkpt>
      <trkpt lat="45.822" lon="4.85885">
        <ele>171.39999389648</ele>
        <time>2024-05-20T13:50:40.000Z</time>
      </trkpt>
      <trkpt lat="45.82194" lon="4.85884">
        <ele>171.19999694824</ele>
        <time>2024-05-20T13:50:41.000Z</time>
      </trkpt>
      <trkpt lat="45.82188" lon="4.85883">
        <ele>171.19999694824</ele>
        <time>2024-05-20T13:50:42.000Z</time>
      </trkpt>
      <trkpt lat="45.82182" lon="4.85881">
        <ele>171.19999694824</ele>
        <time>2024-05-20T13:50:43.000Z</time>
      </trkpt>
      <trkpt lat="45.82175" lon="4.8588">
        <ele>171.19999694824</ele>
        <time>2024-05-20T13:50:44.000Z</time>
      </trkpt>
      <trkpt lat="45.82168" lon="4.85878">
        <ele>171.19999694824</ele>
        <time>2024-05-20T13:50:45.000Z</time>
      </trkpt>
      <trkpt lat="45.82162" lon="4.85876">
        <ele>171.19999694824</ele>
        <time>2024-05-20T13:50:46.000Z</time>
      </trkpt>
      <trkpt lat="45.82155" lon="4.85874">
        <ele>171.19999694824</ele>
        <time>2024-05-20T13:50:47.000Z</time>
      </trkpt>
      <trkpt lat="45.82149" lon="4.85872">
        <ele>171.19999694824</ele>
        <time>2024-05-20T13:50:48.000Z</time>
      </trkpt>
      <trkpt lat="45.82142" lon="4.85869">
        <ele>171.39999389648</ele>
        <time>2024-05-20T13:50:49.000Z</time>
      </trkpt>
      <trkpt lat="45.82136" lon="4.85866">
        <ele>171.39999389648</ele>
        <time>2024-05-20T13:50:50.000Z</time>
      </trkpt>
      <trkpt lat="45.82129" lon="4.85863">
        <ele>171.39999389648</ele>
        <time>2024-05-20T13:50:51.000Z</time>
      </trkpt>
      <trkpt lat="45.82123" lon="4.8586">
        <ele>171.39999389648</ele>
        <time>2024-05-20T13:50:52.000Z</time>
      </trkpt>
      <trkpt lat="45.82116" lon="4.85858">
        <ele>171.39999389648</ele>
        <time>2024-05-20T13:50:53.000Z</time>
      </trkpt>
      <trkpt lat="45.8211" lon="4.85855">
        <ele>171.39999389648</ele>
        <time>2024-05-20T13:50:54.000Z</time>
      </trkpt>
      <trkpt lat="45.82104" lon="4.85852">
        <ele>171.39999389648</ele>
        <time>2024-05-20T13:50:55.000Z</time>
      </trkpt>
      <trkpt lat="45.82097" lon="4.8585">
        <ele>171.39999389648</ele>
        <time>2024-05-20T13:50:56.000Z</time>
      </trkpt>
      <trkpt lat="45.82091" lon="4.85847">
        <ele>171.39999389648</ele>
        <time>2024-05-20T13:50:57.000Z</time>
      </trkpt>
      <trkpt lat="45.82084" lon="4.85845">
        <ele>171.19999694824</ele>
        <time>2024-05-20T13:50:58.000Z</time>
      </trkpt>
      <trkpt lat="45.82078" lon="4.85843">
        <ele>171.19999694824</ele>
        <time>2024-05-20T13:50:59.000Z</time>
      </trkpt>
      <trkpt lat="45.82071" lon="4.85841">
        <ele>171.19999694824</ele>
        <time>2024-05-20T13:51:00.000Z</time>
      </trkpt>
      <trkpt lat="45.82065" lon="4.85838">
        <ele>171.19999694824</ele>
        <time>2024-05-20T13:51:01.000Z</time>
      </trkpt>
      <trkpt lat="45.82058" lon="4.85836">
        <ele>171.19999694824</ele>
        <time>2024-05-20T13:51:02.000Z</time>
      </trkpt>
      <trkpt lat="45.82051" lon="4.85834">
        <ele>171.19999694824</ele>
        <time>2024-05-20T13:51:03.000Z</time>
      </trkpt>
      <trkpt lat="45.82045" lon="4.85832">
        <ele>171.19999694824</ele>
        <time>2024-05-20T13:51:04.000Z</time>
      </trkpt>
      <trkpt lat="45.82039" lon="4.8583">
        <ele>171</ele>
        <time>2024-05-20T13:51:05.000Z</time>
      </trkpt>
      <trkpt lat="45.82032" lon="4.85827">
        <ele>171</ele>
        <time>2024-05-20T13:51:06.000Z</time>
      </trkpt>
      <trkpt lat="45.82027" lon="4.85825">
        <ele>171</ele>
        <time>2024-05-20T13:51:07.000Z</time>
      </trkpt>
      <trkpt lat="45.82019" lon="4.85823">
        <ele>171</ele>
        <time>2024-05-20T13:51:08.000Z</time>
      </trkpt>
      <trkpt lat="45.82013" lon="4.8582">
        <ele>171.19999694824</ele>
        <time>2024-05-20T13:51:09.000Z</time>
      </trkpt>
      <trkpt lat="45.82007" lon="4.85818">
        <ele>171.19999694824</ele>
        <time>2024-05-20T13:51:10.000Z</time>
      </trkpt>
      <trkpt lat="45.82" lon="4.85816">
        <ele>171.19999694824</ele>
        <time>2024-05-20T13:51:11.000Z</time>
      </trkpt>
      <trkpt lat="45.81994" lon="4.85814">
        <ele>171.19999694824</ele>
        <time>2024-05-20T13:51:12.000Z</time>
      </trkpt>
      <trkpt lat="45.81988" lon="4.85811">
        <ele>171.19999694824</ele>
        <time>2024-05-20T13:51:13.000Z</time>
      </trkpt>
      <trkpt lat="45.81982" lon="4.85809">
        <ele>171.19999694824</ele>
        <time>2024-05-20T13:51:14.000Z</time>
      </trkpt>
      <trkpt lat="45.81975" lon="4.85807">
        <ele>171.19999694824</ele>
        <time>2024-05-20T13:51:15.000Z</time>
      </trkpt>
      <trkpt lat="45.81969" lon="4.85805">
        <ele>171</ele>
        <time>2024-05-20T13:51:16.000Z</time>
      </trkpt>
      <trkpt lat="45.81962" lon="4.85802">
        <ele>171</ele>
        <time>2024-05-20T13:51:17.000Z</time>
      </trkpt>
      <trkpt lat="45.81956" lon="4.85799">
        <ele>171</ele>
        <time>2024-05-20T13:51:18.000Z</time>
      </trkpt>
      <trkpt lat="45.8195" lon="4.85797">
        <ele>171</ele>
        <time>2024-05-20T13:51:19.000Z</time>
      </trkpt>
      <trkpt lat="45.81943" lon="4.85795">
        <ele>171.39999389648</ele>
        <time>2024-05-20T13:51:20.000Z</time>
      </trkpt>
      <trkpt lat="45.81937" lon="4.85792">
        <ele>171.39999389648</ele>
        <time>2024-05-20T13:51:21.000Z</time>
      </trkpt>
      <trkpt lat="45.81931" lon="4.85788">
        <ele>171.60000610352</ele>
        <time>2024-05-20T13:51:22.000Z</time>
      </trkpt>
      <trkpt lat="45.81925" lon="4.85784">
        <ele>171.80000305176</ele>
        <time>2024-05-20T13:51:23.000Z</time>
      </trkpt>
      <trkpt lat="45.81919" lon="4.8578">
        <ele>171.80000305176</ele>
        <time>2024-05-20T13:51:24.000Z</time>
      </trkpt>
      <trkpt lat="45.81912" lon="4.85775">
        <ele>171.80000305176</ele>
        <time>2024-05-20T13:51:25.000Z</time>
      </trkpt>
      <trkpt lat="45.81906" lon="4.8577">
        <ele>171.80000305176</ele>
        <time>2024-05-20T13:51:26.000Z</time>
      </trkpt>
      <trkpt lat="45.81901" lon="4.85765">
        <ele>171.80000305176</ele>
        <time>2024-05-20T13:51:27.000Z</time>
      </trkpt>
      <trkpt lat="45.81895" lon="4.8576">
        <ele>171.80000305176</ele>
        <time>2024-05-20T13:51:28.000Z</time>
      </trkpt>
      <trkpt lat="45.81889" lon="4.85756">
        <ele>171.80000305176</ele>
        <time>2024-05-20T13:51:29.000Z</time>
      </trkpt>
      <trkpt lat="45.81883" lon="4.85752">
        <ele>171.80000305176</ele>
        <time>2024-05-20T13:51:30.000Z</time>
      </trkpt>
      <trkpt lat="45.81877" lon="4.85748">
        <ele>171.80000305176</ele>
        <time>2024-05-20T13:51:31.000Z</time>
      </trkpt>
      <trkpt lat="45.81871" lon="4.85744">
        <ele>171.80000305176</ele>
        <time>2024-05-20T13:51:32.000Z</time>
      </trkpt>
      <trkpt lat="45.81866" lon="4.8574">
        <ele>171.80000305176</ele>
        <time>2024-05-20T13:51:33.000Z</time>
      </trkpt>
      <trkpt lat="45.8186" lon="4.85735">
        <ele>171.80000305176</ele>
        <time>2024-05-20T13:51:34.000Z</time>
      </trkpt>
      <trkpt lat="45.81855" lon="4.8573">
        <ele>171.80000305176</ele>
        <time>2024-05-20T13:51:35.000Z</time>
      </trkpt>
      <trkpt lat="45.81849" lon="4.85726">
        <ele>171.80000305176</ele>
        <time>2024-05-20T13:51:36.000Z</time>
      </trkpt>
      <trkpt lat="45.81843" lon="4.8572">
        <ele>171.80000305176</ele>
        <time>2024-05-20T13:51:37.000Z</time>
      </trkpt>
      <trkpt lat="45.81837" lon="4.85715">
        <ele>171.80000305176</ele>
        <time>2024-05-20T13:51:38.000Z</time>
      </trkpt>
      <trkpt lat="45.81831" lon="4.85711">
        <ele>171.80000305176</ele>
        <time>2024-05-20T13:51:39.000Z</time>
      </trkpt>
      <trkpt lat="45.81825" lon="4.85706">
        <ele>171.80000305176</ele>
        <time>2024-05-20T13:51:40.000Z</time>
      </trkpt>
      <trkpt lat="45.81819" lon="4.85701">
        <ele>171.80000305176</ele>
        <time>2024-05-20T13:51:41.000Z</time>
      </trkpt>
      <trkpt lat="45.81813" lon="4.85696">
        <ele>171.80000305176</ele>
        <time>2024-05-20T13:51:42.000Z</time>
      </trkpt>
      <trkpt lat="45.81807" lon="4.8569">
        <ele>171.80000305176</ele>
        <time>2024-05-20T13:51:43.000Z</time>
      </trkpt>
      <trkpt lat="45.81801" lon="4.85685">
        <ele>171.80000305176</ele>
        <time>2024-05-20T13:51:44.000Z</time>
      </trkpt>
      <trkpt lat="45.81795" lon="4.8568">
        <ele>171.80000305176</ele>
        <time>2024-05-20T13:51:45.000Z</time>
      </trkpt>
      <trkpt lat="45.81789" lon="4.85675">
        <ele>171.80000305176</ele>
        <time>2024-05-20T13:51:46.000Z</time>
      </trkpt>
      <trkpt lat="45.81783" lon="4.8567">
        <ele>171.80000305176</ele>
        <time>2024-05-20T13:51:47.000Z</time>
      </trkpt>
      <trkpt lat="45.81778" lon="4.85665">
        <ele>171.80000305176</ele>
        <time>2024-05-20T13:51:48.000Z</time>
      </trkpt>
      <trkpt lat="45.81772" lon="4.85659">
        <ele>171.80000305176</ele>
        <time>2024-05-20T13:51:49.000Z</time>
      </trkpt>
      <trkpt lat="45.81767" lon="4.85653">
        <ele>171.80000305176</ele>
        <time>2024-05-20T13:51:50.000Z</time>
      </trkpt>
      <trkpt lat="45.81761" lon="4.85647">
        <ele>171.80000305176</ele>
        <time>2024-05-20T13:51:51.000Z</time>
      </trkpt>
      <trkpt lat="45.81756" lon="4.85642">
        <ele>171.80000305176</ele>
        <time>2024-05-20T13:51:52.000Z</time>
      </trkpt>
      <trkpt lat="45.8175" lon="4.85636">
        <ele>171.80000305176</ele>
        <time>2024-05-20T13:51:53.000Z</time>
      </trkpt>
      <trkpt lat="45.81745" lon="4.8563">
        <ele>171.80000305176</ele>
        <time>2024-05-20T13:51:54.000Z</time>
      </trkpt>
      <trkpt lat="45.81739" lon="4.85624">
        <ele>171.80000305176</ele>
        <time>2024-05-20T13:51:55.000Z</time>
      </trkpt>
      <trkpt lat="45.81733" lon="4.85617">
        <ele>171.80000305176</ele>
        <time>2024-05-20T13:51:56.000Z</time>
      </trkpt>
      <trkpt lat="45.81728" lon="4.85611">
        <ele>171.80000305176</ele>
        <time>2024-05-20T13:51:57.000Z</time>
      </trkpt>
      <trkpt lat="45.81723" lon="4.85605">
        <ele>171.80000305176</ele>
        <time>2024-05-20T13:51:58.000Z</time>
      </trkpt>
      <trkpt lat="45.81717" lon="4.85598">
        <ele>171.80000305176</ele>
        <time>2024-05-20T13:51:59.000Z</time>
      </trkpt>
      <trkpt lat="45.81711" lon="4.85591">
        <ele>172</ele>
        <time>2024-05-20T13:52:00.000Z</time>
      </trkpt>
      <trkpt lat="45.81706" lon="4.85583">
        <ele>172</ele>
        <time>2024-05-20T13:52:01.000Z</time>
      </trkpt>
      <trkpt lat="45.81701" lon="4.85577">
        <ele>172</ele>
        <time>2024-05-20T13:52:02.000Z</time>
      </trkpt>
      <trkpt lat="45.81695" lon="4.85569">
        <ele>172</ele>
        <time>2024-05-20T13:52:03.000Z</time>
      </trkpt>
      <trkpt lat="45.8169" lon="4.85563">
        <ele>172</ele>
        <time>2024-05-20T13:52:04.000Z</time>
      </trkpt>
      <trkpt lat="45.81684" lon="4.85556">
        <ele>172</ele>
        <time>2024-05-20T13:52:05.000Z</time>
      </trkpt>
      <trkpt lat="45.8168" lon="4.85546">
        <ele>172</ele>
        <time>2024-05-20T13:52:06.000Z</time>
      </trkpt>
      <trkpt lat="45.81675" lon="4.85538">
        <ele>172</ele>
        <time>2024-05-20T13:52:07.000Z</time>
      </trkpt>
      <trkpt lat="45.81671" lon="4.85531">
        <ele>172</ele>
        <time>2024-05-20T13:52:08.000Z</time>
      </trkpt>
      <trkpt lat="45.81667" lon="4.85523">
        <ele>172</ele>
        <time>2024-05-20T13:52:09.000Z</time>
      </trkpt>
      <trkpt lat="45.81663" lon="4.85514">
        <ele>172</ele>
        <time>2024-05-20T13:52:10.000Z</time>
      </trkpt>
      <trkpt lat="45.81659" lon="4.85507">
        <ele>172</ele>
        <time>2024-05-20T13:52:11.000Z</time>
      </trkpt>
      <trkpt lat="45.81655" lon="4.85499">
        <ele>172</ele>
        <time>2024-05-20T13:52:12.000Z</time>
      </trkpt>
      <trkpt lat="45.81651" lon="4.8549">
        <ele>172</ele>
        <time>2024-05-20T13:52:13.000Z</time>
      </trkpt>
      <trkpt lat="45.81647" lon="4.85482">
        <ele>172</ele>
        <time>2024-05-20T13:52:14.000Z</time>
      </trkpt>
      <trkpt lat="45.81643" lon="4.85474">
        <ele>171.80000305176</ele>
        <time>2024-05-20T13:52:15.000Z</time>
      </trkpt>
      <trkpt lat="45.81639" lon="4.85466">
        <ele>171.80000305176</ele>
        <time>2024-05-20T13:52:16.000Z</time>
      </trkpt>
      <trkpt lat="45.81635" lon="4.85458">
        <ele>171.80000305176</ele>
        <time>2024-05-20T13:52:17.000Z</time>
      </trkpt>
      <trkpt lat="45.8163" lon="4.8545">
        <ele>171.60000610352</ele>
        <time>2024-05-20T13:52:18.000Z</time>
      </trkpt>
      <trkpt lat="45.81626" lon="4.85442">
        <ele>171.39999389648</ele>
        <time>2024-05-20T13:52:19.000Z</time>
      </trkpt>
      <trkpt lat="45.81621" lon="4.85434">
        <ele>171.39999389648</ele>
        <time>2024-05-20T13:52:20.000Z</time>
      </trkpt>
      <trkpt lat="45.81617" lon="4.85426">
        <ele>171.19999694824</ele>
        <time>2024-05-20T13:52:21.000Z</time>
      </trkpt>
      <trkpt lat="45.81613" lon="4.85418">
        <ele>171.19999694824</ele>
        <time>2024-05-20T13:52:22.000Z</time>
      </trkpt>
      <trkpt lat="45.81609" lon="4.8541">
        <ele>171.19999694824</ele>
        <time>2024-05-20T13:52:23.000Z</time>
      </trkpt>
      <trkpt lat="45.81605" lon="4.85401">
        <ele>171.19999694824</ele>
        <time>2024-05-20T13:52:24.000Z</time>
      </trkpt>
      <trkpt lat="45.81601" lon="4.85393">
        <ele>171.19999694824</ele>
        <time>2024-05-20T13:52:25.000Z</time>
      </trkpt>
      <trkpt lat="45.81598" lon="4.85384">
        <ele>171</ele>
        <time>2024-05-20T13:52:26.000Z</time>
      </trkpt>
      <trkpt lat="45.81594" lon="4.85375">
        <ele>171</ele>
        <time>2024-05-20T13:52:27.000Z</time>
      </trkpt>
      <trkpt lat="45.8159" lon="4.85366">
        <ele>171</ele>
        <time>2024-05-20T13:52:28.000Z</time>
      </trkpt>
      <trkpt lat="45.81587" lon="4.85357">
        <ele>170.80000305176</ele>
        <time>2024-05-20T13:52:29.000Z</time>
      </trkpt>
      <trkpt lat="45.81583" lon="4.85348">
        <ele>170.80000305176</ele>
        <time>2024-05-20T13:52:30.000Z</time>
      </trkpt>
      <trkpt lat="45.8158" lon="4.85339">
        <ele>170.60000610352</ele>
        <time>2024-05-20T13:52:31.000Z</time>
      </trkpt>
      <trkpt lat="45.81576" lon="4.8533">
        <ele>170.39999389648</ele>
        <time>2024-05-20T13:52:32.000Z</time>
      </trkpt>
      <trkpt lat="45.81573" lon="4.85321">
        <ele>170.39999389648</ele>
        <time>2024-05-20T13:52:33.000Z</time>
      </trkpt>
      <trkpt lat="45.8157" lon="4.85312">
        <ele>170.19999694824</ele>
        <time>2024-05-20T13:52:34.000Z</time>
      </trkpt>
      <trkpt lat="45.81566" lon="4.85304">
        <ele>170.19999694824</ele>
        <time>2024-05-20T13:52:35.000Z</time>
      </trkpt>
      <trkpt lat="45.81563" lon="4.85295">
        <ele>170.19999694824</ele>
        <time>2024-05-20T13:52:36.000Z</time>
      </trkpt>
      <trkpt lat="45.81559" lon="4.85287">
        <ele>170.19999694824</ele>
        <time>2024-05-20T13:52:37.000Z</time>
      </trkpt>
      <trkpt lat="45.81555" lon="4.85279">
        <ele>170.19999694824</ele>
        <time>2024-05-20T13:52:38.000Z</time>
      </trkpt>
      <trkpt lat="45.8155" lon="4.85271">
        <ele>170.19999694824</ele>
        <time>2024-05-20T13:52:39.000Z</time>
      </trkpt>
      <trkpt lat="45.81546" lon="4.85264">
        <ele>170.19999694824</ele>
        <time>2024-05-20T13:52:40.000Z</time>
      </trkpt>
      <trkpt lat="45.81542" lon="4.85257">
        <ele>170.19999694824</ele>
        <time>2024-05-20T13:52:41.000Z</time>
      </trkpt>
      <trkpt lat="45.81537" lon="4.8525">
        <ele>170.39999389648</ele>
        <time>2024-05-20T13:52:42.000Z</time>
      </trkpt>
      <trkpt lat="45.81533" lon="4.85243">
        <ele>170.60000610352</ele>
        <time>2024-05-20T13:52:43.000Z</time>
      </trkpt>
      <trkpt lat="45.81529" lon="4.85236">
        <ele>170.60000610352</ele>
        <time>2024-05-20T13:52:44.000Z</time>
      </trkpt>
      <trkpt lat="45.81524" lon="4.85228">
        <ele>170.80000305176</ele>
        <time>2024-05-20T13:52:45.000Z</time>
      </trkpt>
      <trkpt lat="45.8152" lon="4.85221">
        <ele>170.80000305176</ele>
        <time>2024-05-20T13:52:46.000Z</time>
      </trkpt>
      <trkpt lat="45.81516" lon="4.85214">
        <ele>170.80000305176</ele>
        <time>2024-05-20T13:52:47.000Z</time>
      </trkpt>
      <trkpt lat="45.81511" lon="4.85207">
        <ele>170.80000305176</ele>
        <time>2024-05-20T13:52:48.000Z</time>
      </trkpt>
      <trkpt lat="45.81507" lon="4.852">
        <ele>170.80000305176</ele>
        <time>2024-05-20T13:52:49.000Z</time>
      </trkpt>
      <trkpt lat="45.81503" lon="4.85193">
        <ele>171</ele>
        <time>2024-05-20T13:52:50.000Z</time>
      </trkpt>
      <trkpt lat="45.81499" lon="4.85185">
        <ele>171</ele>
        <time>2024-05-20T13:52:51.000Z</time>
      </trkpt>
      <trkpt lat="45.81494" lon="4.85178">
        <ele>171</ele>
        <time>2024-05-20T13:52:52.000Z</time>
      </trkpt>
      <trkpt lat="45.8149" lon="4.8517">
        <ele>171</ele>
        <time>2024-05-20T13:52:53.000Z</time>
      </trkpt>
      <trkpt lat="45.81486" lon="4.85163">
        <ele>171.19999694824</ele>
        <time>2024-05-20T13:52:54.000Z</time>
      </trkpt>
      <trkpt lat="45.81483" lon="4.85155">
        <ele>171.39999389648</ele>
        <time>2024-05-20T13:52:55.000Z</time>
      </trkpt>
      <trkpt lat="45.8148" lon="4.85147">
        <ele>171.39999389648</ele>
        <time>2024-05-20T13:52:56.000Z</time>
      </trkpt>
      <trkpt lat="45.81477" lon="4.85139">
        <ele>171.60000610352</ele>
        <time>2024-05-20T13:52:57.000Z</time>
      </trkpt>
      <trkpt lat="45.81473" lon="4.85131">
        <ele>171.60000610352</ele>
        <time>2024-05-20T13:52:58.000Z</time>
      </trkpt>
      <trkpt lat="45.8147" lon="4.85123">
        <ele>171.80000305176</ele>
        <time>2024-05-20T13:52:59.000Z</time>
      </trkpt>
      <trkpt lat="45.81467" lon="4.85115">
        <ele>171.80000305176</ele>
        <time>2024-05-20T13:53:00.000Z</time>
      </trkpt>
      <trkpt lat="45.81464" lon="4.85108">
        <ele>172</ele>
        <time>2024-05-20T13:53:01.000Z</time>
      </trkpt>
      <trkpt lat="45.8146" lon="4.851">
        <ele>172</ele>
        <time>2024-05-20T13:53:02.000Z</time>
      </trkpt>
      <trkpt lat="45.81457" lon="4.85092">
        <ele>172</ele>
        <time>2024-05-20T13:53:03.000Z</time>
      </trkpt>
      <trkpt lat="45.81453" lon="4.85084">
        <ele>172</ele>
        <time>2024-05-20T13:53:04.000Z</time>
      </trkpt>
      <trkpt lat="45.81449" lon="4.85076">
        <ele>172</ele>
        <time>2024-05-20T13:53:05.000Z</time>
      </trkpt>
      <trkpt lat="45.81445" lon="4.85068">
        <ele>172.19999694824</ele>
        <time>2024-05-20T13:53:06.000Z</time>
      </trkpt>
      <trkpt lat="45.81442" lon="4.8506">
        <ele>172.19999694824</ele>
        <time>2024-05-20T13:53:07.000Z</time>
      </trkpt>
      <trkpt lat="45.81439" lon="4.85052">
        <ele>172.39999389648</ele>
        <time>2024-05-20T13:53:08.000Z</time>
      </trkpt>
      <trkpt lat="45.81435" lon="4.85044">
        <ele>172.39999389648</ele>
        <time>2024-05-20T13:53:09.000Z</time>
      </trkpt>
      <trkpt lat="45.81432" lon="4.85036">
        <ele>172.39999389648</ele>
        <time>2024-05-20T13:53:10.000Z</time>
      </trkpt>
      <trkpt lat="45.81429" lon="4.85028">
        <ele>172.39999389648</ele>
        <time>2024-05-20T13:53:11.000Z</time>
      </trkpt>
      <trkpt lat="45.81425" lon="4.8502">
        <ele>172.39999389648</ele>
        <time>2024-05-20T13:53:12.000Z</time>
      </trkpt>
      <trkpt lat="45.81421" lon="4.85012">
        <ele>172.39999389648</ele>
        <time>2024-05-20T13:53:13.000Z</time>
      </trkpt>
      <trkpt lat="45.81418" lon="4.85004">
        <ele>172.39999389648</ele>
        <time>2024-05-20T13:53:14.000Z</time>
      </trkpt>
      <trkpt lat="45.81414" lon="4.84995">
        <ele>172.39999389648</ele>
        <time>2024-05-20T13:53:15.000Z</time>
      </trkpt>
      <trkpt lat="45.81411" lon="4.84989">
        <ele>172.39999389648</ele>
        <time>2024-05-20T13:53:16.000Z</time>
      </trkpt>
      <trkpt lat="45.81408" lon="4.84982">
        <ele>172.39999389648</ele>
        <time>2024-05-20T13:53:17.000Z</time>
      </trkpt>
      <trkpt lat="45.81405" lon="4.84976">
        <ele>172.19999694824</ele>
        <time>2024-05-20T13:53:18.000Z</time>
      </trkpt>
      <trkpt lat="45.81403" lon="4.8497">
        <ele>172</ele>
        <time>2024-05-20T13:53:19.000Z</time>
      </trkpt>
      <trkpt lat="45.814" lon="4.84965">
        <ele>172</ele>
        <time>2024-05-20T13:53:20.000Z</time>
      </trkpt>
      <trkpt lat="45.81398" lon="4.8496">
        <ele>172</ele>
        <time>2024-05-20T13:53:21.000Z</time>
      </trkpt>
      <trkpt lat="45.81397" lon="4.84956">
        <ele>172</ele>
        <time>2024-05-20T13:53:22.000Z</time>
      </trkpt>
      <trkpt lat="45.81396" lon="4.84953">
        <ele>172.19999694824</ele>
        <time>2024-05-20T13:53:23.000Z</time>
      </trkpt>
      <trkpt lat="45.81395" lon="4.8495">
        <ele>172.60000610352</ele>
        <time>2024-05-20T13:53:24.000Z</time>
      </trkpt>
      <trkpt lat="45.81394" lon="4.84947">
        <ele>173</ele>
        <time>2024-05-20T13:53:25.000Z</time>
      </trkpt>
      <trkpt lat="45.81393" lon="4.84945">
        <ele>173.19999694824</ele>
        <time>2024-05-20T13:53:26.000Z</time>
      </trkpt>
      <trkpt lat="45.81393" lon="4.84944">
        <ele>173.19999694824</ele>
        <time>2024-05-20T13:53:27.000Z</time>
      </trkpt>
      <trkpt lat="45.81393" lon="4.84944">
        <ele>173.39999389648</ele>
        <time>2024-05-20T13:53:28.000Z</time>
      </trkpt>
      <trkpt lat="45.81393" lon="4.84944">
        <ele>173.60000610352</ele>
        <time>2024-05-20T13:53:29.000Z</time>
      </trkpt>
      <trkpt lat="45.8139" lon="4.84939">
        <ele>173.60000610352</ele>
        <time>2024-05-20T13:53:33.000Z</time>
      </trkpt>
      <trkpt lat="45.81389" lon="4.84936">
        <ele>173.60000610352</ele>
        <time>2024-05-20T13:53:34.000Z</time>
      </trkpt>
      <trkpt lat="45.81388" lon="4.84933">
        <ele>173.39999389648</ele>
        <time>2024-05-20T13:53:35.000Z</time>
      </trkpt>
      <trkpt lat="45.81387" lon="4.8493">
        <ele>173.39999389648</ele>
        <time>2024-05-20T13:53:36.000Z</time>
      </trkpt>
      <trkpt lat="45.81386" lon="4.84926">
        <ele>173.19999694824</ele>
        <time>2024-05-20T13:53:37.000Z</time>
      </trkpt>
      <trkpt lat="45.81384" lon="4.84922">
        <ele>173.19999694824</ele>
        <time>2024-05-20T13:53:38.000Z</time>
      </trkpt>
      <trkpt lat="45.81383" lon="4.84918">
        <ele>173.19999694824</ele>
        <time>2024-05-20T13:53:39.000Z</time>
      </trkpt>
      <trkpt lat="45.81381" lon="4.84915">
        <ele>173</ele>
        <time>2024-05-20T13:53:40.000Z</time>
      </trkpt>
      <trkpt lat="45.8138" lon="4.84911">
        <ele>173</ele>
        <time>2024-05-20T13:53:41.000Z</time>
      </trkpt>
      <trkpt lat="45.81378" lon="4.84906">
        <ele>173</ele>
        <time>2024-05-20T13:53:42.000Z</time>
      </trkpt>
      <trkpt lat="45.81375" lon="4.84901">
        <ele>172.80000305176</ele>
        <time>2024-05-20T13:53:43.000Z</time>
      </trkpt>
      <trkpt lat="45.81373" lon="4.84896">
        <ele>172.80000305176</ele>
        <time>2024-05-20T13:53:44.000Z</time>
      </trkpt>
      <trkpt lat="45.8137" lon="4.8489">
        <ele>172.60000610352</ele>
        <time>2024-05-20T13:53:45.000Z</time>
      </trkpt>
      <trkpt lat="45.81367" lon="4.84884">
        <ele>172.39999389648</ele>
        <time>2024-05-20T13:53:46.000Z</time>
      </trkpt>
      <trkpt lat="45.81364" lon="4.84878">
        <ele>172.39999389648</ele>
        <time>2024-05-20T13:53:47.000Z</time>
      </trkpt>
      <trkpt lat="45.81361" lon="4.84871">
        <ele>172.19999694824</ele>
        <time>2024-05-20T13:53:48.000Z</time>
      </trkpt>
      <trkpt lat="45.81358" lon="4.84864">
        <ele>172</ele>
        <time>2024-05-20T13:53:49.000Z</time>
      </trkpt>
      <trkpt lat="45.81355" lon="4.84858">
        <ele>172</ele>
        <time>2024-05-20T13:53:50.000Z</time>
      </trkpt>
      <trkpt lat="45.81351" lon="4.84851">
        <ele>171.60000610352</ele>
        <time>2024-05-20T13:53:51.000Z</time>
      </trkpt>
      <trkpt lat="45.81347" lon="4.84844">
        <ele>171.39999389648</ele>
        <time>2024-05-20T13:53:52.000Z</time>
      </trkpt>
      <trkpt lat="45.81341" lon="4.84835">
        <ele>171.19999694824</ele>
        <time>2024-05-20T13:53:53.000Z</time>
      </trkpt>
      <trkpt lat="45.81337" lon="4.84828">
        <ele>171.19999694824</ele>
        <time>2024-05-20T13:53:54.000Z</time>
      </trkpt>
      <trkpt lat="45.81332" lon="4.84821">
        <ele>171</ele>
        <time>2024-05-20T13:53:55.000Z</time>
      </trkpt>
      <trkpt lat="45.81328" lon="4.84813">
        <ele>170.60000610352</ele>
        <time>2024-05-20T13:53:56.000Z</time>
      </trkpt>
      <trkpt lat="45.81324" lon="4.84807">
        <ele>170.39999389648</ele>
        <time>2024-05-20T13:53:57.000Z</time>
      </trkpt>
      <trkpt lat="45.81318" lon="4.84798">
        <ele>170.39999389648</ele>
        <time>2024-05-20T13:53:58.000Z</time>
      </trkpt>
      <trkpt lat="45.81313" lon="4.84791">
        <ele>170.19999694824</ele>
        <time>2024-05-20T13:53:59.000Z</time>
      </trkpt>
      <trkpt lat="45.81308" lon="4.84784">
        <ele>170.19999694824</ele>
        <time>2024-05-20T13:54:00.000Z</time>
      </trkpt>
      <trkpt lat="45.81302" lon="4.84777">
        <ele>169.80000305176</ele>
        <time>2024-05-20T13:54:01.000Z</time>
      </trkpt>
      <trkpt lat="45.81297" lon="4.84769">
        <ele>169.80000305176</ele>
        <time>2024-05-20T13:54:02.000Z</time>
      </trkpt>
      <trkpt lat="45.81291" lon="4.84762">
        <ele>169.80000305176</ele>
        <time>2024-05-20T13:54:03.000Z</time>
      </trkpt>
      <trkpt lat="45.81286" lon="4.84755">
        <ele>169.80000305176</ele>
        <time>2024-05-20T13:54:04.000Z</time>
      </trkpt>
      <trkpt lat="45.8128" lon="4.84748">
        <ele>169.80000305176</ele>
        <time>2024-05-20T13:54:05.000Z</time>
      </trkpt>
      <trkpt lat="45.81275" lon="4.8474">
        <ele>169.60000610352</ele>
        <time>2024-05-20T13:54:06.000Z</time>
      </trkpt>
      <trkpt lat="45.81269" lon="4.84733">
        <ele>169.39999389648</ele>
        <time>2024-05-20T13:54:07.000Z</time>
      </trkpt>
      <trkpt lat="45.81263" lon="4.84726">
        <ele>169.39999389648</ele>
        <time>2024-05-20T13:54:08.000Z</time>
      </trkpt>
      <trkpt lat="45.81258" lon="4.84719">
        <ele>169</ele>
        <time>2024-05-20T13:54:09.000Z</time>
      </trkpt>
      <trkpt lat="45.81253" lon="4.84712">
        <ele>169</ele>
        <time>2024-05-20T13:54:10.000Z</time>
      </trkpt>
      <trkpt lat="45.81247" lon="4.84705">
        <ele>168.80000305176</ele>
        <time>2024-05-20T13:54:11.000Z</time>
      </trkpt>
      <trkpt lat="45.81242" lon="4.84698">
        <ele>168.80000305176</ele>
        <time>2024-05-20T13:54:12.000Z</time>
      </trkpt>
      <trkpt lat="45.81237" lon="4.84691">
        <ele>168.80000305176</ele>
        <time>2024-05-20T13:54:13.000Z</time>
      </trkpt>
      <trkpt lat="45.81231" lon="4.84684">
        <ele>168.80000305176</ele>
        <time>2024-05-20T13:54:14.000Z</time>
      </trkpt>
      <trkpt lat="45.81227" lon="4.84679">
        <ele>169.19999694824</ele>
        <time>2024-05-20T13:54:15.000Z</time>
      </trkpt>
      <trkpt lat="45.8122" lon="4.8467">
        <ele>169.19999694824</ele>
        <time>2024-05-20T13:54:16.000Z</time>
      </trkpt>
      <trkpt lat="45.81215" lon="4.84664">
        <ele>169.39999389648</ele>
        <time>2024-05-20T13:54:17.000Z</time>
      </trkpt>
      <trkpt lat="45.81209" lon="4.84657">
        <ele>169.39999389648</ele>
        <time>2024-05-20T13:54:18.000Z</time>
      </trkpt>
      <trkpt lat="45.81204" lon="4.8465">
        <ele>169.39999389648</ele>
        <time>2024-05-20T13:54:19.000Z</time>
      </trkpt>
      <trkpt lat="45.81199" lon="4.84643">
        <ele>169.39999389648</ele>
        <time>2024-05-20T13:54:20.000Z</time>
      </trkpt>
      <trkpt lat="45.81193" lon="4.84637">
        <ele>169.39999389648</ele>
        <time>2024-05-20T13:54:21.000Z</time>
      </trkpt>
      <trkpt lat="45.81188" lon="4.84631">
        <ele>169.39999389648</ele>
        <time>2024-05-20T13:54:22.000Z</time>
      </trkpt>
      <trkpt lat="45.81182" lon="4.84624">
        <ele>169.60000610352</ele>
        <time>2024-05-20T13:54:23.000Z</time>
      </trkpt>
      <trkpt lat="45.81176" lon="4.84618">
        <ele>169.60000610352</ele>
        <time>2024-05-20T13:54:24.000Z</time>
      </trkpt>
      <trkpt lat="45.8117" lon="4.84612">
        <ele>169.60000610352</ele>
        <time>2024-05-20T13:54:25.000Z</time>
      </trkpt>
      <trkpt lat="45.81164" lon="4.84606">
        <ele>169.60000610352</ele>
        <time>2024-05-20T13:54:26.000Z</time>
      </trkpt>
      <trkpt lat="45.81158" lon="4.846">
        <ele>169.60000610352</ele>
        <time>2024-05-20T13:54:27.000Z</time>
      </trkpt>
      <trkpt lat="45.81153" lon="4.84594">
        <ele>169.60000610352</ele>
        <time>2024-05-20T13:54:28.000Z</time>
      </trkpt>
      <trkpt lat="45.81147" lon="4.84588">
        <ele>169.39999389648</ele>
        <time>2024-05-20T13:54:29.000Z</time>
      </trkpt>
      <trkpt lat="45.81141" lon="4.84582">
        <ele>169.19999694824</ele>
        <time>2024-05-20T13:54:30.000Z</time>
      </trkpt>
      <trkpt lat="45.81135" lon="4.84576">
        <ele>169.19999694824</ele>
        <time>2024-05-20T13:54:31.000Z</time>
      </trkpt>
      <trkpt lat="45.81129" lon="4.8457">
        <ele>169.19999694824</ele>
        <time>2024-05-20T13:54:32.000Z</time>
      </trkpt>
      <trkpt lat="45.81123" lon="4.84565">
        <ele>169.19999694824</ele>
        <time>2024-05-20T13:54:33.000Z</time>
      </trkpt>
      <trkpt lat="45.81117" lon="4.84559">
        <ele>169.19999694824</ele>
        <time>2024-05-20T13:54:34.000Z</time>
      </trkpt>
      <trkpt lat="45.81111" lon="4.84554">
        <ele>169.39999389648</ele>
        <time>2024-05-20T13:54:35.000Z</time>
      </trkpt>
      <trkpt lat="45.81105" lon="4.84549">
        <ele>169.60000610352</ele>
        <time>2024-05-20T13:54:36.000Z</time>
      </trkpt>
      <trkpt lat="45.811" lon="4.84545">
        <ele>169.60000610352</ele>
        <time>2024-05-20T13:54:37.000Z</time>
      </trkpt>
      <trkpt lat="45.81093" lon="4.84539">
        <ele>169.60000610352</ele>
        <time>2024-05-20T13:54:38.000Z</time>
      </trkpt>
      <trkpt lat="45.81087" lon="4.84534">
        <ele>169.80000305176</ele>
        <time>2024-05-20T13:54:39.000Z</time>
      </trkpt>
      <trkpt lat="45.81081" lon="4.84529">
        <ele>169.80000305176</ele>
        <time>2024-05-20T13:54:40.000Z</time>
      </trkpt>
      <trkpt lat="45.81075" lon="4.84524">
        <ele>169.80000305176</ele>
        <time>2024-05-20T13:54:41.000Z</time>
      </trkpt>
      <trkpt lat="45.81069" lon="4.8452">
        <ele>169.80000305176</ele>
        <time>2024-05-20T13:54:42.000Z</time>
      </trkpt>
      <trkpt lat="45.81063" lon="4.84515">
        <ele>169.80000305176</ele>
        <time>2024-05-20T13:54:43.000Z</time>
      </trkpt>
      <trkpt lat="45.81057" lon="4.8451">
        <ele>169.80000305176</ele>
        <time>2024-05-20T13:54:44.000Z</time>
      </trkpt>
      <trkpt lat="45.81051" lon="4.84506">
        <ele>169.80000305176</ele>
        <time>2024-05-20T13:54:45.000Z</time>
      </trkpt>
      <trkpt lat="45.81045" lon="4.84501">
        <ele>169.80000305176</ele>
        <time>2024-05-20T13:54:46.000Z</time>
      </trkpt>
      <trkpt lat="45.81039" lon="4.84496">
        <ele>169.80000305176</ele>
        <time>2024-05-20T13:54:47.000Z</time>
      </trkpt>
      <trkpt lat="45.81033" lon="4.84492">
        <ele>169.80000305176</ele>
        <time>2024-05-20T13:54:48.000Z</time>
      </trkpt>
      <trkpt lat="45.81026" lon="4.84487">
        <ele>169.80000305176</ele>
        <time>2024-05-20T13:54:49.000Z</time>
      </trkpt>
      <trkpt lat="45.81021" lon="4.84482">
        <ele>169.80000305176</ele>
        <time>2024-05-20T13:54:50.000Z</time>
      </trkpt>
      <trkpt lat="45.81015" lon="4.84478">
        <ele>169.80000305176</ele>
        <time>2024-05-20T13:54:51.000Z</time>
      </trkpt>
      <trkpt lat="45.8101" lon="4.84474">
        <ele>169.80000305176</ele>
        <time>2024-05-20T13:54:52.000Z</time>
      </trkpt>
      <trkpt lat="45.81004" lon="4.8447">
        <ele>169.80000305176</ele>
        <time>2024-05-20T13:54:53.000Z</time>
      </trkpt>
      <trkpt lat="45.80998" lon="4.84466">
        <ele>169.80000305176</ele>
        <time>2024-05-20T13:54:54.000Z</time>
      </trkpt>
      <trkpt lat="45.80993" lon="4.84462">
        <ele>169.80000305176</ele>
        <time>2024-05-20T13:54:55.000Z</time>
      </trkpt>
      <trkpt lat="45.80987" lon="4.84458">
        <ele>169.80000305176</ele>
        <time>2024-05-20T13:54:56.000Z</time>
      </trkpt>
      <trkpt lat="45.80981" lon="4.84453">
        <ele>169.80000305176</ele>
        <time>2024-05-20T13:54:57.000Z</time>
      </trkpt>
      <trkpt lat="45.80976" lon="4.8445">
        <ele>169.80000305176</ele>
        <time>2024-05-20T13:54:58.000Z</time>
      </trkpt>
      <trkpt lat="45.80968" lon="4.84444">
        <ele>170</ele>
        <time>2024-05-20T13:54:59.000Z</time>
      </trkpt>
      <trkpt lat="45.80962" lon="4.84439">
        <ele>170</ele>
        <time>2024-05-20T13:55:00.000Z</time>
      </trkpt>
      <trkpt lat="45.80955" lon="4.84434">
        <ele>170</ele>
        <time>2024-05-20T13:55:01.000Z</time>
      </trkpt>
      <trkpt lat="45.80949" lon="4.8443">
        <ele>170</ele>
        <time>2024-05-20T13:55:02.000Z</time>
      </trkpt>
      <trkpt lat="45.80943" lon="4.84426">
        <ele>170</ele>
        <time>2024-05-20T13:55:03.000Z</time>
      </trkpt>
      <trkpt lat="45.80936" lon="4.84422">
        <ele>170.19999694824</ele>
        <time>2024-05-20T13:55:04.000Z</time>
      </trkpt>
      <trkpt lat="45.8093" lon="4.8442">
        <ele>170.19999694824</ele>
        <time>2024-05-20T13:55:05.000Z</time>
      </trkpt>
      <trkpt lat="45.80923" lon="4.84417">
        <ele>170.19999694824</ele>
        <time>2024-05-20T13:55:06.000Z</time>
      </trkpt>
      <trkpt lat="45.80916" lon="4.84415">
        <ele>170.19999694824</ele>
        <time>2024-05-20T13:55:07.000Z</time>
      </trkpt>
      <trkpt lat="45.80909" lon="4.84413">
        <ele>170.19999694824</ele>
        <time>2024-05-20T13:55:08.000Z</time>
      </trkpt>
      <trkpt lat="45.80902" lon="4.84411">
        <ele>170.19999694824</ele>
        <time>2024-05-20T13:55:09.000Z</time>
      </trkpt>
      <trkpt lat="45.80896" lon="4.8441">
        <ele>170.19999694824</ele>
        <time>2024-05-20T13:55:10.000Z</time>
      </trkpt>
      <trkpt lat="45.80889" lon="4.84408">
        <ele>170.19999694824</ele>
        <time>2024-05-20T13:55:11.000Z</time>
      </trkpt>
      <trkpt lat="45.80883" lon="4.84407">
        <ele>170.19999694824</ele>
        <time>2024-05-20T13:55:12.000Z</time>
      </trkpt>
      <trkpt lat="45.80876" lon="4.84405">
        <ele>170.19999694824</ele>
        <time>2024-05-20T13:55:13.000Z</time>
      </trkpt>
      <trkpt lat="45.80869" lon="4.84404">
        <ele>170.19999694824</ele>
        <time>2024-05-20T13:55:14.000Z</time>
      </trkpt>
      <trkpt lat="45.80862" lon="4.84403">
        <ele>170</ele>
        <time>2024-05-20T13:55:15.000Z</time>
      </trkpt>
      <trkpt lat="45.80855" lon="4.84402">
        <ele>170</ele>
        <time>2024-05-20T13:55:16.000Z</time>
      </trkpt>
      <trkpt lat="45.80848" lon="4.84401">
        <ele>169.80000305176</ele>
        <time>2024-05-20T13:55:17.000Z</time>
      </trkpt>
      <trkpt lat="45.80842" lon="4.84399">
        <ele>169.80000305176</ele>
        <time>2024-05-20T13:55:18.000Z</time>
      </trkpt>
      <trkpt lat="45.80835" lon="4.84398">
        <ele>169.80000305176</ele>
        <time>2024-05-20T13:55:19.000Z</time>
      </trkpt>
      <trkpt lat="45.80828" lon="4.84397">
        <ele>169.80000305176</ele>
        <time>2024-05-20T13:55:20.000Z</time>
      </trkpt>
      <trkpt lat="45.80822" lon="4.84396">
        <ele>169.60000610352</ele>
        <time>2024-05-20T13:55:21.000Z</time>
      </trkpt>
      <trkpt lat="45.80815" lon="4.84395">
        <ele>169.60000610352</ele>
        <time>2024-05-20T13:55:22.000Z</time>
      </trkpt>
      <trkpt lat="45.80809" lon="4.84393">
        <ele>169.80000305176</ele>
        <time>2024-05-20T13:55:23.000Z</time>
      </trkpt>
      <trkpt lat="45.80802" lon="4.84391">
        <ele>169.80000305176</ele>
        <time>2024-05-20T13:55:24.000Z</time>
      </trkpt>
      <trkpt lat="45.80796" lon="4.8439">
        <ele>169.80000305176</ele>
        <time>2024-05-20T13:55:25.000Z</time>
      </trkpt>
      <trkpt lat="45.80789" lon="4.84388">
        <ele>170</ele>
        <time>2024-05-20T13:55:26.000Z</time>
      </trkpt>
      <trkpt lat="45.80783" lon="4.84386">
        <ele>170</ele>
        <time>2024-05-20T13:55:27.000Z</time>
      </trkpt>
      <trkpt lat="45.80775" lon="4.84385">
        <ele>170</ele>
        <time>2024-05-20T13:55:28.000Z</time>
      </trkpt>
      <trkpt lat="45.80769" lon="4.84383">
        <ele>170</ele>
        <time>2024-05-20T13:55:29.000Z</time>
      </trkpt>
      <trkpt lat="45.80762" lon="4.84382">
        <ele>170</ele>
        <time>2024-05-20T13:55:30.000Z</time>
      </trkpt>
      <trkpt lat="45.80756" lon="4.84381">
        <ele>170</ele>
        <time>2024-05-20T13:55:31.000Z</time>
      </trkpt>
      <trkpt lat="45.80749" lon="4.84379">
        <ele>170</ele>
        <time>2024-05-20T13:55:32.000Z</time>
      </trkpt>
      <trkpt lat="45.80743" lon="4.84378">
        <ele>170</ele>
        <time>2024-05-20T13:55:33.000Z</time>
      </trkpt>
      <trkpt lat="45.80736" lon="4.84376">
        <ele>170</ele>
        <time>2024-05-20T13:55:34.000Z</time>
      </trkpt>
      <trkpt lat="45.80729" lon="4.84375">
        <ele>170</ele>
        <time>2024-05-20T13:55:35.000Z</time>
      </trkpt>
      <trkpt lat="45.80722" lon="4.84374">
        <ele>170</ele>
        <time>2024-05-20T13:55:36.000Z</time>
      </trkpt>
      <trkpt lat="45.80716" lon="4.84374">
        <ele>170</ele>
        <time>2024-05-20T13:55:37.000Z</time>
      </trkpt>
      <trkpt lat="45.80709" lon="4.84373">
        <ele>170</ele>
        <time>2024-05-20T13:55:38.000Z</time>
      </trkpt>
      <trkpt lat="45.80702" lon="4.84371">
        <ele>170</ele>
        <time>2024-05-20T13:55:39.000Z</time>
      </trkpt>
      <trkpt lat="45.80696" lon="4.8437">
        <ele>169.80000305176</ele>
        <time>2024-05-20T13:55:40.000Z</time>
      </trkpt>
      <trkpt lat="45.80689" lon="4.84369">
        <ele>169.80000305176</ele>
        <time>2024-05-20T13:55:41.000Z</time>
      </trkpt>
      <trkpt lat="45.80683" lon="4.84368">
        <ele>169.80000305176</ele>
        <time>2024-05-20T13:55:42.000Z</time>
      </trkpt>
      <trkpt lat="45.80676" lon="4.84366">
        <ele>169.80000305176</ele>
        <time>2024-05-20T13:55:43.000Z</time>
      </trkpt>
      <trkpt lat="45.8067" lon="4.84365">
        <ele>169.80000305176</ele>
        <time>2024-05-20T13:55:44.000Z</time>
      </trkpt>
      <trkpt lat="45.80663" lon="4.84364">
        <ele>169.80000305176</ele>
        <time>2024-05-20T13:55:45.000Z</time>
      </trkpt>
      <trkpt lat="45.80657" lon="4.84363">
        <ele>170</ele>
        <time>2024-05-20T13:55:46.000Z</time>
      </trkpt>
      <trkpt lat="45.8065" lon="4.84362">
        <ele>170</ele>
        <time>2024-05-20T13:55:47.000Z</time>
      </trkpt>
      <trkpt lat="45.80643" lon="4.84361">
        <ele>170</ele>
        <time>2024-05-20T13:55:48.000Z</time>
      </trkpt>
      <trkpt lat="45.80637" lon="4.84359">
        <ele>170.19999694824</ele>
        <time>2024-05-20T13:55:49.000Z</time>
      </trkpt>
      <trkpt lat="45.8063" lon="4.84358">
        <ele>170.19999694824</ele>
        <time>2024-05-20T13:55:50.000Z</time>
      </trkpt>
      <trkpt lat="45.80623" lon="4.84356">
        <ele>170.19999694824</ele>
        <time>2024-05-20T13:55:51.000Z</time>
      </trkpt>
      <trkpt lat="45.80616" lon="4.84354">
        <ele>170.19999694824</ele>
        <time>2024-05-20T13:55:52.000Z</time>
      </trkpt>
      <trkpt lat="45.80609" lon="4.84352">
        <ele>170.19999694824</ele>
        <time>2024-05-20T13:55:53.000Z</time>
      </trkpt>
      <trkpt lat="45.80603" lon="4.8435">
        <ele>170</ele>
        <time>2024-05-20T13:55:54.000Z</time>
      </trkpt>
      <trkpt lat="45.80596" lon="4.84348">
        <ele>170</ele>
        <time>2024-05-20T13:55:55.000Z</time>
      </trkpt>
      <trkpt lat="45.80589" lon="4.84345">
        <ele>170</ele>
        <time>2024-05-20T13:55:56.000Z</time>
      </trkpt>
      <trkpt lat="45.80582" lon="4.84343">
        <ele>170</ele>
        <time>2024-05-20T13:55:57.000Z</time>
      </trkpt>
      <trkpt lat="45.80575" lon="4.84341">
        <ele>170</ele>
        <time>2024-05-20T13:55:58.000Z</time>
      </trkpt>
      <trkpt lat="45.80569" lon="4.84339">
        <ele>170</ele>
        <time>2024-05-20T13:55:59.000Z</time>
      </trkpt>
      <trkpt lat="45.80563" lon="4.84338">
        <ele>170</ele>
        <time>2024-05-20T13:56:00.000Z</time>
      </trkpt>
      <trkpt lat="45.80555" lon="4.84335">
        <ele>170</ele>
        <time>2024-05-20T13:56:01.000Z</time>
      </trkpt>
      <trkpt lat="45.80549" lon="4.84332">
        <ele>170</ele>
        <time>2024-05-20T13:56:02.000Z</time>
      </trkpt>
      <trkpt lat="45.80542" lon="4.8433">
        <ele>170</ele>
        <time>2024-05-20T13:56:03.000Z</time>
      </trkpt>
      <trkpt lat="45.80535" lon="4.84328">
        <ele>170</ele>
        <time>2024-05-20T13:56:04.000Z</time>
      </trkpt>
      <trkpt lat="45.80529" lon="4.84325">
        <ele>170</ele>
        <time>2024-05-20T13:56:05.000Z</time>
      </trkpt>
      <trkpt lat="45.80522" lon="4.84323">
        <ele>169.80000305176</ele>
        <time>2024-05-20T13:56:06.000Z</time>
      </trkpt>
      <trkpt lat="45.80515" lon="4.84321">
        <ele>169.80000305176</ele>
        <time>2024-05-20T13:56:07.000Z</time>
      </trkpt>
      <trkpt lat="45.80509" lon="4.84319">
        <ele>169.80000305176</ele>
        <time>2024-05-20T13:56:08.000Z</time>
      </trkpt>
      <trkpt lat="45.80502" lon="4.84317">
        <ele>169.80000305176</ele>
        <time>2024-05-20T13:56:09.000Z</time>
      </trkpt>
      <trkpt lat="45.80495" lon="4.84314">
        <ele>169.80000305176</ele>
        <time>2024-05-20T13:56:10.000Z</time>
      </trkpt>
      <trkpt lat="45.80488" lon="4.84312">
        <ele>169.80000305176</ele>
        <time>2024-05-20T13:56:11.000Z</time>
      </trkpt>
      <trkpt lat="45.80482" lon="4.8431">
        <ele>169.80000305176</ele>
        <time>2024-05-20T13:56:12.000Z</time>
      </trkpt>
      <trkpt lat="45.80475" lon="4.84308">
        <ele>169.80000305176</ele>
        <time>2024-05-20T13:56:13.000Z</time>
      </trkpt>
      <trkpt lat="45.80469" lon="4.84305">
        <ele>169.80000305176</ele>
        <time>2024-05-20T13:56:14.000Z</time>
      </trkpt>
      <trkpt lat="45.80462" lon="4.84303">
        <ele>169.80000305176</ele>
        <time>2024-05-20T13:56:15.000Z</time>
      </trkpt>
      <trkpt lat="45.80455" lon="4.84301">
        <ele>169.80000305176</ele>
        <time>2024-05-20T13:56:16.000Z</time>
      </trkpt>
      <trkpt lat="45.80448" lon="4.84299">
        <ele>169.80000305176</ele>
        <time>2024-05-20T13:56:17.000Z</time>
      </trkpt>
      <trkpt lat="45.80442" lon="4.84297">
        <ele>169.60000610352</ele>
        <time>2024-05-20T13:56:18.000Z</time>
      </trkpt>
      <trkpt lat="45.80435" lon="4.84294">
        <ele>169.60000610352</ele>
        <time>2024-05-20T13:56:19.000Z</time>
      </trkpt>
      <trkpt lat="45.80429" lon="4.84292">
        <ele>169.60000610352</ele>
        <time>2024-05-20T13:56:20.000Z</time>
      </trkpt>
      <trkpt lat="45.80422" lon="4.8429">
        <ele>169.60000610352</ele>
        <time>2024-05-20T13:56:21.000Z</time>
      </trkpt>
      <trkpt lat="45.80416" lon="4.84288">
        <ele>169.60000610352</ele>
        <time>2024-05-20T13:56:22.000Z</time>
      </trkpt>
      <trkpt lat="45.80409" lon="4.84286">
        <ele>169.60000610352</ele>
        <time>2024-05-20T13:56:23.000Z</time>
      </trkpt>
      <trkpt lat="45.80402" lon="4.84283">
        <ele>169.80000305176</ele>
        <time>2024-05-20T13:56:24.000Z</time>
      </trkpt>
      <trkpt lat="45.80396" lon="4.84281">
        <ele>169.80000305176</ele>
        <time>2024-05-20T13:56:25.000Z</time>
      </trkpt>
      <trkpt lat="45.8039" lon="4.84279">
        <ele>169.80000305176</ele>
        <time>2024-05-20T13:56:26.000Z</time>
      </trkpt>
      <trkpt lat="45.80384" lon="4.84277">
        <ele>170</ele>
        <time>2024-05-20T13:56:27.000Z</time>
      </trkpt>
      <trkpt lat="45.80377" lon="4.84275">
        <ele>170</ele>
        <time>2024-05-20T13:56:28.000Z</time>
      </trkpt>
      <trkpt lat="45.80371" lon="4.84273">
        <ele>170</ele>
        <time>2024-05-20T13:56:29.000Z</time>
      </trkpt>
      <trkpt lat="45.80364" lon="4.8427">
        <ele>170</ele>
        <time>2024-05-20T13:56:30.000Z</time>
      </trkpt>
      <trkpt lat="45.80358" lon="4.84268">
        <ele>170</ele>
        <time>2024-05-20T13:56:31.000Z</time>
      </trkpt>
      <trkpt lat="45.80351" lon="4.84266">
        <ele>170</ele>
        <time>2024-05-20T13:56:32.000Z</time>
      </trkpt>
      <trkpt lat="45.80344" lon="4.84264">
        <ele>170</ele>
        <time>2024-05-20T13:56:33.000Z</time>
      </trkpt>
      <trkpt lat="45.80337" lon="4.84262">
        <ele>170</ele>
        <time>2024-05-20T13:56:34.000Z</time>
      </trkpt>
      <trkpt lat="45.8033" lon="4.8426">
        <ele>170</ele>
        <time>2024-05-20T13:56:35.000Z</time>
      </trkpt>
      <trkpt lat="45.80323" lon="4.84258">
        <ele>170</ele>
        <time>2024-05-20T13:56:36.000Z</time>
      </trkpt>
      <trkpt lat="45.80316" lon="4.84256">
        <ele>170</ele>
        <time>2024-05-20T13:56:37.000Z</time>
      </trkpt>
      <trkpt lat="45.80309" lon="4.84253">
        <ele>170</ele>
        <time>2024-05-20T13:56:38.000Z</time>
      </trkpt>
      <trkpt lat="45.80302" lon="4.84251">
        <ele>170</ele>
        <time>2024-05-20T13:56:39.000Z</time>
      </trkpt>
      <trkpt lat="45.80295" lon="4.84248">
        <ele>170</ele>
        <time>2024-05-20T13:56:40.000Z</time>
      </trkpt>
      <trkpt lat="45.80288" lon="4.84246">
        <ele>170</ele>
        <time>2024-05-20T13:56:41.000Z</time>
      </trkpt>
      <trkpt lat="45.80281" lon="4.84243">
        <ele>170</ele>
        <time>2024-05-20T13:56:42.000Z</time>
      </trkpt>
      <trkpt lat="45.80274" lon="4.84241">
        <ele>170</ele>
        <time>2024-05-20T13:56:43.000Z</time>
      </trkpt>
      <trkpt lat="45.80267" lon="4.84239">
        <ele>169.80000305176</ele>
        <time>2024-05-20T13:56:44.000Z</time>
      </trkpt>
      <trkpt lat="45.8026" lon="4.84237">
        <ele>169.80000305176</ele>
        <time>2024-05-20T13:56:45.000Z</time>
      </trkpt>
      <trkpt lat="45.80253" lon="4.84234">
        <ele>169.80000305176</ele>
        <time>2024-05-20T13:56:46.000Z</time>
      </trkpt>
      <trkpt lat="45.80246" lon="4.84232">
        <ele>169.80000305176</ele>
        <time>2024-05-20T13:56:47.000Z</time>
      </trkpt>
      <trkpt lat="45.80239" lon="4.8423">
        <ele>169.80000305176</ele>
        <time>2024-05-20T13:56:48.000Z</time>
      </trkpt>
      <trkpt lat="45.80232" lon="4.84228">
        <ele>169.80000305176</ele>
        <time>2024-05-20T13:56:49.000Z</time>
      </trkpt>
      <trkpt lat="45.80225" lon="4.84225">
        <ele>169.80000305176</ele>
        <time>2024-05-20T13:56:50.000Z</time>
      </trkpt>
      <trkpt lat="45.80218" lon="4.84223">
        <ele>169.80000305176</ele>
        <time>2024-05-20T13:56:51.000Z</time>
      </trkpt>
      <trkpt lat="45.80211" lon="4.8422">
        <ele>169.60000610352</ele>
        <time>2024-05-20T13:56:52.000Z</time>
      </trkpt>
      <trkpt lat="45.80205" lon="4.84218">
        <ele>169.60000610352</ele>
        <time>2024-05-20T13:56:53.000Z</time>
      </trkpt>
      <trkpt lat="45.80198" lon="4.84215">
        <ele>169.60000610352</ele>
        <time>2024-05-20T13:56:54.000Z</time>
      </trkpt>
      <trkpt lat="45.80192" lon="4.84213">
        <ele>169.60000610352</ele>
        <time>2024-05-20T13:56:55.000Z</time>
      </trkpt>
      <trkpt lat="45.80185" lon="4.84209">
        <ele>169.60000610352</ele>
        <time>2024-05-20T13:56:56.000Z</time>
      </trkpt>
      <trkpt lat="45.80178" lon="4.84206">
        <ele>169.60000610352</ele>
        <time>2024-05-20T13:56:57.000Z</time>
      </trkpt>
      <trkpt lat="45.80172" lon="4.84202">
        <ele>169.60000610352</ele>
        <time>2024-05-20T13:56:58.000Z</time>
      </trkpt>
      <trkpt lat="45.80166" lon="4.84198">
        <ele>169.60000610352</ele>
        <time>2024-05-20T13:56:59.000Z</time>
      </trkpt>
      <trkpt lat="45.8016" lon="4.84193">
        <ele>169.60000610352</ele>
        <time>2024-05-20T13:57:00.000Z</time>
      </trkpt>
      <trkpt lat="45.80154" lon="4.84189">
        <ele>169.60000610352</ele>
        <time>2024-05-20T13:57:01.000Z</time>
      </trkpt>
      <trkpt lat="45.80147" lon="4.84185">
        <ele>169.60000610352</ele>
        <time>2024-05-20T13:57:02.000Z</time>
      </trkpt>
      <trkpt lat="45.80141" lon="4.8418">
        <ele>169.60000610352</ele>
        <time>2024-05-20T13:57:03.000Z</time>
      </trkpt>
      <trkpt lat="45.80135" lon="4.84176">
        <ele>169.60000610352</ele>
        <time>2024-05-20T13:57:04.000Z</time>
      </trkpt>
      <trkpt lat="45.80129" lon="4.84171">
        <ele>169.60000610352</ele>
        <time>2024-05-20T13:57:05.000Z</time>
      </trkpt>
      <trkpt lat="45.80123" lon="4.84166">
        <ele>169.60000610352</ele>
        <time>2024-05-20T13:57:06.000Z</time>
      </trkpt>
      <trkpt lat="45.80117" lon="4.84161">
        <ele>169.60000610352</ele>
        <time>2024-05-20T13:57:07.000Z</time>
      </trkpt>
      <trkpt lat="45.80111" lon="4.84156">
        <ele>169.39999389648</ele>
        <time>2024-05-20T13:57:08.000Z</time>
      </trkpt>
      <trkpt lat="45.80105" lon="4.84151">
        <ele>169.39999389648</ele>
        <time>2024-05-20T13:57:09.000Z</time>
      </trkpt>
      <trkpt lat="45.80099" lon="4.84146">
        <ele>169.39999389648</ele>
        <time>2024-05-20T13:57:10.000Z</time>
      </trkpt>
      <trkpt lat="45.80094" lon="4.84142">
        <ele>169.60000610352</ele>
        <time>2024-05-20T13:57:11.000Z</time>
      </trkpt>
      <trkpt lat="45.80088" lon="4.84137">
        <ele>169.60000610352</ele>
        <time>2024-05-20T13:57:12.000Z</time>
      </trkpt>
      <trkpt lat="45.80082" lon="4.84132">
        <ele>169.80000305176</ele>
        <time>2024-05-20T13:57:13.000Z</time>
      </trkpt>
      <trkpt lat="45.80077" lon="4.84127">
        <ele>169.80000305176</ele>
        <time>2024-05-20T13:57:14.000Z</time>
      </trkpt>
      <trkpt lat="45.80071" lon="4.84122">
        <ele>170.19999694824</ele>
        <time>2024-05-20T13:57:15.000Z</time>
      </trkpt>
      <trkpt lat="45.80065" lon="4.84117">
        <ele>170.19999694824</ele>
        <time>2024-05-20T13:57:16.000Z</time>
      </trkpt>
      <trkpt lat="45.80059" lon="4.84112">
        <ele>170.19999694824</ele>
        <time>2024-05-20T13:57:17.000Z</time>
      </trkpt>
      <trkpt lat="45.80053" lon="4.84107">
        <ele>170.19999694824</ele>
        <time>2024-05-20T13:57:18.000Z</time>
      </trkpt>
      <trkpt lat="45.80047" lon="4.84102">
        <ele>170.19999694824</ele>
        <time>2024-05-20T13:57:19.000Z</time>
      </trkpt>
      <trkpt lat="45.80042" lon="4.84097">
        <ele>170.19999694824</ele>
        <time>2024-05-20T13:57:20.000Z</time>
      </trkpt>
      <trkpt lat="45.80036" lon="4.84092">
        <ele>170.19999694824</ele>
        <time>2024-05-20T13:57:21.000Z</time>
      </trkpt>
      <trkpt lat="45.80031" lon="4.84088">
        <ele>170.39999389648</ele>
        <time>2024-05-20T13:57:22.000Z</time>
      </trkpt>
      <trkpt lat="45.80025" lon="4.84083">
        <ele>170.39999389648</ele>
        <time>2024-05-20T13:57:23.000Z</time>
      </trkpt>
      <trkpt lat="45.8002" lon="4.84078">
        <ele>170.80000305176</ele>
        <time>2024-05-20T13:57:24.000Z</time>
      </trkpt>
      <trkpt lat="45.80015" lon="4.84073">
        <ele>170.80000305176</ele>
        <time>2024-05-20T13:57:25.000Z</time>
      </trkpt>
      <trkpt lat="45.8001" lon="4.84067">
        <ele>171</ele>
        <time>2024-05-20T13:57:26.000Z</time>
      </trkpt>
      <trkpt lat="45.80005" lon="4.84061">
        <ele>171</ele>
        <time>2024-05-20T13:57:27.000Z</time>
      </trkpt>
      <trkpt lat="45.8" lon="4.84055">
        <ele>171</ele>
        <time>2024-05-20T13:57:28.000Z</time>
      </trkpt>
      <trkpt lat="45.79995" lon="4.8405">
        <ele>171</ele>
        <time>2024-05-20T13:57:29.000Z</time>
      </trkpt>
      <trkpt lat="45.79989" lon="4.84044">
        <ele>170.80000305176</ele>
        <time>2024-05-20T13:57:30.000Z</time>
      </trkpt>
      <trkpt lat="45.79984" lon="4.84038">
        <ele>170.80000305176</ele>
        <time>2024-05-20T13:57:31.000Z</time>
      </trkpt>
      <trkpt lat="45.79979" lon="4.84032">
        <ele>170.80000305176</ele>
        <time>2024-05-20T13:57:32.000Z</time>
      </trkpt>
      <trkpt lat="45.79973" lon="4.84026">
        <ele>170.80000305176</ele>
        <time>2024-05-20T13:57:33.000Z</time>
      </trkpt>
      <trkpt lat="45.79968" lon="4.8402">
        <ele>170.80000305176</ele>
        <time>2024-05-20T13:57:34.000Z</time>
      </trkpt>
      <trkpt lat="45.79963" lon="4.84014">
        <ele>170.80000305176</ele>
        <time>2024-05-20T13:57:35.000Z</time>
      </trkpt>
      <trkpt lat="45.79957" lon="4.84008">
        <ele>170.80000305176</ele>
        <time>2024-05-20T13:57:36.000Z</time>
      </trkpt>
      <trkpt lat="45.79952" lon="4.84002">
        <ele>170.80000305176</ele>
        <time>2024-05-20T13:57:37.000Z</time>
      </trkpt>
      <trkpt lat="45.79946" lon="4.83996">
        <ele>170.80000305176</ele>
        <time>2024-05-20T13:57:38.000Z</time>
      </trkpt>
      <trkpt lat="45.79942" lon="4.83991">
        <ele>170.80000305176</ele>
        <time>2024-05-20T13:57:39.000Z</time>
      </trkpt>
      <trkpt lat="45.79935" lon="4.83984">
        <ele>170.80000305176</ele>
        <time>2024-05-20T13:57:40.000Z</time>
      </trkpt>
      <trkpt lat="45.7993" lon="4.83978">
        <ele>170.80000305176</ele>
        <time>2024-05-20T13:57:41.000Z</time>
      </trkpt>
      <trkpt lat="45.79925" lon="4.83971">
        <ele>170.60000610352</ele>
        <time>2024-05-20T13:57:42.000Z</time>
      </trkpt>
      <trkpt lat="45.79919" lon="4.83965">
        <ele>170.80000305176</ele>
        <time>2024-05-20T13:57:43.000Z</time>
      </trkpt>
      <trkpt lat="45.79914" lon="4.83959">
        <ele>170.80000305176</ele>
        <time>2024-05-20T13:57:44.000Z</time>
      </trkpt>
      <trkpt lat="45.79908" lon="4.83953">
        <ele>170.80000305176</ele>
        <time>2024-05-20T13:57:45.000Z</time>
      </trkpt>
      <trkpt lat="45.79904" lon="4.83948">
        <ele>170.60000610352</ele>
        <time>2024-05-20T13:57:46.000Z</time>
      </trkpt>
      <trkpt lat="45.79899" lon="4.83942">
        <ele>170.80000305176</ele>
        <time>2024-05-20T13:57:47.000Z</time>
      </trkpt>
      <trkpt lat="45.79893" lon="4.83936">
        <ele>170.80000305176</ele>
        <time>2024-05-20T13:57:48.000Z</time>
      </trkpt>
      <trkpt lat="45.79888" lon="4.8393">
        <ele>170.80000305176</ele>
        <time>2024-05-20T13:57:49.000Z</time>
      </trkpt>
      <trkpt lat="45.79882" lon="4.83924">
        <ele>170.80000305176</ele>
        <time>2024-05-20T13:57:50.000Z</time>
      </trkpt>
      <trkpt lat="45.79877" lon="4.83917">
        <ele>170.80000305176</ele>
        <time>2024-05-20T13:57:51.000Z</time>
      </trkpt>
      <trkpt lat="45.79871" lon="4.8391">
        <ele>170.80000305176</ele>
        <time>2024-05-20T13:57:52.000Z</time>
      </trkpt>
      <trkpt lat="45.79865" lon="4.83904">
        <ele>170.80000305176</ele>
        <time>2024-05-20T13:57:53.000Z</time>
      </trkpt>
      <trkpt lat="45.79861" lon="4.83899">
        <ele>170.80000305176</ele>
        <time>2024-05-20T13:57:54.000Z</time>
      </trkpt>
      <trkpt lat="45.79854" lon="4.83892">
        <ele>170.60000610352</ele>
        <time>2024-05-20T13:57:55.000Z</time>
      </trkpt>
      <trkpt lat="45.79849" lon="4.83886">
        <ele>170.60000610352</ele>
        <time>2024-05-20T13:57:56.000Z</time>
      </trkpt>
      <trkpt lat="45.79844" lon="4.8388">
        <ele>170.39999389648</ele>
        <time>2024-05-20T13:57:57.000Z</time>
      </trkpt>
      <trkpt lat="45.7984" lon="4.83874">
        <ele>170.39999389648</ele>
        <time>2024-05-20T13:57:58.000Z</time>
      </trkpt>
      <trkpt lat="45.79835" lon="4.83867">
        <ele>170.39999389648</ele>
        <time>2024-05-20T13:57:59.000Z</time>
      </trkpt>
      <trkpt lat="45.7983" lon="4.83861">
        <ele>170.39999389648</ele>
        <time>2024-05-20T13:58:00.000Z</time>
      </trkpt>
      <trkpt lat="45.79826" lon="4.83854">
        <ele>170.60000610352</ele>
        <time>2024-05-20T13:58:01.000Z</time>
      </trkpt>
      <trkpt lat="45.79821" lon="4.83847">
        <ele>170.60000610352</ele>
        <time>2024-05-20T13:58:02.000Z</time>
      </trkpt>
      <trkpt lat="45.79816" lon="4.8384">
        <ele>170.60000610352</ele>
        <time>2024-05-20T13:58:03.000Z</time>
      </trkpt>
      <trkpt lat="45.79812" lon="4.83833">
        <ele>170.60000610352</ele>
        <time>2024-05-20T13:58:04.000Z</time>
      </trkpt>
      <trkpt lat="45.79807" lon="4.83826">
        <ele>170.60000610352</ele>
        <time>2024-05-20T13:58:05.000Z</time>
      </trkpt>
      <trkpt lat="45.79803" lon="4.83819">
        <ele>170.60000610352</ele>
        <time>2024-05-20T13:58:06.000Z</time>
      </trkpt>
      <trkpt lat="45.79799" lon="4.83811">
        <ele>170.80000305176</ele>
        <time>2024-05-20T13:58:07.000Z</time>
      </trkpt>
      <trkpt lat="45.79794" lon="4.83804">
        <ele>170.80000305176</ele>
        <time>2024-05-20T13:58:08.000Z</time>
      </trkpt>
      <trkpt lat="45.7979" lon="4.83797">
        <ele>171.19999694824</ele>
        <time>2024-05-20T13:58:09.000Z</time>
      </trkpt>
      <trkpt lat="45.79786" lon="4.83789">
        <ele>171.19999694824</ele>
        <time>2024-05-20T13:58:10.000Z</time>
      </trkpt>
      <trkpt lat="45.79782" lon="4.83782">
        <ele>171.19999694824</ele>
        <time>2024-05-20T13:58:11.000Z</time>
      </trkpt>
      <trkpt lat="45.79778" lon="4.83774">
        <ele>171.19999694824</ele>
        <time>2024-05-20T13:58:12.000Z</time>
      </trkpt>
      <trkpt lat="45.79775" lon="4.83766">
        <ele>171.19999694824</ele>
        <time>2024-05-20T13:58:13.000Z</time>
      </trkpt>
      <trkpt lat="45.79771" lon="4.83758">
        <ele>171.19999694824</ele>
        <time>2024-05-20T13:58:14.000Z</time>
      </trkpt>
      <trkpt lat="45.79768" lon="4.8375">
        <ele>171.39999389648</ele>
        <time>2024-05-20T13:58:15.000Z</time>
      </trkpt>
      <trkpt lat="45.79764" lon="4.83742">
        <ele>171.39999389648</ele>
        <time>2024-05-20T13:58:16.000Z</time>
      </trkpt>
      <trkpt lat="45.79761" lon="4.83735">
        <ele>171.39999389648</ele>
        <time>2024-05-20T13:58:17.000Z</time>
      </trkpt>
      <trkpt lat="45.79758" lon="4.83728">
        <ele>171.60000610352</ele>
        <time>2024-05-20T13:58:18.000Z</time>
      </trkpt>
      <trkpt lat="45.79754" lon="4.8372">
        <ele>171.60000610352</ele>
        <time>2024-05-20T13:58:19.000Z</time>
      </trkpt>
      <trkpt lat="45.79751" lon="4.83713">
        <ele>171.80000305176</ele>
        <time>2024-05-20T13:58:20.000Z</time>
      </trkpt>
      <trkpt lat="45.79748" lon="4.83707">
        <ele>172</ele>
        <time>2024-05-20T13:58:21.000Z</time>
      </trkpt>
      <trkpt lat="45.79744" lon="4.837">
        <ele>172.19999694824</ele>
        <time>2024-05-20T13:58:22.000Z</time>
      </trkpt>
      <trkpt lat="45.79741" lon="4.83693">
        <ele>172.60000610352</ele>
        <time>2024-05-20T13:58:23.000Z</time>
      </trkpt>
      <trkpt lat="45.79738" lon="4.83687">
        <ele>172.60000610352</ele>
        <time>2024-05-20T13:58:24.000Z</time>
      </trkpt>
      <trkpt lat="45.79735" lon="4.83681">
        <ele>172.80000305176</ele>
        <time>2024-05-20T13:58:25.000Z</time>
      </trkpt>
      <trkpt lat="45.79732" lon="4.83674">
        <ele>173</ele>
        <time>2024-05-20T13:58:26.000Z</time>
      </trkpt>
      <trkpt lat="45.79729" lon="4.83668">
        <ele>173.19999694824</ele>
        <time>2024-05-20T13:58:27.000Z</time>
      </trkpt>
      <trkpt lat="45.79726" lon="4.83663">
        <ele>173.19999694824</ele>
        <time>2024-05-20T13:58:28.000Z</time>
      </trkpt>
      <trkpt lat="45.79723" lon="4.83657">
        <ele>173.39999389648</ele>
        <time>2024-05-20T13:58:29.000Z</time>
      </trkpt>
      <trkpt lat="45.7972" lon="4.83651">
        <ele>173.39999389648</ele>
        <time>2024-05-20T13:58:30.000Z</time>
      </trkpt>
      <trkpt lat="45.79717" lon="4.83645">
        <ele>173.39999389648</ele>
        <time>2024-05-20T13:58:31.000Z</time>
      </trkpt>
      <trkpt lat="45.79714" lon="4.83639">
        <ele>173.60000610352</ele>
        <time>2024-05-20T13:58:32.000Z</time>
      </trkpt>
      <trkpt lat="45.79711" lon="4.83633">
        <ele>173.80000305176</ele>
        <time>2024-05-20T13:58:33.000Z</time>
      </trkpt>
      <trkpt lat="45.79708" lon="4.83627">
        <ele>173.80000305176</ele>
        <time>2024-05-20T13:58:34.000Z</time>
      </trkpt>
      <trkpt lat="45.79706" lon="4.83621">
        <ele>174</ele>
        <time>2024-05-20T13:58:35.000Z</time>
      </trkpt>
      <trkpt lat="45.79703" lon="4.83614">
        <ele>174.19999694824</ele>
        <time>2024-05-20T13:58:36.000Z</time>
      </trkpt>
      <trkpt lat="45.79701" lon="4.83607">
        <ele>174.39999389648</ele>
        <time>2024-05-20T13:58:37.000Z</time>
      </trkpt>
      <trkpt lat="45.797" lon="4.836">
        <ele>174.60000610352</ele>
        <time>2024-05-20T13:58:38.000Z</time>
      </trkpt>
      <trkpt lat="45.79698" lon="4.83592">
        <ele>174.80000305176</ele>
        <time>2024-05-20T13:58:39.000Z</time>
      </trkpt>
      <trkpt lat="45.79697" lon="4.83583">
        <ele>175</ele>
        <time>2024-05-20T13:58:40.000Z</time>
      </trkpt>
      <trkpt lat="45.79696" lon="4.83574">
        <ele>175.19999694824</ele>
        <time>2024-05-20T13:58:41.000Z</time>
      </trkpt>
      <trkpt lat="45.79696" lon="4.83568">
        <ele>175.39999389648</ele>
        <time>2024-05-20T13:58:42.000Z</time>
      </trkpt>
      <trkpt lat="45.79695" lon="4.83559">
        <ele>175.39999389648</ele>
        <time>2024-05-20T13:58:43.000Z</time>
      </trkpt>
      <trkpt lat="45.79695" lon="4.83551">
        <ele>175.39999389648</ele>
        <time>2024-05-20T13:58:44.000Z</time>
      </trkpt>
      <trkpt lat="45.79695" lon="4.83543">
        <ele>175.39999389648</ele>
        <time>2024-05-20T13:58:45.000Z</time>
      </trkpt>
      <trkpt lat="45.79694" lon="4.83535">
        <ele>175.39999389648</ele>
        <time>2024-05-20T13:58:46.000Z</time>
      </trkpt>
      <trkpt lat="45.79693" lon="4.83526">
        <ele>175.39999389648</ele>
        <time>2024-05-20T13:58:47.000Z</time>
      </trkpt>
      <trkpt lat="45.79693" lon="4.83518">
        <ele>175.39999389648</ele>
        <time>2024-05-20T13:58:48.000Z</time>
      </trkpt>
      <trkpt lat="45.79692" lon="4.8351">
        <ele>175.39999389648</ele>
        <time>2024-05-20T13:58:49.000Z</time>
      </trkpt>
      <trkpt lat="45.7969" lon="4.83502">
        <ele>175.39999389648</ele>
        <time>2024-05-20T13:58:50.000Z</time>
      </trkpt>
      <trkpt lat="45.79688" lon="4.83494">
        <ele>175.39999389648</ele>
        <time>2024-05-20T13:58:51.000Z</time>
      </trkpt>
      <trkpt lat="45.79686" lon="4.83486">
        <ele>175.39999389648</ele>
        <time>2024-05-20T13:58:52.000Z</time>
      </trkpt>
      <trkpt lat="45.79684" lon="4.83477">
        <ele>175.19999694824</ele>
        <time>2024-05-20T13:58:53.000Z</time>
      </trkpt>
      <trkpt lat="45.79681" lon="4.83469">
        <ele>175.19999694824</ele>
        <time>2024-05-20T13:58:54.000Z</time>
      </trkpt>
      <trkpt lat="45.79679" lon="4.83461">
        <ele>175.19999694824</ele>
        <time>2024-05-20T13:58:55.000Z</time>
      </trkpt>
      <trkpt lat="45.79676" lon="4.83452">
        <ele>174.80000305176</ele>
        <time>2024-05-20T13:58:56.000Z</time>
      </trkpt>
      <trkpt lat="45.79673" lon="4.83444">
        <ele>174.60000610352</ele>
        <time>2024-05-20T13:58:57.000Z</time>
      </trkpt>
      <trkpt lat="45.79669" lon="4.83433">
        <ele>174.60000610352</ele>
        <time>2024-05-20T13:58:58.000Z</time>
      </trkpt>
      <trkpt lat="45.79667" lon="4.83426">
        <ele>174.60000610352</ele>
        <time>2024-05-20T13:58:59.000Z</time>
      </trkpt>
      <trkpt lat="45.79663" lon="4.83417">
        <ele>174.60000610352</ele>
        <time>2024-05-20T13:59:00.000Z</time>
      </trkpt>
      <trkpt lat="45.7966" lon="4.83408">
        <ele>174.39999389648</ele>
        <time>2024-05-20T13:59:01.000Z</time>
      </trkpt>
      <trkpt lat="45.79657" lon="4.83399">
        <ele>174.39999389648</ele>
        <time>2024-05-20T13:59:02.000Z</time>
      </trkpt>
      <trkpt lat="45.79653" lon="4.8339">
        <ele>174.39999389648</ele>
        <time>2024-05-20T13:59:03.000Z</time>
      </trkpt>
      <trkpt lat="45.7965" lon="4.83381">
        <ele>174.19999694824</ele>
        <time>2024-05-20T13:59:04.000Z</time>
      </trkpt>
      <trkpt lat="45.79647" lon="4.83372">
        <ele>174.19999694824</ele>
        <time>2024-05-20T13:59:05.000Z</time>
      </trkpt>
      <trkpt lat="45.79644" lon="4.83363">
        <ele>174.19999694824</ele>
        <time>2024-05-20T13:59:06.000Z</time>
      </trkpt>
      <trkpt lat="45.7964" lon="4.83355">
        <ele>174.19999694824</ele>
        <time>2024-05-20T13:59:07.000Z</time>
      </trkpt>
      <trkpt lat="45.79637" lon="4.83346">
        <ele>174.19999694824</ele>
        <time>2024-05-20T13:59:08.000Z</time>
      </trkpt>
      <trkpt lat="45.79634" lon="4.83335">
        <ele>174</ele>
        <time>2024-05-20T13:59:09.000Z</time>
      </trkpt>
      <trkpt lat="45.79631" lon="4.83326">
        <ele>174</ele>
        <time>2024-05-20T13:59:10.000Z</time>
      </trkpt>
      <trkpt lat="45.79628" lon="4.83319">
        <ele>174.19999694824</ele>
        <time>2024-05-20T13:59:11.000Z</time>
      </trkpt>
      <trkpt lat="45.79626" lon="4.8331">
        <ele>174</ele>
        <time>2024-05-20T13:59:12.000Z</time>
      </trkpt>
      <trkpt lat="45.79624" lon="4.83301">
        <ele>174</ele>
        <time>2024-05-20T13:59:13.000Z</time>
      </trkpt>
      <trkpt lat="45.79622" lon="4.83291">
        <ele>174</ele>
        <time>2024-05-20T13:59:14.000Z</time>
      </trkpt>
      <trkpt lat="45.7962" lon="4.83282">
        <ele>174</ele>
        <time>2024-05-20T13:59:15.000Z</time>
      </trkpt>
      <trkpt lat="45.79619" lon="4.83273">
        <ele>174</ele>
        <time>2024-05-20T13:59:16.000Z</time>
      </trkpt>
      <trkpt lat="45.79618" lon="4.83263">
        <ele>174</ele>
        <time>2024-05-20T13:59:17.000Z</time>
      </trkpt>
      <trkpt lat="45.79617" lon="4.83254">
        <ele>174</ele>
        <time>2024-05-20T13:59:18.000Z</time>
      </trkpt>
      <trkpt lat="45.79616" lon="4.83245">
        <ele>174.19999694824</ele>
        <time>2024-05-20T13:59:19.000Z</time>
      </trkpt>
      <trkpt lat="45.79615" lon="4.83237">
        <ele>174.19999694824</ele>
        <time>2024-05-20T13:59:20.000Z</time>
      </trkpt>
      <trkpt lat="45.79614" lon="4.83228">
        <ele>174.19999694824</ele>
        <time>2024-05-20T13:59:21.000Z</time>
      </trkpt>
      <trkpt lat="45.79613" lon="4.83219">
        <ele>174.19999694824</ele>
        <time>2024-05-20T13:59:22.000Z</time>
      </trkpt>
      <trkpt lat="45.79611" lon="4.8321">
        <ele>174.19999694824</ele>
        <time>2024-05-20T13:59:23.000Z</time>
      </trkpt>
      <trkpt lat="45.79609" lon="4.832">
        <ele>174.19999694824</ele>
        <time>2024-05-20T13:59:24.000Z</time>
      </trkpt>
      <trkpt lat="45.79608" lon="4.83191">
        <ele>174.19999694824</ele>
        <time>2024-05-20T13:59:25.000Z</time>
      </trkpt>
      <trkpt lat="45.79606" lon="4.83183">
        <ele>174.19999694824</ele>
        <time>2024-05-20T13:59:26.000Z</time>
      </trkpt>
      <trkpt lat="45.79603" lon="4.83174">
        <ele>174.19999694824</ele>
        <time>2024-05-20T13:59:27.000Z</time>
      </trkpt>
      <trkpt lat="45.79602" lon="4.83165">
        <ele>174</ele>
        <time>2024-05-20T13:59:28.000Z</time>
      </trkpt>
      <trkpt lat="45.796" lon="4.83157">
        <ele>174</ele>
        <time>2024-05-20T13:59:29.000Z</time>
      </trkpt>
      <trkpt lat="45.79598" lon="4.83148">
        <ele>174</ele>
        <time>2024-05-20T13:59:30.000Z</time>
      </trkpt>
      <trkpt lat="45.79596" lon="4.83139">
        <ele>174</ele>
        <time>2024-05-20T13:59:31.000Z</time>
      </trkpt>
      <trkpt lat="45.79595" lon="4.83131">
        <ele>173.80000305176</ele>
        <time>2024-05-20T13:59:32.000Z</time>
      </trkpt>
      <trkpt lat="45.79594" lon="4.83122">
        <ele>173.80000305176</ele>
        <time>2024-05-20T13:59:33.000Z</time>
      </trkpt>
      <trkpt lat="45.79592" lon="4.83113">
        <ele>173.60000610352</ele>
        <time>2024-05-20T13:59:34.000Z</time>
      </trkpt>
      <trkpt lat="45.79589" lon="4.83102">
        <ele>173.60000610352</ele>
        <time>2024-05-20T13:59:35.000Z</time>
      </trkpt>
      <trkpt lat="45.79587" lon="4.83094">
        <ele>173.60000610352</ele>
        <time>2024-05-20T13:59:36.000Z</time>
      </trkpt>
      <trkpt lat="45.79585" lon="4.83084">
        <ele>173.39999389648</ele>
        <time>2024-05-20T13:59:37.000Z</time>
      </trkpt>
      <trkpt lat="45.79582" lon="4.83072">
        <ele>173.39999389648</ele>
        <time>2024-05-20T13:59:38.000Z</time>
      </trkpt>
      <trkpt lat="45.7958" lon="4.83062">
        <ele>173.39999389648</ele>
        <time>2024-05-20T13:59:39.000Z</time>
      </trkpt>
      <trkpt lat="45.79578" lon="4.83055">
        <ele>173.19999694824</ele>
        <time>2024-05-20T13:59:40.000Z</time>
      </trkpt>
      <trkpt lat="45.79576" lon="4.83044">
        <ele>173.19999694824</ele>
        <time>2024-05-20T13:59:41.000Z</time>
      </trkpt>
      <trkpt lat="45.79573" lon="4.83035">
        <ele>173</ele>
        <time>2024-05-20T13:59:42.000Z</time>
      </trkpt>
      <trkpt lat="45.79569" lon="4.83026">
        <ele>173</ele>
        <time>2024-05-20T13:59:43.000Z</time>
      </trkpt>
      <trkpt lat="45.79566" lon="4.83017">
        <ele>172.80000305176</ele>
        <time>2024-05-20T13:59:44.000Z</time>
      </trkpt>
      <trkpt lat="45.79562" lon="4.83009">
        <ele>172.80000305176</ele>
        <time>2024-05-20T13:59:45.000Z</time>
      </trkpt>
      <trkpt lat="45.79559" lon="4.83">
        <ele>172.60000610352</ele>
        <time>2024-05-20T13:59:46.000Z</time>
      </trkpt>
      <trkpt lat="45.79555" lon="4.82991">
        <ele>172.39999389648</ele>
        <time>2024-05-20T13:59:47.000Z</time>
      </trkpt>
      <trkpt lat="45.79552" lon="4.82983">
        <ele>172.19999694824</ele>
        <time>2024-05-20T13:59:48.000Z</time>
      </trkpt>
      <trkpt lat="45.79548" lon="4.82974">
        <ele>172.19999694824</ele>
        <time>2024-05-20T13:59:49.000Z</time>
      </trkpt>
      <trkpt lat="45.79545" lon="4.82967">
        <ele>172.19999694824</ele>
        <time>2024-05-20T13:59:50.000Z</time>
      </trkpt>
      <trkpt lat="45.79541" lon="4.82958">
        <ele>172</ele>
        <time>2024-05-20T13:59:51.000Z</time>
      </trkpt>
      <trkpt lat="45.79537" lon="4.82948">
        <ele>172</ele>
        <time>2024-05-20T13:59:52.000Z</time>
      </trkpt>
      <trkpt lat="45.79533" lon="4.82939">
        <ele>172</ele>
        <time>2024-05-20T13:59:53.000Z</time>
      </trkpt>
      <trkpt lat="45.79531" lon="4.82932">
        <ele>171.60000610352</ele>
        <time>2024-05-20T13:59:54.000Z</time>
      </trkpt>
      <trkpt lat="45.79527" lon="4.82924">
        <ele>171.39999389648</ele>
        <time>2024-05-20T13:59:55.000Z</time>
      </trkpt>
      <trkpt lat="45.79523" lon="4.82915">
        <ele>171.39999389648</ele>
        <time>2024-05-20T13:59:56.000Z</time>
      </trkpt>
      <trkpt lat="45.79519" lon="4.82907">
        <ele>171.19999694824</ele>
        <time>2024-05-20T13:59:57.000Z</time>
      </trkpt>
      <trkpt lat="45.79515" lon="4.82897">
        <ele>171.19999694824</ele>
        <time>2024-05-20T13:59:58.000Z</time>
      </trkpt>
      <trkpt lat="45.79511" lon="4.82889">
        <ele>171</ele>
        <time>2024-05-20T13:59:59.000Z</time>
      </trkpt>
      <trkpt lat="45.79507" lon="4.82882">
        <ele>171</ele>
        <time>2024-05-20T14:00:00.000Z</time>
      </trkpt>
      <trkpt lat="45.79503" lon="4.82874">
        <ele>171</ele>
        <time>2024-05-20T14:00:01.000Z</time>
      </trkpt>
      <trkpt lat="45.79499" lon="4.82865">
        <ele>170.80000305176</ele>
        <time>2024-05-20T14:00:02.000Z</time>
      </trkpt>
      <trkpt lat="45.79494" lon="4.82857">
        <ele>170.80000305176</ele>
        <time>2024-05-20T14:00:03.000Z</time>
      </trkpt>
      <trkpt lat="45.7949" lon="4.8285">
        <ele>170.80000305176</ele>
        <time>2024-05-20T14:00:04.000Z</time>
      </trkpt>
      <trkpt lat="45.79486" lon="4.82843">
        <ele>170.80000305176</ele>
        <time>2024-05-20T14:00:05.000Z</time>
      </trkpt>
      <trkpt lat="45.79481" lon="4.82836">
        <ele>170.80000305176</ele>
        <time>2024-05-20T14:00:06.000Z</time>
      </trkpt>
      <trkpt lat="45.79477" lon="4.82829">
        <ele>170.80000305176</ele>
        <time>2024-05-20T14:00:07.000Z</time>
      </trkpt>
      <trkpt lat="45.79473" lon="4.82822">
        <ele>170.80000305176</ele>
        <time>2024-05-20T14:00:08.000Z</time>
      </trkpt>
      <trkpt lat="45.79468" lon="4.82816">
        <ele>170.80000305176</ele>
        <time>2024-05-20T14:00:09.000Z</time>
      </trkpt>
      <trkpt lat="45.79464" lon="4.82809">
        <ele>170.39999389648</ele>
        <time>2024-05-20T14:00:10.000Z</time>
      </trkpt>
      <trkpt lat="45.79459" lon="4.82803">
        <ele>170.39999389648</ele>
        <time>2024-05-20T14:00:11.000Z</time>
      </trkpt>
      <trkpt lat="45.79455" lon="4.82797">
        <ele>170.39999389648</ele>
        <time>2024-05-20T14:00:12.000Z</time>
      </trkpt>
      <trkpt lat="45.7945" lon="4.8279">
        <ele>170.39999389648</ele>
        <time>2024-05-20T14:00:13.000Z</time>
      </trkpt>
      <trkpt lat="45.79445" lon="4.82783">
        <ele>170.39999389648</ele>
        <time>2024-05-20T14:00:14.000Z</time>
      </trkpt>
      <trkpt lat="45.7944" lon="4.82777">
        <ele>170.39999389648</ele>
        <time>2024-05-20T14:00:15.000Z</time>
      </trkpt>
      <trkpt lat="45.79435" lon="4.8277">
        <ele>170.39999389648</ele>
        <time>2024-05-20T14:00:16.000Z</time>
      </trkpt>
      <trkpt lat="45.79431" lon="4.82763">
        <ele>170.80000305176</ele>
        <time>2024-05-20T14:00:17.000Z</time>
      </trkpt>
      <trkpt lat="45.79426" lon="4.82756">
        <ele>170.80000305176</ele>
        <time>2024-05-20T14:00:18.000Z</time>
      </trkpt>
      <trkpt lat="45.79422" lon="4.8275">
        <ele>170.80000305176</ele>
        <time>2024-05-20T14:00:19.000Z</time>
      </trkpt>
      <trkpt lat="45.79417" lon="4.82744">
        <ele>170.80000305176</ele>
        <time>2024-05-20T14:00:20.000Z</time>
      </trkpt>
      <trkpt lat="45.79413" lon="4.82737">
        <ele>170.80000305176</ele>
        <time>2024-05-20T14:00:21.000Z</time>
      </trkpt>
      <trkpt lat="45.79408" lon="4.8273">
        <ele>170.60000610352</ele>
        <time>2024-05-20T14:00:22.000Z</time>
      </trkpt>
      <trkpt lat="45.79403" lon="4.82724">
        <ele>170.60000610352</ele>
        <time>2024-05-20T14:00:23.000Z</time>
      </trkpt>
      <trkpt lat="45.794" lon="4.82719">
        <ele>170.60000610352</ele>
        <time>2024-05-20T14:00:24.000Z</time>
      </trkpt>
      <trkpt lat="45.79395" lon="4.82712">
        <ele>170.60000610352</ele>
        <time>2024-05-20T14:00:25.000Z</time>
      </trkpt>
      <trkpt lat="45.79391" lon="4.82706">
        <ele>170.39999389648</ele>
        <time>2024-05-20T14:00:26.000Z</time>
      </trkpt>
      <trkpt lat="45.79385" lon="4.82699">
        <ele>170.39999389648</ele>
        <time>2024-05-20T14:00:27.000Z</time>
      </trkpt>
      <trkpt lat="45.79381" lon="4.82692">
        <ele>170.39999389648</ele>
        <time>2024-05-20T14:00:28.000Z</time>
      </trkpt>
      <trkpt lat="45.79377" lon="4.82686">
        <ele>170.39999389648</ele>
        <time>2024-05-20T14:00:29.000Z</time>
      </trkpt>
      <trkpt lat="45.79372" lon="4.82679">
        <ele>170.39999389648</ele>
        <time>2024-05-20T14:00:30.000Z</time>
      </trkpt>
      <trkpt lat="45.79368" lon="4.82673">
        <ele>170.39999389648</ele>
        <time>2024-05-20T14:00:31.000Z</time>
      </trkpt>
      <trkpt lat="45.79363" lon="4.82667">
        <ele>170.19999694824</ele>
        <time>2024-05-20T14:00:32.000Z</time>
      </trkpt>
      <trkpt lat="45.79359" lon="4.8266">
        <ele>170.19999694824</ele>
        <time>2024-05-20T14:00:33.000Z</time>
      </trkpt>
      <trkpt lat="45.79355" lon="4.82654">
        <ele>170.19999694824</ele>
        <time>2024-05-20T14:00:34.000Z</time>
      </trkpt>
      <trkpt lat="45.7935" lon="4.82647">
        <ele>170.19999694824</ele>
        <time>2024-05-20T14:00:35.000Z</time>
      </trkpt>
      <trkpt lat="45.79346" lon="4.8264">
        <ele>170.19999694824</ele>
        <time>2024-05-20T14:00:36.000Z</time>
      </trkpt>
      <trkpt lat="45.79342" lon="4.82634">
        <ele>170.19999694824</ele>
        <time>2024-05-20T14:00:37.000Z</time>
      </trkpt>
      <trkpt lat="45.79338" lon="4.82627">
        <ele>170.19999694824</ele>
        <time>2024-05-20T14:00:38.000Z</time>
      </trkpt>
      <trkpt lat="45.79334" lon="4.8262">
        <ele>170.39999389648</ele>
        <time>2024-05-20T14:00:39.000Z</time>
      </trkpt>
      <trkpt lat="45.7933" lon="4.82613">
        <ele>170.39999389648</ele>
        <time>2024-05-20T14:00:40.000Z</time>
      </trkpt>
      <trkpt lat="45.79326" lon="4.82606">
        <ele>170.39999389648</ele>
        <time>2024-05-20T14:00:41.000Z</time>
      </trkpt>
      <trkpt lat="45.79322" lon="4.826">
        <ele>170.39999389648</ele>
        <time>2024-05-20T14:00:42.000Z</time>
      </trkpt>
      <trkpt lat="45.79318" lon="4.82593">
        <ele>170.39999389648</ele>
        <time>2024-05-20T14:00:43.000Z</time>
      </trkpt>
      <trkpt lat="45.79314" lon="4.82587">
        <ele>170.39999389648</ele>
        <time>2024-05-20T14:00:44.000Z</time>
      </trkpt>
      <trkpt lat="45.7931" lon="4.8258">
        <ele>170.39999389648</ele>
        <time>2024-05-20T14:00:45.000Z</time>
      </trkpt>
      <trkpt lat="45.79306" lon="4.82573">
        <ele>170.39999389648</ele>
        <time>2024-05-20T14:00:46.000Z</time>
      </trkpt>
      <trkpt lat="45.79302" lon="4.82566">
        <ele>170.39999389648</ele>
        <time>2024-05-20T14:00:47.000Z</time>
      </trkpt>
      <trkpt lat="45.79298" lon="4.82559">
        <ele>170.19999694824</ele>
        <time>2024-05-20T14:00:48.000Z</time>
      </trkpt>
      <trkpt lat="45.79294" lon="4.82552">
        <ele>170.19999694824</ele>
        <time>2024-05-20T14:00:49.000Z</time>
      </trkpt>
      <trkpt lat="45.7929" lon="4.82545">
        <ele>170.39999389648</ele>
        <time>2024-05-20T14:00:50.000Z</time>
      </trkpt>
      <trkpt lat="45.79286" lon="4.82538">
        <ele>170.39999389648</ele>
        <time>2024-05-20T14:00:51.000Z</time>
      </trkpt>
      <trkpt lat="45.79282" lon="4.82531">
        <ele>170.39999389648</ele>
        <time>2024-05-20T14:00:52.000Z</time>
      </trkpt>
      <trkpt lat="45.79278" lon="4.82524">
        <ele>170.39999389648</ele>
        <time>2024-05-20T14:00:53.000Z</time>
      </trkpt>
      <trkpt lat="45.79274" lon="4.82516">
        <ele>170.39999389648</ele>
        <time>2024-05-20T14:00:54.000Z</time>
      </trkpt>
      <trkpt lat="45.7927" lon="4.82509">
        <ele>170.39999389648</ele>
        <time>2024-05-20T14:00:55.000Z</time>
      </trkpt>
      <trkpt lat="45.79266" lon="4.82502">
        <ele>170.60000610352</ele>
        <time>2024-05-20T14:00:56.000Z</time>
      </trkpt>
      <trkpt lat="45.79263" lon="4.82495">
        <ele>170.60000610352</ele>
        <time>2024-05-20T14:00:57.000Z</time>
      </trkpt>
      <trkpt lat="45.79259" lon="4.82488">
        <ele>170.39999389648</ele>
        <time>2024-05-20T14:00:58.000Z</time>
      </trkpt>
      <trkpt lat="45.79256" lon="4.82482">
        <ele>170.39999389648</ele>
        <time>2024-05-20T14:00:59.000Z</time>
      </trkpt>
      <trkpt lat="45.79251" lon="4.82474">
        <ele>170.39999389648</ele>
        <time>2024-05-20T14:01:00.000Z</time>
      </trkpt>
      <trkpt lat="45.79247" lon="4.82467">
        <ele>170.39999389648</ele>
        <time>2024-05-20T14:01:01.000Z</time>
      </trkpt>
      <trkpt lat="45.79243" lon="4.8246">
        <ele>170.39999389648</ele>
        <time>2024-05-20T14:01:02.000Z</time>
      </trkpt>
      <trkpt lat="45.79239" lon="4.82453">
        <ele>170.39999389648</ele>
        <time>2024-05-20T14:01:03.000Z</time>
      </trkpt>
      <trkpt lat="45.79235" lon="4.82445">
        <ele>170.19999694824</ele>
        <time>2024-05-20T14:01:04.000Z</time>
      </trkpt>
      <trkpt lat="45.79231" lon="4.82438">
        <ele>170.19999694824</ele>
        <time>2024-05-20T14:01:05.000Z</time>
      </trkpt>
      <trkpt lat="45.79227" lon="4.82431">
        <ele>170.19999694824</ele>
        <time>2024-05-20T14:01:06.000Z</time>
      </trkpt>
      <trkpt lat="45.79223" lon="4.82424">
        <ele>169.80000305176</ele>
        <time>2024-05-20T14:01:07.000Z</time>
      </trkpt>
      <trkpt lat="45.79219" lon="4.82417">
        <ele>169.80000305176</ele>
        <time>2024-05-20T14:01:08.000Z</time>
      </trkpt>
      <trkpt lat="45.79215" lon="4.82409">
        <ele>169.80000305176</ele>
        <time>2024-05-20T14:01:09.000Z</time>
      </trkpt>
      <trkpt lat="45.79212" lon="4.82402">
        <ele>169.80000305176</ele>
        <time>2024-05-20T14:01:10.000Z</time>
      </trkpt>
      <trkpt lat="45.79208" lon="4.82396">
        <ele>170</ele>
        <time>2024-05-20T14:01:11.000Z</time>
      </trkpt>
      <trkpt lat="45.79204" lon="4.82389">
        <ele>170.19999694824</ele>
        <time>2024-05-20T14:01:12.000Z</time>
      </trkpt>
      <trkpt lat="45.792" lon="4.82383">
        <ele>170.39999389648</ele>
        <time>2024-05-20T14:01:13.000Z</time>
      </trkpt>
      <trkpt lat="45.79196" lon="4.82376">
        <ele>170.39999389648</ele>
        <time>2024-05-20T14:01:14.000Z</time>
      </trkpt>
      <trkpt lat="45.79192" lon="4.8237">
        <ele>170.39999389648</ele>
        <time>2024-05-20T14:01:15.000Z</time>
      </trkpt>
      <trkpt lat="45.79189" lon="4.82365">
        <ele>170.39999389648</ele>
        <time>2024-05-20T14:01:16.000Z</time>
      </trkpt>
      <trkpt lat="45.79185" lon="4.82357">
        <ele>170.19999694824</ele>
        <time>2024-05-20T14:01:17.000Z</time>
      </trkpt>
      <trkpt lat="45.79181" lon="4.8235">
        <ele>170.19999694824</ele>
        <time>2024-05-20T14:01:18.000Z</time>
      </trkpt>
      <trkpt lat="45.79177" lon="4.82344">
        <ele>170.19999694824</ele>
        <time>2024-05-20T14:01:19.000Z</time>
      </trkpt>
      <trkpt lat="45.79173" lon="4.82337">
        <ele>170.19999694824</ele>
        <time>2024-05-20T14:01:20.000Z</time>
      </trkpt>
      <trkpt lat="45.79169" lon="4.8233">
        <ele>170.19999694824</ele>
        <time>2024-05-20T14:01:21.000Z</time>
      </trkpt>
      <trkpt lat="45.79166" lon="4.82323">
        <ele>170.19999694824</ele>
        <time>2024-05-20T14:01:22.000Z</time>
      </trkpt>
      <trkpt lat="45.79162" lon="4.82316">
        <ele>170.19999694824</ele>
        <time>2024-05-20T14:01:23.000Z</time>
      </trkpt>
      <trkpt lat="45.79158" lon="4.82309">
        <ele>170.19999694824</ele>
        <time>2024-05-20T14:01:24.000Z</time>
      </trkpt>
      <trkpt lat="45.79154" lon="4.82302">
        <ele>169.80000305176</ele>
        <time>2024-05-20T14:01:25.000Z</time>
      </trkpt>
      <trkpt lat="45.7915" lon="4.82296">
        <ele>169.80000305176</ele>
        <time>2024-05-20T14:01:26.000Z</time>
      </trkpt>
      <trkpt lat="45.79147" lon="4.82289">
        <ele>169.80000305176</ele>
        <time>2024-05-20T14:01:27.000Z</time>
      </trkpt>
      <trkpt lat="45.79143" lon="4.82282">
        <ele>169.80000305176</ele>
        <time>2024-05-20T14:01:28.000Z</time>
      </trkpt>
      <trkpt lat="45.79139" lon="4.82275">
        <ele>169.80000305176</ele>
        <time>2024-05-20T14:01:29.000Z</time>
      </trkpt>
      <trkpt lat="45.79135" lon="4.82268">
        <ele>169.80000305176</ele>
        <time>2024-05-20T14:01:30.000Z</time>
      </trkpt>
      <trkpt lat="45.79131" lon="4.8226">
        <ele>169.80000305176</ele>
        <time>2024-05-20T14:01:31.000Z</time>
      </trkpt>
      <trkpt lat="45.79127" lon="4.82253">
        <ele>169.80000305176</ele>
        <time>2024-05-20T14:01:32.000Z</time>
      </trkpt>
      <trkpt lat="45.79124" lon="4.82248">
        <ele>169.80000305176</ele>
        <time>2024-05-20T14:01:33.000Z</time>
      </trkpt>
      <trkpt lat="45.7912" lon="4.82242">
        <ele>170</ele>
        <time>2024-05-20T14:01:34.000Z</time>
      </trkpt>
      <trkpt lat="45.79116" lon="4.82236">
        <ele>170</ele>
        <time>2024-05-20T14:01:35.000Z</time>
      </trkpt>
      <trkpt lat="45.79112" lon="4.82229">
        <ele>170</ele>
        <time>2024-05-20T14:01:36.000Z</time>
      </trkpt>
      <trkpt lat="45.79107" lon="4.82221">
        <ele>170</ele>
        <time>2024-05-20T14:01:37.000Z</time>
      </trkpt>
      <trkpt lat="45.79103" lon="4.82215">
        <ele>170</ele>
        <time>2024-05-20T14:01:38.000Z</time>
      </trkpt>
      <trkpt lat="45.79099" lon="4.82208">
        <ele>170</ele>
        <time>2024-05-20T14:01:39.000Z</time>
      </trkpt>
      <trkpt lat="45.79096" lon="4.82203">
        <ele>170</ele>
        <time>2024-05-20T14:01:40.000Z</time>
      </trkpt>
      <trkpt lat="45.79091" lon="4.82195">
        <ele>170</ele>
        <time>2024-05-20T14:01:41.000Z</time>
      </trkpt>
      <trkpt lat="45.79086" lon="4.82188">
        <ele>169.60000610352</ele>
        <time>2024-05-20T14:01:42.000Z</time>
      </trkpt>
      <trkpt lat="45.79082" lon="4.82182">
        <ele>169.60000610352</ele>
        <time>2024-05-20T14:01:43.000Z</time>
      </trkpt>
      <trkpt lat="45.79078" lon="4.82176">
        <ele>169.39999389648</ele>
        <time>2024-05-20T14:01:44.000Z</time>
      </trkpt>
      <trkpt lat="45.79073" lon="4.82169">
        <ele>169.39999389648</ele>
        <time>2024-05-20T14:01:45.000Z</time>
      </trkpt>
      <trkpt lat="45.79069" lon="4.82163">
        <ele>169.39999389648</ele>
        <time>2024-05-20T14:01:46.000Z</time>
      </trkpt>
      <trkpt lat="45.79064" lon="4.82157">
        <ele>169.39999389648</ele>
        <time>2024-05-20T14:01:47.000Z</time>
      </trkpt>
      <trkpt lat="45.7906" lon="4.82151">
        <ele>169.39999389648</ele>
        <time>2024-05-20T14:01:48.000Z</time>
      </trkpt>
      <trkpt lat="45.79056" lon="4.82145">
        <ele>169.39999389648</ele>
        <time>2024-05-20T14:01:49.000Z</time>
      </trkpt>
      <trkpt lat="45.79051" lon="4.8214">
        <ele>169.39999389648</ele>
        <time>2024-05-20T14:01:50.000Z</time>
      </trkpt>
      <trkpt lat="45.79047" lon="4.82134">
        <ele>169.60000610352</ele>
        <time>2024-05-20T14:01:51.000Z</time>
      </trkpt>
      <trkpt lat="45.79042" lon="4.82127">
        <ele>169.60000610352</ele>
        <time>2024-05-20T14:01:52.000Z</time>
      </trkpt>
      <trkpt lat="45.79037" lon="4.82121">
        <ele>169.39999389648</ele>
        <time>2024-05-20T14:01:53.000Z</time>
      </trkpt>
      <trkpt lat="45.79033" lon="4.82116">
        <ele>169.39999389648</ele>
        <time>2024-05-20T14:01:54.000Z</time>
      </trkpt>
      <trkpt lat="45.79028" lon="4.8211">
        <ele>169.39999389648</ele>
        <time>2024-05-20T14:01:55.000Z</time>
      </trkpt>
      <trkpt lat="45.79023" lon="4.82104">
        <ele>169.39999389648</ele>
        <time>2024-05-20T14:01:56.000Z</time>
      </trkpt>
      <trkpt lat="45.79019" lon="4.82099">
        <ele>169.19999694824</ele>
        <time>2024-05-20T14:01:57.000Z</time>
      </trkpt>
      <trkpt lat="45.79014" lon="4.82094">
        <ele>169.19999694824</ele>
        <time>2024-05-20T14:01:58.000Z</time>
      </trkpt>
      <trkpt lat="45.7901" lon="4.82088">
        <ele>169.19999694824</ele>
        <time>2024-05-20T14:01:59.000Z</time>
      </trkpt>
      <trkpt lat="45.79005" lon="4.82083">
        <ele>169.19999694824</ele>
        <time>2024-05-20T14:02:00.000Z</time>
      </trkpt>
      <trkpt lat="45.79001" lon="4.82077">
        <ele>169.39999389648</ele>
        <time>2024-05-20T14:02:01.000Z</time>
      </trkpt>
      <trkpt lat="45.78996" lon="4.82072">
        <ele>169.39999389648</ele>
        <time>2024-05-20T14:02:02.000Z</time>
      </trkpt>
      <trkpt lat="45.78991" lon="4.82066">
        <ele>169.60000610352</ele>
        <time>2024-05-20T14:02:03.000Z</time>
      </trkpt>
      <trkpt lat="45.78987" lon="4.82061">
        <ele>169.60000610352</ele>
        <time>2024-05-20T14:02:04.000Z</time>
      </trkpt>
      <trkpt lat="45.78982" lon="4.82055">
        <ele>169.60000610352</ele>
        <time>2024-05-20T14:02:05.000Z</time>
      </trkpt>
      <trkpt lat="45.78977" lon="4.82049">
        <ele>169.60000610352</ele>
        <time>2024-05-20T14:02:06.000Z</time>
      </trkpt>
      <trkpt lat="45.78973" lon="4.82044">
        <ele>169.60000610352</ele>
        <time>2024-05-20T14:02:07.000Z</time>
      </trkpt>
      <trkpt lat="45.78968" lon="4.82038">
        <ele>169.60000610352</ele>
        <time>2024-05-20T14:02:08.000Z</time>
      </trkpt>
      <trkpt lat="45.78963" lon="4.82032">
        <ele>169.80000305176</ele>
        <time>2024-05-20T14:02:09.000Z</time>
      </trkpt>
      <trkpt lat="45.78958" lon="4.82027">
        <ele>169.80000305176</ele>
        <time>2024-05-20T14:02:10.000Z</time>
      </trkpt>
      <trkpt lat="45.78953" lon="4.82021">
        <ele>169.80000305176</ele>
        <time>2024-05-20T14:02:11.000Z</time>
      </trkpt>
      <trkpt lat="45.78948" lon="4.82016">
        <ele>169.80000305176</ele>
        <time>2024-05-20T14:02:12.000Z</time>
      </trkpt>
      <trkpt lat="45.78943" lon="4.8201">
        <ele>169.60000610352</ele>
        <time>2024-05-20T14:02:13.000Z</time>
      </trkpt>
      <trkpt lat="45.78939" lon="4.82004">
        <ele>169.60000610352</ele>
        <time>2024-05-20T14:02:14.000Z</time>
      </trkpt>
      <trkpt lat="45.78934" lon="4.81998">
        <ele>169.60000610352</ele>
        <time>2024-05-20T14:02:15.000Z</time>
      </trkpt>
      <trkpt lat="45.78929" lon="4.81992">
        <ele>169.60000610352</ele>
        <time>2024-05-20T14:02:16.000Z</time>
      </trkpt>
      <trkpt lat="45.78924" lon="4.81986">
        <ele>169.60000610352</ele>
        <time>2024-05-20T14:02:17.000Z</time>
      </trkpt>
      <trkpt lat="45.78919" lon="4.81981">
        <ele>169.60000610352</ele>
        <time>2024-05-20T14:02:18.000Z</time>
      </trkpt>
      <trkpt lat="45.78914" lon="4.81975">
        <ele>169.60000610352</ele>
        <time>2024-05-20T14:02:19.000Z</time>
      </trkpt>
      <trkpt lat="45.78911" lon="4.8197">
        <ele>169.60000610352</ele>
        <time>2024-05-20T14:02:20.000Z</time>
      </trkpt>
      <trkpt lat="45.78905" lon="4.81964">
        <ele>169.60000610352</ele>
        <time>2024-05-20T14:02:21.000Z</time>
      </trkpt>
      <trkpt lat="45.789" lon="4.81958">
        <ele>169.60000610352</ele>
        <time>2024-05-20T14:02:22.000Z</time>
      </trkpt>
      <trkpt lat="45.78896" lon="4.81953">
        <ele>169.60000610352</ele>
        <time>2024-05-20T14:02:23.000Z</time>
      </trkpt>
      <trkpt lat="45.78891" lon="4.81947">
        <ele>169.60000610352</ele>
        <time>2024-05-20T14:02:24.000Z</time>
      </trkpt>
      <trkpt lat="45.78886" lon="4.81941">
        <ele>169.60000610352</ele>
        <time>2024-05-20T14:02:25.000Z</time>
      </trkpt>
      <trkpt lat="45.78882" lon="4.81936">
        <ele>169.60000610352</ele>
        <time>2024-05-20T14:02:26.000Z</time>
      </trkpt>
      <trkpt lat="45.78877" lon="4.8193">
        <ele>169.60000610352</ele>
        <time>2024-05-20T14:02:27.000Z</time>
      </trkpt>
      <trkpt lat="45.78872" lon="4.81925">
        <ele>169.60000610352</ele>
        <time>2024-05-20T14:02:28.000Z</time>
      </trkpt>
      <trkpt lat="45.78867" lon="4.81919">
        <ele>169.60000610352</ele>
        <time>2024-05-20T14:02:29.000Z</time>
      </trkpt>
      <trkpt lat="45.78863" lon="4.81914">
        <ele>169.60000610352</ele>
        <time>2024-05-20T14:02:30.000Z</time>
      </trkpt>
      <trkpt lat="45.78858" lon="4.81908">
        <ele>169.60000610352</ele>
        <time>2024-05-20T14:02:31.000Z</time>
      </trkpt>
      <trkpt lat="45.78853" lon="4.81902">
        <ele>169.60000610352</ele>
        <time>2024-05-20T14:02:32.000Z</time>
      </trkpt>
      <trkpt lat="45.78849" lon="4.81898">
        <ele>169.80000305176</ele>
        <time>2024-05-20T14:02:33.000Z</time>
      </trkpt>
      <trkpt lat="45.78843" lon="4.81891">
        <ele>169.80000305176</ele>
        <time>2024-05-20T14:02:34.000Z</time>
      </trkpt>
      <trkpt lat="45.78838" lon="4.81885">
        <ele>169.80000305176</ele>
        <time>2024-05-20T14:02:35.000Z</time>
      </trkpt>
      <trkpt lat="45.78833" lon="4.81879">
        <ele>169.80000305176</ele>
        <time>2024-05-20T14:02:36.000Z</time>
      </trkpt>
      <trkpt lat="45.78828" lon="4.81874">
        <ele>169.80000305176</ele>
        <time>2024-05-20T14:02:37.000Z</time>
      </trkpt>
      <trkpt lat="45.78822" lon="4.81867">
        <ele>169.80000305176</ele>
        <time>2024-05-20T14:02:38.000Z</time>
      </trkpt>
      <trkpt lat="45.78817" lon="4.81861">
        <ele>169.80000305176</ele>
        <time>2024-05-20T14:02:39.000Z</time>
      </trkpt>
      <trkpt lat="45.78813" lon="4.81856">
        <ele>169.80000305176</ele>
        <time>2024-05-20T14:02:40.000Z</time>
      </trkpt>
      <trkpt lat="45.78808" lon="4.8185">
        <ele>169.80000305176</ele>
        <time>2024-05-20T14:02:41.000Z</time>
      </trkpt>
      <trkpt lat="45.78803" lon="4.81844">
        <ele>169.80000305176</ele>
        <time>2024-05-20T14:02:42.000Z</time>
      </trkpt>
      <trkpt lat="45.78798" lon="4.81837">
        <ele>169.80000305176</ele>
        <time>2024-05-20T14:02:43.000Z</time>
      </trkpt>
      <trkpt lat="45.78792" lon="4.8183">
        <ele>169.80000305176</ele>
        <time>2024-05-20T14:02:44.000Z</time>
      </trkpt>
      <trkpt lat="45.78787" lon="4.81824">
        <ele>170</ele>
        <time>2024-05-20T14:02:45.000Z</time>
      </trkpt>
      <trkpt lat="45.78782" lon="4.81818">
        <ele>170</ele>
        <time>2024-05-20T14:02:46.000Z</time>
      </trkpt>
      <trkpt lat="45.78777" lon="4.81812">
        <ele>170.19999694824</ele>
        <time>2024-05-20T14:02:47.000Z</time>
      </trkpt>
      <trkpt lat="45.78772" lon="4.81806">
        <ele>170.19999694824</ele>
        <time>2024-05-20T14:02:48.000Z</time>
      </trkpt>
      <trkpt lat="45.78767" lon="4.818">
        <ele>170.19999694824</ele>
        <time>2024-05-20T14:02:49.000Z</time>
      </trkpt>
      <trkpt lat="45.78762" lon="4.81794">
        <ele>170.19999694824</ele>
        <time>2024-05-20T14:02:50.000Z</time>
      </trkpt>
      <trkpt lat="45.78757" lon="4.81788">
        <ele>170.39999389648</ele>
        <time>2024-05-20T14:02:51.000Z</time>
      </trkpt>
      <trkpt lat="45.78752" lon="4.81782">
        <ele>170.39999389648</ele>
        <time>2024-05-20T14:02:52.000Z</time>
      </trkpt>
      <trkpt lat="45.78747" lon="4.81776">
        <ele>170.39999389648</ele>
        <time>2024-05-20T14:02:53.000Z</time>
      </trkpt>
      <trkpt lat="45.78742" lon="4.81771">
        <ele>170.39999389648</ele>
        <time>2024-05-20T14:02:54.000Z</time>
      </trkpt>
      <trkpt lat="45.78737" lon="4.81765">
        <ele>170.39999389648</ele>
        <time>2024-05-20T14:02:55.000Z</time>
      </trkpt>
      <trkpt lat="45.78732" lon="4.81758">
        <ele>170.39999389648</ele>
        <time>2024-05-20T14:02:56.000Z</time>
      </trkpt>
      <trkpt lat="45.78727" lon="4.81752">
        <ele>170.39999389648</ele>
        <time>2024-05-20T14:02:57.000Z</time>
      </trkpt>
      <trkpt lat="45.78722" lon="4.81747">
        <ele>170.60000610352</ele>
        <time>2024-05-20T14:02:58.000Z</time>
      </trkpt>
      <trkpt lat="45.78717" lon="4.81741">
        <ele>170.60000610352</ele>
        <time>2024-05-20T14:02:59.000Z</time>
      </trkpt>
      <trkpt lat="45.78712" lon="4.81735">
        <ele>170.60000610352</ele>
        <time>2024-05-20T14:03:00.000Z</time>
      </trkpt>
      <trkpt lat="45.78707" lon="4.81729">
        <ele>170.60000610352</ele>
        <time>2024-05-20T14:03:01.000Z</time>
      </trkpt>
      <trkpt lat="45.78702" lon="4.81723">
        <ele>170.60000610352</ele>
        <time>2024-05-20T14:03:02.000Z</time>
      </trkpt>
      <trkpt lat="45.78698" lon="4.81718">
        <ele>170.60000610352</ele>
        <time>2024-05-20T14:03:03.000Z</time>
      </trkpt>
      <trkpt lat="45.78693" lon="4.81712">
        <ele>170.60000610352</ele>
        <time>2024-05-20T14:03:04.000Z</time>
      </trkpt>
      <trkpt lat="45.78688" lon="4.81707">
        <ele>170.60000610352</ele>
        <time>2024-05-20T14:03:05.000Z</time>
      </trkpt>
      <trkpt lat="45.78683" lon="4.81702">
        <ele>170.80000305176</ele>
        <time>2024-05-20T14:03:06.000Z</time>
      </trkpt>
      <trkpt lat="45.78678" lon="4.81697">
        <ele>170.80000305176</ele>
        <time>2024-05-20T14:03:07.000Z</time>
      </trkpt>
      <trkpt lat="45.78672" lon="4.81693">
        <ele>170.80000305176</ele>
        <time>2024-05-20T14:03:08.000Z</time>
      </trkpt>
      <trkpt lat="45.78667" lon="4.81689">
        <ele>170.80000305176</ele>
        <time>2024-05-20T14:03:09.000Z</time>
      </trkpt>
      <trkpt lat="45.78661" lon="4.81685">
        <ele>171</ele>
        <time>2024-05-20T14:03:10.000Z</time>
      </trkpt>
      <trkpt lat="45.78656" lon="4.81681">
        <ele>171.19999694824</ele>
        <time>2024-05-20T14:03:11.000Z</time>
      </trkpt>
      <trkpt lat="45.7865" lon="4.81677">
        <ele>171.19999694824</ele>
        <time>2024-05-20T14:03:12.000Z</time>
      </trkpt>
      <trkpt lat="45.78644" lon="4.81674">
        <ele>171.39999389648</ele>
        <time>2024-05-20T14:03:13.000Z</time>
      </trkpt>
      <trkpt lat="45.7864" lon="4.8167">
        <ele>171.39999389648</ele>
        <time>2024-05-20T14:03:14.000Z</time>
      </trkpt>
      <trkpt lat="45.78633" lon="4.81666">
        <ele>171.39999389648</ele>
        <time>2024-05-20T14:03:15.000Z</time>
      </trkpt>
      <trkpt lat="45.78627" lon="4.81662">
        <ele>171.39999389648</ele>
        <time>2024-05-20T14:03:16.000Z</time>
      </trkpt>
      <trkpt lat="45.78621" lon="4.81658">
        <ele>171.39999389648</ele>
        <time>2024-05-20T14:03:17.000Z</time>
      </trkpt>
      <trkpt lat="45.78616" lon="4.81654">
        <ele>171.39999389648</ele>
        <time>2024-05-20T14:03:18.000Z</time>
      </trkpt>
      <trkpt lat="45.7861" lon="4.8165">
        <ele>171.39999389648</ele>
        <time>2024-05-20T14:03:19.000Z</time>
      </trkpt>
      <trkpt lat="45.78604" lon="4.81646">
        <ele>171.39999389648</ele>
        <time>2024-05-20T14:03:20.000Z</time>
      </trkpt>
      <trkpt lat="45.78599" lon="4.81643">
        <ele>171.60000610352</ele>
        <time>2024-05-20T14:03:21.000Z</time>
      </trkpt>
      <trkpt lat="45.78593" lon="4.81638">
        <ele>171.60000610352</ele>
        <time>2024-05-20T14:03:22.000Z</time>
      </trkpt>
      <trkpt lat="45.78588" lon="4.81634">
        <ele>171.60000610352</ele>
        <time>2024-05-20T14:03:23.000Z</time>
      </trkpt>
      <trkpt lat="45.78582" lon="4.8163">
        <ele>171.60000610352</ele>
        <time>2024-05-20T14:03:24.000Z</time>
      </trkpt>
      <trkpt lat="45.78577" lon="4.81626">
        <ele>171.60000610352</ele>
        <time>2024-05-20T14:03:25.000Z</time>
      </trkpt>
      <trkpt lat="45.78571" lon="4.81622">
        <ele>171.60000610352</ele>
        <time>2024-05-20T14:03:26.000Z</time>
      </trkpt>
      <trkpt lat="45.78566" lon="4.81618">
        <ele>171.60000610352</ele>
        <time>2024-05-20T14:03:27.000Z</time>
      </trkpt>
      <trkpt lat="45.78561" lon="4.81614">
        <ele>171.80000305176</ele>
        <time>2024-05-20T14:03:28.000Z</time>
      </trkpt>
      <trkpt lat="45.78555" lon="4.8161">
        <ele>171.80000305176</ele>
        <time>2024-05-20T14:03:29.000Z</time>
      </trkpt>
      <trkpt lat="45.7855" lon="4.81606">
        <ele>171.80000305176</ele>
        <time>2024-05-20T14:03:30.000Z</time>
      </trkpt>
      <trkpt lat="45.78545" lon="4.81602">
        <ele>172</ele>
        <time>2024-05-20T14:03:31.000Z</time>
      </trkpt>
      <trkpt lat="45.7854" lon="4.81599">
        <ele>172</ele>
        <time>2024-05-20T14:03:32.000Z</time>
      </trkpt>
      <trkpt lat="45.78534" lon="4.81595">
        <ele>172</ele>
        <time>2024-05-20T14:03:33.000Z</time>
      </trkpt>
      <trkpt lat="45.78529" lon="4.81591">
        <ele>172.19999694824</ele>
        <time>2024-05-20T14:03:34.000Z</time>
      </trkpt>
      <trkpt lat="45.78524" lon="4.81587">
        <ele>172.19999694824</ele>
        <time>2024-05-20T14:03:35.000Z</time>
      </trkpt>
      <trkpt lat="45.78519" lon="4.81582">
        <ele>172.19999694824</ele>
        <time>2024-05-20T14:03:36.000Z</time>
      </trkpt>
      <trkpt lat="45.78513" lon="4.81577">
        <ele>172.19999694824</ele>
        <time>2024-05-20T14:03:37.000Z</time>
      </trkpt>
      <trkpt lat="45.78508" lon="4.81572">
        <ele>172.19999694824</ele>
        <time>2024-05-20T14:03:38.000Z</time>
      </trkpt>
      <trkpt lat="45.78502" lon="4.81568">
        <ele>172.19999694824</ele>
        <time>2024-05-20T14:03:39.000Z</time>
      </trkpt>
      <trkpt lat="45.78497" lon="4.81563">
        <ele>172.19999694824</ele>
        <time>2024-05-20T14:03:40.000Z</time>
      </trkpt>
      <trkpt lat="45.78491" lon="4.81558">
        <ele>172</ele>
        <time>2024-05-20T14:03:41.000Z</time>
      </trkpt>
      <trkpt lat="45.78485" lon="4.81553">
        <ele>172</ele>
        <time>2024-05-20T14:03:42.000Z</time>
      </trkpt>
      <trkpt lat="45.7848" lon="4.81548">
        <ele>172</ele>
        <time>2024-05-20T14:03:43.000Z</time>
      </trkpt>
      <trkpt lat="45.78474" lon="4.81543">
        <ele>172</ele>
        <time>2024-05-20T14:03:44.000Z</time>
      </trkpt>
      <trkpt lat="45.78469" lon="4.81538">
        <ele>171.80000305176</ele>
        <time>2024-05-20T14:03:45.000Z</time>
      </trkpt>
      <trkpt lat="45.78463" lon="4.81534">
        <ele>171.60000610352</ele>
        <time>2024-05-20T14:03:46.000Z</time>
      </trkpt>
      <trkpt lat="45.78458" lon="4.81529">
        <ele>171.39999389648</ele>
        <time>2024-05-20T14:03:47.000Z</time>
      </trkpt>
      <trkpt lat="45.78452" lon="4.81524">
        <ele>171.39999389648</ele>
        <time>2024-05-20T14:03:48.000Z</time>
      </trkpt>
      <trkpt lat="45.78447" lon="4.81519">
        <ele>171.39999389648</ele>
        <time>2024-05-20T14:03:49.000Z</time>
      </trkpt>
      <trkpt lat="45.78441" lon="4.81515">
        <ele>171.39999389648</ele>
        <time>2024-05-20T14:03:50.000Z</time>
      </trkpt>
      <trkpt lat="45.78436" lon="4.8151">
        <ele>171.39999389648</ele>
        <time>2024-05-20T14:03:51.000Z</time>
      </trkpt>
      <trkpt lat="45.78431" lon="4.81505">
        <ele>171.39999389648</ele>
        <time>2024-05-20T14:03:52.000Z</time>
      </trkpt>
      <trkpt lat="45.78425" lon="4.81501">
        <ele>171.39999389648</ele>
        <time>2024-05-20T14:03:53.000Z</time>
      </trkpt>
      <trkpt lat="45.7842" lon="4.81496">
        <ele>171.39999389648</ele>
        <time>2024-05-20T14:03:54.000Z</time>
      </trkpt>
      <trkpt lat="45.78415" lon="4.81491">
        <ele>171.39999389648</ele>
        <time>2024-05-20T14:03:55.000Z</time>
      </trkpt>
      <trkpt lat="45.7841" lon="4.81487">
        <ele>171.39999389648</ele>
        <time>2024-05-20T14:03:56.000Z</time>
      </trkpt>
      <trkpt lat="45.78405" lon="4.81482">
        <ele>171.39999389648</ele>
        <time>2024-05-20T14:03:57.000Z</time>
      </trkpt>
      <trkpt lat="45.784" lon="4.81478">
        <ele>171.19999694824</ele>
        <time>2024-05-20T14:03:58.000Z</time>
      </trkpt>
      <trkpt lat="45.78395" lon="4.81473">
        <ele>171.19999694824</ele>
        <time>2024-05-20T14:03:59.000Z</time>
      </trkpt>
      <trkpt lat="45.7839" lon="4.81469">
        <ele>171</ele>
        <time>2024-05-20T14:04:00.000Z</time>
      </trkpt>
      <trkpt lat="45.78384" lon="4.81465">
        <ele>171</ele>
        <time>2024-05-20T14:04:01.000Z</time>
      </trkpt>
      <trkpt lat="45.7838" lon="4.8146">
        <ele>171</ele>
        <time>2024-05-20T14:04:02.000Z</time>
      </trkpt>
      <trkpt lat="45.78374" lon="4.81456">
        <ele>171</ele>
        <time>2024-05-20T14:04:03.000Z</time>
      </trkpt>
      <trkpt lat="45.78369" lon="4.81451">
        <ele>171</ele>
        <time>2024-05-20T14:04:04.000Z</time>
      </trkpt>
      <trkpt lat="45.78364" lon="4.81447">
        <ele>171</ele>
        <time>2024-05-20T14:04:05.000Z</time>
      </trkpt>
      <trkpt lat="45.78359" lon="4.81443">
        <ele>171.19999694824</ele>
        <time>2024-05-20T14:04:06.000Z</time>
      </trkpt>
      <trkpt lat="45.78354" lon="4.81438">
        <ele>171.39999389648</ele>
        <time>2024-05-20T14:04:07.000Z</time>
      </trkpt>
      <trkpt lat="45.78349" lon="4.81434">
        <ele>171.39999389648</ele>
        <time>2024-05-20T14:04:08.000Z</time>
      </trkpt>
      <trkpt lat="45.78344" lon="4.81429">
        <ele>171.39999389648</ele>
        <time>2024-05-20T14:04:09.000Z</time>
      </trkpt>
      <trkpt lat="45.78339" lon="4.81424">
        <ele>171.39999389648</ele>
        <time>2024-05-20T14:04:10.000Z</time>
      </trkpt>
      <trkpt lat="45.78333" lon="4.8142">
        <ele>171.39999389648</ele>
        <time>2024-05-20T14:04:11.000Z</time>
      </trkpt>
      <trkpt lat="45.78328" lon="4.81415">
        <ele>171.39999389648</ele>
        <time>2024-05-20T14:04:12.000Z</time>
      </trkpt>
      <trkpt lat="45.78323" lon="4.8141">
        <ele>171.39999389648</ele>
        <time>2024-05-20T14:04:13.000Z</time>
      </trkpt>
      <trkpt lat="45.78318" lon="4.81405">
        <ele>171.39999389648</ele>
        <time>2024-05-20T14:04:14.000Z</time>
      </trkpt>
      <trkpt lat="45.78313" lon="4.81401">
        <ele>171.39999389648</ele>
        <time>2024-05-20T14:04:15.000Z</time>
      </trkpt>
      <trkpt lat="45.78308" lon="4.81396">
        <ele>171.39999389648</ele>
        <time>2024-05-20T14:04:16.000Z</time>
      </trkpt>
      <trkpt lat="45.78302" lon="4.81392">
        <ele>171.39999389648</ele>
        <time>2024-05-20T14:04:17.000Z</time>
      </trkpt>
      <trkpt lat="45.78297" lon="4.81387">
        <ele>171.39999389648</ele>
        <time>2024-05-20T14:04:18.000Z</time>
      </trkpt>
      <trkpt lat="45.78292" lon="4.81382">
        <ele>171.60000610352</ele>
        <time>2024-05-20T14:04:19.000Z</time>
      </trkpt>
      <trkpt lat="45.78287" lon="4.81378">
        <ele>171.60000610352</ele>
        <time>2024-05-20T14:04:20.000Z</time>
      </trkpt>
      <trkpt lat="45.78282" lon="4.81374">
        <ele>171.60000610352</ele>
        <time>2024-05-20T14:04:21.000Z</time>
      </trkpt>
      <trkpt lat="45.78276" lon="4.81369">
        <ele>171.60000610352</ele>
        <time>2024-05-20T14:04:22.000Z</time>
      </trkpt>
      <trkpt lat="45.78271" lon="4.81364">
        <ele>171.60000610352</ele>
        <time>2024-05-20T14:04:23.000Z</time>
      </trkpt>
      <trkpt lat="45.78266" lon="4.81359">
        <ele>171.60000610352</ele>
        <time>2024-05-20T14:04:24.000Z</time>
      </trkpt>
      <trkpt lat="45.78261" lon="4.81355">
        <ele>171.60000610352</ele>
        <time>2024-05-20T14:04:25.000Z</time>
      </trkpt>
      <trkpt lat="45.78256" lon="4.8135">
        <ele>171.60000610352</ele>
        <time>2024-05-20T14:04:26.000Z</time>
      </trkpt>
      <trkpt lat="45.78251" lon="4.81346">
        <ele>171.60000610352</ele>
        <time>2024-05-20T14:04:27.000Z</time>
      </trkpt>
      <trkpt lat="45.78245" lon="4.81341">
        <ele>171.80000305176</ele>
        <time>2024-05-20T14:04:28.000Z</time>
      </trkpt>
      <trkpt lat="45.7824" lon="4.81336">
        <ele>171.80000305176</ele>
        <time>2024-05-20T14:04:29.000Z</time>
      </trkpt>
      <trkpt lat="45.78235" lon="4.81332">
        <ele>171.80000305176</ele>
        <time>2024-05-20T14:04:30.000Z</time>
      </trkpt>
      <trkpt lat="45.7823" lon="4.81327">
        <ele>171.80000305176</ele>
        <time>2024-05-20T14:04:31.000Z</time>
      </trkpt>
      <trkpt lat="45.78225" lon="4.81323">
        <ele>171.80000305176</ele>
        <time>2024-05-20T14:04:32.000Z</time>
      </trkpt>
      <trkpt lat="45.7822" lon="4.81318">
        <ele>171.80000305176</ele>
        <time>2024-05-20T14:04:33.000Z</time>
      </trkpt>
      <trkpt lat="45.78214" lon="4.81314">
        <ele>171.80000305176</ele>
        <time>2024-05-20T14:04:34.000Z</time>
      </trkpt>
      <trkpt lat="45.78209" lon="4.81309">
        <ele>171.60000610352</ele>
        <time>2024-05-20T14:04:35.000Z</time>
      </trkpt>
      <trkpt lat="45.78204" lon="4.81305">
        <ele>171.80000305176</ele>
        <time>2024-05-20T14:04:36.000Z</time>
      </trkpt>
      <trkpt lat="45.78198" lon="4.813">
        <ele>171.80000305176</ele>
        <time>2024-05-20T14:04:37.000Z</time>
      </trkpt>
      <trkpt lat="45.78193" lon="4.81295">
        <ele>171.80000305176</ele>
        <time>2024-05-20T14:04:38.000Z</time>
      </trkpt>
      <trkpt lat="45.78189" lon="4.81292">
        <ele>171.60000610352</ele>
        <time>2024-05-20T14:04:39.000Z</time>
      </trkpt>
      <trkpt lat="45.78183" lon="4.81287">
        <ele>171.60000610352</ele>
        <time>2024-05-20T14:04:40.000Z</time>
      </trkpt>
      <trkpt lat="45.78177" lon="4.81282">
        <ele>171.60000610352</ele>
        <time>2024-05-20T14:04:41.000Z</time>
      </trkpt>
      <trkpt lat="45.78173" lon="4.81278">
        <ele>171.39999389648</ele>
        <time>2024-05-20T14:04:42.000Z</time>
      </trkpt>
      <trkpt lat="45.78168" lon="4.81274">
        <ele>171.39999389648</ele>
        <time>2024-05-20T14:04:43.000Z</time>
      </trkpt>
      <trkpt lat="45.78162" lon="4.81269">
        <ele>171.39999389648</ele>
        <time>2024-05-20T14:04:44.000Z</time>
      </trkpt>
      <trkpt lat="45.78157" lon="4.81264">
        <ele>171.39999389648</ele>
        <time>2024-05-20T14:04:45.000Z</time>
      </trkpt>
      <trkpt lat="45.7815" lon="4.81259">
        <ele>171.39999389648</ele>
        <time>2024-05-20T14:04:46.000Z</time>
      </trkpt>
      <trkpt lat="45.78145" lon="4.81255">
        <ele>171.39999389648</ele>
        <time>2024-05-20T14:04:47.000Z</time>
      </trkpt>
      <trkpt lat="45.78139" lon="4.8125">
        <ele>171.39999389648</ele>
        <time>2024-05-20T14:04:48.000Z</time>
      </trkpt>
      <trkpt lat="45.78134" lon="4.81246">
        <ele>171.39999389648</ele>
        <time>2024-05-20T14:04:49.000Z</time>
      </trkpt>
      <trkpt lat="45.78128" lon="4.81242">
        <ele>171.39999389648</ele>
        <time>2024-05-20T14:04:50.000Z</time>
      </trkpt>
      <trkpt lat="45.78123" lon="4.81238">
        <ele>171.39999389648</ele>
        <time>2024-05-20T14:04:51.000Z</time>
      </trkpt>
      <trkpt lat="45.78117" lon="4.81234">
        <ele>171.39999389648</ele>
        <time>2024-05-20T14:04:52.000Z</time>
      </trkpt>
      <trkpt lat="45.78112" lon="4.8123">
        <ele>171.39999389648</ele>
        <time>2024-05-20T14:04:53.000Z</time>
      </trkpt>
      <trkpt lat="45.78106" lon="4.81226">
        <ele>171.39999389648</ele>
        <time>2024-05-20T14:04:54.000Z</time>
      </trkpt>
      <trkpt lat="45.78101" lon="4.81222">
        <ele>171.39999389648</ele>
        <time>2024-05-20T14:04:55.000Z</time>
      </trkpt>
      <trkpt lat="45.78095" lon="4.81218">
        <ele>171.19999694824</ele>
        <time>2024-05-20T14:04:56.000Z</time>
      </trkpt>
      <trkpt lat="45.7809" lon="4.81214">
        <ele>171.19999694824</ele>
        <time>2024-05-20T14:04:57.000Z</time>
      </trkpt>
      <trkpt lat="45.78084" lon="4.8121">
        <ele>171.19999694824</ele>
        <time>2024-05-20T14:04:58.000Z</time>
      </trkpt>
      <trkpt lat="45.78079" lon="4.81207">
        <ele>171.19999694824</ele>
        <time>2024-05-20T14:04:59.000Z</time>
      </trkpt>
      <trkpt lat="45.78073" lon="4.81203">
        <ele>171</ele>
        <time>2024-05-20T14:05:00.000Z</time>
      </trkpt>
      <trkpt lat="45.78067" lon="4.812">
        <ele>170.80000305176</ele>
        <time>2024-05-20T14:05:01.000Z</time>
      </trkpt>
      <trkpt lat="45.78062" lon="4.81197">
        <ele>170.80000305176</ele>
        <time>2024-05-20T14:05:02.000Z</time>
      </trkpt>
      <trkpt lat="45.78056" lon="4.81194">
        <ele>170.80000305176</ele>
        <time>2024-05-20T14:05:03.000Z</time>
      </trkpt>
      <trkpt lat="45.78051" lon="4.81191">
        <ele>170.80000305176</ele>
        <time>2024-05-20T14:05:04.000Z</time>
      </trkpt>
      <trkpt lat="45.78046" lon="4.81188">
        <ele>171</ele>
        <time>2024-05-20T14:05:05.000Z</time>
      </trkpt>
      <trkpt lat="45.7804" lon="4.81185">
        <ele>171</ele>
        <time>2024-05-20T14:05:06.000Z</time>
      </trkpt>
      <trkpt lat="45.78035" lon="4.81183">
        <ele>171.19999694824</ele>
        <time>2024-05-20T14:05:07.000Z</time>
      </trkpt>
      <trkpt lat="45.78029" lon="4.81181">
        <ele>171.19999694824</ele>
        <time>2024-05-20T14:05:08.000Z</time>
      </trkpt>
      <trkpt lat="45.78023" lon="4.81179">
        <ele>171.19999694824</ele>
        <time>2024-05-20T14:05:09.000Z</time>
      </trkpt>
      <trkpt lat="45.78018" lon="4.81177">
        <ele>171.39999389648</ele>
        <time>2024-05-20T14:05:10.000Z</time>
      </trkpt>
      <trkpt lat="45.78012" lon="4.81175">
        <ele>171.39999389648</ele>
        <time>2024-05-20T14:05:11.000Z</time>
      </trkpt>
      <trkpt lat="45.78006" lon="4.81172">
        <ele>171.39999389648</ele>
        <time>2024-05-20T14:05:12.000Z</time>
      </trkpt>
      <trkpt lat="45.78001" lon="4.81169">
        <ele>171.39999389648</ele>
        <time>2024-05-20T14:05:13.000Z</time>
      </trkpt>
      <trkpt lat="45.77996" lon="4.81167">
        <ele>171.60000610352</ele>
        <time>2024-05-20T14:05:14.000Z</time>
      </trkpt>
      <trkpt lat="45.7799" lon="4.81163">
        <ele>172</ele>
        <time>2024-05-20T14:05:15.000Z</time>
      </trkpt>
      <trkpt lat="45.77985" lon="4.8116">
        <ele>172</ele>
        <time>2024-05-20T14:05:16.000Z</time>
      </trkpt>
      <trkpt lat="45.7798" lon="4.81157">
        <ele>172</ele>
        <time>2024-05-20T14:05:17.000Z</time>
      </trkpt>
      <trkpt lat="45.77974" lon="4.81154">
        <ele>172</ele>
        <time>2024-05-20T14:05:18.000Z</time>
      </trkpt>
      <trkpt lat="45.77968" lon="4.81152">
        <ele>172</ele>
        <time>2024-05-20T14:05:19.000Z</time>
      </trkpt>
      <trkpt lat="45.77963" lon="4.8115">
        <ele>172</ele>
        <time>2024-05-20T14:05:20.000Z</time>
      </trkpt>
      <trkpt lat="45.77956" lon="4.81148">
        <ele>172</ele>
        <time>2024-05-20T14:05:21.000Z</time>
      </trkpt>
      <trkpt lat="45.7795" lon="4.81145">
        <ele>172</ele>
        <time>2024-05-20T14:05:22.000Z</time>
      </trkpt>
      <trkpt lat="45.77944" lon="4.81143">
        <ele>172</ele>
        <time>2024-05-20T14:05:23.000Z</time>
      </trkpt>
      <trkpt lat="45.77938" lon="4.81141">
        <ele>171.80000305176</ele>
        <time>2024-05-20T14:05:24.000Z</time>
      </trkpt>
      <trkpt lat="45.77931" lon="4.81138">
        <ele>171.60000610352</ele>
        <time>2024-05-20T14:05:25.000Z</time>
      </trkpt>
      <trkpt lat="45.77925" lon="4.81135">
        <ele>171.60000610352</ele>
        <time>2024-05-20T14:05:26.000Z</time>
      </trkpt>
      <trkpt lat="45.77918" lon="4.81132">
        <ele>171.60000610352</ele>
        <time>2024-05-20T14:05:27.000Z</time>
      </trkpt>
      <trkpt lat="45.77912" lon="4.8113">
        <ele>171.39999389648</ele>
        <time>2024-05-20T14:05:28.000Z</time>
      </trkpt>
      <trkpt lat="45.77905" lon="4.81127">
        <ele>171.19999694824</ele>
        <time>2024-05-20T14:05:29.000Z</time>
      </trkpt>
      <trkpt lat="45.77899" lon="4.81125">
        <ele>171.19999694824</ele>
        <time>2024-05-20T14:05:30.000Z</time>
      </trkpt>
      <trkpt lat="45.77893" lon="4.81122">
        <ele>171.19999694824</ele>
        <time>2024-05-20T14:05:31.000Z</time>
      </trkpt>
      <trkpt lat="45.77887" lon="4.81119">
        <ele>171.19999694824</ele>
        <time>2024-05-20T14:05:32.000Z</time>
      </trkpt>
      <trkpt lat="45.77881" lon="4.81117">
        <ele>171.19999694824</ele>
        <time>2024-05-20T14:05:33.000Z</time>
      </trkpt>
      <trkpt lat="45.77875" lon="4.81114">
        <ele>171.19999694824</ele>
        <time>2024-05-20T14:05:34.000Z</time>
      </trkpt>
      <trkpt lat="45.77868" lon="4.81112">
        <ele>171.19999694824</ele>
        <time>2024-05-20T14:05:35.000Z</time>
      </trkpt>
      <trkpt lat="45.77862" lon="4.81109">
        <ele>171.19999694824</ele>
        <time>2024-05-20T14:05:36.000Z</time>
      </trkpt>
      <trkpt lat="45.77857" lon="4.81106">
        <ele>171.39999389648</ele>
        <time>2024-05-20T14:05:37.000Z</time>
      </trkpt>
      <trkpt lat="45.77851" lon="4.81104">
        <ele>171.39999389648</ele>
        <time>2024-05-20T14:05:38.000Z</time>
      </trkpt>
      <trkpt lat="45.77846" lon="4.81101">
        <ele>171.60000610352</ele>
        <time>2024-05-20T14:05:39.000Z</time>
      </trkpt>
      <trkpt lat="45.77841" lon="4.81099">
        <ele>171.60000610352</ele>
        <time>2024-05-20T14:05:40.000Z</time>
      </trkpt>
      <trkpt lat="45.77835" lon="4.81096">
        <ele>171.80000305176</ele>
        <time>2024-05-20T14:05:41.000Z</time>
      </trkpt>
      <trkpt lat="45.7783" lon="4.81094">
        <ele>172.19999694824</ele>
        <time>2024-05-20T14:05:42.000Z</time>
      </trkpt>
      <trkpt lat="45.77824" lon="4.81092">
        <ele>172.39999389648</ele>
        <time>2024-05-20T14:05:43.000Z</time>
      </trkpt>
      <trkpt lat="45.77819" lon="4.81089">
        <ele>172.39999389648</ele>
        <time>2024-05-20T14:05:44.000Z</time>
      </trkpt>
      <trkpt lat="45.77813" lon="4.81087">
        <ele>172.39999389648</ele>
        <time>2024-05-20T14:05:45.000Z</time>
      </trkpt>
      <trkpt lat="45.77808" lon="4.81085">
        <ele>172.60000610352</ele>
        <time>2024-05-20T14:05:46.000Z</time>
      </trkpt>
      <trkpt lat="45.77802" lon="4.81082">
        <ele>172.60000610352</ele>
        <time>2024-05-20T14:05:47.000Z</time>
      </trkpt>
      <trkpt lat="45.77796" lon="4.8108">
        <ele>172.60000610352</ele>
        <time>2024-05-20T14:05:48.000Z</time>
      </trkpt>
      <trkpt lat="45.77791" lon="4.81077">
        <ele>172.60000610352</ele>
        <time>2024-05-20T14:05:49.000Z</time>
      </trkpt>
      <trkpt lat="45.77785" lon="4.81074">
        <ele>172.80000305176</ele>
        <time>2024-05-20T14:05:50.000Z</time>
      </trkpt>
      <trkpt lat="45.7778" lon="4.81072">
        <ele>173</ele>
        <time>2024-05-20T14:05:51.000Z</time>
      </trkpt>
      <trkpt lat="45.77775" lon="4.8107">
        <ele>173</ele>
        <time>2024-05-20T14:05:52.000Z</time>
      </trkpt>
      <trkpt lat="45.77769" lon="4.81067">
        <ele>173</ele>
        <time>2024-05-20T14:05:53.000Z</time>
      </trkpt>
      <trkpt lat="45.77763" lon="4.81065">
        <ele>173</ele>
        <time>2024-05-20T14:05:54.000Z</time>
      </trkpt>
      <trkpt lat="45.77758" lon="4.81063">
        <ele>173</ele>
        <time>2024-05-20T14:05:55.000Z</time>
      </trkpt>
      <trkpt lat="45.77753" lon="4.81061">
        <ele>172.80000305176</ele>
        <time>2024-05-20T14:05:56.000Z</time>
      </trkpt>
      <trkpt lat="45.77747" lon="4.81058">
        <ele>172.80000305176</ele>
        <time>2024-05-20T14:05:57.000Z</time>
      </trkpt>
      <trkpt lat="45.77741" lon="4.81056">
        <ele>172.60000610352</ele>
        <time>2024-05-20T14:05:58.000Z</time>
      </trkpt>
      <trkpt lat="45.77735" lon="4.81053">
        <ele>172.60000610352</ele>
        <time>2024-05-20T14:05:59.000Z</time>
      </trkpt>
      <trkpt lat="45.77728" lon="4.81048">
        <ele>172.60000610352</ele>
        <time>2024-05-20T14:06:00.000Z</time>
      </trkpt>
      <trkpt lat="45.77722" lon="4.81046">
        <ele>172.60000610352</ele>
        <time>2024-05-20T14:06:01.000Z</time>
      </trkpt>
      <trkpt lat="45.77716" lon="4.81044">
        <ele>172.39999389648</ele>
        <time>2024-05-20T14:06:02.000Z</time>
      </trkpt>
      <trkpt lat="45.77711" lon="4.81042">
        <ele>172.19999694824</ele>
        <time>2024-05-20T14:06:03.000Z</time>
      </trkpt>
      <trkpt lat="45.77705" lon="4.81041">
        <ele>171.80000305176</ele>
        <time>2024-05-20T14:06:04.000Z</time>
      </trkpt>
      <trkpt lat="45.777" lon="4.81039">
        <ele>171.80000305176</ele>
        <time>2024-05-20T14:06:05.000Z</time>
      </trkpt>
      <trkpt lat="45.77694" lon="4.81039">
        <ele>171.80000305176</ele>
        <time>2024-05-20T14:06:06.000Z</time>
      </trkpt>
      <trkpt lat="45.77689" lon="4.81039">
        <ele>171.80000305176</ele>
        <time>2024-05-20T14:06:07.000Z</time>
      </trkpt>
      <trkpt lat="45.77684" lon="4.81039">
        <ele>171.80000305176</ele>
        <time>2024-05-20T14:06:08.000Z</time>
      </trkpt>
      <trkpt lat="45.77679" lon="4.81037">
        <ele>171.80000305176</ele>
        <time>2024-05-20T14:06:09.000Z</time>
      </trkpt>
      <trkpt lat="45.77674" lon="4.81036">
        <ele>172</ele>
        <time>2024-05-20T14:06:10.000Z</time>
      </trkpt>
      <trkpt lat="45.77668" lon="4.81035">
        <ele>172</ele>
        <time>2024-05-20T14:06:11.000Z</time>
      </trkpt>
      <trkpt lat="45.77662" lon="4.81034">
        <ele>172</ele>
        <time>2024-05-20T14:06:12.000Z</time>
      </trkpt>
      <trkpt lat="45.77657" lon="4.81033">
        <ele>171.80000305176</ele>
        <time>2024-05-20T14:06:13.000Z</time>
      </trkpt>
      <trkpt lat="45.77653" lon="4.81032">
        <ele>171.80000305176</ele>
        <time>2024-05-20T14:06:14.000Z</time>
      </trkpt>
      <trkpt lat="45.77647" lon="4.81031">
        <ele>171.80000305176</ele>
        <time>2024-05-20T14:06:15.000Z</time>
      </trkpt>
      <trkpt lat="45.77641" lon="4.8103">
        <ele>171.80000305176</ele>
        <time>2024-05-20T14:06:16.000Z</time>
      </trkpt>
      <trkpt lat="45.77635" lon="4.81029">
        <ele>171.80000305176</ele>
        <time>2024-05-20T14:06:17.000Z</time>
      </trkpt>
      <trkpt lat="45.77629" lon="4.81029">
        <ele>172</ele>
        <time>2024-05-20T14:06:18.000Z</time>
      </trkpt>
      <trkpt lat="45.77623" lon="4.81028">
        <ele>172</ele>
        <time>2024-05-20T14:06:19.000Z</time>
      </trkpt>
      <trkpt lat="45.77617" lon="4.81028">
        <ele>172</ele>
        <time>2024-05-20T14:06:20.000Z</time>
      </trkpt>
      <trkpt lat="45.77611" lon="4.81028">
        <ele>172</ele>
        <time>2024-05-20T14:06:21.000Z</time>
      </trkpt>
      <trkpt lat="45.77604" lon="4.81027">
        <ele>172</ele>
        <time>2024-05-20T14:06:22.000Z</time>
      </trkpt>
      <trkpt lat="45.77598" lon="4.81027">
        <ele>172</ele>
        <time>2024-05-20T14:06:23.000Z</time>
      </trkpt>
      <trkpt lat="45.77593" lon="4.81028">
        <ele>172</ele>
        <time>2024-05-20T14:06:24.000Z</time>
      </trkpt>
      <trkpt lat="45.77587" lon="4.81028">
        <ele>172</ele>
        <time>2024-05-20T14:06:25.000Z</time>
      </trkpt>
      <trkpt lat="45.77581" lon="4.81028">
        <ele>172</ele>
        <time>2024-05-20T14:06:26.000Z</time>
      </trkpt>
      <trkpt lat="45.77576" lon="4.81028">
        <ele>172</ele>
        <time>2024-05-20T14:06:27.000Z</time>
      </trkpt>
      <trkpt lat="45.7757" lon="4.81028">
        <ele>172</ele>
        <time>2024-05-20T14:06:28.000Z</time>
      </trkpt>
      <trkpt lat="45.77565" lon="4.81029">
        <ele>172</ele>
        <time>2024-05-20T14:06:29.000Z</time>
      </trkpt>
      <trkpt lat="45.77559" lon="4.81029">
        <ele>172</ele>
        <time>2024-05-20T14:06:30.000Z</time>
      </trkpt>
      <trkpt lat="45.77554" lon="4.81029">
        <ele>172</ele>
        <time>2024-05-20T14:06:31.000Z</time>
      </trkpt>
      <trkpt lat="45.77548" lon="4.81029">
        <ele>172</ele>
        <time>2024-05-20T14:06:32.000Z</time>
      </trkpt>
      <trkpt lat="45.77543" lon="4.8103">
        <ele>172</ele>
        <time>2024-05-20T14:06:33.000Z</time>
      </trkpt>
      <trkpt lat="45.77537" lon="4.81031">
        <ele>172</ele>
        <time>2024-05-20T14:06:34.000Z</time>
      </trkpt>
      <trkpt lat="45.7753" lon="4.81032">
        <ele>171.80000305176</ele>
        <time>2024-05-20T14:06:35.000Z</time>
      </trkpt>
      <trkpt lat="45.77524" lon="4.81032">
        <ele>171.60000610352</ele>
        <time>2024-05-20T14:06:36.000Z</time>
      </trkpt>
      <trkpt lat="45.77517" lon="4.81034">
        <ele>171.19999694824</ele>
        <time>2024-05-20T14:06:37.000Z</time>
      </trkpt>
      <trkpt lat="45.7751" lon="4.81036">
        <ele>171</ele>
        <time>2024-05-20T14:06:38.000Z</time>
      </trkpt>
      <trkpt lat="45.77503" lon="4.81038">
        <ele>170.80000305176</ele>
        <time>2024-05-20T14:06:39.000Z</time>
      </trkpt>
      <trkpt lat="45.77497" lon="4.81041">
        <ele>170.39999389648</ele>
        <time>2024-05-20T14:06:40.000Z</time>
      </trkpt>
      <trkpt lat="45.7749" lon="4.81043">
        <ele>170.19999694824</ele>
        <time>2024-05-20T14:06:41.000Z</time>
      </trkpt>
      <trkpt lat="45.77483" lon="4.81046">
        <ele>170</ele>
        <time>2024-05-20T14:06:42.000Z</time>
      </trkpt>
      <trkpt lat="45.77477" lon="4.81049">
        <ele>170</ele>
        <time>2024-05-20T14:06:43.000Z</time>
      </trkpt>
      <trkpt lat="45.77471" lon="4.81052">
        <ele>169.80000305176</ele>
        <time>2024-05-20T14:06:44.000Z</time>
      </trkpt>
      <trkpt lat="45.77464" lon="4.81055">
        <ele>169.60000610352</ele>
        <time>2024-05-20T14:06:45.000Z</time>
      </trkpt>
      <trkpt lat="45.77457" lon="4.81059">
        <ele>169.39999389648</ele>
        <time>2024-05-20T14:06:46.000Z</time>
      </trkpt>
      <trkpt lat="45.7745" lon="4.81064">
        <ele>169.39999389648</ele>
        <time>2024-05-20T14:06:47.000Z</time>
      </trkpt>
      <trkpt lat="45.77445" lon="4.81069">
        <ele>169.39999389648</ele>
        <time>2024-05-20T14:06:48.000Z</time>
      </trkpt>
      <trkpt lat="45.77439" lon="4.81073">
        <ele>169.39999389648</ele>
        <time>2024-05-20T14:06:49.000Z</time>
      </trkpt>
      <trkpt lat="45.77434" lon="4.81077">
        <ele>169.60000610352</ele>
        <time>2024-05-20T14:06:50.000Z</time>
      </trkpt>
      <trkpt lat="45.77429" lon="4.81082">
        <ele>169.80000305176</ele>
        <time>2024-05-20T14:06:51.000Z</time>
      </trkpt>
      <trkpt lat="45.77424" lon="4.81086">
        <ele>169.80000305176</ele>
        <time>2024-05-20T14:06:52.000Z</time>
      </trkpt>
      <trkpt lat="45.77419" lon="4.8109">
        <ele>170</ele>
        <time>2024-05-20T14:06:53.000Z</time>
      </trkpt>
      <trkpt lat="45.77415" lon="4.81095">
        <ele>170.39999389648</ele>
        <time>2024-05-20T14:06:54.000Z</time>
      </trkpt>
      <trkpt lat="45.7741" lon="4.811">
        <ele>170.39999389648</ele>
        <time>2024-05-20T14:06:55.000Z</time>
      </trkpt>
      <trkpt lat="45.77407" lon="4.81105">
        <ele>170.80000305176</ele>
        <time>2024-05-20T14:06:56.000Z</time>
      </trkpt>
      <trkpt lat="45.77403" lon="4.81111">
        <ele>171</ele>
        <time>2024-05-20T14:06:57.000Z</time>
      </trkpt>
      <trkpt lat="45.77399" lon="4.81118">
        <ele>171.19999694824</ele>
        <time>2024-05-20T14:06:58.000Z</time>
      </trkpt>
      <trkpt lat="45.77395" lon="4.81125">
        <ele>171.19999694824</ele>
        <time>2024-05-20T14:06:59.000Z</time>
      </trkpt>
      <trkpt lat="45.77391" lon="4.81132">
        <ele>171.19999694824</ele>
        <time>2024-05-20T14:07:00.000Z</time>
      </trkpt>
      <trkpt lat="45.77387" lon="4.8114">
        <ele>171.19999694824</ele>
        <time>2024-05-20T14:07:01.000Z</time>
      </trkpt>
      <trkpt lat="45.77384" lon="4.81148">
        <ele>171.19999694824</ele>
        <time>2024-05-20T14:07:02.000Z</time>
      </trkpt>
      <trkpt lat="45.77381" lon="4.81155">
        <ele>171.19999694824</ele>
        <time>2024-05-20T14:07:03.000Z</time>
      </trkpt>
      <trkpt lat="45.77378" lon="4.81162">
        <ele>171.19999694824</ele>
        <time>2024-05-20T14:07:04.000Z</time>
      </trkpt>
      <trkpt lat="45.77375" lon="4.81168">
        <ele>171</ele>
        <time>2024-05-20T14:07:05.000Z</time>
      </trkpt>
      <trkpt lat="45.77372" lon="4.81174">
        <ele>170.80000305176</ele>
        <time>2024-05-20T14:07:06.000Z</time>
      </trkpt>
      <trkpt lat="45.77369" lon="4.81179">
        <ele>170.80000305176</ele>
        <time>2024-05-20T14:07:07.000Z</time>
      </trkpt>
      <trkpt lat="45.77367" lon="4.81184">
        <ele>170.80000305176</ele>
        <time>2024-05-20T14:07:08.000Z</time>
      </trkpt>
      <trkpt lat="45.77365" lon="4.81187">
        <ele>170.80000305176</ele>
        <time>2024-05-20T14:07:09.000Z</time>
      </trkpt>
      <trkpt lat="45.77363" lon="4.81191">
        <ele>170.80000305176</ele>
        <time>2024-05-20T14:07:10.000Z</time>
      </trkpt>
      <trkpt lat="45.77362" lon="4.81194">
        <ele>171.60000610352</ele>
        <time>2024-05-20T14:07:11.000Z</time>
      </trkpt>
      <trkpt lat="45.7736" lon="4.81197">
        <ele>171.80000305176</ele>
        <time>2024-05-20T14:07:12.000Z</time>
      </trkpt>
      <trkpt lat="45.77359" lon="4.81201">
        <ele>172</ele>
        <time>2024-05-20T14:07:13.000Z</time>
      </trkpt>
      <trkpt lat="45.77357" lon="4.81204">
        <ele>172</ele>
        <time>2024-05-20T14:07:14.000Z</time>
      </trkpt>
      <trkpt lat="45.77356" lon="4.81208">
        <ele>172</ele>
        <time>2024-05-20T14:07:15.000Z</time>
      </trkpt>
      <trkpt lat="45.77354" lon="4.81211">
        <ele>172</ele>
        <time>2024-05-20T14:07:16.000Z</time>
      </trkpt>
      <trkpt lat="45.77351" lon="4.81215">
        <ele>172</ele>
        <time>2024-05-20T14:07:17.000Z</time>
      </trkpt>
      <trkpt lat="45.77349" lon="4.8122">
        <ele>172</ele>
        <time>2024-05-20T14:07:18.000Z</time>
      </trkpt>
      <trkpt lat="45.77346" lon="4.81225">
        <ele>172</ele>
        <time>2024-05-20T14:07:19.000Z</time>
      </trkpt>
      <trkpt lat="45.77343" lon="4.8123">
        <ele>172</ele>
        <time>2024-05-20T14:07:20.000Z</time>
      </trkpt>
      <trkpt lat="45.7734" lon="4.81235">
        <ele>171.80000305176</ele>
        <time>2024-05-20T14:07:21.000Z</time>
      </trkpt>
      <trkpt lat="45.77337" lon="4.8124">
        <ele>171.80000305176</ele>
        <time>2024-05-20T14:07:22.000Z</time>
      </trkpt>
      <trkpt lat="45.77334" lon="4.81244">
        <ele>171.80000305176</ele>
        <time>2024-05-20T14:07:23.000Z</time>
      </trkpt>
      <trkpt lat="45.7733" lon="4.8125">
        <ele>171.80000305176</ele>
        <time>2024-05-20T14:07:24.000Z</time>
      </trkpt>
      <trkpt lat="45.77326" lon="4.81255">
        <ele>171.60000610352</ele>
        <time>2024-05-20T14:07:25.000Z</time>
      </trkpt>
      <trkpt lat="45.77321" lon="4.8126">
        <ele>171.60000610352</ele>
        <time>2024-05-20T14:07:26.000Z</time>
      </trkpt>
      <trkpt lat="45.77316" lon="4.81264">
        <ele>171.60000610352</ele>
        <time>2024-05-20T14:07:27.000Z</time>
      </trkpt>
      <trkpt lat="45.77312" lon="4.81269">
        <ele>171.60000610352</ele>
        <time>2024-05-20T14:07:28.000Z</time>
      </trkpt>
      <trkpt lat="45.77307" lon="4.81273">
        <ele>171.60000610352</ele>
        <time>2024-05-20T14:07:29.000Z</time>
      </trkpt>
      <trkpt lat="45.77302" lon="4.81277">
        <ele>171.60000610352</ele>
        <time>2024-05-20T14:07:30.000Z</time>
      </trkpt>
      <trkpt lat="45.77297" lon="4.81282">
        <ele>171.39999389648</ele>
        <time>2024-05-20T14:07:31.000Z</time>
      </trkpt>
      <trkpt lat="45.77292" lon="4.81287">
        <ele>171.39999389648</ele>
        <time>2024-05-20T14:07:32.000Z</time>
      </trkpt>
      <trkpt lat="45.77287" lon="4.81292">
        <ele>171.39999389648</ele>
        <time>2024-05-20T14:07:33.000Z</time>
      </trkpt>
      <trkpt lat="45.77282" lon="4.81297">
        <ele>171.19999694824</ele>
        <time>2024-05-20T14:07:34.000Z</time>
      </trkpt>
      <trkpt lat="45.77277" lon="4.81301">
        <ele>171</ele>
        <time>2024-05-20T14:07:35.000Z</time>
      </trkpt>
      <trkpt lat="45.77272" lon="4.81305">
        <ele>171</ele>
        <time>2024-05-20T14:07:36.000Z</time>
      </trkpt>
      <trkpt lat="45.77266" lon="4.8131">
        <ele>171</ele>
        <time>2024-05-20T14:07:37.000Z</time>
      </trkpt>
      <trkpt lat="45.77261" lon="4.81315">
        <ele>170.80000305176</ele>
        <time>2024-05-20T14:07:38.000Z</time>
      </trkpt>
      <trkpt lat="45.77255" lon="4.8132">
        <ele>170.80000305176</ele>
        <time>2024-05-20T14:07:39.000Z</time>
      </trkpt>
      <trkpt lat="45.7725" lon="4.81324">
        <ele>170.80000305176</ele>
        <time>2024-05-20T14:07:40.000Z</time>
      </trkpt>
      <trkpt lat="45.77244" lon="4.81328">
        <ele>170.80000305176</ele>
        <time>2024-05-20T14:07:41.000Z</time>
      </trkpt>
      <trkpt lat="45.77238" lon="4.81333">
        <ele>170.80000305176</ele>
        <time>2024-05-20T14:07:42.000Z</time>
      </trkpt>
      <trkpt lat="45.77232" lon="4.81336">
        <ele>170.80000305176</ele>
        <time>2024-05-20T14:07:43.000Z</time>
      </trkpt>
      <trkpt lat="45.77227" lon="4.81338">
        <ele>171</ele>
        <time>2024-05-20T14:07:44.000Z</time>
      </trkpt>
      <trkpt lat="45.77221" lon="4.81341">
        <ele>171</ele>
        <time>2024-05-20T14:07:45.000Z</time>
      </trkpt>
      <trkpt lat="45.77216" lon="4.81344">
        <ele>171</ele>
        <time>2024-05-20T14:07:46.000Z</time>
      </trkpt>
      <trkpt lat="45.77211" lon="4.81347">
        <ele>171</ele>
        <time>2024-05-20T14:07:47.000Z</time>
      </trkpt>
      <trkpt lat="45.77205" lon="4.81348">
        <ele>171</ele>
        <time>2024-05-20T14:07:48.000Z</time>
      </trkpt>
      <trkpt lat="45.77199" lon="4.8135">
        <ele>171</ele>
        <time>2024-05-20T14:07:49.000Z</time>
      </trkpt>
      <trkpt lat="45.77194" lon="4.81353">
        <ele>171</ele>
        <time>2024-05-20T14:07:50.000Z</time>
      </trkpt>
      <trkpt lat="45.77188" lon="4.81356">
        <ele>171</ele>
        <time>2024-05-20T14:07:51.000Z</time>
      </trkpt>
      <trkpt lat="45.77183" lon="4.81359">
        <ele>171</ele>
        <time>2024-05-20T14:07:52.000Z</time>
      </trkpt>
      <trkpt lat="45.77178" lon="4.81363">
        <ele>171</ele>
        <time>2024-05-20T14:07:53.000Z</time>
      </trkpt>
      <trkpt lat="45.77172" lon="4.81366">
        <ele>171.19999694824</ele>
        <time>2024-05-20T14:07:54.000Z</time>
      </trkpt>
      <trkpt lat="45.77167" lon="4.81369">
        <ele>171.19999694824</ele>
        <time>2024-05-20T14:07:55.000Z</time>
      </trkpt>
      <trkpt lat="45.77161" lon="4.81372">
        <ele>171.19999694824</ele>
        <time>2024-05-20T14:07:56.000Z</time>
      </trkpt>
      <trkpt lat="45.77156" lon="4.81374">
        <ele>171.19999694824</ele>
        <time>2024-05-20T14:07:57.000Z</time>
      </trkpt>
      <trkpt lat="45.7715" lon="4.81377">
        <ele>171</ele>
        <time>2024-05-20T14:07:58.000Z</time>
      </trkpt>
      <trkpt lat="45.77144" lon="4.81379">
        <ele>171.19999694824</ele>
        <time>2024-05-20T14:07:59.000Z</time>
      </trkpt>
      <trkpt lat="45.77138" lon="4.8138">
        <ele>171.19999694824</ele>
        <time>2024-05-20T14:08:00.000Z</time>
      </trkpt>
      <trkpt lat="45.77132" lon="4.81382">
        <ele>171.19999694824</ele>
        <time>2024-05-20T14:08:01.000Z</time>
      </trkpt>
      <trkpt lat="45.77127" lon="4.81384">
        <ele>171.19999694824</ele>
        <time>2024-05-20T14:08:02.000Z</time>
      </trkpt>
      <trkpt lat="45.77121" lon="4.81386">
        <ele>171.19999694824</ele>
        <time>2024-05-20T14:08:03.000Z</time>
      </trkpt>
      <trkpt lat="45.77115" lon="4.81387">
        <ele>171.39999389648</ele>
        <time>2024-05-20T14:08:04.000Z</time>
      </trkpt>
      <trkpt lat="45.77109" lon="4.81389">
        <ele>171.60000610352</ele>
        <time>2024-05-20T14:08:05.000Z</time>
      </trkpt>
      <trkpt lat="45.77104" lon="4.81391">
        <ele>171.60000610352</ele>
        <time>2024-05-20T14:08:06.000Z</time>
      </trkpt>
      <trkpt lat="45.77099" lon="4.81394">
        <ele>171.80000305176</ele>
        <time>2024-05-20T14:08:07.000Z</time>
      </trkpt>
      <trkpt lat="45.77094" lon="4.81396">
        <ele>172</ele>
        <time>2024-05-20T14:08:08.000Z</time>
      </trkpt>
      <trkpt lat="45.77088" lon="4.81398">
        <ele>172</ele>
        <time>2024-05-20T14:08:09.000Z</time>
      </trkpt>
      <trkpt lat="45.77083" lon="4.81399">
        <ele>172.19999694824</ele>
        <time>2024-05-20T14:08:10.000Z</time>
      </trkpt>
      <trkpt lat="45.77077" lon="4.814">
        <ele>172.19999694824</ele>
        <time>2024-05-20T14:08:11.000Z</time>
      </trkpt>
      <trkpt lat="45.77072" lon="4.81401">
        <ele>172.39999389648</ele>
        <time>2024-05-20T14:08:12.000Z</time>
      </trkpt>
      <trkpt lat="45.77068" lon="4.81402">
        <ele>172.60000610352</ele>
        <time>2024-05-20T14:08:13.000Z</time>
      </trkpt>
      <trkpt lat="45.77063" lon="4.81403">
        <ele>172.60000610352</ele>
        <time>2024-05-20T14:08:14.000Z</time>
      </trkpt>
      <trkpt lat="45.7706" lon="4.81405">
        <ele>172.80000305176</ele>
        <time>2024-05-20T14:08:15.000Z</time>
      </trkpt>
      <trkpt lat="45.77057" lon="4.81406">
        <ele>173</ele>
        <time>2024-05-20T14:08:16.000Z</time>
      </trkpt>
      <trkpt lat="45.77054" lon="4.81406">
        <ele>173.19999694824</ele>
        <time>2024-05-20T14:08:17.000Z</time>
      </trkpt>
      <trkpt lat="45.77053" lon="4.81407">
        <ele>173.39999389648</ele>
        <time>2024-05-20T14:08:18.000Z</time>
      </trkpt>
      <trkpt lat="45.77053" lon="4.81408">
        <ele>173.60000610352</ele>
        <time>2024-05-20T14:08:19.000Z</time>
      </trkpt>
      <trkpt lat="45.77053" lon="4.81408">
        <ele>173.80000305176</ele>
        <time>2024-05-20T14:08:20.000Z</time>
      </trkpt>
      <trkpt lat="45.77049" lon="4.81409">
        <ele>174.39999389648</ele>
        <time>2024-05-20T14:08:54.000Z</time>
      </trkpt>
      <trkpt lat="45.77047" lon="4.81409">
        <ele>174.19999694824</ele>
        <time>2024-05-20T14:08:55.000Z</time>
      </trkpt>
      <trkpt lat="45.77044" lon="4.8141">
        <ele>174.19999694824</ele>
        <time>2024-05-20T14:08:56.000Z</time>
      </trkpt>
      <trkpt lat="45.77041" lon="4.81411">
        <ele>174.19999694824</ele>
        <time>2024-05-20T14:08:57.000Z</time>
      </trkpt>
      <trkpt lat="45.77037" lon="4.81412">
        <ele>174</ele>
        <time>2024-05-20T14:08:58.000Z</time>
      </trkpt>
      <trkpt lat="45.77032" lon="4.81413">
        <ele>174</ele>
        <time>2024-05-20T14:08:59.000Z</time>
      </trkpt>
      <trkpt lat="45.77028" lon="4.81414">
        <ele>173.80000305176</ele>
        <time>2024-05-20T14:09:00.000Z</time>
      </trkpt>
      <trkpt lat="45.77023" lon="4.81415">
        <ele>173.80000305176</ele>
        <time>2024-05-20T14:09:01.000Z</time>
      </trkpt>
      <trkpt lat="45.77018" lon="4.81417">
        <ele>173.80000305176</ele>
        <time>2024-05-20T14:09:02.000Z</time>
      </trkpt>
      <trkpt lat="45.77013" lon="4.81418">
        <ele>174</ele>
        <time>2024-05-20T14:09:03.000Z</time>
      </trkpt>
      <trkpt lat="45.77008" lon="4.8142">
        <ele>174</ele>
        <time>2024-05-20T14:09:04.000Z</time>
      </trkpt>
      <trkpt lat="45.77003" lon="4.81422">
        <ele>174.19999694824</ele>
        <time>2024-05-20T14:09:05.000Z</time>
      </trkpt>
      <trkpt lat="45.76998" lon="4.81425">
        <ele>174.39999389648</ele>
        <time>2024-05-20T14:09:06.000Z</time>
      </trkpt>
      <trkpt lat="45.76994" lon="4.81427">
        <ele>174.39999389648</ele>
        <time>2024-05-20T14:09:07.000Z</time>
      </trkpt>
      <trkpt lat="45.76987" lon="4.8143">
        <ele>174.39999389648</ele>
        <time>2024-05-20T14:09:08.000Z</time>
      </trkpt>
      <trkpt lat="45.76982" lon="4.81433">
        <ele>174.39999389648</ele>
        <time>2024-05-20T14:09:09.000Z</time>
      </trkpt>
      <trkpt lat="45.76977" lon="4.81436">
        <ele>174.39999389648</ele>
        <time>2024-05-20T14:09:10.000Z</time>
      </trkpt>
      <trkpt lat="45.76972" lon="4.81439">
        <ele>174.39999389648</ele>
        <time>2024-05-20T14:09:11.000Z</time>
      </trkpt>
      <trkpt lat="45.76966" lon="4.81442">
        <ele>174.19999694824</ele>
        <time>2024-05-20T14:09:12.000Z</time>
      </trkpt>
      <trkpt lat="45.7696" lon="4.81446">
        <ele>174</ele>
        <time>2024-05-20T14:09:13.000Z</time>
      </trkpt>
      <trkpt lat="45.76954" lon="4.81449">
        <ele>173.60000610352</ele>
        <time>2024-05-20T14:09:14.000Z</time>
      </trkpt>
      <trkpt lat="45.76948" lon="4.81452">
        <ele>173.39999389648</ele>
        <time>2024-05-20T14:09:15.000Z</time>
      </trkpt>
      <trkpt lat="45.76942" lon="4.81456">
        <ele>173.19999694824</ele>
        <time>2024-05-20T14:09:16.000Z</time>
      </trkpt>
      <trkpt lat="45.76935" lon="4.81459">
        <ele>173.19999694824</ele>
        <time>2024-05-20T14:09:17.000Z</time>
      </trkpt>
      <trkpt lat="45.76929" lon="4.81463">
        <ele>173</ele>
        <time>2024-05-20T14:09:18.000Z</time>
      </trkpt>
      <trkpt lat="45.76923" lon="4.81466">
        <ele>172.80000305176</ele>
        <time>2024-05-20T14:09:19.000Z</time>
      </trkpt>
      <trkpt lat="45.76917" lon="4.8147">
        <ele>172.80000305176</ele>
        <time>2024-05-20T14:09:20.000Z</time>
      </trkpt>
      <trkpt lat="45.76911" lon="4.81474">
        <ele>172.80000305176</ele>
        <time>2024-05-20T14:09:21.000Z</time>
      </trkpt>
      <trkpt lat="45.76905" lon="4.81477">
        <ele>172.80000305176</ele>
        <time>2024-05-20T14:09:22.000Z</time>
      </trkpt>
      <trkpt lat="45.76899" lon="4.81481">
        <ele>172.60000610352</ele>
        <time>2024-05-20T14:09:23.000Z</time>
      </trkpt>
      <trkpt lat="45.76892" lon="4.81485">
        <ele>172.60000610352</ele>
        <time>2024-05-20T14:09:24.000Z</time>
      </trkpt>
      <trkpt lat="45.76886" lon="4.81489">
        <ele>172.60000610352</ele>
        <time>2024-05-20T14:09:25.000Z</time>
      </trkpt>
      <trkpt lat="45.7688" lon="4.81494">
        <ele>172.60000610352</ele>
        <time>2024-05-20T14:09:26.000Z</time>
      </trkpt>
      <trkpt lat="45.76874" lon="4.81498">
        <ele>172.60000610352</ele>
        <time>2024-05-20T14:09:27.000Z</time>
      </trkpt>
      <trkpt lat="45.76868" lon="4.81503">
        <ele>172.60000610352</ele>
        <time>2024-05-20T14:09:28.000Z</time>
      </trkpt>
      <trkpt lat="45.76863" lon="4.81508">
        <ele>172.60000610352</ele>
        <time>2024-05-20T14:09:29.000Z</time>
      </trkpt>
      <trkpt lat="45.76857" lon="4.81514">
        <ele>172.60000610352</ele>
        <time>2024-05-20T14:09:30.000Z</time>
      </trkpt>
      <trkpt lat="45.76852" lon="4.8152">
        <ele>172.60000610352</ele>
        <time>2024-05-20T14:09:31.000Z</time>
      </trkpt>
      <trkpt lat="45.76847" lon="4.81527">
        <ele>172.60000610352</ele>
        <time>2024-05-20T14:09:32.000Z</time>
      </trkpt>
      <trkpt lat="45.76842" lon="4.81534">
        <ele>172.39999389648</ele>
        <time>2024-05-20T14:09:33.000Z</time>
      </trkpt>
      <trkpt lat="45.76838" lon="4.81541">
        <ele>172.19999694824</ele>
        <time>2024-05-20T14:09:34.000Z</time>
      </trkpt>
      <trkpt lat="45.76833" lon="4.81548">
        <ele>172</ele>
        <time>2024-05-20T14:09:35.000Z</time>
      </trkpt>
      <trkpt lat="45.76829" lon="4.81556">
        <ele>172</ele>
        <time>2024-05-20T14:09:36.000Z</time>
      </trkpt>
      <trkpt lat="45.76825" lon="4.81564">
        <ele>172</ele>
        <time>2024-05-20T14:09:37.000Z</time>
      </trkpt>
      <trkpt lat="45.76821" lon="4.81571">
        <ele>172</ele>
        <time>2024-05-20T14:09:38.000Z</time>
      </trkpt>
      <trkpt lat="45.76817" lon="4.81579">
        <ele>172</ele>
        <time>2024-05-20T14:09:39.000Z</time>
      </trkpt>
      <trkpt lat="45.76813" lon="4.81587">
        <ele>172</ele>
        <time>2024-05-20T14:09:40.000Z</time>
      </trkpt>
      <trkpt lat="45.76809" lon="4.81595">
        <ele>172</ele>
        <time>2024-05-20T14:09:41.000Z</time>
      </trkpt>
      <trkpt lat="45.76805" lon="4.81602">
        <ele>171.80000305176</ele>
        <time>2024-05-20T14:09:42.000Z</time>
      </trkpt>
      <trkpt lat="45.76802" lon="4.8161">
        <ele>171.80000305176</ele>
        <time>2024-05-20T14:09:43.000Z</time>
      </trkpt>
      <trkpt lat="45.76799" lon="4.81619">
        <ele>171.80000305176</ele>
        <time>2024-05-20T14:09:44.000Z</time>
      </trkpt>
      <trkpt lat="45.76796" lon="4.81627">
        <ele>171.60000610352</ele>
        <time>2024-05-20T14:09:45.000Z</time>
      </trkpt>
      <trkpt lat="45.76794" lon="4.81636">
        <ele>171.39999389648</ele>
        <time>2024-05-20T14:09:46.000Z</time>
      </trkpt>
      <trkpt lat="45.76792" lon="4.81643">
        <ele>171.39999389648</ele>
        <time>2024-05-20T14:09:47.000Z</time>
      </trkpt>
      <trkpt lat="45.7679" lon="4.81652">
        <ele>171.39999389648</ele>
        <time>2024-05-20T14:09:48.000Z</time>
      </trkpt>
      <trkpt lat="45.76787" lon="4.81663">
        <ele>171.39999389648</ele>
        <time>2024-05-20T14:09:49.000Z</time>
      </trkpt>
      <trkpt lat="45.76785" lon="4.81671">
        <ele>171.39999389648</ele>
        <time>2024-05-20T14:09:50.000Z</time>
      </trkpt>
      <trkpt lat="45.76783" lon="4.8168">
        <ele>171.39999389648</ele>
        <time>2024-05-20T14:09:51.000Z</time>
      </trkpt>
      <trkpt lat="45.76781" lon="4.81689">
        <ele>171.39999389648</ele>
        <time>2024-05-20T14:09:52.000Z</time>
      </trkpt>
      <trkpt lat="45.76779" lon="4.81696">
        <ele>171.39999389648</ele>
        <time>2024-05-20T14:09:53.000Z</time>
      </trkpt>
      <trkpt lat="45.76776" lon="4.81707">
        <ele>171.39999389648</ele>
        <time>2024-05-20T14:09:54.000Z</time>
      </trkpt>
      <trkpt lat="45.76774" lon="4.81716">
        <ele>171.39999389648</ele>
        <time>2024-05-20T14:09:55.000Z</time>
      </trkpt>
      <trkpt lat="45.76772" lon="4.81725">
        <ele>171.39999389648</ele>
        <time>2024-05-20T14:09:56.000Z</time>
      </trkpt>
      <trkpt lat="45.7677" lon="4.81734">
        <ele>171.39999389648</ele>
        <time>2024-05-20T14:09:57.000Z</time>
      </trkpt>
      <trkpt lat="45.76768" lon="4.81743">
        <ele>171.60000610352</ele>
        <time>2024-05-20T14:09:58.000Z</time>
      </trkpt>
      <trkpt lat="45.76767" lon="4.81752">
        <ele>171.60000610352</ele>
        <time>2024-05-20T14:09:59.000Z</time>
      </trkpt>
      <trkpt lat="45.76766" lon="4.81761">
        <ele>171.60000610352</ele>
        <time>2024-05-20T14:10:00.000Z</time>
      </trkpt>
      <trkpt lat="45.76764" lon="4.8177">
        <ele>171.60000610352</ele>
        <time>2024-05-20T14:10:01.000Z</time>
      </trkpt>
      <trkpt lat="45.76763" lon="4.81779">
        <ele>171.39999389648</ele>
        <time>2024-05-20T14:10:02.000Z</time>
      </trkpt>
      <trkpt lat="45.76762" lon="4.81788">
        <ele>171</ele>
        <time>2024-05-20T14:10:03.000Z</time>
      </trkpt>
      <trkpt lat="45.7676" lon="4.81796">
        <ele>170.80000305176</ele>
        <time>2024-05-20T14:10:04.000Z</time>
      </trkpt>
      <trkpt lat="45.76759" lon="4.81805">
        <ele>170.80000305176</ele>
        <time>2024-05-20T14:10:05.000Z</time>
      </trkpt>
      <trkpt lat="45.76758" lon="4.81814">
        <ele>170.80000305176</ele>
        <time>2024-05-20T14:10:06.000Z</time>
      </trkpt>
      <trkpt lat="45.76756" lon="4.81822">
        <ele>170.80000305176</ele>
        <time>2024-05-20T14:10:07.000Z</time>
      </trkpt>
      <trkpt lat="45.76755" lon="4.81831">
        <ele>170.80000305176</ele>
        <time>2024-05-20T14:10:08.000Z</time>
      </trkpt>
      <trkpt lat="45.76754" lon="4.81839">
        <ele>170.80000305176</ele>
        <time>2024-05-20T14:10:09.000Z</time>
      </trkpt>
      <trkpt lat="45.76754" lon="4.81848">
        <ele>171</ele>
        <time>2024-05-20T14:10:10.000Z</time>
      </trkpt>
      <trkpt lat="45.76754" lon="4.81857">
        <ele>171.39999389648</ele>
        <time>2024-05-20T14:10:11.000Z</time>
      </trkpt>
      <trkpt lat="45.76754" lon="4.81865">
        <ele>171.39999389648</ele>
        <time>2024-05-20T14:10:12.000Z</time>
      </trkpt>
      <trkpt lat="45.76754" lon="4.81874">
        <ele>171.60000610352</ele>
        <time>2024-05-20T14:10:13.000Z</time>
      </trkpt>
      <trkpt lat="45.76755" lon="4.81883">
        <ele>171.60000610352</ele>
        <time>2024-05-20T14:10:14.000Z</time>
      </trkpt>
      <trkpt lat="45.76756" lon="4.81892">
        <ele>171.60000610352</ele>
        <time>2024-05-20T14:10:15.000Z</time>
      </trkpt>
      <trkpt lat="45.76757" lon="4.81901">
        <ele>172</ele>
        <time>2024-05-20T14:10:16.000Z</time>
      </trkpt>
      <trkpt lat="45.76759" lon="4.8191">
        <ele>172</ele>
        <time>2024-05-20T14:10:17.000Z</time>
      </trkpt>
      <trkpt lat="45.7676" lon="4.81919">
        <ele>172.19999694824</ele>
        <time>2024-05-20T14:10:18.000Z</time>
      </trkpt>
      <trkpt lat="45.76762" lon="4.81928">
        <ele>172.19999694824</ele>
        <time>2024-05-20T14:10:19.000Z</time>
      </trkpt>
      <trkpt lat="45.76763" lon="4.81937">
        <ele>172.19999694824</ele>
        <time>2024-05-20T14:10:20.000Z</time>
      </trkpt>
      <trkpt lat="45.76765" lon="4.81946">
        <ele>172.19999694824</ele>
        <time>2024-05-20T14:10:21.000Z</time>
      </trkpt>
      <trkpt lat="45.76766" lon="4.81955">
        <ele>172.19999694824</ele>
        <time>2024-05-20T14:10:22.000Z</time>
      </trkpt>
      <trkpt lat="45.76768" lon="4.81964">
        <ele>172.19999694824</ele>
        <time>2024-05-20T14:10:23.000Z</time>
      </trkpt>
      <trkpt lat="45.76769" lon="4.81973">
        <ele>172.39999389648</ele>
        <time>2024-05-20T14:10:24.000Z</time>
      </trkpt>
      <trkpt lat="45.7677" lon="4.81981">
        <ele>172.60000610352</ele>
        <time>2024-05-20T14:10:25.000Z</time>
      </trkpt>
      <trkpt lat="45.76772" lon="4.8199">
        <ele>172.60000610352</ele>
        <time>2024-05-20T14:10:26.000Z</time>
      </trkpt>
      <trkpt lat="45.76773" lon="4.81998">
        <ele>172.60000610352</ele>
        <time>2024-05-20T14:10:27.000Z</time>
      </trkpt>
      <trkpt lat="45.76775" lon="4.82006">
        <ele>172.80000305176</ele>
        <time>2024-05-20T14:10:28.000Z</time>
      </trkpt>
      <trkpt lat="45.76776" lon="4.82014">
        <ele>173</ele>
        <time>2024-05-20T14:10:29.000Z</time>
      </trkpt>
      <trkpt lat="45.76778" lon="4.82022">
        <ele>173.19999694824</ele>
        <time>2024-05-20T14:10:30.000Z</time>
      </trkpt>
      <trkpt lat="45.76779" lon="4.8203">
        <ele>173.19999694824</ele>
        <time>2024-05-20T14:10:31.000Z</time>
      </trkpt>
      <trkpt lat="45.7678" lon="4.82038">
        <ele>173.39999389648</ele>
        <time>2024-05-20T14:10:32.000Z</time>
      </trkpt>
      <trkpt lat="45.76781" lon="4.82047">
        <ele>173.39999389648</ele>
        <time>2024-05-20T14:10:33.000Z</time>
      </trkpt>
      <trkpt lat="45.76783" lon="4.82055">
        <ele>173.39999389648</ele>
        <time>2024-05-20T14:10:34.000Z</time>
      </trkpt>
      <trkpt lat="45.76785" lon="4.82064">
        <ele>173.39999389648</ele>
        <time>2024-05-20T14:10:35.000Z</time>
      </trkpt>
      <trkpt lat="45.76786" lon="4.82073">
        <ele>173.39999389648</ele>
        <time>2024-05-20T14:10:36.000Z</time>
      </trkpt>
      <trkpt lat="45.76787" lon="4.82082">
        <ele>172.80000305176</ele>
        <time>2024-05-20T14:10:37.000Z</time>
      </trkpt>
      <trkpt lat="45.76789" lon="4.82092">
        <ele>172.80000305176</ele>
        <time>2024-05-20T14:10:38.000Z</time>
      </trkpt>
      <trkpt lat="45.76791" lon="4.82102">
        <ele>172.80000305176</ele>
        <time>2024-05-20T14:10:39.000Z</time>
      </trkpt>
      <trkpt lat="45.76793" lon="4.82111">
        <ele>172.19999694824</ele>
        <time>2024-05-20T14:10:40.000Z</time>
      </trkpt>
      <trkpt lat="45.76795" lon="4.82121">
        <ele>172</ele>
        <time>2024-05-20T14:10:41.000Z</time>
      </trkpt>
      <trkpt lat="45.76797" lon="4.8213">
        <ele>171.80000305176</ele>
        <time>2024-05-20T14:10:42.000Z</time>
      </trkpt>
      <trkpt lat="45.768" lon="4.82139">
        <ele>171.80000305176</ele>
        <time>2024-05-20T14:10:43.000Z</time>
      </trkpt>
      <trkpt lat="45.76802" lon="4.82148">
        <ele>171.80000305176</ele>
        <time>2024-05-20T14:10:44.000Z</time>
      </trkpt>
      <trkpt lat="45.76804" lon="4.82157">
        <ele>171.80000305176</ele>
        <time>2024-05-20T14:10:45.000Z</time>
      </trkpt>
      <trkpt lat="45.76807" lon="4.82166">
        <ele>171.80000305176</ele>
        <time>2024-05-20T14:10:46.000Z</time>
      </trkpt>
      <trkpt lat="45.76809" lon="4.82175">
        <ele>171.80000305176</ele>
        <time>2024-05-20T14:10:47.000Z</time>
      </trkpt>
      <trkpt lat="45.76811" lon="4.82183">
        <ele>171.80000305176</ele>
        <time>2024-05-20T14:10:48.000Z</time>
      </trkpt>
      <trkpt lat="45.76813" lon="4.82192">
        <ele>172</ele>
        <time>2024-05-20T14:10:49.000Z</time>
      </trkpt>
      <trkpt lat="45.76815" lon="4.82201">
        <ele>172</ele>
        <time>2024-05-20T14:10:50.000Z</time>
      </trkpt>
      <trkpt lat="45.76817" lon="4.82211">
        <ele>172</ele>
        <time>2024-05-20T14:10:51.000Z</time>
      </trkpt>
      <trkpt lat="45.76818" lon="4.8222">
        <ele>172</ele>
        <time>2024-05-20T14:10:52.000Z</time>
      </trkpt>
      <trkpt lat="45.7682" lon="4.8223">
        <ele>172</ele>
        <time>2024-05-20T14:10:53.000Z</time>
      </trkpt>
      <trkpt lat="45.76821" lon="4.82239">
        <ele>172</ele>
        <time>2024-05-20T14:10:54.000Z</time>
      </trkpt>
      <trkpt lat="45.76822" lon="4.82248">
        <ele>172</ele>
        <time>2024-05-20T14:10:55.000Z</time>
      </trkpt>
      <trkpt lat="45.76823" lon="4.82258">
        <ele>172</ele>
        <time>2024-05-20T14:10:56.000Z</time>
      </trkpt>
      <trkpt lat="45.76824" lon="4.82268">
        <ele>172</ele>
        <time>2024-05-20T14:10:57.000Z</time>
      </trkpt>
      <trkpt lat="45.76825" lon="4.82277">
        <ele>172</ele>
        <time>2024-05-20T14:10:58.000Z</time>
      </trkpt>
      <trkpt lat="45.76826" lon="4.82287">
        <ele>172</ele>
        <time>2024-05-20T14:10:59.000Z</time>
      </trkpt>
      <trkpt lat="45.76827" lon="4.82297">
        <ele>172</ele>
        <time>2024-05-20T14:11:00.000Z</time>
      </trkpt>
      <trkpt lat="45.76828" lon="4.82306">
        <ele>172</ele>
        <time>2024-05-20T14:11:01.000Z</time>
      </trkpt>
      <trkpt lat="45.76828" lon="4.82316">
        <ele>172</ele>
        <time>2024-05-20T14:11:02.000Z</time>
      </trkpt>
      <trkpt lat="45.76828" lon="4.82326">
        <ele>172</ele>
        <time>2024-05-20T14:11:03.000Z</time>
      </trkpt>
      <trkpt lat="45.76829" lon="4.82335">
        <ele>171.80000305176</ele>
        <time>2024-05-20T14:11:04.000Z</time>
      </trkpt>
      <trkpt lat="45.76829" lon="4.82344">
        <ele>171.80000305176</ele>
        <time>2024-05-20T14:11:05.000Z</time>
      </trkpt>
      <trkpt lat="45.7683" lon="4.82353">
        <ele>171.80000305176</ele>
        <time>2024-05-20T14:11:06.000Z</time>
      </trkpt>
      <trkpt lat="45.7683" lon="4.82362">
        <ele>171.80000305176</ele>
        <time>2024-05-20T14:11:07.000Z</time>
      </trkpt>
      <trkpt lat="45.7683" lon="4.82371">
        <ele>171.80000305176</ele>
        <time>2024-05-20T14:11:08.000Z</time>
      </trkpt>
      <trkpt lat="45.76831" lon="4.8238">
        <ele>171.60000610352</ele>
        <time>2024-05-20T14:11:09.000Z</time>
      </trkpt>
      <trkpt lat="45.76831" lon="4.82388">
        <ele>171.60000610352</ele>
        <time>2024-05-20T14:11:10.000Z</time>
      </trkpt>
      <trkpt lat="45.76832" lon="4.82397">
        <ele>171.60000610352</ele>
        <time>2024-05-20T14:11:11.000Z</time>
      </trkpt>
      <trkpt lat="45.76832" lon="4.82406">
        <ele>171.60000610352</ele>
        <time>2024-05-20T14:11:12.000Z</time>
      </trkpt>
      <trkpt lat="45.76832" lon="4.82414">
        <ele>171.60000610352</ele>
        <time>2024-05-20T14:11:13.000Z</time>
      </trkpt>
      <trkpt lat="45.76833" lon="4.82423">
        <ele>171.60000610352</ele>
        <time>2024-05-20T14:11:14.000Z</time>
      </trkpt>
      <trkpt lat="45.76833" lon="4.82431">
        <ele>171.60000610352</ele>
        <time>2024-05-20T14:11:15.000Z</time>
      </trkpt>
      <trkpt lat="45.76834" lon="4.82439">
        <ele>171.60000610352</ele>
        <time>2024-05-20T14:11:16.000Z</time>
      </trkpt>
      <trkpt lat="45.76834" lon="4.82446">
        <ele>171.60000610352</ele>
        <time>2024-05-20T14:11:17.000Z</time>
      </trkpt>
      <trkpt lat="45.76834" lon="4.82453">
        <ele>171.60000610352</ele>
        <time>2024-05-20T14:11:18.000Z</time>
      </trkpt>
      <trkpt lat="45.76835" lon="4.82459">
        <ele>171.80000305176</ele>
        <time>2024-05-20T14:11:19.000Z</time>
      </trkpt>
      <trkpt lat="45.76835" lon="4.82464">
        <ele>171.80000305176</ele>
        <time>2024-05-20T14:11:20.000Z</time>
      </trkpt>
      <trkpt lat="45.76835" lon="4.82468">
        <ele>172.19999694824</ele>
        <time>2024-05-20T14:11:21.000Z</time>
      </trkpt>
      <trkpt lat="45.76835" lon="4.82472">
        <ele>172.19999694824</ele>
        <time>2024-05-20T14:11:22.000Z</time>
      </trkpt>
      <trkpt lat="45.76835" lon="4.82475">
        <ele>172.39999389648</ele>
        <time>2024-05-20T14:11:23.000Z</time>
      </trkpt>
      <trkpt lat="45.76836" lon="4.82479">
        <ele>172.39999389648</ele>
        <time>2024-05-20T14:11:24.000Z</time>
      </trkpt>
      <trkpt lat="45.76837" lon="4.82482">
        <ele>172.39999389648</ele>
        <time>2024-05-20T14:11:25.000Z</time>
      </trkpt>
      <trkpt lat="45.76837" lon="4.82486">
        <ele>172.39999389648</ele>
        <time>2024-05-20T14:11:26.000Z</time>
      </trkpt>
      <trkpt lat="45.76837" lon="4.82491">
        <ele>172.39999389648</ele>
        <time>2024-05-20T14:11:27.000Z</time>
      </trkpt>
      <trkpt lat="45.76838" lon="4.82496">
        <ele>172.39999389648</ele>
        <time>2024-05-20T14:11:28.000Z</time>
      </trkpt>
      <trkpt lat="45.76838" lon="4.82501">
        <ele>172.39999389648</ele>
        <time>2024-05-20T14:11:29.000Z</time>
      </trkpt>
      <trkpt lat="45.76839" lon="4.82508">
        <ele>172.39999389648</ele>
        <time>2024-05-20T14:11:30.000Z</time>
      </trkpt>
      <trkpt lat="45.76839" lon="4.82515">
        <ele>172.19999694824</ele>
        <time>2024-05-20T14:11:31.000Z</time>
      </trkpt>
      <trkpt lat="45.7684" lon="4.82522">
        <ele>172</ele>
        <time>2024-05-20T14:11:32.000Z</time>
      </trkpt>
      <trkpt lat="45.7684" lon="4.8253">
        <ele>171.80000305176</ele>
        <time>2024-05-20T14:11:33.000Z</time>
      </trkpt>
      <trkpt lat="45.76841" lon="4.82537">
        <ele>171.60000610352</ele>
        <time>2024-05-20T14:11:34.000Z</time>
      </trkpt>
      <trkpt lat="45.76841" lon="4.82545">
        <ele>171.60000610352</ele>
        <time>2024-05-20T14:11:35.000Z</time>
      </trkpt>
      <trkpt lat="45.76841" lon="4.82553">
        <ele>171.60000610352</ele>
        <time>2024-05-20T14:11:36.000Z</time>
      </trkpt>
      <trkpt lat="45.76842" lon="4.8256">
        <ele>171.60000610352</ele>
        <time>2024-05-20T14:11:37.000Z</time>
      </trkpt>
      <trkpt lat="45.76842" lon="4.82567">
        <ele>171.60000610352</ele>
        <time>2024-05-20T14:11:38.000Z</time>
      </trkpt>
      <trkpt lat="45.76843" lon="4.82574">
        <ele>171.60000610352</ele>
        <time>2024-05-20T14:11:39.000Z</time>
      </trkpt>
      <trkpt lat="45.76843" lon="4.82582">
        <ele>171.60000610352</ele>
        <time>2024-05-20T14:11:40.000Z</time>
      </trkpt>
      <trkpt lat="45.76843" lon="4.82589">
        <ele>171.39999389648</ele>
        <time>2024-05-20T14:11:41.000Z</time>
      </trkpt>
      <trkpt lat="45.76843" lon="4.82596">
        <ele>171.39999389648</ele>
        <time>2024-05-20T14:11:42.000Z</time>
      </trkpt>
      <trkpt lat="45.76842" lon="4.82604">
        <ele>171.19999694824</ele>
        <time>2024-05-20T14:11:43.000Z</time>
      </trkpt>
      <trkpt lat="45.76842" lon="4.82611">
        <ele>171.19999694824</ele>
        <time>2024-05-20T14:11:44.000Z</time>
      </trkpt>
      <trkpt lat="45.76841" lon="4.82618">
        <ele>171</ele>
        <time>2024-05-20T14:11:45.000Z</time>
      </trkpt>
      <trkpt lat="45.7684" lon="4.82625">
        <ele>170.80000305176</ele>
        <time>2024-05-20T14:11:46.000Z</time>
      </trkpt>
      <trkpt lat="45.76839" lon="4.82632">
        <ele>170.80000305176</ele>
        <time>2024-05-20T14:11:47.000Z</time>
      </trkpt>
      <trkpt lat="45.76837" lon="4.82639">
        <ele>170.80000305176</ele>
        <time>2024-05-20T14:11:48.000Z</time>
      </trkpt>
      <trkpt lat="45.76836" lon="4.82645">
        <ele>170.80000305176</ele>
        <time>2024-05-20T14:11:49.000Z</time>
      </trkpt>
      <trkpt lat="45.76835" lon="4.82652">
        <ele>170.80000305176</ele>
        <time>2024-05-20T14:11:50.000Z</time>
      </trkpt>
      <trkpt lat="45.76834" lon="4.8266">
        <ele>171</ele>
        <time>2024-05-20T14:11:51.000Z</time>
      </trkpt>
      <trkpt lat="45.76833" lon="4.82666">
        <ele>171</ele>
        <time>2024-05-20T14:11:52.000Z</time>
      </trkpt>
      <trkpt lat="45.76831" lon="4.82674">
        <ele>171.39999389648</ele>
        <time>2024-05-20T14:11:53.000Z</time>
      </trkpt>
      <trkpt lat="45.7683" lon="4.82681">
        <ele>171.39999389648</ele>
        <time>2024-05-20T14:11:54.000Z</time>
      </trkpt>
      <trkpt lat="45.76828" lon="4.82689">
        <ele>171.60000610352</ele>
        <time>2024-05-20T14:11:55.000Z</time>
      </trkpt>
      <trkpt lat="45.76825" lon="4.82698">
        <ele>171.60000610352</ele>
        <time>2024-05-20T14:11:56.000Z</time>
      </trkpt>
      <trkpt lat="45.76824" lon="4.82705">
        <ele>171.60000610352</ele>
        <time>2024-05-20T14:11:57.000Z</time>
      </trkpt>
      <trkpt lat="45.76822" lon="4.82712">
        <ele>172</ele>
        <time>2024-05-20T14:11:58.000Z</time>
      </trkpt>
      <trkpt lat="45.7682" lon="4.8272">
        <ele>172.19999694824</ele>
        <time>2024-05-20T14:11:59.000Z</time>
      </trkpt>
      <trkpt lat="45.76818" lon="4.82729">
        <ele>172.19999694824</ele>
        <time>2024-05-20T14:12:00.000Z</time>
      </trkpt>
      <trkpt lat="45.76816" lon="4.82736">
        <ele>172.19999694824</ele>
        <time>2024-05-20T14:12:01.000Z</time>
      </trkpt>
      <trkpt lat="45.76814" lon="4.82743">
        <ele>172.19999694824</ele>
        <time>2024-05-20T14:12:02.000Z</time>
      </trkpt>
      <trkpt lat="45.76812" lon="4.82751">
        <ele>172.19999694824</ele>
        <time>2024-05-20T14:12:03.000Z</time>
      </trkpt>
      <trkpt lat="45.76811" lon="4.82757">
        <ele>172.19999694824</ele>
        <time>2024-05-20T14:12:04.000Z</time>
      </trkpt>
      <trkpt lat="45.76809" lon="4.82762">
        <ele>172.19999694824</ele>
        <time>2024-05-20T14:12:05.000Z</time>
      </trkpt>
      <trkpt lat="45.76808" lon="4.82766">
        <ele>172.19999694824</ele>
        <time>2024-05-20T14:12:06.000Z</time>
      </trkpt>
      <trkpt lat="45.76807" lon="4.82769">
        <ele>172.19999694824</ele>
        <time>2024-05-20T14:12:07.000Z</time>
      </trkpt>
      <trkpt lat="45.76806" lon="4.82771">
        <ele>172.19999694824</ele>
        <time>2024-05-20T14:12:08.000Z</time>
      </trkpt>
      <trkpt lat="45.76806" lon="4.82773">
        <ele>172.39999389648</ele>
        <time>2024-05-20T14:12:09.000Z</time>
      </trkpt>
      <trkpt lat="45.76805" lon="4.82775">
        <ele>172.39999389648</ele>
        <time>2024-05-20T14:12:10.000Z</time>
      </trkpt>
      <trkpt lat="45.76804" lon="4.82777">
        <ele>172.60000610352</ele>
        <time>2024-05-20T14:12:11.000Z</time>
      </trkpt>
      <trkpt lat="45.76804" lon="4.82779">
        <ele>172.60000610352</ele>
        <time>2024-05-20T14:12:12.000Z</time>
      </trkpt>
      <trkpt lat="45.76803" lon="4.82782">
        <ele>172.60000610352</ele>
        <time>2024-05-20T14:12:13.000Z</time>
      </trkpt>
      <trkpt lat="45.76801" lon="4.82785">
        <ele>172.60000610352</ele>
        <time>2024-05-20T14:12:14.000Z</time>
      </trkpt>
      <trkpt lat="45.768" lon="4.82789">
        <ele>172.60000610352</ele>
        <time>2024-05-20T14:12:15.000Z</time>
      </trkpt>
      <trkpt lat="45.76799" lon="4.82793">
        <ele>172.60000610352</ele>
        <time>2024-05-20T14:12:16.000Z</time>
      </trkpt>
      <trkpt lat="45.76798" lon="4.82797">
        <ele>172.60000610352</ele>
        <time>2024-05-20T14:12:17.000Z</time>
      </trkpt>
      <trkpt lat="45.76796" lon="4.82802">
        <ele>172.60000610352</ele>
        <time>2024-05-20T14:12:18.000Z</time>
      </trkpt>
      <trkpt lat="45.76794" lon="4.82806">
        <ele>172.39999389648</ele>
        <time>2024-05-20T14:12:19.000Z</time>
      </trkpt>
      <trkpt lat="45.76792" lon="4.82811">
        <ele>172.39999389648</ele>
        <time>2024-05-20T14:12:20.000Z</time>
      </trkpt>
      <trkpt lat="45.7679" lon="4.82816">
        <ele>172.19999694824</ele>
        <time>2024-05-20T14:12:21.000Z</time>
      </trkpt>
      <trkpt lat="45.76787" lon="4.82821">
        <ele>172</ele>
        <time>2024-05-20T14:12:22.000Z</time>
      </trkpt>
      <trkpt lat="45.76783" lon="4.82828">
        <ele>172</ele>
        <time>2024-05-20T14:12:23.000Z</time>
      </trkpt>
      <trkpt lat="45.76779" lon="4.82834">
        <ele>171.80000305176</ele>
        <time>2024-05-20T14:12:24.000Z</time>
      </trkpt>
      <trkpt lat="45.76775" lon="4.8284">
        <ele>171.80000305176</ele>
        <time>2024-05-20T14:12:25.000Z</time>
      </trkpt>
      <trkpt lat="45.7677" lon="4.82846">
        <ele>171.60000610352</ele>
        <time>2024-05-20T14:12:26.000Z</time>
      </trkpt>
      <trkpt lat="45.76766" lon="4.82853">
        <ele>171.39999389648</ele>
        <time>2024-05-20T14:12:27.000Z</time>
      </trkpt>
      <trkpt lat="45.76762" lon="4.8286">
        <ele>171.19999694824</ele>
        <time>2024-05-20T14:12:28.000Z</time>
      </trkpt>
      <trkpt lat="45.76759" lon="4.82867">
        <ele>171</ele>
        <time>2024-05-20T14:12:29.000Z</time>
      </trkpt>
      <trkpt lat="45.76755" lon="4.82873">
        <ele>170.80000305176</ele>
        <time>2024-05-20T14:12:30.000Z</time>
      </trkpt>
      <trkpt lat="45.76752" lon="4.82879">
        <ele>170.39999389648</ele>
        <time>2024-05-20T14:12:31.000Z</time>
      </trkpt>
      <trkpt lat="45.76749" lon="4.82885">
        <ele>170.39999389648</ele>
        <time>2024-05-20T14:12:32.000Z</time>
      </trkpt>
      <trkpt lat="45.76745" lon="4.82891">
        <ele>170.39999389648</ele>
        <time>2024-05-20T14:12:33.000Z</time>
      </trkpt>
      <trkpt lat="45.76742" lon="4.82897">
        <ele>170.39999389648</ele>
        <time>2024-05-20T14:12:34.000Z</time>
      </trkpt>
      <trkpt lat="45.76739" lon="4.82903">
        <ele>170.39999389648</ele>
        <time>2024-05-20T14:12:35.000Z</time>
      </trkpt>
      <trkpt lat="45.76736" lon="4.82908">
        <ele>170.60000610352</ele>
        <time>2024-05-20T14:12:36.000Z</time>
      </trkpt>
      <trkpt lat="45.76733" lon="4.82913">
        <ele>170.60000610352</ele>
        <time>2024-05-20T14:12:37.000Z</time>
      </trkpt>
      <trkpt lat="45.7673" lon="4.82918">
        <ele>170.80000305176</ele>
        <time>2024-05-20T14:12:38.000Z</time>
      </trkpt>
      <trkpt lat="45.76728" lon="4.82922">
        <ele>171</ele>
        <time>2024-05-20T14:12:39.000Z</time>
      </trkpt>
      <trkpt lat="45.76726" lon="4.82925">
        <ele>171.19999694824</ele>
        <time>2024-05-20T14:12:40.000Z</time>
      </trkpt>
      <trkpt lat="45.76725" lon="4.82928">
        <ele>171.39999389648</ele>
        <time>2024-05-20T14:12:41.000Z</time>
      </trkpt>
      <trkpt lat="45.76723" lon="4.8293">
        <ele>171.39999389648</ele>
        <time>2024-05-20T14:12:42.000Z</time>
      </trkpt>
      <trkpt lat="45.76722" lon="4.82933">
        <ele>171.60000610352</ele>
        <time>2024-05-20T14:12:43.000Z</time>
      </trkpt>
      <trkpt lat="45.76721" lon="4.82936">
        <ele>171.80000305176</ele>
        <time>2024-05-20T14:12:44.000Z</time>
      </trkpt>
      <trkpt lat="45.76719" lon="4.82939">
        <ele>171.80000305176</ele>
        <time>2024-05-20T14:12:45.000Z</time>
      </trkpt>
      <trkpt lat="45.76717" lon="4.82944">
        <ele>171.80000305176</ele>
        <time>2024-05-20T14:12:46.000Z</time>
      </trkpt>
      <trkpt lat="45.76715" lon="4.82948">
        <ele>172</ele>
        <time>2024-05-20T14:12:47.000Z</time>
      </trkpt>
      <trkpt lat="45.76713" lon="4.82953">
        <ele>172</ele>
        <time>2024-05-20T14:12:48.000Z</time>
      </trkpt>
      <trkpt lat="45.7671" lon="4.82958">
        <ele>172.19999694824</ele>
        <time>2024-05-20T14:12:49.000Z</time>
      </trkpt>
      <trkpt lat="45.76708" lon="4.82963">
        <ele>172.19999694824</ele>
        <time>2024-05-20T14:12:50.000Z</time>
      </trkpt>
      <trkpt lat="45.76705" lon="4.82967">
        <ele>172.19999694824</ele>
        <time>2024-05-20T14:12:51.000Z</time>
      </trkpt>
      <trkpt lat="45.76701" lon="4.82972">
        <ele>172.19999694824</ele>
        <time>2024-05-20T14:12:52.000Z</time>
      </trkpt>
      <trkpt lat="45.76698" lon="4.82977">
        <ele>172.19999694824</ele>
        <time>2024-05-20T14:12:53.000Z</time>
      </trkpt>
      <trkpt lat="45.76695" lon="4.82981">
        <ele>172.39999389648</ele>
        <time>2024-05-20T14:12:54.000Z</time>
      </trkpt>
      <trkpt lat="45.76692" lon="4.82985">
        <ele>172.60000610352</ele>
        <time>2024-05-20T14:12:55.000Z</time>
      </trkpt>
      <trkpt lat="45.7669" lon="4.82988">
        <ele>172.80000305176</ele>
        <time>2024-05-20T14:12:56.000Z</time>
      </trkpt>
      <trkpt lat="45.76688" lon="4.82991">
        <ele>173.19999694824</ele>
        <time>2024-05-20T14:12:57.000Z</time>
      </trkpt>
      <trkpt lat="45.76686" lon="4.82993">
        <ele>173.19999694824</ele>
        <time>2024-05-20T14:12:58.000Z</time>
      </trkpt>
      <trkpt lat="45.76684" lon="4.82995">
        <ele>173.39999389648</ele>
        <time>2024-05-20T14:12:59.000Z</time>
      </trkpt>
      <trkpt lat="45.76683" lon="4.82996">
        <ele>173.60000610352</ele>
        <time>2024-05-20T14:13:00.000Z</time>
      </trkpt>
      <trkpt lat="45.76682" lon="4.82997">
        <ele>173.80000305176</ele>
        <time>2024-05-20T14:13:01.000Z</time>
      </trkpt>
      <trkpt lat="45.76681" lon="4.82998">
        <ele>174</ele>
        <time>2024-05-20T14:13:02.000Z</time>
      </trkpt>
      <trkpt lat="45.76681" lon="4.82999">
        <ele>174</ele>
        <time>2024-05-20T14:13:03.000Z</time>
      </trkpt>
      <trkpt lat="45.76681" lon="4.82999">
        <ele>174.19999694824</ele>
        <time>2024-05-20T14:13:04.000Z</time>
      </trkpt>
      <trkpt lat="45.76677" lon="4.83003">
        <ele>174</ele>
        <time>2024-05-20T14:13:51.000Z</time>
      </trkpt>
      <trkpt lat="45.76676" lon="4.83006">
        <ele>174</ele>
        <time>2024-05-20T14:13:52.000Z</time>
      </trkpt>
      <trkpt lat="45.76674" lon="4.83008">
        <ele>174</ele>
        <time>2024-05-20T14:13:53.000Z</time>
      </trkpt>
      <trkpt lat="45.76672" lon="4.83012">
        <ele>174</ele>
        <time>2024-05-20T14:13:54.000Z</time>
      </trkpt>
      <trkpt lat="45.7667" lon="4.83016">
        <ele>174</ele>
        <time>2024-05-20T14:13:55.000Z</time>
      </trkpt>
      <trkpt lat="45.76668" lon="4.83021">
        <ele>174</ele>
        <time>2024-05-20T14:13:56.000Z</time>
      </trkpt>
      <trkpt lat="45.76666" lon="4.83026">
        <ele>173.80000305176</ele>
        <time>2024-05-20T14:13:57.000Z</time>
      </trkpt>
      <trkpt lat="45.76663" lon="4.8303">
        <ele>173.39999389648</ele>
        <time>2024-05-20T14:13:58.000Z</time>
      </trkpt>
      <trkpt lat="45.76659" lon="4.83034">
        <ele>173.19999694824</ele>
        <time>2024-05-20T14:13:59.000Z</time>
      </trkpt>
      <trkpt lat="45.76655" lon="4.83038">
        <ele>173.19999694824</ele>
        <time>2024-05-20T14:14:00.000Z</time>
      </trkpt>
      <trkpt lat="45.76651" lon="4.83041">
        <ele>173</ele>
        <time>2024-05-20T14:14:01.000Z</time>
      </trkpt>
      <trkpt lat="45.76646" lon="4.83044">
        <ele>173</ele>
        <time>2024-05-20T14:14:02.000Z</time>
      </trkpt>
      <trkpt lat="45.76641" lon="4.83048">
        <ele>173</ele>
        <time>2024-05-20T14:14:03.000Z</time>
      </trkpt>
      <trkpt lat="45.76636" lon="4.83052">
        <ele>172.39999389648</ele>
        <time>2024-05-20T14:14:04.000Z</time>
      </trkpt>
      <trkpt lat="45.76631" lon="4.83056">
        <ele>172.19999694824</ele>
        <time>2024-05-20T14:14:05.000Z</time>
      </trkpt>
      <trkpt lat="45.76626" lon="4.8306">
        <ele>172</ele>
        <time>2024-05-20T14:14:06.000Z</time>
      </trkpt>
      <trkpt lat="45.76621" lon="4.83064">
        <ele>172</ele>
        <time>2024-05-20T14:14:07.000Z</time>
      </trkpt>
      <trkpt lat="45.76616" lon="4.83067">
        <ele>172</ele>
        <time>2024-05-20T14:14:08.000Z</time>
      </trkpt>
      <trkpt lat="45.76611" lon="4.83071">
        <ele>172</ele>
        <time>2024-05-20T14:14:09.000Z</time>
      </trkpt>
      <trkpt lat="45.76605" lon="4.83075">
        <ele>172</ele>
        <time>2024-05-20T14:14:10.000Z</time>
      </trkpt>
      <trkpt lat="45.766" lon="4.83079">
        <ele>172</ele>
        <time>2024-05-20T14:14:11.000Z</time>
      </trkpt>
      <trkpt lat="45.76596" lon="4.83082">
        <ele>172</ele>
        <time>2024-05-20T14:14:12.000Z</time>
      </trkpt>
      <trkpt lat="45.76591" lon="4.83086">
        <ele>172</ele>
        <time>2024-05-20T14:14:13.000Z</time>
      </trkpt>
      <trkpt lat="45.76587" lon="4.83089">
        <ele>172</ele>
        <time>2024-05-20T14:14:14.000Z</time>
      </trkpt>
      <trkpt lat="45.76583" lon="4.83092">
        <ele>172.19999694824</ele>
        <time>2024-05-20T14:14:15.000Z</time>
      </trkpt>
      <trkpt lat="45.7658" lon="4.83095">
        <ele>172.39999389648</ele>
        <time>2024-05-20T14:14:16.000Z</time>
      </trkpt>
      <trkpt lat="45.76576" lon="4.83098">
        <ele>172.60000610352</ele>
        <time>2024-05-20T14:14:17.000Z</time>
      </trkpt>
      <trkpt lat="45.76572" lon="4.83101">
        <ele>172.60000610352</ele>
        <time>2024-05-20T14:14:18.000Z</time>
      </trkpt>
      <trkpt lat="45.76567" lon="4.83105">
        <ele>172.60000610352</ele>
        <time>2024-05-20T14:14:19.000Z</time>
      </trkpt>
      <trkpt lat="45.76563" lon="4.83108">
        <ele>172.60000610352</ele>
        <time>2024-05-20T14:14:20.000Z</time>
      </trkpt>
      <trkpt lat="45.76558" lon="4.83111">
        <ele>172.60000610352</ele>
        <time>2024-05-20T14:14:21.000Z</time>
      </trkpt>
      <trkpt lat="45.76553" lon="4.83114">
        <ele>172.60000610352</ele>
        <time>2024-05-20T14:14:22.000Z</time>
      </trkpt>
      <trkpt lat="45.76549" lon="4.83118">
        <ele>172.60000610352</ele>
        <time>2024-05-20T14:14:23.000Z</time>
      </trkpt>
      <trkpt lat="45.76544" lon="4.83121">
        <ele>172.60000610352</ele>
        <time>2024-05-20T14:14:24.000Z</time>
      </trkpt>
      <trkpt lat="45.7654" lon="4.83125">
        <ele>172.60000610352</ele>
        <time>2024-05-20T14:14:25.000Z</time>
      </trkpt>
      <trkpt lat="45.76535" lon="4.83128">
        <ele>172.60000610352</ele>
        <time>2024-05-20T14:14:26.000Z</time>
      </trkpt>
      <trkpt lat="45.7653" lon="4.83131">
        <ele>172.60000610352</ele>
        <time>2024-05-20T14:14:27.000Z</time>
      </trkpt>
      <trkpt lat="45.76525" lon="4.83135">
        <ele>173</ele>
        <time>2024-05-20T14:14:28.000Z</time>
      </trkpt>
      <trkpt lat="45.76521" lon="4.83138">
        <ele>173</ele>
        <time>2024-05-20T14:14:29.000Z</time>
      </trkpt>
      <trkpt lat="45.76516" lon="4.83142">
        <ele>173.19999694824</ele>
        <time>2024-05-20T14:14:30.000Z</time>
      </trkpt>
      <trkpt lat="45.76512" lon="4.83146">
        <ele>173.19999694824</ele>
        <time>2024-05-20T14:14:31.000Z</time>
      </trkpt>
      <trkpt lat="45.76508" lon="4.83149">
        <ele>173.39999389648</ele>
        <time>2024-05-20T14:14:32.000Z</time>
      </trkpt>
      <trkpt lat="45.76503" lon="4.83152">
        <ele>173.39999389648</ele>
        <time>2024-05-20T14:14:33.000Z</time>
      </trkpt>
      <trkpt lat="45.765" lon="4.83156">
        <ele>173.39999389648</ele>
        <time>2024-05-20T14:14:34.000Z</time>
      </trkpt>
      <trkpt lat="45.76497" lon="4.83158">
        <ele>173.60000610352</ele>
        <time>2024-05-20T14:14:35.000Z</time>
      </trkpt>
      <trkpt lat="45.76494" lon="4.83161">
        <ele>173.60000610352</ele>
        <time>2024-05-20T14:14:36.000Z</time>
      </trkpt>
      <trkpt lat="45.76491" lon="4.83164">
        <ele>173.80000305176</ele>
        <time>2024-05-20T14:14:37.000Z</time>
      </trkpt>
      <trkpt lat="45.76488" lon="4.83166">
        <ele>174</ele>
        <time>2024-05-20T14:14:38.000Z</time>
      </trkpt>
      <trkpt lat="45.76486" lon="4.83167">
        <ele>174</ele>
        <time>2024-05-20T14:14:39.000Z</time>
      </trkpt>
      <trkpt lat="45.76483" lon="4.83168">
        <ele>174.19999694824</ele>
        <time>2024-05-20T14:14:40.000Z</time>
      </trkpt>
      <trkpt lat="45.76481" lon="4.8317">
        <ele>174.39999389648</ele>
        <time>2024-05-20T14:14:41.000Z</time>
      </trkpt>
      <trkpt lat="45.76477" lon="4.83172">
        <ele>174.60000610352</ele>
        <time>2024-05-20T14:14:42.000Z</time>
      </trkpt>
      <trkpt lat="45.76474" lon="4.83173">
        <ele>174.60000610352</ele>
        <time>2024-05-20T14:14:43.000Z</time>
      </trkpt>
      <trkpt lat="45.76471" lon="4.83175">
        <ele>174.60000610352</ele>
        <time>2024-05-20T14:14:44.000Z</time>
      </trkpt>
      <trkpt lat="45.76468" lon="4.83177">
        <ele>174.60000610352</ele>
        <time>2024-05-20T14:14:45.000Z</time>
      </trkpt>
      <trkpt lat="45.76464" lon="4.83179">
        <ele>174.39999389648</ele>
        <time>2024-05-20T14:14:46.000Z</time>
      </trkpt>
      <trkpt lat="45.7646" lon="4.83181">
        <ele>174.39999389648</ele>
        <time>2024-05-20T14:14:47.000Z</time>
      </trkpt>
      <trkpt lat="45.76456" lon="4.83182">
        <ele>174.39999389648</ele>
        <time>2024-05-20T14:14:48.000Z</time>
      </trkpt>
      <trkpt lat="45.76452" lon="4.83184">
        <ele>174.19999694824</ele>
        <time>2024-05-20T14:14:49.000Z</time>
      </trkpt>
      <trkpt lat="45.76447" lon="4.83185">
        <ele>174.19999694824</ele>
        <time>2024-05-20T14:14:50.000Z</time>
      </trkpt>
      <trkpt lat="45.76442" lon="4.83187">
        <ele>174.19999694824</ele>
        <time>2024-05-20T14:14:51.000Z</time>
      </trkpt>
      <trkpt lat="45.76437" lon="4.83188">
        <ele>174</ele>
        <time>2024-05-20T14:14:52.000Z</time>
      </trkpt>
      <trkpt lat="45.76432" lon="4.83189">
        <ele>173.80000305176</ele>
        <time>2024-05-20T14:14:53.000Z</time>
      </trkpt>
      <trkpt lat="45.76427" lon="4.8319">
        <ele>173.39999389648</ele>
        <time>2024-05-20T14:14:54.000Z</time>
      </trkpt>
      <trkpt lat="45.76421" lon="4.8319">
        <ele>173.39999389648</ele>
        <time>2024-05-20T14:14:55.000Z</time>
      </trkpt>
      <trkpt lat="45.76416" lon="4.83192">
        <ele>173.19999694824</ele>
        <time>2024-05-20T14:14:56.000Z</time>
      </trkpt>
      <trkpt lat="45.76411" lon="4.83193">
        <ele>173.19999694824</ele>
        <time>2024-05-20T14:14:57.000Z</time>
      </trkpt>
      <trkpt lat="45.76405" lon="4.83194">
        <ele>173.19999694824</ele>
        <time>2024-05-20T14:14:58.000Z</time>
      </trkpt>
      <trkpt lat="45.764" lon="4.83195">
        <ele>173.19999694824</ele>
        <time>2024-05-20T14:14:59.000Z</time>
      </trkpt>
      <trkpt lat="45.76396" lon="4.83195">
        <ele>173.19999694824</ele>
        <time>2024-05-20T14:15:00.000Z</time>
      </trkpt>
      <trkpt lat="45.76392" lon="4.83195">
        <ele>173.19999694824</ele>
        <time>2024-05-20T14:15:01.000Z</time>
      </trkpt>
      <trkpt lat="45.76388" lon="4.83196">
        <ele>173.19999694824</ele>
        <time>2024-05-20T14:15:02.000Z</time>
      </trkpt>
      <trkpt lat="45.76385" lon="4.83196">
        <ele>173.19999694824</ele>
        <time>2024-05-20T14:15:03.000Z</time>
      </trkpt>
      <trkpt lat="45.76382" lon="4.83196">
        <ele>173.39999389648</ele>
        <time>2024-05-20T14:15:04.000Z</time>
      </trkpt>
      <trkpt lat="45.76379" lon="4.83196">
        <ele>173.39999389648</ele>
        <time>2024-05-20T14:15:05.000Z</time>
      </trkpt>
      <trkpt lat="45.76376" lon="4.83196">
        <ele>173.39999389648</ele>
        <time>2024-05-20T14:15:06.000Z</time>
      </trkpt>
      <trkpt lat="45.76374" lon="4.83196">
        <ele>173.39999389648</ele>
        <time>2024-05-20T14:15:07.000Z</time>
      </trkpt>
      <trkpt lat="45.76371" lon="4.83195">
        <ele>173.39999389648</ele>
        <time>2024-05-20T14:15:08.000Z</time>
      </trkpt>
      <trkpt lat="45.76368" lon="4.83195">
        <ele>173.39999389648</ele>
        <time>2024-05-20T14:15:09.000Z</time>
      </trkpt>
      <trkpt lat="45.76365" lon="4.83195">
        <ele>173.39999389648</ele>
        <time>2024-05-20T14:15:10.000Z</time>
      </trkpt>
      <trkpt lat="45.76361" lon="4.83194">
        <ele>173.39999389648</ele>
        <time>2024-05-20T14:15:11.000Z</time>
      </trkpt>
      <trkpt lat="45.76357" lon="4.83194">
        <ele>173.19999694824</ele>
        <time>2024-05-20T14:15:12.000Z</time>
      </trkpt>
      <trkpt lat="45.76353" lon="4.83194">
        <ele>172.80000305176</ele>
        <time>2024-05-20T14:15:13.000Z</time>
      </trkpt>
      <trkpt lat="45.76349" lon="4.83194">
        <ele>172.80000305176</ele>
        <time>2024-05-20T14:15:14.000Z</time>
      </trkpt>
      <trkpt lat="45.76345" lon="4.83193">
        <ele>172.80000305176</ele>
        <time>2024-05-20T14:15:15.000Z</time>
      </trkpt>
      <trkpt lat="45.76341" lon="4.83193">
        <ele>172.80000305176</ele>
        <time>2024-05-20T14:15:16.000Z</time>
      </trkpt>
      <trkpt lat="45.76336" lon="4.83193">
        <ele>172.60000610352</ele>
        <time>2024-05-20T14:15:17.000Z</time>
      </trkpt>
      <trkpt lat="45.76331" lon="4.83194">
        <ele>172.39999389648</ele>
        <time>2024-05-20T14:15:18.000Z</time>
      </trkpt>
      <trkpt lat="45.76326" lon="4.83194">
        <ele>172.39999389648</ele>
        <time>2024-05-20T14:15:19.000Z</time>
      </trkpt>
      <trkpt lat="45.76322" lon="4.83194">
        <ele>172.39999389648</ele>
        <time>2024-05-20T14:15:20.000Z</time>
      </trkpt>
      <trkpt lat="45.76318" lon="4.83194">
        <ele>172.39999389648</ele>
        <time>2024-05-20T14:15:21.000Z</time>
      </trkpt>
      <trkpt lat="45.76313" lon="4.83194">
        <ele>172.39999389648</ele>
        <time>2024-05-20T14:15:22.000Z</time>
      </trkpt>
      <trkpt lat="45.76307" lon="4.83194">
        <ele>172.19999694824</ele>
        <time>2024-05-20T14:15:23.000Z</time>
      </trkpt>
      <trkpt lat="45.76302" lon="4.83194">
        <ele>172.39999389648</ele>
        <time>2024-05-20T14:15:24.000Z</time>
      </trkpt>
      <trkpt lat="45.76297" lon="4.83194">
        <ele>172.39999389648</ele>
        <time>2024-05-20T14:15:25.000Z</time>
      </trkpt>
      <trkpt lat="45.76291" lon="4.83193">
        <ele>172.19999694824</ele>
        <time>2024-05-20T14:15:26.000Z</time>
      </trkpt>
      <trkpt lat="45.76287" lon="4.83193">
        <ele>172.19999694824</ele>
        <time>2024-05-20T14:15:27.000Z</time>
      </trkpt>
      <trkpt lat="45.76282" lon="4.83192">
        <ele>172.39999389648</ele>
        <time>2024-05-20T14:15:28.000Z</time>
      </trkpt>
      <trkpt lat="45.76276" lon="4.83191">
        <ele>172.39999389648</ele>
        <time>2024-05-20T14:15:29.000Z</time>
      </trkpt>
      <trkpt lat="45.76271" lon="4.83191">
        <ele>172.60000610352</ele>
        <time>2024-05-20T14:15:30.000Z</time>
      </trkpt>
      <trkpt lat="45.76264" lon="4.8319">
        <ele>172.60000610352</ele>
        <time>2024-05-20T14:15:31.000Z</time>
      </trkpt>
      <trkpt lat="45.76259" lon="4.83189">
        <ele>172.60000610352</ele>
        <time>2024-05-20T14:15:32.000Z</time>
      </trkpt>
      <trkpt lat="45.76253" lon="4.83188">
        <ele>172.60000610352</ele>
        <time>2024-05-20T14:15:33.000Z</time>
      </trkpt>
      <trkpt lat="45.76247" lon="4.83188">
        <ele>172.60000610352</ele>
        <time>2024-05-20T14:15:34.000Z</time>
      </trkpt>
      <trkpt lat="45.76242" lon="4.83187">
        <ele>172.39999389648</ele>
        <time>2024-05-20T14:15:35.000Z</time>
      </trkpt>
      <trkpt lat="45.76236" lon="4.83186">
        <ele>172.39999389648</ele>
        <time>2024-05-20T14:15:36.000Z</time>
      </trkpt>
      <trkpt lat="45.76231" lon="4.83184">
        <ele>172.39999389648</ele>
        <time>2024-05-20T14:15:37.000Z</time>
      </trkpt>
      <trkpt lat="45.76225" lon="4.83182">
        <ele>172.39999389648</ele>
        <time>2024-05-20T14:15:38.000Z</time>
      </trkpt>
      <trkpt lat="45.76219" lon="4.8318">
        <ele>172.60000610352</ele>
        <time>2024-05-20T14:15:39.000Z</time>
      </trkpt>
      <trkpt lat="45.76214" lon="4.83178">
        <ele>172.60000610352</ele>
        <time>2024-05-20T14:15:40.000Z</time>
      </trkpt>
      <trkpt lat="45.76208" lon="4.83176">
        <ele>172.60000610352</ele>
        <time>2024-05-20T14:15:41.000Z</time>
      </trkpt>
      <trkpt lat="45.76203" lon="4.83174">
        <ele>172.60000610352</ele>
        <time>2024-05-20T14:15:42.000Z</time>
      </trkpt>
      <trkpt lat="45.76198" lon="4.83172">
        <ele>172.60000610352</ele>
        <time>2024-05-20T14:15:43.000Z</time>
      </trkpt>
      <trkpt lat="45.76193" lon="4.83169">
        <ele>172.60000610352</ele>
        <time>2024-05-20T14:15:44.000Z</time>
      </trkpt>
      <trkpt lat="45.76188" lon="4.83167">
        <ele>172.60000610352</ele>
        <time>2024-05-20T14:15:45.000Z</time>
      </trkpt>
      <trkpt lat="45.76183" lon="4.83165">
        <ele>172.60000610352</ele>
        <time>2024-05-20T14:15:46.000Z</time>
      </trkpt>
      <trkpt lat="45.76178" lon="4.83163">
        <ele>172.60000610352</ele>
        <time>2024-05-20T14:15:47.000Z</time>
      </trkpt>
      <trkpt lat="45.76173" lon="4.83161">
        <ele>172.60000610352</ele>
        <time>2024-05-20T14:15:48.000Z</time>
      </trkpt>
      <trkpt lat="45.76168" lon="4.83158">
        <ele>172.39999389648</ele>
        <time>2024-05-20T14:15:49.000Z</time>
      </trkpt>
      <trkpt lat="45.76163" lon="4.83155">
        <ele>172.39999389648</ele>
        <time>2024-05-20T14:15:50.000Z</time>
      </trkpt>
      <trkpt lat="45.76158" lon="4.83152">
        <ele>172.39999389648</ele>
        <time>2024-05-20T14:15:51.000Z</time>
      </trkpt>
      <trkpt lat="45.76153" lon="4.83149">
        <ele>172.19999694824</ele>
        <time>2024-05-20T14:15:52.000Z</time>
      </trkpt>
      <trkpt lat="45.76149" lon="4.83147">
        <ele>172.19999694824</ele>
        <time>2024-05-20T14:15:53.000Z</time>
      </trkpt>
      <trkpt lat="45.76145" lon="4.83144">
        <ele>172.19999694824</ele>
        <time>2024-05-20T14:15:54.000Z</time>
      </trkpt>
      <trkpt lat="45.7614" lon="4.83141">
        <ele>172.19999694824</ele>
        <time>2024-05-20T14:15:55.000Z</time>
      </trkpt>
      <trkpt lat="45.76136" lon="4.83138">
        <ele>172.19999694824</ele>
        <time>2024-05-20T14:15:56.000Z</time>
      </trkpt>
      <trkpt lat="45.76133" lon="4.83136">
        <ele>172.19999694824</ele>
        <time>2024-05-20T14:15:57.000Z</time>
      </trkpt>
      <trkpt lat="45.76129" lon="4.83134">
        <ele>172.19999694824</ele>
        <time>2024-05-20T14:15:58.000Z</time>
      </trkpt>
      <trkpt lat="45.76125" lon="4.83131">
        <ele>172.19999694824</ele>
        <time>2024-05-20T14:15:59.000Z</time>
      </trkpt>
      <trkpt lat="45.7612" lon="4.83128">
        <ele>172.19999694824</ele>
        <time>2024-05-20T14:16:00.000Z</time>
      </trkpt>
      <trkpt lat="45.76116" lon="4.83126">
        <ele>172.19999694824</ele>
        <time>2024-05-20T14:16:01.000Z</time>
      </trkpt>
      <trkpt lat="45.76112" lon="4.83124">
        <ele>172.19999694824</ele>
        <time>2024-05-20T14:16:02.000Z</time>
      </trkpt>
      <trkpt lat="45.76109" lon="4.83122">
        <ele>172.19999694824</ele>
        <time>2024-05-20T14:16:03.000Z</time>
      </trkpt>
      <trkpt lat="45.76104" lon="4.83119">
        <ele>172.19999694824</ele>
        <time>2024-05-20T14:16:04.000Z</time>
      </trkpt>
      <trkpt lat="45.76098" lon="4.83116">
        <ele>172.19999694824</ele>
        <time>2024-05-20T14:16:05.000Z</time>
      </trkpt>
      <trkpt lat="45.76094" lon="4.83113">
        <ele>172.19999694824</ele>
        <time>2024-05-20T14:16:06.000Z</time>
      </trkpt>
      <trkpt lat="45.76089" lon="4.83111">
        <ele>172.19999694824</ele>
        <time>2024-05-20T14:16:07.000Z</time>
      </trkpt>
      <trkpt lat="45.76084" lon="4.83109">
        <ele>172.19999694824</ele>
        <time>2024-05-20T14:16:08.000Z</time>
      </trkpt>
      <trkpt lat="45.7608" lon="4.83106">
        <ele>172.19999694824</ele>
        <time>2024-05-20T14:16:09.000Z</time>
      </trkpt>
      <trkpt lat="45.76075" lon="4.83103">
        <ele>172.19999694824</ele>
        <time>2024-05-20T14:16:10.000Z</time>
      </trkpt>
      <trkpt lat="45.76071" lon="4.83101">
        <ele>172.19999694824</ele>
        <time>2024-05-20T14:16:11.000Z</time>
      </trkpt>
      <trkpt lat="45.76066" lon="4.83098">
        <ele>172.39999389648</ele>
        <time>2024-05-20T14:16:12.000Z</time>
      </trkpt>
      <trkpt lat="45.76061" lon="4.83095">
        <ele>172.39999389648</ele>
        <time>2024-05-20T14:16:13.000Z</time>
      </trkpt>
      <trkpt lat="45.76056" lon="4.83091">
        <ele>172.39999389648</ele>
        <time>2024-05-20T14:16:14.000Z</time>
      </trkpt>
      <trkpt lat="45.76052" lon="4.83088">
        <ele>172.39999389648</ele>
        <time>2024-05-20T14:16:15.000Z</time>
      </trkpt>
      <trkpt lat="45.76047" lon="4.83085">
        <ele>172.39999389648</ele>
        <time>2024-05-20T14:16:16.000Z</time>
      </trkpt>
      <trkpt lat="45.76043" lon="4.83083">
        <ele>172.19999694824</ele>
        <time>2024-05-20T14:16:17.000Z</time>
      </trkpt>
      <trkpt lat="45.76039" lon="4.83079">
        <ele>172.19999694824</ele>
        <time>2024-05-20T14:16:18.000Z</time>
      </trkpt>
      <trkpt lat="45.76034" lon="4.83076">
        <ele>172.19999694824</ele>
        <time>2024-05-20T14:16:19.000Z</time>
      </trkpt>
      <trkpt lat="45.7603" lon="4.83072">
        <ele>172.19999694824</ele>
        <time>2024-05-20T14:16:20.000Z</time>
      </trkpt>
      <trkpt lat="45.76025" lon="4.83067">
        <ele>172.19999694824</ele>
        <time>2024-05-20T14:16:21.000Z</time>
      </trkpt>
      <trkpt lat="45.76021" lon="4.83062">
        <ele>172.19999694824</ele>
        <time>2024-05-20T14:16:22.000Z</time>
      </trkpt>
      <trkpt lat="45.76018" lon="4.83056">
        <ele>172.19999694824</ele>
        <time>2024-05-20T14:16:23.000Z</time>
      </trkpt>
      <trkpt lat="45.76014" lon="4.8305">
        <ele>172.19999694824</ele>
        <time>2024-05-20T14:16:24.000Z</time>
      </trkpt>
      <trkpt lat="45.76009" lon="4.83045">
        <ele>172.19999694824</ele>
        <time>2024-05-20T14:16:25.000Z</time>
      </trkpt>
      <trkpt lat="45.76005" lon="4.83039">
        <ele>172.19999694824</ele>
        <time>2024-05-20T14:16:26.000Z</time>
      </trkpt>
      <trkpt lat="45.76" lon="4.83034">
        <ele>172.19999694824</ele>
        <time>2024-05-20T14:16:27.000Z</time>
      </trkpt>
      <trkpt lat="45.75996" lon="4.8303">
        <ele>172</ele>
        <time>2024-05-20T14:16:28.000Z</time>
      </trkpt>
      <trkpt lat="45.75991" lon="4.83026">
        <ele>172</ele>
        <time>2024-05-20T14:16:29.000Z</time>
      </trkpt>
      <trkpt lat="45.75987" lon="4.83021">
        <ele>172</ele>
        <time>2024-05-20T14:16:30.000Z</time>
      </trkpt>
      <trkpt lat="45.75982" lon="4.83017">
        <ele>172</ele>
        <time>2024-05-20T14:16:31.000Z</time>
      </trkpt>
      <trkpt lat="45.75978" lon="4.83012">
        <ele>172</ele>
        <time>2024-05-20T14:16:32.000Z</time>
      </trkpt>
      <trkpt lat="45.75974" lon="4.83008">
        <ele>172</ele>
        <time>2024-05-20T14:16:33.000Z</time>
      </trkpt>
      <trkpt lat="45.7597" lon="4.83004">
        <ele>172</ele>
        <time>2024-05-20T14:16:34.000Z</time>
      </trkpt>
      <trkpt lat="45.75966" lon="4.83001">
        <ele>172.19999694824</ele>
        <time>2024-05-20T14:16:35.000Z</time>
      </trkpt>
      <trkpt lat="45.75963" lon="4.82997">
        <ele>172.19999694824</ele>
        <time>2024-05-20T14:16:36.000Z</time>
      </trkpt>
      <trkpt lat="45.75958" lon="4.82993">
        <ele>172.80000305176</ele>
        <time>2024-05-20T14:16:37.000Z</time>
      </trkpt>
      <trkpt lat="45.75955" lon="4.8299">
        <ele>173.19999694824</ele>
        <time>2024-05-20T14:16:38.000Z</time>
      </trkpt>
      <trkpt lat="45.75951" lon="4.82988">
        <ele>173.39999389648</ele>
        <time>2024-05-20T14:16:39.000Z</time>
      </trkpt>
      <trkpt lat="45.75948" lon="4.82986">
        <ele>173.39999389648</ele>
        <time>2024-05-20T14:16:40.000Z</time>
      </trkpt>
      <trkpt lat="45.75945" lon="4.82985">
        <ele>173.60000610352</ele>
        <time>2024-05-20T14:16:41.000Z</time>
      </trkpt>
      <trkpt lat="45.75943" lon="4.82983">
        <ele>173.60000610352</ele>
        <time>2024-05-20T14:16:42.000Z</time>
      </trkpt>
      <trkpt lat="45.75941" lon="4.82982">
        <ele>174</ele>
        <time>2024-05-20T14:16:43.000Z</time>
      </trkpt>
      <trkpt lat="45.75939" lon="4.82981">
        <ele>174.19999694824</ele>
        <time>2024-05-20T14:16:44.000Z</time>
      </trkpt>
      <trkpt lat="45.75938" lon="4.8298">
        <ele>174.39999389648</ele>
        <time>2024-05-20T14:16:45.000Z</time>
      </trkpt>
      <trkpt lat="45.75936" lon="4.82978">
        <ele>174.39999389648</ele>
        <time>2024-05-20T14:16:46.000Z</time>
      </trkpt>
      <trkpt lat="45.75935" lon="4.82977">
        <ele>174.39999389648</ele>
        <time>2024-05-20T14:16:47.000Z</time>
      </trkpt>
      <trkpt lat="45.75935" lon="4.82977">
        <ele>174.60000610352</ele>
        <time>2024-05-20T14:16:48.000Z</time>
      </trkpt>
      <trkpt lat="45.75935" lon="4.82977">
        <ele>174.60000610352</ele>
        <time>2024-05-20T14:16:49.000Z</time>
      </trkpt>
      <trkpt lat="45.75932" lon="4.82978">
        <ele>175</ele>
        <time>2024-05-20T14:16:56.000Z</time>
      </trkpt>
      <trkpt lat="45.7593" lon="4.82979">
        <ele>175</ele>
        <time>2024-05-20T14:16:57.000Z</time>
      </trkpt>
      <trkpt lat="45.75929" lon="4.82978">
        <ele>175</ele>
        <time>2024-05-20T14:16:58.000Z</time>
      </trkpt>
      <trkpt lat="45.75927" lon="4.82978">
        <ele>175</ele>
        <time>2024-05-20T14:16:59.000Z</time>
      </trkpt>
      <trkpt lat="45.75925" lon="4.82979">
        <ele>174.80000305176</ele>
        <time>2024-05-20T14:17:00.000Z</time>
      </trkpt>
      <trkpt lat="45.75924" lon="4.82981">
        <ele>174.80000305176</ele>
        <time>2024-05-20T14:17:01.000Z</time>
      </trkpt>
      <trkpt lat="45.75923" lon="4.82983">
        <ele>174.60000610352</ele>
        <time>2024-05-20T14:17:02.000Z</time>
      </trkpt>
      <trkpt lat="45.75922" lon="4.82987">
        <ele>174.39999389648</ele>
        <time>2024-05-20T14:17:03.000Z</time>
      </trkpt>
      <trkpt lat="45.75921" lon="4.82991">
        <ele>174.39999389648</ele>
        <time>2024-05-20T14:17:04.000Z</time>
      </trkpt>
      <trkpt lat="45.7592" lon="4.82994">
        <ele>174.39999389648</ele>
        <time>2024-05-20T14:17:05.000Z</time>
      </trkpt>
      <trkpt lat="45.75918" lon="4.82997">
        <ele>174.19999694824</ele>
        <time>2024-05-20T14:17:06.000Z</time>
      </trkpt>
      <trkpt lat="45.75917" lon="4.82999">
        <ele>174.19999694824</ele>
        <time>2024-05-20T14:17:07.000Z</time>
      </trkpt>
      <trkpt lat="45.75916" lon="4.83001">
        <ele>174</ele>
        <time>2024-05-20T14:17:08.000Z</time>
      </trkpt>
      <trkpt lat="45.75914" lon="4.83004">
        <ele>173.60000610352</ele>
        <time>2024-05-20T14:17:09.000Z</time>
      </trkpt>
      <trkpt lat="45.75913" lon="4.83006">
        <ele>173.60000610352</ele>
        <time>2024-05-20T14:17:10.000Z</time>
      </trkpt>
      <trkpt lat="45.75911" lon="4.83008">
        <ele>173.60000610352</ele>
        <time>2024-05-20T14:17:11.000Z</time>
      </trkpt>
      <trkpt lat="45.75909" lon="4.83009">
        <ele>173.60000610352</ele>
        <time>2024-05-20T14:17:12.000Z</time>
      </trkpt>
      <trkpt lat="45.75908" lon="4.83009">
        <ele>173.60000610352</ele>
        <time>2024-05-20T14:17:13.000Z</time>
      </trkpt>
      <trkpt lat="45.75907" lon="4.83009">
        <ele>173.80000305176</ele>
        <time>2024-05-20T14:17:14.000Z</time>
      </trkpt>
      <trkpt lat="45.75907" lon="4.83009">
        <ele>174</ele>
        <time>2024-05-20T14:17:15.000Z</time>
      </trkpt>
      <trkpt lat="45.75906" lon="4.83012">
        <ele>174</ele>
        <time>2024-05-20T14:17:16.000Z</time>
      </trkpt>
      <trkpt lat="45.75906" lon="4.83016">
        <ele>174</ele>
        <time>2024-05-20T14:17:17.000Z</time>
      </trkpt>
      <trkpt lat="45.75905" lon="4.8302">
        <ele>174</ele>
        <time>2024-05-20T14:17:18.000Z</time>
      </trkpt>
      <trkpt lat="45.75904" lon="4.83025">
        <ele>174</ele>
        <time>2024-05-20T14:17:19.000Z</time>
      </trkpt>
      <trkpt lat="45.75903" lon="4.83031">
        <ele>173.80000305176</ele>
        <time>2024-05-20T14:17:20.000Z</time>
      </trkpt>
      <trkpt lat="45.75901" lon="4.83037">
        <ele>173.80000305176</ele>
        <time>2024-05-20T14:17:21.000Z</time>
      </trkpt>
      <trkpt lat="45.759" lon="4.83042">
        <ele>173.60000610352</ele>
        <time>2024-05-20T14:17:22.000Z</time>
      </trkpt>
      <trkpt lat="45.75898" lon="4.83048">
        <ele>173.39999389648</ele>
        <time>2024-05-20T14:17:23.000Z</time>
      </trkpt>
      <trkpt lat="45.75896" lon="4.83054">
        <ele>173.39999389648</ele>
        <time>2024-05-20T14:17:24.000Z</time>
      </trkpt>
      <trkpt lat="45.75895" lon="4.83061">
        <ele>173.39999389648</ele>
        <time>2024-05-20T14:17:25.000Z</time>
      </trkpt>
      <trkpt lat="45.75893" lon="4.83068">
        <ele>173.39999389648</ele>
        <time>2024-05-20T14:17:26.000Z</time>
      </trkpt>
      <trkpt lat="45.7589" lon="4.83075">
        <ele>173.39999389648</ele>
        <time>2024-05-20T14:17:27.000Z</time>
      </trkpt>
      <trkpt lat="45.75886" lon="4.83081">
        <ele>173.39999389648</ele>
        <time>2024-05-20T14:17:28.000Z</time>
      </trkpt>
      <trkpt lat="45.75884" lon="4.83087">
        <ele>173.39999389648</ele>
        <time>2024-05-20T14:17:29.000Z</time>
      </trkpt>
      <trkpt lat="45.75882" lon="4.83094">
        <ele>173.19999694824</ele>
        <time>2024-05-20T14:17:30.000Z</time>
      </trkpt>
      <trkpt lat="45.75879" lon="4.831">
        <ele>172.80000305176</ele>
        <time>2024-05-20T14:17:31.000Z</time>
      </trkpt>
      <trkpt lat="45.75877" lon="4.83107">
        <ele>172.80000305176</ele>
        <time>2024-05-20T14:17:32.000Z</time>
      </trkpt>
      <trkpt lat="45.75875" lon="4.83114">
        <ele>172.80000305176</ele>
        <time>2024-05-20T14:17:33.000Z</time>
      </trkpt>
      <trkpt lat="45.75873" lon="4.8312">
        <ele>172.80000305176</ele>
        <time>2024-05-20T14:17:34.000Z</time>
      </trkpt>
      <trkpt lat="45.75871" lon="4.83127">
        <ele>172.60000610352</ele>
        <time>2024-05-20T14:17:35.000Z</time>
      </trkpt>
      <trkpt lat="45.75869" lon="4.83134">
        <ele>172.60000610352</ele>
        <time>2024-05-20T14:17:36.000Z</time>
      </trkpt>
      <trkpt lat="45.75866" lon="4.83141">
        <ele>172.60000610352</ele>
        <time>2024-05-20T14:17:37.000Z</time>
      </trkpt>
      <trkpt lat="45.75864" lon="4.83147">
        <ele>172.39999389648</ele>
        <time>2024-05-20T14:17:38.000Z</time>
      </trkpt>
      <trkpt lat="45.75862" lon="4.83155">
        <ele>172.39999389648</ele>
        <time>2024-05-20T14:17:39.000Z</time>
      </trkpt>
      <trkpt lat="45.7586" lon="4.83161">
        <ele>172.19999694824</ele>
        <time>2024-05-20T14:17:40.000Z</time>
      </trkpt>
      <trkpt lat="45.75858" lon="4.83167">
        <ele>172.19999694824</ele>
        <time>2024-05-20T14:17:41.000Z</time>
      </trkpt>
      <trkpt lat="45.75856" lon="4.83174">
        <ele>172.19999694824</ele>
        <time>2024-05-20T14:17:42.000Z</time>
      </trkpt>
      <trkpt lat="45.75854" lon="4.83181">
        <ele>172.19999694824</ele>
        <time>2024-05-20T14:17:43.000Z</time>
      </trkpt>
      <trkpt lat="45.75851" lon="4.8319">
        <ele>172.19999694824</ele>
        <time>2024-05-20T14:17:44.000Z</time>
      </trkpt>
      <trkpt lat="45.75849" lon="4.83198">
        <ele>172.19999694824</ele>
        <time>2024-05-20T14:17:45.000Z</time>
      </trkpt>
      <trkpt lat="45.75848" lon="4.83203">
        <ele>172.19999694824</ele>
        <time>2024-05-20T14:17:46.000Z</time>
      </trkpt>
      <trkpt lat="45.75846" lon="4.8321">
        <ele>172.19999694824</ele>
        <time>2024-05-20T14:17:47.000Z</time>
      </trkpt>
      <trkpt lat="45.75844" lon="4.83217">
        <ele>172.39999389648</ele>
        <time>2024-05-20T14:17:48.000Z</time>
      </trkpt>
      <trkpt lat="45.75842" lon="4.83223">
        <ele>172.39999389648</ele>
        <time>2024-05-20T14:17:49.000Z</time>
      </trkpt>
      <trkpt lat="45.7584" lon="4.8323">
        <ele>172.60000610352</ele>
        <time>2024-05-20T14:17:50.000Z</time>
      </trkpt>
      <trkpt lat="45.75839" lon="4.83236">
        <ele>172.60000610352</ele>
        <time>2024-05-20T14:17:51.000Z</time>
      </trkpt>
      <trkpt lat="45.75837" lon="4.83242">
        <ele>172.60000610352</ele>
        <time>2024-05-20T14:17:52.000Z</time>
      </trkpt>
      <trkpt lat="45.75836" lon="4.83248">
        <ele>172.80000305176</ele>
        <time>2024-05-20T14:17:53.000Z</time>
      </trkpt>
      <trkpt lat="45.75834" lon="4.83253">
        <ele>172.80000305176</ele>
        <time>2024-05-20T14:17:54.000Z</time>
      </trkpt>
      <trkpt lat="45.75833" lon="4.83259">
        <ele>172.39999389648</ele>
        <time>2024-05-20T14:17:55.000Z</time>
      </trkpt>
      <trkpt lat="45.75831" lon="4.83266">
        <ele>172.19999694824</ele>
        <time>2024-05-20T14:17:56.000Z</time>
      </trkpt>
      <trkpt lat="45.75829" lon="4.83274">
        <ele>172.19999694824</ele>
        <time>2024-05-20T14:17:57.000Z</time>
      </trkpt>
      <trkpt lat="45.75826" lon="4.8328">
        <ele>172.19999694824</ele>
        <time>2024-05-20T14:17:58.000Z</time>
      </trkpt>
      <trkpt lat="45.75824" lon="4.83287">
        <ele>172.19999694824</ele>
        <time>2024-05-20T14:17:59.000Z</time>
      </trkpt>
      <trkpt lat="45.75823" lon="4.83293">
        <ele>172.19999694824</ele>
        <time>2024-05-20T14:18:00.000Z</time>
      </trkpt>
      <trkpt lat="45.75822" lon="4.83299">
        <ele>172.19999694824</ele>
        <time>2024-05-20T14:18:01.000Z</time>
      </trkpt>
      <trkpt lat="45.7582" lon="4.83304">
        <ele>172.60000610352</ele>
        <time>2024-05-20T14:18:02.000Z</time>
      </trkpt>
      <trkpt lat="45.75819" lon="4.83308">
        <ele>172.80000305176</ele>
        <time>2024-05-20T14:18:03.000Z</time>
      </trkpt>
      <trkpt lat="45.75819" lon="4.83312">
        <ele>173</ele>
        <time>2024-05-20T14:18:04.000Z</time>
      </trkpt>
      <trkpt lat="45.75818" lon="4.83315">
        <ele>173.19999694824</ele>
        <time>2024-05-20T14:18:05.000Z</time>
      </trkpt>
      <trkpt lat="45.75817" lon="4.83317">
        <ele>173.19999694824</ele>
        <time>2024-05-20T14:18:06.000Z</time>
      </trkpt>
      <trkpt lat="45.75817" lon="4.83318">
        <ele>173.39999389648</ele>
        <time>2024-05-20T14:18:07.000Z</time>
      </trkpt>
      <trkpt lat="45.75817" lon="4.83318">
        <ele>173.39999389648</ele>
        <time>2024-05-20T14:18:08.000Z</time>
      </trkpt>
      <trkpt lat="45.75815" lon="4.83326">
        <ele>173.60000610352</ele>
        <time>2024-05-20T14:18:15.000Z</time>
      </trkpt>
      <trkpt lat="45.75814" lon="4.83329">
        <ele>173.39999389648</ele>
        <time>2024-05-20T14:18:16.000Z</time>
      </trkpt>
      <trkpt lat="45.75813" lon="4.83333">
        <ele>173.39999389648</ele>
        <time>2024-05-20T14:18:17.000Z</time>
      </trkpt>
      <trkpt lat="45.75812" lon="4.83336">
        <ele>173.19999694824</ele>
        <time>2024-05-20T14:18:18.000Z</time>
      </trkpt>
      <trkpt lat="45.7581" lon="4.83341">
        <ele>173.19999694824</ele>
        <time>2024-05-20T14:18:19.000Z</time>
      </trkpt>
      <trkpt lat="45.75809" lon="4.83347">
        <ele>173</ele>
        <time>2024-05-20T14:18:20.000Z</time>
      </trkpt>
      <trkpt lat="45.75807" lon="4.83353">
        <ele>173</ele>
        <time>2024-05-20T14:18:21.000Z</time>
      </trkpt>
      <trkpt lat="45.75806" lon="4.8336">
        <ele>172.60000610352</ele>
        <time>2024-05-20T14:18:22.000Z</time>
      </trkpt>
      <trkpt lat="45.75804" lon="4.83366">
        <ele>172.60000610352</ele>
        <time>2024-05-20T14:18:23.000Z</time>
      </trkpt>
      <trkpt lat="45.75802" lon="4.83372">
        <ele>172.60000610352</ele>
        <time>2024-05-20T14:18:24.000Z</time>
      </trkpt>
      <trkpt lat="45.75801" lon="4.83377">
        <ele>172.60000610352</ele>
        <time>2024-05-20T14:18:25.000Z</time>
      </trkpt>
      <trkpt lat="45.758" lon="4.83382">
        <ele>172.60000610352</ele>
        <time>2024-05-20T14:18:26.000Z</time>
      </trkpt>
      <trkpt lat="45.75798" lon="4.83387">
        <ele>172.80000305176</ele>
        <time>2024-05-20T14:18:27.000Z</time>
      </trkpt>
      <trkpt lat="45.75797" lon="4.83392">
        <ele>173</ele>
        <time>2024-05-20T14:18:28.000Z</time>
      </trkpt>
      <trkpt lat="45.75796" lon="4.83397">
        <ele>173.19999694824</ele>
        <time>2024-05-20T14:18:29.000Z</time>
      </trkpt>
      <trkpt lat="45.75794" lon="4.83401">
        <ele>173.19999694824</ele>
        <time>2024-05-20T14:18:30.000Z</time>
      </trkpt>
      <trkpt lat="45.75793" lon="4.83405">
        <ele>173.39999389648</ele>
        <time>2024-05-20T14:18:31.000Z</time>
      </trkpt>
      <trkpt lat="45.75793" lon="4.83411">
        <ele>173.60000610352</ele>
        <time>2024-05-20T14:18:32.000Z</time>
      </trkpt>
      <trkpt lat="45.75792" lon="4.83416">
        <ele>173.60000610352</ele>
        <time>2024-05-20T14:18:33.000Z</time>
      </trkpt>
      <trkpt lat="45.75792" lon="4.8342">
        <ele>173.80000305176</ele>
        <time>2024-05-20T14:18:34.000Z</time>
      </trkpt>
      <trkpt lat="45.75791" lon="4.83425">
        <ele>173.80000305176</ele>
        <time>2024-05-20T14:18:35.000Z</time>
      </trkpt>
      <trkpt lat="45.7579" lon="4.8343">
        <ele>173.80000305176</ele>
        <time>2024-05-20T14:18:36.000Z</time>
      </trkpt>
      <trkpt lat="45.75789" lon="4.83435">
        <ele>173.80000305176</ele>
        <time>2024-05-20T14:18:37.000Z</time>
      </trkpt>
      <trkpt lat="45.75787" lon="4.83439">
        <ele>173.80000305176</ele>
        <time>2024-05-20T14:18:38.000Z</time>
      </trkpt>
      <trkpt lat="45.75786" lon="4.83444">
        <ele>173.80000305176</ele>
        <time>2024-05-20T14:18:39.000Z</time>
      </trkpt>
      <trkpt lat="45.75785" lon="4.8345">
        <ele>173.80000305176</ele>
        <time>2024-05-20T14:18:40.000Z</time>
      </trkpt>
      <trkpt lat="45.75784" lon="4.83456">
        <ele>173.80000305176</ele>
        <time>2024-05-20T14:18:41.000Z</time>
      </trkpt>
      <trkpt lat="45.75783" lon="4.83461">
        <ele>173.80000305176</ele>
        <time>2024-05-20T14:18:42.000Z</time>
      </trkpt>
      <trkpt lat="45.75782" lon="4.83467">
        <ele>173.80000305176</ele>
        <time>2024-05-20T14:18:43.000Z</time>
      </trkpt>
      <trkpt lat="45.7578" lon="4.83474">
        <ele>173.80000305176</ele>
        <time>2024-05-20T14:18:44.000Z</time>
      </trkpt>
      <trkpt lat="45.75779" lon="4.8348">
        <ele>173.80000305176</ele>
        <time>2024-05-20T14:18:45.000Z</time>
      </trkpt>
      <trkpt lat="45.75776" lon="4.83487">
        <ele>173.80000305176</ele>
        <time>2024-05-20T14:18:46.000Z</time>
      </trkpt>
      <trkpt lat="45.75774" lon="4.83494">
        <ele>174</ele>
        <time>2024-05-20T14:18:47.000Z</time>
      </trkpt>
      <trkpt lat="45.75773" lon="4.835">
        <ele>174.19999694824</ele>
        <time>2024-05-20T14:18:48.000Z</time>
      </trkpt>
      <trkpt lat="45.75772" lon="4.83507">
        <ele>174.19999694824</ele>
        <time>2024-05-20T14:18:49.000Z</time>
      </trkpt>
      <trkpt lat="45.75771" lon="4.83515">
        <ele>174.39999389648</ele>
        <time>2024-05-20T14:18:50.000Z</time>
      </trkpt>
      <trkpt lat="45.75771" lon="4.83522">
        <ele>174.60000610352</ele>
        <time>2024-05-20T14:18:51.000Z</time>
      </trkpt>
      <trkpt lat="45.7577" lon="4.83529">
        <ele>174.80000305176</ele>
        <time>2024-05-20T14:18:52.000Z</time>
      </trkpt>
      <trkpt lat="45.75769" lon="4.83536">
        <ele>174.80000305176</ele>
        <time>2024-05-20T14:18:53.000Z</time>
      </trkpt>
      <trkpt lat="45.75768" lon="4.83542">
        <ele>174.80000305176</ele>
        <time>2024-05-20T14:18:54.000Z</time>
      </trkpt>
      <trkpt lat="45.75767" lon="4.8355">
        <ele>175</ele>
        <time>2024-05-20T14:18:55.000Z</time>
      </trkpt>
      <trkpt lat="45.75766" lon="4.83557">
        <ele>175.19999694824</ele>
        <time>2024-05-20T14:18:56.000Z</time>
      </trkpt>
      <trkpt lat="45.75766" lon="4.83564">
        <ele>175.19999694824</ele>
        <time>2024-05-20T14:18:57.000Z</time>
      </trkpt>
      <trkpt lat="45.75766" lon="4.8357">
        <ele>175.39999389648</ele>
        <time>2024-05-20T14:18:58.000Z</time>
      </trkpt>
      <trkpt lat="45.75764" lon="4.83578">
        <ele>175.39999389648</ele>
        <time>2024-05-20T14:18:59.000Z</time>
      </trkpt>
      <trkpt lat="45.75765" lon="4.83584">
        <ele>175.60000610352</ele>
        <time>2024-05-20T14:19:00.000Z</time>
      </trkpt>
      <trkpt lat="45.75763" lon="4.8359">
        <ele>175.60000610352</ele>
        <time>2024-05-20T14:19:01.000Z</time>
      </trkpt>
      <trkpt lat="45.7576" lon="4.83596">
        <ele>175.60000610352</ele>
        <time>2024-05-20T14:19:02.000Z</time>
      </trkpt>
      <trkpt lat="45.75755" lon="4.83601">
        <ele>175.60000610352</ele>
        <time>2024-05-20T14:19:03.000Z</time>
      </trkpt>
      <trkpt lat="45.75753" lon="4.83606">
        <ele>175.80000305176</ele>
        <time>2024-05-20T14:19:04.000Z</time>
      </trkpt>
      <trkpt lat="45.75752" lon="4.83613">
        <ele>175.80000305176</ele>
        <time>2024-05-20T14:19:05.000Z</time>
      </trkpt>
      <trkpt lat="45.7575" lon="4.83617">
        <ele>175.80000305176</ele>
        <time>2024-05-20T14:19:06.000Z</time>
      </trkpt>
      <trkpt lat="45.75748" lon="4.83622">
        <ele>176</ele>
        <time>2024-05-20T14:19:07.000Z</time>
      </trkpt>
      <trkpt lat="45.75747" lon="4.83627">
        <ele>176.19999694824</ele>
        <time>2024-05-20T14:19:08.000Z</time>
      </trkpt>
      <trkpt lat="45.75743" lon="4.83632">
        <ele>176.19999694824</ele>
        <time>2024-05-20T14:19:09.000Z</time>
      </trkpt>
      <trkpt lat="45.7574" lon="4.83635">
        <ele>176.39999389648</ele>
        <time>2024-05-20T14:19:10.000Z</time>
      </trkpt>
      <trkpt lat="45.75737" lon="4.83639">
        <ele>176.39999389648</ele>
        <time>2024-05-20T14:19:11.000Z</time>
      </trkpt>
      <trkpt lat="45.75735" lon="4.83642">
        <ele>176.60000610352</ele>
        <time>2024-05-20T14:19:12.000Z</time>
      </trkpt>
      <trkpt lat="45.75733" lon="4.83644">
        <ele>176.60000610352</ele>
        <time>2024-05-20T14:19:13.000Z</time>
      </trkpt>
      <trkpt lat="45.75731" lon="4.83645">
        <ele>176.80000305176</ele>
        <time>2024-05-20T14:19:14.000Z</time>
      </trkpt>
      <trkpt lat="45.75729" lon="4.83646">
        <ele>176.80000305176</ele>
        <time>2024-05-20T14:19:15.000Z</time>
      </trkpt>
      <trkpt lat="45.75727" lon="4.83649">
        <ele>176.80000305176</ele>
        <time>2024-05-20T14:19:16.000Z</time>
      </trkpt>
      <trkpt lat="45.75725" lon="4.83652">
        <ele>176.80000305176</ele>
        <time>2024-05-20T14:19:17.000Z</time>
      </trkpt>
      <trkpt lat="45.75723" lon="4.83656">
        <ele>177</ele>
        <time>2024-05-20T14:19:18.000Z</time>
      </trkpt>
      <trkpt lat="45.75721" lon="4.83661">
        <ele>177</ele>
        <time>2024-05-20T14:19:19.000Z</time>
      </trkpt>
      <trkpt lat="45.75719" lon="4.83665">
        <ele>177</ele>
        <time>2024-05-20T14:19:20.000Z</time>
      </trkpt>
      <trkpt lat="45.75718" lon="4.83669">
        <ele>177</ele>
        <time>2024-05-20T14:19:21.000Z</time>
      </trkpt>
      <trkpt lat="45.75716" lon="4.83675">
        <ele>177</ele>
        <time>2024-05-20T14:19:22.000Z</time>
      </trkpt>
      <trkpt lat="45.75715" lon="4.83678">
        <ele>177.19999694824</ele>
        <time>2024-05-20T14:19:23.000Z</time>
      </trkpt>
      <trkpt lat="45.75715" lon="4.83683">
        <ele>177.19999694824</ele>
        <time>2024-05-20T14:19:24.000Z</time>
      </trkpt>
      <trkpt lat="45.75714" lon="4.83687">
        <ele>177.19999694824</ele>
        <time>2024-05-20T14:19:25.000Z</time>
      </trkpt>
      <trkpt lat="45.75713" lon="4.83691">
        <ele>177.39999389648</ele>
        <time>2024-05-20T14:19:26.000Z</time>
      </trkpt>
      <trkpt lat="45.75712" lon="4.83696">
        <ele>177.39999389648</ele>
        <time>2024-05-20T14:19:27.000Z</time>
      </trkpt>
      <trkpt lat="45.75712" lon="4.83701">
        <ele>177.60000610352</ele>
        <time>2024-05-20T14:19:28.000Z</time>
      </trkpt>
      <trkpt lat="45.75711" lon="4.83707">
        <ele>177.80000305176</ele>
        <time>2024-05-20T14:19:29.000Z</time>
      </trkpt>
      <trkpt lat="45.75709" lon="4.83712">
        <ele>178</ele>
        <time>2024-05-20T14:19:30.000Z</time>
      </trkpt>
      <trkpt lat="45.75708" lon="4.83718">
        <ele>178</ele>
        <time>2024-05-20T14:19:31.000Z</time>
      </trkpt>
      <trkpt lat="45.75706" lon="4.83724">
        <ele>178</ele>
        <time>2024-05-20T14:19:32.000Z</time>
      </trkpt>
      <trkpt lat="45.75704" lon="4.8373">
        <ele>178</ele>
        <time>2024-05-20T14:19:33.000Z</time>
      </trkpt>
      <trkpt lat="45.75702" lon="4.83736">
        <ele>178</ele>
        <time>2024-05-20T14:19:34.000Z</time>
      </trkpt>
      <trkpt lat="45.757" lon="4.83742">
        <ele>178</ele>
        <time>2024-05-20T14:19:35.000Z</time>
      </trkpt>
      <trkpt lat="45.75699" lon="4.83748">
        <ele>178</ele>
        <time>2024-05-20T14:19:36.000Z</time>
      </trkpt>
      <trkpt lat="45.75697" lon="4.83754">
        <ele>178</ele>
        <time>2024-05-20T14:19:37.000Z</time>
      </trkpt>
      <trkpt lat="45.75695" lon="4.8376">
        <ele>178</ele>
        <time>2024-05-20T14:19:38.000Z</time>
      </trkpt>
      <trkpt lat="45.75693" lon="4.83766">
        <ele>178</ele>
        <time>2024-05-20T14:19:39.000Z</time>
      </trkpt>
      <trkpt lat="45.75692" lon="4.83772">
        <ele>178</ele>
        <time>2024-05-20T14:19:40.000Z</time>
      </trkpt>
      <trkpt lat="45.7569" lon="4.83778">
        <ele>178.19999694824</ele>
        <time>2024-05-20T14:19:41.000Z</time>
      </trkpt>
      <trkpt lat="45.75688" lon="4.83784">
        <ele>178.19999694824</ele>
        <time>2024-05-20T14:19:42.000Z</time>
      </trkpt>
      <trkpt lat="45.75687" lon="4.8379">
        <ele>178.19999694824</ele>
        <time>2024-05-20T14:19:43.000Z</time>
      </trkpt>
      <trkpt lat="45.75685" lon="4.83796">
        <ele>178.19999694824</ele>
        <time>2024-05-20T14:19:44.000Z</time>
      </trkpt>
      <trkpt lat="45.75683" lon="4.83802">
        <ele>178.19999694824</ele>
        <time>2024-05-20T14:19:45.000Z</time>
      </trkpt>
      <trkpt lat="45.75681" lon="4.83808">
        <ele>178.19999694824</ele>
        <time>2024-05-20T14:19:46.000Z</time>
      </trkpt>
      <trkpt lat="45.75679" lon="4.83814">
        <ele>178</ele>
        <time>2024-05-20T14:19:47.000Z</time>
      </trkpt>
      <trkpt lat="45.75677" lon="4.8382">
        <ele>178</ele>
        <time>2024-05-20T14:19:48.000Z</time>
      </trkpt>
      <trkpt lat="45.75675" lon="4.83826">
        <ele>178</ele>
        <time>2024-05-20T14:19:49.000Z</time>
      </trkpt>
      <trkpt lat="45.75674" lon="4.83832">
        <ele>177.80000305176</ele>
        <time>2024-05-20T14:19:50.000Z</time>
      </trkpt>
      <trkpt lat="45.75672" lon="4.83838">
        <ele>177.80000305176</ele>
        <time>2024-05-20T14:19:51.000Z</time>
      </trkpt>
      <trkpt lat="45.7567" lon="4.83845">
        <ele>177.80000305176</ele>
        <time>2024-05-20T14:19:52.000Z</time>
      </trkpt>
      <trkpt lat="45.75668" lon="4.83851">
        <ele>177.60000610352</ele>
        <time>2024-05-20T14:19:53.000Z</time>
      </trkpt>
      <trkpt lat="45.75666" lon="4.83857">
        <ele>177.60000610352</ele>
        <time>2024-05-20T14:19:54.000Z</time>
      </trkpt>
      <trkpt lat="45.75665" lon="4.83864">
        <ele>177.60000610352</ele>
        <time>2024-05-20T14:19:55.000Z</time>
      </trkpt>
      <trkpt lat="45.75663" lon="4.83871">
        <ele>177.60000610352</ele>
        <time>2024-05-20T14:19:56.000Z</time>
      </trkpt>
      <trkpt lat="45.75661" lon="4.83877">
        <ele>177.60000610352</ele>
        <time>2024-05-20T14:19:57.000Z</time>
      </trkpt>
      <trkpt lat="45.75659" lon="4.83884">
        <ele>177.60000610352</ele>
        <time>2024-05-20T14:19:58.000Z</time>
      </trkpt>
      <trkpt lat="45.75657" lon="4.83891">
        <ele>177.60000610352</ele>
        <time>2024-05-20T14:19:59.000Z</time>
      </trkpt>
      <trkpt lat="45.75655" lon="4.83898">
        <ele>177.60000610352</ele>
        <time>2024-05-20T14:20:00.000Z</time>
      </trkpt>
      <trkpt lat="45.75653" lon="4.83905">
        <ele>177.60000610352</ele>
        <time>2024-05-20T14:20:01.000Z</time>
      </trkpt>
      <trkpt lat="45.75651" lon="4.83912">
        <ele>177.60000610352</ele>
        <time>2024-05-20T14:20:02.000Z</time>
      </trkpt>
      <trkpt lat="45.75649" lon="4.83919">
        <ele>177.60000610352</ele>
        <time>2024-05-20T14:20:03.000Z</time>
      </trkpt>
      <trkpt lat="45.75647" lon="4.83926">
        <ele>177.39999389648</ele>
        <time>2024-05-20T14:20:04.000Z</time>
      </trkpt>
      <trkpt lat="45.75644" lon="4.83934">
        <ele>177.19999694824</ele>
        <time>2024-05-20T14:20:05.000Z</time>
      </trkpt>
      <trkpt lat="45.75642" lon="4.83941">
        <ele>177</ele>
        <time>2024-05-20T14:20:06.000Z</time>
      </trkpt>
      <trkpt lat="45.7564" lon="4.83948">
        <ele>176.80000305176</ele>
        <time>2024-05-20T14:20:07.000Z</time>
      </trkpt>
      <trkpt lat="45.75638" lon="4.83955">
        <ele>176.60000610352</ele>
        <time>2024-05-20T14:20:08.000Z</time>
      </trkpt>
      <trkpt lat="45.75636" lon="4.83962">
        <ele>176.39999389648</ele>
        <time>2024-05-20T14:20:09.000Z</time>
      </trkpt>
      <trkpt lat="45.75633" lon="4.83969">
        <ele>176.39999389648</ele>
        <time>2024-05-20T14:20:10.000Z</time>
      </trkpt>
      <trkpt lat="45.75631" lon="4.83975">
        <ele>176.39999389648</ele>
        <time>2024-05-20T14:20:11.000Z</time>
      </trkpt>
      <trkpt lat="45.7563" lon="4.83981">
        <ele>176.39999389648</ele>
        <time>2024-05-20T14:20:12.000Z</time>
      </trkpt>
      <trkpt lat="45.75628" lon="4.83987">
        <ele>176.19999694824</ele>
        <time>2024-05-20T14:20:13.000Z</time>
      </trkpt>
      <trkpt lat="45.75626" lon="4.83992">
        <ele>176.19999694824</ele>
        <time>2024-05-20T14:20:14.000Z</time>
      </trkpt>
      <trkpt lat="45.75625" lon="4.83996">
        <ele>176.19999694824</ele>
        <time>2024-05-20T14:20:15.000Z</time>
      </trkpt>
      <trkpt lat="45.75623" lon="4.84001">
        <ele>176.19999694824</ele>
        <time>2024-05-20T14:20:16.000Z</time>
      </trkpt>
      <trkpt lat="45.75622" lon="4.84005">
        <ele>176.39999389648</ele>
        <time>2024-05-20T14:20:17.000Z</time>
      </trkpt>
      <trkpt lat="45.7562" lon="4.84009">
        <ele>176.39999389648</ele>
        <time>2024-05-20T14:20:18.000Z</time>
      </trkpt>
      <trkpt lat="45.75619" lon="4.84012">
        <ele>176.39999389648</ele>
        <time>2024-05-20T14:20:19.000Z</time>
      </trkpt>
      <trkpt lat="45.75617" lon="4.84015">
        <ele>176.39999389648</ele>
        <time>2024-05-20T14:20:20.000Z</time>
      </trkpt>
      <trkpt lat="45.75616" lon="4.84017">
        <ele>176.39999389648</ele>
        <time>2024-05-20T14:20:21.000Z</time>
      </trkpt>
      <trkpt lat="45.75615" lon="4.84019">
        <ele>176.39999389648</ele>
        <time>2024-05-20T14:20:22.000Z</time>
      </trkpt>
      <trkpt lat="45.75614" lon="4.8402">
        <ele>176.60000610352</ele>
        <time>2024-05-20T14:20:23.000Z</time>
      </trkpt>
      <trkpt lat="45.75614" lon="4.8402">
        <ele>176.60000610352</ele>
        <time>2024-05-20T14:20:24.000Z</time>
      </trkpt>
      <trkpt lat="45.75614" lon="4.8402">
        <ele>176.60000610352</ele>
        <time>2024-05-20T14:20:25.000Z</time>
      </trkpt>
      <trkpt lat="45.75612" lon="4.84025">
        <ele>176.60000610352</ele>
        <time>2024-05-20T14:20:36.000Z</time>
      </trkpt>
      <trkpt lat="45.75611" lon="4.84028">
        <ele>176.60000610352</ele>
        <time>2024-05-20T14:20:37.000Z</time>
      </trkpt>
      <trkpt lat="45.75611" lon="4.84031">
        <ele>176.39999389648</ele>
        <time>2024-05-20T14:20:38.000Z</time>
      </trkpt>
      <trkpt lat="45.75611" lon="4.84034">
        <ele>176.39999389648</ele>
        <time>2024-05-20T14:20:39.000Z</time>
      </trkpt>
      <trkpt lat="45.75612" lon="4.84038">
        <ele>176.39999389648</ele>
        <time>2024-05-20T14:20:40.000Z</time>
      </trkpt>
      <trkpt lat="45.75612" lon="4.84042">
        <ele>176.39999389648</ele>
        <time>2024-05-20T14:20:41.000Z</time>
      </trkpt>
      <trkpt lat="45.7561" lon="4.84045">
        <ele>176.19999694824</ele>
        <time>2024-05-20T14:20:42.000Z</time>
      </trkpt>
      <trkpt lat="45.75609" lon="4.84048">
        <ele>176.19999694824</ele>
        <time>2024-05-20T14:20:43.000Z</time>
      </trkpt>
      <trkpt lat="45.75607" lon="4.84053">
        <ele>175.80000305176</ele>
        <time>2024-05-20T14:20:44.000Z</time>
      </trkpt>
      <trkpt lat="45.75605" lon="4.84057">
        <ele>175.60000610352</ele>
        <time>2024-05-20T14:20:45.000Z</time>
      </trkpt>
      <trkpt lat="45.75603" lon="4.84061">
        <ele>175.60000610352</ele>
        <time>2024-05-20T14:20:46.000Z</time>
      </trkpt>
      <trkpt lat="45.75601" lon="4.84067">
        <ele>175.60000610352</ele>
        <time>2024-05-20T14:20:47.000Z</time>
      </trkpt>
      <trkpt lat="45.75599" lon="4.84072">
        <ele>175.60000610352</ele>
        <time>2024-05-20T14:20:48.000Z</time>
      </trkpt>
      <trkpt lat="45.75598" lon="4.84078">
        <ele>175.60000610352</ele>
        <time>2024-05-20T14:20:49.000Z</time>
      </trkpt>
      <trkpt lat="45.75596" lon="4.84084">
        <ele>175.80000305176</ele>
        <time>2024-05-20T14:20:50.000Z</time>
      </trkpt>
      <trkpt lat="45.75594" lon="4.84089">
        <ele>175.80000305176</ele>
        <time>2024-05-20T14:20:51.000Z</time>
      </trkpt>
      <trkpt lat="45.75592" lon="4.84095">
        <ele>176</ele>
        <time>2024-05-20T14:20:52.000Z</time>
      </trkpt>
      <trkpt lat="45.7559" lon="4.84101">
        <ele>176</ele>
        <time>2024-05-20T14:20:53.000Z</time>
      </trkpt>
      <trkpt lat="45.75588" lon="4.84107">
        <ele>176</ele>
        <time>2024-05-20T14:20:54.000Z</time>
      </trkpt>
      <trkpt lat="45.75587" lon="4.84112">
        <ele>176</ele>
        <time>2024-05-20T14:20:55.000Z</time>
      </trkpt>
      <trkpt lat="45.75584" lon="4.8412">
        <ele>176</ele>
        <time>2024-05-20T14:20:56.000Z</time>
      </trkpt>
      <trkpt lat="45.75582" lon="4.84127">
        <ele>176</ele>
        <time>2024-05-20T14:20:57.000Z</time>
      </trkpt>
      <trkpt lat="45.7558" lon="4.84134">
        <ele>176</ele>
        <time>2024-05-20T14:20:58.000Z</time>
      </trkpt>
      <trkpt lat="45.75577" lon="4.84141">
        <ele>175.80000305176</ele>
        <time>2024-05-20T14:20:59.000Z</time>
      </trkpt>
      <trkpt lat="45.75575" lon="4.84148">
        <ele>175.60000610352</ele>
        <time>2024-05-20T14:21:00.000Z</time>
      </trkpt>
      <trkpt lat="45.75572" lon="4.84155">
        <ele>175.60000610352</ele>
        <time>2024-05-20T14:21:01.000Z</time>
      </trkpt>
      <trkpt lat="45.75569" lon="4.84163">
        <ele>175.39999389648</ele>
        <time>2024-05-20T14:21:02.000Z</time>
      </trkpt>
      <trkpt lat="45.75567" lon="4.8417">
        <ele>175.39999389648</ele>
        <time>2024-05-20T14:21:03.000Z</time>
      </trkpt>
      <trkpt lat="45.75564" lon="4.84178">
        <ele>175.39999389648</ele>
        <time>2024-05-20T14:21:04.000Z</time>
      </trkpt>
      <trkpt lat="45.75562" lon="4.84185">
        <ele>175.39999389648</ele>
        <time>2024-05-20T14:21:05.000Z</time>
      </trkpt>
      <trkpt lat="45.75559" lon="4.84191">
        <ele>175.19999694824</ele>
        <time>2024-05-20T14:21:06.000Z</time>
      </trkpt>
      <trkpt lat="45.75556" lon="4.84199">
        <ele>175.19999694824</ele>
        <time>2024-05-20T14:21:07.000Z</time>
      </trkpt>
      <trkpt lat="45.75554" lon="4.84205">
        <ele>175</ele>
        <time>2024-05-20T14:21:08.000Z</time>
      </trkpt>
      <trkpt lat="45.75551" lon="4.84212">
        <ele>175</ele>
        <time>2024-05-20T14:21:09.000Z</time>
      </trkpt>
      <trkpt lat="45.75548" lon="4.8422">
        <ele>175</ele>
        <time>2024-05-20T14:21:10.000Z</time>
      </trkpt>
      <trkpt lat="45.75545" lon="4.84227">
        <ele>174.80000305176</ele>
        <time>2024-05-20T14:21:11.000Z</time>
      </trkpt>
      <trkpt lat="45.75543" lon="4.84233">
        <ele>174.60000610352</ele>
        <time>2024-05-20T14:21:12.000Z</time>
      </trkpt>
      <trkpt lat="45.75542" lon="4.84238">
        <ele>174.60000610352</ele>
        <time>2024-05-20T14:21:13.000Z</time>
      </trkpt>
      <trkpt lat="45.7554" lon="4.84243">
        <ele>174.80000305176</ele>
        <time>2024-05-20T14:21:14.000Z</time>
      </trkpt>
      <trkpt lat="45.75539" lon="4.84249">
        <ele>174.80000305176</ele>
        <time>2024-05-20T14:21:15.000Z</time>
      </trkpt>
      <trkpt lat="45.75538" lon="4.84252">
        <ele>174.80000305176</ele>
        <time>2024-05-20T14:21:16.000Z</time>
      </trkpt>
      <trkpt lat="45.75538" lon="4.84253">
        <ele>174.80000305176</ele>
        <time>2024-05-20T14:21:17.000Z</time>
      </trkpt>
      <trkpt lat="45.75537" lon="4.84253">
        <ele>174.80000305176</ele>
        <time>2024-05-20T14:21:18.000Z</time>
      </trkpt>
      <trkpt lat="45.75537" lon="4.84253">
        <ele>174.80000305176</ele>
        <time>2024-05-20T14:21:19.000Z</time>
      </trkpt>
      <trkpt lat="45.75537" lon="4.84253">
        <ele>175</ele>
        <time>2024-05-20T14:21:20.000Z</time>
      </trkpt>
      <trkpt lat="45.75535" lon="4.84259">
        <ele>174.80000305176</ele>
        <time>2024-05-20T14:21:36.000Z</time>
      </trkpt>
      <trkpt lat="45.75534" lon="4.84262">
        <ele>174.80000305176</ele>
        <time>2024-05-20T14:21:37.000Z</time>
      </trkpt>
      <trkpt lat="45.75532" lon="4.84266">
        <ele>174.80000305176</ele>
        <time>2024-05-20T14:21:38.000Z</time>
      </trkpt>
      <trkpt lat="45.75531" lon="4.8427">
        <ele>174.60000610352</ele>
        <time>2024-05-20T14:21:39.000Z</time>
      </trkpt>
      <trkpt lat="45.75529" lon="4.84273">
        <ele>174.39999389648</ele>
        <time>2024-05-20T14:21:40.000Z</time>
      </trkpt>
      <trkpt lat="45.75528" lon="4.84277">
        <ele>174.39999389648</ele>
        <time>2024-05-20T14:21:41.000Z</time>
      </trkpt>
      <trkpt lat="45.75527" lon="4.84281">
        <ele>174.19999694824</ele>
        <time>2024-05-20T14:21:42.000Z</time>
      </trkpt>
      <trkpt lat="45.75526" lon="4.84284">
        <ele>174.19999694824</ele>
        <time>2024-05-20T14:21:43.000Z</time>
      </trkpt>
      <trkpt lat="45.75524" lon="4.84287">
        <ele>174.19999694824</ele>
        <time>2024-05-20T14:21:44.000Z</time>
      </trkpt>
      <trkpt lat="45.75523" lon="4.8429">
        <ele>174.19999694824</ele>
        <time>2024-05-20T14:21:45.000Z</time>
      </trkpt>
      <trkpt lat="45.75522" lon="4.84294">
        <ele>174.19999694824</ele>
        <time>2024-05-20T14:21:46.000Z</time>
      </trkpt>
      <trkpt lat="45.7552" lon="4.84298">
        <ele>174.19999694824</ele>
        <time>2024-05-20T14:21:47.000Z</time>
      </trkpt>
      <trkpt lat="45.75518" lon="4.84302">
        <ele>174</ele>
        <time>2024-05-20T14:21:48.000Z</time>
      </trkpt>
      <trkpt lat="45.75515" lon="4.84304">
        <ele>174</ele>
        <time>2024-05-20T14:21:49.000Z</time>
      </trkpt>
      <trkpt lat="45.75513" lon="4.84307">
        <ele>173.60000610352</ele>
        <time>2024-05-20T14:21:50.000Z</time>
      </trkpt>
      <trkpt lat="45.75509" lon="4.84308">
        <ele>173.60000610352</ele>
        <time>2024-05-20T14:21:51.000Z</time>
      </trkpt>
      <trkpt lat="45.75506" lon="4.8431">
        <ele>173.60000610352</ele>
        <time>2024-05-20T14:21:52.000Z</time>
      </trkpt>
      <trkpt lat="45.75502" lon="4.84312">
        <ele>173.39999389648</ele>
        <time>2024-05-20T14:21:53.000Z</time>
      </trkpt>
      <trkpt lat="45.75498" lon="4.84314">
        <ele>173.19999694824</ele>
        <time>2024-05-20T14:21:54.000Z</time>
      </trkpt>
      <trkpt lat="45.75494" lon="4.84316">
        <ele>173</ele>
        <time>2024-05-20T14:21:55.000Z</time>
      </trkpt>
      <trkpt lat="45.7549" lon="4.84319">
        <ele>173</ele>
        <time>2024-05-20T14:21:56.000Z</time>
      </trkpt>
      <trkpt lat="45.75485" lon="4.84321">
        <ele>173</ele>
        <time>2024-05-20T14:21:57.000Z</time>
      </trkpt>
      <trkpt lat="45.75481" lon="4.84323">
        <ele>172.80000305176</ele>
        <time>2024-05-20T14:21:58.000Z</time>
      </trkpt>
      <trkpt lat="45.75476" lon="4.84325">
        <ele>172.80000305176</ele>
        <time>2024-05-20T14:21:59.000Z</time>
      </trkpt>
      <trkpt lat="45.75471" lon="4.84328">
        <ele>172.80000305176</ele>
        <time>2024-05-20T14:22:00.000Z</time>
      </trkpt>
      <trkpt lat="45.75466" lon="4.84331">
        <ele>172.80000305176</ele>
        <time>2024-05-20T14:22:01.000Z</time>
      </trkpt>
      <trkpt lat="45.7546" lon="4.84334">
        <ele>172.80000305176</ele>
        <time>2024-05-20T14:22:02.000Z</time>
      </trkpt>
      <trkpt lat="45.75456" lon="4.84337">
        <ele>172.60000610352</ele>
        <time>2024-05-20T14:22:03.000Z</time>
      </trkpt>
      <trkpt lat="45.75451" lon="4.84341">
        <ele>172.39999389648</ele>
        <time>2024-05-20T14:22:04.000Z</time>
      </trkpt>
      <trkpt lat="45.75447" lon="4.84345">
        <ele>172.19999694824</ele>
        <time>2024-05-20T14:22:05.000Z</time>
      </trkpt>
      <trkpt lat="45.75443" lon="4.84349">
        <ele>172.19999694824</ele>
        <time>2024-05-20T14:22:06.000Z</time>
      </trkpt>
      <trkpt lat="45.75438" lon="4.84353">
        <ele>172</ele>
        <time>2024-05-20T14:22:07.000Z</time>
      </trkpt>
      <trkpt lat="45.75434" lon="4.84356">
        <ele>172</ele>
        <time>2024-05-20T14:22:08.000Z</time>
      </trkpt>
      <trkpt lat="45.7543" lon="4.84361">
        <ele>172</ele>
        <time>2024-05-20T14:22:09.000Z</time>
      </trkpt>
      <trkpt lat="45.75427" lon="4.84365">
        <ele>172</ele>
        <time>2024-05-20T14:22:10.000Z</time>
      </trkpt>
      <trkpt lat="45.75423" lon="4.84367">
        <ele>172</ele>
        <time>2024-05-20T14:22:11.000Z</time>
      </trkpt>
      <trkpt lat="45.75419" lon="4.84371">
        <ele>172</ele>
        <time>2024-05-20T14:22:12.000Z</time>
      </trkpt>
      <trkpt lat="45.75416" lon="4.84373">
        <ele>172.19999694824</ele>
        <time>2024-05-20T14:22:13.000Z</time>
      </trkpt>
      <trkpt lat="45.75412" lon="4.84376">
        <ele>172.19999694824</ele>
        <time>2024-05-20T14:22:14.000Z</time>
      </trkpt>
      <trkpt lat="45.75409" lon="4.8438">
        <ele>172.19999694824</ele>
        <time>2024-05-20T14:22:15.000Z</time>
      </trkpt>
      <trkpt lat="45.75405" lon="4.84383">
        <ele>172.19999694824</ele>
        <time>2024-05-20T14:22:16.000Z</time>
      </trkpt>
      <trkpt lat="45.75402" lon="4.84386">
        <ele>172.19999694824</ele>
        <time>2024-05-20T14:22:17.000Z</time>
      </trkpt>
      <trkpt lat="45.75399" lon="4.8439">
        <ele>172</ele>
        <time>2024-05-20T14:22:18.000Z</time>
      </trkpt>
      <trkpt lat="45.75396" lon="4.84393">
        <ele>172</ele>
        <time>2024-05-20T14:22:19.000Z</time>
      </trkpt>
      <trkpt lat="45.75393" lon="4.84396">
        <ele>172</ele>
        <time>2024-05-20T14:22:20.000Z</time>
      </trkpt>
      <trkpt lat="45.75391" lon="4.84398">
        <ele>172</ele>
        <time>2024-05-20T14:22:21.000Z</time>
      </trkpt>
      <trkpt lat="45.75389" lon="4.84401">
        <ele>172</ele>
        <time>2024-05-20T14:22:22.000Z</time>
      </trkpt>
      <trkpt lat="45.75387" lon="4.84402">
        <ele>172</ele>
        <time>2024-05-20T14:22:23.000Z</time>
      </trkpt>
      <trkpt lat="45.75387" lon="4.84403">
        <ele>172</ele>
        <time>2024-05-20T14:22:24.000Z</time>
      </trkpt>
      <trkpt lat="45.75387" lon="4.84403">
        <ele>172</ele>
        <time>2024-05-20T14:22:25.000Z</time>
      </trkpt>
      <trkpt lat="45.75384" lon="4.84405">
        <ele>172.19999694824</ele>
        <time>2024-05-20T14:22:45.000Z</time>
      </trkpt>
      <trkpt lat="45.75382" lon="4.84407">
        <ele>172.19999694824</ele>
        <time>2024-05-20T14:22:46.000Z</time>
      </trkpt>
      <trkpt lat="45.75381" lon="4.8441">
        <ele>172.19999694824</ele>
        <time>2024-05-20T14:22:47.000Z</time>
      </trkpt>
      <trkpt lat="45.75379" lon="4.84414">
        <ele>172.19999694824</ele>
        <time>2024-05-20T14:22:48.000Z</time>
      </trkpt>
      <trkpt lat="45.75376" lon="4.84417">
        <ele>172.19999694824</ele>
        <time>2024-05-20T14:22:49.000Z</time>
      </trkpt>
      <trkpt lat="45.75372" lon="4.8442">
        <ele>172</ele>
        <time>2024-05-20T14:22:50.000Z</time>
      </trkpt>
      <trkpt lat="45.75369" lon="4.84424">
        <ele>172</ele>
        <time>2024-05-20T14:22:51.000Z</time>
      </trkpt>
      <trkpt lat="45.75365" lon="4.84428">
        <ele>172</ele>
        <time>2024-05-20T14:22:52.000Z</time>
      </trkpt>
      <trkpt lat="45.75361" lon="4.84432">
        <ele>171.80000305176</ele>
        <time>2024-05-20T14:22:53.000Z</time>
      </trkpt>
      <trkpt lat="45.75357" lon="4.84436">
        <ele>171.60000610352</ele>
        <time>2024-05-20T14:22:54.000Z</time>
      </trkpt>
      <trkpt lat="45.75353" lon="4.8444">
        <ele>171.60000610352</ele>
        <time>2024-05-20T14:22:55.000Z</time>
      </trkpt>
      <trkpt lat="45.7535" lon="4.84444">
        <ele>171.60000610352</ele>
        <time>2024-05-20T14:22:56.000Z</time>
      </trkpt>
      <trkpt lat="45.75346" lon="4.84448">
        <ele>171.60000610352</ele>
        <time>2024-05-20T14:22:57.000Z</time>
      </trkpt>
      <trkpt lat="45.75343" lon="4.84452">
        <ele>171.60000610352</ele>
        <time>2024-05-20T14:22:58.000Z</time>
      </trkpt>
      <trkpt lat="45.7534" lon="4.84455">
        <ele>171.60000610352</ele>
        <time>2024-05-20T14:22:59.000Z</time>
      </trkpt>
      <trkpt lat="45.75337" lon="4.84458">
        <ele>171.80000305176</ele>
        <time>2024-05-20T14:23:00.000Z</time>
      </trkpt>
      <trkpt lat="45.75332" lon="4.84463">
        <ele>171.80000305176</ele>
        <time>2024-05-20T14:23:01.000Z</time>
      </trkpt>
      <trkpt lat="45.75329" lon="4.84467">
        <ele>171.80000305176</ele>
        <time>2024-05-20T14:23:02.000Z</time>
      </trkpt>
      <trkpt lat="45.75326" lon="4.84471">
        <ele>171.80000305176</ele>
        <time>2024-05-20T14:23:03.000Z</time>
      </trkpt>
      <trkpt lat="45.75323" lon="4.84475">
        <ele>171.80000305176</ele>
        <time>2024-05-20T14:23:04.000Z</time>
      </trkpt>
      <trkpt lat="45.75321" lon="4.84479">
        <ele>171.80000305176</ele>
        <time>2024-05-20T14:23:05.000Z</time>
      </trkpt>
      <trkpt lat="45.75319" lon="4.84484">
        <ele>172</ele>
        <time>2024-05-20T14:23:06.000Z</time>
      </trkpt>
      <trkpt lat="45.75316" lon="4.84489">
        <ele>172</ele>
        <time>2024-05-20T14:23:07.000Z</time>
      </trkpt>
      <trkpt lat="45.75313" lon="4.84494">
        <ele>172</ele>
        <time>2024-05-20T14:23:08.000Z</time>
      </trkpt>
      <trkpt lat="45.75309" lon="4.84499">
        <ele>172.19999694824</ele>
        <time>2024-05-20T14:23:09.000Z</time>
      </trkpt>
      <trkpt lat="45.75305" lon="4.84503">
        <ele>172.80000305176</ele>
        <time>2024-05-20T14:23:10.000Z</time>
      </trkpt>
      <trkpt lat="45.75302" lon="4.84507">
        <ele>173.19999694824</ele>
        <time>2024-05-20T14:23:11.000Z</time>
      </trkpt>
      <trkpt lat="45.753" lon="4.84511">
        <ele>173.39999389648</ele>
        <time>2024-05-20T14:23:12.000Z</time>
      </trkpt>
      <trkpt lat="45.75296" lon="4.84518">
        <ele>173.60000610352</ele>
        <time>2024-05-20T14:23:13.000Z</time>
      </trkpt>
      <trkpt lat="45.75293" lon="4.84523">
        <ele>173.60000610352</ele>
        <time>2024-05-20T14:23:14.000Z</time>
      </trkpt>
      <trkpt lat="45.7529" lon="4.84529">
        <ele>173.80000305176</ele>
        <time>2024-05-20T14:23:15.000Z</time>
      </trkpt>
      <trkpt lat="45.75287" lon="4.84535">
        <ele>174</ele>
        <time>2024-05-20T14:23:16.000Z</time>
      </trkpt>
      <trkpt lat="45.75284" lon="4.84541">
        <ele>174</ele>
        <time>2024-05-20T14:23:17.000Z</time>
      </trkpt>
      <trkpt lat="45.7528" lon="4.84546">
        <ele>174</ele>
        <time>2024-05-20T14:23:18.000Z</time>
      </trkpt>
      <trkpt lat="45.75278" lon="4.84552">
        <ele>174</ele>
        <time>2024-05-20T14:23:19.000Z</time>
      </trkpt>
      <trkpt lat="45.75275" lon="4.84558">
        <ele>174</ele>
        <time>2024-05-20T14:23:20.000Z</time>
      </trkpt>
      <trkpt lat="45.75272" lon="4.84563">
        <ele>173.80000305176</ele>
        <time>2024-05-20T14:23:21.000Z</time>
      </trkpt>
      <trkpt lat="45.75269" lon="4.84568">
        <ele>173.80000305176</ele>
        <time>2024-05-20T14:23:22.000Z</time>
      </trkpt>
      <trkpt lat="45.75267" lon="4.84573">
        <ele>173.60000610352</ele>
        <time>2024-05-20T14:23:23.000Z</time>
      </trkpt>
      <trkpt lat="45.75264" lon="4.84578">
        <ele>173.39999389648</ele>
        <time>2024-05-20T14:23:24.000Z</time>
      </trkpt>
      <trkpt lat="45.75261" lon="4.84584">
        <ele>173.39999389648</ele>
        <time>2024-05-20T14:23:25.000Z</time>
      </trkpt>
      <trkpt lat="45.75259" lon="4.8459">
        <ele>173.39999389648</ele>
        <time>2024-05-20T14:23:26.000Z</time>
      </trkpt>
      <trkpt lat="45.75255" lon="4.84595">
        <ele>173.39999389648</ele>
        <time>2024-05-20T14:23:27.000Z</time>
      </trkpt>
      <trkpt lat="45.7525" lon="4.84601">
        <ele>173.39999389648</ele>
        <time>2024-05-20T14:23:28.000Z</time>
      </trkpt>
      <trkpt lat="45.75247" lon="4.84607">
        <ele>173.39999389648</ele>
        <time>2024-05-20T14:23:29.000Z</time>
      </trkpt>
      <trkpt lat="45.75243" lon="4.84611">
        <ele>173.19999694824</ele>
        <time>2024-05-20T14:23:30.000Z</time>
      </trkpt>
      <trkpt lat="45.7524" lon="4.84616">
        <ele>173.19999694824</ele>
        <time>2024-05-20T14:23:31.000Z</time>
      </trkpt>
      <trkpt lat="45.75237" lon="4.84619">
        <ele>173</ele>
        <time>2024-05-20T14:23:32.000Z</time>
      </trkpt>
      <trkpt lat="45.75233" lon="4.84624">
        <ele>173</ele>
        <time>2024-05-20T14:23:33.000Z</time>
      </trkpt>
      <trkpt lat="45.7523" lon="4.84628">
        <ele>173</ele>
        <time>2024-05-20T14:23:34.000Z</time>
      </trkpt>
      <trkpt lat="45.75227" lon="4.84632">
        <ele>172.80000305176</ele>
        <time>2024-05-20T14:23:35.000Z</time>
      </trkpt>
      <trkpt lat="45.75224" lon="4.84635">
        <ele>172.80000305176</ele>
        <time>2024-05-20T14:23:36.000Z</time>
      </trkpt>
      <trkpt lat="45.75222" lon="4.84637">
        <ele>173</ele>
        <time>2024-05-20T14:23:37.000Z</time>
      </trkpt>
      <trkpt lat="45.75219" lon="4.8464">
        <ele>173</ele>
        <time>2024-05-20T14:23:38.000Z</time>
      </trkpt>
      <trkpt lat="45.75216" lon="4.84642">
        <ele>173</ele>
        <time>2024-05-20T14:23:39.000Z</time>
      </trkpt>
      <trkpt lat="45.75216" lon="4.84642">
        <ele>173.19999694824</ele>
        <time>2024-05-20T14:23:40.000Z</time>
      </trkpt>
      <trkpt lat="45.75216" lon="4.84642">
        <ele>173.39999389648</ele>
        <time>2024-05-20T14:23:41.000Z</time>
      </trkpt>
      <trkpt lat="45.75216" lon="4.84642">
        <ele>173.60000610352</ele>
        <time>2024-05-20T14:23:42.000Z</time>
      </trkpt>
      <trkpt lat="45.75211" lon="4.84646">
        <ele>173.80000305176</ele>
        <time>2024-05-20T14:24:29.000Z</time>
      </trkpt>
      <trkpt lat="45.7521" lon="4.84649">
        <ele>173.80000305176</ele>
        <time>2024-05-20T14:24:30.000Z</time>
      </trkpt>
      <trkpt lat="45.75209" lon="4.84651">
        <ele>173.80000305176</ele>
        <time>2024-05-20T14:24:31.000Z</time>
      </trkpt>
      <trkpt lat="45.75208" lon="4.84655">
        <ele>173.60000610352</ele>
        <time>2024-05-20T14:24:32.000Z</time>
      </trkpt>
      <trkpt lat="45.75207" lon="4.84658">
        <ele>173.60000610352</ele>
        <time>2024-05-20T14:24:33.000Z</time>
      </trkpt>
      <trkpt lat="45.75207" lon="4.84662">
        <ele>173.60000610352</ele>
        <time>2024-05-20T14:24:34.000Z</time>
      </trkpt>
      <trkpt lat="45.75206" lon="4.84665">
        <ele>173.60000610352</ele>
        <time>2024-05-20T14:24:35.000Z</time>
      </trkpt>
      <trkpt lat="45.75205" lon="4.84669">
        <ele>173.60000610352</ele>
        <time>2024-05-20T14:24:36.000Z</time>
      </trkpt>
      <trkpt lat="45.75203" lon="4.84673">
        <ele>173.60000610352</ele>
        <time>2024-05-20T14:24:37.000Z</time>
      </trkpt>
      <trkpt lat="45.752" lon="4.84678">
        <ele>173.60000610352</ele>
        <time>2024-05-20T14:24:38.000Z</time>
      </trkpt>
      <trkpt lat="45.75198" lon="4.84682">
        <ele>173.39999389648</ele>
        <time>2024-05-20T14:24:39.000Z</time>
      </trkpt>
      <trkpt lat="45.75195" lon="4.84688">
        <ele>173.19999694824</ele>
        <time>2024-05-20T14:24:40.000Z</time>
      </trkpt>
      <trkpt lat="45.75192" lon="4.84694">
        <ele>173</ele>
        <time>2024-05-20T14:24:41.000Z</time>
      </trkpt>
      <trkpt lat="45.75189" lon="4.84699">
        <ele>173</ele>
        <time>2024-05-20T14:24:42.000Z</time>
      </trkpt>
      <trkpt lat="45.75186" lon="4.84704">
        <ele>172.80000305176</ele>
        <time>2024-05-20T14:24:43.000Z</time>
      </trkpt>
      <trkpt lat="45.75183" lon="4.84708">
        <ele>172.80000305176</ele>
        <time>2024-05-20T14:24:44.000Z</time>
      </trkpt>
      <trkpt lat="45.75179" lon="4.84713">
        <ele>173</ele>
        <time>2024-05-20T14:24:45.000Z</time>
      </trkpt>
      <trkpt lat="45.75176" lon="4.84717">
        <ele>173</ele>
        <time>2024-05-20T14:24:46.000Z</time>
      </trkpt>
      <trkpt lat="45.75172" lon="4.84722">
        <ele>173</ele>
        <time>2024-05-20T14:24:47.000Z</time>
      </trkpt>
      <trkpt lat="45.75168" lon="4.84727">
        <ele>173</ele>
        <time>2024-05-20T14:24:48.000Z</time>
      </trkpt>
      <trkpt lat="45.75165" lon="4.84732">
        <ele>173.19999694824</ele>
        <time>2024-05-20T14:24:49.000Z</time>
      </trkpt>
      <trkpt lat="45.75161" lon="4.84737">
        <ele>173.19999694824</ele>
        <time>2024-05-20T14:24:50.000Z</time>
      </trkpt>
      <trkpt lat="45.75157" lon="4.84742">
        <ele>173.19999694824</ele>
        <time>2024-05-20T14:24:51.000Z</time>
      </trkpt>
      <trkpt lat="45.75152" lon="4.84745">
        <ele>173.39999389648</ele>
        <time>2024-05-20T14:24:52.000Z</time>
      </trkpt>
      <trkpt lat="45.75148" lon="4.8475">
        <ele>173.60000610352</ele>
        <time>2024-05-20T14:24:53.000Z</time>
      </trkpt>
      <trkpt lat="45.75145" lon="4.84755">
        <ele>173.60000610352</ele>
        <time>2024-05-20T14:24:54.000Z</time>
      </trkpt>
      <trkpt lat="45.75141" lon="4.8476">
        <ele>173.60000610352</ele>
        <time>2024-05-20T14:24:55.000Z</time>
      </trkpt>
      <trkpt lat="45.75138" lon="4.84766">
        <ele>173.60000610352</ele>
        <time>2024-05-20T14:24:56.000Z</time>
      </trkpt>
      <trkpt lat="45.75135" lon="4.84771">
        <ele>173.60000610352</ele>
        <time>2024-05-20T14:24:57.000Z</time>
      </trkpt>
      <trkpt lat="45.75132" lon="4.84776">
        <ele>173.60000610352</ele>
        <time>2024-05-20T14:24:58.000Z</time>
      </trkpt>
      <trkpt lat="45.75128" lon="4.84782">
        <ele>173.60000610352</ele>
        <time>2024-05-20T14:24:59.000Z</time>
      </trkpt>
      <trkpt lat="45.75123" lon="4.84789">
        <ele>173.60000610352</ele>
        <time>2024-05-20T14:25:00.000Z</time>
      </trkpt>
      <trkpt lat="45.75119" lon="4.84795">
        <ele>173.60000610352</ele>
        <time>2024-05-20T14:25:01.000Z</time>
      </trkpt>
      <trkpt lat="45.75116" lon="4.848">
        <ele>173.60000610352</ele>
        <time>2024-05-20T14:25:02.000Z</time>
      </trkpt>
      <trkpt lat="45.75113" lon="4.84806">
        <ele>173.60000610352</ele>
        <time>2024-05-20T14:25:03.000Z</time>
      </trkpt>
      <trkpt lat="45.75109" lon="4.84811">
        <ele>173.60000610352</ele>
        <time>2024-05-20T14:25:04.000Z</time>
      </trkpt>
      <trkpt lat="45.75106" lon="4.84816">
        <ele>173.60000610352</ele>
        <time>2024-05-20T14:25:05.000Z</time>
      </trkpt>
      <trkpt lat="45.75103" lon="4.84821">
        <ele>173.39999389648</ele>
        <time>2024-05-20T14:25:06.000Z</time>
      </trkpt>
      <trkpt lat="45.75101" lon="4.84826">
        <ele>173.19999694824</ele>
        <time>2024-05-20T14:25:07.000Z</time>
      </trkpt>
      <trkpt lat="45.75098" lon="4.84829">
        <ele>173.19999694824</ele>
        <time>2024-05-20T14:25:08.000Z</time>
      </trkpt>
      <trkpt lat="45.75095" lon="4.84832">
        <ele>173.19999694824</ele>
        <time>2024-05-20T14:25:09.000Z</time>
      </trkpt>
      <trkpt lat="45.75093" lon="4.84836">
        <ele>173.19999694824</ele>
        <time>2024-05-20T14:25:10.000Z</time>
      </trkpt>
      <trkpt lat="45.7509" lon="4.8484">
        <ele>173.19999694824</ele>
        <time>2024-05-20T14:25:11.000Z</time>
      </trkpt>
      <trkpt lat="45.75088" lon="4.84845">
        <ele>173.19999694824</ele>
        <time>2024-05-20T14:25:12.000Z</time>
      </trkpt>
      <trkpt lat="45.75086" lon="4.8485">
        <ele>173.19999694824</ele>
        <time>2024-05-20T14:25:13.000Z</time>
      </trkpt>
      <trkpt lat="45.75084" lon="4.84855">
        <ele>173</ele>
        <time>2024-05-20T14:25:14.000Z</time>
      </trkpt>
      <trkpt lat="45.75082" lon="4.84861">
        <ele>172.80000305176</ele>
        <time>2024-05-20T14:25:15.000Z</time>
      </trkpt>
      <trkpt lat="45.7508" lon="4.84867">
        <ele>172.60000610352</ele>
        <time>2024-05-20T14:25:16.000Z</time>
      </trkpt>
      <trkpt lat="45.75078" lon="4.84873">
        <ele>172.60000610352</ele>
        <time>2024-05-20T14:25:17.000Z</time>
      </trkpt>
      <trkpt lat="45.75077" lon="4.84879">
        <ele>172.60000610352</ele>
        <time>2024-05-20T14:25:18.000Z</time>
      </trkpt>
      <trkpt lat="45.75075" lon="4.84886">
        <ele>172.60000610352</ele>
        <time>2024-05-20T14:25:19.000Z</time>
      </trkpt>
      <trkpt lat="45.75073" lon="4.84893">
        <ele>172.60000610352</ele>
        <time>2024-05-20T14:25:20.000Z</time>
      </trkpt>
      <trkpt lat="45.75071" lon="4.84899">
        <ele>172.80000305176</ele>
        <time>2024-05-20T14:25:21.000Z</time>
      </trkpt>
      <trkpt lat="45.75068" lon="4.84905">
        <ele>172.80000305176</ele>
        <time>2024-05-20T14:25:22.000Z</time>
      </trkpt>
      <trkpt lat="45.75067" lon="4.84912">
        <ele>173</ele>
        <time>2024-05-20T14:25:23.000Z</time>
      </trkpt>
      <trkpt lat="45.75066" lon="4.84918">
        <ele>173</ele>
        <time>2024-05-20T14:25:24.000Z</time>
      </trkpt>
      <trkpt lat="45.75064" lon="4.84925">
        <ele>173</ele>
        <time>2024-05-20T14:25:25.000Z</time>
      </trkpt>
      <trkpt lat="45.75062" lon="4.84931">
        <ele>173</ele>
        <time>2024-05-20T14:25:26.000Z</time>
      </trkpt>
      <trkpt lat="45.75061" lon="4.84938">
        <ele>173.19999694824</ele>
        <time>2024-05-20T14:25:27.000Z</time>
      </trkpt>
      <trkpt lat="45.7506" lon="4.84944">
        <ele>173.19999694824</ele>
        <time>2024-05-20T14:25:28.000Z</time>
      </trkpt>
      <trkpt lat="45.75058" lon="4.8495">
        <ele>173.19999694824</ele>
        <time>2024-05-20T14:25:29.000Z</time>
      </trkpt>
      <trkpt lat="45.75056" lon="4.84956">
        <ele>173.19999694824</ele>
        <time>2024-05-20T14:25:30.000Z</time>
      </trkpt>
      <trkpt lat="45.75054" lon="4.84962">
        <ele>173.39999389648</ele>
        <time>2024-05-20T14:25:31.000Z</time>
      </trkpt>
      <trkpt lat="45.75051" lon="4.84968">
        <ele>173.80000305176</ele>
        <time>2024-05-20T14:25:32.000Z</time>
      </trkpt>
      <trkpt lat="45.75049" lon="4.84974">
        <ele>173.80000305176</ele>
        <time>2024-05-20T14:25:33.000Z</time>
      </trkpt>
      <trkpt lat="45.75046" lon="4.84979">
        <ele>173.80000305176</ele>
        <time>2024-05-20T14:25:34.000Z</time>
      </trkpt>
      <trkpt lat="45.75044" lon="4.84986">
        <ele>174</ele>
        <time>2024-05-20T14:25:35.000Z</time>
      </trkpt>
      <trkpt lat="45.75042" lon="4.84991">
        <ele>174.19999694824</ele>
        <time>2024-05-20T14:25:36.000Z</time>
      </trkpt>
      <trkpt lat="45.75039" lon="4.84996">
        <ele>174.19999694824</ele>
        <time>2024-05-20T14:25:37.000Z</time>
      </trkpt>
      <trkpt lat="45.75037" lon="4.85001">
        <ele>174.60000610352</ele>
        <time>2024-05-20T14:25:38.000Z</time>
      </trkpt>
      <trkpt lat="45.75035" lon="4.85005">
        <ele>174.60000610352</ele>
        <time>2024-05-20T14:25:39.000Z</time>
      </trkpt>
      <trkpt lat="45.75033" lon="4.85012">
        <ele>174.60000610352</ele>
        <time>2024-05-20T14:25:40.000Z</time>
      </trkpt>
      <trkpt lat="45.75031" lon="4.85018">
        <ele>174.60000610352</ele>
        <time>2024-05-20T14:25:41.000Z</time>
      </trkpt>
      <trkpt lat="45.75029" lon="4.85022">
        <ele>174.60000610352</ele>
        <time>2024-05-20T14:25:42.000Z</time>
      </trkpt>
      <trkpt lat="45.75027" lon="4.85029">
        <ele>174.60000610352</ele>
        <time>2024-05-20T14:25:43.000Z</time>
      </trkpt>
      <trkpt lat="45.75025" lon="4.85035">
        <ele>174.60000610352</ele>
        <time>2024-05-20T14:25:44.000Z</time>
      </trkpt>
      <trkpt lat="45.75023" lon="4.85041">
        <ele>174.60000610352</ele>
        <time>2024-05-20T14:25:45.000Z</time>
      </trkpt>
      <trkpt lat="45.7502" lon="4.85047">
        <ele>174.60000610352</ele>
        <time>2024-05-20T14:25:46.000Z</time>
      </trkpt>
      <trkpt lat="45.75019" lon="4.85053">
        <ele>174.60000610352</ele>
        <time>2024-05-20T14:25:47.000Z</time>
      </trkpt>
      <trkpt lat="45.75018" lon="4.85057">
        <ele>174.60000610352</ele>
        <time>2024-05-20T14:25:48.000Z</time>
      </trkpt>
      <trkpt lat="45.75017" lon="4.85063">
        <ele>174.80000305176</ele>
        <time>2024-05-20T14:25:49.000Z</time>
      </trkpt>
      <trkpt lat="45.75015" lon="4.8507">
        <ele>174.80000305176</ele>
        <time>2024-05-20T14:25:50.000Z</time>
      </trkpt>
      <trkpt lat="45.75014" lon="4.85076">
        <ele>174.80000305176</ele>
        <time>2024-05-20T14:25:51.000Z</time>
      </trkpt>
      <trkpt lat="45.75012" lon="4.85082">
        <ele>174.80000305176</ele>
        <time>2024-05-20T14:25:52.000Z</time>
      </trkpt>
      <trkpt lat="45.75011" lon="4.85088">
        <ele>175</ele>
        <time>2024-05-20T14:25:53.000Z</time>
      </trkpt>
      <trkpt lat="45.75009" lon="4.85093">
        <ele>175</ele>
        <time>2024-05-20T14:25:54.000Z</time>
      </trkpt>
      <trkpt lat="45.75008" lon="4.85099">
        <ele>175</ele>
        <time>2024-05-20T14:25:55.000Z</time>
      </trkpt>
      <trkpt lat="45.75006" lon="4.85105">
        <ele>175</ele>
        <time>2024-05-20T14:25:56.000Z</time>
      </trkpt>
      <trkpt lat="45.75004" lon="4.8511">
        <ele>175.19999694824</ele>
        <time>2024-05-20T14:25:57.000Z</time>
      </trkpt>
      <trkpt lat="45.75003" lon="4.85116">
        <ele>175.19999694824</ele>
        <time>2024-05-20T14:25:58.000Z</time>
      </trkpt>
      <trkpt lat="45.75002" lon="4.8512">
        <ele>175.39999389648</ele>
        <time>2024-05-20T14:25:59.000Z</time>
      </trkpt>
      <trkpt lat="45.75" lon="4.85125">
        <ele>175.39999389648</ele>
        <time>2024-05-20T14:26:00.000Z</time>
      </trkpt>
      <trkpt lat="45.74998" lon="4.85129">
        <ele>175.60000610352</ele>
        <time>2024-05-20T14:26:01.000Z</time>
      </trkpt>
      <trkpt lat="45.74996" lon="4.85134">
        <ele>175.80000305176</ele>
        <time>2024-05-20T14:26:02.000Z</time>
      </trkpt>
      <trkpt lat="45.74994" lon="4.85138">
        <ele>176.19999694824</ele>
        <time>2024-05-20T14:26:03.000Z</time>
      </trkpt>
      <trkpt lat="45.74993" lon="4.85143">
        <ele>176.60000610352</ele>
        <time>2024-05-20T14:26:04.000Z</time>
      </trkpt>
      <trkpt lat="45.74992" lon="4.85149">
        <ele>176.60000610352</ele>
        <time>2024-05-20T14:26:05.000Z</time>
      </trkpt>
      <trkpt lat="45.74991" lon="4.85155">
        <ele>176.80000305176</ele>
        <time>2024-05-20T14:26:06.000Z</time>
      </trkpt>
      <trkpt lat="45.7499" lon="4.8516">
        <ele>176.80000305176</ele>
        <time>2024-05-20T14:26:07.000Z</time>
      </trkpt>
      <trkpt lat="45.74989" lon="4.85166">
        <ele>176.80000305176</ele>
        <time>2024-05-20T14:26:08.000Z</time>
      </trkpt>
      <trkpt lat="45.74988" lon="4.8517">
        <ele>176.80000305176</ele>
        <time>2024-05-20T14:26:09.000Z</time>
      </trkpt>
      <trkpt lat="45.74986" lon="4.85177">
        <ele>176.80000305176</ele>
        <time>2024-05-20T14:26:10.000Z</time>
      </trkpt>
      <trkpt lat="45.74985" lon="4.85183">
        <ele>176.80000305176</ele>
        <time>2024-05-20T14:26:11.000Z</time>
      </trkpt>
      <trkpt lat="45.74984" lon="4.85187">
        <ele>176.80000305176</ele>
        <time>2024-05-20T14:26:12.000Z</time>
      </trkpt>
      <trkpt lat="45.74983" lon="4.8519">
        <ele>176.80000305176</ele>
        <time>2024-05-20T14:26:13.000Z</time>
      </trkpt>
      <trkpt lat="45.74983" lon="4.85193">
        <ele>176.80000305176</ele>
        <time>2024-05-20T14:26:14.000Z</time>
      </trkpt>
      <trkpt lat="45.74982" lon="4.85196">
        <ele>176.60000610352</ele>
        <time>2024-05-20T14:26:15.000Z</time>
      </trkpt>
      <trkpt lat="45.74982" lon="4.85199">
        <ele>176.60000610352</ele>
        <time>2024-05-20T14:26:16.000Z</time>
      </trkpt>
      <trkpt lat="45.74981" lon="4.85201">
        <ele>176.60000610352</ele>
        <time>2024-05-20T14:26:17.000Z</time>
      </trkpt>
      <trkpt lat="45.74981" lon="4.85201">
        <ele>176.60000610352</ele>
        <time>2024-05-20T14:26:18.000Z</time>
      </trkpt>
      <trkpt lat="45.74981" lon="4.85201">
        <ele>176.60000610352</ele>
        <time>2024-05-20T14:26:19.000Z</time>
      </trkpt>
      <trkpt lat="45.74981" lon="4.85201">
        <ele>176.60000610352</ele>
        <time>2024-05-20T14:26:20.000Z</time>
      </trkpt>
      <trkpt lat="45.74979" lon="4.85209">
        <ele>176.60000610352</ele>
        <time>2024-05-20T14:27:10.000Z</time>
      </trkpt>
      <trkpt lat="45.74978" lon="4.85212">
        <ele>176.60000610352</ele>
        <time>2024-05-20T14:27:11.000Z</time>
      </trkpt>
      <trkpt lat="45.74977" lon="4.85217">
        <ele>176.60000610352</ele>
        <time>2024-05-20T14:27:12.000Z</time>
      </trkpt>
      <trkpt lat="45.74975" lon="4.85221">
        <ele>176.39999389648</ele>
        <time>2024-05-20T14:27:13.000Z</time>
      </trkpt>
      <trkpt lat="45.74973" lon="4.85227">
        <ele>176.39999389648</ele>
        <time>2024-05-20T14:27:14.000Z</time>
      </trkpt>
      <trkpt lat="45.7497" lon="4.85232">
        <ele>176.39999389648</ele>
        <time>2024-05-20T14:27:15.000Z</time>
      </trkpt>
      <trkpt lat="45.74968" lon="4.85237">
        <ele>176.19999694824</ele>
        <time>2024-05-20T14:27:16.000Z</time>
      </trkpt>
      <trkpt lat="45.74966" lon="4.85242">
        <ele>176</ele>
        <time>2024-05-20T14:27:17.000Z</time>
      </trkpt>
      <trkpt lat="45.74963" lon="4.85248">
        <ele>176</ele>
        <time>2024-05-20T14:27:18.000Z</time>
      </trkpt>
      <trkpt lat="45.7496" lon="4.85253">
        <ele>175.80000305176</ele>
        <time>2024-05-20T14:27:19.000Z</time>
      </trkpt>
      <trkpt lat="45.74956" lon="4.85258">
        <ele>175.80000305176</ele>
        <time>2024-05-20T14:27:20.000Z</time>
      </trkpt>
      <trkpt lat="45.74952" lon="4.85263">
        <ele>175.80000305176</ele>
        <time>2024-05-20T14:27:21.000Z</time>
      </trkpt>
      <trkpt lat="45.74949" lon="4.85269">
        <ele>175.80000305176</ele>
        <time>2024-05-20T14:27:22.000Z</time>
      </trkpt>
      <trkpt lat="45.74946" lon="4.85275">
        <ele>175.80000305176</ele>
        <time>2024-05-20T14:27:23.000Z</time>
      </trkpt>
      <trkpt lat="45.74944" lon="4.85281">
        <ele>175.80000305176</ele>
        <time>2024-05-20T14:27:24.000Z</time>
      </trkpt>
      <trkpt lat="45.74942" lon="4.85287">
        <ele>175.80000305176</ele>
        <time>2024-05-20T14:27:25.000Z</time>
      </trkpt>
      <trkpt lat="45.7494" lon="4.85291">
        <ele>175.80000305176</ele>
        <time>2024-05-20T14:27:26.000Z</time>
      </trkpt>
      <trkpt lat="45.74938" lon="4.85297">
        <ele>176</ele>
        <time>2024-05-20T14:27:27.000Z</time>
      </trkpt>
      <trkpt lat="45.74936" lon="4.85304">
        <ele>176</ele>
        <time>2024-05-20T14:27:28.000Z</time>
      </trkpt>
      <trkpt lat="45.74935" lon="4.8531">
        <ele>176.19999694824</ele>
        <time>2024-05-20T14:27:29.000Z</time>
      </trkpt>
      <trkpt lat="45.74935" lon="4.85314">
        <ele>176.39999389648</ele>
        <time>2024-05-20T14:27:30.000Z</time>
      </trkpt>
      <trkpt lat="45.74933" lon="4.85318">
        <ele>176.60000610352</ele>
        <time>2024-05-20T14:27:31.000Z</time>
      </trkpt>
      <trkpt lat="45.7493" lon="4.85322">
        <ele>176.60000610352</ele>
        <time>2024-05-20T14:27:32.000Z</time>
      </trkpt>
      <trkpt lat="45.74926" lon="4.85324">
        <ele>176.60000610352</ele>
        <time>2024-05-20T14:27:33.000Z</time>
      </trkpt>
      <trkpt lat="45.74923" lon="4.85328">
        <ele>176.60000610352</ele>
        <time>2024-05-20T14:27:34.000Z</time>
      </trkpt>
      <trkpt lat="45.74922" lon="4.8533">
        <ele>176.60000610352</ele>
        <time>2024-05-20T14:27:35.000Z</time>
      </trkpt>
      <trkpt lat="45.74921" lon="4.8533">
        <ele>176.60000610352</ele>
        <time>2024-05-20T14:27:36.000Z</time>
      </trkpt>
      <trkpt lat="45.74921" lon="4.8533">
        <ele>176.60000610352</ele>
        <time>2024-05-20T14:27:37.000Z</time>
      </trkpt>
      <trkpt lat="45.74913" lon="4.8534">
        <ele>177.19999694824</ele>
        <time>2024-05-20T14:28:03.000Z</time>
      </trkpt>
      <trkpt lat="45.74911" lon="4.85344">
        <ele>177</ele>
        <time>2024-05-20T14:28:04.000Z</time>
      </trkpt>
      <trkpt lat="45.74908" lon="4.85347">
        <ele>176.80000305176</ele>
        <time>2024-05-20T14:28:05.000Z</time>
      </trkpt>
      <trkpt lat="45.74905" lon="4.85352">
        <ele>176.60000610352</ele>
        <time>2024-05-20T14:28:06.000Z</time>
      </trkpt>
      <trkpt lat="45.74901" lon="4.85356">
        <ele>176.39999389648</ele>
        <time>2024-05-20T14:28:07.000Z</time>
      </trkpt>
      <trkpt lat="45.74898" lon="4.85361">
        <ele>176.39999389648</ele>
        <time>2024-05-20T14:28:08.000Z</time>
      </trkpt>
      <trkpt lat="45.74895" lon="4.85366">
        <ele>176.39999389648</ele>
        <time>2024-05-20T14:28:09.000Z</time>
      </trkpt>
      <trkpt lat="45.74891" lon="4.85371">
        <ele>176.39999389648</ele>
        <time>2024-05-20T14:28:10.000Z</time>
      </trkpt>
      <trkpt lat="45.74888" lon="4.85377">
        <ele>176.39999389648</ele>
        <time>2024-05-20T14:28:11.000Z</time>
      </trkpt>
      <trkpt lat="45.74885" lon="4.85382">
        <ele>176.39999389648</ele>
        <time>2024-05-20T14:28:12.000Z</time>
      </trkpt>
      <trkpt lat="45.74883" lon="4.85386">
        <ele>176.39999389648</ele>
        <time>2024-05-20T14:28:13.000Z</time>
      </trkpt>
      <trkpt lat="45.74879" lon="4.85393">
        <ele>176.39999389648</ele>
        <time>2024-05-20T14:28:14.000Z</time>
      </trkpt>
      <trkpt lat="45.74877" lon="4.85399">
        <ele>176.39999389648</ele>
        <time>2024-05-20T14:28:15.000Z</time>
      </trkpt>
      <trkpt lat="45.74874" lon="4.85405">
        <ele>176.39999389648</ele>
        <time>2024-05-20T14:28:16.000Z</time>
      </trkpt>
      <trkpt lat="45.74871" lon="4.85411">
        <ele>176.39999389648</ele>
        <time>2024-05-20T14:28:17.000Z</time>
      </trkpt>
      <trkpt lat="45.74868" lon="4.85416">
        <ele>176.39999389648</ele>
        <time>2024-05-20T14:28:18.000Z</time>
      </trkpt>
      <trkpt lat="45.74866" lon="4.85422">
        <ele>176.39999389648</ele>
        <time>2024-05-20T14:28:19.000Z</time>
      </trkpt>
      <trkpt lat="45.74864" lon="4.85428">
        <ele>176.39999389648</ele>
        <time>2024-05-20T14:28:20.000Z</time>
      </trkpt>
      <trkpt lat="45.74863" lon="4.85434">
        <ele>176.60000610352</ele>
        <time>2024-05-20T14:28:21.000Z</time>
      </trkpt>
      <trkpt lat="45.74861" lon="4.8544">
        <ele>176.80000305176</ele>
        <time>2024-05-20T14:28:22.000Z</time>
      </trkpt>
      <trkpt lat="45.7486" lon="4.85445">
        <ele>177</ele>
        <time>2024-05-20T14:28:23.000Z</time>
      </trkpt>
      <trkpt lat="45.74858" lon="4.85451">
        <ele>177</ele>
        <time>2024-05-20T14:28:24.000Z</time>
      </trkpt>
      <trkpt lat="45.74855" lon="4.85456">
        <ele>177</ele>
        <time>2024-05-20T14:28:25.000Z</time>
      </trkpt>
      <trkpt lat="45.74853" lon="4.85461">
        <ele>177.19999694824</ele>
        <time>2024-05-20T14:28:26.000Z</time>
      </trkpt>
      <trkpt lat="45.7485" lon="4.85466">
        <ele>177.39999389648</ele>
        <time>2024-05-20T14:28:27.000Z</time>
      </trkpt>
      <trkpt lat="45.74847" lon="4.85471">
        <ele>177.39999389648</ele>
        <time>2024-05-20T14:28:28.000Z</time>
      </trkpt>
      <trkpt lat="45.74844" lon="4.85474">
        <ele>177.39999389648</ele>
        <time>2024-05-20T14:28:29.000Z</time>
      </trkpt>
      <trkpt lat="45.74842" lon="4.85479">
        <ele>177.39999389648</ele>
        <time>2024-05-20T14:28:30.000Z</time>
      </trkpt>
      <trkpt lat="45.74839" lon="4.85483">
        <ele>177.39999389648</ele>
        <time>2024-05-20T14:28:31.000Z</time>
      </trkpt>
      <trkpt lat="45.74837" lon="4.85487">
        <ele>177.39999389648</ele>
        <time>2024-05-20T14:28:32.000Z</time>
      </trkpt>
      <trkpt lat="45.74835" lon="4.85491">
        <ele>177.39999389648</ele>
        <time>2024-05-20T14:28:33.000Z</time>
      </trkpt>
      <trkpt lat="45.74834" lon="4.85495">
        <ele>177.60000610352</ele>
        <time>2024-05-20T14:28:34.000Z</time>
      </trkpt>
      <trkpt lat="45.74832" lon="4.85502">
        <ele>177.60000610352</ele>
        <time>2024-05-20T14:28:35.000Z</time>
      </trkpt>
      <trkpt lat="45.7483" lon="4.85508">
        <ele>177.60000610352</ele>
        <time>2024-05-20T14:28:36.000Z</time>
      </trkpt>
      <trkpt lat="45.74828" lon="4.85514">
        <ele>177.60000610352</ele>
        <time>2024-05-20T14:28:37.000Z</time>
      </trkpt>
      <trkpt lat="45.74827" lon="4.85519">
        <ele>177.80000305176</ele>
        <time>2024-05-20T14:28:38.000Z</time>
      </trkpt>
      <trkpt lat="45.74826" lon="4.85525">
        <ele>178.19999694824</ele>
        <time>2024-05-20T14:28:39.000Z</time>
      </trkpt>
      <trkpt lat="45.74824" lon="4.85531">
        <ele>178.19999694824</ele>
        <time>2024-05-20T14:28:40.000Z</time>
      </trkpt>
      <trkpt lat="45.74823" lon="4.85536">
        <ele>178.39999389648</ele>
        <time>2024-05-20T14:28:41.000Z</time>
      </trkpt>
      <trkpt lat="45.74821" lon="4.85543">
        <ele>178.60000610352</ele>
        <time>2024-05-20T14:28:42.000Z</time>
      </trkpt>
      <trkpt lat="45.7482" lon="4.85548">
        <ele>178.80000305176</ele>
        <time>2024-05-20T14:28:43.000Z</time>
      </trkpt>
      <trkpt lat="45.74818" lon="4.85554">
        <ele>178.80000305176</ele>
        <time>2024-05-20T14:28:44.000Z</time>
      </trkpt>
      <trkpt lat="45.74817" lon="4.85559">
        <ele>178.80000305176</ele>
        <time>2024-05-20T14:28:45.000Z</time>
      </trkpt>
      <trkpt lat="45.74815" lon="4.85564">
        <ele>178.80000305176</ele>
        <time>2024-05-20T14:28:46.000Z</time>
      </trkpt>
      <trkpt lat="45.74814" lon="4.85569">
        <ele>179</ele>
        <time>2024-05-20T14:28:47.000Z</time>
      </trkpt>
      <trkpt lat="45.74813" lon="4.85575">
        <ele>179</ele>
        <time>2024-05-20T14:28:48.000Z</time>
      </trkpt>
      <trkpt lat="45.74812" lon="4.85581">
        <ele>179</ele>
        <time>2024-05-20T14:28:49.000Z</time>
      </trkpt>
      <trkpt lat="45.74811" lon="4.85587">
        <ele>179.19999694824</ele>
        <time>2024-05-20T14:28:50.000Z</time>
      </trkpt>
      <trkpt lat="45.74809" lon="4.85594">
        <ele>179.19999694824</ele>
        <time>2024-05-20T14:28:51.000Z</time>
      </trkpt>
      <trkpt lat="45.74807" lon="4.85599">
        <ele>179.39999389648</ele>
        <time>2024-05-20T14:28:52.000Z</time>
      </trkpt>
      <trkpt lat="45.74803" lon="4.85606">
        <ele>179.39999389648</ele>
        <time>2024-05-20T14:28:53.000Z</time>
      </trkpt>
      <trkpt lat="45.748" lon="4.85608">
        <ele>179.60000610352</ele>
        <time>2024-05-20T14:28:54.000Z</time>
      </trkpt>
      <trkpt lat="45.74797" lon="4.85611">
        <ele>179.60000610352</ele>
        <time>2024-05-20T14:28:55.000Z</time>
      </trkpt>
      <trkpt lat="45.74793" lon="4.85616">
        <ele>179.80000305176</ele>
        <time>2024-05-20T14:28:56.000Z</time>
      </trkpt>
      <trkpt lat="45.74789" lon="4.85618">
        <ele>179.80000305176</ele>
        <time>2024-05-20T14:28:57.000Z</time>
      </trkpt>
      <trkpt lat="45.74788" lon="4.85622">
        <ele>179.80000305176</ele>
        <time>2024-05-20T14:28:58.000Z</time>
      </trkpt>
      <trkpt lat="45.74787" lon="4.85626">
        <ele>179.80000305176</ele>
        <time>2024-05-20T14:28:59.000Z</time>
      </trkpt>
      <trkpt lat="45.74786" lon="4.85634">
        <ele>180</ele>
        <time>2024-05-20T14:29:00.000Z</time>
      </trkpt>
      <trkpt lat="45.74786" lon="4.85638">
        <ele>180</ele>
        <time>2024-05-20T14:29:01.000Z</time>
      </trkpt>
      <trkpt lat="45.74785" lon="4.85646">
        <ele>180.19999694824</ele>
        <time>2024-05-20T14:29:02.000Z</time>
      </trkpt>
      <trkpt lat="45.74783" lon="4.85651">
        <ele>180.19999694824</ele>
        <time>2024-05-20T14:29:03.000Z</time>
      </trkpt>
      <trkpt lat="45.74782" lon="4.85656">
        <ele>180.19999694824</ele>
        <time>2024-05-20T14:29:04.000Z</time>
      </trkpt>
      <trkpt lat="45.74781" lon="4.85662">
        <ele>180.19999694824</ele>
        <time>2024-05-20T14:29:05.000Z</time>
      </trkpt>
      <trkpt lat="45.7478" lon="4.85667">
        <ele>180.39999389648</ele>
        <time>2024-05-20T14:29:06.000Z</time>
      </trkpt>
      <trkpt lat="45.74778" lon="4.85673">
        <ele>180.39999389648</ele>
        <time>2024-05-20T14:29:07.000Z</time>
      </trkpt>
      <trkpt lat="45.74777" lon="4.85678">
        <ele>180.39999389648</ele>
        <time>2024-05-20T14:29:08.000Z</time>
      </trkpt>
      <trkpt lat="45.74776" lon="4.85684">
        <ele>180.39999389648</ele>
        <time>2024-05-20T14:29:09.000Z</time>
      </trkpt>
      <trkpt lat="45.74774" lon="4.8569">
        <ele>180.60000610352</ele>
        <time>2024-05-20T14:29:10.000Z</time>
      </trkpt>
      <trkpt lat="45.74773" lon="4.85695">
        <ele>180.60000610352</ele>
        <time>2024-05-20T14:29:11.000Z</time>
      </trkpt>
      <trkpt lat="45.74771" lon="4.85701">
        <ele>180.80000305176</ele>
        <time>2024-05-20T14:29:12.000Z</time>
      </trkpt>
      <trkpt lat="45.74769" lon="4.85707">
        <ele>180.80000305176</ele>
        <time>2024-05-20T14:29:13.000Z</time>
      </trkpt>
      <trkpt lat="45.74768" lon="4.85713">
        <ele>181</ele>
        <time>2024-05-20T14:29:14.000Z</time>
      </trkpt>
      <trkpt lat="45.74766" lon="4.85719">
        <ele>181.19999694824</ele>
        <time>2024-05-20T14:29:15.000Z</time>
      </trkpt>
      <trkpt lat="45.74765" lon="4.85725">
        <ele>181.19999694824</ele>
        <time>2024-05-20T14:29:16.000Z</time>
      </trkpt>
      <trkpt lat="45.74763" lon="4.85731">
        <ele>181.39999389648</ele>
        <time>2024-05-20T14:29:17.000Z</time>
      </trkpt>
      <trkpt lat="45.74762" lon="4.85737">
        <ele>181.39999389648</ele>
        <time>2024-05-20T14:29:18.000Z</time>
      </trkpt>
      <trkpt lat="45.74761" lon="4.85743">
        <ele>181.39999389648</ele>
        <time>2024-05-20T14:29:19.000Z</time>
      </trkpt>
      <trkpt lat="45.74759" lon="4.85748">
        <ele>181.39999389648</ele>
        <time>2024-05-20T14:29:20.000Z</time>
      </trkpt>
      <trkpt lat="45.74757" lon="4.85754">
        <ele>181.39999389648</ele>
        <time>2024-05-20T14:29:21.000Z</time>
      </trkpt>
      <trkpt lat="45.74754" lon="4.8576">
        <ele>181.39999389648</ele>
        <time>2024-05-20T14:29:22.000Z</time>
      </trkpt>
      <trkpt lat="45.74751" lon="4.85766">
        <ele>181.39999389648</ele>
        <time>2024-05-20T14:29:23.000Z</time>
      </trkpt>
      <trkpt lat="45.7475" lon="4.85771">
        <ele>181.39999389648</ele>
        <time>2024-05-20T14:29:24.000Z</time>
      </trkpt>
      <trkpt lat="45.74748" lon="4.85778">
        <ele>181.39999389648</ele>
        <time>2024-05-20T14:29:25.000Z</time>
      </trkpt>
      <trkpt lat="45.74746" lon="4.85783">
        <ele>181.60000610352</ele>
        <time>2024-05-20T14:29:26.000Z</time>
      </trkpt>
      <trkpt lat="45.74745" lon="4.85788">
        <ele>181.60000610352</ele>
        <time>2024-05-20T14:29:27.000Z</time>
      </trkpt>
      <trkpt lat="45.74743" lon="4.85795">
        <ele>181.60000610352</ele>
        <time>2024-05-20T14:29:28.000Z</time>
      </trkpt>
      <trkpt lat="45.74741" lon="4.85801">
        <ele>181.60000610352</ele>
        <time>2024-05-20T14:29:29.000Z</time>
      </trkpt>
      <trkpt lat="45.7474" lon="4.85807">
        <ele>181.60000610352</ele>
        <time>2024-05-20T14:29:30.000Z</time>
      </trkpt>
      <trkpt lat="45.74739" lon="4.85812">
        <ele>181.60000610352</ele>
        <time>2024-05-20T14:29:31.000Z</time>
      </trkpt>
      <trkpt lat="45.74737" lon="4.85819">
        <ele>181.60000610352</ele>
        <time>2024-05-20T14:29:32.000Z</time>
      </trkpt>
      <trkpt lat="45.74737" lon="4.85825">
        <ele>181.60000610352</ele>
        <time>2024-05-20T14:29:33.000Z</time>
      </trkpt>
      <trkpt lat="45.74736" lon="4.85831">
        <ele>181.80000305176</ele>
        <time>2024-05-20T14:29:34.000Z</time>
      </trkpt>
      <trkpt lat="45.74735" lon="4.85837">
        <ele>181.80000305176</ele>
        <time>2024-05-20T14:29:35.000Z</time>
      </trkpt>
      <trkpt lat="45.74733" lon="4.85842">
        <ele>181.80000305176</ele>
        <time>2024-05-20T14:29:36.000Z</time>
      </trkpt>
      <trkpt lat="45.74733" lon="4.85848">
        <ele>181.80000305176</ele>
        <time>2024-05-20T14:29:37.000Z</time>
      </trkpt>
      <trkpt lat="45.74735" lon="4.85854">
        <ele>181.80000305176</ele>
        <time>2024-05-20T14:29:38.000Z</time>
      </trkpt>
      <trkpt lat="45.74735" lon="4.85859">
        <ele>182.19999694824</ele>
        <time>2024-05-20T14:29:39.000Z</time>
      </trkpt>
      <trkpt lat="45.74735" lon="4.85866">
        <ele>182.19999694824</ele>
        <time>2024-05-20T14:29:40.000Z</time>
      </trkpt>
      <trkpt lat="45.74735" lon="4.85871">
        <ele>182.80000305176</ele>
        <time>2024-05-20T14:29:41.000Z</time>
      </trkpt>
      <trkpt lat="45.74733" lon="4.85875">
        <ele>182.80000305176</ele>
        <time>2024-05-20T14:29:42.000Z</time>
      </trkpt>
      <trkpt lat="45.74731" lon="4.8588">
        <ele>182.80000305176</ele>
        <time>2024-05-20T14:29:43.000Z</time>
      </trkpt>
      <trkpt lat="45.74728" lon="4.85884">
        <ele>182.80000305176</ele>
        <time>2024-05-20T14:29:44.000Z</time>
      </trkpt>
      <trkpt lat="45.74726" lon="4.85887">
        <ele>182.80000305176</ele>
        <time>2024-05-20T14:29:45.000Z</time>
      </trkpt>
      <trkpt lat="45.74725" lon="4.85893">
        <ele>182.80000305176</ele>
        <time>2024-05-20T14:29:46.000Z</time>
      </trkpt>
      <trkpt lat="45.74724" lon="4.85898">
        <ele>182.80000305176</ele>
        <time>2024-05-20T14:29:47.000Z</time>
      </trkpt>
      <trkpt lat="45.74723" lon="4.85903">
        <ele>183</ele>
        <time>2024-05-20T14:29:48.000Z</time>
      </trkpt>
      <trkpt lat="45.74722" lon="4.85907">
        <ele>183.19999694824</ele>
        <time>2024-05-20T14:29:49.000Z</time>
      </trkpt>
      <trkpt lat="45.74721" lon="4.85912">
        <ele>183.19999694824</ele>
        <time>2024-05-20T14:29:50.000Z</time>
      </trkpt>
      <trkpt lat="45.7472" lon="4.85915">
        <ele>183.19999694824</ele>
        <time>2024-05-20T14:29:51.000Z</time>
      </trkpt>
      <trkpt lat="45.74719" lon="4.85919">
        <ele>183.39999389648</ele>
        <time>2024-05-20T14:29:52.000Z</time>
      </trkpt>
      <trkpt lat="45.74719" lon="4.85923">
        <ele>183.39999389648</ele>
        <time>2024-05-20T14:29:53.000Z</time>
      </trkpt>
      <trkpt lat="45.74718" lon="4.85926">
        <ele>183.60000610352</ele>
        <time>2024-05-20T14:29:54.000Z</time>
      </trkpt>
      <trkpt lat="45.74717" lon="4.85931">
        <ele>183.60000610352</ele>
        <time>2024-05-20T14:29:55.000Z</time>
      </trkpt>
      <trkpt lat="45.74716" lon="4.85935">
        <ele>183.60000610352</ele>
        <time>2024-05-20T14:29:56.000Z</time>
      </trkpt>
      <trkpt lat="45.74715" lon="4.85938">
        <ele>183.60000610352</ele>
        <time>2024-05-20T14:29:57.000Z</time>
      </trkpt>
      <trkpt lat="45.74714" lon="4.85942">
        <ele>183.60000610352</ele>
        <time>2024-05-20T14:29:58.000Z</time>
      </trkpt>
      <trkpt lat="45.74714" lon="4.85947">
        <ele>183.60000610352</ele>
        <time>2024-05-20T14:29:59.000Z</time>
      </trkpt>
      <trkpt lat="45.74713" lon="4.85949">
        <ele>183.60000610352</ele>
        <time>2024-05-20T14:30:00.000Z</time>
      </trkpt>
      <trkpt lat="45.74712" lon="4.85952">
        <ele>183.39999389648</ele>
        <time>2024-05-20T14:30:01.000Z</time>
      </trkpt>
      <trkpt lat="45.74712" lon="4.85955">
        <ele>183.39999389648</ele>
        <time>2024-05-20T14:30:02.000Z</time>
      </trkpt>
      <trkpt lat="45.74711" lon="4.85958">
        <ele>183.39999389648</ele>
        <time>2024-05-20T14:30:03.000Z</time>
      </trkpt>
      <trkpt lat="45.74711" lon="4.85962">
        <ele>183.19999694824</ele>
        <time>2024-05-20T14:30:04.000Z</time>
      </trkpt>
      <trkpt lat="45.7471" lon="4.85966">
        <ele>183.19999694824</ele>
        <time>2024-05-20T14:30:05.000Z</time>
      </trkpt>
      <trkpt lat="45.7471" lon="4.8597">
        <ele>183</ele>
        <time>2024-05-20T14:30:06.000Z</time>
      </trkpt>
      <trkpt lat="45.7471" lon="4.85975">
        <ele>183</ele>
        <time>2024-05-20T14:30:07.000Z</time>
      </trkpt>
      <trkpt lat="45.7471" lon="4.8598">
        <ele>183</ele>
        <time>2024-05-20T14:30:08.000Z</time>
      </trkpt>
      <trkpt lat="45.74709" lon="4.85987">
        <ele>183</ele>
        <time>2024-05-20T14:30:09.000Z</time>
      </trkpt>
      <trkpt lat="45.74708" lon="4.85993">
        <ele>183</ele>
        <time>2024-05-20T14:30:10.000Z</time>
      </trkpt>
      <trkpt lat="45.74706" lon="4.85999">
        <ele>183</ele>
        <time>2024-05-20T14:30:11.000Z</time>
      </trkpt>
      <trkpt lat="45.74705" lon="4.86005">
        <ele>182.80000305176</ele>
        <time>2024-05-20T14:30:12.000Z</time>
      </trkpt>
      <trkpt lat="45.74704" lon="4.86011">
        <ele>182.60000610352</ele>
        <time>2024-05-20T14:30:13.000Z</time>
      </trkpt>
      <trkpt lat="45.74702" lon="4.86018">
        <ele>182.39999389648</ele>
        <time>2024-05-20T14:30:14.000Z</time>
      </trkpt>
      <trkpt lat="45.747" lon="4.86023">
        <ele>182.19999694824</ele>
        <time>2024-05-20T14:30:15.000Z</time>
      </trkpt>
      <trkpt lat="45.74698" lon="4.8603">
        <ele>181.80000305176</ele>
        <time>2024-05-20T14:30:16.000Z</time>
      </trkpt>
      <trkpt lat="45.74696" lon="4.86038">
        <ele>181.60000610352</ele>
        <time>2024-05-20T14:30:17.000Z</time>
      </trkpt>
      <trkpt lat="45.74695" lon="4.86046">
        <ele>181.39999389648</ele>
        <time>2024-05-20T14:30:18.000Z</time>
      </trkpt>
      <trkpt lat="45.74692" lon="4.86052">
        <ele>181.19999694824</ele>
        <time>2024-05-20T14:30:19.000Z</time>
      </trkpt>
      <trkpt lat="45.7469" lon="4.86059">
        <ele>181</ele>
        <time>2024-05-20T14:30:20.000Z</time>
      </trkpt>
      <trkpt lat="45.74687" lon="4.86066">
        <ele>180.80000305176</ele>
        <time>2024-05-20T14:30:21.000Z</time>
      </trkpt>
      <trkpt lat="45.74685" lon="4.86073">
        <ele>180.39999389648</ele>
        <time>2024-05-20T14:30:22.000Z</time>
      </trkpt>
      <trkpt lat="45.74683" lon="4.8608">
        <ele>180</ele>
        <time>2024-05-20T14:30:23.000Z</time>
      </trkpt>
      <trkpt lat="45.7468" lon="4.86087">
        <ele>179.80000305176</ele>
        <time>2024-05-20T14:30:24.000Z</time>
      </trkpt>
      <trkpt lat="45.74677" lon="4.86092">
        <ele>179.39999389648</ele>
        <time>2024-05-20T14:30:25.000Z</time>
      </trkpt>
      <trkpt lat="45.74674" lon="4.861">
        <ele>179.19999694824</ele>
        <time>2024-05-20T14:30:26.000Z</time>
      </trkpt>
      <trkpt lat="45.74672" lon="4.86106">
        <ele>179.19999694824</ele>
        <time>2024-05-20T14:30:27.000Z</time>
      </trkpt>
      <trkpt lat="45.7467" lon="4.86113">
        <ele>179.19999694824</ele>
        <time>2024-05-20T14:30:28.000Z</time>
      </trkpt>
      <trkpt lat="45.74667" lon="4.86119">
        <ele>179.19999694824</ele>
        <time>2024-05-20T14:30:29.000Z</time>
      </trkpt>
      <trkpt lat="45.74665" lon="4.86125">
        <ele>179</ele>
        <time>2024-05-20T14:30:30.000Z</time>
      </trkpt>
      <trkpt lat="45.74663" lon="4.86132">
        <ele>178.80000305176</ele>
        <time>2024-05-20T14:30:31.000Z</time>
      </trkpt>
      <trkpt lat="45.74661" lon="4.86138">
        <ele>178.80000305176</ele>
        <time>2024-05-20T14:30:32.000Z</time>
      </trkpt>
      <trkpt lat="45.74659" lon="4.86144">
        <ele>178.80000305176</ele>
        <time>2024-05-20T14:30:33.000Z</time>
      </trkpt>
      <trkpt lat="45.74657" lon="4.86151">
        <ele>179</ele>
        <time>2024-05-20T14:30:34.000Z</time>
      </trkpt>
      <trkpt lat="45.74655" lon="4.86157">
        <ele>179.19999694824</ele>
        <time>2024-05-20T14:30:35.000Z</time>
      </trkpt>
      <trkpt lat="45.74653" lon="4.86163">
        <ele>179.19999694824</ele>
        <time>2024-05-20T14:30:36.000Z</time>
      </trkpt>
      <trkpt lat="45.74652" lon="4.86169">
        <ele>179.19999694824</ele>
        <time>2024-05-20T14:30:37.000Z</time>
      </trkpt>
      <trkpt lat="45.7465" lon="4.86175">
        <ele>179.19999694824</ele>
        <time>2024-05-20T14:30:38.000Z</time>
      </trkpt>
      <trkpt lat="45.74649" lon="4.8618">
        <ele>179.19999694824</ele>
        <time>2024-05-20T14:30:39.000Z</time>
      </trkpt>
      <trkpt lat="45.74648" lon="4.86186">
        <ele>179</ele>
        <time>2024-05-20T14:30:40.000Z</time>
      </trkpt>
      <trkpt lat="45.74647" lon="4.86191">
        <ele>179</ele>
        <time>2024-05-20T14:30:41.000Z</time>
      </trkpt>
      <trkpt lat="45.74645" lon="4.86196">
        <ele>179</ele>
        <time>2024-05-20T14:30:42.000Z</time>
      </trkpt>
      <trkpt lat="45.74644" lon="4.862">
        <ele>179</ele>
        <time>2024-05-20T14:30:43.000Z</time>
      </trkpt>
      <trkpt lat="45.74642" lon="4.86205">
        <ele>178.60000610352</ele>
        <time>2024-05-20T14:30:44.000Z</time>
      </trkpt>
      <trkpt lat="45.7464" lon="4.86211">
        <ele>178.60000610352</ele>
        <time>2024-05-20T14:30:45.000Z</time>
      </trkpt>
      <trkpt lat="45.74639" lon="4.86216">
        <ele>178.60000610352</ele>
        <time>2024-05-20T14:30:46.000Z</time>
      </trkpt>
      <trkpt lat="45.74637" lon="4.86221">
        <ele>178.39999389648</ele>
        <time>2024-05-20T14:30:47.000Z</time>
      </trkpt>
      <trkpt lat="45.74636" lon="4.86227">
        <ele>178.39999389648</ele>
        <time>2024-05-20T14:30:48.000Z</time>
      </trkpt>
      <trkpt lat="45.74634" lon="4.86232">
        <ele>178.19999694824</ele>
        <time>2024-05-20T14:30:49.000Z</time>
      </trkpt>
      <trkpt lat="45.74632" lon="4.86237">
        <ele>178</ele>
        <time>2024-05-20T14:30:50.000Z</time>
      </trkpt>
      <trkpt lat="45.74631" lon="4.86241">
        <ele>178</ele>
        <time>2024-05-20T14:30:51.000Z</time>
      </trkpt>
      <trkpt lat="45.7463" lon="4.86246">
        <ele>178</ele>
        <time>2024-05-20T14:30:52.000Z</time>
      </trkpt>
      <trkpt lat="45.74629" lon="4.86249">
        <ele>178</ele>
        <time>2024-05-20T14:30:53.000Z</time>
      </trkpt>
      <trkpt lat="45.74629" lon="4.86251">
        <ele>178.39999389648</ele>
        <time>2024-05-20T14:30:54.000Z</time>
      </trkpt>
      <trkpt lat="45.74629" lon="4.86251">
        <ele>178.60000610352</ele>
        <time>2024-05-20T14:30:55.000Z</time>
      </trkpt>
      <trkpt lat="45.74629" lon="4.86251">
        <ele>178.80000305176</ele>
        <time>2024-05-20T14:30:56.000Z</time>
      </trkpt>
      <trkpt lat="45.74628" lon="4.86255">
        <ele>179.19999694824</ele>
        <time>2024-05-20T14:31:51.000Z</time>
      </trkpt>
      <trkpt lat="45.74627" lon="4.86257">
        <ele>179.19999694824</ele>
        <time>2024-05-20T14:31:52.000Z</time>
      </trkpt>
      <trkpt lat="45.74626" lon="4.8626">
        <ele>179.19999694824</ele>
        <time>2024-05-20T14:31:53.000Z</time>
      </trkpt>
      <trkpt lat="45.74625" lon="4.86264">
        <ele>179.19999694824</ele>
        <time>2024-05-20T14:31:54.000Z</time>
      </trkpt>
      <trkpt lat="45.74624" lon="4.86269">
        <ele>179.19999694824</ele>
        <time>2024-05-20T14:31:55.000Z</time>
      </trkpt>
      <trkpt lat="45.74623" lon="4.86273">
        <ele>179.19999694824</ele>
        <time>2024-05-20T14:31:56.000Z</time>
      </trkpt>
      <trkpt lat="45.74622" lon="4.86277">
        <ele>179.19999694824</ele>
        <time>2024-05-20T14:31:57.000Z</time>
      </trkpt>
      <trkpt lat="45.7462" lon="4.86282">
        <ele>179.19999694824</ele>
        <time>2024-05-20T14:31:58.000Z</time>
      </trkpt>
      <trkpt lat="45.74618" lon="4.86286">
        <ele>179</ele>
        <time>2024-05-20T14:31:59.000Z</time>
      </trkpt>
      <trkpt lat="45.74617" lon="4.8629">
        <ele>178.80000305176</ele>
        <time>2024-05-20T14:32:00.000Z</time>
      </trkpt>
      <trkpt lat="45.74616" lon="4.86295">
        <ele>178.80000305176</ele>
        <time>2024-05-20T14:32:01.000Z</time>
      </trkpt>
      <trkpt lat="45.74614" lon="4.86299">
        <ele>178.80000305176</ele>
        <time>2024-05-20T14:32:02.000Z</time>
      </trkpt>
      <trkpt lat="45.74613" lon="4.86303">
        <ele>178.80000305176</ele>
        <time>2024-05-20T14:32:03.000Z</time>
      </trkpt>
      <trkpt lat="45.74611" lon="4.86308">
        <ele>178.80000305176</ele>
        <time>2024-05-20T14:32:04.000Z</time>
      </trkpt>
      <trkpt lat="45.7461" lon="4.86312">
        <ele>178.80000305176</ele>
        <time>2024-05-20T14:32:05.000Z</time>
      </trkpt>
      <trkpt lat="45.74609" lon="4.86317">
        <ele>178.80000305176</ele>
        <time>2024-05-20T14:32:06.000Z</time>
      </trkpt>
      <trkpt lat="45.7461" lon="4.86321">
        <ele>178.80000305176</ele>
        <time>2024-05-20T14:32:07.000Z</time>
      </trkpt>
      <trkpt lat="45.74609" lon="4.86326">
        <ele>178.60000610352</ele>
        <time>2024-05-20T14:32:08.000Z</time>
      </trkpt>
      <trkpt lat="45.74608" lon="4.86331">
        <ele>178.80000305176</ele>
        <time>2024-05-20T14:32:09.000Z</time>
      </trkpt>
      <trkpt lat="45.74607" lon="4.86336">
        <ele>178.80000305176</ele>
        <time>2024-05-20T14:32:10.000Z</time>
      </trkpt>
      <trkpt lat="45.74604" lon="4.86341">
        <ele>178.80000305176</ele>
        <time>2024-05-20T14:32:11.000Z</time>
      </trkpt>
      <trkpt lat="45.74602" lon="4.86346">
        <ele>178.80000305176</ele>
        <time>2024-05-20T14:32:12.000Z</time>
      </trkpt>
      <trkpt lat="45.746" lon="4.86351">
        <ele>179</ele>
        <time>2024-05-20T14:32:13.000Z</time>
      </trkpt>
      <trkpt lat="45.74596" lon="4.86356">
        <ele>179.39999389648</ele>
        <time>2024-05-20T14:32:14.000Z</time>
      </trkpt>
      <trkpt lat="45.74594" lon="4.86361">
        <ele>179.39999389648</ele>
        <time>2024-05-20T14:32:15.000Z</time>
      </trkpt>
      <trkpt lat="45.74593" lon="4.86366">
        <ele>179.60000610352</ele>
        <time>2024-05-20T14:32:16.000Z</time>
      </trkpt>
      <trkpt lat="45.74591" lon="4.8637">
        <ele>179.60000610352</ele>
        <time>2024-05-20T14:32:17.000Z</time>
      </trkpt>
      <trkpt lat="45.7459" lon="4.86375">
        <ele>179.60000610352</ele>
        <time>2024-05-20T14:32:18.000Z</time>
      </trkpt>
      <trkpt lat="45.74588" lon="4.8638">
        <ele>179.60000610352</ele>
        <time>2024-05-20T14:32:19.000Z</time>
      </trkpt>
      <trkpt lat="45.74587" lon="4.86384">
        <ele>179.60000610352</ele>
        <time>2024-05-20T14:32:20.000Z</time>
      </trkpt>
      <trkpt lat="45.74585" lon="4.86391">
        <ele>179.39999389648</ele>
        <time>2024-05-20T14:32:21.000Z</time>
      </trkpt>
      <trkpt lat="45.74584" lon="4.86395">
        <ele>179.39999389648</ele>
        <time>2024-05-20T14:32:22.000Z</time>
      </trkpt>
      <trkpt lat="45.74582" lon="4.864">
        <ele>179.19999694824</ele>
        <time>2024-05-20T14:32:23.000Z</time>
      </trkpt>
      <trkpt lat="45.74581" lon="4.86406">
        <ele>178.80000305176</ele>
        <time>2024-05-20T14:32:24.000Z</time>
      </trkpt>
      <trkpt lat="45.74578" lon="4.86411">
        <ele>178.60000610352</ele>
        <time>2024-05-20T14:32:25.000Z</time>
      </trkpt>
      <trkpt lat="45.74575" lon="4.86415">
        <ele>178.39999389648</ele>
        <time>2024-05-20T14:32:26.000Z</time>
      </trkpt>
      <trkpt lat="45.74573" lon="4.8642">
        <ele>178.39999389648</ele>
        <time>2024-05-20T14:32:27.000Z</time>
      </trkpt>
      <trkpt lat="45.74572" lon="4.86426">
        <ele>178.19999694824</ele>
        <time>2024-05-20T14:32:28.000Z</time>
      </trkpt>
      <trkpt lat="45.74571" lon="4.86431">
        <ele>178.19999694824</ele>
        <time>2024-05-20T14:32:29.000Z</time>
      </trkpt>
      <trkpt lat="45.74569" lon="4.86436">
        <ele>178.19999694824</ele>
        <time>2024-05-20T14:32:30.000Z</time>
      </trkpt>
      <trkpt lat="45.74568" lon="4.8644">
        <ele>178.19999694824</ele>
        <time>2024-05-20T14:32:31.000Z</time>
      </trkpt>
      <trkpt lat="45.74567" lon="4.86445">
        <ele>178.19999694824</ele>
        <time>2024-05-20T14:32:32.000Z</time>
      </trkpt>
      <trkpt lat="45.74566" lon="4.8645">
        <ele>178.39999389648</ele>
        <time>2024-05-20T14:32:33.000Z</time>
      </trkpt>
      <trkpt lat="45.74563" lon="4.86457">
        <ele>178.60000610352</ele>
        <time>2024-05-20T14:32:34.000Z</time>
      </trkpt>
      <trkpt lat="45.7456" lon="4.86462">
        <ele>178.60000610352</ele>
        <time>2024-05-20T14:32:35.000Z</time>
      </trkpt>
      <trkpt lat="45.74558" lon="4.86467">
        <ele>178.60000610352</ele>
        <time>2024-05-20T14:32:36.000Z</time>
      </trkpt>
      <trkpt lat="45.74557" lon="4.86473">
        <ele>178.60000610352</ele>
        <time>2024-05-20T14:32:37.000Z</time>
      </trkpt>
      <trkpt lat="45.74556" lon="4.86478">
        <ele>178.60000610352</ele>
        <time>2024-05-20T14:32:38.000Z</time>
      </trkpt>
      <trkpt lat="45.74555" lon="4.86482">
        <ele>178.39999389648</ele>
        <time>2024-05-20T14:32:39.000Z</time>
      </trkpt>
      <trkpt lat="45.74553" lon="4.86488">
        <ele>178.39999389648</ele>
        <time>2024-05-20T14:32:40.000Z</time>
      </trkpt>
      <trkpt lat="45.74551" lon="4.86495">
        <ele>178.19999694824</ele>
        <time>2024-05-20T14:32:41.000Z</time>
      </trkpt>
      <trkpt lat="45.74549" lon="4.865">
        <ele>178</ele>
        <time>2024-05-20T14:32:42.000Z</time>
      </trkpt>
      <trkpt lat="45.74547" lon="4.86506">
        <ele>178</ele>
        <time>2024-05-20T14:32:43.000Z</time>
      </trkpt>
      <trkpt lat="45.74545" lon="4.86511">
        <ele>178</ele>
        <time>2024-05-20T14:32:44.000Z</time>
      </trkpt>
      <trkpt lat="45.74544" lon="4.86516">
        <ele>178.19999694824</ele>
        <time>2024-05-20T14:32:45.000Z</time>
      </trkpt>
      <trkpt lat="45.74543" lon="4.86522">
        <ele>178.19999694824</ele>
        <time>2024-05-20T14:32:46.000Z</time>
      </trkpt>
      <trkpt lat="45.74541" lon="4.86527">
        <ele>178.60000610352</ele>
        <time>2024-05-20T14:32:47.000Z</time>
      </trkpt>
      <trkpt lat="45.74539" lon="4.86533">
        <ele>179</ele>
        <time>2024-05-20T14:32:48.000Z</time>
      </trkpt>
      <trkpt lat="45.74538" lon="4.8654">
        <ele>179</ele>
        <time>2024-05-20T14:32:49.000Z</time>
      </trkpt>
      <trkpt lat="45.74536" lon="4.86546">
        <ele>179</ele>
        <time>2024-05-20T14:32:50.000Z</time>
      </trkpt>
      <trkpt lat="45.74535" lon="4.86552">
        <ele>179</ele>
        <time>2024-05-20T14:32:51.000Z</time>
      </trkpt>
      <trkpt lat="45.74534" lon="4.86558">
        <ele>179.19999694824</ele>
        <time>2024-05-20T14:32:52.000Z</time>
      </trkpt>
      <trkpt lat="45.74533" lon="4.86564">
        <ele>179.19999694824</ele>
        <time>2024-05-20T14:32:53.000Z</time>
      </trkpt>
      <trkpt lat="45.74532" lon="4.8657">
        <ele>179.19999694824</ele>
        <time>2024-05-20T14:32:54.000Z</time>
      </trkpt>
      <trkpt lat="45.74528" lon="4.86576">
        <ele>179.39999389648</ele>
        <time>2024-05-20T14:32:55.000Z</time>
      </trkpt>
      <trkpt lat="45.74525" lon="4.86582">
        <ele>179.39999389648</ele>
        <time>2024-05-20T14:32:56.000Z</time>
      </trkpt>
      <trkpt lat="45.74522" lon="4.86588">
        <ele>179.39999389648</ele>
        <time>2024-05-20T14:32:57.000Z</time>
      </trkpt>
      <trkpt lat="45.74519" lon="4.86594">
        <ele>179.39999389648</ele>
        <time>2024-05-20T14:32:58.000Z</time>
      </trkpt>
      <trkpt lat="45.74517" lon="4.866">
        <ele>179.39999389648</ele>
        <time>2024-05-20T14:32:59.000Z</time>
      </trkpt>
      <trkpt lat="45.74516" lon="4.86605">
        <ele>179.39999389648</ele>
        <time>2024-05-20T14:33:00.000Z</time>
      </trkpt>
      <trkpt lat="45.74514" lon="4.86612">
        <ele>179.60000610352</ele>
        <time>2024-05-20T14:33:01.000Z</time>
      </trkpt>
      <trkpt lat="45.74512" lon="4.86619">
        <ele>179.60000610352</ele>
        <time>2024-05-20T14:33:02.000Z</time>
      </trkpt>
      <trkpt lat="45.7451" lon="4.86624">
        <ele>179.60000610352</ele>
        <time>2024-05-20T14:33:03.000Z</time>
      </trkpt>
      <trkpt lat="45.74509" lon="4.8663">
        <ele>179.60000610352</ele>
        <time>2024-05-20T14:33:04.000Z</time>
      </trkpt>
      <trkpt lat="45.74508" lon="4.86636">
        <ele>179.60000610352</ele>
        <time>2024-05-20T14:33:05.000Z</time>
      </trkpt>
      <trkpt lat="45.74507" lon="4.86642">
        <ele>179.60000610352</ele>
        <time>2024-05-20T14:33:06.000Z</time>
      </trkpt>
      <trkpt lat="45.74505" lon="4.86647">
        <ele>179.60000610352</ele>
        <time>2024-05-20T14:33:07.000Z</time>
      </trkpt>
      <trkpt lat="45.74504" lon="4.86653">
        <ele>179.39999389648</ele>
        <time>2024-05-20T14:33:08.000Z</time>
      </trkpt>
      <trkpt lat="45.74503" lon="4.86658">
        <ele>179.19999694824</ele>
        <time>2024-05-20T14:33:09.000Z</time>
      </trkpt>
      <trkpt lat="45.74502" lon="4.86664">
        <ele>179</ele>
        <time>2024-05-20T14:33:10.000Z</time>
      </trkpt>
      <trkpt lat="45.745" lon="4.86669">
        <ele>178.80000305176</ele>
        <time>2024-05-20T14:33:11.000Z</time>
      </trkpt>
      <trkpt lat="45.74499" lon="4.86675">
        <ele>178.80000305176</ele>
        <time>2024-05-20T14:33:12.000Z</time>
      </trkpt>
      <trkpt lat="45.74498" lon="4.86679">
        <ele>178.80000305176</ele>
        <time>2024-05-20T14:33:13.000Z</time>
      </trkpt>
      <trkpt lat="45.74496" lon="4.86683">
        <ele>178.80000305176</ele>
        <time>2024-05-20T14:33:14.000Z</time>
      </trkpt>
      <trkpt lat="45.74496" lon="4.86686">
        <ele>179.19999694824</ele>
        <time>2024-05-20T14:33:15.000Z</time>
      </trkpt>
      <trkpt lat="45.74495" lon="4.86687">
        <ele>179.39999389648</ele>
        <time>2024-05-20T14:33:16.000Z</time>
      </trkpt>
      <trkpt lat="45.74495" lon="4.86687">
        <ele>179.60000610352</ele>
        <time>2024-05-20T14:33:17.000Z</time>
      </trkpt>
      <trkpt lat="45.74495" lon="4.86687">
        <ele>180</ele>
        <time>2024-05-20T14:33:18.000Z</time>
      </trkpt>
      <trkpt lat="45.74495" lon="4.86691">
        <ele>180.39999389648</ele>
        <time>2024-05-20T14:34:53.000Z</time>
      </trkpt>
      <trkpt lat="45.74494" lon="4.86693">
        <ele>180.39999389648</ele>
        <time>2024-05-20T14:34:54.000Z</time>
      </trkpt>
      <trkpt lat="45.74494" lon="4.86696">
        <ele>180.39999389648</ele>
        <time>2024-05-20T14:34:55.000Z</time>
      </trkpt>
      <trkpt lat="45.74493" lon="4.867">
        <ele>180.39999389648</ele>
        <time>2024-05-20T14:34:56.000Z</time>
      </trkpt>
      <trkpt lat="45.74493" lon="4.86703">
        <ele>180.19999694824</ele>
        <time>2024-05-20T14:34:57.000Z</time>
      </trkpt>
      <trkpt lat="45.74492" lon="4.86707">
        <ele>180.19999694824</ele>
        <time>2024-05-20T14:34:58.000Z</time>
      </trkpt>
      <trkpt lat="45.74491" lon="4.86711">
        <ele>180</ele>
        <time>2024-05-20T14:34:59.000Z</time>
      </trkpt>
      <trkpt lat="45.74491" lon="4.86715">
        <ele>180</ele>
        <time>2024-05-20T14:35:00.000Z</time>
      </trkpt>
      <trkpt lat="45.7449" lon="4.86719">
        <ele>180</ele>
        <time>2024-05-20T14:35:01.000Z</time>
      </trkpt>
      <trkpt lat="45.74489" lon="4.86724">
        <ele>180</ele>
        <time>2024-05-20T14:35:02.000Z</time>
      </trkpt>
      <trkpt lat="45.74488" lon="4.8673">
        <ele>180</ele>
        <time>2024-05-20T14:35:03.000Z</time>
      </trkpt>
      <trkpt lat="45.74486" lon="4.86735">
        <ele>180.19999694824</ele>
        <time>2024-05-20T14:35:04.000Z</time>
      </trkpt>
      <trkpt lat="45.74485" lon="4.86741">
        <ele>180.39999389648</ele>
        <time>2024-05-20T14:35:05.000Z</time>
      </trkpt>
      <trkpt lat="45.74483" lon="4.86747">
        <ele>180.39999389648</ele>
        <time>2024-05-20T14:35:06.000Z</time>
      </trkpt>
      <trkpt lat="45.74482" lon="4.86753">
        <ele>180.60000610352</ele>
        <time>2024-05-20T14:35:07.000Z</time>
      </trkpt>
      <trkpt lat="45.7448" lon="4.86759">
        <ele>180.60000610352</ele>
        <time>2024-05-20T14:35:08.000Z</time>
      </trkpt>
      <trkpt lat="45.74478" lon="4.86764">
        <ele>180.60000610352</ele>
        <time>2024-05-20T14:35:09.000Z</time>
      </trkpt>
      <trkpt lat="45.74477" lon="4.8677">
        <ele>180.60000610352</ele>
        <time>2024-05-20T14:35:10.000Z</time>
      </trkpt>
      <trkpt lat="45.74475" lon="4.86777">
        <ele>180.60000610352</ele>
        <time>2024-05-20T14:35:11.000Z</time>
      </trkpt>
      <trkpt lat="45.74474" lon="4.86783">
        <ele>180.60000610352</ele>
        <time>2024-05-20T14:35:12.000Z</time>
      </trkpt>
      <trkpt lat="45.74472" lon="4.86789">
        <ele>180.39999389648</ele>
        <time>2024-05-20T14:35:13.000Z</time>
      </trkpt>
      <trkpt lat="45.74471" lon="4.86795">
        <ele>180.39999389648</ele>
        <time>2024-05-20T14:35:14.000Z</time>
      </trkpt>
      <trkpt lat="45.7447" lon="4.868">
        <ele>180.19999694824</ele>
        <time>2024-05-20T14:35:15.000Z</time>
      </trkpt>
      <trkpt lat="45.74468" lon="4.86806">
        <ele>180.19999694824</ele>
        <time>2024-05-20T14:35:16.000Z</time>
      </trkpt>
      <trkpt lat="45.74467" lon="4.8681">
        <ele>180.19999694824</ele>
        <time>2024-05-20T14:35:17.000Z</time>
      </trkpt>
      <trkpt lat="45.74466" lon="4.86814">
        <ele>180.19999694824</ele>
        <time>2024-05-20T14:35:18.000Z</time>
      </trkpt>
      <trkpt lat="45.74465" lon="4.86818">
        <ele>180.19999694824</ele>
        <time>2024-05-20T14:35:19.000Z</time>
      </trkpt>
      <trkpt lat="45.74464" lon="4.86821">
        <ele>180.60000610352</ele>
        <time>2024-05-20T14:35:20.000Z</time>
      </trkpt>
      <trkpt lat="45.74464" lon="4.86823">
        <ele>181</ele>
        <time>2024-05-20T14:35:21.000Z</time>
      </trkpt>
      <trkpt lat="45.74463" lon="4.86825">
        <ele>181.19999694824</ele>
        <time>2024-05-20T14:35:22.000Z</time>
      </trkpt>
      <trkpt lat="45.74462" lon="4.86826">
        <ele>181.19999694824</ele>
        <time>2024-05-20T14:35:23.000Z</time>
      </trkpt>
      <trkpt lat="45.74461" lon="4.86828">
        <ele>181.19999694824</ele>
        <time>2024-05-20T14:35:24.000Z</time>
      </trkpt>
      <trkpt lat="45.74461" lon="4.86829">
        <ele>181.19999694824</ele>
        <time>2024-05-20T14:35:25.000Z</time>
      </trkpt>
      <trkpt lat="45.74461" lon="4.86829">
        <ele>181.19999694824</ele>
        <time>2024-05-20T14:35:26.000Z</time>
      </trkpt>
      <trkpt lat="45.74459" lon="4.86836">
        <ele>181.19999694824</ele>
        <time>2024-05-20T14:35:30.000Z</time>
      </trkpt>
      <trkpt lat="45.74458" lon="4.86838">
        <ele>181.19999694824</ele>
        <time>2024-05-20T14:35:31.000Z</time>
      </trkpt>
      <trkpt lat="45.74456" lon="4.8684">
        <ele>181.19999694824</ele>
        <time>2024-05-20T14:35:32.000Z</time>
      </trkpt>
      <trkpt lat="45.74455" lon="4.86843">
        <ele>181.19999694824</ele>
        <time>2024-05-20T14:35:33.000Z</time>
      </trkpt>
      <trkpt lat="45.74454" lon="4.86848">
        <ele>181.19999694824</ele>
        <time>2024-05-20T14:35:34.000Z</time>
      </trkpt>
      <trkpt lat="45.74453" lon="4.86853">
        <ele>181.19999694824</ele>
        <time>2024-05-20T14:35:35.000Z</time>
      </trkpt>
      <trkpt lat="45.74452" lon="4.86858">
        <ele>181</ele>
        <time>2024-05-20T14:35:36.000Z</time>
      </trkpt>
      <trkpt lat="45.74451" lon="4.86864">
        <ele>181</ele>
        <time>2024-05-20T14:35:37.000Z</time>
      </trkpt>
      <trkpt lat="45.74451" lon="4.8687">
        <ele>181</ele>
        <time>2024-05-20T14:35:38.000Z</time>
      </trkpt>
      <trkpt lat="45.74449" lon="4.86876">
        <ele>180.80000305176</ele>
        <time>2024-05-20T14:35:39.000Z</time>
      </trkpt>
      <trkpt lat="45.74448" lon="4.86882">
        <ele>180.80000305176</ele>
        <time>2024-05-20T14:35:40.000Z</time>
      </trkpt>
      <trkpt lat="45.74446" lon="4.86888">
        <ele>181</ele>
        <time>2024-05-20T14:35:41.000Z</time>
      </trkpt>
      <trkpt lat="45.74445" lon="4.86895">
        <ele>181</ele>
        <time>2024-05-20T14:35:42.000Z</time>
      </trkpt>
      <trkpt lat="45.74444" lon="4.86901">
        <ele>181</ele>
        <time>2024-05-20T14:35:43.000Z</time>
      </trkpt>
      <trkpt lat="45.74443" lon="4.86908">
        <ele>181</ele>
        <time>2024-05-20T14:35:44.000Z</time>
      </trkpt>
      <trkpt lat="45.74442" lon="4.86915">
        <ele>181</ele>
        <time>2024-05-20T14:35:45.000Z</time>
      </trkpt>
      <trkpt lat="45.74441" lon="4.86921">
        <ele>181</ele>
        <time>2024-05-20T14:35:46.000Z</time>
      </trkpt>
      <trkpt lat="45.7444" lon="4.86927">
        <ele>181</ele>
        <time>2024-05-20T14:35:47.000Z</time>
      </trkpt>
      <trkpt lat="45.74439" lon="4.86933">
        <ele>181</ele>
        <time>2024-05-20T14:35:48.000Z</time>
      </trkpt>
      <trkpt lat="45.74438" lon="4.8694">
        <ele>181</ele>
        <time>2024-05-20T14:35:49.000Z</time>
      </trkpt>
      <trkpt lat="45.74438" lon="4.86946">
        <ele>181</ele>
        <time>2024-05-20T14:35:50.000Z</time>
      </trkpt>
      <trkpt lat="45.74437" lon="4.86953">
        <ele>181.19999694824</ele>
        <time>2024-05-20T14:35:51.000Z</time>
      </trkpt>
      <trkpt lat="45.74436" lon="4.86959">
        <ele>181.19999694824</ele>
        <time>2024-05-20T14:35:52.000Z</time>
      </trkpt>
      <trkpt lat="45.74435" lon="4.86964">
        <ele>181.19999694824</ele>
        <time>2024-05-20T14:35:53.000Z</time>
      </trkpt>
      <trkpt lat="45.74433" lon="4.8697">
        <ele>181.19999694824</ele>
        <time>2024-05-20T14:35:54.000Z</time>
      </trkpt>
      <trkpt lat="45.74431" lon="4.86976">
        <ele>181.19999694824</ele>
        <time>2024-05-20T14:35:55.000Z</time>
      </trkpt>
      <trkpt lat="45.74427" lon="4.86981">
        <ele>181.19999694824</ele>
        <time>2024-05-20T14:35:56.000Z</time>
      </trkpt>
      <trkpt lat="45.74425" lon="4.86987">
        <ele>181.19999694824</ele>
        <time>2024-05-20T14:35:57.000Z</time>
      </trkpt>
      <trkpt lat="45.74423" lon="4.86993">
        <ele>181.60000610352</ele>
        <time>2024-05-20T14:35:58.000Z</time>
      </trkpt>
      <trkpt lat="45.74422" lon="4.86999">
        <ele>181.60000610352</ele>
        <time>2024-05-20T14:35:59.000Z</time>
      </trkpt>
      <trkpt lat="45.74421" lon="4.87005">
        <ele>181.60000610352</ele>
        <time>2024-05-20T14:36:00.000Z</time>
      </trkpt>
      <trkpt lat="45.7442" lon="4.8701">
        <ele>181.60000610352</ele>
        <time>2024-05-20T14:36:01.000Z</time>
      </trkpt>
      <trkpt lat="45.74419" lon="4.87015">
        <ele>181.80000305176</ele>
        <time>2024-05-20T14:36:02.000Z</time>
      </trkpt>
      <trkpt lat="45.74417" lon="4.87021">
        <ele>182</ele>
        <time>2024-05-20T14:36:03.000Z</time>
      </trkpt>
      <trkpt lat="45.74416" lon="4.87026">
        <ele>182</ele>
        <time>2024-05-20T14:36:04.000Z</time>
      </trkpt>
      <trkpt lat="45.74414" lon="4.87031">
        <ele>182.39999389648</ele>
        <time>2024-05-20T14:36:05.000Z</time>
      </trkpt>
      <trkpt lat="45.74412" lon="4.87035">
        <ele>182.39999389648</ele>
        <time>2024-05-20T14:36:06.000Z</time>
      </trkpt>
      <trkpt lat="45.7441" lon="4.87039">
        <ele>182.39999389648</ele>
        <time>2024-05-20T14:36:07.000Z</time>
      </trkpt>
      <trkpt lat="45.74408" lon="4.87042">
        <ele>182.60000610352</ele>
        <time>2024-05-20T14:36:08.000Z</time>
      </trkpt>
      <trkpt lat="45.74405" lon="4.87044">
        <ele>182.80000305176</ele>
        <time>2024-05-20T14:36:09.000Z</time>
      </trkpt>
      <trkpt lat="45.74402" lon="4.87043">
        <ele>182.80000305176</ele>
        <time>2024-05-20T14:36:10.000Z</time>
      </trkpt>
      <trkpt lat="45.74398" lon="4.87042">
        <ele>182.80000305176</ele>
        <time>2024-05-20T14:36:11.000Z</time>
      </trkpt>
      <trkpt lat="45.74395" lon="4.8704">
        <ele>182.80000305176</ele>
        <time>2024-05-20T14:36:12.000Z</time>
      </trkpt>
      <trkpt lat="45.74391" lon="4.87039">
        <ele>182.60000610352</ele>
        <time>2024-05-20T14:36:13.000Z</time>
      </trkpt>
      <trkpt lat="45.74387" lon="4.87037">
        <ele>182.60000610352</ele>
        <time>2024-05-20T14:36:14.000Z</time>
      </trkpt>
      <trkpt lat="45.74383" lon="4.87034">
        <ele>182.39999389648</ele>
        <time>2024-05-20T14:36:15.000Z</time>
      </trkpt>
      <trkpt lat="45.7438" lon="4.87031">
        <ele>182.39999389648</ele>
        <time>2024-05-20T14:36:16.000Z</time>
      </trkpt>
      <trkpt lat="45.74376" lon="4.87029">
        <ele>182.39999389648</ele>
        <time>2024-05-20T14:36:17.000Z</time>
      </trkpt>
      <trkpt lat="45.74371" lon="4.87026">
        <ele>182.39999389648</ele>
        <time>2024-05-20T14:36:18.000Z</time>
      </trkpt>
      <trkpt lat="45.74366" lon="4.87024">
        <ele>182.39999389648</ele>
        <time>2024-05-20T14:36:19.000Z</time>
      </trkpt>
      <trkpt lat="45.74362" lon="4.8702">
        <ele>182.19999694824</ele>
        <time>2024-05-20T14:36:20.000Z</time>
      </trkpt>
      <trkpt lat="45.74357" lon="4.87017">
        <ele>182.19999694824</ele>
        <time>2024-05-20T14:36:21.000Z</time>
      </trkpt>
      <trkpt lat="45.74352" lon="4.87013">
        <ele>182</ele>
        <time>2024-05-20T14:36:22.000Z</time>
      </trkpt>
      <trkpt lat="45.74348" lon="4.87009">
        <ele>182</ele>
        <time>2024-05-20T14:36:23.000Z</time>
      </trkpt>
      <trkpt lat="45.74343" lon="4.87006">
        <ele>181.80000305176</ele>
        <time>2024-05-20T14:36:24.000Z</time>
      </trkpt>
      <trkpt lat="45.74339" lon="4.87003">
        <ele>181.60000610352</ele>
        <time>2024-05-20T14:36:25.000Z</time>
      </trkpt>
      <trkpt lat="45.74336" lon="4.87">
        <ele>181.60000610352</ele>
        <time>2024-05-20T14:36:26.000Z</time>
      </trkpt>
      <trkpt lat="45.74332" lon="4.86997">
        <ele>181.19999694824</ele>
        <time>2024-05-20T14:36:27.000Z</time>
      </trkpt>
      <trkpt lat="45.74327" lon="4.86994">
        <ele>181.19999694824</ele>
        <time>2024-05-20T14:36:28.000Z</time>
      </trkpt>
      <trkpt lat="45.74323" lon="4.86991">
        <ele>181.19999694824</ele>
        <time>2024-05-20T14:36:29.000Z</time>
      </trkpt>
      <trkpt lat="45.74319" lon="4.86989">
        <ele>181.19999694824</ele>
        <time>2024-05-20T14:36:30.000Z</time>
      </trkpt>
      <trkpt lat="45.74316" lon="4.86986">
        <ele>181.19999694824</ele>
        <time>2024-05-20T14:36:31.000Z</time>
      </trkpt>
      <trkpt lat="45.74312" lon="4.86983">
        <ele>181</ele>
        <time>2024-05-20T14:36:32.000Z</time>
      </trkpt>
      <trkpt lat="45.74308" lon="4.86981">
        <ele>181</ele>
        <time>2024-05-20T14:36:33.000Z</time>
      </trkpt>
      <trkpt lat="45.74303" lon="4.86979">
        <ele>180.80000305176</ele>
        <time>2024-05-20T14:36:34.000Z</time>
      </trkpt>
      <trkpt lat="45.74298" lon="4.86976">
        <ele>180.80000305176</ele>
        <time>2024-05-20T14:36:35.000Z</time>
      </trkpt>
      <trkpt lat="45.74293" lon="4.86973">
        <ele>180.80000305176</ele>
        <time>2024-05-20T14:36:36.000Z</time>
      </trkpt>
      <trkpt lat="45.74289" lon="4.8697">
        <ele>180.80000305176</ele>
        <time>2024-05-20T14:36:37.000Z</time>
      </trkpt>
      <trkpt lat="45.74285" lon="4.86967">
        <ele>180.60000610352</ele>
        <time>2024-05-20T14:36:38.000Z</time>
      </trkpt>
      <trkpt lat="45.7428" lon="4.86965">
        <ele>180.60000610352</ele>
        <time>2024-05-20T14:36:39.000Z</time>
      </trkpt>
      <trkpt lat="45.74276" lon="4.86962">
        <ele>180.60000610352</ele>
        <time>2024-05-20T14:36:40.000Z</time>
      </trkpt>
      <trkpt lat="45.74272" lon="4.8696">
        <ele>180.60000610352</ele>
        <time>2024-05-20T14:36:41.000Z</time>
      </trkpt>
      <trkpt lat="45.74269" lon="4.86958">
        <ele>180.80000305176</ele>
        <time>2024-05-20T14:36:42.000Z</time>
      </trkpt>
      <trkpt lat="45.74264" lon="4.86955">
        <ele>180.80000305176</ele>
        <time>2024-05-20T14:36:43.000Z</time>
      </trkpt>
      <trkpt lat="45.7426" lon="4.86951">
        <ele>181</ele>
        <time>2024-05-20T14:36:44.000Z</time>
      </trkpt>
      <trkpt lat="45.74255" lon="4.86947">
        <ele>181.19999694824</ele>
        <time>2024-05-20T14:36:45.000Z</time>
      </trkpt>
      <trkpt lat="45.74251" lon="4.86944">
        <ele>181.39999389648</ele>
        <time>2024-05-20T14:36:46.000Z</time>
      </trkpt>
      <trkpt lat="45.74247" lon="4.86941">
        <ele>181.39999389648</ele>
        <time>2024-05-20T14:36:47.000Z</time>
      </trkpt>
      <trkpt lat="45.74243" lon="4.86939">
        <ele>181.60000610352</ele>
        <time>2024-05-20T14:36:48.000Z</time>
      </trkpt>
      <trkpt lat="45.74239" lon="4.86935">
        <ele>181.60000610352</ele>
        <time>2024-05-20T14:36:49.000Z</time>
      </trkpt>
      <trkpt lat="45.74235" lon="4.86933">
        <ele>181.60000610352</ele>
        <time>2024-05-20T14:36:50.000Z</time>
      </trkpt>
      <trkpt lat="45.74232" lon="4.8693">
        <ele>181.60000610352</ele>
        <time>2024-05-20T14:36:51.000Z</time>
      </trkpt>
      <trkpt lat="45.74228" lon="4.86927">
        <ele>181.60000610352</ele>
        <time>2024-05-20T14:36:52.000Z</time>
      </trkpt>
      <trkpt lat="45.74223" lon="4.86922">
        <ele>181.60000610352</ele>
        <time>2024-05-20T14:36:53.000Z</time>
      </trkpt>
      <trkpt lat="45.74219" lon="4.86919">
        <ele>181.60000610352</ele>
        <time>2024-05-20T14:36:54.000Z</time>
      </trkpt>
      <trkpt lat="45.74216" lon="4.86916">
        <ele>181.60000610352</ele>
        <time>2024-05-20T14:36:55.000Z</time>
      </trkpt>
      <trkpt lat="45.74212" lon="4.86914">
        <ele>181.60000610352</ele>
        <time>2024-05-20T14:36:56.000Z</time>
      </trkpt>
      <trkpt lat="45.74208" lon="4.86911">
        <ele>181.60000610352</ele>
        <time>2024-05-20T14:36:57.000Z</time>
      </trkpt>
      <trkpt lat="45.74205" lon="4.86908">
        <ele>181.39999389648</ele>
        <time>2024-05-20T14:36:58.000Z</time>
      </trkpt>
      <trkpt lat="45.74202" lon="4.86906">
        <ele>181.39999389648</ele>
        <time>2024-05-20T14:36:59.000Z</time>
      </trkpt>
      <trkpt lat="45.742" lon="4.86905">
        <ele>181.39999389648</ele>
        <time>2024-05-20T14:37:00.000Z</time>
      </trkpt>
      <trkpt lat="45.74198" lon="4.86903">
        <ele>181.39999389648</ele>
        <time>2024-05-20T14:37:01.000Z</time>
      </trkpt>
      <trkpt lat="45.74196" lon="4.86902">
        <ele>181.60000610352</ele>
        <time>2024-05-20T14:37:02.000Z</time>
      </trkpt>
      <trkpt lat="45.74194" lon="4.869">
        <ele>181.60000610352</ele>
        <time>2024-05-20T14:37:03.000Z</time>
      </trkpt>
      <trkpt lat="45.74193" lon="4.86899">
        <ele>181.60000610352</ele>
        <time>2024-05-20T14:37:04.000Z</time>
      </trkpt>
      <trkpt lat="45.74192" lon="4.86897">
        <ele>181.60000610352</ele>
        <time>2024-05-20T14:37:05.000Z</time>
      </trkpt>
      <trkpt lat="45.74191" lon="4.86896">
        <ele>181.60000610352</ele>
        <time>2024-05-20T14:37:06.000Z</time>
      </trkpt>
      <trkpt lat="45.74191" lon="4.86896">
        <ele>181.60000610352</ele>
        <time>2024-05-20T14:37:07.000Z</time>
      </trkpt>
      <trkpt lat="45.74191" lon="4.86896">
        <ele>181.60000610352</ele>
        <time>2024-05-20T14:37:08.000Z</time>
      </trkpt>
      <trkpt lat="45.74188" lon="4.86895">
        <ele>181.19999694824</ele>
        <time>2024-05-20T14:37:52.000Z</time>
      </trkpt>
      <trkpt lat="45.74187" lon="4.86895">
        <ele>181.19999694824</ele>
        <time>2024-05-20T14:37:53.000Z</time>
      </trkpt>
      <trkpt lat="45.74186" lon="4.86894">
        <ele>181.19999694824</ele>
        <time>2024-05-20T14:37:54.000Z</time>
      </trkpt>
      <trkpt lat="45.74184" lon="4.86892">
        <ele>181.19999694824</ele>
        <time>2024-05-20T14:37:55.000Z</time>
      </trkpt>
      <trkpt lat="45.74182" lon="4.86891">
        <ele>181.19999694824</ele>
        <time>2024-05-20T14:37:56.000Z</time>
      </trkpt>
      <trkpt lat="45.7418" lon="4.86889">
        <ele>181.19999694824</ele>
        <time>2024-05-20T14:37:57.000Z</time>
      </trkpt>
      <trkpt lat="45.74177" lon="4.86888">
        <ele>181.19999694824</ele>
        <time>2024-05-20T14:37:58.000Z</time>
      </trkpt>
      <trkpt lat="45.74175" lon="4.86887">
        <ele>181.19999694824</ele>
        <time>2024-05-20T14:37:59.000Z</time>
      </trkpt>
      <trkpt lat="45.74172" lon="4.86885">
        <ele>181.19999694824</ele>
        <time>2024-05-20T14:38:00.000Z</time>
      </trkpt>
      <trkpt lat="45.7417" lon="4.86883">
        <ele>181.19999694824</ele>
        <time>2024-05-20T14:38:01.000Z</time>
      </trkpt>
      <trkpt lat="45.74167" lon="4.86881">
        <ele>181</ele>
        <time>2024-05-20T14:38:02.000Z</time>
      </trkpt>
      <trkpt lat="45.74164" lon="4.86878">
        <ele>181</ele>
        <time>2024-05-20T14:38:03.000Z</time>
      </trkpt>
      <trkpt lat="45.74161" lon="4.86875">
        <ele>180.80000305176</ele>
        <time>2024-05-20T14:38:04.000Z</time>
      </trkpt>
      <trkpt lat="45.74157" lon="4.86872">
        <ele>180.80000305176</ele>
        <time>2024-05-20T14:38:05.000Z</time>
      </trkpt>
      <trkpt lat="45.74154" lon="4.86869">
        <ele>180.80000305176</ele>
        <time>2024-05-20T14:38:06.000Z</time>
      </trkpt>
      <trkpt lat="45.7415" lon="4.86867">
        <ele>180.80000305176</ele>
        <time>2024-05-20T14:38:07.000Z</time>
      </trkpt>
      <trkpt lat="45.74146" lon="4.86864">
        <ele>180.60000610352</ele>
        <time>2024-05-20T14:38:08.000Z</time>
      </trkpt>
      <trkpt lat="45.74143" lon="4.86861">
        <ele>180.60000610352</ele>
        <time>2024-05-20T14:38:09.000Z</time>
      </trkpt>
      <trkpt lat="45.7414" lon="4.86858">
        <ele>180.60000610352</ele>
        <time>2024-05-20T14:38:10.000Z</time>
      </trkpt>
      <trkpt lat="45.74136" lon="4.86855">
        <ele>180.39999389648</ele>
        <time>2024-05-20T14:38:11.000Z</time>
      </trkpt>
      <trkpt lat="45.74132" lon="4.86852">
        <ele>180.39999389648</ele>
        <time>2024-05-20T14:38:12.000Z</time>
      </trkpt>
      <trkpt lat="45.74129" lon="4.86849">
        <ele>180.60000610352</ele>
        <time>2024-05-20T14:38:13.000Z</time>
      </trkpt>
      <trkpt lat="45.74125" lon="4.86846">
        <ele>180.60000610352</ele>
        <time>2024-05-20T14:38:14.000Z</time>
      </trkpt>
      <trkpt lat="45.74121" lon="4.86843">
        <ele>180.60000610352</ele>
        <time>2024-05-20T14:38:15.000Z</time>
      </trkpt>
      <trkpt lat="45.74117" lon="4.8684">
        <ele>181</ele>
        <time>2024-05-20T14:38:16.000Z</time>
      </trkpt>
      <trkpt lat="45.74113" lon="4.86836">
        <ele>181.19999694824</ele>
        <time>2024-05-20T14:38:17.000Z</time>
      </trkpt>
      <trkpt lat="45.74109" lon="4.86833">
        <ele>181.19999694824</ele>
        <time>2024-05-20T14:38:18.000Z</time>
      </trkpt>
      <trkpt lat="45.74105" lon="4.8683">
        <ele>181.19999694824</ele>
        <time>2024-05-20T14:38:19.000Z</time>
      </trkpt>
      <trkpt lat="45.74101" lon="4.86826">
        <ele>181.19999694824</ele>
        <time>2024-05-20T14:38:20.000Z</time>
      </trkpt>
      <trkpt lat="45.74096" lon="4.86823">
        <ele>181.19999694824</ele>
        <time>2024-05-20T14:38:21.000Z</time>
      </trkpt>
      <trkpt lat="45.74092" lon="4.86819">
        <ele>181</ele>
        <time>2024-05-20T14:38:22.000Z</time>
      </trkpt>
      <trkpt lat="45.74088" lon="4.86815">
        <ele>181</ele>
        <time>2024-05-20T14:38:23.000Z</time>
      </trkpt>
      <trkpt lat="45.74084" lon="4.86812">
        <ele>181</ele>
        <time>2024-05-20T14:38:24.000Z</time>
      </trkpt>
      <trkpt lat="45.7408" lon="4.86808">
        <ele>180.80000305176</ele>
        <time>2024-05-20T14:38:25.000Z</time>
      </trkpt>
      <trkpt lat="45.74076" lon="4.86805">
        <ele>180.80000305176</ele>
        <time>2024-05-20T14:38:26.000Z</time>
      </trkpt>
      <trkpt lat="45.74073" lon="4.86801">
        <ele>180.80000305176</ele>
        <time>2024-05-20T14:38:27.000Z</time>
      </trkpt>
      <trkpt lat="45.74068" lon="4.86797">
        <ele>180.60000610352</ele>
        <time>2024-05-20T14:38:28.000Z</time>
      </trkpt>
      <trkpt lat="45.74064" lon="4.86794">
        <ele>180.60000610352</ele>
        <time>2024-05-20T14:38:29.000Z</time>
      </trkpt>
      <trkpt lat="45.7406" lon="4.86791">
        <ele>180.60000610352</ele>
        <time>2024-05-20T14:38:30.000Z</time>
      </trkpt>
      <trkpt lat="45.74056" lon="4.86788">
        <ele>180.60000610352</ele>
        <time>2024-05-20T14:38:31.000Z</time>
      </trkpt>
      <trkpt lat="45.74052" lon="4.86785">
        <ele>180.60000610352</ele>
        <time>2024-05-20T14:38:32.000Z</time>
      </trkpt>
      <trkpt lat="45.74049" lon="4.86782">
        <ele>180.80000305176</ele>
        <time>2024-05-20T14:38:33.000Z</time>
      </trkpt>
      <trkpt lat="45.74045" lon="4.86779">
        <ele>180.80000305176</ele>
        <time>2024-05-20T14:38:34.000Z</time>
      </trkpt>
      <trkpt lat="45.74042" lon="4.86776">
        <ele>180.80000305176</ele>
        <time>2024-05-20T14:38:35.000Z</time>
      </trkpt>
      <trkpt lat="45.74039" lon="4.86773">
        <ele>181</ele>
        <time>2024-05-20T14:38:36.000Z</time>
      </trkpt>
      <trkpt lat="45.74036" lon="4.8677">
        <ele>181</ele>
        <time>2024-05-20T14:38:37.000Z</time>
      </trkpt>
      <trkpt lat="45.74033" lon="4.86767">
        <ele>181</ele>
        <time>2024-05-20T14:38:38.000Z</time>
      </trkpt>
      <trkpt lat="45.74031" lon="4.86765">
        <ele>181</ele>
        <time>2024-05-20T14:38:39.000Z</time>
      </trkpt>
      <trkpt lat="45.74028" lon="4.86762">
        <ele>181.19999694824</ele>
        <time>2024-05-20T14:38:40.000Z</time>
      </trkpt>
      <trkpt lat="45.74024" lon="4.86758">
        <ele>181.19999694824</ele>
        <time>2024-05-20T14:38:41.000Z</time>
      </trkpt>
      <trkpt lat="45.7402" lon="4.86754">
        <ele>181.19999694824</ele>
        <time>2024-05-20T14:38:42.000Z</time>
      </trkpt>
      <trkpt lat="45.74016" lon="4.86751">
        <ele>181.19999694824</ele>
        <time>2024-05-20T14:38:43.000Z</time>
      </trkpt>
      <trkpt lat="45.74013" lon="4.86747">
        <ele>181.19999694824</ele>
        <time>2024-05-20T14:38:44.000Z</time>
      </trkpt>
      <trkpt lat="45.74009" lon="4.86744">
        <ele>181</ele>
        <time>2024-05-20T14:38:45.000Z</time>
      </trkpt>
      <trkpt lat="45.74005" lon="4.8674">
        <ele>180.80000305176</ele>
        <time>2024-05-20T14:38:46.000Z</time>
      </trkpt>
      <trkpt lat="45.74001" lon="4.86737">
        <ele>180.60000610352</ele>
        <time>2024-05-20T14:38:47.000Z</time>
      </trkpt>
      <trkpt lat="45.73997" lon="4.86733">
        <ele>180.39999389648</ele>
        <time>2024-05-20T14:38:48.000Z</time>
      </trkpt>
      <trkpt lat="45.73993" lon="4.86729">
        <ele>180.39999389648</ele>
        <time>2024-05-20T14:38:49.000Z</time>
      </trkpt>
      <trkpt lat="45.73989" lon="4.86725">
        <ele>180.39999389648</ele>
        <time>2024-05-20T14:38:50.000Z</time>
      </trkpt>
      <trkpt lat="45.73985" lon="4.86722">
        <ele>180.39999389648</ele>
        <time>2024-05-20T14:38:51.000Z</time>
      </trkpt>
      <trkpt lat="45.73981" lon="4.86718">
        <ele>180.39999389648</ele>
        <time>2024-05-20T14:38:52.000Z</time>
      </trkpt>
      <trkpt lat="45.73977" lon="4.86715">
        <ele>180.39999389648</ele>
        <time>2024-05-20T14:38:53.000Z</time>
      </trkpt>
      <trkpt lat="45.73973" lon="4.86711">
        <ele>180.39999389648</ele>
        <time>2024-05-20T14:38:54.000Z</time>
      </trkpt>
      <trkpt lat="45.73969" lon="4.86708">
        <ele>180.39999389648</ele>
        <time>2024-05-20T14:38:55.000Z</time>
      </trkpt>
      <trkpt lat="45.73964" lon="4.86704">
        <ele>180.60000610352</ele>
        <time>2024-05-20T14:38:56.000Z</time>
      </trkpt>
      <trkpt lat="45.7396" lon="4.867">
        <ele>180.60000610352</ele>
        <time>2024-05-20T14:38:57.000Z</time>
      </trkpt>
      <trkpt lat="45.73956" lon="4.86697">
        <ele>180.80000305176</ele>
        <time>2024-05-20T14:38:58.000Z</time>
      </trkpt>
      <trkpt lat="45.73951" lon="4.86693">
        <ele>180.80000305176</ele>
        <time>2024-05-20T14:38:59.000Z</time>
      </trkpt>
      <trkpt lat="45.73947" lon="4.8669">
        <ele>180.80000305176</ele>
        <time>2024-05-20T14:39:00.000Z</time>
      </trkpt>
      <trkpt lat="45.73943" lon="4.86686">
        <ele>180.60000610352</ele>
        <time>2024-05-20T14:39:01.000Z</time>
      </trkpt>
      <trkpt lat="45.7394" lon="4.86682">
        <ele>180.19999694824</ele>
        <time>2024-05-20T14:39:02.000Z</time>
      </trkpt>
      <trkpt lat="45.73936" lon="4.86679">
        <ele>180</ele>
        <time>2024-05-20T14:39:03.000Z</time>
      </trkpt>
      <trkpt lat="45.73933" lon="4.86676">
        <ele>180</ele>
        <time>2024-05-20T14:39:04.000Z</time>
      </trkpt>
      <trkpt lat="45.7393" lon="4.86673">
        <ele>180</ele>
        <time>2024-05-20T14:39:05.000Z</time>
      </trkpt>
      <trkpt lat="45.73927" lon="4.8667">
        <ele>180</ele>
        <time>2024-05-20T14:39:06.000Z</time>
      </trkpt>
      <trkpt lat="45.73924" lon="4.86667">
        <ele>180</ele>
        <time>2024-05-20T14:39:07.000Z</time>
      </trkpt>
      <trkpt lat="45.73922" lon="4.86664">
        <ele>180</ele>
        <time>2024-05-20T14:39:08.000Z</time>
      </trkpt>
      <trkpt lat="45.73919" lon="4.86662">
        <ele>180</ele>
        <time>2024-05-20T14:39:09.000Z</time>
      </trkpt>
      <trkpt lat="45.73916" lon="4.86661">
        <ele>180</ele>
        <time>2024-05-20T14:39:10.000Z</time>
      </trkpt>
      <trkpt lat="45.73913" lon="4.86661">
        <ele>180</ele>
        <time>2024-05-20T14:39:11.000Z</time>
      </trkpt>
      <trkpt lat="45.7391" lon="4.86661">
        <ele>180</ele>
        <time>2024-05-20T14:39:12.000Z</time>
      </trkpt>
      <trkpt lat="45.73908" lon="4.86663">
        <ele>179.80000305176</ele>
        <time>2024-05-20T14:39:13.000Z</time>
      </trkpt>
      <trkpt lat="45.73905" lon="4.86665">
        <ele>179.80000305176</ele>
        <time>2024-05-20T14:39:14.000Z</time>
      </trkpt>
      <trkpt lat="45.73902" lon="4.86668">
        <ele>179.80000305176</ele>
        <time>2024-05-20T14:39:15.000Z</time>
      </trkpt>
      <trkpt lat="45.739" lon="4.8667">
        <ele>179.80000305176</ele>
        <time>2024-05-20T14:39:16.000Z</time>
      </trkpt>
      <trkpt lat="45.73898" lon="4.86672">
        <ele>179.80000305176</ele>
        <time>2024-05-20T14:39:17.000Z</time>
      </trkpt>
      <trkpt lat="45.73895" lon="4.86675">
        <ele>180</ele>
        <time>2024-05-20T14:39:18.000Z</time>
      </trkpt>
      <trkpt lat="45.73893" lon="4.86678">
        <ele>180</ele>
        <time>2024-05-20T14:39:19.000Z</time>
      </trkpt>
      <trkpt lat="45.7389" lon="4.86681">
        <ele>180</ele>
        <time>2024-05-20T14:39:20.000Z</time>
      </trkpt>
      <trkpt lat="45.73888" lon="4.86683">
        <ele>180</ele>
        <time>2024-05-20T14:39:21.000Z</time>
      </trkpt>
      <trkpt lat="45.73885" lon="4.86686">
        <ele>180</ele>
        <time>2024-05-20T14:39:22.000Z</time>
      </trkpt>
      <trkpt lat="45.73882" lon="4.86688">
        <ele>179.80000305176</ele>
        <time>2024-05-20T14:39:23.000Z</time>
      </trkpt>
      <trkpt lat="45.7388" lon="4.86691">
        <ele>179.80000305176</ele>
        <time>2024-05-20T14:39:24.000Z</time>
      </trkpt>
      <trkpt lat="45.73877" lon="4.86694">
        <ele>179.80000305176</ele>
        <time>2024-05-20T14:39:25.000Z</time>
      </trkpt>
      <trkpt lat="45.73874" lon="4.86696">
        <ele>179.80000305176</ele>
        <time>2024-05-20T14:39:26.000Z</time>
      </trkpt>
      <trkpt lat="45.73872" lon="4.86699">
        <ele>179.80000305176</ele>
        <time>2024-05-20T14:39:27.000Z</time>
      </trkpt>
      <trkpt lat="45.7387" lon="4.86701">
        <ele>179.80000305176</ele>
        <time>2024-05-20T14:39:28.000Z</time>
      </trkpt>
      <trkpt lat="45.73868" lon="4.86704">
        <ele>180</ele>
        <time>2024-05-20T14:39:29.000Z</time>
      </trkpt>
      <trkpt lat="45.73867" lon="4.86708">
        <ele>180.19999694824</ele>
        <time>2024-05-20T14:39:30.000Z</time>
      </trkpt>
      <trkpt lat="45.73867" lon="4.86712">
        <ele>180.19999694824</ele>
        <time>2024-05-20T14:39:31.000Z</time>
      </trkpt>
      <trkpt lat="45.73869" lon="4.86716">
        <ele>180.19999694824</ele>
        <time>2024-05-20T14:39:32.000Z</time>
      </trkpt>
      <trkpt lat="45.7387" lon="4.86721">
        <ele>180.19999694824</ele>
        <time>2024-05-20T14:39:33.000Z</time>
      </trkpt>
      <trkpt lat="45.73869" lon="4.86725">
        <ele>180.19999694824</ele>
        <time>2024-05-20T14:39:34.000Z</time>
      </trkpt>
      <trkpt lat="45.73869" lon="4.86729">
        <ele>180.19999694824</ele>
        <time>2024-05-20T14:39:35.000Z</time>
      </trkpt>
      <trkpt lat="45.73868" lon="4.86733">
        <ele>180.19999694824</ele>
        <time>2024-05-20T14:39:36.000Z</time>
      </trkpt>
      <trkpt lat="45.73867" lon="4.86738">
        <ele>180.19999694824</ele>
        <time>2024-05-20T14:39:37.000Z</time>
      </trkpt>
      <trkpt lat="45.73867" lon="4.86742">
        <ele>180</ele>
        <time>2024-05-20T14:39:38.000Z</time>
      </trkpt>
      <trkpt lat="45.73866" lon="4.86747">
        <ele>180</ele>
        <time>2024-05-20T14:39:39.000Z</time>
      </trkpt>
      <trkpt lat="45.73866" lon="4.86753">
        <ele>180.19999694824</ele>
        <time>2024-05-20T14:39:40.000Z</time>
      </trkpt>
      <trkpt lat="45.73865" lon="4.86758">
        <ele>180</ele>
        <time>2024-05-20T14:39:41.000Z</time>
      </trkpt>
      <trkpt lat="45.73865" lon="4.86763">
        <ele>180</ele>
        <time>2024-05-20T14:39:42.000Z</time>
      </trkpt>
      <trkpt lat="45.73864" lon="4.86768">
        <ele>180.19999694824</ele>
        <time>2024-05-20T14:39:43.000Z</time>
      </trkpt>
      <trkpt lat="45.73863" lon="4.86773">
        <ele>180.39999389648</ele>
        <time>2024-05-20T14:39:44.000Z</time>
      </trkpt>
      <trkpt lat="45.73863" lon="4.86779">
        <ele>180.60000610352</ele>
        <time>2024-05-20T14:39:45.000Z</time>
      </trkpt>
      <trkpt lat="45.73862" lon="4.86785">
        <ele>180.60000610352</ele>
        <time>2024-05-20T14:39:46.000Z</time>
      </trkpt>
      <trkpt lat="45.73861" lon="4.8679">
        <ele>180.60000610352</ele>
        <time>2024-05-20T14:39:47.000Z</time>
      </trkpt>
      <trkpt lat="45.73861" lon="4.86796">
        <ele>180.60000610352</ele>
        <time>2024-05-20T14:39:48.000Z</time>
      </trkpt>
      <trkpt lat="45.7386" lon="4.868">
        <ele>180.60000610352</ele>
        <time>2024-05-20T14:39:49.000Z</time>
      </trkpt>
      <trkpt lat="45.73859" lon="4.86805">
        <ele>180.39999389648</ele>
        <time>2024-05-20T14:39:50.000Z</time>
      </trkpt>
      <trkpt lat="45.73858" lon="4.86811">
        <ele>180.39999389648</ele>
        <time>2024-05-20T14:39:51.000Z</time>
      </trkpt>
      <trkpt lat="45.73857" lon="4.86816">
        <ele>180.39999389648</ele>
        <time>2024-05-20T14:39:52.000Z</time>
      </trkpt>
      <trkpt lat="45.73857" lon="4.86821">
        <ele>180.19999694824</ele>
        <time>2024-05-20T14:39:53.000Z</time>
      </trkpt>
      <trkpt lat="45.73856" lon="4.86826">
        <ele>180.19999694824</ele>
        <time>2024-05-20T14:39:54.000Z</time>
      </trkpt>
      <trkpt lat="45.73855" lon="4.86832">
        <ele>180.19999694824</ele>
        <time>2024-05-20T14:39:55.000Z</time>
      </trkpt>
      <trkpt lat="45.73854" lon="4.86837">
        <ele>180.39999389648</ele>
        <time>2024-05-20T14:39:56.000Z</time>
      </trkpt>
      <trkpt lat="45.73853" lon="4.86843">
        <ele>180.19999694824</ele>
        <time>2024-05-20T14:39:57.000Z</time>
      </trkpt>
      <trkpt lat="45.73852" lon="4.86848">
        <ele>180.19999694824</ele>
        <time>2024-05-20T14:39:58.000Z</time>
      </trkpt>
      <trkpt lat="45.73851" lon="4.86854">
        <ele>180.19999694824</ele>
        <time>2024-05-20T14:39:59.000Z</time>
      </trkpt>
      <trkpt lat="45.7385" lon="4.86861">
        <ele>180.19999694824</ele>
        <time>2024-05-20T14:40:00.000Z</time>
      </trkpt>
      <trkpt lat="45.73849" lon="4.86866">
        <ele>180.19999694824</ele>
        <time>2024-05-20T14:40:01.000Z</time>
      </trkpt>
      <trkpt lat="45.73848" lon="4.86872">
        <ele>180.19999694824</ele>
        <time>2024-05-20T14:40:02.000Z</time>
      </trkpt>
      <trkpt lat="45.73848" lon="4.86877">
        <ele>180.19999694824</ele>
        <time>2024-05-20T14:40:03.000Z</time>
      </trkpt>
      <trkpt lat="45.73847" lon="4.86882">
        <ele>180.19999694824</ele>
        <time>2024-05-20T14:40:04.000Z</time>
      </trkpt>
      <trkpt lat="45.73846" lon="4.86887">
        <ele>180.19999694824</ele>
        <time>2024-05-20T14:40:05.000Z</time>
      </trkpt>
      <trkpt lat="45.73845" lon="4.86893">
        <ele>180.39999389648</ele>
        <time>2024-05-20T14:40:06.000Z</time>
      </trkpt>
      <trkpt lat="45.73845" lon="4.86897">
        <ele>180.19999694824</ele>
        <time>2024-05-20T14:40:07.000Z</time>
      </trkpt>
      <trkpt lat="45.73844" lon="4.86903">
        <ele>180.19999694824</ele>
        <time>2024-05-20T14:40:08.000Z</time>
      </trkpt>
      <trkpt lat="45.73842" lon="4.8691">
        <ele>180.19999694824</ele>
        <time>2024-05-20T14:40:09.000Z</time>
      </trkpt>
      <trkpt lat="45.73841" lon="4.86916">
        <ele>180.39999389648</ele>
        <time>2024-05-20T14:40:10.000Z</time>
      </trkpt>
      <trkpt lat="45.7384" lon="4.86922">
        <ele>180.39999389648</ele>
        <time>2024-05-20T14:40:11.000Z</time>
      </trkpt>
      <trkpt lat="45.73839" lon="4.86929">
        <ele>180.39999389648</ele>
        <time>2024-05-20T14:40:12.000Z</time>
      </trkpt>
      <trkpt lat="45.73838" lon="4.86934">
        <ele>180.39999389648</ele>
        <time>2024-05-20T14:40:13.000Z</time>
      </trkpt>
      <trkpt lat="45.73837" lon="4.8694">
        <ele>180.39999389648</ele>
        <time>2024-05-20T14:40:14.000Z</time>
      </trkpt>
      <trkpt lat="45.73836" lon="4.86947">
        <ele>180.39999389648</ele>
        <time>2024-05-20T14:40:15.000Z</time>
      </trkpt>
      <trkpt lat="45.73835" lon="4.86954">
        <ele>180.39999389648</ele>
        <time>2024-05-20T14:40:16.000Z</time>
      </trkpt>
      <trkpt lat="45.73834" lon="4.86961">
        <ele>180.39999389648</ele>
        <time>2024-05-20T14:40:17.000Z</time>
      </trkpt>
      <trkpt lat="45.73833" lon="4.86968">
        <ele>180.39999389648</ele>
        <time>2024-05-20T14:40:18.000Z</time>
      </trkpt>
      <trkpt lat="45.73832" lon="4.86975">
        <ele>180.39999389648</ele>
        <time>2024-05-20T14:40:19.000Z</time>
      </trkpt>
      <trkpt lat="45.73832" lon="4.8698">
        <ele>180.39999389648</ele>
        <time>2024-05-20T14:40:20.000Z</time>
      </trkpt>
      <trkpt lat="45.73831" lon="4.86987">
        <ele>180.19999694824</ele>
        <time>2024-05-20T14:40:21.000Z</time>
      </trkpt>
      <trkpt lat="45.73829" lon="4.86994">
        <ele>180.19999694824</ele>
        <time>2024-05-20T14:40:22.000Z</time>
      </trkpt>
      <trkpt lat="45.73828" lon="4.87001">
        <ele>180.19999694824</ele>
        <time>2024-05-20T14:40:23.000Z</time>
      </trkpt>
      <trkpt lat="45.73827" lon="4.87006">
        <ele>180.19999694824</ele>
        <time>2024-05-20T14:40:24.000Z</time>
      </trkpt>
      <trkpt lat="45.73826" lon="4.87012">
        <ele>180</ele>
        <time>2024-05-20T14:40:25.000Z</time>
      </trkpt>
      <trkpt lat="45.73825" lon="4.87018">
        <ele>180</ele>
        <time>2024-05-20T14:40:26.000Z</time>
      </trkpt>
      <trkpt lat="45.73823" lon="4.87024">
        <ele>180</ele>
        <time>2024-05-20T14:40:27.000Z</time>
      </trkpt>
      <trkpt lat="45.73822" lon="4.8703">
        <ele>180</ele>
        <time>2024-05-20T14:40:28.000Z</time>
      </trkpt>
      <trkpt lat="45.73821" lon="4.87036">
        <ele>180</ele>
        <time>2024-05-20T14:40:29.000Z</time>
      </trkpt>
      <trkpt lat="45.7382" lon="4.87041">
        <ele>180</ele>
        <time>2024-05-20T14:40:30.000Z</time>
      </trkpt>
      <trkpt lat="45.73818" lon="4.87047">
        <ele>179.80000305176</ele>
        <time>2024-05-20T14:40:31.000Z</time>
      </trkpt>
      <trkpt lat="45.73817" lon="4.87052">
        <ele>179.80000305176</ele>
        <time>2024-05-20T14:40:32.000Z</time>
      </trkpt>
      <trkpt lat="45.73816" lon="4.87058">
        <ele>179.80000305176</ele>
        <time>2024-05-20T14:40:33.000Z</time>
      </trkpt>
      <trkpt lat="45.73815" lon="4.87064">
        <ele>179.80000305176</ele>
        <time>2024-05-20T14:40:34.000Z</time>
      </trkpt>
      <trkpt lat="45.73813" lon="4.8707">
        <ele>179.80000305176</ele>
        <time>2024-05-20T14:40:35.000Z</time>
      </trkpt>
      <trkpt lat="45.73812" lon="4.87076">
        <ele>179.80000305176</ele>
        <time>2024-05-20T14:40:36.000Z</time>
      </trkpt>
      <trkpt lat="45.73811" lon="4.87083">
        <ele>179.80000305176</ele>
        <time>2024-05-20T14:40:37.000Z</time>
      </trkpt>
      <trkpt lat="45.7381" lon="4.8709">
        <ele>180</ele>
        <time>2024-05-20T14:40:38.000Z</time>
      </trkpt>
      <trkpt lat="45.73809" lon="4.87097">
        <ele>180</ele>
        <time>2024-05-20T14:40:39.000Z</time>
      </trkpt>
      <trkpt lat="45.73808" lon="4.87103">
        <ele>180.19999694824</ele>
        <time>2024-05-20T14:40:40.000Z</time>
      </trkpt>
      <trkpt lat="45.73807" lon="4.87108">
        <ele>180.39999389648</ele>
        <time>2024-05-20T14:40:41.000Z</time>
      </trkpt>
      <trkpt lat="45.73806" lon="4.87113">
        <ele>180.39999389648</ele>
        <time>2024-05-20T14:40:42.000Z</time>
      </trkpt>
      <trkpt lat="45.73805" lon="4.87118">
        <ele>180.39999389648</ele>
        <time>2024-05-20T14:40:43.000Z</time>
      </trkpt>
      <trkpt lat="45.73804" lon="4.87121">
        <ele>180.39999389648</ele>
        <time>2024-05-20T14:40:44.000Z</time>
      </trkpt>
      <trkpt lat="45.73804" lon="4.87123">
        <ele>180.60000610352</ele>
        <time>2024-05-20T14:40:45.000Z</time>
      </trkpt>
      <trkpt lat="45.73803" lon="4.87124">
        <ele>180.60000610352</ele>
        <time>2024-05-20T14:40:46.000Z</time>
      </trkpt>
      <trkpt lat="45.73803" lon="4.87124">
        <ele>180.60000610352</ele>
        <time>2024-05-20T14:40:47.000Z</time>
      </trkpt>
      <trkpt lat="45.73803" lon="4.87124">
        <ele>180.60000610352</ele>
        <time>2024-05-20T14:40:48.000Z</time>
      </trkpt>
      <trkpt lat="45.73803" lon="4.87129">
        <ele>180.39999389648</ele>
        <time>2024-05-20T14:40:55.000Z</time>
      </trkpt>
      <trkpt lat="45.73803" lon="4.87133">
        <ele>180.39999389648</ele>
        <time>2024-05-20T14:40:56.000Z</time>
      </trkpt>
      <trkpt lat="45.73802" lon="4.87137">
        <ele>180.39999389648</ele>
        <time>2024-05-20T14:40:57.000Z</time>
      </trkpt>
      <trkpt lat="45.73801" lon="4.87141">
        <ele>180.39999389648</ele>
        <time>2024-05-20T14:40:58.000Z</time>
      </trkpt>
      <trkpt lat="45.738" lon="4.87146">
        <ele>180.39999389648</ele>
        <time>2024-05-20T14:40:59.000Z</time>
      </trkpt>
      <trkpt lat="45.73799" lon="4.8715">
        <ele>180.19999694824</ele>
        <time>2024-05-20T14:41:00.000Z</time>
      </trkpt>
      <trkpt lat="45.73799" lon="4.87155">
        <ele>180</ele>
        <time>2024-05-20T14:41:01.000Z</time>
      </trkpt>
      <trkpt lat="45.73798" lon="4.87159">
        <ele>180</ele>
        <time>2024-05-20T14:41:02.000Z</time>
      </trkpt>
      <trkpt lat="45.73797" lon="4.87164">
        <ele>180</ele>
        <time>2024-05-20T14:41:03.000Z</time>
      </trkpt>
      <trkpt lat="45.73796" lon="4.8717">
        <ele>179.80000305176</ele>
        <time>2024-05-20T14:41:04.000Z</time>
      </trkpt>
      <trkpt lat="45.73794" lon="4.87176">
        <ele>179.80000305176</ele>
        <time>2024-05-20T14:41:05.000Z</time>
      </trkpt>
      <trkpt lat="45.73793" lon="4.87182">
        <ele>179.39999389648</ele>
        <time>2024-05-20T14:41:06.000Z</time>
      </trkpt>
      <trkpt lat="45.73792" lon="4.87188">
        <ele>179.39999389648</ele>
        <time>2024-05-20T14:41:07.000Z</time>
      </trkpt>
      <trkpt lat="45.73792" lon="4.87194">
        <ele>179.19999694824</ele>
        <time>2024-05-20T14:41:08.000Z</time>
      </trkpt>
      <trkpt lat="45.73791" lon="4.872">
        <ele>179.19999694824</ele>
        <time>2024-05-20T14:41:09.000Z</time>
      </trkpt>
      <trkpt lat="45.7379" lon="4.87206">
        <ele>179.19999694824</ele>
        <time>2024-05-20T14:41:10.000Z</time>
      </trkpt>
      <trkpt lat="45.73789" lon="4.87212">
        <ele>179.19999694824</ele>
        <time>2024-05-20T14:41:11.000Z</time>
      </trkpt>
      <trkpt lat="45.73788" lon="4.87219">
        <ele>179.19999694824</ele>
        <time>2024-05-20T14:41:12.000Z</time>
      </trkpt>
      <trkpt lat="45.73787" lon="4.87225">
        <ele>179.39999389648</ele>
        <time>2024-05-20T14:41:13.000Z</time>
      </trkpt>
      <trkpt lat="45.73786" lon="4.87232">
        <ele>179.39999389648</ele>
        <time>2024-05-20T14:41:14.000Z</time>
      </trkpt>
      <trkpt lat="45.73785" lon="4.87238">
        <ele>179.39999389648</ele>
        <time>2024-05-20T14:41:15.000Z</time>
      </trkpt>
      <trkpt lat="45.73784" lon="4.87245">
        <ele>179.39999389648</ele>
        <time>2024-05-20T14:41:16.000Z</time>
      </trkpt>
      <trkpt lat="45.73783" lon="4.87252">
        <ele>179.60000610352</ele>
        <time>2024-05-20T14:41:17.000Z</time>
      </trkpt>
      <trkpt lat="45.73782" lon="4.87258">
        <ele>179.60000610352</ele>
        <time>2024-05-20T14:41:18.000Z</time>
      </trkpt>
      <trkpt lat="45.7378" lon="4.87266">
        <ele>179.60000610352</ele>
        <time>2024-05-20T14:41:19.000Z</time>
      </trkpt>
      <trkpt lat="45.73779" lon="4.87272">
        <ele>179.60000610352</ele>
        <time>2024-05-20T14:41:20.000Z</time>
      </trkpt>
      <trkpt lat="45.73778" lon="4.87278">
        <ele>179.60000610352</ele>
        <time>2024-05-20T14:41:21.000Z</time>
      </trkpt>
      <trkpt lat="45.73777" lon="4.87285">
        <ele>179.60000610352</ele>
        <time>2024-05-20T14:41:22.000Z</time>
      </trkpt>
      <trkpt lat="45.73775" lon="4.87291">
        <ele>179.60000610352</ele>
        <time>2024-05-20T14:41:23.000Z</time>
      </trkpt>
      <trkpt lat="45.73774" lon="4.87297">
        <ele>179.60000610352</ele>
        <time>2024-05-20T14:41:24.000Z</time>
      </trkpt>
      <trkpt lat="45.73772" lon="4.87305">
        <ele>179.60000610352</ele>
        <time>2024-05-20T14:41:25.000Z</time>
      </trkpt>
      <trkpt lat="45.73771" lon="4.87312">
        <ele>179.60000610352</ele>
        <time>2024-05-20T14:41:26.000Z</time>
      </trkpt>
      <trkpt lat="45.7377" lon="4.87319">
        <ele>179.60000610352</ele>
        <time>2024-05-20T14:41:27.000Z</time>
      </trkpt>
      <trkpt lat="45.73769" lon="4.87325">
        <ele>179.60000610352</ele>
        <time>2024-05-20T14:41:28.000Z</time>
      </trkpt>
      <trkpt lat="45.73768" lon="4.87333">
        <ele>179.80000305176</ele>
        <time>2024-05-20T14:41:29.000Z</time>
      </trkpt>
      <trkpt lat="45.73767" lon="4.8734">
        <ele>179.80000305176</ele>
        <time>2024-05-20T14:41:30.000Z</time>
      </trkpt>
      <trkpt lat="45.73766" lon="4.87347">
        <ele>180</ele>
        <time>2024-05-20T14:41:31.000Z</time>
      </trkpt>
      <trkpt lat="45.73765" lon="4.87352">
        <ele>180</ele>
        <time>2024-05-20T14:41:32.000Z</time>
      </trkpt>
      <trkpt lat="45.73763" lon="4.8736">
        <ele>180</ele>
        <time>2024-05-20T14:41:33.000Z</time>
      </trkpt>
      <trkpt lat="45.73762" lon="4.87365">
        <ele>180</ele>
        <time>2024-05-20T14:41:34.000Z</time>
      </trkpt>
      <trkpt lat="45.73762" lon="4.87373">
        <ele>180</ele>
        <time>2024-05-20T14:41:35.000Z</time>
      </trkpt>
      <trkpt lat="45.7376" lon="4.87378">
        <ele>180</ele>
        <time>2024-05-20T14:41:36.000Z</time>
      </trkpt>
      <trkpt lat="45.7376" lon="4.87383">
        <ele>180</ele>
        <time>2024-05-20T14:41:37.000Z</time>
      </trkpt>
      <trkpt lat="45.73758" lon="4.87388">
        <ele>180</ele>
        <time>2024-05-20T14:41:38.000Z</time>
      </trkpt>
      <trkpt lat="45.73757" lon="4.87393">
        <ele>179.80000305176</ele>
        <time>2024-05-20T14:41:39.000Z</time>
      </trkpt>
      <trkpt lat="45.73756" lon="4.87397">
        <ele>179.80000305176</ele>
        <time>2024-05-20T14:41:40.000Z</time>
      </trkpt>
      <trkpt lat="45.73755" lon="4.874">
        <ele>179.80000305176</ele>
        <time>2024-05-20T14:41:41.000Z</time>
      </trkpt>
      <trkpt lat="45.73754" lon="4.87403">
        <ele>179.80000305176</ele>
        <time>2024-05-20T14:41:42.000Z</time>
      </trkpt>
      <trkpt lat="45.73753" lon="4.87406">
        <ele>180</ele>
        <time>2024-05-20T14:41:43.000Z</time>
      </trkpt>
      <trkpt lat="45.73752" lon="4.87409">
        <ele>180</ele>
        <time>2024-05-20T14:41:44.000Z</time>
      </trkpt>
      <trkpt lat="45.73752" lon="4.87413">
        <ele>180.19999694824</ele>
        <time>2024-05-20T14:41:45.000Z</time>
      </trkpt>
      <trkpt lat="45.73752" lon="4.87417">
        <ele>180.19999694824</ele>
        <time>2024-05-20T14:41:46.000Z</time>
      </trkpt>
      <trkpt lat="45.73751" lon="4.87422">
        <ele>180.19999694824</ele>
        <time>2024-05-20T14:41:47.000Z</time>
      </trkpt>
      <trkpt lat="45.73751" lon="4.87427">
        <ele>180.19999694824</ele>
        <time>2024-05-20T14:41:48.000Z</time>
      </trkpt>
      <trkpt lat="45.7375" lon="4.87432">
        <ele>180.19999694824</ele>
        <time>2024-05-20T14:41:49.000Z</time>
      </trkpt>
      <trkpt lat="45.7375" lon="4.87436">
        <ele>180</ele>
        <time>2024-05-20T14:41:50.000Z</time>
      </trkpt>
      <trkpt lat="45.73749" lon="4.87441">
        <ele>180</ele>
        <time>2024-05-20T14:41:51.000Z</time>
      </trkpt>
      <trkpt lat="45.73748" lon="4.87447">
        <ele>179.80000305176</ele>
        <time>2024-05-20T14:41:52.000Z</time>
      </trkpt>
      <trkpt lat="45.73746" lon="4.87453">
        <ele>179.80000305176</ele>
        <time>2024-05-20T14:41:53.000Z</time>
      </trkpt>
      <trkpt lat="45.73745" lon="4.87459">
        <ele>179.80000305176</ele>
        <time>2024-05-20T14:41:54.000Z</time>
      </trkpt>
      <trkpt lat="45.73743" lon="4.87465">
        <ele>179.60000610352</ele>
        <time>2024-05-20T14:41:55.000Z</time>
      </trkpt>
      <trkpt lat="45.73742" lon="4.87471">
        <ele>179.60000610352</ele>
        <time>2024-05-20T14:41:56.000Z</time>
      </trkpt>
      <trkpt lat="45.73741" lon="4.87478">
        <ele>179.60000610352</ele>
        <time>2024-05-20T14:41:57.000Z</time>
      </trkpt>
      <trkpt lat="45.7374" lon="4.87484">
        <ele>179.60000610352</ele>
        <time>2024-05-20T14:41:58.000Z</time>
      </trkpt>
      <trkpt lat="45.73739" lon="4.87491">
        <ele>179.60000610352</ele>
        <time>2024-05-20T14:41:59.000Z</time>
      </trkpt>
      <trkpt lat="45.73739" lon="4.87497">
        <ele>179.60000610352</ele>
        <time>2024-05-20T14:42:00.000Z</time>
      </trkpt>
      <trkpt lat="45.73738" lon="4.87504">
        <ele>179.60000610352</ele>
        <time>2024-05-20T14:42:01.000Z</time>
      </trkpt>
      <trkpt lat="45.73737" lon="4.8751">
        <ele>179.80000305176</ele>
        <time>2024-05-20T14:42:02.000Z</time>
      </trkpt>
      <trkpt lat="45.73736" lon="4.87517">
        <ele>179.80000305176</ele>
        <time>2024-05-20T14:42:03.000Z</time>
      </trkpt>
      <trkpt lat="45.73735" lon="4.87523">
        <ele>179.80000305176</ele>
        <time>2024-05-20T14:42:04.000Z</time>
      </trkpt>
      <trkpt lat="45.73735" lon="4.87529">
        <ele>180</ele>
        <time>2024-05-20T14:42:05.000Z</time>
      </trkpt>
      <trkpt lat="45.73734" lon="4.87534">
        <ele>180</ele>
        <time>2024-05-20T14:42:06.000Z</time>
      </trkpt>
      <trkpt lat="45.73732" lon="4.87539">
        <ele>180</ele>
        <time>2024-05-20T14:42:07.000Z</time>
      </trkpt>
      <trkpt lat="45.73728" lon="4.87542">
        <ele>180</ele>
        <time>2024-05-20T14:42:08.000Z</time>
      </trkpt>
      <trkpt lat="45.73725" lon="4.87543">
        <ele>180</ele>
        <time>2024-05-20T14:42:09.000Z</time>
      </trkpt>
      <trkpt lat="45.73722" lon="4.87544">
        <ele>180</ele>
        <time>2024-05-20T14:42:10.000Z</time>
      </trkpt>
      <trkpt lat="45.73718" lon="4.87544">
        <ele>180</ele>
        <time>2024-05-20T14:42:11.000Z</time>
      </trkpt>
      <trkpt lat="45.73714" lon="4.87545">
        <ele>179.80000305176</ele>
        <time>2024-05-20T14:42:12.000Z</time>
      </trkpt>
      <trkpt lat="45.73711" lon="4.87545">
        <ele>179.60000610352</ele>
        <time>2024-05-20T14:42:13.000Z</time>
      </trkpt>
      <trkpt lat="45.73708" lon="4.87545">
        <ele>179.60000610352</ele>
        <time>2024-05-20T14:42:14.000Z</time>
      </trkpt>
      <trkpt lat="45.73705" lon="4.87545">
        <ele>179.39999389648</ele>
        <time>2024-05-20T14:42:15.000Z</time>
      </trkpt>
      <trkpt lat="45.73702" lon="4.87545">
        <ele>179.39999389648</ele>
        <time>2024-05-20T14:42:16.000Z</time>
      </trkpt>
      <trkpt lat="45.73699" lon="4.87545">
        <ele>179.39999389648</ele>
        <time>2024-05-20T14:42:17.000Z</time>
      </trkpt>
      <trkpt lat="45.73697" lon="4.87543">
        <ele>179.39999389648</ele>
        <time>2024-05-20T14:42:18.000Z</time>
      </trkpt>
      <trkpt lat="45.73694" lon="4.87542">
        <ele>179.39999389648</ele>
        <time>2024-05-20T14:42:19.000Z</time>
      </trkpt>
      <trkpt lat="45.73692" lon="4.87539">
        <ele>179.39999389648</ele>
        <time>2024-05-20T14:42:20.000Z</time>
      </trkpt>
      <trkpt lat="45.73688" lon="4.87537">
        <ele>179.39999389648</ele>
        <time>2024-05-20T14:42:21.000Z</time>
      </trkpt>
      <trkpt lat="45.73686" lon="4.87538">
        <ele>179.80000305176</ele>
        <time>2024-05-20T14:42:22.000Z</time>
      </trkpt>
      <trkpt lat="45.73682" lon="4.87537">
        <ele>179.80000305176</ele>
        <time>2024-05-20T14:42:23.000Z</time>
      </trkpt>
      <trkpt lat="45.73679" lon="4.87537">
        <ele>179.80000305176</ele>
        <time>2024-05-20T14:42:24.000Z</time>
      </trkpt>
      <trkpt lat="45.73676" lon="4.87537">
        <ele>180</ele>
        <time>2024-05-20T14:42:25.000Z</time>
      </trkpt>
      <trkpt lat="45.73673" lon="4.87536">
        <ele>180</ele>
        <time>2024-05-20T14:42:26.000Z</time>
      </trkpt>
      <trkpt lat="45.7367" lon="4.87535">
        <ele>180</ele>
        <time>2024-05-20T14:42:27.000Z</time>
      </trkpt>
      <trkpt lat="45.73668" lon="4.87535">
        <ele>180.19999694824</ele>
        <time>2024-05-20T14:42:28.000Z</time>
      </trkpt>
      <trkpt lat="45.73665" lon="4.87534">
        <ele>180.39999389648</ele>
        <time>2024-05-20T14:42:29.000Z</time>
      </trkpt>
      <trkpt lat="45.73663" lon="4.87534">
        <ele>180.39999389648</ele>
        <time>2024-05-20T14:42:30.000Z</time>
      </trkpt>
      <trkpt lat="45.73661" lon="4.87534">
        <ele>180.39999389648</ele>
        <time>2024-05-20T14:42:31.000Z</time>
      </trkpt>
      <trkpt lat="45.73659" lon="4.87533">
        <ele>180.39999389648</ele>
        <time>2024-05-20T14:42:32.000Z</time>
      </trkpt>
      <trkpt lat="45.73657" lon="4.87533">
        <ele>180.39999389648</ele>
        <time>2024-05-20T14:42:33.000Z</time>
      </trkpt>
      <trkpt lat="45.73656" lon="4.87533">
        <ele>180.39999389648</ele>
        <time>2024-05-20T14:42:34.000Z</time>
      </trkpt>
      <trkpt lat="45.73656" lon="4.87533">
        <ele>180.39999389648</ele>
        <time>2024-05-20T14:42:35.000Z</time>
      </trkpt>
    </trkseg>
  </trk>
</gpx>